Date time  Uvelocity_cm/s Vvelocity_cm/s W_velocity_cm/s horizontalSpeedCareful_cm/s TotalSpeedCareful_cm/s HorizontalWindDirection_deg WindElevation_deg SpeedOfSound_cm/sec Temperature_Kelvin pressure_mb2009/04/23 10:59:59.9     -56   -113     47    127    135 206.3  20.9  34182  289.94 0855.11
2009/04/23 11:00:00.0      54   -148     51    158    167 160.0  17.9  34180  289.91 0855.11
2009/04/23 11:00:00.1      81   -207     78    223    236 158.6  20.0  34180  289.91 0855.11
2009/04/23 11:00:00.2      44   -179     70    185    197 166.0  21.5  34180  289.92 0855.13
2009/04/23 11:00:00.3     -17   -150     18    152    154 186.7   6.9  34178  289.89 0855.13
2009/04/23 11:00:00.4      48   -131     46    140    148 159.9  18.4  34178  289.87 0855.13
2009/04/23 11:00:00.5      56   -129     49    141    150 156.4  19.2  34180  289.91 0855.13
2009/04/23 11:00:00.6      10   -136     33    137    141 175.6  13.7  34178  289.87 0855.13
2009/04/23 11:00:00.7     -86   -148      7    172    173 210.3   2.5  34176  289.85 0855.13
2009/04/23 11:00:00.8     -99   -155     15    185    186 212.7   4.9  34178  289.89 0855.13
2009/04/23 11:00:00.9    -101   -115      7    154    155 221.4   2.9  34174  289.82 0855.13
2009/04/23 11:00:01.0     -93   -106     40    142    148 221.4  15.8  34176  289.84 0855.13
2009/04/23 11:00:01.1     -67   -143    174    159    235 205.3  53.2  34176  289.85 0855.13
2009/04/23 11:00:01.2     -55   -165    170    175    243 198.5  49.4  34174  289.82 0855.13
2009/04/23 11:00:01.3    -130   -194    140    234    272 213.8  34.0  34174  289.81 0855.13
2009/04/23 11:00:01.4    -129   -188    113    229    255 214.5  28.2  34172  289.76 0855.13
2009/04/23 11:00:01.5    -109   -151    108    187    215 216.0  32.4  34170  289.75 0855.13
2009/04/23 11:00:01.6     -86   -138    162    163    229 212.1  50.0  34178  289.89 0855.13
2009/04/23 11:00:01.7     -72   -188    133    202    241 201.2  36.5  34176  289.84 0855.13
2009/04/23 11:00:01.8     -51   -108     75    120    141 205.3  35.5  34174  289.80 0855.13
2009/04/23 11:00:01.9     -99   -161     80    190    206 211.6  24.3  34178  289.87 0855.13
2009/04/23 11:00:02.0     -68   -157     83    172    190 203.6  27.3  34174  289.82 0855.13
2009/04/23 11:00:02.1     -29   -194     50    197    204 188.7  14.3  34178  289.87 0855.13
2009/04/23 11:00:02.2     -37   -181     27    185    188 191.6   8.5  34178  289.87 0855.16
2009/04/23 11:00:02.3     -94   -167    -37    192    196 209.4 -10.9  34178  289.89 0855.16
2009/04/23 11:00:02.4     -67   -189     36    201    205 199.6  10.3  34168  289.70 0855.16
2009/04/23 11:00:02.5     -46   -291      9    295    296 189.1   1.8  34176  289.83 0855.16
2009/04/23 11:00:02.6     -16   -220    -12    221    222 184.4  -3.1  34176  289.84 0855.16
2009/04/23 11:00:02.7     -76   -106    -12    131    132 216.0  -5.6  34176  289.85 0855.16
2009/04/23 11:00:02.8     -23    -86    -77     90    118 195.1 -49.8  34180  289.92 0855.16
2009/04/23 11:00:02.9     -47    -56    -45     74     86 219.6 -38.8  34184  289.99 0855.16
2009/04/23 11:00:03.0     -94    -72    -68    119    137 232.7 -36.3  34184  289.97 0855.16
2009/04/23 11:00:03.1     -96    -36    -36    103    109 249.2 -23.3  34178  289.87 0855.16
2009/04/23 11:00:03.2    -101    -61     -5    119    120 238.9  -2.6  34182  289.94 0855.17
2009/04/23 11:00:03.3     -95    -52    -15    109    111 241.2  -8.2  34192  290.11 0855.17
2009/04/23 11:00:03.4     -70    -53    -49     89    101 232.7 -35.8  34204  290.33 0855.17
2009/04/23 11:00:03.5     -42    -51    -69     67     96 219.7 -54.5  34210  290.41 0855.17
2009/04/23 11:00:03.6    -111    -72    -60    133    145 237.1 -30.1  34204  290.33 0855.17
2009/04/23 11:00:03.7    -110   -105    -37    153    158 226.4 -13.9  34212  290.47 0855.17
2009/04/23 11:00:03.8    -142   -117    -59    185    194 230.5 -23.3  34204  290.31 0855.17
2009/04/23 11:00:03.9    -199   -215    -99    294    311 222.8 -18.7  34212  290.46 0855.17
2009/04/23 11:00:04.0    -193   -256    -81    321    332 217.0 -14.3  34204  290.31 0855.17
2009/04/23 11:00:04.1    -161   -143    -69    216    226 228.4 -23.0  34214  290.48 0855.17
2009/04/23 11:00:04.2    -275      0    -99    276    293 270.1 -25.1  34212  290.46 0855.17
2009/04/23 11:00:04.3    -182    -25    -65    184    195 262.0 -24.4  34222  290.64 0855.17
2009/04/23 11:00:04.4    -110    -98   -113    148    186 228.2 -45.8  34214  290.50 0855.17
2009/04/23 11:00:04.5    -125    -57   -121    138    183 245.6 -50.6  34200  290.26 0855.17
2009/04/23 11:00:04.6      -8    -97    -74     98    122 184.9 -45.6  34210  290.43 0855.17
2009/04/23 11:00:04.7     -30   -255    -95    257    273 186.9 -25.4  34210  290.42 0855.17
2009/04/23 11:00:04.8    -139   -188    -89    234    250 216.5 -26.1  34202  290.27 0855.17
2009/04/23 11:00:04.9    -104   -151   -116    184    217 214.7 -39.9  34186  290.02 0855.17
2009/04/23 11:00:05.0     -93   -183    -83    206    222 207.1 -27.4  34198  290.21 0855.17
2009/04/23 11:00:05.1     -52   -205    -72    212    223 194.3 -23.3  34202  290.30 0855.17
2009/04/23 11:00:05.2    -126   -128    -90    180    201 224.5 -33.1  34200  290.26 0855.17
2009/04/23 11:00:05.3     -88   -113    -78    144    163 217.9 -35.4  34200  290.25 0855.17
2009/04/23 11:00:05.4     -85   -166    -57    187    195 207.2 -22.1  34196  290.18 0855.17
2009/04/23 11:00:05.5    -107   -192    -38    221    225 209.2  -9.8  34192  290.13 0855.17
2009/04/23 11:00:05.6     -70   -125    -98    144    174 209.4 -41.7  34198  290.21 0855.17
2009/04/23 11:00:05.7      -6    -68   -120     69    138 185.3 -72.1  34204  290.33 0855.17
2009/04/23 11:00:05.8     -48   -145    -48    153    161 198.3 -17.6  34206  290.36 0855.17
2009/04/23 11:00:05.9     -60    -76     38     97    104 218.3  22.0  34206  290.35 0855.17
2009/04/23 11:00:06.0     -27    -78      4     83     84 199.6   3.3  34206  290.35 0855.17
2009/04/23 11:00:06.1     -45    -81      6     93     94 209.0   3.8  34202  290.30 0855.17
2009/04/23 11:00:06.2    -119    -98    -24    155    157 230.5  -8.8  34198  290.23 0855.17
2009/04/23 11:00:06.3    -111    -94    -40    146    152 229.6 -15.5  34200  290.25 0855.17
2009/04/23 11:00:06.4    -102   -123    -59    161    171 219.7 -25.4  34208  290.40 0855.17
2009/04/23 11:00:06.5    -110   -146    -12    184    185 217.0  -3.7  34202  290.30 0855.17
2009/04/23 11:00:06.6     -20   -192    -64    194    205 186.2 -18.3  34212  290.45 0855.17
2009/04/23 11:00:06.7     -82   -177    -35    196    200 204.9 -10.1  34206  290.36 0855.17
2009/04/23 11:00:06.8     -39   -121     -5    128    129 197.8  -2.2  34214  290.48 0855.17
2009/04/23 11:00:06.9    -103    -68    -34    124    129 236.7 -15.4  34198  290.21 0855.17
2009/04/23 11:00:07.0    -121    -49    -20    131    133 247.8  -8.8  34190  290.08 0855.17
2009/04/23 11:00:07.1     -62    -34    -26     71     75 241.1 -23.3  34190  290.09 0855.17
2009/04/23 11:00:07.2      -4    -59     32     60     68 184.5  31.3  34190  290.08 0855.17
2009/04/23 11:00:07.3       3    -39     44     40     59 175.5  52.2  34200  290.26 0855.17
2009/04/23 11:00:07.4     -53    -56     30     78     83 223.2  21.5  34196  290.18 0855.17
2009/04/23 11:00:07.5     -55    -53     43     77     88 225.9  31.4  34202  290.30 0855.17
2009/04/23 11:00:07.6     -55    -42     22     70     74 232.2  17.3  34202  290.30 0855.17
2009/04/23 11:00:07.7     -78      7    -14     79     81 275.2 -10.3  34206  290.36 0855.17
2009/04/23 11:00:07.8     -51     31    -48     60     76 301.5 -48.1  34206  290.36 0855.17
2009/04/23 11:00:07.9     -66    -64    -34     93     99 226.0 -24.8  34198  290.21 0855.17
2009/04/23 11:00:08.0    -102    -45    -26    112    116 246.0 -13.4  34196  290.19 0855.17
2009/04/23 11:00:08.1    -141    -57    -30    153    156 247.8 -11.1  34204  290.33 0855.17
2009/04/23 11:00:08.2    -122    -36     -4    128    129 253.2  -1.8  34202  290.28 0855.17
2009/04/23 11:00:08.3     -87    -42     -9     97     98 243.8  -5.6  34200  290.25 0855.17
2009/04/23 11:00:08.4    -150    -79    -38    170    175 242.0 -12.6  34220  290.60 0855.17
2009/04/23 11:00:08.5    -169    -62    -29    181    184 249.8  -9.3  34236  290.86 0855.17
2009/04/23 11:00:08.6    -205    -31    -60    208    216 261.2 -20.7  34240  290.92 0855.17
2009/04/23 11:00:08.7    -173    -64    -60    185    194 249.6 -23.6  34234  290.84 0855.17
2009/04/23 11:00:08.8    -179    -70     76    193    207 248.7  22.8  34206  290.35 0855.17
2009/04/23 11:00:08.9    -109    -40     41    117    125 250.0  19.4  34208  290.40 0855.17
2009/04/23 11:00:09.0    -102   -132    143    168    220 217.8  44.8  34208  290.38 0855.17
2009/04/23 11:00:09.1     -96   -175     83    200    216 208.9  23.6  34206  290.36 0855.17
2009/04/23 11:00:09.2     -87   -183     63    203    213 205.4  17.3  34196  290.19 0855.17
2009/04/23 11:00:09.3     -70   -167     72    182    195 202.7  23.0  34194  290.16 0855.17
2009/04/23 11:00:09.4     -71   -131     46    150    158 208.5  17.3  34192  290.11 0855.17
2009/04/23 11:00:09.5    -114   -125      6    170    171 222.3   2.3  34198  290.23 0855.17
2009/04/23 11:00:09.6     -92    -66    -22    114    117 234.1 -11.3  34198  290.21 0855.17
2009/04/23 11:00:09.7    -101    -55     41    116    124 241.2  19.4  34202  290.30 0855.17
2009/04/23 11:00:09.8    -150    -70    -29    166    169 244.7 -10.1  34220  290.60 0855.17
2009/04/23 11:00:09.9    -284    -30    -81    286    297 263.9 -20.4  34206  290.36 0855.17
2009/04/23 11:00:10.0    -302      0    -92    303    317 270.0 -17.0  34174  289.80 0855.17
2009/04/23 11:00:10.1    -255    -44     14    259    260 260.1   3.3  34194  290.15 0855.17
2009/04/23 11:00:10.2    -251    -73     -9    262    263 253.8  -2.1  34232  290.78 0855.17
2009/04/23 11:00:10.3    -252   -124    -39    281    284 243.8  -8.0  34212  290.46 0855.17
2009/04/23 11:00:10.4    -266   -104    -58    286    293 248.5 -11.6  34204  290.31 0855.17
2009/04/23 11:00:10.5    -260   -103   -100    280    298 248.3 -19.7  34208  290.39 0855.17
2009/04/23 11:00:10.6    -297   -118    -85    320    332 248.3 -15.0  34224  290.65 0855.17
2009/04/23 11:00:10.7    -325   -150    -78    359    368 245.2 -12.3  34214  290.50 0855.17
2009/04/23 11:00:10.8    -221   -139    -50    262    267 237.8 -10.9  34226  290.70 0855.17
2009/04/23 11:00:10.9    -331   -201    -20    388    389 238.7  -3.0  34214  290.49 0855.17
2009/04/23 11:00:11.0    -356   -151   -122    387    406 246.9 -17.5  34220  290.60 0855.17
2009/04/23 11:00:11.1    -325   -178    -44    371    374 241.2  -6.8  34222  290.64 0855.17
2009/04/23 11:00:11.2    -339   -236     21    414    415 235.1   2.9  34210  290.43 0855.15
2009/04/23 11:00:11.3    -341   -192    -27    392    393 240.6  -4.0  34198  290.23 0855.15
2009/04/23 11:00:11.4    -288   -136    -71    319    327 244.6 -12.6  34202  290.27 0855.15
2009/04/23 11:00:11.5    -275   -232   -107    361    377 229.8 -16.5  34206  290.35 0855.15
2009/04/23 11:00:11.6    -270   -195    -89    334    346 234.1 -15.0  34182  289.96 0855.15
2009/04/23 11:00:11.7    -284   -209    -70    353    361 233.6 -11.3  34192  290.11 0855.15
2009/04/23 11:00:11.8    -293   -169    -39    339    342 240.0  -6.7  34184  289.99 0855.15
2009/04/23 11:00:11.9    -302   -191    -58    358    363 237.7  -9.3  34186  290.01 0855.15
2009/04/23 11:00:12.0    -348   -210    -96    407    419 238.8 -13.3  34168  289.72 0855.15
2009/04/23 11:00:12.1    -316   -247    -61    402    407 232.0  -8.7  34170  289.73 0855.15
2009/04/23 11:00:12.2    -271   -172   -159    322    359 237.6 -32.6  34162  289.59 0855.15
2009/04/23 11:00:12.3    -249   -205    -75    323    332 230.5 -13.2  34172  289.76 0855.15
2009/04/23 11:00:12.4    -237   -183    -90    300    313 232.3 -21.6  34184  289.97 0855.15
2009/04/23 11:00:12.5    -216   -187    -48    287    292 229.1  -9.6  34218  290.56 0855.15
2009/04/23 11:00:12.6    -151   -142     -9    208    209 226.9  -2.6  34196  290.19 0855.15
2009/04/23 11:00:12.7    -112   -227    -11    254    255 206.3  -2.6  34194  290.15 0855.15
2009/04/23 11:00:12.8     -65   -322    -50    329    333 191.6  -8.7  34182  289.96 0855.15
2009/04/23 11:00:12.9     -91   -363    -22    375    376 194.1  -3.5  34162  289.62 0855.15
2009/04/23 11:00:13.0     -80   -368      4    377    378 192.3   0.7  34172  289.79 0855.15
2009/04/23 11:00:13.1     -59   -383     31    388    390 188.8   4.7  34172  289.79 0855.15
2009/04/23 11:00:13.2     -21   -414    -18    415    416 183.0  -2.5  34176  289.85 0855.14
2009/04/23 11:00:13.3     -29   -400    -19    402    403 184.2  -2.8  34178  289.86 0855.14
2009/04/23 11:00:13.4     -23   -322    -17    323    324 184.1  -3.2  34180  289.90 0855.14
2009/04/23 11:00:13.5     -39   -358     -2    361    362 186.2  -0.4  34182  289.96 0855.14
2009/04/23 11:00:13.6      -9   -331     33    332    334 181.7   5.7  34186  290.01 0855.14
2009/04/23 11:00:13.7     -64   -395     30    401    403 189.2   4.3  34172  289.76 0855.14
2009/04/23 11:00:13.8     -66   -387    120    393    412 189.7  17.0  34170  289.73 0855.14
2009/04/23 11:00:13.9      53   -392     69    396    403 172.2   9.9  34178  289.87 0855.14
2009/04/23 11:00:14.0     113   -377    117    394    412 163.2  16.5  34176  289.83 0855.14
2009/04/23 11:00:14.1     166   -362     78    399    407 155.4  11.1  34168  289.70 0855.14
2009/04/23 11:00:14.2      45   -373    101    376    390 173.0  15.1  34162  289.59 0855.14
2009/04/23 11:00:14.3      87   -372     74    383    391 166.8  11.0  34168  289.71 0855.14
2009/04/23 11:00:14.4     101   -341     52    356    360 163.4   8.3  34168  289.72 0855.14
2009/04/23 11:00:14.5     133   -324    101    351    366 157.6  16.0  34162  289.62 0855.14
2009/04/23 11:00:14.6     154   -278     46    318    322 151.0   8.3  34162  289.59 0855.14
2009/04/23 11:00:14.7     139   -322     58    351    356 156.6   9.5  34164  289.65 0855.14
2009/04/23 11:00:14.8     182   -337    107    384    399 151.6  15.6  34170  289.74 0855.14
2009/04/23 11:00:14.9     216   -230    122    316    338 136.8  22.3  34172  289.76 0855.14
2009/04/23 11:00:15.0     175   -233    102    292    310 143.1  19.4  34170  289.75 0855.14
2009/04/23 11:00:15.1     151   -250     80    293    304 148.8  15.3  34168  289.71 0855.14
2009/04/23 11:00:15.2     138   -280    101    313    329 153.7  17.9  34176  289.83 0855.12
2009/04/23 11:00:15.3     146   -232     76    275    286 147.7  15.6  34174  289.80 0855.12
2009/04/23 11:00:15.4     134   -223     56    261    268 149.0  12.2  34174  289.80 0855.12
2009/04/23 11:00:15.5     129   -251     99    283    299 152.8  20.0  34160  289.56 0855.12
2009/04/23 11:00:15.6     116   -319    122    340    361 160.0  20.6  34146  289.32 0855.12
2009/04/23 11:00:15.7     132   -362     53    386    390 160.0   7.9  34146  289.33 0855.12
2009/04/23 11:00:15.8     111   -332     54    351    356 161.4   8.8  34148  289.37 0855.12
2009/04/23 11:00:15.9      64   -316    105    323    340 168.5  18.0  34154  289.47 0855.12
2009/04/23 11:00:16.0      57   -259     79    266    278 167.5  16.6  34158  289.53 0855.12
2009/04/23 11:00:16.1      80   -254     41    267    271 162.4   8.8  34158  289.53 0855.12
2009/04/23 11:00:16.2      90   -297    -80    311    322 163.1 -14.4  34166  289.66 0855.12
2009/04/23 11:00:16.3      55   -322     -6    327    328 170.3  -1.1  34170  289.75 0855.12
2009/04/23 11:00:16.4       3   -347     23    348    349 179.4   3.8  34168  289.72 0855.12
2009/04/23 11:00:16.5     -15   -319     24    320    321 182.7   4.3  34160  289.58 0855.12
2009/04/23 11:00:16.6      25   -269     -5    271    272 174.6  -1.2  34172  289.76 0855.12
2009/04/23 11:00:16.7      98   -289    -64    306    313 161.3 -11.9  34160  289.58 0855.12
2009/04/23 11:00:16.8      24   -363     -1    364    365 176.2  -0.3  34158  289.54 0855.12
2009/04/23 11:00:16.9      57   -393     -7    398    399 171.7  -1.1  34142  289.28 0855.12
2009/04/23 11:00:17.0      84   -416     -1    425    426 168.5  -0.2  34138  289.21 0855.12
2009/04/23 11:00:17.1     106   -421      3    435    436 165.9   0.5  34138  289.21 0855.12
2009/04/23 11:00:17.2      87   -389     10    399    400 167.4   1.5  34138  289.21 0855.11
2009/04/23 11:00:17.3     107   -391     14    406    407 164.7   2.1  34140  289.22 0855.11
2009/04/23 11:00:17.4      77   -354     22    363    364 167.6   3.5  34136  289.18 0855.11
2009/04/23 11:00:17.5      62   -346     32    352    354 169.8   5.2  34138  289.21 0855.11
2009/04/23 11:00:17.6      85   -347     17    358    359 166.2   2.8  34142  289.26 0855.11
2009/04/23 11:00:17.7      62   -345     41    351    354 169.8   6.7  34142  289.26 0855.11
2009/04/23 11:00:17.9      68   -347     32    354    356 168.8   5.3  34144  289.30 0855.11
2009/04/23 11:00:17.9      65   -353     37    359    361 169.5   6.0  34140  289.23 0855.11
2009/04/23 11:00:18.0      75   -315      6    324    325 166.6   1.2  34142  289.25 0855.11
2009/04/23 11:00:18.1      84   -310     13    322    323 164.9   2.4  34142  289.27 0855.11
2009/04/23 11:00:18.2      44   -292     30    296    298 171.3   6.0  34140  289.22 0855.11
2009/04/23 11:00:18.3      31   -267     14    269    270 173.3   3.1  34138  289.20 0855.11
2009/04/23 11:00:18.4      72   -272     35    282    285 165.1   7.1  34140  289.24 0855.11
2009/04/23 11:00:18.5      45   -320    112    324    343 172.0  19.1  34146  289.35 0855.11
2009/04/23 11:00:18.6       7   -300    106    301    320 178.6  19.4  34144  289.31 0855.11
2009/04/23 11:00:18.8     -12   -266    110    267    288 182.7  23.6  34154  289.46 0855.11
2009/04/23 11:00:18.9     -51   -283     34    288    291 190.2   6.9  34146  289.34 0855.11
2009/04/23 11:00:19.0     -23   -289     14    291    292 184.7   2.8  34140  289.24 0855.11
2009/04/23 11:00:19.1     -41   -304     43    307    311 187.8   8.0  34148  289.36 0855.11
2009/04/23 11:00:19.2     -38   -274     86    277    291 188.0  17.3  34152  289.42 0855.11
2009/04/23 11:00:19.3     -55   -273     72    279    289 191.6  14.5  34148  289.36 0855.14
2009/04/23 11:00:19.4    -112   -280     89    302    316 201.8  16.5  34150  289.41 0855.14
2009/04/23 11:00:19.5     -42   -248    107    252    273 189.7  24.3  34152  289.44 0855.14
2009/04/23 11:00:19.6      -2   -182    126    183    222 180.9  37.6  34156  289.52 0855.14
2009/04/23 11:00:19.7       6   -153     92    154    179 177.8  33.7  34156  289.52 0855.14
2009/04/23 11:00:19.8     -48   -205     -8    211    212 193.4  -2.2  34154  289.48 0855.14
2009/04/23 11:00:19.9     -18   -252     14    253    254 184.2   3.3  34154  289.46 0855.14
2009/04/23 11:00:20.0       7   -272     28    273    275 178.4   5.9  34154  289.46 0855.14
2009/04/23 11:00:20.1     -11   -263     21    264    265 182.6   4.6  34154  289.46 0855.14
2009/04/23 11:00:20.2     -58   -247     -9    254    255 193.4  -2.1  34158  289.54 0855.14
2009/04/23 11:00:20.3     -50   -186    -13    193    194 195.2  -4.1  34158  289.53 0855.14
2009/04/23 11:00:20.4     -26   -213    -11    215    216 187.1  -3.2  34160  289.58 0855.14
2009/04/23 11:00:20.5     -46   -226    -56    231    238 191.6 -13.7  34160  289.56 0855.14
2009/04/23 11:00:20.6     -75   -179      2    195    196 202.7   0.8  34154  289.48 0855.14
2009/04/23 11:00:20.7     -82   -129     19    154    156 212.5   7.2  34158  289.53 0855.14
2009/04/23 11:00:20.8    -112    -52     -4    124    125 244.8  -2.2  34156  289.52 0855.14
2009/04/23 11:00:20.9     -98    -30    -36    103    110 252.7 -19.6  34158  289.53 0855.14
2009/04/23 11:00:21.0    -114    -31    -26    119    122 254.9 -12.4  34158  289.55 0855.14
2009/04/23 11:00:21.1    -108    -89    -21    141    143 230.5  -8.8  34162  289.62 0855.14
2009/04/23 11:00:21.2    -125   -151    -61    197    207 219.6 -17.3  34162  289.62 0855.14
2009/04/23 11:00:21.3    -119   -114    -32    166    170 226.2 -11.1  34156  289.52 0855.12
2009/04/23 11:00:21.4    -163   -103     38    194    198 237.6  11.1  34164  289.63 0855.12
2009/04/23 11:00:21.5    -166    -52     25    175    177 252.5   8.2  34190  290.09 0855.12
2009/04/23 11:00:21.6    -142   -173      7    224    225 219.4   1.8  34160  289.58 0855.12
2009/04/23 11:00:21.7    -190    -88    -16    210    211 245.2  -4.6  34166  289.67 0855.12
2009/04/23 11:00:21.8    -174    -87     54    195    203 243.4  15.6  34176  289.84 0855.12
2009/04/23 11:00:21.9    -126    -11    -26    127    130 264.8 -11.9  34194  290.16 0855.12
2009/04/23 11:00:22.0    -103    -75    -40    128    135 234.1 -17.6  34188  290.04 0855.12
2009/04/23 11:00:22.1    -104   -138    -22    173    175 217.0  -7.3  34158  289.53 0855.12
2009/04/23 11:00:22.2     -59   -148    -35    160    164 201.8 -12.4  34160  289.57 0855.12
2009/04/23 11:00:22.3     -57   -164     -7    174    175 199.2  -2.6  34156  289.52 0855.12
2009/04/23 11:00:22.4    -139   -140    -55    198    206 224.9 -15.5  34166  289.67 0855.12
2009/04/23 11:00:22.5    -107   -107    -41    152    158 225.2 -15.4  34172  289.77 0855.12
2009/04/23 11:00:22.6     -75    -91    -34    119    123 219.6 -20.7  34174  289.80 0855.12
2009/04/23 11:00:22.7     -39    -72    -74     82    110 208.5 -51.3  34180  289.91 0855.12
2009/04/23 11:00:22.8     -64    -34   -115     73    136 242.0 -69.1  34186  290.02 0855.12
2009/04/23 11:00:22.9     -68    -43   -103     81    131 237.6 -61.9  34188  290.04 0855.12
2009/04/23 11:00:23.0     -99    -54    -90    113    144 241.2 -47.1  34192  290.11 0855.12
2009/04/23 11:00:23.1     -58    -91    -39    109    116 212.5 -19.7  34178  289.89 0855.12
2009/04/23 11:00:23.2     -52     29     -6     60     61 299.8  -6.2  34176  289.84 0855.12
2009/04/23 11:00:23.3    -113      5    -39    114    121 272.6 -19.1  34180  289.92 0855.09
2009/04/23 11:00:23.4     -65    -22    -62     69     92 250.9 -51.3  34186  290.01 0855.09
2009/04/23 11:00:23.5     -26    -56    -49     63     79 205.3 -46.6  34190  290.08 0855.09
2009/04/23 11:00:23.6       1    -65    -67     66     94 179.1 -54.1  34192  290.11 0855.09
2009/04/23 11:00:23.7      -4    -72    -79     73    107 183.6 -56.6  34190  290.08 0855.09
2009/04/23 11:00:23.8      24   -101    -64    104    122 166.2 -38.8  34188  290.04 0855.09
2009/04/23 11:00:23.9      34    -91    -66     98    118 159.5 -41.8  34188  290.04 0855.09
2009/04/23 11:00:24.0      20    -90    -81     93    123 167.1 -50.2  34184  289.97 0855.09
2009/04/23 11:00:24.1       8    -94    -72     95    119 175.1 -45.6  34182  289.94 0855.09
2009/04/23 11:00:24.2      34    -72    -71     80    106 154.5 -51.3  34180  289.92 0855.09
2009/04/23 11:00:24.3      29    -72    -75     78    108 158.1 -53.4  34182  289.96 0855.08
2009/04/23 11:00:24.4      41    -74    -69     85    109 151.0 -48.1  34180  289.91 0855.08
2009/04/23 11:00:24.5      43    -33    -67     55     86 127.8 -60.8  34182  289.94 0855.08
2009/04/23 11:00:24.6      46    -51    -78     69    104 137.7 -57.7  34182  289.94 0855.08
2009/04/23 11:00:24.7      74    -82    -71    111    131 137.7 -40.0  34182  289.94 0855.08
2009/04/23 11:00:24.8      51    -88    -79    103    129 149.7 -46.1  34176  289.85 0855.08
2009/04/23 11:00:24.9      30   -115    -46    119    127 165.3 -26.4  34178  289.87 0855.08
2009/04/23 11:00:25.0      34    -97    -50    104    115 160.4 -31.7  34176  289.85 0855.08
2009/04/23 11:00:25.1      46    -92    -50    104    115 153.3 -31.7  34170  289.74 0855.08
2009/04/23 11:00:25.2      50    -88    -64    102    120 150.1 -39.9  34170  289.74 0855.08
2009/04/23 11:00:25.3      52   -125    -59    136    148 157.3 -29.5  34168  289.70 0855.08
2009/04/23 11:00:25.4      14   -136     -5    137    138 173.8  -2.2  34170  289.75 0855.08
2009/04/23 11:00:25.5      28   -140     22    143    145 168.4   8.9  34174  289.82 0855.08
2009/04/23 11:00:25.6      60    -94    -44    112    120 147.5 -27.4  34176  289.85 0855.08
2009/04/23 11:00:25.7      50   -103    -37    115    122 153.7 -18.1  34188  290.04 0855.08
2009/04/23 11:00:25.8     -25   -184    -26    186    188 188.0  -8.0  34168  289.72 0855.08
2009/04/23 11:00:25.9     -41   -233    -47    237    242 190.0 -11.3  34168  289.71 0855.08
2009/04/23 11:00:26.0     -34   -199    -47    203    209 189.8 -13.3  34170  289.75 0855.08
2009/04/23 11:00:26.1     -21   -182      9    184    185 186.7   2.9  34162  289.62 0855.08
2009/04/23 11:00:26.2      -1   -160      6    161    162 180.7   2.3  34160  289.58 0855.08
2009/04/23 11:00:26.3      11   -148     -5    149    150 175.5  -2.2  34162  289.60 0855.07
2009/04/23 11:00:26.4      -6   -144    -13    145    146 182.7  -5.2  34164  289.63 0855.07
2009/04/23 11:00:26.5      -4   -164    -26    165    168 181.6  -9.0  34162  289.62 0855.07
2009/04/23 11:00:26.6      21   -183    -10    185    186 173.3  -3.2  34162  289.60 0855.07
2009/04/23 11:00:26.7       0   -229    -22    230    232 180.0  -5.6  34160  289.58 0855.07
2009/04/23 11:00:26.8       8   -219    -36    220    224 177.8  -9.4  34166  289.67 0855.07
2009/04/23 11:00:26.9     -50   -193    -59    200    208 194.7 -21.5  34160  289.58 0855.07
2009/04/23 11:00:27.0     -50   -209   -110    215    241 193.6 -33.6  34166  289.66 0855.07
2009/04/23 11:00:27.1     -28   -237   -138    239    275 186.9 -37.1  34164  289.64 0855.07
2009/04/23 11:00:27.2      39   -226    -67    230    240 170.2 -16.4  34164  289.64 0855.07
2009/04/23 11:00:27.3      31   -222    -45    225    230 172.0 -11.3  34162  289.60 0855.07
2009/04/23 11:00:27.4      30   -234    -20    236    237 172.7  -5.1  34162  289.61 0855.07
2009/04/23 11:00:27.5      -9   -225    -39    226    230 182.5  -9.8  34164  289.63 0855.07
2009/04/23 11:00:27.6      24   -194    -17    196    197 172.9  -5.2  34166  289.67 0855.07
2009/04/23 11:00:27.7      46   -137      7    145    146 161.3   2.8  34168  289.70 0855.07
2009/04/23 11:00:27.8      50    -77     55     92    107 147.0  34.0  34168  289.70 0855.07
2009/04/23 11:00:27.9      -4    -55     62     56     83 184.5  52.7  34172  289.77 0855.07
2009/04/23 11:00:28.0     -17      1     70     18     72 274.4  84.9  34180  289.91 0855.07
2009/04/23 11:00:28.1     -30    -14    108     34    113 244.6  81.2  34188  290.04 0855.07
2009/04/23 11:00:28.2     -62      0     62     63     88 270.0  50.5  34180  289.92 0855.07
2009/04/23 11:00:28.3     -98    -26    115    102    153 254.9  53.7  34186  290.01 0855.06
2009/04/23 11:00:28.4    -169    -77     64    186    197 245.4  19.2  34174  289.80 0855.06
2009/04/23 11:00:28.5    -187   -117     16    221    222 238.0   4.4  34176  289.84 0855.06
2009/04/23 11:00:28.6    -105   -125     28    164    167 219.9   9.9  34190  290.08 0855.06
2009/04/23 11:00:28.7       4    -81     49     82     95 176.9  34.4  34192  290.11 0855.06
2009/04/23 11:00:28.8      95    -50     97    108    145 118.0  46.9  34176  289.85 0855.06
2009/04/23 11:00:28.9      57    -30     65     65     91 118.0  50.1  34182  289.96 0855.06
2009/04/23 11:00:29.0      30    -45     57     55     79 145.7  50.7  34186  290.02 0855.06
2009/04/23 11:00:29.1     -97   -108     28    146    149 221.9  11.1  34202  290.30 0855.06
2009/04/23 11:00:29.2    -201   -221    -27    300    302 222.3  -5.2  34230  290.75 0855.06
2009/04/23 11:00:29.3    -146   -248    -19    288    289 210.5  -3.9  34224  290.65 0855.06
2009/04/23 11:00:29.4     -33   -158     74    162    178 191.8  26.2  34184  289.97 0855.06
2009/04/23 11:00:29.5      37   -215     77    219    232 170.2  20.0  34174  289.80 0855.06
2009/04/23 11:00:29.6       7   -219     54    220    227 178.0  13.9  34168  289.72 0855.06
2009/04/23 11:00:29.7       0   -230     52    231    237 180.2  12.9  34170  289.75 0855.06
2009/04/23 11:00:29.8      65   -201     38    212    216 162.0  10.3  34168  289.70 0855.06
2009/04/23 11:00:29.9      92   -168     98    192    215 151.3  29.2  34162  289.62 0855.06
2009/04/23 11:00:30.0      93   -213    134    233    268 156.3  32.4  34162  289.61 0855.06
2009/04/23 11:00:30.1      18   -208    148    209    256 174.9  38.8  34168  289.71 0855.06
2009/04/23 11:00:30.2     -16   -211    146    212    257 184.5  38.0  34170  289.75 0855.06
2009/04/23 11:00:30.3     -29   -207    121    210    242 188.0  32.7  34172  289.79 0855.05
2009/04/23 11:00:30.4     -16   -209    103    210    233 184.5  27.8  34174  289.80 0855.05
2009/04/23 11:00:30.5     -43   -192    142    197    242 192.7  39.3  34172  289.79 0855.05
2009/04/23 11:00:30.6     -55   -199    156    207    259 195.6  40.7  34176  289.85 0855.05
2009/04/23 11:00:30.7     -67   -192    117    204    235 199.2  32.3  34188  290.04 0855.05
2009/04/23 11:00:30.8     -27   -187     95    189    211 188.2  28.7  34182  289.96 0855.05
2009/04/23 11:00:30.9     -13   -199     82    200    216 183.8  23.4  34182  289.94 0855.05
2009/04/23 11:00:31.0     -22   -207     92    209    228 186.3  25.2  34186  290.02 0855.05
2009/04/23 11:00:31.1     -48   -193    117    199    230 194.0  33.5  34188  290.06 0855.05
2009/04/23 11:00:31.2     -63   -206    122    216    248 197.0  32.1  34194  290.15 0855.05
2009/04/23 11:00:31.3     -31   -201     40    204    208 188.9  11.1  34194  290.16 0855.05
2009/04/23 11:00:31.4     -16   -181    -10    182    183 185.3  -3.2  34184  289.99 0855.05
2009/04/23 11:00:31.5       2   -181     54    182    190 179.1  16.6  34192  290.11 0855.05
2009/04/23 11:00:31.6     -18   -203     90    204    222 185.1  25.2  34188  290.06 0855.05
2009/04/23 11:00:31.7     -38   -227     88    231    247 189.6  22.0  34212  290.46 0855.05
2009/04/23 11:00:31.8       8   -183    132    184    226 177.3  39.5  34202  290.30 0855.05
2009/04/23 11:00:31.9     -18   -237    106    238    260 184.5  25.7  34232  290.78 0855.05
2009/04/23 11:00:32.0       3   -204     76    205    218 179.0  21.0  34234  290.84 0855.05
2009/04/23 11:00:32.1     -17   -229     19    230    231 184.4   4.9  34224  290.65 0855.05
2009/04/23 11:00:32.2     -15   -203    -16    204    205 184.5  -4.6  34226  290.70 0855.05
2009/04/23 11:00:32.3       2   -183    -60    184    194 179.1 -18.3  34222  290.64 0855.07
2009/04/23 11:00:32.4      14   -181    -45    182    188 175.3 -13.9  34216  290.52 0855.07
2009/04/23 11:00:32.5      12   -260     52    261    267 177.3  11.4  34218  290.56 0855.07
2009/04/23 11:00:32.6     -19   -268     75    269    280 184.2  15.6  34202  290.29 0855.07
2009/04/23 11:00:32.7      -7   -239     49    240    246 181.8  11.6  34208  290.39 0855.07
2009/04/23 11:00:32.8      18   -218      6    219    220 175.1   1.6  34220  290.60 0855.07
2009/04/23 11:00:32.9      35   -252     24    255    257 172.0   5.4  34206  290.34 0855.07
2009/04/23 11:00:33.0      46   -282     -3    286    287 170.7  -0.7  34214  290.48 0855.07
2009/04/23 11:00:33.1     -33   -229     -7    232    233 188.2  -1.8  34226  290.69 0855.07
2009/04/23 11:00:33.2      -6   -239     17    240    241 181.6   4.2  34228  290.73 0855.07
2009/04/23 11:00:33.3      30   -242     38    244    248 172.9   9.0  34240  290.93 0855.07
2009/04/23 11:00:33.4      29   -204     49    207    213 171.8  13.5  34222  290.64 0855.07
2009/04/23 11:00:33.5       9   -219     47    220    226 177.5  12.2  34232  290.79 0855.07
2009/04/23 11:00:33.6       6   -216     38    217    221 178.2  10.1  34220  290.58 0855.07
2009/04/23 11:00:33.7      32   -228     77    231    244 171.9  18.5  34176  289.83 0855.07
2009/04/23 11:00:33.8       1   -230     98    231    250 179.5  24.3  34172  289.78 0855.07
2009/04/23 11:00:33.9       3   -226    121    227    257 179.0  30.3  34180  289.90 0855.07
2009/04/23 11:00:34.0     -18   -227    108    228    252 184.7  27.2  34180  289.90 0855.07
2009/04/23 11:00:34.1     -40   -245    103    249    269 189.3  23.8  34176  289.85 0855.07
2009/04/23 11:00:34.2      15   -240    134    241    275 176.4  31.4  34176  289.85 0855.07
2009/04/23 11:00:34.3     115   -190    116    223    251 148.8  29.3  34176  289.85 0855.07
2009/04/23 11:00:34.4      59   -164    131    175    218 160.2  40.4  34176  289.85 0855.07
2009/04/23 11:00:34.5      37   -120    128    126    179 162.6  50.1  34184  289.99 0855.07
2009/04/23 11:00:34.6     -41   -144     86    150    172 196.0  32.7  34176  289.85 0855.07
2009/04/23 11:00:34.7     -43   -128    101    136    169 198.7  40.4  34176  289.84 0855.07
2009/04/23 11:00:34.8     -52   -110    116    122    168 205.3  48.7  34178  289.89 0855.07
2009/04/23 11:00:34.9     -43   -110    107    119    160 201.4  46.6  34176  289.85 0855.07
2009/04/23 11:00:35.0     -35   -106     91    112    144 198.7  43.7  34178  289.87 0855.07
2009/04/23 11:00:35.1      16    -74     84     76    113 167.5  52.7  34186  290.01 0855.07
2009/04/23 11:00:35.2       7    -77     77     78    109 174.7  50.5  34184  289.99 0855.07
2009/04/23 11:00:35.3       4    -54     72     55     90 175.6  58.5  34184  289.99 0855.07
2009/04/23 11:00:35.4       2    -25     69     26     73 175.5  80.2  34200  290.26 0855.07
2009/04/23 11:00:35.5      -4    -72     84     73    111 183.6  54.8  34186  290.01 0855.07
2009/04/23 11:00:35.6       0    -90    103     91    137 180.4  54.2  34178  289.87 0855.07
2009/04/23 11:00:35.7       7    -99    107    100    146 176.0  52.1  34182  289.94 0855.07
2009/04/23 11:00:35.8     -12    -65     89     67    111 190.7  59.0  34182  289.96 0855.07
2009/04/23 11:00:35.9     -15   -138     72    139    156 186.2  29.3  34176  289.84 0855.07
2009/04/23 11:00:36.0     -44   -147     65    154    167 196.9  24.3  34180  289.91 0855.07
2009/04/23 11:00:36.1     -61   -125     94    140    168 205.9  37.0  34182  289.94 0855.07
2009/04/23 11:00:36.2     -69   -149     90    165    187 204.7  31.0  34178  289.87 0855.07
2009/04/23 11:00:36.3     -63   -153     65    166    178 202.5  22.5  34182  289.96 0855.07
2009/04/23 11:00:36.4     -67   -113     59    132    144 210.8  25.7  34188  290.04 0855.07
2009/04/23 11:00:36.5     -58    -79     95     99    137 216.5  48.5  34192  290.11 0855.07
2009/04/23 11:00:36.6     -74   -134     80    154    173 208.9  29.8  34218  290.55 0855.07
2009/04/23 11:00:36.7     -60   -110     71    126    144 208.9  31.4  34224  290.65 0855.07
2009/04/23 11:00:36.8     -50    -50     35     72     80 225.0  27.8  34276  291.54 0855.07
2009/04/23 11:00:36.9     -22   -133     74    135    153 189.8  31.4  34232  290.79 0855.07
2009/04/23 11:00:37.0     -50   -148     55    157    167 198.9  19.4  34204  290.31 0855.07
2009/04/23 11:00:37.1     -58   -145     41    157    163 201.8  14.7  34202  290.28 0855.07
2009/04/23 11:00:37.2     -81   -162     53    182    190 206.7  16.3  34198  290.21 0855.07
2009/04/23 11:00:37.3    -123   -163     67    205    216 217.0  18.1  34184  289.99 0855.07
2009/04/23 11:00:37.4    -144   -176     93    228    246 219.2  23.4  34192  290.10 0855.07
2009/04/23 11:00:37.5     -70   -199     65    211    221 199.4  17.3  34198  290.23 0855.07
2009/04/23 11:00:37.6     -42   -176     81    182    199 193.6  25.3  34198  290.21 0855.07
2009/04/23 11:00:37.7     -42   -144     81    151    171 196.5  30.6  34198  290.21 0855.07
2009/04/23 11:00:37.8     -83   -131     97    156    183 212.5  35.2  34198  290.23 0855.07
2009/04/23 11:00:37.9     -59   -115     80    130    152 207.1  35.5  34198  290.21 0855.07
2009/04/23 11:00:38.0     -40   -112     81    120    144 200.0  37.0  34200  290.26 0855.07
2009/04/23 11:00:38.1     -14   -102     87    104    135 188.0  43.8  34206  290.35 0855.07
2009/04/23 11:00:38.2      14   -100    130    102    165 171.9  57.9  34200  290.26 0855.07
2009/04/23 11:00:38.3      23   -116     99    119    154 168.4  43.8  34208  290.40 0855.09
2009/04/23 11:00:38.4       6   -135     76    136    155 177.3  31.4  34198  290.21 0855.09
2009/04/23 11:00:38.5       1   -110    119    111    162 179.1  52.0  34200  290.25 0855.09
2009/04/23 11:00:38.6      -3    -98    112     99    149 181.8  54.3  34198  290.21 0855.09
2009/04/23 11:00:38.7       8   -150     83    151    172 176.9  31.4  34204  290.33 0855.09
2009/04/23 11:00:38.8     -10   -136     65    137    151 184.4  27.2  34202  290.30 0855.09
2009/04/23 11:00:38.9     -10   -108     57    109    123 185.3  29.3  34202  290.28 0855.09
2009/04/23 11:00:39.0     -11    -87     42     88     97 187.6  27.2  34202  290.30 0855.09
2009/04/23 11:00:39.1     -12    -58     56     60     82 191.6  48.5  34198  290.23 0855.09
2009/04/23 11:00:39.2      16    -50     63     53     82 161.3  55.4  34220  290.60 0855.09
2009/04/23 11:00:39.3      34    -73     16     81     83 154.7  11.6  34214  290.48 0855.09
2009/04/23 11:00:39.4      17    -64      0     67     68 164.9  -0.3  34200  290.26 0855.09
2009/04/23 11:00:39.5      17    -81      2     83     84 168.0   1.8  34200  290.25 0855.09
2009/04/23 11:00:39.6     -19    -72    -24     75     78 195.1 -23.8  34196  290.18 0855.09
2009/04/23 11:00:39.7      12    -86      5     87     88 171.5   3.3  34198  290.23 0855.09
2009/04/23 11:00:39.8      19    -59     33     63     71 161.7  30.3  34200  290.25 0855.09
2009/04/23 11:00:39.9       0    -80     26     81     86 180.4  17.9  34198  290.21 0855.09
2009/04/23 11:00:40.0     -25   -103     29    107    111 193.8  15.2  34200  290.25 0855.09
2009/04/23 11:00:40.1       0   -105     -4    106    107 179.5  -2.2  34198  290.21 0855.09
2009/04/23 11:00:40.2      -1    -92    -16     93     95 180.9  -9.8  34200  290.26 0855.09
2009/04/23 11:00:40.3      14    -81     -8     83     84 169.8  -5.6  34204  290.31 0855.10
2009/04/23 11:00:40.4      29    -66    -24     73     76 156.4 -23.8  34206  290.35 0855.10
2009/04/23 11:00:40.5       3    -48    -21     49     53 175.5 -28.5  34212  290.45 0855.10
2009/04/23 11:00:40.6     -16     -3     -7     17     18 258.5 -23.3  34210  290.41 0855.10
2009/04/23 11:00:40.7     -29      9    -11     31     33 288.2 -19.7  34214  290.48 0855.10
2009/04/23 11:00:40.8     -23     30     -2     38     39 322.2  -3.1  34218  290.57 0855.10
2009/04/23 11:00:40.9     -27     40     20     49     52 325.7  23.0  34212  290.47 0855.10
2009/04/23 11:00:41.0     -34     26     20     43     47 307.8  26.2  34208  290.40 0855.10
2009/04/23 11:00:41.1     -31     14     29     35     45 295.3  44.8  34212  290.47 0855.10
2009/04/23 11:00:41.2     -10      7     32     13     34 306.0  79.2  34222  290.64 0855.10
2009/04/23 11:00:41.3      -9    -12     40     16     43 216.1  78.2  34250  291.09 0855.10
2009/04/23 11:00:41.4     -23    -28     29     37     47 219.6  42.7  34246  291.03 0855.10
2009/04/23 11:00:41.5     -41    -63     58     76     95 213.4  41.7  34208  290.40 0855.10
2009/04/23 11:00:41.6     -41    -75     34     86     92 209.0  22.5  34202  290.30 0855.10
2009/04/23 11:00:41.7     -30    -75     71     81    107 201.9  45.8  34206  290.36 0855.10
2009/04/23 11:00:41.8     -20    -79     57     82     99 194.7  38.6  34200  290.26 0855.10
2009/04/23 11:00:41.9     -30    -93     38     98    105 198.3  22.5  34200  290.25 0855.10
2009/04/23 11:00:42.0     -31    -94     50    100    111 198.3  28.2  34202  290.28 0855.10
2009/04/23 11:00:42.1     -26    -77     62     82    102 198.7  41.2  34204  290.31 0855.10
2009/04/23 11:00:42.2     -30    -95     53    100    113 197.8  29.8  34200  290.25 0855.10
2009/04/23 11:00:42.3     -24    -81     53     85    100 196.5  35.5  34198  290.23 0855.10
2009/04/23 11:00:42.4     -15    -66     61     68     91 193.4  46.4  34200  290.26 0855.10
2009/04/23 11:00:42.5     -18    -75     60     78     98 193.4  42.2  34198  290.23 0855.10
2009/04/23 11:00:42.6     -37    -80     58     89    106 204.9  35.6  34198  290.21 0855.10
2009/04/23 11:00:42.7     -51    -71     58     88    105 215.6  36.0  34198  290.21 0855.10
2009/04/23 11:00:42.8     -48    -58     68     76    101 219.7  46.9  34200  290.25 0855.10
2009/04/23 11:00:42.9     -64    -66     67     92    113 224.1  39.7  34194  290.16 0855.10
2009/04/23 11:00:43.0     -53    -82     33     98    104 213.0  18.9  34194  290.14 0855.10
2009/04/23 11:00:43.1     -72    -76     -4    105    106 223.3  -2.2  34196  290.19 0855.10
2009/04/23 11:00:43.2     -66    -60    -14     90     92 227.8  -8.8  34192  290.13 0855.10
2009/04/23 11:00:43.3     -76    -41    -31     87     93 241.6 -19.7  34196  290.19 0855.10
2009/04/23 11:00:43.4     -73    -24    -44     78     89 251.4 -36.8  34196  290.19 0855.10
2009/04/23 11:00:43.5     -71     -3    -28     72     77 267.4 -26.4  34210  290.41 0855.10
2009/04/23 11:00:43.6     -62     -1    -33     63     71 268.3 -34.7  34200  290.25 0855.10
2009/04/23 11:00:43.7     -86      0    -71     87    112 269.6 -48.1  34198  290.21 0855.10
2009/04/23 11:00:43.8    -101      0    -50    102    113 270.0 -32.2  34198  290.21 0855.10
2009/04/23 11:00:43.9    -102    -15    -31    104    108 261.6 -21.2  34198  290.21 0855.10
2009/04/23 11:00:44.0     -92    -27    -22     96     99 253.6 -13.4  34200  290.25 0855.10
2009/04/23 11:00:44.1     -81    -37    -25     90     93 245.6 -20.2  34204  290.31 0855.10
2009/04/23 11:00:44.2     -73    -57    -68     93    115 232.2 -44.1  34208  290.40 0855.10
2009/04/23 11:00:44.3    -121    -78    -29    145    148 237.1 -11.5  34208  290.38 0855.10
2009/04/23 11:00:44.4     -64    -74    -25     99    103 221.0 -14.5  34218  290.55 0855.10
2009/04/23 11:00:44.5     -29    -45    -29     54     61 212.6 -35.7  34222  290.62 0855.10
2009/04/23 11:00:44.6     -39    -13      0     42     43 250.9  -1.3  34220  290.58 0855.10
2009/04/23 11:00:44.7     -66    -21      7     70     71 252.3   5.9  34220  290.60 0855.10
2009/04/23 11:00:44.8     -57    -15    -18     60     63 254.9 -16.6  34234  290.82 0855.10
2009/04/23 11:00:44.9     -46    -33     -7     57     58 234.0  -7.3  34224  290.65 0855.10
2009/04/23 11:00:45.0     -83    -42      1     94     95 242.9   0.8  34224  290.67 0855.10
2009/04/23 11:00:45.2    -139    -87     33    165    169 238.0  11.6  34228  290.74 0855.10
2009/04/23 11:00:45.3    -116   -116     72    165    180 225.0  25.1  34224  290.65 0855.10
2009/04/23 11:00:45.3    -117   -150     45    191    197 218.1  13.2  34222  290.64 0855.10
2009/04/23 11:00:45.5     -33   -306      0    308    309 186.2   0.0  34186  290.02 0855.10
2009/04/23 11:00:45.6     -58   -256    -73    263    272 192.9 -20.2  34188  290.03 0855.10
2009/04/23 11:00:45.6     -43   -290    -89    294    308 188.5 -16.8  34182  289.93 0855.10
2009/04/23 11:00:45.8     -55   -387    -72    391    398 188.1 -10.5  34188  290.04 0855.10
2009/04/23 11:00:45.9     -34   -443      5    445    446 184.5   0.7  34184  289.97 0855.10
2009/04/23 11:00:46.0     -24   -389     28    390    392 183.6   4.2  34184  289.98 0855.10
2009/04/23 11:00:46.1     -31   -374     18    376    377 184.9   2.8  34184  289.99 0855.10
2009/04/23 11:00:46.2     -43   -327     93    330    343 187.6  15.8  34188  290.04 0855.10
2009/04/23 11:00:46.3     -83   -281    125    294    319 196.5  24.5  34190  290.09 0855.10
2009/04/23 11:00:46.4     -28   -308    123    310    333 185.3  22.9  34188  290.05 0855.10
2009/04/23 11:00:46.5     -12   -285    114    286    307 182.6  23.0  34196  290.19 0855.10
2009/04/23 11:00:46.6      44   -168    139    174    222 165.1  42.7  34212  290.47 0855.10
2009/04/23 11:00:46.7       7   -165    103    166    195 177.5  35.2  34218  290.57 0855.10
2009/04/23 11:00:46.8      -1   -102    113    103    152 180.9  52.2  34240  290.92 0855.10
2009/04/23 11:00:46.9       0   -101    128    102    163 180.5  57.5  34250  291.09 0855.10
2009/04/23 11:00:47.0       1    -10    123     11    123 172.0  90.0  34260  291.26 0855.10
2009/04/23 11:00:47.1     -24      9     90     26     93 291.7  82.8  34250  291.11 0855.10
2009/04/23 11:00:47.2      53    -28    101     61    117 118.0  66.2  34240  290.92 0855.10
2009/04/23 11:00:47.3      55     -4    116     56    128  94.3  72.8  34238  290.91 0855.10
2009/04/23 11:00:47.4      11      3    111     12    111  71.6  90.0  34240  290.92 0855.11
2009/04/23 11:00:47.5      46      4    124     47    132  83.9  79.1  34222  290.64 0855.11
2009/04/23 11:00:47.6      15    -96    132     98    164 170.7  59.8  34200  290.25 0855.11
2009/04/23 11:00:47.7      45    -23    100     51    112 118.0  71.4  34202  290.28 0855.11
2009/04/23 11:00:47.8      71   -120    133    140    193 149.3  48.5  34202  290.30 0855.11
2009/04/23 11:00:47.9      58   -159    127    170    212 159.7  40.4  34192  290.13 0855.11
2009/04/23 11:00:48.0      46   -187     99    193    216 166.2  29.3  34192  290.11 0855.11
2009/04/23 11:00:48.1       3   -200    120    201    234 179.0  33.7  34190  290.09 0855.11
2009/04/23 11:00:48.2       0   -117    148    118    189 180.0  57.1  34198  290.21 0855.11
2009/04/23 11:00:48.3      42   -166    116    172    207 165.7  37.3  34190  290.08 0855.11
2009/04/23 11:00:48.4      40   -181     77    186    201 167.3  23.6  34186  290.01 0855.11
2009/04/23 11:00:48.5      32   -206     89    209    227 171.1  24.6  34192  290.13 0855.11
2009/04/23 11:00:48.6      -3   -194    100    195    219 181.1  29.3  34200  290.26 0855.11
2009/04/23 11:00:48.7      40   -113    115    120    166 160.4  49.0  34202  290.30 0855.11
2009/04/23 11:00:48.8       2   -186     95    187    209 179.1  29.1  34198  290.21 0855.11
2009/04/23 11:00:48.9      15   -134     64    135    149 173.3  27.2  34200  290.26 0855.11
2009/04/23 11:00:49.0      72   -116     69    137    153 147.9  28.7  34196  290.19 0855.11
2009/04/23 11:00:49.1     135    -59    106    148    182 113.5  39.3  34198  290.23 0855.11
2009/04/23 11:00:49.2      30   -101    140    106    175 163.1  59.0  34212  290.45 0855.11
2009/04/23 11:00:49.3     123    -37    112    129    170 106.8  45.4  34206  290.35 0855.11
2009/04/23 11:00:49.4      76    -61    107     98    145 128.6  52.2  34206  290.35 0855.12
2009/04/23 11:00:49.5       7     15     72     17     73  25.4  86.9  34214  290.48 0855.12
2009/04/23 11:00:49.6      79    -22     89     83    121 105.9  52.1  34206  290.36 0855.12
2009/04/23 11:00:49.7      75    -20    107     78    132 105.0  60.5  34204  290.33 0855.12
2009/04/23 11:00:49.8     -18     54     84     57    101 341.5  62.6  34220  290.60 0855.12
2009/04/23 11:00:49.9      31     62     68     70     97  26.3  50.5  34226  290.69 0855.12
2009/04/23 11:00:50.0       0     10     63     11     63 359.1  90.0  34220  290.58 0855.12
2009/04/23 11:00:50.1     -11    -58     70     60     92 191.5  54.8  34212  290.45 0855.12
2009/04/23 11:00:50.2     -10    -90     90     91    127 186.7  50.0  34204  290.31 0855.12
2009/04/23 11:00:50.3       6    -79    110     80    136 175.5  60.5  34208  290.38 0855.12
2009/04/23 11:00:50.4     -22    -92    157     95    183 193.4  65.7  34204  290.31 0855.12
2009/04/23 11:00:50.5     -60   -138    163    151    222 203.7  52.2  34192  290.13 0855.12
2009/04/23 11:00:50.6     -17   -123    199    125    235 188.0  64.9  34198  290.21 0855.12
2009/04/23 11:00:50.7     -49   -180    186    187    263 195.4  50.0  34190  290.07 0855.12
2009/04/23 11:00:50.8       0   -163    204    164    261 180.0  57.3  34192  290.10 0855.12
2009/04/23 11:00:50.9      -4   -198    197    199    280 181.4  50.0  34186  290.00 0855.12
2009/04/23 11:00:51.0     -19   -205    163    206    262 185.3  42.4  34186  290.02 0855.12
2009/04/23 11:00:51.1     -31   -192    150    195    246 189.3  41.7  34186  290.02 0855.12
2009/04/23 11:00:51.2     -19   -159    157    161    224 187.1  49.8  34186  290.01 0855.12
2009/04/23 11:00:51.3     -33   -207    172    210    271 189.1  43.7  34192  290.10 0855.12
2009/04/23 11:00:51.4     -23   -229    211    231    312 185.8  47.1  34194  290.14 0855.12
2009/04/23 11:00:51.5     -14   -188    190    189    267 184.4  50.1  34188  290.05 0855.12
2009/04/23 11:00:51.6      -1   -200    188    201    275 180.5  47.9  34192  290.10 0855.12
2009/04/23 11:00:51.7     -38   -208    180    212    278 190.5  44.8  34190  290.07 0855.12
2009/04/23 11:00:51.8     -64   -247    200    256    324 194.7  42.1  34192  290.10 0855.12
2009/04/23 11:00:51.9     -96   -184    135    208    247 207.6  36.0  34192  290.12 0855.12
2009/04/23 11:00:52.0       1   -174    166    175    241 179.5  48.5  34202  290.30 0855.12
2009/04/23 11:00:52.1      31   -152    191    156    246 168.4  56.4  34206  290.35 0855.12
2009/04/23 11:00:52.2     149    -70    150    165    222 115.3  47.5  34206  290.36 0855.12
2009/04/23 11:00:52.3     166    -82    148    186    237 116.2  42.7  34202  290.30 0855.12
2009/04/23 11:00:52.4      85   -181    132    201    240 154.7  36.5  34202  290.28 0855.12
2009/04/23 11:00:52.5     121   -128    116    177    211 136.8  36.0  34200  290.26 0855.12
2009/04/23 11:00:52.6      66   -186    163    198    256 160.4  43.7  34200  290.24 0855.12
2009/04/23 11:00:52.7      17   -228    131    229    263 175.5  32.4  34196  290.17 0855.12
2009/04/23 11:00:52.8      56   -100     58    115    128 150.6  28.7  34218  290.57 0855.12
2009/04/23 11:00:52.9     -54   -150     10    160    161 200.1   3.8  34196  290.19 0855.12
2009/04/23 11:00:53.0      52    -38    -22     65     68 126.0 -23.6  34212  290.47 0855.12
2009/04/23 11:00:53.1      67    -34    -56     76     94 117.1 -44.5  34240  290.92 0855.12
2009/04/23 11:00:53.2      58    -15    -35     61     70 105.0 -36.8  34248  291.08 0855.12
2009/04/23 11:00:53.3      42    -50    -41     66     77 139.5 -39.9  34242  290.96 0855.12
2009/04/23 11:00:53.4      71    -49     -1     87     88 124.6  -1.3  34218  290.55 0855.11
2009/04/23 11:00:53.5      56    -52     76     77    108 133.1  50.5  34208  290.40 0855.11
2009/04/23 11:00:53.6      56    -35     79     67    103 122.4  55.4  34208  290.40 0855.11
2009/04/23 11:00:53.7      95    -27     78     99    126 105.9  42.2  34208  290.40 0855.11
2009/04/23 11:00:53.8      51    -54     70     75    102 136.8  48.0  34212  290.45 0855.11
2009/04/23 11:00:53.9      31    -49     59     59     83 147.4  50.1  34214  290.48 0855.11
2009/04/23 11:00:54.0      33    -23     79     41     89 124.2  70.4  34216  290.52 0855.11
2009/04/23 11:00:54.1      33    -12     70     36     78 110.0  70.8  34222  290.62 0855.11
2009/04/23 11:00:54.2      97    -36     85    104    134 110.8  43.7  34214  290.48 0855.11
2009/04/23 11:00:54.3      61    -88    115    108    157 145.3  52.0  34210  290.43 0855.11
2009/04/23 11:00:54.4      60    -73     97     95    135 140.4  50.1  34216  290.52 0855.11
2009/04/23 11:00:54.5      72   -105    113    128    170 145.7  45.8  34210  290.41 0855.11
2009/04/23 11:00:54.6      43   -175    159    181    240 166.2  45.9  34206  290.36 0855.11
2009/04/23 11:00:54.7      36   -236    131    239    272 171.1  31.3  34200  290.26 0855.11
2009/04/23 11:00:54.8      41   -152    165    158    228 164.9  51.4  34200  290.26 0855.11
2009/04/23 11:00:54.9      15   -184    107    185    213 175.3  33.1  34198  290.23 0855.11
2009/04/23 11:00:55.0     -14   -188    142    189    236 184.4  40.7  34198  290.21 0855.11
2009/04/23 11:00:55.1     -24   -220     82    222    236 186.3  21.3  34200  290.25 0855.11
2009/04/23 11:00:55.2      23   -216     38    218    222 173.7  10.1  34196  290.18 0855.11
2009/04/23 11:00:55.3      10   -156      0    157    158 176.0   0.2  34194  290.14 0855.11
2009/04/23 11:00:55.4     -29   -145     53    148    157 191.5  20.4  34194  290.14 0855.10
2009/04/23 11:00:55.5     -55   -129     21    141    143 203.2   8.5  34194  290.16 0855.10
2009/04/23 11:00:55.6     -98   -154     55    183    192 212.5  16.8  34198  290.23 0855.10
2009/04/23 11:00:55.7     -84   -200     19    218    219 202.9   5.2  34198  290.21 0855.10
2009/04/23 11:00:55.8    -139   -196    -20    241    242 215.4  -4.9  34198  290.22 0855.10
2009/04/23 11:00:55.9    -151   -202    -68    253    263 216.7 -15.2  34198  290.22 0855.10
2009/04/23 11:00:56.0    -107   -248    -69    271    280 203.4 -14.3  34200  290.24 0855.10
2009/04/23 11:00:56.1    -101   -198    -69    223    233 207.0 -22.5  34198  290.23 0855.10
2009/04/23 11:00:56.2     -23   -241    -16    243    244 185.6  -3.9  34200  290.26 0855.10
2009/04/23 11:00:56.3     -11   -225     24    226    228 182.9   6.1  34200  290.25 0855.10
2009/04/23 11:00:56.4      -1   -202      3    203    204 180.5   1.0  34206  290.35 0855.10
2009/04/23 11:00:56.5      39   -183     29    188    191 168.0   8.8  34210  290.43 0855.10
2009/04/23 11:00:56.6      39   -167     20    172    174 166.6   6.7  34212  290.47 0855.10
2009/04/23 11:00:56.7      33   -122     24    127    130 164.9  11.0  34216  290.53 0855.10
2009/04/23 11:00:56.8      50    -97     12    110    111 152.8   6.5  34214  290.50 0855.10
2009/04/23 11:00:56.9      92    -92    -11    131    132 135.1  -5.2  34214  290.50 0855.10
2009/04/23 11:00:57.0     140   -129     27    191    194 132.7   8.2  34210  290.41 0855.10
2009/04/23 11:00:57.1     104   -130    -21    167    169 141.3  -7.2  34210  290.43 0855.10
2009/04/23 11:00:57.2     133    -96      2    165    166 125.9   1.0  34210  290.41 0855.10
2009/04/23 11:00:57.3     151    -82     41    172    177 118.6  13.5  34208  290.40 0855.10
2009/04/23 11:00:57.4     100   -104     59    145    156 136.3  23.6  34212  290.45 0855.10
2009/04/23 11:00:57.5      54   -154     74    164    179 160.4  26.2  34216  290.52 0855.10
2009/04/23 11:00:57.6      69   -196     19    208    209 160.6   5.4  34212  290.47 0855.10
2009/04/23 11:00:57.7      86   -182     63    202    212 154.5  17.3  34208  290.40 0855.10
2009/04/23 11:00:57.8      90   -123     70    153    168 143.9  26.2  34186  290.02 0855.10
2009/04/23 11:00:57.9     116   -109     67    160    173 133.1  23.8  34194  290.14 0855.10
2009/04/23 11:00:58.0     100   -106     97    147    176 136.7  36.5  34192  290.11 0855.10
2009/04/23 11:00:58.1     118   -107     96    160    186 132.2  34.0  34194  290.14 0855.10
2009/04/23 11:00:58.2     153   -120     64    195    206 128.0  18.1  34198  290.23 0855.10
2009/04/23 11:00:58.3     109   -247     77    271    282 156.2  16.0  34200  290.26 0855.10
2009/04/23 11:00:58.4     120   -219     73    250    261 151.3  16.3  34204  290.31 0855.10
2009/04/23 11:00:58.5      15   -193     62    194    204 175.5  17.9  34192  290.13 0855.10
2009/04/23 11:00:58.6      45   -169     99    176    201 164.9  31.9  34202  290.28 0855.10
2009/04/23 11:00:58.7      80   -144     77    166    182 150.8  26.6  34200  290.26 0855.10
2009/04/23 11:00:58.8      75   -148     99    167    194 153.0  33.7  34198  290.21 0855.10
2009/04/23 11:00:58.9     104   -184     99    212    233 150.6  27.1  34190  290.08 0855.10
2009/04/23 11:00:59.0      65   -208    110    219    245 162.6  28.5  34184  289.97 0855.10
2009/04/23 11:00:59.1     143   -217    127    261    290 146.6  27.8  34198  290.20 0855.10
2009/04/23 11:00:59.2     146   -201    113    249    273 143.9  26.2  34188  290.05 0855.10
2009/04/23 11:00:59.3     103   -148    109    181    211 145.3  34.2  34188  290.06 0855.10
2009/04/23 11:00:59.4     109   -105    153    152    215 134.0  50.1  34186  290.01 0855.10
2009/04/23 11:00:59.5     116    -41    133    124    181 109.5  52.2  34204  290.33 0855.10
2009/04/23 11:00:59.6     109    -36     98    116    151 108.6  44.3  34210  290.43 0855.10
2009/04/23 11:00:59.7     104    -36     69    111    130 109.1  35.5  34208  290.38 0855.10
2009/04/23 11:00:59.8      90    -30     38     95    102 108.6  23.0  34202  290.30 0855.10
2009/04/23 11:00:59.9      79    -27     38     84     92 109.1  26.2  34202  290.28 0855.10
2009/04/23 11:01:00.0      18    -23      2     30     31 142.2   4.9  34196  290.18 0855.10
2009/04/23 11:01:00.1     -16    -38     -5     42     43 203.6  -7.3  34188  290.06 0855.10
2009/04/23 11:01:00.2     -51    -32     -4     61     62 237.5  -4.1  34180  289.92 0855.10
2009/04/23 11:01:00.3     -37    -35    -14     52     55 226.9 -15.5  34180  289.91 0855.10
2009/04/23 11:01:00.4     -54    -18    -19     58     61 251.4 -23.8  34182  289.96 0855.10
2009/04/23 11:01:00.5     -31     36    -30     48     56 319.5 -39.9  34182  289.94 0855.10
2009/04/23 11:01:00.6     -22     68    -20     72     75 341.5 -15.5  34184  289.97 0855.10
2009/04/23 11:01:00.7      -5     84    -15     85     87 356.0 -10.3  34192  290.13 0855.10
2009/04/23 11:01:00.8      10    108    -14    109    110   5.3  -7.7  34194  290.14 0855.10
2009/04/23 11:01:00.9      15    133    -35    134    139   6.7 -15.0  34186  290.02 0855.10
2009/04/23 11:01:01.0       2    162    -15    163    164   1.0  -5.4  34190  290.09 0855.10
2009/04/23 11:01:01.1     -38    143    -29    149    152 344.9 -11.3  34186  290.01 0855.10
2009/04/23 11:01:01.2      25    152      7    155    156   9.3   2.8  34200  290.25 0855.10
2009/04/23 11:01:01.3      26    191      7    193    194   8.0   2.3  34198  290.21 0855.10
2009/04/23 11:01:01.4      58    169     41    179    184  18.9  12.9  34210  290.43 0855.10
2009/04/23 11:01:01.5      65     81    117    104    156  38.7  53.7  34208  290.38 0855.10
2009/04/23 11:01:01.6      75    133     96    153    180  29.4  35.2  34208  290.38 0855.10
2009/04/23 11:01:01.7      69    161     73    176    190  23.2  23.6  34204  290.33 0855.10
2009/04/23 11:01:01.8      21    189     34    191    195   6.5  10.1  34204  290.33 0855.10
2009/04/23 11:01:01.9      -6    193    -23    194    196 358.0  -6.9  34206  290.35 0855.10
2009/04/23 11:01:02.0     -77    173    -52    190    198 335.9 -15.4  34200  290.26 0855.10
2009/04/23 11:01:02.1    -118     85    -19    146    148 305.9  -7.7  34206  290.35 0855.10
2009/04/23 11:01:02.2    -137     89    -33    164    168 302.9 -11.3  34206  290.36 0855.10
2009/04/23 11:01:02.3    -228     76    -38    241    245 288.4  -9.0  34204  290.32 0855.10
2009/04/23 11:01:02.4    -179    162     15    242    243 312.0   3.6  34216  290.51 0855.10
2009/04/23 11:01:02.5    -169    124    -75    210    224 306.4 -19.7  34242  290.98 0855.10
2009/04/23 11:01:02.6    -113    189     92    221    239 329.3  23.8  34240  290.92 0855.10
2009/04/23 11:01:02.7    -152     95    103    180    207 302.0  32.4  34212  290.47 0855.10
2009/04/23 11:01:02.8    -163     73    134    179    223 294.2  40.4  34202  290.30 0855.10
2009/04/23 11:01:02.9    -102    123    146    161    217 320.3  47.1  34208  290.38 0855.10
2009/04/23 11:01:03.0     -16     84    125     86    151 348.9  62.6  34208  290.40 0855.10
2009/04/23 11:01:03.1      63     73    104     97    142  41.0  52.2  34216  290.53 0855.10
2009/04/23 11:01:03.2      -8     15     65     18     67 331.0  84.8  34218  290.57 0855.10
2009/04/23 11:01:03.3     -19     26     74     33     81 323.9  74.5  34222  290.62 0855.10
2009/04/23 11:01:03.4    -192     32     92    195    215 279.5  27.1  34214  290.50 0855.11
2009/04/23 11:01:03.5    -169     60     99    180    205 289.7  31.4  34222  290.64 0855.11
2009/04/23 11:01:03.6    -133     74     41    153    159 299.3  15.0  34212  290.47 0855.11
2009/04/23 11:01:03.7    -110     57     55    125    136 297.5  25.2  34202  290.30 0855.11
2009/04/23 11:01:03.8     -89     88     49    126    135 314.8  21.5  34196  290.19 0855.11
2009/04/23 11:01:03.9     -46    105     41    115    122 336.4  20.4  34198  290.23 0855.11
2009/04/23 11:01:04.0     -20     64     19     68     71 342.2  16.3  34202  290.28 0855.11
2009/04/23 11:01:04.1      13     34     43     37     56  21.8  54.3  34196  290.18 0855.11
2009/04/23 11:01:04.2      41     11     36     43     56  74.1  43.8  34194  290.16 0855.11
2009/04/23 11:01:04.3      73     14     71     75    103  78.5  48.5  34194  290.16 0855.11
2009/04/23 11:01:04.4      63     35     52     73     89  61.1  39.1  34196  290.19 0855.11
2009/04/23 11:01:04.5      62     24     95     67    116  68.3  61.5  34202  290.28 0855.11
2009/04/23 11:01:04.6      41     36     81     55     97  48.7  63.2  34212  290.47 0855.11
2009/04/23 11:01:04.7      45     74     71     87    112  31.6  43.7  34200  290.26 0855.11
2009/04/23 11:01:04.8      56     54     67     78    102  45.9  45.4  34208  290.38 0855.11
2009/04/23 11:01:04.9      15     69     56     71     90  12.5  42.7  34208  290.40 0855.11
2009/04/23 11:01:05.0     -34    100     37    106    113 360.0  19.2  34194  290.16 0855.11
2009/04/23 11:01:05.1      25    135     51    138    147  10.7  20.9  34208  290.40 0855.11
2009/04/23 11:01:05.2      18    129     76    131    151   8.0  32.9  34230  290.75 0855.11
2009/04/23 11:01:05.3      11    149     19    150    152   4.5   7.5  34206  290.35 0855.11
2009/04/23 11:01:05.4      41    139     60    146    157  16.5  23.6  34220  290.60 0855.12
2009/04/23 11:01:05.5      59    115     85    130    155  27.2  35.6  34220  290.60 0855.12
2009/04/23 11:01:05.6      17    123     67    125    141   8.0  30.8  34222  290.62 0855.12
2009/04/23 11:01:05.7      -2    142     79    143    163 359.1  31.6  34230  290.75 0855.12
2009/04/23 11:01:05.8      25    147    111    150    186   9.8  40.1  34278  291.59 0855.12
2009/04/23 11:01:05.9      29    172     61    175    186   9.8  19.2  34284  291.69 0855.12
2009/04/23 11:01:06.0     -52    174     89    182    202 343.1  27.8  34256  291.21 0855.12
2009/04/23 11:01:06.1     -85    214     19    231    232 338.2   4.9  34242  290.98 0855.12
2009/04/23 11:01:06.2     -72    217     11    229    230 341.5   2.8  34250  291.11 0855.12
2009/04/23 11:01:06.3     -92    211      4    231    232 336.3   1.2  34274  291.52 0855.12
2009/04/23 11:01:06.4    -101    212     10    235    236 334.5   2.5  34252  291.14 0855.11
2009/04/23 11:01:06.5    -122    178     26    216    218 325.5   7.1  34258  291.23 0855.11
2009/04/23 11:01:06.6     -97    258     28    276    278 339.3   5.9  34284  291.67 0855.11
2009/04/23 11:01:06.7     -72    253     56    264    270 344.0  12.0  34276  291.53 0855.11
2009/04/23 11:01:06.8      30    324    120    326    347   5.3  21.1  34320  292.29 0855.11
2009/04/23 11:01:06.9       1    381     87    382    392   0.3  12.9  34298  291.93 0855.11
2009/04/23 11:01:07.0    -148    427     -9    453    454 340.8  -1.3  34292  291.80 0855.11
2009/04/23 11:01:07.1     -52    484     63    487    492 353.8   7.5  34302  291.99 0855.11
2009/04/23 11:01:07.2     -58    454     64    458    463 352.7   8.0  34286  291.70 0855.11
2009/04/23 11:01:07.3     -69    442     63    448    453 351.1   8.0  34258  291.24 0855.11
2009/04/23 11:01:07.4     -37    465     46    467    470 355.4   5.7  34268  291.42 0855.11
2009/04/23 11:01:07.5    -104    465     36    477    479 347.4   4.4  34292  291.83 0855.11
2009/04/23 11:01:07.6    -109    348     14    365    366 342.6   2.3  34282  291.64 0855.11
2009/04/23 11:01:07.7     -35    323     71    326    334 353.7  12.3  34292  291.83 0855.11
2009/04/23 11:01:07.8     168    206    166    267    314  39.2  34.9  34296  291.89 0855.11
2009/04/23 11:01:07.9      14    185     95    186    208   4.4  29.2  34302  292.00 0855.11
2009/04/23 11:01:08.0     -63    133     29    148    151 334.6  11.1  34296  291.89 0855.11
2009/04/23 11:01:08.1     -64    103     56    122    134 328.4  27.1  34294  291.86 0855.11
2009/04/23 11:01:08.2     -97     92     21    134    136 313.6   9.0  34292  291.83 0855.11
2009/04/23 11:01:08.3    -128    101     16    164    165 308.4   5.7  34296  291.88 0855.11
2009/04/23 11:01:08.4    -207     28    -78    209    223 277.9 -25.4  34268  291.42 0855.10
2009/04/23 11:01:08.5    -126     50   -105    136    171 291.7 -46.1  34248  291.06 0855.10
2009/04/23 11:01:08.6    -125     73    -98    145    175 300.2 -41.4  34264  291.33 0855.10
2009/04/23 11:01:08.7    -152    131    -17    201    202 310.7  -5.1  34244  290.99 0855.10
2009/04/23 11:01:08.8      -9     54   -152     55    161 350.2 -83.9  34188  290.04 0855.10
2009/04/23 11:01:08.9     -71     65   -148     97    176 312.2 -68.3  34156  289.50 0855.10
2009/04/23 11:01:09.1     -31     62   -147     70    162 332.8 -77.3  34166  289.69 0855.10
2009/04/23 11:01:09.2     -23    -23   -100     33    105 225.1 -85.1  34186  290.02 0855.10
2009/04/23 11:01:09.2    -137    189   -105    234    256 324.0 -30.3  34244  291.00 0855.10
2009/04/23 11:01:09.4     -88    152    -48    176    183 329.9 -15.4  34242  290.96 0855.10
2009/04/23 11:01:09.4     -48    193    -56    199    206 346.0 -20.2  34236  290.87 0855.10
2009/04/23 11:01:09.5     -75    207    -73    221    233 340.0 -18.3  34222  290.62 0855.10
2009/04/23 11:01:09.6      -6    109   -160    110    194 356.9 -66.8  34212  290.47 0855.10
2009/04/23 11:01:09.7      97    110   -151    147    210  41.4 -55.1  34164  289.65 0855.10
2009/04/23 11:01:09.8      51    139   -109    149    184  20.1 -44.1  34146  289.35 0855.10
2009/04/23 11:01:09.9     159    208    -48    262    267  37.4 -10.4  34164  289.63 0855.10
2009/04/23 11:01:10.0     137    114    -16    179    180  50.2  -5.4  34156  289.52 0855.10
2009/04/23 11:01:10.1     108    102    -52    149    157  46.8 -24.4  34164  289.63 0855.10
2009/04/23 11:01:10.2      99     93    -50    136    144  46.8 -25.3  34174  289.82 0855.10
2009/04/23 11:01:10.3     103     48     12    114    115  64.8   6.5  34196  290.19 0855.10
2009/04/23 11:01:10.4      93    -66    -31    115    120 125.5 -15.0  34216  290.52 0855.11
2009/04/23 11:01:10.5     117    -31     14    122    123 105.1   6.9  34208  290.40 0855.11
2009/04/23 11:01:10.6     158    -76     43    176    182 115.8  13.7  34166  289.67 0855.11
2009/04/23 11:01:10.7     137    -46     54    145    154 108.6  20.9  34152  289.45 0855.11
2009/04/23 11:01:10.8      97    -17     94     99    136 100.1  49.0  34164  289.63 0855.11
2009/04/23 11:01:10.9      16    -15     85     23     88 133.1  84.9  34172  289.79 0855.11
2009/04/23 11:01:11.0     -19    -11     75     23     78 239.3  80.7  34192  290.11 0855.11
2009/04/23 11:01:11.1     -73    -29    104     79    130 248.3  58.5  34208  290.38 0855.11
2009/04/23 11:01:11.2     -45    -29    122     54    133 236.7  74.9  34210  290.41 0855.11
2009/04/23 11:01:11.3       9    -27     86     29     90 160.0  81.0  34204  290.31 0855.11
2009/04/23 11:01:11.4      38     46    119     60    133  39.7  71.9  34200  290.26 0855.11
2009/04/23 11:01:11.6     -87     12     79     88    118 277.9  46.9  34208  290.38 0855.11
2009/04/23 11:01:11.6     -67    -26     82     73    109 248.3  53.7  34220  290.58 0855.11
2009/04/23 11:01:11.8    -108    -30     41    113    120 254.5  20.9  34206  290.36 0855.11
2009/04/23 11:01:11.8    -116    -23     48    119    128 258.6  23.0  34202  290.30 0855.11
2009/04/23 11:01:12.0    -155      2     69    156    170 270.8  25.3  34210  290.41 0855.11
2009/04/23 11:01:12.1    -141    -27     50    144    153 259.0  19.2  34212  290.47 0855.11
2009/04/23 11:01:12.2    -105    -76     20    130    132 234.1   8.9  34210  290.41 0855.11
2009/04/23 11:01:12.3     -50   -125     60    135    147 201.8  25.2  34188  290.04 0855.11
2009/04/23 11:01:12.4      -5    -75     69     76    102 184.4  47.5  34182  289.96 0855.11
2009/04/23 11:01:12.5     -33     -5     59     34     68 260.3  67.7  34176  289.84 0855.12
2009/04/23 11:01:12.6     -28    -49     44     57     72 209.9  42.7  34178  289.87 0855.12
2009/04/23 11:01:12.7    -162   -103    -60    193    202 237.6 -22.1  34152  289.45 0855.12
2009/04/23 11:01:12.8    -209   -132   -118    248    274 237.6 -31.7  34162  289.59 0855.12
2009/04/23 11:01:12.9    -241    -39    -77    245    257 260.8 -17.5  34184  289.98 0855.12
2009/04/23 11:01:13.0    -186   -118    -47    221    227 237.6 -12.2  34160  289.57 0855.12
2009/04/23 11:01:13.1    -204    -18    -94    205    225 264.8 -31.0  34200  290.25 0855.12
2009/04/23 11:01:13.2    -202    -36    -88    206    224 259.9 -29.0  34174  289.80 0855.12
2009/04/23 11:01:13.3    -194    -30    -10    197    198 261.0  -3.2  34202  290.30 0855.12
2009/04/23 11:01:13.4    -273      7     -7    274    275 271.5  -1.6  34220  290.58 0855.12
2009/04/23 11:01:13.5    -313    -57    -94    319    333 259.7 -16.4  34216  290.51 0855.12
2009/04/23 11:01:13.6    -342    -84   -120    353    374 256.2 -18.8  34198  290.23 0855.12
2009/04/23 11:01:13.7    -355   -171    -80    395    403 244.3 -11.5  34206  290.35 0855.12
2009/04/23 11:01:13.8    -381   -208   -120    435    452 241.4 -15.4  34166  289.68 0855.12
2009/04/23 11:01:13.9    -203   -263    -49    333    337 217.7  -8.4  34180  289.91 0855.12
2009/04/23 11:01:14.0    -369   -133    -45    393    396 250.1  -6.6  34188  290.03 0855.12
2009/04/23 11:01:14.1    -338   -136   -109    365    382 248.1 -16.7  34156  289.52 0855.12
2009/04/23 11:01:14.2    -329   -109    -51    347    351 251.6  -8.4  34178  289.87 0855.12
2009/04/23 11:01:14.3    -344    -93    -85    357    368 254.8 -13.4  34178  289.86 0855.12
2009/04/23 11:01:14.4    -127   -199   -109    237    260 212.5 -30.8  34194  290.14 0855.12
2009/04/23 11:01:14.5     -46   -225    -73    230    242 191.6 -17.6  34216  290.53 0855.13
2009/04/23 11:01:14.6     -15   -176    -67    177    189 184.9 -26.1  34182  289.94 0855.13
2009/04/23 11:01:14.7      -2   -155     36    156    161 181.0  13.2  34210  290.43 0855.13
2009/04/23 11:01:14.8      31   -154     43    158    164 168.5  15.3  34188  290.06 0855.13
2009/04/23 11:01:14.9      88   -138     77    164    181 147.5  27.0  34184  289.97 0855.13
2009/04/23 11:01:15.0      74    -79     78    109    134 136.8  39.1  34186  290.01 0855.13
2009/04/23 11:01:15.1      41    -33     67     53     85 128.6  57.5  34200  290.25 0855.13
2009/04/23 11:01:15.2      54    -37     51     66     83 125.1  41.7  34190  290.08 0855.13
2009/04/23 11:01:15.3      31    -46     31     56     64 145.7  31.4  34188  290.06 0855.13
2009/04/23 11:01:15.4      -7    -53     10     54     56 188.0  11.1  34190  290.08 0855.13
2009/04/23 11:01:15.5     -36    -87      7     95     96 202.7   4.4  34188  290.06 0855.13
2009/04/23 11:01:15.6     -30    -82    -27     88     92 200.5 -22.3  34190  290.09 0855.13
2009/04/23 11:01:15.7      -9   -113     12    114    115 184.9   6.5  34206  290.36 0855.13
2009/04/23 11:01:15.8       6   -143     37    144    149 177.3  14.7  34184  289.97 0855.13
2009/04/23 11:01:15.9     -46   -104     13    115    116 204.1   6.9  34202  290.28 0855.13
2009/04/23 11:01:16.0     -88    -79     -8    119    120 227.8  -4.1  34216  290.53 0855.13
2009/04/23 11:01:16.1     -79    -87    -55    118    130 222.3 -31.5  34212  290.45 0855.13
2009/04/23 11:01:16.2     -85    -98    -37    131    136 221.0 -20.7  34210  290.41 0855.13
2009/04/23 11:01:16.3     -46    -72    -31     86     91 213.0 -24.4  34206  290.36 0855.13
2009/04/23 11:01:16.4     -64    -50    -11     82     83 231.8  -7.7  34194  290.14 0855.13
2009/04/23 11:01:16.5      16    -83     30     85     91 168.9  19.4  34186  290.01 0855.13
2009/04/23 11:01:16.6     -36   -109     55    115    127 198.3  27.2  34178  289.87 0855.13
2009/04/23 11:01:16.7     -17    -54     19     57     61 198.3  18.9  34180  289.91 0855.13
2009/04/23 11:01:16.8     -29    -75     31     81     86 201.4  21.5  34172  289.77 0855.13
2009/04/23 11:01:16.9     -32    -67     39     75     84 205.3  29.8  34174  289.80 0855.13
2009/04/23 11:01:17.0     -22    -51     15     56     59 203.6  15.3  34178  289.87 0855.13
2009/04/23 11:01:17.1     -36      2     25     37     44 274.4  36.5  34176  289.85 0855.13
2009/04/23 11:01:17.2     -46    -26      8     54     55 240.2   9.0  34174  289.82 0855.13
2009/04/23 11:01:17.3     -35    -30      2     47     48 229.6   2.9  34178  289.89 0855.13
2009/04/23 11:01:17.4     -21    -32    -28     39     48 214.3 -43.0  34192  290.13 0855.13
2009/04/23 11:01:17.5     -24    -15    -29     29     41 237.5 -54.5  34196  290.19 0855.13
2009/04/23 11:01:17.6       6     16    -24     18     30  21.8 -62.9  34200  290.26 0855.13
2009/04/23 11:01:17.7      59     38     -3     71     72  57.6  -3.1  34196  290.18 0855.13
2009/04/23 11:01:17.8     121     16     12    123    124  82.1   5.9  34198  290.23 0855.13
2009/04/23 11:01:17.9     250      4     83    251    265  89.0  18.4  34160  289.58 0855.13
2009/04/23 11:01:18.0     221     67    -18    232    233  73.1  -4.6  34160  289.58 0855.13
2009/04/23 11:01:18.1     380    148    142    408    432  68.7  20.0  34166  289.68 0855.13
2009/04/23 11:01:18.2     355    199     57    408    413  60.7   8.0  34182  289.95 0855.13
2009/04/23 11:01:18.3     361    238    -18    433    434  56.5  -2.5  34176  289.85 0855.13
2009/04/23 11:01:18.4     265    179     87    321    333  55.9  15.3  34180  289.90 0855.13
2009/04/23 11:01:18.5     250     17    -21    251    252  86.1  -4.9  34184  289.97 0855.12
2009/04/23 11:01:18.6     245    -37     12    248    249  98.6   2.9  34182  289.93 0855.12
2009/04/23 11:01:18.7     190    -58     74    199    212 107.1  21.0  34180  289.91 0855.12
2009/04/23 11:01:18.8     232    -79    116    246    271 109.0  27.1  34174  289.81 0855.12
2009/04/23 11:01:18.9     259   -126    134    289    318 116.0  26.5  34176  289.83 0855.12
2009/04/23 11:01:19.0     267   -130    249    298    388 116.0  44.0  34178  289.86 0855.12
2009/04/23 11:01:19.1     386    -84    283    396    486 102.3  39.1  34170  289.75 0855.12
2009/04/23 11:01:19.2     325   -206     54    385    389 122.4   8.1  34170  289.74 0855.12
2009/04/23 11:01:19.3     218   -205     81    300    311 133.2  15.2  34174  289.81 0855.12
2009/04/23 11:01:19.4     196   -250     74    318    327 141.9  13.1  34172  289.78 0855.12
2009/04/23 11:01:19.5      99   -292     95    309    324 161.3  17.1  34174  289.80 0855.12
2009/04/23 11:01:19.6     142   -210     41    254    258 145.9   9.3  34170  289.73 0855.12
2009/04/23 11:01:19.7     121   -169    -11    208    209 144.4  -3.2  34176  289.84 0855.12
2009/04/23 11:01:19.8      96   -174      2    199    200 151.1   0.8  34178  289.87 0855.12
2009/04/23 11:01:19.9      44   -130     32    138    142 161.3  13.2  34180  289.92 0855.12
2009/04/23 11:01:20.0     117   -119    140    168    218 135.5  43.8  34174  289.80 0855.12
2009/04/23 11:01:20.1     113   -124    160    169    232 137.7  48.2  34186  290.02 0855.12
2009/04/23 11:01:20.2      86      9    169     87    190  83.4  70.8  34190  290.09 0855.12
2009/04/23 11:01:20.3     214     16    198    215    292  85.6  47.7  34178  289.88 0855.12
2009/04/23 11:01:20.4      81     19    161     84    181  76.3  70.4  34188  290.06 0855.12
2009/04/23 11:01:20.5      62    -53    115     82    141 130.4  60.6  34198  290.21 0855.11
2009/04/23 11:01:20.6      78    -66    142    103    175 130.4  60.8  34182  289.96 0855.11
2009/04/23 11:01:20.7     118    -13    162    119    201  96.6  60.3  34182  289.96 0855.11
2009/04/23 11:01:20.8     123     36    197    129    235  73.6  63.6  34186  290.01 0855.11
2009/04/23 11:01:20.9     195     78    208    211    296  68.2  49.9  34184  289.97 0855.11
2009/04/23 11:01:21.0     224     13    254    225    339  86.5  54.0  34184  289.98 0855.11
2009/04/23 11:01:21.1     192     91    184    213    281  64.6  45.6  34194  290.15 0855.11
2009/04/23 11:01:21.2     231     17    106    232    255  85.7  26.2  34186  290.00 0855.11
2009/04/23 11:01:21.3     181     41    181    186    259  77.0  49.2  34210  290.41 0855.11
2009/04/23 11:01:21.4     229     99     55    250    257  66.5  12.4  34216  290.51 0855.11
2009/04/23 11:01:21.5     209     75     54    223    230  70.1  13.7  34202  290.30 0855.11
2009/04/23 11:01:21.6     135    -48    143    144    202 109.5  50.0  34188  290.06 0855.11
2009/04/23 11:01:21.7      89    -26    128     93    158 106.4  60.5  34196  290.19 0855.11
2009/04/23 11:01:21.8      72     -2    123     73    143  91.7  66.7  34202  290.28 0855.11
2009/04/23 11:01:21.9     104    -22    117    107    158 101.9  52.7  34192  290.13 0855.11
2009/04/23 11:01:22.0     143    -43    105    150    183 106.8  38.4  34184  289.97 0855.11
2009/04/23 11:01:22.1     188    -63     72    199    211 108.6  20.7  34182  289.94 0855.11
2009/04/23 11:01:22.2     220    -21     96    222    241  95.7  24.9  34188  290.03 0855.11
2009/04/23 11:01:22.3     204      1    155    205    257  89.6  40.7  34194  290.14 0855.11
2009/04/23 11:01:22.4     181     32    162    184    245  79.9  45.8  34192  290.13 0855.11
2009/04/23 11:01:22.5     181     60    165    191    252  71.4  45.4  34196  290.19 0855.11
2009/04/23 11:01:22.6     124     68    162    142    215  61.1  54.3  34204  290.31 0855.11
2009/04/23 11:01:22.7     163     91    125    187    224  60.7  37.0  34210  290.41 0855.11
2009/04/23 11:01:22.8     183    133    102    227    248  54.0  26.2  34202  290.29 0855.11
2009/04/23 11:01:22.9     249    208     31    325    327  50.2   5.5  34202  290.27 0855.11
2009/04/23 11:01:23.0     297    117     58    320    326  68.4  10.4  34192  290.12 0855.11
2009/04/23 11:01:23.1     202    149     28    252    254  53.6   6.5  34238  290.90 0855.11
2009/04/23 11:01:23.2     252    227     44    340    343  48.1   7.5  34238  290.89 0855.11
2009/04/23 11:01:23.3     242     94     74    260    271  68.7  16.0  34194  290.15 0855.11
2009/04/23 11:01:23.4     181    155     42    239    243  49.3  10.1  34254  291.17 0855.11
2009/04/23 11:01:23.5     140     99     71    172    186  54.7  23.6  34250  291.11 0855.11
2009/04/23 11:01:23.6     124     88     82    153    173  54.5  30.6  34248  291.08 0855.11
2009/04/23 11:01:23.7      83     90    123    123    173  42.8  50.1  34226  290.70 0855.11
2009/04/23 11:01:23.8      46    134    166    142    218  19.2  55.4  34244  290.99 0855.11
2009/04/23 11:01:23.9     -11    139    180    140    228 355.1  58.4  34250  291.11 0855.11
2009/04/23 11:01:24.0      41     62    165     75    181  33.4  74.0  34256  291.21 0855.11
2009/04/23 11:01:24.1     106    187    116    216    245  29.6  30.3  34256  291.19 0855.11
2009/04/23 11:01:24.2      43    139    121    146    189  17.4  43.8  34260  291.28 0855.11
2009/04/23 11:01:24.3      13    143     75    144    162   5.3  29.5  34242  290.96 0855.11
2009/04/23 11:01:24.4       5    180     20    181    183   1.8   6.5  34224  290.65 0855.11
2009/04/23 11:01:24.5      94    252    -64    270    278  20.5 -13.4  34234  290.83 0855.11
2009/04/23 11:01:24.6      67    121     97    139    169  28.9  38.4  34264  291.33 0855.11
2009/04/23 11:01:24.7      33    114    149    119    190  16.5  56.9  34296  291.88 0855.11
2009/04/23 11:01:24.8     119    110    134    163    211  47.3  43.7  34268  291.40 0855.11
2009/04/23 11:01:24.9     165     82    106    185    213  63.4  32.7  34266  291.38 0855.11
2009/04/23 11:01:25.0     129     77    113    151    188  59.3  40.7  34272  291.47 0855.11
2009/04/23 11:01:25.1     157    101    145    187    236  57.1  41.7  34286  291.71 0855.11
2009/04/23 11:01:25.2     248    103     99    269    286  67.4  21.0  34284  291.67 0855.11
2009/04/23 11:01:25.3     214    141    110    257    279  56.7  24.6  34324  292.35 0855.11
2009/04/23 11:01:25.4     184    153    107    240    262  50.4  25.3  34320  292.28 0855.11
2009/04/23 11:01:25.5     167    174     45    242    247  43.7  10.6  34320  292.28 0855.11
2009/04/23 11:01:25.6     112    142    109    182    212  38.3  34.0  34320  292.30 0855.11
2009/04/23 11:01:25.7     132    121     83    180    198  47.6  26.4  34330  292.47 0855.11
2009/04/23 11:01:25.8     150    162     88    222    238  42.8  22.8  34320  292.30 0855.11
2009/04/23 11:01:25.9     153    249    137    293    323  31.6  27.0  34238  290.90 0855.11
2009/04/23 11:01:26.0     104    373     50    388    392  15.6   7.4  34214  290.49 0855.11
2009/04/23 11:01:26.1     170    361    154    400    428  25.2  22.1  34214  290.50 0855.11
2009/04/23 11:01:26.2     293    220      2    367    368  53.1   0.4  34286  291.71 0855.11
2009/04/23 11:01:26.3     274     91     51    289    294  71.6  10.1  34260  291.26 0855.11
2009/04/23 11:01:26.4     164    242    117    293    315  34.2  23.0  34166  289.66 0855.11
2009/04/23 11:01:26.5     150    248    118    290    313  31.2  23.5  34168  289.70 0855.10
2009/04/23 11:01:26.6      86    270    102    284    301  17.8  20.4  34174  289.80 0855.10
2009/04/23 11:01:26.7     135    343     94    369    381  21.6  14.3  34168  289.71 0855.10
2009/04/23 11:01:26.8     193    391     21    437    438  26.3   2.8  34164  289.63 0855.10
2009/04/23 11:01:26.9     258    442     44    513    516  30.3   5.0  34180  289.91 0855.10
2009/04/23 11:01:27.0     201    423     76    469    476  25.5   9.2  34158  289.54 0855.10
2009/04/23 11:01:27.1     216    339     63    403    408  32.5   8.9  34170  289.75 0855.10
2009/04/23 11:01:27.2     239    271    102    362    377  41.4  15.8  34152  289.45 0855.10
2009/04/23 11:01:27.3     188    313     58    366    371  31.0   9.0  34162  289.59 0855.10
2009/04/23 11:01:27.4     168    259     26    309    311  33.0   4.9  34204  290.32 0855.10
2009/04/23 11:01:27.5     277    167    -31    324    326  58.9  -5.5  34200  290.26 0855.10
2009/04/23 11:01:27.6     268    170    -12    318    319  57.6  -2.2  34178  289.86 0855.10
2009/04/23 11:01:27.7     427    115     -9    443    444  74.9  -1.3  34148  289.38 0855.10
2009/04/23 11:01:27.8     411     58    -52    416    420  81.9  -7.2  34160  289.56 0855.10
2009/04/23 11:01:27.9     359     88    -42    370    373  76.2  -6.6  34154  289.48 0855.10
2009/04/23 11:01:28.0     310    131    -70    337    345  67.0 -11.8  34154  289.47 0855.10
2009/04/23 11:01:28.1     324    256     91    414    425  51.7  12.5  34190  290.07 0855.10
2009/04/23 11:01:28.2     308    261     45    404    407  49.7   6.4  34192  290.11 0855.10
2009/04/23 11:01:28.3     241    147     68    283    292  58.5  13.5  34194  290.14 0855.10
2009/04/23 11:01:28.4     332     81     91    342    355  76.2  15.0  34198  290.20 0855.10
2009/04/23 11:01:28.5     297    -17     82    298    310  93.3  15.4  34206  290.34 0855.10
2009/04/23 11:01:28.6     432     63    197    437    479  81.6  26.0  34232  290.79 0855.10
2009/04/23 11:01:28.7     297    104    328    315    454  70.7  51.3  34206  290.36 0855.10
2009/04/23 11:01:28.8     179   -155     39    238    242 130.9   9.3  34204  290.32 0855.10
2009/04/23 11:01:28.9     214   -119     72    246    257 119.1  16.3  34208  290.37 0855.10
2009/04/23 11:01:29.0     253   -160    106    300    319 122.4  19.6  34224  290.66 0855.10
2009/04/23 11:01:29.1     297   -193    -19    355    356 123.0  -3.1  34206  290.35 0855.10
2009/04/23 11:01:29.2     282   -146     35    318    320 117.5   6.4  34216  290.51 0855.10
2009/04/23 11:01:29.3     248   -164     76    298    308 123.5  14.3  34220  290.58 0855.10
2009/04/23 11:01:29.4     273   -169    123    322    344 121.8  21.8  34200  290.25 0855.10
2009/04/23 11:01:29.5     329   -146    123    361    382 114.0  18.9  34196  290.18 0855.11
2009/04/23 11:01:29.6     301   -271     48    406    409 132.0   6.8  34218  290.55 0855.11
2009/04/23 11:01:29.7     297   -235     20    379    380 128.4   3.1  34224  290.66 0855.11
2009/04/23 11:01:29.8     257   -193     16    322    323 126.9   3.0  34226  290.68 0855.11
2009/04/23 11:01:29.9     225   -184      4    291    292 129.3   0.8  34234  290.83 0855.11
2009/04/23 11:01:30.0     266   -252     27    367    368 133.5   4.2  34220  290.59 0855.11
2009/04/23 11:01:30.1     304   -279   -124    413    432 132.6 -16.7  34206  290.36 0855.11
2009/04/23 11:01:30.2     299   -285    -93    414    425 133.7 -12.7  34208  290.38 0855.11
2009/04/23 11:01:30.3     246   -316      5    401    402 142.2   0.8  34204  290.33 0855.11
2009/04/23 11:01:30.4     233   -371    -17    438    439 147.9  -2.2  34212  290.46 0855.11
2009/04/23 11:01:30.5     201   -207     51    289    294 135.9  10.0  34204  290.32 0855.11
2009/04/23 11:01:30.6     261   -480    117    547    560 151.5  12.2  34224  290.67 0855.11
2009/04/23 11:01:30.7     344   -311    266    464    534 132.1  32.4  34212  290.45 0855.11
2009/04/23 11:01:30.8     300   -298    298    424    518 134.8  38.5  34206  290.35 0855.11
2009/04/23 11:01:30.9     270   -287    232    395    458 136.7  33.3  34172  289.78 0855.11
2009/04/23 11:01:31.0     187   -163    247    249    350 131.1  50.0  34194  290.15 0855.11
2009/04/23 11:01:31.1      33   -113    235    118    262 163.5  71.4  34214  290.48 0855.11
2009/04/23 11:01:31.2      15    -96    255     98    273 171.1  78.2  34220  290.58 0855.11
2009/04/23 11:01:31.3     -62   -264    282    272    391 193.3  51.2  34210  290.43 0855.11
2009/04/23 11:01:31.4     -14   -249    335    250    418 183.4  59.7  34208  290.38 0855.11
2009/04/23 11:01:31.5       2   -280    330    281    433 179.5  55.4  34208  290.38 0855.12
2009/04/23 11:01:31.6      44   -317    312    321    447 172.0  49.2  34206  290.34 0855.12
2009/04/23 11:01:31.7     -69   -377    349    384    518 190.5  46.9  34194  290.15 0855.12
2009/04/23 11:01:31.8     -67   -344    361    351    503 191.1  50.9  34186  290.02 0855.12
2009/04/23 11:01:31.9     -79   -342    311    352    469 193.1  46.1  34176  289.85 0855.12
2009/04/23 11:01:32.0     -89   -328    294    341    450 195.3  45.2  34206  290.36 0855.12
2009/04/23 11:01:32.1    -216   -304    314    374    488 215.4  44.3  34204  290.31 0855.12
2009/04/23 11:01:32.2    -297   -315    294    433    523 223.3  37.4  34198  290.22 0855.12
2009/04/23 11:01:32.3    -373   -290    334    473    579 232.1  38.6  34186  290.01 0855.12
2009/04/23 11:01:32.4    -527   -129     41    543    545 256.2   4.3  34256  291.20 0855.12
2009/04/23 11:01:32.5    -526   -197     73    562    567 249.4   7.5  34258  291.25 0855.12
2009/04/23 11:01:32.6    -407   -206     -2    457    458 243.2  -0.4  34230  290.75 0855.12
2009/04/23 11:01:32.7    -581   -295     45    652    654 243.0   4.0  34240  290.93 0855.12
2009/04/23 11:01:32.8    -453   -150    212    478    522 251.7  25.6  34236  290.86 0855.12
2009/04/23 11:01:33.0     -28   -215    292    217    363 187.6  59.8  34190  290.09 0855.12
2009/04/23 11:01:33.0    -126   -265    265    294    395 205.5  46.8  34190  290.08 0855.12
2009/04/23 11:01:33.1     -69   -273    302    282    413 194.3  52.2  34204  290.33 0855.12
2009/04/23 11:01:33.2    -172   -221    268    281    388 217.9  48.6  34208  290.40 0855.12
2009/04/23 11:01:33.3    -215   -248    224    329    398 220.9  37.6  34198  290.23 0855.12
2009/04/23 11:01:33.4    -137   -218    224    258    341 212.1  45.5  34208  290.39 0855.12
2009/04/23 11:01:33.5    -188   -258    181    320    367 216.1  32.0  34198  290.23 0855.12
2009/04/23 11:01:33.6    -290   -269    160    396    427 227.1  23.1  34212  290.44 0855.12
2009/04/23 11:01:33.7    -204   -192    -20    281    282 226.7  -4.1  34242  290.95 0855.12
2009/04/23 11:01:33.8    -314   -198    -14    372    373 237.8  -2.2  34234  290.83 0855.12
2009/04/23 11:01:33.9    -204   -202     43    288    292 225.2   8.5  34240  290.93 0855.12
2009/04/23 11:01:34.0    -157   -157     83    223    237 224.9  21.3  34240  290.92 0855.12
2009/04/23 11:01:34.1    -353    -78    166    362    398 257.4  26.3  34240  290.94 0855.12
2009/04/23 11:01:34.2    -161   -132     63    209    219 230.7  16.8  34234  290.82 0855.12
2009/04/23 11:01:34.3     -57   -128    166    141    217 204.1  55.4  34216  290.53 0855.12
2009/04/23 11:01:34.4    -273     87     47    287    291 287.7   9.3  34234  290.82 0855.12
2009/04/23 11:01:34.5    -197     92     78    218    231 295.2  20.4  34236  290.86 0855.12
2009/04/23 11:01:34.6    -167    -12     -3    168    169 265.6  -1.1  34232  290.79 0855.12
2009/04/23 11:01:34.7    -144     -7     89    145    170 267.0  34.8  34244  290.99 0855.12
2009/04/23 11:01:34.8    -257   -119    -55    284    290 245.2 -11.1  34234  290.83 0855.12
2009/04/23 11:01:34.9    -334   -172     40    376    379 242.7   6.1  34238  290.89 0855.12
2009/04/23 11:01:35.0    -163   -222     -5    276    277 216.3  -1.2  34210  290.42 0855.12
2009/04/23 11:01:35.1    -273   -216    -82    349    359 231.6 -13.3  34208  290.38 0855.12
2009/04/23 11:01:35.2    -308    -32    -95    310    324 263.9 -22.1  34236  290.87 0855.12
2009/04/23 11:01:35.3    -274    -61   -123    281    306 257.4 -29.6  34232  290.80 0855.12
2009/04/23 11:01:35.4    -281   -122    -80    307    318 246.4 -14.7  34236  290.87 0855.12
2009/04/23 11:01:35.5    -263    -53    -95    269    286 258.5 -19.6  34226  290.70 0855.13
2009/04/23 11:01:35.6    -227   -170   -122    284    309 233.1 -29.5  34220  290.58 0855.13
2009/04/23 11:01:35.7    -283   -216   -110    357    374 232.6 -17.2  34208  290.40 0855.13
2009/04/23 11:01:35.8    -356   -208      5    413    414 239.7   0.7  34236  290.87 0855.13
2009/04/23 11:01:35.9    -281     39    -11    284    285 277.9  -2.2  34214  290.49 0855.13
2009/04/23 11:01:36.0    -367   -176   -123    408    427 244.3 -16.8  34264  291.35 0855.13
2009/04/23 11:01:36.1    -326     51   -117    331    352 278.9 -19.5  34194  290.15 0855.13
2009/04/23 11:01:36.2    -281    -97     -9    298    299 250.9  -1.8  34228  290.73 0855.13
2009/04/23 11:01:36.3    -243      3    -44    244    249 270.9 -10.4  34214  290.48 0855.13
2009/04/23 11:01:36.4    -223      0      7    224    225 270.0   1.8  34224  290.67 0855.13
2009/04/23 11:01:36.5    -260   -195     -9    325    326 233.1  -1.6  34244  291.00 0855.13
2009/04/23 11:01:36.6    -214   -150     66    262    271 235.0  14.2  34244  290.99 0855.13
2009/04/23 11:01:36.7    -209    -83     31    225    228 248.3   8.0  34252  291.15 0855.13
2009/04/23 11:01:36.8    -366   -120    -55    386    391 251.8  -8.2  34230  290.77 0855.13
2009/04/23 11:01:36.9    -400   -126     -1    420    421 252.4  -0.3  34228  290.72 0855.13
2009/04/23 11:01:37.0    -361   -160    -55    396    401 246.1  -8.0  34228  290.74 0855.13
2009/04/23 11:01:37.1    -348    -95    -72    361    369 254.6 -11.3  34222  290.64 0855.13
2009/04/23 11:01:37.2    -329   -138   -109    358    375 247.2 -17.0  34228  290.71 0855.13
2009/04/23 11:01:37.3    -273   -184   -101    330    345 236.0 -22.1  34218  290.57 0855.13
2009/04/23 11:01:37.4    -433   -128    -62    452    457 253.5  -7.9  34210  290.41 0855.13
2009/04/23 11:01:37.5    -407   -136     -8    430    431 251.4  -1.2  34216  290.51 0855.13
2009/04/23 11:01:37.7    -496   -215    -38    541    543 246.6  -4.1  34210  290.41 0855.13
2009/04/23 11:01:37.8    -510   -175    -62    540    544 251.0  -6.6  34192  290.11 0855.13
2009/04/23 11:01:37.9    -396   -252    -63    470    475 237.5  -7.7  34196  290.18 0855.13
2009/04/23 11:01:38.0    -258   -190    -92    321    335 233.6 -16.0  34202  290.27 0855.13
2009/04/23 11:01:38.1    -277   -269   -102    387    401 225.8 -14.8  34194  290.16 0855.13
2009/04/23 11:01:38.2    -302   -150   -144    338    367 243.6 -29.0  34228  290.71 0855.13
2009/04/23 11:01:38.3    -310   -202   -126    371    391 236.9 -23.8  34200  290.25 0855.13
2009/04/23 11:01:38.4    -246   -270    -50    366    370 222.4  -7.9  34188  290.04 0855.13
2009/04/23 11:01:38.5    -241   -205   -107    317    335 229.6 -18.8  34196  290.18 0855.13
2009/04/23 11:01:38.6    -165   -254    107    304    323 213.0  19.5  34196  290.19 0855.13
2009/04/23 11:01:38.7    -177   -247     93    304    319 215.6  17.1  34204  290.31 0855.13
2009/04/23 11:01:38.8    -205   -271    123    341    362 217.1  20.8  34212  290.47 0855.13
2009/04/23 11:01:38.9    -178   -229    200    291    353 217.9  37.8  34206  290.35 0855.13
2009/04/23 11:01:39.0    -138    -30    107    142    177 257.6  40.7  34220  290.58 0855.13
2009/04/23 11:01:39.1    -120     40     44    127    135 288.6  19.4  34232  290.81 0855.13
2009/04/23 11:01:39.2     -90     27    -47     95    105 286.8 -32.6  34234  290.84 0855.13
2009/04/23 11:01:39.3    -153     26      1    156    157 279.7   0.5  34232  290.81 0855.13
2009/04/23 11:01:39.4    -191     64     35    202    206 288.6   9.9  34250  291.11 0855.13
2009/04/23 11:01:39.5    -212     16    -11    213    214 274.6  -3.2  34250  291.09 0855.13
2009/04/23 11:01:39.6    -198     14    -20    199    201 274.1  -6.0  34240  290.92 0855.13
2009/04/23 11:01:39.7    -237    -46     38    242    246 259.0   8.9  34248  291.07 0855.13
2009/04/23 11:01:39.8    -223    -29    -12    225    226 262.5  -3.1  34216  290.53 0855.13
2009/04/23 11:01:39.9    -232    -10    -60    233    241 267.5 -14.5  34208  290.37 0855.13
2009/04/23 11:01:40.0    -206    -73    -12    219    220 250.3  -3.2  34212  290.45 0855.13
2009/04/23 11:01:40.1    -221   -130     -5    257    258 239.4  -1.2  34234  290.83 0855.13
2009/04/23 11:01:40.2    -297   -122     22    322    323 247.6   4.0  34226  290.68 0855.13
2009/04/23 11:01:40.3    -212   -108     60    239    247 242.9  14.2  34222  290.61 0855.13
2009/04/23 11:01:40.4    -161   -144      8    217    218 228.2   2.3  34208  290.38 0855.13
2009/04/23 11:01:40.5    -133   -150    -13    201    202 221.7  -3.7  34216  290.53 0855.13
2009/04/23 11:01:40.6    -131   -106     -6    169    170 230.9  -2.2  34230  290.77 0855.13
2009/04/23 11:01:40.7    -163   -143     -8    217    218 228.7  -2.2  34232  290.81 0855.13
2009/04/23 11:01:40.8    -122   -119     -8    171    172 225.8  -2.8  34240  290.92 0855.13
2009/04/23 11:01:40.9    -159    -94    -31    185    188 239.3  -9.6  34256  291.20 0855.13
2009/04/23 11:01:41.0    -188    -66    -33    200    203 250.5  -9.6  34262  291.30 0855.13
2009/04/23 11:01:41.1    -107    -89    -42    140    147 230.4 -17.0  34256  291.21 0855.13
2009/04/23 11:01:41.2     -12    -86     71     87    112 188.5  43.7  34264  291.35 0855.13
2009/04/23 11:01:41.3     -26    -73     24     78     82 200.0  17.3  34256  291.20 0855.13
2009/04/23 11:01:41.4      28    -40     28     50     57 144.8  32.4  34258  291.25 0855.13
2009/04/23 11:01:41.5      23    -40     16     47     50 150.1  19.4  34260  291.26 0855.13
2009/04/23 11:01:41.6      -2     -6     17      7     18 198.3  81.2  34264  291.35 0855.14
2009/04/23 11:01:41.7      14     -3     56     15     57 105.1  84.9  34270  291.43 0855.14
2009/04/23 11:01:41.8      -7     34     54     35     64 348.4  64.6  34276  291.55 0855.14
2009/04/23 11:01:41.9     -16     71     30     73     78 346.6  23.0  34284  291.69 0855.14
2009/04/23 11:01:42.0       0     21     47     22     51 359.1  73.1  34284  291.69 0855.14
2009/04/23 11:01:42.1     -27    -60     44     66     79 204.5  37.0  34284  291.67 0855.14
2009/04/23 11:01:42.2     -10    -81     50     82     96 187.1  35.0  34280  291.60 0855.14
2009/04/23 11:01:42.3      -5    -71     34     72     79 184.5  27.2  34264  291.33 0855.14
2009/04/23 11:01:42.4     -50    -35     13     62     64 234.9  12.2  34264  291.35 0855.14
2009/04/23 11:01:42.5     -87    -61     21    107    110 234.9  11.1  34262  291.30 0855.14
2009/04/23 11:01:42.6    -174    -57    -57    184    192 251.8 -22.5  34230  290.75 0855.14
2009/04/23 11:01:42.7    -195    -88    -43    215    220 245.6 -11.5  34194  290.16 0855.14
2009/04/23 11:01:42.8    -161   -125    -65    204    214 232.2 -23.0  34190  290.09 0855.14
2009/04/23 11:01:42.9    -220   -128    -18    255    256 239.8  -4.1  34210  290.41 0855.14
2009/04/23 11:01:43.0    -202   -237     48    312    316 220.5   8.8  34236  290.87 0855.14
2009/04/23 11:01:43.1    -231   -289    -10    371    372 218.6  -1.6  34214  290.50 0855.14
2009/04/23 11:01:43.2    -219   -321     27    389    390 214.3   4.0  34220  290.60 0855.14
2009/04/23 11:01:43.3    -198   -257      1    325    326 217.7   0.2  34224  290.65 0855.14
2009/04/23 11:01:43.4    -182   -324    -57    372    377 209.4  -8.8  34234  290.84 0855.14
2009/04/23 11:01:43.5    -229   -335    -95    407    418 214.4 -13.2  34220  290.58 0855.14
2009/04/23 11:01:43.6    -252   -323    -91    410    421 218.0 -12.5  34168  289.72 0855.13
2009/04/23 11:01:43.7    -264   -325   -123    420    438 219.1 -16.4  34178  289.87 0855.13
2009/04/23 11:01:43.8    -215   -244   -129    326    350 221.5 -27.2  34172  289.76 0855.13
2009/04/23 11:01:43.9    -197   -254   -167    322    362 217.8 -33.8  34172  289.76 0855.13
2009/04/23 11:01:44.0    -258   -180   -138    315    343 235.0 -29.6  34178  289.87 0855.13
2009/04/23 11:01:44.1    -227   -115   -129    255    285 243.1 -33.5  34198  290.22 0855.13
2009/04/23 11:01:44.2    -266    -49   -142    271    305 259.5 -34.2  34218  290.54 0855.13
2009/04/23 11:01:44.3    -255    -47   -175    260    313 259.5 -41.6  34190  290.09 0855.13
2009/04/23 11:01:44.4    -224    -45   -245    229    335 258.6 -56.6  34188  290.05 0855.13
2009/04/23 11:01:44.5    -235     -1   -131    236    269 269.6 -35.8  34182  289.93 0855.13
2009/04/23 11:01:44.6     -78   -101   -162    128    206 217.8 -61.9  34186  290.01 0855.13
2009/04/23 11:01:44.7    -105   -105    -84    149    171 225.0 -36.3  34184  289.99 0855.13
2009/04/23 11:01:44.8     -98   -108     -5    147    148 222.3  -2.2  34186  290.02 0855.13
2009/04/23 11:01:44.9    -243   -110      0    267    268 245.6   0.0  34180  289.92 0855.13
2009/04/23 11:01:45.0    -248   -152      4    291    292 238.5   0.8  34202  290.29 0855.13
2009/04/23 11:01:45.1    -253    -59    -71    260    270 256.7 -15.4  34178  289.86 0855.13
2009/04/23 11:01:45.2    -350   -201   -116    404    420 240.1 -20.8  34174  289.82 0855.13
2009/04/23 11:01:45.3    -292   -230   -108    372    387 231.7 -21.1  34178  289.89 0855.13
2009/04/23 11:01:45.4    -157   -239    -89    287    300 213.4 -22.3  34184  289.97 0855.13
2009/04/23 11:01:45.5    -171   -213    -79    274    285 218.7 -20.8  34180  289.90 0855.13
2009/04/23 11:01:45.6    -264   -178   -144    319    349 235.9 -30.4  34172  289.79 0855.14
2009/04/23 11:01:45.7    -282   -237   -125    369    389 229.9 -23.5  34178  289.87 0855.14
2009/04/23 11:01:45.8    -225   -248   -145    336    365 222.2 -29.3  34192  290.11 0855.14
2009/04/23 11:01:45.9    -189   -245    -93    310    323 217.8 -21.5  34212  290.44 0855.14
2009/04/23 11:01:46.0     -53   -205    -71    212    224 194.5 -18.7  34210  290.43 0855.14
2009/04/23 11:01:46.1     -95   -183      1    207    208 207.6   0.5  34212  290.45 0855.14
2009/04/23 11:01:46.2    -128   -271    -11    300    301 205.4  -2.2  34200  290.26 0855.14
2009/04/23 11:01:46.3     -78   -235    -19    248    249 198.5  -4.4  34200  290.26 0855.14
2009/04/23 11:01:46.4     109   -244    -90    268    282 155.9 -23.3  34198  290.22 0855.14
2009/04/23 11:01:46.5      67   -201    -59    212    220 161.5 -20.0  34200  290.25 0855.14
2009/04/23 11:01:46.6      85   -170     12    191    192 153.5   3.8  34196  290.19 0855.14
2009/04/23 11:01:46.7     187   -209     18    281    282 138.1   3.8  34208  290.39 0855.14
2009/04/23 11:01:46.8     185   -223     79    291    302 140.3  15.3  34212  290.44 0855.14
2009/04/23 11:01:46.9     153   -138     54    207    214 132.0  14.7  34208  290.38 0855.14
2009/04/23 11:01:47.0     150   -160     69    220    231 137.0  17.4  34206  290.36 0855.14
2009/04/23 11:01:47.1     148   -139     88    204    222 133.1  24.9  34206  290.36 0855.14
2009/04/23 11:01:47.2     127   -113     81    171    189 131.8  27.2  34204  290.33 0855.14
2009/04/23 11:01:47.3      88   -152     84    176    195 149.9  27.3  34194  290.16 0855.14
2009/04/23 11:01:47.4      39   -159    117    164    201 166.0  39.1  34196  290.19 0855.14
2009/04/23 11:01:47.5      29   -111     91    115    146 165.3  43.3  34210  290.43 0855.14
2009/04/23 11:01:47.6      83     44    111     95    146  62.0  54.8  34214  290.48 0855.15
2009/04/23 11:01:47.7     -24     17     97     30    101 306.0  82.3  34222  290.62 0855.15
2009/04/23 11:01:47.8     107     16     63    109    125  81.2  33.4  34204  290.31 0855.15
2009/04/23 11:01:47.9     215     -9     11    216    217  92.5   2.9  34198  290.21 0855.15
2009/04/23 11:01:48.0     169     42      0    175    176  76.1   0.0  34198  290.21 0855.15
2009/04/23 11:01:48.1     195     21     36    197    201  83.6  10.3  34196  290.18 0855.15
2009/04/23 11:01:48.2     176    -46     53    182    190 104.8  16.3  34196  290.19 0855.15
2009/04/23 11:01:48.3     172   -102    -52    200    207 120.7 -14.7  34198  290.21 0855.15
2009/04/23 11:01:48.4     173   -123    -62    213    223 125.3 -16.4  34196  290.18 0855.15
2009/04/23 11:01:48.5     184    -84    -26    203    205 114.6  -7.5  34198  290.21 0855.15
2009/04/23 11:01:48.6     172    -56     26    182    184 108.2   8.2  34198  290.21 0855.15
2009/04/23 11:01:48.7     152   -103     69    184    196 124.2  21.5  34192  290.13 0855.15
2009/04/23 11:01:48.8     128   -111    109    170    201 131.1  35.6  34192  290.13 0855.15
2009/04/23 11:01:48.9     102   -116     88    155    178 138.5  31.9  34190  290.09 0855.15
2009/04/23 11:01:49.0      86   -108     56    139    149 141.3  23.0  34192  290.13 0855.15
2009/04/23 11:01:49.1      19   -101    107    103    148 168.9  51.2  34198  290.21 0855.15
2009/04/23 11:01:49.2     -12    -90    102     91    136 188.0  53.7  34196  290.19 0855.15
2009/04/23 11:01:49.3     -73   -124    106    145    179 210.7  39.7  34194  290.16 0855.15
2009/04/23 11:01:49.4     -69   -102     76    124    145 214.3  35.0  34196  290.18 0855.15
2009/04/23 11:01:49.5     -59    -86     86    105    135 214.3  43.7  34196  290.19 0855.15
2009/04/23 11:01:49.6     -63    -72     72     96    120 221.0  40.7  34198  290.23 0855.16
2009/04/23 11:01:49.7     -77    -77     10    110    111 225.1   5.4  34192  290.13 0855.16
2009/04/23 11:01:49.8     -78   -108     21    134    136 216.1   9.0  34192  290.13 0855.16
2009/04/23 11:01:49.9     -83    -86     18    120    122 224.1   8.5  34192  290.11 0855.16
2009/04/23 11:01:50.0     -99    -63      7    118    119 237.5   3.8  34192  290.13 0855.16
2009/04/23 11:01:50.1     -96    -54    -10    111    112 240.7  -5.6  34192  290.13 0855.16
2009/04/23 11:01:50.2     -72    -93      1    118    119 217.8   0.7  34196  290.19 0855.16
2009/04/23 11:01:50.3     -59   -125     19    139    141 205.4   8.0  34196  290.19 0855.16
2009/04/23 11:01:50.4     -15   -144     18    145    147 186.2   7.1  34196  290.18 0855.16
2009/04/23 11:01:50.5       7   -211     40    212    216 178.0  10.8  34196  290.19 0855.16
2009/04/23 11:01:50.6     -14   -213     -4    214    215 184.0  -1.2  34196  290.18 0855.15
2009/04/23 11:01:50.7      -9   -206    -10    207    208 182.5  -2.8  34196  290.19 0855.15
2009/04/23 11:01:50.8     -29   -208     -4    211    212 188.1  -1.3  34198  290.23 0855.15
2009/04/23 11:01:50.9     -18   -220      9    221    222 184.7   2.3  34198  290.21 0855.15
2009/04/23 11:01:51.0       0   -214     18    215    216 180.2   4.9  34198  290.23 0855.15
2009/04/23 11:01:51.1      31   -132     61    136    149 166.7  25.7  34206  290.36 0855.15
2009/04/23 11:01:51.2      72   -155     79    172    189 155.1  26.6  34204  290.33 0855.15
2009/04/23 11:01:51.3      50   -151     64    160    172 161.7  22.8  34204  290.31 0855.15
2009/04/23 11:01:51.4      13   -141     88    142    167 174.7  35.0  34212  290.45 0855.15
2009/04/23 11:01:51.5      12   -109    109    110    154 173.3  50.5  34216  290.52 0855.15
2009/04/23 11:01:51.6      74   -134     85    154    175 151.0  31.4  34208  290.38 0855.15
2009/04/23 11:01:51.7     142    -79     56    163    173 119.3  19.2  34204  290.31 0855.15
2009/04/23 11:01:51.8     181    -97     48    206    212 118.2  13.2  34202  290.30 0855.15
2009/04/23 11:01:51.9     178    -81    177    196    264 114.4  46.9  34208  290.37 0855.15
2009/04/23 11:01:52.0     252   -192     58    318    324 127.3  10.4  34204  290.31 0855.15
2009/04/23 11:01:52.1     241   -127    -14    273    274 117.8  -3.1  34200  290.26 0855.15
2009/04/23 11:01:52.2     150   -159     11    219    220 136.7   2.9  34202  290.28 0855.15
2009/04/23 11:01:52.3     140   -238     59    277    284 149.5  12.2  34200  290.24 0855.15
2009/04/23 11:01:52.4     143   -234    114    275    297 148.6  23.6  34196  290.19 0855.15
2009/04/23 11:01:52.5     204   -224    147    304    337 137.7  27.7  34200  290.24 0855.15
2009/04/23 11:01:52.6     144   -231    150    273    311 148.1  31.3  34196  290.19 0855.15
2009/04/23 11:01:52.7      53   -239    146    245    285 167.5  33.5  34194  290.14 0855.15
2009/04/23 11:01:52.8     121   -226     32    257    260 151.9   7.1  34198  290.20 0855.15
2009/04/23 11:01:52.9      43   -234     73    238    249 169.5  17.1  34202  290.29 0855.15
2009/04/23 11:01:53.0      61   -218    127    227    260 164.2  31.4  34198  290.20 0855.15
2009/04/23 11:01:53.1     123   -321    148    344    374 159.0  24.9  34180  289.91 0855.15
2009/04/23 11:01:53.2      62   -306    191    313    366 168.5  34.3  34176  289.84 0855.15
2009/04/23 11:01:53.3      21   -278     93    279    295 175.5  18.5  34180  289.92 0855.15
2009/04/23 11:01:53.4     -28   -318    107    320    338 185.1  18.5  34184  289.99 0855.15
2009/04/23 11:01:53.5       0   -246     91    247    263 180.2  21.0  34192  290.10 0855.15
2009/04/23 11:01:53.6     -82   -225    120    240    268 200.1  28.2  34190  290.07 0855.15
2009/04/23 11:01:53.7      12   -134     40    135    141 174.7  16.8  34200  290.25 0855.15
2009/04/23 11:01:53.8      -9   -173    -35    174    178 183.1 -11.5  34204  290.33 0855.15
2009/04/23 11:01:53.9      13   -160    -36    161    166 175.1 -12.6  34206  290.36 0855.15
2009/04/23 11:01:54.0      34   -163    -21    167    169 168.2  -7.3  34206  290.36 0855.15
2009/04/23 11:01:54.1      48   -113    -20    123    125 156.8  -9.3  34208  290.38 0855.15
2009/04/23 11:01:54.2      63   -123    -10    139    140 152.8  -4.1  34204  290.31 0855.15
2009/04/23 11:01:54.3      38   -126     24    132    135 163.1  10.6  34198  290.23 0855.15
2009/04/23 11:01:54.4     -20   -138     32    140    144 188.5  13.1  34200  290.26 0855.15
2009/04/23 11:01:54.5     -14   -186     66    187    198 184.5  20.2  34192  290.13 0855.15
2009/04/23 11:01:54.6     -96   -173    136    198    240 209.0  37.8  34190  290.08 0855.16
2009/04/23 11:01:54.7     -24    -87    210     91    228 195.6  75.3  34208  290.40 0855.16
2009/04/23 11:01:54.8       0   -172    165    173    239 179.8  49.0  34202  290.30 0855.16
2009/04/23 11:01:54.9      55   -244    152    251    293 167.3  34.0  34194  290.14 0855.16
2009/04/23 11:01:55.0      23   -304    161    305    344 175.6  30.2  34202  290.27 0855.16
2009/04/23 11:01:55.1      42   -250    117    254    279 170.3  26.4  34194  290.14 0855.16
2009/04/23 11:01:55.2     -40   -259    157    263    306 188.9  33.5  34196  290.17 0855.16
2009/04/23 11:01:55.3      52    -95    162    109    195 151.0  63.4  34196  290.19 0855.16
2009/04/23 11:01:55.4     139   -238    128    276    304 149.7  27.1  34196  290.19 0855.16
2009/04/23 11:01:55.5      73   -211    126    224    257 160.8  31.9  34196  290.17 0855.16
2009/04/23 11:01:55.6     -35   -284     67    287    295 187.2  13.2  34192  290.10 0855.16
2009/04/23 11:01:55.7     -18   -238     -1    239    240 184.4  -0.3  34190  290.07 0855.16
2009/04/23 11:01:55.8     142   -143     75    202    215 135.1  21.0  34198  290.21 0855.16
2009/04/23 11:01:55.9     148   -113    111    187    217 127.5  33.5  34200  290.26 0855.16
2009/04/23 11:01:56.0      80   -126    105    150    183 147.4  38.4  34202  290.30 0855.16
2009/04/23 11:01:56.1      81    -54    136     98    167 123.7  60.8  34202  290.28 0855.16
2009/04/23 11:01:56.2     124    -81    149    149    210 123.3  50.1  34204  290.33 0855.16
2009/04/23 11:01:56.3     103   -161    153    192    245 147.5  42.7  34198  290.21 0855.16
2009/04/23 11:01:56.4       4   -178    202    179    269 178.6  54.2  34196  290.17 0855.16
2009/04/23 11:01:56.5      48   -123    139    133    192 158.6  51.2  34200  290.25 0855.16
2009/04/23 11:01:56.6     127    -84    123    153    196 123.3  43.3  34202  290.30 0855.17
2009/04/23 11:01:56.7     125    -30    128    129    181 103.7  50.0  34206  290.35 0855.17
2009/04/23 11:01:56.8     187    -34    109    191    219 100.4  32.1  34200  290.25 0855.17
2009/04/23 11:01:56.9     138     -4    136    139    194  91.7  49.8  34204  290.33 0855.17
2009/04/23 11:01:57.0     196     -5    129    197    235  91.7  36.5  34198  290.23 0855.17
2009/04/23 11:01:57.1     239    -64    122    248    276 105.0  28.2  34198  290.20 0855.17
2009/04/23 11:01:57.2     138      8     85    139    162  86.5  34.8  34202  290.28 0855.17
2009/04/23 11:01:57.3      58      7     72     59     93  83.0  56.4  34202  290.28 0855.17
2009/04/23 11:01:57.4      50     13    106     52    118  74.9  72.4  34220  290.60 0855.17
2009/04/23 11:01:57.5       0     35     69     36     77 359.1  70.8  34226  290.69 0855.17
2009/04/23 11:01:57.6      65      2     73     66     98  87.4  52.7  34212  290.45 0855.17
2009/04/23 11:01:57.7      43    -19     84     48     96 114.4  67.2  34208  290.40 0855.17
2009/04/23 11:01:57.8      12    -12     81     18     82 135.0  88.0  34210  290.43 0855.17
2009/04/23 11:01:57.9      94     78     71    123    142  50.5  32.4  34208  290.40 0855.17
2009/04/23 11:01:58.0     185     59     95    195    216  72.3  27.4  34206  290.35 0855.17
2009/04/23 11:01:58.1     180     64    107    192    219  70.3  31.4  34206  290.36 0855.17
2009/04/23 11:01:58.2     114     77    120    138    182  55.9  45.8  34208  290.38 0855.17
2009/04/23 11:01:58.3     127     73    125    147    192  60.2  44.8  34206  290.36 0855.17
2009/04/23 11:01:58.4     227     42     95    231    249  79.4  23.8  34210  290.41 0855.17
2009/04/23 11:01:58.5     219     61     66    228    238  74.3  16.3  34210  290.42 0855.17
2009/04/23 11:01:58.6     210     67    115    221    249  72.3  29.5  34208  290.37 0855.17
2009/04/23 11:01:58.7     158     22    140    160    212  82.0  45.8  34214  290.48 0855.17
2009/04/23 11:01:58.8     168    -14     87    169    190  94.8  29.3  34206  290.35 0855.17
2009/04/23 11:01:58.9     171    -18     97    172    197  96.1  31.9  34206  290.35 0855.17
2009/04/23 11:01:59.0     160     15     76    161    178  84.3  27.1  34208  290.38 0855.17
2009/04/23 11:01:59.1     143      0     70    144    160  90.4  28.0  34204  290.33 0855.17
2009/04/23 11:01:59.2     129    -58     61    142    154 114.4  25.1  34200  290.26 0855.17
2009/04/23 11:01:59.3     152    -66     64    166    177 113.6  22.3  34196  290.18 0855.17
2009/04/23 11:01:59.4      37   -123    135    129    186 163.0  51.4  34184  289.97 0855.17
2009/04/23 11:01:59.5      89    -89    133    127    183 135.1  51.2  34190  290.08 0855.17
2009/04/23 11:01:59.6      88    -73    156    115    193 129.5  60.3  34198  290.23 0855.17
2009/04/23 11:01:59.7     146   -165    155    221    269 138.6  38.6  34190  290.07 0855.17
2009/04/23 11:01:59.8     159   -189    152    248    290 139.9  34.5  34184  289.97 0855.17
2009/04/23 11:01:59.9     164   -124    156    206    258 127.1  40.9  34188  290.03 0855.17
2009/04/23 11:02:00.0     175   -110    139    207    249 122.2  37.0  34184  289.98 0855.17
2009/04/23 11:02:00.1     174    -81    170    193    257 115.1  45.9  34192  290.10 0855.17
2009/04/23 11:02:00.2      76    -87    107    116    157 139.0  47.7  34190  290.08 0855.17
2009/04/23 11:02:00.3      55    -55    113     79    137 134.9  61.5  34198  290.21 0855.17
2009/04/23 11:02:00.4      86    -69    109    111    155 128.6  50.0  34204  290.33 0855.17
2009/04/23 11:02:00.5      81   -162    125    182    220 153.5  37.8  34200  290.25 0855.17
2009/04/23 11:02:00.6     106   -192     99    220    241 151.0  25.9  34196  290.19 0855.18
2009/04/23 11:02:00.7      62   -167    101    179    205 159.5  31.9  34190  290.08 0855.18
2009/04/23 11:02:00.8      84   -102     75    133    152 140.3  31.9  34198  290.21 0855.18
2009/04/23 11:02:00.9      89    -50    101    103    144 119.3  50.0  34202  290.30 0855.18
2009/04/23 11:02:01.0      30    -75    111     81    137 158.2  60.5  34202  290.28 0855.18
2009/04/23 11:02:01.1      55     12    126     57    138  77.6  74.5  34200  290.26 0855.18
2009/04/23 11:02:01.2      59   -136    152    149    212 156.4  50.2  34194  290.14 0855.18
2009/04/23 11:02:01.3      92    -23    112     95    146 104.2  55.8  34206  290.36 0855.18
2009/04/23 11:02:01.4     143    -56    134    154    204 111.7  45.8  34198  290.21 0855.18
2009/04/23 11:02:01.5     141    -90    152    168    226 122.4  46.9  34196  290.19 0855.18
2009/04/23 11:02:01.6      99    -55    146    114    185 118.9  58.2  34204  290.33 0855.18
2009/04/23 11:02:01.7     133    -32    136    137    193 103.7  50.2  34202  290.28 0855.18
2009/04/23 11:02:01.8     173    -63    147    185    236 110.2  42.7  34198  290.21 0855.18
2009/04/23 11:02:01.9     140     47     16    148    149  71.4   6.5  34198  290.23 0855.18
2009/04/23 11:02:02.0     103     71     97    126    159  55.4  41.4  34208  290.38 0855.18
2009/04/23 11:02:02.1     280     48     58    285    292  80.3  11.6  34204  290.31 0855.18
2009/04/23 11:02:02.2     311    117     91    333    346  69.4  15.3  34208  290.40 0855.18
2009/04/23 11:02:02.3     271     91    100    286    304  71.4  19.4  34198  290.22 0855.18
2009/04/23 11:02:02.4     260    168    104    310    328  57.1  18.6  34196  290.17 0855.18
2009/04/23 11:02:02.5     348    179    113    392    409  62.8  16.1  34196  290.17 0855.18
2009/04/23 11:02:02.6     291     73     39    300    303  75.9   7.5  34200  290.24 0855.20
2009/04/23 11:02:02.7     295   -100    118    312    333 108.8  21.8  34202  290.27 0855.20
2009/04/23 11:02:02.8     234    -95     54    253    259 112.2  12.1  34202  290.29 0855.20
2009/04/23 11:02:02.9     235   -111      8    260    261 115.3   1.8  34202  290.27 0855.20
2009/04/23 11:02:03.0     240    -43    -53    244    250 100.4 -12.4  34204  290.32 0855.20
2009/04/23 11:02:03.1     229     14     44    230    235  86.5  10.8  34234  290.83 0855.20
2009/04/23 11:02:03.2     172     -2    101    173    200  90.8  33.1  34232  290.81 0855.20
2009/04/23 11:02:03.3     216    -56    141    224    264 104.6  35.5  34216  290.53 0855.20
2009/04/23 11:02:03.4     108    -52     23    120    123 115.8  11.0  34216  290.52 0855.20
2009/04/23 11:02:03.5      95   -107     13    144    145 138.6   5.4  34196  290.19 0855.20
2009/04/23 11:02:03.6     190    -14    -95    191    213  94.3 -32.9  34260  291.28 0855.20
2009/04/23 11:02:03.7     181     41    -10    186    187  77.0  -3.1  34280  291.62 0855.20
2009/04/23 11:02:03.8      87     71    -34    113    118  50.9 -21.7  34280  291.62 0855.20
2009/04/23 11:02:03.9     179     64     84    191    208  70.3  25.1  34266  291.38 0855.20
2009/04/23 11:02:04.0     189    142    138    237    274  53.1  32.7  34268  291.39 0855.20
2009/04/23 11:02:04.1      38    211     81    215    229  10.2  21.5  34272  291.47 0855.20
2009/04/23 11:02:04.2      98    173      8    200    201  29.6   2.5  34248  291.06 0855.20
2009/04/23 11:02:04.4     102    176     73    204    216  30.1  20.4  34272  291.49 0855.20
2009/04/23 11:02:04.5     136    230     86    268    282  30.7  17.9  34270  291.43 0855.20
2009/04/23 11:02:04.6     122    154    105    197    223  38.3  30.6  34234  290.84 0855.20
2009/04/23 11:02:04.7     167     99     24    195    197  59.3   7.2  34224  290.67 0855.19
2009/04/23 11:02:04.8     148    117     51    189    196  51.6  15.3  34246  291.03 0855.19
2009/04/23 11:02:04.9     130    119      2    177    178  47.6   0.8  34224  290.67 0855.19
2009/04/23 11:02:05.0     -23    164     15    166    167 352.0   5.2  34246  291.04 0855.19
2009/04/23 11:02:05.1     -28    121     88    125    152 346.7  38.6  34250  291.11 0855.19
2009/04/23 11:02:05.2     -16     63    129     66    144 345.7  70.8  34272  291.49 0855.19
2009/04/23 11:02:05.3      35    117    125    123    175  16.9  49.9  34250  291.11 0855.19
2009/04/23 11:02:05.4      98    101     72    142    159  44.1  29.1  34214  290.50 0855.19
2009/04/23 11:02:05.5     234     35     44    237    242  81.4  10.6  34210  290.41 0855.19
2009/04/23 11:02:05.6     218     47     51    224    230  77.8  12.9  34218  290.57 0855.19
2009/04/23 11:02:05.7     145     44    103    152    183  73.1  37.3  34238  290.91 0855.19
2009/04/23 11:02:05.8     163     81    164    183    245  63.6  46.4  34278  291.59 0855.19
2009/04/23 11:02:05.9     237     84     57    252    259  70.3  12.9  34286  291.70 0855.19
2009/04/23 11:02:06.0     160     96     99    187    211  59.1  30.1  34290  291.79 0855.19
2009/04/23 11:02:06.1     109    138     63    177    187  38.3  20.2  34280  291.60 0855.19
2009/04/23 11:02:06.2     126     89     48    155    163  54.5  17.3  34264  291.35 0855.19
2009/04/23 11:02:06.3      84     17     48     86     98  78.5  31.4  34264  291.35 0855.19
2009/04/23 11:02:06.4      59     16     61     62     86  74.9  50.5  34274  291.52 0855.19
2009/04/23 11:02:06.5      26    -12     37     29     47 115.3  57.5  34272  291.47 0855.19
2009/04/23 11:02:06.6      56    -42    -10     70     71 126.9  -8.2  34266  291.37 0855.19
2009/04/23 11:02:06.7       5    -41      1     42     43 172.0   1.8  34280  291.62 0855.17
2009/04/23 11:02:06.8     -18    -30     49     36     60 210.7  60.5  34296  291.89 0855.17
2009/04/23 11:02:06.9       5    -40     44     41     60 172.0  52.1  34286  291.72 0855.17
2009/04/23 11:02:07.0       2    -21     78     22     81 173.8  83.9  34288  291.76 0855.17
2009/04/23 11:02:07.1     -10    -28     63     30     69 200.0  72.9  34286  291.71 0855.17
2009/04/23 11:02:07.2      -1     -8     81      9     81 189.7  90.0  34278  291.59 0855.17
2009/04/23 11:02:07.3      23    -32     74     40     84 143.9  68.8  34278  291.59 0855.17
2009/04/23 11:02:07.4     -21    -64     94     68    116 198.5  60.5  34268  291.42 0855.17
2009/04/23 11:02:07.5     -29    -60     72     67     98 206.3  52.2  34264  291.35 0855.17
2009/04/23 11:02:07.6     -44    -60     31     75     81 216.1  23.6  34270  291.45 0855.17
2009/04/23 11:02:07.7       1     82     49     83     96   0.9  34.0  34278  291.59 0855.17
2009/04/23 11:02:07.8     -39     83     32     92     98 334.5  19.4  34280  291.62 0855.17
2009/04/23 11:02:07.9     -44    106      5    116    117 337.3   2.9  34268  291.40 0855.17
2009/04/23 11:02:08.0     -70     73      2    102    103 315.9   1.2  34274  291.50 0855.17
2009/04/23 11:02:08.1     -40     14     15     43     46 289.1  19.4  34278  291.57 0855.17
2009/04/23 11:02:08.2     -24    -38     39     46     60 212.5  43.8  34282  291.64 0855.17
2009/04/23 11:02:08.3       5    -43     41     44     60 172.9  48.0  34284  291.67 0855.17
2009/04/23 11:02:08.4      24    -51     15     57     60 154.7  15.3  34286  291.71 0855.17
2009/04/23 11:02:08.5      74    -44     61     87    106 120.7  38.6  34276  291.54 0855.17
2009/04/23 11:02:08.6      90    -12     61     91    109  97.9  37.0  34240  290.92 0855.17
2009/04/23 11:02:08.7      81     15     92     83    123  79.4  52.7  34240  290.94 0855.16
2009/04/23 11:02:08.8     146     16     73    147    164  83.4  28.5  34242  290.96 0855.16
2009/04/23 11:02:08.9     125     -6    132    126    182  93.0  51.4  34266  291.37 0855.16
2009/04/23 11:02:09.0     102      0    119    103    157  90.0  54.6  34260  291.28 0855.16
2009/04/23 11:02:09.1      18     34    114     39    120  29.0  81.2  34282  291.64 0855.16
2009/04/23 11:02:09.2     -10     11     69     16     70 316.6  89.0  34286  291.71 0855.16
2009/04/23 11:02:09.3      -6    -26     89     27     93 193.4  82.3  34268  291.42 0855.16
2009/04/23 11:02:09.4       3    -80     66     81    104 177.3  43.7  34250  291.09 0855.16
2009/04/23 11:02:09.5      -9   -166     82    167    186 183.4  27.8  34262  291.30 0855.16
2009/04/23 11:02:09.6     -64   -154    132    167    212 202.7  42.2  34270  291.45 0855.16
2009/04/23 11:02:09.7     -27   -159    123    162    203 189.8  40.9  34242  290.96 0855.16
2009/04/23 11:02:09.8      -5   -172    149    173    228 181.8  45.1  34256  291.20 0855.16
2009/04/23 11:02:09.9     -14   -133    150    134    201 186.2  53.7  34270  291.45 0855.16
2009/04/23 11:02:10.0     -15   -112    136    114    177 188.0  55.8  34284  291.69 0855.16
2009/04/23 11:02:10.1     -21   -155    115    157    194 188.0  39.7  34240  290.94 0855.16
2009/04/23 11:02:10.2     -38   -143    115    149    188 195.1  41.7  34252  291.15 0855.16
2009/04/23 11:02:10.3     -24   -143    113    146    184 189.8  41.7  34248  291.06 0855.16
2009/04/23 11:02:10.4     -42   -161    102    167    195 194.9  34.2  34274  291.50 0855.16
2009/04/23 11:02:10.5     -59   -199     75    208    221 196.5  20.4  34294  291.86 0855.16
2009/04/23 11:02:10.6     -56   -167     28    177    180 198.5   9.0  34282  291.64 0855.16
2009/04/23 11:02:10.7     -21   -141     88    143    167 188.5  34.8  34294  291.86 0855.14
2009/04/23 11:02:10.8     -47   -140    120    148    190 198.7  43.7  34280  291.60 0855.14
2009/04/23 11:02:10.9     -43   -142    123    149    193 196.9  43.7  34254  291.16 0855.14
2009/04/23 11:02:11.0     -51   -171    114    179    212 196.7  35.5  34242  290.96 0855.14
2009/04/23 11:02:11.1     -50   -176     29    184    187 196.0   9.0  34244  291.01 0855.14
2009/04/23 11:02:11.2     -57   -146     42    157    163 201.4  15.0  34242  290.96 0855.14
2009/04/23 11:02:11.3     -21   -126    124    128    178 189.7  49.2  34224  290.65 0855.14
2009/04/23 11:02:11.4       0    -98    108     99    146 180.5  52.2  34234  290.84 0855.14
2009/04/23 11:02:11.5      30    -35     98     47    108 139.5  72.9  34270  291.43 0855.14
2009/04/23 11:02:11.6     103      0    118    104    157  90.0  54.0  34276  291.54 0855.14
2009/04/23 11:02:11.7      85      7     90     86    124  84.8  50.7  34260  291.28 0855.14
2009/04/23 11:02:11.8      61     40     93     73    118  56.7  57.9  34260  291.26 0855.14
2009/04/23 11:02:11.9      28     42     82     51     96  33.4  64.7  34260  291.26 0855.14
2009/04/23 11:02:12.0      10    -30     41     32     52 161.5  57.5  34260  291.26 0855.14
2009/04/23 11:02:12.1      23    -99     67    102    122 166.6  36.5  34258  291.25 0855.14
2009/04/23 11:02:12.2     -19   -141     66    143    157 188.0  26.4  34258  291.23 0855.14
2009/04/23 11:02:12.3       0   -145     92    146    172 180.0  35.5  34312  292.17 0855.14
2009/04/23 11:02:12.4      16   -207    129    208    244 175.5  34.8  34340  292.64 0855.14
2009/04/23 11:02:12.5     -26   -169    138    172    220 188.9  43.3  34358  292.95 0855.14
2009/04/23 11:02:12.6     -23   -204     48    206    212 186.5  13.2  34366  293.07 0855.14
2009/04/23 11:02:12.7     -45   -180     65    186    198 194.3  19.2  34342  292.68 0855.14
2009/04/23 11:02:12.8     -44   -189     58    195    204 193.1  16.8  34340  292.64 0855.14
2009/04/23 11:02:12.9       7   -207     79    208    222 178.0  21.7  34324  292.37 0855.14
2009/04/23 11:02:13.0     -29   -181     55    184    193 189.3  16.6  34324  292.37 0855.14
2009/04/23 11:02:13.1    -112   -244     83    269    282 204.7  17.3  34316  292.21 0855.14
2009/04/23 11:02:13.2     -89   -247     77    263    275 200.0  16.3  34340  292.64 0855.14
2009/04/23 11:02:13.3     -88   -226     75    243    255 201.4  17.3  34316  292.23 0855.14
2009/04/23 11:02:13.4      12   -190     87    191    209 176.2  26.4  34284  291.69 0855.14
2009/04/23 11:02:13.5     -15   -199     79    200    215 184.4  22.8  34306  292.05 0855.14
2009/04/23 11:02:13.6     -44   -222     61    227    236 191.3  15.2  34272  291.49 0855.14
2009/04/23 11:02:13.7     -47   -210      9    216    217 192.7   2.5  34274  291.52 0855.15
2009/04/23 11:02:13.8     -16   -216     58    217    225 184.4  15.0  34280  291.60 0855.15
2009/04/23 11:02:13.9     -70   -154     75    170    185 204.5  25.1  34302  291.98 0855.15
2009/04/23 11:02:14.0     -68   -171     50    185    192 201.8  15.2  34294  291.84 0855.15
2009/04/23 11:02:14.1     -49   -184     67    191    203 195.1  19.4  34290  291.79 0855.15
2009/04/23 11:02:14.2     -80   -237     57    251    258 198.7  12.9  34280  291.61 0855.15
2009/04/23 11:02:14.3     -22   -210     74    212    225 186.2  19.4  34262  291.30 0855.15
2009/04/23 11:02:14.4     -29   -212     79    215    229 188.0  21.0  34266  291.38 0855.15
2009/04/23 11:02:14.5       7   -177    116    178    212 177.5  35.7  34270  291.45 0855.15
2009/04/23 11:02:14.6     -25   -191    101    193    217 187.6  29.8  34282  291.64 0855.15
2009/04/23 11:02:14.7     -32   -187    109    190    219 189.8  32.4  34278  291.59 0855.15
2009/04/23 11:02:14.8     -16   -122    114    124    168 187.6  47.7  34268  291.40 0855.15
2009/04/23 11:02:14.9      -6    -74     74     75    105 185.3  50.5  34256  291.20 0855.15
2009/04/23 11:02:15.0      11    -95     80     96    124 173.3  43.8  34236  290.86 0855.15
2009/04/23 11:02:15.1     -27   -133     90    136    163 191.5  36.5  34256  291.20 0855.15
2009/04/23 11:02:15.2     -45   -133     77    141    160 198.7  31.0  34258  291.25 0855.15
2009/04/23 11:02:15.3     -48   -123     86    133    158 201.4  36.0  34258  291.25 0855.15
2009/04/23 11:02:15.4     -64   -139     96    154    181 204.9  35.2  34286  291.72 0855.15
2009/04/23 11:02:15.5     -76   -103     63    129    143 216.5  27.8  34300  291.95 0855.15
2009/04/23 11:02:15.6     -67    -67     39     95    102 225.0  23.1  34310  292.12 0855.15
2009/04/23 11:02:15.7     -11    -49     60     51     78 192.5  54.8  34290  291.77 0855.13
2009/04/23 11:02:15.8       7    -82     66     83    106 174.7  42.7  34260  291.26 0855.13
2009/04/23 11:02:15.9     -20    -87     83     90    122 192.9  47.9  34254  291.16 0855.13
2009/04/23 11:02:16.0      -4    -58     99     59    115 184.4  65.7  34258  291.23 0855.13
2009/04/23 11:02:16.1     -19    -74     94     77    121 195.1  56.4  34256  291.21 0855.13
2009/04/23 11:02:16.2     -31    -75     72     82    109 202.3  46.4  34248  291.08 0855.13
2009/04/23 11:02:16.3      15    -49     91     52    104 162.2  67.7  34272  291.49 0855.13
2009/04/23 11:02:16.4     -16    -78    104     80    131 191.6  58.5  34302  292.00 0855.13
2009/04/23 11:02:16.5      -8    -81    107     82    134 186.2  58.5  34296  291.89 0855.13
2009/04/23 11:02:16.6       0    -73     75     74    105 180.0  49.7  34284  291.69 0855.13
2009/04/23 11:02:16.7     -12    -73     90     75    117 189.8  56.3  34318  292.27 0855.13
2009/04/23 11:02:16.8     -36   -101    107    108    152 199.6  50.0  34332  292.49 0855.13
2009/04/23 11:02:16.9     -62   -111     84    128    153 209.0  35.6  34320  292.30 0855.13
2009/04/23 11:02:17.0     -64   -109     88    127    154 210.3  37.6  34298  291.93 0855.13
2009/04/23 11:02:17.1     -84   -105     56    135    146 218.7  23.1  34274  291.50 0855.13
2009/04/23 11:02:17.2     -77   -128     57    150    160 211.2  21.5  34286  291.71 0855.13
2009/04/23 11:02:17.3     -86   -128     89    155    178 213.8  32.4  34304  292.03 0855.13
2009/04/23 11:02:17.4     -83   -160     44    181    187 207.4  13.7  34282  291.66 0855.13
2009/04/23 11:02:17.5     -92   -166     43    190    195 209.0  12.9  34252  291.13 0855.13
2009/04/23 11:02:17.6     -84   -159     51    181    189 207.9  15.8  34246  291.04 0855.13
2009/04/23 11:02:17.7    -108   -188     97    217    237 209.9  25.7  34264  291.33 0855.15
2009/04/23 11:02:17.8     -54   -157    131    167    212 199.2  42.0  34242  290.98 0855.15
2009/04/23 11:02:17.9     -95   -120    126    154    198 218.3  43.7  34272  291.47 0855.15
2009/04/23 11:02:18.0     -34    -85    137     92    165 201.8  63.2  34250  291.11 0855.15
2009/04/23 11:02:18.1     -65   -125    146    142    203 207.6  50.4  34240  290.94 0855.15
2009/04/23 11:02:18.2     -15   -155    120    156    196 185.8  41.7  34238  290.89 0855.15
2009/04/23 11:02:18.3      -2   -134    164    135    212 180.9  56.4  34238  290.89 0855.15
2009/04/23 11:02:18.4     -27   -136    162    139    213 191.5  55.0  34238  290.91 0855.15
2009/04/23 11:02:18.5     -62   -148    153    161    222 202.7  48.5  34240  290.92 0855.15
2009/04/23 11:02:18.6    -123    -96     84    157    178 232.2  30.6  34256  291.21 0855.15
2009/04/23 11:02:18.7    -115   -115     19    163    165 225.1   6.9  34262  291.30 0855.15
2009/04/23 11:02:18.8    -123   -127     27    178    181 224.1   8.8  34264  291.35 0855.15
2009/04/23 11:02:18.9    -150   -181     51    236    242 219.7  12.4  34278  291.58 0855.15
2009/04/23 11:02:19.0    -129   -198     72    237    248 213.2  17.1  34292  291.80 0855.15
2009/04/23 11:02:19.1    -127   -197     65    235    245 213.0  15.6  34238  290.90 0855.15
2009/04/23 11:02:19.2    -100   -202     -8    226    227 206.3  -2.2  34210  290.41 0855.15
2009/04/23 11:02:19.3     -29   -220      4    222    223 187.6   1.2  34212  290.45 0855.15
2009/04/23 11:02:19.4    -102   -220     72    243    254 204.9  16.6  34216  290.53 0855.15
2009/04/23 11:02:19.5     -74   -162     58    179    189 204.7  18.1  34230  290.75 0855.15
2009/04/23 11:02:19.6     -52   -131    116    142    183 201.8  43.7  34248  291.06 0855.15
2009/04/23 11:02:19.7     -30   -120    142    124    188 194.3  54.3  34260  291.26 0855.15
2009/04/23 11:02:19.8     -29   -169    129    172    215 190.0  40.4  34254  291.16 0855.15
2009/04/23 11:02:19.9     -81   -247    165    261    308 198.3  35.5  34240  290.93 0855.15
2009/04/23 11:02:20.0     -85   -195    148    213    259 203.6  38.4  34232  290.80 0855.15
2009/04/23 11:02:20.1     -17   -208    101    209    232 184.7  27.3  34222  290.64 0855.15
2009/04/23 11:02:20.2      -9   -209     49    210    216 182.7  13.1  34242  290.96 0855.15
2009/04/23 11:02:20.3     -37   -221     80    225    238 189.6  20.2  34236  290.87 0855.15
2009/04/23 11:02:20.4      15   -215    107    216    241 176.0  28.2  34240  290.92 0855.15
2009/04/23 11:02:20.5      23   -215     98    217    238 173.8  25.9  34244  290.99 0855.15
2009/04/23 11:02:20.6      23   -192    101    194    218 173.1  29.5  34234  290.82 0855.15
2009/04/23 11:02:20.7      11   -172    135    173    219 176.2  42.0  34232  290.81 0855.15
2009/04/23 11:02:20.8      46   -207    133    213    251 167.5  35.5  34218  290.54 0855.15
2009/04/23 11:02:20.9      21   -208     79    210    224 174.2  21.3  34212  290.45 0855.15
2009/04/23 11:02:21.0      24   -189     79    191    206 172.7  23.8  34216  290.52 0855.15
2009/04/23 11:02:21.1       2   -183     85    184    202 179.1  26.4  34210  290.43 0855.15
2009/04/23 11:02:21.2      18   -190     94    191    212 174.4  28.0  34210  290.43 0855.15
2009/04/23 11:02:21.3      35   -209     73    213    226 170.3  18.9  34214  290.50 0855.15
2009/04/23 11:02:21.4      42   -206     83    211    226 168.4  23.0  34212  290.45 0855.15
2009/04/23 11:02:21.5      23   -221    138    223    262 174.0  35.0  34216  290.51 0855.15
2009/04/23 11:02:21.6     -49   -246     73    251    262 191.5  16.3  34212  290.46 0855.15
2009/04/23 11:02:21.7     -62   -214     74    223    235 196.3  18.4  34212  290.45 0855.16
2009/04/23 11:02:21.8     -46   -222     29    227    229 191.8   7.5  34208  290.38 0855.16
2009/04/23 11:02:21.9     -20   -201    -14    203    204 185.8  -4.1  34208  290.40 0855.16
2009/04/23 11:02:22.0      13   -227    -55    228    235 176.6 -13.7  34210  290.43 0855.16
2009/04/23 11:02:22.1     -14   -219    -25    220    222 183.8  -6.7  34212  290.45 0855.16
2009/04/23 11:02:22.2      -5   -213    -11    214    215 181.6  -3.1  34210  290.41 0855.16
2009/04/23 11:02:22.3     -24   -223     -8    225    226 186.2  -2.2  34210  290.43 0855.16
2009/04/23 11:02:22.4       0   -270     43    271    275 180.0   9.0  34214  290.48 0855.16
2009/04/23 11:02:22.5      15   -281      7    282    283 176.9   1.6  34212  290.44 0855.16
2009/04/23 11:02:22.6      11   -301     24    302    304 177.8   4.6  34210  290.41 0855.16
2009/04/23 11:02:22.7      85   -291     19    304    305 163.7   3.6  34208  290.37 0855.16
2009/04/23 11:02:22.8     135   -186     23    231    233 144.0   5.7  34208  290.40 0855.16
2009/04/23 11:02:22.9      70   -207     17    219    220 161.3   4.6  34206  290.36 0855.16
2009/04/23 11:02:23.0      62   -242     18    250    251 165.5   4.2  34206  290.36 0855.16
2009/04/23 11:02:23.1      32   -240    -31    243    245 172.2  -7.3  34218  290.56 0855.16
2009/04/23 11:02:23.2      57   -264      2    271    272 167.7   0.5  34220  290.58 0855.16
2009/04/23 11:02:23.3      84   -210     -5    227    228 158.2  -1.3  34214  290.50 0855.16
2009/04/23 11:02:23.4      98   -234    -17    254    255 157.2  -3.9  34216  290.51 0855.16
2009/04/23 11:02:23.5     115   -214     12    244    245 151.7   2.9  34214  290.49 0855.16
2009/04/23 11:02:23.6     -32   -292      4    294    295 186.3   0.8  34218  290.54 0855.16
2009/04/23 11:02:23.7     -33   -186     69    190    202 190.2  20.9  34212  290.45 0855.15
2009/04/23 11:02:23.8       6   -164     89    165    187 177.8  30.8  34216  290.53 0855.15
2009/04/23 11:02:23.9      41   -186     46    191    197 167.5  13.5  34216  290.53 0855.15
2009/04/23 11:02:24.0     -42   -158     53    164    173 195.1  17.9  34228  290.72 0855.15
2009/04/23 11:02:24.1     -74   -188     44    203    208 201.4  12.4  34220  290.60 0855.15
2009/04/23 11:02:24.2     -51   -187     82    195    211 195.4  24.1  34226  290.69 0855.15
2009/04/23 11:02:24.3     -22   -178     94    180    203 187.3  29.8  34222  290.64 0855.15
2009/04/23 11:02:24.4     -56   -211     34    219    222 194.9   9.0  34216  290.53 0855.15
2009/04/23 11:02:24.5     -60   -202     63    211    221 196.7  16.6  34218  290.55 0855.15
2009/04/23 11:02:24.6     -79   -212     28    227    229 200.5   7.2  34222  290.62 0855.15
2009/04/23 11:02:24.7     -49   -205     35    211    214 193.6   9.5  34222  290.62 0855.15
2009/04/23 11:02:24.8     -10   -217     38    218    222 182.7  10.1  34216  290.53 0855.15
2009/04/23 11:02:24.9     -35   -150      7    155    156 193.4   2.9  34214  290.48 0855.15
2009/04/23 11:02:25.0     -64   -175     19    187    189 200.3   6.1  34216  290.52 0855.15
2009/04/23 11:02:25.1     -67   -155     78    169    186 203.4  26.6  34220  290.58 0855.15
2009/04/23 11:02:25.2     -50   -112     29    123    127 204.1  13.2  34228  290.74 0855.15
2009/04/23 11:02:25.3     -49    -47     13     69     71 226.0  11.1  34230  290.77 0855.15
2009/04/23 11:02:25.4     -47   -100     -4    111    112 205.5  -2.2  34232  290.79 0855.15
2009/04/23 11:02:25.5     -51    -97    -22    110    113 208.1 -11.5  34230  290.77 0855.15
2009/04/23 11:02:25.6     -17    -62     15     65     67 195.2  13.2  34228  290.72 0855.15
2009/04/23 11:02:25.7     -16    -68     30     70     76 193.4  24.1  34220  290.60 0855.13
2009/04/23 11:02:25.8     -26    -80     14     85     87 197.8   9.5  34220  290.60 0855.13
2009/04/23 11:02:25.9     -17    -87     36     89     96 191.6  23.0  34220  290.58 0855.13
2009/04/23 11:02:26.0     -57   -102     50    118    128 209.4  24.6  34224  290.65 0855.13
2009/04/23 11:02:26.1     -24   -141     12    144    145 189.7   5.0  34216  290.52 0855.13
2009/04/23 11:02:26.2       9   -183     -5    184    185 177.1  -1.6  34226  290.69 0855.13
2009/04/23 11:02:26.3      18   -131    -42    133    140 172.0 -17.6  34226  290.69 0855.13
2009/04/23 11:02:26.4       5    -67     34     68     76 175.5  28.2  34230  290.75 0855.13
2009/04/23 11:02:26.5     -47    -91    125    103    161 207.6  56.1  34262  291.32 0855.13
2009/04/23 11:02:26.6     -40   -170    151    175    231 193.4  45.4  34262  291.30 0855.13
2009/04/23 11:02:26.7     -34   -149    148    153    212 192.9  49.4  34262  291.30 0855.13
2009/04/23 11:02:26.8     -73    -81    118    110    161 221.9  52.2  34266  291.38 0855.13
2009/04/23 11:02:26.9     -78    -83     39    114    121 223.2  19.2  34240  290.92 0855.13
2009/04/23 11:02:27.0     -40    -54     13     68     70 217.0  11.1  34258  291.25 0855.13
2009/04/23 11:02:27.1       9    -27     53     29     60 161.5  68.8  34276  291.54 0855.13
2009/04/23 11:02:27.2     -11    -47     36     49     60 193.4  39.7  34262  291.30 0855.13
2009/04/23 11:02:27.3       4    -57     28     58     64 175.6  27.3  34260  291.26 0855.13
2009/04/23 11:02:27.4      11    -58     24     60     64 168.5  23.0  34256  291.21 0855.13
2009/04/23 11:02:27.5     -30    -42     37     52     63 216.1  39.5  34266  291.37 0855.13
2009/04/23 11:02:27.6     -46     -3     43     47     63 265.6  47.9  34284  291.69 0855.13
2009/04/23 11:02:27.7     -48     27     54     56     77 299.8  51.1  34304  292.01 0855.10
2009/04/23 11:02:27.8     -68     23     57     73     92 289.1  42.7  34302  292.00 0855.10
2009/04/23 11:02:27.9     -63     80     49    102    113 321.7  27.2  34304  292.01 0855.10
2009/04/23 11:02:28.0     -18    103    119    105    158 349.8  53.7  34294  291.86 0855.10
2009/04/23 11:02:28.1     -73    123     92    144    170 329.2  35.6  34290  291.79 0855.10
2009/04/23 11:02:28.2    -103     36     63    110    126 289.5  32.4  34296  291.89 0855.10
2009/04/23 11:02:28.3     -92    -39     44    100    109 246.9  25.7  34288  291.74 0855.10
2009/04/23 11:02:28.4     -70    -68     43     98    107 226.0  24.6  34288  291.74 0855.10
2009/04/23 11:02:28.5     -33    -39     44     52     68 220.5  44.8  34292  291.81 0855.10
2009/04/23 11:02:28.6       0    -48     32     49     58 180.0  35.6  34290  291.79 0855.10
2009/04/23 11:02:28.7       3    -50     33     51     60 175.5  35.6  34290  291.79 0855.10
2009/04/23 11:02:28.8       5    -48     41     49     63 173.8  44.8  34292  291.83 0855.10
2009/04/23 11:02:28.9     -14    -50     38     53     65 196.0  39.5  34292  291.81 0855.10
2009/04/23 11:02:29.0     -17    -65     64     68     93 195.1  49.0  34286  291.72 0855.10
2009/04/23 11:02:29.1      -4    -72     84     73    111 183.6  54.8  34250  291.09 0855.10
2009/04/23 11:02:29.2      -5    -82     83     83    117 183.6  50.1  34248  291.06 0855.10
2009/04/23 11:02:29.3      31    -92     88     98    131 161.3  46.9  34244  290.99 0855.10
2009/04/23 11:02:29.4      31    -69     91     76    118 155.5  55.8  34240  290.94 0855.10
2009/04/23 11:02:29.5       0    -57     79     58     98 180.9  60.0  34246  291.04 0855.10
2009/04/23 11:02:29.6      -4    -56     63     57     84 184.4  52.7  34238  290.91 0855.10
2009/04/23 11:02:29.7      -1    -73     73     74    103 180.9  50.5  34240  290.94 0855.06
2009/04/23 11:02:29.8       0    -88     41     89     97 180.4  26.6  34228  290.74 0855.06
2009/04/23 11:02:29.9     -13    -76     19     78     81 189.8  14.3  34234  290.82 0855.06
2009/04/23 11:02:30.0     -16    -59     52     62     80 195.1  44.8  34238  290.89 0855.06
2009/04/23 11:02:30.1      -8    -40     56     41     69 191.6  60.5  34238  290.91 0855.06
2009/04/23 11:02:30.2      23    -11     39     26     46 115.3  63.6  34248  291.08 0855.06
2009/04/23 11:02:30.3      33    -23     32     41     52 124.2  42.7  34248  291.08 0855.06
2009/04/23 11:02:30.4       0    -48     17     49     53 180.0  19.4  34238  290.89 0855.06
2009/04/23 11:02:30.5      -2    -37      6     38     39 184.5  10.1  34242  290.98 0855.06
2009/04/23 11:02:30.6     -16    -13      7     22     24 230.5  19.2  34248  291.08 0855.06
2009/04/23 11:02:30.7     -22    -59     25     64     68 200.9  21.0  34250  291.11 0855.06
2009/04/23 11:02:30.8     -68    -63     26     93     97 227.3  15.8  34246  291.03 0855.06
2009/04/23 11:02:31.0     -55   -104     17    118    120 208.1   8.5  34244  291.01 0855.06
2009/04/23 11:02:31.1     -68   -133    -24    150    153 207.1  -9.3  34234  290.84 0855.06
2009/04/23 11:02:31.2     -79   -153      6    173    174 207.2   2.1  34228  290.74 0855.06
2009/04/23 11:02:31.3     -59   -192    -41    202    207 197.2 -11.6  34216  290.52 0855.06
2009/04/23 11:02:31.4     -58   -174    -55    184    193 198.5 -16.8  34212  290.45 0855.06
2009/04/23 11:02:31.5     -85   -196    -64    214    224 203.6 -16.6  34216  290.52 0855.06
2009/04/23 11:02:31.6    -102   -157    -61    188    197 213.2 -23.0  34234  290.82 0855.06
2009/04/23 11:02:31.7     -73   -133    -76    152    169 208.9 -32.9  34232  290.81 0855.06
2009/04/23 11:02:31.8     -90   -144    -63    171    182 212.1 -25.4  34230  290.77 0855.06
2009/04/23 11:02:31.9     -40   -179    -80    184    200 192.7 -29.5  34220  290.60 0855.06
2009/04/23 11:02:32.0     -34   -147    -70    152    167 193.3 -31.0  34220  290.60 0855.06
2009/04/23 11:02:32.1     -16   -139    -85    140    163 186.7 -38.6  34218  290.57 0855.06
2009/04/23 11:02:32.2     -64   -141    -99    155    183 204.5 -40.0  34222  290.62 0855.06
2009/04/23 11:02:32.3      14   -140    -15    141    142 174.2  -6.2  34224  290.67 0855.06
2009/04/23 11:02:32.4     -56   -114    -44    128    136 206.3 -19.1  34266  291.38 0855.06
2009/04/23 11:02:32.5     -40   -150    -54    156    165 195.1 -23.8  34256  291.21 0855.06
2009/04/23 11:02:32.6     -62   -151    -46    164    170 202.3 -20.4  34240  290.94 0855.06
2009/04/23 11:02:32.7     -23   -205   -119    207    238 186.5 -36.8  34248  291.08 0855.06
2009/04/23 11:02:32.8     -18   -196    -60    197    205 185.3 -21.8  34250  291.09 0855.06
2009/04/23 11:02:32.9       0   -199    -67    200    210 180.0 -23.6  34254  291.16 0855.06
2009/04/23 11:02:33.0     -45   -228     30    233    235 191.3   7.5  34244  291.00 0855.06
2009/04/23 11:02:33.1     -55   -171    -24    180    182 197.8  -7.7  34250  291.11 0855.06
2009/04/23 11:02:33.2     -54   -188    -35    196    200 196.0 -10.3  34244  290.99 0855.06
2009/04/23 11:02:33.3     -15   -160      0    161    162 185.6   0.2  34248  291.06 0855.06
2009/04/23 11:02:33.4      27   -150     14    153    154 169.8   5.4  34228  290.72 0855.06
2009/04/23 11:02:33.5      42   -170      0    176    177 166.0  -0.3  34224  290.67 0855.06
2009/04/23 11:02:33.6      66   -167     -8    180    181 158.2  -2.6  34222  290.62 0855.06
2009/04/23 11:02:33.7      76   -158    -24    176    178 154.4  -8.0  34226  290.69 0855.06
2009/04/23 11:02:33.8      91   -145    -20    172    174 147.7  -6.9  34224  290.65 0855.07
2009/04/23 11:02:33.9      88   -128     -3    156    157 145.3  -1.1  34220  290.58 0855.07
2009/04/23 11:02:34.0      75   -118      6    141    142 147.5   2.8  34220  290.60 0855.07
2009/04/23 11:02:34.1      78   -103      4    130    131 142.6   1.8  34220  290.58 0855.07
2009/04/23 11:02:34.2      84    -81      0    117    118 134.0   0.2  34220  290.60 0855.07
2009/04/23 11:02:34.3      72    -88     17    114    116 140.8   8.5  34222  290.64 0855.07
2009/04/23 11:02:34.4      83    -83     41    118    126 135.0  19.4  34222  290.62 0855.07
2009/04/23 11:02:34.5      75    -70     36    103    110 133.1  19.4  34224  290.67 0855.07
2009/04/23 11:02:34.6      82    -43     17     93     95 118.0  10.6  34226  290.70 0855.07
2009/04/23 11:02:34.7      91    -42     44    101    110 114.8  25.1  34226  290.69 0855.07
2009/04/23 11:02:34.8      76    -43     52     88    102 119.8  33.5  34226  290.69 0855.08
2009/04/23 11:02:34.9      77    -41     80     88    118 118.4  47.5  34230  290.77 0855.08
2009/04/23 11:02:35.0      64    -40     74     76    106 122.4  50.0  34234  290.82 0855.08
2009/04/23 11:02:35.1      63    -41     72     76    104 123.3  49.0  34236  290.87 0855.08
2009/04/23 11:02:35.2      56    -63     68     85    108 138.1  43.7  34236  290.86 0855.08
2009/04/23 11:02:35.3      89    -32     78     95    122 110.0  43.7  34228  290.74 0855.08
2009/04/23 11:02:35.4      14    -61     62     63     88 166.6  50.5  34232  290.81 0855.08
2009/04/23 11:02:35.5     -27   -111     68    115    133 193.8  33.5  34228  290.74 0855.08
2009/04/23 11:02:35.6     -12   -123     97    124    157 185.8  42.2  34232  290.79 0855.08
2009/04/23 11:02:35.7      20   -103     77    106    131 168.9  39.7  34228  290.72 0855.08
2009/04/23 11:02:35.8      31    -92     74     98    122 161.3  41.2  34232  290.81 0855.08
2009/04/23 11:02:35.9      12   -113     60    114    128 173.8  29.8  34224  290.67 0855.08
2009/04/23 11:02:36.0      22   -122     56    124    136 169.8  26.2  34218  290.57 0855.08
2009/04/23 11:02:36.1      50   -106     56    118    130 154.6  27.2  34222  290.62 0855.08
2009/04/23 11:02:36.2      34   -103     53    109    121 161.3  27.8  34222  290.64 0855.08
2009/04/23 11:02:36.3       8   -115     52    116    127 175.6  25.7  34230  290.77 0855.08
2009/04/23 11:02:36.4     -18   -112     63    114    130 189.3  31.4  34230  290.75 0855.08
2009/04/23 11:02:36.5       0   -100     54    101    114 180.0  30.8  34226  290.69 0855.08
2009/04/23 11:02:36.6       9   -127     55    128    139 175.5  24.6  34224  290.67 0855.08
2009/04/23 11:02:36.7      13   -112     60    113    127 172.9  29.8  34228  290.72 0855.08
2009/04/23 11:02:36.8      38    -93     72    101    124 157.7  39.1  34230  290.75 0855.10
2009/04/23 11:02:36.9      49   -109     81    120    144 155.5  37.0  34222  290.64 0855.10
2009/04/23 11:02:37.0      18   -120     73    122    142 171.1  33.5  34220  290.60 0855.10
2009/04/23 11:02:37.1      33   -134     73    139    157 166.2  29.8  34222  290.62 0855.10
2009/04/23 11:02:37.2      31   -137     65    141    155 167.1  27.1  34224  290.67 0855.10
2009/04/23 11:02:37.3      -9   -126     79    127    149 184.4  35.5  34274  291.52 0855.10
2009/04/23 11:02:37.4     -21   -126     86    128    154 189.8  37.0  34264  291.35 0855.10
2009/04/23 11:02:37.5     -15   -103     76    105    129 188.5  39.7  34240  290.94 0855.10
2009/04/23 11:02:37.6     -12    -84     97     85    128 188.5  54.3  34228  290.72 0855.10
2009/04/23 11:02:37.7     -25    -88     86     92    125 196.0  48.0  34236  290.87 0855.10
2009/04/23 11:02:37.8     -25    -88     59     92    109 196.0  35.6  34256  291.20 0855.10
2009/04/23 11:02:37.9      -1    -86     67     87    109 180.9  41.7  34242  290.96 0855.10
2009/04/23 11:02:38.0     -28   -107     57    111    124 194.7  29.3  34258  291.25 0855.10
2009/04/23 11:02:38.1      -1    -98     65     99    118 180.9  36.5  34244  290.99 0855.10
2009/04/23 11:02:38.2       7   -117     38    118    125 176.4  17.9  34232  290.81 0855.10
2009/04/23 11:02:38.3      33   -134     54    139    149 166.2  22.5  34222  290.62 0855.10
2009/04/23 11:02:38.4      10   -136     41    137    144 175.5  16.8  34220  290.58 0855.10
2009/04/23 11:02:38.5      38   -148     28    153    156 165.3  10.6  34222  290.62 0855.10
2009/04/23 11:02:38.6      19   -124     44    126    134 171.1  19.4  34224  290.65 0855.10
2009/04/23 11:02:38.7      12   -118     49    119    128 174.2  23.6  34224  290.67 0855.10
2009/04/23 11:02:38.8      28   -117     63    121    136 166.6  29.3  34226  290.70 0855.12
2009/04/23 11:02:38.9      51   -109     59    121    134 155.1  27.8  34228  290.72 0855.12
2009/04/23 11:02:39.0      44   -132     49    140    149 161.3  19.4  34224  290.67 0855.12
2009/04/23 11:02:39.1      46   -144     29    152    155 162.2  11.0  34222  290.62 0855.12
2009/04/23 11:02:39.2      48   -146     24    154    156 161.7   9.0  34224  290.65 0855.12
2009/04/23 11:02:39.3      48   -147     30    155    159 161.7  11.1  34232  290.79 0855.12
2009/04/23 11:02:39.4      18   -148     23    150    152 172.9   9.0  34240  290.92 0855.12
2009/04/23 11:02:39.5      29   -144     41    147    153 168.5  15.8  34228  290.72 0855.12
2009/04/23 11:02:39.6      26   -128     48    131    139 168.4  20.9  34224  290.67 0855.12
2009/04/23 11:02:39.7      -2   -120     38    121    127 181.4  17.4  34230  290.75 0855.12
2009/04/23 11:02:39.8      -7   -130     -5    131    132 183.1  -2.2  34240  290.92 0855.12
2009/04/23 11:02:39.9      -5   -123     -8    124    125 182.7  -4.1  34254  291.18 0855.12
2009/04/23 11:02:40.0       9   -119     21    120    122 175.6  10.1  34240  290.92 0855.12
2009/04/23 11:02:40.1       6   -159     57    160    169 177.8  20.0  34226  290.69 0855.12
2009/04/23 11:02:40.2      15   -176     53    177    185 174.9  16.8  34232  290.79 0855.12
2009/04/23 11:02:40.3      22   -173     55    175    184 172.7  17.7  34236  290.86 0855.12
2009/04/23 11:02:40.4      -6   -164     21    165    167 182.2   7.5  34230  290.77 0855.12
2009/04/23 11:02:40.5     -36   -154     -8    159    160 193.4  -3.1  34252  291.13 0855.12
2009/04/23 11:02:40.6      -5   -139      8    140    141 182.2   3.3  34246  291.03 0855.12
2009/04/23 11:02:40.7     -22   -129    -20    131    133 189.7  -8.8  34242  290.96 0855.12
2009/04/23 11:02:40.8    -107    -85    -39    137    142 231.4 -20.7  34260  291.26 0855.12
2009/04/23 11:02:40.9     -81    -42    -53     92    106 242.5 -36.8  34236  290.87 0855.12
2009/04/23 11:02:41.0     -51    -80    -22     96     99 212.5 -13.4  34246  291.04 0855.12
2009/04/23 11:02:41.1     -92    -66    -43    114    121 234.0 -25.4  34266  291.38 0855.12
2009/04/23 11:02:41.2     -33    -52     12     62     64 212.5  11.1  34258  291.25 0855.12
2009/04/23 11:02:41.3      12    -72    108     74    130 170.2  62.6  34258  291.25 0855.12
2009/04/23 11:02:41.4     -73    -57     64     93    112 232.2  38.0  34256  291.21 0855.12
2009/04/23 11:02:41.5     -86    -71     73    112    133 230.5  35.6  34292  291.81 0855.12
2009/04/23 11:02:41.6     -65    -24     74     70    101 249.2  51.6  34274  291.52 0855.12
2009/04/23 11:02:41.7     -65    -30     28     72     77 244.7  22.0  34268  291.40 0855.12
2009/04/23 11:02:41.8      25    -25     28     36     45 135.0  41.7  34270  291.45 0855.12
2009/04/23 11:02:41.9      26    -26     43     37     56 135.0  54.3  34268  291.40 0855.12
2009/04/23 11:02:42.0      47    -30     43     56     70 122.5  41.7  34244  290.99 0855.12
2009/04/23 11:02:42.1      37    -70     26     80     85 151.9  18.4  34248  291.08 0855.12
2009/04/23 11:02:42.2      60    -49     58     78     97 129.5  40.7  34240  290.92 0855.12
2009/04/23 11:02:42.3      76    -37     62     85    105 116.2  39.7  34242  290.98 0855.12
2009/04/23 11:02:42.4      76    -37     63     85    105 116.2  40.1  34252  291.13 0855.12
2009/04/23 11:02:42.5      75    -35     82     83    116 115.3  50.5  34256  291.21 0855.12
2009/04/23 11:02:42.6      62    -45     79     77    110 126.0  50.7  34270  291.43 0855.12
2009/04/23 11:02:42.7      70    -70     65    100    119 135.0  36.0  34256  291.21 0855.12
2009/04/23 11:02:42.8      55    -55     55     79     96 134.9  38.0  34268  291.42 0855.11
2009/04/23 11:02:42.9      45    -48     65     67     93 136.8  50.0  34294  291.86 0855.11
2009/04/23 11:02:43.0      36    -81     57     89    105 155.9  35.6  34272  291.47 0855.11
2009/04/23 11:02:43.1      42    -60     41     74     84 144.8  31.9  34264  291.33 0855.11
2009/04/23 11:02:43.2      35    -74     29     83     89 154.6  19.4  34232  290.79 0855.11
2009/04/23 11:02:43.3      20    -68     48     72     86 163.1  36.5  34230  290.77 0855.11
2009/04/23 11:02:43.4      21    -67     54     71     89 162.2  41.2  34236  290.86 0855.11
2009/04/23 11:02:43.5      20    -67     33     71     78 163.1  26.6  34232  290.79 0855.11
2009/04/23 11:02:43.6      16    -72     31     74     80 167.5  24.1  34230  290.75 0855.11
2009/04/23 11:02:43.7      12    -63     33     65     72 168.5  28.2  34232  290.79 0855.11
2009/04/23 11:02:43.8      18    -69     46     72     85 164.9  35.6  34234  290.82 0855.11
2009/04/23 11:02:43.9       1    -59     37     60     70 178.2  35.5  34234  290.82 0855.11
2009/04/23 11:02:44.0       5    -54     37     55     66 174.7  36.5  34234  290.82 0855.11
2009/04/23 11:02:44.1      -1    -57     38     58     69 181.8  35.6  34234  290.84 0855.11
2009/04/23 11:02:44.2      -1    -51     31     52     60 181.8  33.5  34232  290.81 0855.11
2009/04/23 11:02:44.3      -7    -50     28     51     58 188.9  31.4  34232  290.79 0855.11
2009/04/23 11:02:44.4     -17    -51     24     54     59 198.7  25.1  34230  290.77 0855.11
2009/04/23 11:02:44.5     -13    -71     40     73     83 190.7  30.8  34230  290.75 0855.11
2009/04/23 11:02:44.6     -24    -81     57     85    102 196.9  37.0  34228  290.74 0855.11
2009/04/23 11:02:44.7     -41   -104     54    113    125 201.8  27.2  34226  290.70 0855.11
2009/04/23 11:02:44.8     -53   -112     51    125    135 205.4  23.1  34222  290.62 0855.11
2009/04/23 11:02:44.9     -54   -114     43    127    135 205.3  18.9  34220  290.60 0855.11
2009/04/23 11:02:45.0     -55   -138     66    149    162 201.8  25.1  34218  290.55 0855.11
2009/04/23 11:02:45.1     -80   -147     79    168    185 208.7  27.1  34222  290.62 0855.11
2009/04/23 11:02:45.2     -68   -169     62    183    194 201.9  18.9  34222  290.62 0855.11
2009/04/23 11:02:45.3     -67   -173     26    186    188 201.2   8.0  34216  290.53 0855.11
2009/04/23 11:02:45.4     -17   -183      3    184    185 185.6   1.0  34216  290.52 0855.11
2009/04/23 11:02:45.5       0   -151    -39    152    157 180.4 -14.5  34218  290.57 0855.11
2009/04/23 11:02:45.6     -55   -126    -25    138    141 203.7 -10.3  34218  290.57 0855.11
2009/04/23 11:02:45.7     -71   -134     -8    152    153 208.1  -3.2  34218  290.57 0855.11
2009/04/23 11:02:45.8     -49   -136     -7    145    146 200.0  -3.1  34218  290.55 0855.11
2009/04/23 11:02:45.9     -45   -112    -16    121    123 201.9  -7.7  34216  290.52 0855.11
2009/04/23 11:02:46.0     -26   -110      9    114    115 193.4   4.9  34220  290.60 0855.11
2009/04/23 11:02:46.1      -5   -120     -9    121    122 182.6  -4.6  34216  290.53 0855.11
2009/04/23 11:02:46.2       1   -105      5    106    107 179.0   2.9  34216  290.52 0855.11
2009/04/23 11:02:46.3     -28   -104      5    108    109 195.2   2.9  34218  290.57 0855.11
2009/04/23 11:02:46.4     -13   -119     -6    120    121 186.3  -3.1  34220  290.58 0855.11
2009/04/23 11:02:46.5      -6   -104    -18    105    107 183.6  -9.8  34216  290.53 0855.11
2009/04/23 11:02:46.6       9    -98      0     99    100 174.2   0.2  34216  290.53 0855.11
2009/04/23 11:02:46.7      -2    -87     35     88     94 181.4  22.0  34216  290.53 0855.11
2009/04/23 11:02:46.8      24    -71     14     76     78 161.3  11.0  34212  290.45 0855.12
2009/04/23 11:02:46.9     -16   -131     21    133    135 187.1   9.0  34212  290.47 0855.12
2009/04/23 11:02:47.0      -2   -149     60    150    161 181.0  23.0  34212  290.47 0855.12
2009/04/23 11:02:47.1     -38   -172     46    177    183 192.5  14.7  34210  290.43 0855.12
2009/04/23 11:02:47.2     -69   -173     40    187    192 201.9  12.2  34216  290.53 0855.12
2009/04/23 11:02:47.3     -52   -188     46    196    202 195.6  13.2  34214  290.50 0855.12
2009/04/23 11:02:47.4     -58   -209     57    217    225 195.6  14.7  34214  290.48 0855.12
2009/04/23 11:02:47.5     -44   -215     72    220    232 191.6  18.1  34214  290.48 0855.12
2009/04/23 11:02:47.6     -22   -205     49    207    213 186.3  13.5  34212  290.47 0855.12
2009/04/23 11:02:47.7     -31   -191     24    194    196 189.3   7.2  34212  290.47 0855.12
2009/04/23 11:02:47.8     -28   -195     61    198    208 188.2  17.1  34210  290.43 0855.12
2009/04/23 11:02:47.9      -8   -158     78    159    177 183.1  27.8  34214  290.50 0855.12
2009/04/23 11:02:48.0     -14   -133     74    134    153 186.2  31.4  34214  290.50 0855.12
2009/04/23 11:02:48.1     -46   -119     50    128    137 201.4  23.0  34220  290.58 0855.12
2009/04/23 11:02:48.2     -47    -94     10    106    107 206.7   5.4  34216  290.52 0855.12
2009/04/23 11:02:48.3     -33   -102     13    108    109 198.3   6.9  34216  290.52 0855.12
2009/04/23 11:02:48.4     -43   -157     61    163    174 195.4  21.3  34216  290.52 0855.12
2009/04/23 11:02:48.5     -45   -157     59    164    174 196.0  20.2  34218  290.57 0855.12
2009/04/23 11:02:48.6     -39   -168     48    173    180 193.1  15.6  34220  290.60 0855.12
2009/04/23 11:02:48.7     -41   -154     63    160    171 195.1  22.5  34222  290.62 0855.12
2009/04/23 11:02:48.8     -54   -136     23    147    149 201.8   9.0  34224  290.65 0855.15
2009/04/23 11:02:48.9     -31   -155     -6    159    160 191.6  -2.2  34218  290.55 0855.15
2009/04/23 11:02:49.0     -69   -172     22    186    188 202.1   6.9  34228  290.72 0855.15
2009/04/23 11:02:49.1    -103   -188     12    215    216 208.7   3.3  34218  290.57 0855.15
2009/04/23 11:02:49.2     -94   -170     -7    195    196 209.0  -2.2  34224  290.65 0855.15
2009/04/23 11:02:49.3     -71   -121    -44    141    148 210.7 -17.5  34224  290.67 0855.15
2009/04/23 11:02:49.4     -64   -127     48    143    151 206.7  18.6  34228  290.72 0855.15
2009/04/23 11:02:49.5     -42   -178     53    183    191 193.4  16.3  34222  290.62 0855.15
2009/04/23 11:02:49.6     -91   -168      9    192    193 208.5   2.8  34222  290.62 0855.15
2009/04/23 11:02:49.7    -112   -143     28    182    185 218.1   9.0  34224  290.65 0855.15
2009/04/23 11:02:49.8    -130   -132     -7    186    187 224.5  -2.2  34228  290.72 0855.15
2009/04/23 11:02:49.9    -141   -125    -56    189    198 228.4 -16.6  34234  290.84 0855.15
2009/04/23 11:02:50.0    -111    -93    -40    145    151 230.0 -15.5  34230  290.75 0855.15
2009/04/23 11:02:50.1     -87    -62    -63    108    125 234.5 -37.8  34226  290.69 0855.15
2009/04/23 11:02:50.2     -52    -73    -73     90    115 215.6 -48.1  34226  290.69 0855.15
2009/04/23 11:02:50.3     -76    -84    -33    114    118 222.3 -20.7  34224  290.67 0855.15
2009/04/23 11:02:50.4     -60    -77    -30     98    103 217.8 -17.0  34220  290.60 0855.15
2009/04/23 11:02:50.5     -73    -40      4     84     85 241.2   2.9  34226  290.70 0855.15
2009/04/23 11:02:50.6      20    -62     85     66    107 161.5  57.9  34226  290.70 0855.15
2009/04/23 11:02:50.7      -5    -75    140     76    159 184.4  69.3  34232  290.81 0855.15
2009/04/23 11:02:50.8       0      5    107      6    107 355.5  90.0  34244  290.99 0855.15
2009/04/23 11:02:50.9     -36    -20    129     42    135 241.1  80.7  34244  291.01 0855.15
2009/04/23 11:02:51.0     -26     22     88     35     94 309.6  78.2  34254  291.16 0855.15
2009/04/23 11:02:51.1     -30     27     99     41    107 312.2  77.0  34258  291.25 0855.15
2009/04/23 11:02:51.2      -8     41     93     42    102 348.4  74.5  34252  291.15 0855.15
2009/04/23 11:02:51.3      24     52     85     58    102  25.3  62.6  34242  290.98 0855.15
2009/04/23 11:02:51.4      50     11     80     52     95  77.6  64.6  34244  290.99 0855.15
2009/04/23 11:02:51.5      60     17    107     63    124  74.1  66.8  34238  290.91 0855.15
2009/04/23 11:02:51.6      84     15     93     86    126  79.9  52.2  34232  290.79 0855.15
2009/04/23 11:02:51.7      55     -8     92     56    107  98.8  65.1  34246  291.03 0855.15
2009/04/23 11:02:51.8      46      3    100     47    110  85.6  73.1  34246  291.04 0855.15
2009/04/23 11:02:51.9      50      0     76     51     91  90.0  63.2  34256  291.20 0855.15
2009/04/23 11:02:52.0      21      7     70     23     73  70.0  80.7  34262  291.32 0855.15
2009/04/23 11:02:52.1       2     26     56     27     62   6.2  72.9  34268  291.42 0855.15
2009/04/23 11:02:52.2      -1     36     33     37     49 357.4  46.9  34264  291.35 0855.15
2009/04/23 11:02:52.3      -3     39     51     40     64 355.5  58.5  34262  291.30 0855.15
2009/04/23 11:02:52.4       9     29     77     31     83  18.7  77.1  34274  291.50 0855.15
2009/04/23 11:02:52.5      31     19     59     37     69  57.6  64.7  34278  291.57 0855.15
2009/04/23 11:02:52.6       6    -16     56     18     58 158.2  80.7  34282  291.64 0855.15
2009/04/23 11:02:52.7       7    -32     43     33     54 166.6  58.5  34278  291.59 0855.15
2009/04/23 11:02:52.8      13      0     21     14     25  89.2  64.6  34274  291.52 0855.16
2009/04/23 11:02:52.9      41      0     34     42     54  90.8  43.7  34272  291.47 0855.16
2009/04/23 11:02:53.0      55    -29     54     63     82 118.0  45.4  34254  291.18 0855.16
2009/04/23 11:02:53.1      72    -27     69     78    104 110.8  46.9  34240  290.94 0855.16
2009/04/23 11:02:53.2      96    -18     62     98    115 100.6  35.5  34240  290.92 0855.16
2009/04/23 11:02:53.3      73      5     77     74    106  85.6  51.2  34244  290.99 0855.16
2009/04/23 11:02:53.4      78     -6     76     79    109  94.4  49.0  34232  290.81 0855.16
2009/04/23 11:02:53.5      56    -19     56     60     82 108.6  48.5  34232  290.79 0855.16
2009/04/23 11:02:53.6      70    -18     75     73    104 105.1  50.1  34226  290.70 0855.16
2009/04/23 11:02:53.7      70    -31     80     77    111 114.4  51.2  34232  290.81 0855.16
2009/04/23 11:02:53.8      58    -48     64     76     99 129.5  44.3  34230  290.77 0855.16
2009/04/23 11:02:53.9      76     -5     42     77     87  94.4  30.8  34220  290.60 0855.16
2009/04/23 11:02:54.0      61      4     33     62     70  85.7  30.3  34224  290.67 0855.16
2009/04/23 11:02:54.1      38      2     59     39     70  85.6  64.6  34228  290.74 0855.16
2009/04/23 11:02:54.2      27    -17     67     33     74 122.4  72.8  34236  290.86 0855.16
2009/04/23 11:02:54.3      54     12     63     56     84  77.6  53.3  34236  290.87 0855.16
2009/04/23 11:02:54.4      72    -34     53     80     95 115.2  36.0  34226  290.70 0855.16
2009/04/23 11:02:54.5      55    -24     60     61     85 113.5  50.5  34234  290.84 0855.16
2009/04/23 11:02:54.6     -12     12     61     18     63 315.0  82.8  34242  290.96 0855.16
2009/04/23 11:02:54.7     -32     23     29     40     49 306.0  39.7  34244  290.99 0855.16
2009/04/23 11:02:54.8     -34     31     33     47     57 312.2  38.6  34240  290.94 0855.16
2009/04/23 11:02:54.9     -19     23     22     30     37 320.4  39.7  34240  290.94 0855.16
2009/04/23 11:02:55.0      -7     36     32     37     48 348.4  46.9  34260  291.28 0855.16
2009/04/23 11:02:55.1       1     15     39     16     42   4.4  77.1  34260  291.28 0855.16
2009/04/23 11:02:55.2       7      6     49     10     50  46.9  89.1  34254  291.18 0855.16
2009/04/23 11:02:55.3      33    -11     33     35     48 108.4  50.0  34240  290.94 0855.16
2009/04/23 11:02:55.4      17    -11     49     21     53 122.5  76.1  34238  290.91 0855.16
2009/04/23 11:02:55.5       5    -21     53     22     57 166.6  77.1  34246  291.04 0855.16
2009/04/23 11:02:55.6     -16     -1     55     17     57 265.7  80.7  34256  291.20 0855.16
2009/04/23 11:02:55.7     -21      3     48     22     52 279.7  73.1  34258  291.25 0855.16
2009/04/23 11:02:55.8      -2     -3     38      4     38 212.5  90.0  34264  291.33 0855.16
2009/04/23 11:02:55.9      -1    -34     37     35     50 182.6  51.2  34250  291.09 0855.16
2009/04/23 11:02:56.0      -4    -27     46     28     53 189.8  64.7  34254  291.16 0855.16
2009/04/23 11:02:56.1     -25     -8     46     27     53 251.4  66.8  34260  291.26 0855.16
2009/04/23 11:02:56.2     -13    -50     57     52     77 195.1  52.2  34238  290.89 0855.16
2009/04/23 11:02:56.3      -4    -61     76     62     98 184.5  56.4  34220  290.58 0855.16
2009/04/23 11:02:56.4     -16    -78     64     80    102 191.6  43.3  34220  290.58 0855.16
2009/04/23 11:02:56.5     -28    -85     47     90    101 198.7  29.8  34228  290.74 0855.16
2009/04/23 11:02:56.6     -38    -74     37     84     91 207.6  25.1  34224  290.67 0855.16
2009/04/23 11:02:56.7     -35    -68     24     77     81 207.2  17.3  34222  290.62 0855.16
2009/04/23 11:02:56.8     -49    -90      1    103    104 209.0   0.8  34216  290.53 0855.16
2009/04/23 11:02:56.9     -41    -91     -1    100    101 204.5  -0.7  34220  290.58 0855.16
2009/04/23 11:02:57.0     -16    -50     -2     53     54 198.7  -2.2  34220  290.60 0855.16
2009/04/23 11:02:57.1     -27    -39     54     48     72 215.2  53.3  34216  290.53 0855.16
2009/04/23 11:02:57.2     -25    -64     46     69     82 201.8  37.0  34220  290.60 0855.16
2009/04/23 11:02:57.3     -47    -64     70     80    106 216.1  46.4  34224  290.67 0855.16
2009/04/23 11:02:57.4     -68    -69     71     98    121 224.7  39.7  34226  290.69 0855.16
2009/04/23 11:02:57.5     -88    -60     55    107    120 235.4  29.3  34226  290.69 0855.16
2009/04/23 11:02:57.6     -86    -46     51     98    110 241.6  29.3  34230  290.77 0855.16
2009/04/23 11:02:57.7    -106    -58     45    122    130 241.2  20.9  34232  290.79 0855.16
2009/04/23 11:02:57.8    -112    -71     73    133    151 237.6  31.3  34238  290.89 0855.16
2009/04/23 11:02:57.9    -129    -67     50    146    155 242.5  18.9  34240  290.94 0855.16
2009/04/23 11:02:58.0    -125    -68     57    143    153 241.2  23.0  34250  291.11 0855.16
2009/04/23 11:02:58.1    -124    -61     71    139    156 243.8  29.1  34244  290.99 0855.16
2009/04/23 11:02:58.2    -120    -66     82    138    160 241.1  33.5  34242  290.98 0855.16
2009/04/23 11:02:58.3     -93    -61     88    112    142 236.7  42.2  34238  290.91 0855.16
2009/04/23 11:02:58.4     -65    -65     87     92    126 225.0  48.5  34228  290.72 0855.16
2009/04/23 11:02:58.5     -46    -47    110     66    128 224.2  66.2  34234  290.84 0855.16
2009/04/23 11:02:58.6     -44    -61    110     76    133 216.1  62.6  34236  290.87 0855.16
2009/04/23 11:02:58.8     -81    -59    105    101    145 234.0  51.2  34266  291.37 0855.16
2009/04/23 11:02:58.9     -81    -40     92     91    129 243.8  50.1  34282  291.64 0855.16
2009/04/23 11:02:59.0     -74    -57     93     94    132 232.2  50.0  34250  291.11 0855.16
2009/04/23 11:02:59.1     -90    -45     85    101    132 243.4  44.3  34270  291.43 0855.16
2009/04/23 11:02:59.2     -51    -42     87     67    109 230.5  58.5  34244  290.99 0855.16
2009/04/23 11:02:59.3     -31    -59    113     67    131 208.1  66.7  34242  290.96 0855.16
2009/04/23 11:02:59.4     -46    -79    118     92    149 210.7  57.9  34232  290.81 0855.16
2009/04/23 11:02:59.5     -15    -84    108     86    138 190.2  56.9  34228  290.74 0855.16
2009/04/23 11:02:59.6     -29    -98    101    103    144 196.5  50.0  34228  290.72 0855.16
2009/04/23 11:02:59.7     -22    -92     95     95    134 193.4  50.1  34230  290.75 0855.16
2009/04/23 11:02:59.8      -9    -88     99     89    133 186.2  53.3  34230  290.75 0855.16
2009/04/23 11:02:59.9     -22   -109     88    112    142 191.5  42.2  34228  290.74 0855.14
2009/04/23 11:03:00.0     -36   -100     82    107    134 200.0  41.6  34254  291.16 0855.14
2009/04/23 11:03:00.1     -34    -91     86     98    130 200.5  45.8  34310  292.13 0855.14
2009/04/23 11:03:00.2     -51    -88     57    102    116 210.3  31.4  34284  291.67 0855.14
2009/04/23 11:03:00.3     -65    -56     31     87     92 229.1  20.0  34284  291.67 0855.14
2009/04/23 11:03:00.4     -85    -67     49    109    119 231.8  25.7  34272  291.49 0855.14
2009/04/23 11:03:00.5    -103    -91     51    138    147 228.6  20.9  34276  291.54 0855.14
2009/04/23 11:03:00.6     -75    -66     45    101    110 228.7  26.2  34280  291.62 0855.14
2009/04/23 11:03:00.7     -97    -62     18    116    118 237.5   9.0  34292  291.81 0855.14
2009/04/23 11:03:00.8    -112    -76     -7    136    137 235.8  -3.1  34250  291.09 0855.14
2009/04/23 11:03:00.9    -154    -82    -43    175    181 241.8 -13.9  34212  290.45 0855.14
2009/04/23 11:03:01.0    -165    -86    -59    187    197 242.5 -17.6  34206  290.35 0855.14
2009/04/23 11:03:01.1    -181    -79    -68    198    210 246.5 -19.1  34204  290.33 0855.14
2009/04/23 11:03:01.2    -193    -73    -70    207    218 249.2 -23.3  34204  290.31 0855.14
2009/04/23 11:03:01.3    -185    -76    -66    201    211 247.6 -23.8  34208  290.40 0855.14
2009/04/23 11:03:01.4    -151    -73    -46    168    175 244.2 -15.5  34220  290.58 0855.14
2009/04/23 11:03:01.5    -119    -86    -58    148    158 234.0 -26.9  34230  290.75 0855.14
2009/04/23 11:03:01.6    -138    -46    -43    146    152 251.6 -21.7  34230  290.77 0855.14
2009/04/23 11:03:01.7    -134    -41    -23    141    143 253.1  -9.4  34230  290.75 0855.14
2009/04/23 11:03:01.8    -160    -12    -20    161    163 265.6  -7.3  34238  290.91 0855.14
2009/04/23 11:03:01.9    -186      9     -4    187    188 272.8  -1.3  34252  291.15 0855.12
2009/04/23 11:03:02.0    -131   -107     41    170    175 230.9  13.7  34278  291.59 0855.12
2009/04/23 11:03:02.1    -145    -12     26    146    149 265.2  10.1  34252  291.13 0855.12
2009/04/23 11:03:02.2    -101   -104     -3    146    147 224.1  -1.3  34246  291.04 0855.12
2009/04/23 11:03:02.3     -29   -128    122    132    179 192.9  47.9  34258  291.25 0855.12
2009/04/23 11:03:02.4       4    -98     90     99    133 177.3  47.5  34264  291.33 0855.12
2009/04/23 11:03:02.5     -28   -118     90    122    151 193.4  39.7  34226  290.69 0855.12
2009/04/23 11:03:02.6     -51   -128     47    139    147 201.9  18.9  34222  290.64 0855.12
2009/04/23 11:03:02.7     -57   -126     32    139    143 204.5  13.2  34222  290.62 0855.12
2009/04/23 11:03:02.8     -79   -115     52    140    149 214.7  21.0  34222  290.62 0855.12
2009/04/23 11:03:02.9     -60   -110     53    126    136 208.5  24.1  34228  290.72 0855.12
2009/04/23 11:03:03.0     -68   -100      5    122    123 214.2   2.3  34226  290.69 0855.12
2009/04/23 11:03:03.1     -71   -115     14    136    137 211.6   5.9  34230  290.75 0855.12
2009/04/23 11:03:03.2     -65   -102     42    122    130 212.5  19.2  34230  290.77 0855.12
2009/04/23 11:03:03.3    -102    -64     56    121    133 237.6  26.6  34234  290.84 0855.12
2009/04/23 11:03:03.4     -89    -88     83    126    150 225.2  36.0  34242  290.98 0855.12
2009/04/23 11:03:03.5    -111    -33     55    116    128 253.2  27.1  34264  291.33 0855.12
2009/04/23 11:03:03.6    -101    -19     25    103    107 259.0  13.7  34264  291.33 0855.12
2009/04/23 11:03:03.7    -117    -21     23    119    122 259.4  11.1  34268  291.40 0855.12
2009/04/23 11:03:03.8     -77    -15     23     79     83 258.5  16.3  34270  291.45 0855.12
2009/04/23 11:03:03.9     -78     -1     11     79     80 269.1   8.0  34264  291.35 0855.11
2009/04/23 11:03:04.0     -67    -13    -18     69     72 258.5 -14.5  34252  291.13 0855.11
2009/04/23 11:03:04.1     -88    -31     13     94     95 250.5   8.0  34272  291.47 0855.11
2009/04/23 11:03:04.2    -129     -8    -16    130    132 266.1  -7.3  34288  291.76 0855.11
2009/04/23 11:03:04.3    -113    -71     36    134    139 238.0  15.3  34256  291.21 0855.11
2009/04/23 11:03:04.4    -135    -69      8    152    153 242.9   3.3  34294  291.84 0855.11
2009/04/23 11:03:04.5    -131    -78     11    153    154 239.3   4.4  34306  292.05 0855.11
2009/04/23 11:03:04.6    -154    -92     22    180    182 239.1   7.2  34306  292.06 0855.11
2009/04/23 11:03:04.7    -127    -79     50    150    159 238.0  18.6  34292  291.83 0855.11
2009/04/23 11:03:04.8     -90    -70    -34    115    121 232.2 -16.6  34290  291.77 0855.11
2009/04/23 11:03:04.9     -93   -110    -18    145    147 220.1  -7.3  34252  291.13 0855.11
2009/04/23 11:03:05.0     -43   -106     60    115    129 202.3  29.3  34266  291.37 0855.11
2009/04/23 11:03:05.1     -80   -126     67    150    164 212.5  25.7  34254  291.16 0855.11
2009/04/23 11:03:05.2    -107   -114     68    157    171 223.2  24.9  34226  290.69 0855.11
2009/04/23 11:03:05.3     -81    -98     35    128    133 219.6  15.3  34244  291.01 0855.11
2009/04/23 11:03:05.4     -65   -108     52    127    137 211.2  23.1  34252  291.15 0855.11
2009/04/23 11:03:05.5     -84   -132     38    157    162 212.5  13.7  34236  290.86 0855.11
2009/04/23 11:03:05.6     -69   -147     46    163    170 205.2  15.8  34224  290.67 0855.11
2009/04/23 11:03:05.7     -88   -142     71    168    182 211.9  24.1  34226  290.69 0855.11
2009/04/23 11:03:05.8    -105   -155     69    188    200 214.1  20.9  34222  290.64 0855.11
2009/04/23 11:03:05.9    -103   -162     59    193    202 212.6  17.1  34220  290.58 0855.11
2009/04/23 11:03:06.0     -78   -143     81    164    182 208.7  28.0  34224  290.65 0855.11
2009/04/23 11:03:06.1     -68   -145     85    161    182 205.3  30.1  34224  290.65 0855.11
2009/04/23 11:03:06.2     -55   -138     74    149    166 201.9  28.0  34226  290.69 0855.11
2009/04/23 11:03:06.3     -55   -138     67    149    163 201.9  25.7  34224  290.65 0855.11
2009/04/23 11:03:06.4     -63   -139     76    153    170 204.5  28.2  34222  290.64 0855.11
2009/04/23 11:03:06.5     -71   -139     88    157    179 207.1  31.6  34224  290.65 0855.11
2009/04/23 11:03:06.6     -61   -129     83    143    165 205.3  32.9  34224  290.67 0855.11
2009/04/23 11:03:06.7     -51   -129     92    139    166 201.8  36.5  34228  290.74 0855.11
2009/04/23 11:03:06.8     -37   -141     95    146    174 195.1  35.7  34226  290.69 0855.11
2009/04/23 11:03:06.9     -23   -144     65    146    159 189.3  25.7  34226  290.69 0855.11
2009/04/23 11:03:07.0     -29    -97     49    102    113 196.5  27.2  34218  290.57 0855.11
2009/04/23 11:03:07.1      -2    -46     75     47     88 183.6  64.7  34228  290.74 0855.11
2009/04/23 11:03:07.2       0    -23     75     24     78 180.9  80.7  34240  290.92 0855.11
2009/04/23 11:03:07.3       0      0     74      0     74   0.0  90.0  34262  291.30 0855.11
2009/04/23 11:03:07.4      30    -18     60     36     69 120.7  65.7  34246  291.03 0855.11
2009/04/23 11:03:07.5      74    -96     92    122    152 142.2  40.7  34228  290.74 0855.11
2009/04/23 11:03:07.6      42   -117     83    125    150 159.9  36.5  34226  290.69 0855.11
2009/04/23 11:03:07.7      30   -134     82    138    160 167.1  33.5  34228  290.74 0855.11
2009/04/23 11:03:07.8      25   -127     82    130    153 168.9  35.5  34226  290.70 0855.11
2009/04/23 11:03:07.9      21   -134     95    136    165 171.1  38.4  34230  290.75 0855.11
2009/04/23 11:03:08.0      18   -141    105    143    177 172.4  39.9  34226  290.70 0855.11
2009/04/23 11:03:08.1     -32   -173     79    176    192 190.5  25.9  34220  290.60 0855.11
2009/04/23 11:03:08.2     -38   -156     63    161    172 193.8  22.3  34222  290.64 0855.11
2009/04/23 11:03:08.3     -11   -131     76    132    152 184.9  32.9  34226  290.70 0855.11
2009/04/23 11:03:08.4     -15   -146     65    147    160 186.2  25.3  34224  290.67 0855.11
2009/04/23 11:03:08.5       0   -123     82    124    148 180.4  36.5  34230  290.77 0855.11
2009/04/23 11:03:08.6      -2   -136     57    137    148 181.0  23.6  34226  290.69 0855.11
2009/04/23 11:03:08.7     -27   -136     46    139    147 191.6  18.4  34222  290.64 0855.11
2009/04/23 11:03:08.8     -31   -132     42    136    143 193.4  17.3  34224  290.67 0855.11
2009/04/23 11:03:08.9      -7    -99     53    100    113 184.4  29.8  34226  290.70 0855.11
2009/04/23 11:03:09.0      -6   -114     54    115    127 183.1  27.1  34226  290.70 0855.11
2009/04/23 11:03:09.1      -6   -113     68    114    132 183.1  34.0  34226  290.69 0855.11
2009/04/23 11:03:09.2       1   -113     84    114    141 179.1  39.7  34232  290.81 0855.11
2009/04/23 11:03:09.3      36    -93     79    100    127 158.6  42.7  34240  290.92 0855.11
2009/04/23 11:03:09.4      29    -84     84     89    122 160.8  48.5  34244  290.99 0855.11
2009/04/23 11:03:09.5      14   -109     68    110    129 172.4  35.5  34230  290.77 0855.11
2009/04/23 11:03:09.6      31    -92     68     98    119 161.3  38.0  34230  290.75 0855.11
2009/04/23 11:03:09.7      11    -80     47     81     93 171.5  33.5  34228  290.72 0855.11
2009/04/23 11:03:09.8      25    -34     65     43     77 143.9  64.6  34244  290.99 0855.11
2009/04/23 11:03:09.9      15    -11     70     19     72 126.0  84.9  34250  291.09 0855.11
2009/04/23 11:03:10.0     -24      4     49     25     55 279.7  70.8  34248  291.08 0855.11
2009/04/23 11:03:10.1     -27      9     13     29     31 288.6  27.1  34248  291.08 0855.11
2009/04/23 11:03:10.2     -12     11    -12     17     20 313.3 -44.1  34246  291.03 0855.11
2009/04/23 11:03:10.3     -22      7    -22     24     32 288.2 -54.4  34246  291.03 0855.11
2009/04/23 11:03:10.4     -26     12    -17     29     33 295.4 -37.9  34248  291.06 0855.11
2009/04/23 11:03:10.5      -2     26     -3     27     28 355.5  -7.2  34248  291.06 0855.11
2009/04/23 11:03:10.6     -22     46      2     52     53 334.6   2.8  34256  291.20 0855.11
2009/04/23 11:03:10.7     -24     24     -9     35     37 314.9 -15.5  34252  291.13 0855.11
2009/04/23 11:03:10.8     -57      7    -22     58     62 277.9 -26.4  34234  290.84 0855.11
2009/04/23 11:03:10.9     -62      4    -22     63     67 274.3 -19.6  34222  290.64 0855.11
2009/04/23 11:03:11.0     -86     45    -14     98    100 297.5  -8.2  34232  290.79 0855.11
2009/04/23 11:03:11.1     -83     17    -35     85     91 281.9 -28.0  34236  290.86 0855.11
2009/04/23 11:03:11.2     -97     39    -67    105    124 291.8 -40.0  34236  290.86 0855.11
2009/04/23 11:03:11.3     -77     55    -62     95    113 305.5 -40.0  34230  290.75 0855.11
2009/04/23 11:03:11.4     -96     12    -73     97    121 277.5 -45.6  34244  290.99 0855.11
2009/04/23 11:03:11.5     -47     14    -66     50     82 286.8 -63.4  34258  291.23 0855.11
2009/04/23 11:03:11.6     -61     26    -48     67     82 293.5 -43.5  34252  291.15 0855.11
2009/04/23 11:03:11.7     -53     45    -52     70     87 310.4 -45.1  34240  290.94 0855.11
2009/04/23 11:03:11.8     -81     35    -58     89    106 293.5 -40.0  34232  290.81 0855.11
2009/04/23 11:03:11.9     -74      5    -65     75     99 274.4 -49.8  34230  290.77 0855.11
2009/04/23 11:03:12.0     -90     30    -54     96    110 288.6 -36.3  34232  290.79 0855.11
2009/04/23 11:03:12.1     -64      3    -66     65     92 273.5 -54.1  34232  290.81 0855.11
2009/04/23 11:03:12.2     -48     12    -81     50     95 284.2 -69.1  34238  290.89 0855.11
2009/04/23 11:03:12.3     -80    -11    -58     81     99 261.6 -43.9  34242  290.96 0855.11
2009/04/23 11:03:12.4     -99     19    -41    101    109 281.0 -27.4  34252  291.15 0855.11
2009/04/23 11:03:12.5     -98     -9    -33     99    105 264.3 -18.7  34244  291.01 0855.11
2009/04/23 11:03:12.6    -111    -22    -31    114    119 258.6 -15.5  34228  290.72 0855.11
2009/04/23 11:03:12.7    -135     10    -30    136    140 274.4 -12.4  34262  291.32 0855.11
2009/04/23 11:03:12.8    -144      6    -46    145    152 272.6 -23.3  34292  291.81 0855.11
2009/04/23 11:03:12.9    -157    -46    -75    164    180 253.6 -30.8  34282  291.66 0855.11
2009/04/23 11:03:13.0    -166    -27    -92    169    192 260.8 -35.7  34292  291.83 0855.11
2009/04/23 11:03:13.1    -133    -29   -116    137    179 257.6 -48.9  34284  291.69 0855.11
2009/04/23 11:03:13.2    -116     -8   -126    117    171 265.7 -56.6  34288  291.74 0855.11
2009/04/23 11:03:13.3    -117     25   -116    120    166 282.4 -53.6  34262  291.32 0855.11
2009/04/23 11:03:13.4    -129     39   -124    135    183 286.8 -52.1  34248  291.06 0855.11
2009/04/23 11:03:13.5     -84     63    -93    106    141 306.9 -50.2  34240  290.94 0855.11
2009/04/23 11:03:13.6     -55     35   -117     66    134 302.4 -72.7  34250  291.11 0855.11
2009/04/23 11:03:13.7     -72     24   -132     76    152 288.6 -71.6  34240  290.92 0855.11
2009/04/23 11:03:13.8      -4    102   -113    103    152 357.8 -56.6  34244  291.01 0855.11
2009/04/23 11:03:13.9     484     18    -83    154    174 360.0 -35.0  34240  290.93 0855.11
2009/04/23 11:03:14.0     -85     99     12    131    132 319.5   5.4  34238  290.91 0855.11
2009/04/23 11:03:14.1     -75     70    -22    103    106 313.2 -12.4  34246  291.03 0855.11
2009/04/23 11:03:14.2     -79     35    -51     87    100 294.0 -37.3  34244  290.99 0855.11
2009/04/23 11:03:14.3     -35     14    -13     38     41 292.6 -18.7  34240  290.94 0855.11
2009/04/23 11:03:14.4     -74      7    -66     75     99 276.1 -50.2  34250  291.09 0855.11
2009/04/23 11:03:14.5     -77     55    -89     95    130 305.5 -52.4  34250  291.11 0855.11
2009/04/23 11:03:14.6     -98     58    -92    115    147 300.7 -48.1  34250  291.09 0855.11
2009/04/23 11:03:14.7    -180     54   -109    189    218 286.8 -37.1  34250  291.09 0855.11
2009/04/23 11:03:14.8    -165     72   -113    181    213 293.7 -39.9  34244  290.99 0855.11
2009/04/23 11:03:14.9    -179     48    -75    186    200 285.1 -27.4  34240  290.94 0855.11
2009/04/23 11:03:15.0    -138     46    -34    146    151 288.4 -13.3  34242  290.96 0855.11
2009/04/23 11:03:15.1    -130     19    -63    132    146 278.4 -31.6  34248  291.08 0855.11
2009/04/23 11:03:15.2    -145     12    -49    146    154 274.8 -23.6  34258  291.23 0855.11
2009/04/23 11:03:15.3    -107    -11    -38    108    115 263.9 -19.7  34248  291.06 0855.11
2009/04/23 11:03:15.4     -99    -13    -12    100    101 262.5  -7.3  34258  291.23 0855.11
2009/04/23 11:03:15.5     -90    -26    -11     94     95 253.6  -7.2  34262  291.32 0855.11
2009/04/23 11:03:15.6     -88    -51    -17    102    104 239.8  -9.8  34268  291.40 0855.11
2009/04/23 11:03:15.7     -44   -100    -22    110    113 204.1 -11.5  34264  291.35 0855.11
2009/04/23 11:03:15.8     -13   -171     19    172    174 184.5   6.5  34256  291.20 0855.11
2009/04/23 11:03:15.9     -17   -217    -12    218    219 184.5  -3.3  34262  291.30 0855.11
2009/04/23 11:03:16.0     -48   -233     -9    239    240 191.8  -2.2  34264  291.34 0855.11
2009/04/23 11:03:16.1     -41   -235    -19    239    240 190.0  -4.6  34266  291.36 0855.11
2009/04/23 11:03:16.2     -18   -287     23    288    289 183.6   4.6  34254  291.17 0855.11
2009/04/23 11:03:16.3       2   -292     54    293    299 179.5  10.6  34252  291.12 0855.11
2009/04/23 11:03:16.4       0   -291     45    292    296 180.0   8.8  34250  291.10 0855.11
2009/04/23 11:03:16.5      21   -274     97    275    292 175.5  19.4  34268  291.39 0855.11
2009/04/23 11:03:16.6       7   -305     78    306    316 178.6  14.3  34270  291.43 0855.11
2009/04/23 11:03:16.7      43   -307     93    311    325 171.9  16.7  34266  291.36 0855.11
2009/04/23 11:03:16.8     -23   -305     59    307    313 184.5  11.0  34254  291.16 0855.11
2009/04/23 11:03:16.9      -4   -309     65    310    317 180.9  12.0  34242  290.97 0855.11
2009/04/23 11:03:17.0      -4   -277     54    278    284 180.9  11.0  34236  290.87 0855.11
2009/04/23 11:03:17.1       1   -321     16    322    323 179.8   3.0  34232  290.78 0855.11
2009/04/23 11:03:17.2       7   -271    -10    272    273 178.4  -2.1  34226  290.70 0855.11
2009/04/23 11:03:17.3      23   -260     26    262    264 174.9   5.7  34224  290.66 0855.11
2009/04/23 11:03:17.4      52   -225     45    232    237 166.9  11.0  34226  290.70 0855.11
2009/04/23 11:03:17.5      49   -200     46    206    212 166.2  12.6  34222  290.62 0855.11
2009/04/23 11:03:17.6      47   -197     53    203    210 166.4  14.7  34224  290.67 0855.11
2009/04/23 11:03:17.7      16   -164     76    165    181 174.2  26.4  34224  290.65 0855.11
2009/04/23 11:03:17.8      -3   -179     85    180    199 181.1  27.1  34226  290.70 0855.11
2009/04/23 11:03:17.9      21   -205     53    207    214 174.0  14.5  34226  290.70 0855.11
2009/04/23 11:03:18.0      61   -190     17    200    201 162.2   4.9  34224  290.65 0855.11
2009/04/23 11:03:18.1      31   -162     40    165    170 169.1  13.7  34220  290.58 0855.11
2009/04/23 11:03:18.2      -4   -184     48    185    192 181.4  14.7  34224  290.67 0855.11
2009/04/23 11:03:18.3     -42   -222     37    226    230 190.7   9.5  34224  290.65 0855.11
2009/04/23 11:03:18.4      28   -234     -9    236    237 173.1  -2.2  34224  290.65 0855.11
2009/04/23 11:03:18.5      54   -230    -70    237    248 166.7 -16.5  34228  290.71 0855.11
2009/04/23 11:03:18.6      78   -238     -7    251    252 161.7  -1.6  34226  290.68 0855.11
2009/04/23 11:03:18.7      36   -240     24    243    245 171.3   5.7  34226  290.68 0855.11
2009/04/23 11:03:18.8      41   -267     11    271    272 171.3   2.5  34226  290.68 0855.11
2009/04/23 11:03:18.9      42   -206      1    211    212 168.4   0.5  34226  290.69 0855.12
2009/04/23 11:03:19.0       8   -178     62    179    190 177.3  19.2  34228  290.72 0855.12
2009/04/23 11:03:19.1      22   -202     33    204    207 173.7   9.3  34230  290.75 0855.12
2009/04/23 11:03:19.2      29   -231     56    233    240 172.7  13.5  34234  290.83 0855.12
2009/04/23 11:03:19.3     129   -251     24    283    285 152.8   4.9  34232  290.80 0855.12
2009/04/23 11:03:19.4     132   -191     61    233    241 145.3  14.7  34230  290.76 0855.12
2009/04/23 11:03:19.5     145   -189     46    239    244 142.4  11.0  34228  290.71 0855.12
2009/04/23 11:03:19.6     143   -195     49    243    249 143.7  11.6  34226  290.70 0855.12
2009/04/23 11:03:19.7     114   -207      7    237    238 151.0   1.8  34220  290.58 0855.12
2009/04/23 11:03:19.8     155   -215     46    266    271 144.2   9.9  34206  290.36 0855.12
2009/04/23 11:03:19.9     101   -212     71    235    246 154.5  16.8  34214  290.48 0855.12
2009/04/23 11:03:20.0     110   -208     57    236    243 152.1  13.7  34222  290.63 0855.12
2009/04/23 11:03:20.1      58   -197     56    206    214 163.5  15.3  34222  290.62 0855.12
2009/04/23 11:03:20.2      41   -125     15    132    133 161.7   6.5  34224  290.65 0855.12
2009/04/23 11:03:20.3      16    -62     65     65     91 164.9  50.1  34228  290.72 0855.12
2009/04/23 11:03:20.4       0   -116     74    117    138 180.0  35.5  34224  290.65 0855.12
2009/04/23 11:03:20.5      32   -189     74    192    205 170.4  22.3  34222  290.64 0855.12
2009/04/23 11:03:20.6      33   -189     78    192    207 170.0  23.4  34220  290.60 0855.12
2009/04/23 11:03:20.7    -140    -95    -44    170    176 235.6 -14.7  34226  290.70 0855.12
2009/04/23 11:03:20.8    -124   -118    -11    172    173 226.4  -3.7  34230  290.75 0855.12
2009/04/23 11:03:20.9    -119   -132      0    178    179 222.1   0.2  34230  290.75 0855.12
2009/04/23 11:03:21.0    -135    -99     -6    168    169 233.6  -2.3  34232  290.81 0855.12
2009/04/23 11:03:21.1    -134   -129    -22    187    189 226.0  -6.7  34228  290.74 0855.12
2009/04/23 11:03:21.2    -136   -133    -40    191    196 225.6 -11.9  34226  290.70 0855.12
2009/04/23 11:03:21.3    -137    -38    -30    143    147 254.5 -11.9  34236  290.86 0855.12
2009/04/23 11:03:21.4    -208    -65    -36    219    222 252.5  -9.3  34234  290.84 0855.12
2009/04/23 11:03:21.5    -253    -48    -10    258    259 259.2  -2.2  34236  290.85 0855.12
2009/04/23 11:03:21.6    -221    -52    -49    228    234 256.8 -12.2  34228  290.72 0855.12
2009/04/23 11:03:21.7    -198    -72    -58    211    219 250.0 -15.5  34232  290.79 0855.12
2009/04/23 11:03:21.8    -244      0   -118    245    271 270.0 -31.7  34212  290.46 0855.12
2009/04/23 11:03:21.9    -256    -64     37    265    268 255.8   8.0  34212  290.46 0855.12
2009/04/23 11:03:22.0    -311    -38    -75    314    323 262.9 -13.6  34198  290.22 0855.12
2009/04/23 11:03:22.1    -297    -84    -93    309    322 254.1 -21.7  34208  290.37 0855.12
2009/04/23 11:03:22.2    -256     15     -9    257    258 273.5  -2.1  34200  290.26 0855.12
2009/04/23 11:03:22.3    -231    -84     58    247    254 250.0  13.2  34236  290.85 0855.12
2009/04/23 11:03:22.4    -188   -106    -19    217    218 240.5  -5.2  34210  290.41 0855.12
2009/04/23 11:03:22.5    -158    -98    -82    186    203 238.2 -29.5  34212  290.45 0855.12
2009/04/23 11:03:22.6    -186    -63   -126    197    233 251.2 -40.0  34214  290.48 0855.12
2009/04/23 11:03:22.7    -216    -69    -88    227    243 252.1 -26.4  34218  290.54 0855.12
2009/04/23 11:03:22.8    -171    -58    -95    181    204 251.2 -34.5  34218  290.57 0855.12
2009/04/23 11:03:22.9    -163    -56   -104    173    201 250.9 -38.4  34224  290.67 0855.12
2009/04/23 11:03:23.0    -200    -44    -62    205    214 257.4 -21.8  34242  290.98 0855.12
2009/04/23 11:03:23.1    -161    -32    -58    165    175 258.6 -19.4  34252  291.15 0855.12
2009/04/23 11:03:23.2    -160    -78    -27    179    182 244.0  -8.6  34264  291.33 0855.12
2009/04/23 11:03:23.3    -182    -48    -53    189    196 255.2 -20.2  34262  291.30 0855.12
2009/04/23 11:03:23.4    -214    -42    -44    219    224 258.8 -11.5  34264  291.35 0855.12
2009/04/23 11:03:23.5    -196    -21    -55    198    206 263.6 -15.5  34256  291.21 0855.12
2009/04/23 11:03:23.6    -157    -28    -35    160    164 259.6 -12.6  34248  291.08 0855.12
2009/04/23 11:03:23.7    -151    -41    -43    157    163 254.9 -15.4  34254  291.16 0855.12
2009/04/23 11:03:23.8    -118    -21    -19    120    122 259.9  -9.3  34240  290.94 0855.12
2009/04/23 11:03:23.9    -113     23    -19    116    118 281.5  -9.4  34246  291.04 0855.12
2009/04/23 11:03:24.0    -159     71     21    175    177 294.0   6.9  34244  290.99 0855.12
2009/04/23 11:03:24.1    -168     44     18    174    175 284.8   6.1  34250  291.11 0855.12
2009/04/23 11:03:24.2    -155     20     57    157    167 277.5  20.7  34252  291.15 0855.12
2009/04/23 11:03:24.3    -133     46     19    141    143 289.1   8.0  34250  291.11 0855.12
2009/04/23 11:03:24.4     -92      0     -4     93     94 270.0  -2.6  34252  291.15 0855.12
2009/04/23 11:03:24.5     -67     55     -1     87     88 309.5  -1.3  34256  291.20 0855.12
2009/04/23 11:03:24.6     -53     10     29     55     62 281.5  30.3  34254  291.16 0855.12
2009/04/23 11:03:24.7     -62     21     19     66     69 288.6  16.3  34248  291.08 0855.12
2009/04/23 11:03:24.8     -19    -26     11     33     36 216.1  19.2  34260  291.26 0855.12
2009/04/23 11:03:24.9       0    -49      1     50     51 180.9   1.8  34266  291.37 0855.13
2009/04/23 11:03:25.0     -32    -50    -40     60     72 212.5 -40.9  34272  291.47 0855.13
2009/04/23 11:03:25.1     -88    -41    -24     98    101 244.8 -13.9  34290  291.77 0855.13
2009/04/23 11:03:25.2     -94     -7    -23     95     98 265.7 -13.9  34286  291.72 0855.13
2009/04/23 11:03:25.3     -45    -19    -29     50     57 246.5 -37.9  34278  291.57 0855.13
2009/04/23 11:03:25.4     -63    -70    -12     95     96 221.9  -7.3  34260  291.28 0855.13
2009/04/23 11:03:25.5     -58    -91    -22    109    112 212.5 -11.3  34260  291.26 0855.13
2009/04/23 11:03:25.6     -84    -93    -32    126    131 222.3 -14.5  34266  291.37 0855.13
2009/04/23 11:03:25.7      32    -31      2     45     46 134.1   2.9  34274  291.52 0855.13
2009/04/23 11:03:25.8      68   -133    -19    150    152 152.9  -7.3  34276  291.54 0855.13
2009/04/23 11:03:25.9      81   -197    -27    214    216 157.5  -7.3  34252  291.15 0855.13
2009/04/23 11:03:26.0     108   -156    -24    191    193 145.3  -7.2  34262  291.32 0855.13
2009/04/23 11:03:26.1      95   -115    -40    150    156 140.4 -15.2  34258  291.25 0855.13
2009/04/23 11:03:26.2      42   -125    -46    133    141 161.3 -19.1  34258  291.23 0855.13
2009/04/23 11:03:26.3      41   -123    -35    130    135 161.3 -15.4  34258  291.25 0855.13
2009/04/23 11:03:26.4      50   -127    -47    137    144 158.2 -23.3  34252  291.15 0855.13
2009/04/23 11:03:26.6      56   -146    -47    157    163 159.1 -21.7  34252  291.15 0855.13
2009/04/23 11:03:26.7      25   -134    -46    137    145 169.3 -18.7  34246  291.03 0855.13
2009/04/23 11:03:26.8      38   -142    -39    148    154 164.8 -14.7  34236  290.87 0855.13
2009/04/23 11:03:26.9      56   -167    -35    177    181 161.3 -11.3  34236  290.87 0855.13
2009/04/23 11:03:27.0      90   -176    -50    198    205 152.8 -14.3  34228  290.74 0855.12
2009/04/23 11:03:27.1     110   -164    -82    198    214 146.2 -28.0  34232  290.79 0855.12
2009/04/23 11:03:27.2     103   -161    -57    192    200 147.4 -21.7  34234  290.82 0855.12
2009/04/23 11:03:27.3     126   -143    -72    191    204 138.6 -25.7  34238  290.89 0855.12
2009/04/23 11:03:27.4     157   -138    -61    210    218 131.4 -21.0  34232  290.79 0855.12
2009/04/23 11:03:27.5     154   -191    -23    246    248 141.0  -5.4  34232  290.80 0855.12
2009/04/23 11:03:27.6     168   -167    -25    238    240 134.8  -6.1  34236  290.87 0855.12
2009/04/23 11:03:27.7     166   -151     19    225    226 132.2   4.9  34236  290.86 0855.12
2009/04/23 11:03:27.8     143   -154     16    211    212 137.0   4.4  34234  290.82 0855.12
2009/04/23 11:03:27.9     124   -142     99    189    213 138.8  29.8  34232  290.81 0855.12
2009/04/23 11:03:28.0      81   -155    119    176    212 152.4  37.3  34230  290.75 0855.12
2009/04/23 11:03:28.1      43   -166    131    172    216 165.3  41.4  34232  290.81 0855.12
2009/04/23 11:03:28.2      -8   -173     74    174    189 182.7  24.6  34230  290.77 0855.12
2009/04/23 11:03:28.3      25   -148     57    151    161 170.2  21.7  34228  290.74 0855.12
2009/04/23 11:03:28.4      61   -162     16    174    175 159.3   5.4  34228  290.74 0855.12
2009/04/23 11:03:28.5      56   -155     31    166    170 160.0  10.8  34224  290.67 0855.12
2009/04/23 11:03:28.6      16   -173     62    174    184 174.7  20.0  34226  290.70 0855.12
2009/04/23 11:03:28.7      47   -176     78    183    198 164.9  24.3  34224  290.67 0855.12
2009/04/23 11:03:28.8      92   -139     95    167    192 146.4  32.4  34226  290.69 0855.12
2009/04/23 11:03:28.9      62   -154     84    167    186 157.9  28.2  34232  290.81 0855.12
2009/04/23 11:03:29.0      84    -86     80    121    145 135.9  36.0  34234  290.84 0855.12
2009/04/23 11:03:29.1     100   -100     70    142    158 134.8  28.2  34226  290.69 0855.12
2009/04/23 11:03:29.2      98    -86    108    131    169 131.3  43.7  34222  290.64 0855.12
2009/04/23 11:03:29.3      69    -90     88    114    144 142.2  41.7  34230  290.77 0855.12
2009/04/23 11:03:29.4      61   -100     68    118    136 148.8  33.4  34222  290.64 0855.12
2009/04/23 11:03:29.5      54   -108     84    122    148 153.3  37.6  34218  290.55 0855.12
2009/04/23 11:03:29.6      68   -125     79    143    163 151.5  31.6  34228  290.74 0855.12
2009/04/23 11:03:29.7      52   -130     95    141    170 158.1  37.3  34234  290.84 0855.12
2009/04/23 11:03:29.8      59   -115     97    130    162 152.9  40.7  34236  290.87 0855.12
2009/04/23 11:03:29.9      50   -120    110    131    171 157.3  44.3  34236  290.87 0855.12
2009/04/23 11:03:30.0      63   -125    108    141    177 153.3  41.4  34238  290.89 0855.12
2009/04/23 11:03:30.1      24   -173    106    175    204 172.0  34.2  34224  290.65 0855.12
2009/04/23 11:03:30.2      23   -174    105    176    204 172.4  33.5  34222  290.62 0855.12
2009/04/23 11:03:30.3       1   -141    112    142    180 179.5  42.4  34222  290.64 0855.12
2009/04/23 11:03:30.4       0   -146    131    147    196 180.0  46.4  34220  290.60 0855.12
2009/04/23 11:03:30.5      -2   -174    129    175    217 180.9  39.9  34214  290.50 0855.12
2009/04/23 11:03:30.6     -16   -183    116    184    217 185.1  35.5  34220  290.58 0855.12
2009/04/23 11:03:30.7     -34   -172    100    176    202 191.3  32.4  34222  290.62 0855.12
2009/04/23 11:03:30.8      15   -195     76    196    210 175.5  22.3  34226  290.70 0855.12
2009/04/23 11:03:30.9      -2   -189     93    190    211 180.7  27.8  34218  290.55 0855.12
2009/04/23 11:03:31.0     -40   -220     93    224    242 190.5  23.8  34222  290.61 0855.12
2009/04/23 11:03:31.1     -12   -202     55    203    211 183.6  15.2  34216  290.53 0855.12
2009/04/23 11:03:31.2     -31   -197    106    200    226 189.1  30.1  34222  290.62 0855.12
2009/04/23 11:03:31.3     -70   -183     51    197    204 200.9  14.7  34228  290.72 0855.12
2009/04/23 11:03:31.4     -81   -173      9    192    193 205.2   2.8  34246  291.03 0855.12
2009/04/23 11:03:31.5     -54   -182     54    190    198 196.7  16.0  34236  290.86 0855.12
2009/04/23 11:03:31.6     -63   -209     71    219    231 196.9  17.9  34234  290.84 0855.12
2009/04/23 11:03:31.7     -79   -251      2    264    265 197.6   0.5  34234  290.82 0855.12
2009/04/23 11:03:31.8    -179   -203    -82    271    284 221.4 -16.8  34240  290.92 0855.12
2009/04/23 11:03:31.9    -143   -143     12    203    204 224.9   3.6  34244  291.01 0855.12
2009/04/23 11:03:32.0    -107   -144     56    180    189 216.5  17.3  34262  291.32 0855.12
2009/04/23 11:03:32.1     -85   -178     75    198    211 205.5  21.5  34254  291.16 0855.12
2009/04/23 11:03:32.2     -43   -134    119    141    184 197.8  44.5  34232  290.79 0855.12
2009/04/23 11:03:32.3     -67   -141    169    157    230 205.3  52.2  34236  290.87 0855.12
2009/04/23 11:03:32.4     -82   -211    106    227    250 201.2  27.0  34238  290.88 0855.12
2009/04/23 11:03:32.5    -106   -224     89    249    264 205.4  20.2  34242  290.95 0855.12
2009/04/23 11:03:32.6     -49   -267     11    272    273 190.5   2.5  34220  290.58 0855.12
2009/04/23 11:03:32.7     -14   -268     13    269    270 183.1   2.9  34234  290.83 0855.12
2009/04/23 11:03:32.8     -63   -144    128    158    203 203.6  43.3  34230  290.75 0855.12
2009/04/23 11:03:32.9    -129   -126     63    181    192 225.6  19.2  34240  290.94 0855.12
2009/04/23 11:03:33.0    -135   -228     13    266    267 210.7   2.9  34248  291.05 0855.14
2009/04/23 11:03:33.1     -88   -240     -8    256    257 200.3  -1.8  34268  291.39 0855.14
2009/04/23 11:03:33.2     -90   -374     59    385    390 193.6   8.7  34222  290.64 0855.14
2009/04/23 11:03:33.3     -44   -394     19    397    398 186.5   2.8  34208  290.40 0855.14
2009/04/23 11:03:33.4      74   -419    -70    426    432 169.9  -9.4  34192  290.11 0855.14
2009/04/23 11:03:33.5     -89   -312    -71    325    333 196.0 -12.4  34202  290.30 0855.14
2009/04/23 11:03:33.6     -11   -379    -48    380    384 181.7  -7.2  34196  290.18 0855.14
2009/04/23 11:03:33.7      62   -402    142    407    431 171.1  20.0  34194  290.14 0855.14
2009/04/23 11:03:33.8      30   -423    155    425    452 175.9  21.0  34200  290.26 0855.14
2009/04/23 11:03:33.9      75   -453    180    460    493 170.6  22.5  34192  290.13 0855.14
2009/04/23 11:03:34.0     171   -551    181    578    606 162.7  17.4  34184  289.97 0855.14
2009/04/23 11:03:34.1      93   -548     28    556    557 170.3   2.9  34188  290.06 0855.14
2009/04/23 11:03:34.2      46   -491     -6    494    495 174.6  -0.7  34190  290.08 0855.14
2009/04/23 11:03:34.3      21   -562      2    563    564 177.8   0.2  34194  290.16 0855.14
2009/04/23 11:03:34.4     -49   -634     65    637    641 184.5   5.9  34188  290.06 0855.14
2009/04/23 11:03:34.5       2   -642    174    643    667 179.8  15.2  34164  289.65 0855.14
2009/04/23 11:03:34.6     109   -593    118    604    616 169.5  11.1  34204  290.32 0855.14
2009/04/23 11:03:34.7      94   -481      7    491    492 168.9   0.9  34190  290.08 0855.14
2009/04/23 11:03:34.8      55   -476     41    480    482 173.4   5.0  34192  290.12 0855.14
2009/04/23 11:03:34.9      95   -465     83    475    483 168.4  10.0  34192  290.12 0855.14
2009/04/23 11:03:35.0      33   -535     71    537    542 176.4   7.6  34214  290.48 0855.14
2009/04/23 11:03:35.1     -34   -637     21    639    640 183.1   1.9  34208  290.40 0855.14
2009/04/23 11:03:35.2     -78   -631     64    636    640 187.1   5.8  34178  289.86 0855.14
2009/04/23 11:03:35.3     -37   -556    198    558    593 183.9  19.6  34176  289.85 0855.14
2009/04/23 11:03:35.4      15   -645    229    646    685 178.6  20.3  34176  289.83 0855.14
2009/04/23 11:03:35.5      39   -659    182    661    686 176.6  15.4  34176  289.85 0855.14
2009/04/23 11:03:35.6     -67   -759    177    763    784 185.1  13.1  34150  289.41 0855.14
2009/04/23 11:03:35.7     -64   -836    149    839    853 184.4  10.1  34144  289.29 0855.14
2009/04/23 11:03:35.8    -134   -522    -69    539    544 194.4  -7.3  34188  290.06 0855.14
2009/04/23 11:03:35.9     -17   -499    -36    500    502 182.0  -4.1  34142  289.28 0855.14
2009/04/23 11:03:36.0    -111   -511     22    524    525 192.3   2.5  34158  289.55 0855.14
2009/04/23 11:03:36.1    -156   -525     26    548    549 196.6   2.8  34126  289.01 0855.14
2009/04/23 11:03:36.2    -106   -520     74    532    538 191.6   7.9  34132  289.11 0855.14
2009/04/23 11:03:36.3    -129   -610      7    624    625 192.0   0.7  34130  289.08 0855.14
2009/04/23 11:03:36.4    -100   -617     79    626    631 189.2   7.2  34140  289.23 0855.14
2009/04/23 11:03:36.5     -75   -540    127    546    561 187.9  13.1  34150  289.40 0855.14
2009/04/23 11:03:36.6     -22   -475     40    476    478 182.7   4.9  34158  289.54 0855.14
2009/04/23 11:03:36.7     -69   -503     71    508    514 187.9   8.0  34152  289.45 0855.14
2009/04/23 11:03:36.8     -45   -486     41    489    491 185.4   4.9  34146  289.35 0855.14
2009/04/23 11:03:36.9      29   -533     11    534    535 176.9   1.2  34152  289.43 0855.14
2009/04/23 11:03:37.0     -35   -507     26    509    510 184.0   3.0  34124  288.95 0855.14
2009/04/23 11:03:37.1     -80   -423     35    431    433 190.8   4.7  34128  289.02 0855.14
2009/04/23 11:03:37.2    -121   -380    -11    399    400 197.7  -1.7  34124  288.96 0855.14
2009/04/23 11:03:37.3     -78   -338   -116    347    365 193.0 -23.6  34132  289.10 0855.14
2009/04/23 11:03:37.4     -95   -283   -161    299    339 198.7 -35.2  34132  289.10 0855.14
2009/04/23 11:03:37.5    -177   -285   -145    336    365 211.9 -29.3  34132  289.11 0855.14
2009/04/23 11:03:37.6    -178   -237   -172    297    343 217.0 -37.1  34136  289.15 0855.14
2009/04/23 11:03:37.7    -163   -209   -170    266    315 217.9 -40.0  34130  289.07 0855.14
2009/04/23 11:03:37.8     -89   -234   -123    251    279 201.0 -32.6  34136  289.17 0855.14
2009/04/23 11:03:37.9      -9   -214   -156    215    265 182.6 -44.1  34148  289.36 0855.14
2009/04/23 11:03:38.0      24   -201   -167    203    262 173.1 -48.1  34144  289.31 0855.14
2009/04/23 11:03:38.1     -16   -236   -164    237    288 184.0 -42.2  34146  289.34 0855.14
2009/04/23 11:03:38.2       3   -230   -136    231    268 179.1 -37.8  34144  289.31 0855.14
2009/04/23 11:03:38.3      10   -188    -98    189    212 176.9 -33.7  34144  289.31 0855.14
2009/04/23 11:03:38.4      25   -179   -157    181    239 171.8 -50.0  34138  289.19 0855.14
2009/04/23 11:03:38.5       0   -209   -131    210    247 180.2 -39.4  34152  289.42 0855.14
2009/04/23 11:03:38.6      45   -220    -77    225    237 168.2 -24.0  34164  289.63 0855.14
2009/04/23 11:03:38.7     110   -234   -131    259    290 154.7 -33.5  34164  289.63 0855.14
2009/04/23 11:03:38.8       6   -148    -92    149    175 177.4 -39.4  34162  289.60 0855.14
2009/04/23 11:03:38.9     -39   -271   -154    274    314 188.2 -36.1  34160  289.56 0855.14
2009/04/23 11:03:39.0     -54   -269    -79    275    287 191.5 -16.0  34156  289.51 0855.14
2009/04/23 11:03:39.1    -115   -170     24    206    208 214.2   6.7  34162  289.62 0855.14
2009/04/23 11:03:39.2     -47   -182     -5    188    189 194.5  -1.8  34164  289.63 0855.14
2009/04/23 11:03:39.3    -130   -157     10    204    205 219.6   2.9  34160  289.58 0855.14
2009/04/23 11:03:39.4     -84    -90     -1    124    125 222.8  -0.7  34162  289.62 0855.14
2009/04/23 11:03:39.5     -61    -24     54     66     85 248.2  43.7  34158  289.55 0855.14
2009/04/23 11:03:39.6       0    -94     93     95    132 179.5  50.0  34166  289.67 0855.14
2009/04/23 11:03:39.7     -24   -141     81    144    165 189.8  31.9  34156  289.50 0855.14
2009/04/23 11:03:39.8       0   -114     69    115    134 179.5  34.4  34166  289.69 0855.14
2009/04/23 11:03:39.9      73   -113     74    135    153 147.0  31.4  34160  289.58 0855.14
2009/04/23 11:03:40.0      40   -207     86    211    227 168.9  23.1  34166  289.67 0855.15
2009/04/23 11:03:40.1     137   -248     14    284    285 151.0   2.9  34166  289.66 0855.15
2009/04/23 11:03:40.2     147   -209    115    256    280 144.9  25.7  34160  289.58 0855.15
2009/04/23 11:03:40.3     137   -215    -14    256    257 147.5  -3.1  34168  289.71 0855.15
2009/04/23 11:03:40.4     113   -178     29    212    214 147.5   7.8  34164  289.63 0855.15
2009/04/23 11:03:40.5     112   -209     33    238    241 151.7   8.0  34162  289.59 0855.15
2009/04/23 11:03:40.6     133   -221     90    259    275 149.0  19.2  34166  289.66 0855.15
2009/04/23 11:03:40.7     120   -308    158    331    366 158.7  27.3  34158  289.54 0855.15
2009/04/23 11:03:40.8     202   -314    121    374    394 147.2  17.9  34168  289.72 0855.15
2009/04/23 11:03:40.9      88   -325     92    337    350 164.9  15.3  34168  289.71 0855.15
2009/04/23 11:03:41.0     112   -328     67    347    354 161.1  11.0  34168  289.72 0855.15
2009/04/23 11:03:41.1      95   -351     15    364    365 164.9   2.5  34166  289.69 0855.15
2009/04/23 11:03:41.2      96   -403     73    415    422 166.6  10.0  34166  289.66 0855.15
2009/04/23 11:03:41.3     111   -398    133    414    435 164.4  17.8  34162  289.61 0855.15
2009/04/23 11:03:41.4      64   -375     81    381    390 170.2  12.1  34164  289.64 0855.15
2009/04/23 11:03:41.5      51   -354     51    358    362 171.7   8.1  34166  289.69 0855.15
2009/04/23 11:03:41.6      60   -355     28    361    363 170.3   4.6  34164  289.64 0855.15
2009/04/23 11:03:41.7      50   -357     57    361    366 172.0   9.0  34168  289.72 0855.15
2009/04/23 11:03:41.8      95   -388     50    400    404 166.2   7.2  34160  289.56 0855.15
2009/04/23 11:03:41.9      45   -384     43    387    390 173.3   6.4  34166  289.67 0855.15
2009/04/23 11:03:42.0      33   -368      4    370    371 174.8   0.7  34150  289.40 0855.16
2009/04/23 11:03:42.1     -24   -332    -15    333    334 184.3  -2.6  34172  289.76 0855.16
2009/04/23 11:03:42.2      -6   -362      9    363    364 181.0   1.5  34166  289.69 0855.16
2009/04/23 11:03:42.3     -25   -385     53    386    390 183.8   7.9  34172  289.79 0855.16
2009/04/23 11:03:42.4      34   -314     74    316    325 173.7  13.3  34174  289.81 0855.16
2009/04/23 11:03:42.5      80   -315    149    326    358 165.7  26.3  34172  289.79 0855.16
2009/04/23 11:03:42.6      87   -234     22    250    252 159.5   5.2  34170  289.75 0855.16
2009/04/23 11:03:42.7     147   -376    130    404    425 158.6  17.9  34170  289.75 0855.16
2009/04/23 11:03:42.8     163   -440    197    470    509 159.7  24.2  34182  289.95 0855.16
2009/04/23 11:03:42.9     242   -519    190    573    604 155.0  18.4  34178  289.86 0855.16
2009/04/23 11:03:43.0     330   -373    150    499    522 138.5  16.8  34180  289.91 0855.16
2009/04/23 11:03:43.1     320   -390    163    505    531 140.6  17.9  34174  289.80 0855.16
2009/04/23 11:03:43.2     327   -550    150    641    659 149.3  13.2  34174  289.82 0855.16
2009/04/23 11:03:43.3     304   -503    190    588    618 148.8  17.9  34182  289.93 0855.16
2009/04/23 11:03:43.4     216   -580    244    620    666 159.5  22.7  34174  289.82 0855.16
2009/04/23 11:03:43.5     153   -586    228    606    647 165.3  21.7  34182  289.96 0855.16
2009/04/23 11:03:43.6     118   -552    258    565    621 167.9  26.2  34184  289.98 0855.16
2009/04/23 11:03:43.7      25   -543    127    544    559 177.3  13.2  34184  289.97 0855.16
2009/04/23 11:03:43.8      20   -492     64    493    498 177.7   7.5  34186  290.01 0855.16
2009/04/23 11:03:43.9      24   -447     25    448    449 176.9   3.2  34182  289.95 0855.16
2009/04/23 11:03:44.0      38   -493     46    495    498 175.5   5.3  34186  290.01 0855.16
2009/04/23 11:03:44.1      21   -529      2    530    531 177.7   0.2  34182  289.94 0855.16
2009/04/23 11:03:44.2      21   -561    -97    562    571 177.8  -9.8  34174  289.80 0855.16
2009/04/23 11:03:44.3      16   -446    -74    447    454 177.9  -9.5  34176  289.83 0855.16
2009/04/23 11:03:44.4     125   -470   -145    487    509 165.1 -16.6  34166  289.66 0855.16
2009/04/23 11:03:44.5     121   -559   -169    573    597 167.7 -21.2  34164  289.63 0855.16
2009/04/23 11:03:44.6     166   -489   -154    517    539 161.2 -21.5  34162  289.62 0855.16
2009/04/23 11:03:44.7     312   -380   -117    492    506 140.6 -13.4  34162  289.61 0855.16
2009/04/23 11:03:44.8     293   -403     98    499    509 144.0  11.1  34176  289.84 0855.16
2009/04/23 11:03:44.9     244   -335    105    415    429 143.9  14.3  34166  289.68 0855.16
2009/04/23 11:03:45.0     252   -423    128    493    510 149.2  14.6  34170  289.74 0855.16
2009/04/23 11:03:45.1     294   -459     65    546    550 147.4   6.9  34158  289.53 0855.16
2009/04/23 11:03:45.2     161   -345    118    381    400 155.0  17.3  34168  289.71 0855.16
2009/04/23 11:03:45.3     239   -279    -73    368    376 139.5 -11.3  34170  289.74 0855.16
2009/04/23 11:03:45.4     137   -257    -83    292    304 151.9 -16.0  34172  289.76 0855.16
2009/04/23 11:03:45.5     167   -311     54    354    359 151.7   8.7  34166  289.69 0855.16
2009/04/23 11:03:45.6      41   -322     49    325    329 172.7   8.7  34162  289.59 0855.16
2009/04/23 11:03:45.7      41   -349     -7    352    353 173.2  -1.3  34168  289.71 0855.16
2009/04/23 11:03:45.8      25   -428    124    429    447 176.6  16.1  34162  289.60 0855.16
2009/04/23 11:03:45.9     -90   -444    160    454    482 191.6  19.4  34166  289.66 0855.16
2009/04/23 11:03:46.0     -83   -409     79    418    426 191.5  10.7  34166  289.68 0855.17
2009/04/23 11:03:46.1    -131   -526     61    543    547 194.0   6.5  34176  289.84 0855.17
2009/04/23 11:03:46.2    -156   -576      9    597    598 195.2   0.9  34174  289.81 0855.17
2009/04/23 11:03:46.3    -139   -585    -50    602    605 193.4  -4.8  34172  289.76 0855.17
2009/04/23 11:03:46.4       2   -567   -191    568    600 179.8 -18.6  34174  289.81 0855.17
2009/04/23 11:03:46.5    -194   -535   -154    570    591 199.9 -15.2  34162  289.61 0855.17
2009/04/23 11:03:46.6    -174   -512   -182    541    570 198.8 -23.6  34172  289.77 0855.17
2009/04/23 11:03:46.7    -226   -541   -107    587    597 202.7 -10.4  34170  289.73 0855.17
2009/04/23 11:03:46.9    -153   -504    -67    527    532 196.9  -7.3  34174  289.82 0855.17
2009/04/23 11:03:46.9     -82   -535   -131    542    558 188.7 -13.7  34172  289.79 0855.17
2009/04/23 11:03:47.0     -91   -462    -77    471    478 191.2  -9.4  34174  289.81 0855.17
2009/04/23 11:03:47.1    -136   -313    -89    342    354 203.5 -14.7  34178  289.87 0855.17
2009/04/23 11:03:47.2     -86   -264    -40    278    281 198.0  -8.2  34176  289.83 0855.17
2009/04/23 11:03:47.3     -76   -341    -64    350    356 192.7 -10.5  34174  289.81 0855.17
2009/04/23 11:03:47.4     -41   -367   -133    370    393 186.5 -25.1  34162  289.60 0855.17
2009/04/23 11:03:47.5     -97   -300   -172    316    359 198.0 -35.4  34172  289.76 0855.17
2009/04/23 11:03:47.6    -100   -276   -113    294    314 200.1 -26.4  34170  289.73 0855.17
2009/04/23 11:03:47.7     -95   -275    -91    291    304 199.1 -22.5  34174  289.81 0855.17
2009/04/23 11:03:47.8     -94   -346    -82    359    369 195.3 -12.9  34172  289.79 0855.17
2009/04/23 11:03:47.9     -97   -315    -86    330    342 197.2 -14.6  34186  290.01 0855.17
2009/04/23 11:03:48.0    -122   -295   -106    320    338 202.5 -18.3  34198  290.23 0855.17
2009/04/23 11:03:48.1    -166   -313    -32    355    357 208.0  -5.2  34198  290.20 0855.17
2009/04/23 11:03:48.2     -90   -322      8    335    336 195.7   1.5  34178  289.86 0855.17
2009/04/23 11:03:48.3    -183   -285     17    340    341 212.8   3.0  34184  289.99 0855.17
2009/04/23 11:03:48.4     -91   -283    -28    298    300 197.8  -5.4  34180  289.92 0855.17
2009/04/23 11:03:48.5     119   -272    -16    298    299 156.3  -3.2  34174  289.81 0855.17
2009/04/23 11:03:48.6      63   -213    -44    223    228 163.5 -11.3  34176  289.85 0855.17
2009/04/23 11:03:48.7      69   -231      3    242    243 163.3   0.8  34178  289.86 0855.17
2009/04/23 11:03:48.8     153   -294     26    332    334 152.4   4.5  34178  289.89 0855.17
2009/04/23 11:03:48.9     177   -347    -10    390    391 153.0  -1.6  34170  289.74 0855.17
2009/04/23 11:03:49.0     241   -339     15    417    418 144.6   2.1  34148  289.36 0855.17
2009/04/23 11:03:49.1     188   -324    131    375    398 149.8  19.3  34172  289.79 0855.17
2009/04/23 11:03:49.2     139   -342    208    370    424 157.8  31.9  34178  289.87 0855.17
2009/04/23 11:03:49.3     123   -324    204    347    402 159.1  33.1  34178  289.87 0855.17
2009/04/23 11:03:49.4     234   -394   -137    459    480 149.3 -16.6  34152  289.42 0855.17
2009/04/23 11:03:49.5     226   -497   -162    547    570 155.5 -21.2  34168  289.70 0855.17
2009/04/23 11:03:49.6     207   -484   -150    527    548 156.8 -15.9  34160  289.57 0855.17
2009/04/23 11:03:49.7     140   -531   -151    550    571 165.2 -15.4  34164  289.63 0855.17
2009/04/23 11:03:49.8     163   -493   -172    520    548 161.7 -18.3  34162  289.62 0855.17
2009/04/23 11:03:49.9     111   -493    -99    506    516 167.3 -11.1  34166  289.67 0855.17
2009/04/23 11:03:50.0     169   -324    -41    366    369 152.5  -6.5  34164  289.65 0855.17
2009/04/23 11:03:50.1     116   -343     85    363    373 161.3  13.2  34162  289.59 0855.17
2009/04/23 11:03:50.2      83   -307     45    319    323 164.9   8.1  34162  289.61 0855.17
2009/04/23 11:03:50.3       9   -298     42    299    303 178.2   8.0  34158  289.54 0855.17
2009/04/23 11:03:50.4       9   -383     74    384    392 178.5  11.0  34162  289.62 0855.17
2009/04/23 11:03:50.5      13   -356     91    357    369 177.9  14.3  34164  289.64 0855.17
2009/04/23 11:03:50.6      95   -448      8    459    460 168.0   1.0  34160  289.58 0855.17
2009/04/23 11:03:50.7     133   -460     26    479    480 163.9   3.1  34162  289.61 0855.17
2009/04/23 11:03:50.8      34   -393     -7    395    396 175.0  -1.2  34164  289.65 0855.17
2009/04/23 11:03:50.9     113   -355    -88    373    384 162.3 -13.3  34162  289.62 0855.17
2009/04/23 11:03:51.0      94   -367   -105    379    394 165.6 -15.5  34166  289.67 0855.17
2009/04/23 11:03:51.1      70   -369    -88    376    387 169.2 -13.2  34172  289.77 0855.17
2009/04/23 11:03:51.2      89   -403    -81    413    421 167.5 -11.1  34170  289.73 0855.17
2009/04/23 11:03:51.3      84   -337    -29    348    350 166.0  -4.8  34172  289.76 0855.17
2009/04/23 11:03:51.4      31   -333    -38    335    338 174.7  -6.5  34172  289.76 0855.17
2009/04/23 11:03:51.5     -32   -311    -22    313    314 186.0  -4.1  34168  289.70 0855.17
2009/04/23 11:03:51.6     -46   -384    -28    387    389 186.9  -4.2  34168  289.72 0855.17
2009/04/23 11:03:51.7     -37   -374    -20    376    377 185.8  -3.2  34170  289.74 0855.17
2009/04/23 11:03:51.8     -57   -400      7    405    406 188.2   1.0  34168  289.70 0855.17
2009/04/23 11:03:51.9    -108   -324      2    342    343 198.5   0.5  34152  289.45 0855.17
2009/04/23 11:03:52.0    -165   -290   -100    334    348 209.7 -21.6  34124  288.96 0855.17
2009/04/23 11:03:52.1    -217   -248    -69    330    338 221.1 -11.9  34108  288.69 0855.17
2009/04/23 11:03:52.2    -218   -198    -60    295    302 227.7 -11.6  34110  288.71 0855.17
2009/04/23 11:03:52.3    -253   -188    -88    316    328 233.4 -20.3  34112  288.76 0855.17
2009/04/23 11:03:52.4    -267   -120    -54    293    298 245.8 -10.5  34110  288.71 0855.17
2009/04/23 11:03:52.5    -291   -111   -111    312    332 249.1 -19.7  34124  288.97 0855.17
2009/04/23 11:03:52.6    -338   -158    -14    374    375 245.0  -2.2  34132  289.11 0855.17
2009/04/23 11:03:52.7    -413   -190    -95    455    466 245.3 -11.9  34138  289.19 0855.17
2009/04/23 11:03:52.8    -344   -341   -125    485    501 225.2 -14.5  34140  289.22 0855.17
2009/04/23 11:03:52.9    -134   -405    -39    427    430 198.4  -5.3  34134  289.14 0855.17
2009/04/23 11:03:53.0      30   -506      0    507    508 176.5   0.1  34126  288.98 0855.17
2009/04/23 11:03:53.1       4   -422     -4    423    424 179.4  -0.6  34128  289.02 0855.17
2009/04/23 11:03:53.2     -31   -287     79    289    300 186.3  15.3  34136  289.17 0855.17
2009/04/23 11:03:53.3     -38   -283     92    286    301 187.8  17.9  34136  289.15 0855.17
2009/04/23 11:03:53.4    -130   -246      8    279    280 208.0   1.8  34152  289.42 0855.17
2009/04/23 11:03:53.6    -140   -205     58    249    256 214.3  13.2  34154  289.46 0855.17
2009/04/23 11:03:53.7    -180   -325     43    372    375 209.0   6.7  34158  289.54 0855.17
2009/04/23 11:03:53.7    -166   -346    -54    384    388 205.7  -8.1  34162  289.59 0855.17
2009/04/23 11:03:53.9    -135   -375    -14    399    400 199.9  -2.1  34158  289.55 0855.17
2009/04/23 11:03:54.0     -33   -353   -102    355    369 185.4 -20.9  34158  289.54 0855.17
2009/04/23 11:03:54.1    -107   -341   -117    358    376 197.5 -23.3  34158  289.54 0855.17
2009/04/23 11:03:54.2     -39   -260   -131    264    294 188.7 -32.6  34154  289.46 0855.17
2009/04/23 11:03:54.3     -60   -255   -127    263    292 193.4 -31.8  34152  289.42 0855.17
2009/04/23 11:03:54.4       3   -280   -141    281    314 179.3 -33.0  34158  289.54 0855.17
2009/04/23 11:03:54.5      57   -212   -203    220    299 164.8 -52.3  34162  289.61 0855.17
2009/04/23 11:03:54.6      47   -182   -138    189    234 165.3 -44.1  34164  289.63 0855.17
2009/04/23 11:03:54.7      14   -191    -70    192    204 175.6 -25.3  34172  289.77 0855.17
2009/04/23 11:03:54.8      -8   -146    -40    147    153 183.1 -15.4  34176  289.85 0855.17
2009/04/23 11:03:54.9      43   -116     59    124    137 159.5  27.2  34168  289.72 0855.17
2009/04/23 11:03:55.0      86    -96     48    130    138 138.1  21.0  34166  289.67 0855.17
2009/04/23 11:03:55.1     111   -146    -55    184    193 142.8 -16.8  34164  289.65 0855.17
2009/04/23 11:03:55.2      74   -159    -57    176    186 154.8 -17.9  34166  289.67 0855.17
2009/04/23 11:03:55.3      84   -146    -33    169    173 149.9 -11.3  34164  289.63 0855.17
2009/04/23 11:03:55.4      71   -185    -46    199    205 159.1 -13.2  34162  289.60 0855.17
2009/04/23 11:03:55.5      62   -225    -46    234    239 164.4 -11.1  34162  289.59 0855.17
2009/04/23 11:03:55.6      88   -229    -71    246    256 158.8 -20.7  34160  289.58 0855.17
2009/04/23 11:03:55.7     113   -202    -70    232    243 150.6 -17.0  34160  289.58 0855.17
2009/04/23 11:03:55.8       4   -207     66    208    219 178.9  17.7  34160  289.57 0855.17
2009/04/23 11:03:55.9     -11   -297     40    298    301 182.2   7.8  34160  289.58 0855.17
2009/04/23 11:03:56.0       0   -335    -43    336    339 180.1  -7.3  34164  289.64 0855.17
2009/04/23 11:03:56.1     -33   -312     -3    314    315 186.2  -0.6  34162  289.61 0855.16
2009/04/23 11:03:56.2     -62   -280    -25    287    289 192.5  -5.1  34162  289.59 0855.16
2009/04/23 11:03:56.3      65   -297    -23    305    306 167.6  -4.4  34162  289.61 0855.16
2009/04/23 11:03:56.4     137   -239      8    276    277 150.1   1.7  34164  289.63 0855.16
2009/04/23 11:03:56.5     112   -271    -16    294    295 157.5  -3.3  34150  289.39 0855.16
2009/04/23 11:03:56.6     149   -363    -15    393    394 157.6  -2.2  34142  289.25 0855.16
2009/04/23 11:03:56.7     218   -314      4    383    384 145.3   0.7  34146  289.35 0855.16
2009/04/23 11:03:56.8     211   -335     31    396    398 147.8   4.6  34140  289.23 0855.16
2009/04/23 11:03:56.9     254   -313     26    404    405 141.0   3.8  34134  289.14 0855.16
2009/04/23 11:03:57.0     251   -310     56    400    405 141.0   8.0  34150  289.40 0855.16
2009/04/23 11:03:57.1     215   -388    180    444    479 151.0  23.5  34162  289.61 0855.16
2009/04/23 11:03:57.2     221   -411    155    467    493 151.7  18.4  34170  289.73 0855.16
2009/04/23 11:03:57.3     216   -467     91    515    524 155.2  10.1  34170  289.74 0855.16
2009/04/23 11:03:57.4     139   -533     34    551    553 165.3   3.6  34166  289.67 0855.16
2009/04/23 11:03:57.5     136   -482      2    501    502 164.2   0.3  34174  289.81 0855.16
2009/04/23 11:03:57.6     164   -511    -36    537    539 162.2  -3.9  34170  289.74 0855.16
2009/04/23 11:03:57.7     201   -503     65    542    546 158.2   6.9  34170  289.74 0855.16
2009/04/23 11:03:57.8     168   -505     60    533    537 161.5   6.5  34172  289.79 0855.16
2009/04/23 11:03:57.9     152   -442     22    468    469 161.0   2.8  34172  289.76 0855.16
2009/04/23 11:03:58.0     129   -389     20    410    411 161.6   2.9  34168  289.72 0855.16
2009/04/23 11:03:58.1     136   -409     39    432    434 161.5   5.2  34168  289.70 0855.16
2009/04/23 11:03:58.2     142   -394    -69    420    426 160.1  -9.4  34170  289.73 0855.16
2009/04/23 11:03:58.3     107   -353   -125    370    391 163.1 -18.7  34168  289.72 0855.16
2009/04/23 11:03:58.4      36   -413    -57    415    419 174.9  -7.9  34176  289.83 0855.16
2009/04/23 11:03:58.5      55   -396    -15    400    401 172.0  -2.2  34184  289.98 0855.16
2009/04/23 11:03:58.6      64   -305    -53    312    317 168.0  -9.7  34176  289.85 0855.16
2009/04/23 11:03:58.7     132   -285    -85    315    327 155.2 -15.2  34168  289.70 0855.16
2009/04/23 11:03:58.8      69   -344     -7    351    352 168.5  -1.2  34172  289.76 0855.16
2009/04/23 11:03:58.9      77   -345    -78    354    363 167.3 -12.5  34172  289.76 0855.16
2009/04/23 11:03:59.0     145   -424   -129    449    467 161.1 -20.8  34172  289.77 0855.16
2009/04/23 11:03:59.1     162   -369   -120    404    422 156.3 -16.5  34162  289.61 0855.16
2009/04/23 11:03:59.2     207   -374   -127    428    447 151.0 -16.5  34170  289.73 0855.16
2009/04/23 11:03:59.3     181   -283   -103    337    353 147.4 -17.0  34168  289.71 0855.16
2009/04/23 11:03:59.4     177   -324    -95    370    382 151.4 -14.4  34164  289.65 0855.16
2009/04/23 11:03:59.5     216   -261   -101    339    354 140.4 -16.7  34160  289.57 0855.16
2009/04/23 11:03:59.6     203   -253    -67    325    333 141.3 -11.8  34164  289.65 0855.16
2009/04/23 11:03:59.7     227   -290    -49    369    373 141.9  -7.6  34162  289.59 0855.16
2009/04/23 11:03:59.8     177   -292    -11    342    343 148.8  -1.9  34168  289.72 0855.16
2009/04/23 11:03:59.9     162   -254    -11    302    303 147.5  -2.2  34168  289.70 0855.16
2009/04/23 11:04:00.0     138   -247     39    284    287 150.8   8.0  34162  289.61 0855.16
2009/04/23 11:04:00.1     128   -338     10    362    363 159.2   1.6  34192  290.10 0855.15
2009/04/23 11:04:00.2      88   -264     28    279    281 161.5   5.9  34204  290.31 0855.15
2009/04/23 11:04:00.3     116   -278     24    302    304 157.3   4.6  34204  290.32 0855.15
2009/04/23 11:04:00.4     112   -306    -12    327    328 159.8  -2.1  34190  290.07 0855.15
2009/04/23 11:04:00.5      88   -367     -8    378    379 166.5  -1.3  34190  290.08 0855.15
2009/04/23 11:04:00.6      55   -326    -57    331    336 170.3  -9.8  34200  290.25 0855.15
2009/04/23 11:04:00.7     157   -362    -40    395    398 156.5  -5.9  34188  290.06 0855.15
2009/04/23 11:04:00.8     174   -326    -60    370    376 151.9  -9.3  34198  290.23 0855.15
2009/04/23 11:04:00.9     177   -298   -122    347    368 149.3 -19.4  34206  290.35 0855.15
2009/04/23 11:04:01.0     147   -307   -103    341    357 154.4 -16.9  34206  290.35 0855.15
2009/04/23 11:04:01.1      23   -312   -115    313    333 175.6 -25.7  34210  290.42 0855.16
2009/04/23 11:04:01.2      38   -263   -109    266    287 171.8 -27.8  34204  290.32 0855.16
2009/04/23 11:04:01.3      34   -248    -95    251    268 172.0 -26.1  34198  290.22 0855.16
2009/04/23 11:04:01.4      34   -247   -145    250    289 172.0 -37.3  34200  290.26 0855.16
2009/04/23 11:04:01.5      79   -237   -193    250    315 161.5 -45.9  34178  289.88 0855.16
2009/04/23 11:04:01.6     119   -261   -177    287    337 155.5 -39.2  34182  289.93 0855.16
2009/04/23 11:04:01.7      77   -253     10    265    266 163.1   2.3  34178  289.86 0855.16
2009/04/23 11:04:01.8      18   -258     43    259    263 176.0   9.5  34188  290.05 0855.16
2009/04/23 11:04:01.9      12   -182     50    183    190 176.2  15.3  34180  289.92 0855.16
2009/04/23 11:04:02.0      38   -239     52    243    249 170.9  12.2  34180  289.90 0855.16
2009/04/23 11:04:02.1       7   -217    109    218    243 178.0  28.5  34184  289.97 0855.16
2009/04/23 11:04:02.2      -8   -213     73    214    227 182.2  18.9  34186  290.01 0855.16
2009/04/23 11:04:02.3     100   -107    -49    147    154 136.8 -23.6  34180  289.91 0855.16
2009/04/23 11:04:02.4     115   -176    -31    211    214 146.8  -8.6  34180  289.91 0855.16
2009/04/23 11:04:02.5      50   -191    -51    198    205 165.3 -14.5  34186  290.01 0855.16
2009/04/23 11:04:02.6     -38   -206     88    210    227 190.5  24.1  34178  289.89 0855.16
2009/04/23 11:04:02.7       0   -184     99    185    209 180.0  30.6  34180  289.91 0855.16
2009/04/23 11:04:02.8     -28   -147    111    150    186 191.1  40.1  34180  289.91 0855.16
2009/04/23 11:04:02.9      -2   -154    160    155    222 181.0  50.9  34190  290.09 0855.16
2009/04/23 11:04:03.0     109    -60    143    125    189 118.9  54.6  34190  290.09 0855.16
2009/04/23 11:04:03.1      78   -107    220    133    257 143.9  66.2  34194  290.14 0855.16
2009/04/23 11:04:03.2     158   -197    206    253    326 141.2  43.5  34192  290.12 0855.16
2009/04/23 11:04:03.3      79   -107    139    134    193 143.5  50.9  34190  290.09 0855.16
2009/04/23 11:04:03.4      97    -91    135    134    190 133.1  49.9  34190  290.09 0855.16
2009/04/23 11:04:03.5      82    -69    112    108    155 130.4  50.7  34194  290.16 0855.16
2009/04/23 11:04:03.6      55     -8     92     56    107  98.8  65.1  34200  290.25 0855.16
2009/04/23 11:04:03.7      -5    -17     59     18     61 198.3  82.8  34198  290.21 0855.16
2009/04/23 11:04:03.8      36    -52     74     64     97 144.8  54.3  34198  290.23 0855.16
2009/04/23 11:04:03.9     -11    -39    106     41    113 196.9  78.2  34206  290.36 0855.16
2009/04/23 11:04:04.0      33     15     47     37     59  64.8  57.5  34212  290.47 0855.16
2009/04/23 11:04:04.1      29    -28     60     41     72 134.9  62.6  34202  290.28 0855.16
2009/04/23 11:04:04.2      42    -87      4     97     98 154.1   2.9  34190  290.08 0855.16
2009/04/23 11:04:04.3      51   -109      1    121    122 155.1   0.8  34188  290.04 0855.16
2009/04/23 11:04:04.4      -5   -168     59    169    180 181.8  19.4  34186  290.01 0855.16
2009/04/23 11:04:04.5      42   -192     52    197    204 167.5  15.0  34186  290.02 0855.16
2009/04/23 11:04:04.6      69   -218     76    229    242 162.4  18.4  34188  290.05 0855.16
2009/04/23 11:04:04.7      62   -223     87    232    247 164.4  21.5  34184  289.98 0855.16
2009/04/23 11:04:04.8      67   -203    100    214    236 161.7  27.0  34186  290.02 0855.16
2009/04/23 11:04:04.9      78   -204     92    219    237 159.1  24.1  34184  289.97 0855.16
2009/04/23 11:04:05.0      25   -207     42    209    214 172.9  11.6  34186  290.01 0855.16
2009/04/23 11:04:05.1     -26   -241     75    243    255 186.2  17.3  34184  289.98 0855.17
2009/04/23 11:04:05.2     -57   -315     70    321    329 190.3  12.4  34184  289.97 0855.17
2009/04/23 11:04:05.3     -33   -284     66    286    294 186.7  13.1  34186  290.00 0855.17
2009/04/23 11:04:05.4     -36   -246     48    249    254 188.5  11.1  34192  290.10 0855.17
2009/04/23 11:04:05.5       0   -183      9    184    185 179.8   2.8  34186  290.02 0855.17
2009/04/23 11:04:05.6      72   -128     28    147    150 150.6  11.1  34186  290.01 0855.17
2009/04/23 11:04:05.7      86    -84     52    121    131 134.6  25.1  34188  290.06 0855.17
2009/04/23 11:04:05.8      85    -73     47    113    122 130.9  23.6  34190  290.08 0855.17
2009/04/23 11:04:05.9     101    -83     25    132    135 129.5  11.0  34194  290.16 0855.17
2009/04/23 11:04:06.0      95   -102     -2    140    141 137.2  -1.2  34190  290.08 0855.17
2009/04/23 11:04:06.1     112    -89     27    144    147 128.6  10.6  34190  290.09 0855.17
2009/04/23 11:04:06.2     126    -77     46    148    155 121.5  17.3  34194  290.14 0855.17
2009/04/23 11:04:06.3      88   -107     39    139    145 140.4  15.8  34198  290.21 0855.17
2009/04/23 11:04:06.4      96    -74     56    122    134 127.8  27.1  34196  290.18 0855.17
2009/04/23 11:04:06.5     106    -70     49    128    137 123.3  21.5  34194  290.16 0855.17
2009/04/23 11:04:06.6      62    -65     59     90    107 136.3  35.6  34198  290.23 0855.17
2009/04/23 11:04:06.7      43    -41     64     60     87 134.1  51.2  34200  290.26 0855.17
2009/04/23 11:04:06.8      16    -12     50     21     54 127.8  77.1  34210  290.41 0855.17
2009/04/23 11:04:06.9     -16     22     30     28     41 323.9  51.2  34214  290.50 0855.17
2009/04/23 11:04:07.0     -53     56     44     78     89 316.8  32.4  34214  290.50 0855.17
2009/04/23 11:04:07.1     -82     69     41    108    115 310.0  21.0  34206  290.36 0855.16
2009/04/23 11:04:07.2    -105     18     42    107    114 279.7  22.0  34198  290.21 0855.16
2009/04/23 11:04:07.3     -78     31     82     85    118 291.7  49.0  34200  290.26 0855.16
2009/04/23 11:04:07.4     -71      4     94     72    118 273.5  58.5  34214  290.48 0855.16
2009/04/23 11:04:07.5    -102    -90     57    137    148 228.7  23.6  34190  290.08 0855.16
2009/04/23 11:04:07.6    -112    -49     33    123    128 246.5  15.2  34192  290.11 0855.16
2009/04/23 11:04:07.7     -67    -66     -1     95     96 225.4  -0.7  34208  290.38 0855.16
2009/04/23 11:04:07.8     -58   -145      8    157    158 201.8   2.9  34188  290.06 0855.16
2009/04/23 11:04:07.9     -17   -141     40    143    149 187.1  15.8  34190  290.09 0855.16
2009/04/23 11:04:08.0     -36   -146      7    151    152 193.8   2.9  34188  290.04 0855.16
2009/04/23 11:04:08.1     -34   -164     24    168    170 192.0   8.2  34188  290.06 0855.16
2009/04/23 11:04:08.2     -46   -169     38    176    181 195.4  12.4  34194  290.14 0855.16
2009/04/23 11:04:08.3      -7   -180     -4    181    182 182.5  -1.3  34188  290.04 0855.16
2009/04/23 11:04:08.4     -24   -201      0    203    204 186.9   0.0  34184  289.97 0855.16
2009/04/23 11:04:08.5     -46   -225     10    230    231 191.6   2.5  34186  290.01 0855.16
2009/04/23 11:04:08.6     -38   -224    -10    228    229 189.8  -2.6  34184  289.99 0855.16
2009/04/23 11:04:08.7     -19   -171     16    173    174 186.5   5.4  34182  289.96 0855.16
2009/04/23 11:04:08.8     -32   -122      7    127    128 194.7   3.3  34186  290.01 0855.16
2009/04/23 11:04:08.9     -77   -152     46    171    178 207.0  15.3  34186  290.01 0855.16
2009/04/23 11:04:09.0     -37   -156     82    161    180 193.4  29.1  34190  290.08 0855.16
2009/04/23 11:04:09.1      46   -144     98    152    180 162.2  35.7  34188  290.06 0855.15
2009/04/23 11:04:09.2     110   -257     46    280    284 156.8   9.3  34178  289.88 0855.15
2009/04/23 11:04:09.3     146   -302     25    336    337 154.1   4.3  34184  289.98 0855.15
2009/04/23 11:04:09.4     127   -291     24    318    319 156.4   4.4  34186  290.00 0855.15
2009/04/23 11:04:09.5      97   -243     56    262    269 158.1  12.2  34184  289.97 0855.15
2009/04/23 11:04:09.6      68   -247     17    257    258 164.6   3.8  34186  290.02 0855.15
2009/04/23 11:04:09.7      21   -279     20    280    281 175.5   4.2  34192  290.10 0855.15
2009/04/23 11:04:09.8      33   -264     95    267    284 172.8  19.6  34186  290.00 0855.15
2009/04/23 11:04:09.9      11   -360     94    361    374 178.1  14.6  34164  289.64 0855.15
2009/04/23 11:04:10.0      44   -376     39    379    382 173.2   6.0  34184  289.98 0855.15
2009/04/23 11:04:10.1      61   -299     -6    306    307 168.4  -1.2  34190  290.07 0855.15
2009/04/23 11:04:10.2      53   -218    -47    225    230 166.2 -11.9  34196  290.18 0855.15
2009/04/23 11:04:10.4      78   -193    -42    209    214 157.9 -11.3  34198  290.23 0855.15
2009/04/23 11:04:10.4       3   -149     19    150    152 178.6   7.5  34186  290.02 0855.15
2009/04/23 11:04:10.5     -20   -130     16    132    134 188.9   7.1  34190  290.08 0855.15
2009/04/23 11:04:10.6     -85   -106    -17    136    138 218.7  -7.3  34182  289.94 0855.15
2009/04/23 11:04:10.7     -82   -173    -10    192    193 205.3  -3.1  34182  289.94 0855.15
2009/04/23 11:04:10.8     -85   -156     -6    178    179 208.7  -2.2  34178  289.89 0855.15
2009/04/23 11:04:10.9    -120   -221     12    252    253 208.5   2.8  34180  289.92 0855.15
2009/04/23 11:04:11.0    -114   -206     25    236    238 208.9   6.1  34182  289.93 0855.15
2009/04/23 11:04:11.1    -203   -228     73    306    315 221.7  13.6  34184  289.98 0855.15
2009/04/23 11:04:11.2    -171   -172     25    243    245 224.9   5.9  34208  290.37 0855.15
2009/04/23 11:04:11.3     -62   -164     15    176    177 200.9   4.9  34186  290.01 0855.15
2009/04/23 11:04:11.4      -7   -104     12    105    106 184.0   6.9  34196  290.19 0855.15
2009/04/23 11:04:11.5      -7    -22     39     24     45 198.3  64.7  34188  290.06 0855.15
2009/04/23 11:04:11.6      77     30     64     83    104  68.7  41.2  34184  289.99 0855.15
2009/04/23 11:04:11.7      76     34    -10     84     85  65.6  -7.3  34168  289.72 0855.15
2009/04/23 11:04:11.8      82     -6     36     83     90  94.4  25.1  34156  289.50 0855.15
2009/04/23 11:04:11.9      44   -310    210    314    377 171.9  37.0  34160  289.57 0855.15
2009/04/23 11:04:12.0      23   -338    239    339    414 176.1  38.6  34162  289.62 0855.15
2009/04/23 11:04:12.1      -3   -345    222    346    411 180.6  35.6  34164  289.64 0855.15
2009/04/23 11:04:12.2     -17   -397    234    398    461 182.5  33.4  34168  289.72 0855.15
2009/04/23 11:04:12.3      40   -367    250    370    446 173.8  37.4  34170  289.75 0855.15
2009/04/23 11:04:12.4      50   -403    203    407    454 172.9  28.5  34168  289.70 0855.15
2009/04/23 11:04:12.5      61   -345    227    351    418 169.9  35.7  34164  289.64 0855.15
2009/04/23 11:04:12.6      33   -340    285    342    445 174.4  44.0  34160  289.58 0855.15
2009/04/23 11:04:12.7      15   -371    284    372    468 177.7  41.2  34164  289.65 0855.15
2009/04/23 11:04:12.8     -85   -417    237    426    487 191.6  31.5  34162  289.59 0855.15
2009/04/23 11:04:12.9       5   -260    261    261    369 178.9  50.1  34182  289.96 0855.15
2009/04/23 11:04:13.0     124   -358    202    380    430 160.8  30.3  34172  289.77 0855.15
2009/04/23 11:04:13.1      92   -371    224    383    443 166.1  33.1  34176  289.83 0855.14
2009/04/23 11:04:13.2      93   -368    266    380    463 165.7  38.5  34172  289.77 0855.14
2009/04/23 11:04:13.3      57   -379    267    384    467 171.4  38.1  34172  289.77 0855.14
2009/04/23 11:04:13.4     117   -360    193    379    425 162.0  29.2  34174  289.82 0855.14
2009/04/23 11:04:13.5     179   -270    214    325    389 146.4  36.3  34166  289.67 0855.14
2009/04/23 11:04:13.6     247   -399    189    470    506 148.3  23.1  34142  289.28 0855.14
2009/04/23 11:04:13.7     180   -540    269    570    630 161.5  27.1  34158  289.54 0855.14
2009/04/23 11:04:13.8      65   -462    221    467    516 171.9  27.2  34162  289.62 0855.14
2009/04/23 11:04:13.9     -78   -461    190    468    505 189.7  23.4  34162  289.59 0855.14
2009/04/23 11:04:14.0    -134   -483    189    502    536 195.5  21.5  34154  289.48 0855.14
2009/04/23 11:04:14.1    -149   -409    152    436    462 200.1  19.3  34160  289.56 0855.14
2009/04/23 11:04:14.2    -254   -307     57    399    404 219.6   8.2  34164  289.65 0855.14
2009/04/23 11:04:14.3    -246   -343     17    423    424 215.7   2.3  34166  289.66 0855.14
2009/04/23 11:04:14.4    -281   -351     22    450    451 218.7   2.9  34160  289.56 0855.14
2009/04/23 11:04:14.5    -241   -378     75    449    456 212.6   9.5  34164  289.65 0855.14
2009/04/23 11:04:14.6    -132   -331     13    357    358 201.9   2.1  34162  289.59 0855.14
2009/04/23 11:04:14.7    -105   -307   -103    325    340 198.9 -22.8  34162  289.62 0855.14
2009/04/23 11:04:14.8     -85   -358   -103    369    383 193.4 -20.2  34164  289.64 0855.14
2009/04/23 11:04:14.9    -119   -302    -72    325    333 201.6 -12.5  34160  289.57 0855.14
2009/04/23 11:04:15.0    -196   -321   -140    377    402 211.4 -25.8  34166  289.67 0855.14
2009/04/23 11:04:15.1     -95   -356   -108    369    384 195.0 -21.1  34178  289.89 0855.15
2009/04/23 11:04:15.2    -128   -398    164    419    449 197.9  22.7  34162  289.61 0855.15
2009/04/23 11:04:15.3    -277   -385    -50    475    478 215.7  -6.1  34164  289.64 0855.15
2009/04/23 11:04:15.4    -253   -373     -2    451    452 214.2  -0.3  34160  289.58 0855.15
2009/04/23 11:04:15.5    -181   -308     33    358    360 210.4   5.4  34174  289.82 0855.15
2009/04/23 11:04:15.6    -339   -344     -2    484    485 224.5  -0.3  34172  289.79 0855.15
2009/04/23 11:04:15.7    -313   -358    -39    476    478 221.2  -4.7  34158  289.54 0855.15
2009/04/23 11:04:15.8    -382   -371    -87    533    541 225.8  -9.3  34144  289.31 0855.15
2009/04/23 11:04:15.9    -328   -237    -56    405    409 234.1  -7.9  34146  289.34 0855.15
2009/04/23 11:04:16.0    -395   -371   -159    543    566 226.8 -16.4  34136  289.18 0855.15
2009/04/23 11:04:16.1    -354    -28   -114    356    373 265.4 -22.8  34148  289.38 0855.15
2009/04/23 11:04:16.2    -436   -112    -17    451    452 255.6  -2.2  34150  289.39 0855.15
2009/04/23 11:04:16.3    -303   -174   -120    350    370 240.1 -23.8  34142  289.25 0855.15
2009/04/23 11:04:16.4    -291   -280   -120    405    422 226.1 -21.2  34148  289.36 0855.15
2009/04/23 11:04:16.5    -349   -295   -171    458    488 229.8 -25.9  34160  289.56 0855.15
2009/04/23 11:04:16.6    -340   -255   -128    426    444 233.1 -21.7  34154  289.46 0855.15
2009/04/23 11:04:16.7     -46   -395    -66    398    404 186.7  -9.5  34156  289.50 0855.15
2009/04/23 11:04:16.8    -152   -297    -13    334    335 207.2  -2.2  34146  289.35 0855.15
2009/04/23 11:04:16.9    -311   -205   -140    373    398 236.5 -25.9  34142  289.25 0855.15
2009/04/23 11:04:17.0    -409   -192   -190    453    491 244.8 -28.5  34152  289.44 0855.15
2009/04/23 11:04:17.1    -312   -316   -231    445    501 224.6 -34.0  34162  289.59 0855.16
2009/04/23 11:04:17.2    -270   -309   -213    411    462 221.1 -33.8  34166  289.68 0855.16
2009/04/23 11:04:17.3    -194   -202   -214    281    353 223.9 -45.6  34182  289.94 0855.16
2009/04/23 11:04:17.4     -50   -281    -90    286    299 190.2 -22.8  34180  289.92 0855.16
2009/04/23 11:04:17.5    -173    -52     29    181    184 253.2   9.3  34180  289.92 0855.16
2009/04/23 11:04:17.6    -460   -192   -109    499    511 247.3 -12.4  34154  289.47 0855.16
2009/04/23 11:04:17.7    -486   -162   -219    513    557 251.6 -29.0  34160  289.57 0855.16
2009/04/23 11:04:17.8    -359   -169   -185    397    437 244.8 -31.3  34182  289.95 0855.16
2009/04/23 11:04:17.9    -291   -202   -182    355    398 235.2 -33.7  34172  289.79 0855.16
2009/04/23 11:04:18.0    -279   -214   -130    352    375 232.5 -25.5  34178  289.87 0855.16
2009/04/23 11:04:18.1    -209   -262    -98    336    350 218.5 -21.2  34188  290.03 0855.16
2009/04/23 11:04:18.2    -335   -221    -66    402    408 236.6  -9.4  34206  290.34 0855.16
2009/04/23 11:04:18.3    -401   -255    -86    476    484 237.5 -10.3  34196  290.17 0855.16
2009/04/23 11:04:18.4    -430   -193   -173    472    502 245.8 -25.4  34190  290.08 0855.16
2009/04/23 11:04:18.5    -522   -168   -189    549    580 252.1 -24.3  34180  289.91 0855.16
2009/04/23 11:04:18.6    -516   -203   -206    555    591 248.5 -25.7  34176  289.83 0855.16
2009/04/23 11:04:18.7    -482   -191   -179    519    549 248.3 -24.3  34178  289.87 0855.16
2009/04/23 11:04:18.8    -361   -209   -132    418    439 240.0 -17.5  34200  290.24 0855.16
2009/04/23 11:04:18.9    -394   -301   -146    497    518 232.6 -21.2  34192  290.12 0855.16
2009/04/23 11:04:19.0    -295   -284    -51    410    414 226.1  -7.2  34194  290.14 0855.16
2009/04/23 11:04:19.1    -190   -230    -83    299    311 219.6 -15.5  34192  290.10 0855.17
2009/04/23 11:04:19.2    -224   -363   -145    427    452 211.7 -18.8  34174  289.80 0855.17
2009/04/23 11:04:19.3    -122   -367    -94    388    400 198.5 -13.7  34172  289.79 0855.17
2009/04/23 11:04:19.4     -94   -292    -48    307    311 197.9  -9.0  34166  289.68 0855.17
2009/04/23 11:04:19.5    -131   -257     34    289    292 207.0   6.9  34176  289.83 0855.17
2009/04/23 11:04:19.6    -113   -222    -91    250    266 207.0 -25.1  34176  289.85 0855.17
2009/04/23 11:04:19.7      -1   -187     25    188    190 180.5   7.8  34166  289.67 0855.17
2009/04/23 11:04:19.8     -64   -272    -94    280    295 193.4 -23.3  34168  289.70 0855.17
2009/04/23 11:04:19.9      98   -312    -45    328    332 162.5  -7.9  34162  289.60 0855.17
2009/04/23 11:04:20.0     274   -278      3    391    392 135.4   0.5  34146  289.35 0855.17
2009/04/23 11:04:20.1     178   -215    -85    280    293 140.4 -17.0  34162  289.59 0855.17
2009/04/23 11:04:20.3      -3   -238   -182    239    300 180.9 -45.6  34164  289.63 0855.17
2009/04/23 11:04:20.3      -7   -268    -75    269    279 181.6 -20.4  34162  289.59 0855.17
2009/04/23 11:04:20.5     -49   -308    -63    313    320 189.1 -11.5  34160  289.58 0855.17
2009/04/23 11:04:20.6    -134   -367     11    391    392 200.1   1.7  34148  289.38 0855.17
2009/04/23 11:04:20.7    -124   -457    -78    474    481 195.2  -9.3  34154  289.47 0855.17
2009/04/23 11:04:20.8    -116   -406    -83    423    432 196.0 -11.1  34154  289.46 0855.17
2009/04/23 11:04:20.9     -83   -355     42    365    368 193.2   6.6  34142  289.28 0855.17
2009/04/23 11:04:21.0      80   -255     32    268    270 162.4   6.9  34148  289.37 0855.17
2009/04/23 11:04:21.1      50   -272    -61    277    284 169.4 -12.6  34152  289.44 0855.17
2009/04/23 11:04:21.2       0   -244    -74    245    255 180.2 -21.7  34156  289.49 0855.15
2009/04/23 11:04:21.3     -35   -217    -19    220    221 189.3  -5.1  34156  289.52 0855.15
2009/04/23 11:04:21.4    -118   -232    -33    261    264 207.0  -7.3  34154  289.46 0855.15
2009/04/23 11:04:21.5     -66   -267    -82    276    289 194.0 -16.6  34154  289.47 0855.15
2009/04/23 11:04:21.6     -64   -304   -141    311    341 192.0 -30.6  34158  289.54 0855.15
2009/04/23 11:04:21.7    -138   -371   -171    397    432 200.5 -29.3  34158  289.53 0855.15
2009/04/23 11:04:21.8    -209   -331    -35    392    394 212.2  -5.2  34150  289.40 0855.15
2009/04/23 11:04:21.9    -228   -334     -9    405    406 214.4  -1.4  34160  289.58 0855.15
2009/04/23 11:04:22.0    -234   -321     61    398    403 216.1   8.7  34162  289.59 0855.15
2009/04/23 11:04:22.1    -216   -255     17    335    336 220.2   2.9  34162  289.62 0855.15
2009/04/23 11:04:22.2    -233   -377     62    444    449 211.7   8.0  34154  289.48 0855.14
2009/04/23 11:04:22.3    -291   -442    -16    530    531 213.4  -1.8  34154  289.46 0855.14
2009/04/23 11:04:22.4    -288   -305    -54    420    424 223.3  -7.3  34160  289.56 0855.14
2009/04/23 11:04:22.5    -175   -360    -30    401    403 205.9  -4.4  34160  289.57 0855.14
2009/04/23 11:04:22.6    -225   -215   -109    312    331 226.2 -19.3  34154  289.46 0855.14
2009/04/23 11:04:22.7    -262   -201   -108    331    349 232.5 -18.2  34158  289.55 0855.14
2009/04/23 11:04:22.8    -129   -204    -53    242    248 212.5 -12.4  34162  289.59 0855.14
2009/04/23 11:04:22.9    -270   -224   -126    351    374 230.3 -19.8  34152  289.45 0855.14
2009/04/23 11:04:23.0    -273   -272   -185    386    428 225.1 -31.7  34134  289.14 0855.14
2009/04/23 11:04:23.1    -243   -200   -183    315    364 230.5 -37.3  34134  289.13 0855.14
2009/04/23 11:04:23.2    -159   -200   -186    256    316 218.5 -44.1  34134  289.14 0855.14
2009/04/23 11:04:23.3     -33   -239   -138    242    278 188.0 -36.7  34158  289.53 0855.14
2009/04/23 11:04:23.4      23   -203    -78    205    219 173.3 -26.1  34164  289.65 0855.14
2009/04/23 11:04:23.5     -26   -240   -101    242    262 186.2 -28.2  34146  289.34 0855.14
2009/04/23 11:04:23.6     -30   -235   -116    237    263 187.3 -32.2  34138  289.20 0855.14
2009/04/23 11:04:23.7      -5   -231   -107    232    255 181.4 -30.8  34140  289.24 0855.14
2009/04/23 11:04:23.8      25   -228   -123    230    260 173.7 -34.7  34142  289.27 0855.14
2009/04/23 11:04:23.9      48   -258    -90    263    277 169.3 -23.8  34144  289.31 0855.14
2009/04/23 11:04:24.0      53   -149    -70    159    173 160.4 -29.5  34150  289.41 0855.14
2009/04/23 11:04:24.1     -55    -50    -91     75    117 227.8 -60.7  34170  289.75 0855.14
2009/04/23 11:04:24.2    -111   -176   -100    209    231 212.3 -31.7  34172  289.77 0855.13
2009/04/23 11:04:24.3     -52   -169   -102    177    204 197.2 -37.1  34162  289.62 0855.13
2009/04/23 11:04:24.4    -100   -146   -175    178    249 214.5 -54.3  34182  289.96 0855.13
2009/04/23 11:04:24.5     -82   -170   -142    190    237 205.9 -45.0  34182  289.96 0855.13
2009/04/23 11:04:24.6    -115   -184    -12    218    219 212.1  -3.2  34174  289.80 0855.13
2009/04/23 11:04:24.7     -51   -252    115    258    282 191.5  25.2  34170  289.75 0855.13
2009/04/23 11:04:24.8      -8   -174    140    175    224 182.9  42.7  34170  289.74 0855.13
2009/04/23 11:04:24.9      12   -153    129    154    200 175.5  44.3  34172  289.77 0855.13
2009/04/23 11:04:25.0     -10   -122     77    123    145 184.9  35.5  34168  289.72 0855.13
2009/04/23 11:04:25.1     -25   -202     74    204    217 187.1  21.0  34162  289.62 0855.13
2009/04/23 11:04:25.2      41   -313    -67    316    324 172.4 -12.0  34166  289.68 0855.13
2009/04/23 11:04:25.3     -66   -161   -115    175    209 202.3 -40.7  34174  289.80 0855.13
2009/04/23 11:04:25.4    -117   -122    -96    170    195 223.7 -36.5  34188  290.06 0855.13
2009/04/23 11:04:25.5    -144   -123    -99    190    214 229.6 -33.9  34172  289.77 0855.13
2009/04/23 11:04:25.6     -58   -173    -83    183    200 198.7 -30.3  34168  289.70 0855.13
2009/04/23 11:04:25.7      -4   -177   -188    178    258 181.4 -56.0  34166  289.66 0855.13
2009/04/23 11:04:25.8    -227   -187   -142    295    327 230.5 -31.8  34154  289.47 0855.13
2009/04/23 11:04:25.9    -293   -221   -163    368    402 233.0 -30.0  34162  289.59 0855.13
2009/04/23 11:04:26.0    -227   -356    -64    423    428 212.5  -8.7  34146  289.33 0855.13
2009/04/23 11:04:26.1    -198   -254    -27    323    325 217.9  -4.8  34158  289.54 0855.13
2009/04/23 11:04:26.2    -141    -98    -29    172    175 235.1  -9.6  34160  289.57 0855.13
2009/04/23 11:04:26.3    -159    -95    -23    186    188 239.1  -7.3  34170  289.75 0855.13
2009/04/23 11:04:26.4    -220    -84    -30    236    238 248.9  -7.3  34176  289.85 0855.13
2009/04/23 11:04:26.5    -329     -7   -179    330    375 268.7 -35.3  34166  289.69 0855.13
2009/04/23 11:04:26.6    -351   -109    -47    368    372 252.7  -7.3  34158  289.54 0855.13
2009/04/23 11:04:26.7    -156    -85    191    178    261 241.4  52.2  34176  289.85 0855.13
2009/04/23 11:04:26.8    -136   -226    206    264    334 211.0  42.1  34160  289.56 0855.13
2009/04/23 11:04:26.9    -128   -196    155    235    281 213.2  36.5  34156  289.49 0855.13
2009/04/23 11:04:27.0     -78   -193    199    209    288 202.1  48.7  34158  289.53 0855.13
2009/04/23 11:04:27.1      36   -265    102    268    286 172.2  22.0  34160  289.56 0855.13
2009/04/23 11:04:27.2     101   -351     60    366    371 163.9   9.3  34156  289.50 0855.13
2009/04/23 11:04:27.3      47   -336     -2    340    341 172.0  -0.5  34152  289.43 0855.13
2009/04/23 11:04:27.4      11   -321    -12    322    323 177.9  -2.2  34148  289.37 0855.13
2009/04/23 11:04:27.5      25   -192    -54    194    202 172.4 -15.5  34154  289.48 0855.13
2009/04/23 11:04:27.6      93    -94    -80    133    155 135.1 -38.8  34158  289.53 0855.13
2009/04/23 11:04:27.7      43   -142   -117    149    189 163.1 -46.8  34158  289.55 0855.13
2009/04/23 11:04:27.8      91   -202   -100    222    243 155.7 -30.6  34158  289.53 0855.13
2009/04/23 11:04:27.9      -6   -194    -95    195    216 181.8 -31.8  34168  289.72 0855.13
2009/04/23 11:04:28.0      37   -170    -73    175    189 167.5 -28.5  34168  289.72 0855.13
2009/04/23 11:04:28.1      49   -141    -67    150    164 160.8 -30.1  34176  289.85 0855.13
2009/04/23 11:04:28.2      77   -100    -57    127    139 142.6 -30.6  34182  289.94 0855.14
2009/04/23 11:04:28.3     103   -145   -105    179    207 144.6 -37.8  34172  289.77 0855.14
2009/04/23 11:04:28.4     144   -124    -67    191    202 130.7 -24.4  34156  289.50 0855.14
2009/04/23 11:04:28.5      83   -100    -83    131    155 140.4 -39.9  34168  289.70 0855.14
2009/04/23 11:04:28.6      67    -72      1     99    100 136.8   0.8  34158  289.55 0855.14
2009/04/23 11:04:28.7      68   -109      4    129    130 147.9   1.8  34160  289.57 0855.14
2009/04/23 11:04:28.8      71   -133      1    151    152 151.9   0.7  34156  289.52 0855.14
2009/04/23 11:04:28.9     117   -114    -67    164    177 134.2 -27.8  34164  289.63 0855.14
2009/04/23 11:04:29.0     124    -85    -37    151    156 124.6 -13.9  34172  289.79 0855.14
2009/04/23 11:04:29.1     118    -57    -36    132    138 115.8 -15.5  34180  289.91 0855.14
2009/04/23 11:04:29.2     127     -8    -23    128    131  93.9 -10.3  34176  289.85 0855.14
2009/04/23 11:04:29.3      83      7    -10     84     85  85.2  -7.3  34176  289.85 0855.14
2009/04/23 11:04:29.4      29      9     -1     31     32  71.6  -2.2  34184  289.97 0855.14
2009/04/23 11:04:29.5     -22     -7     18     24     30 251.8  41.7  34196  290.19 0855.14
2009/04/23 11:04:29.6     -61    -22     49     65     81 250.0  41.2  34202  290.30 0855.14
2009/04/23 11:04:29.7     -48    -27     84     56    100 240.2  63.2  34220  290.58 0855.14
2009/04/23 11:04:29.8     -76    -31     82     83    116 247.4  50.5  34228  290.74 0855.14
2009/04/23 11:04:29.9    -126    -72    124    146    191 240.2  44.5  34208  290.38 0855.14
2009/04/23 11:04:30.0    -108    -86     75    139    157 231.4  30.8  34218  290.57 0855.14
2009/04/23 11:04:30.1     -86    -73     48    113    122 229.6  24.1  34224  290.67 0855.14
2009/04/23 11:04:30.2     -24    -97     78    101    127 194.3  41.7  34266  291.37 0855.16
2009/04/23 11:04:30.3       3   -107     86    108    138 178.2  43.3  34272  291.47 0855.16
2009/04/23 11:04:30.4      -1    -30     62     31     69 182.7  72.8  34272  291.49 0855.16
2009/04/23 11:04:30.5     -24    -33     64     42     76 216.1  64.6  34294  291.84 0855.16
2009/04/23 11:04:30.6     -34    -35     75     49     89 224.2  64.1  34278  291.59 0855.16
2009/04/23 11:04:30.7     -36    -20     38     42     56 241.1  47.9  34252  291.15 0855.16
2009/04/23 11:04:30.8      -8     -4      1     10     11 241.1   6.9  34252  291.15 0855.16
2009/04/23 11:04:30.9       2      0     23      3     23  71.6  90.0  34252  291.15 0855.16
2009/04/23 11:04:31.0       0      3     16      4     16 350.3  84.9  34256  291.21 0855.16
2009/04/23 11:04:31.1     -21     46     40     51     64 334.5  41.7  34260  291.28 0855.16
2009/04/23 11:04:31.2     -47    -76     36     90     96 211.6  22.5  34244  291.01 0855.16
2009/04/23 11:04:31.3     -30   -150    -19    154    156 191.6  -7.2  34232  290.81 0855.16
2009/04/23 11:04:31.4    -194   -220    -35    294    297 221.4  -6.9  34234  290.83 0855.16
2009/04/23 11:04:31.5    -347   -121    123    368    389 250.7  18.5  34244  291.01 0855.16
2009/04/23 11:04:31.6    -226    -76     33    239    242 251.4   8.0  34238  290.90 0855.16
2009/04/23 11:04:31.7    -101     40     94    109    143 291.8  45.8  34242  290.98 0855.16
2009/04/23 11:04:31.8     121     39     84    128    153  71.8  35.6  34216  290.53 0855.16
2009/04/23 11:04:31.9      83     -7    170     84    189  94.8  72.1  34206  290.36 0855.16
2009/04/23 11:04:32.0      -4      7    105      9    105 327.5  90.0  34226  290.69 0855.16
2009/04/23 11:04:32.1     -35    -16    103     39    110 244.7  78.6  34236  290.86 0855.16
2009/04/23 11:04:32.2      69    -23     81     73    109 108.6  52.7  34226  290.69 0855.20
2009/04/23 11:04:32.3      31    -54     98     63    116 150.1  64.6  34228  290.72 0855.20
2009/04/23 11:04:32.4      89    -42    103     99    142 115.2  51.2  34216  290.53 0855.20
2009/04/23 11:04:32.5      42     51     91     67    113  39.6  60.0  34222  290.64 0855.20
2009/04/23 11:04:32.6     -17     -4     73     18     75 254.9  86.9  34238  290.91 0855.20
2009/04/23 11:04:32.7      21    -11     64     24     68 118.9  80.2  34230  290.77 0855.20
2009/04/23 11:04:32.8      10    -28     65     30     71 160.0  73.1  34224  290.67 0855.20
2009/04/23 11:04:32.9      44      0     88     45     98  89.2  71.4  34222  290.62 0855.20
2009/04/23 11:04:33.0      15    -43     62     46     77 160.0  60.5  34214  290.48 0855.20
2009/04/23 11:04:33.1     -50     41     43     65     77 309.5  35.6  34222  290.62 0855.20
2009/04/23 11:04:33.2     -29     92    104     97    142 342.2  52.2  34222  290.64 0855.20
2009/04/23 11:04:33.3      18     54     72     57     91  18.5  57.5  34232  290.81 0855.20
2009/04/23 11:04:33.4      44     60     63     75     97  36.1  44.3  34222  290.62 0855.20
2009/04/23 11:04:33.5     129     56    105    141    175  66.5  40.4  34222  290.62 0855.20
2009/04/23 11:04:33.6     139     50    117    148    188  70.0  42.4  34230  290.75 0855.20
2009/04/23 11:04:33.7     111     75    124    135    183  55.8  47.7  34230  290.77 0855.20
2009/04/23 11:04:33.8      71     69     82    100    129  45.9  43.7  34236  290.86 0855.20
2009/04/23 11:04:33.9      47     88     83    100    129  28.1  43.8  34240  290.92 0855.20
2009/04/23 11:04:34.0       6    113     80    114    139   3.1  39.1  34236  290.86 0855.20
2009/04/23 11:04:34.1      -3    116     56    117    129 358.2  27.3  34224  290.65 0855.20
2009/04/23 11:04:34.2       8    102     76    103    128   4.5  40.1  34228  290.74 0855.22
2009/04/23 11:04:34.3      10     57     78     59     97  10.7  59.0  34236  290.87 0855.22
2009/04/23 11:04:34.4     -59     16     73     62     95 285.0  55.8  34248  291.06 0855.22
2009/04/23 11:04:34.5     -59     32     82     68    106 298.9  56.3  34232  290.81 0855.22
2009/04/23 11:04:34.6       9     48    120     49    129  10.7  77.1  34238  290.89 0855.22
2009/04/23 11:04:34.7      26     26    101     37    107  45.0  79.7  34238  290.91 0855.22
2009/04/23 11:04:34.8     -95      1     68     96    117 270.8  39.5  34242  290.98 0855.22
2009/04/23 11:04:34.9    -100     62    106    118    158 302.0  46.9  34248  291.08 0855.22
2009/04/23 11:04:35.0    -142     53    168    152    226 290.8  53.3  34248  291.08 0855.22
2009/04/23 11:04:35.1    -152    -49    139    160    211 251.8  45.6  34238  290.91 0855.22
2009/04/23 11:04:35.2     -22   -177     92    179    201 187.1  29.3  34230  290.77 0855.22
2009/04/23 11:04:35.3     -22   -157    137    159    209 188.0  45.4  34222  290.62 0855.22
2009/04/23 11:04:35.4    -133   -162    187    210    281 219.4  46.2  34240  290.93 0855.22
2009/04/23 11:04:35.5     -44    -61    151     76    169 216.1  71.7  34228  290.74 0855.22
2009/04/23 11:04:35.6      52     26    148     59    159  62.9  77.4  34234  290.82 0855.22
2009/04/23 11:04:35.7      35    -25    152     44    158 126.0  83.5  34224  290.65 0855.22
2009/04/23 11:04:35.8     205     40    185    209    279  78.8  45.9  34214  290.49 0855.22
2009/04/23 11:04:35.9     266     87    126    280    307  71.8  26.2  34208  290.39 0855.22
2009/04/23 11:04:36.0     260     49    165    265    312  79.2  35.5  34208  290.37 0855.22
2009/04/23 11:04:36.1     215     36    183    219    285  80.3  43.8  34200  290.24 0855.22
2009/04/23 11:04:36.2     178     59    206    188    278  71.6  52.7  34212  290.44 0855.21
2009/04/23 11:04:36.3     105      4    207    106    232  87.4  70.8  34222  290.64 0855.21
2009/04/23 11:04:36.4      99     21    185    102    211  78.1  68.9  34216  290.53 0855.21
2009/04/23 11:04:36.5     102     50    182    114    214  63.8  64.7  34216  290.53 0855.21
2009/04/23 11:04:36.6      35     19    174     40    178  61.1  87.3  34224  290.67 0855.21
2009/04/23 11:04:36.7     108     36    187    114    219  71.6  66.0  34218  290.55 0855.21
2009/04/23 11:04:36.8     105     45    209    115    238  66.5  68.8  34216  290.53 0855.21
2009/04/23 11:04:36.9     -13    -25    116     29    119 207.2  85.9  34228  290.72 0855.21
2009/04/23 11:04:37.0     -75    -64    103     99    142 229.6  51.2  34224  290.67 0855.21
2009/04/23 11:04:37.1    -172    -36    121    176    213 258.1  37.6  34214  290.50 0855.21
2009/04/23 11:04:37.2    -148    -56     96    159    185 249.2  34.2  34224  290.65 0855.21
2009/04/23 11:04:37.3    -187   -122    128    224    257 236.7  32.3  34222  290.63 0855.21
2009/04/23 11:04:37.4    -139    -98    100    171    198 234.9  33.1  34220  290.58 0855.21
2009/04/23 11:04:37.5    -112   -128     74    171    186 221.2  24.9  34212  290.45 0855.21
2009/04/23 11:04:37.6     -81   -121     99    146    176 213.8  37.3  34212  290.47 0855.21
2009/04/23 11:04:37.7      -5   -134     90    135    162 182.2  37.0  34212  290.47 0855.21
2009/04/23 11:04:37.8     -50   -224     99    230    250 192.7  24.9  34210  290.42 0855.21
2009/04/23 11:04:37.9    -134   -271    122    303    326 206.3  23.2  34204  290.32 0855.21
2009/04/23 11:04:38.0    -160   -275     47    319    323 210.1   8.5  34198  290.22 0855.21
2009/04/23 11:04:38.1    -149   -325     40    358    361 204.6   6.5  34182  289.94 0855.21
2009/04/23 11:04:38.2     -94   -314     84    328    339 196.7  14.4  34188  290.06 0855.20
2009/04/23 11:04:38.3     -96   -299    140    315    344 197.8  25.7  34200  290.25 0855.20
2009/04/23 11:04:38.4     -64   -325    123    332    354 191.2  21.3  34188  290.03 0855.20
2009/04/23 11:04:38.5    -116   -338     87    358    369 198.9  13.7  34182  289.94 0855.20
2009/04/23 11:04:38.6      -9   -295    206    296    360 181.8  38.3  34202  290.27 0855.20
2009/04/23 11:04:38.7      11   -315    180    316    363 178.0  32.3  34198  290.23 0855.20
2009/04/23 11:04:38.8      28   -336    154    338    371 175.2  26.2  34198  290.23 0855.20
2009/04/23 11:04:38.9     -15   -283     97    284    301 183.1  18.9  34194  290.14 0855.20
2009/04/23 11:04:39.0      20   -264    110    265    286 175.6  23.8  34196  290.19 0855.20
2009/04/23 11:04:39.1     -43   -309    122    313    335 188.0  22.5  34192  290.10 0855.20
2009/04/23 11:04:39.2     -38   -342     88    345    357 186.5  14.3  34182  289.94 0855.20
2009/04/23 11:04:39.3      50   -366     60    370    376 172.2   9.3  34194  290.16 0855.20
2009/04/23 11:04:39.4      78   -330     60    340    346 166.6  10.0  34194  290.15 0855.20
2009/04/23 11:04:39.5       5   -341    -40    342    345 179.1  -6.8  34188  290.06 0855.20
2009/04/23 11:04:39.6     -48   -380    -23    384    385 187.2  -3.5  34174  289.82 0855.20
2009/04/23 11:04:39.7      85   -281    -75    294    304 163.1 -14.4  34190  290.09 0855.20
2009/04/23 11:04:39.8     -55   -319     17    324    325 189.9   3.1  34174  289.81 0855.20
2009/04/23 11:04:39.9     -64   -316     -1    323    324 191.6  -0.3  34180  289.92 0855.20
2009/04/23 11:04:40.0    -119   -324     -1    346    347 200.2  -0.3  34186  290.01 0855.20
2009/04/23 11:04:40.1     -23   -273     -1    275    276 184.9  -0.3  34180  289.90 0855.20
2009/04/23 11:04:40.2     -38   -278    -15    281    282 187.8  -3.1  34184  289.98 0855.18
2009/04/23 11:04:40.3     -41   -247    -60    251    259 189.6 -13.4  34186  290.02 0855.18
2009/04/23 11:04:40.4     -95   -266    -88    283    297 199.8 -17.3  34184  289.98 0855.18
2009/04/23 11:04:40.5     -81   -223    -77    238    251 200.0 -17.9  34186  290.02 0855.18
2009/04/23 11:04:40.6     -14   -188    -27    189    191 184.5  -8.2  34182  289.96 0855.18
2009/04/23 11:04:40.7     -22   -189    -44    191    197 186.9 -13.2  34184  289.99 0855.18
2009/04/23 11:04:40.8      32   -146    110    150    186 167.5  39.9  34182  289.96 0855.18
2009/04/23 11:04:40.9     -26   -208    100    210    232 187.3  27.3  34186  290.01 0855.18
2009/04/23 11:04:41.0     -88   -244     74    260    271 200.0  16.0  34182  289.95 0855.18
2009/04/23 11:04:41.1     -63   -197     62    207    217 197.8  16.6  34188  290.04 0855.18
2009/04/23 11:04:41.2    -101   -198     10    223    224 207.2   2.8  34196  290.19 0855.18
2009/04/23 11:04:41.3     -77   -285    -79    296    307 195.2 -15.0  34216  290.53 0855.18
2009/04/23 11:04:41.4    -120   -254      7    282    283 205.3   1.6  34214  290.48 0855.18
2009/04/23 11:04:41.5    -202   -202    -11    287    288 225.0  -2.2  34200  290.26 0855.18
2009/04/23 11:04:41.6    -188   -127    -40    228    232 235.9 -10.1  34202  290.30 0855.18
2009/04/23 11:04:41.7    -165   -172     -6    239    240 223.9  -1.6  34198  290.20 0855.18
2009/04/23 11:04:41.8    -163    -60    -45    174    180 249.8 -14.5  34212  290.45 0855.18
2009/04/23 11:04:41.9    -168     50    -75    176    191 286.6 -28.7  34208  290.40 0855.18
2009/04/23 11:04:42.0    -212     76    -94    226    244 289.7 -28.5  34218  290.54 0855.18
2009/04/23 11:04:42.1    -267     18    -97    268    285 273.9 -25.3  34200  290.24 0855.18
2009/04/23 11:04:42.2    -315    102     23    332    333 287.9   4.0  34190  290.08 0855.16
2009/04/23 11:04:42.3    -367     10     44    368    371 271.7   6.9  34204  290.33 0855.16
2009/04/23 11:04:42.4    -341    -39    -65    344    351 263.4 -10.8  34190  290.08 0855.16
2009/04/23 11:04:42.5    -447    107   -148    460    483 283.6 -23.0  34156  289.50 0855.16
2009/04/23 11:04:42.6    -411    192   -197    454    494 295.1 -29.4  34160  289.56 0855.16
2009/04/23 11:04:42.7    -336     41     81    339    349 277.0  13.6  34192  290.10 0855.16
2009/04/23 11:04:42.8    -200   -119    164    233    284 239.3  38.6  34188  290.05 0855.16
2009/04/23 11:04:42.9    -135   -219    184    258    316 211.6  39.1  34198  290.22 0855.16
2009/04/23 11:04:43.0     -77   -276    140    287    319 195.6  27.9  34196  290.19 0855.16
2009/04/23 11:04:43.1     -13   -284    125    285    311 182.7  25.2  34214  290.49 0855.16
2009/04/23 11:04:43.2     -58   -324    127    330    353 190.3  22.2  34224  290.67 0855.16
2009/04/23 11:04:43.3     -86   -305      0    318    319 195.8   0.1  34222  290.63 0855.16
2009/04/23 11:04:43.4    -160   -220    -10    273    274 216.1  -2.3  34222  290.61 0855.16
2009/04/23 11:04:43.5     -89   -301    109    315    334 196.5  19.2  34220  290.59 0855.16
2009/04/23 11:04:43.6    -161   -171    115    236    262 223.2  28.0  34222  290.63 0855.16
2009/04/23 11:04:43.7    -130    -91    -29    159    162 234.9 -10.5  34220  290.58 0855.16
2009/04/23 11:04:43.8     -67   -101   -115    122    167 213.8 -52.6  34218  290.57 0855.16
2009/04/23 11:04:43.9     -36   -116    -29    122    126 197.4 -13.4  34218  290.57 0855.16
2009/04/23 11:04:44.0     -15   -144     17    145    147 186.2   6.9  34210  290.43 0855.16
2009/04/23 11:04:44.1    -146   -176    -51    229    235 219.7 -12.6  34194  290.15 0855.16
2009/04/23 11:04:44.2    -247   -157    -53    293    298 237.5 -10.3  34198  290.20 0855.16
2009/04/23 11:04:44.3    -268   -175    -10    321    322 236.9  -1.8  34204  290.32 0855.16
2009/04/23 11:04:44.4    -225   -267      1    350    351 220.2   0.2  34162  289.60 0855.16
2009/04/23 11:04:44.5    -312   -129    -93    338    350 247.5 -20.0  34160  289.57 0855.16
2009/04/23 11:04:44.6    -289   -145    -10    324    325 243.4  -1.9  34200  290.26 0855.16
2009/04/23 11:04:44.7    -330   -198     46    386    389 239.0   6.9  34176  289.84 0855.16
2009/04/23 11:04:44.8    -412   -136    -28    434    435 251.7  -3.8  34162  289.61 0855.16
2009/04/23 11:04:44.9    -387   -131     23    409    410 251.3   3.3  34166  289.66 0855.16
2009/04/23 11:04:45.0    -450   -134    -45    470    473 253.4  -5.5  34126  288.98 0855.16
2009/04/23 11:04:45.1    -430   -128    -75    449    456 253.3  -9.5  34124  288.97 0855.16
2009/04/23 11:04:45.2    -435   -116    -60    451    455 255.0  -7.6  34144  289.29 0855.16
2009/04/23 11:04:45.3    -443    -99    -86    454    463 257.4 -10.8  34130  289.07 0855.16
2009/04/23 11:04:45.4    -460   -108    -80    473    480 256.7  -9.7  34142  289.28 0855.16
2009/04/23 11:04:45.5    -455   -189      3    493    494 247.4   0.4  34190  290.08 0855.16
2009/04/23 11:04:45.6    -359   -195    -37    409    411 241.4  -5.2  34164  289.65 0855.16
2009/04/23 11:04:45.7    -383   -182    -54    425    429 244.6  -7.3  34166  289.66 0855.16
2009/04/23 11:04:45.8    -349   -135    -68    375    382 248.8 -10.3  34178  289.87 0855.16
2009/04/23 11:04:45.9    -439   -147   -114    464    478 251.4 -13.9  34156  289.52 0855.16
2009/04/23 11:04:46.0    -326   -290      1    437    438 228.3   0.2  34200  290.26 0855.16
2009/04/23 11:04:46.1    -272   -184    -30    329    331 235.9  -5.3  34218  290.55 0855.16
2009/04/23 11:04:46.3    -233   -210     33    314    316 228.0   6.1  34206  290.36 0855.16
2009/04/23 11:04:46.3    -266   -168     57    315    321 237.6  10.3  34216  290.53 0855.16
2009/04/23 11:04:46.4    -207   -194     14    284    285 226.9   2.9  34206  290.36 0855.16
2009/04/23 11:04:46.6    -270   -130    -54    300    305 244.2 -10.4  34176  289.85 0855.16
2009/04/23 11:04:46.7    -254   -184     18    315    316 234.0   3.3  34202  290.27 0855.16
2009/04/23 11:04:46.8    -250   -198    -22    320    321 231.6  -4.0  34164  289.64 0855.16
2009/04/23 11:04:46.9    -196   -175     -8    263    264 228.2  -1.8  34180  289.90 0855.16
2009/04/23 11:04:47.0    -196   -153     16    249    250 232.0   3.8  34182  289.93 0855.16
2009/04/23 11:04:47.1    -230   -142    -36    271    274 238.2  -7.7  34168  289.71 0855.16
2009/04/23 11:04:47.2    -138   -149    -75    204    217 222.8 -25.4  34154  289.46 0855.16
2009/04/23 11:04:47.3    -211   -125   -122    246    274 239.4 -32.6  34138  289.20 0855.16
2009/04/23 11:04:47.4    -202   -123   -101    237    257 238.7 -28.7  34142  289.27 0855.16
2009/04/23 11:04:47.5    -127   -112   -119    170    207 228.7 -42.8  34140  289.23 0855.16
2009/04/23 11:04:47.6    -126   -112   -127    169    211 228.2 -45.3  34136  289.16 0855.16
2009/04/23 11:04:47.7    -144    -79    -82    165    184 241.1 -32.6  34138  289.21 0855.16
2009/04/23 11:04:47.8    -112     -9    -60    113    127 265.2 -34.2  34142  289.28 0855.16
2009/04/23 11:04:47.9     -71    -97    -74    121    141 216.1 -38.8  34138  289.21 0855.16
2009/04/23 11:04:48.0    -119   -137   -102    182    208 221.0 -36.0  34136  289.16 0855.16
2009/04/23 11:04:48.1     -49   -180    -84    187    205 195.4 -30.3  34134  289.14 0855.16
2009/04/23 11:04:48.2     -35   -130    -54    135    145 195.2 -27.4  34138  289.21 0855.16
2009/04/23 11:04:48.3     -47   -101    -53    112    123 205.3 -31.5  34142  289.28 0855.16
2009/04/23 11:04:48.4       0    -86    -47     87     98 180.4 -35.7  34142  289.28 0855.16
2009/04/23 11:04:48.5      -4    -60    -59     61     84 184.4 -54.4  34146  289.33 0855.16
2009/04/23 11:04:48.6      13    -54    -70     56     89 165.7 -61.3  34146  289.35 0855.16
2009/04/23 11:04:48.7       0    -43    -57     44     72 180.9 -61.9  34150  289.41 0855.16
2009/04/23 11:04:48.8     -54    -40    -51     68     85 233.1 -45.1  34148  289.38 0855.16
2009/04/23 11:04:48.9     -86    -55    -26    103    107 237.6 -14.5  34144  289.30 0855.16
2009/04/23 11:04:49.0     -50    -82    -12     97     98 211.6  -7.2  34142  289.26 0855.16
2009/04/23 11:04:49.1     -15    -62     -3     64     65 194.3  -3.2  34140  289.24 0855.16
2009/04/23 11:04:49.2       2    -31     17     32     36 175.5  29.3  34146  289.35 0855.16
2009/04/23 11:04:49.3      11     -1     -4     12     12  97.9 -23.6  34146  289.33 0855.17
2009/04/23 11:04:49.4     -19      5    -33     20     38 286.8 -69.1  34146  289.35 0855.17
2009/04/23 11:04:49.5     -53    -28    -62     61     86 242.0 -54.1  34146  289.35 0855.17
2009/04/23 11:04:49.6     -77    -16    -88     79    118 257.6 -57.7  34142  289.26 0855.17
2009/04/23 11:04:49.7    -101     -7   -112    102    151 265.6 -56.6  34150  289.40 0855.17
2009/04/23 11:04:49.8     -68     23   -113     72    133 289.1 -69.1  34150  289.40 0855.17
2009/04/23 11:04:49.9    -102     13    -46    103    112 277.5 -30.1  34144  289.30 0855.17
2009/04/23 11:04:50.0     -79     42      6     90     91 298.0   3.8  34146  289.35 0855.17
2009/04/23 11:04:50.1     -68     54     11     88     89 308.6   7.5  34152  289.45 0855.17
2009/04/23 11:04:50.2     -54     57     57     79     97 316.7  39.7  34166  289.69 0855.17
2009/04/23 11:04:50.3     -65     41     -3     77     78 302.4  -2.2  34160  289.58 0855.17
2009/04/23 11:04:50.4     -70     49    -26     86     90 305.5 -17.0  34160  289.58 0855.17
2009/04/23 11:04:50.5     -42     50      0     66     67 320.4   0.8  34164  289.63 0855.17
2009/04/23 11:04:50.6     -26     38      4     47     48 325.7   5.9  34164  289.63 0855.17
2009/04/23 11:04:50.7     -13     21     -1     26     27 327.5  -2.2  34166  289.67 0855.17
2009/04/23 11:04:50.8      -4      7     -5      9     10 327.5 -35.8  34162  289.60 0855.17
2009/04/23 11:04:50.9      24      0    -10     25     26  89.2 -25.4  34164  289.63 0855.17
2009/04/23 11:04:51.0      23     19     -7     30     31  50.4 -13.4  34162  289.60 0855.17
2009/04/23 11:04:51.1       4     23     18     24     30   9.8  41.7  34166  289.67 0855.17
2009/04/23 11:04:51.2      -6     21     -4     22     23 343.1 -11.3  34162  289.60 0855.17
2009/04/23 11:04:51.3     -13     43    -10     45     47 343.1 -12.4  34162  289.60 0855.16
2009/04/23 11:04:51.4     -27     77     -9     82     83 340.4  -6.7  34156  289.52 0855.16
2009/04/23 11:04:51.5      -1     84     -3     85     86 359.1  -2.2  34152  289.45 0855.16
2009/04/23 11:04:51.6     -24    101    -30    104    109 346.6 -16.0  34152  289.45 0855.16
2009/04/23 11:04:51.7     -67     77    -56    103    117 319.0 -35.7  34154  289.48 0855.16
2009/04/23 11:04:51.8     -65     78    -35    102    107 320.4 -23.3  34154  289.46 0855.16
2009/04/23 11:04:51.9     -60     73    -30     95     99 320.4 -22.8  34152  289.45 0855.16
2009/04/23 11:04:52.0     -61     35    -34     71     78 299.8 -31.6  34150  289.40 0855.16
2009/04/23 11:04:52.1    -114     19    -48    116    125 279.7 -28.0  34140  289.24 0855.16
2009/04/23 11:04:52.2     -74     43    -60     86    104 300.2 -43.0  34142  289.26 0855.16
2009/04/23 11:04:52.3     -78     35    -84     86    120 294.4 -54.4  34144  289.30 0855.16
2009/04/23 11:04:52.4    -123     13    -77    124    145 276.1 -39.9  34140  289.24 0855.16
2009/04/23 11:04:52.5    -158     39   -111    163    197 284.2 -42.0  34140  289.24 0855.16
2009/04/23 11:04:52.6    -102     48   -136    113    176 295.4 -60.7  34142  289.28 0855.16
2009/04/23 11:04:52.7    -132     30   -134    136    190 283.2 -54.4  34144  289.30 0855.16
2009/04/23 11:04:52.8    -170     50   -164    178    242 286.4 -52.1  34150  289.40 0855.16
2009/04/23 11:04:52.9    -135     42   -171    142    222 287.3 -60.7  34150  289.40 0855.16
2009/04/23 11:04:53.0    -138     23   -208    140    250 279.7 -67.6  34158  289.55 0855.16
2009/04/23 11:04:53.1    -118     -8   -196    119    229 265.7 -70.4  34174  289.82 0855.16
2009/04/23 11:04:53.2    -118    -36   -178    124    216 253.1 -66.2  34186  290.02 0855.16
2009/04/23 11:04:53.3    -167    -30   -226    170    282 259.6 -63.8  34162  289.59 0855.16
2009/04/23 11:04:53.4    -131    -44   -207    139    249 251.4 -67.6  34142  289.26 0855.16
2009/04/23 11:04:53.5    -172    -52   -230    180    292 252.9 -62.6  34146  289.32 0855.16
2009/04/23 11:04:53.6    -140    -83   -184    163    245 239.3 -58.6  34148  289.38 0855.16
2009/04/23 11:04:53.7      -1     22   -161     23    162 357.3 -90.0  34156  289.52 0855.16
2009/04/23 11:04:53.8    -104    -41   -199    112    228 248.3 -72.9  34178  289.89 0855.16
2009/04/23 11:04:53.9     -77     10   -184     78    199 277.9 -79.9  34180  289.91 0855.16
2009/04/23 11:04:54.0      -1     29   -147     30    150 357.3 -90.0  34164  289.63 0855.16
2009/04/23 11:04:54.1     -18     17   -212     26    213 313.1 -90.0  34184  289.99 0855.16
2009/04/23 11:04:54.2     -83    -21   -214     86    230 255.4 -81.5  34190  290.08 0855.16
2009/04/23 11:04:54.3     -91     -4   -211     92    230 267.4 -79.4  34178  289.89 0855.16
2009/04/23 11:04:54.4    -182    -15   -257    183    315 265.0 -65.6  34178  289.86 0855.16
2009/04/23 11:04:54.5    -149    -37   -249    154    292 255.8 -69.5  34174  289.81 0855.16
2009/04/23 11:04:54.6     -74    -13   -173     76    188 259.4 -79.4  34190  290.08 0855.16
2009/04/23 11:04:54.7      -7     -2   -127      8    127 251.6 -90.0  34196  290.19 0855.16
2009/04/23 11:04:54.8     -58    -11   -136     60    148 258.6 -79.3  34190  290.08 0855.16
2009/04/23 11:04:54.9      12     11   -164     17    164  46.9 -90.0  34186  290.02 0855.16
2009/04/23 11:04:55.0      60     28   -113     67    131  64.8 -71.1  34196  290.19 0855.16
2009/04/23 11:04:55.1     -37     -7   -139     38    144 258.5 -89.2  34186  290.01 0855.16
2009/04/23 11:04:55.2      49     35   -148     61    160  54.9 -81.0  34194  290.16 0855.16
2009/04/23 11:04:55.3      92     -7   -156     93    181  94.4 -71.2  34200  290.26 0855.15
2009/04/23 11:04:55.4      53     74   -160     92    184  35.6 -71.9  34204  290.31 0855.15
2009/04/23 11:04:55.5      51    109   -196    121    230  25.3 -69.5  34198  290.23 0855.15
2009/04/23 11:04:55.6     -98    -41   -228    107    251 246.9 -77.5  34192  290.11 0855.15
2009/04/23 11:04:55.7     -78    -49   -262     93    278 237.6 -84.1  34188  290.03 0855.15
2009/04/23 11:04:55.8       2    -40   -211     41    214 176.4 -90.0  34184  289.97 0855.15
2009/04/23 11:04:55.9      -5     23   -142     24    144 346.6 -90.0  34200  290.26 0855.15
2009/04/23 11:04:56.0      58    -30   -119     66    136 118.0 -73.2  34196  290.19 0855.15
2009/04/23 11:04:56.1      63     41    -61     76     97  56.7 -47.7  34200  290.25 0855.15
2009/04/23 11:04:56.2       1    -12    -59     13     60 172.0 -90.0  34202  290.28 0855.15
2009/04/23 11:04:56.3     -17    -51    -35     54     64 198.7 -40.0  34198  290.21 0855.15
2009/04/23 11:04:56.4       2     -9      8     10     12 168.4  47.9  34194  290.14 0855.15
2009/04/23 11:04:56.5      39    -14     65     42     77 110.8  64.6  34202  290.30 0855.15
2009/04/23 11:04:56.6     125   -141     36    189    193 138.3  11.0  34198  290.23 0855.15
2009/04/23 11:04:56.7     119   -119      2    169    170 134.8   1.0  34196  290.18 0855.15
2009/04/23 11:04:56.8     113    -68     40    133    139 121.1  16.8  34196  290.19 0855.15
2009/04/23 11:04:56.9      87    -47     85     99    130 118.4  45.4  34186  290.01 0855.15
2009/04/23 11:04:57.0     -13    -28    150     31    153 205.3  89.0  34214  290.48 0855.15
2009/04/23 11:04:57.1     -81    -53    189     97    212 236.7  70.8  34210  290.43 0855.15
2009/04/23 11:04:57.2     -41    -63    156     76    173 213.4  72.4  34208  290.40 0855.15
2009/04/23 11:04:57.3    -143   -105    150    178    232 233.8  44.1  34206  290.35 0855.15
2009/04/23 11:04:57.4     -13   -128    149    129    197 186.2  54.6  34202  290.30 0855.15
2009/04/23 11:04:57.5      22    -66    130     70    147 161.3  68.9  34204  290.31 0855.15
2009/04/23 11:04:57.6    -146   -115    162    186    246 231.8  45.6  34202  290.30 0855.15
2009/04/23 11:04:57.7     -56    -63    157     85    178 221.4  69.1  34194  290.16 0855.15
2009/04/23 11:04:57.8     -12   -115    138    116    180 186.2  55.8  34202  290.30 0855.15
2009/04/23 11:04:57.9    -158   -111     76    194    208 234.9  22.5  34188  290.06 0855.15
2009/04/23 11:04:58.0    -231    -51     87    237    252 257.4  21.0  34186  290.02 0855.15
2009/04/23 11:04:58.1    -215    -77     69    229    240 250.1  16.8  34186  290.00 0855.15
2009/04/23 11:04:58.2    -239    -63     94    248    265 255.2  22.0  34194  290.14 0855.15
2009/04/23 11:04:58.3    -122    -49    106    132    169 248.2  43.3  34198  290.21 0855.15
2009/04/23 11:04:58.4     -62    -78    120    100    156 218.7  55.8  34198  290.23 0855.15
2009/04/23 11:04:58.5     -84     84     19    120    122 315.1   9.0  34200  290.26 0855.15
2009/04/23 11:04:58.6      22     47    -17     53     55  25.5 -23.8  34194  290.16 0855.15
2009/04/23 11:04:58.7      38      7    -16     39     42  78.6 -27.4  34192  290.13 0855.15
2009/04/23 11:04:58.8      40    -14     -3     43     44 110.0  -5.2  34190  290.08 0855.15
2009/04/23 11:04:58.9     -18    -35     26     40     47 207.2  35.6  34192  290.13 0855.15
2009/04/23 11:04:59.0     -42    -38     14     58     60 227.8  14.3  34194  290.14 0855.15
2009/04/23 11:04:59.1     -13     21     -7     25     25 327.5 -21.7  34196  290.18 0855.15
2009/04/23 11:04:59.2      14     62    -55     64     84  13.4 -50.2  34198  290.21 0855.15
2009/04/23 11:04:59.3     -20     32    -55     38     66 327.4 -67.0  34198  290.23 0855.14
2009/04/23 11:04:59.4      -1     31    -34     32     46 357.3 -54.5  34196  290.19 0855.14
2009/04/23 11:04:59.5     -45      8    -52     46     69 280.6 -57.7  34194  290.16 0855.14
2009/04/23 11:04:59.6     -57    -22    -54     62     82 248.3 -50.2  34196  290.18 0855.14
2009/04/23 11:04:59.7     -24     -1    -22     25     33 265.6 -50.2  34200  290.25 0855.14
2009/04/23 11:04:59.8     -12     14     -6     19     19 318.6 -23.8  34198  290.21 0855.14
2009/04/23 11:04:59.9      -8     29      7     31     32 344.9  13.2  34200  290.26 0855.14
2009/04/23 11:05:00.0      35     11     51     37     63  71.8  60.5  34202  290.30 0855.14
2009/04/23 11:05:00.1       0    -13     67     14     68 182.7  89.0  34210  290.43 0855.14
2009/04/23 11:05:00.2      23      0     94     24     97  89.2  85.4  34224  290.67 0855.14
2009/04/23 11:05:00.3      -1     -4     93      5     93 198.5  90.0  34228  290.72 0855.14
2009/04/23 11:05:00.4      66    -26    121     72    140 111.7  66.8  34214  290.48 0855.14
2009/04/23 11:05:00.5     -18   -179    137    180    226 186.0  41.4  34196  290.18 0855.14
2009/04/23 11:05:00.6     -41   -153    125    159    202 195.1  42.0  34198  290.21 0855.14
2009/04/23 11:05:00.7     -19   -163    134    165    212 186.9  43.7  34196  290.19 0855.14
2009/04/23 11:05:00.8      -7   -239     83    240    255 181.8  19.2  34188  290.05 0855.14
2009/04/23 11:05:00.9     -17   -219     77    220    234 184.7  19.4  34182  289.94 0855.14
2009/04/23 11:05:01.0      15   -244     85    245    260 176.4  19.2  34178  289.88 0855.14
2009/04/23 11:05:01.1      15   -183    119    184    219 175.1  35.7  34178  289.87 0855.14
2009/04/23 11:05:01.2      89   -221    107    239    261 158.1  25.7  34180  289.90 0855.14
2009/04/23 11:05:01.3      43   -248     79    252    265 170.0  17.4  34176  289.85 0855.14
2009/04/23 11:05:01.4      -3   -226     35    227    230 180.9   9.0  34180  289.91 0855.14
2009/04/23 11:05:01.5     -20   -247      3    248    249 184.7   0.7  34172  289.78 0855.14
2009/04/23 11:05:01.6     -93   -223     47    242    247 202.7  11.1  34176  289.85 0855.14
2009/04/23 11:05:01.7     -34   -212     77    215    228 189.3  20.4  34178  289.87 0855.14
2009/04/23 11:05:01.8     -29   -212      3    215    216 188.0   0.8  34180  289.91 0855.14
2009/04/23 11:05:01.9     -72   -223     73    235    247 197.9  17.3  34176  289.83 0855.14
2009/04/23 11:05:02.0    -121   -306     66    330    337 201.6  11.4  34174  289.82 0855.14
2009/04/23 11:05:02.1    -145   -333    -14    364    365 203.6  -2.2  34164  289.64 0855.14
2009/04/23 11:05:02.2    -172   -322    -12    366    367 208.1  -1.9  34172  289.76 0855.14
2009/04/23 11:05:02.3    -208   -194    -34    285    288 226.9  -6.9  34188  290.03 0855.14
2009/04/23 11:05:02.4    -284   -217     27    358    359 232.6   4.3  34196  290.18 0855.14
2009/04/23 11:05:02.5    -251   -119     14    278    279 244.6   2.9  34192  290.10 0855.14
2009/04/23 11:05:02.6    -273    -73    -13    283    284 254.9  -2.8  34192  290.12 0855.14
2009/04/23 11:05:02.7    -175    -84    -27    195    197 244.2  -8.0  34194  290.16 0855.14
2009/04/23 11:05:02.8    -167   -131     83    213    228 231.8  22.5  34210  290.43 0855.14
2009/04/23 11:05:02.9    -176   -143    173    228    286 230.9  40.9  34220  290.58 0855.14
2009/04/23 11:05:03.0    -104   -134    156    170    230 217.8  47.7  34196  290.18 0855.14
2009/04/23 11:05:03.1    -121   -116    162    168    233 226.2  49.2  34178  289.89 0855.14
2009/04/23 11:05:03.2    -213     16    166    214    270 274.4  41.7  34224  290.66 0855.14
2009/04/23 11:05:03.3    -246    -26    119    248    275 263.9  27.3  34232  290.80 0855.14
2009/04/23 11:05:03.4    -239    -33     84    242    257 262.0  19.2  34230  290.75 0855.14
2009/04/23 11:05:03.5    -164    -14     21    165    167 264.8   7.5  34204  290.33 0855.14
2009/04/23 11:05:03.6    -103     38    -38    110    117 290.4 -19.1  34198  290.23 0855.14
2009/04/23 11:05:03.7    -119     12   -110    120    162 276.1 -52.1  34192  290.13 0855.14
2009/04/23 11:05:03.8    -133     34    -27    138    141 284.6 -11.3  34182  289.96 0855.14
2009/04/23 11:05:03.9    -133     14    -24    134    137 276.1 -10.3  34198  290.21 0855.14
2009/04/23 11:05:04.0    -149      4      0    150    151 271.7   0.2  34196  290.18 0855.14
2009/04/23 11:05:04.1    -133    -63     36    148    153 244.6  13.7  34198  290.21 0855.14
2009/04/23 11:05:04.2    -137    -65     64    152    164 244.6  24.1  34208  290.40 0855.14
2009/04/23 11:05:04.3    -173    -51    -27    181    184 253.6  -8.6  34196  290.18 0855.13
2009/04/23 11:05:04.4    -176    -64    -36    188    192 249.8 -10.9  34190  290.09 0855.13
2009/04/23 11:05:04.5    -158    -39    -27    163    166 256.1  -9.6  34214  290.48 0855.13
2009/04/23 11:05:04.6    -143    -42     -3    150    151 253.6  -1.3  34198  290.21 0855.13
2009/04/23 11:05:04.7    -131    -62    -40    145    151 244.6 -15.4  34198  290.21 0855.13
2009/04/23 11:05:04.8    -161    -69    -34    176    180 246.9 -11.1  34220  290.58 0855.13
2009/04/23 11:05:04.9    -204     22     -8    206    207 276.2  -2.2  34222  290.64 0855.13
2009/04/23 11:05:05.0    -182     42     47    187    193 283.0  14.3  34206  290.36 0855.13
2009/04/23 11:05:05.1    -169     28     66    172    184 279.7  22.0  34198  290.21 0855.13
2009/04/23 11:05:05.2    -175     22     77    177    193 277.2  24.9  34194  290.16 0855.13
2009/04/23 11:05:05.3    -163    -28     83    166    185 260.1  28.5  34200  290.25 0855.13
2009/04/23 11:05:05.4     -23     49    126     55    137 334.6  75.0  34224  290.67 0855.13
2009/04/23 11:05:05.5    -135    114     90    177    198 310.2  29.2  34180  289.92 0855.13
2009/04/23 11:05:05.6    -122    124     93    174    197 315.5  30.6  34182  289.96 0855.13
2009/04/23 11:05:05.7    -109    109     92    155    180 315.0  33.5  34186  290.01 0855.13
2009/04/23 11:05:05.8    -117     91    115    149    188 307.8  41.7  34186  290.02 0855.13
2009/04/23 11:05:05.9     -91     50    107    105    149 298.9  50.1  34190  290.09 0855.13
2009/04/23 11:05:06.0     -69    110     98    130    162 327.9  40.7  34180  289.91 0855.13
2009/04/23 11:05:06.1     -73    100     31    124    128 323.9  14.3  34180  289.92 0855.13
2009/04/23 11:05:06.2     -63     92     68    112    131 325.3  34.4  34188  290.04 0855.13
2009/04/23 11:05:06.3      17      9    103     20    104  62.9  89.6  34208  290.40 0855.14
2009/04/23 11:05:06.4       2     31     91     32     96   4.4  81.2  34204  290.33 0855.14
2009/04/23 11:05:06.5      15     21     73     26     77  36.1  81.2  34210  290.43 0855.14
2009/04/23 11:05:06.6       0    112     87    113    142 359.6  41.7  34202  290.28 0855.14
2009/04/23 11:05:06.7     -23     96     45     99    108 346.2  26.6  34192  290.11 0855.14
2009/04/23 11:05:06.8     -63    173     75    185    199 340.0  23.4  34190  290.08 0855.14
2009/04/23 11:05:06.9     -46    137     31    145    149 341.3  12.2  34190  290.08 0855.14
2009/04/23 11:05:07.0      41     98     88    107    138  22.7  43.7  34196  290.18 0855.14
2009/04/23 11:05:07.1      44     25     92     51    105  60.2  68.8  34206  290.35 0855.14
2009/04/23 11:05:07.2      91     12    143     92    170  82.1  64.6  34204  290.31 0855.14
2009/04/23 11:05:07.3      65    109    134    127    184  30.8  51.6  34188  290.04 0855.14
2009/04/23 11:05:07.4     104     67     93    124    155  57.1  40.1  34194  290.14 0855.14
2009/04/23 11:05:07.5     159     79     80    178    195  63.6  26.2  34182  289.96 0855.14
2009/04/23 11:05:07.6     159     90     60    183    193  60.5  18.4  34180  289.91 0855.14
2009/04/23 11:05:07.7     188     96    -16    212    213  62.9  -4.4  34178  289.87 0855.14
2009/04/23 11:05:07.8     169     30     33    172    176  79.9  11.1  34184  289.97 0855.14
2009/04/23 11:05:07.9     175    -11     42    176    182  93.7  13.5  34184  289.99 0855.14
2009/04/23 11:05:08.0     170    -29      7    173    174  99.7   2.5  34184  289.97 0855.14
2009/04/23 11:05:08.1     208      0    -18    209    210  89.9  -5.2  34180  289.91 0855.14
2009/04/23 11:05:08.2     251     28     49    253    258  83.4  11.0  34184  289.97 0855.14
2009/04/23 11:05:08.3     231     48     96    237    255  78.1  23.1  34186  290.02 0855.13
2009/04/23 11:05:08.4     192     14     53    193    201  85.6  15.6  34186  290.01 0855.13
2009/04/23 11:05:08.5     186     -7     67    187    198  92.4  20.7  34182  289.96 0855.13
2009/04/23 11:05:08.6     197    -45     70    203    215 103.0  19.2  34186  290.02 0855.13
2009/04/23 11:05:08.7     176    -43    148    182    234 103.9  43.5  34190  290.09 0855.13
2009/04/23 11:05:08.8     195    -60    163    205    261 107.3  42.7  34192  290.12 0855.13
2009/04/23 11:05:08.9     213    -70    123    225    256 108.2  31.3  34190  290.09 0855.13
2009/04/23 11:05:09.0     176    -47    218    183    284 105.1  56.1  34196  290.17 0855.13
2009/04/23 11:05:09.1     108    -50    123    120    171 114.8  50.7  34196  290.18 0855.13
2009/04/23 11:05:09.2     179    -22    163    181    243  97.2  46.9  34196  290.18 0855.13
2009/04/23 11:05:09.3      86     50     54    100    113  59.8  31.3  34190  290.09 0855.13
2009/04/23 11:05:09.4     109    -12     82    110    137  96.6  40.7  34200  290.25 0855.13
2009/04/23 11:05:09.5     176      0    107    177    206  89.9  34.2  34190  290.09 0855.13
2009/04/23 11:05:09.6     227    -45    192    232    301 101.4  43.8  34190  290.07 0855.13
2009/04/23 11:05:09.7     227   -119     98    257    275 117.8  22.0  34190  290.07 0855.13
2009/04/23 11:05:09.8     224    -99     47    246    251 114.0  11.0  34204  290.31 0855.13
2009/04/23 11:05:09.9     211    -87     51    229    235 112.6  12.6  34206  290.34 0855.13
2009/04/23 11:05:10.0     245    -60    102    253    272 103.9  23.0  34208  290.39 0855.13
2009/04/23 11:05:10.1     253    -87    115    268    291 109.0  24.9  34204  290.31 0855.13
2009/04/23 11:05:10.2     276    -84     98    289    306 106.9  18.8  34210  290.42 0855.13
2009/04/23 11:05:10.3     219    -78    127    233    265 109.7  31.0  34206  290.34 0855.15
2009/04/23 11:05:10.4     264   -112    148    288    323 113.1  29.3  34210  290.41 0855.15
2009/04/23 11:05:10.5     203    -81    105    219    242 111.8  27.4  34208  290.37 0855.15
2009/04/23 11:05:10.6     225   -123     40    257    261 118.8   8.9  34212  290.44 0855.15
2009/04/23 11:05:10.7     176    -80    109    194    222 114.6  31.6  34198  290.21 0855.15
2009/04/23 11:05:10.8     186   -107    120    215    246 120.0  31.6  34204  290.31 0855.15
2009/04/23 11:05:10.9      64   -162    108    175    205 158.4  34.8  34224  290.65 0855.15
2009/04/23 11:05:11.0      76   -219    102    232    253 160.8  25.3  34234  290.82 0855.15
2009/04/23 11:05:11.1     102   -190    134    216    254 151.7  35.0  34228  290.73 0855.15
2009/04/23 11:05:11.2      69   -146    106    162    193 154.7  35.7  34220  290.60 0855.15
2009/04/23 11:05:11.3       3   -149    107    150    184 178.6  39.1  34234  290.82 0855.15
2009/04/23 11:05:11.4       3   -227    159    228    277 179.0  38.4  34246  291.02 0855.15
2009/04/23 11:05:11.5     -48   -261    142    266    301 190.6  30.6  34252  291.14 0855.15
2009/04/23 11:05:11.6     -63   -299    139    306    336 192.0  26.0  34248  291.05 0855.15
2009/04/23 11:05:11.7     -76   -299     45    309    313 194.3   8.3  34254  291.16 0855.15
2009/04/23 11:05:11.8     -89   -269     41    284    287 198.5   8.2  34234  290.83 0855.15
2009/04/23 11:05:11.9     -66   -250     38    259    262 194.9   8.5  34218  290.56 0855.15
2009/04/23 11:05:12.0     -18   -264     37    265    268 184.0   8.0  34220  290.58 0855.15
2009/04/23 11:05:12.1      34   -279     44    282    286 172.9   8.9  34218  290.56 0855.15
2009/04/23 11:05:12.3     -23   -252    100    254    272 185.3  22.8  34228  290.73 0855.15
2009/04/23 11:05:12.3      17   -229     83    230    245 175.6  19.9  34224  290.66 0855.14
2009/04/23 11:05:12.4      33   -208     76    211    224 170.9  20.4  34228  290.72 0855.14
2009/04/23 11:05:12.5      14   -183     65    184    195 175.5  20.0  34224  290.65 0855.14
2009/04/23 11:05:12.6      54   -173     65    182    193 162.4  20.0  34220  290.60 0855.14
2009/04/23 11:05:12.7      59   -175     88    185    204 161.3  27.2  34202  290.30 0855.14
2009/04/23 11:05:12.8      71   -185     61    199    209 159.1  17.1  34188  290.04 0855.14
2009/04/23 11:05:13.0      70   -197     75    210    222 160.4  20.2  34188  290.04 0855.14
2009/04/23 11:05:13.0      73   -227    100    239    259 162.2  23.8  34210  290.41 0855.14
2009/04/23 11:05:13.1      65   -206    120    217    247 162.4  31.4  34200  290.24 0855.14
2009/04/23 11:05:13.3      80   -190    146    207    253 157.1  38.6  34196  290.19 0855.14
2009/04/23 11:05:13.4      65   -210    143    220    262 162.8  35.7  34198  290.22 0855.14
2009/04/23 11:05:13.5     101   -203    126    227    259 153.5  31.4  34192  290.12 0855.14
2009/04/23 11:05:13.6      75   -225    139    238    275 161.5  33.1  34202  290.29 0855.14
2009/04/23 11:05:13.7     110   -199    152    228    274 151.1  37.0  34214  290.49 0855.14
2009/04/23 11:05:13.8     153   -167    150    227    272 137.5  36.5  34202  290.29 0855.14
2009/04/23 11:05:13.9     122   -172    107    212    237 144.6  29.1  34238  290.91 0855.14
2009/04/23 11:05:14.0     131   -172    122    217    248 142.8  31.9  34212  290.46 0855.14
2009/04/23 11:05:14.1      68   -152    136    167    215 155.9  43.7  34236  290.86 0855.14
2009/04/23 11:05:14.2      13   -178    166    179    244 175.5  47.9  34262  291.30 0855.14
2009/04/23 11:05:14.3     -63   -119    111    135    174 208.1  43.7  34262  291.32 0855.14
2009/04/23 11:05:14.4     -62   -185    157    196    251 198.5  42.8  34264  291.34 0855.10
2009/04/23 11:05:14.5     -65   -138    180    153    236 205.4  55.4  34272  291.49 0855.10
2009/04/23 11:05:14.6    -175   -103     70    204    216 239.6  18.9  34262  291.30 0855.10
2009/04/23 11:05:14.7    -115    -77     22    139    141 235.9   9.0  34264  291.33 0855.10
2009/04/23 11:05:14.8    -147     18    -69    149    164 277.0 -31.0  34242  290.98 0855.10
2009/04/23 11:05:14.9     -62    -58    -54     85    100 226.9 -39.9  34240  290.94 0855.10
2009/04/23 11:05:15.0     -67    -98      6    119    120 214.3   2.9  34238  290.91 0855.10
2009/04/23 11:05:15.1     -31    -24     45     40     60 232.2  53.3  34250  291.09 0855.10
2009/04/23 11:05:15.2    -103    -23     77    106    131 257.2  39.7  34270  291.43 0855.10
2009/04/23 11:05:15.3    -114    -75     48    137    146 236.7  19.4  34274  291.52 0855.10
2009/04/23 11:05:15.4    -124    -67     41    141    147 241.6  16.3  34274  291.50 0855.10
2009/04/23 11:05:15.5     -61    -44     31     76     82 234.0  23.0  34280  291.62 0855.10
2009/04/23 11:05:15.6     -33    -19     41     39     56 239.3  50.1  34290  291.79 0855.10
2009/04/23 11:05:15.7       4     12     31     13     33  18.7  77.1  34294  291.84 0855.10
2009/04/23 11:05:15.8      25    -30     41     40     57 140.4  49.1  34286  291.72 0855.10
2009/04/23 11:05:15.9       8    -69     40     70     80 172.9  32.4  34272  291.47 0855.10
2009/04/23 11:05:16.0     -53   -133     -3    144    145 201.8  -1.3  34268  291.42 0855.10
2009/04/23 11:05:16.1    -120    -94     59    153    163 231.8  22.0  34268  291.42 0855.10
2009/04/23 11:05:16.2    -125    -91     41    155    161 234.0  15.0  34272  291.47 0855.10
2009/04/23 11:05:16.3    -153   -131     43    202    207 229.3  12.0  34286  291.72 0855.10
2009/04/23 11:05:16.4    -175   -164     33    240    243 226.9   8.0  34286  291.70 0855.05
2009/04/23 11:05:16.5    -152   -179     95    236    254 220.3  23.0  34252  291.14 0855.05
2009/04/23 11:05:16.6     -98   -130     56    164    174 217.0  18.9  34248  291.06 0855.05
2009/04/23 11:05:16.7     -71   -112     39    133    139 212.6  16.3  34248  291.08 0855.05
2009/04/23 11:05:16.8     -63   -134    115    149    188 205.3  41.7  34210  290.41 0855.05
2009/04/23 11:05:16.9     -65   -131    127    147    194 206.3  45.1  34204  290.31 0855.05
2009/04/23 11:05:17.0     -73   -146    107    164    195 206.7  36.3  34208  290.40 0855.05
2009/04/23 11:05:17.1     -56   -146     95    157    183 200.9  34.4  34216  290.53 0855.05
2009/04/23 11:05:17.2     -74   -132     74    152    169 209.4  27.8  34212  290.47 0855.05
2009/04/23 11:05:17.3     -66   -103     72    123    142 212.6  32.9  34220  290.60 0855.05
2009/04/23 11:05:17.4     -76   -100     66    126    142 217.4  29.8  34218  290.57 0855.05
2009/04/23 11:05:17.5     -93   -129     58    160    170 216.0  20.4  34218  290.57 0855.05
2009/04/23 11:05:17.6     -86   -149     38    173    178 209.9  12.4  34218  290.57 0855.05
2009/04/23 11:05:17.7     -99   -131     29    165    168 217.0  10.1  34212  290.45 0855.05
2009/04/23 11:05:17.8     -87   -120     48    149    157 216.1  17.9  34208  290.40 0855.05
2009/04/23 11:05:17.9     -75   -119     33    141    145 212.1  13.2  34208  290.40 0855.05
2009/04/23 11:05:18.0     -94   -113    -35    148    153 219.7 -13.4  34224  290.65 0855.05
2009/04/23 11:05:18.1     -88   -106      8    139    140 219.7   3.3  34206  290.36 0855.05
2009/04/23 11:05:18.2     -84    -95     11    127    128 221.4   5.0  34214  290.50 0855.05
2009/04/23 11:05:18.3     -60    -95     18    113    115 212.6   9.5  34206  290.36 0855.05
2009/04/23 11:05:18.4     -46    -98     38    109    116 205.5  19.4  34234  290.84 0855.06
2009/04/23 11:05:18.5     -51    -90     20    104    107 209.9  11.1  34240  290.92 0855.06
2009/04/23 11:05:18.6     -37    -92     26    100    104 201.9  14.7  34238  290.91 0855.06
2009/04/23 11:05:18.7     -38   -107     -2    114    115 200.0  -1.3  34210  290.43 0855.06
2009/04/23 11:05:18.8     -47   -126    -17    135    137 200.5  -7.3  34196  290.19 0855.06
2009/04/23 11:05:18.9     -99   -162    -47    190    196 211.4 -13.9  34214  290.50 0855.06
2009/04/23 11:05:19.0     -76   -189     -7    204    205 202.1  -2.2  34210  290.43 0855.06
2009/04/23 11:05:19.1     -48   -154     -9    162    163 197.6  -3.3  34224  290.67 0855.06
2009/04/23 11:05:19.2     -60   -110    -29    126    130 208.5 -12.9  34232  290.81 0855.06
2009/04/23 11:05:19.3     -87    -65    -63    109    125 233.1 -37.8  34262  291.32 0855.06
2009/04/23 11:05:19.4     -52    -81    -35     97    104 213.0 -19.7  34270  291.45 0855.06
2009/04/23 11:05:19.5     -36   -133     -7    138    139 195.2  -3.1  34256  291.21 0855.06
2009/04/23 11:05:19.6     -43   -138    -29    145    148 197.4 -11.3  34276  291.54 0855.06
2009/04/23 11:05:19.7     -53   -118    -35    130    135 204.5 -15.4  34276  291.54 0855.06
2009/04/23 11:05:19.8     -57   -120    -42    134    141 205.5 -17.5  34272  291.49 0855.06
2009/04/23 11:05:19.9     -68   -141    -52    157    165 205.9 -23.8  34242  290.96 0855.06
2009/04/23 11:05:20.0     -49   -161    -68    169    182 196.9 -27.4  34218  290.57 0855.06
2009/04/23 11:05:20.1       7   -179    -60    180    189 177.5 -23.6  34210  290.41 0855.06
2009/04/23 11:05:20.2      13   -171    -50    172    179 175.5 -21.0  34210  290.41 0855.06
2009/04/23 11:05:20.3       9   -125    -71    126    144 175.5 -35.8  34220  290.60 0855.06
2009/04/23 11:05:20.4     -39   -146    -45    152    158 195.1 -21.2  34214  290.50 0855.09
2009/04/23 11:05:20.5     -38   -157    -49    162    170 193.6 -17.0  34210  290.41 0855.09
2009/04/23 11:05:20.6      22   -171      7    173    174 172.4   2.5  34204  290.31 0855.09
2009/04/23 11:05:20.7      14   -191     17    192    193 175.5   5.2  34204  290.33 0855.09
2009/04/23 11:05:20.8      -1   -139     13    140    141 180.5   5.4  34200  290.26 0855.09
2009/04/23 11:05:20.9      -1   -138     50    139    147 180.5  20.4  34208  290.40 0855.09
2009/04/23 11:05:21.0     -23   -116     78    119    142 191.6  36.0  34204  290.33 0855.09
2009/04/23 11:05:21.1     -46   -152    100    159    187 196.9  35.5  34206  290.35 0855.09
2009/04/23 11:05:21.2     -42   -139     62    146    158 197.0  24.3  34220  290.60 0855.09
2009/04/23 11:05:21.3     -59   -160     46    171    178 200.5  15.3  34230  290.77 0855.09
2009/04/23 11:05:21.4    -121   -110     77    164    181 227.8  27.0  34232  290.81 0855.09
2009/04/23 11:05:21.5    -155    -79     26    175    177 242.9   8.5  34236  290.87 0855.09
2009/04/23 11:05:21.6    -135    -20    -35    137    142 261.2 -14.5  34216  290.52 0855.09
2009/04/23 11:05:21.7    -147    -34     35    152    157 256.7  13.2  34220  290.58 0855.09
2009/04/23 11:05:21.8    -120    -78      7    144    145 237.1   2.9  34212  290.45 0855.09
2009/04/23 11:05:21.9    -111   -190    -60    221    230 210.3 -15.2  34202  290.30 0855.09
2009/04/23 11:05:22.0    -160   -193    -89    251    266 219.7 -24.4  34210  290.42 0855.09
2009/04/23 11:05:22.1    -184    -58    -14    194    195 252.3  -4.1  34226  290.69 0855.09
2009/04/23 11:05:22.2    -167      0    -59    168    179 270.0 -19.4  34230  290.75 0855.09
2009/04/23 11:05:22.3    -166     50    -48    174    181 286.8 -15.4  34218  290.57 0855.09
2009/04/23 11:05:22.4    -159     58     10    170    171 290.2   3.6  34222  290.62 0855.11
2009/04/23 11:05:22.5    -171      0     48    172    179 270.0  15.8  34240  290.92 0855.11
2009/04/23 11:05:22.6    -117   -165     61    203    213 215.2  16.8  34222  290.62 0855.11
2009/04/23 11:05:22.7    -170   -140     38    221    225 230.7   9.9  34244  291.01 0855.11
2009/04/23 11:05:22.8    -231   -161     29    282    284 235.1   5.9  34244  290.99 0855.11
2009/04/23 11:05:22.9    -214   -214     15    304    305 225.0   2.9  34234  290.83 0855.11
2009/04/23 11:05:23.0    -177   -201    -74    269    280 221.4 -15.4  34230  290.75 0855.11
2009/04/23 11:05:23.1     -77   -238    -18    251    252 198.0  -4.1  34206  290.34 0855.11
2009/04/23 11:05:23.2     -61   -228     29    237    239 195.1   7.2  34212  290.46 0855.11
2009/04/23 11:05:23.3      -6   -255     -5    256    257 181.4  -1.3  34206  290.34 0855.11
2009/04/23 11:05:23.4      30   -361     17    363    364 175.1   2.8  34192  290.11 0855.11
2009/04/23 11:05:23.5      41   -340     56    343    348 173.0   9.3  34194  290.15 0855.11
2009/04/23 11:05:23.6      22   -319     24    320    321 176.0   4.4  34190  290.07 0855.11
2009/04/23 11:05:23.7      58   -288     20    294    295 168.5   3.9  34190  290.09 0855.11
2009/04/23 11:05:23.8      76   -229     24    242    244 161.7   5.7  34190  290.09 0855.11
2009/04/23 11:05:23.9      65   -257    104    266    285 165.7  22.8  34190  290.09 0855.11
2009/04/23 11:05:24.0      51   -251     97    257    274 168.5  21.7  34186  290.02 0855.11
2009/04/23 11:05:24.1      36   -257     90    260    275 172.0  20.0  34192  290.12 0855.11
2009/04/23 11:05:24.2      51   -301    115    306    326 170.3  21.5  34188  290.05 0855.11
2009/04/23 11:05:24.3      47   -288    127    292    318 170.7  25.0  34194  290.14 0855.11
2009/04/23 11:05:24.4      49   -319    161    323    360 171.1  28.5  34188  290.04 0855.12
2009/04/23 11:05:24.5       0   -340    138    341    367 179.9  23.1  34194  290.15 0855.12
2009/04/23 11:05:24.6      -8   -309    206    310    372 181.6  36.7  34190  290.08 0855.12
2009/04/23 11:05:24.7     -20   -263    172    264    315 184.5  36.3  34190  290.09 0855.12
2009/04/23 11:05:24.8     -46   -273    136    277    308 189.6  28.0  34190  290.07 0855.12
2009/04/23 11:05:24.9     -86   -219     69    236    246 201.6  16.3  34190  290.07 0855.12
2009/04/23 11:05:25.0    -175   -277     39    328    331 212.3   6.9  34184  289.98 0855.12
2009/04/23 11:05:25.1    -172   -269     37    320    323 212.6   6.6  34180  289.92 0855.12
2009/04/23 11:05:25.2    -180   -276     13    330    331 213.2   2.3  34182  289.94 0855.12
2009/04/23 11:05:25.3    -210   -260    -18    335    336 219.0  -3.2  34182  289.96 0855.12
2009/04/23 11:05:25.4    -186   -170    -46    253    258 227.6 -10.4  34190  290.07 0855.13
2009/04/23 11:05:25.5    -200   -233     20    308    309 220.6   3.8  34190  290.07 0855.13
2009/04/23 11:05:25.6    -304   -155   -100    342    356 242.9 -21.1  34192  290.11 0855.13
2009/04/23 11:05:25.7    -295   -146   -131    330    355 243.6 -27.2  34192  290.11 0855.13
2009/04/23 11:05:25.8    -295     19   -101    296    313 273.7 -19.0  34216  290.51 0855.13
2009/04/23 11:05:25.9    -248    -96   -100    267    285 248.7 -25.7  34208  290.37 0855.13
2009/04/23 11:05:26.0    -237    -55    -86    244    258 256.8 -24.4  34196  290.19 0855.13
2009/04/23 11:05:26.1    -230    -62    -83    239    253 254.9 -24.0  34204  290.31 0855.13
2009/04/23 11:05:26.2    -209   -176    -29    274    276 230.0  -6.2  34194  290.15 0855.13
2009/04/23 11:05:26.3    -206   -177    -15    272    273 229.3  -3.2  34198  290.22 0855.13
2009/04/23 11:05:26.4    -194   -177    -39    263    266 227.6  -8.6  34204  290.31 0855.13
2009/04/23 11:05:26.5    -225    -96    -62    245    253 246.7 -14.3  34206  290.34 0855.13
2009/04/23 11:05:26.6     -75   -195     19    210    211 201.2   5.4  34196  290.19 0855.13
2009/04/23 11:05:26.7    -103   -216     -1    240    241 205.5  -0.3  34190  290.09 0855.13
2009/04/23 11:05:26.8     -47   -183     -5    190    191 194.5  -1.8  34190  290.09 0855.13
2009/04/23 11:05:26.9     -46   -157     33    164    168 196.3  11.6  34194  290.16 0855.13
2009/04/23 11:05:27.0     -46   -197    -16    203    204 193.3  -4.6  34192  290.13 0855.13
2009/04/23 11:05:27.1     -21   -200    -31    202    205 186.2  -8.8  34190  290.09 0855.13
2009/04/23 11:05:27.2     -33   -206    -21    209    211 189.1  -6.0  34190  290.09 0855.13
2009/04/23 11:05:27.3      43   -227    -77    232    244 169.1 -23.8  34192  290.10 0855.13
2009/04/23 11:05:27.4      65   -206    -74    217    229 162.4 -23.3  34192  290.13 0855.14
2009/04/23 11:05:27.5      23   -196    -25    198    200 173.1  -7.3  34196  290.19 0855.14
2009/04/23 11:05:27.6     -35   -116   -116    122    168 197.0 -53.1  34206  290.36 0855.14
2009/04/23 11:05:27.7      42   -125    -61    133    146 161.3 -31.5  34206  290.35 0855.14
2009/04/23 11:05:27.8      -7    -71    -90     72    115 186.2 -60.8  34216  290.52 0855.14
2009/04/23 11:05:27.9     -36    -38    -56     53     77 223.2 -55.6  34222  290.62 0855.14
2009/04/23 11:05:28.0     -40    -20    -51     45     68 242.9 -56.6  34216  290.52 0855.14
2009/04/23 11:05:28.1      -9    -53    -60     54     80 189.8 -57.7  34220  290.60 0855.14
2009/04/23 11:05:28.2      33   -127    -71    132    149 165.3 -35.2  34214  290.50 0855.14
2009/04/23 11:05:28.3      60   -152    -33    164    168 158.2 -11.3  34204  290.33 0855.14
2009/04/23 11:05:28.4      59   -207     10    216    217 164.0   2.8  34200  290.26 0855.14
2009/04/23 11:05:28.5     118   -282     16    306    307 157.3   3.1  34192  290.12 0855.14
2009/04/23 11:05:28.6     253    -16     88    254    269  93.7  19.2  34200  290.26 0855.14
2009/04/23 11:05:28.7     223     13     90    224    241  86.5  23.0  34212  290.44 0855.14
2009/04/23 11:05:28.8     146     58    135    158    207  68.3  44.8  34212  290.45 0855.14
2009/04/23 11:05:28.9     139     31    134    143    195  77.2  47.9  34214  290.48 0855.14
2009/04/23 11:05:29.0      81    -52    123     97    156 122.9  57.7  34220  290.60 0855.14
2009/04/23 11:05:29.1     114    -37    106    121    160 108.2  45.8  34210  290.41 0855.14
2009/04/23 11:05:29.2     141    -46     95    149    176 108.2  35.6  34204  290.31 0855.14
2009/04/23 11:05:29.3     123    -89    108    153    187 126.0  38.8  34200  290.25 0855.14
2009/04/23 11:05:29.4      97   -326      7    341    342 163.3   1.2  34190  290.08 0855.11
2009/04/23 11:05:29.5     135   -355     -7    381    382 159.1  -1.1  34188  290.06 0855.11
2009/04/23 11:05:29.6     204   -338    -15    395    396 148.9  -2.3  34188  290.06 0855.11
2009/04/23 11:05:29.7     196   -264     13    330    331 143.4   2.4  34192  290.10 0855.11
2009/04/23 11:05:29.8      66   -250     84    259    273 165.1  17.9  34188  290.03 0855.11
2009/04/23 11:05:29.9      93   -373    107    385    400 166.0  15.6  34198  290.20 0855.11
2009/04/23 11:05:30.0     135   -466     61    486    490 163.9   7.2  34184  289.98 0855.11
2009/04/23 11:05:30.1     125   -444     39    462    464 164.2   4.9  34180  289.92 0855.11
2009/04/23 11:05:30.2     172   -418     96    453    464 157.6  12.0  34188  290.05 0855.11
2009/04/23 11:05:30.3     137   -450     65    471    476 163.1   7.9  34158  289.54 0855.11
2009/04/23 11:05:30.4     221   -469     73    519    525 154.7   8.0  34166  289.67 0855.11
2009/04/23 11:05:30.5     188   -416    107    457    470 155.6  13.2  34160  289.57 0855.11
2009/04/23 11:05:30.6     147   -320    167    353    390 155.3  27.1  34166  289.67 0855.11
2009/04/23 11:05:30.7     241   -352    189    427    466 145.6  25.6  34168  289.70 0855.11
2009/04/23 11:05:30.8     282   -288    150    404    430 135.6  21.3  34164  289.65 0855.11
2009/04/23 11:05:30.9     252   -352    148    434    459 144.4  18.9  34170  289.73 0855.11
2009/04/23 11:05:31.0     266   -300     62    402    407 138.5   8.9  34186  290.00 0855.11
2009/04/23 11:05:31.1     200   -278     41    343    346 144.3   6.9  34186  290.01 0855.11
2009/04/23 11:05:31.2     163   -243     87    293    306 146.2  16.6  34192  290.10 0855.11
2009/04/23 11:05:31.3     152   -237    113    282    303 147.3  23.0  34190  290.09 0855.11
2009/04/23 11:05:31.4     167   -294    137    339    365 150.5  23.2  34182  289.96 0855.09
2009/04/23 11:05:31.5      60   -270    147    277    313 167.3  30.2  34194  290.14 0855.09
2009/04/23 11:05:31.6      95   -246     36    264    267 158.8   7.8  34198  290.20 0855.09
2009/04/23 11:05:31.7      86   -226    -53    243    249 159.1 -12.4  34202  290.27 0855.09
2009/04/23 11:05:31.8     131   -265     30    296    298 153.7   6.0  34192  290.12 0855.09
2009/04/23 11:05:31.9     132   -320     53    347    352 157.6   8.7  34186  290.01 0855.09
2009/04/23 11:05:32.0      55   -413     58    417    422 172.4   8.0  34198  290.22 0855.09
2009/04/23 11:05:32.1     165   -349     46    387    390 154.7   6.8  34202  290.27 0855.09
2009/04/23 11:05:32.2      63   -370     19    376    377 170.2   2.9  34216  290.52 0855.09
2009/04/23 11:05:32.3      95   -403    -29    415    416 166.7  -4.1  34208  290.38 0855.09
2009/04/23 11:05:32.4      87   -396    -73    406    413 167.5 -10.3  34218  290.55 0855.09
2009/04/23 11:05:32.5     109   -348    -76    365    373 162.6 -11.8  34182  289.93 0855.09
2009/04/23 11:05:32.6     121   -337     14    359    360 160.2   2.4  34178  289.89 0855.09
2009/04/23 11:05:32.7     134   -309    -57    338    343 156.5  -9.6  34220  290.59 0855.09
2009/04/23 11:05:32.8      43   -286    -62    290    297 171.3 -12.2  34218  290.56 0855.09
2009/04/23 11:05:32.9     -71   -300    -50    309    314 193.4  -9.3  34224  290.65 0855.09
2009/04/23 11:05:33.0    -175   -371    -79    411    419 205.2 -10.9  34258  291.23 0855.09
2009/04/23 11:05:33.1    -130   -334    -70    359    366 201.3 -11.1  34234  290.83 0855.09
2009/04/23 11:05:33.2     -62   -307     -8    314    315 191.5  -1.6  34224  290.65 0855.09
2009/04/23 11:05:33.3     -15   -387     -7    388    389 182.2  -1.2  34202  290.30 0855.09
2009/04/23 11:05:33.4     -55   -381   -121    386    405 188.3 -17.5  34204  290.33 0855.08
2009/04/23 11:05:33.5    -113   -322    -95    342    354 199.4 -20.2  34208  290.40 0855.08
2009/04/23 11:05:33.6    -264   -215    -79    341    351 230.8 -13.2  34230  290.77 0855.08
2009/04/23 11:05:33.7    -392   -165    -46    426    429 247.2  -6.2  34216  290.51 0855.08
2009/04/23 11:05:33.8    -251   -140    -52    288    293 240.7 -10.3  34242  290.97 0855.08
2009/04/23 11:05:33.9    -154   -219   -106    268    288 215.1 -27.4  34198  290.20 0855.08
2009/04/23 11:05:34.0    -127   -180    -85    221    236 215.4 -26.5  34172  289.77 0855.08
2009/04/23 11:05:34.1    -186   -144    -51    236    242 232.2 -12.4  34188  290.05 0855.08
2009/04/23 11:05:34.2    -214   -127   -103    249    269 239.3 -28.2  34186  290.00 0855.08
2009/04/23 11:05:34.3    -176   -112    -61    209    218 237.6 -16.4  34176  289.84 0855.08
2009/04/23 11:05:34.4     -89   -132     -6    160    161 213.8  -2.3  34214  290.50 0855.08
2009/04/23 11:05:34.5    -139   -156    -46    209    215 221.7 -12.6  34238  290.91 0855.08
2009/04/23 11:05:34.6     -44   -138    -22    145    147 197.8  -8.8  34240  290.92 0855.08
2009/04/23 11:05:34.7     -75   -146     31    165    168 207.2  10.8  34256  291.20 0855.08
2009/04/23 11:05:34.8     -85   -187    -26    206    208 204.5  -7.2  34234  290.82 0855.08
2009/04/23 11:05:34.9    -175   -211      8    275    276 219.7   1.8  34252  291.12 0855.08
2009/04/23 11:05:35.0    -140   -287     90    320    333 206.0  15.8  34222  290.61 0855.08
2009/04/23 11:05:35.1      53   -480     29    483    484 173.7   3.5  34196  290.17 0855.08
2009/04/23 11:05:35.2     185   -440     27    478    479 157.2   3.3  34188  290.05 0855.08
2009/04/23 11:05:35.3     170   -324     61    367    373 152.3   9.5  34192  290.11 0855.08
2009/04/23 11:05:35.4     223   -317     19    388    389 144.9   2.9  34184  289.98 0855.09
2009/04/23 11:05:35.5     187   -337     61    386    391 150.9   9.0  34172  289.76 0855.09
2009/04/23 11:05:35.6     135   -284    -57    315    321 154.5 -10.3  34174  289.81 0855.09
2009/04/23 11:05:35.7     109   -268    -58    290    296 157.9 -11.3  34176  289.85 0855.09
2009/04/23 11:05:35.8      93   -228    -41    247    251 157.7  -9.6  34182  289.95 0855.09
2009/04/23 11:05:35.9     100   -221    -67    243    253 155.7 -15.4  34186  290.00 0855.09
2009/04/23 11:05:36.0      78   -387    -79    395    403 168.6 -11.3  34194  290.16 0855.09
2009/04/23 11:05:36.1     127   -268    -69    297    305 154.5 -13.2  34178  289.86 0855.09
2009/04/23 11:05:36.2      99   -343     35    358    360 163.9   5.7  34174  289.82 0855.09
2009/04/23 11:05:36.3      75   -370    122    378    398 168.5  17.9  34178  289.86 0855.09
2009/04/23 11:05:36.4      -4   -287    183    288    341 180.9  35.5  34182  289.93 0855.09
2009/04/23 11:05:36.5      91   -311     69    325    333 163.7  12.1  34186  290.01 0855.09
2009/04/23 11:05:36.6      16   -399     -9    400    401 177.7  -1.4  34184  289.98 0855.09
2009/04/23 11:05:36.7     103   -318    -64    335    342 162.0 -10.8  34188  290.03 0855.09
2009/04/23 11:05:36.8     160   -249    -26    297    299 147.3  -5.1  34188  290.03 0855.09
2009/04/23 11:05:36.9     102   -234     30    256    258 156.4   6.9  34186  290.02 0855.09
2009/04/23 11:05:37.0      93   -232    -14    251    252 158.1  -3.3  34188  290.03 0855.09
2009/04/23 11:05:37.1     102   -328    -41    344    347 162.6  -6.9  34196  290.18 0855.09
2009/04/23 11:05:37.2      62   -326     42    333    336 169.1   7.2  34196  290.18 0855.09
2009/04/23 11:05:37.3      52   -370     49    374    378 171.9   7.6  34182  289.96 0855.09
2009/04/23 11:05:37.4      89   -350     29    362    364 165.7   4.6  34178  289.89 0855.11
2009/04/23 11:05:37.5      25   -333     92    334    347 175.7  15.4  34178  289.86 0855.11
2009/04/23 11:05:37.6      25   -333     85    334    345 175.7  14.3  34180  289.91 0855.11
2009/04/23 11:05:37.7     -18   -340      2    341    342 183.2   0.5  34186  290.01 0855.11
2009/04/23 11:05:37.8     -75   -328     42    337    340 192.9   7.1  34188  290.03 0855.11
2009/04/23 11:05:37.9    -192   -396     33    441    443 205.9   4.3  34200  290.26 0855.11
2009/04/23 11:05:38.0    -167   -308     51    351    355 208.5   8.3  34204  290.33 0855.11
2009/04/23 11:05:38.1     -87   -286     78    300    311 196.9  14.6  34202  290.27 0855.11
2009/04/23 11:05:38.2     -46   -299    132    303    330 188.9  25.0  34200  290.24 0855.11
2009/04/23 11:05:38.3       2   -327     99    328    343 179.5  16.8  34200  290.25 0855.11
2009/04/23 11:05:38.4     -20   -302    104    303    321 183.8  19.1  34194  290.14 0855.11
2009/04/23 11:05:38.5     -26   -256     12    258    259 186.0   2.8  34196  290.19 0855.11
2009/04/23 11:05:38.6      -5   -306     43    307    311 181.0   8.0  34184  289.97 0855.11
2009/04/23 11:05:38.7       9   -294     48    295    300 178.2   9.3  34188  290.03 0855.11
2009/04/23 11:05:38.8     -22   -292     74    293    303 184.4  14.2  34186  290.00 0855.11
2009/04/23 11:05:38.9     -17   -268    118    269    293 183.8  25.2  34184  289.98 0855.11
2009/04/23 11:05:39.0      23   -276    130    278    306 175.1  27.1  34182  289.95 0855.11
2009/04/23 11:05:39.2      67   -282    130    290    317 166.6  25.8  34184  289.98 0855.11
2009/04/23 11:05:39.2     -14   -182     63    183    194 184.5  19.2  34184  289.97 0855.11
2009/04/23 11:05:39.4     -39   -225     93    229    247 190.0  23.4  34192  290.12 0855.11
2009/04/23 11:05:39.5      22   -202    142    204    248 173.7  38.4  34202  290.29 0855.12
2009/04/23 11:05:39.5      33   -257     65    260    269 172.7  14.2  34190  290.09 0855.12
2009/04/23 11:05:39.7     -28   -253    106    255    276 186.5  24.1  34182  289.95 0855.12
2009/04/23 11:05:39.8       4   -263    126    264    292 179.1  27.3  34194  290.14 0855.12
2009/04/23 11:05:39.9     -18   -237    121    238    266 184.4  29.1  34198  290.22 0855.12
2009/04/23 11:05:40.0      16   -220    200    221    298 175.6  47.0  34190  290.07 0855.12
2009/04/23 11:05:40.1      24   -173     94    175    198 172.0  30.6  34198  290.23 0855.12
2009/04/23 11:05:40.2      61   -156    107    168    199 158.4  35.5  34196  290.19 0855.12
2009/04/23 11:05:40.3      47   -164    140    171    221 163.7  43.7  34192  290.13 0855.12
2009/04/23 11:05:40.4     -29   -201    188    204    277 188.2  47.7  34186  290.02 0855.12
2009/04/23 11:05:40.5     -21   -153    183    155    239 188.0  55.4  34192  290.13 0855.12
2009/04/23 11:05:40.6     -31   -172    133    175    219 190.2  41.2  34190  290.08 0855.12
2009/04/23 11:05:40.7      -7   -156     38    157    162 182.7  13.7  34192  290.11 0855.12
2009/04/23 11:05:40.8      -9    -76    122     77    144 187.1  64.7  34200  290.25 0855.12
2009/04/23 11:05:40.9       6   -108    100    109    147 176.4  47.9  34204  290.33 0855.12
2009/04/23 11:05:41.0      55    -73     72     92    116 143.0  42.7  34202  290.30 0855.12
2009/04/23 11:05:41.1     -17   -141    112    143    181 187.1  42.2  34196  290.19 0855.12
2009/04/23 11:05:41.2     -25   -187    164    189    250 187.8  45.4  34192  290.13 0855.12
2009/04/23 11:05:41.3       9   -208     95    209    229 177.3  26.4  34192  290.11 0855.12
2009/04/23 11:05:41.4      42   -297    113    301    321 171.9  21.5  34188  290.03 0855.12
2009/04/23 11:05:41.5      36   -356    124    358    380 174.1  19.2  34192  290.10 0855.12
2009/04/23 11:05:41.6       1   -281    139    282    314 179.8  28.1  34190  290.07 0855.12
2009/04/23 11:05:41.7       8   -269    131    270    300 178.2  27.4  34194  290.15 0855.12
2009/04/23 11:05:41.8       4   -275     91    276    291 179.0  18.4  34192  290.10 0855.12
2009/04/23 11:05:41.9     -25   -296    105    298    317 184.9  19.4  34188  290.05 0855.12
2009/04/23 11:05:42.0       0   -332     90    333    346 179.9  15.1  34192  290.11 0855.12
2009/04/23 11:05:42.1      24   -312     96    314    329 175.5  17.0  34192  290.12 0855.12
2009/04/23 11:05:42.2       9   -426    154    427    455 178.8  19.9  34190  290.09 0855.12
2009/04/23 11:05:42.3      10   -376    148    377    405 178.4  22.5  34192  290.13 0855.12
2009/04/23 11:05:42.4      12   -388    115    389    406 178.1  16.5  34192  290.13 0855.12
2009/04/23 11:05:42.5     -37   -353    140    356    382 186.1  22.8  34188  290.06 0855.12
2009/04/23 11:05:42.6     -16   -339    188    340    388 182.8  31.4  34192  290.10 0855.12
2009/04/23 11:05:42.7      30   -322    167    324    364 174.6  29.3  34194  290.15 0855.12
2009/04/23 11:05:42.8       0   -283    147    284    319 180.0  29.5  34190  290.09 0855.12
2009/04/23 11:05:42.9       4   -281    134    282    312 179.1  27.3  34194  290.15 0855.12
2009/04/23 11:05:43.0      -7   -252    126    253    282 181.6  28.5  34194  290.15 0855.12
2009/04/23 11:05:43.1      25   -290    104    292    309 174.9  20.2  34192  290.10 0855.12
2009/04/23 11:05:43.2     -19   -316    118    317    338 183.5  21.4  34192  290.10 0855.12
2009/04/23 11:05:43.3     -37   -251    100    254    272 188.5  22.8  34188  290.05 0855.12
2009/04/23 11:05:43.4     -14   -186     98    187    211 184.5  29.5  34194  290.16 0855.12
2009/04/23 11:05:43.5     -79   -287    106    298    317 195.4  19.6  34188  290.05 0855.13
2009/04/23 11:05:43.6     -32   -356    126    358    380 185.2  19.4  34192  290.13 0855.13
2009/04/23 11:05:43.7     -84   -342     98    353    367 193.9  15.6  34196  290.18 0855.13
2009/04/23 11:05:43.8     -26   -339     38    341    344 184.5   6.5  34194  290.15 0855.13
2009/04/23 11:05:43.9      25   -228    117    230    258 173.5  29.2  34196  290.17 0855.13
2009/04/23 11:05:44.0      37   -230     98    234    253 170.7  23.8  34194  290.15 0855.13
2009/04/23 11:05:44.1       7   -241    155    242    287 178.2  35.6  34196  290.17 0855.13
2009/04/23 11:05:44.2       2   -224    121    225    255 179.3  30.6  34192  290.12 0855.13
2009/04/23 11:05:44.3      11   -254    137    255    289 177.3  30.6  34192  290.10 0855.13
2009/04/23 11:05:44.4       3   -229    144    230    271 179.1  35.5  34196  290.19 0855.13
2009/04/23 11:05:44.5     -42   -212    140    217    258 191.3  35.7  34196  290.19 0855.13
2009/04/23 11:05:44.6     -21   -354     69    355    362 183.5  11.1  34198  290.21 0855.13
2009/04/23 11:05:44.7      53   -348     82    353    363 171.3  13.1  34200  290.25 0855.13
2009/04/23 11:05:44.8     -43   -308     13    312    313 188.0   2.5  34202  290.27 0855.13
2009/04/23 11:05:44.9     -55   -329     -6    334    335 189.6  -1.2  34202  290.27 0855.13
2009/04/23 11:05:45.0      -2   -222     83    223    237 180.7  21.3  34202  290.29 0855.13
2009/04/23 11:05:45.1      42   -214     95    219    238 168.9  25.1  34200  290.26 0855.13
2009/04/23 11:05:45.2      78   -289    126    300    325 164.9  24.2  34200  290.24 0855.13
2009/04/23 11:05:45.3     114   -326     50    346    350 160.7   8.3  34198  290.23 0855.13
2009/04/23 11:05:45.4     -84   -341    148    352    381 193.9  24.2  34206  290.35 0855.13
2009/04/23 11:05:45.5     -54   -270     81    276    288 191.5  16.4  34206  290.36 0855.13
2009/04/23 11:05:45.6     -34   -305     66    307    315 186.5  12.2  34200  290.24 0855.13
2009/04/23 11:05:45.7      -8   -259     58    260    267 181.8  12.6  34196  290.19 0855.13
2009/04/23 11:05:45.8     -22   -240    104    242    263 185.4  24.6  34192  290.12 0855.13
2009/04/23 11:05:45.9     -33   -263    164    266    312 187.3  34.6  34194  290.15 0855.13
2009/04/23 11:05:46.0      21   -225    229    227    322 174.7  50.1  34204  290.32 0855.13
2009/04/23 11:05:46.1      54   -291    228    296    373 169.4  41.6  34202  290.30 0855.13
2009/04/23 11:05:46.2      55   -273    159    279    321 168.5  32.4  34208  290.39 0855.13
2009/04/23 11:05:46.3     -55   -210      3    218    219 194.7   0.8  34202  290.30 0855.13
2009/04/23 11:05:46.4       7   -124      0    125    126 176.4  -0.3  34202  290.30 0855.13
2009/04/23 11:05:46.5      69   -143    102    160    189 154.1  35.6  34200  290.25 0855.14
2009/04/23 11:05:46.6      34   -105     74    111    133 161.7  36.5  34202  290.28 0855.14
2009/04/23 11:05:46.7      36    -23     89     43     98 122.4  72.4  34208  290.40 0855.14
2009/04/23 11:05:46.8       0     43     65     44     78 359.1  63.6  34218  290.55 0855.14
2009/04/23 11:05:46.9     -33     17     19     38     42 297.1  28.2  34220  290.58 0855.14
2009/04/23 11:05:47.0    -177    -51    -14    185    186 253.8  -4.6  34200  290.26 0855.14
2009/04/23 11:05:47.1    -231     54    140    238    276 283.3  33.4  34234  290.82 0855.14
2009/04/23 11:05:47.2    -131    106    214    169    272 308.9  57.7  34248  291.05 0855.14
2009/04/23 11:05:47.3     -43    135    177    142    226 342.2  56.9  34240  290.92 0855.14
2009/04/23 11:05:47.4      19     34    156     40    161  29.0  85.6  34234  290.82 0855.14
2009/04/23 11:05:47.5     -29   -182    154    185    240 189.1  44.1  34204  290.33 0855.14
2009/04/23 11:05:47.6     -82   -218    156    234    281 200.7  36.7  34202  290.29 0855.14
2009/04/23 11:05:47.7     -38   -173    129    178    219 192.5  39.7  34204  290.31 0855.14
2009/04/23 11:05:47.8     -31   -174     88    177    197 190.2  28.2  34204  290.33 0855.14
2009/04/23 11:05:47.9      -8   -107    146    108    181 184.4  60.0  34206  290.35 0855.14
2009/04/23 11:05:48.0     -55   -165     90    174    195 198.5  29.3  34200  290.25 0855.14
2009/04/23 11:05:48.1     -73   -176    136    191    234 202.7  38.8  34212  290.47 0855.14
2009/04/23 11:05:48.2    -102   -215    120    239    267 205.4  28.5  34232  290.80 0855.14
2009/04/23 11:05:48.3    -130   -157     37    205    209 219.6  10.3  34234  290.82 0855.14
2009/04/23 11:05:48.4     -81   -137     65    160    172 210.8  23.0  34238  290.89 0855.14
2009/04/23 11:05:48.5     -30    -69     59     76     96 203.6  42.2  34236  290.86 0855.13
2009/04/23 11:05:48.6     -54    -62     45     83     94 221.4  31.4  34242  290.96 0855.13
2009/04/23 11:05:48.7    -108     43     42    117    124 291.7  20.0  34236  290.87 0855.13
2009/04/23 11:05:48.8     -67    -72     90     99    133 223.2  47.5  34234  290.82 0855.13
2009/04/23 11:05:48.9     -84    -17    117     86    145 258.5  60.5  34248  291.06 0855.13
2009/04/23 11:05:49.0    -102     19     73    104    127 281.0  38.0  34250  291.11 0855.13
2009/04/23 11:05:49.1     -62     43     27     76     80 305.1  20.0  34252  291.13 0855.13
2009/04/23 11:05:49.2     -42    -12     47     44     64 254.1  52.1  34242  290.98 0855.13
2009/04/23 11:05:49.3     -17     21     54     28     60 320.4  69.8  34242  290.98 0855.13
2009/04/23 11:05:49.4     -64    -13     50     66     82 258.5  41.2  34244  291.01 0855.13
2009/04/23 11:05:49.5     -87     79      5    118    119 312.2   2.8  34244  291.01 0855.13
2009/04/23 11:05:49.6     -63    100     82    119    144 327.5  37.6  34236  290.86 0855.13
2009/04/23 11:05:49.7     -58    110     74    125    145 331.9  33.5  34224  290.65 0855.13
2009/04/23 11:05:49.8     -89    136     59    163    173 326.6  20.4  34224  290.65 0855.13
2009/04/23 11:05:49.9      13    135     67    136    151   5.8  27.3  34220  290.58 0855.13
2009/04/23 11:05:50.0      14    143     40    144    150   5.8  15.8  34216  290.52 0855.13
2009/04/23 11:05:50.1     -28    107      5    111    112 345.3   2.8  34222  290.64 0855.13
2009/04/23 11:05:50.2     -33     79    -43     86     96 337.3 -32.6  34220  290.60 0855.13
2009/04/23 11:05:50.3       0     56     -6     57     58 359.1  -6.2  34230  290.75 0855.13
2009/04/23 11:05:50.4     -39     42     -6     58     59 317.7  -6.2  34226  290.69 0855.13
2009/04/23 11:05:50.5     -82     61    -19    103    105 306.4 -10.9  34222  290.62 0855.12
2009/04/23 11:05:50.6    -223     19    -44    224    229 275.0 -11.3  34222  290.62 0855.12
2009/04/23 11:05:50.7    -368    -35   -127    370    391 264.4 -24.0  34198  290.23 0855.12
2009/04/23 11:05:50.8    -403    -30    -98    405    417 265.6 -13.7  34194  290.16 0855.12
2009/04/23 11:05:50.9    -471   -129    -46    489    492 254.6  -5.5  34184  289.98 0855.12
2009/04/23 11:05:51.0    -415    -84    -38    424    426 258.6  -5.2  34186  290.02 0855.12
2009/04/23 11:05:51.1    -385   -116    -66    403    409 253.2  -9.3  34176  289.85 0855.12
2009/04/23 11:05:51.2    -367   -122    -60    387    392 251.6  -8.9  34188  290.04 0855.12
2009/04/23 11:05:51.3    -432    -83    -51    440    444 259.1  -6.7  34206  290.36 0855.12
2009/04/23 11:05:51.4    -402   -149     51    430    434 249.6   6.9  34214  290.48 0855.12
2009/04/23 11:05:51.5    -319   -117    -13    340    341 249.8  -2.2  34220  290.59 0855.12
2009/04/23 11:05:51.6    -226   -223    107    318    336 225.3  18.6  34240  290.94 0855.12
2009/04/23 11:05:51.7    -177   -224     30    286    288 218.3   6.1  34254  291.17 0855.12
2009/04/23 11:05:51.8    -142   -189     95    237    255 217.0  23.1  34252  291.14 0855.12
2009/04/23 11:05:51.9    -192   -155     77    247    259 231.1  17.3  34248  291.05 0855.12
2009/04/23 11:05:52.0    -198   -174     46    264    269 228.7   9.9  34244  291.00 0855.12
2009/04/23 11:05:52.1    -166   -182    113    247    271 222.5  26.4  34240  290.92 0855.12
2009/04/23 11:05:52.2    -242   -195    -11    311    312 231.1  -2.1  34230  290.75 0855.12
2009/04/23 11:05:52.3    -202   -201     30    286    288 225.1   6.1  34246  291.02 0855.12
2009/04/23 11:05:52.4    -253   -236    135    347    372 227.0  22.5  34276  291.54 0855.12
2009/04/23 11:05:52.5    -249   -266     79    365    374 223.2  12.3  34238  290.89 0855.09
2009/04/23 11:05:52.6     -68   -177     89    190    209 201.2  27.1  34250  291.09 0855.09
2009/04/23 11:05:52.7    -174   -114     92    209    228 236.7  25.2  34256  291.21 0855.09
2009/04/23 11:05:52.8    -164   -181     68    245    255 222.3  15.6  34272  291.48 0855.09
2009/04/23 11:05:52.9    -100   -218    297    241    382 204.7  56.6  34234  290.84 0855.09
2009/04/23 11:05:53.0     -83   -327    360    338    493 194.3  52.1  34202  290.28 0855.09
2009/04/23 11:05:53.1     -72   -237    395    248    466 196.9  64.8  34202  290.29 0855.09
2009/04/23 11:05:53.2     -15   -401    318    402    512 182.2  42.3  34202  290.30 0855.09
2009/04/23 11:05:53.3      32   -142    264    146    301 167.1  68.8  34202  290.29 0855.09
2009/04/23 11:05:53.4      68    -70    212     98    233 135.9  73.1  34204  290.33 0855.09
2009/04/23 11:05:53.5     146     48    162    154    223  71.8  51.6  34196  290.19 0855.09
2009/04/23 11:05:53.6     252   -236    167    346    384 133.0  27.3  34184  289.99 0855.09
2009/04/23 11:05:53.7     232   -258    206    348    404 138.0  33.5  34194  290.15 0855.09
2009/04/23 11:05:53.8     376   -211      0    432    433 119.3   0.1  34192  290.11 0855.09
2009/04/23 11:05:53.9     229   -352    182    421    458 146.9  25.0  34206  290.34 0855.09
2009/04/23 11:05:54.0     116   -370    196    388    434 162.6  29.1  34206  290.36 0855.09
2009/04/23 11:05:54.1     280   -202    205    346    402 125.9  33.4  34208  290.37 0855.09
2009/04/23 11:05:54.2     140   -263    214    299    367 151.9  39.2  34202  290.28 0855.09
2009/04/23 11:05:54.3     157   -227    201    277    342 145.3  39.7  34206  290.34 0855.09
2009/04/23 11:05:54.4      60   -268    178    275    327 167.3  35.9  34212  290.46 0855.09
2009/04/23 11:05:54.5      36   -287    134    290    319 172.8  26.5  34212  290.46 0855.07
2009/04/23 11:05:54.6     -59   -367     49    372    376 189.2   7.6  34214  290.49 0855.07
2009/04/23 11:05:54.7    -159   -435    164    464    492 200.1  20.3  34214  290.49 0855.07
2009/04/23 11:05:54.8    -111   -436    166    450    479 194.3  21.3  34218  290.57 0855.07
2009/04/23 11:05:54.9    -105   -370    -21    385    386 195.9  -3.2  34214  290.49 0855.07
2009/04/23 11:05:55.0     -75   -378    -42    386    389 191.3  -6.3  34218  290.57 0855.07
2009/04/23 11:05:55.1    -176   -455     51    488    491 201.2   6.1  34234  290.83 0855.07
2009/04/23 11:05:55.2    -146   -385     49    412    415 200.8   6.9  34234  290.82 0855.07
2009/04/23 11:05:55.3    -144   -390     13    416    417 200.3   1.9  34238  290.90 0855.07
2009/04/23 11:05:55.4     -36   -330     22    332    333 186.3   3.8  34222  290.62 0855.07
2009/04/23 11:05:55.5      49   -348     42    352    355 171.9   6.9  34226  290.69 0855.07
2009/04/23 11:05:55.6      45   -223    134    228    264 168.4  33.4  34220  290.58 0855.07
2009/04/23 11:05:55.7      57   -231    115    239    265 166.0  27.3  34228  290.71 0855.07
2009/04/23 11:05:55.8       0   -302    -55    303    308 179.9 -10.4  34228  290.71 0855.07
2009/04/23 11:05:55.9     -17   -280    -35    281    284 183.6  -7.2  34226  290.68 0855.07
2009/04/23 11:05:56.0      -8   -345    -15    346    347 181.4  -2.5  34218  290.57 0855.07
2009/04/23 11:05:56.1     -74   -384    -36    392    394 191.0  -5.3  34218  290.55 0855.07
2009/04/23 11:05:56.2    -166   -333     -7    373    374 206.5  -1.1  34208  290.40 0855.07
2009/04/23 11:05:56.3    -202   -198    -41    284    287 225.6  -8.3  34214  290.49 0855.07
2009/04/23 11:05:56.4    -235   -156   -172    283    331 236.5 -38.7  34214  290.49 0855.07
2009/04/23 11:05:56.5    -225    -53    -82    232    247 256.7 -19.6  34222  290.61 0855.04
2009/04/23 11:05:56.6    -165     54    -45    174    180 288.4 -14.7  34216  290.52 0855.04
2009/04/23 11:05:56.7    -108      0      0    109    110 270.0   0.2  34210  290.43 0855.04
2009/04/23 11:05:56.8    -121      6     -2    122    123 273.0  -1.3  34216  290.53 0855.04
2009/04/23 11:05:57.0     -95    -79    -70    124    142 230.4 -35.8  34214  290.50 0855.04
2009/04/23 11:05:57.0      -9    -79    -75     80    109 187.1 -52.4  34220  290.58 0855.04
2009/04/23 11:05:57.1       3    -44    -70     45     83 175.5 -68.5  34224  290.67 0855.04
2009/04/23 11:05:57.2     -18    -55    -79     58     98 198.5 -64.4  34224  290.67 0855.04
2009/04/23 11:05:57.3      25    -38   -112     46    121 146.6 -81.0  34228  290.72 0855.04
2009/04/23 11:05:57.4     107    -68   -103    127    163 122.4 -47.7  34218  290.55 0855.04
2009/04/23 11:05:57.5     106     -2    -70    107    127  91.3 -40.4  34222  290.62 0855.04
2009/04/23 11:05:57.6      82    -12    -36     83     90  98.4 -29.5  34230  290.75 0855.04
2009/04/23 11:05:57.7      79    -11     32     80     86  97.9  22.5  34212  290.47 0855.04
2009/04/23 11:05:57.8     134    -10     54    135    145  94.3  23.0  34212  290.47 0855.04
2009/04/23 11:05:57.9     139    -46     80    147    167 108.6  30.6  34208  290.40 0855.04
2009/04/23 11:05:58.0     182    -62    114    193    224 108.8  33.5  34210  290.41 0855.04
2009/04/23 11:05:58.1     176    -79     73    193    206 114.2  21.7  34210  290.41 0855.04
2009/04/23 11:05:58.2      61   -129     64    144    157 154.5  25.3  34208  290.38 0855.04
2009/04/23 11:05:58.3     136   -117     17    180    181 130.9   5.7  34204  290.33 0855.04
2009/04/23 11:05:58.4     120   -229     98    259    276 152.4  21.7  34204  290.32 0855.04
2009/04/23 11:05:58.5     131   -317    124    344    366 157.5  19.9  34198  290.21 0855.03
2009/04/23 11:05:58.6      38   -222    119    226    255 170.3  30.1  34208  290.39 0855.03
2009/04/23 11:05:58.7      25   -202    100    204    227 172.7  27.8  34206  290.35 0855.03
2009/04/23 11:05:58.8     138   -217     14    258    259 147.4   3.1  34208  290.39 0855.03
2009/04/23 11:05:58.9     160   -335    129    372    394 154.5  19.2  34202  290.27 0855.03
2009/04/23 11:05:59.0     106   -358    168    374    410 163.5  25.9  34192  290.13 0855.03
2009/04/23 11:05:59.1     168   -419    138    452    473 158.1  17.1  34206  290.35 0855.03
2009/04/23 11:05:59.2     -28   -459     47    460    463 183.5   5.9  34194  290.16 0855.03
2009/04/23 11:05:59.3     -94   -394     12    406    407 193.4   1.8  34208  290.39 0855.03
2009/04/23 11:05:59.5    -103   -384     -8    398    399 195.1  -1.3  34208  290.37 0855.03
2009/04/23 11:05:59.5      58   -422      7    426    427 172.1   1.0  34210  290.41 0855.03
2009/04/23 11:05:59.6      71   -372     30    379    381 169.2   4.6  34212  290.45 0855.03
2009/04/23 11:05:59.7     146   -226    123    270    296 147.0  26.2  34206  290.34 0855.03
2009/04/23 11:05:59.8      67   -279    240    287    374 166.4  44.1  34188  290.06 0855.03
2009/04/23 11:05:59.9     114   -180    131    214    250 147.5  34.5  34192  290.10 0855.03
2009/04/23 11:06:00.0     127   -199    152    237    281 147.5  35.6  34194  290.14 0855.03
2009/04/23 11:06:00.1      75   -258    154    269    309 163.7  32.4  34200  290.24 0855.03
2009/04/23 11:06:00.2      52   -384     16    388    389 172.2   2.4  34202  290.28 0855.03
2009/04/23 11:06:00.3     -32   -387      6    389    390 184.9   1.0  34196  290.18 0855.03
2009/04/23 11:06:00.4     -82   -363     86    373    383 192.8  13.1  34202  290.30 0855.03
2009/04/23 11:06:00.5     -51   -251    140    257    292 191.5  31.3  34196  290.19 0855.03
2009/04/23 11:06:00.7      80   -185     -7    202    203 156.4  -2.2  34196  290.19 0855.03
2009/04/23 11:06:00.7      74   -201    -96    215    235 159.7 -30.1  34200  290.26 0855.03
2009/04/23 11:06:00.8      68   -195    -87    207    224 160.8 -28.5  34196  290.18 0855.03
2009/04/23 11:06:00.9     128   -344    113    368    385 159.5  17.1  34204  290.32 0855.03
2009/04/23 11:06:01.0      47   -275     87    279    293 170.3  17.3  34196  290.17 0855.03
2009/04/23 11:06:01.1     -41    -45   -115     62    130 222.3 -73.7  34198  290.23 0855.03
2009/04/23 11:06:01.2       3      7    -29      8     30  25.4 -89.3  34216  290.52 0855.03
2009/04/23 11:06:01.3    -140    -19    -63    142    155 262.1 -29.6  34206  290.35 0855.03
2009/04/23 11:06:01.4    -252   -105   -119    274    298 247.3 -29.5  34210  290.42 0855.03
2009/04/23 11:06:01.5    -219    -73    101    232    253 251.4  25.1  34204  290.32 0855.03
2009/04/23 11:06:01.6    -181   -358    126    402    422 206.8  17.4  34212  290.46 0855.03
2009/04/23 11:06:01.7    -107   -456    200    469    509 193.3  24.6  34206  290.35 0855.03
2009/04/23 11:06:01.8     -50   -387     45    391    394 187.4   6.7  34206  290.35 0855.03
2009/04/23 11:06:01.9    -274   -331     20    430    431 219.6   2.8  34204  290.33 0855.03
2009/04/23 11:06:02.0    -474   -592     13    759    760 218.7   1.0  34184  289.99 0855.03
2009/04/23 11:06:02.1    -544   -542   -126    769    780 225.1  -9.3  34160  289.56 0855.03
2009/04/23 11:06:02.2    -800   -731   -345   1084   1138 227.6 -17.7  34174  289.81 0855.03
2009/04/23 11:06:02.3    -529   -497    -83    726    731 226.8  -6.6  34190  290.08 0855.03
2009/04/23 11:06:02.4    -669   -512   -101    843    850 232.6  -6.9  34176  289.85 0855.03
2009/04/23 11:06:02.5    -639   -369   -258    738    782 240.0 -19.3  34144  289.31 0855.05
2009/04/23 11:06:02.6    -697   -331   -260    772    814 244.6 -23.7  34164  289.64 0855.05
2009/04/23 11:06:02.7    -638   -401   -202    754    781 237.9 -15.1  34170  289.73 0855.05
2009/04/23 11:06:02.8    -690   -274   -253    743    786 248.3 -18.8  34170  289.74 0855.05
2009/04/23 11:06:02.9    -692   -392   -123    796    806 240.5  -8.8  34176  289.85 0855.05
2009/04/23 11:06:03.0    -705   -402   -255    812    851 240.3 -22.4  34150  289.39 0855.05
2009/04/23 11:06:03.1    -576   -283   -231    642    683 243.8 -19.8  34186  290.02 0855.05
2009/04/23 11:06:03.2    -342   -100    -54    357    362 253.6  -8.6  34182  289.96 0855.05
2009/04/23 11:06:03.3    -379   -177     25    419    420 244.9   3.5  34200  290.24 0855.05
2009/04/23 11:06:03.4    -317   -338   -139    464    485 223.1 -16.7  34174  289.81 0855.05
2009/04/23 11:06:03.5    -132   -249    -67    282    290 208.0 -13.4  34164  289.63 0855.05
2009/04/23 11:06:03.6     -14   -367     86    368    378 182.2  13.2  34198  290.21 0855.05
2009/04/23 11:06:03.7    -102   -315     39    332    335 197.9   6.8  34204  290.33 0855.05
2009/04/23 11:06:03.8    -250   -250    -13    354    355 225.0  -2.2  34196  290.18 0855.05
2009/04/23 11:06:03.9    -355   -244   -131    431    451 235.5 -17.0  34162  289.60 0855.05
2009/04/23 11:06:04.0    -384   -292   -153    483    506 232.8 -22.6  34152  289.42 0855.05
2009/04/23 11:06:04.1    -479   -265   -169    548    574 241.0 -17.2  34168  289.70 0855.05
2009/04/23 11:06:04.2    -553   -372   -118    667    678 236.0 -10.1  34164  289.65 0855.05
2009/04/23 11:06:04.3    -458   -272   -150    533    553 239.3 -20.4  34158  289.55 0855.05
2009/04/23 11:06:04.4    -396   -231    -71    459    465 239.8  -8.9  34162  289.60 0855.05
2009/04/23 11:06:04.5    -154   -224    116    273    296 214.5  24.3  34172  289.78 0855.06
2009/04/23 11:06:04.6    -248   -220     33    332    334 228.5   5.8  34172  289.79 0855.06
2009/04/23 11:06:04.7    -196   -272    118    336    357 215.8  19.4  34182  289.94 0855.06
2009/04/23 11:06:04.8    -120   -330      9    352    353 200.0   1.6  34178  289.89 0855.06
2009/04/23 11:06:04.9    -182   -339     51    386    390 208.3   7.6  34184  289.98 0855.06
2009/04/23 11:06:05.0    -157   -317    103    354    369 206.4  16.3  34188  290.04 0855.06
2009/04/23 11:06:05.1    -196   -458    -50    499    502 203.2  -5.8  34178  289.86 0855.06
2009/04/23 11:06:05.2    -158   -639     84    659    665 193.9   7.3  34170  289.75 0855.06
2009/04/23 11:06:05.3    -171   -550     91    577    585 197.3   9.0  34166  289.68 0855.06
2009/04/23 11:06:05.4     -20   -648    156    649    668 181.8  13.5  34180  289.92 0855.06
2009/04/23 11:06:05.5       6   -665    108    666    675 179.4   9.2  34174  289.82 0855.06
2009/04/23 11:06:05.6      64   -582     88    586    593 173.7   8.6  34176  289.83 0855.06
2009/04/23 11:06:05.7      72   -573     72    578    583 172.8   7.1  34176  289.85 0855.06
2009/04/23 11:06:05.8     107   -574     91    584    592 169.4   8.9  34174  289.81 0855.06
2009/04/23 11:06:05.9      88   -594    146    601    619 171.5  13.7  34180  289.91 0855.06
2009/04/23 11:06:06.0      67   -531    161    536    560 172.8  16.8  34172  289.79 0855.06
2009/04/23 11:06:06.1     189   -553    246    585    634 161.1  24.2  34174  289.82 0855.06
2009/04/23 11:06:06.2     308   -668    176    736    757 155.2  13.5  34158  289.53 0855.06
2009/04/23 11:06:06.3     214   -587    228    626    666 160.0  21.0  34150  289.40 0855.06
2009/04/23 11:06:06.4      52   -643    242    646    689 175.3  21.6  34160  289.58 0855.06
2009/04/23 11:06:06.6      81   -762    135    767    780 173.9  10.0  34168  289.71 0855.06
2009/04/23 11:06:06.7      92   -732    188    738    762 172.8  14.3  34144  289.29 0855.06
2009/04/23 11:06:06.8     -29   -613    163    614    636 182.8  14.9  34148  289.38 0855.06
2009/04/23 11:06:06.9     -28   -716     54    717    719 182.3   4.4  34162  289.61 0855.06
2009/04/23 11:06:07.0      -3   -740    -11    741    742 180.3  -0.9  34182  289.95 0855.06
2009/04/23 11:06:07.1    -127   -816   -106    827    834 188.9  -7.3  34200  290.26 0855.06
2009/04/23 11:06:07.2     -77   -696   -188    701    726 186.4 -15.1  34188  290.03 0855.06
2009/04/23 11:06:07.3     -33   -553   -105    554    564 183.5 -10.8  34152  289.45 0855.06
2009/04/23 11:06:07.4    -106   -663     27    672    673 189.1   2.4  34170  289.73 0855.06
2009/04/23 11:06:07.5    -191   -579    -33    610    611 198.3  -3.2  34174  289.80 0855.06
2009/04/23 11:06:07.6    -241   -569     50    619    622 203.0   4.7  34168  289.72 0855.06
2009/04/23 11:06:07.7    -193   -609     48    639    641 197.6   4.3  34168  289.70 0855.06
2009/04/23 11:06:07.8    -216   -459    -46    508    511 205.2  -5.2  34160  289.56 0855.06
2009/04/23 11:06:07.9    -244   -457    -92    519    528 208.1 -10.1  34114  288.79 0855.06
2009/04/23 11:06:08.0    -307   -406    -43    510    513 217.1  -4.9  34162  289.62 0855.06
2009/04/23 11:06:08.1    -236   -499    -77    553    559 205.3  -8.0  34144  289.29 0855.06
2009/04/23 11:06:08.2    -271   -424    -19    504    505 212.6  -2.2  34148  289.37 0855.06
2009/04/23 11:06:08.3    -146   -365   -156    394    423 201.8 -27.3  34144  289.29 0855.06
2009/04/23 11:06:08.4     -49   -571     36    574    576 185.0   3.6  34142  289.25 0855.06
2009/04/23 11:06:08.5     224   -556   -170    600    624 158.1 -15.9  34138  289.20 0855.06
2009/04/23 11:06:08.6     250   -420   -115    489    503 149.3 -13.3  34140  289.23 0855.06
2009/04/23 11:06:08.7     196   -277     16    340    341 144.8   2.8  34132  289.10 0855.06
2009/04/23 11:06:08.8      65   -483    132    488    506 172.3  15.1  34150  289.40 0855.06
2009/04/23 11:06:08.9     111   -510    -59    523    527 167.7  -6.5  34140  289.23 0855.06
2009/04/23 11:06:09.0     112   -456   -164    470    498 166.1 -19.3  34124  288.96 0855.06
2009/04/23 11:06:09.1      49   -429   -129    432    451 173.4 -16.6  34130  289.05 0855.06
2009/04/23 11:06:09.2      95   -487   -141    497    516 168.9 -20.7  34126  289.00 0855.06
2009/04/23 11:06:09.3       0   -383   -115    384    401 180.1 -16.7  34126  288.98 0855.06
2009/04/23 11:06:09.4     -25   -329   -125    330    352 184.4 -26.1  34126  289.01 0855.06
2009/04/23 11:06:09.5      91   -342   -137    355    380 165.0 -26.7  34126  289.01 0855.06
2009/04/23 11:06:09.6      91   -300    -77    314    324 163.0 -13.8  34130  289.05 0855.06
2009/04/23 11:06:09.7      48   -278   -101    283    301 170.2 -19.7  34132  289.09 0855.06
2009/04/23 11:06:09.8      64   -234    -71    243    254 164.6 -16.4  34130  289.05 0855.06
2009/04/23 11:06:09.9      -8   -269    -26    270    272 181.8  -5.6  34130  289.05 0855.06
2009/04/23 11:06:10.0     -75   -166    -65    183    194 204.5 -24.4  34130  289.06 0855.06
2009/04/23 11:06:10.1     -52   -257   -109    263    284 191.5 -28.5  34136  289.17 0855.06
2009/04/23 11:06:10.2     -60   -231   -105    239    261 194.7 -29.6  34140  289.22 0855.06
2009/04/23 11:06:10.3     -47   -233   -162    238    287 191.6 -42.0  34138  289.19 0855.06
2009/04/23 11:06:10.4     -13   -205   -142    206    250 183.6 -42.2  34130  289.05 0855.06
2009/04/23 11:06:10.5      53   -209     13    216    217 165.7   3.6  34134  289.14 0855.06
2009/04/23 11:06:10.6      76   -116    -17    139    141 146.6  -7.3  34134  289.14 0855.06
2009/04/23 11:06:10.7     102   -161    -65    191    201 147.5 -23.6  34136  289.16 0855.06
2009/04/23 11:06:10.8     116   -159    -52    197    204 143.9 -15.0  34136  289.18 0855.06
2009/04/23 11:06:10.9     170   -110     -8    203    204 123.1  -2.3  34134  289.13 0855.06
2009/04/23 11:06:11.0      95    -83      6    127    128 131.3   2.9  34138  289.19 0855.06
2009/04/23 11:06:11.1      92    -91      6    130    131 134.9   2.8  34140  289.23 0855.06
2009/04/23 11:06:11.2      17   -111     -5    113    114 171.1  -2.6  34138  289.19 0855.06
2009/04/23 11:06:11.3     -27   -100    -22    104    107 195.6 -11.9  34138  289.19 0855.06
2009/04/23 11:06:11.4     -14   -139    -33    140    144 185.8 -13.3  34138  289.19 0855.06
2009/04/23 11:06:11.5     -20   -200     45    202    208 185.8  12.6  34132  289.09 0855.06
2009/04/23 11:06:11.6     -14   -168    100    169    196 184.9  33.4  34138  289.19 0855.07
2009/04/23 11:06:11.7     -27   -135     81    138    160 191.6  33.1  34142  289.28 0855.07
2009/04/23 11:06:11.8     -30   -173     18    176    177 190.0   5.9  34140  289.23 0855.07
2009/04/23 11:06:11.9     -86   -182      9    202    203 205.3   2.8  34148  289.36 0855.07
2009/04/23 11:06:12.0    -103   -257     32    278    280 201.9   6.7  34156  289.49 0855.07
2009/04/23 11:06:12.1    -106   -298     64    317    324 199.6  11.5  34146  289.32 0855.07
2009/04/23 11:06:12.2     -44   -232    148    237    279 190.7  35.0  34134  289.14 0855.07
2009/04/23 11:06:12.3     -36   -215    155    219    268 189.6  38.8  34138  289.20 0855.07
2009/04/23 11:06:12.4     -50   -185    114    192    223 195.2  33.5  34146  289.33 0855.07
2009/04/23 11:06:12.5     -26   -155    123    158    200 189.8  41.7  34140  289.24 0855.07
2009/04/23 11:06:12.6     -18   -111    123    113    167 189.3  52.7  34144  289.31 0855.07
2009/04/23 11:06:12.7      -8   -102     98    103    142 184.5  48.5  34140  289.23 0855.07
2009/04/23 11:06:12.8      26    -16    118     31    122 122.4  84.9  34164  289.63 0855.07
2009/04/23 11:06:12.9       3    -16    100     17    101 168.4  90.0  34162  289.60 0855.07
2009/04/23 11:06:13.0       7     -8     61     11     61 140.4  90.0  34168  289.72 0855.07
2009/04/23 11:06:13.1      -8    -52     80     53     95 188.9  64.1  34162  289.60 0855.07
2009/04/23 11:06:13.2     -15    -85     72     87    112 190.2  43.8  34142  289.28 0855.07
2009/04/23 11:06:13.3     -15    -96     79     98    125 188.9  43.3  34144  289.30 0855.07
2009/04/23 11:06:13.4     -42   -111     73    119    139 200.9  35.0  34148  289.36 0855.07
2009/04/23 11:06:13.5     -63    -85     61    106    122 216.5  32.4  34144  289.31 0855.07
2009/04/23 11:06:13.6     -59    -87     49    106    116 214.3  27.1  34140  289.24 0855.09
2009/04/23 11:06:13.7    -120   -117     32    168    172 225.8  10.8  34154  289.46 0855.09
2009/04/23 11:06:13.8    -104   -104     -3    148    149 225.0  -1.2  34154  289.48 0855.09
2009/04/23 11:06:13.9     -95   -130     31    162    166 216.1  11.1  34152  289.45 0855.09
2009/04/23 11:06:14.0     -97   -110     24    147    150 221.4   9.5  34160  289.57 0855.09
2009/04/23 11:06:14.1     -58   -114     57    129    141 207.2  25.2  34154  289.46 0855.09
2009/04/23 11:06:14.2     -53   -132     65    143    157 201.8  26.2  34150  289.40 0855.09
2009/04/23 11:06:14.3     -45   -134     47    142    150 198.7  18.4  34150  289.41 0855.09
2009/04/23 11:06:14.4     -55    -98     31    113    118 209.4  15.3  34150  289.40 0855.09
2009/04/23 11:06:14.5     -28   -142     39    145    151 191.5  15.3  34154  289.48 0855.09
2009/04/23 11:06:14.6     -21   -150     61    152    163 188.0  22.8  34186  290.01 0855.09
2009/04/23 11:06:14.7       8   -114     66    115    132 175.6  32.4  34206  290.36 0855.09
2009/04/23 11:06:14.8       5    -80     67     81    105 176.4  43.8  34198  290.21 0855.09
2009/04/23 11:06:14.9       0    -98     56     99    113 179.5  31.9  34202  290.30 0855.09
2009/04/23 11:06:15.0     -29    -88     47     93    104 198.7  29.3  34192  290.13 0855.09
2009/04/23 11:06:15.1     -31    -69     30     76     81 204.5  22.5  34180  289.92 0855.09
2009/04/23 11:06:15.2     -70    -63     19     95     98 228.2  11.6  34182  289.96 0855.09
2009/04/23 11:06:15.3    -180   -102    -94    207    227 240.5 -30.6  34176  289.84 0855.09
2009/04/23 11:06:15.4    -193    -61   -106    203    229 252.5 -33.9  34174  289.80 0855.09
2009/04/23 11:06:15.5    -201     16   -125    202    237 274.6 -38.9  34178  289.87 0855.09
2009/04/23 11:06:15.6    -180      3   -107    181    210 271.3 -37.9  34176  289.84 0855.09
2009/04/23 11:06:15.7    -187      2   -123    188    224 270.9 -40.4  34174  289.80 0855.09
2009/04/23 11:06:15.8    -116    -90   -122    147    191 232.2 -48.2  34174  289.82 0855.09
2009/04/23 11:06:15.9     -44    -82   -125     94    156 208.1 -63.8  34174  289.80 0855.09
2009/04/23 11:06:16.0     -40   -162   -142    167    219 194.0 -48.9  34176  289.85 0855.09
2009/04/23 11:06:16.1      45   -151   -120    158    198 163.1 -45.6  34180  289.91 0855.09
2009/04/23 11:06:16.2      89    -75    -28    117    121 130.4 -13.4  34182  289.94 0855.09
2009/04/23 11:06:16.3      45     21    -31     50     58  64.7 -39.9  34190  290.09 0855.09
2009/04/23 11:06:16.4      15     61    -13     63     65  14.3 -12.4  34196  290.19 0855.09
2009/04/23 11:06:16.5      45      6     44     46     63  82.1  50.0  34198  290.21 0855.09
2009/04/23 11:06:16.6      52     52     64     74     97  45.1  45.8  34200  290.25 0855.09
2009/04/23 11:06:16.7      44      8     84     45     95  79.4  69.8  34210  290.41 0855.09
2009/04/23 11:06:16.8     -22   -111    158    114    194 191.5  60.6  34206  290.35 0855.09
2009/04/23 11:06:16.9     -80    -62    155    102    185 232.2  63.9  34204  290.31 0855.09
2009/04/23 11:06:17.0     -93     39    158    102    188 293.1  64.6  34208  290.38 0855.09
2009/04/23 11:06:17.1    -115    -25    169    118    206 257.6  61.8  34198  290.21 0855.09
2009/04/23 11:06:17.2      10    -35    119     37    124 163.1  81.8  34210  290.43 0855.09
2009/04/23 11:06:17.3     -17    -54    102     57    116 197.8  68.8  34208  290.40 0855.09
2009/04/23 11:06:17.4     -51    -78    107     94    142 213.4  54.2  34198  290.21 0855.09
2009/04/23 11:06:17.5     -11     -2    110     12    110 258.5  90.0  34206  290.35 0855.09
2009/04/23 11:06:17.6     -30     63     99     70    121 334.5  61.1  34196  290.18 0855.10
2009/04/23 11:06:17.7     -43     69     82     82    115 328.4  50.1  34192  290.13 0855.10
2009/04/23 11:06:17.8     -15     32     57     36     67 334.5  64.7  34196  290.18 0855.10
2009/04/23 11:06:17.9     -50      5     49     51     70 276.1  49.0  34196  290.19 0855.10
2009/04/23 11:06:18.0     -51     73     50     90    102 324.8  31.4  34190  290.09 0855.10
2009/04/23 11:06:18.1     -39     40     61     57     83 315.8  51.6  34192  290.11 0855.10
2009/04/23 11:06:18.2       4     68     91     69    114   3.6  59.0  34194  290.16 0855.10
2009/04/23 11:06:18.3      -5     93    103     94    139 356.4  52.2  34188  290.06 0855.10
2009/04/23 11:06:18.4     -51    148     91    157    181 340.8  32.7  34184  289.99 0855.10
2009/04/23 11:06:18.5     -34    127     56    132    143 344.9  24.1  34184  289.97 0855.10
2009/04/23 11:06:18.6      15     74     98     76    124  11.6  58.5  34190  290.09 0855.10
2009/04/23 11:06:18.7      46     83     41     95    103  29.0  24.6  34192  290.13 0855.10
2009/04/23 11:06:18.8     100     33    138    106    174  71.4  58.7  34192  290.11 0855.10
2009/04/23 11:06:18.9      59    107     43    123    131  29.0  19.4  34186  290.02 0855.10
2009/04/23 11:06:19.0      11    -41     52     43     67 164.9  56.3  34200  290.26 0855.10
2009/04/23 11:06:19.1    -111   -121     99    165    192 222.5  34.2  34188  290.06 0855.10
2009/04/23 11:06:19.2    -194    -91    176    215    277 244.8  43.7  34190  290.07 0855.10
2009/04/23 11:06:19.3    -197   -125     64    234    243 237.6  15.3  34194  290.14 0855.10
2009/04/23 11:06:19.4    -193   -140     28    239    241 234.0   6.9  34190  290.07 0855.10
2009/04/23 11:06:19.5     -97   -173     -7    199    200 209.2  -2.2  34178  289.87 0855.10
2009/04/23 11:06:19.6      66   -177    129    189    228 159.5  37.6  34182  289.96 0855.10
2009/04/23 11:06:19.7      60   -143     38    156    161 157.3  13.7  34184  289.97 0855.10
2009/04/23 11:06:19.8     131      0     71    132    149  90.0  30.8  34190  290.09 0855.10
2009/04/23 11:06:19.9     166    -19    112    168    201  96.6  36.7  34190  290.09 0855.10
2009/04/23 11:06:20.0     179     49     22    186    188  74.7   6.9  34188  290.04 0855.10
2009/04/23 11:06:20.1     258     17     -5    259    260  86.1  -1.2  34186  290.00 0855.10
2009/04/23 11:06:20.2     284   -141      0    318    319 116.4   0.1  34184  289.97 0855.10
2009/04/23 11:06:20.3     303   -125    -29    328    330 112.4  -5.1  34182  289.96 0855.10
2009/04/23 11:06:20.4     294   -138     14    326    327 115.2   2.5  34180  289.92 0855.10
2009/04/23 11:06:20.5     270    -46     28    274    276  99.7   5.9  34190  290.09 0855.10
2009/04/23 11:06:20.6     268     32    -12    270    271  83.0  -2.6  34188  290.05 0855.10
2009/04/23 11:06:20.7     319    -72    -25    328    330 102.8  -4.5  34204  290.32 0855.10
2009/04/23 11:06:20.8     277   -269     -8    387    388 134.2  -1.3  34206  290.35 0855.10
2009/04/23 11:06:20.9     227   -232     83    325    336 135.7  14.4  34202  290.27 0855.10
2009/04/23 11:06:21.0     236   -150     87    281    295 122.5  17.3  34208  290.39 0855.10
2009/04/23 11:06:21.1     235    -85    114    251    275 110.0  26.2  34206  290.36 0855.10
2009/04/23 11:06:21.2     222   -105    110    246    269 115.4  25.9  34210  290.41 0855.10
2009/04/23 11:06:21.3     251   -175    153    307    343 124.9  28.4  34192  290.13 0855.10
2009/04/23 11:06:21.4     195    -42    184    200    271 102.4  47.7  34190  290.09 0855.10
2009/04/23 11:06:21.5     188    -67    182    200    270 109.7  47.1  34190  290.09 0855.10
2009/04/23 11:06:21.6     306      1    116    307    328  89.6  21.6  34190  290.07 0855.11
2009/04/23 11:06:21.7     154     14    134    155    204  84.8  45.6  34194  290.14 0855.11
2009/04/23 11:06:21.8     152    -26    116    155    193  99.7  40.4  34192  290.11 0855.11
2009/04/23 11:06:21.9     185      0    144    186    235  90.0  41.7  34190  290.08 0855.11
2009/04/23 11:06:22.0     142     26    171    145    224  79.4  55.8  34184  289.99 0855.11
2009/04/23 11:06:22.1      40    -38    149     56    159 134.0  78.6  34204  290.31 0855.11
2009/04/23 11:06:22.2     -30    -42    143     52    152 216.1  79.7  34202  290.30 0855.11
2009/04/23 11:06:22.3     -19   -146    144    148    206 187.6  49.4  34188  290.04 0855.11
2009/04/23 11:06:22.4      22   -107    173    110    205 168.0  64.7  34190  290.09 0855.11
2009/04/23 11:06:22.5       0    -10     90     11     90 182.7  90.0  34202  290.28 0855.11
2009/04/23 11:06:22.6     -46    -31    134     56    145 235.8  76.6  34210  290.41 0855.11
2009/04/23 11:06:22.7     -27   -123    151    127    197 192.5  55.6  34186  290.02 0855.11
2009/04/23 11:06:22.8      19    -89    152     92    177 167.5  66.0  34198  290.23 0855.11
2009/04/23 11:06:22.9       2    -25    136     26    138 175.5  89.6  34202  290.30 0855.11
2009/04/23 11:06:23.0     -30    -89    123     94    154 198.7  58.5  34194  290.16 0855.11
2009/04/23 11:06:23.1      19    -92    115     95    149 168.0  56.4  34194  290.14 0855.11
2009/04/23 11:06:23.2     -57   -153    122    164    204 200.7  40.4  34188  290.04 0855.11
2009/04/23 11:06:23.3     -12   -110    138    111    177 186.2  56.9  34202  290.30 0855.11
2009/04/23 11:06:23.4     -58   -145     74    157    173 201.8  27.1  34200  290.26 0855.11
2009/04/23 11:06:23.5    -170   -218     33    277    280 217.9   6.9  34228  290.73 0855.11
2009/04/23 11:06:23.6    -173   -192     86    259    274 222.1  18.5  34224  290.65 0855.08
2009/04/23 11:06:23.7    -114   -205     87    235    250 209.2  21.0  34218  290.56 0855.08
2009/04/23 11:06:23.8    -110   -173     82    206    221 212.5  23.0  34220  290.58 0855.08
2009/04/23 11:06:23.9    -154   -234    115    281    303 213.4  23.4  34178  289.88 0855.08
2009/04/23 11:06:24.0    -173   -254    120    308    330 214.3  22.4  34184  289.98 0855.08
2009/04/23 11:06:24.1    -173   -281    134    331    357 211.6  23.2  34186  290.01 0855.08
2009/04/23 11:06:24.2    -237   -261     42    353    356 222.2   6.8  34218  290.57 0855.08
2009/04/23 11:06:24.3    -171   -249     15    303    304 214.5   2.9  34224  290.66 0855.08
2009/04/23 11:06:24.4     -98   -295     28    312    314 198.5   5.2  34194  290.14 0855.08
2009/04/23 11:06:24.5    -146   -239     14    281    282 211.4   2.9  34202  290.29 0855.08
2009/04/23 11:06:24.6    -219   -249    -30    332    334 221.3  -5.3  34202  290.28 0855.08
2009/04/23 11:06:24.7    -103   -301     64    319    326 199.0  11.3  34196  290.19 0855.08
2009/04/23 11:06:24.8    -107   -292     32    312    314 200.1   5.9  34192  290.10 0855.08
2009/04/23 11:06:24.9     -88   -228     98    245    263 201.2  23.0  34210  290.41 0855.08
2009/04/23 11:06:25.0    -156   -212    141    264    299 216.3  30.3  34206  290.36 0855.08
2009/04/23 11:06:25.1    -130   -235    192    269    330 209.0  39.0  34182  289.93 0855.08
2009/04/23 11:06:25.2    -197   -223    169    298    342 221.4  32.0  34196  290.18 0855.08
2009/04/23 11:06:25.3    -232   -227    179    325    371 225.7  31.4  34210  290.42 0855.08
2009/04/23 11:06:25.4    -185   -198    138    272    305 223.0  29.1  34236  290.87 0855.08
2009/04/23 11:06:25.5    -156   -259    115    303    324 211.2  21.7  34186  290.00 0855.08
2009/04/23 11:06:25.6    -145   -261    100    299    316 209.0  18.5  34206  290.34 0855.07
2009/04/23 11:06:25.7    -207   -203     73    291    301 225.6  14.2  34222  290.63 0855.07
2009/04/23 11:06:25.8    -248   -196     67    317    325 231.6  12.0  34210  290.41 0855.07
2009/04/23 11:06:25.9    -225   -303    -14    378    379 216.6  -2.2  34194  290.16 0855.07
2009/04/23 11:06:26.0    -388   -103   -156    402    431 255.1 -26.8  34206  290.34 0855.07
2009/04/23 11:06:26.1    -261   -129   -128    292    318 243.6 -29.6  34194  290.15 0855.07
2009/04/23 11:06:26.2    -208   -256    -97    331    344 219.1 -21.2  34212  290.45 0855.07
2009/04/23 11:06:26.3    -233   -217   -109    319    337 227.1 -23.8  34198  290.20 0855.07
2009/04/23 11:06:26.4    -207   -231    -48    311    315 221.9  -8.8  34204  290.32 0855.07
2009/04/23 11:06:26.5    -240   -189   -108    306    325 231.8 -19.5  34202  290.29 0855.07
2009/04/23 11:06:26.6    -259   -186   -117    320    340 234.3 -25.2  34198  290.20 0855.07
2009/04/23 11:06:26.7    -375   -159   -213    408    460 247.0 -34.0  34196  290.19 0855.07
2009/04/23 11:06:26.8    -432    -63   -140    437    458 261.6 -22.9  34218  290.56 0855.07
2009/04/23 11:06:26.9    -299    -77   -163    309    349 255.4 -34.5  34204  290.33 0855.07
2009/04/23 11:06:27.0    -144   -202   -112    249    273 215.6 -30.3  34210  290.41 0855.07
2009/04/23 11:06:27.1    -205   -228    -88    307    319 221.9 -20.9  34206  290.34 0855.07
2009/04/23 11:06:27.2     -94   -247    -24    265    267 200.9  -5.4  34200  290.24 0855.07
2009/04/23 11:06:27.3     -52   -240   -163    246    295 192.4 -40.9  34188  290.03 0855.07
2009/04/23 11:06:27.4     126   -183   -142    223    264 145.3 -39.9  34200  290.26 0855.07
2009/04/23 11:06:27.5     -84    -43   -104     95    140 242.5 -56.6  34198  290.21 0855.07
2009/04/23 11:06:27.6     -37    -94    -64    102    120 201.9 -39.9  34198  290.23 0855.07
2009/04/23 11:06:27.7     -50   -100    -31    113    118 206.7 -15.4  34200  290.25 0855.07
2009/04/23 11:06:27.8    -135   -110    -53    175    182 230.7 -22.1  34192  290.11 0855.07
2009/04/23 11:06:27.9    -173    -57    -83    183    200 251.8 -30.3  34192  290.11 0855.07
2009/04/23 11:06:28.0    -190   -119   -128    225    258 238.0 -36.5  34188  290.03 0855.07
2009/04/23 11:06:28.1    -248   -108   -180    271    325 246.3 -41.0  34200  290.24 0855.07
2009/04/23 11:06:28.2    -290   -193   -104    349    365 236.4 -16.7  34192  290.13 0855.07
2009/04/23 11:06:28.3    -291   -309     83    425    434 223.3  11.1  34192  290.12 0855.07
2009/04/23 11:06:28.4    -380   -253     -5    457    458 236.3  -0.7  34200  290.26 0855.07
2009/04/23 11:06:28.5    -458   -235   -108    515    527 242.8 -11.9  34208  290.40 0855.07
2009/04/23 11:06:28.6    -431   -453   -113    626    637 223.6 -10.3  34212  290.45 0855.07
2009/04/23 11:06:28.7    -363   -392   -138    535    553 222.8 -14.5  34204  290.33 0855.07
2009/04/23 11:06:28.8    -181   -373    -18    415    416 206.0  -2.5  34206  290.34 0855.07
2009/04/23 11:06:28.9    -166   -256   -160    306    345 213.0 -34.4  34208  290.37 0855.07
2009/04/23 11:06:29.0    -312   -327     22    453    454 223.7   2.8  34204  290.31 0855.07
2009/04/23 11:06:29.1    -170   -389    181    425    461 203.7  24.5  34198  290.22 0855.07
2009/04/23 11:06:29.2    -113   -359     82    377    386 197.6  12.3  34196  290.18 0855.07
2009/04/23 11:06:29.3    -111   -392     27    408    409 195.9   3.8  34188  290.05 0855.07
2009/04/23 11:06:29.4    -131   -432    -27    452    453 197.0  -3.5  34196  290.17 0855.07
2009/04/23 11:06:29.5    -163   -378     41    412    415 203.3   5.8  34192  290.12 0855.07
2009/04/23 11:06:29.6     -69   -339     63    347    353 191.6  10.4  34190  290.08 0855.07
2009/04/23 11:06:29.7     -49   -284    109    289    308 189.8  21.5  34198  290.20 0855.07
2009/04/23 11:06:29.8     121   -354     53    375    379 161.1   8.1  34192  290.10 0855.07
2009/04/23 11:06:29.9     199   -232     26    306    308 139.4   5.0  34190  290.07 0855.07
2009/04/23 11:06:30.0     132   -187    131    229    263 144.8  32.4  34200  290.24 0855.07
2009/04/23 11:06:30.1     163    -86    154    185    240 118.0  44.1  34208  290.40 0855.07
2009/04/23 11:06:30.2     159    -46    200    166    259 106.2  56.3  34220  290.58 0855.07
2009/04/23 11:06:30.3      58     22    207     63    216  69.2  82.8  34226  290.69 0855.07
2009/04/23 11:06:30.4     138    -68    159    154    221 116.2  50.9  34232  290.79 0855.07
2009/04/23 11:06:30.5     164    -70    183    179    255 113.3  50.9  34224  290.66 0855.07
2009/04/23 11:06:30.6      31     35    109     48    119  41.4  75.0  34222  290.62 0855.06
2009/04/23 11:06:30.7     168    -16    203    169    264  95.5  56.3  34216  290.53 0855.06
2009/04/23 11:06:30.8     265      0    216    266    342  90.0  43.5  34214  290.48 0855.06
2009/04/23 11:06:30.9     285    -87    186    299    352 106.9  34.9  34210  290.42 0855.06
2009/04/23 11:06:31.0     251    -87    183    266    322 109.3  37.8  34206  290.34 0855.06
2009/04/23 11:06:31.1     200   -127    192    238    305 122.5  43.5  34206  290.36 0855.06
2009/04/23 11:06:31.2     203   -109    196    231    302 118.2  44.3  34208  290.37 0855.06
2009/04/23 11:06:31.3     152    -51    198    161    255 108.6  56.6  34214  290.50 0855.06
2009/04/23 11:06:31.4      15    -21    158     26    160 143.9  90.0  34224  290.67 0855.06
2009/04/23 11:06:31.5     -40    -18    103     45    112 245.6  75.0  34232  290.79 0855.06
2009/04/23 11:06:31.6     -72    -24     94     76    120 251.6  56.4  34226  290.69 0855.06
2009/04/23 11:06:31.7     -22      0     84     23     87 270.8  84.4  34232  290.79 0855.06
2009/04/23 11:06:31.8      46     49    134     68    150  43.3  71.0  34220  290.58 0855.06
2009/04/23 11:06:31.9     -21    -26     74     34     81 219.6  74.0  34218  290.55 0855.06
2009/04/23 11:06:32.0      88     56    145    105    179  57.6  60.5  34218  290.55 0855.06
2009/04/23 11:06:32.1     107     64    107    125    164  58.9  45.1  34220  290.60 0855.06
2009/04/23 11:06:32.2      99     77     34    126    131  52.2  15.3  34214  290.50 0855.06
2009/04/23 11:06:32.3      82     29     45     87     97  70.5  29.3  34214  290.50 0855.06
2009/04/23 11:06:32.4      71     23     44     75     86  71.4  33.5  34214  290.50 0855.06
2009/04/23 11:06:32.5      66     43     10     79     80  56.7   7.5  34210  290.43 0855.06
2009/04/23 11:06:32.6     -55     44     31     71     77 308.6  25.1  34212  290.45 0855.06
2009/04/23 11:06:32.7     -37    -43     52     57     77 220.5  47.9  34222  290.62 0855.06
2009/04/23 11:06:32.8      36     12    100     38    106  71.6  78.6  34222  290.64 0855.06
2009/04/23 11:06:32.9      93     22    118     96    152  76.3  56.4  34226  290.69 0855.06
2009/04/23 11:06:33.0     163     18     33    165    169  83.6  11.6  34218  290.57 0855.06
2009/04/23 11:06:33.1      32    -78     45     85     96 157.7  30.3  34218  290.55 0855.06
2009/04/23 11:06:33.2     -54    -46     84     71    109 229.6  56.3  34232  290.81 0855.06
2009/04/23 11:06:33.3     -26    -23     48     35     59 228.7  60.5  34236  290.87 0855.06
2009/04/23 11:06:33.4     -42    -24     46     49     67 240.2  48.0  34230  290.77 0855.06
2009/04/23 11:06:33.5     -24      0     74     25     78 269.2  81.0  34240  290.92 0855.06
2009/04/23 11:06:33.6      -1     31     84     32     89 357.3  78.6  34242  290.96 0855.06
2009/04/23 11:06:33.7     -65     13     23     67     71 281.5  18.9  34240  290.92 0855.06
2009/04/23 11:06:33.8     -62    -69     15     93     95 221.9   9.5  34234  290.82 0855.06
2009/04/23 11:06:33.9    -146    -11     20    147    149 265.7   8.0  34232  290.79 0855.06
2009/04/23 11:06:34.0     -87    -27     99     92    135 252.7  52.2  34246  291.03 0855.06
2009/04/23 11:06:34.1    -118    127     71    174    187 317.2  23.1  34254  291.18 0855.06
2009/04/23 11:06:34.2    -146     75     68    165    178 297.3  23.4  34284  291.69 0855.06
2009/04/23 11:06:34.4    -174    -44     60    180    190 255.6  18.4  34248  291.08 0855.06
2009/04/23 11:06:34.5    -175    -91     38    198    202 242.5  11.1  34238  290.91 0855.06
2009/04/23 11:06:34.6    -113   -150     63    189    200 217.0  18.4  34226  290.69 0855.06
2009/04/23 11:06:34.7    -124   -209    172    244    298 210.8  38.6  34240  290.93 0855.07
2009/04/23 11:06:34.8     -55   -139    226    150    271 201.8  63.6  34230  290.76 0855.07
2009/04/23 11:06:34.9     -31   -164    201    168    261 190.9  56.1  34218  290.54 0855.07
2009/04/23 11:06:35.0       0    -85    164     86    185 180.0  70.0  34226  290.70 0855.07
2009/04/23 11:06:35.1      -3    -59    148     60    159 183.6  76.8  34226  290.70 0855.07
2009/04/23 11:06:35.2       0   -131    170    132    215 180.4  58.4  34222  290.64 0855.07
2009/04/23 11:06:35.3     -42   -165    140    171    221 194.3  43.7  34214  290.48 0855.07
2009/04/23 11:06:35.4     -69   -198    144    210    254 199.2  37.8  34218  290.56 0855.07
2009/04/23 11:06:35.5       8   -112    168    113    202 175.6  63.2  34218  290.55 0855.07
2009/04/23 11:06:35.6     -22     -8    107     24    109 250.0  88.5  34234  290.82 0855.07
2009/04/23 11:06:35.7     -46      0     69     47     83 270.0  62.6  34228  290.72 0855.07
2009/04/23 11:06:35.8       8     26     85     28     89  18.3  80.7  34232  290.79 0855.07
2009/04/23 11:06:35.9      36    -58    131     69    148 148.4  69.8  34208  290.40 0855.07
2009/04/23 11:06:36.0      94     69    173    117    208  53.6  62.7  34210  290.43 0855.07
2009/04/23 11:06:36.1     201     15    251    202    322  85.6  57.1  34202  290.27 0855.07
2009/04/23 11:06:36.2     133    -14    204    134    244  96.2  63.6  34216  290.52 0855.07
2009/04/23 11:06:36.3     103     -1    161    104    191  90.9  64.6  34210  290.41 0855.07
2009/04/23 11:06:36.4      90      5    194     91    214  86.5  73.1  34214  290.48 0855.07
2009/04/23 11:06:36.5     123    -37    256    129    286 106.8  71.4  34210  290.42 0855.07
2009/04/23 11:06:36.6     343   -120    247    364    439 109.4  37.4  34206  290.34 0855.07
2009/04/23 11:06:36.7     260   -260    153    369    399 135.0  23.9  34204  290.32 0855.07
2009/04/23 11:06:36.8     191   -157    246    248    349 129.5  50.1  34204  290.31 0855.07
2009/04/23 11:06:36.9     289   -159    229    331    402 118.9  38.3  34206  290.35 0855.07
2009/04/23 11:06:37.0     186   -292    315    347    468 147.4  46.9  34210  290.43 0855.07
2009/04/23 11:06:37.1      49   -352    266    356    444 172.0  40.6  34206  290.34 0855.07
2009/04/23 11:06:37.2      46   -275    214    279    351 170.4  41.4  34206  290.35 0855.07
2009/04/23 11:06:37.3      74   -315     90    324    337 166.7  15.6  34202  290.30 0855.07
2009/04/23 11:06:37.4     -51   -270    166    275    321 190.9  34.1  34204  290.31 0855.07
2009/04/23 11:06:37.5     -65   -299    148    307    340 192.4  27.4  34208  290.40 0855.07
2009/04/23 11:06:37.6     -35   -284    197    287    348 187.2  37.8  34208  290.40 0855.07
2009/04/23 11:06:37.7      21   -260    220    261    341 175.3  44.4  34216  290.53 0855.07
2009/04/23 11:06:37.8      61   -259    139    267    301 166.6  29.8  34218  290.54 0855.07
2009/04/23 11:06:37.9     118   -296    111    319    338 158.2  19.2  34218  290.54 0855.07
2009/04/23 11:06:38.0     113   -307    103    328    344 159.7  17.5  34220  290.59 0855.07
2009/04/23 11:06:38.1     164   -208     82    266    279 141.7  17.3  34226  290.68 0855.07
2009/04/23 11:06:38.2     121   -289     49    314    318 157.3   9.0  34216  290.53 0855.07
2009/04/23 11:06:38.3      67   -328     40    335    338 168.4   6.9  34228  290.71 0855.07
2009/04/23 11:06:38.4     -15   -326    -56    327    332 182.7  -9.8  34228  290.74 0855.07
2009/04/23 11:06:38.5     -44   -333    -14    336    337 187.6  -2.5  34230  290.76 0855.07
2009/04/23 11:06:38.6      -4   -396     -1    397    398 180.6  -0.3  34226  290.69 0855.07
2009/04/23 11:06:38.7      -4   -392     40    393    396 180.7   5.9  34224  290.66 0855.05
2009/04/23 11:06:38.8      33   -438     11    440    441 175.6   1.5  34224  290.65 0855.05
2009/04/23 11:06:38.9      80   -335    -10    345    346 166.4  -1.8  34222  290.64 0855.05
2009/04/23 11:06:39.0     -17   -483     -6    484    485 182.1  -0.7  34218  290.57 0855.05
2009/04/23 11:06:39.1     152   -528   -198    550    585 163.9 -19.8  34198  290.20 0855.05
2009/04/23 11:06:39.2      39   -472    -68    474    479 175.2  -8.2  34188  290.03 0855.05
2009/04/23 11:06:39.3     147   -326      5    358    359 155.7   0.8  34184  289.99 0855.05
2009/04/23 11:06:39.4     125   -297     15    323    324 157.2   2.8  34174  289.81 0855.05
2009/04/23 11:06:39.5     142   -307    116    339    359 155.1  18.9  34180  289.91 0855.05
2009/04/23 11:06:39.6      65   -393     20    399    400 170.6   2.9  34178  289.89 0855.05
2009/04/23 11:06:39.7      33   -430     92    432    442 175.5  12.1  34178  289.87 0855.05
2009/04/23 11:06:39.8      84   -327    -13    338    339 165.6  -2.2  34186  290.01 0855.05
2009/04/23 11:06:39.9      73   -426   -108    433    447 170.2 -14.1  34200  290.26 0855.05
2009/04/23 11:06:40.0      67   -477    -96    482    492 172.0 -11.3  34200  290.25 0855.05
2009/04/23 11:06:40.1     147   -455    -18    479    480 162.1  -2.2  34194  290.15 0855.05
2009/04/23 11:06:40.2     128   -439     -2    458    459 163.7  -0.4  34186  290.02 0855.05
2009/04/23 11:06:40.3     122   -450    -18    467    468 164.8  -2.2  34188  290.06 0855.05
2009/04/23 11:06:40.4     130   -463    -29    481    482 164.3  -3.5  34182  289.95 0855.05
2009/04/23 11:06:40.5      92   -471    -89    481    490 168.9 -10.5  34198  290.20 0855.05
2009/04/23 11:06:40.6      97   -475    -61    486    490 168.4  -7.2  34198  290.22 0855.05
2009/04/23 11:06:40.7      91   -452    -15    462    463 168.5  -1.9  34200  290.26 0855.06
2009/04/23 11:06:40.8      95   -499    -58    508    512 169.2  -6.6  34198  290.20 0855.06
2009/04/23 11:06:40.9      83   -489    -95    497    507 170.3 -10.9  34198  290.22 0855.06
2009/04/23 11:06:41.0     122   -433   -115    451    466 164.2 -14.4  34194  290.16 0855.06
2009/04/23 11:06:41.1     127   -414    -88    434    443 163.0 -11.5  34192  290.12 0855.06
2009/04/23 11:06:41.2     162   -459   -105    488    500 160.5 -12.2  34196  290.17 0855.06
2009/04/23 11:06:41.3     132   -419    -88    440    449 162.5 -11.3  34190  290.09 0855.06
2009/04/23 11:06:41.4     134   -393    -25    416    417 161.1  -3.5  34188  290.04 0855.06
2009/04/23 11:06:41.5     138   -404    -14    428    429 161.1  -1.9  34190  290.07 0855.06
2009/04/23 11:06:41.6     173   -394    -26    431    432 156.3  -3.5  34194  290.14 0855.06
2009/04/23 11:06:41.7     156   -376    -18    408    409 157.4  -2.6  34190  290.07 0855.06
2009/04/23 11:06:41.8     174   -341     -5    383    384 152.9  -0.9  34198  290.20 0855.06
2009/04/23 11:06:41.9     221   -403    -10    460    461 151.3  -1.3  34192  290.12 0855.06
2009/04/23 11:06:42.0     125   -466    -40    483    485 165.0  -4.8  34186  290.01 0855.06
2009/04/23 11:06:42.1     218   -446    -84    497    505 153.9  -9.6  34192  290.13 0855.06
2009/04/23 11:06:42.2     270   -384    -33    470    472 144.9  -4.1  34178  289.88 0855.06
2009/04/23 11:06:42.3     199   -508   -120    546    560 158.6 -12.4  34190  290.09 0855.06
2009/04/23 11:06:42.4     228   -462   -104    516    527 153.7 -11.5  34186  290.02 0855.06
2009/04/23 11:06:42.5     211   -482   -111    527    539 156.3 -11.9  34182  289.94 0855.06
2009/04/23 11:06:42.6     268   -426     34    504    506 147.9   3.9  34166  289.66 0855.06
2009/04/23 11:06:42.7     210   -348     -1    407    408 148.8  -0.3  34190  290.07 0855.08
2009/04/23 11:06:42.8     212   -361     33    419    421 149.5   4.6  34188  290.05 0855.08
2009/04/23 11:06:42.9     146   -370     61    398    403 158.4   8.7  34186  290.01 0855.08
2009/04/23 11:06:43.0      22   -374      4    375    376 176.6   0.7  34184  289.99 0855.08
2009/04/23 11:06:43.1     -50   -357     19    361    362 188.0   3.0  34182  289.94 0855.08
2009/04/23 11:06:43.2      82   -371     18    381    382 167.5   2.8  34182  289.96 0855.08
2009/04/23 11:06:43.3      40   -328     23    331    332 172.9   4.0  34184  289.99 0855.08
2009/04/23 11:06:43.4      29   -280     18    282    283 174.0   3.8  34188  290.05 0855.08
2009/04/23 11:06:43.5      98   -265     -8    283    284 159.5  -1.8  34186  290.02 0855.08
2009/04/23 11:06:43.6      59   -282     62    289    296 168.2  12.2  34188  290.05 0855.08
2009/04/23 11:06:43.7      63   -349     13    355    356 169.7   2.2  34196  290.18 0855.10
2009/04/23 11:06:43.8      36   -415     94    417    428 174.9  12.8  34196  290.17 0855.10
2009/04/23 11:06:43.9     -64   -414    151    419    446 188.8  19.9  34196  290.19 0855.10
2009/04/23 11:06:44.0     -24   -369    123    370    391 183.7  18.5  34198  290.20 0855.10
2009/04/23 11:06:44.1     -24   -346    124    347    368 184.1  20.4  34194  290.16 0855.10
2009/04/23 11:06:44.2      -1   -339    106    340    357 180.3  17.3  34202  290.27 0855.10
2009/04/23 11:06:44.3     -68   -325     33    333    335 191.9   5.8  34198  290.23 0855.10
2009/04/23 11:06:44.4     -86   -243     91    258    274 199.6  19.4  34202  290.27 0855.10
2009/04/23 11:06:44.5     -86   -301     37    314    317 196.1   6.9  34202  290.29 0855.10
2009/04/23 11:06:44.6      -4   -293     30    294    296 180.9   5.9  34202  290.27 0855.10
2009/04/23 11:06:44.7     -30   -320    -70    322    330 185.4 -12.3  34196  290.17 0855.10
2009/04/23 11:06:44.8      23   -303    -39    305    308 175.5  -7.3  34192  290.10 0855.10
2009/04/23 11:06:44.9       4   -257    -31    258    260 179.1  -6.9  34192  290.10 0855.10
2009/04/23 11:06:45.0    -194   -289   -120    349    370 213.9 -19.1  34184  289.99 0855.10
2009/04/23 11:06:45.1     -40   -366    -99    369    383 186.3 -15.1  34192  290.13 0855.10
2009/04/23 11:06:45.2       7   -386    -12    387    388 178.9  -1.9  34198  290.20 0855.10
2009/04/23 11:06:45.3    -134   -276     -1    307    308 205.9  -0.3  34202  290.29 0855.10
2009/04/23 11:06:45.4    -105   -195    -21    222    224 208.5  -5.6  34202  290.28 0855.10
2009/04/23 11:06:45.5     -68   -202     18    214    215 198.7   4.9  34192  290.13 0855.10
2009/04/23 11:06:45.6      -8   -178    -15    179    180 182.7  -4.9  34194  290.14 0855.10
2009/04/23 11:06:45.7     -36   -235    -39    238    242 188.7  -9.3  34208  290.37 0855.12
2009/04/23 11:06:45.8     -44   -216    -27    221    223 191.5  -7.2  34210  290.43 0855.12
2009/04/23 11:06:45.9     -83    -59    -48    102    112 234.5 -31.5  34212  290.45 0855.12
2009/04/23 11:06:46.0     -53      4    -26     54     59 274.4 -31.7  34216  290.52 0855.12
2009/04/23 11:06:46.1      26     21     36     34     49  50.5  50.1  34212  290.45 0855.12
2009/04/23 11:06:46.2     -17    -66     37     69     78 195.1  30.3  34204  290.33 0855.12
2009/04/23 11:06:46.3       7    -50    -26     51     57 172.0 -32.6  34204  290.31 0855.12
2009/04/23 11:06:46.4      -6    -30     -4     31     32 191.6  -7.3  34204  290.33 0855.12
2009/04/23 11:06:46.5      36    -36     61     51     79 135.0  55.8  34212  290.45 0855.12
2009/04/23 11:06:46.6      90     11     77     91    119  82.5  44.8  34214  290.50 0855.12
2009/04/23 11:06:46.7      80    -23     64     84    105 106.4  41.2  34212  290.47 0855.12
2009/04/23 11:06:46.8     -33    -21    125     40    131 237.6  81.2  34224  290.65 0855.12
2009/04/23 11:06:46.9    -198   -321    203    378    429 211.6  30.6  34190  290.09 0855.12
2009/04/23 11:06:47.0      -8   -107    268    108    288 184.4  77.1  34210  290.41 0855.12
2009/04/23 11:06:47.1     -24   -225    275    227    356 186.2  56.4  34202  290.29 0855.12
2009/04/23 11:06:47.2     -19    -56    156     60    167 198.7  78.2  34210  290.43 0855.12
2009/04/23 11:06:47.3     124    -50    208    134    247 112.2  64.4  34204  290.31 0855.12
2009/04/23 11:06:47.4      19     12    126     23    128  57.6  90.0  34210  290.43 0855.12
2009/04/23 11:06:47.5      15   -108    187    110    216 171.9  66.8  34198  290.23 0855.12
2009/04/23 11:06:47.6     -19    -58    204     62    213 198.3  82.5  34200  290.25 0855.12
2009/04/23 11:06:47.7      29     54    115     62    130  28.1  69.3  34208  290.38 0855.13
2009/04/23 11:06:47.8     -69   -209    242    221    327 198.3  53.0  34204  290.32 0855.13
2009/04/23 11:06:47.9       3   -136    208    137    249 178.6  63.6  34202  290.30 0855.13
2009/04/23 11:06:48.0      -2   -153    176    154    233 181.0  54.3  34200  290.26 0855.13
2009/04/23 11:06:48.1     -95   -340    321    354    477 195.7  47.0  34194  290.14 0855.13
2009/04/23 11:06:48.2    -210   -349    303    408    508 211.1  40.2  34188  290.06 0855.13
2009/04/23 11:06:48.3    -321   -309    229    446    501 226.1  29.3  34182  289.96 0855.13
2009/04/23 11:06:48.4    -398   -253    299    472    558 237.5  35.5  34194  290.16 0855.13
2009/04/23 11:06:48.5    -400     -8    251    401    473 268.7  35.0  34194  290.14 0855.13
2009/04/23 11:06:48.6    -403    309    207    509    549 307.5  23.5  34204  290.31 0855.13
2009/04/23 11:06:48.7    -264    221     32    345    347 309.9   5.4  34194  290.16 0855.13
2009/04/23 11:06:48.8     262    124    364    290    465  64.6  57.5  34200  290.26 0855.13
2009/04/23 11:06:48.9     168    107    356    200    408  57.5  68.2  34222  290.62 0855.13
2009/04/23 11:06:49.0     -29    125    248    129    279 346.6  70.8  34224  290.65 0855.13
2009/04/23 11:06:49.1      82     66    292    106    310  50.9  79.2  34200  290.24 0855.13
2009/04/23 11:06:49.2     164     77    136    182    227  64.9  40.4  34164  289.63 0855.13
2009/04/23 11:06:49.3      55     62    169     84    188  41.4  71.9  34186  290.02 0855.13
2009/04/23 11:06:49.4    -119   -151     83    193    210 218.1  25.1  34192  290.11 0855.13
2009/04/23 11:06:49.5    -269   -233    299    356    464 229.1  44.2  34208  290.38 0855.13
2009/04/23 11:06:49.6    -192   -260    309    324    447 216.4  48.6  34200  290.24 0855.13
2009/04/23 11:06:49.7    -129   -283    303    312    434 204.5  49.2  34184  289.98 0855.13
2009/04/23 11:06:49.8     -94   -345    254    358    438 195.3  38.7  34192  290.11 0855.13
2009/04/23 11:06:49.9       3   -196    228    197    301 179.1  54.8  34188  290.03 0855.13
2009/04/23 11:06:50.0      60   -150    189    162    248 158.1  55.4  34194  290.16 0855.13
2009/04/23 11:06:50.1      18   -242    162    243    292 175.5  36.5  34178  289.88 0855.13
2009/04/23 11:06:50.2     -51   -272    220    277    353 190.7  42.4  34178  289.86 0855.13
2009/04/23 11:06:50.3     -93   -307    262    322    415 196.9  43.4  34184  289.98 0855.13
2009/04/23 11:06:50.4     -91   -426    234    436    494 192.1  30.7  34186  290.01 0855.13
2009/04/23 11:06:50.5     -68   -488    158    493    518 188.0  17.8  34182  289.96 0855.13
2009/04/23 11:06:50.6     -19   -444    196    445    486 182.5  25.2  34180  289.91 0855.13
2009/04/23 11:06:50.7     -55   -402    273    406    489 187.9  37.1  34182  289.95 0855.13
2009/04/23 11:06:50.8      -7   -366    219    367    427 181.1  33.7  34188  290.04 0855.13
2009/04/23 11:06:50.9     -49   -449     97    452    463 186.3  12.1  34184  289.97 0855.13
2009/04/23 11:06:51.0     -26   -349      7    350    351 184.4   1.2  34184  289.98 0855.13
2009/04/23 11:06:51.1     -99   -380     41    393    396 194.7   6.0  34188  290.04 0855.13
2009/04/23 11:06:51.2    -108   -295    105    315    333 200.2  18.5  34190  290.07 0855.13
2009/04/23 11:06:51.3      60   -241    146    249    288 166.0  33.4  34184  289.97 0855.13
2009/04/23 11:06:51.4     163   -243    138    293    323 146.2  27.1  34186  290.02 0855.13
2009/04/23 11:06:51.5     106   -182    222    211    306 149.7  52.0  34200  290.24 0855.13
2009/04/23 11:06:51.6       8    -24    179     26    180 161.7  90.0  34206  290.35 0855.13
2009/04/23 11:06:51.7     -77   -105    189    131    229 216.1  62.1  34196  290.18 0855.16
2009/04/23 11:06:51.8    -215   -248    147    329    360 221.0  25.7  34192  290.10 0855.16
2009/04/23 11:06:51.9    -248   -208     84    325    336 230.0  14.5  34192  290.10 0855.16
2009/04/23 11:06:52.0    -224   -216    -19    312    313 226.0  -3.5  34190  290.07 0855.16
2009/04/23 11:06:52.1    -355   -280    106    453    466 231.8  13.3  34184  289.99 0855.16
2009/04/23 11:06:52.2    -292   -283     79    408    416 225.9  11.0  34170  289.73 0855.16
2009/04/23 11:06:52.3    -261   -280    -51    383    387 223.0  -7.7  34154  289.47 0855.16
2009/04/23 11:06:52.4    -296   -140     33    328    330 244.6   5.8  34166  289.69 0855.16
2009/04/23 11:06:52.5    -401   -182    -98    441    452 245.6 -12.6  34138  289.21 0855.16
2009/04/23 11:06:52.6    -362   -258   -122    445    462 234.5 -15.4  34152  289.44 0855.16
2009/04/23 11:06:52.7    -410   -357   -191    544    576 229.0 -24.4  34164  289.63 0855.16
2009/04/23 11:06:52.8    -316   -376   -177    492    522 220.0 -25.0  34166  289.69 0855.16
2009/04/23 11:06:52.9    -244   -387    -73    458    464 212.2  -9.1  34182  289.95 0855.16
2009/04/23 11:06:53.0    -324   -232     27    399    400 234.3   3.9  34194  290.15 0855.16
2009/04/23 11:06:53.1    -332   -341     -9    477    478 224.2  -1.2  34196  290.17 0855.16
2009/04/23 11:06:53.2    -421   -412   -108    590    600 225.6 -10.4  34174  289.80 0855.16
2009/04/23 11:06:53.3    -494   -325    -32    592    593 236.7  -3.2  34190  290.08 0855.16
2009/04/23 11:06:53.4    -499   -285   -135    575    591 240.2 -13.3  34166  289.66 0855.16
2009/04/23 11:06:53.5    -354   -248    -31    433    435 235.0  -4.1  34194  290.16 0855.16
2009/04/23 11:06:53.6    -269   -232   -127    356    379 229.2 -19.7  34182  289.96 0855.16
2009/04/23 11:06:53.7    -124   -314   -188    338    386 201.6 -35.8  34184  289.98 0855.17
2009/04/23 11:06:53.8    -361   -271   -194    452    491 233.1 -29.0  34194  290.15 0855.17
2009/04/23 11:06:53.9    -371   -152   -183    401    440 247.7 -30.6  34188  290.05 0855.17
2009/04/23 11:06:54.0    -411    -68   -185    417    456 260.5 -29.7  34172  289.78 0855.17
2009/04/23 11:06:54.1    -279   -117   -237    303    384 247.2 -46.4  34186  290.01 0855.17
2009/04/23 11:06:54.2     -93   -112   -150    146    209 219.7 -54.8  34182  289.96 0855.17
2009/04/23 11:06:54.3    -271   -166    -81    319    330 238.5 -14.3  34196  290.19 0855.17
2009/04/23 11:06:54.4    -214   -298   -194    367    415 215.7 -34.6  34172  289.79 0855.17
2009/04/23 11:06:54.5    -219   -396   -194    453    492 209.0 -29.0  34196  290.18 0855.17
2009/04/23 11:06:54.6    -135   -543   -182    560    589 194.0 -18.1  34168  289.71 0855.17
2009/04/23 11:06:54.7    -236   -313    -51    393    397 217.0  -7.5  34200  290.25 0855.17
2009/04/23 11:06:54.8    -137   -231    -10    269    270 210.7  -2.3  34206  290.34 0855.17
2009/04/23 11:06:54.9    -112   -189    -60    220    229 210.7 -15.4  34186  290.01 0855.17
2009/04/23 11:06:55.0    -138   -240   -108    277    297 209.9 -26.9  34176  289.85 0855.17
2009/04/23 11:06:55.1    -149   -234    -18    278    279 212.5  -3.9  34188  290.03 0855.17
2009/04/23 11:06:55.2    -223   -168    -77    280    291 232.9 -15.4  34196  290.19 0855.17
2009/04/23 11:06:55.3    -166   -100    -89    195    214 238.9 -30.8  34180  289.91 0855.17
2009/04/23 11:06:55.4    -328      7    -96    329    342 271.3 -21.0  34198  290.21 0855.17
2009/04/23 11:06:55.5    -240   -168   -143    293    326 235.0 -32.4  34194  290.15 0855.17
2009/04/23 11:06:55.6    -313   -148   -184    347    392 244.6 -34.6  34188  290.03 0855.17
2009/04/23 11:06:55.7    -391   -237   -150    458    481 238.7 -23.3  34188  290.05 0855.17
2009/04/23 11:06:55.8    -378   -230   -195    443    484 238.6 -29.7  34142  289.27 0855.17
2009/04/23 11:06:55.9    -332   -282   -261    436    508 229.6 -38.0  34130  289.05 0855.17
2009/04/23 11:06:56.0    -233   -250   -272    343    437 223.0 -46.8  34130  289.07 0855.17
2009/04/23 11:06:56.1    -231   -210   -158    313    350 227.8 -33.1  34148  289.37 0855.17
2009/04/23 11:06:56.2    -293   -212   -200    362    413 234.1 -35.8  34156  289.50 0855.17
2009/04/23 11:06:56.3    -218   -167   -195    275    337 232.5 -43.4  34138  289.19 0855.17
2009/04/23 11:06:56.4    -132   -135   -212    190    284 224.3 -58.1  34142  289.27 0855.17
2009/04/23 11:06:56.5    -163    -66   -177    177    250 247.8 -54.5  34146  289.33 0855.17
2009/04/23 11:06:56.6    -107    -39   -177    114    210 250.0 -69.0  34144  289.31 0855.17
2009/04/23 11:06:56.7    -129    -52   -170    140    220 248.2 -60.8  34144  289.31 0855.17
2009/04/23 11:06:56.8    -156    -55   -174    166    240 250.5 -55.8  34150  289.41 0855.17
2009/04/23 11:06:56.9     -93    -93   -166    132    212 225.2 -61.5  34156  289.52 0855.17
2009/04/23 11:06:57.0    -114   -108   -172    158    233 226.4 -56.6  34156  289.50 0855.17
2009/04/23 11:06:57.1    -261   -152   -135    303    331 239.8 -30.1  34176  289.83 0855.17
2009/04/23 11:06:57.2     -67    -88   -178    111    209 217.4 -69.3  34168  289.70 0855.17
2009/04/23 11:06:57.3     -70   -134   -186    152    240 207.6 -60.8  34154  289.46 0855.17
2009/04/23 11:06:57.4    -149    -54   -152    159    219 250.1 -53.1  34154  289.46 0855.17
2009/04/23 11:06:57.5    -155    -11    -89    156    179 265.7 -36.5  34164  289.65 0855.17
2009/04/23 11:06:57.6    -190     18   -127    191    229 275.5 -41.1  34178  289.87 0855.17
2009/04/23 11:06:57.7    -127     41   -105    134    170 288.2 -46.6  34156  289.52 0855.18
2009/04/23 11:06:57.8     -78     73    -90    108    140 313.2 -48.2  34172  289.77 0855.18
2009/04/23 11:06:57.9      -6     57    -63     58     85 353.8 -56.6  34166  289.67 0855.18
2009/04/23 11:06:58.0       3     -8    -70      9     70 154.6 -90.0  34170  289.75 0855.18
2009/04/23 11:06:58.1     -38   -112    -69    119    137 198.7 -37.3  34208  290.40 0855.18
2009/04/23 11:06:58.2    -116   -108      6    159    160 226.9   2.5  34224  290.65 0855.18
2009/04/23 11:06:58.3     -88    -34    -25     95     99 248.7 -15.0  34236  290.87 0855.18
2009/04/23 11:06:58.4    -117    -66   -113    135    176 240.7 -48.7  34226  290.70 0855.18
2009/04/23 11:06:58.5      25    -69   -138     74    156 160.0 -74.2  34208  290.38 0855.18
2009/04/23 11:06:58.6      74   -114   -101    137    170 147.0 -44.5  34194  290.14 0855.18
2009/04/23 11:06:58.7      79   -116    -72    141    158 145.7 -33.7  34176  289.84 0855.18
2009/04/23 11:06:58.8     164    -84     67    185    196 117.3  21.0  34186  290.01 0855.18
2009/04/23 11:06:58.9     245     -3     99    246    265  90.8  23.1  34180  289.90 0855.18
2009/04/23 11:06:59.0     317    -21     69    318    326  93.9  12.3  34180  289.92 0855.18
2009/04/23 11:06:59.1     208   -128   -125    245    275 121.5 -33.6  34180  289.92 0855.18
2009/04/23 11:06:59.2     243    -31    -90    246    261  97.5 -25.4  34174  289.81 0855.18
2009/04/23 11:06:59.3     176    -66   -158    189    246 110.6 -48.5  34174  289.80 0855.18
2009/04/23 11:06:59.4     277   -202   -111    344    361 126.1 -23.0  34164  289.64 0855.18
2009/04/23 11:06:59.5     305   -144    -58    338    344 115.4  -9.8  34162  289.62 0855.18
2009/04/23 11:06:59.6     301    -32    -20    303    304  96.1  -3.9  34162  289.61 0855.18
2009/04/23 11:06:59.7     253    -49     16    258    259 101.0   3.6  34162  289.61 0855.18
2009/04/23 11:06:59.8     261    -53     47    267    272 101.5  10.1  34166  289.68 0855.18
2009/04/23 11:06:59.9     219   -220    -40    311    314 135.1  -7.5  34184  289.98 0855.18
2009/04/23 11:07:00.0     222   -303    -27    376    377 143.7  -4.2  34182  289.96 0855.18
2009/04/23 11:07:00.1     398   -337    -15    522    523 130.3  -1.7  34168  289.70 0855.18
2009/04/23 11:07:00.2     396   -296     42    495    497 126.8   4.9  34162  289.59 0855.18
2009/04/23 11:07:00.3     305   -262     60    403    408 130.7   8.5  34164  289.65 0855.18
2009/04/23 11:07:00.4     240   -213     93    322    336 131.6  16.1  34166  289.69 0855.18
2009/04/23 11:07:00.5     228   -134    235    265    354 120.4  46.2  34172  289.78 0855.18
2009/04/23 11:07:00.6     287    -96    165    303    345 108.6  31.0  34172  289.76 0855.18
2009/04/23 11:07:00.7     258    -73    201    269    335 105.9  40.4  34172  289.78 0855.18
2009/04/23 11:07:00.8     171    -80    194    189    270 115.1  50.7  34176  289.85 0855.18
2009/04/23 11:07:00.9     130    -66    102    147    178 117.1  38.4  34166  289.67 0855.18
2009/04/23 11:07:01.0     153    -41    120    159    199 105.0  40.9  34172  289.79 0855.18
2009/04/23 11:07:01.1      10    -91    100     92    135 173.3  52.2  34182  289.96 0855.18
2009/04/23 11:07:01.2      30   -143    126    147    193 168.0  45.1  34176  289.84 0855.18
2009/04/23 11:07:01.3      60   -143    126    156    200 157.3  43.3  34174  289.82 0855.18
2009/04/23 11:07:01.4      88   -100    122    134    181 138.6  47.5  34174  289.82 0855.18
2009/04/23 11:07:01.5      -1    -78    103     79    129 180.9  58.5  34182  289.94 0855.18
2009/04/23 11:07:01.6      25    -54     79     60     99 154.7  59.4  34188  290.04 0855.18
2009/04/23 11:07:01.7      22    -67     52     71     88 161.3  39.7  34178  289.87 0855.14
2009/04/23 11:07:01.8      14    -99     30    101    106 171.5  16.8  34172  289.79 0855.14
2009/04/23 11:07:01.9      -4    -88     46     89    100 182.7  29.3  34176  289.85 0855.14
2009/04/23 11:07:02.0       5    -48     20     49     52 173.8  23.0  34174  289.82 0855.14
2009/04/23 11:07:02.2      52    -69     50     87    100 143.0  32.4  34174  289.82 0855.14
2009/04/23 11:07:02.3      77    -56     44     96    105 126.4  26.6  34172  289.79 0855.14
2009/04/23 11:07:02.4      66    -64     61     93    111 134.0  36.0  34176  289.85 0855.14
2009/04/23 11:07:02.5      59   -124     49    138    146 154.7  20.0  34168  289.72 0855.14
2009/04/23 11:07:02.6      50   -113     49    124    133 155.9  22.5  34172  289.79 0855.14
2009/04/23 11:07:02.7      15   -193    -10    194    195 175.5  -3.2  34168  289.72 0855.14
2009/04/23 11:07:02.8      38   -202     -1    206    207 169.3  -0.5  34170  289.74 0855.15
2009/04/23 11:07:02.9      13   -177     35    178    182 175.5  11.1  34166  289.69 0855.15
2009/04/23 11:07:03.0      13   -199     22    200    202 176.2   6.5  34168  289.70 0855.15
2009/04/23 11:07:03.1      71   -209     78    221    235 161.1  19.6  34170  289.74 0855.15
2009/04/23 11:07:03.2      26   -269     45    271    275 174.4   9.5  34170  289.73 0855.15
2009/04/23 11:07:03.3      33   -241     25    244    246 172.2   5.9  34172  289.76 0855.15
2009/04/23 11:07:03.4       7   -225     89    226    242 178.2  22.5  34172  289.78 0855.15
2009/04/23 11:07:03.5     -50   -185     59    192    201 195.2  17.1  34172  289.77 0855.15
2009/04/23 11:07:03.6     -68   -255     51    265    270 195.1  11.0  34170  289.75 0855.15
2009/04/23 11:07:03.7     -37   -219    190    223    292 189.8  44.8  34176  289.83 0855.15
2009/04/23 11:07:03.8     -10   -229    167    230    284 182.7  39.7  34176  289.83 0855.15
2009/04/23 11:07:03.9     -33   -194    165    197    256 189.8  44.3  34178  289.88 0855.15
2009/04/23 11:07:04.0    -103   -161    131    192    232 212.6  37.4  34178  289.87 0855.15
2009/04/23 11:07:04.1     -88   -142     67    168    180 211.9  23.0  34176  289.84 0855.15
2009/04/23 11:07:04.2     -79   -149     62    169    180 207.9  20.7  34178  289.89 0855.15
2009/04/23 11:07:04.3     -67   -175     36    188    192 201.2  10.8  34178  289.89 0855.15
2009/04/23 11:07:04.4    -101   -241     29    262    264 202.8   6.5  34178  289.86 0855.15
2009/04/23 11:07:04.5    -115   -314    116    335    355 200.2  19.2  34178  289.89 0855.15
2009/04/23 11:07:04.6     -58   -354    128    359    381 189.3  20.3  34188  290.06 0855.15
2009/04/23 11:07:04.7     -41   -340    123    343    364 186.9  20.6  34188  290.03 0855.15
2009/04/23 11:07:04.8      25   -332    111    333    352 175.7  18.5  34184  289.99 0855.19
2009/04/23 11:07:04.9      57   -282    105    288    306 168.5  20.9  34186  290.02 0855.19
2009/04/23 11:07:05.0      -6   -281    106    282    301 181.4  21.5  34184  289.97 0855.19
2009/04/23 11:07:05.1     -31   -335    118    337    358 185.3  19.4  34186  290.01 0855.19
2009/04/23 11:07:05.2    -102   -422    161    435    463 193.6  21.1  34194  290.16 0855.19
2009/04/23 11:07:05.3     -30   -348    154    350    382 185.0  25.3  34184  289.98 0855.19
2009/04/23 11:07:05.4     -65   -310    145    317    348 192.0  26.4  34188  290.06 0855.19
2009/04/23 11:07:05.5    -104   -308    116    326    347 198.7  19.6  34192  290.13 0855.19
2009/04/23 11:07:05.6     -88   -328     83    340    351 195.1  13.8  34192  290.11 0855.19
2009/04/23 11:07:05.7     -58   -344     84    349    359 189.7  13.6  34192  290.13 0855.19
2009/04/23 11:07:05.8      18   -302    157    303    341 176.5  29.5  34194  290.15 0855.19
2009/04/23 11:07:05.9      24   -316    223    317    387 175.6  38.7  34192  290.13 0855.19
2009/04/23 11:07:06.0      10   -299    239    300    383 178.0  42.7  34194  290.15 0855.19
2009/04/23 11:07:06.1     -15   -259    182    260    317 183.5  38.5  34194  290.15 0855.19
2009/04/23 11:07:06.2      42   -169    190    175    258 166.0  52.5  34198  290.22 0855.19
2009/04/23 11:07:06.3      38   -270    227    273    355 172.0  44.1  34196  290.18 0855.19
2009/04/23 11:07:06.4     -46   -280    112    284    305 189.3  23.0  34188  290.05 0855.19
2009/04/23 11:07:06.5       0   -186    218    187    287 179.8  55.3  34202  290.29 0855.19
2009/04/23 11:07:06.6       0    -71    131     72    149 180.0  68.9  34214  290.48 0855.19
2009/04/23 11:07:06.7    -146   -265    130    303    329 208.9  24.8  34194  290.15 0855.19
2009/04/23 11:07:06.8     -28   -261     67    263    272 186.3  14.3  34188  290.03 0855.20
2009/04/23 11:07:06.9     -66   -253    154    262    303 194.7  33.4  34190  290.07 0855.20
2009/04/23 11:07:07.0     -61   -279    121    286    310 192.5  24.2  34194  290.15 0855.20
2009/04/23 11:07:07.1     -64   -256    164    265    311 194.2  35.2  34194  290.14 0855.20
2009/04/23 11:07:07.2    -125   -216    132    250    282 210.1  30.2  34196  290.17 0855.20
2009/04/23 11:07:07.3      23   -214     59    216    224 173.8  15.3  34198  290.21 0855.20
2009/04/23 11:07:07.4     118    -80    143    143    202 124.1  50.1  34202  290.28 0855.20
2009/04/23 11:07:07.5     119    -40    152    126    197 108.6  56.1  34206  290.35 0855.20
2009/04/23 11:07:07.6      55   -144    169    155    229 159.1  52.5  34208  290.38 0855.20
2009/04/23 11:07:07.7      32   -195    120    198    231 170.7  34.4  34202  290.30 0855.20
2009/04/23 11:07:07.8       3   -189     44    190    196 178.9  13.2  34202  290.28 0855.20
2009/04/23 11:07:07.9     -12    -36     90     38     97 198.5  76.1  34208  290.40 0855.20
2009/04/23 11:07:08.0       8     57     97     58    113   8.0  66.2  34228  290.72 0855.20
2009/04/23 11:07:08.1     -40    113     81    121    145 340.4  37.0  34228  290.72 0855.20
2009/04/23 11:07:08.2    -190     86     64    209    219 294.4  17.1  34212  290.45 0855.20
2009/04/23 11:07:08.3    -151    -11     80    152    171 265.6  29.8  34214  290.50 0855.20
2009/04/23 11:07:08.4    -134    -38     60    140    152 254.1  24.6  34204  290.33 0855.20
2009/04/23 11:07:08.5    -110     34     65    116    132 287.3  31.4  34216  290.53 0855.20
2009/04/23 11:07:08.6    -138   -141    -38    198    202 224.3 -10.9  34208  290.38 0855.20
2009/04/23 11:07:08.7    -185   -137     49    231    237 233.4  12.2  34212  290.44 0855.20
2009/04/23 11:07:08.8    -125    -65    -99    142    173 242.5 -42.4  34214  290.48 0855.19
2009/04/23 11:07:08.9     -42    -66     -3     79     80 212.5  -2.2  34208  290.38 0855.19
2009/04/23 11:07:09.0    -103   -186     77    213    226 209.0  20.9  34202  290.28 0855.19
2009/04/23 11:07:09.1    -135   -201      4    243    244 213.8   1.0  34204  290.32 0855.19
2009/04/23 11:07:09.2    -139   -218    -52    259    265 212.5 -11.3  34210  290.42 0855.19
2009/04/23 11:07:09.3     -29   -199    -67    202    212 188.5 -23.8  34206  290.36 0855.19
2009/04/23 11:07:09.4    -104   -164     -7    195    196 212.5  -2.2  34204  290.31 0855.19
2009/04/23 11:07:09.5    -126   -181     -1    221    222 215.0  -0.3  34206  290.36 0855.19
2009/04/23 11:07:09.6    -174   -192     -5    260    261 222.1  -1.2  34216  290.53 0855.19
2009/04/23 11:07:09.7    -186   -204    -11    277    278 222.3  -2.3  34208  290.39 0855.19
2009/04/23 11:07:09.8    -102   -216     10    239    240 205.3   2.5  34206  290.36 0855.19
2009/04/23 11:07:09.9     -40   -190     22    195    197 192.0   6.5  34208  290.38 0855.19
2009/04/23 11:07:10.0       6   -194     45    195    201 178.2  13.2  34208  290.40 0855.19
2009/04/23 11:07:10.1      27   -190     39    192    197 171.8  11.6  34206  290.36 0855.19
2009/04/23 11:07:10.2      64   -145     41    159    165 155.9  14.5  34210  290.41 0855.19
2009/04/23 11:07:10.3      86   -155     15    178    179 150.8   4.9  34206  290.35 0855.19
2009/04/23 11:07:10.4      96   -140     42    171    177 145.5  13.9  34206  290.35 0855.19
2009/04/23 11:07:10.5     146   -107     64    182    193 126.4  19.4  34206  290.35 0855.19
2009/04/23 11:07:10.6     135    -95    108    166    198 125.1  36.3  34208  290.38 0855.19
2009/04/23 11:07:10.7     154    -94     91    181    202 121.3  29.1  34212  290.45 0855.19
2009/04/23 11:07:10.8     139    -45     84    147    169 108.2  32.4  34210  290.41 0855.19
2009/04/23 11:07:10.9      81    -54     40     98    105 123.7  23.1  34210  290.41 0855.19
2009/04/23 11:07:11.0      78    -72     62    107    123 132.7  33.4  34208  290.38 0855.19
2009/04/23 11:07:11.1      88    -86    113    124    167 134.4  47.1  34208  290.38 0855.19
2009/04/23 11:07:11.2      88   -164     84    187    205 151.7  25.9  34202  290.28 0855.19
2009/04/23 11:07:11.3     115   -111     84    160    180 134.0  30.1  34198  290.23 0855.19
2009/04/23 11:07:11.4     122   -102     85    160    181 130.0  30.3  34198  290.23 0855.19
2009/04/23 11:07:11.5      67   -106     43    126    134 147.9  18.9  34196  290.18 0855.19
2009/04/23 11:07:11.6      -3   -109     37    110    117 181.8  18.9  34204  290.31 0855.19
2009/04/23 11:07:11.7     -59    -74    -70     95    118 218.7 -44.5  34204  290.31 0855.19
2009/04/23 11:07:11.8      -9   -118    -48    119    128 184.5 -27.4  34198  290.23 0855.19
2009/04/23 11:07:11.9      -3   -159     -6    160    161 181.1  -2.3  34194  290.14 0855.19
2009/04/23 11:07:12.0      59   -352    -72    358    366 170.4 -11.5  34178  289.87 0855.19
2009/04/23 11:07:12.1     128   -319    -68    344    351 158.1 -11.3  34178  289.89 0855.19
2009/04/23 11:07:12.2     170   -248    -16    301    302 145.5  -3.2  34178  289.88 0855.19
2009/04/23 11:07:12.3     191   -203     10    279    280 136.8   2.1  34182  289.95 0855.19
2009/04/23 11:07:12.4     133   -225    -10    262    263 149.3  -2.2  34184  289.97 0855.19
2009/04/23 11:07:12.5     119   -227    -71    257    267 152.4 -15.5  34180  289.92 0855.19
2009/04/23 11:07:12.6      24   -209     87    211    228 173.3  23.4  34186  290.01 0855.19
2009/04/23 11:07:12.7       8   -228    170    229    285 177.8  40.4  34184  289.98 0855.19
2009/04/23 11:07:12.8      57   -232    182    239    300 166.2  41.2  34182  289.93 0855.18
2009/04/23 11:07:12.9     -17   -187    159    188    246 185.3  44.5  34184  289.97 0855.18
2009/04/23 11:07:13.0    -116   -244    109    271    292 205.5  23.0  34190  290.09 0855.18
2009/04/23 11:07:13.1    -110   -214    129    241    273 207.4  30.3  34192  290.10 0855.18
2009/04/23 11:07:13.2    -116   -146     79    187    203 218.5  24.1  34188  290.06 0855.18
2009/04/23 11:07:13.3     -77   -130      7    152    153 210.8   2.9  34194  290.14 0855.18
2009/04/23 11:07:13.4     -90   -178     44    200    205 207.0  12.6  34194  290.16 0855.18
2009/04/23 11:07:13.5    -104   -147      3    181    182 215.2   1.0  34196  290.18 0855.18
2009/04/23 11:07:13.6    -108   -135      0    174    175 218.7   0.0  34194  290.14 0855.18
2009/04/23 11:07:13.7    -134   -143     28    197    200 223.2   8.2  34198  290.21 0855.18
2009/04/23 11:07:13.8    -247   -107    -24    270    272 246.5  -5.2  34210  290.42 0855.18
2009/04/23 11:07:13.9    -268   -124    -16    296    297 245.2  -3.1  34210  290.41 0855.18
2009/04/23 11:07:14.0    -130   -273      9    303    304 205.5   1.7  34198  290.22 0855.18
2009/04/23 11:07:14.1     -46   -299    -20    303    304 188.9  -3.9  34202  290.27 0855.18
2009/04/23 11:07:14.2      37   -253    -75    256    266 171.5 -21.0  34198  290.20 0855.18
2009/04/23 11:07:14.3     -56   -281   -102    287    305 191.3 -19.6  34198  290.20 0855.18
2009/04/23 11:07:14.4     -64    -87    -22    109    112 216.5 -11.3  34208  290.38 0855.18
2009/04/23 11:07:14.5     -91     29    -26     96    100 288.2 -15.5  34222  290.64 0855.18
2009/04/23 11:07:14.6     -63      8    -22     64     68 277.9 -19.7  34224  290.65 0855.18
2009/04/23 11:07:14.7     -19    -14    -32     24     40 234.0 -63.8  34224  290.67 0855.18
2009/04/23 11:07:14.8    -102    -30    -77    107    131 253.6 -44.1  34230  290.77 0855.16
2009/04/23 11:07:14.9    -141     51   -129    151    198 290.0 -49.5  34230  290.75 0855.16
2009/04/23 11:07:15.0      -3     12   -150     13    150 344.9 -90.0  34210  290.41 0855.16
2009/04/23 11:07:15.1     -93     -4   -147     94    174 267.4 -69.0  34224  290.67 0855.16
2009/04/23 11:07:15.2      63     46   -111     79    136  54.1 -65.5  34230  290.75 0855.16
2009/04/23 11:07:15.3     114     77    -87    138    163  55.9 -39.9  34210  290.41 0855.16
2009/04/23 11:07:15.4     103     54   -124    117    170  62.0 -56.4  34224  290.67 0855.16
2009/04/23 11:07:15.5     149      3    -61    150    161  88.7 -27.8  34228  290.74 0855.16
2009/04/23 11:07:15.6     161      8     -4    162    163  87.0  -1.6  34214  290.50 0855.16
2009/04/23 11:07:15.7     165    -26     26    168    170  99.2   8.8  34226  290.69 0855.16
2009/04/23 11:07:15.8     200     17    -13    201    202  85.0  -3.7  34224  290.65 0855.16
2009/04/23 11:07:15.9     180     -8     21    181    183  92.8   6.7  34198  290.23 0855.16
2009/04/23 11:07:16.0     181    -40     66    186    197 102.6  20.4  34208  290.38 0855.16
2009/04/23 11:07:16.1      93    -93      2    132    133 135.1   1.2  34218  290.57 0855.16
2009/04/23 11:07:16.2       0   -166    -46    167    174 180.2 -15.5  34212  290.47 0855.16
2009/04/23 11:07:16.3     -76   -161   -131    179    221 205.4 -44.1  34204  290.33 0855.16
2009/04/23 11:07:16.4    -116   -211   -180    242    301 208.9 -44.5  34196  290.19 0855.16
2009/04/23 11:07:16.5     -95   -264   -112    281    302 199.8 -27.4  34194  290.15 0855.16
2009/04/23 11:07:16.6     -44   -277     -1    281    282 189.1  -0.3  34196  290.19 0855.16
2009/04/23 11:07:16.7    -100   -177    -83    204    220 209.6 -27.5  34196  290.18 0855.16
2009/04/23 11:07:16.8     -54   -157    -80    167    185 199.2 -31.7  34196  290.19 0855.14
2009/04/23 11:07:16.9     -37   -113    -65    119    135 198.3 -35.8  34194  290.16 0855.14
2009/04/23 11:07:17.0     -64   -123    -49    139    147 207.6 -24.4  34198  290.21 0855.14
2009/04/23 11:07:17.1     -98    -86    -16    131    133 228.6  -7.2  34200  290.25 0855.14
2009/04/23 11:07:17.2    -186     -7    -51    187    193 267.6 -20.0  34214  290.48 0855.14
2009/04/23 11:07:17.3    -151    -41   -123    157    199 254.9 -46.4  34220  290.60 0855.14
2009/04/23 11:07:17.4    -117    -69   -117    137    180 239.4 -49.2  34222  290.62 0855.14
2009/04/23 11:07:17.5     -42    -49    -92     65    112 220.5 -65.5  34208  290.38 0855.14
2009/04/23 11:07:17.6     -37    -20    -66     43     78 241.1 -69.0  34202  290.30 0855.14
2009/04/23 11:07:17.7    -144    -27    -60    147    158 259.4 -27.8  34214  290.50 0855.14
2009/04/23 11:07:17.8    -113    -62    -72    130    148 241.1 -35.8  34210  290.43 0855.14
2009/04/23 11:07:17.9     -36   -160    -56    165    174 192.9 -23.3  34192  290.13 0855.14
2009/04/23 11:07:18.0     -39   -158    -49    163    171 194.0 -17.0  34192  290.11 0855.14
2009/04/23 11:07:18.1      24   -172     11    174    175 172.0   3.8  34192  290.11 0855.14
2009/04/23 11:07:18.2     133   -129     69    186    198 134.0  21.0  34196  290.18 0855.14
2009/04/23 11:07:18.3     152    -49     67    160    173 108.2  23.8  34190  290.09 0855.14
2009/04/23 11:07:18.4      50    -16     43     53     68 108.2  43.7  34192  290.11 0855.14
2009/04/23 11:07:18.5    -110   -107     -3    154    155 225.6  -1.2  34196  290.18 0855.14
2009/04/23 11:07:18.6    -104    -21    -36    107    114 258.6 -18.7  34194  290.16 0855.14
2009/04/23 11:07:18.7     -27    -86    -26     91     95 197.8 -16.0  34192  290.13 0855.14
2009/04/23 11:07:18.8     -18    -55    -16     58     61 198.3 -15.5  34194  290.14 0855.11
2009/04/23 11:07:18.9     -63     -6    -18     64     66 263.9 -20.7  34198  290.21 0855.11
2009/04/23 11:07:19.0    -163    -89      8    186    187 241.4   2.5  34198  290.23 0855.11
2009/04/23 11:07:19.1    -141    -67     -6    157    158 244.7  -2.3  34196  290.19 0855.11
2009/04/23 11:07:19.2    -117    -55     71    130    148 244.8  31.3  34202  290.28 0855.11
2009/04/23 11:07:19.3     -93    -47     61    105    121 242.9  32.9  34206  290.36 0855.11
2009/04/23 11:07:19.4     -50    -77     39     93    100 213.0  24.1  34210  290.43 0855.11
2009/04/23 11:07:19.5     -43   -127      1    135    136 198.7   0.8  34202  290.28 0855.11
2009/04/23 11:07:19.6     -30   -149     53    152    162 191.5  19.2  34206  290.35 0855.11
2009/04/23 11:07:19.7     -50   -153     58    162    172 198.3  20.2  34200  290.26 0855.11
2009/04/23 11:07:19.8     -58   -125     37    138    144 204.9  15.3  34198  290.23 0855.11
2009/04/23 11:07:19.9       1   -144      8    145    146 179.5   3.3  34198  290.21 0855.11
2009/04/23 11:07:20.0      44   -196      2    201    202 167.3   0.7  34192  290.13 0855.11
2009/04/23 11:07:20.1      72   -206    -31    219    222 160.6  -8.2  34192  290.11 0855.11
2009/04/23 11:07:20.2      62   -148    -21    161    163 157.3  -7.7  34194  290.16 0855.11
2009/04/23 11:07:20.3      55    -92    -13    108    109 149.3  -7.2  34188  290.06 0855.11
2009/04/23 11:07:20.4      37   -111      3    118    119 161.3   1.8  34192  290.11 0855.11
2009/04/23 11:07:20.5      71   -197    -19    210    211 160.2  -5.2  34188  290.06 0855.11
2009/04/23 11:07:20.6      85   -267    -83    281    293 162.2 -21.5  34190  290.07 0855.11
2009/04/23 11:07:20.7     -80   -244      7    257    258 198.3   1.6  34194  290.14 0855.11
2009/04/23 11:07:20.8    -162   -195    -27    254    256 219.6  -6.1  34194  290.15 0855.11
2009/04/23 11:07:20.9     -76   -181    -31    197    200 202.7  -9.0  34194  290.16 0855.11
2009/04/23 11:07:21.0     -79   -134     -8    156    157 210.7  -3.1  34190  290.08 0855.11
2009/04/23 11:07:21.1     -91    -85    -16    125    127 226.9  -7.7  34190  290.08 0855.11
2009/04/23 11:07:21.2    -103    -14    -31    105    109 262.0 -21.7  34192  290.13 0855.11
2009/04/23 11:07:21.3     -44     36    -24     58     62 309.5 -27.5  34198  290.21 0855.11
2009/04/23 11:07:21.4     -77     90     40    119    126 319.5  18.9  34194  290.16 0855.11
2009/04/23 11:07:21.5     -62     91     48    111    120 325.7  25.1  34196  290.18 0855.11
2009/04/23 11:07:21.6    -102     83      2    132    133 309.1   1.2  34196  290.18 0855.11
2009/04/23 11:07:21.7    -102     64    -28    121    125 302.0 -13.3  34196  290.19 0855.11
2009/04/23 11:07:21.8    -104     37    -20    111    113 290.0 -10.3  34198  290.23 0855.11
2009/04/23 11:07:21.9    -109     27     -9    113    114 284.2  -4.6  34200  290.26 0855.11
2009/04/23 11:07:22.0     -93     15    -49     95    106 279.2 -34.2  34214  290.50 0855.11
2009/04/23 11:07:22.1     -59    -36    -28     70     75 238.5 -27.4  34208  290.38 0855.11
2009/04/23 11:07:22.2     -12    -31    -40     34     52 201.8 -59.8  34210  290.43 0855.11
2009/04/23 11:07:22.3      16    -18    -45     25     51 138.6 -73.2  34206  290.36 0855.11
2009/04/23 11:07:22.4      -9    -78    -41     79     89 187.1 -34.2  34204  290.33 0855.11
2009/04/23 11:07:22.5     -11   -106    -29    107    112 186.2 -15.4  34198  290.21 0855.11
2009/04/23 11:07:22.6     -24    -99     -7    102    103 193.8  -4.1  34198  290.21 0855.11
2009/04/23 11:07:22.7      -7   -142    -41    143    148 183.1 -20.7  34198  290.23 0855.11
2009/04/23 11:07:22.8     -36   -110    -23    116    119 198.3 -11.3  34196  290.19 0855.11
2009/04/23 11:07:22.9     -50    -72    -24     88     92 214.7 -15.4  34196  290.18 0855.11
2009/04/23 11:07:23.0     -58    -65    -30     88     94 221.9 -19.1  34200  290.26 0855.11
2009/04/23 11:07:23.1     -14    -95     19     97     99 188.9  11.1  34198  290.23 0855.11
2009/04/23 11:07:23.2       0   -132     21    133    135 180.0   9.0  34196  290.19 0855.11
2009/04/23 11:07:23.3     -14   -220    -28    221    223 183.8  -7.3  34192  290.13 0855.11
2009/04/23 11:07:23.4     -16   -182    -23    183    185 185.3  -7.3  34190  290.08 0855.11
2009/04/23 11:07:23.5      -5   -118    -42    119    127 182.7 -19.7  34192  290.13 0855.11
2009/04/23 11:07:23.6     -35    -74    -35     82     89 205.5 -28.5  34196  290.19 0855.11
2009/04/23 11:07:23.7     -35    -72    -66     81    104 206.3 -48.1  34200  290.26 0855.11
2009/04/23 11:07:23.8     -16    -83    -35     85     91 191.1 -28.0  34204  290.31 0855.12
2009/04/23 11:07:23.9     -43    -38    -57     58     81 228.7 -54.4  34210  290.41 0855.12
2009/04/23 11:07:24.0     -22     -9    -45     24     51 246.5 -74.2  34208  290.38 0855.12
2009/04/23 11:07:24.1     -22     -7     -8     24     25 251.8 -23.6  34208  290.40 0855.12
2009/04/23 11:07:24.2       0     -9      0     10     11 175.5   2.9  34208  290.40 0855.12
2009/04/23 11:07:24.3      17     -5     -2     18     19 108.2  -7.3  34208  290.40 0855.12
2009/04/23 11:07:24.4       0     -2      8      3      8 161.5  81.0  34210  290.41 0855.12
2009/04/23 11:07:24.5      -1    -12     12     13     17 184.5  52.0  34206  290.35 0855.12
2009/04/23 11:07:24.6       8    -20     18     22     28 158.2  45.8  34202  290.30 0855.12
2009/04/23 11:07:24.7      31      9     26     33     42  73.2  42.7  34208  290.38 0855.12
2009/04/23 11:07:24.8       6      0     55      7     55  90.0  90.0  34214  290.50 0855.12
2009/04/23 11:07:24.9       0    -90    108     91    141 180.4  55.8  34204  290.33 0855.12
2009/04/23 11:07:25.0       3   -138    109    139    176 178.6  42.4  34198  290.23 0855.12
2009/04/23 11:07:25.1     -23   -155    116    157    195 188.5  39.9  34194  290.14 0855.12
2009/04/23 11:07:25.2     -32   -167     69    171    184 191.1  23.0  34206  290.35 0855.12
2009/04/23 11:07:25.3     -68   -163     46    177    183 202.7  14.7  34206  290.35 0855.12
2009/04/23 11:07:25.4     -86   -161     25    183    185 208.1   7.8  34202  290.28 0855.12
2009/04/23 11:07:25.5     -97   -206     26    228    230 205.3   6.7  34198  290.23 0855.12
2009/04/23 11:07:25.6     -79   -188     71    205    218 202.9  19.2  34200  290.25 0855.12
2009/04/23 11:07:25.7     -58   -149     90    161    184 201.4  31.6  34202  290.28 0855.12
2009/04/23 11:07:25.8     -25   -126    138    129    188 191.5  52.1  34202  290.30 0855.11
2009/04/23 11:07:25.9      -3   -170    140    171    221 181.1  43.7  34204  290.33 0855.11
2009/04/23 11:07:26.0     -19   -269    179    270    323 184.2  36.7  34200  290.26 0855.11
2009/04/23 11:07:26.1     -18   -235    200    236    309 184.5  44.5  34204  290.31 0855.11
2009/04/23 11:07:26.2     -63   -208    144    218    261 196.9  36.5  34204  290.31 0855.11
2009/04/23 11:07:26.3     -59   -199    139    208    250 196.5  36.7  34202  290.27 0855.11
2009/04/23 11:07:26.4     -56   -244     43    251    255 192.9   9.9  34204  290.32 0855.11
2009/04/23 11:07:26.5     -30   -216     34    219    222 188.1   9.0  34202  290.28 0855.11
2009/04/23 11:07:26.6      67   -267     23    276    278 165.8   4.9  34200  290.24 0855.11
2009/04/23 11:07:26.7      41   -314     25    317    319 172.4   4.6  34200  290.26 0855.11
2009/04/23 11:07:26.8      37   -252     -9    255    256 171.5  -2.2  34200  290.24 0855.11
2009/04/23 11:07:26.9      48   -229     14    235    236 168.0   3.6  34202  290.29 0855.11
2009/04/23 11:07:27.0      -4   -232     17    233    234 181.1   4.4  34204  290.32 0855.11
2009/04/23 11:07:27.1       0   -190     76    191    205 180.0  22.8  34206  290.35 0855.11
2009/04/23 11:07:27.2     -28   -166     70    169    182 189.6  23.4  34206  290.36 0855.11
2009/04/23 11:07:27.3     -25   -152     50    155    163 189.3  17.9  34204  290.31 0855.11
2009/04/23 11:07:27.4     -19   -172     39    174    179 186.5  12.9  34204  290.31 0855.11
2009/04/23 11:07:27.5      -4   -240     16    241    242 181.1   3.9  34204  290.32 0855.11
2009/04/23 11:07:27.6      16   -198    -35    199    203 175.1 -10.1  34206  290.35 0855.11
2009/04/23 11:07:27.7      17   -190      5    191    192 174.7   1.8  34188  290.04 0855.11
2009/04/23 11:07:27.8      44   -216     37    221    225 168.4   9.5  34188  290.06 0855.09
2009/04/23 11:07:27.9     -11   -287    119    288    311 182.2  23.6  34190  290.07 0855.09
2009/04/23 11:07:28.0     -48   -310    128    314    339 188.9  23.4  34194  290.15 0855.09
2009/04/23 11:07:28.1     -23   -267    123    269    295 185.1  26.2  34202  290.29 0855.09
2009/04/23 11:07:28.2       0   -325    126    326    349 180.1  22.2  34200  290.25 0855.09
2009/04/23 11:07:28.3     -41   -332     68    335    342 187.1  11.5  34184  289.99 0855.09
2009/04/23 11:07:28.4      -3   -304     51    305    310 180.7   9.5  34190  290.07 0855.09
2009/04/23 11:07:28.6      43   -306    -17    310    311 172.0  -3.1  34188  290.05 0855.09
2009/04/23 11:07:28.6      61   -291    -35    298    301 168.0  -6.7  34152  289.44 0855.09
2009/04/23 11:07:28.8      20   -263     -2    264    265 175.5  -0.5  34150  289.39 0855.09
2009/04/23 11:07:28.9     -24   -213    -17    215    216 186.5  -4.6  34162  289.60 0855.09
2009/04/23 11:07:29.0     -34   -158    -62    162    173 192.3 -26.1  34162  289.62 0855.09
2009/04/23 11:07:29.0     -42   -161    -46    167    173 194.9 -20.2  34164  289.63 0855.09
2009/04/23 11:07:29.1     -41   -164    -26    170    173 194.3  -8.8  34166  289.67 0855.09
2009/04/23 11:07:29.3     -99   -176    -29    203    206 209.4  -8.2  34164  289.63 0855.09
2009/04/23 11:07:29.4     -42    -64     94     77    121 213.4  56.4  34192  290.11 0855.09
2009/04/23 11:07:29.5     -76    -73     93    106    141 226.0  45.8  34192  290.11 0855.09
2009/04/23 11:07:29.6    -198   -118     49    231    237 239.3  12.2  34186  290.02 0855.09
2009/04/23 11:07:29.7    -211    -36     74    215    228 260.3  19.2  34192  290.11 0855.09
2009/04/23 11:07:29.8    -223    -37     13    227    228 260.5   3.3  34216  290.52 0855.09
2009/04/23 11:07:29.9    -224    -38     21    228    230 260.4   5.4  34230  290.75 0855.12
2009/04/23 11:07:30.0    -180    -60    -49    190    197 251.4 -14.5  34200  290.25 0855.12
2009/04/23 11:07:30.1    -188    -66      4    200    201 250.5   1.2  34202  290.30 0855.12
2009/04/23 11:07:30.2    -146   -150    -19    210    211 224.1  -5.2  34188  290.06 0855.12
2009/04/23 11:07:30.3    -135    -91      2    163    164 235.9   1.0  34198  290.21 0855.12
2009/04/23 11:07:30.4    -222   -104    -37    246    249 244.8  -8.6  34212  290.44 0855.12
2009/04/23 11:07:30.5    -157   -138     20    210    212 228.7   5.7  34210  290.43 0855.12
2009/04/23 11:07:30.6     -68   -142    103    158    188 205.9  35.7  34206  290.35 0855.12
2009/04/23 11:07:30.7     -58    -91    147    108    182 212.5  60.5  34214  290.50 0855.12
2009/04/23 11:07:30.8     -69    -97    130    120    176 215.6  52.2  34212  290.45 0855.12
2009/04/23 11:07:30.9    -116    -57     99    130    163 243.8  40.9  34242  290.98 0855.12
2009/04/23 11:07:31.0     -35    -32    107     48    117 226.9  74.5  34230  290.75 0855.12
2009/04/23 11:07:31.1     -93    -65    105    114    154 234.9  47.9  34232  290.81 0855.12
2009/04/23 11:07:31.2     -25    -18     56     32     64 234.0  67.7  34216  290.52 0855.12
2009/04/23 11:07:31.3      32   -136     58    140    151 166.6  23.6  34188  290.06 0855.12
2009/04/23 11:07:31.4      10   -143     28    144    147 176.0  11.1  34188  290.06 0855.12
2009/04/23 11:07:31.5      -3   -199     25    200    202 180.9   7.2  34182  289.96 0855.12
2009/04/23 11:07:31.6     -51   -216      3    223    224 193.4   0.8  34186  290.02 0855.12
2009/04/23 11:07:31.7    -120   -177     10    215    216 214.2   2.8  34186  290.02 0855.12
2009/04/23 11:07:31.8    -182   -158    -60    242    250 229.1 -13.9  34186  290.00 0855.12
2009/04/23 11:07:31.9    -137   -208    -18    250    251 213.4  -4.1  34186  290.02 0855.14
2009/04/23 11:07:32.0    -160   -149    -87    219    235 227.1 -27.4  34174  289.82 0855.14
2009/04/23 11:07:32.1    -155   -151    -35    217    220 225.6  -9.4  34182  289.94 0855.14
2009/04/23 11:07:32.2     -78   -112     16    137    139 214.7   6.9  34184  289.97 0855.14
2009/04/23 11:07:32.3     -47   -159    108    166    198 196.7  36.3  34176  289.84 0855.14
2009/04/23 11:07:32.4     -60   -152    169    164    235 201.8  50.9  34188  290.06 0855.14
2009/04/23 11:07:32.5     -21   -125    165    127    208 189.8  58.5  34188  290.06 0855.14
2009/04/23 11:07:32.6       2   -148    167    149    223 179.0  53.7  34190  290.09 0855.14
2009/04/23 11:07:32.7      55   -203    127    211    246 164.9  34.0  34190  290.09 0855.14
2009/04/23 11:07:32.8      81   -280    105    292    310 163.7  20.4  34188  290.03 0855.14
2009/04/23 11:07:32.9      11   -336    103    337    353 178.1  17.0  34184  289.99 0855.14
2009/04/23 11:07:33.0     -48   -284    160    289    330 189.7  31.5  34180  289.92 0855.14
2009/04/23 11:07:33.1      71   -394    157    401    430 169.7  22.7  34188  290.05 0855.14
2009/04/23 11:07:33.2       0   -489     28    490    491 179.9   3.3  34196  290.17 0855.14
2009/04/23 11:07:33.3      19   -496      1    497    498 177.8   0.2  34192  290.12 0855.14
2009/04/23 11:07:33.4      54   -488     61    492    496 173.7   7.1  34188  290.03 0855.14
2009/04/23 11:07:33.5       7   -506     53    507    510 179.1   6.0  34188  290.06 0855.14
2009/04/23 11:07:33.6      72   -516     58    522    526 172.0   6.4  34190  290.09 0855.14
2009/04/23 11:07:33.7      36   -470    186    472    507 175.6  22.7  34192  290.12 0855.14
2009/04/23 11:07:33.8      97   -485    229    495    545 168.7  26.6  34190  290.07 0855.14
2009/04/23 11:07:33.9     177   -536     67    565    569 161.7   6.8  34190  290.07 0855.13
2009/04/23 11:07:34.0     168   -487     39    516    518 160.9   4.3  34188  290.03 0855.13
2009/04/23 11:07:34.1     201   -435    125    480    497 155.2  14.7  34188  290.03 0855.13
2009/04/23 11:07:34.2     167   -362    179    399    437 155.2  25.8  34188  290.04 0855.13
2009/04/23 11:07:34.3     133   -435    173    456    487 163.0  21.8  34188  290.05 0855.13
2009/04/23 11:07:34.4     167   -441     92    472    482 159.2  11.1  34188  290.03 0855.13
2009/04/23 11:07:34.5     152   -408    130    436    456 159.6  16.6  34186  290.00 0855.13
2009/04/23 11:07:34.6     142   -409    195    434    475 160.8  25.7  34184  289.97 0855.13
2009/04/23 11:07:34.7     185   -346    122    393    412 151.8  17.3  34184  289.99 0855.13
2009/04/23 11:07:34.8     168   -344     98    384    397 153.9  14.3  34188  290.03 0855.13
2009/04/23 11:07:34.9      81   -400    232    409    470 168.5  32.0  34188  290.05 0855.13
2009/04/23 11:07:35.0      48   -341    216    345    407 172.0  35.1  34188  290.03 0855.13
2009/04/23 11:07:35.1     -65   -343    144    350    378 190.8  23.5  34184  289.98 0855.13
2009/04/23 11:07:35.2     -50   -347    164    351    387 188.2  27.1  34184  289.98 0855.13
2009/04/23 11:07:35.3     -71   -360    146    368    395 191.2  22.9  34182  289.96 0855.13
2009/04/23 11:07:35.4     -65   -359    120    365    385 190.3  18.2  34178  289.89 0855.13
2009/04/23 11:07:35.5     -23   -367     75    368    376 183.6  11.6  34194  290.15 0855.13
2009/04/23 11:07:35.6     -34   -335    -54    337    342 185.9  -9.1  34192  290.13 0855.13
2009/04/23 11:07:35.7     -98   -310    -38    326    329 197.6  -6.7  34186  290.02 0855.13
2009/04/23 11:07:35.8    -168   -325    -35    367    369 207.4  -5.5  34188  290.06 0855.13
2009/04/23 11:07:35.9    -200   -387      6    436    437 207.4   0.8  34190  290.07 0855.13
2009/04/23 11:07:36.0    -275   -428   -133    509    527 212.7 -14.7  34166  289.67 0855.13
2009/04/23 11:07:36.1    -302   -285   -134    416    438 226.7 -17.9  34182  289.95 0855.13
2009/04/23 11:07:36.2    -234   -367    -24    436    437 212.6  -3.2  34216  290.53 0855.13
2009/04/23 11:07:36.3    -196   -299    109    358    375 213.2  17.0  34224  290.66 0855.13
2009/04/23 11:07:36.4    -119   -333     82    354    364 199.8  13.1  34210  290.43 0855.13
2009/04/23 11:07:36.5    -261   -370    161    453    481 215.2  19.6  34214  290.49 0855.13
2009/04/23 11:07:36.6    -125   -467    214    484    529 195.1  25.3  34164  289.64 0855.13
2009/04/23 11:07:36.7     -63   -344    197    350    401 190.5  31.9  34158  289.54 0855.13
2009/04/23 11:07:36.8    -116   -290    158    313    350 201.8  28.7  34150  289.40 0855.13
2009/04/23 11:07:36.9    -210   -343     79    403    411 211.5  11.1  34150  289.41 0855.13
2009/04/23 11:07:37.0    -247   -353     80    431    439 215.0  10.6  34150  289.39 0855.13
2009/04/23 11:07:37.1    -284   -335     69    440    446 220.3   9.0  34148  289.38 0855.13
2009/04/23 11:07:37.2    -310   -321     72    447    453 224.0   9.2  34154  289.46 0855.13
2009/04/23 11:07:37.3    -370   -311     17    484    485 230.0   2.1  34156  289.49 0855.13
2009/04/23 11:07:37.4    -315   -277     65    420    426 228.7   8.9  34158  289.55 0855.13
2009/04/23 11:07:37.5    -336   -316    -28    462    463 226.7  -3.5  34166  289.68 0855.13
2009/04/23 11:07:37.6    -206   -262    108    334    351 218.1  17.9  34190  290.08 0855.13
2009/04/23 11:07:37.7    -159   -334    101    371    385 205.5  15.3  34182  289.93 0855.13
2009/04/23 11:07:37.8    -148   -279    112    316    335 208.0  20.3  34178  289.86 0855.13
2009/04/23 11:07:37.9    -100   -233    173    254    307 203.2  37.6  34184  289.98 0855.13
2009/04/23 11:07:38.0       4   -240    172    241    296 179.0  39.3  34180  289.92 0855.13
2009/04/23 11:07:38.1     -90   -240    162    257    303 200.7  35.5  34178  289.88 0855.13
2009/04/23 11:07:38.2      19   -201    132    202    241 174.4  36.3  34176  289.85 0855.13
2009/04/23 11:07:38.3     -17   -225    164    226    279 184.5  39.7  34172  289.76 0855.13
2009/04/23 11:07:38.4    -109   -264    181    286    338 202.5  35.5  34178  289.86 0855.13
2009/04/23 11:07:38.5     -27   -210    168    212    270 187.3  42.7  34178  289.86 0855.13
2009/04/23 11:07:38.6     -70   -207    124    219    251 198.9  32.3  34172  289.78 0855.13
2009/04/23 11:07:38.7      -5   -133     83    134    157 182.2  34.8  34176  289.84 0855.13
2009/04/23 11:07:38.8      77    -82    101    113    151 136.7  46.4  34180  289.91 0855.13
2009/04/23 11:07:38.9      56    -62     57     84    101 137.7  37.6  34178  289.89 0855.13
2009/04/23 11:07:39.0      21    -83     68     86    109 165.7  43.3  34178  289.87 0855.13
2009/04/23 11:07:39.1      49    -59     81     77    111 140.4  51.6  34178  289.89 0855.13
2009/04/23 11:07:39.2     144     20    150    146    209  82.1  50.4  34176  289.84 0855.13
2009/04/23 11:07:39.3     150     -2    101    151    181  90.9  36.7  34174  289.82 0855.13
2009/04/23 11:07:39.4      74     15     57     76     95  78.5  40.7  34176  289.84 0855.13
2009/04/23 11:07:39.5      79    -28     23     84     88 109.5  15.3  34174  289.82 0855.13
2009/04/23 11:07:39.6      94   -111     24    146    149 139.9   9.5  34172  289.77 0855.13
2009/04/23 11:07:39.7     101     -6     98    102    141  93.9  49.0  34170  289.74 0855.13
2009/04/23 11:07:39.8     104    -41     73    113    134 111.7  35.6  34172  289.77 0855.13
2009/04/23 11:07:39.9      76    -70     92    104    138 132.7  46.4  34176  289.84 0855.13
2009/04/23 11:07:40.0     106    -98     55    145    155 132.7  21.0  34170  289.75 0855.13
2009/04/23 11:07:40.1     128    -30     11    132    133 103.3   5.0  34166  289.67 0855.13
2009/04/23 11:07:40.2     119      1     77    120    142  89.2  35.6  34164  289.65 0855.13
2009/04/23 11:07:40.3     219      8     80    220    234  87.9  20.9  34152  289.43 0855.13
2009/04/23 11:07:40.4     191    -25     60    193    203  97.5  17.3  34158  289.53 0855.13
2009/04/23 11:07:40.5     193    -51     77    200    214 105.1  21.7  34162  289.60 0855.13
2009/04/23 11:07:40.6     141    -20     91    143    169  98.4  35.5  34158  289.55 0855.13
2009/04/23 11:07:40.7     133    -68     99    150    179 117.0  36.5  34164  289.63 0855.13
2009/04/23 11:07:40.8     148    -86     73    172    186 120.2  24.3  34162  289.60 0855.13
2009/04/23 11:07:40.9     118     -8    107    119    160  94.3  46.6  34160  289.57 0855.13
2009/04/23 11:07:41.0      55    -19     99     59    115 109.1  65.7  34164  289.63 0855.13
2009/04/23 11:07:41.1     -26    -26    106     37    112 225.1  81.2  34182  289.94 0855.13
2009/04/23 11:07:41.2     -35    -34     67     50     83 225.9  59.4  34184  289.99 0855.13
2009/04/23 11:07:41.3     -57    -50    113     76    136 228.7  63.2  34190  290.09 0855.13
2009/04/23 11:07:41.4       2    -38    146     39    151 175.6  84.9  34186  290.01 0855.13
2009/04/23 11:07:41.5       3    -12    100     13    100 164.9  90.0  34184  289.97 0855.13
2009/04/23 11:07:41.6      36    -43    107     57    121 140.4  69.8  34188  290.06 0855.13
2009/04/23 11:07:41.7      -8    -13    102     16    103 212.5  90.0  34188  290.04 0855.13
2009/04/23 11:07:41.8      64   -193    191    204    279 161.7  48.0  34166  289.68 0855.13
2009/04/23 11:07:41.9      29   -142    181    146    232 168.4  56.9  34172  289.79 0855.13
2009/04/23 11:07:42.0     115   -245    206    271    340 154.8  40.9  34166  289.66 0855.13
2009/04/23 11:07:42.1     123   -231    172    262    313 151.9  36.5  34166  289.66 0855.13
2009/04/23 11:07:42.2     104   -211    132    236    270 153.7  31.6  34162  289.59 0855.13
2009/04/23 11:07:42.3      58   -227    137    235    272 165.7  33.1  34164  289.64 0855.13
2009/04/23 11:07:42.4      26   -240    177    242    299 173.7  39.7  34164  289.64 0855.13
2009/04/23 11:07:42.5     -31   -279    180    281    333 186.5  35.6  34170  289.73 0855.13
2009/04/23 11:07:42.6    -106   -354    127    370    392 196.8  18.9  34166  289.69 0855.13
2009/04/23 11:07:42.7    -112   -310    123    330    352 199.9  21.3  34168  289.71 0855.13
2009/04/23 11:07:42.8     -63   -263    153    271    311 193.6  32.1  34170  289.75 0855.13
2009/04/23 11:07:42.9     -69   -311     90    319    332 192.7  15.9  34172  289.76 0855.13
2009/04/23 11:07:43.0    -120   -294     93    318    332 202.2  16.3  34168  289.70 0855.13
2009/04/23 11:07:43.1     -90   -304     45    318    322 196.5   8.1  34178  289.86 0855.13
2009/04/23 11:07:43.2     -74   -274     39    284    287 195.2   8.0  34174  289.80 0855.13
2009/04/23 11:07:43.3     -30   -265     62    267    275 186.5  13.2  34180  289.92 0855.13
2009/04/23 11:07:43.4     -95   -248     78    266    278 201.0  16.3  34176  289.85 0855.13
2009/04/23 11:07:43.5     -53   -302     89    307    320 190.0  16.3  34182  289.95 0855.13
2009/04/23 11:07:43.6     -60   -321     97    327    342 190.6  16.6  34188  290.03 0855.13
2009/04/23 11:07:43.7    -111   -406     75    421    428 195.3  10.2  34182  289.95 0855.13
2009/04/23 11:07:43.8    -126   -374     19    395    396 198.7   2.8  34182  289.93 0855.13
2009/04/23 11:07:43.9     -89   -352     98    364    378 194.3  15.1  34182  289.94 0855.14
2009/04/23 11:07:44.0    -126   -323     72    347    355 201.4  11.8  34188  290.03 0855.14
2009/04/23 11:07:44.1     -44   -285     43    289    293 188.9   8.5  34184  289.98 0855.14
2009/04/23 11:07:44.2     -13   -282     13    283    284 182.7   2.8  34180  289.90 0855.14
2009/04/23 11:07:44.3     -73   -215     21    228    230 198.9   5.4  34184  289.97 0855.14
2009/04/23 11:07:44.4     -56   -236      2    243    244 193.4   0.5  34186  290.02 0855.14
2009/04/23 11:07:44.5     -12   -194      8    195    196 183.8   2.5  34180  289.92 0855.14
2009/04/23 11:07:44.6     -42   -232      5    236    237 190.5   1.2  34184  289.98 0855.14
2009/04/23 11:07:44.7     -69   -210      0    222    223 198.3   0.0  34184  289.97 0855.14
2009/04/23 11:07:44.8     -60   -162    -52    173    180 200.5 -21.7  34182  289.96 0855.14
2009/04/23 11:07:44.9     -93   -118    -49    151    158 218.3 -23.0  34186  290.01 0855.17
2009/04/23 11:07:45.0    -113   -134    -62    176    187 220.1 -19.7  34182  289.96 0855.17
2009/04/23 11:07:45.1     -74   -151    -72    169    183 206.3 -28.5  34178  289.89 0855.17
2009/04/23 11:07:45.2     -91    -57   -162    108    194 237.6 -68.0  34176  289.85 0855.17
2009/04/23 11:07:45.3     -87      0   -176     88    196 270.0 -76.1  34178  289.87 0855.17
2009/04/23 11:07:45.4    -123     -1   -114    124    168 269.2 -52.1  34180  289.92 0855.17
2009/04/23 11:07:45.5     -86   -107    -43    138    144 218.7 -22.8  34182  289.96 0855.17
2009/04/23 11:07:45.6     -73   -122    -51    143    151 210.8 -24.4  34182  289.96 0855.17
2009/04/23 11:07:45.7     -73   -146    -51    164    171 206.7 -22.3  34182  289.96 0855.17
2009/04/23 11:07:45.8     -59   -131    -51    144    154 204.5 -19.7  34182  289.96 0855.17
2009/04/23 11:07:45.9      23   -155    -54    157    166 171.5 -23.6  34184  289.97 0855.17
2009/04/23 11:07:46.0      16   -115    -27    117    121 171.9 -12.9  34180  289.92 0855.17
2009/04/23 11:07:46.1     -12    -99      8    100    101 187.1   4.9  34178  289.89 0855.17
2009/04/23 11:07:46.2     -63    -83     40    105    112 217.0  21.5  34182  289.94 0855.17
2009/04/23 11:07:46.3     -37    -94     71    102    124 201.9  37.6  34180  289.92 0855.17
2009/04/23 11:07:46.4     -40   -120     66    127    143 198.5  29.3  34172  289.79 0855.17
2009/04/23 11:07:46.5     -33   -101     97    107    144 198.3  47.5  34174  289.80 0855.17
2009/04/23 11:07:46.6      -5    -80     61     81    101 184.0  40.7  34168  289.70 0855.17
2009/04/23 11:07:46.7      24    -42     42     49     64 150.1  45.8  34188  290.06 0855.17
2009/04/23 11:07:46.8      29    -28     16     41     44 134.9  21.0  34184  289.99 0855.17
2009/04/23 11:07:46.9      34      0     22     35     41  90.0  35.5  34192  290.11 0855.17
2009/04/23 11:07:47.0      48    -23      7     54     55 115.2   8.0  34178  289.89 0855.17
2009/04/23 11:07:47.1      76    -24     -3     80     81 108.2  -2.2  34172  289.79 0855.17
2009/04/23 11:07:47.2      75     32    -31     82     87  66.5 -25.4  34170  289.75 0855.17
2009/04/23 11:07:47.3      84     51    -32     99    104  58.5 -23.8  34168  289.72 0855.17
2009/04/23 11:07:47.4      70     98    -38    121    126  35.6 -22.8  34162  289.60 0855.17
2009/04/23 11:07:47.5      -3     46    -10     47     49 355.6 -12.4  34158  289.53 0855.17
2009/04/23 11:07:47.6     -95     19    -34     97    102 281.4 -23.8  34150  289.41 0855.17
2009/04/23 11:07:47.7    -140    143    -28    201    204 315.7  -8.0  34154  289.46 0855.17
2009/04/23 11:07:47.8    -182     82   -183    200    271 294.4 -51.9  34138  289.19 0855.17
2009/04/23 11:07:47.9    -185     72   -186    199    272 291.3 -52.4  34152  289.42 0855.17
2009/04/23 11:07:48.0    -233     31   -206    236    313 277.7 -50.0  34152  289.42 0855.17
2009/04/23 11:07:48.1    -272     83   -241    285    373 287.1 -48.8  34142  289.25 0855.17
2009/04/23 11:07:48.2    -258     12   -298    259    394 272.8 -59.1  34144  289.30 0855.17
2009/04/23 11:07:48.3    -285    -23   -310    287    422 265.2 -56.9  34142  289.26 0855.17
2009/04/23 11:07:48.4    -291    -40   -285    294    409 262.0 -53.5  34148  289.37 0855.17
2009/04/23 11:07:48.5    -263      7   -316    264    411 271.7 -60.5  34162  289.59 0855.17
2009/04/23 11:07:48.6    -146     -9   -216    147    261 266.1 -67.1  34160  289.57 0855.17
2009/04/23 11:07:48.7      -7     51   -144     52    153 352.0 -84.1  34184  289.97 0855.17
2009/04/23 11:07:48.8    -241    -40   -149    245    286 260.4 -38.8  34176  289.83 0855.17
2009/04/23 11:07:48.9     -51     85   -213    100    235 328.8 -77.6  34166  289.69 0855.19
2009/04/23 11:07:49.0     -15    178   -247    179    305 355.1 -65.0  34160  289.58 0855.19
2009/04/23 11:07:49.1     -12    160   -239    161    288 355.6 -67.1  34164  289.64 0855.19
2009/04/23 11:07:49.2      68    153   -186    168    250  24.1 -57.7  34154  289.48 0855.19
2009/04/23 11:07:49.3      56    278    -97    284    300  11.5 -23.6  34172  289.76 0855.19
2009/04/23 11:07:49.4      -6    221   -136    222    260 358.4 -38.9  34180  289.92 0855.19
2009/04/23 11:07:49.5      16    165    -79    166    183   5.8 -31.6  34180  289.92 0855.19
2009/04/23 11:07:49.6     -70    209    -84    221    236 341.3 -26.4  34174  289.80 0855.19
2009/04/23 11:07:49.7     136    265    -58    299    305  27.2 -11.1  34160  289.58 0855.19
2009/04/23 11:07:49.8     181    174     54    252    258  46.2  12.1  34156  289.49 0855.19
2009/04/23 11:07:49.9     -36     36    -35     51     61 315.0 -43.0  34150  289.40 0855.19
2009/04/23 11:07:50.0    -120     61    -60    135    147 297.1 -29.6  34160  289.57 0855.19
2009/04/23 11:07:50.1    -118    264   -168    290    335 335.9 -37.2  34164  289.64 0855.19
2009/04/23 11:07:50.2     -85    279   -164    292    334 343.0 -36.1  34158  289.53 0855.19
2009/04/23 11:07:50.3      14    326   -185    327    375   2.6 -36.4  34164  289.64 0855.19
2009/04/23 11:07:50.4      16    211   -100    212    234   4.5 -31.5  34160  289.57 0855.19
2009/04/23 11:07:50.5      54    196    -73    204    217  15.6 -19.7  34158  289.53 0855.19
2009/04/23 11:07:50.6     305     92    -57    319    325  73.2 -10.2  34156  289.49 0855.19
2009/04/23 11:07:50.7      95    185   -141    208    251  27.2 -41.7  34160  289.56 0855.19
2009/04/23 11:07:50.8     139     91    -48    167    174  56.9 -16.0  34160  289.58 0855.19
2009/04/23 11:07:50.9      35     52     56     63     84  34.3  46.9  34164  289.63 0855.18
2009/04/23 11:07:51.0     108      1     60    109    124  89.1  31.4  34168  289.72 0855.18
2009/04/23 11:07:51.1      32   -151     -7    155    156 168.0  -2.6  34166  289.69 0855.18
2009/04/23 11:07:51.2       5   -281    -84    282    294 178.9 -21.7  34166  289.68 0855.18
2009/04/23 11:07:51.3     246   -262      1    360    361 136.8   0.2  34162  289.60 0855.18
2009/04/23 11:07:51.4     247   -132    -39    281    284 118.2  -8.0  34164  289.63 0855.18
2009/04/23 11:07:51.5     255   -142    -98    293    308 119.1 -23.6  34160  289.56 0855.18
2009/04/23 11:07:51.6     304   -191    -16    360    361 122.1  -2.6  34158  289.54 0855.18
2009/04/23 11:07:51.7     312   -221     -7    383    384 125.4  -1.1  34166  289.69 0855.18
2009/04/23 11:07:51.8     439   -159    -21    468    469 110.0  -2.7  34164  289.64 0855.18
2009/04/23 11:07:51.9     457   -245   -177    519    549 118.3 -18.9  34164  289.65 0855.18
2009/04/23 11:07:52.0     424     -6   -114    425    441  90.9 -15.1  34168  289.70 0855.18
2009/04/23 11:07:52.1     327     54   -122    332    353  80.6 -25.5  34166  289.69 0855.18
2009/04/23 11:07:52.2     357     72   -115    365    382  78.5 -22.6  34164  289.64 0855.18
2009/04/23 11:07:52.3     220    140    -80    261    272  57.5 -22.1  34162  289.59 0855.18
2009/04/23 11:07:52.4     294    171    -13    341    342  59.8  -2.2  34168  289.71 0855.18
2009/04/23 11:07:52.5     347    118    -14    367    368  71.2  -2.2  34182  289.94 0855.18
2009/04/23 11:07:52.6     349     90     -7    361    362  75.5  -1.3  34228  290.72 0855.18
2009/04/23 11:07:52.7     266    103    -11    286    287  68.7  -2.2  34228  290.71 0855.18
2009/04/23 11:07:52.8     202     49     -9    208    209  76.3  -2.6  34202  290.28 0855.18
2009/04/23 11:07:52.9     268     54     69    274    283  78.6  14.3  34238  290.90 0855.18
2009/04/23 11:07:53.0     317     70    113    325    345  77.5  19.3  34208  290.38 0855.18
2009/04/23 11:07:53.1     308     13     84    309    321  87.5  15.3  34218  290.56 0855.18
2009/04/23 11:07:53.2     282     59     90    289    303  78.1  17.3  34202  290.27 0855.18
2009/04/23 11:07:53.3     242      6    109    243    266  88.5  26.2  34210  290.41 0855.18
2009/04/23 11:07:53.4     241     30     58    243    250  82.8  13.5  34208  290.39 0855.18
2009/04/23 11:07:53.5     255      3     49    256    261  89.1  11.0  34218  290.56 0855.18
2009/04/23 11:07:53.6     189     -2     54    190    198  90.8  16.0  34210  290.43 0855.18
2009/04/23 11:07:53.7     188     21     70    190    202  83.4  21.0  34206  290.36 0855.18
2009/04/23 11:07:53.8     193    -38     83    197    213 101.4  24.1  34212  290.45 0855.18
2009/04/23 11:07:53.9     223    -24     99    225    245  96.4  25.3  34212  290.46 0855.18
2009/04/23 11:07:54.0     206    -68     69    218    229 108.4  17.7  34208  290.40 0855.18
2009/04/23 11:07:54.1     168    -22    100    170    197  97.7  33.4  34238  290.89 0855.18
2009/04/23 11:07:54.2     227     13     80    228    242  86.7  19.4  34206  290.34 0855.18
2009/04/23 11:07:54.3     207    -42    130    212    248 101.7  34.5  34238  290.88 0855.18
2009/04/23 11:07:54.4     203    -47    126    209    244 103.0  34.0  34242  290.97 0855.18
2009/04/23 11:07:54.5     202     59     54    211    218  73.6  14.5  34184  289.99 0855.18
2009/04/23 11:07:54.6     163     33      0    167    168  78.5   0.2  34200  290.25 0855.18
2009/04/23 11:07:54.7      67      0     28     68     73  90.0  23.0  34234  290.82 0855.18
2009/04/23 11:07:54.8      70    -45     24     84     88 122.5  16.3  34256  291.20 0855.18
2009/04/23 11:07:55.0      46     -2     62     47     77  92.6  59.4  34256  291.20 0855.18
2009/04/23 11:07:55.0      62     -3     75     63     97  93.5  55.8  34284  291.69 0855.18
2009/04/23 11:07:55.1      34      4     79     35     86  82.1  75.0  34278  291.57 0855.18
2009/04/23 11:07:55.2       5    -21     49     22     53 164.9  75.0  34284  291.69 0855.18
2009/04/23 11:07:55.3      31    -42     48     53     71 143.9  47.9  34284  291.67 0855.18
2009/04/23 11:07:55.4      45    -25     33     52     61 119.8  35.5  34278  291.59 0855.18
2009/04/23 11:07:55.6      32    -10     12     34     37 108.4  19.2  34278  291.57 0855.18
2009/04/23 11:07:55.7      11      7      6     14     15  57.6  23.0  34276  291.54 0855.18
2009/04/23 11:07:55.7      13      8      0     16     17  57.6  -2.2  34282  291.64 0855.18
2009/04/23 11:07:55.9     -52      4     20     53     56 274.4  20.0  34258  291.25 0855.18
2009/04/23 11:07:56.0     -67      3     30     68     74 272.6  25.1  34256  291.21 0855.18
2009/04/23 11:07:56.1     -71     16     56     73     92 283.3  41.7  34286  291.72 0855.18
2009/04/23 11:07:56.2    -102     53     50    116    126 297.5  25.1  34274  291.52 0855.18
2009/04/23 11:07:56.3    -153    -16     30    154    157 263.8  11.1  34282  291.64 0855.18
2009/04/23 11:07:56.4    -144    -20    -18    146    148 262.1  -7.3  34278  291.57 0855.18
2009/04/23 11:07:56.5     -18      9      7     21     23 297.1  18.9  34276  291.54 0855.18
2009/04/23 11:07:56.6      18     49     32     53     61  20.0  34.4  34278  291.59 0855.18
2009/04/23 11:07:56.7      73    -14     64     75     98 101.4  44.8  34284  291.67 0855.18
2009/04/23 11:07:56.8      21     -7     90     23     92 110.0  85.9  34258  291.25 0855.18
2009/04/23 11:07:56.9      -9    -69     74     70    101 188.0  51.6  34222  290.62 0855.18
2009/04/23 11:07:57.0      55   -141     53    152    162 158.6  19.2  34180  289.92 0855.18
2009/04/23 11:07:57.1      53   -142     20    152    154 159.5   7.5  34164  289.65 0855.18
2009/04/23 11:07:57.2      34   -139     36    144    149 166.2  14.3  34168  289.72 0855.18
2009/04/23 11:07:57.3      34   -187     51    191    198 169.5  15.0  34194  290.14 0855.18
2009/04/23 11:07:57.4     -52   -154     65    163    175 198.7  23.0  34230  290.75 0855.18
2009/04/23 11:07:57.5     -53   -125     65    137    151 203.2  27.2  34238  290.91 0855.18
2009/04/23 11:07:57.6     -56   -121     29    134    138 204.9  12.2  34228  290.74 0855.18
2009/04/23 11:07:57.7     -55   -106     29    120    124 207.6  13.7  34226  290.69 0855.18
2009/04/23 11:07:57.8     -91    -85     52    125    135 226.8  23.6  34274  291.50 0855.18
2009/04/23 11:07:57.9     -85    -72     36    112    118 229.6  17.9  34272  291.47 0855.18
2009/04/23 11:07:58.0     -57    -57     24     81     85 225.0  16.8  34240  290.92 0855.18
2009/04/23 11:07:58.1     -51    -82     42     97    105 212.1  24.6  34226  290.69 0855.18
2009/04/23 11:07:58.2     -47    -69     11     84     85 214.3   8.0  34216  290.52 0855.18
2009/04/23 11:07:58.3     -47      2     35     48     59 272.6  39.7  34252  291.13 0855.18
2009/04/23 11:07:58.4     -30     34     32     46     56 317.7  37.6  34254  291.18 0855.18
2009/04/23 11:07:58.5     -10     48     58     50     76 348.4  55.4  34264  291.35 0855.18
2009/04/23 11:07:58.6       4     52     66     53     84   4.5  57.5  34272  291.49 0855.18
2009/04/23 11:07:58.7      -9     27     77     29     82 340.0  78.6  34264  291.35 0855.18
2009/04/23 11:07:58.8     -26      8     75     28     80 288.4  79.2  34252  291.15 0855.18
2009/04/23 11:07:58.9     -28     40     74     50     89 324.8  63.2  34232  290.79 0855.18
2009/04/23 11:07:59.0     -13     65     41     67     78 348.4  34.4  34238  290.91 0855.18
2009/04/23 11:07:59.1       5     58     30     59     66   5.3  29.3  34234  290.84 0855.18
2009/04/23 11:07:59.2      53     53     29     75     80  45.0  22.5  34222  290.64 0855.18
2009/04/23 11:07:59.3      56     53     33     78     84  46.9  23.6  34208  290.40 0855.18
2009/04/23 11:07:59.4      40      7     -8     41     42  79.4 -11.3  34206  290.35 0855.18
2009/04/23 11:07:59.5      24      7    -10     26     27  73.2 -23.3  34204  290.31 0855.18
2009/04/23 11:07:59.6      13      2    -24     14     27  78.5 -69.1  34204  290.33 0855.18
2009/04/23 11:07:59.7      17     10      0     20     21  59.3  -2.2  34190  290.09 0855.18
2009/04/23 11:07:59.8      -3     10      5     11     12 341.5  27.2  34190  290.09 0855.18
2009/04/23 11:07:59.9      -9     24    -41     26     48 338.2 -69.1  34206  290.35 0855.18
2009/04/23 11:08:00.0      -8     25    -71     27     75 341.3 -83.6  34210  290.41 0855.18
2009/04/23 11:08:00.1       0     -3    -30      4     30 184.5 -90.0  34222  290.64 0855.18
2009/04/23 11:08:00.2     -98    -53    -14    112    113 241.6  -7.3  34204  290.33 0855.18
2009/04/23 11:08:00.3     -31    -62     67     70     96 206.3  49.4  34186  290.02 0855.18
2009/04/23 11:08:00.4     -98    -98     79    139    159 225.0  32.1  34180  289.91 0855.18
2009/04/23 11:08:00.5    -121   -100     46    158    165 230.4  16.3  34178  289.87 0855.18
2009/04/23 11:08:00.6    -207   -140     54    251    257 235.9  12.2  34174  289.81 0855.18
2009/04/23 11:08:00.7    -226    -84     15    242    243 249.6   3.6  34170  289.73 0855.18
2009/04/23 11:08:00.8    -235   -116     22    263    265 243.8   5.0  34168  289.70 0855.18
2009/04/23 11:08:00.9    -223   -109     28    249    251 244.0   6.5  34172  289.76 0855.18
2009/04/23 11:08:01.0    -244   -150     94    287    302 238.4  18.1  34214  290.49 0855.19
2009/04/23 11:08:01.1    -239   -179     58    299    305 233.1  11.1  34194  290.14 0855.19
2009/04/23 11:08:01.2    -222   -159    -34    274    277 234.3  -7.2  34194  290.15 0855.19
2009/04/23 11:08:01.3    -293   -132    -84    322    333 245.8 -14.7  34210  290.42 0855.19
2009/04/23 11:08:01.4    -271   -225     -2    353    354 230.4  -0.4  34182  289.96 0855.19
2009/04/23 11:08:01.5    -159   -218    122    270    296 216.1  26.2  34190  290.09 0855.19
2009/04/23 11:08:01.6    -119   -250    206    278    346 205.5  40.1  34172  289.76 0855.19
2009/04/23 11:08:01.7     -83   -296    101    308    325 195.8  18.2  34178  289.86 0855.19
2009/04/23 11:08:01.8    -133   -282     87    313    325 205.3  15.6  34160  289.58 0855.19
2009/04/23 11:08:01.9    -133   -323      1    350    351 202.5   0.2  34162  289.62 0855.19
2009/04/23 11:08:02.0    -138   -250     -1    286    287 209.0  -0.3  34168  289.70 0855.19
2009/04/23 11:08:02.1    -141   -195      0    241    242 216.0   0.0  34172  289.76 0855.19
2009/04/23 11:08:02.2    -110   -123      4    166    167 221.9   1.6  34174  289.80 0855.19
2009/04/23 11:08:02.3     -26    -99     15    103    105 195.2   8.5  34168  289.72 0855.19
2009/04/23 11:08:02.4      16   -163     19    164    166 174.2   6.9  34172  289.77 0855.19
2009/04/23 11:08:02.5     -13   -185     33    186    189 184.2  10.1  34178  289.87 0855.19
2009/04/23 11:08:02.6     -96   -238     -1    257    258 202.1  -0.3  34170  289.75 0855.19
2009/04/23 11:08:02.7     -71   -188     -7    201    202 200.7  -2.2  34170  289.75 0855.19
2009/04/23 11:08:02.8     -48   -217     -2    223    224 192.5  -0.7  34176  289.85 0855.19
2009/04/23 11:08:02.9     -76   -114    -22    138    140 213.8  -9.3  34192  290.11 0855.19
2009/04/23 11:08:03.0     -59   -188      0    198    199 197.6   0.2  34186  290.02 0855.20
2009/04/23 11:08:03.1     -69   -210     -8    222    223 198.3  -2.2  34188  290.04 0855.20
2009/04/23 11:08:03.2    -159    -99    -24    188    190 238.2  -7.5  34212  290.47 0855.20
2009/04/23 11:08:03.3    -125   -113      0    169    170 228.0   0.0  34198  290.23 0855.20
2009/04/23 11:08:03.4    -125   -124     16    177    178 225.1   5.4  34192  290.11 0855.20
2009/04/23 11:08:03.5    -190   -160     31    249    251 230.0   7.1  34188  290.05 0855.20
2009/04/23 11:08:03.6    -237   -151    -11    282    283 237.5  -2.2  34180  289.92 0855.20
2009/04/23 11:08:03.7    -213    -93    -42    233    237 246.3 -10.3  34172  289.78 0855.20
2009/04/23 11:08:03.8    -165   -136     19    214    215 230.5   5.2  34196  290.18 0855.20
2009/04/23 11:08:03.9    -126   -166     97    209    230 217.2  27.1  34200  290.25 0855.20
2009/04/23 11:08:04.0     -77   -230    114    243    268 198.7  27.1  34196  290.17 0855.20
2009/04/23 11:08:04.1     -68   -257     52    266    272 194.9  11.1  34200  290.26 0855.20
2009/04/23 11:08:04.2     -68   -222     72    233    245 197.0  17.3  34200  290.26 0855.20
2009/04/23 11:08:04.3     -63   -262     18    270    271 193.6   3.9  34238  290.88 0855.20
2009/04/23 11:08:04.4    -148   -205     19    254    255 215.8   4.4  34228  290.71 0855.20
2009/04/23 11:08:04.5     -90   -281    103    296    314 197.8  19.2  34254  291.17 0855.20
2009/04/23 11:08:04.6    -133   -260     11    293    294 207.2   2.3  34238  290.88 0855.20
2009/04/23 11:08:04.7    -170   -199    -18    263    264 220.5  -4.1  34264  291.33 0855.20
2009/04/23 11:08:04.8    -136   -186    -29    231    233 216.1  -7.2  34254  291.18 0855.20
2009/04/23 11:08:04.9     -73   -240     54    252    258 197.0  12.2  34180  289.92 0855.20
2009/04/23 11:08:05.0      22   -291     -5    292    293 175.6  -1.2  34164  289.64 0855.18
2009/04/23 11:08:05.1     -61   -339     38    345    348 190.2   6.4  34164  289.64 0855.18
2009/04/23 11:08:05.2     -24   -292     57    294    300 184.9  11.1  34164  289.64 0855.18
2009/04/23 11:08:05.3      49   -255     17    260    261 169.1   3.8  34166  289.66 0855.18
2009/04/23 11:08:05.4      63   -212     -8    222    223 163.3  -2.2  34166  289.67 0855.18
2009/04/23 11:08:05.5     113    -99     -8    151    152 131.3  -3.1  34164  289.65 0855.18
2009/04/23 11:08:05.6     160    -81     51    180    188 116.9  15.8  34164  289.65 0855.18
2009/04/23 11:08:05.7     203    -89     27    222    224 113.7   7.1  34168  289.70 0855.18
2009/04/23 11:08:05.8     143   -129     -2    193    194 132.0  -0.7  34166  289.67 0855.18
2009/04/23 11:08:05.9     129   -167     41    212    217 142.4  11.1  34160  289.58 0855.18
2009/04/23 11:08:06.0     113   -142     10    182    183 141.5   3.1  34164  289.65 0855.19
2009/04/23 11:08:06.1     141   -229     -8    269    270 148.4  -1.8  34164  289.64 0855.19
2009/04/23 11:08:06.2     120   -226     -1    257    258 152.0  -0.3  34160  289.58 0855.19
2009/04/23 11:08:06.3      64   -214    102    224    246 163.3  26.2  34162  289.59 0855.19
2009/04/23 11:08:06.4     -73   -219    156    231    278 198.5  37.4  34166  289.68 0855.19
2009/04/23 11:08:06.5     -87   -184     79    204    218 205.3  22.3  34166  289.69 0855.19
2009/04/23 11:08:06.6    -128   -162     73    207    220 218.3  19.4  34164  289.65 0855.19
2009/04/23 11:08:06.7    -139   -133     70    193    205 226.2  20.4  34170  289.74 0855.19
2009/04/23 11:08:06.8    -104   -111     77    153    171 223.2  28.5  34168  289.72 0855.19
2009/04/23 11:08:06.9     -31   -155    111    159    193 191.6  38.4  34168  289.70 0855.19
2009/04/23 11:08:07.0      15   -244    156    245    290 176.4  35.5  34168  289.71 0855.19
2009/04/23 11:08:07.1      82   -167    126    187    225 153.7  37.3  34172  289.79 0855.19
2009/04/23 11:08:07.2      69   -173    137    187    231 158.2  39.7  34168  289.72 0855.19
2009/04/23 11:08:07.3       3   -248    131    249    281 179.3  30.2  34170  289.73 0855.19
2009/04/23 11:08:07.4     -35   -330    121    332    353 186.1  21.0  34166  289.69 0855.19
2009/04/23 11:08:07.5     -24   -317    137    318    346 184.4  24.8  34168  289.71 0855.19
2009/04/23 11:08:07.6      -5   -335    126    336    358 180.9  21.5  34166  289.67 0855.19
2009/04/23 11:08:07.7       0   -342    150    343    374 180.0  25.1  34164  289.65 0855.19
2009/04/23 11:08:07.8     -20   -281     99    282    299 184.2  19.4  34168  289.71 0855.19
2009/04/23 11:08:07.9     -57   -320    118    326    347 190.2  19.9  34164  289.65 0855.19
2009/04/23 11:08:08.0     -23   -312    204    313    373 184.4  36.2  34168  289.71 0855.20
2009/04/23 11:08:08.1     -72   -325    158    334    369 192.6  27.1  34172  289.77 0855.20
2009/04/23 11:08:08.2    -134   -316    -13    344    345 203.0  -2.2  34178  289.89 0855.20
2009/04/23 11:08:08.3    -123   -278      5    305    306 203.8   1.0  34164  289.63 0855.20
2009/04/23 11:08:08.4    -233   -193     15    303    304 230.4   2.9  34186  290.02 0855.20
2009/04/23 11:08:08.5    -157   -215     62    267    275 216.1  13.1  34184  289.98 0855.20
2009/04/23 11:08:08.6    -230   -145     14    272    273 237.8   3.1  34190  290.09 0855.20
2009/04/23 11:08:08.7    -209     10     86    210    226 272.8  23.4  34202  290.28 0855.20
2009/04/23 11:08:08.8    -251     42    101    255    274 279.5  23.0  34216  290.53 0855.20
2009/04/23 11:08:08.9    -128    -34    157    133    205 255.0  55.6  34192  290.11 0855.20
2009/04/23 11:08:09.0     -73   -127    175    147    228 209.9  56.3  34178  289.89 0855.20
2009/04/23 11:08:09.1     -67   -141    190    157    246 205.3  56.3  34196  290.18 0855.20
2009/04/23 11:08:09.2    -111    -84    135    140    194 232.7  49.2  34194  290.14 0855.20
2009/04/23 11:08:09.3    -100    -72    107    124    163 234.1  45.6  34200  290.25 0855.20
2009/04/23 11:08:09.4    -135    -55     78    146    165 247.8  30.6  34200  290.26 0855.20
2009/04/23 11:08:09.5    -126    -68    111    144    181 241.6  41.7  34200  290.25 0855.20
2009/04/23 11:08:09.7    -173   -106     87    203    220 238.5  24.6  34212  290.47 0855.20
2009/04/23 11:08:09.7    -113    -62    108    130    169 241.1  43.8  34210  290.43 0855.20
2009/04/23 11:08:09.8    -153    -51     69    162    176 251.4  24.3  34200  290.26 0855.20
2009/04/23 11:08:09.9     -97   -116     69    152    166 219.7  26.2  34186  290.02 0855.20
2009/04/23 11:08:10.0     -93    -75     42    120    128 230.9  19.4  34182  289.96 0855.22
2009/04/23 11:08:10.1    -136    -71     39    154    159 242.5  14.3  34182  289.96 0855.22
2009/04/23 11:08:10.2    -142    -84      4    166    167 239.3   1.6  34184  289.99 0855.22
2009/04/23 11:08:10.3    -133    -88     63    160    171 236.3  22.5  34186  290.02 0855.22
2009/04/23 11:08:10.4    -116    -38     92    123    153 251.8  40.1  34198  290.23 0855.22
2009/04/23 11:08:10.5     -86    -73    101    113    151 229.6  46.4  34188  290.06 0855.22
2009/04/23 11:08:10.6     -81    -81     78    115    138 225.0  37.6  34186  290.01 0855.22
2009/04/23 11:08:10.7    -102   -105     51    147    156 224.1  19.2  34200  290.25 0855.22
2009/04/23 11:08:10.8    -165    -81     13    184    185 243.8   4.2  34208  290.40 0855.22
2009/04/23 11:08:10.9    -223    -79     -4    237    238 250.3  -1.2  34190  290.07 0855.22
2009/04/23 11:08:11.0    -194   -102      8    220    221 242.2   2.1  34202  290.30 0855.22
2009/04/23 11:08:11.1    -167   -109     43    200    205 236.9  12.4  34216  290.52 0855.22
2009/04/23 11:08:11.2    -128   -135      1    187    188 223.4   0.5  34190  290.09 0855.22
2009/04/23 11:08:11.3    -177    -49     29    184    187 254.3   9.0  34204  290.33 0855.22
2009/04/23 11:08:11.4    -154    -51     26    163    166 251.4   9.3  34210  290.43 0855.22
2009/04/23 11:08:11.5    -132     26    -17    135    137 281.5  -7.3  34216  290.52 0855.22
2009/04/23 11:08:11.6    -164      6     -1    165    166 272.4  -0.5  34216  290.52 0855.22
2009/04/23 11:08:11.7    -174      7    -33    175    179 272.4 -10.9  34210  290.41 0855.22
2009/04/23 11:08:11.8    -248    -93    -47    266    271 249.4 -10.1  34202  290.27 0855.22
2009/04/23 11:08:11.9    -244    -12    -77    245    256 267.0 -22.8  34190  290.09 0855.22
2009/04/23 11:08:12.0    -225      0    -73    226    238 270.0 -18.1  34194  290.15 0855.22
2009/04/23 11:08:12.1    -222     38    -43    226    231 279.7 -10.9  34230  290.75 0855.22
2009/04/23 11:08:12.2    -229    -66    -58    239    246 254.0 -13.7  34204  290.31 0855.22
2009/04/23 11:08:12.3    -236    -18     13    237    238 265.6   3.1  34214  290.49 0855.22
2009/04/23 11:08:12.4    -213     16     -8    214    215 274.4  -2.2  34232  290.79 0855.22
2009/04/23 11:08:12.5    -190     64    -45    201    207 288.6 -12.6  34268  291.40 0855.22
2009/04/23 11:08:12.6    -228     90    -32    246    249 291.5  -7.5  34284  291.67 0855.22
2009/04/23 11:08:12.7    -225     41    -18    229    230 280.4  -4.6  34228  290.72 0855.22
2009/04/23 11:08:12.8    -198     29     44    201    206 278.4  12.4  34212  290.47 0855.22
2009/04/23 11:08:12.9    -199     40     80    204    219 281.5  22.8  34202  290.28 0855.22
2009/04/23 11:08:13.0    -155    138    131    208    245 311.8  35.5  34188  290.05 0855.22
2009/04/23 11:08:13.1    -128    102    147    165    220 308.6  46.4  34200  290.26 0855.22
2009/04/23 11:08:13.2    -152    -80     60    172    183 242.2  19.2  34216  290.52 0855.22
2009/04/23 11:08:13.4     -81    -20     57     84    101 255.8  37.6  34234  290.82 0855.22
2009/04/23 11:08:13.4     -32    -64     56     72     91 207.2  42.2  34228  290.74 0855.22
2009/04/23 11:08:13.5     -42    -88     31     98    103 205.9  17.9  34220  290.58 0855.22
2009/04/23 11:08:13.6     -10   -103     17    104    106 185.8   9.5  34214  290.50 0855.22
2009/04/23 11:08:13.7     -13    -99     34    100    106 187.6  19.2  34214  290.50 0855.22
2009/04/23 11:08:13.8      53   -112     25    124    127 154.7  11.6  34206  290.35 0855.22
2009/04/23 11:08:13.9     123   -162     40    204    208 142.8  11.1  34200  290.25 0855.22
2009/04/23 11:08:14.0     148   -173     50    228    234 139.5  12.4  34194  290.16 0855.21
2009/04/23 11:08:14.1      52   -130     -7    141    142 158.2  -3.1  34204  290.33 0855.21
2009/04/23 11:08:14.2      40   -132     -7    139    140 163.1  -3.1  34202  290.30 0855.21
2009/04/23 11:08:14.3      13   -215     37    216    220 176.4   9.9  34180  289.92 0855.21
2009/04/23 11:08:14.4      17   -218     39    219    223 175.5  10.1  34182  289.94 0855.21
2009/04/23 11:08:14.5      15   -187     40    188    193 175.3  12.2  34186  290.02 0855.21
2009/04/23 11:08:14.6      42   -164     31    170    173 165.5  10.6  34186  290.01 0855.21
2009/04/23 11:08:14.7      29   -124      4    128    129 166.6   1.8  34184  289.99 0855.21
2009/04/23 11:08:14.8      15    -99      5    101    102 171.1   2.9  34184  289.99 0855.21
2009/04/23 11:08:14.9       1    -97     -7     98     99 179.1  -4.1  34178  289.89 0855.21
2009/04/23 11:08:15.0     -35    -82    -23     90     93 203.2 -14.5  34180  289.92 0855.21
2009/04/23 11:08:15.1     -28    -78    -18     83     86 200.0 -12.4  34178  289.89 0855.21
2009/04/23 11:08:15.2     -60    -88     27    107    111 214.3  14.3  34178  289.89 0855.21
2009/04/23 11:08:15.3     -63    -96     40    116    123 213.4  19.4  34176  289.85 0855.21
2009/04/23 11:08:15.4     -60   -107     64    123    138 209.4  29.3  34190  290.08 0855.21
2009/04/23 11:08:15.5    -145    -68    -20    161    163 244.8  -7.3  34234  290.82 0855.21
2009/04/23 11:08:15.6    -114    -11    -62    115    130 264.3 -35.2  34234  290.84 0855.21
2009/04/23 11:08:15.7     -77     16    -27     79     83 282.4 -23.3  34228  290.74 0855.21
2009/04/23 11:08:15.8     -91     26     -3     95     96 286.4  -2.2  34226  290.70 0855.21
2009/04/23 11:08:15.9     -83     53      5     99    100 302.5   2.9  34218  290.57 0855.21
2009/04/23 11:08:16.0     -65     58    -12     88     89 311.8  -8.2  34212  290.45 0855.20
2009/04/23 11:08:16.1     -31     56     43     65     77 331.0  35.6  34222  290.62 0855.20
2009/04/23 11:08:16.2     -32    -20     43     39     58 237.6  52.2  34224  290.67 0855.20
2009/04/23 11:08:16.3     -55    -11    -11     57     59 258.5 -11.3  34212  290.47 0855.20
2009/04/23 11:08:16.4     -66      3    -12     67     69 272.6 -10.3  34204  290.31 0855.20
2009/04/23 11:08:16.5     -67      7     -8     68     69 276.1  -7.2  34196  290.18 0855.20
2009/04/23 11:08:16.6     -55     39      4     68     69 306.0   3.8  34192  290.11 0855.20
2009/04/23 11:08:16.7      -7      4      1      9     10 298.9  11.1  34188  290.06 0855.20
2009/04/23 11:08:16.8     -36     -7     25     37     44 258.5  36.5  34192  290.13 0855.20
2009/04/23 11:08:16.9     -48    -33     16     59     62 234.9  15.3  34188  290.06 0855.20
2009/04/23 11:08:17.0       0    -61     72     62     95 179.1  54.8  34186  290.02 0855.20
2009/04/23 11:08:17.1      -7    -68     56     69     88 186.2  43.7  34180  289.91 0855.20
2009/04/23 11:08:17.2       0    -50     42     51     66 180.0  43.7  34174  289.80 0855.20
2009/04/23 11:08:17.3       1    -62     24     63     67 178.2  21.0  34170  289.75 0855.20
2009/04/23 11:08:17.4     -28    -70    106     76    130 201.9  60.6  34180  289.91 0855.20
2009/04/23 11:08:17.5    -126    -60     26    140    143 244.2  10.6  34190  290.08 0855.20
2009/04/23 11:08:17.6    -119    -51     25    130    133 246.5  11.1  34200  290.25 0855.20
2009/04/23 11:08:17.7    -158    -27     73    161    176 260.3  26.2  34198  290.21 0855.20
2009/04/23 11:08:17.8    -152    -50     86    161    182 251.8  30.6  34212  290.47 0855.20
2009/04/23 11:08:17.9    -162    -33     55    166    175 258.5  18.4  34232  290.79 0855.20
2009/04/23 11:08:18.0    -211    -57     46    219    224 254.7  12.0  34242  290.96 0855.21
2009/04/23 11:08:18.1    -251   -132     21    284    285 242.1   4.4  34216  290.53 0855.21
2009/04/23 11:08:18.2    -276   -175      4    327    328 237.6   0.7  34188  290.05 0855.21
2009/04/23 11:08:18.3    -199   -233     31    307    309 220.5   5.8  34192  290.12 0855.21
2009/04/23 11:08:18.4    -168   -186     -5    251    252 222.1  -1.2  34216  290.51 0855.21
2009/04/23 11:08:18.5    -123   -218     35    251    254 209.4   8.0  34170  289.75 0855.21
2009/04/23 11:08:18.6    -147   -116    -56    188    196 231.6 -21.5  34234  290.84 0855.21
2009/04/23 11:08:18.7    -176   -146     28    229    231 230.4   7.1  34264  291.33 0855.21
2009/04/23 11:08:18.8    -123    -88     18    152    154 234.5   6.9  34266  291.37 0855.21
2009/04/23 11:08:18.9    -108   -124    103    165    194 221.2  35.5  34260  291.28 0855.21
2009/04/23 11:08:19.0    -186   -137    145    232    273 233.6  35.0  34274  291.50 0855.21
2009/04/23 11:08:19.1    -172   -120    148    210    256 235.1  38.6  34266  291.36 0855.21
2009/04/23 11:08:19.2    -179   -212    172    278    326 220.3  34.9  34268  291.41 0855.21
2009/04/23 11:08:19.3    -238   -144    121    279    304 238.7  25.1  34260  291.26 0855.21
2009/04/23 11:08:19.4    -200   -256    164    326    364 218.0  28.7  34240  290.94 0855.21
2009/04/23 11:08:19.5    -262   -215    132    339    363 230.6  22.4  34248  291.08 0855.21
2009/04/23 11:08:19.6    -342   -153     53    375    379 245.9   8.1  34288  291.73 0855.21
2009/04/23 11:08:19.7    -249   -263     78    363    372 223.5  12.1  34238  290.88 0855.21
2009/04/23 11:08:19.8    -227   -241    116    332    352 223.2  19.3  34204  290.32 0855.21
2009/04/23 11:08:19.9    -167   -147    130    223    258 228.6  32.9  34220  290.58 0855.21
2009/04/23 11:08:20.0    -269    -18     34    270    273 266.1   7.2  34254  291.16 0855.21
2009/04/23 11:08:20.1    -146   -130     78    196    210 228.2  23.0  34228  290.72 0855.21
2009/04/23 11:08:20.2    -127   -199     91    237    253 212.6  22.0  34218  290.54 0855.21
2009/04/23 11:08:20.3    -124   -232    110    264    286 208.1  24.1  34206  290.36 0855.21
2009/04/23 11:08:20.4    -163   -239     30    290    292 214.3   6.0  34162  289.61 0855.21
2009/04/23 11:08:20.5    -138   -223     93    263    280 211.7  19.6  34182  289.93 0855.21
2009/04/23 11:08:20.6    -101   -194    148    219    264 207.6  37.3  34196  290.17 0855.21
2009/04/23 11:08:20.7     -86   -216    205    233    310 201.9  45.8  34168  289.70 0855.21
2009/04/23 11:08:20.8     -76   -172    167    189    252 203.8  46.2  34164  289.63 0855.21
2009/04/23 11:08:20.9    -202    -78     58    217    225 248.9  15.2  34166  289.67 0855.21
2009/04/23 11:08:21.0    -175    -94     -7    199    200 241.8  -2.3  34206  290.36 0855.21
2009/04/23 11:08:21.1    -142   -136      1    197    198 226.2   0.5  34192  290.13 0855.21
2009/04/23 11:08:21.3    -192   -204     44    281    285 223.2   9.0  34154  289.47 0855.21
2009/04/23 11:08:21.3    -132   -234     72    269    279 209.4  15.0  34152  289.42 0855.21
2009/04/23 11:08:21.5    -171   -244    123    299    323 215.0  23.7  34156  289.51 0855.21
2009/04/23 11:08:21.5    -140   -270    164    305    346 207.4  30.7  34164  289.65 0855.21
2009/04/23 11:08:21.7     -42   -165    177    171    246 194.3  51.2  34188  290.06 0855.21
2009/04/23 11:08:21.8     -70   -110    142    131    193 212.6  52.2  34196  290.19 0855.21
2009/04/23 11:08:21.9     -33   -144    110    148    184 193.3  40.1  34162  289.62 0855.21
2009/04/23 11:08:22.0      -2   -153    105    154    186 181.0  37.8  34174  289.80 0855.21
2009/04/23 11:08:22.1      26    -45     74     53     91 150.1  61.1  34192  290.11 0855.22
2009/04/23 11:08:22.2      -8    -22     65     24     69 200.0  80.2  34212  290.45 0855.22
2009/04/23 11:08:22.3     -65    -32     -1     73     74 243.8  -1.3  34202  290.28 0855.22
2009/04/23 11:08:22.4       3    -51     28     52     59 175.6  31.3  34194  290.16 0855.22
2009/04/23 11:08:22.5      20    -68     24     72     77 163.1  18.9  34178  289.89 0855.22
2009/04/23 11:08:22.6       6    -70     62     71     94 174.7  45.8  34176  289.84 0855.22
2009/04/23 11:08:22.7      -5    -76     61     77     98 184.4  43.3  34182  289.96 0855.22
2009/04/23 11:08:22.8     -41    -65     75     78    108 212.5  49.0  34186  290.01 0855.22
2009/04/23 11:08:22.9    -146    -45      7    153    154 252.7   2.9  34186  290.02 0855.22
2009/04/23 11:08:23.0    -150    -67     71    165    179 246.0  24.9  34196  290.18 0855.22
2009/04/23 11:08:23.1    -217    -35     36    220    223 260.8   9.3  34210  290.41 0855.22
2009/04/23 11:08:23.2    -271     38     28    274    276 278.1   5.9  34220  290.59 0855.22
2009/04/23 11:08:23.3    -241      0     89    242    257 270.0  21.0  34216  290.51 0855.22
2009/04/23 11:08:23.4    -349     39     36    352    354 276.4   6.0  34218  290.57 0855.22
2009/04/23 11:08:23.5    -297     18      5    298    299 273.5   1.0  34206  290.36 0855.22
2009/04/23 11:08:23.6    -223    -38     81    227    242 260.1  19.6  34186  290.02 0855.22
2009/04/23 11:08:23.7     -71   -105     94    128    158 214.2  40.1  34184  289.99 0855.22
2009/04/23 11:08:23.8     -15     -8    148     18    149 241.1  90.0  34200  290.25 0855.22
2009/04/23 11:08:23.9     -31    -42    112     53    123 216.1  73.1  34180  289.92 0855.22
2009/04/23 11:08:24.0     -36   -134    149    139    203 195.1  52.1  34160  289.57 0855.22
2009/04/23 11:08:24.1     -87   -221    186    238    302 201.6  42.0  34148  289.36 0855.22
2009/04/23 11:08:24.2    -117   -200    130    232    265 210.3  31.6  34150  289.39 0855.22
2009/04/23 11:08:24.3    -174   -197    107    264    284 221.4  23.1  34150  289.41 0855.22
2009/04/23 11:08:24.4    -193   -171    101    259    277 228.4  22.5  34158  289.54 0855.22
2009/04/23 11:08:24.5     -91   -125     98    155    183 216.0  35.5  34154  289.48 0855.22
2009/04/23 11:08:24.6    -126   -113     95    170    194 228.0  31.6  34158  289.53 0855.22
2009/04/23 11:08:24.7    -144   -125     49    191    198 229.1  14.5  34158  289.53 0855.22
2009/04/23 11:08:24.8    -111   -128     84    170    189 221.0  28.0  34158  289.55 0855.22
2009/04/23 11:08:24.9     -81   -127     99    151    180 212.5  36.3  34162  289.62 0855.22
2009/04/23 11:08:25.0    -108   -146    107    182    211 216.5  33.4  34160  289.57 0855.22
2009/04/23 11:08:25.1    -125   -119    123    173    212 226.4  38.8  34160  289.58 0855.22
2009/04/23 11:08:25.2     -42    -90     74    100    124 205.4  40.1  34168  289.70 0855.22
2009/04/23 11:08:25.3     -62   -122     89    138    164 207.1  35.7  34164  289.65 0855.22
2009/04/23 11:08:25.4     -74    -96    102    122    159 217.8  44.3  34166  289.67 0855.22
2009/04/23 11:08:25.5     -60    -74     45     96    106 218.7  27.1  34166  289.67 0855.22
2009/04/23 11:08:25.6     -35   -111    137    117    180 197.4  55.4  34168  289.70 0855.22
2009/04/23 11:08:25.7     -95   -144    133    173    218 213.4  41.6  34158  289.53 0855.22
2009/04/23 11:08:25.8     -32   -133    131    137    189 193.8  49.0  34156  289.50 0855.22
2009/04/23 11:08:25.9     -23    -97    120    100    156 193.4  55.8  34170  289.74 0855.22
2009/04/23 11:08:26.0     -36    -66    109     76    132 209.0  62.1  34172  289.79 0855.22
2009/04/23 11:08:26.1     -60    -51     58     79     98 229.6  40.1  34154  289.46 0855.22
2009/04/23 11:08:26.2      -8   -186    131    187    228 182.7  38.6  34142  289.26 0855.22
2009/04/23 11:08:26.3     -72   -193    120    207    239 200.5  32.7  34142  289.28 0855.22
2009/04/23 11:08:26.4     -95   -226     99    246    265 202.8  23.1  34148  289.37 0855.22
2009/04/23 11:08:26.5    -130   -203    104    242    263 212.6  24.6  34146  289.32 0855.22
2009/04/23 11:08:26.6    -113   -221    109    249    271 207.1  25.1  34146  289.34 0855.22
2009/04/23 11:08:26.7     -95   -216    167    237    289 203.7  38.6  34144  289.31 0855.22
2009/04/23 11:08:26.8     -65   -173    131    185    226 200.7  39.1  34144  289.31 0855.22
2009/04/23 11:08:26.9    -114   -145    142    185    233 218.1  41.4  34150  289.41 0855.22
2009/04/23 11:08:27.0     -85   -160    166    182    246 208.1  47.0  34152  289.45 0855.22
2009/04/23 11:08:27.1     -44    -37    128     58    140 229.6  74.0  34182  289.96 0855.21
2009/04/23 11:08:27.2     -92    -58    103    110    150 237.6  47.9  34172  289.77 0855.21
2009/04/23 11:08:27.3    -139   -130    102    191    216 226.8  30.3  34152  289.45 0855.21
2009/04/23 11:08:27.4    -194   -168     88    257    272 229.1  18.9  34146  289.32 0855.21
2009/04/23 11:08:27.5    -213    -90    -17    232    233 246.9  -4.4  34150  289.40 0855.21
2009/04/23 11:08:27.6    -239   -124    -56    270    276 242.5 -11.9  34138  289.20 0855.21
2009/04/23 11:08:27.7    -218   -146     53    263    269 236.0  11.6  34154  289.46 0855.21
2009/04/23 11:08:27.8    -206   -130     27    244    246 237.6   6.5  34152  289.42 0855.21
2009/04/23 11:08:27.9    -197   -105     41    224    228 242.0  10.6  34152  289.43 0855.21
2009/04/23 11:08:28.0    -199   -121     55    234    241 238.7  13.2  34152  289.44 0855.21
2009/04/23 11:08:28.1    -146   -128     91    195    215 228.7  27.1  34162  289.60 0855.21
2009/04/23 11:08:28.2    -139   -134     54    194    202 226.0  15.8  34174  289.82 0855.21
2009/04/23 11:08:28.3    -147   -138     32    202    205 226.8   9.0  34152  289.43 0855.21
2009/04/23 11:08:28.4    -166    -78    -48    184    191 244.7 -14.7  34136  289.16 0855.21
2009/04/23 11:08:28.5    -225    -53    -55    232    239 256.8 -13.4  34146  289.32 0855.21
2009/04/23 11:08:28.6    -183    -15    -22    184    186 265.0  -6.9  34138  289.21 0855.21
2009/04/23 11:08:28.7    -128    -44      1    136    137 250.9   0.8  34142  289.26 0855.21
2009/04/23 11:08:28.8     -88    -60     20    107    109 235.8  11.0  34154  289.48 0855.21
2009/04/23 11:08:28.9     -57    -54     -5     79     80 226.8  -3.7  34152  289.45 0855.21
2009/04/23 11:08:29.0    -101    -48    -44    112    120 244.6 -27.4  34154  289.48 0855.21
2009/04/23 11:08:29.1    -172    -75   -102    188    213 246.3 -35.4  34154  289.46 0855.22
2009/04/23 11:08:29.2    -210    -81    -80    226    240 248.9 -19.6  34148  289.37 0855.22
2009/04/23 11:08:29.3    -228    -79    -76    242    254 250.9 -17.5  34128  289.03 0855.22
2009/04/23 11:08:29.4    -185    -70    -78    198    212 249.2 -26.9  34134  289.14 0855.22
2009/04/23 11:08:29.5    -180   -184    -74    258    268 224.3 -20.8  34142  289.27 0855.22
2009/04/23 11:08:29.6     -77   -200    -19    215    216 201.2  -5.2  34154  289.46 0855.22
2009/04/23 11:08:29.7     -76   -220    -98    234    253 199.2 -28.2  34140  289.24 0855.22
2009/04/23 11:08:29.8      -2   -260    -77    261    272 180.5 -21.5  34148  289.37 0855.22
2009/04/23 11:08:29.9       4   -285    -36    286    289 179.0  -7.3  34148  289.37 0855.22
2009/04/23 11:08:30.0      43   -294    -16    298    299 171.5  -3.1  34148  289.36 0855.22
2009/04/23 11:08:30.1     -40   -239     25    243    245 189.6   6.1  34144  289.31 0855.22
2009/04/23 11:08:30.2     -13   -173    107    174    204 184.5  34.8  34138  289.21 0855.22
2009/04/23 11:08:30.3     -18   -246    143    247    285 184.4  32.9  34142  289.25 0855.22
2009/04/23 11:08:30.4     -16   -235    138    236    273 184.0  33.4  34140  289.22 0855.22
2009/04/23 11:08:30.5    -144   -240    140    281    313 211.0  28.5  34140  289.22 0855.22
2009/04/23 11:08:30.6    -132   -277    114    307    327 205.5  21.3  34142  289.25 0855.22
2009/04/23 11:08:30.7    -115   -275     69    299    308 202.7  13.1  34138  289.19 0855.22
2009/04/23 11:08:30.8    -178   -312     40    360    363 209.7   6.4  34148  289.38 0855.22
2009/04/23 11:08:30.9    -147   -265     63    304    311 209.0  11.8  34148  289.36 0855.22
2009/04/23 11:08:31.0    -113   -300     77    321    331 200.8  13.6  34152  289.42 0855.22
2009/04/23 11:08:31.1     -72   -308     78    317    327 193.3  13.9  34142  289.25 0855.22
2009/04/23 11:08:31.2     -23   -228    157    230    278 185.8  37.6  34138  289.20 0855.22
2009/04/23 11:08:31.3     -29   -370    164    372    406 184.5  25.2  34144  289.30 0855.22
2009/04/23 11:08:31.4     -53   -388    122    392    411 187.8  17.3  34144  289.31 0855.22
2009/04/23 11:08:31.5      -6   -356    196    357    407 181.1  31.3  34142  289.25 0855.22
2009/04/23 11:08:31.6       7   -405    128    406    426 178.9  17.5  34140  289.24 0855.22
2009/04/23 11:08:31.7     -20   -375    173    376    413 183.2  26.4  34146  289.35 0855.22
2009/04/23 11:08:31.8      76   -410    157    418    446 169.4  21.4  34150  289.39 0855.22
2009/04/23 11:08:31.9     -18   -478    156    479    504 182.2  18.1  34146  289.34 0855.22
2009/04/23 11:08:32.0     -37   -399    186    401    442 185.3  26.9  34150  289.39 0855.22
2009/04/23 11:08:32.1      19   -381    138    382    406 177.1  20.7  34152  289.43 0855.22
2009/04/23 11:08:32.2      29   -459    170    460    490 176.4  21.4  34146  289.35 0855.22
2009/04/23 11:08:32.3      94   -271    258    288    386 160.8  46.5  34140  289.23 0855.22
2009/04/23 11:08:32.4     206   -157    240    260    353 127.3  47.7  34154  289.47 0855.22
2009/04/23 11:08:32.5     221   -105    198    245    315 115.5  43.1  34162  289.61 0855.22
2009/04/23 11:08:32.6     157   -153    158    220    270 134.4  39.3  34150  289.39 0855.22
2009/04/23 11:08:32.7     136   -309    189    338    387 156.2  31.5  34142  289.25 0855.22
2009/04/23 11:08:32.8      97   -378    182    391    431 165.5  26.9  34140  289.24 0855.22
2009/04/23 11:08:32.9      79   -419    139    427    450 169.3  18.0  34140  289.24 0855.22
2009/04/23 11:08:33.0     188   -425    155    465    491 156.1  18.4  34138  289.20 0855.22
2009/04/23 11:08:33.1     182   -401    129    441    460 155.5  16.4  34140  289.22 0855.22
2009/04/23 11:08:33.2     166   -393    125    427    446 157.1  16.4  34140  289.24 0855.22
2009/04/23 11:08:33.3      97   -362    150    375    403 165.0  23.0  34146  289.32 0855.22
2009/04/23 11:08:33.4     129   -347    157    371    402 159.6  24.3  34146  289.33 0855.22
2009/04/23 11:08:33.5     112   -319    120    339    359 160.7  20.2  34146  289.33 0855.22
2009/04/23 11:08:33.6     188   -287    134    344    369 146.8  22.4  34146  289.35 0855.22
2009/04/23 11:08:33.7     102   -307    104    324    341 161.5  17.9  34146  289.32 0855.22
2009/04/23 11:08:33.8     102   -297    153    315    350 161.1  27.7  34150  289.40 0855.22
2009/04/23 11:08:33.9      88   -275    152    289    326 162.2  30.0  34148  289.36 0855.22
2009/04/23 11:08:34.0      13   -292    191    293    349 177.3  36.0  34154  289.48 0855.22
2009/04/23 11:08:34.1     -29   -292    190    294    350 185.8  35.6  34170  289.74 0855.22
2009/04/23 11:08:34.2     -84   -254    164    268    314 198.5  34.3  34158  289.54 0855.22
2009/04/23 11:08:34.3     -86   -257    121    272    297 198.5  25.2  34156  289.51 0855.22
2009/04/23 11:08:34.4     -53   -215    131    222    257 194.0  33.4  34158  289.54 0855.22
2009/04/23 11:08:34.5     -57   -197    128    206    242 196.3  35.0  34156  289.50 0855.22
2009/04/23 11:08:34.6    -130   -208    119    246    273 212.1  27.3  34160  289.58 0855.22
2009/04/23 11:08:34.7    -139   -250    165    287    331 209.0  32.6  34180  289.90 0855.22
2009/04/23 11:08:34.8    -112   -267    168    290    335 202.8  32.8  34152  289.42 0855.22
2009/04/23 11:08:34.9     -53   -219    104    226    248 193.6  26.6  34150  289.39 0855.22
2009/04/23 11:08:35.0      44    -76    169     89    191 149.7  70.0  34160  289.57 0855.22
2009/04/23 11:08:35.1      91   -111    179    144    229 140.8  56.9  34152  289.45 0855.21
2009/04/23 11:08:35.2     -53    -97    167    111    200 209.0  63.2  34150  289.40 0855.21
2009/04/23 11:08:35.3     -19   -137    102    139    172 188.1  40.1  34150  289.40 0855.21
2009/04/23 11:08:35.4     -29   -139    117    143    184 192.0  43.7  34144  289.31 0855.21
2009/04/23 11:08:35.5       0   -167    169    168    238 180.0  50.1  34150  289.40 0855.21
2009/04/23 11:08:35.6      -8   -216    189    217    287 182.2  45.8  34152  289.44 0855.21
2009/04/23 11:08:35.7      45   -185    111    191    220 166.2  32.9  34148  289.38 0855.21
2009/04/23 11:08:35.8       3   -233    222    234    322 179.1  48.5  34154  289.46 0855.21
2009/04/23 11:08:35.9      35   -280    185    283    338 172.8  36.3  34156  289.51 0855.21
2009/04/23 11:08:36.0      10   -228    174    229    287 177.3  41.2  34158  289.54 0855.21
2009/04/23 11:08:36.1     117   -268    186    293    347 156.4  35.5  34166  289.69 0855.21
2009/04/23 11:08:36.2      94   -258    170    275    323 159.9  34.8  34162  289.61 0855.21
2009/04/23 11:08:36.3      77   -259    124    271    298 163.5  26.2  34164  289.63 0855.21
2009/04/23 11:08:36.4      67   -268    120    277    301 166.0  25.1  34162  289.59 0855.21
2009/04/23 11:08:36.5      38   -321     38    324    327 173.1   6.8  34156  289.49 0855.21
2009/04/23 11:08:36.6      80   -295    -48    306    310 164.8  -9.0  34158  289.53 0855.21
2009/04/23 11:08:36.7      81   -283    -21    295    296 164.0  -4.1  34154  289.46 0855.21
2009/04/23 11:08:36.8     141   -207     90    251    267 145.7  19.9  34158  289.53 0855.21
2009/04/23 11:08:36.9     130   -157     70    204    216 140.4  18.9  34158  289.55 0855.21
2009/04/23 11:08:37.0     124   -189     49    227    233 146.6  12.4  34154  289.46 0855.21
2009/04/23 11:08:37.1     132   -162     38    210    214 140.8  10.3  34154  289.48 0855.20
2009/04/23 11:08:37.2      21   -154     74    156    172 172.0  27.2  34158  289.55 0855.20
2009/04/23 11:08:37.3      -6   -145     99    146    176 182.6  37.3  34160  289.57 0855.20
2009/04/23 11:08:37.4      34   -183    -44    187    193 169.3 -13.3  34154  289.46 0855.20
2009/04/23 11:08:37.5      33   -241    -63    244    253 172.0 -14.5  34156  289.51 0855.20
2009/04/23 11:08:37.6       3   -303    -58    304    310 179.3 -10.9  34152  289.42 0855.20
2009/04/23 11:08:37.7     -94   -308     17    323    324 196.9   3.0  34154  289.47 0855.20
2009/04/23 11:08:37.8     -23   -309      1    310    311 184.4   0.2  34156  289.51 0855.20
2009/04/23 11:08:37.9      70   -324      0    332    333 167.7   0.1  34156  289.52 0855.20
2009/04/23 11:08:38.0      67   -168    -41    181    186 158.2 -12.9  34156  289.50 0855.20
2009/04/23 11:08:38.1     -47   -109   -114    119    164 203.6 -53.6  34166  289.69 0855.20
2009/04/23 11:08:38.2       8   -192   -110    193    222 177.5 -36.5  34166  289.69 0855.20
2009/04/23 11:08:38.3       0   -255   -155    256    299 179.9 -38.4  34170  289.73 0855.20
2009/04/23 11:08:38.4     -13   -283   -163    284    327 182.7 -37.0  34176  289.83 0855.20
2009/04/23 11:08:38.5      22   -288    -94    289    305 175.6 -18.1  34176  289.83 0855.20
2009/04/23 11:08:38.6    -121   -157   -157    199    253 217.6 -46.8  34178  289.88 0855.20
2009/04/23 11:08:38.7    -178    -70   -154    192    246 248.5 -47.4  34180  289.91 0855.20
2009/04/23 11:08:38.8    -263    -31   -153    265    305 263.2 -37.1  34164  289.64 0855.20
2009/04/23 11:08:38.9    -224    -29   -102    226    247 262.5 -30.6  34172  289.76 0855.20
2009/04/23 11:08:39.0     -99   -112    -76    150    168 221.4 -33.5  34168  289.70 0855.20
2009/04/23 11:08:39.1     -56   -140     33    151    155 201.9  12.4  34162  289.62 0855.20
2009/04/23 11:08:39.2    -143    -91     60    170    181 237.6  19.4  34172  289.77 0855.20
2009/04/23 11:08:39.3     -59    -16      3     62     63 254.9   2.9  34180  289.91 0855.20
2009/04/23 11:08:39.4     157     16    161    158    225  83.9  50.4  34180  289.92 0855.20
2009/04/23 11:08:39.5     124     21     49    126    135  80.3  21.5  34176  289.84 0855.20
2009/04/23 11:08:39.6     129    -34    -17    134    136 105.1  -7.2  34178  289.89 0855.20
2009/04/23 11:08:39.7      88    -60     -4    107    108 124.6  -2.2  34174  289.82 0855.20
2009/04/23 11:08:39.8     124   -131     59    181    191 136.6  18.1  34178  289.89 0855.20
2009/04/23 11:08:39.9     110    -31      7    115    116 105.9   3.8  34178  289.87 0855.20
2009/04/23 11:08:40.0     129    -47     72    138    155 110.0  29.8  34176  289.85 0855.20
2009/04/23 11:08:40.1      27    -94    154     98    182 164.0  64.7  34172  289.77 0855.20
2009/04/23 11:08:40.2     -59   -106    107    122    162 209.0  45.8  34166  289.69 0855.20
2009/04/23 11:08:40.3     -85     13     36     87     94 278.8  23.0  34168  289.70 0855.20
2009/04/23 11:08:40.4      66    130     63    146    159  27.1  24.6  34178  289.87 0855.20
2009/04/23 11:08:40.5     116    139     30    182    185  39.9   9.3  34176  289.85 0855.20
2009/04/23 11:08:40.6      55     97    101    112    150  29.9  46.9  34184  289.97 0855.20
2009/04/23 11:08:40.7     110    104     94    152    178  46.8  35.0  34176  289.84 0855.20
2009/04/23 11:08:40.8     119    105    111    159    193  48.6  38.4  34170  289.75 0855.20
2009/04/23 11:08:40.9      75     90    120    118    168  39.7  50.1  34176  289.84 0855.20
2009/04/23 11:08:41.0       0    176    124    177    216 359.8  38.8  34174  289.80 0855.20
2009/04/23 11:08:41.1     -11    151     91    152    177 355.5  33.7  34166  289.69 0855.21
2009/04/23 11:08:41.2      50     90     83    104    133  29.0  43.3  34164  289.63 0855.21
2009/04/23 11:08:41.3      43    200    103    205    229  12.3  28.7  34162  289.62 0855.21
2009/04/23 11:08:41.4      37    152     37    157    162  13.8  13.5  34166  289.67 0855.21
2009/04/23 11:08:41.5     -11    143      0    144    145 355.5   0.2  34160  289.58 0855.21
2009/04/23 11:08:41.6    -205     35    -53    208    215 279.7 -14.5  34172  289.77 0855.21
2009/04/23 11:08:41.7    -181    -57   -121    190    225 252.3 -39.9  34180  289.92 0855.21
2009/04/23 11:08:41.8     -77    -82   -204    113    233 223.2 -73.2  34180  289.91 0855.21
2009/04/23 11:08:41.9    -115     -8   -200    116    231 265.7 -71.4  34168  289.72 0855.21
2009/04/23 11:08:42.0     120   -117   -151    168    225 134.2 -51.0  34164  289.65 0855.21
2009/04/23 11:08:42.1     -38     31   -150     50    158 309.6 -85.4  34186  290.02 0855.21
2009/04/23 11:08:42.2     -67    -88    -31    111    115 217.4 -20.2  34184  289.97 0855.21
2009/04/23 11:08:42.3     107    -38    110    114    158 109.5  49.2  34178  289.89 0855.21
2009/04/23 11:08:42.4      80   -145     43    166    172 151.1  14.7  34168  289.70 0855.21
2009/04/23 11:08:42.5      70    -45    132     84    156 122.4  64.7  34188  290.06 0855.21
2009/04/23 11:08:42.6      -5     -6     96      8     96 219.6  90.0  34206  290.35 0855.21
2009/04/23 11:08:42.7      -9      0     52     10     52 270.0  89.1  34212  290.45 0855.21
2009/04/23 11:08:42.8       2    -74     75     75    106 178.2  50.1  34176  289.85 0855.21
2009/04/23 11:08:42.9     -23    -89    134     92    162 194.7  62.4  34164  289.63 0855.21
2009/04/23 11:08:43.0     -71    -24    129     76    149 250.9  66.8  34166  289.67 0855.21
2009/04/23 11:08:43.1     -80    -89    195    120    228 221.9  65.4  34176  289.84 0855.22
2009/04/23 11:08:43.2      92   -244    119    261    286 159.3  26.2  34162  289.61 0855.22
2009/04/23 11:08:43.3     111   -157    144    193    240 144.8  40.6  34164  289.63 0855.22
2009/04/23 11:08:43.4     -29   -300    130    302    328 185.6  24.9  34162  289.61 0855.22
2009/04/23 11:08:43.5    -209   -282     55    352    357 216.5   8.9  34154  289.47 0855.22
2009/04/23 11:08:43.6    -313   -321    -56    449    453 224.3  -7.2  34164  289.65 0855.22
2009/04/23 11:08:43.7    -409   -352     -3    540    541 229.3  -0.4  34154  289.48 0855.22
2009/04/23 11:08:43.8    -368   -405     23    548    549 222.3   2.5  34170  289.74 0855.22
2009/04/23 11:08:43.9    -311   -375    -77    488    495 219.6  -9.0  34162  289.62 0855.22
2009/04/23 11:08:44.0    -337   -369    -96    500    510 222.4 -10.9  34166  289.69 0855.22
2009/04/23 11:08:44.1    -312   -349    -78    469    476 221.8  -9.5  34152  289.42 0855.22
2009/04/23 11:08:44.2    -388   -290      1    485    486 233.2   0.2  34162  289.59 0855.22
2009/04/23 11:08:44.3    -262   -241    238    357    429 227.4  36.6  34168  289.72 0855.22
2009/04/23 11:08:44.4    -392   -250    221    466    515 237.5  27.2  34184  289.98 0855.22
2009/04/23 11:08:44.5    -122   -126    128    176    217 224.1  39.7  34188  290.06 0855.22
2009/04/23 11:08:44.6      23   -155    -51    157    165 171.5 -23.6  34166  289.67 0855.22
2009/04/23 11:08:44.7     -16    -91    -95     93    132 190.2 -54.5  34170  289.74 0855.22
2009/04/23 11:08:44.8    -154    -34   -110    158    192 257.2 -42.4  34192  290.13 0855.22
2009/04/23 11:08:44.9      24   -307    -99    309    324 175.5 -22.9  34160  289.58 0855.22
2009/04/23 11:08:45.0     -75   -207      9    221    222 200.0   2.5  34160  289.58 0855.22
2009/04/23 11:08:45.1    -170   -255     40    307    310 213.8   7.5  34174  289.81 0855.21
2009/04/23 11:08:45.2    -146   -230    -98    273    291 212.5 -19.7  34172  289.78 0855.21
2009/04/23 11:08:45.3      12   -272    -43    273    277 177.4  -9.0  34152  289.44 0855.21
2009/04/23 11:08:45.4      82   -257      0    270    271 162.2   0.0  34152  289.42 0855.21
2009/04/23 11:08:45.5     140   -148     71    204    217 136.6  19.2  34154  289.46 0855.21
2009/04/23 11:08:45.6     139   -133    107    193    220 133.6  31.4  34154  289.46 0855.21
2009/04/23 11:08:45.7     266    -79    150    278    315 106.6  30.7  34152  289.42 0855.21
2009/04/23 11:08:45.8     271    -63    118    279    302 103.2  24.2  34152  289.42 0855.21
2009/04/23 11:08:45.9     250   -197     57    319    325 128.2  10.1  34150  289.41 0855.21
2009/04/23 11:08:46.0     326   -178     52    372    376 118.6   8.0  34152  289.43 0855.21
2009/04/23 11:08:46.1     258   -218    116    339    359 130.2  18.9  34148  289.37 0855.21
2009/04/23 11:08:46.2      45   -326    179    330    375 172.0  30.9  34148  289.38 0855.21
2009/04/23 11:08:46.3      72   -460    282    466    544 171.1  34.0  34136  289.18 0855.21
2009/04/23 11:08:46.4     203   -382    304    433    529 152.0  38.6  34130  289.08 0855.21
2009/04/23 11:08:46.5      96   -285    180    301    350 161.3  33.8  34146  289.32 0855.21
2009/04/23 11:08:46.6      10   -247     29    248    250 177.5   6.9  34150  289.39 0855.21
2009/04/23 11:08:46.7      51   -161    -48    169    176 162.4 -16.0  34150  289.41 0855.21
2009/04/23 11:08:46.8     -54   -113    -37    126    132 205.5 -16.6  34154  289.46 0855.21
2009/04/23 11:08:46.9     -53      7     -2     54     55 277.9  -2.2  34152  289.43 0855.21
2009/04/23 11:08:47.0     -64    -57    -28     86     90 228.2 -23.8  34162  289.62 0855.21
2009/04/23 11:08:47.1     -24    -38    -32     46     56 212.5 -42.0  34152  289.45 0855.16
2009/04/23 11:08:47.2     -22     65     38     69     78 340.8  30.8  34154  289.46 0855.16
2009/04/23 11:08:47.3     -94     88     99    130    163 313.1  40.9  34162  289.62 0855.16
2009/04/23 11:08:47.4    -208     98    109    231    255 295.3  27.1  34158  289.53 0855.16
2009/04/23 11:08:47.5     -67     82     92    106    140 320.8  45.8  34160  289.57 0855.16
2009/04/23 11:08:47.6     -17     21     81     28     85 320.4  81.2  34176  289.85 0855.16
2009/04/23 11:08:47.7      19     47    102     51    114  22.7  71.9  34174  289.82 0855.16
2009/04/23 11:08:47.8     180     48    145    187    236  75.0  41.7  34156  289.50 0855.16
2009/04/23 11:08:47.9      15     24     90     29     94  32.5  80.7  34170  289.75 0855.16
2009/04/23 11:08:48.1       9     94    -71     95    118   5.8 -45.1  34166  289.69 0855.16
2009/04/23 11:08:48.2     -53     65    -33     84     90 320.8 -26.4  34168  289.70 0855.15
2009/04/23 11:08:48.3      -6    147    -66    148    162 357.4 -30.1  34156  289.50 0855.15
2009/04/23 11:08:48.4      39    118     35    125    130  18.5  15.8  34152  289.45 0855.15
2009/04/23 11:08:48.5     -40    130     70    137    153 343.0  29.2  34160  289.57 0855.15
2009/04/23 11:08:48.6     -78    151     59    171    182 332.6  19.2  34158  289.55 0855.15
2009/04/23 11:08:48.7    -123    125     99    176    201 315.5  31.9  34164  289.65 0855.15
2009/04/23 11:08:48.8     -99    149     53    179    187 326.4  16.6  34160  289.57 0855.15
2009/04/23 11:08:48.9     -73    157     59    174    184 335.1  18.9  34168  289.72 0855.15
2009/04/23 11:08:49.0      76     48     94     90    130  57.6  51.2  34150  289.41 0855.15
2009/04/23 11:08:49.1     -54    -46    138     71    155 229.6  70.8  34166  289.69 0855.15
2009/04/23 11:08:49.2    -104   -118    153    158    219 221.4  49.2  34136  289.18 0855.15
2009/04/23 11:08:49.3     -82    -56    156    100    185 235.4  64.6  34134  289.14 0855.15
2009/04/23 11:08:49.4      47    112     24    122    125  22.7  11.1  34146  289.33 0855.15
2009/04/23 11:08:49.5     -82    127    185    152    239 327.0  56.4  34144  289.31 0855.15
2009/04/23 11:08:49.6      -4    -72    186     73    199 183.6  77.6  34162  289.62 0855.15
2009/04/23 11:08:49.7     -15      4    126     16    127 285.1  90.0  34152  289.45 0855.15
2009/04/23 11:08:49.8      -3    -31     90     32     95 186.2  80.7  34152  289.43 0855.15
2009/04/23 11:08:49.9     108    -89    157    140    210 129.5  54.0  34150  289.41 0855.15
2009/04/23 11:08:50.0      48    -48    196     68    207 135.0  80.5  34156  289.52 0855.15
2009/04/23 11:08:50.1      10     87    119     88    148   6.7  60.5  34172  289.79 0855.15
2009/04/23 11:08:50.2      12     16    131     21    132  36.1  90.0  34168  289.72 0855.17
2009/04/23 11:08:50.3      30   -150    181    154    237 168.4  55.4  34138  289.21 0855.17
2009/04/23 11:08:50.4     -19   -135    191    137    235 188.1  60.6  34130  289.06 0855.17
2009/04/23 11:08:50.5      -9   -200    247    201    318 182.7  56.8  34128  289.03 0855.17
2009/04/23 11:08:50.6      -2   -153    226    154    273 180.9  62.6  34122  288.92 0855.17
2009/04/23 11:08:50.7      27   -244    245    246    347 173.7  50.1  34120  288.90 0855.17
2009/04/23 11:08:50.8       2   -250    254    251    357 179.5  50.2  34120  288.88 0855.17
2009/04/23 11:08:50.9      57   -304    198    310    367 169.3  35.6  34126  288.98 0855.17
2009/04/23 11:08:51.0     126   -350    148    373    401 160.1  22.9  34120  288.88 0855.17
2009/04/23 11:08:51.1      39   -320    144    323    353 172.9  25.6  34116  288.84 0855.17
2009/04/23 11:08:51.2      19   -295    181    296    346 176.2  34.4  34116  288.81 0855.17
2009/04/23 11:08:51.3     -83   -226    116    241    267 200.3  27.3  34108  288.68 0855.17
2009/04/23 11:08:51.4      25    -74    117     79    141 161.3  62.6  34124  288.97 0855.17
2009/04/23 11:08:51.5      38   -106    120    113    164 160.0  51.6  34122  288.94 0855.17
2009/04/23 11:08:51.6     104      8    101    105    145  85.2  49.0  34120  288.89 0855.17
2009/04/23 11:08:51.7     226    -31    218    229    316  97.9  48.5  34122  288.92 0855.17
2009/04/23 11:08:51.8     261   -183     68    319    327 125.1  12.2  34126  289.00 0855.17
2009/04/23 11:08:51.9     144   -144     71    204    217 135.0  19.2  34128  289.02 0855.17
2009/04/23 11:08:52.0     169   -120     33    208    211 125.3   9.0  34126  289.01 0855.17
2009/04/23 11:08:52.1     234   -121     13    264    265 117.5   2.9  34128  289.02 0855.17
2009/04/23 11:08:52.2     237      3     57    238    245  89.2  13.7  34128  289.03 0855.17
2009/04/23 11:08:52.3     244     11     81    245    259  87.4  18.4  34134  289.12 0855.17
2009/04/23 11:08:52.4     221     24     99    223    243  83.8  25.7  34132  289.10 0855.17
2009/04/23 11:08:52.5     200     35     57    204    213  79.9  15.8  34132  289.11 0855.17
2009/04/23 11:08:52.6     210    -27    176    212    275  97.5  43.8  34120  288.90 0855.17
2009/04/23 11:08:52.7     223     16     93    224    242  85.7  23.8  34126  289.00 0855.17
2009/04/23 11:08:52.8     111      8    159    112    194  85.6  61.5  34128  289.04 0855.17
2009/04/23 11:08:52.9      90      5     92     91    129  86.5  50.1  34134  289.13 0855.17
2009/04/23 11:08:53.0     170     -8    157    171    232  93.0  47.9  34120  288.89 0855.17
2009/04/23 11:08:53.1     167      3    204    168    264  88.7  56.4  34122  288.93 0855.17
2009/04/23 11:08:53.2     166    -10    201    167    261  93.5  56.3  34124  288.97 0855.17
2009/04/23 11:08:53.3     115     38    110    122    164  71.4  46.9  34124  288.97 0855.17
2009/04/23 11:08:53.4     -18    -49     75     53     91 200.9  61.1  34136  289.18 0855.17
2009/04/23 11:08:53.5     -53    -55    103     77    128 224.2  59.4  34128  289.02 0855.17
2009/04/23 11:08:53.6    -144    -77     44    164    170 241.6  15.0  34122  288.94 0855.17
2009/04/23 11:08:53.7    -114   -118     57    165    175 223.9  19.2  34114  288.79 0855.17
2009/04/23 11:08:53.8      51    -37    113     64    129 126.0  68.3  34126  289.01 0855.17
2009/04/23 11:08:53.9       8    -23     93     25     96 161.3  84.4  34128  289.04 0855.17
2009/04/23 11:08:54.0       0    -58    110     59    124 180.9  69.3  34122  288.92 0855.17
2009/04/23 11:08:54.1     130     -2    108    131    169  91.3  43.7  34116  288.84 0855.17
2009/04/23 11:08:54.2      33    -61    115     70    134 151.1  65.1  34134  289.14 0855.18
2009/04/23 11:08:54.3      33     40     74     52     90  39.6  61.5  34146  289.33 0855.18
2009/04/23 11:08:54.4     106    -31     76    111    134 106.4  37.4  34126  289.01 0855.18
2009/04/23 11:08:54.5     134     -2     58    135    146  91.3  24.6  34122  288.94 0855.18
2009/04/23 11:08:54.6     153     57      8    164    165  69.6   2.9  34158  289.55 0855.18
2009/04/23 11:08:54.7     254    152     16    297    298  59.1   3.1  34160  289.56 0855.18
2009/04/23 11:08:54.8     286     21     14    287    288  85.6   2.9  34148  289.36 0855.18
2009/04/23 11:08:54.9     232     81    -35    246    249  70.7  -8.3  34140  289.24 0855.18
2009/04/23 11:08:55.0     273    135     59    305    311  63.6  11.0  34140  289.24 0855.18
2009/04/23 11:08:55.1     272     82     -6    285    286  73.1  -1.3  34160  289.56 0855.18
2009/04/23 11:08:55.2     170    123     58    210    219  54.1  15.6  34148  289.38 0855.18
2009/04/23 11:08:55.3     180    178     59    254    261  45.3  13.2  34176  289.83 0855.18
2009/04/23 11:08:55.4     187    193     63    270    278  44.1  13.2  34172  289.78 0855.18
2009/04/23 11:08:55.5     177    112    115    210    239  57.8  31.0  34174  289.82 0855.18
2009/04/23 11:08:55.6     133     63    123    148    192  64.6  43.8  34170  289.74 0855.18
2009/04/23 11:08:55.7      58     23     92     63    111  68.3  62.6  34164  289.65 0855.18
2009/04/23 11:08:55.8      13      5    102     14    102  68.3  90.0  34156  289.50 0855.18
2009/04/23 11:08:55.9    -105     76    108    130    169 305.9  43.8  34150  289.41 0855.18
2009/04/23 11:08:56.0       6    169     78    170    187   2.2  26.6  34168  289.72 0855.18
2009/04/23 11:08:56.1     158    126     70    203    215  51.4  19.2  34164  289.63 0855.18
2009/04/23 11:08:56.2     169    100     12    197    198  59.3   3.6  34202  290.30 0855.20
2009/04/23 11:08:56.3     172     84      9    192    193  63.8   2.9  34202  290.30 0855.20
2009/04/23 11:08:56.4     150     76     10    169    170  63.1   3.6  34190  290.08 0855.20
2009/04/23 11:08:56.5      64    115    -17    132    134  29.0  -7.3  34206  290.36 0855.20
2009/04/23 11:08:56.6      89    101    -80    136    157  41.4 -37.5  34206  290.35 0855.20
2009/04/23 11:08:56.7      64     92    -41    113    120  34.7 -25.3  34220  290.58 0855.20
2009/04/23 11:08:56.8      76    126    -42    148    153  31.2 -20.7  34222  290.62 0855.20
2009/04/23 11:08:56.9      25    149     18    152    154   9.8   6.9  34196  290.18 0855.20
2009/04/23 11:08:57.0      88     91     53    127    137  44.1  23.6  34166  289.69 0855.20
2009/04/23 11:08:57.1      17     84     15     86     88  11.6  10.1  34182  289.96 0855.20
2009/04/23 11:08:57.2      47     69     52     84     98  34.3  35.0  34184  289.99 0855.20
2009/04/23 11:08:57.3     -41    130     71    137    154 342.6  29.3  34170  289.74 0855.20
2009/04/23 11:08:57.4     -59    122     98    136    167 334.1  39.3  34192  290.11 0855.20
2009/04/23 11:08:57.5     -68    142    111    158    193 334.5  38.4  34238  290.89 0855.20
2009/04/23 11:08:57.6     -86    140    126    165    207 328.4  41.4  34214  290.50 0855.20
2009/04/23 11:08:57.7     -50    115    124    126    176 336.3  49.8  34228  290.74 0855.20
2009/04/23 11:08:57.8     -85    106     82    137    159 321.3  33.7  34216  290.52 0855.20
2009/04/23 11:08:57.9    -186    102     58    213    221 298.8  15.3  34214  290.50 0855.20
2009/04/23 11:08:58.0      70    148     53    164    173  25.3  18.1  34220  290.58 0855.20
2009/04/23 11:08:58.1      -6    137     16    138    140 357.3   6.9  34234  290.82 0855.20
2009/04/23 11:08:58.2      55     39     47     68     82  54.1  38.0  34240  290.92 0855.20
2009/04/23 11:08:58.3      36    109    135    115    177  18.3  55.4  34264  291.35 0855.20
2009/04/23 11:08:58.4      40    115    148    122    191  19.2  56.3  34252  291.13 0855.20
2009/04/23 11:08:58.5      78    103    126    130    181  37.4  49.2  34250  291.11 0855.20
2009/04/23 11:08:58.6      63     77     94    100    137  39.6  48.0  34256  291.20 0855.20
2009/04/23 11:08:58.7      95     86     51    129    138  47.8  23.0  34254  291.16 0855.20
2009/04/23 11:08:58.8     258     96     80    276    288  69.6  16.3  34256  291.19 0855.20
2009/04/23 11:08:58.9     159    121    129    200    237  52.7  35.7  34250  291.11 0855.20
2009/04/23 11:08:59.0     306     85    156    318    354  74.3  28.1  34252  291.15 0855.20
2009/04/23 11:08:59.1     287    182    118    340    361  57.6  19.2  34188  290.06 0855.20
2009/04/23 11:08:59.2     213    107    148    239    281  63.4  34.8  34234  290.83 0855.20
2009/04/23 11:08:59.3     143    115    224    184    289  51.1  56.4  34230  290.75 0855.20
2009/04/23 11:08:59.4     216    130    230    253    341  58.9  47.1  34250  291.10 0855.20
2009/04/23 11:08:59.5     316    101    133    332    357  72.2  23.0  34254  291.17 0855.20
2009/04/23 11:08:59.6     414    124    159    433    461  73.3  21.0  34200  290.26 0855.20
2009/04/23 11:08:59.7     324    123    197    347    399  69.2  32.3  34182  289.93 0855.20
2009/04/23 11:08:59.8     310    182    202    360    412  59.6  31.6  34170  289.74 0855.20
2009/04/23 11:08:59.9     175    145    131    228    262  50.5  32.4  34168  289.71 0855.20
2009/04/23 11:09:00.0     209    141    103    253    273  55.9  23.1  34184  289.97 0855.20
2009/04/23 11:09:00.1     312     97    119    327    347  72.7  20.8  34268  291.42 0855.20
2009/04/23 11:09:00.2     333    153    104    367    382  65.3  15.9  34268  291.40 0855.19
2009/04/23 11:09:00.3     455     85     99    463    474  79.4  12.1  34268  291.41 0855.19
2009/04/23 11:09:00.4     409    116    115    426    442  74.1  15.2  34266  291.38 0855.19
2009/04/23 11:09:00.5     357    163    145    393    418  65.5  21.1  34240  290.92 0855.19
2009/04/23 11:09:00.6     252    115    116    278    301  65.4  24.1  34252  291.14 0855.19
2009/04/23 11:09:00.7     242     79    118    255    280  71.8  26.4  34270  291.44 0855.19
2009/04/23 11:09:00.8     193     20    119    195    228  84.1  34.4  34262  291.32 0855.19
2009/04/23 11:09:00.9      92     55    152    108    186  59.3  60.8  34272  291.47 0855.19
2009/04/23 11:09:01.0     286    104    112    305    324  70.0  21.0  34252  291.14 0855.19
2009/04/23 11:09:01.1     243    106    192    266    328  66.3  39.5  34238  290.90 0855.19
2009/04/23 11:09:01.2     273    168    133    321    347  58.3  23.7  34250  291.11 0855.19
2009/04/23 11:09:01.3     214    143     80    258    271  56.3  17.3  34252  291.14 0855.19
2009/04/23 11:09:01.4     152     53    153    162    222  70.7  48.2  34264  291.33 0855.19
2009/04/23 11:09:01.5     190     23    176    192    260  83.0  47.5  34274  291.50 0855.19
2009/04/23 11:09:01.6     172     45    128    178    219  75.2  39.5  34260  291.26 0855.19
2009/04/23 11:09:01.7     164     33    182    168    247  78.3  52.5  34262  291.32 0855.19
2009/04/23 11:09:01.8     185     37    197    189    273  78.5  51.2  34288  291.73 0855.19
2009/04/23 11:09:01.9     122     24     67    125    141  78.5  30.8  34252  291.15 0855.19
2009/04/23 11:09:02.0     190     45    173    196    261  76.5  45.9  34252  291.12 0855.19
2009/04/23 11:09:02.1     218     68    228    229    323  72.5  50.1  34254  291.17 0855.19
2009/04/23 11:09:02.2     250     58    144    257    294  76.8  31.4  34232  290.80 0855.19
2009/04/23 11:09:02.3     302    139    123    333    354  65.2  21.1  34228  290.71 0855.19
2009/04/23 11:09:02.4     297    132    114    325    345  66.0  19.4  34254  291.18 0855.19
2009/04/23 11:09:02.5     309     66    181    317    365  77.8  32.4  34260  291.27 0855.19
2009/04/23 11:09:02.6     309     53    159    314    351  80.1  29.1  34258  291.25 0855.19
2009/04/23 11:09:02.7     263     94    107    280    299  70.3  22.0  34256  291.19 0855.19
2009/04/23 11:09:02.8     259     52    154    265    306  78.6  32.9  34234  290.82 0855.19
2009/04/23 11:09:02.9     226    109    144    251    289  64.2  32.4  34256  291.21 0855.19
2009/04/23 11:09:03.0     208    162    132    264    295  52.2  28.5  34228  290.71 0855.19
2009/04/23 11:09:03.1     192     98    153    216    264  62.9  38.8  34222  290.63 0855.19
2009/04/23 11:09:03.2     167    109    147    200    248  56.7  39.9  34226  290.68 0855.19
2009/04/23 11:09:03.3     205    124    125    240    270  58.9  29.5  34206  290.34 0855.19
2009/04/23 11:09:03.4     202    134    132    243    276  56.3  31.0  34218  290.56 0855.19
2009/04/23 11:09:03.5     163    214    156    270    311  37.4  32.9  34220  290.59 0855.19
2009/04/23 11:09:03.6     115    195    141    227    267  30.7  35.2  34208  290.37 0855.19
2009/04/23 11:09:03.7      81    175    140    193    238  24.9  39.7  34210  290.43 0855.19
2009/04/23 11:09:03.8      51    149    140    158    211  19.2  46.2  34222  290.64 0855.19
2009/04/23 11:09:03.9      57    209    188    217    287  15.4  45.6  34226  290.68 0855.19
2009/04/23 11:09:04.0     109    159    193    193    272  34.5  50.1  34204  290.32 0855.19
2009/04/23 11:09:04.1     162    124    215    205    297  52.5  51.6  34214  290.48 0855.19
2009/04/23 11:09:04.2     167     29    142    170    221  79.9  44.1  34214  290.48 0855.19
2009/04/23 11:09:04.3      23     35    138     42    144  33.4  82.3  34218  290.57 0855.19
2009/04/23 11:09:04.4      48    170     63    177    187  16.0  20.2  34204  290.33 0855.19
2009/04/23 11:09:04.5    -111    133     73    174    188 320.4  23.8  34210  290.41 0855.19
2009/04/23 11:09:04.6    -141    111    106    180    208 308.4  33.5  34226  290.69 0855.19
2009/04/23 11:09:04.7    -100    -82     91    130    158 230.5  38.4  34222  290.62 0855.19
2009/04/23 11:09:04.8    -124   -125    109    177    207 224.8  34.8  34218  290.55 0855.19
2009/04/23 11:09:04.9    -194   -129    124    234    264 236.3  30.2  34236  290.85 0855.19
2009/04/23 11:09:05.0    -246   -103     38    267    270 247.3   8.2  34204  290.31 0855.19
2009/04/23 11:09:05.1    -254   -104     83    275    288 247.6  16.8  34232  290.80 0855.19
2009/04/23 11:09:05.2    -253   -149    112    294    314 239.4  21.8  34246  291.02 0855.19
2009/04/23 11:09:05.3    -203   -181    109    273    293 228.2  23.0  34230  290.76 0855.19
2009/04/23 11:09:05.4    -228    -81    -48    243    248 250.3 -11.3  34216  290.53 0855.19
2009/04/23 11:09:05.5    -190    -92    -11    212    213 244.2  -3.2  34206  290.35 0855.19
2009/04/23 11:09:05.6    -139    -98    -63    171    182 234.9 -25.4  34206  290.35 0855.19
2009/04/23 11:09:05.7    -173    -64    -74    185    199 249.6 -27.4  34224  290.65 0855.19
2009/04/23 11:09:05.8     -48    -16   -129     51    138 250.9 -81.5  34230  290.77 0855.19
2009/04/23 11:09:05.9    -187     28   -141    190    236 278.6 -44.8  34214  290.50 0855.19
2009/04/23 11:09:06.0    -206    -35   -133    209    247 260.3 -39.9  34144  289.29 0855.19
2009/04/23 11:09:06.1    -212    -17   -115    213    242 265.2 -35.2  34116  288.83 0855.19
2009/04/23 11:09:06.2    -193    -76    -99    208    230 248.3 -31.6  34124  288.96 0855.19
2009/04/23 11:09:06.3    -181    -57    -87    190    208 252.5 -30.8  34122  288.94 0855.19
2009/04/23 11:09:06.4    -225    -55    -46    232    237 256.1 -11.3  34122  288.92 0855.19
2009/04/23 11:09:06.5    -221   -124    -55    254    261 240.7 -12.4  34124  288.97 0855.19
2009/04/23 11:09:06.6    -217    -86    -55    234    241 248.2 -13.4  34120  288.90 0855.19
2009/04/23 11:09:06.7    -244    -51    -63    250    258 258.1 -14.3  34126  289.00 0855.19
2009/04/23 11:09:06.8    -224    -81    -85    239    254 250.0 -19.6  34118  288.87 0855.19
2009/04/23 11:09:06.9    -204   -106    -88    231    247 242.5 -26.4  34120  288.88 0855.19
2009/04/23 11:09:07.0    -153   -138    -90    207    225 228.0 -29.5  34112  288.75 0855.19
2009/04/23 11:09:07.1    -213   -104    -21    238    239 244.0  -5.2  34110  288.71 0855.19
2009/04/23 11:09:07.2    -301    -77   -105    311    329 255.5 -18.7  34118  288.87 0855.19
2009/04/23 11:09:07.3    -247    -91    -33    264    267 249.8  -7.2  34134  289.12 0855.19
2009/04/23 11:09:07.4    -256   -179    -45    313    317 234.9  -8.2  34150  289.39 0855.19
2009/04/23 11:09:07.5    -243   -119    -69    271    280 243.8 -14.3  34132  289.09 0855.19
2009/04/23 11:09:07.6    -306   -182    -34    357    359 239.3  -5.6  34130  289.08 0855.19
2009/04/23 11:09:07.7    -322   -127    -25    347    348 248.5  -4.2  34120  288.91 0855.19
2009/04/23 11:09:07.8    -255   -173    -40    309    312 235.8  -7.5  34122  288.92 0855.19
2009/04/23 11:09:07.9    -170   -143   -137    223    261 230.0 -39.2  34124  288.95 0855.19
2009/04/23 11:09:08.0    -100   -176   -136    203    244 209.6 -41.1  34128  289.04 0855.19
2009/04/23 11:09:08.1     -58   -157    -97    168    193 200.3 -37.1  34142  289.28 0855.19
2009/04/23 11:09:08.2     -81    -45   -126     94    157 240.7 -63.8  34150  289.40 0855.22
2009/04/23 11:09:08.3    -128   -100    -57    163    172 232.2 -24.0  34164  289.63 0855.22
2009/04/23 11:09:08.4     -74    -79     -4    109    110 222.8  -2.2  34158  289.53 0855.22
2009/04/23 11:09:08.5     -95   -174     15    199    200 208.7   4.6  34158  289.53 0855.22
2009/04/23 11:09:08.6    -224   -203     -6    303    304 227.8  -1.2  34164  289.63 0855.22
2009/04/23 11:09:08.7    -102   -235      2    257    258 203.6   0.5  34172  289.78 0855.22
2009/04/23 11:09:08.8    -112   -247     63    272    280 204.5  13.1  34176  289.85 0855.22
2009/04/23 11:09:08.9    -160   -251     14    298    299 212.6   2.8  34180  289.92 0855.22
2009/04/23 11:09:09.0    -138   -209      4    251    252 213.4   1.0  34184  289.97 0855.22
2009/04/23 11:09:09.1    -112   -207     44    236    241 208.5  10.6  34178  289.86 0855.22
2009/04/23 11:09:09.2    -174   -173     34    246    249 225.1   8.0  34186  290.00 0855.24
2009/04/23 11:09:09.3    -130   -204     63    243    252 212.5  14.5  34176  289.83 0855.24
2009/04/23 11:09:09.4    -178   -172     13    248    249 226.0   3.1  34178  289.86 0855.24
2009/04/23 11:09:09.5    -186   -166     29    250    252 228.2   6.7  34170  289.75 0855.24
2009/04/23 11:09:09.6    -168   -169    -44    239    244 224.8 -10.5  34170  289.75 0855.24
2009/04/23 11:09:09.7    -189   -172    -52    256    262 227.7 -11.5  34168  289.71 0855.24
2009/04/23 11:09:09.8    -256    -78      7    268    269 252.9   1.6  34194  290.15 0855.24
2009/04/23 11:09:09.9    -266   -194   -185    330    378 233.8 -36.0  34150  289.40 0855.24
2009/04/23 11:09:10.0    -355   -221    -83    419    428 238.1 -11.2  34156  289.49 0855.24
2009/04/23 11:09:10.1    -234   -155     93    281    297 236.5  18.4  34166  289.68 0855.24
2009/04/23 11:09:10.2    -197   -153     63    250    258 232.2  14.2  34154  289.47 0855.24
2009/04/23 11:09:10.3    -130   -126     35    182    186 226.0  11.0  34156  289.50 0855.24
2009/04/23 11:09:10.4     -62    -67     34     92     98 223.2  21.5  34156  289.52 0855.24
2009/04/23 11:09:10.5     -99    -87     60    132    145 228.7  26.2  34160  289.57 0855.24
2009/04/23 11:09:10.6     -77    -99      2    126    127 217.8   1.2  34164  289.63 0855.24
2009/04/23 11:09:10.7    -136   -155    -65    207    216 221.2 -22.3  34166  289.67 0855.24
2009/04/23 11:09:10.8    -187   -112    -90    218    235 239.1 -28.2  34184  289.97 0855.24
2009/04/23 11:09:10.9    -127   -115    -78    172    188 227.8 -30.8  34176  289.85 0855.24
2009/04/23 11:09:11.0    -186    -94    -68    209    219 243.1 -23.3  34194  290.14 0855.24
2009/04/23 11:09:11.1    -151   -128    -20    199    201 229.6  -6.0  34190  290.08 0855.24
2009/04/23 11:09:11.2    -204     10    -14    205    206 273.0  -3.9  34204  290.33 0855.23
2009/04/23 11:09:11.3    -131    -95    -13    163    164 234.0  -4.6  34176  289.84 0855.23
2009/04/23 11:09:11.4    -106   -112     92    155    180 223.2  33.5  34188  290.06 0855.23
2009/04/23 11:09:11.5    -244    -30     16    246    247 262.9   3.8  34208  290.37 0855.23
2009/04/23 11:09:11.6    -138    -92    -94    166    190 236.3 -36.3  34212  290.47 0855.23
2009/04/23 11:09:11.7      -8   -175    -22    176    178 182.7  -7.3  34198  290.21 0855.23
2009/04/23 11:09:11.8    -102   -231     30    253    255 203.8   6.9  34174  289.80 0855.23
2009/04/23 11:09:11.9     -80   -158    -15    178    179 207.0  -4.9  34188  290.06 0855.23
2009/04/23 11:09:12.0     -30   -150    -46    154    161 191.6 -16.8  34180  289.91 0855.23
2009/04/23 11:09:12.1       0   -204     73    205    217 180.2  20.4  34156  289.50 0855.23
2009/04/23 11:09:12.2     -55   -233     30    240    242 193.3   7.2  34162  289.59 0855.23
2009/04/23 11:09:12.3       0   -185     50    186    193 180.2  15.3  34156  289.52 0855.23
2009/04/23 11:09:12.4      29   -154    102    157    187 169.3  35.7  34152  289.45 0855.23
2009/04/23 11:09:12.5      91   -167      9    191    192 151.3   2.9  34154  289.48 0855.23
2009/04/23 11:09:12.6      85   -159      0    181    182 151.7   0.2  34152  289.45 0855.23
2009/04/23 11:09:12.7      37   -200     31    204    207 169.3   8.8  34152  289.43 0855.23
2009/04/23 11:09:12.8      35   -185     38    189    194 169.1  11.6  34150  289.41 0855.23
2009/04/23 11:09:12.9      10   -170      5    171    172 176.6   1.8  34152  289.43 0855.23
2009/04/23 11:09:13.0     -70   -218      0    229    230 197.8   0.0  34148  289.36 0855.23
2009/04/23 11:09:13.1    -137   -273     -1    306    307 206.7  -0.3  34142  289.27 0855.23
2009/04/23 11:09:13.2    -169   -364    -15    402    403 204.9  -2.2  34144  289.31 0855.24
2009/04/23 11:09:13.3    -150   -308      2    343    344 206.1   0.5  34140  289.23 0855.24
2009/04/23 11:09:13.4    -121   -233     12    263    264 207.4   2.8  34140  289.24 0855.24
2009/04/23 11:09:13.5      24   -324     88    325    337 175.7  15.1  34138  289.21 0855.24
2009/04/23 11:09:13.6       5   -366     83    367    377 179.2  12.8  34142  289.26 0855.24
2009/04/23 11:09:13.7      57   -305     80    311    322 169.4  14.4  34136  289.15 0855.24
2009/04/23 11:09:13.8      40   -313    147    316    348 172.7  27.0  34142  289.26 0855.24
2009/04/23 11:09:13.9     -17   -230     51    231    237 184.4  12.6  34146  289.32 0855.24
2009/04/23 11:09:14.0      -1   -129     63    130    144 180.8  27.3  34146  289.35 0855.24
2009/04/23 11:09:14.1      68   -134     50    151    160 152.8  18.4  34146  289.35 0855.24
2009/04/23 11:09:14.2     128   -136     39    187    192 136.8  12.0  34146  289.33 0855.24
2009/04/23 11:09:14.4     187   -106    135    216    254 119.5  35.2  34146  289.32 0855.24
2009/04/23 11:09:14.5     188    -98    224    213    309 117.5  51.6  34154  289.47 0855.24
2009/04/23 11:09:14.6     113    -57    182    127    221 117.1  62.1  34156  289.52 0855.24
2009/04/23 11:09:14.7      12     -4    123     13    123 108.2  90.0  34170  289.74 0855.24
2009/04/23 11:09:14.8     -38   -235    109    239    262 189.3  26.2  34148  289.36 0855.24
2009/04/23 11:09:14.9      -8   -182    152    183    237 182.7  43.8  34150  289.41 0855.24
2009/04/23 11:09:15.0       0   -178    171    179    247 180.0  49.0  34148  289.38 0855.24
2009/04/23 11:09:15.1      -5   -182    123    183    220 181.8  37.3  34148  289.38 0855.24
2009/04/23 11:09:15.2      62   -133    151    147    210 155.1  50.7  34154  289.48 0855.24
2009/04/23 11:09:15.3      16    -48    131     51    140 161.5  77.1  34160  289.58 0855.23
2009/04/23 11:09:15.4      -2     49     79     50     93 357.3  64.7  34168  289.70 0855.23
2009/04/23 11:09:15.5      82    -30    119     88    148 110.0  60.5  34154  289.46 0855.23
2009/04/23 11:09:15.6      26     25     63     37     73  46.7  66.8  34166  289.69 0855.23
2009/04/23 11:09:15.7      -3    -76     90     77    118 182.7  54.8  34154  289.46 0855.23
2009/04/23 11:09:15.8     -25   -175    123    177    215 188.2  38.6  34146  289.33 0855.23
2009/04/23 11:09:15.9      -7   -206    162    207    262 182.0  42.0  34144  289.31 0855.23
2009/04/23 11:09:16.0     -36   -228    168    231    285 189.1  39.7  34148  289.37 0855.23
2009/04/23 11:09:16.1     -53   -198    175    206    270 195.1  44.5  34146  289.34 0855.23
2009/04/23 11:09:16.2     -56   -161    189    171    254 199.4  53.3  34146  289.35 0855.23
2009/04/23 11:09:16.3      30    -20    115     37    120 124.2  81.2  34166  289.69 0855.23
2009/04/23 11:09:16.4     -19    -79    127     82    151 193.4  64.6  34158  289.53 0855.23
2009/04/23 11:09:16.5       4      9     65     11     65  25.4  90.0  34172  289.77 0855.23
2009/04/23 11:09:16.6      -5    -11     56     13     57 205.4  88.0  34190  290.08 0855.23
2009/04/23 11:09:16.7     -15    -43     52     46     69 200.0  53.3  34186  290.02 0855.23
2009/04/23 11:09:16.8     -23     23    126     33    130 315.0  85.4  34186  290.01 0855.23
2009/04/23 11:09:16.9    -115     44    113    124    167 290.8  47.1  34164  289.65 0855.23
2009/04/23 11:09:17.0     -50      7    115     51    125 278.8  74.9  34182  289.96 0855.23
2009/04/23 11:09:17.1     -18    -68    156     71    171 195.1  74.0  34176  289.84 0855.23
2009/04/23 11:09:17.2      22    -47    116     53    127 154.5  74.0  34164  289.63 0855.23
2009/04/23 11:09:17.3      10    -45     93     47    104 166.6  70.8  34164  289.65 0855.23
2009/04/23 11:09:17.4     -73   -140    191    158    247 207.6  56.4  34148  289.38 0855.23
2009/04/23 11:09:17.5     -90   -123    205    153    255 216.1  59.6  34150  289.40 0855.23
2009/04/23 11:09:17.6     -75    -75    159    107    191 225.0  63.4  34160  289.57 0855.23
2009/04/23 11:09:17.7    -130   -155    153    203    254 219.9  40.7  34148  289.37 0855.23
2009/04/23 11:09:17.8     -80   -103     98    131    163 217.8  40.4  34152  289.43 0855.23
2009/04/23 11:09:17.9      26    -99     43    103    111 164.9  23.6  34156  289.50 0855.23
2009/04/23 11:09:18.0     -39    -47     52     62     80 219.7  44.8  34174  289.82 0855.23
2009/04/23 11:09:18.1     -81     35    107     89    139 293.5  56.3  34180  289.91 0855.23
2009/04/23 11:09:18.2    -132    129    128    185    224 314.2  37.8  34176  289.85 0855.23
2009/04/23 11:09:18.3    -122    116     83    169    188 313.6  28.0  34178  289.89 0855.23
2009/04/23 11:09:18.4    -142    -20     53    144    153 261.6  20.9  34168  289.70 0855.23
2009/04/23 11:09:18.5     -67     29     53     74     91 293.5  39.1  34172  289.79 0855.23
2009/04/23 11:09:18.6      -1    -62    123     63    138 181.8  70.8  34166  289.67 0855.23
2009/04/23 11:09:18.7     -34   -102    175    108    205 198.7  65.4  34162  289.60 0855.23
2009/04/23 11:09:18.8      30    -89    105     95    141 161.3  52.7  34164  289.63 0855.23
2009/04/23 11:09:18.9      42    -90    122    100    157 155.1  56.4  34168  289.70 0855.23
2009/04/23 11:09:19.0       3    -48    120     49    129 175.5  77.1  34174  289.82 0855.23
2009/04/23 11:09:19.1      26     -2     76     27     80  94.4  80.2  34174  289.82 0855.23
2009/04/23 11:09:19.2     -29   -128    141    132    193 192.9  52.1  34162  289.60 0855.23
2009/04/23 11:09:19.3     -13   -125    166    126    208 186.2  59.0  34164  289.65 0855.24
2009/04/23 11:09:19.4     -47   -170    182    177    253 195.6  50.9  34160  289.57 0855.24
2009/04/23 11:09:19.5     -63   -145    136    159    209 203.6  44.8  34158  289.53 0855.24
2009/04/23 11:09:19.6     -97   -204    169    227    283 205.5  40.6  34160  289.56 0855.24
2009/04/23 11:09:19.7    -164   -267    148    314    347 211.6  27.1  34172  289.76 0855.24
2009/04/23 11:09:19.8    -160   -156    105    224    247 225.8  27.0  34206  290.36 0855.24
2009/04/23 11:09:19.9    -210   -115     51    240    246 241.1  12.2  34222  290.63 0855.24
2009/04/23 11:09:20.0     -84   -124     52    151    160 214.2  19.2  34192  290.11 0855.24
2009/04/23 11:09:20.1    -247    -90    -17    263    264 250.0  -3.9  34214  290.49 0855.24
2009/04/23 11:09:20.2    -177   -134     14    223    224 232.9   3.8  34182  289.96 0855.24
2009/04/23 11:09:20.3    -123   -181    108    219    244 214.2  28.2  34168  289.71 0855.24
2009/04/23 11:09:20.4     -86   -221    206    238    314 201.4  45.4  34160  289.56 0855.24
2009/04/23 11:09:20.5     -64   -223    183    233    296 196.0  42.0  34156  289.49 0855.24
2009/04/23 11:09:20.6    -110   -301    119    321    342 200.1  21.3  34156  289.50 0855.24
2009/04/23 11:09:20.7    -141   -333    120    362    382 202.9  18.4  34152  289.45 0855.24
2009/04/23 11:09:20.8    -117   -324    134    345    370 200.0  22.2  34154  289.47 0855.24
2009/04/23 11:09:20.9    -155   -277     82    318    329 209.3  14.5  34146  289.32 0855.24
2009/04/23 11:09:21.0     -70   -261    125    271    298 195.1  26.6  34152  289.42 0855.24
2009/04/23 11:09:21.1     -69   -264    171    273    322 194.7  35.2  34160  289.58 0855.24
2009/04/23 11:09:21.2     -48   -235    140    240    277 191.6  33.1  34162  289.59 0855.24
2009/04/23 11:09:21.3     -25   -196    132    198    237 187.3  37.0  34158  289.55 0855.25
2009/04/23 11:09:21.4      65   -195    120    206    238 161.5  32.9  34156  289.50 0855.25
2009/04/23 11:09:21.5      69   -240    159    250    296 164.0  35.5  34152  289.42 0855.25
2009/04/23 11:09:21.6      58   -269    119    276    300 167.7  24.9  34148  289.37 0855.25
2009/04/23 11:09:21.7      39   -275    113    278    300 171.9  23.1  34150  289.41 0855.25
2009/04/23 11:09:21.8     -42   -272    103    276    294 188.9  21.3  34152  289.42 0855.25
2009/04/23 11:09:21.9     157   -216    159    268    311 144.0  33.5  34148  289.37 0855.25
2009/04/23 11:09:22.0     155   -186    135    243    277 140.3  31.4  34144  289.31 0855.25
2009/04/23 11:09:22.1     129   -166    103    211    234 142.2  28.0  34146  289.33 0855.25
2009/04/23 11:09:22.2     176   -142    121    227    257 128.9  30.3  34148  289.36 0855.25
2009/04/23 11:09:22.3      60   -122    141    137    196 153.7  50.9  34154  289.46 0855.25
2009/04/23 11:09:22.4      76   -112     83    136    159 145.7  34.2  34152  289.45 0855.25
2009/04/23 11:09:22.5       6   -148     51    149    158 177.4  19.2  34150  289.40 0855.25
2009/04/23 11:09:22.6       1   -128     35    129    134 179.5  15.3  34150  289.40 0855.25
2009/04/23 11:09:22.7     -11   -146    -18    147    149 184.4  -7.2  34148  289.38 0855.25
2009/04/23 11:09:22.8      24   -120    -30    123    127 168.4 -13.9  34148  289.38 0855.25
2009/04/23 11:09:22.9      40   -123    -36    130    135 161.7 -15.5  34148  289.38 0855.25
2009/04/23 11:09:23.0     120   -145     46    189    195 140.4  13.7  34140  289.23 0855.25
2009/04/23 11:09:23.1     124   -137     84    185    203 137.9  25.9  34144  289.31 0855.25
2009/04/23 11:09:23.2      12   -118    113    119    164 173.8  49.0  34144  289.31 0855.25
2009/04/23 11:09:23.3     -50    -64     80     82    114 218.3  50.5  34144  289.31 0855.25
2009/04/23 11:09:23.4     -70   -104     60    126    139 214.3  27.3  34142  289.26 0855.25
2009/04/23 11:09:23.5    -125   -137    -72    186    199 222.5 -26.7  34132  289.09 0855.25
2009/04/23 11:09:23.6    -160   -101   -104    190    216 237.6 -35.7  34146  289.33 0855.25
2009/04/23 11:09:23.7     -73   -115   -136    137    193 212.6 -54.6  34148  289.36 0855.25
2009/04/23 11:09:23.8     -39    -44    -63     60     87 221.4 -55.6  34150  289.41 0855.25
2009/04/23 11:09:23.9     -97   -224     78    245    258 203.4  17.7  34132  289.09 0855.25
2009/04/23 11:09:24.0    -101   -304    -54    321    326 198.5  -9.7  34140  289.22 0855.25
2009/04/23 11:09:24.1    -122   -325    -62    348    354 200.6 -10.2  34148  289.38 0855.25
2009/04/23 11:09:24.2    -149   -319    -76    353    362 205.0 -12.3  34158  289.54 0855.25
2009/04/23 11:09:24.3     -18   -368    -26    369    370 182.9  -4.1  34148  289.38 0855.25
2009/04/23 11:09:24.4      14   -309   -104    310    328 177.3 -18.6  34150  289.41 0855.25
2009/04/23 11:09:24.5       4   -278     31    279    281 179.1   6.5  34144  289.31 0855.25
2009/04/23 11:09:24.6      -4   -232      9    233    234 181.0   2.3  34154  289.47 0855.25
2009/04/23 11:09:24.7     -38   -115     65    122    138 198.5  30.8  34162  289.62 0855.25
2009/04/23 11:09:24.8    -107   -122     60    163    173 221.2  20.7  34156  289.52 0855.25
2009/04/23 11:09:24.9    -112    -76     71    136    153 235.8  29.8  34158  289.53 0855.25
2009/04/23 11:09:25.0    -139    -28     80    142    162 258.6  32.1  34160  289.57 0855.25
2009/04/23 11:09:25.1    -131   -145      0    196    197 222.1   0.2  34160  289.58 0855.25
2009/04/23 11:09:25.2    -138    -88    -80    164    182 237.5 -32.2  34152  289.45 0855.25
2009/04/23 11:09:25.3    -134   -154    -88    205    223 221.2 -29.0  34156  289.52 0855.25
2009/04/23 11:09:25.4     -62   -198    -59    208    216 197.4 -20.2  34166  289.67 0855.25
2009/04/23 11:09:25.5    -157   -270    -12    313    314 210.1  -2.2  34144  289.31 0855.25
2009/04/23 11:09:25.6    -120   -223    -46    254    259 208.3 -10.4  34148  289.36 0855.25
2009/04/23 11:09:25.7    -129   -161    -65    207    216 218.7 -22.3  34148  289.36 0855.25
2009/04/23 11:09:25.8    -196   -113     27    227    229 240.0   6.9  34152  289.43 0855.25
2009/04/23 11:09:25.9    -123   -238    103    269    288 207.4  22.0  34150  289.39 0855.25
2009/04/23 11:09:26.0     -43   -253     12    257    258 189.8   2.8  34148  289.36 0855.25
2009/04/23 11:09:26.1     -34   -255    -74    258    268 187.6 -20.8  34142  289.25 0855.25
2009/04/23 11:09:26.2     -13   -248   -143    249    287 183.1 -36.8  34144  289.31 0855.25
2009/04/23 11:09:26.3     -87    -78    -41    118    124 228.2 -23.3  34150  289.41 0855.25
2009/04/23 11:09:26.4     -67    -33     11     75     76 243.8   9.0  34160  289.57 0855.25
2009/04/23 11:09:26.5     -77    -25    -26     82     86 251.8 -23.3  34152  289.43 0855.25
2009/04/23 11:09:26.6    -108     89     16    140    142 309.5   6.9  34150  289.40 0855.25
2009/04/23 11:09:26.7     -71    129      7    148    149 331.0   2.8  34152  289.43 0855.25
2009/04/23 11:09:26.8      -3    103      5    104    105 358.2   2.9  34152  289.45 0855.25
2009/04/23 11:09:26.9      41    104     67    113    131  21.8  33.5  34148  289.38 0855.25
2009/04/23 11:09:27.0      78     77     85    110    139  45.4  41.7  34146  289.35 0855.25
2009/04/23 11:09:27.1      67     28     79     73    107  67.4  52.2  34148  289.36 0855.25
2009/04/23 11:09:27.2      90    -65    125    112    167 126.0  53.5  34150  289.41 0855.25
2009/04/23 11:09:27.3      69   -110    116    130    174 147.9  46.4  34148  289.36 0855.25
2009/04/23 11:09:27.4       8    -36    100     38    106 166.6  78.6  34148  289.38 0855.25
2009/04/23 11:09:27.5      82    -84    134    118    178 135.5  54.0  34148  289.38 0855.25
2009/04/23 11:09:27.6     185   -191    140    266    300 135.9  30.2  34138  289.19 0855.25
2009/04/23 11:09:27.7     234   -124     78    265    277 118.0  16.4  34134  289.12 0855.25
2009/04/23 11:09:27.8     174   -130     25    218    220 126.6   6.7  34130  289.08 0855.25
2009/04/23 11:09:27.9     160   -119    -80    200    215 126.6 -27.4  34138  289.21 0855.25
2009/04/23 11:09:28.0      82   -132   -119    156    196 147.9 -45.8  34144  289.31 0855.25
2009/04/23 11:09:28.1     109   -184    -53    215    222 149.3 -13.9  34122  288.94 0855.25
2009/04/23 11:09:28.2     126   -207     45    243    248 148.6  10.6  34124  288.97 0855.25
2009/04/23 11:09:28.3     186   -154     25    242    244 129.6   6.1  34126  288.98 0855.25
2009/04/23 11:09:28.4     206   -148     87    254    269 125.7  18.9  34126  288.98 0855.25
2009/04/23 11:09:28.5     200   -208     87    289    302 136.1  16.8  34116  288.81 0855.25
2009/04/23 11:09:28.6     172   -291     82    339    349 149.4  13.7  34126  288.99 0855.25
2009/04/23 11:09:28.7     174   -366     95    406    418 154.5  13.3  34116  288.82 0855.25
2009/04/23 11:09:28.8     209   -339    100    399    412 148.4  14.2  34114  288.80 0855.25
2009/04/23 11:09:28.9     210   -331    126    392    412 147.6  17.9  34110  288.73 0855.25
2009/04/23 11:09:29.0     192   -335    176    387    425 150.1  26.2  34112  288.77 0855.25
2009/04/23 11:09:29.1     104   -396    171    410    444 165.2  24.1  34122  288.92 0855.25
2009/04/23 11:09:29.2      34   -372    174    374    412 174.7  26.9  34130  289.06 0855.25
2009/04/23 11:09:29.3     124   -367    120    388    407 161.3  17.2  34126  288.98 0855.24
2009/04/23 11:09:29.4      94   -352    140    365    390 165.0  22.0  34128  289.04 0855.24
2009/04/23 11:09:29.5      85   -482    263    490    556 169.9  30.5  34122  288.92 0855.24
2009/04/23 11:09:29.6     150   -454    251    479    540 161.7  29.8  34130  289.07 0855.24
2009/04/23 11:09:29.7     124   -729    226    740    775 170.3  17.0  34128  289.02 0855.24
2009/04/23 11:09:29.8      14   -614     40    615    617 178.6   3.8  34134  289.13 0855.24
2009/04/23 11:09:29.9      32   -583    114    584    596 176.8  11.1  34122  288.93 0855.24
2009/04/23 11:09:30.0     134   -551    169    567    592 166.3  16.6  34118  288.86 0855.24
2009/04/23 11:09:30.1      42   -467    100    469    480 174.8  12.1  34120  288.88 0855.24
2009/04/23 11:09:30.2     -14   -373    179    374    414 182.3  27.3  34116  288.82 0855.24
2009/04/23 11:09:30.3     -24   -314    156    316    352 184.5  28.2  34112  288.76 0855.23
2009/04/23 11:09:30.4     -40   -262    174    266    317 188.7  36.4  34128  289.02 0855.23
2009/04/23 11:09:30.5     130     39    -27    136    139  73.1 -11.5  34116  288.84 0855.23
2009/04/23 11:09:30.6      97   -104     58    143    154 137.2  23.0  34126  288.99 0855.23
2009/04/23 11:09:30.7      67   -263     80    272    284 165.7  16.4  34126  289.00 0855.23
2009/04/23 11:09:30.8      35   -437     91    439    449 175.3  11.8  34128  289.04 0855.23
2009/04/23 11:09:30.9      76   -329    140    338    365 167.0  23.8  34116  288.81 0855.23
2009/04/23 11:09:31.0     193   -230    165    301    343 139.9  31.3  34142  289.26 0855.23
2009/04/23 11:09:31.1     163   -245    245    295    383 146.4  43.8  34126  289.01 0855.23
2009/04/23 11:09:31.2      24   -234    263    236    353 174.0  53.6  34134  289.14 0855.23
2009/04/23 11:09:31.3      56   -273    196    279    340 168.2  38.5  34124  288.97 0855.23
2009/04/23 11:09:31.4     188   -279    156    337    371 145.9  26.6  34130  289.06 0855.23
2009/04/23 11:09:31.5     102   -307    108    324    342 161.5  18.4  34128  289.03 0855.23
2009/04/23 11:09:31.6     193   -391     58    437    441 153.7   7.6  34106  288.67 0855.23
2009/04/23 11:09:31.7     276   -474     85    549    556 149.7   8.9  34112  288.75 0855.23
2009/04/23 11:09:31.8     246   -430     57    496    500 150.3   6.6  34114  288.79 0855.23
2009/04/23 11:09:31.9     186   -525    138    558    575 160.4  13.9  34120  288.90 0855.23
2009/04/23 11:09:32.0     195   -487    185    525    557 158.2  19.4  34114  288.79 0855.23
2009/04/23 11:09:32.1     173   -540    217    568    608 162.2  22.0  34112  288.76 0855.23
2009/04/23 11:09:32.2     162   -465    232    493    544 160.7  27.1  34118  288.87 0855.23
2009/04/23 11:09:32.3     241   -338    187    416    456 144.5  25.8  34112  288.77 0855.23
2009/04/23 11:09:32.4     268   -333    202    428    473 141.2  27.1  34112  288.75 0855.23
2009/04/23 11:09:32.5     328   -465    245    570    620 144.8  24.8  34116  288.83 0855.23
2009/04/23 11:09:32.6     361   -360    252    510    568 134.9  28.2  34120  288.89 0855.23
2009/04/23 11:09:32.7     221   -325    150    394    421 145.8  22.0  34116  288.83 0855.23
2009/04/23 11:09:32.8      99   -301    222    317    387 161.7  38.5  34116  288.81 0855.23
2009/04/23 11:09:32.9     119   -298    197    322    377 158.2  34.3  34120  288.88 0855.23
2009/04/23 11:09:33.0     214   -200    166    294    337 133.1  31.9  34118  288.85 0855.23
2009/04/23 11:09:33.1      99   -273    176    291    340 160.0  34.1  34118  288.85 0855.23
2009/04/23 11:09:33.2      70   -359    170    366    403 168.9  26.9  34120  288.91 0855.23
2009/04/23 11:09:33.3      -7   -456    318    457    556 181.0  38.1  34116  288.82 0855.23
2009/04/23 11:09:33.4     124   -404    315    423    527 162.8  40.2  34124  288.95 0855.23
2009/04/23 11:09:33.5     160   -306    249    346    426 152.4  39.5  34124  288.96 0855.23
2009/04/23 11:09:33.6     145   -434    373    458    590 161.5  43.3  34126  289.01 0855.23
2009/04/23 11:09:33.7     196   -267    262    332    422 143.7  42.4  34124  288.96 0855.23
2009/04/23 11:09:33.8     207   -223    214    305    372 137.2  38.6  34126  289.01 0855.23
2009/04/23 11:09:33.9     137   -149    212    203    293 137.5  51.2  34132  289.10 0855.23
2009/04/23 11:09:34.0     197   -117    164    230    282 120.7  39.1  34128  289.03 0855.23
2009/04/23 11:09:34.1     169    -80     66    188    200 115.3  19.4  34124  288.96 0855.23
2009/04/23 11:09:34.2     -25   -182     74    184    198 188.0  23.0  34122  288.92 0855.23
2009/04/23 11:09:34.3     -34   -183    187    187    264 190.7  50.1  34126  288.98 0855.23
2009/04/23 11:09:34.4     -27   -295    159    297    336 185.3  30.6  34124  288.97 0855.23
2009/04/23 11:09:34.5     -27   -210    190    212    284 187.3  46.4  34126  289.00 0855.23
2009/04/23 11:09:34.6      29    -64    126     71    144 155.5  68.8  34138  289.21 0855.23
2009/04/23 11:09:34.7      18    -55     96     59    112 161.3  65.1  34134  289.14 0855.23
2009/04/23 11:09:34.8     -33   -243    180    246    304 187.8  39.7  34122  288.93 0855.23
2009/04/23 11:09:34.9    -106   -225    142    249    286 205.3  32.3  34122  288.93 0855.23
2009/04/23 11:09:35.0     -45    -48    104     67    123 223.3  64.6  34128  289.04 0855.23
2009/04/23 11:09:35.1     106     21    144    109    180  78.5  59.2  34142  289.28 0855.23
2009/04/23 11:09:35.2     -20   -171    131    173    217 186.9  40.9  34144  289.30 0855.23
2009/04/23 11:09:35.3    -147   -169     81    225    240 221.0  19.9  34128  289.03 0855.23
2009/04/23 11:09:35.4    -190   -174     40    258    262 227.6   9.0  34126  289.00 0855.23
2009/04/23 11:09:35.5    -191   -125     77    229    242 236.7  18.6  34124  288.95 0855.23
2009/04/23 11:09:35.6    -255    -23     26    257    259 264.8   6.0  34130  289.05 0855.23
2009/04/23 11:09:35.7    -182   -211    190    279    337 220.8  37.6  34124  288.97 0855.23
2009/04/23 11:09:35.8    -106   -170     -8    201    202 211.9  -2.3  34126  289.01 0855.23
2009/04/23 11:09:35.9     -76   -188    -57    203    211 202.1 -15.8  34130  289.06 0855.23
2009/04/23 11:09:36.0     -23   -236     37    238    241 185.6   8.9  34130  289.05 0855.23
2009/04/23 11:09:36.1     -48   -322     72    326    334 188.6  12.5  34130  289.08 0855.23
2009/04/23 11:09:36.2     -67   -251     14    260    261 195.1   3.1  34124  288.95 0855.23
2009/04/23 11:09:36.3     -56   -157     41    167    173 199.8  13.9  34128  289.04 0855.24
2009/04/23 11:09:36.4     -32   -124     67    129    145 194.7  29.8  34126  288.99 0855.24
2009/04/23 11:09:36.5      54   -111     93    124    155 154.1  40.1  34128  289.04 0855.24
2009/04/23 11:09:36.6     160   -219    138    272    305 143.9  29.1  34132  289.09 0855.24
2009/04/23 11:09:36.7      74   -159    160    176    237 154.8  47.0  34130  289.06 0855.24
2009/04/23 11:09:36.8      80   -203    142    219    261 158.4  35.7  34134  289.12 0855.24
2009/04/23 11:09:36.9     140   -140     83    199    215 135.0  23.8  34132  289.09 0855.24
2009/04/23 11:09:37.0      56    -83     89    101    134 146.2  45.8  34126  289.01 0855.24
2009/04/23 11:09:37.1       3   -203    118    204    235 178.9  32.4  34128  289.02 0855.24
2009/04/23 11:09:37.2      97   -222    122    243    271 156.4  28.5  34130  289.07 0855.24
2009/04/23 11:09:37.3      36   -210    192    214    287 170.2  46.6  34132  289.09 0855.24
2009/04/23 11:09:37.4      65   -138    180    153    236 154.7  55.4  34138  289.21 0855.24
2009/04/23 11:09:37.5     223   -122    139    255    290 118.8  31.3  34134  289.14 0855.24
2009/04/23 11:09:37.6     116   -115     74    164    179 134.9  26.2  34132  289.09 0855.24
2009/04/23 11:09:37.7      97    -97    111    138    177 135.0  43.3  34132  289.11 0855.24
2009/04/23 11:09:37.8      45   -223    119    228    257 168.4  29.8  34130  289.05 0855.24
2009/04/23 11:09:37.9      13   -150    112    151    188 174.7  40.1  34130  289.08 0855.24
2009/04/23 11:09:38.0      59   -183     60    193    203 162.0  17.3  34128  289.04 0855.24
2009/04/23 11:09:38.1      90    -84     53    124    134 133.1  24.6  34134  289.14 0855.24
2009/04/23 11:09:38.2     100    -47     22    111    114 115.2  11.6  34130  289.08 0855.24
2009/04/23 11:09:38.3      63    -67     46     93    103 136.8  27.8  34132  289.09 0855.23
2009/04/23 11:09:38.4      37    -40     19     55     59 136.8  18.9  34126  288.99 0855.23
2009/04/23 11:09:38.5      -9    -79    -23     80     83 187.1 -20.7  34130  289.06 0855.23
2009/04/23 11:09:38.6      -5    -75     33     76     82 184.5  24.6  34132  289.11 0855.23
2009/04/23 11:09:38.7       0    -87     95     88    129 180.0  52.2  34134  289.13 0855.23
2009/04/23 11:09:38.8     -31     12     88     34     94 291.7  78.6  34154  289.46 0855.23
2009/04/23 11:09:38.9     -41   -106    122    114    166 201.4  52.2  34136  289.18 0855.23
2009/04/23 11:09:39.0     -72     24     92     76    119 288.6  56.4  34150  289.41 0855.23
2009/04/23 11:09:39.1     -62     60     54     87    102 314.0  35.0  34144  289.31 0855.23
2009/04/23 11:09:39.2     -28     16     93     33     98 300.7  80.2  34148  289.36 0855.23
2009/04/23 11:09:39.3      37     51    179     64    190  36.1  80.2  34160  289.58 0855.23
2009/04/23 11:09:39.4     -33     21    123     40    129 302.4  80.7  34168  289.72 0855.23
2009/04/23 11:09:39.5      -8      2    115      9    115 288.2  90.0  34172  289.77 0855.23
2009/04/23 11:09:39.6     -93    -81    124    124    175 229.1  50.1  34154  289.46 0855.23
2009/04/23 11:09:39.7     -67    -13     57     69     89 258.5  43.7  34148  289.38 0855.23
2009/04/23 11:09:39.8     -82     17     55     84    100 281.9  36.0  34146  289.35 0855.23
2009/04/23 11:09:39.9     -21     46    137     51    146 334.5  79.1  34148  289.36 0855.23
2009/04/23 11:09:40.0     136     23    157    138    209  80.3  54.3  34150  289.41 0855.23
2009/04/23 11:09:40.1      63     44    204     77    218  54.9  78.6  34164  289.63 0855.23
2009/04/23 11:09:40.2     110     72    196    132    236  56.7  62.8  34158  289.53 0855.23
2009/04/23 11:09:40.3     155    128    174    202    266  50.5  45.1  34144  289.31 0855.19
2009/04/23 11:09:40.4      35     34    140     50    148  45.9  79.7  34156  289.50 0855.19
2009/04/23 11:09:40.5     124     59    118    138    181  64.2  45.1  34142  289.28 0855.19
2009/04/23 11:09:40.6      33     52    128     62    142  32.6  72.8  34150  289.41 0855.19
2009/04/23 11:09:40.7       9     35    136     37    140  15.1  84.9  34156  289.52 0855.19
2009/04/23 11:09:40.8     -25    -55    139     61    151 204.5  74.9  34158  289.55 0855.19
2009/04/23 11:09:40.9      11    -47    188     49    194 166.6  85.2  34148  289.36 0855.19
2009/04/23 11:09:41.0      46     46     49     66     82  45.0  40.7  34156  289.52 0855.19
2009/04/23 11:09:41.1      60     -8    139     61    151  97.9  74.9  34150  289.41 0855.19
2009/04/23 11:09:41.2      -3     57    191     58    199 356.4  82.8  34156  289.50 0855.19
2009/04/23 11:09:41.3      41    -83    123     93    154 153.3  59.0  34138  289.19 0855.19
2009/04/23 11:09:41.4      63    -63    187     90    207 135.0  72.8  34140  289.24 0855.19
2009/04/23 11:09:41.5     148    -69    174    164    239 115.2  51.6  34140  289.23 0855.19
2009/04/23 11:09:41.6      18    -17    116     26    118 133.1  87.5  34148  289.38 0855.19
2009/04/23 11:09:41.7     -45    -68    146     82    167 213.8  68.3  34148  289.38 0855.19
2009/04/23 11:09:41.8    -128   -204    205    241    316 212.1  44.8  34136  289.17 0855.19
2009/04/23 11:09:41.9    -123   -189     37    226    230 213.0   9.5  34134  289.13 0855.19
2009/04/23 11:09:42.1     -35   -161    -45    165    172 192.3 -15.5  34132  289.09 0855.19
2009/04/23 11:09:42.2     -62   -167     -3    179    180 200.5  -1.3  34134  289.13 0855.19
2009/04/23 11:09:42.3     -23   -164    -25    166    168 188.0  -8.6  34138  289.19 0855.19
2009/04/23 11:09:42.4     -62   -188    -47    198    204 198.3 -13.4  34134  289.13 0855.18
2009/04/23 11:09:42.5     -79   -163    -55    182    191 205.9 -17.0  34134  289.14 0855.18
2009/04/23 11:09:42.6     -86   -140    -45    165    172 211.6 -15.5  34136  289.18 0855.18
2009/04/23 11:09:42.7     -61   -150      0    163    164 202.3  -0.3  34138  289.21 0855.18
2009/04/23 11:09:42.8     -14   -144     -1    145    146 185.8  -0.7  34140  289.23 0855.18
2009/04/23 11:09:42.9     -58    -90     90    108    140 213.0  43.8  34146  289.33 0855.18
2009/04/23 11:09:43.0      32    -15     64     36     73 115.3  68.8  34156  289.50 0855.18
2009/04/23 11:09:43.1      69     41     89     81    120  58.9  52.7  34156  289.50 0855.18
2009/04/23 11:09:43.2      82     60     59    102    117  53.6  32.4  34146  289.35 0855.18
2009/04/23 11:09:43.3     119    119     84    169    188  45.0  28.2  34142  289.26 0855.18
2009/04/23 11:09:43.4       3     50     98     51    110   4.5  70.8  34152  289.45 0855.18
2009/04/23 11:09:43.5       0      7     91      8     91 355.5  90.0  34160  289.58 0855.18
2009/04/23 11:09:43.6     -88    -99     69    133    149 221.4  29.3  34148  289.36 0855.18
2009/04/23 11:09:43.7    -121   -113     57    166    176 226.9  19.2  34148  289.36 0855.18
2009/04/23 11:09:43.8    -112   -135     23    176    178 219.6   7.5  34150  289.40 0855.18
2009/04/23 11:09:43.9     -74   -106     30    130    134 215.2  13.2  34150  289.40 0855.18
2009/04/23 11:09:44.0     -24   -122     85    125    151 191.1  37.6  34156  289.50 0855.18
2009/04/23 11:09:44.1     -54   -123     39    135    141 203.6  16.3  34146  289.35 0855.18
2009/04/23 11:09:44.2     -49    -87     15    101    103 209.4   8.5  34146  289.33 0855.18
2009/04/23 11:09:44.3     -72    -83    -14    111    112 221.0  -7.2  34146  289.35 0855.18
2009/04/23 11:09:44.4     -49   -136    -34    145    150 200.1 -13.4  34142  289.26 0855.20
2009/04/23 11:09:44.5     -26   -186    -24    188    190 188.0  -7.3  34144  289.30 0855.20
2009/04/23 11:09:44.6      11   -130    -40    131    136 175.1 -21.8  34146  289.35 0855.20
2009/04/23 11:09:44.7       0   -204    -55    205    213 180.2 -15.0  34144  289.30 0855.20
2009/04/23 11:09:44.8     -39   -162    -93    167    191 193.8 -35.8  34146  289.35 0855.20
2009/04/23 11:09:44.9      -9   -228    -64    229    237 182.5 -20.2  34140  289.24 0855.20
2009/04/23 11:09:45.0       0   -172    -81    173    191 179.8 -31.5  34142  289.26 0855.20
2009/04/23 11:09:45.1      95   -185    -81    208    223 152.8 -26.7  34144  289.31 0855.20
2009/04/23 11:09:45.2      19   -161     56    163    173 173.1  19.2  34148  289.36 0855.20
2009/04/23 11:09:45.3      22   -158     18    160    162 172.0   6.5  34142  289.26 0855.20
2009/04/23 11:09:45.4     109   -109    -38    155    160 134.9 -13.9  34142  289.28 0855.20
2009/04/23 11:09:45.5      87   -105     -7    137    138 140.3  -3.2  34148  289.36 0855.20
2009/04/23 11:09:45.6      66    -58     23     89     92 131.3  14.7  34150  289.40 0855.20
2009/04/23 11:09:45.7      60    -38     10     72     73 122.4   8.0  34152  289.45 0855.20
2009/04/23 11:09:45.8      54    -13     25     56     61 104.2  25.1  34152  289.45 0855.20
2009/04/23 11:09:45.9      25     -9     35     27     44 110.0  57.5  34146  289.35 0855.20
2009/04/23 11:09:46.0       7    -93    151     94    177 175.5  65.1  34152  289.45 0855.20
2009/04/23 11:09:46.1      71   -142     91    160    184 153.3  32.1  34152  289.43 0855.20
2009/04/23 11:09:46.2     169   -137     85    218    233 129.1  22.3  34146  289.35 0855.20
2009/04/23 11:09:46.3      47   -170      5    177    178 164.4   1.8  34142  289.26 0855.20
2009/04/23 11:09:46.4       9   -208     74    209    222 177.3  19.6  34142  289.26 0855.19
2009/04/23 11:09:46.5      49   -205     34    211    214 166.4   9.3  34144  289.30 0855.19
2009/04/23 11:09:46.6       2   -131    118    132    177 179.1  46.6  34148  289.36 0855.19
2009/04/23 11:09:46.7     -72   -123     70    143    159 210.3  28.0  34148  289.36 0855.19
2009/04/23 11:09:46.8     -38   -114     71    121    140 198.5  33.4  34144  289.31 0855.19
2009/04/23 11:09:46.9     -84    -89     21    123    125 223.2  10.1  34144  289.31 0855.19
2009/04/23 11:09:47.0      -8   -107     83    108    136 184.4  41.7  34144  289.31 0855.19
2009/04/23 11:09:47.1      65    -42    116     78    139 123.3  62.7  34156  289.50 0855.19
2009/04/23 11:09:47.2      51    -68     59     86    104 143.0  37.6  34154  289.46 0855.19
2009/04/23 11:09:47.3      28    -84     41     89     97 161.5  26.6  34152  289.45 0855.19
2009/04/23 11:09:47.4     -56   -152     49    163    171 200.3  16.8  34142  289.26 0855.19
2009/04/23 11:09:47.5     -90   -231     61    249    257 201.4  13.9  34148  289.37 0855.19
2009/04/23 11:09:47.6     -50   -184     67    191    203 195.4  19.4  34148  289.36 0855.19
2009/04/23 11:09:47.7     -97   -173     31    199    202 209.2   8.9  34146  289.33 0855.19
2009/04/23 11:09:47.8    -114   -181     81    215    229 212.3  21.5  34148  289.38 0855.19
2009/04/23 11:09:47.9    -139   -292     13    324    325 205.5   2.3  34144  289.31 0855.19
2009/04/23 11:09:48.0    -181   -324    130    372    394 209.1  20.1  34150  289.40 0855.19
2009/04/23 11:09:48.1    -279   -139     13    312    313 243.4   2.5  34156  289.51 0855.19
2009/04/23 11:09:48.2    -170    -88     93    192    213 242.5  27.4  34154  289.48 0855.19
2009/04/23 11:09:48.3    -213    -65     -8    223    224 252.9  -2.2  34154  289.48 0855.19
2009/04/23 11:09:48.4    -258    -43      3    262    263 260.4   0.8  34156  289.51 0855.19
2009/04/23 11:09:48.5    -164     16     -1    165    166 275.9  -0.5  34158  289.55 0855.19
2009/04/23 11:09:48.6     -67    -55     73     88    114 230.5  43.7  34162  289.60 0855.19
2009/04/23 11:09:48.7       7    -35    117     36    122 168.4  82.7  34178  289.89 0855.19
2009/04/23 11:09:48.8     -17      1     60     18     62 274.4  82.8  34186  290.01 0855.19
2009/04/23 11:09:48.9       8      2     33      9     34  71.8  82.8  34182  289.94 0855.19
2009/04/23 11:09:49.0      85    -17     53     87    101 101.9  34.4  34180  289.92 0855.19
2009/04/23 11:09:49.1      85    -84     -2    120    121 134.6  -1.2  34170  289.74 0855.19
2009/04/23 11:09:49.2     111    -52     81    123    147 115.2  36.0  34158  289.55 0855.19
2009/04/23 11:09:49.3      18   -180     21    181    183 174.2   6.7  34158  289.53 0855.19
2009/04/23 11:09:49.4       3   -196     -3    197    198 179.0  -1.2  34154  289.46 0855.19
2009/04/23 11:09:49.5     -58   -219     80    227    241 195.1  19.4  34152  289.42 0855.19
2009/04/23 11:09:49.6    -100   -191     -8    216    217 207.6  -2.3  34148  289.38 0855.19
2009/04/23 11:09:49.7     -13   -242      8    243    244 183.1   2.1  34152  289.42 0855.19
2009/04/23 11:09:49.8      56   -252    236    259    350 167.3  47.1  34154  289.47 0855.19
2009/04/23 11:09:49.9     -22   -471    150    472    496 182.7  17.7  34140  289.22 0855.19
2009/04/23 11:09:50.0     -42   -505    244    507    562 184.8  27.4  34134  289.14 0855.19
2009/04/23 11:09:50.1    -116   -411    229    428    485 195.8  30.3  34138  289.20 0855.19
2009/04/23 11:09:50.2     -58   -280    256    287    384 191.8  46.3  34146  289.33 0855.19
2009/04/23 11:09:50.3     111   -365    289    382    479 163.1  40.9  34148  289.36 0855.19
2009/04/23 11:09:50.4     133   -231    124    267    294 150.1  27.0  34152  289.42 0855.21
2009/04/23 11:09:50.5      10   -138     -7    139    140 175.5  -3.1  34154  289.46 0855.21
2009/04/23 11:09:50.6       8    -55    -86     56    102 171.1 -68.5  34152  289.43 0855.21
2009/04/23 11:09:50.7      78     43      6     90     91  61.1   4.4  34146  289.35 0855.21
2009/04/23 11:09:50.8      46     53     69     71     99  40.5  49.4  34150  289.40 0855.21
2009/04/23 11:09:50.9       1     78     57     79     97   0.9  39.7  34156  289.50 0855.21
2009/04/23 11:09:51.0     -22     55     51     60     78 338.2  45.4  34158  289.53 0855.21
2009/04/23 11:09:51.1     -28     26     18     39     42 313.1  26.2  34156  289.50 0855.21
2009/04/23 11:09:51.2     -21     58    -25     62     66 340.0 -27.4  34154  289.46 0855.21
2009/04/23 11:09:51.3     -31     91    -29     97    102 341.3 -16.6  34156  289.50 0855.21
2009/04/23 11:09:51.4     -69     97    -16    120    122 324.4  -7.7  34158  289.53 0855.22
2009/04/23 11:09:51.5     -62     71     -3     95     96 319.0  -2.2  34158  289.53 0855.22
2009/04/23 11:09:51.6     -38     87     32     95    101 336.4  18.9  34166  289.67 0855.22
2009/04/23 11:09:51.7     -96     96     -5    136    137 314.9  -2.2  34160  289.57 0855.22
2009/04/23 11:09:51.8     -82     82     13    116    117 315.0   6.9  34162  289.60 0855.22
2009/04/23 11:09:51.9     -21    111    -14    114    115 348.9  -7.3  34158  289.55 0855.22
2009/04/23 11:09:52.0      -6     80     -3     81     82 355.5  -2.2  34160  289.58 0855.22
2009/04/23 11:09:52.1      91    117      9    149    150  37.8   3.8  34154  289.46 0855.22
2009/04/23 11:09:52.2      56     71     54     91    105  38.3  34.0  34158  289.53 0855.22
2009/04/23 11:09:52.3     118     84     39    145    151  54.5  15.3  34158  289.55 0855.22
2009/04/23 11:09:52.4     111    -16     94    113    146  98.4  43.8  34158  289.55 0855.22
2009/04/23 11:09:52.5     116   -129     85    174    193 138.1  27.8  34158  289.55 0855.22
2009/04/23 11:09:52.6     158   -130     64    205    215 129.5  17.4  34154  289.46 0855.22
2009/04/23 11:09:52.7     119   -176     92    213    232 145.7  24.9  34148  289.38 0855.22
2009/04/23 11:09:52.8     191   -121     70    227    238 122.4  17.3  34154  289.47 0855.22
2009/04/23 11:09:52.9     142   -121     50    187    194 130.4  15.2  34148  289.38 0855.22
2009/04/23 11:09:53.0     198   -123     27    234    236 121.8   6.7  34148  289.37 0855.22
2009/04/23 11:09:53.1     225   -116     44    254    258 117.3  10.0  34152  289.44 0855.22
2009/04/23 11:09:53.2     245    -89    146    261    299 110.0  31.4  34144  289.31 0855.22
2009/04/23 11:09:53.3     298    -93     99    313    329 107.3  17.7  34140  289.22 0855.22
2009/04/23 11:09:53.4     238    -63     94    247    264 104.8  21.7  34146  289.34 0855.22
2009/04/23 11:09:53.5     278    -65    123    286    311 103.2  24.9  34154  289.47 0855.22
2009/04/23 11:09:53.6     140   -105    113    175    208 126.9  35.7  34158  289.53 0855.22
2009/04/23 11:09:53.7      -4   -236     82    237    252 181.0  19.2  34152  289.44 0855.22
2009/04/23 11:09:53.8    -100   -368     15    382    383 195.2   2.4  34148  289.38 0855.22
2009/04/23 11:09:53.9     -73   -234     72    246    257 197.4  16.4  34156  289.49 0855.22
2009/04/23 11:09:54.0     -10   -236    159    237    285 182.6  37.3  34148  289.36 0855.22
2009/04/23 11:09:54.1     -42   -394    226    397    456 186.1  32.1  34150  289.41 0855.22
2009/04/23 11:09:54.2      -4   -224    159    225    275 181.1  38.6  34148  289.37 0855.22
2009/04/23 11:09:54.3      37   -267    222    270    349 172.0  43.7  34152  289.44 0855.22
2009/04/23 11:09:54.4       4   -256    209    257    331 179.1  43.4  34152  289.42 0855.22
2009/04/23 11:09:54.5     -28   -315    118    317    338 185.1  21.4  34150  289.40 0855.22
2009/04/23 11:09:54.6     -59   -349    121    354    375 189.6  18.9  34142  289.25 0855.22
2009/04/23 11:09:54.7     -84   -362    -14    372    373 193.1  -2.2  34148  289.38 0855.22
2009/04/23 11:09:54.8    -156   -358    -23    391    392 203.5  -3.5  34148  289.37 0855.22
2009/04/23 11:09:54.9    -109   -329    -85    347    358 198.5 -13.8  34148  289.37 0855.22
2009/04/23 11:09:55.0     -33   -221    -95    224    243 188.7 -28.6  34142  289.27 0855.22
2009/04/23 11:09:55.1     -16   -274    -45    275    279 183.5  -9.3  34150  289.41 0855.22
2009/04/23 11:09:55.2     -52   -258    -73    264    273 191.6 -20.2  34166  289.68 0855.22
2009/04/23 11:09:55.3      40   -213      0    217    218 169.3   0.2  34156  289.50 0855.22
2009/04/23 11:09:55.4      90   -183     62    205    215 153.7  16.8  34154  289.46 0855.22
2009/04/23 11:09:55.5      43   -134     69    141    156 162.2  28.0  34150  289.41 0855.22
2009/04/23 11:09:55.6      59   -155    133    167    213 159.1  42.7  34148  289.38 0855.22
2009/04/23 11:09:55.7      19   -160    155    162    224 173.1  48.7  34156  289.52 0855.22
2009/04/23 11:09:55.8    -143   -293     97    327    342 206.1  16.5  34144  289.30 0855.22
2009/04/23 11:09:55.9     -48   -347     55    351    356 188.0   8.9  34152  289.42 0855.22
2009/04/23 11:09:56.0      -2   -129    156    130    203 180.9  56.1  34160  289.57 0855.22
2009/04/23 11:09:56.1     102   -235    142    257    293 156.4  31.3  34154  289.47 0855.22
2009/04/23 11:09:56.2     103   -208    153    233    278 153.5  36.5  34162  289.59 0855.22
2009/04/23 11:09:56.3      51   -153    104    162    192 161.3  35.6  34162  289.60 0855.22
2009/04/23 11:09:56.4     -49    -37    148     62    160 233.1  76.1  34180  289.92 0855.22
2009/04/23 11:09:56.5    -335   -245     58    416    421 233.8   8.0  34156  289.51 0855.22
2009/04/23 11:09:56.6    -221   -162    -28    275    277 233.8  -6.0  34160  289.58 0855.22
2009/04/23 11:09:56.7     -14   -278     44    279    283 182.9   9.0  34162  289.59 0855.22
2009/04/23 11:09:56.8     -12   -177     63    178    188 184.0  20.0  34166  289.67 0855.22
2009/04/23 11:09:56.9     -73   -104    109    128    168 215.2  44.8  34166  289.69 0855.22
2009/04/23 11:09:57.0     -43    -18    115     47    124 247.4  77.1  34178  289.89 0855.22
2009/04/23 11:09:57.1     -22     50    131     55    142 336.4  76.6  34188  290.06 0855.22
2009/04/23 11:09:57.2     -18      6    122     19    123 288.4  90.0  34198  290.23 0855.22
2009/04/23 11:09:57.3     -15     14    131     21    132 313.1  90.0  34192  290.11 0855.22
2009/04/23 11:09:57.4      69     22     95     73    119  72.3  58.5  34180  289.91 0855.22
2009/04/23 11:09:57.5     135    -49    159    144    214 110.0  53.0  34168  289.70 0855.22
2009/04/23 11:09:57.6      78   -176    179    193    263 155.9  47.9  34166  289.68 0855.22
2009/04/23 11:09:57.7       0    -62    195     63    204 180.0  81.0  34174  289.80 0855.22
2009/04/23 11:09:57.8    -108   -401    206    416    464 195.2  28.2  34154  289.48 0855.22
2009/04/23 11:09:57.9    -182   -383    143    425    449 205.5  18.6  34150  289.41 0855.22
2009/04/23 11:09:58.0    -126   -264    179    293    343 205.5  34.3  34162  289.61 0855.22
2009/04/23 11:09:58.1     -51   -144    133    153    202 199.6  45.8  34162  289.60 0855.22
2009/04/23 11:09:58.2      73    -40    186     84    204 118.8  74.2  34178  289.87 0855.22
2009/04/23 11:09:58.3       5     17    159     18    160  18.7  90.0  34184  289.99 0855.22
2009/04/23 11:09:58.4     -37     42    170     57    179 318.6  81.0  34184  289.97 0855.22
2009/04/23 11:09:58.5     -31     49    136     59    148 327.5  75.0  34178  289.89 0855.22
2009/04/23 11:09:58.6      87    -37    184     95    207 113.5  70.8  34164  289.63 0855.22
2009/04/23 11:09:58.7      89    -68    187    113    218 127.3  66.2  34170  289.75 0855.22
2009/04/23 11:09:58.8     122     51    213    133    251  67.4  64.7  34178  289.89 0855.22
2009/04/23 11:09:58.9     148     45    187    155    242  73.1  56.3  34168  289.72 0855.22
2009/04/23 11:09:59.0     231     -6    205    232    309  91.7  45.9  34168  289.71 0855.22
2009/04/23 11:09:59.1     219    -11    170    220    278  93.0  41.7  34176  289.85 0855.22
2009/04/23 11:09:59.2     194     73     46    208    214  69.4  12.6  34162  289.60 0855.22
2009/04/23 11:09:59.3     160     47     32    167    171  73.4  11.1  34158  289.55 0855.22
2009/04/23 11:09:59.4     132     65     86    148    171  63.8  32.9  34158  289.55 0855.22
2009/04/23 11:09:59.5      76     -5    123     77    145  94.3  64.7  34166  289.67 0855.22
2009/04/23 11:09:59.6     102      1    129    103    165  89.2  57.5  34170  289.74 0855.22
2009/04/23 11:09:59.7      24     16     77     30     82  55.8  78.2  34168  289.70 0855.22
2009/04/23 11:09:59.8     -72      0     22     73     77 270.0  17.3  34174  289.80 0855.22
2009/04/23 11:09:59.9    -119     16     -4    121    122 278.0  -2.2  34170  289.74 0855.22
2009/04/23 11:10:00.0     -81     58    -22    100    103 305.5 -12.4  34166  289.69 0855.22
2009/04/23 11:10:00.1      -9     52    -77     53     93 349.3 -67.0  34166  289.67 0855.22
2009/04/23 11:10:00.2      -6     78    -18     79     82 355.5 -12.9  34160  289.58 0855.22
2009/04/23 11:10:00.3     -69    115     49    135    143 329.2  20.9  34164  289.65 0855.22
2009/04/23 11:10:00.4    -106    168     38    199    203 327.7  11.0  34162  289.60 0855.22
2009/04/23 11:10:00.5     -98    164     20    192    194 329.0   6.1  34166  289.69 0855.22
2009/04/23 11:10:00.6    -188    111     11    219    220 300.7   2.9  34166  289.67 0855.22
2009/04/23 11:10:00.7    -146      9      3    147    148 273.9   1.2  34168  289.72 0855.22
2009/04/23 11:10:00.8    -105    -85     -9    136    137 230.9  -4.1  34168  289.70 0855.22
2009/04/23 11:10:00.9    -115   -104    -27    156    159 227.8 -10.1  34166  289.69 0855.22
2009/04/23 11:10:01.0    -276   -110      8    298    299 248.3   1.7  34180  289.90 0855.22
2009/04/23 11:10:01.1    -235   -140    -96    274    290 239.3 -24.4  34170  289.73 0855.22
2009/04/23 11:10:01.2    -320   -181   -107    368    383 240.5 -21.0  34192  290.13 0855.22
2009/04/23 11:10:01.3    -224   -224   -112    318    337 225.0 -24.5  34168  289.72 0855.22
2009/04/23 11:10:01.4    -243   -272   -195    365    413 221.8 -34.9  34148  289.38 0855.22
2009/04/23 11:10:01.5    -202    -68    -11    214    215 251.4  -3.1  34166  289.69 0855.22
2009/04/23 11:10:01.6    -168   -200    -73    262    271 220.1 -20.2  34174  289.80 0855.22
2009/04/23 11:10:01.7     -71   -239    -43    250    254 196.5  -9.8  34182  289.95 0855.22
2009/04/23 11:10:01.8    -121   -284     -1    309    310 203.2  -0.3  34188  290.03 0855.22
2009/04/23 11:10:01.9    -122   -221     35    253    256 209.0   8.0  34180  289.92 0855.22
2009/04/23 11:10:02.0    -102   -279    -72    298    307 200.1 -13.7  34158  289.54 0855.22
2009/04/23 11:10:02.1    -177   -245   -204    303    365 216.0 -41.6  34158  289.54 0855.22
2009/04/23 11:10:02.2    -180   -174   -173    251    304 226.0 -42.2  34176  289.85 0855.22
2009/04/23 11:10:02.3    -155   -104   -109    187    216 236.0 -37.5  34180  289.92 0855.22
2009/04/23 11:10:02.4     -85   -134    -61    159    170 212.5 -26.4  34188  290.04 0855.22
2009/04/23 11:10:02.5      -3   -121    -41    122    128 181.8 -23.6  34180  289.92 0855.22
2009/04/23 11:10:02.6      -3   -101     -7    102    103 182.2  -4.1  34182  289.94 0855.22
2009/04/23 11:10:02.7     -33   -121     -6    126    127 195.2  -3.1  34186  290.02 0855.22
2009/04/23 11:10:02.8    -144    -99    -62    176    187 235.4 -19.7  34198  290.23 0855.22
2009/04/23 11:10:02.9     -43   -130   -117    138    180 198.5 -48.9  34166  289.69 0855.22
2009/04/23 11:10:03.0       5   -178    -83    179    197 178.4 -31.0  34184  289.97 0855.22
2009/04/23 11:10:03.1      37   -113     52    119    129 161.7  25.1  34172  289.79 0855.22
2009/04/23 11:10:03.2      39   -221    175    225    285 170.0  41.7  34154  289.46 0855.22
2009/04/23 11:10:03.3      52   -105    122    118    169 153.7  50.7  34166  289.69 0855.22
2009/04/23 11:10:03.4      -6   -145     65    146    159 182.6  25.7  34146  289.33 0855.20
2009/04/23 11:10:03.5     -23   -103     -5    106    107 192.9  -3.1  34154  289.48 0855.20
2009/04/23 11:10:03.6     -48     31    -66     58     87 302.4 -58.1  34192  290.13 0855.20
2009/04/23 11:10:03.7     -45     23     39     51     64 297.1  40.7  34186  290.01 0855.20
2009/04/23 11:10:03.8    -115    -16     69    117    135 262.1  33.5  34176  289.84 0855.20
2009/04/23 11:10:03.9     -81   -128     85    152    174 212.5  31.9  34168  289.70 0855.20
2009/04/23 11:10:04.0     -23   -194    109    196    224 186.9  31.4  34166  289.69 0855.20
2009/04/23 11:10:04.1     -48   -210     12    216    217 192.9   3.3  34160  289.57 0855.20
2009/04/23 11:10:04.2     -32   -213     42    216    221 188.7  11.1  34164  289.63 0855.20
2009/04/23 11:10:04.3     -35   -196     70    200    211 190.2  20.0  34158  289.53 0855.20
2009/04/23 11:10:04.4    -126   -237     89    269    284 208.1  18.4  34160  289.58 0855.20
2009/04/23 11:10:04.5    -189   -244    -85    309    320 217.8 -20.1  34178  289.88 0855.20
2009/04/23 11:10:04.6    -184   -261    -90    320    333 215.2 -15.7  34162  289.59 0855.20
2009/04/23 11:10:04.7     -61   -281    -88    288    302 192.3 -17.0  34154  289.47 0855.20
2009/04/23 11:10:04.8    -134   -329     28    356    358 202.2   4.6  34162  289.62 0855.20
2009/04/23 11:10:04.9    -140   -368    -92    395    406 200.9 -13.2  34144  289.30 0855.20
2009/04/23 11:10:05.0    -138   -394    -19    418    419 199.3  -2.6  34160  289.56 0855.20
2009/04/23 11:10:05.1    -100   -213    -31    236    239 205.3  -7.7  34164  289.63 0855.20
2009/04/23 11:10:05.2      19   -165    221    167    277 173.3  59.2  34174  289.81 0855.20
2009/04/23 11:10:05.3     -59   -186    259    196    324 197.8  59.1  34178  289.86 0855.20
2009/04/23 11:10:05.4      35   -211    152    214    262 170.4  38.8  34174  289.81 0855.20
2009/04/23 11:10:05.5      47   -301    123    305    328 171.1  23.2  34156  289.51 0855.20
2009/04/23 11:10:05.6     -29   -382    113    384    401 184.5  16.4  34152  289.45 0855.20
2009/04/23 11:10:05.7       5   -358    165    359    395 179.1  26.3  34156  289.50 0855.20
2009/04/23 11:10:05.8      88   -430    181    440    475 168.4  23.6  34160  289.56 0855.20
2009/04/23 11:10:05.9      36   -500    -27    502    503 175.9  -3.2  34158  289.54 0855.20
2009/04/23 11:10:06.0      76   -437    -64    444    449 170.1  -8.3  34162  289.61 0855.20
2009/04/23 11:10:06.1      77   -379   -122    388    407 168.4 -17.5  34160  289.57 0855.20
2009/04/23 11:10:06.2      74   -475   -113    481    495 171.1 -13.3  34166  289.66 0855.20
2009/04/23 11:10:06.3      41   -458    -77    460    467 174.8  -9.6  34160  289.56 0855.20
2009/04/23 11:10:06.4      93   -421   -121    432    448 167.5 -20.3  34158  289.55 0855.20
2009/04/23 11:10:06.5      47   -496    -72    499    505 174.6  -8.2  34154  289.47 0855.20
2009/04/23 11:10:06.6      56   -489    -48    493    496 173.4  -5.6  34156  289.49 0855.20
2009/04/23 11:10:06.7      56   -454     23    458    459 172.9   2.9  34158  289.55 0855.20
2009/04/23 11:10:06.8      22   -479     27    480    481 177.3   3.2  34160  289.57 0855.20
2009/04/23 11:10:06.9     -90   -501     43    510    513 190.2   4.9  34162  289.62 0855.20
2009/04/23 11:10:07.0      42   -401    123    404    423 173.9  17.0  34162  289.60 0855.20
2009/04/23 11:10:07.1     139   -415      5    438    439 161.4   0.7  34170  289.73 0855.20
2009/04/23 11:10:07.2     166   -379    -36    414    416 156.3  -5.1  34172  289.77 0855.20
2009/04/23 11:10:07.3      56   -433     -2    437    438 172.6  -0.3  34172  289.77 0855.20
2009/04/23 11:10:07.4      52   -401    -87    405    415 172.6 -12.2  34162  289.61 0855.18
2009/04/23 11:10:07.5       8   -341     69    342    349 178.6  11.4  34152  289.45 0855.18
2009/04/23 11:10:07.6      63   -264    125    272    299 166.4  26.4  34154  289.46 0855.18
2009/04/23 11:10:07.7     118   -275     52    300    305 156.8   9.9  34162  289.59 0855.18
2009/04/23 11:10:07.8     153   -202     88    254    269 142.8  19.2  34166  289.68 0855.18
2009/04/23 11:10:07.9     187   -143     96    236    254 127.5  23.4  34168  289.70 0855.18
2009/04/23 11:10:08.0     161    -96    265    188    324 120.9  61.3  34172  289.78 0855.18
2009/04/23 11:10:08.1     292     26    144    294    327  84.8  28.0  34174  289.80 0855.18
2009/04/23 11:10:08.2     260    -52     76    266    277 101.5  16.0  34176  289.83 0855.18
2009/04/23 11:10:08.3     213    -84     27    230    232 111.5   6.7  34168  289.72 0855.18
2009/04/23 11:10:08.4      70    -70     61    100    117 135.0  35.0  34174  289.80 0855.18
2009/04/23 11:10:08.5     -56   -177     14    186    187 197.6   4.4  34164  289.65 0855.18
2009/04/23 11:10:08.6     -94   -157    -25    184    186 211.0  -8.0  34162  289.62 0855.18
2009/04/23 11:10:08.7      59   -288     16    295    296 168.4   3.3  34160  289.56 0855.18
2009/04/23 11:10:08.8       6   -366     88    367    378 179.0  13.5  34154  289.48 0855.18
2009/04/23 11:10:08.9     -37   -289    105    292    310 187.3  20.4  34160  289.58 0855.18
2009/04/23 11:10:09.0      47   -274    145    279    314 170.2  29.6  34160  289.56 0855.18
2009/04/23 11:10:09.1      61   -218    117    227    255 164.2  29.3  34158  289.54 0855.18
2009/04/23 11:10:09.2     122   -239     75    269    280 153.0  15.6  34154  289.47 0855.18
2009/04/23 11:10:09.3     312   -234    158    390    420 126.9  23.2  34146  289.33 0855.18
2009/04/23 11:10:09.4     355   -170    259    394    471 115.7  36.5  34146  289.33 0855.17
2009/04/23 11:10:09.5     334   -148    253    366    444 113.9  37.9  34152  289.44 0855.17
2009/04/23 11:10:09.6     203   -129    258    241    353 122.5  52.2  34158  289.54 0855.17
2009/04/23 11:10:09.7     227   -171    211    285    354 127.1  40.1  34156  289.52 0855.17
2009/04/23 11:10:09.8      98   -420    257    432    502 166.8  33.5  34152  289.42 0855.17
2009/04/23 11:10:10.0     122   -452    259    469    535 164.9  31.4  34152  289.45 0855.17
2009/04/23 11:10:10.1     147   -367    270    396    479 158.1  37.6  34158  289.53 0855.17
2009/04/23 11:10:10.2     180   -504    319    536    623 160.3  33.5  34148  289.36 0855.17
2009/04/23 11:10:10.3     196   -442    320    484    580 156.1  36.5  34152  289.43 0855.17
2009/04/23 11:10:10.4     302   -460    240    551    601 146.7  25.1  34148  289.37 0855.17
2009/04/23 11:10:10.5     196   -430    235    473    528 155.5  28.5  34150  289.40 0855.17
2009/04/23 11:10:10.6     111   -363    287    380    476 163.0  40.8  34144  289.31 0855.17
2009/04/23 11:10:10.7     190   -345    189    394    436 151.1  27.3  34156  289.49 0855.17
2009/04/23 11:10:10.8     111   -438    177    453    486 165.7  22.4  34150  289.39 0855.17
2009/04/23 11:10:10.9     147   -403    219    430    482 160.0  29.1  34152  289.45 0855.17
2009/04/23 11:10:11.0     227   -395    171    456    487 150.1  21.5  34152  289.42 0855.17
2009/04/23 11:10:11.1     169   -383    147    419    445 156.2  19.3  34150  289.41 0855.17
2009/04/23 11:10:11.2     199   -325    117    382    400 148.5  17.0  34148  289.37 0855.17
2009/04/23 11:10:11.3     143   -338    118    368    387 157.1  17.8  34148  289.37 0855.17
2009/04/23 11:10:11.4     164   -345    158    383    414 154.5  23.7  34144  289.29 0855.17
2009/04/23 11:10:11.5     143   -338    164    368    402 157.1  25.8  34146  289.32 0855.16
2009/04/23 11:10:11.6      79   -295    177    306    353 164.9  32.7  34152  289.42 0855.16
2009/04/23 11:10:11.7      54   -317    189    322    373 170.2  33.0  34154  289.47 0855.16
2009/04/23 11:10:11.8      21   -277    152    278    316 175.5  31.0  34158  289.53 0855.16
2009/04/23 11:10:11.9      53   -236    194    242    310 167.3  43.0  34162  289.59 0855.16
2009/04/23 11:10:12.0      97   -267    181    285    337 160.0  35.5  34154  289.46 0855.16
2009/04/23 11:10:12.1      52   -256    183    262    319 168.5  38.4  34152  289.44 0855.16
2009/04/23 11:10:12.2     -10   -197    217    198    293 182.9  53.0  34154  289.47 0855.16
2009/04/23 11:10:12.3     -22   -108    125    111    167 191.5  53.7  34162  289.60 0855.16
2009/04/23 11:10:12.4      42   -148    111    154    189 164.0  39.5  34160  289.57 0855.16
2009/04/23 11:10:12.5       5    -92    126     93    156 176.9  59.8  34166  289.67 0855.15
2009/04/23 11:10:12.6      23    -66    101     70    122 160.8  62.1  34180  289.91 0855.15
2009/04/23 11:10:12.7     -59   -149    173    161    236 201.8  52.2  34156  289.52 0855.15
2009/04/23 11:10:12.8     -88   -153    216    177    279 209.9  56.4  34168  289.70 0855.15
2009/04/23 11:10:12.9     -84     33     70     91    114 291.7  41.7  34188  290.06 0855.15
2009/04/23 11:10:13.0     -80    197     33    213    216 337.9   8.9  34176  289.85 0855.15
2009/04/23 11:10:13.1    -172    179    -39    249    253 316.1  -9.0  34170  289.73 0855.15
2009/04/23 11:10:13.2    -146     92    -23    173    175 302.4  -7.7  34168  289.70 0855.15
2009/04/23 11:10:13.3    -103     63     33    121    126 301.5  15.2  34164  289.63 0855.15
2009/04/23 11:10:13.4    -308   -101    140    325    353 251.8  24.9  34172  289.77 0855.15
2009/04/23 11:10:13.5    -395    -37     72    397    404 264.5  10.4  34188  290.03 0855.15
2009/04/23 11:10:13.6    -359     72    -73    367    375 281.4 -11.3  34184  289.98 0855.15
2009/04/23 11:10:13.7    -323    -33    -23    325    326 264.1  -4.1  34172  289.76 0855.15
2009/04/23 11:10:13.8    -290      7   -107    291    310 271.5 -25.4  34198  290.20 0855.15
2009/04/23 11:10:13.9    -231    -62   -180    240    300 254.9 -45.1  34182  289.95 0855.15
2009/04/23 11:10:14.0    -260     69   -141    270    304 285.0 -33.9  34180  289.92 0855.15
2009/04/23 11:10:14.1    -316     63    -40    323    326 281.4  -7.2  34190  290.07 0855.15
2009/04/23 11:10:14.2    -422      4    -66    423    429 270.6  -8.9  34174  289.82 0855.15
2009/04/23 11:10:14.3    -371     66    -48    377    381 280.1  -7.3  34166  289.69 0855.15
2009/04/23 11:10:14.4    -375    100    -17    389    390 285.0  -2.6  34178  289.86 0855.15
2009/04/23 11:10:14.5    -298     46     31    302    304 278.8   5.9  34182  289.95 0855.16
2009/04/23 11:10:14.6    -380     15    -10    381    382 272.3  -1.6  34176  289.84 0855.16
2009/04/23 11:10:14.7    -355     71     20    363    364 281.4   3.3  34178  289.89 0855.16
2009/04/23 11:10:14.8    -244     37    114    247    272 278.8  26.6  34178  289.88 0855.16
2009/04/23 11:10:14.9    -283    -47     52    287    292 260.5  10.3  34178  289.88 0855.16
2009/04/23 11:10:15.0    -238   -151    -98    282    298 237.6 -24.3  34180  289.92 0855.16
2009/04/23 11:10:15.1    -253   -101    -93    273    289 248.2 -18.9  34182  289.93 0855.16
2009/04/23 11:10:15.2    -341     -7    119    342    363 268.7  19.2  34176  289.84 0855.16
2009/04/23 11:10:15.3    -343    -79    120    353    374 257.0  18.8  34170  289.74 0855.16
2009/04/23 11:10:15.4    -396    -27    108    397    412 266.0  15.3  34172  289.78 0855.16
2009/04/23 11:10:15.5    -480   -162    103    507    518 251.3  11.6  34168  289.71 0855.16
2009/04/23 11:10:15.6    -458   -122    -43    475    477 255.0  -5.2  34160  289.57 0855.16
2009/04/23 11:10:15.7    -418   -221    134    474    493 242.1  15.8  34176  289.83 0855.16
2009/04/23 11:10:15.8    -430   -264     13    505    506 238.5   1.5  34184  289.98 0855.16
2009/04/23 11:10:15.9    -384   -281     92    476    485 233.8  11.0  34170  289.74 0855.16
2009/04/23 11:10:16.0    -442   -243     95    505    515 241.2  10.7  34182  289.93 0855.16
2009/04/23 11:10:16.1    -414   -246     67    482    487 239.3   7.9  34176  289.83 0855.16
2009/04/23 11:10:16.2    -415   -225    -46    473    476 241.5  -5.6  34170  289.73 0855.16
2009/04/23 11:10:16.3    -335   -140    -47    364    368 247.3  -7.5  34174  289.81 0855.16
2009/04/23 11:10:16.4    -468     26   -130    469    487 273.3 -15.5  34194  290.15 0855.16
2009/04/23 11:10:16.5    -589     21    -53    590    593 272.1  -5.2  34190  290.08 0855.14
2009/04/23 11:10:16.6    -555      7   -188    556    588 270.8 -18.7  34152  289.42 0855.14
2009/04/23 11:10:16.7    -542   -154    -50    564    567 254.1  -5.1  34184  289.99 0855.14
2009/04/23 11:10:16.8    -451    -77   -144    458    480 260.3 -22.4  34200  290.25 0855.14
2009/04/23 11:10:16.9    -651   -218   -160    687    706 251.4 -13.1  34178  289.89 0855.14
2009/04/23 11:10:17.0    -496   -224    -89    545    553 245.7  -9.3  34172  289.77 0855.14
2009/04/23 11:10:17.1    -547   -106    -34    558    560 259.0  -3.5  34158  289.53 0855.14
2009/04/23 11:10:17.2    -593   -103   -121    603    616 260.1 -11.3  34180  289.91 0855.14
2009/04/23 11:10:17.3    -508    -83   -164    515    541 260.7 -17.7  34198  290.21 0855.14
2009/04/23 11:10:17.4    -523   -151   -250    545    599 253.9 -30.7  34150  289.39 0855.14
2009/04/23 11:10:17.5    -431   -211   -186    480    514 243.9 -26.7  34198  290.22 0855.14
2009/04/23 11:10:17.6    -299   -141    -91    331    344 244.6 -15.5  34194  290.16 0855.14
2009/04/23 11:10:17.7    -239    -73    -89    251    267 252.9 -19.6  34186  290.00 0855.14
2009/04/23 11:10:17.8    -250   -170    -72    303    312 235.8 -13.4  34164  289.64 0855.14
2009/04/23 11:10:17.9    -343    -69     49    350    354 258.5   8.0  34158  289.55 0855.14
2009/04/23 11:10:18.0    -450   -212   -101    498    509 244.8 -11.5  34188  290.06 0855.14
2009/04/23 11:10:18.1    -398    -41   -142    401    426 264.1 -19.5  34162  289.61 0855.14
2009/04/23 11:10:18.2    -347    -15   -112    348    366 267.4 -17.9  34202  290.28 0855.14
2009/04/23 11:10:18.3    -180    -13   -216    181    281 265.6 -60.2  34196  290.17 0855.14
2009/04/23 11:10:18.4    -233   -221   -179    322    368 226.4 -35.8  34214  290.50 0855.14
2009/04/23 11:10:18.5     -83   -265   -195    278    339 197.6 -42.9  34200  290.26 0855.14
2009/04/23 11:10:18.6     -96   -231   -126    251    280 202.7 -33.1  34212  290.46 0855.14
2009/04/23 11:10:18.7    -163   -197    -90    257    272 219.6 -24.0  34198  290.22 0855.14
2009/04/23 11:10:18.8    -181   -292   -102    344    358 211.9 -21.5  34166  289.69 0855.14
2009/04/23 11:10:18.9    -139   -283    -68    316    324 206.3 -12.2  34180  289.90 0855.14
2009/04/23 11:10:19.0       5   -379   -118    380    397 179.1 -22.3  34162  289.62 0855.14
2009/04/23 11:10:19.1      50   -390    -15    394    395 172.6  -2.2  34172  289.77 0855.14
2009/04/23 11:10:19.2    -123   -309     13    333    334 201.7   2.3  34166  289.67 0855.14
2009/04/23 11:10:19.3       8   -337     -5    338    339 178.6  -0.9  34172  289.77 0855.14
2009/04/23 11:10:19.4      13   -422    -90    423    433 178.2 -12.0  34152  289.43 0855.14
2009/04/23 11:10:19.5      40   -329     16    332    333 173.0   2.8  34152  289.42 0855.14
2009/04/23 11:10:19.6      19   -320     -3    321    322 176.6  -0.6  34156  289.49 0855.14
2009/04/23 11:10:19.7      77   -382    -26    390    391 168.5  -3.9  34156  289.50 0855.14
2009/04/23 11:10:19.8      12   -453     38    454    456 178.4   4.9  34156  289.51 0855.14
2009/04/23 11:10:19.9     178   -401    102    439    451 156.1  13.1  34150  289.39 0855.14
2009/04/23 11:10:20.0     140   -394     61    419    424 160.4   8.3  34136  289.17 0855.14
2009/04/23 11:10:20.1     191   -417    -17    459    460 155.4  -2.2  34140  289.22 0855.14
2009/04/23 11:10:20.2     293   -459     91    545    553 147.4   9.5  34134  289.13 0855.14
2009/04/23 11:10:20.3     279   -447    115    528    541 148.0  12.4  34134  289.13 0855.14
2009/04/23 11:10:20.4     265   -496    136    563    580 151.9  13.6  34134  289.12 0855.14
2009/04/23 11:10:20.5     408   -277    216    494    539 124.2  25.2  34136  289.18 0855.13
2009/04/23 11:10:20.6     371   -168    141    408    432 114.4  19.1  34134  289.12 0855.13
2009/04/23 11:10:20.7     300   -238     67    384    391 128.4  10.0  34138  289.21 0855.13
2009/04/23 11:10:20.8     303   -303    104    429    442 135.0  13.7  34132  289.11 0855.13
2009/04/23 11:10:20.9     159   -508    106    533    544 162.6  11.3  34122  288.94 0855.13
2009/04/23 11:10:21.0     200   -476    -15    517    518 157.2  -1.7  34136  289.15 0855.13
2009/04/23 11:10:21.1     297   -467     35    554    556 147.5   3.6  34142  289.26 0855.13
2009/04/23 11:10:21.2     395   -356     81    533    540 132.0   8.7  34124  288.97 0855.13
2009/04/23 11:10:21.3     341   -349    164    489    517 135.7  18.6  34120  288.90 0855.13
2009/04/23 11:10:21.4     354   -354    181    501    532 135.0  20.8  34120  288.89 0855.13
2009/04/23 11:10:21.5     354   -413    102    545    555 139.4  10.6  34116  288.84 0855.13
2009/04/23 11:10:21.6     233   -510     11    561    562 155.4   1.2  34124  288.97 0855.13
2009/04/23 11:10:21.7     282   -410      1    498    499 145.5   0.2  34116  288.83 0855.13
2009/04/23 11:10:21.8     319   -357      3    479    480 138.2   0.4  34130  289.08 0855.13
2009/04/23 11:10:21.9     149   -313   -115    347    365 154.5 -23.7  34152  289.45 0855.13
2009/04/23 11:10:22.0     187   -226    -76    294    304 140.3 -14.5  34152  289.42 0855.13
2009/04/23 11:10:22.1     285   -188    -22    342    343 123.4  -3.8  34142  289.25 0855.13
2009/04/23 11:10:22.2     152   -173   -143    231    271 138.6 -39.6  34150  289.39 0855.13
2009/04/23 11:10:22.3     221   -112   -120    248    275 116.9 -31.8  34154  289.47 0855.13
2009/04/23 11:10:22.4     182   -119    -52    218    225 123.1 -13.4  34156  289.52 0855.13
2009/04/23 11:10:22.5     168   -106   -147    199    247 122.4 -44.5  34162  289.59 0855.12
2009/04/23 11:10:22.6     224   -142    -85    266    279 122.4 -22.8  34154  289.46 0855.12
2009/04/23 11:10:22.7     234   -181    -64    297    304 127.8 -12.2  34154  289.46 0855.12
2009/04/23 11:10:22.8     246   -178    -34    304    306 125.9  -6.5  34144  289.31 0855.12
2009/04/23 11:10:22.9     213   -212    -88    301    314 134.8 -16.4  34154  289.46 0855.12
2009/04/23 11:10:23.0     135   -296    -68    326    334 155.5 -11.8  34160  289.57 0855.12
2009/04/23 11:10:23.1     146   -352    -18    382    383 157.4  -2.8  34142  289.25 0855.12
2009/04/23 11:10:23.2     100   -489    -16    500    501 168.4  -1.9  34140  289.22 0855.12
2009/04/23 11:10:23.3      60   -405      2    410    411 171.5   0.4  34142  289.26 0855.12
2009/04/23 11:10:23.4      70   -345     -7    353    354 168.4  -1.2  34138  289.21 0855.12
2009/04/23 11:10:23.5      18   -378    -41    379    382 177.2  -6.3  34142  289.28 0855.12
2009/04/23 11:10:23.6      53   -261    -84    267    281 168.4 -17.6  34144  289.29 0855.12
2009/04/23 11:10:23.7      12   -268   -111    269    291 177.4 -28.2  34146  289.34 0855.12
2009/04/23 11:10:23.8     -11   -214    -94    215    234 183.1 -29.5  34152  289.43 0855.12
2009/04/23 11:10:23.9      53   -161    -85    170    190 161.5 -32.6  34148  289.38 0855.12
2009/04/23 11:10:24.0      44   -134    -42    142    149 161.7 -16.6  34150  289.40 0855.12
2009/04/23 11:10:24.1      62   -131     42    146    153 154.5  16.3  34144  289.30 0855.12
2009/04/23 11:10:24.2     102   -143    153    176    233 144.4  45.6  34148  289.38 0855.12
2009/04/23 11:10:24.3     129   -166    110    211    237 142.2  29.8  34146  289.35 0855.12
2009/04/23 11:10:24.4      47   -193     98    199    221 166.2  28.0  34150  289.40 0855.12
2009/04/23 11:10:24.5      -6   -176     84    177    195 182.2  27.2  34144  289.30 0855.11
2009/04/23 11:10:24.6     -24   -287     36    289    292 184.9   7.1  34148  289.36 0855.11
2009/04/23 11:10:24.8     -54   -322     20    327    328 189.6   3.6  34150  289.41 0855.11
2009/04/23 11:10:24.8     -22   -290     25    291    293 184.4   5.0  34150  289.41 0855.11
2009/04/23 11:10:24.9      64   -207     -2    217    218 162.8  -0.7  34148  289.36 0855.11
2009/04/23 11:10:25.0      42   -206    -43    211    216 168.4 -11.5  34152  289.43 0855.11
2009/04/23 11:10:25.1      30   -172    -19    175    177 170.0  -6.2  34150  289.41 0855.11
2009/04/23 11:10:25.2     107   -238     57    262    269 155.7  12.4  34134  289.12 0855.11
2009/04/23 11:10:25.3     119   -209     61    241    249 150.4  14.3  34130  289.05 0855.11
2009/04/23 11:10:25.4      55   -126     82    138    160 156.4  33.5  34128  289.02 0855.11
2009/04/23 11:10:25.5      19   -174     65    176    187 173.5  21.0  34136  289.16 0855.11
2009/04/23 11:10:25.6      46   -116     10    126    127 158.2   4.9  34132  289.11 0855.11
2009/04/23 11:10:25.7     -36   -134     49    139    148 195.1  19.4  34134  289.13 0855.11
2009/04/23 11:10:25.8     -45   -101     86    111    140 204.1  41.7  34140  289.23 0855.11
2009/04/23 11:10:25.9     -68    -66     37     95    101 226.0  22.5  34146  289.33 0855.11
2009/04/23 11:10:26.0     -44    -17     32     48     57 248.3  35.6  34150  289.40 0855.11
2009/04/23 11:10:26.1     -60    -20     39     64     74 251.4  35.5  34144  289.31 0855.11
2009/04/23 11:10:26.2     -24    -16     58     30     65 235.8  69.8  34150  289.40 0855.11
2009/04/23 11:10:26.3     -32     -7     22     33     39 256.7  36.5  34158  289.55 0855.11
2009/04/23 11:10:26.4       3     13      3     14     15  15.1  15.3  34160  289.57 0855.11
2009/04/23 11:10:26.5      -1      2     18      3     18 327.5  90.0  34152  289.43 0855.12
2009/04/23 11:10:26.6       0    -43     -1     44     45 180.9  -2.2  34152  289.45 0855.12
2009/04/23 11:10:26.7     -22    -17    -10     28     30 232.2 -19.7  34148  289.38 0855.12
2009/04/23 11:10:26.8     -15    -33     -2     37     38 205.4  -3.1  34148  289.38 0855.12
2009/04/23 11:10:26.9     -68     27     -1     74     75 291.8  -1.3  34154  289.48 0855.12
2009/04/23 11:10:27.0     -60     16     21     63     67 285.1  18.9  34156  289.52 0855.12
2009/04/23 11:10:27.1     -79    -11     28     80     85 262.1  19.4  34162  289.60 0855.12
2009/04/23 11:10:27.2    -151    -84    -25    173    175 240.9  -8.2  34186  290.01 0855.12
2009/04/23 11:10:27.3    -143    -43    -96    150    178 253.1 -40.0  34200  290.25 0855.12
2009/04/23 11:10:27.4     -76    -37    -35     85     91 243.8 -28.0  34196  290.19 0855.12
2009/04/23 11:10:27.5     -84    -58     38    103    109 235.4  20.4  34200  290.25 0855.12
2009/04/23 11:10:27.6     -96    -35     45    103    112 249.6  25.1  34186  290.02 0855.12
2009/04/23 11:10:27.7    -130    -67     66    147    161 242.5  25.7  34170  289.75 0855.12
2009/04/23 11:10:27.8    -156    -61     83    168    187 248.7  27.8  34194  290.14 0855.12
2009/04/23 11:10:27.9    -287      0    -55    288    294 270.0 -10.9  34208  290.39 0855.12
2009/04/23 11:10:28.0    -279     20    -84    280    293 274.3 -16.8  34208  290.37 0855.12
2009/04/23 11:10:28.1    -257      6    -47    258    263 271.5 -10.4  34194  290.14 0855.12
2009/04/23 11:10:28.2    -267     13    -58    268    275 272.8 -12.4  34194  290.15 0855.12
2009/04/23 11:10:28.3    -287     53      9    292    293 280.6   1.8  34210  290.41 0855.12
2009/04/23 11:10:28.4    -305     92     16    319    320 286.9   2.9  34188  290.03 0855.12
2009/04/23 11:10:28.5    -321    209    -18    384    385 303.1  -2.8  34162  289.59 0855.13
2009/04/23 11:10:28.6    -268    265     14    378    379 314.7   2.2  34162  289.59 0855.13
2009/04/23 11:10:28.7    -215    235    108    319    338 317.5  18.8  34152  289.43 0855.13
2009/04/23 11:10:28.8    -263    144     87    300    313 298.8  16.3  34154  289.47 0855.13
2009/04/23 11:10:28.9    -302    144    103    335    351 295.5  17.2  34154  289.48 0855.13
2009/04/23 11:10:29.0    -275    156    140    317    346 299.5  25.3  34152  289.42 0855.13
2009/04/23 11:10:29.1    -197    139    160    242    290 305.3  36.5  34148  289.37 0855.13
2009/04/23 11:10:29.2    -183    152    157    239    285 309.8  36.5  34158  289.53 0855.13
2009/04/23 11:10:29.3    -165    136    121    215    246 309.5  32.1  34164  289.63 0855.13
2009/04/23 11:10:29.4    -171    193    210    258    332 318.5  43.4  34166  289.68 0855.13
2009/04/23 11:10:29.5    -114    140    118    181    216 320.8  36.0  34164  289.63 0855.13
2009/04/23 11:10:29.6     -95    115     53    150    160 320.4  19.4  34164  289.63 0855.13
2009/04/23 11:10:29.7    -234     40      5    238    239 279.9   1.2  34164  289.64 0855.13
2009/04/23 11:10:29.8    -286    108    -22    306    307 290.8  -4.1  34168  289.70 0855.13
2009/04/23 11:10:29.9    -234     32     52    237    243 277.9  12.4  34186  290.02 0855.13
2009/04/23 11:10:30.0    -362   -119     79    382    391 251.7  11.8  34196  290.18 0855.13
2009/04/23 11:10:30.1    -351   -226     52    418    422 237.2   7.1  34188  290.04 0855.13
2009/04/23 11:10:30.2    -326   -161     78    364    373 243.6  12.2  34182  289.94 0855.13
2009/04/23 11:10:30.3    -305   -143     16    338    339 244.8   2.8  34180  289.91 0855.13
2009/04/23 11:10:30.4    -285   -135      2    316    317 244.7   0.4  34172  289.76 0855.13
2009/04/23 11:10:30.5    -330    -34    -59    332    338 264.1 -10.1  34182  289.94 0855.13
2009/04/23 11:10:30.6    -295    -59    -63    301    308 258.6 -11.9  34202  290.27 0855.13
2009/04/23 11:10:30.7    -303    -95      2    318    319 252.5   0.5  34194  290.15 0855.13
2009/04/23 11:10:30.8    -184   -117    -43    219    224 237.5 -11.1  34182  289.96 0855.13
2009/04/23 11:10:30.9    -150   -133      9    201    202 228.4   2.8  34168  289.70 0855.13
2009/04/23 11:10:31.0    -240   -106    -33    263    266 246.0  -7.3  34190  290.07 0855.13
2009/04/23 11:10:31.1    -218    -58    -71    226    238 255.0 -17.5  34206  290.36 0855.13
2009/04/23 11:10:31.2    -281    -25    -85    283    295 264.8 -21.7  34194  290.14 0855.13
2009/04/23 11:10:31.3    -216     -1    -38    217    221 269.6 -10.1  34194  290.14 0855.13
2009/04/23 11:10:31.4    -257     32    -30    260    262 277.1  -6.7  34196  290.17 0855.13
2009/04/23 11:10:31.5    -214     16      4    215    216 274.3   1.2  34202  290.28 0855.13
2009/04/23 11:10:31.6    -226      3     46    227    232 270.8  11.6  34200  290.26 0855.13
2009/04/23 11:10:31.7    -277    -46    -36    281    284 260.4  -7.5  34192  290.10 0855.13
2009/04/23 11:10:31.8    -298    -25    -55    300    306 265.2 -10.5  34186  290.00 0855.13
2009/04/23 11:10:31.9    -440   -161    -94    469    479 249.8 -11.3  34164  289.64 0855.13
2009/04/23 11:10:32.0    -398   -111   -190    414    455 254.3 -30.7  34162  289.60 0855.13
2009/04/23 11:10:32.1    -361   -240   -214    434    483 236.3 -32.6  34162  289.61 0855.13
2009/04/23 11:10:32.2    -412    -83   -411    421    588 258.6 -53.7  34140  289.23 0855.13
2009/04/23 11:10:32.3    -314   -162   -388    354    525 242.7 -57.4  34146  289.34 0855.13
2009/04/23 11:10:32.4      25   -382   -213    383    438 176.2 -35.9  34142  289.26 0855.13
2009/04/23 11:10:32.5     112   -441    -77    456    463 165.7  -9.6  34136  289.17 0855.11
2009/04/23 11:10:32.6      70   -448   -161    454    482 171.1 -19.6  34142  289.27 0855.11
2009/04/23 11:10:32.7    -151   -255   -223    297    371 210.7 -45.1  34146  289.35 0855.11
2009/04/23 11:10:32.8      26   -332   -209    334    394 175.5 -39.4  34148  289.38 0855.11
2009/04/23 11:10:32.9     -48   -205    -77    211    224 193.4 -25.3  34168  289.70 0855.11
2009/04/23 11:10:33.0     104   -290    -95    309    323 160.2 -22.1  34178  289.86 0855.11
2009/04/23 11:10:33.1     266   -238    318    358    478 131.8  46.2  34166  289.66 0855.11
2009/04/23 11:10:33.2     172   -189    276    256    376 137.6  52.2  34182  289.96 0855.11
2009/04/23 11:10:33.3     150   -170    269    227    351 138.6  55.7  34208  290.39 0855.11
2009/04/23 11:10:33.4      12      0    272     13    272  94.4  90.0  34218  290.57 0855.11
2009/04/23 11:10:33.5    -120   -203    217    237    321 210.7  47.3  34164  289.63 0855.09
2009/04/23 11:10:33.6    -192   -153    109    246    269 231.4  25.7  34156  289.49 0855.09
2009/04/23 11:10:33.7     -98   -130    164    164    231 217.0  50.1  34162  289.62 0855.09
2009/04/23 11:10:33.8     -70   -125    112    144    182 209.4  41.7  34186  290.01 0855.09
2009/04/23 11:10:33.9    -179   -137    149    226    270 232.5  36.3  34186  290.00 0855.09
2009/04/23 11:10:34.0    -154   -175    119    234    262 221.5  29.2  34174  289.80 0855.09
2009/04/23 11:10:34.1     -67    -32     84     75    112 244.6  53.3  34180  289.92 0855.09
2009/04/23 11:10:34.2      16     35     55     39     67  25.4  60.6  34186  290.01 0855.09
2009/04/23 11:10:34.3    -145    -71     46    162    169 243.8  15.8  34178  289.89 0855.09
2009/04/23 11:10:34.4    -123    -81     40    148    154 236.7  15.2  34182  289.96 0855.09
2009/04/23 11:10:34.5    -117    -22     -7    120    121 259.4  -3.7  34186  290.01 0855.09
2009/04/23 11:10:34.6    -103   -192     26    219    221 208.3   6.9  34170  289.74 0855.09
2009/04/23 11:10:34.7    -137   -163     40    214    218 220.1  10.8  34170  289.74 0855.09
2009/04/23 11:10:34.8    -165   -208     81    266    279 218.5  17.1  34164  289.63 0855.09
2009/04/23 11:10:34.9    -128   -170    101    214    236 217.0  27.1  34166  289.69 0855.09
2009/04/23 11:10:35.0    -134   -185    163    229    281 215.8  38.8  34174  289.80 0855.09
2009/04/23 11:10:35.1     -64   -139     76    154    171 204.9  28.0  34180  289.91 0855.09
2009/04/23 11:10:35.2     -43    -65     86     79    116 213.4  52.2  34180  289.91 0855.09
2009/04/23 11:10:35.3    -111    -19    124    113    167 259.9  53.0  34186  290.02 0855.09
2009/04/23 11:10:35.4    -111     25     68    114    132 282.8  34.0  34194  290.14 0855.09
2009/04/23 11:10:35.5    -107    160     84    193    210 326.2  25.1  34196  290.18 0855.11
2009/04/23 11:10:35.6    -197    109     43    226    231 298.9  10.8  34162  289.62 0855.11
2009/04/23 11:10:35.7    -181     65    -74    193    206 289.7 -26.4  34162  289.62 0855.11
2009/04/23 11:10:35.8    -381     71   -143    388    413 280.6 -25.5  34142  289.26 0855.11
2009/04/23 11:10:35.9    -374    111   -117    391    409 286.6 -16.7  34154  289.48 0855.11
2009/04/23 11:10:36.0    -427      6   -117    428    444 270.9 -15.4  34164  289.63 0855.11
2009/04/23 11:10:36.1    -484    105   -114    496    510 282.3 -13.0  34166  289.69 0855.11
2009/04/23 11:10:36.2    -489     15   -168    490    519 271.8 -19.0  34156  289.50 0855.11
2009/04/23 11:10:36.3    -391    171   -173    427    460 293.6 -27.6  34172  289.77 0855.11
2009/04/23 11:10:36.4    -414    121   -201    432    476 286.3 -31.0  34148  289.38 0855.11
2009/04/23 11:10:36.5    -498     74   -196    504    540 278.5 -26.9  34146  289.35 0855.11
2009/04/23 11:10:36.6    -462    -93   -198    472    511 258.6 -28.6  34156  289.52 0855.11
2009/04/23 11:10:36.7    -400   -252    -96    473    484 237.8 -11.6  34198  290.20 0855.11
2009/04/23 11:10:36.8    -263   -242   -108    358    374 227.4 -16.8  34202  290.28 0855.11
2009/04/23 11:10:36.9    -174   -257     12    311    312 214.2   2.2  34208  290.39 0855.11
2009/04/23 11:10:37.0    -138   -253     14    289    290 208.7   2.9  34196  290.17 0855.11
2009/04/23 11:10:37.1    -257   -254    -20    362    363 225.3  -3.2  34174  289.82 0855.11
2009/04/23 11:10:37.2    -157   -215    -91    267    283 216.1 -18.9  34164  289.63 0855.11
2009/04/23 11:10:37.3    -149   -204    -51    253    259 216.1 -11.5  34166  289.68 0855.11
2009/04/23 11:10:37.4    -119   -211    -70    243    252 209.4 -20.8  34150  289.41 0855.11
2009/04/23 11:10:37.5     -36   -227    -13    230    231 189.1  -3.3  34156  289.50 0855.13
2009/04/23 11:10:37.7     -51   -195     -7    202    203 194.7  -2.2  34152  289.45 0855.13
2009/04/23 11:10:37.8     -92   -150     16    177    178 211.6   5.4  34172  289.77 0855.13
2009/04/23 11:10:37.9    -167   -235     66    289    297 215.4  12.9  34176  289.85 0855.13
2009/04/23 11:10:38.0    -186   -247    -12    310    311 217.0  -2.2  34220  290.59 0855.13
2009/04/23 11:10:38.1     -18   -335      5    336    337 183.2   1.0  34172  289.79 0855.13
2009/04/23 11:10:38.2     -43   -306     -6    310    311 188.1  -1.3  34242  290.95 0855.13
2009/04/23 11:10:38.3     -98    -81    -26    128    131 230.5 -11.9  34240  290.92 0855.13
2009/04/23 11:10:38.4     -78   -172    -81    190    206 204.5 -29.0  34176  289.85 0855.13
2009/04/23 11:10:38.5    -238   -251    -44    347    350 223.5  -7.3  34208  290.37 0855.13
2009/04/23 11:10:38.6    -450   -105    -62    463    468 256.8  -7.7  34208  290.39 0855.13
2009/04/23 11:10:38.7    -219    -78   -183    233    296 250.3 -46.4  34188  290.03 0855.13
2009/04/23 11:10:38.8    -369   -122   -114    389    406 251.7 -16.4  34212  290.45 0855.13
2009/04/23 11:10:38.9    -309   -262    -15    406    407 229.7  -2.2  34194  290.14 0855.13
2009/04/23 11:10:39.0    -293   -436    -40    526    528 213.9  -4.4  34192  290.11 0855.13
2009/04/23 11:10:39.1    -213   -448    -10    497    498 205.5  -1.3  34182  289.93 0855.13
2009/04/23 11:10:39.2    -189   -445   -104    484    496 203.0 -12.2  34176  289.83 0855.13
2009/04/23 11:10:39.3    -199   -337    206    392    442 210.7  30.0  34172  289.77 0855.13
2009/04/23 11:10:39.4    -281   -309    180    418    455 222.3  24.9  34172  289.78 0855.13
2009/04/23 11:10:39.5    -160   -219    197    272    335 216.1  39.5  34180  289.90 0855.13
2009/04/23 11:10:39.6    -221   -244    189    330    380 222.2  32.4  34174  289.82 0855.15
2009/04/23 11:10:39.7    -350   -278    233    448    504 231.5  29.6  34170  289.74 0855.15
2009/04/23 11:10:39.8    -384    -92    240    395    462 256.4  34.2  34178  289.87 0855.15
2009/04/23 11:10:39.9    -427    -76    184    434    471 259.9  24.5  34188  290.05 0855.15
2009/04/23 11:10:40.0    -475    -65    173    480    511 262.2  19.9  34180  289.91 0855.15
2009/04/23 11:10:40.1    -581    -56     97    584    593 264.4   9.5  34194  290.14 0855.15
2009/04/23 11:10:40.2    -377   -165    166    412    444 246.4  23.1  34172  289.78 0855.15
2009/04/23 11:10:40.3    -307    -89    180    320    367 253.8  31.9  34164  289.65 0855.15
2009/04/23 11:10:40.4    -369    147    102    398    411 291.8  14.4  34164  289.65 0855.15
2009/04/23 11:10:40.5    -430     20    152    431    457 272.8  20.1  34172  289.77 0855.15
2009/04/23 11:10:40.6    -294    -22    134    295    324 265.6  26.2  34166  289.68 0855.15
2009/04/23 11:10:40.7    -296     25     20    298    299 275.0   3.9  34170  289.73 0855.15
2009/04/23 11:10:40.8    -291    -17     16    292    293 266.5   3.3  34166  289.66 0855.15
2009/04/23 11:10:40.9    -301   -129     -6    328    329 246.7  -1.2  34188  290.03 0855.15
2009/04/23 11:10:41.0    -516   -146   -126    537    552 254.2 -13.3  34152  289.43 0855.15
2009/04/23 11:10:41.1    -481   -149   -140    504    524 252.7 -15.5  34154  289.47 0855.15
2009/04/23 11:10:41.2    -455   -214   -108    503    515 244.8 -12.2  34154  289.47 0855.15
2009/04/23 11:10:41.3    -419   -209   -145    469    491 243.5 -17.2  34160  289.57 0855.15
2009/04/23 11:10:41.4    -349   -223   -138    415    437 237.4 -23.7  34178  289.87 0855.15
2009/04/23 11:10:41.5    -284   -207    -99    352    366 233.9 -15.8  34172  289.79 0855.15
2009/04/23 11:10:41.6    -209   -210    -82    297    309 224.8 -15.5  34172  289.78 0855.16
2009/04/23 11:10:41.7    -234   -316    -38    394    396 216.6  -5.6  34172  289.79 0855.16
2009/04/23 11:10:41.8    -396   -271   -115    480    494 235.6 -13.6  34176  289.84 0855.16
2009/04/23 11:10:41.9    -293   -378   -104    479    491 217.8 -12.3  34164  289.64 0855.16
2009/04/23 11:10:42.0    -240   -217   -172    324    366 227.8 -34.6  34148  289.37 0855.16
2009/04/23 11:10:42.1    -556    -42   -188    558    588 265.7 -23.7  34146  289.34 0855.16
2009/04/23 11:10:42.2    -625   -223   -206    664    696 250.3 -17.3  34152  289.44 0855.16
2009/04/23 11:10:42.3    -661   -206   -191    693    718 252.7 -20.1  34156  289.50 0855.16
2009/04/23 11:10:42.4    -585   -378   -162    697    716 237.1 -13.1  34162  289.59 0855.16
2009/04/23 11:10:42.5    -418   -236    -94    481    491 240.6 -11.1  34158  289.54 0855.16
2009/04/23 11:10:42.6    -418   -361   -167    553    578 229.2 -16.8  34164  289.63 0855.16
2009/04/23 11:10:42.7    -328   -328   -104    465    477 225.0 -12.7  34162  289.61 0855.16
2009/04/23 11:10:42.8    -275   -406    -93    491    500 214.2 -10.8  34162  289.62 0855.16
2009/04/23 11:10:42.9    -323   -395   -180    511    542 219.2 -19.4  34164  289.63 0855.16
2009/04/23 11:10:43.0    -280   -251   -144    377    403 228.1 -26.4  34138  289.21 0855.16
2009/04/23 11:10:43.1    -477   -346    -42    590    592 234.0  -4.1  34146  289.34 0855.16
2009/04/23 11:10:43.2    -498   -194   -203    535    572 248.7 -26.4  34134  289.14 0855.16
2009/04/23 11:10:43.3    -663    127   -213    676    709 280.9 -17.5  34128  289.03 0855.16
2009/04/23 11:10:43.4    -563    109    -35    574    576 281.0  -3.5  34152  289.42 0855.16
2009/04/23 11:10:43.5    -590    114    -53    601    604 281.0  -5.1  34124  288.97 0855.16
2009/04/23 11:10:43.6    -473      7    -14    474    475 270.9  -1.8  34128  289.03 0855.15
2009/04/23 11:10:43.7    -307     -9    107    308    327 268.3  19.2  34148  289.36 0855.15
2009/04/23 11:10:43.8    -166    -27     -4    169    170 260.5  -1.6  34152  289.43 0855.15
2009/04/23 11:10:43.9    -309   -192    -33    364    366 238.1  -5.2  34166  289.69 0855.15
2009/04/23 11:10:44.0    -332   -122    -74    354    362 249.8 -11.9  34168  289.71 0855.15
2009/04/23 11:10:44.1    -303   -105    -81    321    332 250.8 -14.3  34172  289.78 0855.15
2009/04/23 11:10:44.2    -193   -241    -59    309    315 218.7 -10.9  34166  289.68 0855.15
2009/04/23 11:10:44.3    -143   -232    -44    273    277 211.7  -9.3  34166  289.66 0855.15
2009/04/23 11:10:44.4    -102   -245    -14    266    267 202.7  -3.1  34162  289.61 0855.15
2009/04/23 11:10:44.5     -90   -262    -24    278    280 199.1  -5.1  34160  289.58 0855.15
2009/04/23 11:10:44.6    -119   -222    -55    253    260 208.3 -12.4  34162  289.59 0855.15
2009/04/23 11:10:44.7    -125   -158    -68    202    214 218.3 -18.7  34160  289.57 0855.15
2009/04/23 11:10:44.8    -116   -165    -30    202    205 215.2  -8.6  34166  289.67 0855.15
2009/04/23 11:10:44.9    -110   -117    -37    161    166 223.2 -13.2  34162  289.60 0855.15
2009/04/23 11:10:45.0    -183    -46    -77    189    204 255.8 -27.5  34150  289.41 0855.15
2009/04/23 11:10:45.1    -141      4    -74    142    160 271.7 -34.2  34150  289.41 0855.15
2009/04/23 11:10:45.2     -36    -61     -3     72     73 210.7  -3.1  34158  289.53 0855.15
2009/04/23 11:10:45.3       2    -93     15     94     96 178.2   9.5  34162  289.60 0855.15
2009/04/23 11:10:45.4     -16   -215    -63    216    225 184.5 -21.2  34158  289.55 0855.15
2009/04/23 11:10:45.5    -169   -196   -175    259    312 220.8 -41.7  34150  289.41 0855.15
2009/04/23 11:10:45.6    -144    -91   -207    171    268 237.5 -60.8  34164  289.63 0855.15
2009/04/23 11:10:45.7      20   -188    -67    190    201 173.8 -24.4  34154  289.48 0855.15
2009/04/23 11:10:45.8     -46   -395   -138    398    421 186.7 -24.3  34158  289.55 0855.15
2009/04/23 11:10:45.9    -152   -349   -100    381    394 203.6 -14.8  34156  289.50 0855.15
2009/04/23 11:10:46.0    -120   -420    157    438    465 196.0  20.6  34156  289.49 0855.15
2009/04/23 11:10:46.1    -282   -246    148    375    403 229.0  22.7  34134  289.13 0855.15
2009/04/23 11:10:46.2    -404   -195    -91    449    459 244.2 -11.6  34128  289.02 0855.15
2009/04/23 11:10:46.3    -426   -232    -65    486    491 241.4  -7.7  34136  289.15 0855.15
2009/04/23 11:10:46.4    -457   -266    -71    529    534 239.8  -7.7  34128  289.02 0855.15
2009/04/23 11:10:46.5    -419   -215    -85    471    479 242.8 -10.2  34130  289.08 0855.15
2009/04/23 11:10:46.6    -409   -186   -137    450    471 245.6 -16.9  34134  289.14 0855.15
2009/04/23 11:10:46.7    -512    -90   -194    521    555 260.0 -25.8  34146  289.35 0855.15
2009/04/23 11:10:46.8    -489     -6    -81    490    497 269.3  -9.4  34182  289.95 0855.15
2009/04/23 11:10:46.9    -391    -33    -65    393    399 265.1  -9.4  34178  289.86 0855.15
2009/04/23 11:10:47.0    -516    -83   -144    523    543 260.8 -15.4  34154  289.46 0855.15
2009/04/23 11:10:47.1    -521   -167    -90    548    556 252.2  -9.4  34180  289.92 0855.15
2009/04/23 11:10:47.2    -548   -165   -147    573    592 253.2 -14.4  34172  289.76 0855.15
2009/04/23 11:10:47.3    -530   -212   -119    571    584 248.2 -11.8  34190  290.08 0855.15
2009/04/23 11:10:47.4    -540   -235   -137    589    605 246.5 -13.2  34180  289.91 0855.15
2009/04/23 11:10:47.5    -566   -183   -172    595    620 252.1 -16.2  34160  289.58 0855.15
2009/04/23 11:10:47.6    -580   -367    -95    687    694 237.7  -7.9  34164  289.65 0855.16
2009/04/23 11:10:47.7    -413   -303    -94    513    522 233.8 -10.4  34162  289.62 0855.16
2009/04/23 11:10:47.8    -376   -106   -105    391    405 254.2 -15.1  34168  289.71 0855.16
2009/04/23 11:10:47.9    -471   -152   -177    495    525 252.1 -24.8  34142  289.28 0855.16
2009/04/23 11:10:48.0    -395    -80   -149    404    430 258.4 -25.4  34156  289.51 0855.16
2009/04/23 11:10:48.1    -358   -146   -127    387    408 247.7 -18.2  34172  289.77 0855.16
2009/04/23 11:10:48.2    -424   -102   -131    437    456 256.5 -21.7  34178  289.87 0855.16
2009/04/23 11:10:48.3    -479    -66   -226    484    534 262.1 -31.4  34162  289.62 0855.16
2009/04/23 11:10:48.4    -452     27   -169    453    483 273.5 -25.9  34166  289.69 0855.16
2009/04/23 11:10:48.5    -465    -35   -285    467    547 265.6 -38.8  34148  289.36 0855.16
2009/04/23 11:10:48.6    -461    -49   -236    464    520 263.9 -33.6  34150  289.39 0855.16
2009/04/23 11:10:48.7    -360   -161   -184    395    435 245.9 -31.0  34164  289.65 0855.16
2009/04/23 11:10:48.8    -486   -282   -162    562    584 239.9 -20.9  34174  289.81 0855.16
2009/04/23 11:10:48.9    -528   -227   -235    575    621 246.7 -27.9  34184  289.98 0855.16
2009/04/23 11:10:49.0    -572   -369   -215    681    714 237.2 -22.6  34180  289.91 0855.16
2009/04/23 11:10:49.1    -573   -341   -105    667    676 239.2  -9.0  34186  290.00 0855.16
2009/04/23 11:10:49.2    -479   -124    181    495    527 255.4  21.0  34184  289.98 0855.16
2009/04/23 11:10:49.3    -361   -227    -56    427    431 237.9  -7.5  34200  290.24 0855.16
2009/04/23 11:10:49.4    -359   -244     12    435    436 235.8   1.7  34182  289.95 0855.16
2009/04/23 11:10:49.5    -258   -216    118    337    358 230.0  19.4  34178  289.86 0855.16
2009/04/23 11:10:49.6    -333   -340     53    477    480 224.4   6.4  34172  289.78 0855.17
2009/04/23 11:10:49.7    -250   -312     57    400    405 218.7   8.1  34182  289.95 0855.17
2009/04/23 11:10:49.8    -312   -296    -29    431    432 226.5  -3.9  34180  289.92 0855.17
2009/04/23 11:10:49.9    -228   -240     97    332    346 223.5  16.3  34200  290.25 0855.17
2009/04/23 11:10:50.0    -440   -206     -6    486    487 244.9  -0.7  34196  290.17 0855.17
2009/04/23 11:10:50.1    -427   -263    -11    502    503 238.4  -1.3  34166  289.66 0855.17
2009/04/23 11:10:50.2    -456   -213   -145    504    525 244.9 -16.1  34150  289.40 0855.17
2009/04/23 11:10:50.3    -523   -269   -210    589    625 242.8 -24.8  34154  289.46 0855.17
2009/04/23 11:10:50.4    -556   -185   -221    587    627 251.5 -26.1  34172  289.78 0855.17
2009/04/23 11:10:50.5    -645   -243   -245    690    732 249.3 -24.7  34152  289.42 0855.17
2009/04/23 11:10:50.6    -591   -281   -186    655    682 244.5 -15.9  34160  289.58 0855.17
2009/04/23 11:10:50.7    -517   -313   -144    605    622 238.8 -13.4  34162  289.60 0855.17
2009/04/23 11:10:50.8    -395   -327   -158    513    536 230.4 -22.2  34156  289.51 0855.17
2009/04/23 11:10:50.9    -299   -287   -176    415    450 226.2 -28.7  34174  289.80 0855.17
2009/04/23 11:10:51.0    -398   -328   -190    516    549 230.5 -25.5  34158  289.53 0855.17
2009/04/23 11:10:51.1    -346   -287   -251    450    515 230.4 -35.9  34170  289.73 0855.17
2009/04/23 11:10:51.2    -335   -331   -184    472    506 225.4 -26.8  34154  289.47 0855.17
2009/04/23 11:10:51.3    -370   -371   -156    525    547 224.9 -21.4  34152  289.45 0855.17
2009/04/23 11:10:51.4    -396   -428   -137    584    600 222.8 -13.3  34156  289.51 0855.17
2009/04/23 11:10:51.5    -351   -351    -88    497    505 225.0 -10.1  34170  289.73 0855.17
2009/04/23 11:10:51.6    -365   -347   -112    504    517 226.5 -12.6  34164  289.64 0855.18
2009/04/23 11:10:51.7    -473   -286    -56    553    556 238.8  -5.8  34180  289.92 0855.18
2009/04/23 11:10:51.8    -503   -340     30    608    609 235.9   2.9  34188  290.03 0855.18
2009/04/23 11:10:51.9    -609   -327   -126    692    704 241.8 -10.4  34184  289.98 0855.18
2009/04/23 11:10:52.0    -375   -309    119    486    501 230.5  13.8  34184  289.98 0855.18
2009/04/23 11:10:52.1    -203    -96    149    225    269 244.6  36.5  34198  290.20 0855.18
2009/04/23 11:10:52.2    -274    -55    193    280    340 258.5  37.8  34188  290.03 0855.18
2009/04/23 11:10:52.3    -115    170    136    206    246 325.7  36.5  34200  290.24 0855.18
2009/04/23 11:10:52.4     -98    157     90    186    206 328.1  27.3  34204  290.33 0855.18
2009/04/23 11:10:52.5    -143     93     28    171    174 303.1   9.5  34200  290.25 0855.18
2009/04/23 11:10:52.6    -291     98     48    308    312 288.6   8.9  34176  289.83 0855.18
2009/04/23 11:10:52.7    -481    181    -65    515    520 290.7  -7.2  34156  289.52 0855.18
2009/04/23 11:10:52.8    -382    156    -22    413    414 292.3  -3.1  34168  289.70 0855.18
2009/04/23 11:10:52.9    -154    226    173    274    324 325.7  35.3  34176  289.83 0855.18
2009/04/23 11:10:53.0    -211    102      7    235    236 295.8   1.8  34174  289.81 0855.18
2009/04/23 11:10:53.1    -266      1    -81    267    280 270.4 -17.0  34172  289.78 0855.18
2009/04/23 11:10:53.2    -266    175    -40    319    322 303.5  -7.2  34166  289.68 0855.18
2009/04/23 11:10:53.3    -210     49    -73    216    228 283.3 -23.3  34162  289.62 0855.18
2009/04/23 11:10:53.4    -404    -59     -7    409    410 261.7  -1.1  34172  289.77 0855.18
2009/04/23 11:10:53.5    -243   -318     48    401    404 217.4   6.9  34166  289.66 0855.18
2009/04/23 11:10:53.6    -278   -326     78    429    437 220.4  10.3  34164  289.65 0855.18
2009/04/23 11:10:53.7    -242   -379     29    450    451 212.6   3.8  34160  289.56 0855.18
2009/04/23 11:10:53.8    -343   -365    -14    502    503 223.2  -1.7  34166  289.66 0855.18
2009/04/23 11:10:53.9    -337   -312    -41    460    462 227.2  -5.2  34172  289.78 0855.18
2009/04/23 11:10:54.0    -255   -267     32    370    372 223.7   5.1  34168  289.71 0855.18
2009/04/23 11:10:54.1    -188   -162    -74    249    260 229.3 -16.6  34172  289.78 0855.18
2009/04/23 11:10:54.2    -352   -249    -49    432    435 234.7  -6.5  34172  289.78 0855.18
2009/04/23 11:10:54.3    -331   -317    111    459    473 226.2  13.7  34160  289.57 0855.18
2009/04/23 11:10:54.4    -102   -334    -29    350    352 197.0  -4.9  34152  289.43 0855.18
2009/04/23 11:10:54.5     -10   -235     24    236    238 182.6   5.9  34156  289.49 0855.18
2009/04/23 11:10:54.6     -81   -240     72    254    265 198.7  15.8  34148  289.37 0855.16
2009/04/23 11:10:54.7     -44   -324     64    327    334 187.8  11.1  34158  289.55 0855.16
2009/04/23 11:10:54.8     135   -315     87    343    354 156.7  14.3  34158  289.55 0855.16
2009/04/23 11:10:54.9     197   -290    102    351    366 145.7  16.3  34154  289.47 0855.16
2009/04/23 11:10:55.0     113   -309    106    330    347 160.0  17.8  34162  289.59 0855.16
2009/04/23 11:10:55.1      25   -226     67    228    238 173.7  16.4  34164  289.64 0855.16
2009/04/23 11:10:55.2     102   -163    -53    193    200 148.1 -20.0  34162  289.60 0855.16
2009/04/23 11:10:55.3     145   -238    -95    279    296 148.6 -18.9  34160  289.56 0855.16
2009/04/23 11:10:55.4     101   -175     -9    203    204 150.1  -2.8  34164  289.63 0855.16
2009/04/23 11:10:55.5     103   -149     14    182    183 145.3   4.6  34166  289.69 0855.16
2009/04/23 11:10:55.6      86    -53    -12    102    103 121.5  -7.2  34164  289.65 0855.16
2009/04/23 11:10:55.7     104    -22     44    107    115 101.9  23.1  34162  289.60 0855.16
2009/04/23 11:10:55.8      65     26    105     71    126  68.3  62.7  34174  289.80 0855.16
2009/04/23 11:10:55.9      12     12    102     18    103  45.0  90.0  34182  289.96 0855.16
2009/04/23 11:10:56.0      48    -44    120     66    136 132.2  68.8  34182  289.94 0855.16
2009/04/23 11:10:56.1     133    -88     90    160    183 123.7  31.9  34166  289.69 0855.16
2009/04/23 11:10:56.2     141    -72     94    159    184 117.0  33.5  34160  289.57 0855.16
2009/04/23 11:10:56.3      76    -82     94    113    146 137.2  43.8  34160  289.57 0855.16
2009/04/23 11:10:56.4     117   -135     99    179    204 139.0  31.4  34148  289.36 0855.16
2009/04/23 11:10:56.5      87   -171    141    192    238 153.0  39.9  34154  289.46 0855.16
2009/04/23 11:10:56.6     138   -112    140    179    227 129.1  42.0  34158  289.55 0855.18
2009/04/23 11:10:56.7     189    -75    141    204    247 111.7  37.8  34154  289.46 0855.18
2009/04/23 11:10:56.8     190   -140    142    237    276 126.4  33.5  34154  289.47 0855.18
2009/04/23 11:10:56.9     194   -165    133    255    287 130.4  29.5  34150  289.41 0855.18
2009/04/23 11:10:57.0     205   -115    141    236    274 119.3  33.5  34150  289.39 0855.18
2009/04/23 11:10:57.1     280   -111    135    302    330 111.7  25.7  34148  289.36 0855.18
2009/04/23 11:10:57.2     280   -103    156    299    337 110.2  29.8  34148  289.36 0855.18
2009/04/23 11:10:57.3     278   -196    164    341    378 125.2  27.3  34152  289.42 0855.18
2009/04/23 11:10:57.4     258   -152    191    300    355 120.6  35.5  34152  289.45 0855.18
2009/04/23 11:10:57.5     263   -179    141    319    348 124.2  25.6  34154  289.48 0855.18
2009/04/23 11:10:57.6     257   -142    115    294    315 118.9  22.5  34146  289.34 0855.18
2009/04/23 11:10:57.7     202   -124    169    238    291 121.5  38.6  34154  289.46 0855.18
2009/04/23 11:10:57.8      57   -174    159    184    243 161.7  45.6  34152  289.45 0855.18
2009/04/23 11:10:57.9       9    -41    145     42    150 167.5  83.9  34160  289.58 0855.18
2009/04/23 11:10:58.0     -24    -75    123     79    146 197.8  64.6  34160  289.58 0855.18
2009/04/23 11:10:58.1     -34     15    104     38    110 293.5  79.2  34176  289.85 0855.18
2009/04/23 11:10:58.2      16     60    124     63    139  15.1  71.0  34182  289.96 0855.18
2009/04/23 11:10:58.3     149     72    143    166    219  64.2  45.1  34156  289.52 0855.18
2009/04/23 11:10:58.4     148     67    120    163    202  65.6  39.7  34162  289.60 0855.18
2009/04/23 11:10:58.5      68    -92    131    115    174 143.5  54.3  34172  289.79 0855.18
2009/04/23 11:10:58.6     105   -144    145    179    230 143.7  43.7  34166  289.67 0855.19
2009/04/23 11:10:58.7     109   -128    128    169    212 139.7  41.2  34170  289.75 0855.19
2009/04/23 11:10:58.8     163    -80     84    182    200 116.2  26.6  34158  289.55 0855.19
2009/04/23 11:10:58.9     166    -62     62    178    189 110.6  19.4  34158  289.55 0855.19
2009/04/23 11:10:59.0     162    -29     74    165    180 100.4  25.7  34160  289.58 0855.19
2009/04/23 11:10:59.1     111     -8     59    112    126  94.3  29.8  34160  289.58 0855.19
2009/04/23 11:10:59.2     108    -81     59    135    147 126.9  25.1  34160  289.58 0855.19
2009/04/23 11:10:59.3     117    -51     57    128    140 113.6  25.2  34156  289.50 0855.19
2009/04/23 11:10:59.4     122     17     77    124    145  82.1  35.5  34158  289.55 0855.19
2009/04/23 11:10:59.5     115     -7     77    116    139  93.9  36.5  34158  289.53 0855.19
2009/04/23 11:10:59.6     119     44     66    127    143  69.6  29.3  34160  289.57 0855.19
2009/04/23 11:10:59.7     114     82     38    141    147  54.0  15.3  34158  289.53 0855.19
2009/04/23 11:10:59.8     126     55     58    138    149  66.5  24.1  34170  289.74 0855.19
2009/04/23 11:10:59.9     105     57     50    120    130  61.2  24.1  34182  289.96 0855.19
2009/04/23 11:11:00.0      91     71     44    116    124  51.8  21.0  34212  290.47 0855.19
2009/04/23 11:11:00.1     103     47     83    114    141  65.6  39.7  34224  290.67 0855.19
2009/04/23 11:11:00.2      76     64     63    100    118  50.0  35.5  34224  290.65 0855.19
2009/04/23 11:11:00.3      61     73     16     96     98  39.6   9.5  34216  290.52 0855.19
2009/04/23 11:11:00.4      59      8    -43     60     73  82.1 -44.1  34198  290.23 0855.19
2009/04/23 11:11:00.5      32    -12    -30     35     46 111.7 -50.2  34198  290.21 0855.19
2009/04/23 11:11:00.6      32    -10     20     34     39 108.4  33.5  34202  290.30 0855.19
2009/04/23 11:11:00.7      63      8     24     64     68  82.1  20.0  34198  290.21 0855.19
2009/04/23 11:11:00.8     215     29     53    218    225  82.1  13.7  34204  290.33 0855.19
2009/04/23 11:11:00.9     307     85     58    319    325  74.5  10.3  34200  290.26 0855.19
2009/04/23 11:11:01.0     322    161    125    361    383  63.4  19.2  34238  290.91 0855.19
2009/04/23 11:11:01.1     275    128     25    304    306  64.9   4.9  34242  290.95 0855.19
2009/04/23 11:11:01.2     258     61     91    266    282  76.7  18.9  34214  290.48 0855.19
2009/04/23 11:11:01.3     324    156     84    360    370  64.2  13.2  34258  291.25 0855.19
2009/04/23 11:11:01.4     250    251     65    355    361  44.9  10.4  34218  290.54 0855.19
2009/04/23 11:11:01.5     294    155     18    333    334  62.2   3.1  34168  289.71 0855.19
2009/04/23 11:11:01.6     344    234     98    417    429  55.8  13.3  34166  289.66 0855.19
2009/04/23 11:11:01.7     242    259    128    355    378  43.0  19.9  34184  289.99 0855.19
2009/04/23 11:11:01.8     269    246     65    365    371  47.6  10.1  34178  289.87 0855.19
2009/04/23 11:11:01.9     331    157    119    367    386  64.6  18.0  34166  289.67 0855.19
2009/04/23 11:11:02.0     247    186   -180    310    358  52.9 -37.3  34172  289.76 0855.19
2009/04/23 11:11:02.1     305    199   -145    365    392  56.8 -27.3  34174  289.82 0855.19
2009/04/23 11:11:02.2     381    174   -130    420    439  65.4 -22.2  34164  289.63 0855.19
2009/04/23 11:11:02.3     268    216   -100    345    359  51.2 -21.0  34166  289.69 0855.19
2009/04/23 11:11:02.4     434    189    -87    474    483  66.4 -10.5  34156  289.52 0855.19
2009/04/23 11:11:02.5     444    172    -10    477    478  68.8  -1.3  34162  289.61 0855.19
2009/04/23 11:11:02.6     385    128   -112    406    422  71.5 -15.5  34162  289.60 0855.19
2009/04/23 11:11:02.7     369    108   -109    385    401  73.6 -15.9  34160  289.57 0855.19
2009/04/23 11:11:02.8     226    -61    -95    235    253 105.1 -27.4  34174  289.80 0855.19
2009/04/23 11:11:02.9     289     -5      3    290    291  91.0   0.7  34164  289.64 0855.19
2009/04/23 11:11:03.0     403    -70    -82    410    419  99.9 -11.3  34178  289.87 0855.19
2009/04/23 11:11:03.1     337    -46    -89    341    353  97.8 -14.7  34158  289.55 0855.19
2009/04/23 11:11:03.2     355     17    -90    356    368  87.2 -14.3  34150  289.40 0855.19
2009/04/23 11:11:03.3     376     64      4    382    383  80.3   0.7  34148  289.38 0855.19
2009/04/23 11:11:03.4     250    127    -46    281    285  63.0  -9.3  34152  289.44 0855.19
2009/04/23 11:11:03.5     218     86     -1    235    236  68.5  -0.3  34154  289.46 0855.19
2009/04/23 11:11:03.6     248      7    -33    249    252  88.3  -7.7  34158  289.53 0855.19
2009/04/23 11:11:03.7     133     42     -5    140    141  72.3  -2.2  34154  289.48 0855.19
2009/04/23 11:11:03.8     115    116    -48    164    171  44.5 -16.4  34160  289.57 0855.19
2009/04/23 11:11:04.0     172     85    -79    192    207  63.6 -28.0  34154  289.48 0855.19
2009/04/23 11:11:04.0     118     76    -75    141    159  57.1 -34.7  34152  289.43 0855.19
2009/04/23 11:11:04.1     139     55     49    150    158  68.2  18.1  34156  289.50 0855.19
2009/04/23 11:11:04.3     119     98     -3    155    156  50.5  -1.3  34154  289.46 0855.19
2009/04/23 11:11:04.4      87     44    -29     98    102  62.9 -21.2  34156  289.52 0855.19
2009/04/23 11:11:04.4     116     52    -21    128    130  66.0  -9.3  34154  289.48 0855.19
2009/04/23 11:11:04.6     183     52    -42    191    196  74.1 -12.6  34154  289.48 0855.19
2009/04/23 11:11:04.7     221     60    -52    230    236  74.9 -12.9  34164  289.63 0855.18
2009/04/23 11:11:04.8     255     15    -24    256    258  86.5  -5.4  34174  289.80 0855.18
2009/04/23 11:11:04.9     231     46     -2    236    237  78.6  -0.7  34168  289.71 0855.18
2009/04/23 11:11:05.0     209     42    -35    214    217  78.5  -9.3  34162  289.62 0855.18
2009/04/23 11:11:05.1     208     50     -4    215    216  76.3  -1.3  34168  289.72 0855.18
2009/04/23 11:11:05.2     211      0    -16    212    213  90.1  -4.6  34174  289.80 0855.18
2009/04/23 11:11:05.3     252     19     62    253    261  85.6  13.9  34172  289.78 0855.18
2009/04/23 11:11:05.4     262     49     78    267    279  79.4  16.3  34178  289.86 0855.18
2009/04/23 11:11:05.5     262     -7    122    263    289  91.7  27.0  34176  289.83 0855.18
2009/04/23 11:11:05.6     294    -79    116    305    326 105.1  21.8  34172  289.76 0855.18
2009/04/23 11:11:05.7     246      0    117    247    273  90.0  27.2  34172  289.78 0855.18
2009/04/23 11:11:05.8     172     26     81    175    192  81.2  27.0  34174  289.80 0855.18
2009/04/23 11:11:05.9     144     48    114    153    190  71.4  40.4  34172  289.79 0855.18
2009/04/23 11:11:06.0      66    -13    114     68    132 101.5  66.2  34184  289.99 0855.18
2009/04/23 11:11:06.1      66    -21     94     70    117 108.2  60.0  34186  290.01 0855.18
2009/04/23 11:11:06.2     165    -45    180    172    248 105.5  51.2  34180  289.91 0855.18
2009/04/23 11:11:06.3     110    -37    169    117    205 108.6  62.4  34178  289.89 0855.18
2009/04/23 11:11:06.4     104     17    128    106    166  80.3  56.3  34188  290.04 0855.18
2009/04/23 11:11:06.5      49    -60     88     78    117 140.4  53.7  34186  290.01 0855.18
2009/04/23 11:11:06.6      54    -19    121     58    134 110.0  72.8  34192  290.13 0855.18
2009/04/23 11:11:06.7     -45     21     82     50     96 295.3  65.1  34212  290.47 0855.18
2009/04/23 11:11:06.8     -87    -54     70    103    124 238.0  37.4  34192  290.13 0855.18
2009/04/23 11:11:06.9     -42    -68     79     81    113 211.6  50.0  34194  290.16 0855.18
2009/04/23 11:11:07.0      -6    -81     41     82     91 184.5  28.2  34184  289.99 0855.18
2009/04/23 11:11:07.1     -50   -100     55    113    125 206.7  27.8  34182  289.96 0855.18
2009/04/23 11:11:07.2     -97   -166    116    193    225 210.5  34.0  34178  289.89 0855.18
2009/04/23 11:11:07.3     -77   -160     82    178    195 205.9  26.4  34184  289.99 0855.18
2009/04/23 11:11:07.4       1    -65     80     66    103 179.0  56.3  34184  289.97 0855.18
2009/04/23 11:11:07.5     -33   -128    109    133    171 194.7  43.7  34170  289.75 0855.18
2009/04/23 11:11:07.6     -33   -155    142    159    213 192.0  46.4  34164  289.63 0855.18
2009/04/23 11:11:07.7     -21   -154    155    156    219 188.0  50.0  34164  289.65 0855.18
2009/04/23 11:11:07.8     -50   -159    115    167    202 197.6  37.6  34182  289.96 0855.18
2009/04/23 11:11:07.9      -9   -115     39    116    123 184.5  18.9  34198  290.21 0855.18
2009/04/23 11:11:08.0      -6    -93     53     94    107 184.0  31.4  34182  289.96 0855.18
2009/04/23 11:11:08.1    -128   -148     27    196    198 220.8   8.0  34188  290.04 0855.18
2009/04/23 11:11:08.2     -30    -64    113     71    133 205.3  64.7  34186  290.01 0855.18
2009/04/23 11:11:08.3     -32    -67     14     75     77 205.3  11.1  34186  290.01 0855.18
2009/04/23 11:11:08.4      90   -106    108    140    176 139.5  41.7  34166  289.69 0855.18
2009/04/23 11:11:08.5      67   -168    109    181    211 158.2  34.2  34162  289.60 0855.18
2009/04/23 11:11:08.6      59   -168    123    179    217 160.6  37.8  34158  289.55 0855.18
2009/04/23 11:11:08.7      93   -145    164    173    238 147.4  48.5  34168  289.70 0855.20
2009/04/23 11:11:08.8      88   -104    119    137    181 139.9  45.6  34176  289.84 0855.20
2009/04/23 11:11:08.9     -31   -151    160    155    222 191.6  50.9  34182  289.94 0855.20
2009/04/23 11:11:09.0     -86   -146    216    170    274 210.7  57.9  34190  290.07 0855.20
2009/04/23 11:11:09.1     -74   -148    139    166    216 206.5  44.1  34184  289.99 0855.20
2009/04/23 11:11:09.2     -41   -114     96    122    155 200.0  42.7  34188  290.06 0855.20
2009/04/23 11:11:09.3     -84   -115     61    143    155 216.1  24.6  34186  290.01 0855.20
2009/04/23 11:11:09.4    -158    -88     58    182    191 240.9  17.7  34186  290.02 0855.20
2009/04/23 11:11:09.5    -148   -118     39    190    195 231.6  11.6  34204  290.33 0855.20
2009/04/23 11:11:09.6    -134   -142     -9    196    197 223.2  -2.8  34202  290.28 0855.20
2009/04/23 11:11:09.7    -106   -160     67    193    205 213.6  19.2  34190  290.09 0855.20
2009/04/23 11:11:09.8     -63   -169     81    181    198 200.7  25.3  34194  290.14 0855.20
2009/04/23 11:11:09.9     -68   -157     91    172    194 203.4  30.3  34212  290.47 0855.20
2009/04/23 11:11:10.0     -88   -172    -10    194    195 207.2  -3.1  34216  290.53 0855.20
2009/04/23 11:11:10.1    -139   -117     27    182    185 230.0   8.5  34212  290.47 0855.20
2009/04/23 11:11:10.2    -157   -156     27    222    224 225.1   7.1  34248  291.08 0855.20
2009/04/23 11:11:10.3    -160   -169     14    233    234 223.4   3.6  34240  290.93 0855.20
2009/04/23 11:11:10.4    -184   -141     -4    233    234 232.5  -1.2  34256  291.21 0855.20
2009/04/23 11:11:10.5    -205   -100    -14    229    230 244.0  -3.7  34262  291.32 0855.20
2009/04/23 11:11:10.6    -212   -100    -48    235    240 244.8 -11.6  34252  291.14 0855.20
2009/04/23 11:11:10.7    -214    -66    -44    225    230 252.7 -11.1  34262  291.32 0855.22
2009/04/23 11:11:10.8    -190    -83    -21    208    210 246.3  -6.0  34266  291.37 0855.22
2009/04/23 11:11:10.9    -127   -121    -39    176    181 226.4 -12.6  34254  291.16 0855.22
2009/04/23 11:11:11.0    -144   -113    -37    184    188 231.8 -11.5  34248  291.08 0855.22
2009/04/23 11:11:11.1    -161   -112    -35    197    201 235.1 -10.3  34266  291.37 0855.22
2009/04/23 11:11:11.2    -180   -105    -48    209    215 239.6 -13.2  34248  291.08 0855.22
2009/04/23 11:11:11.3    -273    -24    -73    275    285 264.8 -15.0  34212  290.44 0855.22
2009/04/23 11:11:11.4    -221    -80    -56    236    243 250.0 -13.4  34236  290.87 0855.22
2009/04/23 11:11:11.5    -245    -56    -27    252    254 257.0  -6.2  34272  291.48 0855.22
2009/04/23 11:11:11.6    -237   -136    -90    274    288 240.2 -23.8  34254  291.17 0855.22
2009/04/23 11:11:11.7    -194   -194    -84    275    287 225.0 -21.8  34204  290.31 0855.22
2009/04/23 11:11:11.8    -250   -141    -79    288    299 240.5 -15.5  34180  289.90 0855.22
2009/04/23 11:11:11.9    -218    -15    -65    219    229 265.9 -16.5  34196  290.19 0855.22
2009/04/23 11:11:12.0    -205    -39     -1    209    210 259.0  -0.5  34216  290.53 0855.22
2009/04/23 11:11:12.1    -216     72    -18    228    229 288.4  -4.6  34232  290.79 0855.22
2009/04/23 11:11:12.2    -217    111    -42    244    248 297.1  -9.8  34232  290.80 0855.22
2009/04/23 11:11:12.3    -196    -54     24    204    206 254.5   6.7  34262  291.30 0855.22
2009/04/23 11:11:12.4    -130     10    -31    131    135 274.4 -13.4  34256  291.20 0855.22
2009/04/23 11:11:12.5    -144     -7     49    145    154 267.0  18.9  34258  291.25 0855.22
2009/04/23 11:11:12.6    -187     -1     67    188    199 269.4  20.4  34262  291.32 0855.22
2009/04/23 11:11:12.7    -224     13      4    225    226 273.5   1.2  34240  290.92 0855.22
2009/04/23 11:11:12.8    -264      0    -82    265    277 270.0 -21.8  34230  290.75 0855.22
2009/04/23 11:11:12.9    -180     36    -98    184    208 281.5 -34.7  34218  290.57 0855.22
2009/04/23 11:11:13.0    -154     25    -49    157    165 279.2 -17.3  34222  290.64 0855.22
2009/04/23 11:11:13.1    -182    -13    -54    183    192 265.9 -16.6  34190  290.09 0855.22
2009/04/23 11:11:13.2    -173    -43    -25    179    181 255.8  -8.0  34208  290.40 0855.22
2009/04/23 11:11:13.3    -176    -34    -23    180    182 259.0  -7.5  34212  290.45 0855.22
2009/04/23 11:11:13.4    -167    -34     34    171    175 258.3  11.4  34228  290.74 0855.22
2009/04/23 11:11:13.5    -202      4      3    203    204 271.3   1.0  34240  290.92 0855.22
2009/04/23 11:11:13.6    -194     -8    -55    195    203 267.4 -15.8  34222  290.64 0855.22
2009/04/23 11:11:13.7    -126     29     70    130    147 283.2  31.3  34222  290.62 0855.22
2009/04/23 11:11:13.8    -166     43     63    172    183 284.8  20.7  34242  290.96 0855.22
2009/04/23 11:11:13.9    -217    -47     74    223    236 257.6  18.4  34240  290.92 0855.22
2009/04/23 11:11:14.0    -213    -24      6    215    216 263.4   1.6  34238  290.91 0855.22
2009/04/23 11:11:14.1    -330    -56    -18    335    336 260.2  -3.1  34176  289.84 0855.22
2009/04/23 11:11:14.2    -427     14    -29    428    429 271.9  -3.9  34166  289.66 0855.22
2009/04/23 11:11:14.3    -349    152    -69    381    388 293.6 -10.4  34202  290.27 0855.22
2009/04/23 11:11:14.4    -366     76    -41    374    377 281.8  -6.3  34186  290.01 0855.22
2009/04/23 11:11:14.5    -368     33    -47    370    374 275.2  -7.4  34156  289.50 0855.22
2009/04/23 11:11:14.6    -301    -13    -68    302    310 267.4 -12.7  34166  289.66 0855.22
2009/04/23 11:11:14.7    -391      0    -92    392    403 270.0 -13.3  34170  289.74 0855.19
2009/04/23 11:11:14.8    -398    -16    -26    399    400 267.6  -3.7  34176  289.84 0855.19
2009/04/23 11:11:14.9    -385     11    -15    386    387 271.7  -2.2  34194  290.15 0855.19
2009/04/23 11:11:15.0    -331     -4    -85    332    343 269.2 -14.4  34210  290.43 0855.19
2009/04/23 11:11:15.1    -332     47    -82    336    346 278.1 -13.8  34204  290.32 0855.19
2009/04/23 11:11:15.2    -307     96     -2    322    323 287.5  -0.5  34210  290.41 0855.19
2009/04/23 11:11:15.3    -238     70    -89    249    264 286.4 -24.6  34206  290.34 0855.19
2009/04/23 11:11:15.4    -216    111    -81    244    258 297.3 -18.3  34210  290.41 0855.19
2009/04/23 11:11:15.5    -192    159     -5    250    251 309.5  -1.3  34226  290.70 0855.19
2009/04/23 11:11:15.6    -154    227    -25    275    277 325.8  -5.2  34208  290.39 0855.19
2009/04/23 11:11:15.7    -135    185    -27    230    232 323.9  -6.9  34208  290.38 0855.16
2009/04/23 11:11:15.8     -72     44    -86     85    120 301.5 -54.5  34200  290.25 0855.16
2009/04/23 11:11:15.9     -73     55    -38     92     99 307.3 -27.5  34196  290.18 0855.16
2009/04/23 11:11:16.0     -36     36     57     51     76 315.0  52.2  34206  290.36 0855.16
2009/04/23 11:11:16.1     -52     73    119     91    149 324.4  58.5  34222  290.62 0855.16
2009/04/23 11:11:16.2     -86     72     91    113    145 310.0  43.7  34216  290.52 0855.16
2009/04/23 11:11:16.3     -66     58     21     88     91 311.3  13.7  34222  290.64 0855.16
2009/04/23 11:11:16.4     -34     59     -8     69     70 330.1  -7.2  34218  290.57 0855.16
2009/04/23 11:11:16.5     -95      6    -38     96    103 273.9 -27.4  34226  290.70 0855.16
2009/04/23 11:11:16.6    -128    -26    -56    131    142 258.5 -28.5  34214  290.48 0855.16
2009/04/23 11:11:16.7     -75    -16    -52     77     92 257.6 -41.4  34208  290.38 0855.16
2009/04/23 11:11:16.8     -55     14    -26     57     62 285.1 -30.6  34214  290.48 0855.16
2009/04/23 11:11:16.9     -64     61    -23     89     92 314.0 -14.5  34222  290.64 0855.16
2009/04/23 11:11:17.0    -122     40     -7    129    130 288.2  -3.2  34208  290.40 0855.16
2009/04/23 11:11:17.1    -143     38    -56    149    159 285.1 -25.9  34210  290.41 0855.16
2009/04/23 11:11:17.2    -169     32   -111    173    205 280.8 -40.0  34152  289.45 0855.16
2009/04/23 11:11:17.3    -211     18   -127    212    247 275.0 -38.1  34156  289.51 0855.16
2009/04/23 11:11:17.4    -255     13    -90    256    271 273.0 -24.3  34194  290.14 0855.16
2009/04/23 11:11:17.5    -267     32    -98    269    286 277.0 -25.3  34178  289.88 0855.16
2009/04/23 11:11:17.6    -269     25   -103    271    289 275.5 -26.1  34184  289.98 0855.16
2009/04/23 11:11:17.7    -327     39   -106    330    347 276.9 -17.9  34172  289.79 0855.17
2009/04/23 11:11:17.8    -384     43   -140    387    411 276.5 -25.2  34162  289.61 0855.17
2009/04/23 11:11:17.9    -399      1   -126    400    420 270.3 -17.5  34184  289.97 0855.17
2009/04/23 11:11:18.0    -383    -93   -197    395    441 256.3 -32.9  34150  289.39 0855.17
2009/04/23 11:11:18.1    -429   -112   -166    444    474 255.3 -25.9  34156  289.50 0855.17
2009/04/23 11:11:18.2    -434   -119   -190    451    489 254.6 -28.6  34142  289.25 0855.17
2009/04/23 11:11:18.3    -465    -89   -214    474    520 259.1 -30.4  34170  289.73 0855.17
2009/04/23 11:11:18.4    -382   -125   -164    403    435 251.8 -27.8  34200  290.26 0855.17
2009/04/23 11:11:18.5    -440   -149    -80    465    472 251.3  -9.8  34208  290.37 0855.17
2009/04/23 11:11:18.6    -507   -192   -161    543    566 249.2 -21.4  34156  289.50 0855.17
2009/04/23 11:11:18.7    -534   -174   -155    562    582 251.9 -20.1  34180  289.91 0855.17
2009/04/23 11:11:18.8    -413   -246   -151    481    504 239.2 -22.5  34200  290.25 0855.17
2009/04/23 11:11:18.9    -364   -184   -188    408    449 243.2 -30.9  34156  289.49 0855.17
2009/04/23 11:11:19.0    -214   -227   -164    313    353 223.3 -34.2  34172  289.79 0855.17
2009/04/23 11:11:19.1    -295   -134    -92    325    338 245.6 -15.9  34202  290.30 0855.17
2009/04/23 11:11:19.2    -376   -237   -171    445    476 237.7 -26.5  34172  289.78 0855.17
2009/04/23 11:11:19.3    -297   -262   -182    397    436 228.6 -30.7  34184  289.99 0855.17
2009/04/23 11:11:19.4    -348   -115   -208    367    421 251.7 -36.4  34184  289.97 0855.17
2009/04/23 11:11:19.5    -207    -15    -72    208    221 265.7 -19.1  34208  290.38 0855.17
2009/04/23 11:11:19.6    -299    -82   -147    311    343 254.7 -31.5  34186  290.01 0855.17
2009/04/23 11:11:19.7    -220   -112   -179    247    305 243.0 -43.9  34180  289.90 0855.19
2009/04/23 11:11:19.8    -133   -120    -88    180    200 228.0 -32.4  34194  290.16 0855.19
2009/04/23 11:11:19.9    -127    -65    -92    143    170 242.9 -40.0  34202  290.30 0855.19
2009/04/23 11:11:20.0    -152    -66    -82    167    186 246.4 -32.2  34208  290.38 0855.19
2009/04/23 11:11:20.1    -209   -133   -100    248    267 237.5 -27.5  34198  290.20 0855.19
2009/04/23 11:11:20.2    -223     45    -28    228    230 281.5  -7.2  34220  290.60 0855.19
2009/04/23 11:11:20.3    -135    -67    -68    151    165 243.4 -30.1  34248  291.06 0855.19
2009/04/23 11:11:20.4     -88     16    -26     90     94 280.6 -16.6  34246  291.04 0855.19
2009/04/23 11:11:20.5     -93    -41     14    102    104 246.0   8.0  34244  290.99 0855.19
2009/04/23 11:11:20.6     -90      0    -29     91     96 269.6 -18.1  34246  291.04 0855.19
2009/04/23 11:11:20.7    -260    -96    -83    278    291 249.6 -16.6  34252  291.12 0855.19
2009/04/23 11:11:20.8    -350    -72   -134    358    382 258.3 -25.9  34200  290.25 0855.19
2009/04/23 11:11:20.9    -272   -155    -47    314    318 240.3  -8.6  34236  290.85 0855.19
2009/04/23 11:11:21.0    -365   -135    -21    390    391 249.6  -3.1  34230  290.77 0855.19
2009/04/23 11:11:21.1    -412    -48   -126    415    433 263.3 -21.7  34232  290.78 0855.19
2009/04/23 11:11:21.2    -303    -71   -107    312    329 256.7 -23.8  34194  290.15 0855.19
2009/04/23 11:11:21.3    -330    -43   -121    333    354 262.4 -25.3  34188  290.04 0855.19
2009/04/23 11:11:21.4    -266   -169     49    316    320 237.6   8.8  34210  290.41 0855.19
2009/04/23 11:11:21.5    -268   -152     62    309    316 240.5  11.4  34182  289.95 0855.19
2009/04/23 11:11:21.6    -260    -54    -14    266    267 258.1  -3.2  34208  290.37 0855.19
2009/04/23 11:11:21.7    -237     -3     37    238    242 269.1   9.0  34210  290.42 0855.18
2009/04/23 11:11:21.8    -175     38     61    180    191 282.4  18.9  34188  290.04 0855.18
2009/04/23 11:11:21.9    -146      2    -18    147    149 270.8  -7.3  34196  290.19 0855.18
2009/04/23 11:11:22.0    -117     58    -47    131    139 296.6 -24.8  34224  290.67 0855.18
2009/04/23 11:11:22.1     -19     31    101     37    107 327.5  79.7  34218  290.55 0855.18
2009/04/23 11:11:22.2     -56    -18     70     59     91 251.8  55.8  34226  290.70 0855.18
2009/04/23 11:11:22.3     -28     19     18     34     38 304.2  29.3  34216  290.53 0855.18
2009/04/23 11:11:22.4      49     78     36     93     99  32.5  22.0  34216  290.52 0855.18
2009/04/23 11:11:22.5     -18    106    116    108    158 350.2  52.2  34216  290.53 0855.18
2009/04/23 11:11:22.6     -19    199    141    200    244 354.4  38.6  34212  290.45 0855.18
2009/04/23 11:11:22.7     -32    123    163    128    207 345.3  57.9  34216  290.52 0855.18
2009/04/23 11:11:22.8     -64    109    149    127    195 329.3  55.0  34220  290.58 0855.18
2009/04/23 11:11:22.9     -42    115    119    123    171 339.9  49.2  34220  290.60 0855.18
2009/04/23 11:11:23.0    -153      2     30    154    157 270.9  11.1  34214  290.50 0855.18
2009/04/23 11:11:23.1    -110     51      3    122    123 295.2   1.8  34218  290.57 0855.18
2009/04/23 11:11:23.2     -94     83     -9    126    127 311.3  -4.1  34210  290.41 0855.18
2009/04/23 11:11:23.3     -16     49     30     52     60 341.7  32.4  34204  290.31 0855.18
2009/04/23 11:11:23.4     -42    119     64    127    142 340.4  28.7  34208  290.40 0855.18
2009/04/23 11:11:23.5     -85     91      0    125    126 316.8  -0.3  34206  290.35 0855.18
2009/04/23 11:11:23.6    -102     46      5    113    114 294.4   2.9  34212  290.45 0855.18
2009/04/23 11:11:23.7     -83     53     68     99    120 302.5  37.6  34210  290.43 0855.17
2009/04/23 11:11:23.8    -111      5     45    112    120 273.0  23.0  34232  290.79 0855.17
2009/04/23 11:11:23.9    -100    -29     50    105    116 253.6  27.2  34234  290.82 0855.17
2009/04/23 11:11:24.0     -82     19     47     85     97 283.3  31.9  34226  290.70 0855.17
2009/04/23 11:11:24.1     -56     41     73     70    101 305.9  51.6  34232  290.79 0855.17
2009/04/23 11:11:24.2    -118     50     82    129    152 293.1  35.5  34228  290.72 0855.17
2009/04/23 11:11:24.3     -96     -7     43     97    106 265.6  25.7  34234  290.84 0855.17
2009/04/23 11:11:24.4    -124    -55    -39    136    142 246.0 -16.0  34210  290.41 0855.17
2009/04/23 11:11:24.5    -177    -37    -35    181    185 258.1 -11.1  34184  289.97 0855.17
2009/04/23 11:11:24.6    -192     54    -75    200    213 285.9 -25.4  34180  289.92 0855.17
2009/04/23 11:11:24.7    -197     39    -73    201    213 281.4 -25.1  34172  289.79 0855.17
2009/04/23 11:11:24.8    -286      0    -67    287    295 270.0 -13.3  34196  290.19 0855.17
2009/04/23 11:11:24.9    -312    -61    -90    319    332 258.9 -15.8  34208  290.37 0855.17
2009/04/23 11:11:25.0    -274    -85   -115    287    309 252.7 -27.4  34188  290.03 0855.17
2009/04/23 11:11:25.1    -301    -85    -82    313    324 254.1 -14.8  34180  289.90 0855.17
2009/04/23 11:11:25.2    -296    -62    -98    303    318 258.1 -22.9  34174  289.81 0855.17
2009/04/23 11:11:25.3    -261    -79   -176    273    324 253.1 -40.1  34196  290.17 0855.17
2009/04/23 11:11:25.4    -268   -181   -124    324    346 235.9 -26.4  34214  290.49 0855.17
2009/04/23 11:11:25.5    -253   -165   -102    303    319 236.9 -23.6  34218  290.56 0855.17
2009/04/23 11:11:25.6    -206   -128    -90    243    259 238.2 -25.4  34208  290.37 0855.17
2009/04/23 11:11:25.7    -262    -71      3    272    273 254.9   0.7  34230  290.76 0855.16
2009/04/23 11:11:25.8    -253      0     31    254    256 270.0   7.1  34230  290.76 0855.16
2009/04/23 11:11:25.9    -165    -86     62    187    198 242.5  18.4  34230  290.77 0855.16
2009/04/23 11:11:26.0     -99    -38     65    107    125 248.7  34.4  34228  290.74 0855.16
2009/04/23 11:11:26.1     -81    -41     69     91    114 242.9  41.2  34222  290.62 0855.16
2009/04/23 11:11:26.2     -98   -104    135    143    196 223.3  48.2  34220  290.58 0855.16
2009/04/23 11:11:26.3     -79   -133     95    155    181 210.7  34.8  34216  290.52 0855.16
2009/04/23 11:11:26.4     -68    -87     93    111    144 218.3  43.8  34220  290.60 0855.16
2009/04/23 11:11:26.5     -51    -82     66     97    117 212.1  37.0  34214  290.48 0855.16
2009/04/23 11:11:26.6     -64    -26     88     70    112 248.2  56.4  34214  290.48 0855.16
2009/04/23 11:11:26.7    -112     53     94    125    156 295.4  40.7  34196  290.19 0855.16
2009/04/23 11:11:26.8    -147     58     82    159    178 291.7  29.5  34188  290.06 0855.16
2009/04/23 11:11:26.9    -161    -27     66    164    176 260.5  23.1  34204  290.33 0855.16
2009/04/23 11:11:27.0    -111    -68     48    131    139 238.5  20.9  34224  290.67 0855.16
2009/04/23 11:11:27.1     -64    -99     37    119    125 213.0  17.3  34220  290.60 0855.16
2009/04/23 11:11:27.2    -120    -82     51    146    155 235.4  19.4  34228  290.72 0855.16
2009/04/23 11:11:27.3    -141    -56     86    152    174 248.2  32.4  34226  290.69 0855.16
2009/04/23 11:11:27.4    -125    -41     45    132    140 251.8  18.9  34226  290.69 0855.16
2009/04/23 11:11:27.5    -142    -84     29    166    169 239.3  10.1  34218  290.55 0855.16
2009/04/23 11:11:27.6    -105    -92      2    140    141 228.7   0.8  34218  290.57 0855.16
2009/04/23 11:11:27.7     -85   -129    -29    155    158 213.4 -10.9  34206  290.35 0855.13
2009/04/23 11:11:27.8    -108   -148    -23    184    186 216.0  -7.3  34186  290.02 0855.13
2009/04/23 11:11:27.9    -124   -143    -64    190    201 220.8 -18.7  34182  289.94 0855.13
2009/04/23 11:11:28.0     -97   -108    -53    146    155 221.9 -24.4  34188  290.06 0855.13
2009/04/23 11:11:28.1    -113    -62     -2    129    130 241.2  -1.3  34188  290.06 0855.13
2009/04/23 11:11:28.2     -78    -57     74     97    122 233.6  41.6  34216  290.52 0855.13
2009/04/23 11:11:28.3     -79    -96     72    125    144 219.7  32.9  34216  290.53 0855.13
2009/04/23 11:11:28.4     -94   -111     46    146    154 220.1  17.7  34224  290.65 0855.13
2009/04/23 11:11:28.5    -134    -97      1    166    167 234.0   0.5  34232  290.81 0855.13
2009/04/23 11:11:28.6    -100   -103     21    144    146 224.1   8.5  34236  290.86 0855.13
2009/04/23 11:11:28.7    -111   -114     20    160    162 224.1   7.2  34232  290.79 0855.13
2009/04/23 11:11:28.8     -84   -127      7    153    154 213.4   2.9  34214  290.48 0855.13
2009/04/23 11:11:28.9     -79   -141     20    162    164 209.2   7.2  34192  290.11 0855.13
2009/04/23 11:11:29.0     -75   -136     19    156    158 208.9   7.2  34178  289.89 0855.13
2009/04/23 11:11:29.1     -58   -151     16    163    164 201.2   5.9  34182  289.94 0855.13
2009/04/23 11:11:29.2     -70   -183      6    197    198 200.9   1.8  34200  290.26 0855.13
2009/04/23 11:11:29.3    -126   -140    -25    189    191 221.9  -7.7  34232  290.79 0855.13
2009/04/23 11:11:29.5    -128   -111     -6    170    171 229.1  -2.2  34234  290.84 0855.13
2009/04/23 11:11:29.5     -35   -137     -2    142    143 194.7  -1.2  34220  290.58 0855.13
2009/04/23 11:11:29.6     -13   -164    -19    165    167 184.9  -6.9  34184  289.99 0855.13
2009/04/23 11:11:29.7     -14   -187    -52    188    196 184.5 -15.4  34184  289.97 0855.17
2009/04/23 11:11:29.8      -3   -227    -71    228    239 180.9 -17.3  34188  290.05 0855.17
2009/04/23 11:11:30.0     -13   -170    -57    171    180 184.4 -23.6  34188  290.04 0855.17
2009/04/23 11:11:30.0    -144    -94      1    173    174 236.9   0.5  34220  290.58 0855.17
2009/04/23 11:11:30.2    -139    -66     77    154    172 244.6  28.2  34224  290.65 0855.17
2009/04/23 11:11:30.2    -207    -90     94    226    244 246.5  24.1  34210  290.42 0855.17
2009/04/23 11:11:30.4    -180    -80     85    198    215 246.0  24.9  34238  290.89 0855.17
2009/04/23 11:11:30.5    -201    -79     80    217    231 248.5  20.9  34236  290.87 0855.17
2009/04/23 11:11:30.6    -175    -76     68    191    203 246.5  19.6  34258  291.25 0855.17
2009/04/23 11:11:30.7    -153    -51     65    162    174 251.4  22.8  34280  291.62 0855.17
2009/04/23 11:11:30.8    -198    -46     37    204    208 256.7  10.3  34236  290.86 0855.17
2009/04/23 11:11:30.9    -184    -46     22    190    192 255.8   6.7  34234  290.84 0855.17
2009/04/23 11:11:31.0    -168    -38      8    173    174 257.2   2.9  34216  290.53 0855.17
2009/04/23 11:11:31.1    -160    -62     -9    172    173 248.7  -3.3  34210  290.41 0855.17
2009/04/23 11:11:31.2    -126    -76    -45    148    155 238.9 -17.0  34206  290.36 0855.17
2009/04/23 11:11:31.3     -76   -110    -42    135    142 214.7 -17.5  34220  290.60 0855.17
2009/04/23 11:11:31.4     -59   -141    -50    153    160 202.7 -23.3  34218  290.55 0855.17
2009/04/23 11:11:31.5       5   -161    -49    162    169 178.2 -21.7  34200  290.26 0855.17
2009/04/23 11:11:31.6     -39   -125    -75    132    151 197.4 -36.3  34236  290.86 0855.17
2009/04/23 11:11:31.7      -5    -91    -61     92    110 183.1 -40.4  34230  290.77 0855.17
2009/04/23 11:11:31.8     -25   -145    -41    148    154 189.8 -15.5  34226  290.69 0855.15
2009/04/23 11:11:31.9    -102   -197     -8    222    223 207.4  -2.2  34236  290.86 0855.15
2009/04/23 11:11:32.0     -83   -176      0    195    196 205.3   0.2  34236  290.86 0855.15
2009/04/23 11:11:32.1    -103   -169     -5    199    200 211.4  -1.6  34250  291.11 0855.15
2009/04/23 11:11:32.2      -9   -142     17    143    145 183.6   6.9  34230  290.77 0855.15
2009/04/23 11:11:32.3     -23   -150     12    152    153 188.9   4.9  34232  290.81 0855.15
2009/04/23 11:11:32.4      -2   -142     -3    143    144 180.9  -1.3  34208  290.38 0855.15
2009/04/23 11:11:32.5      25   -116    -20    119    121 167.5  -9.8  34204  290.33 0855.15
2009/04/23 11:11:32.6      -5    -86    -24     87     91 183.6 -15.5  34224  290.65 0855.15
2009/04/23 11:11:32.7     -47   -115    -42    125    133 202.3 -18.7  34268  291.40 0855.15
2009/04/23 11:11:32.8     -70   -125    -44    144    150 209.4 -22.3  34276  291.55 0855.15
2009/04/23 11:11:32.9     -43   -101    -76    110    133 203.2 -42.0  34260  291.28 0855.15
2009/04/23 11:11:33.0     -59   -155    -44    166    172 200.9 -15.0  34276  291.55 0855.15
2009/04/23 11:11:33.1     -25   -204     32    206    209 187.1   9.0  34254  291.18 0855.15
2009/04/23 11:11:33.2     -55   -198     17    206    207 195.6   4.9  34260  291.28 0855.15
2009/04/23 11:11:33.3     -20   -137     11    139    140 188.5   4.9  34242  290.96 0855.15
2009/04/23 11:11:33.4     -26   -121     29    124    128 192.5  13.2  34262  291.30 0855.15
2009/04/23 11:11:33.5      -7   -112     34    113    119 183.6  16.8  34260  291.26 0855.15
2009/04/23 11:11:33.6     -21   -123     61    125    139 189.7  27.8  34234  290.82 0855.15
2009/04/23 11:11:33.7     -68   -132    118    149    190 207.2  42.7  34204  290.31 0855.15
2009/04/23 11:11:33.8      75    -71    140    104    174 133.6  59.8  34210  290.41 0855.17
2009/04/23 11:11:33.9     134    -44    112    142    180 108.2  42.4  34200  290.26 0855.17
2009/04/23 11:11:34.0     113    -55    120    126    174 116.2  49.0  34212  290.47 0855.17
2009/04/23 11:11:34.1      99    -39    134    107    171 111.7  57.1  34226  290.69 0855.17
2009/04/23 11:11:34.2      39    -63    136     75    155 148.4  68.8  34220  290.58 0855.17
2009/04/23 11:11:34.3      11   -143    122    144    188 175.6  44.3  34196  290.18 0855.17
2009/04/23 11:11:34.4      -2   -170     91    171    193 180.9  30.6  34194  290.16 0855.17
2009/04/23 11:11:34.5     -31   -177     52    180    188 190.0  16.3  34196  290.18 0855.17
2009/04/23 11:11:34.6     -56   -137     42    149    155 202.3  15.8  34192  290.13 0855.17
2009/04/23 11:11:34.7     -34   -135     -2    140    141 194.3  -1.2  34196  290.18 0855.17
2009/04/23 11:11:34.8      32   -118    -22    123    125 164.9 -10.3  34196  290.18 0855.17
2009/04/23 11:11:34.9      62   -140    -13    154    155 155.9  -4.9  34196  290.19 0855.17
2009/04/23 11:11:35.0      54   -127    -11    139    140 156.8  -4.6  34196  290.18 0855.17
2009/04/23 11:11:35.1      13   -127    -41    128    135 173.8 -18.1  34198  290.21 0855.17
2009/04/23 11:11:35.2      37   -147     -3    152    153 165.7  -1.3  34196  290.19 0855.17
2009/04/23 11:11:35.3      60   -182     20    192    194 161.5   6.1  34192  290.13 0855.17
2009/04/23 11:11:35.4      39   -206     41    210    215 169.3  11.1  34192  290.11 0855.17
2009/04/23 11:11:35.5     -13   -264     24    265    267 182.9   5.2  34188  290.03 0855.17
2009/04/23 11:11:35.6      -9   -294     15    295    296 181.8   2.9  34188  290.03 0855.17
2009/04/23 11:11:35.7      13   -283     68    284    293 177.3  13.5  34184  289.98 0855.17
2009/04/23 11:11:35.8      46   -226     65    231    241 168.4  15.8  34186  290.00 0855.17
2009/04/23 11:11:35.9     -26   -224     22    226    228 186.7   5.7  34186  290.02 0855.17
2009/04/23 11:11:36.0     -86   -267    -25    281    283 197.9  -5.2  34186  290.02 0855.17
2009/04/23 11:11:36.1     -82   -377    -53    387    391 192.4  -7.9  34182  289.93 0855.17
2009/04/23 11:11:36.2     -81   -333    -40    343    346 193.7  -6.7  34182  289.96 0855.17
2009/04/23 11:11:36.3     -29   -354     13    356    357 184.8   2.1  34182  289.94 0855.17
2009/04/23 11:11:36.4      24   -463    -30    464    465 177.0  -3.7  34184  289.98 0855.17
2009/04/23 11:11:36.5      -4   -485     23    486    487 180.5   2.8  34184  289.98 0855.17
2009/04/23 11:11:36.6     -88   -523     75    531    537 189.6   8.1  34184  289.97 0855.17
2009/04/23 11:11:36.7      52   -481     78    484    491 173.8   9.2  34184  289.98 0855.17
2009/04/23 11:11:36.8     -65   -457    163    462    491 188.1  19.5  34182  289.95 0855.18
2009/04/23 11:11:36.9    -320   -429     12    536    537 216.7   1.4  34160  289.58 0855.18
2009/04/23 11:11:37.0    -327   -434   -153    544    565 217.0 -20.4  34140  289.23 0855.18
2009/04/23 11:11:37.1    -221   -300   -191    373    419 216.4 -33.7  34144  289.29 0855.18
2009/04/23 11:11:37.2    -119   -323    -15    345    346 200.2  -2.5  34158  289.55 0855.18
2009/04/23 11:11:37.3     -81   -181     15    199    200 204.1   4.6  34168  289.72 0855.18
2009/04/23 11:11:37.4     -74   -180    -47    195    201 202.5 -13.7  34168  289.72 0855.18
2009/04/23 11:11:37.5     -56   -199      2    207    208 195.8   0.8  34158  289.55 0855.18
2009/04/23 11:11:37.6    -161   -252     15    300    301 212.5   2.9  34166  289.66 0855.18
2009/04/23 11:11:37.7    -175   -339     -7    382    383 207.4  -1.2  34164  289.64 0855.18
2009/04/23 11:11:37.8     -99   -433    120    445    462 192.9  15.1  34164  289.65 0855.18
2009/04/23 11:11:37.9    -161   -395    143    427    451 202.2  18.6  34158  289.55 0855.18
2009/04/23 11:11:38.0    -215   -352    144    413    438 211.4  19.3  34160  289.58 0855.18
2009/04/23 11:11:38.1    -124   -317    -60    341    347 201.4 -10.1  34162  289.59 0855.18
2009/04/23 11:11:38.2    -213   -408     48    461    464 207.6   6.0  34168  289.72 0855.18
2009/04/23 11:11:38.3    -167   -516    103    543    553 197.9  10.8  34166  289.68 0855.18
2009/04/23 11:11:38.4    -314   -514     41    603    605 211.4   3.9  34176  289.83 0855.18
2009/04/23 11:11:38.5    -282   -491     23    567    568 209.9   2.4  34178  289.89 0855.18
2009/04/23 11:11:38.6    -295   -388    -83    488    496 217.2  -9.7  34170  289.74 0855.18
2009/04/23 11:11:38.7    -270   -372     48    460    463 216.0   6.0  34160  289.58 0855.18
2009/04/23 11:11:38.8    -307   -391    -91    498    507 218.1 -10.4  34172  289.76 0855.16
2009/04/23 11:11:38.9    -310   -319   -170    445    476 224.2 -26.4  34172  289.79 0855.16
2009/04/23 11:11:39.0    -404   -250   -142    476    497 238.2 -16.6  34182  289.95 0855.16
2009/04/23 11:11:39.1    -239   -332   -130    410    430 215.7 -22.8  34166  289.68 0855.16
2009/04/23 11:11:39.2    -181   -364   -120    407    425 206.5 -16.5  34160  289.58 0855.16
2009/04/23 11:11:39.3    -218   -406   -177    462    494 208.3 -26.4  34158  289.54 0855.16
2009/04/23 11:11:39.4    -199   -390   -217    439    489 207.1 -32.6  34154  289.47 0855.16
2009/04/23 11:11:39.5    -234   -295   -244    377    449 218.4 -40.3  34154  289.46 0855.16
2009/04/23 11:11:39.6    -244   -252   -228    352    419 224.1 -40.3  34148  289.38 0855.16
2009/04/23 11:11:39.7    -203   -247   -213    320    384 219.4 -41.1  34150  289.40 0855.16
2009/04/23 11:11:39.8    -170   -212   -218    273    349 218.7 -47.3  34156  289.49 0855.16
2009/04/23 11:11:39.9    -163   -170   -201    236    309 223.7 -49.2  34170  289.73 0855.16
2009/04/23 11:11:40.0    -167   -116   -172    204    266 235.1 -48.7  34188  290.03 0855.16
2009/04/23 11:11:40.1    -104    -51   -174    116    209 243.8 -67.6  34190  290.08 0855.16
2009/04/23 11:11:40.2    -235    134    -93    271    286 299.8 -23.8  34202  290.29 0855.16
2009/04/23 11:11:40.3    -239    -30    -89    241    256 262.8 -25.7  34190  290.09 0855.16
2009/04/23 11:11:40.4    -256      0    -81    257    269 270.0 -22.8  34204  290.31 0855.16
2009/04/23 11:11:40.5     -70    -14   -133     72    151 258.5 -73.3  34206  290.35 0855.16
2009/04/23 11:11:40.6      -2   -114   -102    115    153 181.0 -50.8  34184  289.99 0855.16
2009/04/23 11:11:40.7       0   -153   -132    154    202 180.0 -49.8  34172  289.77 0855.16
2009/04/23 11:11:40.8     -51    -46   -118     69    136 227.8 -71.2  34182  289.94 0855.16
2009/04/23 11:11:40.9     -42    -31   -115     53    126 234.0 -77.9  34182  289.96 0855.16
2009/04/23 11:11:41.0      14    -43    -54     46     70 161.7 -60.7  34188  290.04 0855.16
2009/04/23 11:11:41.1      75    -29    -71     81    107 111.7 -50.2  34182  289.96 0855.16
2009/04/23 11:11:41.2      79      4    -86     80    117  86.5 -56.6  34182  289.94 0855.16
2009/04/23 11:11:41.3      69     30    -67     76    101  66.5 -50.8  34178  289.89 0855.16
2009/04/23 11:11:41.4     133    -44    -52    141    150 108.2 -25.3  34176  289.84 0855.16
2009/04/23 11:11:41.5     138    -44    -44    145    151 107.7 -21.7  34176  289.85 0855.16
2009/04/23 11:11:41.6     137    -49    -33    146    150 109.9 -12.9  34174  289.82 0855.16
2009/04/23 11:11:41.7     125    -35     -9    131    132 105.9  -4.1  34176  289.84 0855.16
2009/04/23 11:11:41.8     153      0      3    154    155  90.4   1.2  34168  289.70 0855.16
2009/04/23 11:11:41.9      55     39    -81     68    105  54.9 -60.2  34178  289.89 0855.16
2009/04/23 11:11:42.0      29      0    -55     30     62  90.0 -73.3  34186  290.01 0855.16
2009/04/23 11:11:42.1     -14     -1    -28     15     31 265.6 -75.2  34188  290.06 0855.16
2009/04/23 11:11:42.2     -28     -9    -19     30     35 251.4 -39.9  34192  290.13 0855.16
2009/04/23 11:11:42.3     -73    -19    -27     76     80 254.9 -24.4  34196  290.18 0855.16
2009/04/23 11:11:42.4    -112      4     55    113    125 272.1  27.8  34180  289.92 0855.16
2009/04/23 11:11:42.5    -205     -8     32    206    209 267.6   9.0  34174  289.82 0855.16
2009/04/23 11:11:42.6    -221     16    -69    222    233 274.3 -17.3  34176  289.85 0855.16
2009/04/23 11:11:42.7    -242    -51    -87    248    263 258.1 -19.4  34170  289.73 0855.16
2009/04/23 11:11:42.8    -282    -68    -25    291    293 256.3  -5.1  34176  289.83 0855.17
2009/04/23 11:11:42.9    -367    -51    -99    371    385 262.0 -15.0  34146  289.33 0855.17
2009/04/23 11:11:43.0    -345    -30    -91    347    359 265.0 -14.7  34160  289.57 0855.17
2009/04/23 11:11:43.1    -301    -59     15    307    308 258.8   2.9  34190  290.07 0855.17
2009/04/23 11:11:43.2    -329   -112    -68    348    355 251.2 -11.1  34172  289.77 0855.17
2009/04/23 11:11:43.3    -396    -97    -17    408    409 256.2  -2.5  34164  289.65 0855.17
2009/04/23 11:11:43.4    -387   -127    -32    408    410 251.8  -4.6  34188  290.04 0855.17
2009/04/23 11:11:43.5    -428    -83    -17    436    437 259.0  -2.2  34172  289.77 0855.17
2009/04/23 11:11:43.6    -339   -102    101    355    370 253.2  15.9  34188  290.06 0855.17
2009/04/23 11:11:43.7    -265   -137    111    299    318 242.7  21.3  34188  290.05 0855.17
2009/04/23 11:11:43.8    -224   -123     70    256    266 241.1  15.3  34186  290.00 0855.17
2009/04/23 11:11:43.9    -281    -97     -6    298    299 251.0  -1.2  34182  289.93 0855.17
2009/04/23 11:11:44.0    -242   -109    -19    266    267 245.6  -4.1  34176  289.83 0855.17
2009/04/23 11:11:44.1    -210   -124     12    245    246 239.4   2.9  34192  290.10 0855.17
2009/04/23 11:11:44.2    -165   -131     38    211    215 231.6  10.3  34190  290.08 0855.17
2009/04/23 11:11:44.3    -206    -47     -2    212    213 257.0  -0.7  34194  290.16 0855.17
2009/04/23 11:11:44.4    -143     -4     39    144    150 268.3  15.3  34182  289.96 0855.17
2009/04/23 11:11:44.5     -86    -17     39     88     96 258.5  25.7  34186  290.01 0855.17
2009/04/23 11:11:44.6    -128    -31    -10    132    133 256.3  -4.6  34190  290.09 0855.17
2009/04/23 11:11:44.7    -145      3      7    146    147 271.3   2.9  34196  290.18 0855.17
2009/04/23 11:11:44.8    -187     26    -14    189    190 278.1  -4.4  34200  290.26 0855.19
2009/04/23 11:11:44.9    -130     -3      1    131    132 268.3   0.8  34200  290.26 0855.19
2009/04/23 11:11:45.0    -109    -53     60    122    135 243.8  27.8  34196  290.18 0855.19
2009/04/23 11:11:45.1     -89    -62     22    109    112 234.9  11.6  34182  289.94 0855.19
2009/04/23 11:11:45.2      44   -118     29    127    131 159.5  13.1  34184  289.99 0855.19
2009/04/23 11:11:45.3       0   -215     22    216    218 180.2   5.9  34170  289.75 0855.19
2009/04/23 11:11:45.4     -28   -214     68    216    227 187.6  17.7  34174  289.82 0855.19
2009/04/23 11:11:45.5     -25   -238    102    240    260 186.2  24.3  34178  289.86 0855.19
2009/04/23 11:11:45.6    -103   -224    136    247    281 204.7  31.4  34170  289.73 0855.19
2009/04/23 11:11:45.7    -190   -274      5    334    335 214.8   1.0  34172  289.76 0855.19
2009/04/23 11:11:45.8    -211   -233     31    315    317 222.1   5.7  34170  289.75 0855.19
2009/04/23 11:11:45.9    -112   -176      0    209    210 212.5  -0.3  34168  289.70 0855.19
2009/04/23 11:11:46.0     -96   -331     47    345    349 196.3   7.8  34164  289.64 0855.19
2009/04/23 11:11:46.1     -78   -253     22    265    267 197.2   4.9  34164  289.64 0855.19
2009/04/23 11:11:46.2     -86   -170    101    191    216 207.0  30.1  34172  289.77 0855.19
2009/04/23 11:11:46.3     -35   -137     -1    142    143 194.3  -0.7  34164  289.65 0855.19
2009/04/23 11:11:46.4      -7   -154     16    155    156 182.7   5.9  34168  289.70 0855.19
2009/04/23 11:11:46.5     -93   -127     87    158    180 216.1  31.3  34170  289.74 0855.19
2009/04/23 11:11:46.6    -123   -109     56    165    175 228.4  18.9  34174  289.80 0855.19
2009/04/23 11:11:46.7     -56   -131     65    143    157 203.2  26.2  34180  289.92 0855.19
2009/04/23 11:11:46.8     -13    -88     82     90    121 188.9  47.5  34188  290.04 0855.14
2009/04/23 11:11:46.9     -23    -57    100     62    117 201.8  65.1  34198  290.23 0855.14
2009/04/23 11:11:47.0     -56    -19     95     60    112 251.4  64.7  34202  290.28 0855.14
2009/04/23 11:11:47.1     109    -22    161    112    196 101.5  62.1  34186  290.01 0855.14
2009/04/23 11:11:47.2     130    -18    235    132    269  98.0  68.5  34194  290.14 0855.14
2009/04/23 11:11:47.3     205     38    214    209    299  79.4  50.7  34168  289.70 0855.14
2009/04/23 11:11:47.4     235    -26    247    237    342  96.4  51.4  34160  289.56 0855.14
2009/04/23 11:11:47.5     248     11    247    249    350  87.4  50.0  34148  289.37 0855.14
2009/04/23 11:11:47.6     260     15    278    261    381  86.5  52.1  34152  289.45 0855.14
2009/04/23 11:11:47.7     274     32    238    276    364  83.2  45.2  34154  289.47 0855.14
2009/04/23 11:11:47.8     249     15    215    250    329  86.5  45.1  34160  289.56 0855.14
2009/04/23 11:11:47.9     171     24    182    173    251  81.9  51.4  34164  289.65 0855.14
2009/04/23 11:11:48.0      68     23    129     72    147  70.9  68.8  34172  289.77 0855.14
2009/04/23 11:11:48.1     -24     -1     70     25     74 265.6  81.2  34190  290.09 0855.14
2009/04/23 11:11:48.2     -52   -274    124    280    306 190.9  25.3  34176  289.83 0855.14
2009/04/23 11:11:48.3     -56   -258    130    265    295 192.4  28.0  34176  289.83 0855.14
2009/04/23 11:11:48.4     -13   -178    135    179    224 184.5  40.7  34184  289.99 0855.14
2009/04/23 11:11:48.5     -50   -122    164    132    210 202.3  56.9  34194  290.16 0855.14
2009/04/23 11:11:48.6      -6   -134    150    135    201 182.7  53.5  34178  289.87 0855.14
2009/04/23 11:11:48.7      47   -164    153    171    229 163.7  46.4  34178  289.87 0855.14
2009/04/23 11:11:48.8      21   -255    165    256    304 175.1  35.6  34170  289.75 0855.12
2009/04/23 11:11:48.9      20   -263    228    264    348 175.5  45.2  34180  289.92 0855.12
2009/04/23 11:11:49.0      55   -295    178    301    349 169.4  33.5  34168  289.71 0855.12
2009/04/23 11:11:49.1       1   -230    159    231    280 179.5  37.6  34168  289.70 0855.12
2009/04/23 11:11:49.2     -14   -222    177    223    284 183.6  42.7  34168  289.70 0855.12
2009/04/23 11:11:49.3      22   -178    135    180    225 172.9  40.7  34170  289.74 0855.12
2009/04/23 11:11:49.4      50   -305    164    310    350 170.7  30.3  34168  289.72 0855.12
2009/04/23 11:11:49.5      71   -341    178    349    391 168.1  29.2  34166  289.67 0855.12
2009/04/23 11:11:49.6     -11   -330    197    331    385 182.0  33.6  34172  289.79 0855.12
2009/04/23 11:11:49.7       6   -318    157    319    355 178.9  28.2  34174  289.82 0855.12
2009/04/23 11:11:49.8      10   -361    150    362    391 178.4  23.9  34164  289.64 0855.12
2009/04/23 11:11:49.9      20   -362    174    363    402 176.8  27.3  34168  289.72 0855.12
2009/04/23 11:11:50.0      24   -366    222    367    428 176.1  34.0  34168  289.70 0855.12
2009/04/23 11:11:50.1     -17   -390    199    391    438 182.6  29.2  34168  289.70 0855.12
2009/04/23 11:11:50.2       5   -414    203    415    461 179.2  27.9  34160  289.58 0855.12
2009/04/23 11:11:50.3     -86   -385    113    395    412 192.6  16.0  34162  289.61 0855.12
2009/04/23 11:11:50.4    -125   -376    161    397    428 198.4  23.1  34166  289.66 0855.12
2009/04/23 11:11:50.5     -56   -299    129    305    331 190.7  24.2  34164  289.63 0855.12
2009/04/23 11:11:50.6     -60   -181    106    191    218 198.5  31.4  34166  289.69 0855.12
2009/04/23 11:11:50.7     -23   -195     24    197    199 186.9   7.1  34168  289.72 0855.12
2009/04/23 11:11:50.8      45   -147     67    154    167 163.0  24.9  34170  289.75 0855.07
2009/04/23 11:11:50.9      -1   -111     51    112    123 180.9  25.7  34172  289.79 0855.07
2009/04/23 11:11:51.0      -2   -180     -9    181    182 180.9  -3.1  34166  289.69 0855.07
2009/04/23 11:11:51.1     -30   -247     74    249    260 187.1  16.6  34166  289.68 0855.07
2009/04/23 11:11:51.2      -3   -226     63    227    236 181.0  15.6  34162  289.62 0855.07
2009/04/23 11:11:51.3     -36   -331     61    334    340 186.3  10.4  34168  289.71 0855.07
2009/04/23 11:11:51.4    -114   -323     53    343    348 199.5   8.8  34170  289.74 0855.07
2009/04/23 11:11:51.5      32   -225     91    228    245 171.9  23.0  34164  289.64 0855.07
2009/04/23 11:11:51.6      71   -321    115    329    348 167.5  20.0  34168  289.72 0855.07
2009/04/23 11:11:51.7     143   -235    101    276    293 148.6  20.9  34168  289.71 0855.07
2009/04/23 11:11:51.8     179   -287     62    339    345 148.0  10.4  34172  289.76 0855.07
2009/04/23 11:11:51.9     190   -224      8    294    295 139.7   1.6  34174  289.80 0855.07
2009/04/23 11:11:52.0     224   -231    -21    323    324 135.9  -3.8  34172  289.78 0855.07
2009/04/23 11:11:52.1     136   -237     13    274    275 150.2   2.8  34172  289.76 0855.07
2009/04/23 11:11:52.2      80   -278     23    290    291 164.0   4.6  34172  289.76 0855.07
2009/04/23 11:11:52.3     129   -271    -38    301    304 154.5  -7.2  34172  289.78 0855.07
2009/04/23 11:11:52.4     213   -239    -20    321    322 138.3  -3.7  34170  289.75 0855.07
2009/04/23 11:11:52.5     194   -155    -13    249    250 128.7  -3.1  34170  289.73 0855.07
2009/04/23 11:11:52.6     188   -125    -12    226    227 123.7  -3.1  34168  289.70 0855.07
2009/04/23 11:11:52.7     160   -124     20    203    205 127.8   5.7  34168  289.72 0855.07
2009/04/23 11:11:52.8     161   -132     58    209    218 129.5  15.6  34168  289.72 0855.06
2009/04/23 11:11:52.9     142   -177     99    228    248 141.3  25.1  34172  289.76 0855.06
2009/04/23 11:11:53.0     179   -240    153    300    336 143.3  29.2  34180  289.90 0855.06
2009/04/23 11:11:53.1     199   -241    169    313    355 140.4  30.8  34178  289.86 0855.06
2009/04/23 11:11:53.2     183   -221    117    288    310 140.4  23.1  34180  289.92 0855.06
2009/04/23 11:11:53.3     149   -235    142    279    313 147.5  29.1  34180  289.92 0855.06
2009/04/23 11:11:53.4     192   -255    176    320    365 143.0  31.3  34176  289.84 0855.06
2009/04/23 11:11:53.5     187   -323    287    374    471 150.0  41.3  34170  289.75 0855.06
2009/04/23 11:11:53.6      86   -190    257    209    331 155.7  56.8  34176  289.83 0855.06
2009/04/23 11:11:53.7     223   -139    180    263    318 122.0  37.7  34180  289.90 0855.06
2009/04/23 11:11:53.8      72   -224    149    236    279 162.2  35.5  34176  289.85 0855.06
2009/04/23 11:11:53.9     112   -167    108    202    229 146.2  30.6  34174  289.80 0855.06
2009/04/23 11:11:54.0     138   -129    148    190    240 133.1  42.0  34174  289.82 0855.06
2009/04/23 11:11:54.1      98    -72    137    122    183 126.4  53.5  34184  289.97 0855.06
2009/04/23 11:11:54.2      80    -97     89    126    154 140.4  38.6  34184  289.99 0855.06
2009/04/23 11:11:54.3     101   -116     56    155    164 139.0  20.2  34178  289.89 0855.06
2009/04/23 11:11:54.4     122   -156     59    199    208 141.9  16.6  34178  289.87 0855.06
2009/04/23 11:11:54.5     111   -151    110    188    217 143.5  33.1  34178  289.89 0855.06
2009/04/23 11:11:54.6      90   -148    130    174    217 148.6  40.4  34178  289.89 0855.06
2009/04/23 11:11:54.7     113   -124    131    169    213 137.7  41.7  34184  289.97 0855.06
2009/04/23 11:11:54.8     112   -112    150    159    218 134.9  48.0  34188  290.06 0855.08
2009/04/23 11:11:54.9     163    -98    128    191    229 121.1  37.0  34182  289.96 0855.08
2009/04/23 11:11:55.0     164   -129    161    209    263 128.2  41.7  34178  289.88 0855.08
2009/04/23 11:11:55.1      27   -190    210    192    284 171.8  53.0  34178  289.88 0855.08
2009/04/23 11:11:55.2     186   -180    131    260    291 134.0  28.7  34176  289.85 0855.08
2009/04/23 11:11:55.3     191   -169    156    256    299 131.6  34.4  34178  289.86 0855.08
2009/04/23 11:11:55.4     174   -133    104    220    243 127.5  27.2  34180  289.90 0855.08
2009/04/23 11:11:55.5     136   -202     44    244    249 145.9  10.3  34184  289.97 0855.08
2009/04/23 11:11:55.6     222   -141     13    264    265 122.5   2.9  34184  289.98 0855.08
2009/04/23 11:11:55.7     164   -176     70    241    252 137.0  16.3  34184  289.98 0855.08
2009/04/23 11:11:55.8     174   -247     48    303    307 144.8   9.0  34172  289.76 0855.08
2009/04/23 11:11:55.9     136   -245     42    281    285 151.0   8.5  34174  289.80 0855.08
2009/04/23 11:11:56.0      67   -242     73    252    263 164.4  16.3  34176  289.83 0855.08
2009/04/23 11:11:56.1     110   -215    117    242    268 152.8  27.3  34172  289.76 0855.08
2009/04/23 11:11:56.2     146   -207    181    254    311 144.8  39.0  34176  289.83 0855.08
2009/04/23 11:11:56.3      70   -176    119    190    224 158.2  35.5  34178  289.89 0855.08
2009/04/23 11:11:56.4      74   -203     27    217    219 160.0   7.1  34180  289.92 0855.08
2009/04/23 11:11:56.5      91   -228     16    246    247 158.1   3.8  34180  289.92 0855.08
2009/04/23 11:11:56.7       1   -219     43    220    225 179.5  11.1  34182  289.94 0855.08
2009/04/23 11:11:56.8     -15   -201     29    202    205 184.5   8.2  34184  289.99 0855.08
2009/04/23 11:11:56.8      -9   -147     39    148    154 183.6  14.7  34186  290.02 0855.10
2009/04/23 11:11:57.0      11   -155     38    156    161 175.6  13.7  34184  289.99 0855.10
2009/04/23 11:11:57.1      41   -126     31    133    137 161.7  13.2  34184  289.97 0855.10
2009/04/23 11:11:57.2     127     -2    109    128    168  91.3  44.8  34180  289.92 0855.10
2009/04/23 11:11:57.3     139    -60     98    152    180 113.5  35.7  34180  289.92 0855.10
2009/04/23 11:11:57.4     129    -72     81    149    169 119.3  30.8  34184  289.97 0855.10
2009/04/23 11:11:57.5      57   -140    169    152    227 157.7  53.5  34190  290.08 0855.10
2009/04/23 11:11:57.6      -7   -214    152    215    263 182.0  38.6  34184  289.98 0855.10
2009/04/23 11:11:57.7     -33   -237    175    240    297 188.1  39.7  34188  290.05 0855.10
2009/04/23 11:11:57.8     -67   -209    146    220    264 197.8  36.5  34192  290.10 0855.10
2009/04/23 11:11:57.9     -73   -138     66    157    170 208.1  24.1  34190  290.08 0855.14
2009/04/23 11:11:58.0      46    -45     25     65     69 134.9  22.0  34196  290.19 0855.14
2009/04/23 11:11:58.1      37   -138    -41    143    148 164.9 -20.7  34184  289.97 0855.14
2009/04/23 11:11:58.2     108   -171     43    203    208 147.7  12.0  34180  289.92 0855.14
2009/04/23 11:11:58.3     104   -117     73    157    173 138.5  26.6  34182  289.96 0855.14
2009/04/23 11:11:58.4     106   -185     75    214    227 150.1  19.4  34182  289.96 0855.14
2009/04/23 11:11:58.5      59   -167    102    178    205 160.4  32.7  34188  290.04 0855.14
2009/04/23 11:11:58.6      18   -158    142    160    213 173.3  46.2  34188  290.04 0855.14
2009/04/23 11:11:58.7     -26   -129    -44    132    140 191.5 -18.7  34188  290.06 0855.14
2009/04/23 11:11:58.8     -16    -86    -30     88     92 191.1 -23.3  34190  290.09 0855.14
2009/04/23 11:11:58.9      -5    -67    -48     68     83 184.4 -43.5  34186  290.01 0855.14
2009/04/23 11:11:59.0      20    -36    -64     42     76 150.1 -69.0  34194  290.14 0855.14
2009/04/23 11:11:59.1      29    -20    -63     36     72 124.2 -73.2  34200  290.25 0855.14
2009/04/23 11:11:59.2      56    -54    -69     78    104 134.1 -51.3  34200  290.25 0855.14
2009/04/23 11:11:59.3      63    -60    -82     88    120 133.6 -52.3  34194  290.16 0855.14
2009/04/23 11:11:59.4      88    -44    -55     99    113 116.6 -35.8  34196  290.19 0855.14
2009/04/23 11:11:59.5      86    -74    -40    114    120 130.9 -24.4  34190  290.09 0855.14
2009/04/23 11:11:59.6      82    -64    -11    105    106 128.2  -6.2  34192  290.11 0855.14
2009/04/23 11:11:59.7      81    -40     58     91    107 116.2  35.5  34192  290.11 0855.14
2009/04/23 11:11:59.8      58    -72     93     93    131 141.3  50.1  34190  290.08 0855.14
2009/04/23 11:11:59.9      74    -82     80    111    136 138.1  39.5  34188  290.06 0855.15
2009/04/23 11:12:00.0     121    -45    122    130    178 110.4  48.0  34188  290.04 0855.15
2009/04/23 11:12:00.1      61     -8    104     62    121  97.9  66.7  34200  290.25 0855.15
2009/04/23 11:12:00.2      92    -31    158     98    185 108.6  64.9  34198  290.23 0855.15
2009/04/23 11:12:00.3       0      0     76      1     76  90.0  90.0  34198  290.21 0855.15
2009/04/23 11:12:00.4      17     48    117     52    128  20.0  74.9  34200  290.26 0855.15
2009/04/23 11:12:00.5      69      7    197     70    209  83.9  79.9  34204  290.33 0855.15
2009/04/23 11:12:00.6     231    -73    187    243    306 107.5  41.6  34190  290.07 0855.15
2009/04/23 11:12:00.7     208    -70    118    220    249 108.6  30.3  34188  290.05 0855.15
2009/04/23 11:12:00.8     203    -59    134    212    250 106.4  35.5  34192  290.12 0855.15
2009/04/23 11:12:00.9     235    -54     25    242    244 103.0   5.9  34188  290.05 0855.15
2009/04/23 11:12:01.0     211    -70     43    223    228 108.4  11.0  34198  290.21 0855.15
2009/04/23 11:12:01.1     115    -78    147    140    203 124.2  51.4  34198  290.23 0855.15
2009/04/23 11:12:01.2      48    -48    114     69    133 135.0  65.7  34212  290.45 0855.15
2009/04/23 11:12:01.3      82     30     93     88    128  69.6  51.6  34200  290.26 0855.15
2009/04/23 11:12:01.4      38     30     90     49    102  51.4  68.9  34210  290.41 0855.15
2009/04/23 11:12:01.5      37     72     63     81    102  27.2  42.2  34200  290.26 0855.15
2009/04/23 11:12:01.6       0     48     48     49     68 359.1  51.1  34206  290.35 0855.15
2009/04/23 11:12:01.7       0      7     54      8     54 357.3  90.0  34206  290.35 0855.15
2009/04/23 11:12:01.8      -8    -55     72     56     91 188.9  57.9  34208  290.38 0855.15
2009/04/23 11:12:01.9     -50    -93    132    106    169 208.5  56.9  34192  290.13 0855.14
2009/04/23 11:12:02.0     -58   -155     80    166    184 200.7  27.4  34188  290.06 0855.14
2009/04/23 11:12:02.1    -108   -215    101    241    261 206.7  24.1  34190  290.09 0855.14
2009/04/23 11:12:02.2     -92   -209     89    229    245 203.7  22.3  34190  290.09 0855.14
2009/04/23 11:12:02.3     -80   -186     70    203    215 203.4  19.2  34192  290.11 0855.14
2009/04/23 11:12:02.4     -92   -172     43    196    201 208.1  12.6  34190  290.09 0855.14
2009/04/23 11:12:02.5    -136   -162    -16    212    213 219.9  -4.4  34186  290.01 0855.14
2009/04/23 11:12:02.6    -136   -130      0    189    190 226.2   0.0  34188  290.06 0855.14
2009/04/23 11:12:02.7     -54   -173     47    182    189 197.4  14.7  34192  290.13 0855.14
2009/04/23 11:12:02.8     -87   -185     87    205    222 205.3  24.3  34192  290.13 0855.14
2009/04/23 11:12:02.9     -81   -187     55    204    212 203.4  15.3  34192  290.11 0855.14
2009/04/23 11:12:03.0     -73   -241     15    252    253 196.9   3.6  34192  290.10 0855.14
2009/04/23 11:12:03.1     -64   -256      5    265    266 194.2   1.2  34194  290.14 0855.14
2009/04/23 11:12:03.2      -2   -147     92    148    174 180.9  35.2  34196  290.19 0855.14
2009/04/23 11:12:03.3     -43   -120     55    128    139 200.0  24.6  34192  290.13 0855.14
2009/04/23 11:12:03.4      -3    -84     68     85    108 182.2  43.7  34196  290.19 0855.14
2009/04/23 11:12:03.5      26    -73     68     78    103 160.0  46.4  34204  290.33 0855.14
2009/04/23 11:12:03.6      34     -6     63     35     72 101.5  68.8  34212  290.47 0855.14
2009/04/23 11:12:03.7      29    -64    103     71    125 155.5  62.6  34210  290.41 0855.14
2009/04/23 11:12:03.8      -1    -94    115     95    149 180.9  56.4  34206  290.35 0855.14
2009/04/23 11:12:03.9      17    -54     93     57    109 161.7  65.1  34212  290.45 0855.15
2009/04/23 11:12:04.0       0    -66     70     67     96 180.0  50.7  34202  290.30 0855.15
2009/04/23 11:12:04.1      26    -46     87     54    102 150.1  65.1  34212  290.45 0855.15
2009/04/23 11:12:04.2      30    -20     82     37     89 124.2  74.0  34228  290.72 0855.15
2009/04/23 11:12:04.3      -1     11     58     12     59 352.0  89.0  34220  290.58 0855.15
2009/04/23 11:12:04.4      90     27     74     94    119  73.2  42.2  34210  290.41 0855.15
2009/04/23 11:12:04.5     142    -51    128    152    198 110.0  44.3  34210  290.41 0855.15
2009/04/23 11:12:04.6      89    -31    140     95    169 109.1  62.8  34208  290.40 0855.15
2009/04/23 11:12:04.7     137    -74    129    156    202 118.4  43.8  34206  290.36 0855.15
2009/04/23 11:12:04.8      43    -83    135     94    164 152.4  62.1  34204  290.33 0855.15
2009/04/23 11:12:04.9      65    -17     91     68    113 105.1  60.0  34206  290.36 0855.15
2009/04/23 11:12:05.0       7    -91    133     92    161 175.5  62.1  34202  290.30 0855.15
2009/04/23 11:12:05.1      12    -84     87     85    121 171.5  50.2  34212  290.47 0855.15
2009/04/23 11:12:05.2       0   -150     87    151    174 180.4  32.9  34200  290.25 0855.15
2009/04/23 11:12:05.3      87   -191    136    210    250 155.5  36.0  34196  290.17 0855.15
2009/04/23 11:12:05.4      55   -255    108    262    283 167.7  23.8  34192  290.10 0855.15
2009/04/23 11:12:05.5      17   -219     76    220    233 175.5  19.2  34190  290.08 0855.15
2009/04/23 11:12:05.6     -34   -199     60    202    211 189.8  16.6  34190  290.08 0855.15
2009/04/23 11:12:05.7      12   -178     88    179    199 176.0  28.0  34190  290.09 0855.15
2009/04/23 11:12:05.8      79   -198     -8    214    215 158.1  -2.3  34190  290.08 0855.15
2009/04/23 11:12:05.9      91   -180     10    202    203 153.0   2.9  34190  290.09 0855.15
2009/04/23 11:12:06.0     106   -269     52    290    295 158.4  10.3  34192  290.12 0855.15
2009/04/23 11:12:06.1      73   -271    148    281    317 164.9  30.1  34194  290.14 0855.15
2009/04/23 11:12:06.2      22   -233    115    235    261 174.4  28.0  34194  290.15 0855.15
2009/04/23 11:12:06.3      53   -242     58    248    255 167.5  13.2  34192  290.10 0855.15
2009/04/23 11:12:06.4      59   -218     84    226    241 164.8  21.3  34190  290.07 0855.15
2009/04/23 11:12:06.5     -44   -181     36    187    191 193.8  11.0  34190  290.08 0855.15
2009/04/23 11:12:06.6     -65   -163     34    176    180 201.8  11.1  34192  290.11 0855.15
2009/04/23 11:12:06.7     -53   -150      2    160    161 199.6   0.8  34194  290.14 0855.15
2009/04/23 11:12:06.8     -68   -157    -71    172    186 203.4 -28.0  34194  290.14 0855.15
2009/04/23 11:12:06.9    -120   -203    -46    237    242 210.7 -11.1  34200  290.24 0855.15
2009/04/23 11:12:07.0    -212   -200    -59    292    298 226.7 -11.5  34208  290.39 0855.15
2009/04/23 11:12:07.1     -91   -227     -9    245    246 201.8  -2.2  34204  290.31 0855.15
2009/04/23 11:12:07.2    -160    -63     26    173    176 248.3   8.8  34208  290.38 0855.15
2009/04/23 11:12:07.3    -116   -102     20    155    157 228.7   7.5  34206  290.36 0855.15
2009/04/23 11:12:07.4    -108   -148    -12    184    185 216.0  -3.7  34196  290.18 0855.15
2009/04/23 11:12:07.5     -99   -170    -22    197    199 210.3  -6.5  34194  290.16 0855.15
2009/04/23 11:12:07.6    -139    -98    -56    171    181 234.9 -18.3  34194  290.14 0855.15
2009/04/23 11:12:07.7     -27    -68    -30     74     79 201.8 -28.0  34194  290.16 0855.15
2009/04/23 11:12:07.8     -28      3     -3     29     30 276.1  -7.2  34196  290.18 0855.15
2009/04/23 11:12:07.9     -56     34      9     66     67 301.5   8.0  34198  290.21 0855.15
2009/04/23 11:12:08.0     -65     41      5     77     78 302.4   3.8  34200  290.25 0855.15
2009/04/23 11:12:08.1     -53     10     22     55     59 281.5  23.0  34200  290.26 0855.15
2009/04/23 11:12:08.2     -85     -3     -3     86     87 267.9  -2.6  34196  290.18 0855.15
2009/04/23 11:12:08.3    -104      1    -21    105    108 270.8 -11.3  34192  290.13 0855.15
2009/04/23 11:12:08.4    -152     46   -150    159    218 286.9 -52.4  34202  290.30 0855.15
2009/04/23 11:12:08.5     -85     15   -157     87    179 280.1 -73.2  34208  290.38 0855.15
2009/04/23 11:12:08.6    -142    124   -144    189    237 311.3 -45.6  34198  290.23 0855.15
2009/04/23 11:12:08.7    -294     77   -153    305    341 284.8 -33.0  34218  290.54 0855.15
2009/04/23 11:12:08.8    -206     41    -99    211    233 281.2 -31.5  34210  290.43 0855.15
2009/04/23 11:12:08.9    -114    -77   -100    138    170 235.8 -44.1  34216  290.53 0855.15
2009/04/23 11:12:09.0    -179     70    -51    193    200 291.3 -15.0  34208  290.40 0855.15
2009/04/23 11:12:09.1    -227    149    -26    272    274 303.3  -5.6  34224  290.66 0855.15
2009/04/23 11:12:09.2    -299     76   -123    309    332 284.4 -27.4  34208  290.37 0855.15
2009/04/23 11:12:09.3    -338     79    -75    348    357 283.3 -12.2  34188  290.04 0855.15
2009/04/23 11:12:09.4    -329     23   -130    330    354 274.0 -27.1  34148  289.38 0855.15
2009/04/23 11:12:09.5    -478      7   -159    479    504 270.9 -23.8  34162  289.59 0855.15
2009/04/23 11:12:09.6    -496   -262   -223    562    604 242.1 -27.4  34166  289.69 0855.15
2009/04/23 11:12:09.7    -402   -153   -249    431    497 249.1 -37.2  34146  289.32 0855.15
2009/04/23 11:12:09.8    -357   -127   -202    380    430 250.3 -34.7  34162  289.61 0855.15
2009/04/23 11:12:09.9    -410    -76   -256    418    490 259.4 -38.8  34134  289.13 0855.15
2009/04/23 11:12:10.0    -313    -34   -197    315    371 263.8 -39.6  34174  289.82 0855.15
2009/04/23 11:12:10.1    -210     -4   -189    211    283 268.7 -51.0  34178  289.86 0855.15
2009/04/23 11:12:10.2    -338     -4   -110    339    357 269.3 -18.0  34204  290.32 0855.15
2009/04/23 11:12:10.3    -401    -64   -128    407    427 260.9 -17.5  34166  289.68 0855.15
2009/04/23 11:12:10.4    -321    -83   -211    332    393 255.5 -39.9  34140  289.23 0855.15
2009/04/23 11:12:10.5    -429     -7   -161    430    459 269.0 -25.8  34134  289.14 0855.15
2009/04/23 11:12:10.6    -267   -139   -181    302    352 242.5 -38.1  34174  289.81 0855.15
2009/04/23 11:12:10.7    -154    -98    -86    183    202 237.4 -31.4  34198  290.21 0855.15
2009/04/23 11:12:10.8    -223    -99   -144    245    284 246.0 -37.8  34166  289.68 0855.15
2009/04/23 11:12:10.9    -139    -74    -82    158    178 242.0 -34.2  34180  289.92 0855.15
2009/04/23 11:12:11.0     -65   -131    -66    147    161 206.3 -30.1  34190  290.09 0855.15
2009/04/23 11:12:11.1    -144    -69    -28    160    163 244.2 -10.1  34188  290.06 0855.15
2009/04/23 11:12:11.2    -127   -107    -52    167    174 229.8 -22.8  34200  290.25 0855.15
2009/04/23 11:12:11.3    -147    -56    -15    158    159 249.2  -5.6  34200  290.25 0855.15
2009/04/23 11:12:11.4    -150   -168     -4    226    227 221.7  -1.2  34198  290.21 0855.15
2009/04/23 11:12:11.5     -88   -204    -64    223    232 203.4 -20.7  34210  290.43 0855.15
2009/04/23 11:12:11.6     -44   -189    -63    195    204 193.1 -23.6  34210  290.41 0855.15
2009/04/23 11:12:11.7       3   -215    -44    216    221 179.0 -11.6  34200  290.26 0855.15
2009/04/23 11:12:11.8      66   -277    -27    285    287 166.4  -5.6  34190  290.09 0855.15
2009/04/23 11:12:11.9       5   -301    -90    302    316 179.0 -16.6  34188  290.03 0855.17
2009/04/23 11:12:12.0      30   -300    -74    302    312 174.2 -13.9  34186  290.00 0855.17
2009/04/23 11:12:12.1      62   -307    -34    314    316 168.4  -6.2  34182  289.93 0855.17
2009/04/23 11:12:12.2       3   -336    -25    337    338 179.4  -4.4  34184  289.99 0855.17
2009/04/23 11:12:12.3     -18   -360    -37    361    364 182.9  -6.0  34192  290.13 0855.17
2009/04/23 11:12:12.4     -51   -213   -119    220    250 193.6 -35.0  34190  290.07 0855.17
2009/04/23 11:12:12.5     -37   -185    -79    189    204 191.3 -28.7  34192  290.13 0855.17
2009/04/23 11:12:12.6    -110   -146   -107    184    212 217.0 -37.5  34170  289.74 0855.17
2009/04/23 11:12:12.7    -137   -133    -75    192    206 225.8 -26.9  34150  289.41 0855.17
2009/04/23 11:12:12.8    -135   -185    -65    230    239 216.1 -20.7  34152  289.44 0855.17
2009/04/23 11:12:12.9    -140   -157    -68    211    221 221.9 -23.3  34158  289.53 0855.17
2009/04/23 11:12:13.0    -199   -180   -109    269    290 227.8 -27.5  34142  289.25 0855.17
2009/04/23 11:12:13.1    -137   -129   -126    189    227 226.8 -41.1  34134  289.13 0855.17
2009/04/23 11:12:13.2     -46    -56    -87     73    113 219.7 -60.2  34146  289.33 0855.17
2009/04/23 11:12:13.3     -14     -1    -43     15     45 265.6 -85.6  34160  289.57 0855.17
2009/04/23 11:12:13.4       8    -92     32     93     99 174.7  18.9  34160  289.58 0855.17
2009/04/23 11:12:13.5     -12   -138     57    139    150 185.3  23.1  34166  289.67 0855.17
2009/04/23 11:12:13.6     -26   -123     39    126    133 192.0  17.4  34176  289.84 0855.17
2009/04/23 11:12:13.7      10   -159     52    160    169 176.4  17.9  34166  289.67 0855.17
2009/04/23 11:12:13.8       9   -265     25    266    268 178.0   5.4  34162  289.61 0855.17
2009/04/23 11:12:13.9      -4   -260     33    261    264 181.0   7.2  34172  289.76 0855.17
2009/04/23 11:12:14.0      13   -284     13    285    286 177.3   2.8  34172  289.78 0855.17
2009/04/23 11:12:14.1      -4   -311     -6    312    313 180.9  -1.2  34174  289.80 0855.17
2009/04/23 11:12:14.2       4   -271     13    272    273 179.0   2.9  34158  289.53 0855.17
2009/04/23 11:12:14.3     -37   -290     51    293    298 187.3   9.9  34156  289.51 0855.17
2009/04/23 11:12:14.4    -134   -262    -16    295    296 207.2  -3.2  34150  289.39 0855.17
2009/04/23 11:12:14.5    -147   -190    -81    241    255 217.8 -18.6  34150  289.41 0855.17
2009/04/23 11:12:14.6     -30   -242      3    244    245 187.1   0.7  34152  289.42 0855.17
2009/04/23 11:12:14.7     -43   -277     14    281    282 188.9   2.9  34162  289.59 0855.17
2009/04/23 11:12:14.8     -33   -261     47    264    269 187.3  10.1  34162  289.59 0855.17
2009/04/23 11:12:14.9     -17   -218     72    219    231 184.5  18.4  34168  289.70 0855.17
2009/04/23 11:12:15.0     -36   -215     51    219    225 189.7  13.1  34164  289.63 0855.17
2009/04/23 11:12:15.1     -36   -219     43    222    227 189.3  11.1  34178  289.89 0855.17
2009/04/23 11:12:15.2     -54   -203      1    211    212 194.9   0.5  34172  289.77 0855.17
2009/04/23 11:12:15.3     -71   -295    -27    304    306 193.6  -5.2  34166  289.68 0855.17
2009/04/23 11:12:15.4    -192   -218    -75    291    301 221.4 -14.5  34148  289.37 0855.17
2009/04/23 11:12:15.5     -80   -333    -13    343    344 193.5  -2.3  34168  289.72 0855.17
2009/04/23 11:12:15.6     -67   -303      9    311    312 192.5   1.7  34172  289.76 0855.17
2009/04/23 11:12:15.7      -5   -300    -21    301    302 181.0  -4.1  34166  289.66 0855.17
2009/04/23 11:12:15.8     -35   -336    -28    338    340 186.1  -4.8  34172  289.76 0855.17
2009/04/23 11:12:15.9     -22   -298    -77    299    309 184.4 -14.5  34166  289.66 0855.18
2009/04/23 11:12:16.0     -68   -255    -52    265    271 195.1 -11.1  34166  289.66 0855.18
2009/04/23 11:12:16.1     -46   -229     17    234    235 191.5   4.2  34166  289.68 0855.18
2009/04/23 11:12:16.2     -61   -233     -6    241    242 194.7  -1.6  34168  289.71 0855.18
2009/04/23 11:12:16.3    -228   -274    119    357    377 219.8  18.4  34176  289.84 0855.18
2009/04/23 11:12:16.4    -292   -240    -50    379    383 230.6  -7.6  34188  290.06 0855.18
2009/04/23 11:12:16.5    -301   -165   -114    344    362 241.2 -23.8  34184  289.98 0855.18
2009/04/23 11:12:16.6    -300   -170    -68    345    352 240.5 -11.2  34198  290.23 0855.18
2009/04/23 11:12:16.7    -233   -193    -51    303    308 230.4  -9.6  34220  290.59 0855.18
2009/04/23 11:12:16.8    -132   -247      4    281    282 208.1   0.8  34184  289.98 0855.18
2009/04/23 11:12:16.9     -97   -195    100    218    239 206.5  26.2  34172  289.78 0855.18
2009/04/23 11:12:17.0     -55    -86    161    103    191 212.5  64.6  34146  289.33 0855.18
2009/04/23 11:12:17.1     -26    -69    156     74    172 200.9  72.9  34152  289.45 0855.18
2009/04/23 11:12:17.2     -12     20    126     24    128 327.5  89.1  34174  289.82 0855.18
2009/04/23 11:12:17.3     139     58    145    151    209  67.4  49.2  34184  289.99 0855.18
2009/04/23 11:12:17.4     221     74    134    234    269  71.4  32.4  34190  290.07 0855.18
2009/04/23 11:12:17.5     312     92    328    326    462  73.5  50.1  34136  289.16 0855.18
2009/04/23 11:12:17.6     144     -7    201    145    247  93.0  60.6  34140  289.24 0855.18
2009/04/23 11:12:17.7     -14    -77    123     79    146 190.7  64.6  34154  289.48 0855.18
2009/04/23 11:12:17.8      98      7    166     99    193  85.6  66.2  34148  289.38 0855.18
2009/04/23 11:12:17.9     -83    120     64    147    160 325.3  24.9  34148  289.36 0855.15
2009/04/23 11:12:18.0    -142     50     -6    151    152 289.5  -2.6  34150  289.40 0855.15
2009/04/23 11:12:18.1     -80      8    -47     81     93 276.1 -37.9  34148  289.38 0855.15
2009/04/23 11:12:18.2    -185     92     51    207    214 296.6  13.9  34134  289.13 0855.15
2009/04/23 11:12:18.3    -267    119    140    293    324 294.0  27.3  34130  289.07 0855.15
2009/04/23 11:12:18.4    -355    -53    101    360    374 261.4  15.7  34128  289.03 0855.15
2009/04/23 11:12:18.5    -292    -69    115    301    322 256.7  21.8  34136  289.15 0855.15
2009/04/23 11:12:18.6     -13   -124    116    125    170 186.3  47.7  34132  289.11 0855.15
2009/04/23 11:12:18.7     -99   -259    127    278    305 200.9  26.2  34150  289.41 0855.15
2009/04/23 11:12:18.8     -44   -168     31    174    177 194.7  10.1  34154  289.48 0855.15
2009/04/23 11:12:18.9     -17   -222     22    223    225 184.4   5.7  34170  289.75 0855.13
2009/04/23 11:12:19.0     -63   -170     87    182    201 200.5  27.2  34154  289.48 0855.13
2009/04/23 11:12:19.1      23   -185     33    187    190 172.7  10.1  34168  289.70 0855.13
2009/04/23 11:12:19.2     -25   -190    -75    192    206 187.6 -26.9  34160  289.57 0855.13
2009/04/23 11:12:19.3     -49   -308     50    313    318 189.1   9.2  34144  289.31 0855.13
2009/04/23 11:12:19.4     -58   -341    145    346    375 189.7  24.1  34150  289.40 0855.13
2009/04/23 11:12:19.5     -53   -347    189    352    399 188.7  30.6  34152  289.42 0855.13
2009/04/23 11:12:19.6    -176   -352    265    394    474 206.6  37.2  34154  289.48 0855.13
2009/04/23 11:12:19.7     -56   -158    287    168    332 199.8  67.1  34156  289.51 0855.13
2009/04/23 11:12:19.8      -8   -102    206    103    230 184.5  71.9  34162  289.60 0855.13
2009/04/23 11:12:19.9     128   -182    218    223    311 144.8  49.8  34152  289.44 0855.13
2009/04/23 11:12:20.0     -20      8    197     22    198 291.7  90.0  34160  289.57 0855.13
2009/04/23 11:12:20.1    -107      8    189    108    217 274.4  68.1  34160  289.57 0855.13
2009/04/23 11:12:20.2      19    -59    141     63    154 162.2  74.0  34150  289.40 0855.13
2009/04/23 11:12:20.3    -123   -119    187    172    254 225.8  52.5  34150  289.40 0855.13
2009/04/23 11:12:20.4    -278   -142    184    313    363 242.9  33.1  34136  289.18 0855.13
2009/04/23 11:12:20.5    -346    -77    127    355    377 257.4  20.4  34182  289.93 0855.13
2009/04/23 11:12:20.6    -442    -77    140    449    471 260.0  17.3  34158  289.55 0855.13
2009/04/23 11:12:20.7    -277     59    135    284    314 282.2  27.2  34144  289.29 0855.13
2009/04/23 11:12:20.8       8     57    164     58    173   8.0  80.2  34166  289.69 0855.13
2009/04/23 11:12:20.9     -15     52    156     55    165 344.0  80.5  34172  289.77 0855.13
2009/04/23 11:12:21.0     -49     40     45     64     78 309.6  38.6  34174  289.82 0855.13
2009/04/23 11:12:21.1     -80    -33      9     87     88 247.4   6.5  34166  289.67 0855.13
2009/04/23 11:12:21.2     -76   -117    -46    140    147 213.0 -23.8  34160  289.58 0855.13
2009/04/23 11:12:21.3     -39   -137     12    143    144 196.0   4.9  34150  289.40 0855.13
2009/04/23 11:12:21.4     -32    -92    -41     98    106 199.6 -28.0  34144  289.30 0855.13
2009/04/23 11:12:21.5     -35   -104    -48    110    120 198.7 -29.5  34150  289.41 0855.13
2009/04/23 11:12:21.6      58    -96   -135    113    176 148.8 -60.2  34154  289.46 0855.13
2009/04/23 11:12:21.7     127   -156   -104    202    227 140.8 -33.7  34150  289.41 0855.13
2009/04/23 11:12:21.8      14   -311    -94    312    325 177.3 -21.7  34166  289.66 0855.13
2009/04/23 11:12:21.9      -7   -218   -178    219    282 182.0 -47.7  34174  289.80 0855.13
2009/04/23 11:12:22.0     226   -313   -122    387    407 144.2 -17.6  34152  289.45 0855.13
2009/04/23 11:12:22.1     338   -378   -131    508    525 138.2 -14.5  34142  289.27 0855.13
2009/04/23 11:12:22.2     379   -377    -88    535    543 134.8  -9.3  34144  289.31 0855.13
2009/04/23 11:12:22.3     496   -377    -58    624    627 127.2  -5.4  34154  289.48 0855.13
2009/04/23 11:12:22.4     500   -540    -28    736    737 137.2  -2.2  34148  289.38 0855.13
2009/04/23 11:12:22.5     498   -494     25    702    703 134.8   2.1  34156  289.49 0855.13
2009/04/23 11:12:22.7     501   -471     65    688    692 133.2   5.4  34154  289.46 0855.13
2009/04/23 11:12:22.7     509   -467    189    691    717 132.5  15.3  34150  289.39 0855.13
2009/04/23 11:12:22.9     553   -363    283    662    719 123.3  24.6  34152  289.44 0855.13
2009/04/23 11:12:22.9     547   -347     78    648    653 122.4   6.9  34162  289.59 0855.14
2009/04/23 11:12:23.0     329   -498     68    598    602 146.5   6.6  34158  289.54 0855.14
2009/04/23 11:12:23.2     271   -637     10    693    694 157.0   0.9  34162  289.60 0855.14
2009/04/23 11:12:23.3     211   -590     34    627    629 160.3   3.1  34158  289.55 0855.14
2009/04/23 11:12:23.4     203   -637     26    669    670 162.3   2.2  34156  289.51 0855.14
2009/04/23 11:12:23.5     -14   -905    -88    906    911 180.9  -5.6  34146  289.33 0855.14
2009/04/23 11:12:23.6     153   -686     30    704    705 167.4   2.5  34150  289.39 0855.14
2009/04/23 11:12:23.7     -38   -876    311    877    931 182.5  19.6  34150  289.39 0855.14
2009/04/23 11:12:23.8     -94   -696    133    703    716 187.7  10.7  34156  289.49 0855.14
2009/04/23 11:12:23.9    -106   -563    461    574    736 190.7  42.9  34152  289.43 0855.14
2009/04/23 11:12:24.0      -5   -258    369    259    450 181.1  61.5  34160  289.57 0855.14
2009/04/23 11:12:24.1      57    -28    233     64    241 116.2  84.6  34170  289.74 0855.14
2009/04/23 11:12:24.2     -88    -36    173     96    197 247.8  68.8  34170  289.74 0855.14
2009/04/23 11:12:24.3      -1   -110    210    111    237 180.9  69.9  34174  289.82 0855.14
2009/04/23 11:12:24.4      -6   -127    263    128    292 182.7  72.4  34164  289.64 0855.14
2009/04/23 11:12:24.5    -168   -205    245    266    361 219.4  47.5  34178  289.86 0855.14
2009/04/23 11:12:24.6    -143   -185    147    234    276 217.8  35.2  34172  289.76 0855.14
2009/04/23 11:12:24.7     -50   -106    158    118    197 205.5  59.8  34168  289.70 0855.14
2009/04/23 11:12:24.8      12   -109    188    110    217 173.3  67.0  34184  289.97 0855.14
2009/04/23 11:12:24.9      63   -163    177    175    248 158.8  50.1  34184  289.99 0855.14
2009/04/23 11:12:25.0     -10   -136    181    137    227 184.5  59.2  34194  290.14 0855.14
2009/04/23 11:12:25.1       7   -191    258    192    321 177.8  59.8  34186  290.02 0855.14
2009/04/23 11:12:25.2      36   -210    232    214    315 170.3  52.6  34164  289.64 0855.14
2009/04/23 11:12:25.3      33   -303    226    305    379 173.8  40.0  34154  289.47 0855.14
2009/04/23 11:12:25.4    -197   -448    323    490    586 203.7  36.5  34178  289.87 0855.14
2009/04/23 11:12:25.5    -230   -496    300    547    623 204.9  31.2  34172  289.76 0855.14
2009/04/23 11:12:25.6    -283   -459    282    540    609 211.7  29.8  34178  289.88 0855.14
2009/04/23 11:12:25.7     -42   -494    182    496    528 184.9  21.0  34156  289.49 0855.14
2009/04/23 11:12:25.8     -33   -316    274    318    419 186.0  45.1  34148  289.38 0855.14
2009/04/23 11:12:25.9     -55   -330    290    335    443 189.6  45.4  34146  289.34 0855.14
2009/04/23 11:12:26.0     -76   -449    226    456    508 189.7  28.4  34146  289.32 0855.14
2009/04/23 11:12:26.1     -56   -445    187    449    486 187.2  24.1  34146  289.35 0855.14
2009/04/23 11:12:26.2    -159   -422     88    452    461 200.7  11.1  34160  289.56 0855.14
2009/04/23 11:12:26.3     -96   -376    144    389    414 194.4  21.3  34168  289.70 0855.14
2009/04/23 11:12:26.4     -21   -390    184    391    432 183.1  27.1  34164  289.65 0855.14
2009/04/23 11:12:26.5     -48   -356    154    360    391 187.7  24.6  34164  289.65 0855.14
2009/04/23 11:12:26.6     -38   -261    176    264    317 188.5  36.9  34164  289.63 0855.14
2009/04/23 11:12:26.7      20   -119    224    121    254 170.2  69.6  34172  289.77 0855.14
2009/04/23 11:12:26.8     -27    -69    207     75    220 201.9  79.5  34174  289.82 0855.14
2009/04/23 11:12:26.9     -31     78    128     85    153 338.2  64.1  34178  289.87 0855.14
2009/04/23 11:12:27.0      -4     58     83     59    101 355.5  60.6  34176  289.84 0855.15
2009/04/23 11:12:27.1     133    -83    163    158    227 122.0  50.9  34176  289.85 0855.15
2009/04/23 11:12:27.2      52   -162    128    171    213 162.0  40.4  34176  289.84 0855.15
2009/04/23 11:12:27.3      12   -127    131    128    183 174.2  50.7  34170  289.74 0855.15
2009/04/23 11:12:27.4       7   -102    195    103    220 176.0  70.0  34168  289.72 0855.15
2009/04/23 11:12:27.5      59   -210    203    219    298 164.2  47.9  34164  289.64 0855.15
2009/04/23 11:12:27.6     217   -313    179    382    421 145.3  27.1  34142  289.27 0855.15
2009/04/23 11:12:27.7     250   -443    321    509    601 150.6  35.5  34118  288.85 0855.15
2009/04/23 11:12:27.8     324   -447    394    553    679 144.0  39.0  34138  289.20 0855.15
2009/04/23 11:12:27.9     257   -377    222    457    508 145.7  27.8  34146  289.35 0855.15
2009/04/23 11:12:28.0     246   -364    201    440    483 145.9  26.2  34148  289.37 0855.15
2009/04/23 11:12:28.1     318   -426    183    532    563 143.3  19.1  34148  289.38 0855.15
2009/04/23 11:12:28.2     278   -369    163    463    491 143.0  19.4  34146  289.34 0855.15
2009/04/23 11:12:28.3      17   -339    192    340    390 177.1  32.1  34132  289.10 0855.15
2009/04/23 11:12:28.4     -44   -413    146    416    440 186.1  20.0  34122  288.94 0855.15
2009/04/23 11:12:28.5     -11   -381    127    382    403 181.8  18.4  34124  288.96 0855.15
2009/04/23 11:12:28.6    -106   -408     55    422    426 194.7   7.5  34126  289.00 0855.15
2009/04/23 11:12:28.7     -69   -233     20    244    245 196.5   4.9  34124  288.97 0855.15
2009/04/23 11:12:28.8    -164   -416      1    448    449 201.6   0.2  34130  289.07 0855.15
2009/04/23 11:12:28.9     -86   -395    -68    405    411 192.4  -9.6  34134  289.14 0855.15
2009/04/23 11:12:29.0    -154   -330   -146    365    393 205.0 -27.4  34136  289.18 0855.17
2009/04/23 11:12:29.1     -26   -360    -50    361    365 184.3  -8.0  34128  289.04 0855.17
2009/04/23 11:12:29.2     102   -348     14    363    364 163.6   2.2  34132  289.11 0855.17
2009/04/23 11:12:29.3      92   -265    110    281    301 160.8  22.5  34136  289.15 0855.17
2009/04/23 11:12:29.4      75   -187     90    202    221 157.9  25.3  34132  289.11 0855.17
2009/04/23 11:12:29.5     131   -228    113    264    287 150.1  24.6  34132  289.09 0855.17
2009/04/23 11:12:29.6     139   -183    136    231    268 142.8  33.4  34136  289.15 0855.17
2009/04/23 11:12:29.7     146   -252    169    292    337 149.9  32.7  34138  289.20 0855.17
2009/04/23 11:12:29.8      83   -234     76    249    261 160.4  17.1  34150  289.39 0855.17
2009/04/23 11:12:29.9      25   -155    -22    158    160 170.7  -8.2  34150  289.41 0855.17
2009/04/23 11:12:30.0       8   -159    -76    160    177 176.9 -31.6  34134  289.13 0855.17
2009/04/23 11:12:30.1     -10   -129      4    130    131 184.5   1.8  34130  289.08 0855.17
2009/04/23 11:12:30.2     -60   -154     22    166    168 201.4   7.8  34134  289.13 0855.17
2009/04/23 11:12:30.3     -62      0     34     63     71 269.2  31.3  34138  289.19 0855.17
2009/04/23 11:12:30.4      76     -5    104     77    129  94.4  60.0  34146  289.33 0855.17
2009/04/23 11:12:30.5      18    -45    142     49    150 157.3  81.2  34150  289.40 0855.17
2009/04/23 11:12:30.6     -70    154    186    170    251 335.7  53.0  34148  289.38 0855.17
2009/04/23 11:12:30.7     -21    -15    184     27    185 234.0  90.0  34146  289.33 0855.17
2009/04/23 11:12:30.8     -67     32    196     75    209 295.4  78.4  34150  289.40 0855.17
2009/04/23 11:12:30.9     -37     83    214     91    232 335.9  75.9  34144  289.30 0855.17
2009/04/23 11:12:31.0     -44    -78    223     90    240 209.4  77.0  34156  289.50 0855.18
2009/04/23 11:12:31.1     -51    -88    214    103    237 210.3  72.8  34142  289.26 0855.18
2009/04/23 11:12:31.2     -24    -71    241     76    252 199.2  81.8  34146  289.35 0855.18
2009/04/23 11:12:31.3      75    -74    104    106    148 134.9  50.0  34128  289.02 0855.18
2009/04/23 11:12:31.4      -1     16    177     17    177 355.6  90.0  34148  289.36 0855.18
2009/04/23 11:12:31.5    -159   -196    295    253    388 219.2  55.3  34140  289.23 0855.18
2009/04/23 11:12:31.6    -187   -254    245    316    399 216.3  41.6  34136  289.16 0855.18
2009/04/23 11:12:31.7    -252   -121     29    280    282 244.2   6.1  34140  289.24 0855.18
2009/04/23 11:12:31.8      -1   -201    122    202    235 180.4  34.0  34134  289.14 0855.18
2009/04/23 11:12:31.9      24   -283    192    285    343 175.1  37.3  34132  289.09 0855.18
2009/04/23 11:12:32.0     -76   -229    181    242    302 198.3  40.4  34136  289.15 0855.18
2009/04/23 11:12:32.1     -76   -225     90    238    254 198.7  22.0  34146  289.32 0855.18
2009/04/23 11:12:32.2       7    -94     73     95    119 175.6  41.7  34138  289.21 0855.18
2009/04/23 11:12:32.3      36   -181     75    185    199 168.7  23.4  34136  289.16 0855.18
2009/04/23 11:12:32.4     -60   -225    -32    233    236 195.1  -8.0  34132  289.09 0855.18
2009/04/23 11:12:32.5     -46   -134    -22    142    144 199.2  -8.8  34134  289.13 0855.18
2009/04/23 11:12:32.6    -132    -63    -48    147    155 244.2 -18.3  34140  289.24 0855.18
2009/04/23 11:12:32.7     -23     50     57     56     79 335.5  50.1  34142  289.26 0855.18
2009/04/23 11:12:32.8     -21     -3    135     22    136 262.1  90.0  34170  289.75 0855.18
2009/04/23 11:12:32.9     -72    -87    145    113    183 219.6  58.2  34158  289.53 0855.18
2009/04/23 11:12:33.0     -78    -82    129    114    172 223.7  54.0  34138  289.19 0855.19
2009/04/23 11:12:33.1     -97     -7    117     98    152 265.6  56.3  34154  289.46 0855.19
2009/04/23 11:12:33.2     -82     36    150     90    174 294.0  66.0  34158  289.55 0855.19
2009/04/23 11:12:33.3     -52   -175    219    183    285 196.7  56.3  34146  289.34 0855.19
2009/04/23 11:12:33.4       7     39    171     40    175  11.5  87.3  34164  289.65 0855.19
2009/04/23 11:12:33.5     -32      0    184     33    186 270.0  90.0  34172  289.79 0855.19
2009/04/23 11:12:33.6     -47   -276    258    280    380 189.7  47.7  34148  289.37 0855.19
2009/04/23 11:12:33.7     -50   -205    238    212    318 193.8  53.7  34154  289.46 0855.19
2009/04/23 11:12:33.8      44    -69    182     82    199 147.5  74.2  34158  289.55 0855.19
2009/04/23 11:12:33.9      -3    -21    176     22    177 189.8  90.0  34168  289.70 0855.19
2009/04/23 11:12:34.0     -98     30    177    103    204 287.3  67.0  34176  289.85 0855.19
2009/04/23 11:12:34.1    -186     69    253    199    321 290.4  57.8  34172  289.78 0855.19
2009/04/23 11:12:34.2     137    108    228    175    287  51.8  58.5  34140  289.24 0855.19
2009/04/23 11:12:34.3     258    185    324    318    453  54.3  50.6  34142  289.26 0855.19
2009/04/23 11:12:34.4     281    153    411    321    521  61.4  58.2  34142  289.25 0855.19
2009/04/23 11:12:34.5     310    135    448    339    561  66.5  59.3  34142  289.27 0855.19
2009/04/23 11:12:34.6      31     61    272     69    280  27.2  85.9  34158  289.54 0855.19
2009/04/23 11:12:34.7     -94   -132    237    163    287 215.6  62.6  34172  289.78 0855.19
2009/04/23 11:12:34.8    -137   -297    329    328    464 204.7  50.1  34152  289.44 0855.19
2009/04/23 11:12:34.9    -215   -303    260    372    453 215.4  38.5  34142  289.27 0855.19
2009/04/23 11:12:35.0      -5   -328    260    329    419 180.9  42.4  34146  289.35 0855.20
2009/04/23 11:12:35.1     -98   -311    275    327    427 197.5  44.2  34144  289.30 0855.20
2009/04/23 11:12:35.2     -96   -321    225    336    404 196.6  36.9  34132  289.11 0855.20
2009/04/23 11:12:35.3    -179   -356    198    399    445 206.8  28.2  34146  289.33 0855.20
2009/04/23 11:12:35.4    -165   -325    213    365    422 207.0  33.0  34140  289.24 0855.20
2009/04/23 11:12:35.5     -42   -141    136    148    200 196.5  47.7  34140  289.23 0855.20
2009/04/23 11:12:35.6      -5   -170    184    171    251 181.8  52.2  34144  289.31 0855.20
2009/04/23 11:12:35.7      10   -247    242    248    346 177.5  49.3  34144  289.31 0855.20
2009/04/23 11:12:35.8     -56   -289    211    295    362 191.1  39.2  34146  289.32 0855.20
2009/04/23 11:12:35.9     -93   -424    171    435    467 192.4  22.5  34140  289.24 0855.20
2009/04/23 11:12:36.0     -77   -427    173    434    467 190.3  23.0  34142  289.27 0855.20
2009/04/23 11:12:36.1      17   -395    164    396    428 177.4  23.8  34146  289.34 0855.20
2009/04/23 11:12:36.2      27   -309    144    311    342 174.9  26.9  34146  289.35 0855.20
2009/04/23 11:12:36.3     -59   -206    258    215    335 196.0  56.1  34174  289.80 0855.20
2009/04/23 11:12:36.4      17    -77    171     79    188 167.5  73.2  34172  289.79 0855.20
2009/04/23 11:12:36.5     -57   -121    163    135    211 205.4  56.3  34158  289.53 0855.20
2009/04/23 11:12:36.6     -96    -96    158    136    208 225.1  55.0  34178  289.87 0855.20
2009/04/23 11:12:36.7    -323     65    125    330    352 281.5  21.7  34162  289.59 0855.20
2009/04/23 11:12:36.8    -258    108    194    280    340 292.8  38.0  34168  289.71 0855.20
2009/04/23 11:12:36.9    -186     63     70    197    210 288.8  19.6  34176  289.84 0855.20
2009/04/23 11:12:37.0    -224    125     45    257    262 299.1  10.1  34160  289.56 0855.19
2009/04/23 11:12:37.1    -138     37    -46    143    151 285.1 -18.1  34172  289.79 0855.19
2009/04/23 11:12:37.2    -306    -83     72    318    327 254.9  12.8  34194  290.14 0855.19
2009/04/23 11:12:37.3    -227     11    -29    228    230 273.0  -7.3  34166  289.67 0855.19
2009/04/23 11:12:37.4    -299   -108     86    319    331 250.1  15.1  34164  289.63 0855.19
2009/04/23 11:12:37.5    -304   -139    136    335    361 245.4  23.4  34188  290.06 0855.19
2009/04/23 11:12:37.6    -333   -156    114    368    386 244.8  17.2  34172  289.77 0855.19
2009/04/23 11:12:37.7    -269   -193    139    332    359 234.3  24.1  34188  290.04 0855.19
2009/04/23 11:12:37.8    -133   -335    196    361    410 201.7  30.9  34154  289.48 0855.19
2009/04/23 11:12:37.9    -398   -178    164    436    465 245.9  21.5  34188  290.05 0855.19
2009/04/23 11:12:38.0    -106   -222    201    247    318 205.6  43.4  34152  289.44 0855.19
2009/04/23 11:12:38.1     -70   -417    195    423    465 189.6  26.6  34150  289.41 0855.19
2009/04/23 11:12:38.2    -145   -463    139    486    506 197.4  16.0  34150  289.40 0855.19
2009/04/23 11:12:38.3       0   -447     81    448    456 180.0  10.3  34150  289.41 0855.19
2009/04/23 11:12:38.4       7   -357    178    358    399 178.8  28.4  34160  289.57 0855.19
2009/04/23 11:12:38.5     124   -372    173    393    429 161.6  25.2  34154  289.46 0855.19
2009/04/23 11:12:38.6     157   -431    198    459    499 160.0  24.9  34148  289.37 0855.19
2009/04/23 11:12:38.7     232   -648     83    689    694 160.3   6.9  34140  289.22 0855.19
2009/04/23 11:12:38.8     144   -614    143    631    648 166.7  12.8  34142  289.25 0855.19
2009/04/23 11:12:38.9     200   -648    106    679    688 162.8   8.9  34148  289.36 0855.19
2009/04/23 11:12:39.0     228   -683     86    721    727 161.5   6.9  34142  289.27 0855.18
2009/04/23 11:12:39.1     107   -624    136    634    649 170.2  12.2  34136  289.18 0855.18
2009/04/23 11:12:39.2     152   -540    293    562    633 164.2  29.8  34138  289.19 0855.18
2009/04/23 11:12:39.3     279   -522    313    592    669 151.9  30.1  34136  289.15 0855.18
2009/04/23 11:12:39.4     241   -494    275    550    614 154.0  28.5  34136  289.17 0855.18
2009/04/23 11:12:39.5     287   -418    158    508    532 145.5  17.3  34148  289.36 0855.18
2009/04/23 11:12:39.6     266   -392    190    474    510 145.8  23.1  34154  289.47 0855.18
2009/04/23 11:12:39.7     188   -297    124    352    374 147.6  19.5  34154  289.47 0855.18
2009/04/23 11:12:39.8     109   -405     73    420    427 164.9   9.9  34154  289.48 0855.18
2009/04/23 11:12:39.9      64   -371    109    377    393 170.1  16.1  34156  289.52 0855.18
2009/04/23 11:12:40.0      23   -357     70    358    365 176.2  11.1  34156  289.52 0855.19
2009/04/23 11:12:40.1     -14   -353     69    354    361 182.3  11.1  34156  289.52 0855.19
2009/04/23 11:12:40.2      -8   -324     19    325    326 181.5   3.5  34156  289.51 0855.19
2009/04/23 11:12:40.3    -136   -311     -5    340    341 203.7  -0.9  34158  289.55 0855.19
2009/04/23 11:12:40.4    -120   -485    -11    500    501 193.9  -1.3  34152  289.44 0855.19
2009/04/23 11:12:40.5    -342   -413    -97    537    546 219.7 -10.3  34140  289.24 0855.19
2009/04/23 11:12:40.6    -467   -385   -184    606    634 230.5 -16.9  34162  289.60 0855.19
2009/04/23 11:12:40.7    -323   -507     31    602    603 212.5   3.0  34172  289.78 0855.19
2009/04/23 11:12:40.8    -395   -380    -94    549    558 226.1  -9.8  34152  289.43 0855.19
2009/04/23 11:12:40.9    -322   -412   -195    523    558 218.0 -25.9  34122  288.94 0855.19
2009/04/23 11:12:41.0    -469   -421   -196    631    660 228.1 -22.3  34130  289.08 0855.19
2009/04/23 11:12:41.1    -431   -337   -248    548    601 232.0 -30.6  34136  289.15 0855.19
2009/04/23 11:12:41.2    -386   -245   -245    458    519 237.5 -34.7  34152  289.44 0855.19
2009/04/23 11:12:41.3    -414   -264   -142    492    512 237.5 -20.9  34130  289.08 0855.19
2009/04/23 11:12:41.4    -326   -166   -150    366    395 243.0 -28.0  34134  289.13 0855.19
2009/04/23 11:12:41.5    -109   -232   -125    257    285 205.3 -31.8  34150  289.39 0855.19
2009/04/23 11:12:41.6    -159   -133   -117    208    238 230.2 -36.3  34156  289.50 0855.19
2009/04/23 11:12:41.7    -105   -162    -74    194    207 213.0 -26.1  34150  289.40 0855.19
2009/04/23 11:12:41.8    -332   -172   -116    374    392 242.6 -17.3  34166  289.69 0855.19
2009/04/23 11:12:41.9    -287   -190   -242    345    421 236.5 -43.0  34146  289.32 0855.19
2009/04/23 11:12:42.0    -255   -147    -99    295    312 240.0 -18.7  34172  289.76 0855.19
2009/04/23 11:12:42.1    -172   -183    -55    252    259 223.2 -12.4  34176  289.83 0855.19
2009/04/23 11:12:42.2    -126   -151    -32    197    200 219.9  -9.4  34164  289.63 0855.19
2009/04/23 11:12:42.3    -125   -178    -29    218    220 215.0  -7.7  34164  289.63 0855.19
2009/04/23 11:12:42.4    -156   -181     24    240    242 220.8   5.9  34184  289.97 0855.19
2009/04/23 11:12:42.5     -45   -326   -107    330    348 187.9 -18.1  34168  289.72 0855.19
2009/04/23 11:12:42.6      -6   -243   -109    244    267 181.6 -30.1  34164  289.63 0855.19
2009/04/23 11:12:42.7      27   -223     -8    225    226 172.9  -2.2  34166  289.67 0855.19
2009/04/23 11:12:42.8      74   -117     80    139    160 147.5  32.4  34172  289.77 0855.19
2009/04/23 11:12:42.9     121   -231    147    261    299 152.4  31.6  34176  289.83 0855.19
2009/04/23 11:12:43.0      84   -445    206    453    497 169.3  26.2  34166  289.67 0855.19
2009/04/23 11:12:43.1     -37   -427    177    429    464 185.0  23.7  34156  289.49 0855.19
2009/04/23 11:12:43.2       0   -417    214    418    469 179.9  29.3  34162  289.60 0855.19
2009/04/23 11:12:43.3      59   -417    305    422    520 171.9  39.5  34174  289.81 0855.19
2009/04/23 11:12:43.4      86   -694    -42    700    702 172.9  -3.5  34158  289.55 0855.19
2009/04/23 11:12:43.5     -38   -512   -164    514    539 184.3 -22.9  34164  289.65 0855.19
2009/04/23 11:12:43.6    -133   -625   -106    640    649 192.1  -9.5  34162  289.59 0855.19
2009/04/23 11:12:43.7     -90   -480   -160    489    515 190.7 -18.2  34148  289.37 0855.19
2009/04/23 11:12:43.8    -339   -254   -135    424    445 233.1 -17.7  34158  289.55 0855.19
2009/04/23 11:12:43.9    -271   -350   -147    443    466 217.8 -23.8  34154  289.48 0855.19
2009/04/23 11:12:44.0    -187   -365   -130    411    432 207.2 -17.5  34158  289.55 0855.19
2009/04/23 11:12:44.1     -32   -197   -220    200    297 189.3 -57.4  34152  289.44 0855.19
2009/04/23 11:12:44.2    -117     48   -131    127    182 292.6 -55.3  34158  289.53 0855.19
2009/04/23 11:12:44.3     -93   -105     48    141    150 221.4  18.9  34164  289.65 0855.19
2009/04/23 11:12:44.4     -54     -4     45     55     71 265.6  43.7  34150  289.40 0855.19
2009/04/23 11:12:44.5      36   -178    -80    182    198 168.4 -29.6  34156  289.52 0855.19
2009/04/23 11:12:44.6      75   -171    -57    188    196 156.2 -21.7  34154  289.48 0855.19
2009/04/23 11:12:44.7      74   -204     16    218    219 160.0   4.2  34148  289.38 0855.19
2009/04/23 11:12:44.8      94   -129     -6    160    161 143.9  -2.2  34142  289.26 0855.19
2009/04/23 11:12:44.9     134   -126    -21    185    187 133.3  -6.7  34142  289.26 0855.19
2009/04/23 11:12:45.0     151    -80      2    172    173 118.0   0.8  34146  289.35 0855.19
2009/04/23 11:12:45.1     120    -36     -3    126    127 106.8  -1.8  34148  289.36 0855.19
2009/04/23 11:12:45.2     116     -8     26    117    120  94.4  12.6  34146  289.33 0855.19
2009/04/23 11:12:45.3     126    -21     26    128    131  99.7  11.6  34150  289.41 0855.19
2009/04/23 11:12:45.4     150     63     37    163    168  67.2  12.9  34150  289.40 0855.19
2009/04/23 11:12:45.5     150    112    203    188    276  53.1  52.2  34148  289.37 0855.19
2009/04/23 11:12:45.6      57    130    113    142    181  23.7  42.7  34154  289.46 0855.19
2009/04/23 11:12:45.7      13     16     81     21     83  39.6  84.9  34164  289.65 0855.19
2009/04/23 11:12:45.8      56     46     81     73    109  50.4  52.7  34156  289.52 0855.19
2009/04/23 11:12:45.9      12    208    113    209    237   3.4  30.8  34156  289.50 0855.19
2009/04/23 11:12:46.0      34    216     27    219    221   9.1   7.1  34144  289.31 0855.18
2009/04/23 11:12:46.1     -18    239     82    240    254 355.5  18.9  34150  289.39 0855.18
2009/04/23 11:12:46.2     -70    235    115    246    271 343.3  27.1  34148  289.36 0855.18
2009/04/23 11:12:46.3     -66    213    148    224    268 342.8  36.5  34150  289.39 0855.18
2009/04/23 11:12:46.4    -149    148    101    211    233 314.7  27.3  34148  289.36 0855.18
2009/04/23 11:12:46.5     -67    120     54    138    148 330.6  23.0  34156  289.52 0855.18
2009/04/23 11:12:46.6    -119    121     62    170    180 315.5  21.0  34146  289.35 0855.18
2009/04/23 11:12:46.7    -144     82     24    167    169 299.8   8.5  34168  289.70 0855.18
2009/04/23 11:12:46.8    -160     53    114    169    203 288.6  37.3  34160  289.58 0855.18
2009/04/23 11:12:46.9    -395   -136    131    418    439 250.9  17.4  34152  289.44 0855.18
2009/04/23 11:12:47.0    -348    -25     62    349    355 265.9  10.1  34166  289.69 0855.18
2009/04/23 11:12:47.1    -289    -42     92    293    308 261.6  17.4  34166  289.66 0855.18
2009/04/23 11:12:47.2    -283   -186     25    339    340 236.7   4.2  34160  289.57 0855.18
2009/04/23 11:12:47.3    -464   -134   -130    483    501 253.9 -15.1  34186  290.00 0855.18
2009/04/23 11:12:47.4    -520    -45   -214    523    565 265.0 -27.9  34198  290.21 0855.18
2009/04/23 11:12:47.5    -447   -246    -28    511    512 241.2  -3.2  34166  289.67 0855.18
2009/04/23 11:12:47.6    -504   -325     87    600    607 237.2   8.3  34160  289.58 0855.18
2009/04/23 11:12:47.7    -433   -390    -31    584    585 228.0  -3.1  34154  289.47 0855.18
2009/04/23 11:12:47.8    -337   -355    -74    490    496 223.5  -8.6  34160  289.57 0855.18
2009/04/23 11:12:47.9    -283   -341    -34    444    446 219.6  -4.4  34174  289.82 0855.18
2009/04/23 11:12:48.0    -505   -202   -113    545    557 248.2 -11.8  34192  290.13 0855.20
2009/04/23 11:12:48.1    -635    -60   -211    638    672 264.6 -18.3  34168  289.71 0855.20
2009/04/23 11:12:48.2    -619    -73   -114    624    635 263.2 -10.4  34188  290.03 0855.20
2009/04/23 11:12:48.3    -265   -253   -167    367    403 226.3 -30.6  34194  290.16 0855.20
2009/04/23 11:12:48.4    -125   -378   -226    399    458 198.3 -36.5  34162  289.60 0855.20
2009/04/23 11:12:48.5     -61   -174   -165    185    247 199.4 -50.8  34168  289.70 0855.20
2009/04/23 11:12:48.6     -92   -343   -116    356    375 195.0 -18.1  34162  289.60 0855.20
2009/04/23 11:12:48.7    -113   -381    -72    398    405 196.5 -10.3  34164  289.63 0855.20
2009/04/23 11:12:48.8     -90   -297    -22    311    312 196.9  -4.1  34168  289.71 0855.20
2009/04/23 11:12:48.9    -120   -387     57    406    411 197.3   8.0  34180  289.92 0855.20
2009/04/23 11:12:49.0    -271   -607     -4    665    666 204.1  -0.4  34158  289.53 0855.20
2009/04/23 11:12:49.1    -224   -394      9    454    455 209.7   1.2  34176  289.83 0855.20
2009/04/23 11:12:49.2    -217   -389   -114    446    461 209.2 -14.4  34156  289.49 0855.20
2009/04/23 11:12:49.3    -252   -480   -138    543    561 207.7 -14.3  34154  289.46 0855.20
2009/04/23 11:12:49.4    -107   -484     76    496    502 192.5   8.8  34136  289.17 0855.20
2009/04/23 11:12:49.5    -221   -404     22    461    462 208.7   2.8  34130  289.05 0855.20
2009/04/23 11:12:49.6    -298   -360    -42    468    470 219.6  -5.2  34146  289.35 0855.20
2009/04/23 11:12:49.7    -269   -361     70    451    457 216.8   8.9  34188  290.05 0855.20
2009/04/23 11:12:49.9    -276   -344    129    442    461 218.7  16.3  34204  290.31 0855.20
2009/04/23 11:12:50.0    -179   -405     57    443    447 203.9   7.4  34206  290.34 0855.20
2009/04/23 11:12:50.1     -62   -416     46    421    424 188.5   6.4  34166  289.66 0855.19
2009/04/23 11:12:50.2       0   -358    124    359    380 180.1  19.1  34154  289.48 0855.19
2009/04/23 11:12:50.3       7   -406     38    407    409 179.0   5.4  34144  289.31 0855.19
2009/04/23 11:12:50.4     -24   -388    138    389    412 183.6  20.2  34160  289.56 0855.19
2009/04/23 11:12:50.5     -64   -332     96    339    353 191.0  15.9  34162  289.60 0855.19
2009/04/23 11:12:50.6      -5   -381    146    382    408 180.9  22.0  34182  289.96 0855.19
2009/04/23 11:12:50.7      40   -435    221    438    490 174.7  28.8  34158  289.54 0855.19
2009/04/23 11:12:50.8     159   -538    226    562    605 163.5  23.1  34154  289.46 0855.19
2009/04/23 11:12:50.9      83   -369    206    379    431 167.3  30.9  34146  289.33 0855.19
2009/04/23 11:12:51.0    -131   -415    200    436    479 197.5  26.4  34160  289.57 0855.19
2009/04/23 11:12:51.1      69   -409    117    415    432 170.3  15.8  34158  289.53 0855.19
2009/04/23 11:12:51.2     170   -547    156    573    595 162.7  15.3  34158  289.54 0855.19
2009/04/23 11:12:51.3     169   -408    111    442    456 157.5  14.2  34150  289.41 0855.19
2009/04/23 11:12:51.4      77   -524     26    530    531 171.6   2.9  34152  289.45 0855.19
2009/04/23 11:12:51.5      -8   -462    -52    463    466 181.1  -6.5  34144  289.30 0855.19
2009/04/23 11:12:51.6    -122   -559    -26    573    574 192.4  -2.6  34136  289.17 0855.19
2009/04/23 11:12:51.7    -145   -590    -87    608    615 193.8  -8.2  34126  289.00 0855.19
2009/04/23 11:12:51.8    -200   -593   -109    627    637 198.7  -9.9  34130  289.06 0855.19
2009/04/23 11:12:51.9    -225   -626   -157    666    685 199.8 -13.3  34126  288.99 0855.19
2009/04/23 11:12:52.0    -130   -498    -79    515    522 194.7  -8.8  34140  289.23 0855.19
2009/04/23 11:12:52.1       1   -474      1    475    476 179.8   0.2  34146  289.32 0855.19
2009/04/23 11:12:52.2    -166   -381   -139    416    439 203.6 -18.6  34126  289.00 0855.19
2009/04/23 11:12:52.3    -272   -397   -100    482    493 214.5 -11.8  34120  288.90 0855.19
2009/04/23 11:12:52.4    -166   -385   -114    420    436 203.3 -15.2  34142  289.26 0855.19
2009/04/23 11:12:52.5     -81   -441   -107    449    462 190.5 -13.4  34128  289.02 0855.19
2009/04/23 11:12:52.6     -10   -575    -62    576    580 181.0  -6.2  34164  289.63 0855.19
2009/04/23 11:12:52.7       3   -537    -21    538    539 179.7  -2.2  34160  289.58 0855.19
2009/04/23 11:12:52.8     -48   -512    -77    515    521 185.4  -8.6  34140  289.22 0855.19
2009/04/23 11:12:52.9     -23   -451    -74    452    459 183.0  -9.3  34146  289.34 0855.19
2009/04/23 11:12:53.0      23   -391    -30    392    394 176.6  -4.4  34146  289.35 0855.19
2009/04/23 11:12:53.1      17   -353    -14    354    355 177.1  -2.3  34148  289.37 0855.19
2009/04/23 11:12:53.2     -43   -309    -41    313    316 188.0  -7.5  34134  289.14 0855.19
2009/04/23 11:12:53.3    -138   -253    -51    289    294 208.7 -10.1  34146  289.34 0855.19
2009/04/23 11:12:53.4     -75   -240    -29    252    254 197.4  -6.7  34128  289.02 0855.19
2009/04/23 11:12:53.5    -155   -322    -49    358    362 205.7  -7.9  34126  288.98 0855.19
2009/04/23 11:12:53.6     -65   -313    -69    320    328 191.8 -12.2  34128  289.03 0855.19
2009/04/23 11:12:53.7    -173   -374   -112    413    429 204.8 -15.2  34136  289.16 0855.19
2009/04/23 11:12:53.8    -144   -293    -88    327    339 206.3 -15.2  34136  289.15 0855.19
2009/04/23 11:12:53.9     -71   -289    -49    298    303 193.8  -9.3  34132  289.10 0855.19
2009/04/23 11:12:54.0     -86   -262    -45    276    280 198.3  -9.3  34134  289.14 0855.19
2009/04/23 11:12:54.1    -102   -262    -81    282    294 201.4 -16.0  34134  289.14 0855.18
2009/04/23 11:12:54.2    -281   -172   -158    330    365 238.5 -31.7  34148  289.37 0855.18
2009/04/23 11:12:54.3    -250   -317    -91    404    415 218.3 -12.7  34146  289.34 0855.18
2009/04/23 11:12:54.4    -188   -285   -116    342    362 213.4 -18.7  34156  289.52 0855.18
2009/04/23 11:12:54.5    -154   -295    -23    333    334 207.6  -4.0  34182  289.96 0855.18
2009/04/23 11:12:54.6    -153   -256    -49    299    304 210.8  -9.4  34166  289.66 0855.18
2009/04/23 11:12:54.7     -91   -280    -21    295    296 198.0  -4.1  34172  289.78 0855.18
2009/04/23 11:12:54.8     -23   -389     -1    390    391 183.5  -0.3  34178  289.87 0855.18
2009/04/23 11:12:54.9     -29   -377    -45    379    382 184.5  -6.8  34160  289.57 0855.18
2009/04/23 11:12:55.0     -81   -364    -40    374    377 192.6  -6.2  34152  289.43 0855.18
2009/04/23 11:12:55.1      -8   -328    -59    329    335 181.5 -10.3  34152  289.42 0855.18
2009/04/23 11:12:55.2      22   -323    -35    324    326 176.1  -6.3  34158  289.54 0855.18
2009/04/23 11:12:55.3      72   -306    -35    315    318 166.7  -6.5  34152  289.44 0855.18
2009/04/23 11:12:55.4     112   -281    -63    303    310 158.2 -11.8  34142  289.25 0855.18
2009/04/23 11:12:55.5     124   -268    -44    296    300 155.1  -8.6  34140  289.24 0855.18
2009/04/23 11:12:55.6      88   -365    -20    376    377 166.4  -3.2  34142  289.28 0855.18
2009/04/23 11:12:55.7      56   -319    -72    325    333 170.0 -12.5  34138  289.21 0855.18
2009/04/23 11:12:55.8     112   -256      3    280    281 156.4   0.8  34140  289.24 0855.18
2009/04/23 11:12:55.9     102   -256    -54    276    282 158.2 -11.1  34140  289.22 0855.18
2009/04/23 11:12:56.0      83   -226    -67    241    251 159.7 -15.5  34144  289.29 0855.18
2009/04/23 11:12:56.1      64   -238     12    247    248 164.9   2.9  34150  289.39 0855.20
2009/04/23 11:12:56.2      71   -251     12    261    262 164.2   2.8  34146  289.32 0855.20
2009/04/23 11:12:56.3      38   -342     36    345    347 173.5   6.1  34142  289.26 0855.20
2009/04/23 11:12:56.4      56   -389     32    394    396 171.8   4.7  34146  289.33 0855.20
2009/04/23 11:12:56.5     134   -469     25    488    489 164.0   3.0  34152  289.42 0855.20
2009/04/23 11:12:56.6     107   -470    103    483    495 167.1  12.1  34154  289.47 0855.20
2009/04/23 11:12:56.7      80   -478    175    485    515 170.4  20.8  34156  289.49 0855.20
2009/04/23 11:12:56.8     132   -393     69    415    421 161.4   9.5  34136  289.16 0855.20
2009/04/23 11:12:56.9     122   -276    -23    302    303 156.2  -4.4  34150  289.41 0855.20
2009/04/23 11:12:57.0     215   -290    -65    362    368 143.4 -10.3  34144  289.30 0855.20
2009/04/23 11:12:57.1      98   -331    -40    346    349 163.5  -6.7  34150  289.40 0855.20
2009/04/23 11:12:57.2      97   -292    -12    308    309 161.5  -2.2  34152  289.42 0855.20
2009/04/23 11:12:57.3     101   -292     49    310    314 160.8   9.0  34150  289.41 0855.20
2009/04/23 11:12:57.4     185   -298     55    351    356 148.1   8.9  34152  289.42 0855.20
2009/04/23 11:12:57.5       0   -286    111    287    307 180.1  22.3  34146  289.34 0855.20
2009/04/23 11:12:57.6     -12   -286     89    287    301 182.5  17.3  34152  289.44 0855.20
2009/04/23 11:12:57.7     -32   -365     38    367    370 185.1   6.0  34158  289.55 0855.20
2009/04/23 11:12:57.8      33   -394     45    396    399 175.2   6.5  34152  289.42 0855.20
2009/04/23 11:12:57.9      -5   -406     37    407    409 180.7   5.3  34154  289.46 0855.20
2009/04/23 11:12:58.0      -7   -428     36    429    431 181.0   4.9  34160  289.56 0855.20
2009/04/23 11:12:58.1      -5   -424     -2    425    426 180.7  -0.4  34152  289.44 0855.21
2009/04/23 11:12:58.2     -31   -418     -4    420    421 184.3  -0.6  34154  289.48 0855.21
2009/04/23 11:12:58.3     -66   -400    -26    406    407 189.4  -3.8  34166  289.66 0855.21
2009/04/23 11:12:58.4     -45   -414    -18    417    418 186.2  -2.6  34156  289.49 0855.21
2009/04/23 11:12:58.5     -90   -396    -31    407    409 192.9  -4.5  34156  289.49 0855.21
2009/04/23 11:12:58.6     -69   -408    -53    414    418 189.6  -7.3  34156  289.49 0855.21
2009/04/23 11:12:58.7     -96   -335    -75    349    358 196.1 -12.2  34164  289.64 0855.21
2009/04/23 11:12:58.8      14   -352    -47    353    357 177.7  -7.6  34152  289.43 0855.21
2009/04/23 11:12:58.9      43   -345      0    348    349 172.9   0.0  34152  289.43 0855.21
2009/04/23 11:12:59.0     117   -323     54    344    349 160.1   9.0  34150  289.40 0855.21
2009/04/23 11:12:59.1     103   -381     11    395    396 164.9   1.6  34152  289.45 0855.21
2009/04/23 11:12:59.2     100   -404     13    417    418 166.0   1.8  34152  289.43 0855.21
2009/04/23 11:12:59.3      88   -375     12    386    387 166.7   1.8  34152  289.42 0855.21
2009/04/23 11:12:59.4      69   -346     95    353    366 168.6  15.2  34152  289.43 0855.21
2009/04/23 11:12:59.5      45   -319    114    323    342 171.9  20.0  34154  289.47 0855.21
2009/04/23 11:12:59.6      50   -315    128    320    344 170.9  23.0  34154  289.47 0855.21
2009/04/23 11:12:59.7      43   -369    219    372    431 173.3  33.3  34154  289.48 0855.21
2009/04/23 11:12:59.8     -14   -262    275    263    380 183.1  51.5  34156  289.52 0855.21
2009/04/23 11:12:59.9     -15   -288    308    289    422 183.1  52.1  34162  289.59 0855.21
2009/04/23 11:13:00.0    -102   -243    271    264    378 202.9  50.8  34158  289.54 0855.21
2009/04/23 11:13:00.1    -107   -190    196    219    293 209.4  46.4  34160  289.56 0855.22
2009/04/23 11:13:00.2      -4    -57    176     58    185 184.4  80.7  34174  289.80 0855.22
2009/04/23 11:13:00.3     -52     49    101     72    124 313.1  61.1  34176  289.84 0855.22
2009/04/23 11:13:00.4     -60    -83    -28    103    107 216.0 -15.4  34164  289.65 0855.22
2009/04/23 11:13:00.5      -5      6    -65      8     65 320.4 -90.0  34160  289.58 0855.22
2009/04/23 11:13:00.6      26    107    -77    111    135  13.8 -42.0  34166  289.67 0855.22
2009/04/23 11:13:00.7     -46    -31    -36     56     66 235.8 -40.0  34162  289.60 0855.22
2009/04/23 11:13:00.8    -156    183     75    241    253 319.5  17.3  34162  289.61 0855.22
2009/04/23 11:13:00.9    -163    148    177    221    283 312.2  42.8  34172  289.76 0855.22
2009/04/23 11:13:01.0    -223     62    149    232    275 285.5  35.6  34172  289.76 0855.22
2009/04/23 11:13:01.1      -7    -90     43     91    100 184.5  27.2  34164  289.63 0855.22
2009/04/23 11:13:01.2     -57    -86   -138    104    172 213.8 -63.6  34168  289.70 0855.22
2009/04/23 11:13:01.3    -162    -98    -31    190    193 238.9  -9.3  34154  289.46 0855.22
2009/04/23 11:13:01.4    -219     51    -71    225    237 283.3 -17.6  34166  289.68 0855.22
2009/04/23 11:13:01.5    -213    217    -78    305    315 315.5 -14.4  34168  289.71 0855.22
2009/04/23 11:13:01.6    -146    253   -101    293    311 330.1 -19.1  34190  290.09 0855.22
2009/04/23 11:13:01.7      -1    273    136    274    305 359.8  28.2  34172  289.76 0855.22
2009/04/23 11:13:01.8     -58     13    147     60    158 283.3  76.8  34164  289.63 0855.22
2009/04/23 11:13:01.9      26     -7    162     27    164 105.1  90.0  34172  289.77 0855.22
2009/04/23 11:13:02.0     120    -43    121    128    176 110.0  48.2  34162  289.62 0855.22
2009/04/23 11:13:02.1      53    -55    119     77    141 135.8  64.6  34170  289.75 0855.22
2009/04/23 11:13:02.2      80   -126     56    150    160 147.5  21.3  34170  289.75 0855.22
2009/04/23 11:13:02.3     124   -268     41    296    299 155.1   8.0  34172  289.76 0855.22
2009/04/23 11:13:02.4     219   -193     72    293    302 131.4  13.9  34162  289.61 0855.22
2009/04/23 11:13:02.5     103   -175     96    204    225 149.5  27.1  34160  289.58 0855.22
2009/04/23 11:13:02.6     -11   -153     -3    154    155 184.4  -1.3  34160  289.58 0855.22
2009/04/23 11:13:02.7      -1   -183    -23    184    186 180.5  -7.3  34160  289.57 0855.22
2009/04/23 11:13:02.8     112   -158    122    194    229 144.6  35.5  34160  289.57 0855.22
2009/04/23 11:13:02.9      34   -203    115    206    235 170.3  31.4  34158  289.55 0855.22
2009/04/23 11:13:03.0     -40   -199     21    204    206 191.6   5.9  34160  289.57 0855.22
2009/04/23 11:13:03.1    -104   -173    -61    202    212 211.0 -16.8  34158  289.55 0855.23
2009/04/23 11:13:03.2    -160    -75    -58    177    187 244.7 -18.3  34158  289.55 0855.23
2009/04/23 11:13:03.3    -215    -85    -59    232    240 248.3 -14.3  34170  289.73 0855.23
2009/04/23 11:13:03.4    -234   -137      3    272    273 239.6   0.7  34168  289.70 0855.23
2009/04/23 11:13:03.5    -223   -188     24    292    294 229.8   4.9  34174  289.81 0855.23
2009/04/23 11:13:03.6     -71   -129    -33    148    152 209.0 -12.9  34176  289.85 0855.23
2009/04/23 11:13:03.7     -36   -212    101    216    238 189.8  27.0  34168  289.72 0855.23
2009/04/23 11:13:03.8     -71   -341    157    349    382 191.9  26.0  34164  289.64 0855.23
2009/04/23 11:13:03.9      29   -372    116    374    392 175.4  17.3  34162  289.60 0855.23
2009/04/23 11:13:04.0     102   -502    119    513    527 168.5  13.1  34156  289.51 0855.23
2009/04/23 11:13:04.1      76   -486    312    493    583 171.1  35.5  34162  289.60 0855.23
2009/04/23 11:13:04.2      81   -407     57    416    420 168.7   7.8  34160  289.58 0855.23
2009/04/23 11:13:04.3       9   -463      9    464    465 178.8   1.2  34158  289.53 0855.23
2009/04/23 11:13:04.4      88   -436     38    445    447 168.5   5.0  34156  289.49 0855.23
2009/04/23 11:13:04.5      96   -470     62    480    485 168.4   7.4  34146  289.35 0855.23
2009/04/23 11:13:04.6     109   -312    159    331    367 160.7  27.3  34154  289.47 0855.23
2009/04/23 11:13:04.7      72   -180     81    195    211 158.2  23.8  34156  289.52 0855.23
2009/04/23 11:13:04.8     127   -182     77    223    237 145.0  19.2  34160  289.57 0855.23
2009/04/23 11:13:04.9      93   -321    119    335    355 163.9  20.4  34162  289.59 0855.23
2009/04/23 11:13:05.0      31   -326    147    328    359 174.4  25.7  34162  289.60 0855.23
2009/04/23 11:13:05.1       7   -402    139    403    427 179.0  19.1  34160  289.58 0855.26
2009/04/23 11:13:05.2      11   -370    157    371    402 178.3  24.3  34158  289.55 0855.26
2009/04/23 11:13:05.3      37   -478    125    480    497 175.5  14.7  34150  289.40 0855.26
2009/04/23 11:13:05.4     -53   -488    230    491    542 186.3  27.1  34156  289.51 0855.26
2009/04/23 11:13:05.5    -138   -293    249    325    409 205.3  41.2  34156  289.50 0855.26
2009/04/23 11:13:05.6     -47   -436    245    439    502 186.3  31.6  34160  289.57 0855.26
2009/04/23 11:13:05.7     -66   -495     62    500    504 187.6   7.1  34158  289.54 0855.26
2009/04/23 11:13:05.8      20   -403    177    404    441 177.1  25.2  34166  289.68 0855.26
2009/04/23 11:13:05.9     -38   -430    181    432    468 185.1  24.1  34164  289.65 0855.26
2009/04/23 11:13:06.0     -55   -395    109    399    414 188.0  15.3  34164  289.63 0855.26
2009/04/23 11:13:06.1     -42   -353    153    356    387 186.8  24.8  34164  289.64 0855.26
2009/04/23 11:13:06.2     -17   -335    143    336    365 183.0  24.6  34162  289.62 0855.26
2009/04/23 11:13:06.3     -12   -365    151    366    395 182.0  23.7  34164  289.64 0855.26
2009/04/23 11:13:06.4     -24   -355    113    356    374 183.9  17.7  34162  289.60 0855.26
2009/04/23 11:13:06.5       6   -412    142    413    437 179.1  19.1  34160  289.56 0855.26
2009/04/23 11:13:06.6     150   -461    181    485    517 162.0  21.5  34152  289.42 0855.26
2009/04/23 11:13:06.7      47   -295    248    299    388 170.9  43.8  34160  289.57 0855.26
2009/04/23 11:13:06.8      34   -322    279    324    427 173.9  45.0  34164  289.64 0855.26
2009/04/23 11:13:06.9      77   -378    273    386    472 168.4  38.7  34160  289.56 0855.26
2009/04/23 11:13:07.0      49   -428    274    431    510 173.4  35.5  34160  289.57 0855.26
2009/04/23 11:13:07.1      44   -427    241    430    492 174.0  31.7  34160  289.57 0855.26
2009/04/23 11:13:07.2       0   -417    232    418    478 180.0  31.6  34164  289.63 0855.26
2009/04/23 11:13:07.3     -84   -333    202    344    398 194.3  33.3  34162  289.60 0855.26
2009/04/23 11:13:07.4      50   -173    201    181    270 163.7  53.3  34164  289.64 0855.26
2009/04/23 11:13:07.5     -36   -300    202    303    364 186.9  36.9  34168  289.72 0855.26
2009/04/23 11:13:07.6     -25   -268    209    270    341 185.3  41.5  34170  289.73 0855.26
2009/04/23 11:13:07.7     -19   -332    192    333    384 183.4  32.7  34162  289.62 0855.26
2009/04/23 11:13:07.8     -26   -338     77    340    349 184.5  12.9  34164  289.65 0855.26
2009/04/23 11:13:07.9      31   -428    109    430    444 175.8  14.3  34168  289.70 0855.26
2009/04/23 11:13:08.0      29   -348    146    350    379 175.1  23.9  34164  289.64 0855.26
2009/04/23 11:13:08.1      34   -326     64    328    335 174.0  11.1  34158  289.54 0855.26
2009/04/23 11:13:08.2      76   -248     73    260    271 162.8  15.8  34158  289.53 0855.26
2009/04/23 11:13:08.3     126   -288     43    315    318 156.4   7.8  34158  289.53 0855.26
2009/04/23 11:13:08.4      72   -359    137    367    391 168.6  21.6  34160  289.57 0855.26
2009/04/23 11:13:08.5     -25   -232     14    234    235 186.2   3.6  34158  289.54 0855.26
2009/04/23 11:13:08.6      12   -164    119    165    203 175.5  39.5  34162  289.60 0855.26
2009/04/23 11:13:08.7       0    -58    131     59    143 180.9  74.5  34172  289.77 0855.26
2009/04/23 11:13:08.8      31     34    105     47    115  42.3  74.0  34180  289.92 0855.26
2009/04/23 11:13:08.9     -10    -21     56     24     60 207.2  76.1  34180  289.91 0855.26
2009/04/23 11:13:09.0      -8    -81     76     82    111 186.2  47.9  34174  289.80 0855.26
2009/04/23 11:13:09.1      -5   -113    106    114    155 182.7  47.9  34172  289.79 0855.25
2009/04/23 11:13:09.2     -44   -122     84    130    154 200.0  35.6  34174  289.80 0855.25
2009/04/23 11:13:09.3    -111   -101     72    151    167 227.8  27.2  34166  289.69 0855.25
2009/04/23 11:13:09.4     -41   -155    117    161    199 195.1  39.7  34162  289.62 0855.25
2009/04/23 11:13:09.5    -119   -156    117    197    229 217.2  33.5  34154  289.46 0855.25
2009/04/23 11:13:09.6    -213    -78     85    227    242 249.8  21.5  34158  289.54 0855.25
2009/04/23 11:13:09.7    -422   -142    105    446    459 251.3  13.3  34206  290.36 0855.25
2009/04/23 11:13:09.8    -578    -97     23    587    588 260.4   2.3  34204  290.31 0855.25
2009/04/23 11:13:09.9    -439    -94   -105    450    463 257.8 -13.1  34186  290.00 0855.25
2009/04/23 11:13:10.0    -304   -421    197    520    556 215.9  21.7  34180  289.90 0855.25
2009/04/23 11:13:10.1    -314   -406     61    514    518 217.8   6.9  34172  289.78 0855.25
2009/04/23 11:13:10.2    -371   -269    -17    459    460 234.1  -2.2  34182  289.95 0855.25
2009/04/23 11:13:10.3    -178   -321     11    368    369 209.0   1.8  34182  289.94 0855.25
2009/04/23 11:13:10.4    -126   -276    240    304    387 204.5  42.3  34158  289.54 0855.25
2009/04/23 11:13:10.5    -213   -304    172    372    409 215.1  26.5  34164  289.65 0855.25
2009/04/23 11:13:10.6    -443   -280    -90    524    532 237.7  -9.8  34194  290.16 0855.25
2009/04/23 11:13:10.7    -567   -380     47    683    685 236.2   4.0  34192  290.10 0855.25
2009/04/23 11:13:10.8    -610   -165   -187    633    661 254.8 -16.5  34204  290.32 0855.25
2009/04/23 11:13:10.9    -435   -224     75    490    496 242.7   8.7  34182  289.95 0855.25
2009/04/23 11:13:11.0    -380   -242   -184    451    487 237.5 -27.9  34188  290.05 0855.25
2009/04/23 11:13:11.1    -427   -254    -64    497    502 239.3  -7.4  34190  290.08 0855.24
2009/04/23 11:13:11.2    -383   -205     22    435    436 241.9   3.0  34172  289.77 0855.24
2009/04/23 11:13:11.3    -480   -241    -45    538    541 243.3  -4.9  34176  289.84 0855.24
2009/04/23 11:13:11.4    -392   -150   -107    420    434 249.0 -14.3  34168  289.70 0855.24
2009/04/23 11:13:11.5    -443    -73   -144    450    472 260.6 -22.8  34172  289.79 0855.24
2009/04/23 11:13:11.6    -524    -81   -169    531    558 261.2 -17.7  34174  289.82 0855.24
2009/04/23 11:13:11.7    -469    -12   -129    470    488 268.5 -15.4  34190  290.08 0855.24
2009/04/23 11:13:11.8    -423   -132   -162    444    472 252.6 -25.4  34178  289.88 0855.24
2009/04/23 11:13:11.9    -360   -177   -144    402    428 243.8 -19.8  34200  290.26 0855.24
2009/04/23 11:13:12.0    -323    -43   -126    326    349 262.3 -26.6  34202  290.28 0855.24
2009/04/23 11:13:12.1    -339   -112   -135    357    381 251.7 -26.2  34208  290.38 0855.24
2009/04/23 11:13:12.2    -432    -87   -150    441    465 258.5 -23.6  34176  289.83 0855.24
2009/04/23 11:13:12.3    -528    -41   -131    530    546 265.5 -13.9  34168  289.72 0855.24
2009/04/23 11:13:12.4    -587     -3   -178    588    614 269.6 -21.7  34164  289.63 0855.24
2009/04/23 11:13:12.5    -504    -49   -141    507    526 264.4 -20.2  34184  289.99 0855.24
2009/04/23 11:13:12.6    -441     48    -90    444    453 276.3 -11.5  34188  290.05 0855.24
2009/04/23 11:13:12.7    -264   -210   -212    338    398 231.5 -39.6  34168  289.72 0855.24
2009/04/23 11:13:12.8    -201   -146     19    249    250 234.1   4.6  34164  289.63 0855.24
2009/04/23 11:13:12.9    -105   -121    -37    161    166 221.0 -12.9  34160  289.58 0855.24
2009/04/23 11:13:13.0    -103   -283   -171    302    347 200.0 -36.4  34164  289.64 0855.24
2009/04/23 11:13:13.1     118   -165    -70    204    215 144.4 -23.6  34162  289.60 0855.24
2009/04/23 11:13:13.2     122   -260   -115    288    310 154.8 -27.4  34160  289.58 0855.24
2009/04/23 11:13:13.3     162   -236    -79    287    298 145.5 -15.4  34166  289.68 0855.24
2009/04/23 11:13:13.4     178   -253    169    310    353 144.9  30.9  34162  289.62 0855.24
2009/04/23 11:13:13.5     125   -191    199    229    303 146.8  45.6  34156  289.51 0855.24
2009/04/23 11:13:13.6      42   -271    246    275    368 171.1  46.4  34156  289.52 0855.24
2009/04/23 11:13:13.7     190   -215    189    288    344 138.6  36.3  34166  289.68 0855.24
2009/04/23 11:13:13.8     308    -89    255    321    409 106.2  42.6  34162  289.60 0855.24
2009/04/23 11:13:13.9     297    -65    386    305    491 102.4  57.8  34164  289.65 0855.24
2009/04/23 11:13:14.0     211     18    278    212    349  85.0  58.9  34164  289.64 0855.24
2009/04/23 11:13:14.1     228     13    171    229    285  86.7  40.6  34168  289.71 0855.24
2009/04/23 11:13:14.2     153     51    128    162    206  71.4  42.7  34168  289.70 0855.24
2009/04/23 11:13:14.3     150    -68    128    165    208 114.4  41.7  34162  289.62 0855.24
2009/04/23 11:13:14.4     122    -83     98    148    177 124.2  36.7  34160  289.57 0855.24
2009/04/23 11:13:14.5      65    -99     53    119    130 146.6  25.7  34162  289.60 0855.24
2009/04/23 11:13:14.6     134    -85    109    159    192 122.5  37.6  34158  289.55 0855.24
2009/04/23 11:13:14.7     109   -111    132    156    204 135.5  44.5  34164  289.63 0855.24
2009/04/23 11:13:14.8     134    -84    138    159    210 122.0  45.6  34164  289.63 0855.24
2009/04/23 11:13:14.9     195    -79     89    211    229 112.2  24.3  34166  289.67 0855.24
2009/04/23 11:13:15.0     129   -186    130    227    261 145.3  32.4  34160  289.56 0855.24
2009/04/23 11:13:15.1     121   -171    104    210    234 144.8  28.2  34152  289.43 0855.22
2009/04/23 11:13:15.2     254   -195    159    321    358 127.5  28.4  34148  289.37 0855.22
2009/04/23 11:13:15.3     241   -200    157    314    351 129.6  28.5  34146  289.35 0855.22
2009/04/23 11:13:15.4     162   -221    115    275    298 143.7  24.1  34152  289.44 0855.22
2009/04/23 11:13:15.5     106   -249     13    271    272 156.8   2.9  34152  289.42 0855.22
2009/04/23 11:13:15.6     133   -193    142    235    274 145.3  34.0  34152  289.44 0855.22
2009/04/23 11:13:15.7     103   -270     90    290    304 159.1  17.4  34142  289.27 0855.22
2009/04/23 11:13:15.8      59   -231    240    239    338 165.5  50.0  34150  289.41 0855.22
2009/04/23 11:13:15.9     -70   -233    306    244    391 196.7  57.5  34154  289.48 0855.22
2009/04/23 11:13:16.0       0   -108    250    109    272 180.0  75.0  34162  289.62 0855.22
2009/04/23 11:13:16.1    -212   -261    208    337    396 219.1  34.5  34152  289.43 0855.22
2009/04/23 11:13:16.2    -121   -226     48    257    262 208.1  10.6  34154  289.47 0855.22
2009/04/23 11:13:16.3      86   -223    -30    240    242 158.8  -7.3  34150  289.41 0855.22
2009/04/23 11:13:16.4      28   -145    -74    148    165 168.9 -33.1  34152  289.43 0855.22
2009/04/23 11:13:16.5    -128    -71    -76    147    165 240.7 -33.9  34152  289.43 0855.22
2009/04/23 11:13:16.6    -170   -127     25    213    215 233.1   6.9  34170  289.74 0855.22
2009/04/23 11:13:16.7    -267   -147    113    305    325 241.2  21.3  34184  289.98 0855.22
2009/04/23 11:13:16.8    -263    -80     92    275    291 253.1  18.6  34190  290.07 0855.22
2009/04/23 11:13:16.9    -250    -59    -54    257    263 256.7 -11.9  34180  289.90 0855.22
2009/04/23 11:13:17.0    -269    -58    -18    276    277 257.8  -3.7  34182  289.95 0855.22
2009/04/23 11:13:17.1    -217      9    -31    218    221 272.6  -8.2  34168  289.72 0855.23
2009/04/23 11:13:17.2    -185    -40    -49    190    197 257.8 -14.7  34194  290.14 0855.23
2009/04/23 11:13:17.3    -182    -60    -57    192    200 251.6 -21.7  34210  290.41 0855.23
2009/04/23 11:13:17.4    -155    -71    -37    171    176 245.2 -12.4  34210  290.43 0855.23
2009/04/23 11:13:17.5    -150    -45    -65    157    169 253.2 -28.2  34198  290.23 0855.23
2009/04/23 11:13:17.7    -199    -40    -33    203    206 258.5  -9.3  34198  290.21 0855.23
2009/04/23 11:13:17.8    -268    -20    -24    269    271 265.7  -5.2  34188  290.03 0855.23
2009/04/23 11:13:17.9    -245    -15     12    246    247 266.5   2.9  34220  290.59 0855.23
2009/04/23 11:13:18.0    -176      7    -29    177    180 272.4  -9.3  34210  290.41 0855.23
2009/04/23 11:13:18.1    -173    -38    -38    178    183 257.4 -12.2  34202  290.30 0855.23
2009/04/23 11:13:18.2    -235    -67    -35    245    248 254.0  -8.2  34218  290.56 0855.23
2009/04/23 11:13:18.3    -261   -158     -1    306    307 238.7  -0.3  34232  290.80 0855.23
2009/04/23 11:13:18.4    -246   -120      7    274    275 244.0   1.6  34232  290.80 0855.23
2009/04/23 11:13:18.5    -153   -141    -10    209    210 227.3  -2.8  34222  290.62 0855.23
2009/04/23 11:13:18.6     -74    -71     61    103    119 226.4  33.5  34216  290.52 0855.23
2009/04/23 11:13:18.7     -60    -95     13    113    114 212.5   6.9  34200  290.26 0855.23
2009/04/23 11:13:18.8    -107    -68      5    127    128 237.6   2.3  34194  290.14 0855.23
2009/04/23 11:13:18.9     -71    -55    -38     91     98 232.2 -28.0  34186  290.01 0855.23
2009/04/23 11:13:19.0     -82    -60    -49    102    113 233.6 -31.6  34190  290.09 0855.23
2009/04/23 11:13:19.1    -122     -5    -36    123    128 267.4 -21.2  34202  290.28 0855.23
2009/04/23 11:13:19.2     -89    -89     40    126    133 225.0  17.9  34182  289.94 0855.22
2009/04/23 11:13:19.3    -107    -80     35    134    139 233.1  14.7  34176  289.85 0855.22
2009/04/23 11:13:19.4    -105    -98     -5    144    145 226.9  -2.2  34174  289.80 0855.22
2009/04/23 11:13:19.5     -60    -83    -35    103    108 216.1 -23.3  34172  289.77 0855.22
2009/04/23 11:13:19.6     -29    -72    -36     78     85 201.9 -31.0  34174  289.80 0855.22
2009/04/23 11:13:19.7      21   -112     -4    114    115 169.3  -2.2  34178  289.87 0855.22
2009/04/23 11:13:19.8      -1   -121     22    122    125 180.5  10.6  34168  289.72 0855.22
2009/04/23 11:13:19.9      46    -16    107     49    117 110.0  74.0  34182  289.96 0855.22
2009/04/23 11:13:20.0      86    -35    107     93    141 112.2  54.3  34190  290.08 0855.22
2009/04/23 11:13:20.1     103    -85    120    134    179 129.5  46.6  34190  290.09 0855.22
2009/04/23 11:13:20.2     102   -109     42    150    156 136.7  15.8  34182  289.94 0855.22
2009/04/23 11:13:20.3     125   -133     -3    183    184 136.8  -1.1  34180  289.92 0855.22
2009/04/23 11:13:20.4     148   -125     42    195    200 130.2  12.2  34186  290.02 0855.22
2009/04/23 11:13:20.5     200   -127    -10    237    238 122.4  -2.6  34174  289.80 0855.22
2009/04/23 11:13:20.6     207   -149    -53    256    262 125.7 -11.9  34166  289.68 0855.22
2009/04/23 11:13:20.7     202   -148    -74    251    262 126.2 -16.6  34164  289.63 0855.22
2009/04/23 11:13:20.8     182   -150    -81    236    250 129.5 -18.9  34160  289.58 0855.22
2009/04/23 11:13:20.9     205   -139    -54    249    255 124.2 -12.4  34160  289.56 0855.22
2009/04/23 11:13:21.0     210   -114    -16    240    241 118.6  -3.9  34162  289.61 0855.22
2009/04/23 11:13:21.1     245    -90     17    262    263 110.2   3.8  34176  289.85 0855.22
2009/04/23 11:13:21.2     220    -68     11    231    232 107.3   2.8  34174  289.82 0855.19
2009/04/23 11:13:21.3     194    -66     48    206    212 108.8  13.2  34172  289.77 0855.19
2009/04/23 11:13:21.4     209    -69     30    221    224 108.4   7.8  34172  289.77 0855.19
2009/04/23 11:13:21.5     165   -124     73    207    220 127.1  19.4  34162  289.60 0855.19
2009/04/23 11:13:21.6     127   -145    109    193    221 138.8  31.9  34158  289.53 0855.19
2009/04/23 11:13:21.7     157    -92     88    183    203 120.4  27.4  34162  289.62 0855.19
2009/04/23 11:13:21.8     185    -85     56    204    212 114.8  15.6  34164  289.63 0855.19
2009/04/23 11:13:21.9     182    -86     36    202    206 115.3  10.3  34166  289.67 0855.19
2009/04/23 11:13:22.0     181   -170    134    249    282 133.1  30.6  34144  289.29 0855.19
2009/04/23 11:13:22.1     357   -212    103    416    429 120.7  13.9  34144  289.31 0855.19
2009/04/23 11:13:22.2     344   -281    121    445    462 129.2  15.3  34150  289.41 0855.16
2009/04/23 11:13:22.3     279   -241    223    369    431 130.8  33.8  34142  289.27 0855.16
2009/04/23 11:13:22.4     211   -186    156    282    322 131.4  31.4  34150  289.41 0855.16
2009/04/23 11:13:22.5     145   -234    128    276    304 148.3  27.1  34146  289.34 0855.16
2009/04/23 11:13:22.6     166   -179    103    245    265 137.2  24.2  34150  289.39 0855.16
2009/04/23 11:13:22.7     194   -187    119    270    295 134.0  25.2  34152  289.42 0855.16
2009/04/23 11:13:22.8     155   -236     63    283    291 146.6  12.6  34152  289.42 0855.16
2009/04/23 11:13:22.9     135   -186     95    231    249 144.0  23.8  34150  289.39 0855.16
2009/04/23 11:13:23.0      14   -195    123    196    231 175.6  35.5  34152  289.43 0855.16
2009/04/23 11:13:23.1      83   -162    107    183    211 152.8  33.4  34154  289.46 0855.16
2009/04/23 11:13:23.2      55   -113     74    126    146 154.1  33.5  34154  289.46 0855.16
2009/04/23 11:13:23.3     128    -71     21    147    149 118.9   8.5  34156  289.50 0855.16
2009/04/23 11:13:23.4     166   -103      8    196    197 121.8   2.3  34150  289.41 0855.16
2009/04/23 11:13:23.5     101      1    134    102    168  89.1  59.0  34160  289.57 0855.16
2009/04/23 11:13:23.6      61     21    123     65    139  70.9  69.8  34164  289.63 0855.16
2009/04/23 11:13:23.7     126     42    146    133    197  71.4  53.0  34160  289.57 0855.16
2009/04/23 11:13:23.8     146     64     95    160    186  66.4  33.7  34166  289.67 0855.16
2009/04/23 11:13:23.9      59     20     95     63    113  71.4  64.1  34174  289.80 0855.16
2009/04/23 11:13:24.0     -36    -12     55     39     67 251.4  60.6  34188  290.04 0855.16
2009/04/23 11:13:24.1     -14     31     29     35     45 334.7  44.8  34186  290.01 0855.16
2009/04/23 11:13:24.2     -33    -28     33     44     55 229.6  40.7  34176  289.84 0855.21
2009/04/23 11:13:24.3     -39    -24     65     46     79 238.5  61.5  34176  289.85 0855.21
2009/04/23 11:13:24.4       7     24     96     26     99  16.9  84.8  34186  290.02 0855.21
2009/04/23 11:13:24.5       1     17     84     18     85   4.5  88.5  34180  289.91 0855.21
2009/04/23 11:13:24.6      11    -23     74     26     78 152.8  81.2  34184  289.97 0855.21
2009/04/23 11:13:24.7     -18     -7     46     20     50 248.3  74.0  34188  290.06 0855.21
2009/04/23 11:13:24.8       5     70     62     71     94   4.5  45.8  34188  290.06 0855.21
2009/04/23 11:13:24.9     -39     72     70     83    108 331.5  44.3  34186  290.02 0855.21
2009/04/23 11:13:25.0     -30    148    128    151    197 348.5  44.8  34254  291.18 0855.21
2009/04/23 11:13:25.1     -94    182    129    205    242 332.6  35.5  34262  291.30 0855.21
2009/04/23 11:13:25.2    -143    195    115    242    267 323.7  27.2  34258  291.24 0855.21
2009/04/23 11:13:25.3    -110    194     66    224    234 330.4  16.4  34240  290.92 0855.21
2009/04/23 11:13:25.4    -116    159     60    197    207 323.9  17.1  34248  291.06 0855.21
2009/04/23 11:13:25.5    -139    167     42    218    223 320.3  11.0  34244  290.99 0855.21
2009/04/23 11:13:25.6    -141    148     13    205    206 316.3   3.6  34242  290.96 0855.21
2009/04/23 11:13:25.7     -93     96     90    135    162 315.9  37.0  34250  291.11 0855.21
2009/04/23 11:13:25.8    -109     15     46    111    120 277.9  23.6  34254  291.18 0855.21
2009/04/23 11:13:25.9    -100   -138    115    171    206 216.1  37.4  34240  290.94 0855.21
2009/04/23 11:13:26.0    -197    -14    119    198    231 265.9  33.7  34240  290.94 0855.21
2009/04/23 11:13:26.1    -165     -3    114    166    201 268.7  37.6  34250  291.09 0855.21
2009/04/23 11:13:26.2     -83    -69    124    109    165 230.4  54.3  34214  290.50 0855.25
2009/04/23 11:13:26.3    -118     15     42    119    127 277.5  19.4  34270  291.45 0855.25
2009/04/23 11:13:26.4    -121     36     89    127    155 286.8  38.6  34278  291.57 0855.25
2009/04/23 11:13:26.5    -158     16     95    159    185 276.1  34.0  34284  291.67 0855.25
2009/04/23 11:13:26.6     -59    -38     90     71    114 236.7  57.5  34292  291.83 0855.25
2009/04/23 11:13:26.7     -59    -18     66     62     90 252.3  51.6  34298  291.93 0855.25
2009/04/23 11:13:26.8     -47    -32     85     58    102 235.8  62.6  34280  291.62 0855.25
2009/04/23 11:13:26.9     -30    -32     89     45     99 223.2  71.4  34236  290.87 0855.25
2009/04/23 11:13:27.0      -8    -67     62     68     92 187.1  47.5  34216  290.53 0855.25
2009/04/23 11:13:27.1      -5    -54     43     55     69 186.2  42.7  34224  290.65 0855.25
2009/04/23 11:13:27.2     -18    -54     57     57     80 198.5  50.1  34242  290.96 0855.25
2009/04/23 11:13:27.3     -16     -5     60     17     62 251.8  84.8  34258  291.23 0855.25
2009/04/23 11:13:27.4     -27     40     47     49     67 325.7  50.0  34262  291.32 0855.25
2009/04/23 11:13:27.5     -18     45     42     49     64 337.3  45.8  34252  291.15 0855.25
2009/04/23 11:13:27.6     -18     55     69     58     90 341.7  56.3  34260  291.26 0855.25
2009/04/23 11:13:27.7     -24     54     45     60     75 335.5  39.7  34264  291.35 0855.25
2009/04/23 11:13:27.8     -17     58     58     61     84 343.1  49.0  34264  291.33 0855.25
2009/04/23 11:13:27.9     -36     26     28     45     53 306.0  35.5  34264  291.35 0855.25
2009/04/23 11:13:28.0     -26     -6     28     27     38 256.7  48.2  34274  291.50 0855.25
2009/04/23 11:13:28.1     -16     26     24     31     39 327.5  43.7  34272  291.49 0855.25
2009/04/23 11:13:28.2     -22     41     13     47     49 331.0  16.3  34272  291.49 0855.25
2009/04/23 11:13:28.3     -13     64     25     66     70 348.5  22.0  34278  291.57 0855.25
2009/04/23 11:13:28.4      20     84     22     87     90  13.8  14.7  34260  291.28 0855.25
2009/04/23 11:13:28.5       5    102     57    103    117   3.1  31.4  34248  291.06 0855.25
2009/04/23 11:13:28.6       0    103     73    104    127 359.5  38.0  34246  291.03 0855.25
2009/04/23 11:13:28.7      -6     65     65     66     92 354.7  50.5  34238  290.89 0855.25
2009/04/23 11:13:28.8      -1     20     52     21     56 355.5  78.2  34254  291.16 0855.25
2009/04/23 11:13:28.9       8     -1     33      9     34 101.5  82.8  34272  291.49 0855.25
2009/04/23 11:13:29.0      31     -3     14     32     34  96.1  27.1  34282  291.64 0855.25
2009/04/23 11:13:29.1      33      2     11     34     36  85.6  18.9  34274  291.50 0855.25
2009/04/23 11:13:29.2      41    -28     -3     50     51 124.2  -4.1  34288  291.76 0855.25
2009/04/23 11:13:29.3      46     29      9     55     56  57.5  10.1  34292  291.81 0855.25
2009/04/23 11:13:29.4      39     35     18     53     57  47.8  19.4  34296  291.88 0855.25
2009/04/23 11:13:29.5      32     50     -1     60     61  32.5  -1.3  34284  291.69 0855.25
2009/04/23 11:13:29.6      51     73     -7     90     91  35.2  -4.6  34264  291.35 0855.25
2009/04/23 11:13:29.7      36     66    -15     76     78  29.0 -11.3  34254  291.16 0855.25
2009/04/23 11:13:29.8       4     61     17     62     65   4.5  15.3  34254  291.16 0855.25
2009/04/23 11:13:29.9      16     59     29     62     68  15.2  27.1  34254  291.16 0855.25
2009/04/23 11:13:30.0      78     26     60     83    102  71.4  39.7  34256  291.20 0855.25
2009/04/23 11:13:30.1     136     49     87    145    169  70.1  34.0  34270  291.45 0855.25
2009/04/23 11:13:30.2     229     82    133    244    277  70.3  31.0  34260  291.27 0855.21
2009/04/23 11:13:30.3     282     94    183    298    349  71.6  34.8  34268  291.39 0855.21
2009/04/23 11:13:30.4     329     79    176    339    381  76.4  29.4  34270  291.44 0855.21
2009/04/23 11:13:30.5     284     35    194    287    346  82.9  37.3  34262  291.29 0855.21
2009/04/23 11:13:30.6     201    151    215    252    331  53.1  44.8  34268  291.39 0855.21
2009/04/23 11:13:30.7     173     63    247    185    308  69.8  59.4  34266  291.36 0855.21
2009/04/23 11:13:30.8     196     59    158    205    258  73.2  41.6  34244  291.00 0855.21
2009/04/23 11:13:30.9     183     31     87    186    205  80.3  27.1  34242  290.98 0855.21
2009/04/23 11:13:31.0     148    -66    140    163    214 114.0  45.1  34214  290.48 0855.21
2009/04/23 11:13:31.1      16   -150    193    151    245 173.8  57.9  34214  290.48 0855.21
2009/04/23 11:13:31.2      12    -40    142     42    148 163.1  82.8  34206  290.35 0855.21
2009/04/23 11:13:31.3      90    -45    127    101    162 116.6  57.5  34182  289.96 0855.21
2009/04/23 11:13:31.4      79   -124    155    148    214 147.5  51.2  34180  289.92 0855.21
2009/04/23 11:13:31.5     225   -102    197    248    316 114.4  42.4  34168  289.71 0855.21
2009/04/23 11:13:31.6     174   -111    182    207    275 122.5  45.8  34174  289.80 0855.21
2009/04/23 11:13:31.7     235   -115    184    262    320 116.2  38.5  34168  289.70 0855.21
2009/04/23 11:13:31.8     196    -65    236    207    313 108.4  54.4  34170  289.75 0855.21
2009/04/23 11:13:31.9     267    -85    251    281    376 107.7  46.5  34182  289.93 0855.21
2009/04/23 11:13:32.0     158   -111    225    194    297 125.1  54.8  34188  290.03 0855.21
2009/04/23 11:13:32.1     109   -128    176    169    244 139.7  51.2  34186  290.01 0855.21
2009/04/23 11:13:32.2     104    -32    160    109    193 107.3  62.8  34180  289.91 0855.22
2009/04/23 11:13:32.3       5     82    178     83    196   3.6  73.5  34194  290.14 0855.22
2009/04/23 11:13:32.4      20    -17     95     27     98 131.3  83.9  34204  290.31 0855.22
2009/04/23 11:13:32.5     -91    -14    105     93    140 261.2  54.2  34202  290.28 0855.22
2009/04/23 11:13:32.6      14    -41    144     44    150 160.8  82.3  34198  290.23 0855.22
2009/04/23 11:13:32.7    -120     -5    167    121    206 267.4  60.5  34220  290.60 0855.22
2009/04/23 11:13:32.8    -298    -81      9    309    310 254.7   1.8  34242  290.95 0855.22
2009/04/23 11:13:32.9    -385    -65    -20    391    392 260.3  -3.0  34204  290.33 0855.22
2009/04/23 11:13:33.0    -373   -154     12    404    405 247.6   1.8  34220  290.58 0855.22
2009/04/23 11:13:33.1    -362    -28     42    364    367 265.5   6.6  34264  291.34 0855.22
2009/04/23 11:13:33.2    -311     -4      4    312    313 269.2   0.9  34216  290.51 0855.22
2009/04/23 11:13:33.3    -337    -10    106    338    355 268.2  17.5  34208  290.37 0855.22
2009/04/23 11:13:33.4    -212     43    122    217    248 281.7  31.9  34234  290.83 0855.22
2009/04/23 11:13:33.5     -64     35     96     74    121 298.9  58.5  34244  291.01 0855.22
2009/04/23 11:13:33.6     -62    -16     55     65     85 254.9  44.8  34250  291.09 0855.22
2009/04/23 11:13:33.7     -75   -153    103    171    199 206.1  33.7  34230  290.75 0855.22
2009/04/23 11:13:33.8    -141   -150    142    206    250 223.2  37.8  34240  290.93 0855.22
2009/04/23 11:13:33.9    -140   -134    130    194    233 226.2  36.7  34216  290.53 0855.22
2009/04/23 11:13:34.0    -119     16    152    121    194 277.9  57.5  34230  290.77 0855.22
2009/04/23 11:13:34.1     -10     19     95     22     97 332.8  87.5  34218  290.55 0855.22
2009/04/23 11:13:34.2     -68    -58    152     90    176 229.1  67.0  34216  290.52 0855.23
2009/04/23 11:13:34.3    -126     31     80    130    152 284.2  35.5  34212  290.47 0855.23
2009/04/23 11:13:34.4      17    -91     65     93    113 169.3  38.0  34208  290.38 0855.23
2009/04/23 11:13:34.5      17   -137    157    139    209 172.9  54.2  34164  289.65 0855.23
2009/04/23 11:13:34.6      32   -226    131    229    263 171.9  32.4  34158  289.53 0855.23
2009/04/23 11:13:34.7     -25   -321     93    323    337 184.6  16.0  34154  289.48 0855.23
2009/04/23 11:13:34.8     -70   -297     15    306    307 193.4   2.9  34152  289.44 0855.23
2009/04/23 11:13:34.9     -51   -284      2    289    290 190.2   0.5  34150  289.41 0855.23
2009/04/23 11:13:35.0      24   -277     16    279    280 174.9   3.3  34162  289.59 0855.23
2009/04/23 11:13:35.1     -18   -246    -73    247    258 184.4 -16.6  34156  289.51 0855.23
2009/04/23 11:13:35.2     -48   -134    -58    143    154 200.0 -27.4  34166  289.67 0855.23
2009/04/23 11:13:35.3      73   -245     -8    256    257 163.3  -1.8  34162  289.59 0855.23
2009/04/23 11:13:35.4     133   -282    -41    313    316 154.7  -7.5  34148  289.36 0855.23
2009/04/23 11:13:35.5     217   -246     33    329    331 138.6   5.8  34138  289.21 0855.23
2009/04/23 11:13:35.6     260   -228     27    347    349 131.3   4.5  34144  289.30 0855.23
2009/04/23 11:13:35.7     226   -177    -30    288    290 128.0  -6.0  34152  289.44 0855.23
2009/04/23 11:13:35.8     142    -96    -12    172    173 124.2  -4.1  34152  289.43 0855.23
2009/04/23 11:13:35.9     136    -66      7    152    153 115.8   2.8  34150  289.40 0855.23
2009/04/23 11:13:36.0     132    -84     12    157    158 122.4   4.4  34140  289.23 0855.23
2009/04/23 11:13:36.1      77    -20    157     80    176 105.0  71.1  34146  289.33 0855.23
2009/04/23 11:13:36.2      80      1    119     81    143  89.1  62.6  34158  289.53 0855.23
2009/04/23 11:13:36.3      72    -77     81    106    133 137.2  41.6  34142  289.28 0855.23
2009/04/23 11:13:36.4      75   -118     44    141    148 147.5  17.3  34144  289.30 0855.23
2009/04/23 11:13:36.5     101   -107      9    148    149 136.8   3.8  34144  289.31 0855.23
2009/04/23 11:13:36.6     143    -76    -35    162    166 118.0 -12.4  34162  289.60 0855.23
2009/04/23 11:13:36.7     103   -110    -19    151    153 136.8  -7.2  34160  289.58 0855.23
2009/04/23 11:13:36.8     108   -136     -9    175    176 141.5  -3.1  34164  289.63 0855.23
2009/04/23 11:13:36.9      21   -205     45    207    212 174.0  12.4  34162  289.62 0855.23
2009/04/23 11:13:37.0     140   -160      0    213    214 138.8  -0.3  34164  289.65 0855.23
2009/04/23 11:13:37.1      76   -138     41    158    164 151.0  14.7  34164  289.65 0855.23
2009/04/23 11:13:37.2      31   -152     -3    156    157 168.4  -1.3  34162  289.62 0855.23
2009/04/23 11:13:37.3     -21   -174     44    176    182 187.1  14.3  34156  289.50 0855.23
2009/04/23 11:13:37.4     -59   -131    110    144    181 204.5  41.4  34166  289.69 0855.23
2009/04/23 11:13:37.5      90    -31     97     96    136 109.1  50.1  34174  289.80 0855.23
2009/04/23 11:13:37.6      46    -76    105     90    138 148.8  54.8  34170  289.75 0855.23
2009/04/23 11:13:37.7     101   -240    155    261    303 157.2  33.5  34158  289.54 0855.23
2009/04/23 11:13:37.8      -5   -291    181    292    343 181.0  34.9  34144  289.31 0855.23
2009/04/23 11:13:37.9     -30   -217    190    220    290 188.0  45.4  34148  289.36 0855.23
2009/04/23 11:13:38.0      95   -209    136    230    267 155.5  33.5  34158  289.53 0855.23
2009/04/23 11:13:38.1       2   -191    167    192    254 179.1  45.6  34144  289.31 0855.23
2009/04/23 11:13:38.2     -28   -174    163    177    240 189.1  47.7  34146  289.35 0855.24
2009/04/23 11:13:38.3      79    -43    133     91    161 118.9  62.4  34148  289.38 0855.24
2009/04/23 11:13:38.4    -100   -263    270    282    390 200.9  48.8  34152  289.45 0855.24
2009/04/23 11:13:38.5    -108   -334    264    351    439 197.9  40.7  34154  289.48 0855.24
2009/04/23 11:13:38.6    -156   -358    113    391    407 203.6  16.1  34148  289.37 0855.24
2009/04/23 11:13:38.7      -4   -259    -76    260    271 180.9 -16.4  34138  289.20 0855.24
2009/04/23 11:13:38.8    -187   -364   -307    410    512 207.2 -45.0  34146  289.32 0855.24
2009/04/23 11:13:38.9    -312   -102     60    329    335 251.8  10.3  34138  289.21 0855.24
2009/04/23 11:13:39.0    -326     59    125    332    354 280.3  21.5  34150  289.40 0855.24
2009/04/23 11:13:39.1    -185    168     99    251    269 312.3  22.8  34152  289.42 0855.24
2009/04/23 11:13:39.2     -90    130    164    159    228 325.3  50.9  34156  289.52 0855.24
2009/04/23 11:13:39.3    -110     81    144    137    198 306.4  51.6  34162  289.62 0855.24
2009/04/23 11:13:39.4     -77      5     74     78    107 274.3  48.5  34166  289.69 0855.24
2009/04/23 11:13:39.5     -92    -31     32     98    104 251.4  17.9  34166  289.69 0855.24
2009/04/23 11:13:39.6    -189    112     60    220    229 300.7  15.3  34158  289.55 0855.24
2009/04/23 11:13:39.7    -255    130     61    287    294 297.0  12.1  34164  289.63 0855.24
2009/04/23 11:13:39.8    -284    178    140    336    364 302.0  24.1  34168  289.71 0855.24
2009/04/23 11:13:39.9    -246    297      2    386    387 320.3   0.4  34162  289.62 0855.24
2009/04/23 11:13:40.0    -210    299    -60    366    371 324.9  -9.4  34186  290.01 0855.24
2009/04/23 11:13:40.1    -112    184    126    216    250 328.6  33.1  34184  289.97 0855.24
2009/04/23 11:13:40.2     -22    380    136    381    404 356.6  20.4  34168  289.72 0855.25
2009/04/23 11:13:40.3     -41    223     96    227    246 349.5  24.2  34160  289.58 0855.25
2009/04/23 11:13:40.4     -91    185     78    207    221 333.9  21.5  34152  289.43 0855.25
2009/04/23 11:13:40.5    -101     87     63    134    148 310.9  27.1  34148  289.38 0855.25
2009/04/23 11:13:40.6     -71    119     75    139    157 329.2  30.8  34148  289.36 0855.25
2009/04/23 11:13:40.7     -23     68     69     73    100 340.8  48.0  34160  289.57 0855.25
2009/04/23 11:13:40.8     -30   -115     46    119    127 194.7  22.0  34156  289.50 0855.25
2009/04/23 11:13:40.9    -166   -157    -20    229    230 226.7  -5.1  34148  289.38 0855.25
2009/04/23 11:13:41.0     -62   -309    -11    316    317 191.5  -2.1  34148  289.36 0855.25
2009/04/23 11:13:41.1     -95   -286     53    302    307 198.5  10.0  34144  289.29 0855.25
2009/04/23 11:13:41.2      30   -207     46    210    216 171.5  12.4  34146  289.33 0855.25
2009/04/23 11:13:41.3    -135    -23    132    137    190 260.3  49.2  34160  289.57 0855.25
2009/04/23 11:13:41.4     -90    -91    179    129    220 224.5  60.6  34162  289.62 0855.25
2009/04/23 11:13:41.5    -110   -333    204    351    405 198.4  32.8  34138  289.21 0855.25
2009/04/23 11:13:41.6    -111   -485    303    498    582 192.9  34.3  34130  289.07 0855.25
2009/04/23 11:13:41.7      69   -445    161    451    478 171.1  20.4  34144  289.30 0855.25
2009/04/23 11:13:41.8      65   -401    157    407    436 170.8  22.2  34144  289.29 0855.25
2009/04/23 11:13:41.9     164   -241    171    292    338 145.8  33.0  34142  289.27 0855.25
2009/04/23 11:13:42.0     157   -186    158    244    290 139.9  35.6  34144  289.31 0855.25
2009/04/23 11:13:42.1     185   -334    153    382    411 151.0  23.0  34136  289.17 0855.25
2009/04/23 11:13:42.2      53   -432    178    436    470 172.9  23.6  34130  289.05 0855.22
2009/04/23 11:13:42.3      31   -358    170    360    398 174.9  27.1  34142  289.26 0855.22
2009/04/23 11:13:42.4      60   -471    228    475    526 172.7  27.3  34142  289.27 0855.22
2009/04/23 11:13:42.5       6   -349    137    350    375 178.9  22.7  34142  289.28 0855.22
2009/04/23 11:13:42.6      41   -278    208    282    350 171.5  40.0  34142  289.28 0855.22
2009/04/23 11:13:42.7     -70   -273     88    282    296 194.5  17.4  34140  289.22 0855.22
2009/04/23 11:13:42.8     -44   -280    116    284    306 189.1  23.1  34142  289.27 0855.22
2009/04/23 11:13:42.9     -34   -182     93    186    207 190.7  28.5  34142  289.28 0855.22
2009/04/23 11:13:43.0    -100   -195     43    220    225 207.2  11.1  34142  289.28 0855.22
2009/04/23 11:13:43.2    -100   -182     11    208    209 208.9   3.1  34144  289.30 0855.22
2009/04/23 11:13:43.2     -26   -246     44    248    252 186.2  10.1  34148  289.36 0855.18
2009/04/23 11:13:43.3      19   -224      6    225    226 174.9   1.6  34148  289.38 0855.18
2009/04/23 11:13:43.4      76   -176     33    192    195 156.6   9.9  34150  289.41 0855.18
2009/04/23 11:13:43.5     139   -122     40    185    190 131.3  12.2  34152  289.43 0855.18
2009/04/23 11:13:43.6     181    -83     17    200    201 114.8   5.0  34148  289.38 0855.18
2009/04/23 11:13:43.7     201    -54     10    209    210 105.1   2.8  34146  289.35 0855.18
2009/04/23 11:13:43.8     144    -99    -65    175    186 124.6 -25.9  34152  289.45 0855.18
2009/04/23 11:13:43.9      47   -125     87    134    159 159.1  36.0  34146  289.33 0855.18
2009/04/23 11:13:44.0     -32   -180    176    183    253 190.2  49.0  34150  289.41 0855.18
2009/04/23 11:13:44.1     -23   -203    177    205    270 186.5  45.1  34156  289.49 0855.18
2009/04/23 11:13:44.2     -15   -106    125    108    165 188.5  54.8  34154  289.48 0855.18
2009/04/23 11:13:44.4      -7    -68     92     69    115 186.2  60.0  34164  289.63 0855.18
2009/04/23 11:13:44.5    -106   -105     73    150    166 225.1  27.4  34150  289.40 0855.18
2009/04/23 11:13:44.5     -89   -213    101    231    252 202.7  25.1  34148  289.37 0855.18
2009/04/23 11:13:44.6    -137   -232    140    270    304 210.5  29.3  34154  289.47 0855.18
2009/04/23 11:13:44.7    -101   -299    120    316    338 198.7  21.8  34156  289.50 0855.18
2009/04/23 11:13:44.8     -43   -336    116    339    359 187.4  18.9  34152  289.43 0855.18
2009/04/23 11:13:44.9     -42   -415    148    418    443 185.9  20.3  34150  289.41 0855.18
2009/04/23 11:13:45.0    -127   -483    171    500    529 194.8  18.9  34148  289.38 0855.18
2009/04/23 11:13:45.1     -56   -499    118    503    517 186.5  13.2  34150  289.40 0855.18
2009/04/23 11:13:45.2       3   -606    153    607    626 179.6  14.2  34144  289.31 0855.14
2009/04/23 11:13:45.3       1   -589    209    590    625 179.9  20.3  34140  289.22 0855.14
2009/04/23 11:13:45.5      76   -517    210    523    563 171.6  23.0  34144  289.31 0855.14
2009/04/23 11:13:45.6     -25   -384    264    385    466 183.8  37.6  34138  289.19 0855.14
2009/04/23 11:13:45.7       9   -306    201    307    366 178.2  36.3  34146  289.33 0855.14
2009/04/23 11:13:45.8       1   -325    197    326    380 179.7  34.1  34148  289.38 0855.14
2009/04/23 11:13:45.9     -57   -328    268    333    427 189.9  43.0  34148  289.37 0855.14
2009/04/23 11:13:46.0     -49   -363    240    367    438 187.8  36.3  34148  289.38 0855.14
2009/04/23 11:13:46.1    -140   -460    205    482    523 197.0  24.5  34142  289.25 0855.14
2009/04/23 11:13:46.2    -177   -531    196    561    594 198.5  20.0  34138  289.19 0855.14
2009/04/23 11:13:46.3     -77   -400    280    408    494 190.9  37.8  34136  289.18 0855.14
2009/04/23 11:13:46.4     -41   -442    271    445    521 185.4  34.3  34142  289.28 0855.14
2009/04/23 11:13:46.5      31   -387    332    389    511 175.3  44.8  34146  289.32 0855.14
2009/04/23 11:13:46.6      56   -500    329    504    601 173.5  36.2  34140  289.22 0855.14
2009/04/23 11:13:46.7     -60   -427    322    432    538 188.1  40.4  34136  289.17 0855.14
2009/04/23 11:13:46.8     -26   -433    199    434    477 183.5  26.3  34138  289.21 0855.14
2009/04/23 11:13:46.9     -69   -371    165    378    412 190.6  25.1  34136  289.18 0855.14
2009/04/23 11:13:47.0     -68   -354    272    361    452 190.9  40.7  34142  289.27 0855.14
2009/04/23 11:13:47.1     -12   -270    246    271    366 182.7  46.9  34136  289.16 0855.14
2009/04/23 11:13:47.2       6   -182    272    183    327 178.0  63.1  34144  289.29 0855.14
2009/04/23 11:13:47.3      -4   -268    282    269    389 180.9  51.5  34146  289.32 0855.11
2009/04/23 11:13:47.4      12   -265    241    266    358 177.3  46.9  34146  289.33 0855.11
2009/04/23 11:13:47.5      54   -208    236    215    319 165.3  53.2  34144  289.31 0855.11
2009/04/23 11:13:47.6      23   -311    287    312    423 175.6  47.6  34146  289.32 0855.11
2009/04/23 11:13:47.7      29   -315    228    317    390 174.6  39.2  34142  289.25 0855.11
2009/04/23 11:13:47.8     -13   -341    285    342    445 182.2  44.0  34140  289.22 0855.11
2009/04/23 11:13:47.9     -72   -375    268    382    466 190.9  38.6  34144  289.31 0855.11
2009/04/23 11:13:48.0    -101   -560    190    570    602 190.3  18.5  34138  289.20 0855.11
2009/04/23 11:13:48.1     -33   -450    214    452    500 184.3  27.2  34136  289.15 0855.11
2009/04/23 11:13:48.2      -7   -404    190    405    447 181.0  27.1  34144  289.29 0855.11
2009/04/23 11:13:48.3      33   -364    189    366    411 174.8  29.4  34140  289.23 0855.11
2009/04/23 11:13:48.4      44   -351    196    354    404 172.8  31.4  34140  289.23 0855.11
2009/04/23 11:13:48.5      67   -299    235    307    386 167.3  41.4  34140  289.23 0855.11
2009/04/23 11:13:48.6      46    -38    147     61    159 129.6  76.3  34150  289.41 0855.11
2009/04/23 11:13:48.7     -66    -31    113     74    135 244.8  64.6  34160  289.58 0855.11
2009/04/23 11:13:48.8     -43    279     69    283    292 351.1  13.7  34134  289.14 0855.11
2009/04/23 11:13:48.9    -103    208    112    233    258 333.5  27.3  34150  289.39 0855.11
2009/04/23 11:13:49.0     -74    134    129    154    200 331.1  44.3  34160  289.57 0855.11
2009/04/23 11:13:49.1      65     94    147    115    186  34.7  57.7  34152  289.43 0855.11
2009/04/23 11:13:49.2     185     61    116    195    226  71.6  33.5  34140  289.24 0855.11
2009/04/23 11:13:49.3     136     91    173    164    238  56.0  51.6  34152  289.43 0855.13
2009/04/23 11:13:49.4      96     96    133    136    190  45.0  49.8  34150  289.40 0855.13
2009/04/23 11:13:49.5      12     54    157     56    166  13.4  79.9  34160  289.57 0855.13
2009/04/23 11:13:49.6    -145   -155    181    213    279 223.0  44.8  34150  289.39 0855.13
2009/04/23 11:13:49.7    -154   -154    173    218    278 225.0  42.4  34146  289.32 0855.13
2009/04/23 11:13:49.8    -128   -184    226    225    318 214.7  50.0  34146  289.34 0855.13
2009/04/23 11:13:49.9    -107   -185    222    215    309 210.1  51.2  34150  289.39 0855.13
2009/04/23 11:13:50.0    -106   -190    265    218    343 209.2  56.4  34146  289.34 0855.13
2009/04/23 11:13:50.1      55    -55    249     79    261 135.0  81.7  34164  289.63 0855.13
2009/04/23 11:13:50.2     141     39    268    147    305  74.5  68.9  34166  289.68 0855.13
2009/04/23 11:13:50.3      16    -18    162     25    163 138.6  90.0  34154  289.48 0855.13
2009/04/23 11:13:50.4     -93   -194    219    216    307 205.6  50.2  34146  289.32 0855.13
2009/04/23 11:13:50.5    -138   -204     64    247    256 214.1  14.7  34140  289.22 0855.13
2009/04/23 11:13:50.6     -75   -246    140    258    293 196.9  31.0  34144  289.31 0855.13
2009/04/23 11:13:50.7     -13   -100    126    101    161 187.6  57.1  34144  289.31 0855.13
2009/04/23 11:13:50.8     -25    -39    140     47    147 212.6  81.0  34156  289.50 0855.13
2009/04/23 11:13:50.9    -118   -299    114    322    342 201.6  19.5  34134  289.13 0855.13
2009/04/23 11:13:51.0    -158   -349    189    384    427 204.3  28.1  34138  289.19 0855.13
2009/04/23 11:13:51.1    -128   -263    170    293    338 206.1  32.7  34142  289.25 0855.13
2009/04/23 11:13:51.2      78   -236    188    249    312 161.5  40.8  34148  289.36 0855.13
2009/04/23 11:13:51.3      10   -258    206    259    330 177.8  42.7  34140  289.24 0855.17
2009/04/23 11:13:51.4      53   -285    232    290    371 169.4  42.9  34138  289.21 0855.17
2009/04/23 11:13:51.5     -46   -294    190    298    353 188.9  35.6  34142  289.26 0855.17
2009/04/23 11:13:51.6      32   -134    223    138    262 166.2  65.1  34146  289.33 0855.17
2009/04/23 11:13:51.7     -12   -335    222    336    402 182.1  36.5  34136  289.16 0855.17
2009/04/23 11:13:51.8     -36   -354    216    356    416 185.9  34.2  34138  289.21 0855.17
2009/04/23 11:13:51.9       7   -344    264    345    434 178.8  41.3  34140  289.22 0855.17
2009/04/23 11:13:52.0      67   -331    242    338    415 168.4  39.2  34142  289.26 0855.17
2009/04/23 11:13:52.1     197   -351    158    403    432 150.7  22.7  34140  289.22 0855.17
2009/04/23 11:13:52.2     220   -371    175    432    466 149.3  23.1  34128  289.04 0855.17
2009/04/23 11:13:52.3     175   -358    140    399    422 153.9  20.0  34138  289.19 0855.17
2009/04/23 11:13:52.4     176   -350    148    392    419 153.3  21.7  34134  289.14 0855.17
2009/04/23 11:13:52.5     240   -389    117    458    473 148.3  14.4  34132  289.10 0855.17
2009/04/23 11:13:52.6     272   -375    135    464    484 144.0  16.3  34140  289.23 0855.17
2009/04/23 11:13:52.7     228   -402    169    463    492 150.4  21.0  34140  289.22 0855.17
2009/04/23 11:13:52.8     252   -391    218    466    514 147.2  26.9  34138  289.20 0855.17
2009/04/23 11:13:52.9     192   -289    190    348    396 146.4  31.0  34138  289.21 0855.17
2009/04/23 11:13:53.0     196   -318    179    374    414 148.3  27.3  34136  289.15 0855.17
2009/04/23 11:13:53.1     184   -319    190    369    415 150.0  29.3  34138  289.21 0855.17
2009/04/23 11:13:53.2     289   -344     63    450    455 140.0   8.0  34142  289.26 0855.17
2009/04/23 11:13:53.3     316   -218    197    384    431 124.6  29.3  34140  289.22 0855.19
2009/04/23 11:13:53.4     179   -245    233    304    383 143.9  41.4  34148  289.38 0855.19
2009/04/23 11:13:53.5     204   -300    122    364    385 145.7  18.6  34146  289.35 0855.19
2009/04/23 11:13:53.6     192   -331    124    383    403 149.9  17.9  34146  289.33 0855.19
2009/04/23 11:13:53.7     202   -345    182    400    439 149.6  26.2  34144  289.31 0855.19
2009/04/23 11:13:53.8     177   -300    288    349    452 149.4  43.7  34156  289.51 0855.19
2009/04/23 11:13:53.9      70   -129    168    147    223 151.5  54.3  34160  289.58 0855.19
2009/04/23 11:13:54.0     216   -369      6    428    429 149.6   0.9  34144  289.29 0855.19
2009/04/23 11:13:54.1     201   -392    -46    441    444 152.8  -6.1  34146  289.34 0855.19
2009/04/23 11:13:54.2     163   -340     45    378    381 154.4   6.9  34146  289.32 0855.19
2009/04/23 11:13:54.3     174   -326     96    370    383 151.9  14.6  34152  289.43 0855.19
2009/04/23 11:13:54.4     211   -318     42    382    385 146.4   6.4  34158  289.54 0855.19
2009/04/23 11:13:54.5     178   -246    122    304    327 144.0  23.0  34156  289.49 0855.19
2009/04/23 11:13:54.6      86   -318    115    330    350 164.9  19.3  34162  289.60 0855.19
2009/04/23 11:13:54.7      69   -234    107    245    267 163.5  25.1  34170  289.73 0855.19
2009/04/23 11:13:54.8      -2   -138     95    139    168 181.0  37.6  34168  289.72 0855.19
2009/04/23 11:13:54.9     -19   -121     24    123    126 188.9  11.1  34172  289.77 0855.19
2009/04/23 11:13:55.0      -1   -127     27    128    131 180.9  12.2  34170  289.74 0855.19
2009/04/23 11:13:55.1      35    -22     46     42     62 122.5  52.2  34164  289.65 0855.19
2009/04/23 11:13:55.2     101     -6     64    102    120  93.9  35.5  34174  289.80 0855.19
2009/04/23 11:13:55.3      26    -36     32     45     55 143.9  38.6  34178  289.87 0855.21
2009/04/23 11:13:55.4     -84     73     22    112    115 311.3  11.1  34188  290.04 0855.21
2009/04/23 11:13:55.5      -8     23     98     25    101 340.0  85.9  34194  290.14 0855.21
2009/04/23 11:13:55.6    -137     10     41    138    145 274.4  16.8  34190  290.09 0855.21
2009/04/23 11:13:55.7    -219     67     45    230    235 287.1  11.1  34176  289.83 0855.21
2009/04/23 11:13:55.8    -227     92     68    246    256 292.2  15.6  34182  289.93 0855.21
2009/04/23 11:13:55.9    -237    -52     49    243    249 257.6  11.6  34182  289.95 0855.21
2009/04/23 11:13:56.0    -283    -29     11    285    286 264.1   2.3  34180  289.92 0855.21
2009/04/23 11:13:56.1    -186     81    105    203    228 293.5  29.3  34192  290.11 0855.21
2009/04/23 11:13:56.2    -323      6    -63    324    331 271.2 -11.0  34228  290.73 0855.21
2009/04/23 11:13:56.3    -287    -58     -8    293    294 258.6  -1.6  34200  290.26 0855.21
2009/04/23 11:13:56.4    -138     60     70    151    166 293.5  26.6  34180  289.92 0855.21
2009/04/23 11:13:56.5     -67   -160     17    174    175 202.9   5.9  34174  289.82 0855.21
2009/04/23 11:13:56.6    -102   -244    -12    265    266 202.8  -2.8  34176  289.83 0855.21
2009/04/23 11:13:56.7     -22   -211    -59    213    221 186.0 -20.0  34182  289.96 0855.21
2009/04/23 11:13:56.8      -3   -139    -79    140    160 181.4 -36.3  34188  290.04 0855.21
2009/04/23 11:13:56.9     114   -114      0    162    163 135.2  -0.3  34196  290.18 0855.21
2009/04/23 11:13:57.0     111   -218    -94    245    262 152.9 -26.4  34184  289.98 0855.21
2009/04/23 11:13:57.1     179   -198    -98    268    285 137.9 -25.4  34180  289.90 0855.21
2009/04/23 11:13:57.2     271    -90     49    286    291 108.4   9.9  34192  290.10 0855.21
2009/04/23 11:13:57.3     203   -173    -14    267    268 130.4  -3.1  34186  290.00 0855.20
2009/04/23 11:13:57.4     286   -160      9    329    330 119.3   1.7  34186  290.00 0855.20
2009/04/23 11:13:57.5     248   -127     45    279    283 117.1   9.3  34192  290.10 0855.20
2009/04/23 11:13:57.6     213   -174      2    276    277 129.3   0.5  34192  290.12 0855.20
2009/04/23 11:13:57.7     225    -84    -27    241    243 110.4  -6.5  34198  290.20 0855.20
2009/04/23 11:13:57.8     275   -112     70    298    307 112.2  13.2  34172  289.76 0855.20
2009/04/23 11:13:57.9     310   -172    106    355    371 119.0  16.6  34158  289.55 0855.20
2009/04/23 11:13:58.0     198   -198    105    281    299 135.0  21.3  34154  289.47 0855.20
2009/04/23 11:13:58.1      12   -190    117    191    223 176.4  34.8  34160  289.57 0855.20
2009/04/23 11:13:58.2       1   -220     74    221    234 179.5  18.5  34160  289.58 0855.20
2009/04/23 11:13:58.3      63   -332     97    338    352 169.2  16.0  34162  289.59 0855.20
2009/04/23 11:13:58.4      91   -338    124    351    372 164.8  20.1  34158  289.55 0855.20
2009/04/23 11:13:58.5      97   -304     68    320    328 162.2  12.1  34158  289.53 0855.20
2009/04/23 11:13:58.6     137   -332    172    360    398 157.5  27.3  34152  289.42 0855.20
2009/04/23 11:13:58.7     135   -279    253    311    400 154.1  43.4  34158  289.54 0855.20
2009/04/23 11:13:58.8     101   -292    236    310    389 160.8  41.2  34162  289.60 0855.20
2009/04/23 11:13:58.9     118   -250    207    277    345 154.8  40.6  34162  289.59 0855.20
2009/04/23 11:13:59.0      90   -184    189    205    278 153.9  47.9  34162  289.61 0855.20
2009/04/23 11:13:59.1     -68   -182     79    195    210 200.7  23.1  34162  289.62 0855.20
2009/04/23 11:13:59.2     -45   -136     48    144    152 198.3  18.4  34162  289.60 0855.20
2009/04/23 11:13:59.3     -30   -163      6    166    167 190.5   2.3  34162  289.62 0855.21
2009/04/23 11:13:59.4     -71   -123    -43    143    150 209.9 -17.0  34164  289.65 0855.21
2009/04/23 11:13:59.5     -75    -88    -51    116    126 220.5 -29.5  34164  289.65 0855.21
2009/04/23 11:13:59.6     -57   -111    -16    125    127 207.2  -7.3  34164  289.65 0855.21
2009/04/23 11:13:59.7      -1    -62     28     63     68 181.0  25.1  34164  289.65 0855.21
2009/04/23 11:13:59.8      54    -65     45     85     96 140.4  30.3  34172  289.77 0855.21
2009/04/23 11:13:59.9     -78    -44    -40     90     98 240.7 -30.1  34170  289.75 0855.21
2009/04/23 11:14:00.0    -159    -45     36    166    170 254.1  12.4  34174  289.80 0855.21
2009/04/23 11:14:00.1    -112   -154    -21    191    193 216.1  -6.5  34178  289.89 0855.21
2009/04/23 11:14:00.2     -42    -71    -25     83     86 211.2 -22.3  34182  289.96 0855.21
2009/04/23 11:14:00.3     -54      0     28     55     61 269.2  28.2  34178  289.89 0855.21
2009/04/23 11:14:00.4     -72    -75     62    105    121 223.7  33.4  34172  289.77 0855.21
2009/04/23 11:14:00.5      -5    -79     24     80     84 184.0  17.3  34172  289.79 0855.21
2009/04/23 11:14:00.6      89    -91     28    128    132 135.9  12.6  34180  289.91 0855.21
2009/04/23 11:14:00.7      38    -49     30     63     69 142.2  27.2  34182  289.96 0855.21
2009/04/23 11:14:00.8       8    -14     49     17     51 151.0  81.2  34184  289.99 0855.21
2009/04/23 11:14:00.9      24      9     43     26     50  68.3  65.7  34188  290.04 0855.21
2009/04/23 11:14:01.0     120    -40    121    127    175 108.6  48.7  34182  289.94 0855.21
2009/04/23 11:14:01.1     142   -133    126    195    232 133.2  35.6  34174  289.82 0855.21
2009/04/23 11:14:01.2     134    -84    140    159    211 122.0  45.8  34178  289.87 0855.21
2009/04/23 11:14:01.3     152    -60    112    164    198 111.8  37.6  34184  289.97 0855.18
2009/04/23 11:14:01.4     119     28     38    123    129  76.8  17.3  34190  290.09 0855.18
2009/04/23 11:14:01.5     121     44     90    129    157  70.0  38.6  34202  290.30 0855.18
2009/04/23 11:14:01.6     146    137     39    201    205  46.9  11.1  34184  289.97 0855.18
2009/04/23 11:14:01.7     120    109     50    163    171  47.8  17.1  34182  289.96 0855.18
2009/04/23 11:14:01.8     127      8     44    128    136  86.1  18.9  34184  289.97 0855.18
2009/04/23 11:14:01.9     103      2     40    104    111  88.7  22.0  34182  289.96 0855.18
2009/04/23 11:14:02.0      81      8     45     82     93  83.9  30.8  34184  289.99 0855.18
2009/04/23 11:14:02.1     115     14     95    116    149  83.0  43.7  34184  289.99 0855.18
2009/04/23 11:14:02.2     115     38     41    122    129  71.4  18.9  34190  290.08 0855.18
2009/04/23 11:14:02.3      94      8     43     95    104  84.8  26.2  34190  290.08 0855.18
2009/04/23 11:14:02.4     119    -11      2    120    121  95.7   1.2  34184  289.99 0855.18
2009/04/23 11:14:02.5     130    -20    -17    132    134  98.8  -7.3  34184  289.99 0855.18
2009/04/23 11:14:02.6      90      0     -1     91     92  90.0  -0.7  34184  289.99 0855.18
2009/04/23 11:14:02.7      56    -11     35     58     67 101.5  34.4  34188  290.06 0855.18
2009/04/23 11:14:02.8      48    -43     54     65     84 132.2  43.7  34190  290.09 0855.18
2009/04/23 11:14:02.9      69    -71     74    100    124 135.9  40.1  34184  289.97 0855.18
2009/04/23 11:14:03.0       6    -76     98     77    124 175.5  58.4  34182  289.96 0855.18
2009/04/23 11:14:03.1     -37   -113     54    119    130 198.3  26.2  34174  289.80 0855.18
2009/04/23 11:14:03.2     -29   -147     53    150    159 191.5  20.2  34172  289.79 0855.18
2009/04/23 11:14:03.3     -24   -144     42    147    153 189.7  16.0  34172  289.79 0855.15
2009/04/23 11:14:03.4      -7   -108     79    109    134 184.0  39.7  34178  289.87 0855.15
2009/04/23 11:14:03.5      -5    -69     84     70    109 184.4  56.3  34180  289.91 0855.15
2009/04/23 11:14:03.6     -44    -61     66     76    100 216.0  45.8  34182  289.96 0855.15
2009/04/23 11:14:03.7     -71    -33     63     79    101 244.8  43.3  34188  290.06 0855.15
2009/04/23 11:14:03.8     -83    -48     53     97    110 239.8  31.3  34186  290.02 0855.15
2009/04/23 11:14:03.9     -52    -33     17     62     65 237.6  15.3  34184  289.97 0855.15
2009/04/23 11:14:04.0       1    -73     14     74     76 179.1  11.1  34176  289.85 0855.15
2009/04/23 11:14:04.1     -19    -94     28     96    101 191.5  16.3  34174  289.82 0855.15
2009/04/23 11:14:04.2     101   -170     42    198    203 149.3  12.2  34168  289.72 0855.15
2009/04/23 11:14:04.3     116   -143      9    185    186 140.8   2.9  34168  289.72 0855.13
2009/04/23 11:14:04.4      99   -139     24    171    173 144.4   8.0  34168  289.72 0855.13
2009/04/23 11:14:04.5     107   -117     23    159    161 137.7   8.5  34170  289.74 0855.13
2009/04/23 11:14:04.6      80    -66     62    104    121 129.5  33.5  34172  289.77 0855.13
2009/04/23 11:14:04.7      69    -90     59    114    128 142.6  29.2  34168  289.72 0855.13
2009/04/23 11:14:04.8      56   -105     60    120    134 151.9  28.7  34168  289.70 0855.13
2009/04/23 11:14:04.9     100    -97     48    140    149 134.0  18.9  34168  289.72 0855.13
2009/04/23 11:14:05.0      96   -100     70    139    155 136.3  28.7  34172  289.77 0855.13
2009/04/23 11:14:05.1     133    -63     89    148    172 115.2  34.2  34172  289.79 0855.13
2009/04/23 11:14:05.2     120    -40    102    127    162 108.6  43.0  34172  289.79 0855.13
2009/04/23 11:14:05.3       7    -82     99     83    129 175.1  56.3  34178  289.87 0855.13
2009/04/23 11:14:05.4      10   -137    160    138    211 175.6  54.8  34184  289.97 0855.13
2009/04/23 11:14:05.5      77   -157    153    176    233 153.7  45.6  34174  289.82 0855.13
2009/04/23 11:14:05.6      28    -26     96     39    103 133.1  77.1  34182  289.96 0855.13
2009/04/23 11:14:05.7      79    -39    131     89    158 116.2  62.6  34182  289.96 0855.13
2009/04/23 11:14:05.8      59   -116    125    131    181 152.9  48.7  34180  289.92 0855.13
2009/04/23 11:14:05.9     154   -127     84    200    216 129.6  24.1  34166  289.67 0855.13
2009/04/23 11:14:06.0     132   -111     57    173    183 130.0  18.4  34166  289.69 0855.13
2009/04/23 11:14:06.1     188   -113     94    220    239 120.9  24.6  34172  289.76 0855.13
2009/04/23 11:14:06.2     144    -91     91    171    193 122.4  30.6  34170  289.75 0855.13
2009/04/23 11:14:06.3     137    -81     49    160    168 120.7  17.1  34172  289.77 0855.11
2009/04/23 11:14:06.4      85    -85      9    121    122 135.1   4.4  34172  289.77 0855.11
2009/04/23 11:14:06.5      45    -54    -25     71     76 140.3 -19.7  34170  289.75 0855.11
2009/04/23 11:14:06.6      54   -108     -2    121    122 153.3  -1.3  34170  289.74 0855.11
2009/04/23 11:14:06.7      38   -142     81    148    168 164.8  31.0  34170  289.75 0855.11
2009/04/23 11:14:06.8     -29   -169    100    172    198 190.0  32.9  34172  289.77 0855.11
2009/04/23 11:14:06.9      -6   -188    156    189    245 182.0  43.7  34174  289.82 0855.11
2009/04/23 11:14:07.0     -20   -195    121    197    231 186.0  35.0  34180  289.92 0855.11
2009/04/23 11:14:07.1      58   -171    128    181    221 161.3  38.8  34172  289.79 0855.11
2009/04/23 11:14:07.2      45   -189    111    195    224 166.6  32.1  34172  289.79 0855.11
2009/04/23 11:14:07.3      35    -98    105    105    148 160.0  50.1  34200  290.26 0855.11
2009/04/23 11:14:07.4       3   -111    -20    112    114 178.2 -10.3  34190  290.08 0855.11
2009/04/23 11:14:07.5    -111    -83    -42    139    145 233.1 -21.8  34220  290.60 0855.11
2009/04/23 11:14:07.6    -205    -88     39    224    228 246.7   9.9  34254  291.16 0855.11
2009/04/23 11:14:07.7    -263   -155    -50    306    311 239.4  -9.3  34234  290.83 0855.11
2009/04/23 11:14:07.8    -230   -146     24    273    275 237.5   5.2  34250  291.09 0855.11
2009/04/23 11:14:07.9    -164   -212    -69    269    278 217.8 -14.4  34214  290.49 0855.11
2009/04/23 11:14:08.0    -129   -252    -27    284    286 207.1  -5.6  34210  290.41 0855.11
2009/04/23 11:14:08.1    -159   -267    -17    311    312 210.8  -3.3  34226  290.70 0855.11
2009/04/23 11:14:08.2     -82   -216    -22    232    234 200.9  -5.6  34222  290.62 0855.11
2009/04/23 11:14:08.3     -19   -157    140    159    211 187.1  45.8  34210  290.41 0855.10
2009/04/23 11:14:08.4     -66   -200     93    211    230 198.5  25.3  34186  290.02 0855.10
2009/04/23 11:14:08.5    -111   -228     79    254    266 206.1  17.3  34180  289.92 0855.10
2009/04/23 11:14:08.6    -110   -186     62    217    226 210.7  16.0  34180  289.92 0855.10
2009/04/23 11:14:08.7      -8   -120     66    121    137 184.0  31.3  34180  289.91 0855.10
2009/04/23 11:14:08.8     -82   -203    127    220    254 202.1  32.4  34176  289.83 0855.10
2009/04/23 11:14:08.9      25   -270    142    272    306 174.6  29.8  34180  289.92 0855.10
2009/04/23 11:14:09.0     -37   -278    141    281    314 187.6  28.6  34182  289.93 0855.10
2009/04/23 11:14:09.1     -26   -283    123    285    310 185.3  25.1  34178  289.86 0855.10
2009/04/23 11:14:09.2     -43   -321    155    324    359 187.7  27.3  34178  289.87 0855.10
2009/04/23 11:14:09.3     -93   -324    138    338    365 196.0  23.5  34174  289.82 0855.10
2009/04/23 11:14:09.4     -61   -294    117    301    322 191.8  22.4  34172  289.78 0855.10
2009/04/23 11:14:09.5     -38   -246     72    250    261 188.9  16.0  34172  289.78 0855.10
2009/04/23 11:14:09.6     -20   -238    106    239    261 184.9  25.3  34174  289.81 0855.10
2009/04/23 11:14:09.7       9   -259    125    260    288 178.0  27.3  34174  289.80 0855.10
2009/04/23 11:14:09.8      87   -263     78    277    288 161.7  15.8  34168  289.71 0855.10
2009/04/23 11:14:09.9      65   -459     86    464    472 171.9  10.6  34162  289.62 0855.10
2009/04/23 11:14:10.0     211   -373    150    429    455 150.5  19.3  34154  289.48 0855.10
2009/04/23 11:14:10.1     213   -415    173    467    498 152.8  21.4  34162  289.62 0855.10
2009/04/23 11:14:10.3     267   -337    200    430    474 141.6  26.6  34164  289.63 0855.10
2009/04/23 11:14:10.3      77   -351    238    360    431 167.6  36.7  34164  289.65 0855.08
2009/04/23 11:14:10.4      33   -373    166    375    410 174.9  25.3  34164  289.65 0855.08
2009/04/23 11:14:10.5      30   -395    132    397    419 175.5  18.5  34166  289.66 0855.08
2009/04/23 11:14:10.6     -75   -401     80    408    416 190.6  11.1  34168  289.72 0855.08
2009/04/23 11:14:10.7      16   -295    -37    296    299 176.9  -7.2  34166  289.68 0855.08
2009/04/23 11:14:10.8      50   -274    -39    279    282 169.5  -8.0  34166  289.68 0855.08
2009/04/23 11:14:10.9      78   -231     38    244    248 161.3   9.0  34170  289.73 0855.08
2009/04/23 11:14:11.0     168   -199     37    261    264 139.9   8.2  34166  289.68 0855.08
2009/04/23 11:14:11.1      97   -208    106    230    253 155.1  26.6  34168  289.70 0855.08
2009/04/23 11:14:11.2    -109   -260   -102    283    300 202.8 -25.1  34168  289.71 0855.08
2009/04/23 11:14:11.3     -36   -296     -6    299    300 187.1  -1.3  34170  289.73 0855.08
2009/04/23 11:14:11.4     -25   -378    -13    379    380 183.8  -2.1  34176  289.84 0855.08
2009/04/23 11:14:11.5      38   -391    -28    393    394 174.3  -4.1  34174  289.82 0855.08
2009/04/23 11:14:11.6      52   -376    -41    380    383 172.0  -6.3  34182  289.96 0855.08
2009/04/23 11:14:11.7      15   -412      5    413    414 177.9   0.8  34194  290.14 0855.08
2009/04/23 11:14:11.8     -37   -401    -42    403    406 185.3  -6.0  34194  290.16 0855.08
2009/04/23 11:14:11.9    -125   -438    -75    456    463 196.0  -9.4  34186  290.00 0855.08
2009/04/23 11:14:12.0    -111   -366   -120    383    401 196.9 -22.5  34178  289.89 0855.08
2009/04/23 11:14:12.1    -155   -301    -52    339    343 207.3  -8.8  34188  290.04 0855.08
2009/04/23 11:14:12.3    -240   -328    -15    407    408 216.3  -2.2  34208  290.38 0855.08
2009/04/23 11:14:12.3    -153   -332     30    366    368 204.8   4.7  34206  290.35 0855.07
2009/04/23 11:14:12.4     -95   -329    -40    343    346 196.1  -6.7  34216  290.52 0855.07
2009/04/23 11:14:12.6    -190   -208    -11    283    284 222.4  -2.2  34228  290.73 0855.07
2009/04/23 11:14:12.6    -210   -142    -70    254    264 235.8 -15.4  34238  290.88 0855.07
2009/04/23 11:14:12.7    -173   -174    -73    246    257 224.8 -16.6  34232  290.78 0855.07
2009/04/23 11:14:12.9    -110   -223    -59    249    256 206.3 -13.4  34244  290.99 0855.07
2009/04/23 11:14:13.0     -48   -194    -68    200    212 194.0 -18.9  34240  290.92 0855.07
2009/04/23 11:14:13.1     -20   -148    -53    150    160 188.0 -19.7  34210  290.43 0855.07
2009/04/23 11:14:13.2     -67    -82    -84    107    136 219.2 -46.6  34204  290.33 0855.07
2009/04/23 11:14:13.2      44   -117    -72    126    145 159.1 -36.8  34214  290.48 0855.07
2009/04/23 11:14:13.4      -3   -145    -43    146    152 181.4 -21.7  34208  290.38 0855.07
2009/04/23 11:14:13.5     -22   -190      6    192    193 186.7   1.8  34198  290.23 0855.07
2009/04/23 11:14:13.6     -16   -164     31    165    168 185.6  10.8  34202  290.28 0855.07
2009/04/23 11:14:13.7     -39    -87     36     96    102 204.5  21.5  34202  290.30 0855.07
2009/04/23 11:14:13.8     -42    -88      4     98     99 205.5   2.8  34206  290.35 0855.07
2009/04/23 11:14:13.9     -11    -75    -43     76     87 188.9 -36.8  34210  290.41 0855.07
2009/04/23 11:14:14.0       5    -72    -82     73    109 175.5 -58.1  34202  290.28 0855.07
2009/04/23 11:14:14.1      39    -97    -73    105    127 158.1 -42.4  34194  290.14 0855.07
2009/04/23 11:14:14.2      47    -91    -26    103    107 152.8 -14.5  34190  290.08 0855.07
2009/04/23 11:14:14.3      65   -118     35    135    140 151.0  14.7  34188  290.06 0855.07
2009/04/23 11:14:14.4      18   -100     27    102    106 169.3  15.3  34188  290.06 0855.10
2009/04/23 11:14:14.5      16    -86     65     88    109 169.3  39.7  34188  290.06 0855.10
2009/04/23 11:14:14.6      14   -179     83    180    198 175.5  26.4  34190  290.08 0855.10
2009/04/23 11:14:14.7      52   -194     94    202    222 164.9  27.1  34188  290.04 0855.10
2009/04/23 11:14:14.8     -34   -243    133    246    279 188.1  30.8  34184  289.98 0855.10
2009/04/23 11:14:14.9     -22   -187     64    189    200 186.9  18.9  34180  289.91 0855.10
2009/04/23 11:14:15.0     -16   -173     91    174    196 185.6  29.5  34182  289.96 0855.10
2009/04/23 11:14:15.1     -12   -233    116    234    261 183.1  28.2  34180  289.92 0855.10
2009/04/23 11:14:15.2       4   -300    177    301    349 179.1  33.3  34178  289.87 0855.10
2009/04/23 11:14:15.3      42   -226    150    231    275 169.3  36.0  34176  289.83 0855.10
2009/04/23 11:14:15.4     199   -233    138    307    336 139.5  25.8  34178  289.88 0855.10
2009/04/23 11:14:15.5     108   -194    150    223    268 151.0  37.0  34178  289.88 0855.10
2009/04/23 11:14:15.6      88   -141    145    167    221 148.1  45.8  34178  289.87 0855.10
2009/04/23 11:14:15.7      97   -227    168    248    299 156.8  37.4  34174  289.81 0855.10
2009/04/23 11:14:15.8      79   -260    150    272    310 163.1  31.4  34170  289.75 0855.10
2009/04/23 11:14:15.9     133   -180    182    224    288 143.5  43.7  34170  289.75 0855.10
2009/04/23 11:14:16.0     290   -139    204    322    381 115.8  35.5  34172  289.77 0855.10
2009/04/23 11:14:16.1     299    -46    103    303    321  98.8  18.8  34168  289.71 0855.10
2009/04/23 11:14:16.2     272     73     52    282    287  75.0  10.6  34172  289.76 0855.10
2009/04/23 11:14:16.3     214     22    -11    216    217  83.9  -3.1  34168  289.72 0855.10
2009/04/23 11:14:16.4     130    -39    -76    136    155 106.9 -35.8  34170  289.75 0855.12
2009/04/23 11:14:16.5      67    -34    -56     76     94 117.1 -44.5  34174  289.80 0855.12
2009/04/23 11:14:16.6      30    -55     -8     63     64 151.1  -7.3  34174  289.80 0855.12
2009/04/23 11:14:16.7      -8    -60     19     61     64 188.0  17.3  34172  289.77 0855.12
2009/04/23 11:14:16.8      30   -104     13    109    110 163.5   6.9  34172  289.79 0855.12
2009/04/23 11:14:16.9       8   -163     44    164    170 177.1  15.0  34168  289.72 0855.12
2009/04/23 11:14:17.0      52   -138      9    148    149 159.1   3.8  34170  289.75 0855.12
2009/04/23 11:14:17.1      80    -49     70     94    117 121.5  40.1  34178  289.87 0855.12
2009/04/23 11:14:17.2      38    -84     78     93    121 155.5  44.3  34180  289.91 0855.12
2009/04/23 11:14:17.3      13   -181    116    182    215 175.8  35.6  34174  289.80 0855.12
2009/04/23 11:14:17.4       4   -219     80    220    234 178.9  20.9  34174  289.80 0855.12
2009/04/23 11:14:17.5      -8   -227    113    228    254 182.2  28.2  34174  289.80 0855.12
2009/04/23 11:14:17.6     -32   -302     53    304    309 186.2   9.9  34170  289.73 0855.12
2009/04/23 11:14:17.7     -92   -295     20    310    311 197.4   3.7  34168  289.71 0855.12
2009/04/23 11:14:17.8     -96   -203     12    225    226 205.5   3.3  34162  289.62 0855.12
2009/04/23 11:14:17.9    -109   -405    146    420    445 195.1  19.2  34164  289.65 0855.12
2009/04/23 11:14:18.0     129   -283    145    311    343 155.5  27.1  34162  289.59 0855.12
2009/04/23 11:14:18.1     300   -421     41    518    520 144.5   4.6  34160  289.57 0855.12
2009/04/23 11:14:18.2     258   -693    -23    740    741 159.6  -1.8  34152  289.43 0855.12
2009/04/23 11:14:18.3      47   -565     46    567    569 175.2   4.7  34166  289.66 0855.12
2009/04/23 11:14:18.4     -24   -538     28    539    540 182.6   3.0  34162  289.60 0855.13
2009/04/23 11:14:18.5     -77   -389    -72    397    404 191.2 -10.4  34156  289.52 0855.13
2009/04/23 11:14:18.6     102   -378    136    392    416 164.9  19.2  34156  289.49 0855.13
2009/04/23 11:14:18.7      64   -463    103    468    480 172.1  12.5  34168  289.71 0855.13
2009/04/23 11:14:18.8      52   -516   -139    519    538 174.2 -15.1  34182  289.96 0855.13
2009/04/23 11:14:18.9     -78   -354    -73    363    371 192.5 -11.5  34182  289.94 0855.13
2009/04/23 11:14:19.0     -41   -361   -144    364    391 186.6 -27.3  34172  289.79 0855.13
2009/04/23 11:14:19.1       0   -312    -96    313    327 180.0 -22.1  34180  289.90 0855.13
2009/04/23 11:14:19.2     -93   -421   -142    432    454 192.5 -23.6  34154  289.48 0855.13
2009/04/23 11:14:19.3    -195   -554   -183    588    616 199.4 -17.3  34164  289.63 0855.13
2009/04/23 11:14:19.4    -219   -658   -108    694    703 198.5  -8.9  34152  289.45 0855.13
2009/04/23 11:14:19.5    -216   -600   -211    638    672 199.8 -18.3  34152  289.43 0855.13
2009/04/23 11:14:19.6    -226   -555   -179    600    627 202.2 -16.6  34152  289.45 0855.13
2009/04/23 11:14:19.7    -145   -583   -108    601    611 194.0 -10.3  34166  289.66 0855.13
2009/04/23 11:14:19.8    -113   -460   -114    474    488 193.8 -13.6  34178  289.88 0855.13
2009/04/23 11:14:19.9    -284   -446   -147    529    550 212.5 -15.5  34144  289.31 0855.13
2009/04/23 11:14:20.0    -293   -524   -165    601    624 209.2 -15.4  34162  289.62 0855.13
2009/04/23 11:14:20.1    -256   -424   -142    496    515 211.2 -20.8  34162  289.61 0855.13
2009/04/23 11:14:20.2    -288   -288   -126    408    427 225.0 -22.3  34156  289.51 0855.13
2009/04/23 11:14:20.3    -308   -306    -62    435    440 225.2  -8.2  34158  289.53 0855.13
2009/04/23 11:14:20.4    -263   -329    -46    422    425 218.6  -6.3  34156  289.51 0855.15
2009/04/23 11:14:20.5    -192   -421   -155    463    489 204.5 -18.6  34150  289.40 0855.15
2009/04/23 11:14:20.6    -206   -400   -160    451    479 207.3 -19.6  34150  289.39 0855.15
2009/04/23 11:14:20.7    -347   -242   -160    424    453 235.1 -26.1  34144  289.31 0855.15
2009/04/23 11:14:20.8    -273   -148    -24    311    313 241.4  -4.5  34154  289.46 0855.15
2009/04/23 11:14:20.9    -245   -124    -49    275    280 243.1 -10.3  34146  289.32 0855.15
2009/04/23 11:14:21.0    -119   -123     97    172    197 223.9  31.9  34152  289.45 0855.15
2009/04/23 11:14:21.1    -186   -250    -29    312    314 216.7  -5.4  34146  289.32 0855.15
2009/04/23 11:14:21.2    -360   -337    -75    494    500 226.9  -8.7  34134  289.13 0855.15
2009/04/23 11:14:21.3    -331   -361    -27    490    491 222.5  -3.2  34138  289.20 0855.15
2009/04/23 11:14:21.4    -332   -370    -44    498    501 221.9  -5.1  34134  289.12 0855.15
2009/04/23 11:14:21.5    -346   -378    -12    513    514 222.4  -1.4  34134  289.13 0855.15
2009/04/23 11:14:21.6    -399   -375    -11    548    549 226.8  -1.2  34128  289.04 0855.15
2009/04/23 11:14:21.7    -437   -422     41    608    610 226.0   3.9  34130  289.05 0855.15
2009/04/23 11:14:21.8    -348   -529     92    634    641 213.3   8.3  34132  289.11 0855.15
2009/04/23 11:14:21.9    -337   -395     82    520    527 220.5   9.0  34124  288.96 0855.15
2009/04/23 11:14:22.0    -255   -309    107    401    416 219.5  15.0  34134  289.12 0855.15
2009/04/23 11:14:22.1    -282   -145     45    318    322 242.7   8.1  34130  289.05 0855.15
2009/04/23 11:14:22.2    -225   -281     -7    361    362 218.7  -1.2  34132  289.11 0855.15
2009/04/23 11:14:22.3    -214   -275     28    349    351 218.0   4.7  34130  289.06 0855.15
2009/04/23 11:14:22.4    -248   -290     14    382    383 220.6   2.1  34134  289.13 0855.17
2009/04/23 11:14:22.5    -217   -275    -57    351    356 218.3  -9.3  34132  289.11 0855.17
2009/04/23 11:14:22.6    -189   -299   -101    354    368 212.3 -20.7  34126  289.01 0855.17
2009/04/23 11:14:22.7    -155   -401    -54    431    435 201.2  -7.2  34126  288.99 0855.17
2009/04/23 11:14:22.8    -178   -472    -64    505    510 200.7  -7.3  34116  288.83 0855.17
2009/04/23 11:14:22.9    -189   -341    -64    390    396 209.0  -9.3  34122  288.93 0855.17
2009/04/23 11:14:23.0    -171   -380     -1    417    418 204.3  -0.3  34110  288.72 0855.17
2009/04/23 11:14:23.1    -118   -409     87    426    436 196.1  11.6  34122  288.92 0855.17
2009/04/23 11:14:23.2    -163   -366     -1    401    402 204.1  -0.2  34126  289.01 0855.17
2009/04/23 11:14:23.3    -222   -418    110    474    487 208.0  13.1  34126  289.00 0855.17
2009/04/23 11:14:23.4     -95   -395     -1    407    408 193.6  -0.3  34122  288.94 0855.17
2009/04/23 11:14:23.5    -195   -411    165    455    483 205.4  20.8  34122  288.93 0855.17
2009/04/23 11:14:23.6    -170   -330     -1    372    373 207.3  -0.2  34130  289.08 0855.17
2009/04/23 11:14:23.7    -373   -351     57    513    517 226.8   6.4  34124  288.95 0855.17
2009/04/23 11:14:23.8     -98   -181    151    206    255 208.5  39.7  34132  289.10 0855.17
2009/04/23 11:14:23.9    -118   -260     77    286    297 204.5  15.2  34128  289.02 0855.17
2009/04/23 11:14:24.0    -176   -212     53    276    282 219.6  11.0  34126  289.00 0855.17
2009/04/23 11:14:24.1     -97   -201    -17    224    225 205.9  -4.4  34132  289.09 0855.17
2009/04/23 11:14:24.2    -113   -205     65    235    245 209.0  15.6  34134  289.14 0855.17
2009/04/23 11:14:24.3    -101   -156     35    187    191 213.0  10.8  34132  289.11 0855.17
2009/04/23 11:14:24.4     -88   -152    -63    176    188 210.1 -19.7  34126  289.01 0855.18
2009/04/23 11:14:24.5     -68   -105    -59    126    139 213.0 -31.5  34128  289.04 0855.18
2009/04/23 11:14:24.6    -136     -3    -59    137    149 268.7 -29.5  34130  289.06 0855.18
2009/04/23 11:14:24.7    -115    -32    -58    120    133 254.5 -31.7  34134  289.13 0855.18
2009/04/23 11:14:24.8    -164    -77    -63    182    193 244.7 -19.1  34132  289.11 0855.18
2009/04/23 11:14:24.9     -58   -174    -10    184    185 198.7  -3.1  34130  289.06 0855.18
2009/04/23 11:14:25.0      71   -112    -67    133    148 147.5 -33.1  34128  289.02 0855.18
2009/04/23 11:14:25.1      37    -57    -74     69    101 146.6 -56.6  34132  289.11 0855.18
2009/04/23 11:14:25.2      67     31    -65     75     99  64.8 -49.8  34140  289.24 0855.18
2009/04/23 11:14:25.3      54     57    -71     79    106  43.2 -51.9  34136  289.18 0855.18
2009/04/23 11:14:25.4      96     35    -70    103    124  70.0 -41.8  34144  289.31 0855.18
2009/04/23 11:14:25.5     115     -8    -50    116    126  94.3 -29.5  34136  289.18 0855.18
2009/04/23 11:14:25.6     172    -43    -11    178    179 104.2  -3.7  34130  289.08 0855.18
2009/04/23 11:14:25.7     204    -74    -16    218    219 109.9  -4.4  34128  289.04 0855.18
2009/04/23 11:14:25.8     226   -129    -37    261    264 119.8  -8.2  34130  289.05 0855.18
2009/04/23 11:14:25.9     126   -276     36    304    307 155.5   6.9  34128  289.03 0855.18
2009/04/23 11:14:26.0      -4   -354     46    355    358 180.7   7.5  34126  288.99 0855.18
2009/04/23 11:14:26.1     -32   -351     32    353    355 185.4   5.2  34128  289.03 0855.18
2009/04/23 11:14:26.2       9   -377    -33    378    380 178.5  -5.1  34134  289.13 0855.18
2009/04/23 11:14:26.3      67   -387    -25    393    394 170.1  -3.7  34132  289.11 0855.18
2009/04/23 11:14:26.4     -29   -303    -50    305    310 185.6  -9.3  34140  289.22 0855.21
2009/04/23 11:14:26.5     133   -280     21    311    312 154.5   3.9  34138  289.19 0855.21
2009/04/23 11:14:26.6     147   -245     29    286    288 149.0   5.9  34128  289.03 0855.21
2009/04/23 11:14:26.7     102   -244     33    265    268 157.2   7.2  34126  289.00 0855.21
2009/04/23 11:14:26.8      92   -266     35    282    285 160.9   7.2  34126  289.00 0855.21
2009/04/23 11:14:26.9       8   -188     32    189    192 177.5   9.9  34130  289.08 0855.21
2009/04/23 11:14:27.0      40   -166     33    171    175 166.4  11.1  34136  289.18 0855.21
2009/04/23 11:14:27.1      12   -240      8    241    242 177.1   2.1  34140  289.22 0855.21
2009/04/23 11:14:27.2     -51   -228     68    234    244 192.7  16.3  34142  289.25 0855.21
2009/04/23 11:14:27.3     -42   -224     81    229    242 190.7  20.0  34144  289.29 0855.21
2009/04/23 11:14:27.4     -36   -257     66    260    269 188.0  14.3  34148  289.36 0855.21
2009/04/23 11:14:27.5       8   -214     65    215    225 177.8  16.8  34150  289.41 0855.21
2009/04/23 11:14:27.6     -72   -130    -41    149    155 209.0 -15.4  34148  289.38 0855.21
2009/04/23 11:14:27.7    -120   -119    -44    170    176 225.2 -14.7  34146  289.33 0855.21
2009/04/23 11:14:27.8    -105   -105      7    149    150 225.2   2.8  34146  289.33 0855.21
2009/04/23 11:14:27.9     -74    -90    -32    117    122 219.7 -15.4  34144  289.31 0855.21
2009/04/23 11:14:28.0    -127   -107    -62    167    178 229.8 -25.7  34142  289.28 0855.21
2009/04/23 11:14:28.1    -223   -120    -66    254    263 241.8 -14.7  34148  289.36 0855.21
2009/04/23 11:14:28.2    -185     -1     49    186    193 269.4  15.0  34156  289.52 0855.21
2009/04/23 11:14:28.3    -177    -16     18    178    179 264.5   5.9  34156  289.50 0855.21
2009/04/23 11:14:28.4    -200     12     73    201    213 273.5  20.7  34156  289.52 0855.21
2009/04/23 11:14:28.5    -331     36    -10    334    335 276.3  -1.8  34170  289.74 0855.21
2009/04/23 11:14:28.6    -354    -27   -113    355    373 265.6 -17.7  34192  290.10 0855.21
2009/04/23 11:14:28.7    -438   -145   -148    462    485 251.7 -22.9  34186  290.00 0855.21
2009/04/23 11:14:28.8    -398   -161   -167    430    461 247.9 -26.8  34176  289.85 0855.21
2009/04/23 11:14:28.9    -307   -119    -38    330    333 248.7  -6.7  34174  289.81 0855.21
2009/04/23 11:14:29.0    -221    -87   -125    238    268 248.3 -34.5  34176  289.85 0855.21
2009/04/23 11:14:29.1    -201   -227     15    304    305 221.4   2.9  34168  289.70 0855.21
2009/04/23 11:14:29.2    -277   -116     -6    301    302 247.2  -1.3  34182  289.93 0855.21
2009/04/23 11:14:29.3    -181   -120    -16    218    219 236.5  -4.4  34180  289.92 0855.21
2009/04/23 11:14:29.4       3   -146    -73    147    164 178.6 -32.9  34176  289.85 0855.23
2009/04/23 11:14:29.5      86    -80    -96    118    152 133.1 -48.1  34176  289.85 0855.23
2009/04/23 11:14:29.6     -17    -11   -160     21    161 237.6 -90.0  34186  290.01 0855.23
2009/04/23 11:14:29.7    -136     17   -144    138    199 277.5 -55.6  34184  289.97 0855.23
2009/04/23 11:14:29.8    -369     51   -206    373    426 277.9 -35.8  34164  289.63 0855.23
2009/04/23 11:14:29.9    -372    -73     49    380    384 258.8   7.5  34164  289.64 0855.23
2009/04/23 11:14:30.0    -301   -166    191    344    393 241.1  31.4  34172  289.76 0855.23
2009/04/23 11:14:30.1    -268    -37    145    271    307 262.1  30.6  34180  289.92 0855.23
2009/04/23 11:14:30.2    -297     60    140    303    333 281.5  26.5  34180  289.90 0855.23
2009/04/23 11:14:30.3    -286     13     53    287    292 272.6  10.6  34170  289.73 0855.23
2009/04/23 11:14:30.4    -269   -101     67    288    296 249.4  13.1  34158  289.54 0855.23
2009/04/23 11:14:30.5    -344   -135     67    370    377 248.6  10.4  34146  289.33 0855.23
2009/04/23 11:14:30.6    -518   -105     23    529    530 258.5   2.5  34146  289.35 0855.23
2009/04/23 11:14:30.7    -440   -113     19    455    456 255.6   2.5  34146  289.34 0855.23
2009/04/23 11:14:30.8    -370    -64    -17    376    377 260.1  -2.6  34160  289.57 0855.23
2009/04/23 11:14:30.9    -314    -43     55    317    322 262.1   9.9  34158  289.53 0855.23
2009/04/23 11:14:31.0    -348   -140     11    376    377 248.0   1.8  34156  289.50 0855.23
2009/04/23 11:14:31.1    -321   -145    100    353    368 245.7  15.9  34152  289.42 0855.23
2009/04/23 11:14:31.2    -195    -16    -42    196    201 265.2 -12.2  34158  289.55 0855.23
2009/04/23 11:14:31.3    -272    -55    -97    278    294 258.5 -24.3  34152  289.44 0855.23
2009/04/23 11:14:31.4    -302   -130   -144    329    359 246.7 -29.5  34132  289.11 0855.24
2009/04/23 11:14:31.5    -374    -63   -111    380    395 260.4 -21.1  34162  289.60 0855.24
2009/04/23 11:14:31.6    -256   -173   -127    310    335 235.9 -27.9  34170  289.73 0855.24
2009/04/23 11:14:31.7    -203   -186   -130    276    305 227.6 -31.5  34144  289.31 0855.24
2009/04/23 11:14:31.8    -253   -155   -106    297    316 238.5 -19.8  34154  289.46 0855.24
2009/04/23 11:14:31.9    -304   -169    -97    349    363 240.9 -15.5  34140  289.23 0855.24
2009/04/23 11:14:32.0    -352   -106   -104    368    382 253.2 -20.4  34148  289.37 0855.24
2009/04/23 11:14:32.1    -306    -54    -85    311    322 259.9 -20.0  34168  289.70 0855.24
2009/04/23 11:14:32.2    -235    -86   -135    251    285 249.8 -34.7  34168  289.70 0855.24
2009/04/23 11:14:32.3    -306   -238   -137    388    412 232.1 -19.5  34132  289.11 0855.24
2009/04/23 11:14:32.4    -238    -95    -70    257    267 248.2 -15.4  34136  289.17 0855.24
2009/04/23 11:14:32.5    -264    -53   -103    270    288 258.5 -26.1  34168  289.71 0855.24
2009/04/23 11:14:32.6    -236   -105    -73    259    269 246.0 -20.7  34168  289.71 0855.24
2009/04/23 11:14:32.7    -279    -93    -75    295    305 251.4 -14.4  34154  289.46 0855.24
2009/04/23 11:14:32.8    -341   -243    -90    419    429 234.5 -12.2  34134  289.14 0855.24
2009/04/23 11:14:32.9    -340   -168   -153    380    409 243.6 -27.4  34142  289.28 0855.24
2009/04/23 11:14:33.0    -360   -229   -118    428    445 237.5 -15.4  34146  289.34 0855.24
2009/04/23 11:14:33.1    -408   -167   -131    442    461 247.7 -21.5  34156  289.51 0855.24
2009/04/23 11:14:33.2    -445   -132   -165    465    494 253.5 -19.6  34160  289.56 0855.24
2009/04/23 11:14:33.3    -483    -55   -119    487    502 263.4 -13.8  34156  289.52 0855.24
2009/04/23 11:14:33.4    -441   -124   -112    459    473 254.2 -13.8  34160  289.57 0855.25
2009/04/23 11:14:33.5    -440   -207    -89    487    496 244.8 -10.4  34162  289.62 0855.25
2009/04/23 11:14:33.6    -223   -245    137    332    359 222.4  23.6  34156  289.50 0855.25
2009/04/23 11:14:33.7    -108   -176     93    207    226 211.6  25.9  34144  289.31 0855.25
2009/04/23 11:14:33.8     -37   -344    150    347    378 186.3  24.9  34144  289.30 0855.25
2009/04/23 11:14:33.9     -40   -384    147    387    413 186.0  22.0  34150  289.41 0855.25
2009/04/23 11:14:34.0     107    -51    197    119    230 115.4  66.0  34164  289.63 0855.25
2009/04/23 11:14:34.1       3    -80    140     81    161 177.3  67.5  34172  289.77 0855.25
2009/04/23 11:14:34.2      28     52    143     60    155  28.1  76.6  34174  289.80 0855.25
2009/04/23 11:14:34.3     -25      2     77     26     81 276.1  81.0  34172  289.79 0855.25
2009/04/23 11:14:34.4     -62     34      6     71     72 298.9   4.9  34166  289.67 0855.25
2009/04/23 11:14:34.5      36    109     72    115    135  18.3  35.5  34164  289.65 0855.25
2009/04/23 11:14:34.6     -11    143    109    144    180 355.5  40.9  34166  289.69 0855.25
2009/04/23 11:14:34.7      57    170     95    180    203  18.7  30.1  34166  289.69 0855.25
2009/04/23 11:14:34.8      55     18     90     59    107  71.4  64.6  34170  289.74 0855.25
2009/04/23 11:14:34.9     154    -22    116    156    194  98.4  40.1  34160  289.58 0855.25
2009/04/23 11:14:35.0     113    -12    120    114    165  96.1  51.4  34160  289.58 0855.25
2009/04/23 11:14:35.1      60   -174    107    185    213 160.8  33.1  34148  289.38 0855.25
2009/04/23 11:14:35.2     188    -53    130    196    235 105.9  37.0  34150  289.41 0855.25
2009/04/23 11:14:35.3      89    -56    130    106    167 122.0  56.4  34156  289.52 0855.25
2009/04/23 11:14:35.4     -31   -252    271    254    371 187.1  52.2  34152  289.42 0855.25
2009/04/23 11:14:35.5     -24   -221    228    223    318 186.2  50.7  34156  289.49 0855.25
2009/04/23 11:14:35.6     -82   -227    209    242    319 200.0  45.4  34156  289.51 0855.25
2009/04/23 11:14:35.7      31   -251    154    253    296 172.9  34.2  34148  289.36 0855.25
2009/04/23 11:14:35.8      20   -228    115    229    256 174.9  28.5  34136  289.15 0855.25
2009/04/23 11:14:35.9      41   -182    131    187    228 167.3  38.6  34144  289.31 0855.25
2009/04/23 11:14:36.0      -3   -117    176    118    211 181.8  63.2  34158  289.53 0855.25
2009/04/23 11:14:36.1       7    -58    133     59    145 172.9  74.9  34164  289.63 0855.25
2009/04/23 11:14:36.2     -10   -108    125    109    165 185.3  54.6  34146  289.35 0855.25
2009/04/23 11:14:36.3      21   -153    151    155    216 172.0  49.2  34150  289.41 0855.25
2009/04/23 11:14:36.4     -66   -193    179    205    272 198.9  45.8  34138  289.19 0855.25
2009/04/23 11:14:36.5     -25   -183    206    185    276 187.8  53.5  34136  289.15 0855.25
2009/04/23 11:14:36.6      -1   -112    167    113    201 180.9  62.7  34138  289.21 0855.25
2009/04/23 11:14:36.7     -77   -145    124    165    206 207.9  40.9  34128  289.04 0855.25
2009/04/23 11:14:36.8     -68   -169    164    183    245 201.8  46.4  34132  289.11 0855.25
2009/04/23 11:14:36.9     -37   -153     93    158    183 193.8  33.5  34136  289.16 0855.25
2009/04/23 11:14:37.0     -60   -124    158    138    209 205.9  54.3  34144  289.31 0855.25
2009/04/23 11:14:37.1     -28   -174    168    177    244 189.3  48.7  34138  289.19 0855.25
2009/04/23 11:14:37.2     -74   -204    195    218    292 200.1  46.4  34144  289.29 0855.25
2009/04/23 11:14:37.3     -84   -208    181    225    288 202.1  43.0  34136  289.17 0855.25
2009/04/23 11:14:37.4     -95   -236    222    255    338 202.1  45.5  34140  289.22 0855.25
2009/04/23 11:14:37.5    -218   -166    138    275    307 232.7  28.5  34134  289.14 0855.25
2009/04/23 11:14:37.6    -115   -126     41    171    176 222.5  13.5  34136  289.16 0855.25
2009/04/23 11:14:37.7       2      7     55      8     55  18.7  90.0  34138  289.19 0855.25
2009/04/23 11:14:37.8     -67    -67     58     95    111 225.0  35.0  34144  289.30 0855.25
2009/04/23 11:14:37.9    -140   -285    166    318    358 206.3  29.6  34144  289.30 0855.25
2009/04/23 11:14:38.0    -267   -282     40    389    392 223.5   5.9  34200  290.25 0855.25
2009/04/23 11:14:38.1    -328   -238    -42    406    409 234.1  -6.0  34188  290.05 0855.25
2009/04/23 11:14:38.2    -333   -233    -38    407    409 234.9  -5.4  34194  290.16 0855.25
2009/04/23 11:14:38.3    -372   -158    -47    405    408 246.9  -6.7  34212  290.46 0855.25
2009/04/23 11:14:38.4    -429   -124    -90    447    457 253.8 -11.5  34190  290.09 0855.25
2009/04/23 11:14:38.5    -410   -187    -17    451    452 245.5  -2.2  34198  290.21 0855.25
2009/04/23 11:14:38.6    -495    -93   -146    504    525 259.3 -16.2  34178  289.89 0855.25
2009/04/23 11:14:38.7    -542   -204   -204    580    614 249.3 -24.5  34166  289.68 0855.25
2009/04/23 11:14:38.8    -499   -117   -224    513    559 256.8 -29.5  34138  289.19 0855.25
2009/04/23 11:14:38.9    -502    -93   -126    511    527 259.5 -13.9  34148  289.38 0855.25
2009/04/23 11:14:39.0    -434   -160   -124    463    480 249.7 -15.0  34172  289.78 0855.25
2009/04/23 11:14:39.2    -383   -112   -144    400    426 253.6 -19.8  34182  289.95 0855.25
2009/04/23 11:14:39.3    -390     61   -141    395    420 278.9 -19.7  34156  289.51 0855.25
2009/04/23 11:14:39.4    -353    -71    -32    361    363 258.5  -5.1  34176  289.84 0855.25
2009/04/23 11:14:39.5    -476     20    -19    477    478 272.5  -2.3  34186  290.01 0855.22
2009/04/23 11:14:39.6    -575     30   -188    576    606 273.0 -18.1  34150  289.41 0855.22
2009/04/23 11:14:39.7    -455     29   -154    456    481 273.7 -23.8  34192  290.12 0855.22
2009/04/23 11:14:39.8    -516     -8    -80    517    524 269.1  -8.8  34186  290.02 0855.22
2009/04/23 11:14:39.9    -510     15    -67    511    516 271.7  -7.5  34188  290.05 0855.22
2009/04/23 11:14:40.0    -597     74    -56    602    605 277.1  -5.4  34186  290.00 0855.22
2009/04/23 11:14:40.1    -375     -5   -229    376    440 269.1 -38.7  34160  289.58 0855.22
2009/04/23 11:14:40.2    -357    -52   -117    361    379 261.7 -23.3  34152  289.43 0855.22
2009/04/23 11:14:40.3    -384    -66   -123    390    409 260.1 -17.5  34174  289.82 0855.22
2009/04/23 11:14:40.4    -384   -147   -138    412    435 249.0 -18.6  34160  289.58 0855.22
2009/04/23 11:14:40.5    -388   -108   -143    403    428 254.3 -19.6  34150  289.39 0855.22
2009/04/23 11:14:40.6    -357   -145   -155    386    415 247.8 -27.4  34162  289.61 0855.22
2009/04/23 11:14:40.7    -321   -131   -119    347    367 247.8 -19.0  34154  289.48 0855.22
2009/04/23 11:14:40.8    -227    -83   -125    242    272 249.8 -33.7  34150  289.39 0855.22
2009/04/23 11:14:40.9    -218   -123   -114    251    275 240.5 -30.6  34162  289.61 0855.22
2009/04/23 11:14:41.0    -270    -12   -133    271    301 267.4 -32.6  34174  289.80 0855.22
2009/04/23 11:14:41.1    -222    -17   -179    223    285 265.4 -47.4  34154  289.46 0855.22
2009/04/23 11:14:41.2    -189   -113   -211    221    305 239.1 -52.9  34164  289.63 0855.22
2009/04/23 11:14:41.3    -395   -277   -108    483    496 235.0 -12.7  34168  289.71 0855.22
2009/04/23 11:14:41.4    -281    -85   -131    294    321 253.1 -30.0  34160  289.58 0855.22
2009/04/23 11:14:41.5    -282   -141    -60    316    322 243.4 -10.8  34174  289.81 0855.21
2009/04/23 11:14:41.6    -264    -20     12    265    266 265.7   2.8  34170  289.73 0855.21
2009/04/23 11:14:41.7    -111    -90    -94    144    171 230.9 -40.4  34184  289.99 0855.21
2009/04/23 11:14:41.8    -116   -136   -112    180    212 220.5 -39.9  34196  290.19 0855.21
2009/04/23 11:14:41.9    -116    -42    -74    124    144 250.0 -38.4  34194  290.14 0855.21
2009/04/23 11:14:42.0    -123   -129     -9    179    180 223.7  -3.1  34192  290.13 0855.21
2009/04/23 11:14:42.1    -105   -106     23    150    152 224.5   9.0  34196  290.19 0855.21
2009/04/23 11:14:42.2    -218    -33    -78    221    235 261.4 -19.6  34198  290.23 0855.21
2009/04/23 11:14:42.3    -173     12    -97    174    199 274.3 -35.8  34196  290.19 0855.21
2009/04/23 11:14:42.4    -138    -74    -73    157    173 241.6 -31.0  34198  290.23 0855.21
2009/04/23 11:14:42.5    -114    -73   -123    136    183 237.5 -51.5  34186  290.01 0855.21
2009/04/23 11:14:42.6    -221    -80   -113    236    261 250.1 -31.7  34190  290.09 0855.21
2009/04/23 11:14:42.7    -185    -52    -69    193    204 254.1 -24.6  34204  290.33 0855.21
2009/04/23 11:14:42.8    -150    -11   -144    151    208 265.6 -53.1  34186  290.01 0855.21
2009/04/23 11:14:42.9    -215    -16   -141    216    257 265.6 -40.7  34190  290.07 0855.21
2009/04/23 11:14:43.0     -78    -49   -170     93    193 237.5 -73.3  34182  289.94 0855.21
2009/04/23 11:14:43.1    -184    -98   -146    209    254 241.8 -43.0  34190  290.09 0855.21
2009/04/23 11:14:43.2    -117   -134   -110    179    210 221.2 -39.2  34186  290.01 0855.21
2009/04/23 11:14:43.3    -243   -130   -214    276    349 241.8 -46.3  34172  289.76 0855.21
2009/04/23 11:14:43.4    -211   -140   -230    254    342 236.3 -51.3  34160  289.58 0855.21
2009/04/23 11:14:43.5     -50   -183   -253    190    316 195.4 -63.8  34158  289.53 0855.19
2009/04/23 11:14:43.6      36   -226   -220    229    317 170.9 -53.2  34148  289.36 0855.19
2009/04/23 11:14:43.7     103   -237   -234    259    349 156.4 -51.2  34150  289.41 0855.19
2009/04/23 11:14:43.8     217   -265   -239    343    418 140.7 -42.8  34152  289.43 0855.19
2009/04/23 11:14:43.9      76   -231   -173    244    299 161.7 -43.2  34164  289.63 0855.19
2009/04/23 11:14:44.0     131   -157   -187    205    277 140.1 -51.5  34162  289.61 0855.19
2009/04/23 11:14:44.1     -97   -168   -239    195    308 210.1 -60.8  34162  289.61 0855.19
2009/04/23 11:14:44.2     -35    -35   -255     50    259 225.1 -90.0  34184  289.99 0855.19
2009/04/23 11:14:44.3    -269   -140   -375    304    482 242.5 -61.3  34174  289.82 0855.19
2009/04/23 11:14:44.4    -229   -166   -227    283    362 234.1 -47.4  34176  289.84 0855.19
2009/04/23 11:14:44.5    -160   -136   -183    211    279 229.6 -50.0  34174  289.81 0855.19
2009/04/23 11:14:44.6    -194    -76   -193    209    284 248.5 -52.1  34188  290.05 0855.19
2009/04/23 11:14:44.7    -242   -138   -143    279    313 240.2 -33.7  34178  289.88 0855.19
2009/04/23 11:14:44.8    -174    -93   -181    198    268 241.8 -51.9  34184  289.97 0855.19
2009/04/23 11:14:44.9    -118   -165   -139    203    246 215.6 -42.0  34170  289.75 0855.19
2009/04/23 11:14:45.0    -144   -103   -156    178    236 234.5 -50.2  34182  289.96 0855.19
2009/04/23 11:14:45.1    -160   -184    -96    245    263 221.0 -26.9  34184  289.97 0855.19
2009/04/23 11:14:45.2    -157   -174    -93    235    252 221.9 -27.2  34174  289.80 0855.19
2009/04/23 11:14:45.3    -174   -135    -61    221    230 232.2 -15.5  34188  290.04 0855.19
2009/04/23 11:14:45.4    -144   -186   -104    236    257 217.8 -29.6  34162  289.59 0855.19
2009/04/23 11:14:45.5    -112   -281    -98    303    318 201.8 -22.9  34152  289.42 0855.19
2009/04/23 11:14:45.6    -124   -283    -97    310    324 203.7 -22.4  34136  289.15 0855.19
2009/04/23 11:14:45.7    -135   -285    -80    316    327 205.3 -14.3  34152  289.44 0855.19
2009/04/23 11:14:45.8    -156   -223    -75    273    284 215.0 -15.4  34154  289.47 0855.19
2009/04/23 11:14:45.9    -182   -134    -82    227    241 233.6 -24.8  34142  289.25 0855.19
2009/04/23 11:14:46.0    -172   -125   -116    213    242 234.0 -35.4  34144  289.31 0855.19
2009/04/23 11:14:46.1     -96   -109   -129    146    194 221.4 -50.6  34144  289.30 0855.19
2009/04/23 11:14:46.2     -98   -104   -131    144    194 223.2 -51.5  34138  289.21 0855.19
2009/04/23 11:14:46.3     -73   -167   -126    183    222 203.8 -42.0  34136  289.18 0855.19
2009/04/23 11:14:46.4    -129   -198   -142    237    276 213.2 -37.9  34148  289.36 0855.19
2009/04/23 11:14:46.5    -172   -162   -107    237    260 226.9 -30.6  34162  289.61 0855.19
2009/04/23 11:14:46.6     -33   -195    -90    198    217 189.6 -30.6  34160  289.57 0855.19
2009/04/23 11:14:46.7       3   -220    -61    221    229 179.1 -20.0  34148  289.38 0855.19
2009/04/23 11:14:46.8      10   -239    -66    240    250 177.4 -15.5  34150  289.41 0855.19
2009/04/23 11:14:46.9     -36   -207   -101    211    233 190.0 -31.7  34148  289.38 0855.19
2009/04/23 11:14:47.0       3   -225   -161    226    277 179.1 -43.5  34142  289.27 0855.19
2009/04/23 11:14:47.1     -76   -120   -164    143    217 212.5 -58.7  34154  289.48 0855.19
2009/04/23 11:14:47.2    -170   -199   -214    262    338 220.5 -47.9  34158  289.54 0855.19
2009/04/23 11:14:47.3     -72   -117   -173    138    221 211.6 -61.9  34160  289.57 0855.19
2009/04/23 11:14:47.4     -52   -129    -95    140    169 201.9 -41.7  34162  289.62 0855.19
2009/04/23 11:14:47.5     -63   -123    -61    139    151 207.2 -29.6  34164  289.63 0855.17
2009/04/23 11:14:47.6     -85    -22    -87     88    123 255.4 -54.4  34182  289.94 0855.17
2009/04/23 11:14:47.7    -199   -133   -132    240    273 236.3 -35.7  34190  290.07 0855.17
2009/04/23 11:14:47.8    -177   -220   -139    283    315 218.7 -32.5  34152  289.42 0855.17
2009/04/23 11:14:47.9    -135   -202   -129    244    276 213.8 -34.5  34160  289.56 0855.17
2009/04/23 11:14:48.0    -113   -140   -109    181    211 219.0 -38.6  34152  289.43 0855.17
2009/04/23 11:14:48.1    -135   -124    -90    184    204 227.6 -32.4  34146  289.35 0855.17
2009/04/23 11:14:48.2    -172    -64    -87    184    203 249.4 -31.6  34150  289.40 0855.17
2009/04/23 11:14:48.3    -219   -104   -101    243    263 244.6 -28.2  34158  289.54 0855.17
2009/04/23 11:14:48.4    -196    -86    -93    215    234 246.3 -29.5  34164  289.65 0855.17
2009/04/23 11:14:48.5    -159   -164   -215    229    314 224.1 -52.6  34148  289.37 0855.14
2009/04/23 11:14:48.6    -233   -132   -192    268    329 240.5 -43.5  34152  289.42 0855.14
2009/04/23 11:14:48.7    -155    -74   -172    172    243 244.5 -54.5  34150  289.40 0855.14
2009/04/23 11:14:48.8    -220    -55   -167    227    281 255.8 -44.1  34148  289.37 0855.14
2009/04/23 11:14:48.9    -266    -54   -146    272    308 258.5 -35.0  34150  289.39 0855.14
2009/04/23 11:14:49.0    -235    -85   -187    251    313 250.0 -45.0  34150  289.41 0855.14
2009/04/23 11:14:49.1    -189    -69   -165    202    260 250.0 -48.1  34152  289.42 0855.14
2009/04/23 11:14:49.2    -212    -38   -181    216    281 259.6 -48.7  34148  289.37 0855.14
2009/04/23 11:14:49.3    -219    -87   -148    236    278 248.3 -39.6  34154  289.46 0855.14
2009/04/23 11:14:49.4    -167   -125   -151    209    257 233.1 -43.9  34150  289.41 0855.14
2009/04/23 11:14:49.5    -118   -111   -148    163    220 226.9 -51.5  34144  289.31 0855.14
2009/04/23 11:14:49.6    -161    -93   -180    187    259 240.0 -53.4  34150  289.41 0855.14
2009/04/23 11:14:49.7    -117   -130   -156    176    235 221.9 -50.6  34150  289.41 0855.14
2009/04/23 11:14:49.8     -93   -107   -169    143    221 221.0 -60.0  34146  289.35 0855.14
2009/04/23 11:14:49.9     -71    -82   -171    109    202 221.0 -69.0  34146  289.35 0855.14
2009/04/23 11:14:50.0    -168    -65   -162    181    242 248.9 -51.0  34142  289.28 0855.14
2009/04/23 11:14:50.1    -133    -72   -155    152    217 241.6 -55.1  34146  289.35 0855.14
2009/04/23 11:14:50.2    -137    -54   -126    148    194 248.3 -48.9  34146  289.35 0855.14
2009/04/23 11:14:50.3    -123    -68   -119    141    184 241.2 -48.9  34146  289.35 0855.14
2009/04/23 11:14:50.4     -92    -70   -108    116    158 232.7 -52.3  34144  289.31 0855.14
2009/04/23 11:14:50.5     -70    -56   -107     90    139 231.4 -60.7  34150  289.40 0855.15
2009/04/23 11:14:50.6     -80    -85   -118    117    166 223.3 -54.3  34148  289.36 0855.15
2009/04/23 11:14:50.7    -157    -78    -75    176    191 243.4 -28.7  34148  289.38 0855.15
2009/04/23 11:14:50.8    -142   -117    -59    184    193 230.5 -23.3  34148  289.36 0855.15
2009/04/23 11:14:50.9    -137   -116    -83    180    198 229.8 -30.8  34146  289.35 0855.15
2009/04/23 11:14:51.0    -117   -133    -99    178    203 221.4 -35.8  34144  289.31 0855.15
2009/04/23 11:14:51.1     -70   -149   -115    165    201 205.2 -42.8  34144  289.31 0855.15
2009/04/23 11:14:51.2     -18   -186   -149    187    239 185.8 -47.1  34146  289.35 0855.15
2009/04/23 11:14:51.3     -58   -204   -123    213    245 196.0 -37.1  34142  289.27 0855.15
2009/04/23 11:14:51.4     -51   -175   -109    183    213 196.3 -38.1  34144  289.31 0855.15
2009/04/23 11:14:51.5     -12   -110   -107    111    154 186.2 -53.8  34146  289.35 0855.15
2009/04/23 11:14:51.6     -14   -123   -123    124    174 186.7 -54.9  34146  289.33 0855.15
2009/04/23 11:14:51.7     -32    -97   -113    103    152 198.3 -56.6  34142  289.26 0855.15
2009/04/23 11:14:51.8     -42    -13   -137     45    144 252.3 -85.1  34152  289.45 0855.15
2009/04/23 11:14:51.9     -71    -19   -148     74    165 255.0 -75.8  34156  289.50 0855.15
2009/04/23 11:14:52.0    -112     12   -186    113    217 276.6 -70.4  34160  289.58 0855.15
2009/04/23 11:14:52.1    -154    -31   -262    158    305 258.5 -70.6  34156  289.49 0855.15
2009/04/23 11:14:52.2    -266    -74   -276    277    391 254.5 -54.4  34158  289.55 0855.15
2009/04/23 11:14:52.3    -227    -99   -227    248    336 246.3 -51.7  34148  289.37 0855.15
2009/04/23 11:14:52.4    -162   -161   -263    229    348 225.1 -59.1  34148  289.37 0855.15
2009/04/23 11:14:52.5    -110   -194   -289    224    365 209.6 -62.9  34152  289.44 0855.17
2009/04/23 11:14:52.6     -15    -71   -270     73    279 192.5 -89.2  34154  289.47 0855.17
2009/04/23 11:14:52.7     -36    -29   -280     47    283 231.4 -90.0  34150  289.39 0855.17
2009/04/23 11:14:52.8     -53   -225   -358    232    426 193.3 -68.7  34162  289.60 0855.17
2009/04/23 11:14:52.9     -28   -366   -355    368    511 184.5 -53.4  34152  289.42 0855.17
2009/04/23 11:14:53.0    -365   -326   -267    490    558 228.2 -35.3  34160  289.57 0855.17
2009/04/23 11:14:53.1    -304   -421   -241    520    573 215.9 -31.0  34158  289.55 0855.17
2009/04/23 11:14:53.2    -317   -449   -289    550    621 215.2 -34.4  34164  289.64 0855.17
2009/04/23 11:14:53.3    -151   -468   -248    492    550 197.9 -33.2  34164  289.63 0855.17
2009/04/23 11:14:53.4    -283   -530   -125    601    615 208.1 -11.8  34162  289.61 0855.17
2009/04/23 11:14:53.5    -102   -511      7    522    523 191.4   0.8  34152  289.43 0855.17
2009/04/23 11:14:53.6    -182   -661    -48    686    688 195.4  -4.0  34170  289.75 0855.17
2009/04/23 11:14:53.7     -72   -508    109    514    526 188.1  12.0  34148  289.38 0855.17
2009/04/23 11:14:53.8     -36   -419    137    421    443 185.0  18.0  34144  289.29 0855.17
2009/04/23 11:14:53.9    -123   -458    124    475    491 195.1  14.7  34152  289.44 0855.17
2009/04/23 11:14:54.0    -208   -362    116    418    435 209.9  15.6  34164  289.65 0855.17
2009/04/23 11:14:54.1    -226   -420     62    477    481 208.3   7.4  34160  289.56 0855.17
2009/04/23 11:14:54.2    -109   -431     55    445    449 194.3   7.1  34166  289.68 0855.17
2009/04/23 11:14:54.3     -94   -430     63    441    446 192.4   8.2  34166  289.66 0855.17
2009/04/23 11:14:54.4     -66   -410    129    416    436 189.2  17.3  34166  289.68 0855.17
2009/04/23 11:14:54.5    -109   -463    168    476    504 193.3  20.2  34162  289.61 0855.18
2009/04/23 11:14:54.6    -161   -368    117    402    419 203.7  16.3  34160  289.56 0855.18
2009/04/23 11:14:54.7    -148   -360     39    390    393 202.4   5.8  34152  289.43 0855.18
2009/04/23 11:14:54.8     -93   -413      2    424    425 192.8   0.4  34160  289.58 0855.18
2009/04/23 11:14:54.9     -61   -318    105    324    341 190.9  18.0  34152  289.45 0855.18
2009/04/23 11:14:55.0      21   -273     23    274    276 175.5   5.0  34158  289.53 0855.18
2009/04/23 11:14:55.1      88   -309     44    322    326 164.0   7.9  34170  289.73 0855.18
2009/04/23 11:14:55.2      68   -193     -9    205    206 160.6  -2.6  34170  289.74 0855.18
2009/04/23 11:14:55.3     -48    -31   -133     58    145 237.5 -79.4  34174  289.80 0855.18
2009/04/23 11:14:55.4     134     48    -94    143    171  70.0 -40.7  34166  289.69 0855.18
2009/04/23 11:14:55.5     305    147    -73    339    347  64.2 -12.3  34162  289.59 0855.18
2009/04/23 11:14:55.6     272    108     57    293    299  68.3  11.0  34166  289.68 0855.18
2009/04/23 11:14:55.7     216     71    -48    228    234  71.8 -11.9  34168  289.72 0855.18
2009/04/23 11:14:55.8     167     38     60    172    183  77.0  19.2  34162  289.62 0855.18
2009/04/23 11:14:55.9      97    152    -13    181    182  32.5  -4.1  34162  289.60 0855.18
2009/04/23 11:14:56.0     130    158    -15    205    206  39.4  -4.4  34160  289.57 0855.18
2009/04/23 11:14:56.1     117    184    -44    219    224  32.5 -11.6  34160  289.57 0855.18
2009/04/23 11:14:56.2      78    169    -54    187    194  24.7 -21.0  34162  289.60 0855.18
2009/04/23 11:14:56.3     103    168    -54    198    206  31.6 -15.4  34160  289.57 0855.18
2009/04/23 11:14:56.4       3    107     13    108    109   1.8   6.9  34160  289.58 0855.18
2009/04/23 11:14:56.5     -83     68     13    108    109 309.5   7.1  34158  289.53 0855.16
2009/04/23 11:14:56.6     -87     22     33     90     95 284.2  20.4  34166  289.67 0855.16
2009/04/23 11:14:56.7    -109    -17     22    111    114 261.2  11.6  34172  289.79 0855.16
2009/04/23 11:14:56.8     -86     73     44    114    122 310.4  22.0  34166  289.67 0855.16
2009/04/23 11:14:56.9     -96    120     93    154    179 321.3  34.0  34170  289.74 0855.16
2009/04/23 11:14:57.0    -167     48     66    174    186 286.2  22.0  34190  290.09 0855.16
2009/04/23 11:14:57.1    -153     67     40    168    173 293.7  13.5  34190  290.09 0855.16
2009/04/23 11:14:57.2    -172     -7     62    173    183 267.6  20.2  34188  290.06 0855.16
2009/04/23 11:14:57.3    -109     39    106    116    157 290.0  47.5  34190  290.08 0855.16
2009/04/23 11:14:57.4    -136    -66     -8    152    153 244.2  -3.2  34188  290.06 0855.16
2009/04/23 11:14:57.5     -86    -99    -69    132    148 221.0 -33.7  34180  289.92 0855.16
2009/04/23 11:14:57.6     -65    -30    -19     72     75 244.8 -15.4  34204  290.33 0855.16
2009/04/23 11:14:57.7     -82     29     72     87    112 289.5  43.8  34200  290.25 0855.16
2009/04/23 11:14:57.8    -155    -71     55    171    180 245.2  17.9  34204  290.31 0855.16
2009/04/23 11:14:57.9    -130    -79    -52    153    162 238.5 -18.9  34188  290.04 0855.16
2009/04/23 11:14:58.0    -173    -86    -69    194    207 243.6 -19.7  34188  290.06 0855.16
2009/04/23 11:14:58.1    -229    -46      2    234    235 258.5   0.7  34218  290.54 0855.16
2009/04/23 11:14:58.2    -162     -4     56    163    173 268.3  19.2  34214  290.48 0855.16
2009/04/23 11:14:58.3    -117   -106    -50    159    166 227.8 -22.5  34192  290.13 0855.16
2009/04/23 11:14:58.4    -171    -21    -44    173    179 262.8 -14.5  34198  290.21 0855.16
2009/04/23 11:14:58.5    -147    -61     22    160    162 247.4   8.0  34202  290.30 0855.18
2009/04/23 11:14:58.6    -147    -86    -14    171    172 239.8  -4.9  34192  290.13 0855.18
2009/04/23 11:14:58.7    -130   -155    -31    203    206 219.9  -8.8  34180  289.91 0855.18
2009/04/23 11:14:58.8    -107    -88      6    139    140 230.4   2.8  34172  289.77 0855.18
2009/04/23 11:14:58.9    -109    -79     17    135    137 234.1   7.5  34186  290.02 0855.18
2009/04/23 11:14:59.0    -112   -112     20    159    161 225.1   7.2  34178  289.89 0855.18
2009/04/23 11:14:59.1    -217    -60    -81    226    241 254.5 -19.7  34168  289.70 0855.18
2009/04/23 11:14:59.2    -233     -6    -96    234    252 268.3 -28.0  34156  289.49 0855.18
2009/04/23 11:14:59.3    -171      8    -75    172    187 272.8 -29.5  34154  289.48 0855.18
2009/04/23 11:14:59.4    -167    -12    -21    168    170 265.6  -7.3  34166  289.69 0855.18
2009/04/23 11:14:59.5     -88    -15    -12     90     91 259.9  -7.7  34166  289.67 0855.18
2009/04/23 11:14:59.6     -19    -69     28     72     77 196.0  22.0  34180  289.91 0855.18
2009/04/23 11:14:59.7      -1    -72     59     73     93 180.9  43.7  34180  289.91 0855.18
2009/04/23 11:14:59.8      -5   -152     48    153    161 182.2  17.7  34170  289.75 0855.18
2009/04/23 11:14:59.9      25   -121     50    124    133 168.0  23.0  34172  289.79 0855.18
2009/04/23 11:15:00.0      32   -157    114    161    197 168.4  38.8  34166  289.67 0855.18
2009/04/23 11:15:00.1      19   -134    135    136    191 171.9  50.2  34174  289.82 0855.18
2009/04/23 11:15:00.2      32   -170    127    174    215 169.3  39.7  34176  289.84 0855.18
2009/04/23 11:15:00.3       4   -182    101    183    209 178.6  31.4  34174  289.82 0855.18
2009/04/23 11:15:00.4     -31   -199     39    202    206 189.1  11.1  34168  289.70 0855.18
2009/04/23 11:15:00.5     -55   -229     45    236    241 193.6  11.0  34166  289.66 0855.18
2009/04/23 11:15:00.6     -59   -229     68    237    247 194.5  16.0  34168  289.70 0855.18
2009/04/23 11:15:00.7     -84   -245     26    260    262 198.9   5.9  34168  289.71 0855.18
2009/04/23 11:15:00.8    -126   -246     34    277    280 207.2   7.1  34168  289.71 0855.18
2009/04/23 11:15:00.9    -112   -201     59    231    239 209.0  14.5  34170  289.73 0855.18
2009/04/23 11:15:01.0    -104   -269    111    289    309 201.2  22.0  34166  289.66 0855.18
2009/04/23 11:15:01.1     -76   -235     77    248    260 197.9  17.4  34166  289.68 0855.18
2009/04/23 11:15:01.2     -50   -209     67    216    227 193.6  17.4  34168  289.70 0855.18
2009/04/23 11:15:01.3     -53   -239     42    246    250 192.7   9.9  34168  289.70 0855.18
2009/04/23 11:15:01.4     -73   -215     46    228    233 198.9  11.6  34168  289.70 0855.18
2009/04/23 11:15:01.5     -66   -170     63    183    194 201.4  19.2  34166  289.67 0855.18
2009/04/23 11:15:01.6     -54   -204     76    212    225 194.9  20.4  34166  289.67 0855.18
2009/04/23 11:15:01.7     -26   -159     30    162    165 189.3  10.6  34166  289.69 0855.18
2009/04/23 11:15:01.8     -75   -166      7    183    184 204.5   2.3  34166  289.67 0855.18
2009/04/23 11:15:01.9     -41   -115     12    123    124 200.0   5.9  34166  289.67 0855.18
2009/04/23 11:15:02.0     -31    -95    -14    101    103 198.3  -8.2  34168  289.70 0855.18
2009/04/23 11:15:02.1     -13   -111      5    112    113 187.1   2.8  34166  289.67 0855.18
2009/04/23 11:15:02.2       2   -144    -13    145    146 179.1  -5.2  34166  289.67 0855.18
2009/04/23 11:15:02.3     -28   -121     -4    125    126 193.4  -2.2  34164  289.65 0855.18
2009/04/23 11:15:02.4     -35    -84     23     92     95 202.7  14.3  34164  289.63 0855.18
2009/04/23 11:15:02.5       0   -101     -4    102    103 180.4  -2.2  34168  289.70 0855.19
2009/04/23 11:15:02.6      -6    -80     -3     81     82 184.5  -2.2  34168  289.72 0855.19
2009/04/23 11:15:02.7       1    -73     14     74     76 179.1  11.1  34166  289.69 0855.19
2009/04/23 11:15:02.8      32    -64     37     72     80 152.8  29.3  34166  289.69 0855.19
2009/04/23 11:15:02.9      43    -68     41     81     90 147.5  28.7  34164  289.63 0855.19
2009/04/23 11:15:03.0      17    -94     57     96    111 169.8  33.5  34168  289.70 0855.19
2009/04/23 11:15:03.1      23    -83     66     87    109 164.4  41.2  34172  289.79 0855.19
2009/04/23 11:15:03.2      13    -51     41     53     67 165.7  41.7  34172  289.79 0855.19
2009/04/23 11:15:03.3      24    -62      0     67     68 158.2  -0.3  34168  289.70 0855.19
2009/04/23 11:15:03.4      55    -68     16     88     90 141.3  10.6  34168  289.72 0855.19
2009/04/23 11:15:03.5      75    -76     28    107    111 135.5  14.7  34164  289.65 0855.19
2009/04/23 11:15:03.6      78   -103    -16    130    132 142.6  -7.3  34166  289.67 0855.19
2009/04/23 11:15:03.7      97   -110    -18    147    149 138.6  -7.2  34162  289.62 0855.19
2009/04/23 11:15:03.8      88   -138    -20    164    166 147.5  -7.2  34162  289.60 0855.19
2009/04/23 11:15:03.9      45   -149     18    156    158 163.0   6.9  34166  289.67 0855.19
2009/04/23 11:15:04.0      24   -141     12    144    145 170.2   5.0  34168  289.72 0855.19
2009/04/23 11:15:04.1      14   -133     27    134    137 173.8  11.6  34170  289.75 0855.19
2009/04/23 11:15:04.2     -14   -125     59    126    139 186.7  27.1  34172  289.77 0855.19
2009/04/23 11:15:04.3     -11   -143     39    144    150 184.5  15.3  34170  289.75 0855.19
2009/04/23 11:15:04.4     -11   -163     39    164    169 184.0  13.7  34172  289.77 0855.19
2009/04/23 11:15:04.5      15   -138     37    139    145 173.8  15.2  34170  289.74 0855.19
2009/04/23 11:15:04.6      59   -107     24    123    126 151.0  11.1  34172  289.77 0855.19
2009/04/23 11:15:04.7      31   -111     30    116    120 164.4  14.7  34172  289.77 0855.19
2009/04/23 11:15:04.8       9   -122     40    123    130 175.5  17.9  34170  289.75 0855.19
2009/04/23 11:15:04.9      -1   -101     68    102    122 181.0  37.4  34166  289.69 0855.19
2009/04/23 11:15:05.0     -17   -116     32    118    123 188.5  15.3  34168  289.72 0855.19
2009/04/23 11:15:05.1     -50    -91     62    105    121 208.9  33.4  34170  289.75 0855.19
2009/04/23 11:15:05.2     -26    -66     72     72    101 201.9  50.1  34174  289.82 0855.19
2009/04/23 11:15:05.3     -30    -55     68     63     92 209.0  52.2  34174  289.82 0855.19
2009/04/23 11:15:05.4     -58    -58     78     83    113 225.0  48.5  34174  289.80 0855.19
2009/04/23 11:15:05.5     -65    -52     87     84    120 230.9  51.2  34168  289.70 0855.19
2009/04/23 11:15:05.6     -45    -51     93     69    115 221.4  60.0  34178  289.89 0855.19
2009/04/23 11:15:05.7     -13    -62     67     64     92 192.5  51.2  34178  289.87 0855.19
2009/04/23 11:15:05.8     -20    -61     69     65     94 198.7  51.2  34176  289.85 0855.19
2009/04/23 11:15:06.0       0    -38     80     39     89 180.9  72.8  34182  289.94 0855.19
2009/04/23 11:15:06.1       0    -53     51     54     74 180.9  49.0  34178  289.89 0855.19
2009/04/23 11:15:06.2       5    -42     54     43     69 172.0  56.4  34180  289.92 0855.19
2009/04/23 11:15:06.3      10    -65     35     66     74 171.1  30.3  34172  289.79 0855.19
2009/04/23 11:15:06.4      11   -114     13    115    116 174.2   6.9  34172  289.77 0855.19
2009/04/23 11:15:06.5       0   -114     21    115    117 180.0  10.6  34176  289.84 0855.19
2009/04/23 11:15:06.6      15    -55    -12     58     60 164.9 -12.4  34172  289.79 0855.19
2009/04/23 11:15:06.7      21    -56     13     61     63 159.1  12.2  34168  289.72 0855.19
2009/04/23 11:15:06.8       4    -76     45     77     89 176.4  33.5  34172  289.79 0855.19
2009/04/23 11:15:06.9     -47    -97      4    108    109 205.9   2.3  34172  289.79 0855.19
2009/04/23 11:15:07.0     -52    -78     -3     94     95 213.8  -2.2  34174  289.80 0855.19
2009/04/23 11:15:07.1     -53    -67     -1     86     87 218.3  -1.3  34174  289.80 0855.19
2009/04/23 11:15:07.2     -40    -59     -9     72     73 214.3  -7.2  34174  289.82 0855.19
2009/04/23 11:15:07.3     -41    -50    -13     65     67 219.6 -11.5  34176  289.84 0855.19
2009/04/23 11:15:07.4     -25    -38     14     46     49 214.3  17.3  34178  289.89 0855.19
2009/04/23 11:15:07.5     -13    -23     20     27     33 210.7  41.7  34180  289.91 0855.19
2009/04/23 11:15:07.6      -2    -10     18     11     21 195.1  66.8  34184  289.99 0855.19
2009/04/23 11:15:07.7      -9      3     16     10     18 291.7  64.7  34190  290.08 0855.19
2009/04/23 11:15:07.8       0     -7     27      8     28 182.7  80.7  34206  290.36 0855.19
2009/04/23 11:15:07.9       0    -14     40     15     42 182.7  79.2  34220  290.58 0855.19
2009/04/23 11:15:08.0      20      4     35     21     40  76.7  65.7  34220  290.58 0855.19
2009/04/23 11:15:08.1       7      6     43     10     44  46.9  86.9  34218  290.57 0855.19
2009/04/23 11:15:08.2      24      8     38     26     46  71.6  62.6  34200  290.26 0855.19
2009/04/23 11:15:08.3      24      0     37     25     44  90.0  63.6  34194  290.16 0855.19
2009/04/23 11:15:08.4       2      7     32      8     33  18.5  84.9  34206  290.36 0855.19
2009/04/23 11:15:08.5       0     12     29     13     31   0.9  73.1  34216  290.52 0855.19
2009/04/23 11:15:08.6     -12     -8     27     15     30 237.6  68.8  34218  290.57 0855.20
2009/04/23 11:15:08.7     -30    -20     26     37     45 235.8  37.6  34196  290.19 0855.20
2009/04/23 11:15:08.8     -44    -28      2     53     54 237.6   2.9  34200  290.26 0855.20
2009/04/23 11:15:08.9     -92    -58      5    109    110 237.6   2.8  34212  290.47 0855.20
2009/04/23 11:15:09.0    -106    -33     14    112    113 252.7   7.5  34212  290.45 0855.20
2009/04/23 11:15:09.1     -72    -24      3     77     78 251.4   2.9  34210  290.41 0855.20
2009/04/23 11:15:09.2     -57     -6      7     58     59 263.9   6.9  34208  290.40 0855.20
2009/04/23 11:15:09.3     -58    -37     24     69     74 237.5  19.4  34208  290.40 0855.20
2009/04/23 11:15:09.4     -57    -48     61     75     96 229.6  43.7  34206  290.35 0855.20
2009/04/23 11:15:09.5     -66    -48     52     82     97 234.1  35.5  34216  290.52 0855.20
2009/04/23 11:15:09.6     -82    -58      0    101    102 234.5   0.2  34208  290.38 0855.20
2009/04/23 11:15:09.7     -73    -47      0     87     88 237.1  -0.3  34212  290.45 0855.20
2009/04/23 11:15:09.8    -119    -76     -5    142    143 237.6  -2.2  34210  290.41 0855.20
2009/04/23 11:15:09.9     -87   -102     11    135    136 220.5   5.0  34232  290.79 0855.20
2009/04/23 11:15:10.0    -107   -100     -9    147    148 226.9  -3.7  34220  290.58 0855.20
2009/04/23 11:15:10.1     -76    -92     -5    120    121 219.6  -2.6  34216  290.52 0855.20
2009/04/23 11:15:10.2     -58    -91     -2    109    110 212.5  -1.2  34212  290.47 0855.20
2009/04/23 11:15:10.3     -48   -103      5    114    115 204.9   2.8  34208  290.38 0855.20
2009/04/23 11:15:10.4     -29   -122     23    126    129 193.4  10.6  34196  290.18 0855.20
2009/04/23 11:15:10.5     -40   -111     18    119    121 200.0   9.0  34184  289.97 0855.20
2009/04/23 11:15:10.6     -25   -136     32    139    143 190.7  13.2  34174  289.82 0855.22
2009/04/23 11:15:10.7     -35   -148     26    153    156 193.4   9.9  34178  289.87 0855.22
2009/04/23 11:15:10.8     -21   -154     52    156    165 188.1  18.4  34184  289.97 0855.22
2009/04/23 11:15:10.9     -31   -160     10    164    165 191.1   3.6  34172  289.79 0855.22
2009/04/23 11:15:11.0     -33   -174     10    178    179 190.7   3.3  34174  289.80 0855.22
2009/04/23 11:15:11.1     -22   -181     12    183    184 187.1   3.8  34172  289.77 0855.22
2009/04/23 11:15:11.2     -40   -171     18    176    178 193.4   6.1  34176  289.85 0855.22
2009/04/23 11:15:11.3     -35   -159     12    163    164 192.5   4.2  34176  289.85 0855.22
2009/04/23 11:15:11.4     -38   -157      5    162    163 193.8   1.8  34176  289.85 0855.22
2009/04/23 11:15:11.5     -33   -159     10    163    164 191.8   3.8  34172  289.79 0855.22
2009/04/23 11:15:11.6     -66   -156     34    170    174 202.9  11.4  34176  289.85 0855.22
2009/04/23 11:15:11.7     -25   -161    -10    164    165 188.9  -3.7  34176  289.84 0855.22
2009/04/23 11:15:11.8     -39   -150     -6    156    157 194.7  -2.3  34174  289.80 0855.22
2009/04/23 11:15:11.9     -26   -168     17    171    172 188.9   5.9  34174  289.82 0855.22
2009/04/23 11:15:12.0     -49   -147     56    156    165 198.7  20.2  34176  289.85 0855.22
2009/04/23 11:15:12.1     -91   -157     83    182    200 210.3  26.2  34182  289.96 0855.22
2009/04/23 11:15:12.2     -62   -148    109    161    194 202.7  37.0  34202  290.30 0855.22
2009/04/23 11:15:12.3     -81   -155     99    176    201 207.6  31.9  34208  290.40 0855.22
2009/04/23 11:15:12.4     -65   -137     93    152    178 205.5  34.4  34196  290.18 0855.22
2009/04/23 11:15:12.5     -45   -159    100    166    193 195.8  34.4  34198  290.21 0855.22
2009/04/23 11:15:12.6     -33   -156     88    160    182 192.0  31.4  34194  290.14 0855.22
2009/04/23 11:15:12.7     -43   -132    111    140    178 198.3  42.4  34202  290.28 0855.22
2009/04/23 11:15:12.8     -37   -138    115    143    183 195.1  43.0  34210  290.43 0855.22
2009/04/23 11:15:12.9     -24   -118    102    121    158 191.6  44.5  34222  290.62 0855.22
2009/04/23 11:15:13.0     -59   -148     72    160    175 201.8  25.9  34190  290.09 0855.22
2009/04/23 11:15:13.1     -49   -147     75    156    173 198.7  27.3  34190  290.09 0855.22
2009/04/23 11:15:13.2     -48   -143     70    152    167 198.7  26.6  34196  290.18 0855.22
2009/04/23 11:15:13.3     -46   -140     59    148    159 198.3  22.8  34202  290.28 0855.22
2009/04/23 11:15:13.4     -21   -156     45    158    165 187.8  16.0  34184  289.99 0855.22
2009/04/23 11:15:13.5       3   -132     59    133    145 178.6  25.2  34180  289.92 0855.22
2009/04/23 11:15:13.6      -1   -172    127    173    214 180.5  39.9  34188  290.04 0855.22
2009/04/23 11:15:13.7      11   -145    127    146    193 175.6  45.6  34192  290.13 0855.22
2009/04/23 11:15:13.8      -2   -142    119    143    186 181.0  43.8  34184  289.97 0855.22
2009/04/23 11:15:13.9       1   -154     90    155    179 179.5  32.7  34178  289.89 0855.22
2009/04/23 11:15:14.0      14   -179     82    180    197 175.5  26.2  34180  289.92 0855.22
2009/04/23 11:15:14.1      44   -166     76    172    188 165.1  25.3  34178  289.89 0855.22
2009/04/23 11:15:14.2       8   -185     81    186    202 177.5  25.1  34178  289.89 0855.22
2009/04/23 11:15:14.3      -3   -168     49    169    177 181.1  16.3  34174  289.80 0855.22
2009/04/23 11:15:14.4       1   -176     49    177    184 179.5  15.6  34174  289.80 0855.22
2009/04/23 11:15:14.5     -11   -147     89    148    172 184.5  34.2  34174  289.82 0855.22
2009/04/23 11:15:14.6      40   -167     97    172    197 166.4  31.9  34180  289.91 0855.22
2009/04/23 11:15:14.7      16   -206     90    207    225 175.5  25.1  34176  289.84 0855.22
2009/04/23 11:15:14.8       5   -212     75    213    226 178.4  19.4  34174  289.80 0855.22
2009/04/23 11:15:14.9     -12   -215     39    216    220 183.4  10.3  34172  289.77 0855.22
2009/04/23 11:15:15.0     -10   -235     -5    236    237 182.6  -1.3  34172  289.78 0855.22
2009/04/23 11:15:15.1      42   -212     -8    217    218 168.7  -2.2  34172  289.79 0855.22
2009/04/23 11:15:15.2      56   -240    -16    247    248 166.7  -3.7  34170  289.75 0855.22
2009/04/23 11:15:15.3     128   -183     52    224    231 145.0  13.1  34172  289.77 0855.22
2009/04/23 11:15:15.4     102   -213     18    237    238 154.5   4.4  34168  289.71 0855.22
2009/04/23 11:15:15.5     122   -207     -9    241    242 149.5  -2.2  34174  289.80 0855.22
2009/04/23 11:15:15.6      78   -244     36    257    260 162.2   8.0  34174  289.80 0855.22
2009/04/23 11:15:15.7      38   -265     60    268    275 171.8  12.6  34180  289.90 0855.22
2009/04/23 11:15:15.8      62   -260     77    268    279 166.6  16.0  34176  289.85 0855.22
2009/04/23 11:15:15.9     121   -236     19    266    267 152.8   4.2  34178  289.86 0855.22
2009/04/23 11:15:16.0      73   -215     33    228    231 161.3   8.2  34174  289.82 0855.22
2009/04/23 11:15:16.1      19   -244      3    245    246 175.5   0.8  34176  289.85 0855.22
2009/04/23 11:15:16.2       3   -244     34    245    248 179.1   8.0  34178  289.86 0855.22
2009/04/23 11:15:16.3       8   -282     14    283    284 178.2   2.9  34182  289.93 0855.22
2009/04/23 11:15:16.4       2   -276     10    277    278 179.5   2.1  34182  289.95 0855.22
2009/04/23 11:15:16.5      33   -310      6    312    313 173.8   1.2  34182  289.93 0855.22
2009/04/23 11:15:16.6      14   -313     -3    314    315 177.3  -0.6  34180  289.90 0855.22
2009/04/23 11:15:16.7       8   -268    -31    269    271 178.2  -6.7  34174  289.80 0855.22
2009/04/23 11:15:16.8     -24   -222    -40    224    228 186.2 -10.3  34168  289.72 0855.22
2009/04/23 11:15:16.9     -32   -205     -2    208    209 189.1  -0.7  34172  289.79 0855.22
2009/04/23 11:15:17.0     -29   -205     23    208    210 188.1   6.5  34174  289.82 0855.22
2009/04/23 11:15:17.1     -16   -249     39    250    254 183.8   9.0  34176  289.85 0855.22
2009/04/23 11:15:17.2     -40   -258     36    262    265 188.9   8.0  34182  289.93 0855.22
2009/04/23 11:15:17.3     -51   -274     16    279    280 190.6   3.3  34180  289.92 0855.22
2009/04/23 11:15:17.4     -77   -246     22    258    260 197.4   4.9  34186  290.02 0855.22
2009/04/23 11:15:17.5     -69   -343     54    350    355 191.5   8.9  34162  289.60 0855.22
2009/04/23 11:15:17.6     -17   -368     58    369    374 182.7   9.0  34162  289.60 0855.23
2009/04/23 11:15:17.7      67   -428    -50    434    437 171.0  -6.6  34162  289.61 0855.23
2009/04/23 11:15:17.8      63   -403    -19    408    409 171.1  -2.7  34164  289.65 0855.23
2009/04/23 11:15:17.9      26   -452    -32    453    455 176.6  -4.1  34164  289.63 0855.23
2009/04/23 11:15:18.0     135   -393   -136    416    437 161.0 -23.5  34162  289.61 0855.23
2009/04/23 11:15:18.1      87   -417   -133    427    448 168.2 -17.3  34160  289.58 0855.23
2009/04/23 11:15:18.2     116   -424    -84    440    448 164.7 -10.8  34162  289.60 0855.23
2009/04/23 11:15:18.3     147   -487    -66    509    514 163.2  -7.5  34160  289.57 0855.23
2009/04/23 11:15:18.4     141   -388    -25    414    415 160.0  -3.5  34158  289.55 0855.23
2009/04/23 11:15:18.5     121   -381    -63    400    406 162.3  -9.0  34168  289.72 0855.23
2009/04/23 11:15:18.6      91   -415    -23    425    426 167.6  -3.2  34176  289.83 0855.23
2009/04/23 11:15:18.7     115   -368    -55    386    391 162.6  -8.2  34170  289.74 0855.23
2009/04/23 11:15:18.8     104   -348    -35    364    366 163.4  -5.6  34172  289.77 0855.23
2009/04/23 11:15:18.9     109   -319    -10    338    339 161.1  -1.7  34172  289.79 0855.23
2009/04/23 11:15:19.0      91   -414     -1    425    426 167.5  -0.3  34168  289.70 0855.23
2009/04/23 11:15:19.1      39   -374    -20    377    378 174.0  -3.1  34166  289.69 0855.23
2009/04/23 11:15:19.2      90   -324    -13    337    338 164.4  -2.3  34168  289.71 0855.23
2009/04/23 11:15:19.3     287   -350     22    453    454 140.7   2.8  34170  289.73 0855.23
2009/04/23 11:15:19.4     187   -243     37    307    310 142.4   6.9  34172  289.78 0855.23
2009/04/23 11:15:19.5      94   -169     20    194    196 151.0   6.1  34174  289.80 0855.23
2009/04/23 11:15:19.6     184   -233     15    298    299 141.7   2.9  34172  289.76 0855.22
2009/04/23 11:15:19.7     -90   -403   -107    414    428 192.6 -14.5  34168  289.72 0855.22
2009/04/23 11:15:19.8    -222   -469    105    520    531 205.4  11.5  34166  289.68 0855.22
2009/04/23 11:15:19.9    -270   -439    -28    516    517 211.6  -3.2  34172  289.76 0855.22
2009/04/23 11:15:20.0    -362   -436   -132    567    583 219.7 -13.2  34170  289.73 0855.22
2009/04/23 11:15:20.1    -228   -446   -138    501    520 207.1 -15.4  34170  289.74 0855.22
2009/04/23 11:15:20.2    -200   -458   -108    500    512 203.6 -12.3  34172  289.79 0855.22
2009/04/23 11:15:20.3    -200   -463   -105    505    516 203.4 -11.8  34172  289.76 0855.22
2009/04/23 11:15:20.4    -106   -464   -112    477    491 192.9 -13.3  34168  289.71 0855.22
2009/04/23 11:15:20.5    -105   -493    -88    505    513 192.1  -9.9  34176  289.83 0855.22
2009/04/23 11:15:20.6    -217   -391     -9    448    449 209.0  -1.2  34174  289.80 0855.22
2009/04/23 11:15:20.7     -90   -410    -32    420    422 192.5  -4.4  34176  289.83 0855.22
2009/04/23 11:15:20.8       5   -368    -61    369    375 179.1  -9.4  34178  289.86 0855.22
2009/04/23 11:15:20.9    -122   -257    -79    285    296 205.5 -15.5  34176  289.83 0855.22
2009/04/23 11:15:21.0     -86   -262    -87    276    290 198.3 -17.6  34178  289.86 0855.22
2009/04/23 11:15:21.1    -200   -241      0    314    315 219.7   0.0  34190  290.07 0855.22
2009/04/23 11:15:21.2    -162   -329    -57    368    373 206.3  -8.9  34192  290.11 0855.22
2009/04/23 11:15:21.3    -143   -340    -40    369    372 202.8  -6.3  34202  290.28 0855.22
2009/04/23 11:15:21.4    -173   -338    -15    380    381 207.1  -2.3  34194  290.15 0855.22
2009/04/23 11:15:21.5    -192   -307    -50    363    367 212.0  -7.9  34192  290.13 0855.22
2009/04/23 11:15:21.6     -57   -283    -11    289    290 191.5  -2.2  34190  290.09 0855.22
2009/04/23 11:15:21.7    -101   -215    -69    238    247 205.3 -20.8  34186  290.02 0855.22
2009/04/23 11:15:21.8     -69   -137      7    154    155 206.7   2.8  34192  290.13 0855.22
2009/04/23 11:15:21.9    -123    -89     30    152    156 234.0  11.4  34192  290.13 0855.22
2009/04/23 11:15:22.0    -157    -38    -49    162    169 256.3 -21.7  34202  290.30 0855.22
2009/04/23 11:15:22.1    -124    -76    -93    146    173 238.5 -39.9  34210  290.41 0855.22
2009/04/23 11:15:22.2    -163    -56    -90    173    195 250.9 -33.9  34222  290.64 0855.22
2009/04/23 11:15:22.3     -43   -119   -117    127    172 200.0 -52.1  34212  290.47 0855.22
2009/04/23 11:15:22.4    -125   -170   -155    212    262 216.3 -44.1  34180  289.92 0855.22
2009/04/23 11:15:22.5       4   -239   -192    240    307 179.0 -47.2  34182  289.93 0855.22
2009/04/23 11:15:22.6      -6   -195   -149    196    246 182.0 -45.6  34178  289.89 0855.22
2009/04/23 11:15:22.7     -69   -138   -141    155    209 206.7 -51.5  34190  290.09 0855.22
2009/04/23 11:15:22.8      28   -352    -64    354    360 175.4 -10.4  34182  289.96 0855.22
2009/04/23 11:15:22.9      56   -381     -3    386    387 171.5  -0.5  34178  289.89 0855.22
2009/04/23 11:15:23.0     132   -311      5    339    340 157.0   1.0  34182  289.93 0855.22
2009/04/23 11:15:23.1      77   -168     65    186    198 155.3  19.2  34182  289.94 0855.22
2009/04/23 11:15:23.2     -10   -162     19    163    165 183.6   6.7  34182  289.94 0855.22
2009/04/23 11:15:23.3    -152   -108    -89    187    207 234.7 -31.6  34190  290.09 0855.22
2009/04/23 11:15:23.4    -148    -50   -157    157    222 251.4 -54.5  34194  290.16 0855.22
2009/04/23 11:15:23.5    -101    -36   -198    108    225 250.5 -73.3  34196  290.18 0855.22
2009/04/23 11:15:23.6      54    -79   -196     96    218 145.7 -76.5  34206  290.35 0855.21
2009/04/23 11:15:23.7     141   -133   -146    195    243 133.3 -45.0  34194  290.14 0855.21
2009/04/23 11:15:23.8     170   -111    -72    204    216 123.1 -24.6  34186  290.01 0855.21
2009/04/23 11:15:23.9     214    -43      4    219    220 101.4   1.2  34182  289.96 0855.21
2009/04/23 11:15:24.0      63    -45    -39     78     87 125.9 -32.6  34190  290.08 0855.21
2009/04/23 11:15:24.1       0    -60    -22     61     64 180.0 -23.3  34186  290.02 0855.21
2009/04/23 11:15:24.2     -39    -88    -25     97    101 204.1 -14.5  34194  290.14 0855.21
2009/04/23 11:15:24.3      48   -124   -139    134    193 158.6 -55.3  34192  290.13 0855.21
2009/04/23 11:15:24.4     131   -205    -89    244    259 147.5 -25.3  34192  290.12 0855.21
2009/04/23 11:15:24.5     156   -275    -42    317    320 150.4  -7.7  34190  290.09 0855.21
2009/04/23 11:15:24.6      94   -321     -8    335    336 163.7  -1.4  34194  290.15 0855.21
2009/04/23 11:15:24.7      79   -293     13    304    305 164.8   2.5  34192  290.10 0855.21
2009/04/23 11:15:24.8      40   -266     17    270    271 171.3   3.8  34184  289.98 0855.21
2009/04/23 11:15:24.9      84   -324    -52    335    340 165.4  -8.9  34184  289.98 0855.21
2009/04/23 11:15:25.0      29   -394    -52    396    400 175.7  -7.6  34198  290.21 0855.21
2009/04/23 11:15:25.1      77   -380   -125    388    408 168.5 -17.9  34198  290.20 0855.21
2009/04/23 11:15:25.2      -9   -323   -111    324    342 181.7 -23.7  34194  290.16 0855.21
2009/04/23 11:15:25.3     -23   -323   -115    324    344 184.1 -19.6  34208  290.37 0855.21
2009/04/23 11:15:25.4     -43   -239   -115    243    268 190.2 -31.6  34198  290.20 0855.21
2009/04/23 11:15:25.5    -143   -172   -104    224    246 219.7 -31.0  34196  290.19 0855.21
2009/04/23 11:15:25.6    -145   -120    -82    189    206 230.5 -29.5  34198  290.23 0855.19
2009/04/23 11:15:25.7    -167   -136    -77    216    230 230.7 -19.7  34204  290.31 0855.19
2009/04/23 11:15:25.8    -170   -130    -41    215    219 232.5 -10.9  34214  290.48 0855.19
2009/04/23 11:15:25.9    -175    -91    -36    198    202 242.5 -10.3  34208  290.40 0855.19
2009/04/23 11:15:26.0    -199   -237    -51    310    315 220.1  -9.3  34200  290.26 0855.19
2009/04/23 11:15:26.1    -182   -249    -62    309    316 216.3 -11.5  34184  289.97 0855.19
2009/04/23 11:15:26.2    -207   -145    -90    253    269 234.9 -19.7  34176  289.85 0855.19
2009/04/23 11:15:26.3    -205    -96     -6    227    228 244.8  -1.6  34198  290.23 0855.19
2009/04/23 11:15:26.4    -149   -168     19    225    226 221.5   5.0  34208  290.40 0855.19
2009/04/23 11:15:26.5    -238   -220    -64    325    332 227.3 -11.2  34150  289.40 0855.19
2009/04/23 11:15:26.6    -208   -279    -54    349    354 216.7  -8.9  34142  289.25 0855.19
2009/04/23 11:15:26.7    -183   -275    -51    331    335 213.6  -8.8  34144  289.30 0855.19
2009/04/23 11:15:26.8    -180   -232    -81    294    306 217.9 -15.4  34156  289.49 0855.19
2009/04/23 11:15:26.9    -169   -249    -77    302    312 214.2 -14.4  34148  289.37 0855.19
2009/04/23 11:15:27.0     -81   -198    -91    215    233 202.3 -28.5  34142  289.28 0855.19
2009/04/23 11:15:27.1     -80   -215    -91    230    247 200.5 -27.2  34144  289.29 0855.19
2009/04/23 11:15:27.2    -109   -222    -50    248    253 206.1 -11.5  34164  289.63 0855.19
2009/04/23 11:15:27.3    -109   -192    -21    221    223 209.6  -5.6  34174  289.80 0855.19
2009/04/23 11:15:27.4     -86   -192    -31    211    214 204.1  -8.6  34158  289.55 0855.19
2009/04/23 11:15:27.5     -89   -180    -34    201    205 206.3  -9.8  34154  289.48 0855.19
2009/04/23 11:15:27.6    -119   -166    -31    205    208 215.8  -8.8  34160  289.57 0855.19
2009/04/23 11:15:27.7    -139   -141    -36    199    203 224.5 -10.3  34154  289.48 0855.19
2009/04/23 11:15:27.8     -72   -170      0    185    186 203.2   0.2  34158  289.53 0855.19
2009/04/23 11:15:27.9    -111   -181    -27    213    215 211.6  -7.3  34176  289.84 0855.19
2009/04/23 11:15:28.0     -84   -177    -10    197    198 205.5  -3.1  34178  289.87 0855.19
2009/04/23 11:15:28.1     -24   -163    -11    165    166 188.5  -3.9  34172  289.77 0855.19
2009/04/23 11:15:28.2      44   -154    -18    161    163 164.0  -6.5  34176  289.85 0855.19
2009/04/23 11:15:28.3     -16   -147      7    148    149 186.3   2.8  34180  289.91 0855.19
2009/04/23 11:15:28.4     -13   -133    -35    134    139 185.8 -15.0  34192  290.11 0855.19
2009/04/23 11:15:28.5     -10   -179    -58    180    189 183.4 -23.3  34208  290.38 0855.19
2009/04/23 11:15:28.6     -53   -165    -72    174    188 197.8 -28.0  34214  290.48 0855.19
2009/04/23 11:15:28.7     -12   -171    -39    172    177 184.0 -12.9  34226  290.70 0855.19
2009/04/23 11:15:28.8     -19   -134    -48    136    145 188.1 -19.7  34238  290.91 0855.19
2009/04/23 11:15:28.9     -17   -122    -13    124    125 188.0  -6.2  34242  290.98 0855.19
2009/04/23 11:15:29.0     -23   -121     19    124    126 190.7   8.9  34242  290.96 0855.19
2009/04/23 11:15:29.1      68   -130     38    147    152 152.4  14.7  34206  290.35 0855.19
2009/04/23 11:15:29.2     112   -105      7    154    155 133.1   2.9  34174  289.82 0855.19
2009/04/23 11:15:29.3     126   -106     20    165    167 130.0   7.2  34172  289.79 0855.19
2009/04/23 11:15:29.5     106    -99      0    146    147 133.2  -0.3  34176  289.84 0855.19
2009/04/23 11:15:29.5      69    -95     41    118    126 144.0  19.2  34182  289.96 0855.19
2009/04/23 11:15:29.6      39   -118      6    125    126 161.7   2.9  34182  289.94 0855.17
2009/04/23 11:15:29.7      -6   -159     34    160    164 182.5  12.0  34192  290.11 0855.17
2009/04/23 11:15:29.8     -46   -233    102    238    258 191.3  24.6  34196  290.19 0855.17
2009/04/23 11:15:29.9      -1   -333     -5    334    335 180.3  -0.9  34176  289.84 0855.17
2009/04/23 11:15:30.0      68   -305      8    313    314 167.3   1.6  34176  289.85 0855.17
2009/04/23 11:15:30.1      55   -290     75    296    306 169.1  14.3  34174  289.80 0855.17
2009/04/23 11:15:30.2      23   -303     86    305    317 175.5  15.8  34178  289.86 0855.17
2009/04/23 11:15:30.3     147   -250     35    291    294 149.5   6.9  34182  289.95 0855.17
2009/04/23 11:15:30.4      83   -305      4    317    318 164.8   0.8  34174  289.81 0855.17
2009/04/23 11:15:30.5      56   -303     84    309    321 169.4  15.3  34174  289.80 0855.17
2009/04/23 11:15:30.6      51   -296    111    301    320 170.2  21.1  34176  289.83 0855.17
2009/04/23 11:15:30.7     -18   -238    150    239    282 184.5  35.5  34182  289.95 0855.17
2009/04/23 11:15:30.8     -16   -207    144    208    252 184.5  38.0  34182  289.93 0855.17
2009/04/23 11:15:30.9     -51   -209    153    216    264 193.8  38.8  34180  289.92 0855.17
2009/04/23 11:15:31.0      22   -158    138    160    211 172.0  45.4  34174  289.82 0855.17
2009/04/23 11:15:31.1     -38   -248    181    252    310 188.9  39.3  34190  290.07 0855.17
2009/04/23 11:15:31.2     -45   -241    173    246    300 190.7  38.6  34180  289.90 0855.17
2009/04/23 11:15:31.3      -9   -309    153    310    345 181.8  28.0  34182  289.93 0855.17
2009/04/23 11:15:31.4     -33   -240    146    243    283 188.0  33.7  34182  289.93 0855.17
2009/04/23 11:15:31.5      25   -275     48    277    282 174.7  10.0  34184  289.97 0855.17
2009/04/23 11:15:31.7      28   -276     44    278    282 174.2   9.0  34180  289.92 0855.11
2009/04/23 11:15:31.7       2   -232     70    233    244 179.5  16.8  34180  289.92 0855.11
2009/04/23 11:15:31.9     -14   -279     97    280    297 182.9  19.2  34180  289.92 0855.11
2009/04/23 11:15:32.0      -8   -296    126    297    322 181.6  24.3  34178  289.88 0855.11
2009/04/23 11:15:32.1      14   -324    115    325    344 177.5  20.2  34182  289.94 0855.11
2009/04/23 11:15:32.2     -18   -325    107    326    344 183.2  18.2  34178  289.89 0855.11
2009/04/23 11:15:32.3     -65   -262     96    270    287 194.0  19.6  34178  289.86 0855.11
2009/04/23 11:15:32.4     -49   -290     73    295    304 189.7  13.9  34178  289.86 0855.11
2009/04/23 11:15:32.5    -116   -291    -16    314    315 201.8  -3.0  34178  289.86 0855.11
2009/04/23 11:15:32.6     -59   -279     14    286    287 192.0   2.9  34184  289.97 0855.11
2009/04/23 11:15:32.7     -45   -316     -6    320    321 188.1  -1.2  34186  290.00 0855.11
2009/04/23 11:15:32.8     -68   -312    -11    320    321 192.4  -2.1  34192  290.10 0855.11
2009/04/23 11:15:32.9     -66   -328    -44    335    338 191.4  -7.6  34188  290.06 0855.11
2009/04/23 11:15:33.0     -29   -371     28    373    374 184.6   4.4  34192  290.11 0855.11
2009/04/23 11:15:33.1     -29   -353    -24    355    356 184.8  -3.9  34194  290.15 0855.11
2009/04/23 11:15:33.2    -136   -358     39    383    386 200.8   5.9  34204  290.32 0855.11
2009/04/23 11:15:33.3    -207   -386     -2    438    439 208.2  -0.3  34178  289.87 0855.11
2009/04/23 11:15:33.4    -149   -401    -27    428    429 200.4  -3.7  34178  289.88 0855.11
2009/04/23 11:15:33.5    -179   -396    -22    435    436 204.3  -3.0  34178  289.87 0855.11
2009/04/23 11:15:33.6    -166   -375    -16    411    412 203.9  -2.3  34176  289.83 0855.11
2009/04/23 11:15:33.7    -141   -349    -20    377    378 202.1  -3.1  34176  289.84 0855.11
2009/04/23 11:15:33.8    -110   -366    -30    383    385 196.8  -4.6  34180  289.91 0855.11
2009/04/23 11:15:33.9    -119   -376    -30    395    397 197.6  -4.4  34184  289.99 0855.11
2009/04/23 11:15:34.0    -105   -382    -28    397    398 195.4  -4.1  34178  289.86 0855.11
2009/04/23 11:15:34.1     -90   -356    -17    368    369 194.3  -2.8  34178  289.89 0855.11
2009/04/23 11:15:34.2    -106   -359    -21    375    376 196.5  -3.3  34180  289.91 0855.11
2009/04/23 11:15:34.3     -31   -334    -16    336    337 185.3  -2.8  34180  289.91 0855.11
2009/04/23 11:15:34.4     -28   -337    -15    339    340 184.9  -2.6  34182  289.93 0855.11
2009/04/23 11:15:34.5     -79   -313     -6    323    324 194.2  -1.2  34182  289.95 0855.11
2009/04/23 11:15:34.6      41   -350     20    353    354 173.2   3.2  34178  289.87 0855.11
2009/04/23 11:15:34.7      61   -324     63    330    336 169.3  10.8  34186  290.01 0855.12
2009/04/23 11:15:34.8      48   -309    -36    313    316 171.1  -6.7  34178  289.88 0855.12
2009/04/23 11:15:34.9      50   -322    -30    326    328 171.1  -5.4  34180  289.92 0855.12
2009/04/23 11:15:35.0      60   -375     33    380    382 170.9   5.1  34174  289.82 0855.12
2009/04/23 11:15:35.1      15   -314    -39    315    318 177.1  -7.2  34178  289.86 0855.12
2009/04/23 11:15:35.2     -17   -281    -50    282    287 183.6 -10.1  34180  289.92 0855.12
2009/04/23 11:15:35.3      20   -303    -17    304    305 176.2  -3.3  34182  289.93 0855.12
2009/04/23 11:15:35.4      10   -303    -39    304    307 178.0  -7.3  34186  290.00 0855.12
2009/04/23 11:15:35.5      23   -302    -47    304    308 175.5  -8.8  34188  290.05 0855.12
2009/04/23 11:15:35.6      24   -314    -55    316    321 175.5  -9.9  34202  290.27 0855.12
2009/04/23 11:15:35.7      24   -291    -74    293    303 175.1 -14.3  34192  290.12 0855.12
2009/04/23 11:15:35.8      36   -253    -63    256    264 171.8 -13.9  34190  290.09 0855.12
2009/04/23 11:15:35.9      36   -225    -39    228    232 170.9  -9.8  34184  289.99 0855.12
2009/04/23 11:15:36.0      24   -226    -16    228    229 173.8  -4.1  34182  289.96 0855.12
2009/04/23 11:15:36.1      66   -183     -7    195    196 160.2  -2.2  34184  289.97 0855.12
2009/04/23 11:15:36.2      25   -149     37    152    157 170.3  13.7  34188  290.06 0855.12
2009/04/23 11:15:36.3      24   -141     12    144    145 170.2   5.0  34188  290.06 0855.12
2009/04/23 11:15:36.4      -1    -80     24     81     85 181.4  16.8  34186  290.02 0855.12
2009/04/23 11:15:36.5     -15    -58     38     61     71 195.2  35.5  34190  290.08 0855.12
2009/04/23 11:15:36.6     -47    -44      5     65     66 226.8   4.9  34186  290.01 0855.12
2009/04/23 11:15:36.7     -56    -42      6     71     72 233.1   4.9  34188  290.04 0855.12
2009/04/23 11:15:36.8     -46    -28    -30     55     62 238.5 -35.7  34186  290.01 0855.12
2009/04/23 11:15:36.9     -53    -25    -36     59     69 244.8 -39.9  34184  289.99 0855.12
2009/04/23 11:15:37.0     -41    -36    -32     55     63 228.7 -36.8  34190  290.08 0855.12
2009/04/23 11:15:37.1       9    -76    -17     77     80 172.9 -12.9  34186  290.02 0855.12
2009/04/23 11:15:37.2       0    -82     -6     83     84 180.4  -4.1  34190  290.08 0855.12
2009/04/23 11:15:37.3      17    -50      4     54     55 160.8   4.9  34192  290.13 0855.12
2009/04/23 11:15:37.4      42    -34     33     55     64 128.6  35.5  34192  290.11 0855.12
2009/04/23 11:15:37.5      92      7     55     93    108  85.6  34.0  34192  290.13 0855.12
2009/04/23 11:15:37.6      75     34     74     83    111  65.2  46.4  34196  290.18 0855.12
2009/04/23 11:15:37.7      68     76     78    103    129  41.9  41.2  34200  290.25 0855.12
2009/04/23 11:15:37.8      54     50     73     74    103  46.9  50.5  34198  290.23 0855.12
2009/04/23 11:15:37.9      57     26    111     63    127  65.6  68.3  34214  290.50 0855.12
2009/04/23 11:15:38.0     -15      5     86     16     87 288.6  90.0  34220  290.58 0855.12
2009/04/23 11:15:38.1     -15     45     51     48     70 340.8  52.1  34216  290.53 0855.12
2009/04/23 11:15:38.2      43     44     70     62     93  44.1  53.7  34214  290.48 0855.12
2009/04/23 11:15:38.3      66     49     95     83    126  53.1  54.3  34206  290.36 0855.12
2009/04/23 11:15:38.4      92     15    110     94    144  80.3  55.4  34202  290.30 0855.12
2009/04/23 11:15:38.5      87    -19    122     90    151 102.8  60.5  34206  290.35 0855.12
2009/04/23 11:15:38.6      59     20     68     63     92  71.4  52.2  34206  290.35 0855.12
2009/04/23 11:15:38.7     105    -12     90    106    139  97.0  44.3  34200  290.25 0855.11
2009/04/23 11:15:38.8     173    -60     94    184    206 109.1  29.2  34202  290.28 0855.11
2009/04/23 11:15:38.9     194    -39    107    198    225 101.4  30.8  34194  290.14 0855.11
2009/04/23 11:15:39.0     166      0    167    167    236  90.0  50.1  34198  290.21 0855.11
2009/04/23 11:15:39.1     105    -42    129    114    172 111.7  54.0  34206  290.36 0855.11
2009/04/23 11:15:39.2     145    -24     58    148    158  99.7  22.5  34212  290.47 0855.11
2009/04/23 11:15:39.3     121     25     31    124    128  78.1  14.3  34242  290.96 0855.11
2009/04/23 11:15:39.4      53      2     25     54     59  87.4  26.2  34240  290.92 0855.11
2009/04/23 11:15:39.5      12    -16     32     21     38 143.9  64.6  34242  290.96 0855.11
2009/04/23 11:15:39.6      -8     23     52     25     57 340.0  72.9  34246  291.04 0855.11
2009/04/23 11:15:39.7      -1     20     32     21     38 355.6  64.6  34238  290.91 0855.11
2009/04/23 11:15:39.8       1    -20     50     21     54 175.5  77.1  34238  290.91 0855.11
2009/04/23 11:15:39.9      43    -17     39     47     61 111.7  43.8  34240  290.92 0855.11
2009/04/23 11:15:40.0       8    -14     42     17     45 151.0  77.1  34240  290.92 0855.11
2009/04/23 11:15:40.1      34     18     94     39    101  61.1  77.0  34246  291.03 0855.11
2009/04/23 11:15:40.2      80     29     98     86    130  70.0  54.3  34258  291.25 0855.11
2009/04/23 11:15:40.3      69     27    116     75    138  68.3  64.6  34264  291.33 0855.11
2009/04/23 11:15:40.4       1     75    129     76    149   0.9  66.8  34238  290.91 0855.11
2009/04/23 11:15:40.5     -31    124    133    128    184 345.7  50.9  34234  290.84 0855.11
2009/04/23 11:15:40.6       7     67     74     68    100   6.2  52.2  34236  290.87 0855.11
2009/04/23 11:15:40.7     117     97    113    153    190  50.4  40.1  34230  290.75 0855.09
2009/04/23 11:15:40.8     191    115    105    224    247  58.9  27.0  34236  290.85 0855.09
2009/04/23 11:15:40.9     138    129    137    190    234  46.9  39.5  34236  290.87 0855.09
2009/04/23 11:15:41.0     131     57    166    144    219  66.4  54.6  34232  290.79 0855.09
2009/04/23 11:15:41.1     148     40    177    154    234  74.9  54.6  34234  290.84 0855.09
2009/04/23 11:15:41.2     105     53    151    118    191  62.9  57.9  34246  291.04 0855.09
2009/04/23 11:15:41.3     155     49    170    163    235  72.3  51.2  34248  291.08 0855.09
2009/04/23 11:15:41.4     188     31    132    191    232  80.5  37.6  34248  291.06 0855.09
2009/04/23 11:15:41.5     152     99    213    182    280  56.9  55.3  34260  291.26 0855.09
2009/04/23 11:15:41.6     111     75    185    135    229  55.8  60.5  34254  291.18 0855.09
2009/04/23 11:15:41.7     156     64    182    169    248  67.4  52.2  34242  290.96 0855.09
2009/04/23 11:15:41.8     115     50    136    126    185  66.4  52.2  34248  291.06 0855.09
2009/04/23 11:15:41.9     135     31     96    139    168  76.7  37.8  34234  290.82 0855.09
2009/04/23 11:15:42.0     135     50    109    145    181  69.6  40.7  34228  290.72 0855.09
2009/04/23 11:15:42.1     112    100    105    151    183  48.2  38.4  34208  290.38 0855.09
2009/04/23 11:15:42.2      87    137     83    163    182  32.5  29.3  34220  290.60 0855.09
2009/04/23 11:15:42.3     103    119     36    158    163  41.0  12.9  34220  290.58 0855.09
2009/04/23 11:15:42.4      65     78     74    102    126  40.1  39.7  34218  290.57 0855.09
2009/04/23 11:15:42.5       1    124     96    125    157   0.5  41.7  34256  291.21 0855.09
2009/04/23 11:15:42.6      44    107     59    116    130  22.3  29.2  34244  290.99 0855.09
2009/04/23 11:15:42.7      77     91     61    120    134  40.5  29.2  34244  291.01 0855.09
2009/04/23 11:15:42.8     109     69     70    130    147  57.6  31.3  34232  290.79 0855.09
2009/04/23 11:15:42.9     101     67     58    122    135  56.3  27.2  34236  290.87 0855.09
2009/04/23 11:15:43.0      97     97     74    138    156  45.0  30.3  34242  290.98 0855.09
2009/04/23 11:15:43.1      43     91    131    101    165  25.4  58.5  34254  291.18 0855.09
2009/04/23 11:15:43.2     -38     97     67    105    124 338.6  35.6  34250  291.11 0855.09
2009/04/23 11:15:43.3       9      2     79     10     79  74.9  90.0  34244  290.99 0855.09
2009/04/23 11:15:43.4      31     64      4     72     73  26.3   3.8  34236  290.86 0855.09
2009/04/23 11:15:43.5      42     73    -27     85     89  30.3 -23.3  34242  290.98 0855.09
2009/04/23 11:15:43.6      82     34    -28     89     93  67.4 -22.8  34240  290.92 0855.09
2009/04/23 11:15:43.7      69      7    -48     70     84  83.9 -42.0  34238  290.89 0855.09
2009/04/23 11:15:43.8      66      8    -32     67     74  83.0 -31.5  34228  290.74 0855.09
2009/04/23 11:15:43.9      68     25    -21     73     75  70.0 -21.7  34246  291.04 0855.09
2009/04/23 11:15:44.0      58      0     -2     59     60  90.0  -2.2  34252  291.15 0855.09
2009/04/23 11:15:44.1      50     -7     29     51     58  97.9  33.5  34262  291.30 0855.09
2009/04/23 11:15:44.2      50     16     16     53     56  71.6  17.3  34284  291.69 0855.09
2009/04/23 11:15:44.3      38     18     45     43     62  64.7  51.2  34298  291.93 0855.09
2009/04/23 11:15:44.4      84     28    102     89    135  71.4  54.3  34310  292.13 0855.09
2009/04/23 11:15:44.5      50      0     83     51     97  90.0  64.7  34314  292.18 0855.09
2009/04/23 11:15:44.6      81    -15     82     83    116 100.6  50.5  34300  291.95 0855.09
2009/04/23 11:15:44.7      81     13     89     83    121  80.8  52.1  34294  291.86 0855.07
2009/04/23 11:15:44.8      76     40     38     87     94  62.0  25.1  34290  291.79 0855.07
2009/04/23 11:15:44.9     118     70     95    138    167  59.3  37.8  34288  291.76 0855.07
2009/04/23 11:15:45.0     153    102     -1    184    185  56.3  -0.5  34282  291.64 0855.07
2009/04/23 11:15:45.1     185     64     32    196    199  70.9   9.5  34264  291.35 0855.07
2009/04/23 11:15:45.2     146    139      5    202    203  46.4   1.6  34246  291.03 0855.07
2009/04/23 11:15:45.3     200     74      2    214    215  69.6   0.7  34266  291.38 0855.07
2009/04/23 11:15:45.4     172     67    119    185    219  68.5  35.6  34276  291.54 0855.07
2009/04/23 11:15:45.5     175    127    133    217    254  54.0  34.4  34282  291.63 0855.07
2009/04/23 11:15:45.6     261     82     53    274    280  72.5  11.0  34280  291.60 0855.07
2009/04/23 11:15:45.7     309    111    103    329    345  70.2  17.5  34274  291.52 0855.07
2009/04/23 11:15:45.8     307    137    136    337    363  65.9  23.1  34264  291.34 0855.07
2009/04/23 11:15:45.9     294     49    135    299    328  80.4  26.0  34272  291.46 0855.07
2009/04/23 11:15:46.0     358    121    130    378    400  71.3  19.1  34262  291.32 0855.07
2009/04/23 11:15:46.1     351    123    116    373    391  70.6  17.3  34260  291.27 0855.07
2009/04/23 11:15:46.2     331    123    105    354    370  69.6  16.5  34266  291.37 0855.07
2009/04/23 11:15:46.3     252    131     84    285    298  62.5  16.4  34252  291.12 0855.07
2009/04/23 11:15:46.4     348    133     75    373    381  69.0  11.4  34260  291.27 0855.07
2009/04/23 11:15:46.5     248    140    112    286    307  60.5  22.8  34242  290.97 0855.07
2009/04/23 11:15:46.6     270    137     47    303    307  63.0   8.9  34260  291.27 0855.07
2009/04/23 11:15:46.7     267    188     46    327    331  54.8   8.1  34272  291.49 0855.10
2009/04/23 11:15:46.8     349    185     41    396    399  62.0   6.0  34272  291.49 0855.10
2009/04/23 11:15:46.9     257    172    102    310    327  56.3  18.2  34268  291.41 0855.10
2009/04/23 11:15:47.0     247     90     95    263    279  70.0  20.9  34274  291.50 0855.10
2009/04/23 11:15:47.1     243    105    127    265    293  66.5  27.3  34268  291.39 0855.10
2009/04/23 11:15:47.2     220     28     52    222    229  82.5  13.2  34250  291.09 0855.10
2009/04/23 11:15:47.3     233     57     46    241    246  76.1  11.0  34236  290.85 0855.10
2009/04/23 11:15:47.4     251     31    104    254    274  82.8  23.6  34252  291.12 0855.10
2009/04/23 11:15:47.5     243    -18     83    244    259  94.3  18.9  34262  291.31 0855.10
2009/04/23 11:15:47.6     199    -15     65    200    211  94.6  18.1  34256  291.20 0855.10
2009/04/23 11:15:47.7     227    -34    103    230    252  98.6  25.7  34256  291.21 0855.10
2009/04/23 11:15:47.8     173    -57     65    183    194 108.2  20.0  34262  291.32 0855.10
2009/04/23 11:15:47.9     203    -41     87    208    225 101.5  24.1  34270  291.43 0855.10
2009/04/23 11:15:48.0     183     -3     32    184    187  91.0  10.1  34264  291.35 0855.10
2009/04/23 11:15:48.1     167     28     33    170    174  80.5  11.0  34262  291.30 0855.10
2009/04/23 11:15:48.2     144     91     17    171    172  57.8   5.7  34262  291.32 0855.10
2009/04/23 11:15:48.3     155     43    -13    161    162  74.3  -4.9  34266  291.37 0855.10
2009/04/23 11:15:48.4     189     36    -13    193    194  79.2  -4.1  34262  291.32 0855.10
2009/04/23 11:15:48.5     195    100    -52    220    227  62.7 -13.4  34258  291.23 0855.10
2009/04/23 11:15:48.6     200     97    -25    223    225  64.0  -6.5  34274  291.50 0855.10
2009/04/23 11:15:48.7     213    127    -11    249    250  59.1  -2.6  34274  291.50 0855.11
2009/04/23 11:15:48.8     131    106     22    169    171  50.9   7.5  34272  291.47 0855.11
2009/04/23 11:15:48.9     110    107     20    154    156  45.6   7.5  34262  291.30 0855.11
2009/04/23 11:15:49.0      89     64     37    110    117  54.1  18.9  34268  291.40 0855.11
2009/04/23 11:15:49.1      63     54     62     84    104  49.6  39.7  34266  291.37 0855.11
2009/04/23 11:15:49.2      73     24     79     78    111  71.4  50.1  34268  291.42 0855.11
2009/04/23 11:15:49.3      68     53     59     87    105  51.8  37.0  34260  291.28 0855.11
2009/04/23 11:15:49.4      72     44     54     85    100  58.5  35.5  34256  291.21 0855.11
2009/04/23 11:15:49.5     105     52     45    118    126  63.8  21.5  34258  291.25 0855.11
2009/04/23 11:15:49.6      42    126     27    134    137  18.7  11.6  34260  291.28 0855.11
2009/04/23 11:15:49.7     126     80    -61    150    161  57.6 -27.8  34258  291.25 0855.11
2009/04/23 11:15:49.8     114     53      3    126    127  64.8   1.8  34256  291.20 0855.11
2009/04/23 11:15:49.9     115      0     91    116    147  90.4  42.7  34256  291.21 0855.11
2009/04/23 11:15:50.0     176     67     34    189    193  68.9  10.3  34256  291.21 0855.11
2009/04/23 11:15:50.1     133    135     51    190    197  44.5  15.3  34280  291.62 0855.11
2009/04/23 11:15:50.2     171    150     69    228    239  48.7  16.8  34282  291.63 0855.11
2009/04/23 11:15:50.3     174    164     60    240    248  46.7  14.2  34286  291.70 0855.11
2009/04/23 11:15:50.4     111     77     46    136    144  55.4  18.9  34288  291.74 0855.11
2009/04/23 11:15:50.5      98     62     15    117    118  57.6   7.5  34290  291.77 0855.11
2009/04/23 11:15:50.6      53     48     -2     72     73  47.8  -2.2  34288  291.76 0855.11
2009/04/23 11:15:50.7      96     51    -13    109    110  62.0  -7.2  34280  291.60 0855.11
2009/04/23 11:15:50.8     113     57     12    127    128  62.9   5.4  34256  291.20 0855.11
2009/04/23 11:15:50.9     124     -9     25    125    128  94.3  11.6  34260  291.26 0855.11
2009/04/23 11:15:51.0     187     18     -5    188    189  84.3  -1.8  34246  291.04 0855.11
2009/04/23 11:15:51.1     154     48     -6    162    163  72.7  -2.2  34244  290.99 0855.11
2009/04/23 11:15:51.2     174     48    -63    181    191  74.5 -24.0  34246  291.03 0855.11
2009/04/23 11:15:51.3     153    129    -98    201    223  50.0 -32.2  34248  291.06 0855.11
2009/04/23 11:15:51.4     137    106    -75    174    189  52.2 -29.3  34248  291.06 0855.11
2009/04/23 11:15:51.5     180     92    -67    203    214  62.9 -18.3  34244  291.01 0855.11
2009/04/23 11:15:51.6     187     76    -49    202    208  67.8 -13.7  34246  291.03 0855.11
2009/04/23 11:15:51.7      86    143     11    168    169  31.0   3.8  34244  291.01 0855.11
2009/04/23 11:15:51.8      30    115     59    119    132  14.7  27.8  34240  290.92 0855.11
2009/04/23 11:15:51.9     -33    129     70    134    151 345.3  29.3  34230  290.75 0855.11
2009/04/23 11:15:52.0     -69    178     23    191    193 338.8   6.9  34238  290.89 0855.11
2009/04/23 11:15:52.1     -63    145     22    159    161 336.4   8.0  34242  290.98 0855.11
2009/04/23 11:15:52.2     -53    112      6    124    125 334.7   2.9  34250  291.11 0855.11
2009/04/23 11:15:52.3      -8     82     79     83    114 353.8  49.0  34238  290.91 0855.11
2009/04/23 11:15:52.4     -41     58     76     72    104 324.8  51.2  34236  290.86 0855.11
2009/04/23 11:15:52.5     -32     68     63     76     98 334.5  43.8  34242  290.96 0855.11
2009/04/23 11:15:52.6     -28     44     64     53     83 327.4  55.8  34250  291.09 0855.11
2009/04/23 11:15:52.7     -50     53     59     73     93 316.7  43.7  34252  291.13 0855.07
2009/04/23 11:15:52.8     -52     59     49     80     93 318.6  35.0  34252  291.13 0855.07
2009/04/23 11:15:52.9     -43     92     53    102    114 334.7  29.8  34248  291.08 0855.07
2009/04/23 11:15:53.0     -31     87     50     93    105 340.4  30.8  34252  291.13 0855.07
2009/04/23 11:15:53.1     -14    100     18    102    104 352.0  10.1  34248  291.06 0855.07
2009/04/23 11:15:53.2     -12     86     28     87     92 351.5  17.9  34252  291.15 0855.07
2009/04/23 11:15:53.3      36     31     65     48     80  49.6  60.0  34254  291.18 0855.07
2009/04/23 11:15:53.4     137     23     67    139    154  80.4  27.3  34272  291.47 0855.07
2009/04/23 11:15:53.5     136     45    183    144    232  71.4  57.9  34262  291.30 0855.07
2009/04/23 11:15:53.6     127    111    -71    169    183  48.9 -28.2  34264  291.35 0855.07
2009/04/23 11:15:53.7     196     78     -8    212    213  68.3  -2.2  34310  292.12 0855.05
2009/04/23 11:15:53.8     273     -4    -71    274    284  90.9 -14.7  34282  291.63 0855.05
2009/04/23 11:15:53.9     259      7     20    260    261  88.3   4.6  34268  291.41 0855.05
2009/04/23 11:15:54.0     227    119     48    257    262  62.2  10.6  34276  291.53 0855.05
2009/04/23 11:15:54.1     284     57     71    290    299  78.6  13.9  34262  291.31 0855.05
2009/04/23 11:15:54.2     330     67    -14    337    338  78.4  -2.5  34250  291.10 0855.05
2009/04/23 11:15:54.3     355     81    148    365    393  77.1  23.2  34258  291.23 0855.05
2009/04/23 11:15:54.4     284     57    135    290    319  78.5  26.6  34248  291.07 0855.05
2009/04/23 11:15:54.5     235     93    131    253    284  68.3  29.3  34222  290.63 0855.05
2009/04/23 11:15:54.6     211     99    115    234    260  64.8  28.0  34224  290.66 0855.05
2009/04/23 11:15:54.7     309    127     23    335    336  67.7   4.0  34226  290.69 0855.05
2009/04/23 11:15:54.8     221    105    136    245    280  64.5  31.4  34208  290.39 0855.05
2009/04/23 11:15:54.9     216    137     87    256    271  57.6  18.9  34222  290.63 0855.05
2009/04/23 11:15:55.0     204    104    152    230    275  63.0  36.5  34242  290.97 0855.05
2009/04/23 11:15:55.1     163     26    126    166    208  80.8  41.2  34238  290.91 0855.05
2009/04/23 11:15:55.2     148     20     95    150    177  82.0  35.5  34238  290.89 0855.05
2009/04/23 11:15:55.3     128     81     71    152    167  57.5  27.0  34228  290.72 0855.05
2009/04/23 11:15:55.4     153    156     98    219    239  44.3  25.7  34226  290.68 0855.05
2009/04/23 11:15:55.5     170    121     93    209    228  54.5  25.7  34230  290.75 0855.05
2009/04/23 11:15:55.6     161    116     70    199    211  54.1  19.4  34230  290.75 0855.05
2009/04/23 11:15:55.7     169    158     27    232    234  46.8   6.9  34230  290.75 0855.06
2009/04/23 11:15:55.8     127    156     29    202    205  39.2   8.2  34232  290.79 0855.06
2009/04/23 11:15:56.0     114    144     36    184    188  38.3  11.1  34238  290.89 0855.06
2009/04/23 11:15:56.1     108    140     37    177    181  37.6  12.0  34242  290.98 0855.06
2009/04/23 11:15:56.1     147     35     49    152    160  76.3  18.1  34248  291.06 0855.06
2009/04/23 11:15:56.2     117     42     17    125    127  70.0   8.0  34248  291.06 0855.06
2009/04/23 11:15:56.3     104    -14     43    106    114  98.0  23.0  34248  291.08 0855.06
2009/04/23 11:15:56.4     169     40     66    174    186  76.5  22.0  34246  291.04 0855.06
2009/04/23 11:15:56.5     159     22     76    161    178  82.0  27.1  34250  291.09 0855.06
2009/04/23 11:15:56.6     145    -10     56    146    156  94.3  22.0  34252  291.15 0855.06
2009/04/23 11:15:56.7      97     -7     14     98    100  94.4   8.5  34252  291.13 0855.06
2009/04/23 11:15:56.8      91     30    -19     97     99  71.4 -11.5  34256  291.21 0855.06
2009/04/23 11:15:56.9      87      0     55     88    103  90.4  35.5  34268  291.40 0855.06
2009/04/23 11:15:57.0      58     15     65     61     89  75.0  51.6  34288  291.76 0855.06
2009/04/23 11:15:57.1      57     11     56     59     81  78.6  48.5  34296  291.88 0855.06
2009/04/23 11:15:57.2      95     36     72    102    124  69.2  38.6  34292  291.83 0855.06
2009/04/23 11:15:57.3      86     78     84    117    144  47.8  39.5  34282  291.64 0855.06
2009/04/23 11:15:57.4     105     43    121    114    166  67.8  51.6  34290  291.79 0855.06
2009/04/23 11:15:57.5      94     39    106    102    147  67.4  51.2  34290  291.79 0855.06
2009/04/23 11:15:57.6      43     47     87     64    108  42.3  60.0  34294  291.86 0855.06
2009/04/23 11:15:57.7      59     85     84    104    133  34.7  43.7  34288  291.76 0855.07
2009/04/23 11:15:57.8     124    105     95    163    188  49.6  32.9  34282  291.64 0855.07
2009/04/23 11:15:57.9     140     97     75    171    186  55.1  25.3  34284  291.69 0855.07
2009/04/23 11:15:58.1     120     81     31    146    150  55.9  12.2  34288  291.74 0855.07
2009/04/23 11:15:58.1      99    105     39    145    151  43.2  15.3  34290  291.77 0855.07
2009/04/23 11:15:58.3      88    103     70    136    152  40.5  29.3  34294  291.84 0855.07
2009/04/23 11:15:58.4      95     74     36    121    127  52.2  16.8  34296  291.88 0855.07
2009/04/23 11:15:58.5      99     66     22    120    123  56.3  10.6  34296  291.88 0855.07
2009/04/23 11:15:58.6     125     38     30    131    135  72.7  13.2  34300  291.96 0855.07
2009/04/23 11:15:58.7     120     55     97    133    164  65.2  39.7  34304  292.01 0855.07
2009/04/23 11:15:58.8     137     27    109    140    177  78.5  42.0  34302  292.00 0855.07
2009/04/23 11:15:58.9     188     47     99    194    217  75.8  29.2  34290  291.79 0855.07
2009/04/23 11:15:59.0     188     69     96    201    222  69.8  27.2  34280  291.60 0855.07
2009/04/23 11:15:59.1     164    102     74    194    207  58.0  21.7  34276  291.55 0855.07
2009/04/23 11:15:59.2     187     71    113    201    230  69.2  31.6  34284  291.69 0855.07
2009/04/23 11:15:59.3     252     30    129    254    284  83.0  29.1  34276  291.53 0855.07
2009/04/23 11:15:59.4     191     22    102    193    218  83.4  30.1  34278  291.59 0855.07
2009/04/23 11:15:59.5     182     32     48    185    192  79.9  14.7  34282  291.64 0855.07
2009/04/23 11:15:59.6     188     13     51    189    196  85.9  15.3  34280  291.60 0855.07
2009/04/23 11:15:59.7     174      0     85    175    194  90.0  27.4  34274  291.52 0855.07
2009/04/23 11:15:59.8     160     23    126    162    205  81.6  42.0  34284  291.69 0855.09
2009/04/23 11:15:59.9     150     21    196    152    248  82.0  58.4  34282  291.64 0855.09
2009/04/23 11:16:00.0     178     41     22    183    185  77.0   7.1  34270  291.43 0855.09
2009/04/23 11:16:00.1     159      3     56    160    170  88.7  19.6  34264  291.35 0855.09
2009/04/23 11:16:00.2     189     23     67    191    202  83.0  20.0  34278  291.59 0855.09
2009/04/23 11:16:00.3     184     16    109    185    214  84.8  33.5  34270  291.43 0855.09
2009/04/23 11:16:00.4     238     40    124    242    271  80.3  29.3  34252  291.12 0855.09
2009/04/23 11:16:00.5     178     39      2    183    184  77.4   0.8  34232  290.81 0855.09
2009/04/23 11:16:00.6     135      4     42    136    143  88.3  17.3  34244  290.99 0855.09
2009/04/23 11:16:00.7     143     11     69    144    159  85.6  27.4  34254  291.16 0855.09
2009/04/23 11:16:00.8      52     30     66     61     89  60.2  52.2  34264  291.33 0855.09
2009/04/23 11:16:00.9      80      4     85     81    117  86.5  51.2  34258  291.25 0855.09
2009/04/23 11:16:01.0      72     40     55     83     99  60.7  36.5  34252  291.13 0855.09
2009/04/23 11:16:01.1      61     40     63     74     97  56.7  44.8  34254  291.16 0855.09
2009/04/23 11:16:01.2     147    131     51    198    205  48.2  14.7  34250  291.09 0855.09
2009/04/23 11:16:01.3     180    113     89    213    230  57.8  23.8  34276  291.54 0855.09
2009/04/23 11:16:01.4      73     17    119     76    141  76.7  64.7  34282  291.64 0855.09
2009/04/23 11:16:01.5     170      8     88    171    192  87.2  29.1  34266  291.37 0855.09
2009/04/23 11:16:01.6      95    -22     32     98    104 103.3  18.4  34260  291.26 0855.09
2009/04/23 11:16:01.7     139     10     51    140    149  85.6  20.9  34260  291.26 0855.09
2009/04/23 11:16:01.8     163    -11    116    164    200  93.9  38.8  34258  291.25 0855.10
2009/04/23 11:16:01.9     188     14     92    189    210  85.6  27.4  34262  291.32 0855.10
2009/04/23 11:16:02.0     112      0     94    113    146  90.0  43.8  34268  291.40 0855.10
2009/04/23 11:16:02.1     113     23    107    116    157  78.5  47.7  34274  291.50 0855.10
2009/04/23 11:16:02.2      68     46    103     83    132  55.8  56.4  34286  291.72 0855.10
2009/04/23 11:16:02.3      75     43     88     87    123  60.2  50.1  34282  291.66 0855.10
2009/04/23 11:16:02.4      29     -5     71     30     77 101.5  77.0  34290  291.77 0855.10
2009/04/23 11:16:02.5     -41     38     47     57     73 313.1  43.8  34292  291.81 0855.10
2009/04/23 11:16:02.6     -46     53     30     71     77 319.5  23.1  34270  291.45 0855.10
2009/04/23 11:16:02.7      27     39    -16     48     50  34.3 -23.6  34276  291.54 0855.10
2009/04/23 11:16:02.8     128     11    103    129    165  84.8  42.7  34284  291.69 0855.10
2009/04/23 11:16:02.9     110     53    164    123    205  64.2  59.4  34294  291.86 0855.10
2009/04/23 11:16:03.0      51     36    140     63    153  54.9  74.5  34300  291.96 0855.10
2009/04/23 11:16:03.1      97     48    170    109    201  63.4  64.6  34288  291.76 0855.10
2009/04/23 11:16:03.2     111     48    150    122    193  66.5  56.4  34284  291.67 0855.10
2009/04/23 11:16:03.3      22     47     83     53     98  25.5  64.6  34294  291.86 0855.10
2009/04/23 11:16:03.4      18     31     73     37     81  30.7  71.4  34304  292.01 0855.10
2009/04/23 11:16:03.5       8      3     63      9     63  64.7  90.0  34310  292.12 0855.10
2009/04/23 11:16:03.6      16      0     38     17     41  90.0  75.0  34308  292.10 0855.10
2009/04/23 11:16:03.7     -30    -38     40     49     63 218.7  43.7  34304  292.01 0855.10
2009/04/23 11:16:03.8     -15    -58     58     61     84 195.2  49.0  34286  291.72 0855.11
2009/04/23 11:16:03.9       9    -49     82     50     96 169.3  65.1  34290  291.79 0855.11
2009/04/23 11:16:04.0      32    -80     66     87    109 158.2  41.2  34288  291.76 0855.11
2009/04/23 11:16:04.1     -14    -80     82     82    115 190.2  50.1  34288  291.76 0855.11
2009/04/23 11:16:04.2     -52    -32     91     62    110 238.5  62.6  34292  291.83 0855.11
2009/04/23 11:16:04.3     -33    -24     56     42     70 234.0  59.4  34286  291.71 0855.11
2009/04/23 11:16:04.4     -87    -31     70     93    116 250.0  40.7  34286  291.71 0855.11
2009/04/23 11:16:04.5     -42    -95     92    105    139 204.1  45.8  34278  291.57 0855.11
2009/04/23 11:16:04.6      -2   -108     71    109    130 181.4  36.0  34252  291.13 0855.11
2009/04/23 11:16:04.7       4   -129     66    130    145 178.2  29.2  34246  291.04 0855.11
2009/04/23 11:16:04.8      -6   -129     75    130    150 182.7  32.4  34234  290.82 0855.11
2009/04/23 11:16:04.9     -10   -125    100    126    160 184.9  42.7  34246  291.03 0855.11
2009/04/23 11:16:05.0     -35   -110     96    116    150 197.8  43.8  34256  291.21 0855.11
2009/04/23 11:16:05.1     -51   -107     80    119    143 205.4  37.0  34254  291.18 0855.11
2009/04/23 11:16:05.2     -56    -97     82    113    139 209.9  39.7  34264  291.33 0855.11
2009/04/23 11:16:05.3     -77    -92     61    121    135 220.1  28.7  34270  291.43 0855.11
2009/04/23 11:16:05.4     -51    -88     54    102    115 210.3  30.3  34246  291.03 0855.11
2009/04/23 11:16:05.5     -51   -104     41    116    124 206.3  19.4  34242  290.98 0855.11
2009/04/23 11:16:05.6     -52   -111     13    123    124 205.4   6.5  34250  291.09 0855.11
2009/04/23 11:16:05.7     -74    -67     27    100    104 227.8  15.3  34264  291.35 0855.11
2009/04/23 11:16:05.8     -92    -55     45    108    117 239.3  23.1  34272  291.47 0855.12
2009/04/23 11:16:05.9     -84    -88     38    123    129 223.7  17.3  34266  291.38 0855.12
2009/04/23 11:16:06.0     -95    -79     60    124    137 230.4  27.3  34272  291.49 0855.12
2009/04/23 11:16:06.1     -82    -71     57    109    123 229.1  29.3  34276  291.54 0855.12
2009/04/23 11:16:06.2     -79    -57     36     98    104 234.0  20.4  34274  291.52 0855.12
2009/04/23 11:16:06.3     -62    -21     35     66     74 250.9  30.3  34270  291.45 0855.12
2009/04/23 11:16:06.4     -41    -36     37     55     66 228.7  36.5  34264  291.35 0855.12
2009/04/23 11:16:06.5     -40    -26     17     49     53 236.7  19.4  34254  291.16 0855.12
2009/04/23 11:16:06.6     -15    -17     18     23     29 221.4  43.7  34246  291.03 0855.12
2009/04/23 11:16:06.7       6     -6     16      9     18 135.0  68.8  34268  291.42 0855.12
2009/04/23 11:16:06.8      21      7     36     23     42  70.0  64.7  34276  291.55 0855.12
2009/04/23 11:16:06.9      38    -12     52     40     65 107.7  58.5  34270  291.43 0855.12
2009/04/23 11:16:07.0       2    -46     72     47     85 176.4  64.1  34270  291.43 0855.12
2009/04/23 11:16:07.1      -2    -66     72     67     98 181.8  52.2  34252  291.15 0855.12
2009/04/23 11:16:07.2       0    -50     62     51     80 180.0  56.4  34246  291.03 0855.12
2009/04/23 11:16:07.3       3    -48     64     49     80 176.4  59.0  34234  290.82 0855.12
2009/04/23 11:16:07.4     -19    -58     62     62     87 198.5  50.1  34234  290.82 0855.12
2009/04/23 11:16:07.5     -37    -32     51     50     71 228.7  50.1  34238  290.89 0855.12
2009/04/23 11:16:07.6     -45    -19     24     50     55 246.5  27.3  34234  290.84 0855.12
2009/04/23 11:16:07.7     -31    -15     14     35     37 242.9  21.0  34234  290.84 0855.12
2009/04/23 11:16:07.8      -7    -26     14     27     30 195.1  29.3  34238  290.91 0855.14
2009/04/23 11:16:07.9       0    -27     22     28     35 180.9  43.7  34236  290.87 0855.14
2009/04/23 11:16:08.0      26    -45     -2     53     54 150.1  -2.2  34236  290.86 0855.14
2009/04/23 11:16:08.1      14    -44     22     47     51 161.7  27.1  34226  290.70 0855.14
2009/04/23 11:16:08.2      24    -51     38     57     68 154.5  35.6  34224  290.67 0855.14
2009/04/23 11:16:08.3       3    -50     33     51     60 175.5  35.6  34228  290.74 0855.14
2009/04/23 11:16:08.4       1    -35     29     36     46 177.3  42.7  34234  290.84 0855.14
2009/04/23 11:16:08.5      13    -40     34     43     54 161.5  42.7  34228  290.72 0855.14
2009/04/23 11:16:08.6      33    -29     26     45     51 131.3  32.4  34226  290.69 0855.14
2009/04/23 11:16:08.7      33      0     43     34     54  90.0  57.5  34224  290.65 0855.14
2009/04/23 11:16:08.8      37    -14     56     40     68 111.7  60.6  34238  290.89 0855.14
2009/04/23 11:16:08.9       2     48     49     49     69   2.7  50.1  34254  291.18 0855.14
2009/04/23 11:16:09.0      -6     30     56     31     64 348.4  68.8  34260  291.26 0855.14
2009/04/23 11:16:09.1      -8    -22     24     24     33 200.0  50.1  34238  290.89 0855.14
2009/04/23 11:16:09.2     -13    -27      3     31     32 205.5   6.9  34248  291.06 0855.14
2009/04/23 11:16:09.3     -23    -19    -17     30     34 230.5 -35.8  34254  291.16 0855.14
2009/04/23 11:16:09.4     -75    -36    -26     84     89 244.2 -17.6  34260  291.28 0855.14
2009/04/23 11:16:09.5     -40    -64    -47     76     89 212.6 -39.4  34272  291.49 0855.14
2009/04/23 11:16:09.6       0      0    -87      1     87 270.0 -90.0  34288  291.76 0855.14
2009/04/23 11:16:09.7       0      7    -95      8     95 357.3 -90.0  34284  291.69 0855.14
2009/04/23 11:16:09.8     -39    -12   -120     41    126 252.3 -85.6  34266  291.37 0855.16
2009/04/23 11:16:09.9     -24    -72    -91     77    119 198.7 -59.8  34256  291.21 0855.16
2009/04/23 11:16:10.0      94    -75    -54    121    132 128.6 -29.6  34262  291.32 0855.16
2009/04/23 11:16:10.1     142    -32    -95    146    174 102.8 -40.1  34262  291.30 0855.16
2009/04/23 11:16:10.2     127    -58    -45    140    147 114.8 -23.8  34254  291.18 0855.16
2009/04/23 11:16:10.3     101      0    -41    102    109  90.0 -27.4  34264  291.33 0855.16
2009/04/23 11:16:10.4      75      3     -9     76     77  87.4  -7.2  34260  291.28 0855.16
2009/04/23 11:16:10.5      95     -5    -11     96     97  93.0  -6.7  34262  291.30 0855.16
2009/04/23 11:16:10.6     131    -64     47    146    154 116.2  17.9  34260  291.26 0855.16
2009/04/23 11:16:10.7     122    -94     75    155    172 127.8  27.4  34242  290.98 0855.16
2009/04/23 11:16:10.8     104    -27     81    108    135 105.0  40.7  34248  291.08 0855.16
2009/04/23 11:16:10.9     112     19    135    114    176  80.3  55.6  34258  291.23 0855.16
2009/04/23 11:16:11.0      72     46    140     86    164  57.5  65.4  34248  291.08 0855.16
2009/04/23 11:16:11.1      -1     67     75     68    101 359.1  52.7  34242  290.98 0855.16
2009/04/23 11:16:11.2      -1     80     33     81     87 359.1  23.0  34242  290.98 0855.16
2009/04/23 11:16:11.3     -44     28     -6     53     54 302.4  -7.3  34250  291.09 0855.16
2009/04/23 11:16:11.4     -27     -9     16     29     33 251.8  31.4  34258  291.25 0855.16
2009/04/23 11:16:11.5      -2    -58     59     59     83 182.7  50.1  34258  291.25 0855.16
2009/04/23 11:16:11.6     -13    -39     74     42     85 199.2  67.7  34256  291.20 0855.16
2009/04/23 11:16:11.7     -49    -59    100     77    126 219.7  58.5  34258  291.25 0855.16
2009/04/23 11:16:11.8     -88    -88    111    125    167 225.1  46.4  34272  291.49 0855.18
2009/04/23 11:16:11.9    -121   -116    132    169    214 226.2  42.0  34278  291.59 0855.18
2009/04/23 11:16:12.0    -104   -110     12    152    153 223.3   4.9  34274  291.52 0855.18
2009/04/23 11:16:12.1    -186    -87      7    206    207 244.8   2.1  34300  291.95 0855.18
2009/04/23 11:16:12.2    -186   -153    -31    242    244 230.5  -7.3  34272  291.48 0855.18
2009/04/23 11:16:12.3    -177   -125      8    217    218 234.7   2.3  34306  292.06 0855.18
2009/04/23 11:16:12.4     -89    -83     61    122    136 226.9  28.2  34276  291.54 0855.18
2009/04/23 11:16:12.5     -91   -134    107    163    194 214.2  36.0  34238  290.91 0855.18
2009/04/23 11:16:12.6    -108   -106    109    152    187 225.6  39.5  34230  290.77 0855.18
2009/04/23 11:16:12.7    -101   -122    158    159    224 219.6  50.0  34254  291.16 0855.18
2009/04/23 11:16:12.8     -53   -110    110    123    165 205.9  46.6  34266  291.38 0855.18
2009/04/23 11:16:12.9     -76    -92     62    120    135 219.6  29.3  34288  291.76 0855.18
2009/04/23 11:16:13.0     -81    -52     51     97    109 237.1  30.3  34286  291.72 0855.18
2009/04/23 11:16:13.1     -84    -84     54    120    131 225.1  26.2  34296  291.89 0855.18
2009/04/23 11:16:13.2     -68   -115     -5    134    135 210.8  -2.2  34280  291.62 0855.18
2009/04/23 11:16:13.3     -78    -99     -4    127    128 218.3  -2.2  34280  291.62 0855.18
2009/04/23 11:16:13.4    -104   -135     56    171    180 217.8  18.1  34270  291.45 0855.18
2009/04/23 11:16:13.5    -106   -160     41    193    198 213.6  12.2  34272  291.49 0855.18
2009/04/23 11:16:13.6    -110   -109     40    156    162 225.4  14.5  34278  291.57 0855.18
2009/04/23 11:16:13.7    -102   -161     57    191    200 212.5  16.6  34312  292.15 0855.18
2009/04/23 11:16:13.8    -124   -171     90    212    230 216.1  24.6  34290  291.79 0855.19
2009/04/23 11:16:13.9    -135   -215     61    254    262 212.1  13.5  34222  290.63 0855.19
2009/04/23 11:16:14.0    -136   -233     59    271    278 210.3  12.4  34224  290.66 0855.19
2009/04/23 11:16:14.1    -148   -236     61    279    286 212.1  12.4  34236  290.87 0855.19
2009/04/23 11:16:14.2    -131   -248     61    281    288 208.0  12.4  34256  291.19 0855.19
2009/04/23 11:16:14.3    -128   -251     65    282    290 207.1  13.1  34240  290.93 0855.19
2009/04/23 11:16:14.4     -84   -269     77    282    293 197.4  15.3  34240  290.93 0855.19
2009/04/23 11:16:14.5     -43   -276     50    280    285 188.9  10.1  34222  290.63 0855.19
2009/04/23 11:16:14.6     -30   -243     81    245    259 187.2  18.4  34224  290.65 0855.19
2009/04/23 11:16:14.7     -10   -274     86    275    289 182.2  17.4  34230  290.76 0855.19
2009/04/23 11:16:14.8      -8   -273    128    274    302 181.8  27.1  34222  290.63 0855.19
2009/04/23 11:16:14.9      38   -271    125    274    301 172.0  26.2  34216  290.53 0855.19
2009/04/23 11:16:15.0      34   -311    131    313    339 173.7  24.1  34214  290.49 0855.19
2009/04/23 11:16:15.1     115   -309     91    330    343 159.5  15.4  34210  290.42 0855.19
2009/04/23 11:16:15.2      97   -350     53    364    368 164.5   8.3  34218  290.55 0855.19
2009/04/23 11:16:15.3     124   -316     48    340    344 158.5   8.1  34214  290.49 0855.19
2009/04/23 11:16:15.4      75   -306     96    316    331 166.2  17.0  34214  290.48 0855.19
2009/04/23 11:16:15.5      91   -268     69    284    293 161.3  13.7  34212  290.46 0855.19
2009/04/23 11:16:15.6      61   -275     66    282    290 167.5  13.2  34218  290.54 0855.19
2009/04/23 11:16:15.7      34   -273    125    276    302 172.9  26.2  34224  290.65 0855.19
2009/04/23 11:16:15.8       0   -229     81    230    244 179.8  19.4  34226  290.68 0855.19
2009/04/23 11:16:15.9     -28   -202     69    205    217 188.0  18.6  34220  290.60 0855.19
2009/04/23 11:16:16.0     -78   -236     12    249    250 198.5   2.9  34222  290.63 0855.19
2009/04/23 11:16:16.1     -56   -237     52    244    250 193.4  12.0  34226  290.68 0855.19
2009/04/23 11:16:16.2     -37   -221     43    225    230 189.6  11.0  34220  290.58 0855.19
2009/04/23 11:16:16.3     -28   -270     44    272    276 186.0   9.3  34224  290.66 0855.19
2009/04/23 11:16:16.4      14   -224     30    225    228 176.4   7.8  34226  290.69 0855.19
2009/04/23 11:16:16.5      -2   -232     42    233    237 180.5  10.3  34228  290.71 0855.19
2009/04/23 11:16:16.6     -42   -250     39    254    258 189.7   8.9  34226  290.68 0855.19
2009/04/23 11:16:16.7       6   -217    109    218    243 178.2  28.5  34218  290.56 0855.19
2009/04/23 11:16:16.8      59   -180     77    190    205 161.7  23.1  34218  290.55 0855.20
2009/04/23 11:16:16.9      75   -179     97    195    217 157.3  28.5  34216  290.52 0855.20
2009/04/23 11:16:17.0      68   -151    102    166    194 155.7  35.0  34214  290.50 0855.20
2009/04/23 11:16:17.1      89   -115    104    146    179 142.2  39.3  34218  290.55 0855.20
2009/04/23 11:16:17.2      24   -170    107    172    202 171.8  35.2  34216  290.52 0855.20
2009/04/23 11:16:17.3      -4   -159    110    160    194 181.8  37.8  34218  290.57 0855.20
2009/04/23 11:16:17.4       4   -128     79    129    151 178.2  35.0  34220  290.60 0855.20
2009/04/23 11:16:17.5      10   -123     52    124    134 175.1  24.1  34220  290.60 0855.20
2009/04/23 11:16:17.6     -38   -146     43    151    158 194.7  16.0  34214  290.50 0855.20
2009/04/23 11:16:17.7     -11   -168      2    169    170 183.8   1.0  34222  290.62 0855.20
2009/04/23 11:16:17.8      -1   -158    -20    159    161 180.5  -7.5  34228  290.72 0855.20
2009/04/23 11:16:17.9      16   -148     -5    149    150 173.7  -2.2  34226  290.69 0855.20
2009/04/23 11:16:18.0       5   -129    -21    130    132 177.8  -9.4  34228  290.74 0855.20
2009/04/23 11:16:18.1      12   -118    -42    119    127 173.8 -19.6  34226  290.70 0855.20
2009/04/23 11:16:18.2      13   -166    -52    167    175 175.5 -17.3  34224  290.65 0855.20
2009/04/23 11:16:18.3     -19   -195    -38    196    200 185.6 -11.1  34230  290.75 0855.20
2009/04/23 11:16:18.4      27   -192     23    194    196 172.0   6.9  34228  290.72 0855.20
2009/04/23 11:16:18.5      55   -196     71    204    217 164.2  19.2  34226  290.70 0855.20
2009/04/23 11:16:18.6      60   -194     72    204    217 162.8  19.4  34228  290.74 0855.20
2009/04/23 11:16:18.7      58   -172     44    182    188 161.3  13.7  34232  290.79 0855.20
2009/04/23 11:16:18.8      59   -164     35    175    179 160.0  11.6  34234  290.82 0855.21
2009/04/23 11:16:18.9      50   -164     10    172    173 162.8   3.6  34232  290.79 0855.21
2009/04/23 11:16:19.0      78   -141     56    162    172 151.0  19.2  34224  290.67 0855.21
2009/04/23 11:16:19.1      64   -137     52    152    161 154.7  18.9  34220  290.58 0855.21
2009/04/23 11:16:19.2      40   -173     -3    178    179 166.9  -1.3  34228  290.74 0855.21
2009/04/23 11:16:19.3      47   -184      5    191    192 165.5   1.6  34228  290.74 0855.21
2009/04/23 11:16:19.4      33   -172     -8    176    177 169.1  -2.6  34224  290.65 0855.21
2009/04/23 11:16:19.5     -19   -218    -61    219    227 185.1 -20.0  34208  290.38 0855.21
2009/04/23 11:16:19.6      -3   -244    -63    245    254 180.9 -14.5  34208  290.39 0855.21
2009/04/23 11:16:19.7       2   -173    -15    174    175 179.1  -5.2  34204  290.31 0855.21
2009/04/23 11:16:19.8      45   -171     30    177    180 165.1   9.9  34210  290.41 0855.21
2009/04/23 11:16:19.9      79   -147     62    168    179 151.7  21.3  34216  290.53 0855.21
2009/04/23 11:16:20.0      16   -119     85    121    147 172.0  38.6  34220  290.58 0855.21
2009/04/23 11:16:20.1      16   -118     84    120    146 172.0  38.6  34222  290.62 0855.21
2009/04/23 11:16:20.2     -15   -187     50    188    195 184.9  15.0  34210  290.41 0855.21
2009/04/23 11:16:20.3     -37   -175     43    179    185 192.0  13.5  34210  290.41 0855.21
2009/04/23 11:16:20.4     -62   -176     69    187    199 199.4  21.0  34212  290.45 0855.21
2009/04/23 11:16:20.5     -49   -207     -8    213    214 193.4  -2.2  34212  290.45 0855.21
2009/04/23 11:16:20.6    -124   -180    -39    219    223 214.5 -10.3  34210  290.43 0855.21
2009/04/23 11:16:20.7     -84    -91    -47    125    133 222.8 -25.4  34210  290.43 0855.21
2009/04/23 11:16:20.8     -94   -148      1    176    177 212.5   0.5  34210  290.41 0855.22
2009/04/23 11:16:20.9     -94   -123    -19    155    157 217.4  -7.2  34208  290.38 0855.22
2009/04/23 11:16:21.0    -138   -128     49    189    196 227.3  14.7  34208  290.38 0855.22
2009/04/23 11:16:21.1    -171   -252    -11    305    306 214.3  -2.2  34210  290.41 0855.22
2009/04/23 11:16:21.2    -140   -264    -51    299    304 208.0  -9.8  34210  290.42 0855.22
2009/04/23 11:16:21.3    -169   -254    -16    306    307 213.6  -3.1  34206  290.36 0855.22
2009/04/23 11:16:21.4    -120   -243    -14    272    273 206.3  -3.1  34208  290.37 0855.22
2009/04/23 11:16:21.5    -132   -261      6    293    294 207.0   1.2  34204  290.32 0855.22
2009/04/23 11:16:21.6    -149   -261     -9    301    302 209.8  -1.8  34204  290.32 0855.22
2009/04/23 11:16:21.7     -76   -224     37    237    240 198.9   9.0  34210  290.41 0855.22
2009/04/23 11:16:21.8    -131   -147     13    198    199 221.7   3.8  34212  290.45 0855.22
2009/04/23 11:16:21.9       0   -170     32    171    175 180.2  10.8  34214  290.48 0855.22
2009/04/23 11:16:22.0     -14    -99    -23    101    104 188.0 -12.9  34210  290.41 0855.22
2009/04/23 11:16:22.1     -63   -179     36    190    194 199.4  11.0  34212  290.45 0855.22
2009/04/23 11:16:22.2     -83   -255     44    269    273 198.0   9.3  34214  290.48 0855.22
2009/04/23 11:16:22.3    -103   -358    -40    373    376 196.0  -6.2  34208  290.40 0855.22
2009/04/23 11:16:22.4     -97   -310    -15    325    326 197.4  -2.7  34208  290.37 0855.22
2009/04/23 11:16:22.5     -17   -324     41    325    328 183.0   7.2  34210  290.41 0855.22
2009/04/23 11:16:22.6    -159   -364     85    398    408 203.6  12.1  34206  290.34 0855.22
2009/04/23 11:16:22.7    -153   -286     65    325    332 208.2  11.3  34208  290.37 0855.22
2009/04/23 11:16:22.8     -12   -195     96    196    218 183.8  28.0  34212  290.45 0855.23
2009/04/23 11:16:22.9       2   -238    124    239    269 179.5  29.3  34210  290.42 0855.23
2009/04/23 11:16:23.0      68   -257     78    266    278 165.1  16.3  34216  290.51 0855.23
2009/04/23 11:16:23.1      78   -146    -32    166    170 151.7 -10.9  34214  290.50 0855.23
2009/04/23 11:16:23.2     103    -18     53    105    117 100.1  28.7  34218  290.57 0855.23
2009/04/23 11:16:23.3      -7   -100    100    101    142 184.5  50.0  34208  290.40 0855.23
2009/04/23 11:16:23.4     -28   -110     55    114    126 194.3  27.3  34214  290.50 0855.23
2009/04/23 11:16:23.5      96    -43     68    106    125 114.0  35.6  34220  290.58 0855.23
2009/04/23 11:16:23.6     -31   -153    114    157    194 191.5  39.5  34218  290.57 0855.23
2009/04/23 11:16:23.7       6   -136    108    137    174 177.4  42.4  34218  290.57 0855.23
2009/04/23 11:16:23.8      34   -143     24    147    150 166.6   9.5  34216  290.53 0855.23
2009/04/23 11:16:23.9      51   -133     27    143    146 159.1  11.0  34212  290.45 0855.23
2009/04/23 11:16:24.0      49    -94     14    107    108 152.4   7.5  34214  290.50 0855.23
2009/04/23 11:16:24.1      53    -60     11     81     82 138.6   8.0  34212  290.47 0855.23
2009/04/23 11:16:24.2      81    -97     82    127    151 139.9  35.6  34214  290.48 0855.23
2009/04/23 11:16:24.3      64    -90    146    111    183 144.8  59.2  34216  290.52 0855.23
2009/04/23 11:16:24.4      94    -89     29    130    134 133.6  12.6  34210  290.43 0855.23
2009/04/23 11:16:24.5      82    -91      0    123    124 138.1   0.2  34210  290.43 0855.23
2009/04/23 11:16:24.6      33     29    -21     45     49  48.7 -31.6  34208  290.40 0855.23
2009/04/23 11:16:24.7      -7     32    -42     33     53 346.6 -60.8  34208  290.40 0855.23
2009/04/23 11:16:24.8     -31      6    -38     32     49 281.5 -60.7  34208  290.40 0855.23
2009/04/23 11:16:24.9     -68     46     20     83     86 304.2  13.7  34212  290.47 0855.23
2009/04/23 11:16:25.0    -128    -71     66    147    161 241.1  25.7  34206  290.36 0855.23
2009/04/23 11:16:25.1     -93   -194    100    216    238 205.6  26.6  34196  290.18 0855.23
2009/04/23 11:16:25.2     -72    -95      2    120    121 217.0   1.2  34204  290.31 0855.23
2009/04/23 11:16:25.3    -155   -109     31    190    193 234.9   9.5  34212  290.47 0855.23
2009/04/23 11:16:25.5    -198    -73    109    212    238 249.6  29.3  34220  290.60 0855.23
2009/04/23 11:16:25.6    -216      9    139    217    257 272.5  35.6  34246  291.04 0855.23
2009/04/23 11:16:25.7    -173     26     50    175    183 278.6  16.0  34240  290.94 0855.23
2009/04/23 11:16:25.8    -204      4     95    205    225 271.3  27.1  34236  290.87 0855.23
2009/04/23 11:16:25.9    -180    -26     97    182    206 261.6  30.1  34234  290.84 0855.23
2009/04/23 11:16:26.0    -127    -92     84    158    178 234.0  30.6  34232  290.81 0855.23
2009/04/23 11:16:26.1    -134   -133     28    190    193 225.2   8.5  34228  290.74 0855.23
2009/04/23 11:16:26.2      56   -169    118    179    214 161.5  36.3  34206  290.35 0855.23
2009/04/23 11:16:26.3      64   -196    181    207    274 162.0  45.8  34180  289.90 0855.23
2009/04/23 11:16:26.4    -129   -274    129    304    330 205.3  24.3  34170  289.75 0855.23
2009/04/23 11:16:26.5     -74   -303    105    312    330 193.8  18.6  34168  289.71 0855.23
2009/04/23 11:16:26.6     -45   -266     76    270    281 189.7  15.8  34172  289.78 0855.23
2009/04/23 11:16:26.7     -42   -160     15    166    167 194.9   5.2  34176  289.84 0855.23
2009/04/23 11:16:26.8     -23    -76      0     80     81 196.9   0.2  34178  289.87 0855.23
2009/04/23 11:16:26.9       2   -135    122    136    182 179.1  46.9  34178  289.87 0855.24
2009/04/23 11:16:27.0     -90   -205     91    224    241 203.7  23.1  34180  289.90 0855.24
2009/04/23 11:16:27.1     -71   -215    177    227    287 198.5  41.7  34178  289.86 0855.24
2009/04/23 11:16:27.2    -148   -362    166    392    425 202.2  24.3  34172  289.78 0855.24
2009/04/23 11:16:27.3    -180   -371    120    413    431 206.0  16.3  34184  289.99 0855.24
2009/04/23 11:16:27.4    -161   -386     84    419    428 202.7  11.4  34182  289.94 0855.24
2009/04/23 11:16:27.5    -215   -280     44    354    357 217.5   7.2  34178  289.87 0855.24
2009/04/23 11:16:27.6    -205   -258    -18    330    331 218.5  -3.1  34172  289.77 0855.24
2009/04/23 11:16:27.7    -123   -235    -73    266    276 207.6 -15.4  34174  289.81 0855.24
2009/04/23 11:16:27.8     -84   -213     -5    230    231 201.6  -1.3  34174  289.80 0855.24
2009/04/23 11:16:27.9     -27   -358    -23    359    360 184.4  -3.7  34182  289.96 0855.24
2009/04/23 11:16:28.0     -25   -331     73    333    341 184.5  12.4  34168  289.72 0855.24
2009/04/23 11:16:28.1     -47   -234    144    239    279 191.6  33.7  34180  289.90 0855.24
2009/04/23 11:16:28.2    -151   -330    138    364    389 204.6  21.8  34186  290.01 0855.24
2009/04/23 11:16:28.3    -147   -265    119    304    326 209.0  22.5  34214  290.49 0855.24
2009/04/23 11:16:28.4    -129   -218    140    254    290 210.7  31.4  34202  290.27 0855.24
2009/04/23 11:16:28.5      53   -308    165    313    353 170.2  30.0  34178  289.89 0855.24
2009/04/23 11:16:28.6     -23   -354    114    355    373 183.7  17.8  34188  290.03 0855.24
2009/04/23 11:16:28.7      20   -385    143    386    411 177.0  21.3  34190  290.09 0855.24
2009/04/23 11:16:28.8      -1   -370     35    371    373 180.3   5.4  34172  289.79 0855.24
2009/04/23 11:16:28.9    -152   -401    109    429    443 200.8  14.3  34184  289.99 0855.24
2009/04/23 11:16:29.0     -42   -422     99    425    437 185.7  13.1  34190  290.07 0855.24
2009/04/23 11:16:29.1    -107   -420    -39    434    436 194.4  -5.2  34182  289.94 0855.24
2009/04/23 11:16:29.2       0   -448     -9    449    450 180.0  -1.3  34186  290.02 0855.24
2009/04/23 11:16:29.3      52   -470    -10    473    474 173.7  -1.3  34196  290.18 0855.24
2009/04/23 11:16:29.4      88   -485     69    494    499 169.7   8.0  34190  290.08 0855.24
2009/04/23 11:16:29.5     154   -503     74    527    533 163.0   8.0  34198  290.23 0855.24
2009/04/23 11:16:29.6     191   -597    133    627    642 162.2  12.0  34192  290.11 0855.24
2009/04/23 11:16:29.7     167   -583     46    607    609 164.0   4.4  34182  289.95 0855.24
2009/04/23 11:16:29.8     -30   -392    231    394    456 184.5  33.1  34184  289.99 0855.24
2009/04/23 11:16:29.9     145   -440    212    464    510 161.7  26.2  34190  290.08 0855.24
2009/04/23 11:16:30.0     190   -319    230    372    437 149.3  34.8  34186  290.02 0855.24
2009/04/23 11:16:30.1     163   -197    168    256    306 140.4  36.3  34184  289.97 0855.24
2009/04/23 11:16:30.2     219   -122    124    251    279 119.1  28.2  34182  289.93 0855.24
2009/04/23 11:16:30.3     217      9    105    218    241  87.4  27.4  34174  289.81 0855.24
2009/04/23 11:16:30.4     156     26    131    159    206  80.3  43.7  34184  289.99 0855.24
2009/04/23 11:16:30.5     173    -13     82    174    192  94.4  27.1  34190  290.09 0855.24
2009/04/23 11:16:30.6     120    -94    135    153    204 128.2  45.9  34200  290.26 0855.24
2009/04/23 11:16:30.7      51   -108     76    120    142 154.7  35.5  34190  290.09 0855.24
2009/04/23 11:16:30.8     100    -68     80    122    145 124.2  36.0  34190  290.09 0855.24
2009/04/23 11:16:30.9      47      0    125     48    133  90.0  78.6  34204  290.33 0855.24
2009/04/23 11:16:31.0     -25    -53     65     59     87 205.3  52.7  34208  290.40 0855.24
2009/04/23 11:16:31.1     -36   -168    168    172    240 192.3  49.8  34196  290.18 0855.24
2009/04/23 11:16:31.2     -82   -171    181    190    262 205.6  48.7  34204  290.31 0855.24
2009/04/23 11:16:31.3     -49   -141    189    150    241 199.2  57.5  34208  290.38 0855.24
2009/04/23 11:16:31.4     -60   -198    133    208    246 196.9  35.6  34194  290.15 0855.24
2009/04/23 11:16:31.5    -101   -153    143    184    233 213.6  41.7  34194  290.16 0855.24
2009/04/23 11:16:31.6    -122   -154    100    197    220 218.5  29.1  34190  290.09 0855.24
2009/04/23 11:16:31.7    -106   -137    123    174    213 217.6  38.6  34186  290.01 0855.24
2009/04/23 11:16:31.8     -82   -167    131    187    228 206.1  38.6  34184  289.99 0855.24
2009/04/23 11:16:31.9      13    -85    115     87    144 171.1  59.4  34192  290.11 0855.24
2009/04/23 11:16:32.0     195    -31    222    198    297  99.2  53.7  34198  290.22 0855.24
2009/04/23 11:16:32.1      35    -41    126     54    137 139.5  75.5  34206  290.36 0855.24
2009/04/23 11:16:32.2     -11    -36    150     38    154 198.3  85.4  34206  290.36 0855.24
2009/04/23 11:16:32.3      26     59     41     65     76  24.5  35.5  34206  290.35 0855.24
2009/04/23 11:16:32.4     -34    -35     14     49     52 224.2  16.3  34204  290.31 0855.24
2009/04/23 11:16:32.5     -42    -71     82     83    116 211.2  50.5  34198  290.23 0855.24
2009/04/23 11:16:32.6    -185    -65     90    197    216 250.7  26.2  34204  290.31 0855.24
2009/04/23 11:16:32.7     -71   -211    -12    223    224 198.7  -3.3  34178  289.89 0855.24
2009/04/23 11:16:32.8    -103   -244     19    265    266 202.9   4.2  34176  289.85 0855.24
2009/04/23 11:16:32.9     -77   -255     21    267    268 196.9   4.6  34188  290.03 0855.24
2009/04/23 11:16:33.0     -62   -207     85    217    233 196.7  22.5  34184  289.99 0855.24
2009/04/23 11:16:33.1     -75   -166    107    183    211 204.3  33.4  34194  290.14 0855.24
2009/04/23 11:16:33.2     -49   -184    124    191    227 194.9  35.6  34178  289.89 0855.24
2009/04/23 11:16:33.3      48   -312    180    316    363 171.1  32.3  34192  290.11 0855.24
2009/04/23 11:16:33.4      54   -208    219    215    306 165.3  50.4  34204  290.31 0855.24
2009/04/23 11:16:33.5      -8   -135    174    136    220 183.6  58.2  34198  290.23 0855.24
2009/04/23 11:16:33.6     155    -82    145    176    228 118.0  43.7  34204  290.31 0855.24
2009/04/23 11:16:33.7      82    -60    158    102    188 126.4  64.6  34204  290.31 0855.24
2009/04/23 11:16:33.8     102   -181    110    208    235 150.6  30.2  34190  290.08 0855.24
2009/04/23 11:16:33.9      31   -219    154    222    270 171.8  38.0  34192  290.10 0855.24
2009/04/23 11:16:34.0      38   -244    159    248    294 171.1  35.6  34190  290.07 0855.24
2009/04/23 11:16:34.1      23   -252    146    254    292 174.7  32.4  34188  290.03 0855.24
2009/04/23 11:16:34.2       2   -308    131    309    335 179.5  24.3  34192  290.12 0855.24
2009/04/23 11:16:34.3      13   -280     96    281    298 177.3  18.9  34194  290.15 0855.24
2009/04/23 11:16:34.4      -5   -276     54    277    283 181.1  11.1  34196  290.17 0855.24
2009/04/23 11:16:34.5      16   -211     74    212    225 175.6  19.4  34190  290.08 0855.24
2009/04/23 11:16:34.6       2   -136     91    137    164 179.1  36.7  34186  290.02 0855.24
2009/04/23 11:16:34.7     -27    -82    102     87    134 198.7  55.4  34182  289.96 0855.24
2009/04/23 11:16:34.8     -23    -77     39     81     89 196.9  27.3  34188  290.06 0855.24
2009/04/23 11:16:34.9     -47    -55     69     73    100 220.5  48.0  34194  290.16 0855.24
2009/04/23 11:16:35.0     -31    -75     45     82     93 202.7  30.8  34190  290.09 0855.24
2009/04/23 11:16:35.1     -77    -82    -28    113    117 223.2 -13.9  34176  289.84 0855.24
2009/04/23 11:16:35.2     -39    -83    -24     92     96 205.3 -14.5  34180  289.92 0855.24
2009/04/23 11:16:35.3     -12   -119     61    120    134 185.8  29.2  34192  290.11 0855.24
2009/04/23 11:16:35.4     -27   -137     75    140    158 191.5  30.6  34184  289.99 0855.24
2009/04/23 11:16:35.5     -39   -207     89    211    229 190.9  24.3  34174  289.82 0855.24
2009/04/23 11:16:35.6     -81   -193     45    210    215 202.9  12.2  34172  289.77 0855.24
2009/04/23 11:16:35.7     -67   -173     69    186    198 201.4  21.0  34172  289.79 0855.24
2009/04/23 11:16:35.8     -94   -121     55    154    163 217.9  20.2  34172  289.79 0855.24
2009/04/23 11:16:35.9     -32    -58     50     67     83 209.0  40.7  34176  289.85 0855.24
2009/04/23 11:16:36.0    -213     90     60    232    240 293.1  14.5  34180  289.92 0855.24
2009/04/23 11:16:36.1    -251     80    -48    264    269 287.7 -10.4  34182  289.95 0855.24
2009/04/23 11:16:36.2    -294     31     25    296    298 276.1   4.9  34176  289.85 0855.24
2009/04/23 11:16:36.3    -354     -6     55    355    360 269.0   8.9  34192  290.11 0855.24
2009/04/23 11:16:36.4    -273     13     99    274    292 272.8  19.9  34188  290.05 0855.24
2009/04/23 11:16:36.5    -337     89     54    349    354 284.8   8.8  34204  290.32 0855.24
2009/04/23 11:16:36.6    -280    152      0    319    320 298.5   0.0  34184  289.98 0855.24
2009/04/23 11:16:36.7    -289     53    -87    294    307 280.5 -16.6  34194  290.14 0855.24
2009/04/23 11:16:36.8    -322    -52    -33    327    329 260.8  -5.9  34176  289.83 0855.24
2009/04/23 11:16:36.9    -318    137   -114    347    365 293.3 -23.5  34172  289.79 0855.23
2009/04/23 11:16:37.0    -222     72     11    234    235 287.9   2.8  34176  289.83 0855.23
2009/04/23 11:16:37.1    -248     -2    -28    249    251 269.4  -6.5  34186  290.00 0855.23
2009/04/23 11:16:37.2    -317    -28    -38    319    322 264.8  -6.8  34182  289.95 0855.23
2009/04/23 11:16:37.3    -181   -218     44    284    288 219.7   8.9  34178  289.86 0855.23
2009/04/23 11:16:37.4    -164   -296    156    339    373 209.1  26.5  34172  289.79 0855.23
2009/04/23 11:16:37.5    -192   -199     38    277    280 223.9   7.8  34170  289.73 0855.23
2009/04/23 11:16:37.6    -328    -14     51    329    334 267.5   8.9  34172  289.77 0855.23
2009/04/23 11:16:37.7    -271     50   -126    276    303 280.5 -30.8  34176  289.83 0855.23
2009/04/23 11:16:37.8    -239   -165     90    291    305 235.4  17.3  34166  289.68 0855.23
2009/04/23 11:16:37.9    -214   -194    -37    290    293 227.8  -7.3  34166  289.66 0855.21
2009/04/23 11:16:38.0    -187    -35    -49    191    198 259.4 -14.5  34170  289.75 0855.21
2009/04/23 11:16:38.1    -236    -81    -32    250    253 250.9  -7.3  34180  289.92 0855.21
2009/04/23 11:16:38.2    -204    -15    -90    205    223 265.7 -29.5  34174  289.80 0855.21
2009/04/23 11:16:38.3    -243     16    -92    244    260 273.9 -26.1  34172  289.76 0855.21
2009/04/23 11:16:38.4    -281    -17    -82    282    293 266.5 -21.0  34174  289.81 0855.21
2009/04/23 11:16:38.5    -265    -11   -111    266    288 267.6 -28.5  34172  289.78 0855.21
2009/04/23 11:16:38.6    -176     11    -53    177    184 273.7 -22.1  34184  289.99 0855.21
2009/04/23 11:16:38.7    -200    -22    -58    202    210 263.6 -21.2  34184  289.99 0855.21
2009/04/23 11:16:38.8    -266    -15   -114    267    290 266.6 -29.0  34188  290.03 0855.21
2009/04/23 11:16:38.9    -210    -22   -107    212    237 263.9 -33.5  34184  289.97 0855.21
2009/04/23 11:16:39.0    -183     38    -59    188    197 281.9 -22.1  34190  290.08 0855.21
2009/04/23 11:16:39.1    -185     61    -40    195    200 288.4 -11.6  34184  289.97 0855.21
2009/04/23 11:16:39.2    -231    -17   -117    232    259 265.7 -33.1  34190  290.09 0855.21
2009/04/23 11:16:39.3    -232     40   -117    236    263 279.9 -32.6  34200  290.24 0855.21
2009/04/23 11:16:39.4    -197     38   -156    201    254 281.0 -46.1  34182  289.95 0855.21
2009/04/23 11:16:39.5    -144     85   -101    168    196 300.4 -38.1  34186  290.01 0855.21
2009/04/23 11:16:39.6    -154     26    -93    157    182 279.7 -38.1  34190  290.08 0855.21
2009/04/23 11:16:39.7     -77      1    -88     78    117 270.8 -58.1  34190  290.08 0855.21
2009/04/23 11:16:39.8     -32    -23    -78     40     87 234.0 -75.2  34200  290.26 0855.21
2009/04/23 11:16:39.9      31    -10    -43     33     54 108.2 -62.9  34200  290.25 0855.19
2009/04/23 11:16:40.0       3    -80    -67     81    105 177.3 -48.2  34188  290.06 0855.19
2009/04/23 11:16:40.1     -85    -28     -4     90     91 251.4  -2.6  34190  290.09 0855.19
2009/04/23 11:16:40.2     -89   -106    -73    139    157 220.1 -34.2  34172  289.77 0855.19
2009/04/23 11:16:40.3     -62   -146   -107    159    191 203.2 -41.1  34170  289.74 0855.19
2009/04/23 11:16:40.4     -46   -106    -64    116    132 203.6 -35.8  34180  289.91 0855.19
2009/04/23 11:16:40.5     -26   -146    -80    149    169 190.2 -35.0  34178  289.87 0855.19
2009/04/23 11:16:40.6     -32   -115   -124    120    172 195.6 -55.1  34182  289.96 0855.19
2009/04/23 11:16:40.7     -14   -108    -96    109    145 187.6 -50.3  34198  290.23 0855.19
2009/04/23 11:16:40.8      35    -83    -53     91    105 156.8 -37.9  34184  289.99 0855.19
2009/04/23 11:16:40.9      69    -76    -56    103    117 137.7 -35.7  34176  289.84 0855.19
2009/04/23 11:16:41.0      84    -74   -122    113    166 131.3 -56.9  34182  289.96 0855.19
2009/04/23 11:16:41.1     107    -95   -121    144    188 131.4 -48.5  34188  290.04 0855.19
2009/04/23 11:16:41.2     135    -31   -125    139    186 103.3 -51.3  34204  290.31 0855.19
2009/04/23 11:16:41.3     169     66   -106    182    210  68.5 -37.5  34176  289.85 0855.19
2009/04/23 11:16:41.4     209     52    -64    216    225  75.8 -21.7  34176  289.84 0855.19
2009/04/23 11:16:41.5     245     53    -31    251    254  77.6  -7.2  34176  289.83 0855.19
2009/04/23 11:16:41.6     228    -17     -8    229    230  94.4  -2.2  34192  290.13 0855.19
2009/04/23 11:16:41.7     227    -76      3    240    241 108.6   0.8  34176  289.83 0855.19
2009/04/23 11:16:41.8     226   -106     20    250    251 115.2   4.6  34172  289.76 0855.19
2009/04/23 11:16:41.9     195    -91     42    216    221 115.1  11.1  34168  289.72 0855.19
2009/04/23 11:16:42.0     160    -80     62    179    190 116.6  19.2  34166  289.69 0855.19
2009/04/23 11:16:42.1     148    -59     89    160    183 111.7  31.4  34166  289.69 0855.19
2009/04/23 11:16:42.2     170    -16    110    171    203  95.5  35.6  34164  289.63 0855.19
2009/04/23 11:16:42.3     196      0     79    197    212  90.0  23.0  34156  289.52 0855.19
2009/04/23 11:16:42.4     157    -22    105    159    190  98.0  36.5  34158  289.55 0855.19
2009/04/23 11:16:42.5      48     27    123     56    135  60.2  74.0  34168  289.72 0855.19
2009/04/23 11:16:42.6     -55    -23     98     60    114 246.5  64.7  34196  290.18 0855.19
2009/04/23 11:16:42.7     -24    -61     90     66    111 201.8  60.5  34180  289.92 0855.19
2009/04/23 11:16:42.8      -1    -23    103     24    105 184.5  87.5  34172  289.79 0855.19
2009/04/23 11:16:42.9      24     75    115     79    139  18.3  62.6  34178  289.89 0855.19
2009/04/23 11:16:43.0      23   -113    130    116    174 168.5  53.7  34166  289.67 0855.19
2009/04/23 11:16:43.1     -47   -230    196    235    306 191.8  43.8  34164  289.64 0855.19
2009/04/23 11:16:43.2     -44   -216    230    221    318 191.5  51.2  34166  289.66 0855.19
2009/04/23 11:16:43.3      -3   -247     70    248    258 180.7  15.8  34168  289.70 0855.19
2009/04/23 11:16:43.4     -22   -269     63    271    279 184.9  13.1  34166  289.68 0855.19
2009/04/23 11:16:43.5     -21   -329     14    330    331 183.7   2.5  34162  289.62 0855.19
2009/04/23 11:16:43.6      25   -378    124    379    399 176.1  18.1  34158  289.54 0855.19
2009/04/23 11:16:43.7     -43   -374    131    377    400 186.6  19.2  34158  289.54 0855.19
2009/04/23 11:16:43.8      70   -268    166    278    323 165.3  33.6  34160  289.56 0855.19
2009/04/23 11:16:43.9     162   -429     68    459    465 159.2   8.5  34162  289.60 0855.20
2009/04/23 11:16:44.0      -1   -363     17    364    365 180.3   2.8  34142  289.25 0855.20
2009/04/23 11:16:44.1      68   -212    221    223    313 162.2  49.9  34160  289.56 0855.20
2009/04/23 11:16:44.2     177   -207    210    273    344 139.5  41.5  34166  289.66 0855.20
2009/04/23 11:16:44.3     220   -215    225    308    381 134.4  39.7  34158  289.55 0855.20
2009/04/23 11:16:44.4     238   -271    125    361    383 138.7  19.2  34154  289.48 0855.20
2009/04/23 11:16:44.5     158   -265    157    309    346 149.3  29.1  34158  289.55 0855.20
2009/04/23 11:16:44.6     107   -238    149    262    301 155.7  32.3  34164  289.64 0855.20
2009/04/23 11:16:44.7      29   -280    210    282    351 174.0  40.4  34162  289.59 0855.20
2009/04/23 11:16:44.8      28   -328    213    330    392 175.0  35.9  34160  289.57 0855.20
2009/04/23 11:16:44.9      57   -316    212    322    385 169.8  36.4  34162  289.59 0855.20
2009/04/23 11:16:45.0     -77   -346    131    355    378 192.6  21.1  34164  289.64 0855.20
2009/04/23 11:16:45.1     -76   -346     99    355    369 192.4  15.7  34162  289.59 0855.20
2009/04/23 11:16:45.2     -98   -327     76    342    351 196.8  12.6  34158  289.54 0855.20
2009/04/23 11:16:45.3       2   -274    101    275    292 179.5  21.0  34164  289.64 0855.20
2009/04/23 11:16:45.4      52   -246    118    252    278 168.0  27.1  34162  289.59 0855.20
2009/04/23 11:16:45.5     147   -133    147    199    247 132.0  40.1  34154  289.46 0855.20
2009/04/23 11:16:45.6      86    -84    162    121    202 134.4  59.8  34176  289.84 0855.20
2009/04/23 11:16:45.7     170   -171    104    242    263 135.2  24.6  34160  289.58 0855.20
2009/04/23 11:16:45.8     138   -199     -9    243    244 145.3  -2.2  34162  289.61 0855.20
2009/04/23 11:16:45.9      69   -232    -16    243    244 163.3  -3.9  34166  289.68 0855.19
2009/04/23 11:16:46.0      39   -258    -53    261    267 171.3 -11.6  34164  289.64 0855.19
2009/04/23 11:16:46.1     -66   -324    -12    331    332 191.6  -2.2  34162  289.62 0855.19
2009/04/23 11:16:46.2      -4   -293     98    294    311 180.9  18.5  34172  289.78 0855.19
2009/04/23 11:16:46.3      10   -219     18    220    221 177.3   4.9  34172  289.79 0855.19
2009/04/23 11:16:46.4      23   -281    -11    283    284 175.1  -2.2  34172  289.76 0855.19
2009/04/23 11:16:46.5      80   -347     20    357    358 167.0   3.2  34172  289.77 0855.19
2009/04/23 11:16:46.6     100   -291    -28    308    310 160.9  -5.4  34190  290.09 0855.19
2009/04/23 11:16:46.7      47   -252    -10    257    258 169.3  -2.2  34182  289.93 0855.19
2009/04/23 11:16:46.8     -29   -164     53    167    176 190.2  17.7  34182  289.96 0855.19
2009/04/23 11:16:46.9     -61   -183    148    193    243 198.5  41.4  34166  289.67 0855.19
2009/04/23 11:16:47.0     -56   -249    121    256    283 192.7  27.1  34168  289.70 0855.19
2009/04/23 11:16:47.1    -125   -317    123    341    363 201.6  19.9  34164  289.65 0855.19
2009/04/23 11:16:47.2     -26   -299     89    301    314 185.1  16.5  34166  289.66 0855.19
2009/04/23 11:16:47.3      32   -198     69    201    213 170.7  19.2  34174  289.82 0855.19
2009/04/23 11:16:47.4     114   -224     21    252    253 153.0   5.0  34172  289.76 0855.19
2009/04/23 11:16:47.5      88   -221     42    239    243 158.2  10.1  34172  289.76 0855.19
2009/04/23 11:16:47.6      26   -287     32    289    291 174.7   6.5  34174  289.81 0855.19
2009/04/23 11:16:47.7      19   -304     47    305    309 176.4   8.8  34172  289.78 0855.19
2009/04/23 11:16:47.8    -111   -146    115    184    216 217.4  35.2  34172  289.79 0855.19
2009/04/23 11:16:47.9     -70   -147    141    163    215 205.5  45.6  34184  289.97 0855.19
2009/04/23 11:16:48.0     -85   -296    104    309    327 196.0  18.6  34178  289.86 0855.19
2009/04/23 11:16:48.1     -69   -391     77    398    406 190.1  11.0  34180  289.92 0855.19
2009/04/23 11:16:48.2     -13   -600      7    601    602 181.3   0.7  34182  289.93 0855.19
2009/04/23 11:16:48.3     159   -609      9    630    631 165.3   0.9  34176  289.84 0855.19
2009/04/23 11:16:48.4     230   -583     15    628    629 158.4   1.4  34174  289.81 0855.19
2009/04/23 11:16:48.6     282   -603     38    666    668 154.9   3.3  34168  289.71 0855.19
2009/04/23 11:16:48.6     314   -467     53    564    567 146.1   5.4  34172  289.77 0855.19
2009/04/23 11:16:48.7     235   -358    157    429    456 146.7  21.0  34162  289.61 0855.19
2009/04/23 11:16:48.8     185   -347    169    394    428 151.9  24.8  34168  289.70 0855.19
2009/04/23 11:16:48.9     221   -384    268    444    518 150.1  34.0  34166  289.69 0855.19
2009/04/23 11:16:49.0     233   -396    204    460    503 149.5  25.6  34170  289.73 0855.19
2009/04/23 11:16:49.1     245   -364    213    439    487 146.1  27.8  34166  289.67 0855.19
2009/04/23 11:16:49.2     291   -328    179    439    474 138.5  23.5  34164  289.63 0855.19
2009/04/23 11:16:49.3     225   -311    204    385    435 144.1  30.2  34166  289.68 0855.19
2009/04/23 11:16:49.4     200   -361    172    413    447 151.0  23.9  34166  289.68 0855.19
2009/04/23 11:16:49.6     280   -308    171    417    450 137.8  23.6  34164  289.63 0855.19
2009/04/23 11:16:49.6     205   -246    189    321    372 140.1  33.1  34164  289.64 0855.19
2009/04/23 11:16:49.7     279   -218    240    355    428 128.0  37.2  34166  289.66 0855.19
2009/04/23 11:16:49.8     207   -177    210    273    344 130.5  41.5  34164  289.63 0855.19
2009/04/23 11:16:49.9      69   -172    203    186    275 157.9  53.0  34172  289.78 0855.20
2009/04/23 11:16:50.0     147    -99    228    178    289 124.0  58.2  34180  289.90 0855.20
2009/04/23 11:16:50.1      12    -87    167     88    188 171.5  70.0  34180  289.91 0855.20
2009/04/23 11:16:50.2      25   -151    182    154    238 170.3  55.4  34180  289.91 0855.20
2009/04/23 11:16:50.3     -44    -73    158     86    179 211.2  69.1  34186  290.01 0855.20
2009/04/23 11:16:50.4      32     59    188     68    199  29.0  79.5  34198  290.23 0855.20
2009/04/23 11:16:50.5     -19     92    148     95    175 348.0  64.6  34198  290.21 0855.20
2009/04/23 11:16:50.6       0    110    157    111    192   0.0  61.3  34202  290.30 0855.20
2009/04/23 11:16:50.7    -121    275    173    301    347 336.2  32.6  34188  290.03 0855.20
2009/04/23 11:16:50.8    -122    205     37    239    242 329.3   8.9  34180  289.92 0855.20
2009/04/23 11:16:50.9     -75    -21     35     79     86 254.1  25.1  34172  289.77 0855.20
2009/04/23 11:16:51.0      15     79     91     81    121  10.7  53.7  34186  290.01 0855.20
2009/04/23 11:16:51.1    -171    204    -68    267    276 319.9 -14.3  34182  289.95 0855.20
2009/04/23 11:16:51.2      14    326    -12    327    328   2.6  -2.2  34182  289.95 0855.20
2009/04/23 11:16:51.3     184    279     55    335    340  33.5   9.3  34172  289.79 0855.20
2009/04/23 11:16:51.4     180    257     65    314    321  35.0  11.8  34176  289.83 0855.20
2009/04/23 11:16:51.5     170    287     26    334    336  30.7   4.6  34178  289.89 0855.20
2009/04/23 11:16:51.6     172    250     13    304    305  34.5   2.5  34178  289.88 0855.20
2009/04/23 11:16:51.7     190     75     63    205    215  68.3  17.1  34176  289.84 0855.20
2009/04/23 11:16:51.8     167    168     90    237    253  44.8  21.7  34178  289.86 0855.20
2009/04/23 11:16:51.9      14     54    119     56    131  15.1  73.1  34196  290.18 0855.19
2009/04/23 11:16:52.0       3    -98    131     99    164 178.2  59.2  34190  290.09 0855.19
2009/04/23 11:16:52.1     118   -176    147    213    258 146.2  38.0  34178  289.86 0855.19
2009/04/23 11:16:52.2     183    -58    124    193    229 107.7  35.6  34176  289.84 0855.19
2009/04/23 11:16:52.3     150    -97    109    179    209 122.9  34.4  34180  289.91 0855.19
2009/04/23 11:16:52.4     132   -153     90    203    222 139.2  25.2  34176  289.85 0855.19
2009/04/23 11:16:52.5     145   -144     57    205    213 134.9  15.6  34178  289.87 0855.19
2009/04/23 11:16:52.6      79   -102     53    130    140 142.1  23.1  34178  289.89 0855.19
2009/04/23 11:16:52.7      61   -137     29    151    154 155.9  11.1  34184  289.99 0855.19
2009/04/23 11:16:52.8      -1    -39     38     40     55 182.7  50.0  34188  290.06 0855.19
2009/04/23 11:16:52.9     -70   -116     21    136    138 211.2   9.0  34182  289.94 0855.19
2009/04/23 11:16:53.0     -71   -178     42    192    197 201.8  12.4  34178  289.87 0855.19
2009/04/23 11:16:53.1     -86   -118    -24    147    149 216.1  -9.3  34172  289.79 0855.19
2009/04/23 11:16:53.3     -24   -117     -1    120    121 191.6  -0.7  34170  289.74 0855.19
2009/04/23 11:16:53.4     -93    -87     72    128    146 226.9  31.4  34180  289.92 0855.19
2009/04/23 11:16:53.5     -60    -95     87    113    142 212.5  41.7  34178  289.89 0855.19
2009/04/23 11:16:53.6     -58   -104    108    120    161 209.0  46.9  34168  289.70 0855.19
2009/04/23 11:16:53.7     -34   -116    160    121    200 196.5  59.2  34170  289.75 0855.19
2009/04/23 11:16:53.8     -42    -88    169     98    195 205.5  67.2  34180  289.92 0855.19
2009/04/23 11:16:53.9      -1    -30    115     31    119 182.6  84.8  34198  290.23 0855.19
2009/04/23 11:16:54.0      -4     12     76     13     77 341.7  90.0  34208  290.38 0855.19
2009/04/23 11:16:54.1      27     17     71     32     77  57.6  74.0  34192  290.11 0855.19
2009/04/23 11:16:54.2      79     58     69     99    120  53.6  38.6  34190  290.09 0855.19
2009/04/23 11:16:54.3     127     55    105    139    174  66.5  40.9  34186  290.02 0855.19
2009/04/23 11:16:54.4     165     33     58    169    179  78.5  19.2  34176  289.84 0855.19
2009/04/23 11:16:54.5     117     35     61    123    137  73.1  28.2  34178  289.89 0855.19
2009/04/23 11:16:54.6     133   -136    124    191    227 135.7  35.6  34172  289.77 0855.19
2009/04/23 11:16:54.7     223   -209    173    306    351 133.1  32.0  34146  289.35 0855.19
2009/04/23 11:16:54.8     215   -241    190    324    375 138.3  33.1  34146  289.33 0855.19
2009/04/23 11:16:54.9     169   -181    147    248    288 137.0  33.5  34152  289.42 0855.19
2009/04/23 11:16:55.0     248   -108     95    271    288 113.5  19.4  34156  289.51 0855.19
2009/04/23 11:16:55.1     282   -140     53    315    320 116.4   9.7  34158  289.54 0855.19
2009/04/23 11:16:55.2     313    -90     61    326    332 106.2  10.7  34160  289.57 0855.19
2009/04/23 11:16:55.3     168   -152     76    227    240 132.2  18.5  34166  289.68 0855.19
2009/04/23 11:16:55.4     169   -111     82    203    218 123.3  23.0  34168  289.70 0855.19
2009/04/23 11:16:55.5      43   -159     25    165    167 164.6   8.8  34164  289.63 0855.19
2009/04/23 11:16:55.6     -33   -142    -46    146    153 193.3 -23.3  34154  289.46 0855.19
2009/04/23 11:16:55.7     -79   -102    -50    130    139 217.9 -26.4  34152  289.45 0855.19
2009/04/23 11:16:55.8     -72   -123     -1    143    144 210.7  -0.7  34156  289.50 0855.19
2009/04/23 11:16:55.9    -107   -123     45    164    171 221.0  15.3  34158  289.55 0855.19
2009/04/23 11:16:56.0    -170   -234     94    290    305 216.0  18.0  34164  289.63 0855.18
2009/04/23 11:16:56.1    -118   -221     98    251    269 208.1  22.3  34164  289.64 0855.18
2009/04/23 11:16:56.2    -144   -203     90    250    265 215.4  20.4  34162  289.59 0855.18
2009/04/23 11:16:56.3    -106    -93    108    142    178 228.7  41.2  34164  289.65 0855.18
2009/04/23 11:16:56.4    -108    -58     82    123    147 241.6  36.5  34168  289.72 0855.18
2009/04/23 11:16:56.5      12     33     78     36     85  20.0  73.5  34178  289.89 0855.18
2009/04/23 11:16:56.6     -30     38     52     49     71 321.3  52.1  34176  289.85 0855.18
2009/04/23 11:16:56.7      57    -15     45     60     75 105.1  39.7  34174  289.82 0855.18
2009/04/23 11:16:56.8      89     58     97    107    144  57.1  47.5  34182  289.94 0855.18
2009/04/23 11:16:56.9      71    -16    138     73    156 103.3  69.8  34188  290.04 0855.18
2009/04/23 11:16:57.0      64      6    115     65    132  83.9  68.3  34184  289.99 0855.18
2009/04/23 11:16:57.1      -1      0     98      2     98 288.4  90.0  34190  290.08 0855.18
2009/04/23 11:16:57.2     -37   -122    120    128    175 197.0  48.0  34168  289.72 0855.18
2009/04/23 11:16:57.3     -46    -73    115     87    144 212.5  59.4  34176  289.84 0855.18
2009/04/23 11:16:57.4      -5     38    109     39    115 352.0  80.2  34204  290.33 0855.18
2009/04/23 11:16:57.5      32     65    106     73    128  26.3  62.6  34192  290.11 0855.18
2009/04/23 11:16:57.6      -4     12    124     13    124 341.7  90.0  34208  290.40 0855.18
2009/04/23 11:16:57.7     -16    -40    130     44    137 201.8  81.2  34190  290.09 0855.18
2009/04/23 11:16:57.8       2     68     88     69    111   1.8  57.5  34202  290.28 0855.18
2009/04/23 11:16:57.9     -19     23    137     30    140 320.4  88.5  34206  290.36 0855.18
2009/04/23 11:16:58.0     -28   -122    211    126    245 192.9  66.7  34162  289.62 0855.18
2009/04/23 11:16:58.1     107    -94    188    143    236 131.3  59.0  34166  289.69 0855.18
2009/04/23 11:16:58.2     166    -31    266    169    315 100.8  64.7  34184  289.97 0855.18
2009/04/23 11:16:58.3      98    -26    218    102    240 105.1  73.2  34188  290.06 0855.18
2009/04/23 11:16:58.4      76     54    187     94    209  54.5  71.4  34186  290.01 0855.18
2009/04/23 11:16:58.5     -59   -164    146    175    227 200.0  43.8  34172  289.77 0855.18
2009/04/23 11:16:58.6     -17   -157    165    158    228 186.3  51.4  34170  289.74 0855.18
2009/04/23 11:16:58.7      90   -126     93    156    181 144.4  33.5  34168  289.72 0855.18
2009/04/23 11:16:58.8      68    -55    133     88    159 129.1  63.4  34178  289.89 0855.18
2009/04/23 11:16:58.9       3   -104    100    105    145 178.2  49.0  34182  289.94 0855.18
2009/04/23 11:16:59.0      26   -157    157    160    224 170.3  49.9  34178  289.89 0855.18
2009/04/23 11:16:59.1      39   -213    185    217    285 169.5  44.8  34168  289.70 0855.18
2009/04/23 11:16:59.2       0   -204    227    205    305 180.0  53.3  34164  289.64 0855.18
2009/04/23 11:16:59.3      -4    -23    152     24    153 189.8  90.0  34178  289.87 0855.18
2009/04/23 11:16:59.4      85    -27    132     90    159 107.7  62.4  34172  289.79 0855.18
2009/04/23 11:16:59.5      64    -98    138    118    181 146.6  55.0  34174  289.80 0855.18
2009/04/23 11:16:59.6      63    -44     96     77    123 125.1  56.9  34184  289.97 0855.18
2009/04/23 11:16:59.7      31    -48    141     58    152 147.5  77.0  34186  290.02 0855.18
2009/04/23 11:16:59.8      14     -9    115     17    116 122.4  90.0  34188  290.04 0855.18
2009/04/23 11:16:59.9      -7   -154    113    155    191 182.7  39.7  34170  289.74 0855.18
2009/04/23 11:17:00.0     -10   -128    158    129    203 184.9  56.6  34168  289.70 0855.18
2009/04/23 11:17:00.1     -14   -106    131    107    169 187.6  56.4  34176  289.85 0855.18
2009/04/23 11:17:00.2     -14    -55     47     57     73 195.1  43.8  34178  289.89 0855.18
2009/04/23 11:17:00.3     -13     35     54     38     66 340.0  61.5  34194  290.16 0855.18
2009/04/23 11:17:00.4      70     -5     54     71     89  94.4  41.2  34178  289.89 0855.18
2009/04/23 11:17:00.5      29     -2     63     30     69  94.4  72.9  34182  289.94 0855.18
2009/04/23 11:17:00.6     -17    -64     92     67    113 195.1  60.5  34186  290.01 0855.18
2009/04/23 11:17:00.7     -53    -92    129    107    167 209.9  56.1  34190  290.08 0855.18
2009/04/23 11:17:00.8     -36    -66     74     76    106 209.0  50.0  34172  289.79 0855.18
2009/04/23 11:17:00.9     -71   -105    114    128    171 214.2  46.4  34166  289.69 0855.18
2009/04/23 11:17:01.0     -78    -87     64    117    133 221.9  31.4  34166  289.67 0855.17
2009/04/23 11:17:01.1       9   -121    116    122    168 175.5  48.7  34184  289.97 0855.17
2009/04/23 11:17:01.2      23   -165     90    167    189 171.8  30.8  34172  289.79 0855.17
2009/04/23 11:17:01.3      72   -130     52    149    157 151.0  20.0  34174  289.80 0855.17
2009/04/23 11:17:01.4      97    -81     74    127    146 129.6  33.4  34190  290.08 0855.17
2009/04/23 11:17:01.5     102    -20     73    105    127 101.5  38.0  34182  289.94 0855.17
2009/04/23 11:17:01.6     114    -61     80    130    152 118.0  35.5  34178  289.87 0855.17
2009/04/23 11:17:01.7     215   -143    123    259    286 123.7  27.2  34166  289.68 0855.17
2009/04/23 11:17:01.8     182   -268     94    324    338 145.8  16.3  34156  289.50 0855.17
2009/04/23 11:17:01.9     310   -355     83    472    480 138.9  10.0  34156  289.49 0855.17
2009/04/23 11:17:02.0     184   -372     97    416    428 153.6  13.2  34154  289.48 0855.17
2009/04/23 11:17:02.1     218   -320    109    388    404 145.8  15.8  34156  289.50 0855.17
2009/04/23 11:17:02.2     163   -223    115    277    299 143.9  23.8  34156  289.49 0855.17
2009/04/23 11:17:02.3      83   -223    155    239    284 159.5  35.7  34152  289.44 0855.17
2009/04/23 11:17:02.4      62   -186    128    197    234 161.5  36.3  34156  289.52 0855.17
2009/04/23 11:17:02.5     -46   -243    216    248    328 190.7  45.5  34158  289.54 0855.17
2009/04/23 11:17:02.6     232   -103    171    254    306 114.0  37.3  34164  289.63 0855.17
2009/04/23 11:17:02.7     135   -153    116    205    235 138.5  31.9  34162  289.62 0855.17
2009/04/23 11:17:02.8     105   -112    104    154    185 136.8  37.3  34168  289.70 0855.17
2009/04/23 11:17:02.9      27   -101     63    105    122 164.8  33.5  34162  289.62 0855.17
2009/04/23 11:17:03.0       0      0     30      1     30  90.0  90.0  34168  289.70 0855.19
2009/04/23 11:17:03.1    -100    -16    -27    102    106 260.8 -15.0  34166  289.69 0855.19
2009/04/23 11:17:03.2    -146    -48   -105    154    186 251.8 -42.2  34162  289.60 0855.19
2009/04/23 11:17:03.3     -72    -91   -107    117    158 218.3 -51.9  34168  289.70 0855.19
2009/04/23 11:17:03.4    -150   -120   -141    193    239 231.4 -44.1  34162  289.60 0855.19
2009/04/23 11:17:03.5    -161    -50    -82    169    187 252.7 -31.7  34162  289.60 0855.19
2009/04/23 11:17:03.6     -76      0    -82     77    112 270.0 -56.5  34162  289.62 0855.19
2009/04/23 11:17:03.7       0    -44    -39     45     59 180.0 -50.2  34172  289.79 0855.19
2009/04/23 11:17:03.8     -60    -83    -13    103    104 216.1  -7.2  34166  289.67 0855.19
2009/04/23 11:17:03.9     -90    -57     48    107    117 237.5  25.7  34172  289.77 0855.19
2009/04/23 11:17:04.0     -87     42    125     97    158 295.8  58.5  34184  289.97 0855.19
2009/04/23 11:17:04.1    -144     88     89    170    191 301.5  29.8  34182  289.96 0855.19
2009/04/23 11:17:04.2     -92    104     92    140    167 318.6  36.3  34190  290.08 0855.19
2009/04/23 11:17:04.3    -114    114     49    162    170 315.0  16.8  34222  290.64 0855.19
2009/04/23 11:17:04.4       1    105     74    106    129   0.9  38.0  34204  290.33 0855.19
2009/04/23 11:17:04.5      80     -4     78     81    112  93.5  49.0  34198  290.21 0855.19
2009/04/23 11:17:04.6       8   -123     99    124    158 176.0  42.7  34180  289.92 0855.19
2009/04/23 11:17:04.7     -12   -167     65    168    180 184.2  22.0  34176  289.84 0855.19
2009/04/23 11:17:04.8    -222   -234    -63    323    330 223.4 -11.1  34176  289.85 0855.19
2009/04/23 11:17:04.9    -146   -201   -107    249    271 216.1 -29.3  34174  289.80 0855.19
2009/04/23 11:17:05.0    -176    -83   -176    195    262 244.8 -51.3  34176  289.83 0855.20
2009/04/23 11:17:05.1    -198    -25   -187    200    273 262.8 -52.3  34176  289.83 0855.20
2009/04/23 11:17:05.2      -6     70   -188     71    200 354.7 -83.0  34186  290.02 0855.20
2009/04/23 11:17:05.3      68    100   -138    122    184  34.3 -58.4  34184  289.97 0855.20
2009/04/23 11:17:05.4       7    102   -111    103    151   4.4 -56.6  34180  289.91 0855.20
2009/04/23 11:17:05.5     -18     49    -39     53     65 340.0 -44.1  34178  289.89 0855.20
2009/04/23 11:17:05.6     -61      8    -18     62     64 277.9 -21.7  34182  289.96 0855.20
2009/04/23 11:17:05.7     -21    -40    -41     46     61 207.2 -51.3  34176  289.85 0855.20
2009/04/23 11:17:05.8      -1    -10    -16     11     19 188.0 -69.0  34178  289.89 0855.20
2009/04/23 11:17:05.9     -17     36     46     40     60 334.5  54.3  34182  289.96 0855.20
2009/04/23 11:17:06.0      18     54     65     58     87  18.7  53.3  34184  289.97 0855.20
2009/04/23 11:17:06.1      22     95     70     98    120  13.4  39.5  34188  290.06 0855.20
2009/04/23 11:17:06.2      84     21    151     87    174  75.4  67.2  34186  290.01 0855.20
2009/04/23 11:17:06.3     116     24    146    119    188  78.1  56.4  34180  289.91 0855.20
2009/04/23 11:17:06.4      49    -59    127     77    148 140.3  65.7  34196  290.18 0855.20
2009/04/23 11:17:06.5      26   -352    111    353    371 175.7  17.4  34172  289.79 0855.20
2009/04/23 11:17:06.6      19   -312    178    313    360 176.5  32.3  34176  289.84 0855.20
2009/04/23 11:17:06.7     136   -229     51    267    272 149.3  11.0  34172  289.76 0855.20
2009/04/23 11:17:06.8     213   -162    139    268    301 127.3  29.5  34172  289.78 0855.20
2009/04/23 11:17:06.9     123   -138    103    185    211 138.3  31.6  34172  289.77 0855.20
2009/04/23 11:17:07.0     236   -112    144    262    298 115.3  31.3  34174  289.81 0855.21
2009/04/23 11:17:07.1     234    -77    114    247    272 108.2  26.6  34170  289.75 0855.21
2009/04/23 11:17:07.2     188    -18     74    189    202  95.7  22.3  34174  289.80 0855.21
2009/04/23 11:17:07.3     192     -1     96    193    215  90.4  28.2  34174  289.80 0855.21
2009/04/23 11:17:07.4     162      4     98    163    190  88.5  34.0  34174  289.82 0855.21
2009/04/23 11:17:07.5     167    -55     39    177    182 108.4  12.4  34176  289.85 0855.21
2009/04/23 11:17:07.6      88    -22     13     91     93 104.2   8.5  34178  289.87 0855.21
2009/04/23 11:17:07.7      72     19    -38     75     84  74.9 -33.1  34172  289.77 0855.21
2009/04/23 11:17:07.8      84     24    -32     88     93  73.6 -24.4  34176  289.85 0855.21
2009/04/23 11:17:07.9      93      0    -16     94     96  90.0  -9.8  34172  289.77 0855.21
2009/04/23 11:17:08.1     105    -57    -29    120    124 118.4 -13.9  34174  289.80 0855.21
2009/04/23 11:17:08.1     114    -72     -3    136    137 122.4  -1.3  34174  289.82 0855.21
2009/04/23 11:17:08.2      96    -58     35    113    119 121.1  17.4  34172  289.79 0855.21
2009/04/23 11:17:08.3      70    -65     40     96    104 133.1  23.1  34172  289.77 0855.21
2009/04/23 11:17:08.4      85    -72     60    112    127 130.4  30.8  34170  289.74 0855.21
2009/04/23 11:17:08.5     105    -55     64    119    135 118.0  30.8  34174  289.82 0855.21
2009/04/23 11:17:08.6      39    -72     76     82    111 151.5  47.9  34174  289.80 0855.21
2009/04/23 11:17:08.7      -7    -33    100     34    105 193.4  81.2  34192  290.13 0855.21
2009/04/23 11:17:08.8      31     30    113     44    121  46.0  77.6  34198  290.23 0855.21
2009/04/23 11:17:08.9     -32     52     99     62    116 328.4  64.7  34192  290.11 0855.21
2009/04/23 11:17:09.0       8   -116    124    117    170 175.6  52.0  34186  290.01 0855.21
2009/04/23 11:17:09.1      93   -133     91    163    186 145.0  31.4  34176  289.84 0855.21
2009/04/23 11:17:09.2     128   -132    122    184    220 135.9  36.7  34174  289.80 0855.21
2009/04/23 11:17:09.3     169   -136    138    218    258 128.9  35.5  34176  289.85 0855.21
2009/04/23 11:17:09.4     214   -107     33    240    243 116.6   8.0  34176  289.83 0855.21
2009/04/23 11:17:09.5     189   -119     -1    224    225 122.2  -0.5  34174  289.80 0855.21
2009/04/23 11:17:09.6     231    -44     22    236    238 100.8   5.4  34174  289.80 0855.21
2009/04/23 11:17:09.7     187    -21      2    189    190  96.6   0.8  34174  289.80 0855.21
2009/04/23 11:17:09.8     169    -43     -6    175    176 104.4  -2.2  34176  289.85 0855.21
2009/04/23 11:17:09.9     160    -38    -42    165    171 103.5 -14.3  34174  289.80 0855.21
2009/04/23 11:17:10.0     148    -39    -52    154    163 105.0 -18.7  34174  289.80 0855.21
2009/04/23 11:17:10.1     143    -62    -14    157    158 113.5  -5.4  34180  289.91 0855.21
2009/04/23 11:17:10.2     160    -53    -48    169    176 108.4 -16.0  34178  289.87 0855.21
2009/04/23 11:17:10.3     135    -36    -56    140    150 105.1 -27.4  34178  289.87 0855.21
2009/04/23 11:17:10.4     108    -22    -51    111    122 101.5 -30.6  34176  289.85 0855.21
2009/04/23 11:17:10.5     106      3    -34    107    112  88.3 -23.3  34180  289.91 0855.21
2009/04/23 11:17:10.6      46    -15    -49     49     69 108.2 -54.5  34188  290.04 0855.21
2009/04/23 11:17:10.7      17      0    -50     18     53  90.0 -85.6  34192  290.11 0855.21
2009/04/23 11:17:10.8      -1     20    -42     21     46 355.6 -76.3  34190  290.08 0855.21
2009/04/23 11:17:10.9     -34      2    -34     35     48 274.3 -55.5  34182  289.96 0855.21
2009/04/23 11:17:11.0     -24    -37    -23     45     50 212.5 -33.7  34180  289.91 0855.20
2009/04/23 11:17:11.1     -25    -55    -19     61     65 204.5 -17.6  34182  289.94 0855.20
2009/04/23 11:17:11.2     -38    -91    -32     99    105 202.7 -18.1  34180  289.92 0855.20
2009/04/23 11:17:11.3     -10    -74    -24     75     78 188.0 -23.8  34180  289.92 0855.20
2009/04/23 11:17:11.4     -22    -67    -32     71     77 198.5 -30.6  34180  289.91 0855.20
2009/04/23 11:17:11.5     -36    -51    -28     63     68 215.2 -29.5  34182  289.94 0855.20
2009/04/23 11:17:11.6     -19    -67      3     70     71 196.0   2.8  34178  289.89 0855.20
2009/04/23 11:17:11.7       6    -53     27     54     60 172.9  28.2  34186  290.02 0855.20
2009/04/23 11:17:11.8      -8    -61     39     62     73 188.0  35.5  34180  289.92 0855.20
2009/04/23 11:17:11.9     -38    -59     -1     71     72 212.6  -1.2  34180  289.91 0855.20
2009/04/23 11:17:12.0     -50    -81    -31     96    100 211.6 -23.3  34178  289.87 0855.20
2009/04/23 11:17:12.1     -79    -97     10    126    127 219.2   4.9  34182  289.94 0855.20
2009/04/23 11:17:12.2     -42    -97     41    106    113 203.6  22.0  34178  289.89 0855.20
2009/04/23 11:17:12.3     -32   -124     42    129    136 194.7  18.4  34184  289.97 0855.20
2009/04/23 11:17:12.4     -91   -159      8    184    185 209.9   2.5  34186  290.02 0855.20
2009/04/23 11:17:12.5    -157   -140    -68    211    221 228.2 -23.3  34196  290.18 0855.20
2009/04/23 11:17:12.6    -200    -94    -70    222    233 244.7 -17.6  34202  290.28 0855.20
2009/04/23 11:17:12.7    -151   -118    -58    192    200 232.0 -21.8  34206  290.35 0855.20
2009/04/23 11:17:12.8    -107    -68    -24    127    130 237.6 -10.9  34204  290.31 0855.20
2009/04/23 11:17:12.9    -112    -76     14    136    137 235.8   5.9  34194  290.14 0855.20
2009/04/23 11:17:13.0     -79    -79     35    113    119 225.0  17.4  34194  290.16 0855.20
2009/04/23 11:17:13.1     -49    -78     30     93     98 212.5  17.9  34190  290.08 0855.20
2009/04/23 11:17:13.2     -99   -120     28    156    159 219.6  10.3  34190  290.09 0855.20
2009/04/23 11:17:13.3     -29   -139    -16    143    144 192.0  -6.7  34188  290.04 0855.20
2009/04/23 11:17:13.4     -49    -99      2    111    112 206.3   1.2  34190  290.09 0855.20
2009/04/23 11:17:13.5     -64   -103     -6    122    123 211.6  -3.1  34192  290.13 0855.20
2009/04/23 11:17:13.6     -44   -112    -33    121    126 201.8 -15.4  34192  290.11 0855.20
2009/04/23 11:17:13.7     -32   -120    -51    125    135 195.1 -27.5  34190  290.09 0855.20
2009/04/23 11:17:13.8     -84   -207     -4    224    225 202.1  -1.1  34184  289.99 0855.20
2009/04/23 11:17:13.9    -131   -189    -29    231    233 214.7  -7.3  34188  290.06 0855.20
2009/04/23 11:17:14.0     -23   -193    -68    195    206 186.9 -24.0  34192  290.11 0855.20
2009/04/23 11:17:14.1       0   -162    -84    163    183 180.2 -33.9  34194  290.14 0855.20
2009/04/23 11:17:14.2      19   -153    -98    155    183 172.9 -39.9  34192  290.11 0855.20
2009/04/23 11:17:14.3      40   -148    -84    154    175 164.9 -35.7  34196  290.18 0855.20
2009/04/23 11:17:14.4      26   -175    -75    177    192 171.5 -28.7  34196  290.18 0855.20
2009/04/23 11:17:14.5     -23   -173    -41    175    180 187.8 -13.2  34190  290.08 0855.20
2009/04/23 11:17:14.6     -68    -87    -20    111    113 218.3 -10.3  34190  290.08 0855.20
2009/04/23 11:17:14.7     -95    -83      0    127    128 228.7  -0.3  34196  290.18 0855.20
2009/04/23 11:17:14.8    -133    -87    -23    160    162 236.7  -8.2  34192  290.11 0855.20
2009/04/23 11:17:14.9    -157    -51    -50    166    174 251.8 -17.0  34194  290.14 0855.20
2009/04/23 11:17:15.0    -126    -31    -31    130    134 255.8 -13.4  34196  290.18 0855.20
2009/04/23 11:17:15.1     -92    -15      1     94     95 260.8   0.8  34194  290.16 0855.20
2009/04/23 11:17:15.2     -99    -12     10    100    101 263.0   5.9  34196  290.19 0855.20
2009/04/23 11:17:15.3     -87    -31     32     93     99 250.5  19.4  34198  290.23 0855.20
2009/04/23 11:17:15.4     -39    -84     56     93    108 205.3  34.4  34198  290.21 0855.20
2009/04/23 11:17:15.5     -12   -157      8    158    159 184.5   3.1  34196  290.19 0855.20
2009/04/23 11:17:15.6     -16   -116     42    118    125 188.0  20.0  34200  290.26 0855.20
2009/04/23 11:17:15.7     -28    -86     63     91    110 198.5  38.0  34202  290.30 0855.20
2009/04/23 11:17:15.8     -43   -111     61    120    134 201.4  29.2  34192  290.13 0855.20
2009/04/23 11:17:15.9      -3    -98     58     99    114 181.8  33.5  34194  290.14 0855.20
2009/04/23 11:17:16.0     -19    -89     26     92     96 192.5  16.3  34196  290.18 0855.20
2009/04/23 11:17:16.1     -85   -146      0    170    171 210.3  -0.3  34188  290.04 0855.20
2009/04/23 11:17:16.2    -104   -145     -3    179    180 215.6  -1.1  34186  290.02 0855.20
2009/04/23 11:17:16.3     -95   -123    -27    156    159 217.8 -10.1  34186  290.01 0855.20
2009/04/23 11:17:16.4    -104   -134     10    170    171 217.8   3.6  34182  289.96 0855.20
2009/04/23 11:17:16.5    -101   -137     -6    171    172 216.3  -2.2  34176  289.85 0855.20
2009/04/23 11:17:16.6     -81   -152     13    173    174 208.1   4.4  34178  289.87 0855.20
2009/04/23 11:17:16.7       8   -168     63    169    180 177.1  21.3  34184  289.99 0855.20
2009/04/23 11:17:16.8     -23   -203     56    205    213 186.7  15.3  34178  289.89 0855.20
2009/04/23 11:17:16.9       7   -182     74    183    197 177.8  23.1  34180  289.91 0855.20
2009/04/23 11:17:17.0     -35   -204     81    208    223 189.8  22.3  34178  289.89 0855.19
2009/04/23 11:17:17.1     -68   -250     81    260    273 195.2  17.4  34180  289.90 0855.19
2009/04/23 11:17:17.2     -17   -239     80    240    254 184.2  18.5  34182  289.93 0855.19
2009/04/23 11:17:17.3     -35   -202     67    206    217 190.0  18.1  34176  289.85 0855.19
2009/04/23 11:17:17.4     -65   -215     35    225    228 197.0   8.9  34178  289.87 0855.19
2009/04/23 11:17:17.5     -32   -252     66    255    264 187.3  14.7  34180  289.90 0855.19
2009/04/23 11:17:17.6     -66   -280     24    288    290 193.4   4.9  34184  289.97 0855.19
2009/04/23 11:17:17.7     -49   -231    -31    237    239 192.0  -7.5  34182  289.95 0855.19
2009/04/23 11:17:17.8     -43   -249      7    253    254 190.0   1.8  34182  289.95 0855.19
2009/04/23 11:17:17.9    -136   -273    -17    306    307 206.5  -3.3  34180  289.90 0855.19
2009/04/23 11:17:18.0     -92   -275    -15    291    292 198.5  -3.1  34180  289.90 0855.19
2009/04/23 11:17:18.1     -67   -331    -12    338    339 191.6  -2.1  34180  289.91 0855.19
2009/04/23 11:17:18.2     -69   -268      4    277    278 194.5   1.0  34182  289.95 0855.19
2009/04/23 11:17:18.3     -44   -257    -20    261    262 189.8  -4.4  34186  290.02 0855.19
2009/04/23 11:17:18.4     -78   -123    -56    147    157 212.5 -26.1  34196  290.19 0855.19
2009/04/23 11:17:18.5    -122    -49   -108    132    170 248.2 -48.1  34204  290.31 0855.19
2009/04/23 11:17:18.6     -68   -125    -78    143    162 208.5 -35.4  34198  290.21 0855.19
2009/04/23 11:17:18.7     -48   -257     20    262    263 190.7   4.4  34190  290.07 0855.19
2009/04/23 11:17:18.8     -31   -221      3    224    225 188.1   1.0  34186  290.01 0855.19
2009/04/23 11:17:18.9     -96   -239     -5    258    259 201.9  -1.2  34196  290.17 0855.19
2009/04/23 11:17:19.0    -115   -241     -5    268    269 205.6  -1.3  34192  290.12 0855.18
2009/04/23 11:17:19.1     -67   -218    -29    229    231 197.2  -7.3  34194  290.16 0855.18
2009/04/23 11:17:19.2    -114   -212    -55    241    248 208.3 -12.9  34202  290.27 0855.18
2009/04/23 11:17:19.3     -58   -256    -18    263    264 192.9  -4.1  34194  290.15 0855.18
2009/04/23 11:17:19.4     -31   -290    -19    292    293 186.3  -3.7  34180  289.92 0855.18
2009/04/23 11:17:19.5     -21   -245    -49    247    252 185.1 -11.3  34182  289.95 0855.18
2009/04/23 11:17:19.6     -32   -255    -57    258    265 187.3 -12.6  34190  290.07 0855.18
2009/04/23 11:17:19.7    -143   -246    -36    285    288 210.1  -7.2  34192  290.10 0855.18
2009/04/23 11:17:19.8     -91   -283    -22    298    299 197.8  -4.4  34188  290.03 0855.18
2009/04/23 11:17:19.9     -10   -268    -69    269    278 182.2 -14.4  34184  289.97 0855.18
2009/04/23 11:17:20.0     -36   -243    -72    246    256 188.5 -21.0  34186  290.02 0855.18
2009/04/23 11:17:20.1     -35   -286    -81    289    301 187.1 -15.8  34184  289.98 0855.18
2009/04/23 11:17:20.2     -17   -237    -52    238    244 184.2 -12.4  34178  289.88 0855.18
2009/04/23 11:17:20.3     -18   -235    -77    236    249 184.4 -18.1  34182  289.95 0855.18
2009/04/23 11:17:20.4     -79   -207    -44    222    227 200.9 -11.3  34178  289.87 0855.18
2009/04/23 11:17:20.5     -80   -208     40    224    228 201.2  10.3  34180  289.91 0855.18
2009/04/23 11:17:20.7     -64   -211     27    221    223 197.0   7.2  34180  289.92 0855.18
2009/04/23 11:17:20.7     -84   -199     72    217    229 202.9  18.6  34180  289.92 0855.18
2009/04/23 11:17:20.8      28   -192     88    195    213 171.5  25.9  34186  290.01 0855.18
2009/04/23 11:17:20.9      76   -254     41    266    270 163.3   8.8  34182  289.95 0855.18
2009/04/23 11:17:21.1      81   -196     99    213    234 157.5  26.6  34182  289.96 0855.17
2009/04/23 11:17:21.2      51   -154     98    163    190 161.7  34.0  34182  289.94 0855.17
2009/04/23 11:17:21.3      65    -90     77    112    135 144.0  37.6  34186  290.01 0855.17
2009/04/23 11:17:21.4      64    -86     75    108    131 143.5  38.0  34186  290.01 0855.17
2009/04/23 11:17:21.5      62    -85     79    106    132 144.0  40.7  34184  289.99 0855.17
2009/04/23 11:17:21.6     105    -34     24    111    114 108.2  12.2  34184  289.97 0855.17
2009/04/23 11:17:21.7      98     -6      9     99    100  93.5   5.4  34180  289.92 0855.17
2009/04/23 11:17:21.8      68      9     29     69     74  82.0  24.1  34186  290.02 0855.17
2009/04/23 11:17:21.9       7    -35     33     36     48 168.4  49.0  34190  290.08 0855.17
2009/04/23 11:17:22.0     -16    -83     52     85     99 191.1  34.4  34188  290.04 0855.17
2009/04/23 11:17:22.1     -72    -73     53    103    115 224.5  29.3  34184  289.99 0855.18
2009/04/23 11:17:22.2     -47    -35      5     59     60 233.1   4.9  34188  290.06 0855.18
2009/04/23 11:17:22.3      41     31     52     52     73  52.2  50.1  34190  290.09 0855.18
2009/04/23 11:17:22.4      -4      1     95      5     95 288.4  90.0  34212  290.47 0855.18
2009/04/23 11:17:22.5       3     50     48     51     70   3.6  48.0  34200  290.26 0855.18
2009/04/23 11:17:22.6     109    -36    106    116    157 108.6  47.5  34190  290.08 0855.18
2009/04/23 11:17:22.7     140    -14     97    141    171  96.1  37.8  34190  290.08 0855.18
2009/04/23 11:17:22.8      58      4     35     59     68  85.7  34.4  34190  290.08 0855.18
2009/04/23 11:17:22.9      23    -30     29     39     48 142.2  40.7  34190  290.08 0855.18
2009/04/23 11:17:23.0       9    -60     23     61     65 171.1  22.0  34188  290.06 0855.18
2009/04/23 11:17:23.1       7   -100     27    101    105 175.5  15.3  34186  290.01 0855.18
2009/04/23 11:17:23.2     -49   -147      1    156    157 198.5   0.5  34182  289.96 0855.18
2009/04/23 11:17:23.3     -29   -138     -3    142    143 192.0  -1.3  34186  290.01 0855.18
2009/04/23 11:17:23.4       6   -113     -4    114    115 176.9  -2.2  34188  290.04 0855.18
2009/04/23 11:17:23.5      20   -109      5    111    112 169.3   2.9  34186  290.01 0855.18
2009/04/23 11:17:23.6      32    -96     18    102    104 161.7  10.1  34188  290.04 0855.18
2009/04/23 11:17:23.7       0    -85      4     86     87 180.4   2.9  34192  290.11 0855.18
2009/04/23 11:17:23.8      16    -79    -11     81     82 168.0  -8.2  34192  290.11 0855.18
2009/04/23 11:17:23.9      12    -55    -20     57     60 167.5 -23.3  34190  290.08 0855.18
2009/04/23 11:17:24.0      -4    -54    -17     55     57 184.5 -23.8  34188  290.06 0855.18
2009/04/23 11:17:24.1      -7    -38      2     39     40 190.7   3.8  34192  290.11 0855.18
2009/04/23 11:17:24.2      64    -25     -8     69     70 111.8  -7.3  34192  290.11 0855.18
2009/04/23 11:17:24.3      83    -34      0     90     91 112.6  -0.3  34192  290.13 0855.18
2009/04/23 11:17:24.4      78    -48     -7     92     93 122.0  -4.6  34194  290.14 0855.18
2009/04/23 11:17:24.5      19    -34     -8     40     41 150.1 -11.3  34192  290.13 0855.18
2009/04/23 11:17:24.6      20    -60    -23     64     69 161.5 -19.7  34192  290.13 0855.18
2009/04/23 11:17:24.7      21    -86    -40     89     97 165.7 -30.1  34194  290.14 0855.18
2009/04/23 11:17:24.8      24    -58    -51     63     81 157.3 -47.7  34196  290.18 0855.18
2009/04/23 11:17:24.9       7    -54    -46     55     71 172.0 -48.2  34196  290.19 0855.18
2009/04/23 11:17:25.0      49    -35    -18     61     64 125.1 -16.6  34198  290.21 0855.18
2009/04/23 11:17:25.1      32    -19    -11     38     40 120.7 -16.6  34204  290.31 0855.18
2009/04/23 11:17:25.2      12      0     -6     13     14  90.0 -27.4  34206  290.35 0855.18
2009/04/23 11:17:25.3       0      6      0      7      8 357.3  -2.2  34204  290.31 0855.18
2009/04/23 11:17:25.4      -5     27     13     28     30 348.4  27.1  34198  290.21 0855.18
2009/04/23 11:17:25.5      28    -26     68     39     78 133.3  67.7  34202  290.30 0855.18
2009/04/23 11:17:25.6     -19   -159     83    161    181 187.1  29.5  34204  290.33 0855.18
2009/04/23 11:17:25.7     -15   -156     65    157    169 185.8  23.8  34214  290.48 0855.18
2009/04/23 11:17:25.8     -34   -135     49    140    149 194.3  19.4  34222  290.62 0855.18
2009/04/23 11:17:25.9     -31   -116     28    121    125 195.2  13.2  34224  290.65 0855.18
2009/04/23 11:17:26.0      -1   -117     33    118    123 180.5  15.8  34222  290.62 0855.18
2009/04/23 11:17:26.1      24   -110     30    113    118 167.5  15.2  34216  290.53 0855.19
2009/04/23 11:17:26.2      87   -119    -32    148    152 143.9 -12.4  34212  290.47 0855.19
2009/04/23 11:17:26.3      99   -116    -31    153    157 139.5 -11.6  34214  290.48 0855.19
2009/04/23 11:17:26.4     105   -123    -42    162    168 139.5 -14.5  34198  290.21 0855.19
2009/04/23 11:17:26.5     120    -81    -30    146    150 124.1 -11.9  34200  290.25 0855.19
2009/04/23 11:17:26.6      59    -92    -22    110    113 147.4 -11.3  34202  290.28 0855.19
2009/04/23 11:17:26.7      34    -74     27     82     87 155.5  18.4  34206  290.36 0855.19
2009/04/23 11:17:26.8     -21    -55     -3     59     60 200.9  -3.2  34208  290.40 0855.19
2009/04/23 11:17:26.9     -31    -28    -25     43     49 227.8 -37.9  34202  290.30 0855.19
2009/04/23 11:17:27.0      -8    -63    -29     64     70 188.0 -31.5  34210  290.43 0855.19
2009/04/23 11:17:27.1     -58   -114   -139    129    189 207.2 -56.6  34220  290.60 0855.19
2009/04/23 11:17:27.2    -176    -16   -108    177    207 264.5 -38.8  34224  290.67 0855.19
2009/04/23 11:17:27.3    -168     91    -35    192    196 298.6 -10.5  34254  291.18 0855.19
2009/04/23 11:17:27.4    -151     45    -46    158    164 286.8 -21.5  34242  290.98 0855.19
2009/04/23 11:17:27.5    -121     16    -34    123    128 277.9 -15.5  34246  291.03 0855.19
2009/04/23 11:17:27.6    -141    -21    -18    143    145 261.2  -7.3  34260  291.26 0855.19
2009/04/23 11:17:27.7    -138    -42    -60    145    156 253.1 -28.2  34252  291.15 0855.19
2009/04/23 11:17:27.8    -149    -40    -81    155    174 254.9 -34.2  34264  291.33 0855.19
2009/04/23 11:17:27.9    -169    -51    -87    177    197 253.2 -32.4  34242  290.98 0855.19
2009/04/23 11:17:28.0    -153    -11    -65    154    167 265.6 -28.7  34220  290.60 0855.19
2009/04/23 11:17:28.1    -167    -63    -74    179    193 249.2 -27.8  34240  290.92 0855.20
2009/04/23 11:17:28.2    -198    -53    -47    206    212 254.9 -12.9  34248  291.08 0855.20
2009/04/23 11:17:28.3    -253    -72    -89    264    278 254.0 -23.3  34204  290.31 0855.20
2009/04/23 11:17:28.4    -166   -122    -64    207    217 233.6 -17.3  34218  290.55 0855.20
2009/04/23 11:17:28.5    -146    -54    -53    156    164 249.6 -23.3  34222  290.64 0855.20
2009/04/23 11:17:28.6    -203     -7      5    204    205 267.9   1.6  34224  290.65 0855.20
2009/04/23 11:17:28.7    -234     18    -12    235    236 274.6  -3.1  34264  291.33 0855.20
2009/04/23 11:17:28.8    -211     16    -44    212    217 274.4 -11.9  34262  291.32 0855.20
2009/04/23 11:17:28.9    -194     -7    -66    195    205 267.9 -23.3  34284  291.67 0855.20
2009/04/23 11:17:29.0    -200    -12     -7    201    202 266.5  -2.2  34272  291.49 0855.20
2009/04/23 11:17:29.1    -160    -31   -137    163    212 259.0 -48.5  34236  290.87 0855.20
2009/04/23 11:17:29.2    -194    -64    -96    205    226 251.6 -31.5  34230  290.77 0855.20
2009/04/23 11:17:29.3    -183    -73    -91    198    217 248.2 -30.8  34184  289.99 0855.20
2009/04/23 11:17:29.4    -206    -16    -81    207    222 265.4 -27.2  34218  290.57 0855.20
2009/04/23 11:17:29.5    -206    -29    -88    209    226 262.0 -28.5  34236  290.86 0855.20
2009/04/23 11:17:29.6    -164      6   -116    165    201 272.4 -43.0  34216  290.52 0855.20
2009/04/23 11:17:29.7    -211    -32   -107    214    239 261.2 -32.9  34240  290.92 0855.20
2009/04/23 11:17:29.8    -152    -66   -138    166    215 246.5 -48.2  34232  290.79 0855.20
2009/04/23 11:17:29.9    -178     -3   -130    179    221 269.0 -44.1  34248  291.08 0855.20
2009/04/23 11:17:30.0    -113    -38   -149    120    191 251.4 -61.0  34266  291.37 0855.20
2009/04/23 11:17:30.1    -158    -86   -130    181    222 241.4 -43.7  34262  291.30 0855.22
2009/04/23 11:17:30.2    -121    -53    -72    133    151 246.5 -35.7  34238  290.89 0855.22
2009/04/23 11:17:30.3     -97   -190    -66    214    225 207.2 -17.3  34258  291.25 0855.22
2009/04/23 11:17:30.4     -66   -219    -63    229    237 196.9 -20.0  34260  291.26 0855.22
2009/04/23 11:17:30.5     -20   -265    -88    266    280 184.4 -23.8  34250  291.09 0855.22
2009/04/23 11:17:30.6      53   -314    -52    319    324 170.3  -9.3  34258  291.22 0855.22
2009/04/23 11:17:30.7      97   -266    -81    284    295 160.0 -20.7  34238  290.90 0855.22
2009/04/23 11:17:30.8      59   -314    -10    320    321 169.3  -1.9  34214  290.49 0855.22
2009/04/23 11:17:30.9      78   -280    -58    291    297 164.4 -11.3  34216  290.53 0855.22
2009/04/23 11:17:31.0      23   -304    -11    306    307 175.5  -2.2  34216  290.51 0855.22
2009/04/23 11:17:31.1      32   -276    -30    278    280 173.3  -6.2  34198  290.20 0855.22
2009/04/23 11:17:31.2      69   -267    -29    276    278 165.3  -6.1  34190  290.09 0855.22
2009/04/23 11:17:31.3      88   -274     -1    288    289 162.2  -0.3  34186  290.00 0855.22
2009/04/23 11:17:31.4      93   -236      7    254    255 158.4   1.7  34184  289.98 0855.22
2009/04/23 11:17:31.5      65   -251    -37    260    263 165.3  -8.2  34188  290.03 0855.22
2009/04/23 11:17:31.6      97   -243    -52    262    268 158.1 -11.3  34188  290.03 0855.22
2009/04/23 11:17:31.7     139   -215    -81    257    270 147.0 -17.6  34186  290.00 0855.22
2009/04/23 11:17:31.8     226   -227     15    321    322 135.1   2.8  34172  289.78 0855.22
2009/04/23 11:17:31.9     184   -229     14    294    295 141.2   2.9  34172  289.78 0855.22
2009/04/23 11:17:32.0      63   -270     66    278    286 166.9  13.5  34186  290.02 0855.22
2009/04/23 11:17:32.1      21   -263     85    264    278 175.3  17.9  34186  290.00 0855.22
2009/04/23 11:17:32.2      86   -259     98    274    291 161.5  20.2  34184  289.98 0855.22
2009/04/23 11:17:32.3     121   -255     94    283    299 154.7  18.5  34178  289.86 0855.22
2009/04/23 11:17:32.4     132   -271    143    302    334 153.9  27.1  34182  289.95 0855.22
2009/04/23 11:17:32.5      45   -320     88    324    336 172.0  15.2  34180  289.91 0855.22
2009/04/23 11:17:32.6      72   -304     -8    313    314 166.6  -1.6  34184  289.98 0855.22
2009/04/23 11:17:32.7      69   -334     -4    342    343 168.3  -0.7  34182  289.96 0855.22
2009/04/23 11:17:32.8      11   -323      8    324    325 178.0   1.5  34184  289.98 0855.22
2009/04/23 11:17:32.9       5   -315     50    316    320 179.0   9.0  34188  290.03 0855.22
2009/04/23 11:17:33.0      15   -331     59    332    338 177.3  10.2  34190  290.08 0855.22
2009/04/23 11:17:33.1      16   -327     43    328    331 177.1   7.5  34190  290.08 0855.22
2009/04/23 11:17:33.2      32   -295    -21    297    298 173.8  -4.1  34192  290.10 0855.22
2009/04/23 11:17:33.3       4   -235    -25    236    238 179.0  -6.2  34190  290.09 0855.22
2009/04/23 11:17:33.4       5   -213      2    214    215 178.4   0.7  34186  290.02 0855.22
2009/04/23 11:17:33.5       0   -209     -4    210    211 180.2  -1.3  34192  290.13 0855.22
2009/04/23 11:17:33.6     -38   -224     17    228    229 189.7   4.4  34186  290.02 0855.22
2009/04/23 11:17:33.7     -29   -215     -1    217    218 187.8  -0.5  34192  290.13 0855.22
2009/04/23 11:17:33.8      32   -159     42    163    169 168.4  14.5  34196  290.19 0855.22
2009/04/23 11:17:33.9      60   -162     51    174    182 159.5  16.3  34194  290.16 0855.22
2009/04/23 11:17:34.0      68   -169     79    183    199 157.9  25.1  34194  290.14 0855.22
2009/04/23 11:17:34.1       7   -153     25    154    157 177.3   9.3  34190  290.09 0855.23
2009/04/23 11:17:34.2       0   -203     40    204    208 179.8  11.1  34190  290.08 0855.23
2009/04/23 11:17:34.3      20   -170     24    172    174 173.1   8.0  34190  290.09 0855.23
2009/04/23 11:17:34.4       0   -174     14    175    176 180.2   4.9  34186  290.02 0855.23
2009/04/23 11:17:34.5    -104   -149    -67    182    193 215.0 -25.1  34188  290.04 0855.23
2009/04/23 11:17:34.6     -53   -187      8    195    196 195.8   2.5  34186  290.01 0855.23
2009/04/23 11:17:34.7     -51   -211     18    218    219 193.8   4.9  34184  289.99 0855.23
2009/04/23 11:17:34.8     -28   -197     -7    200    201 188.1  -2.3  34182  289.96 0855.23
2009/04/23 11:17:34.9     -74   -137     10    156    157 208.5   3.8  34182  289.96 0855.23
2009/04/23 11:17:35.0     -90   -153    -10    178    179 210.5  -3.3  34186  290.01 0855.23
2009/04/23 11:17:35.1     -94   -202    -28    223    225 204.9  -7.2  34182  289.94 0855.23
2009/04/23 11:17:35.2     -89   -210    -20    229    230 202.9  -5.2  34186  290.01 0855.23
2009/04/23 11:17:35.3    -109   -184     -4    214    215 210.7  -1.3  34180  289.92 0855.23
2009/04/23 11:17:35.4    -123   -163    -41    205    210 217.2 -11.5  34182  289.96 0855.23
2009/04/23 11:17:35.5    -113   -192     11    223    224 210.5   2.9  34186  290.01 0855.23
2009/04/23 11:17:35.6     -40   -198     38    203    207 191.6  10.8  34192  290.11 0855.23
2009/04/23 11:17:35.7     -30   -184     51    187    194 189.3  15.3  34190  290.09 0855.23
2009/04/23 11:17:35.8     -72   -151     57    168    178 205.4  18.9  34190  290.09 0855.23
2009/04/23 11:17:35.9     -52   -138     71    148    164 200.9  27.4  34190  290.09 0855.23
2009/04/23 11:17:36.0     -48   -124     54    134    144 201.4  23.0  34192  290.11 0855.23
2009/04/23 11:17:36.1     -39   -119     25    126    129 198.3  11.6  34188  290.04 0855.24
2009/04/23 11:17:36.2      -6   -177     72    178    192 182.0  23.1  34190  290.09 0855.24
2009/04/23 11:17:36.3      61   -269     81    276    288 167.1  16.4  34184  289.97 0855.24
2009/04/23 11:17:36.4      95   -260     49    277    282 159.9  10.1  34190  290.09 0855.24
2009/04/23 11:17:36.5     129   -224    -29    259    261 150.1  -6.5  34186  290.02 0855.24
2009/04/23 11:17:36.6     136   -248   -102    283    300 151.3 -25.1  34190  290.07 0855.24
2009/04/23 11:17:36.7     130   -245    -83    278    291 152.1 -16.6  34184  289.98 0855.24
2009/04/23 11:17:36.8      95   -289    -73    305    314 161.7 -13.6  34182  289.95 0855.24
2009/04/23 11:17:36.9     136   -345    -62    371    377 158.5  -9.6  34178  289.87 0855.24
2009/04/23 11:17:37.0     204   -291     18    356    357 145.0   3.0  34170  289.74 0855.24
2009/04/23 11:17:37.1     154   -275     16    316    317 150.8   3.0  34172  289.76 0855.24
2009/04/23 11:17:37.2     139   -228     52    268    274 148.6  11.1  34176  289.85 0855.24
2009/04/23 11:17:37.3     146   -263     24    301    302 151.0   4.6  34172  289.76 0855.24
2009/04/23 11:17:37.4     111   -200     11    229    230 151.0   2.8  34176  289.84 0855.24
2009/04/23 11:17:37.5      76   -227     11    240    241 161.5   2.8  34178  289.86 0855.24
2009/04/23 11:17:37.6     123   -231     13    262    263 151.9   2.9  34172  289.76 0855.24
2009/04/23 11:17:37.7      95   -247     60    265    272 159.0  12.9  34164  289.64 0855.24
2009/04/23 11:17:37.8      89   -275     45    290    294 162.0   9.0  34168  289.70 0855.24
2009/04/23 11:17:37.9      78   -263     49    275    280 163.5  10.1  34168  289.71 0855.24
2009/04/23 11:17:38.0      86   -247     45    262    267 160.8   9.9  34168  289.70 0855.24
2009/04/23 11:17:38.1      70   -229     51    240    246 162.8  12.2  34168  289.71 0855.24
2009/04/23 11:17:38.2      50   -222     76    228    241 167.1  18.5  34176  289.85 0855.24
2009/04/23 11:17:38.3      86   -219     -1    236    237 158.6  -0.3  34178  289.86 0855.24
2009/04/23 11:17:38.4      53   -193     44    201    206 164.4  12.4  34172  289.77 0855.24
2009/04/23 11:17:38.5      85   -193     26    212    214 156.2   7.1  34170  289.75 0855.24
2009/04/23 11:17:38.6      90   -182     11    204    205 153.7   3.3  34174  289.82 0855.24
2009/04/23 11:17:38.7     106   -192    -19    220    221 151.0  -5.1  34182  289.96 0855.24
2009/04/23 11:17:38.8     114   -186    -28    219    221 148.4  -7.3  34184  289.99 0855.24
2009/04/23 11:17:38.9      41   -175     30    180    183 166.6   9.5  34176  289.85 0855.24
2009/04/23 11:17:39.0      68   -222     11    233    234 162.8   2.8  34180  289.90 0855.24
2009/04/23 11:17:39.1     105   -222     47    246    251 154.7  11.0  34184  289.98 0855.24
2009/04/23 11:17:39.2     108   -227     49    252    257 154.6  11.0  34180  289.90 0855.24
2009/04/23 11:17:39.3     155   -155     77    220    234 134.9  19.4  34180  289.91 0855.24
2009/04/23 11:17:39.4     168   -183     86    249    264 137.5  19.2  34174  289.81 0855.24
2009/04/23 11:17:39.5     197   -210     90    289    303 136.8  17.4  34180  289.92 0855.24
2009/04/23 11:17:39.6     136   -239     54    276    282 150.4  11.1  34184  289.98 0855.24
2009/04/23 11:17:39.7     134   -226     39    263    266 149.3   8.5  34182  289.95 0855.24
2009/04/23 11:17:39.8     136   -204     60    246    254 146.4  13.7  34184  289.98 0855.24
2009/04/23 11:17:39.9     106   -224     74    248    259 154.7  16.6  34182  289.93 0855.24
2009/04/23 11:17:40.0      69   -232     85    243    257 163.5  20.0  34186  290.00 0855.24
2009/04/23 11:17:40.1      58   -205    103    214    237 164.2  27.3  34184  289.99 0855.22
2009/04/23 11:17:40.2      41   -241    105    245    266 170.2  24.6  34196  290.17 0855.22
2009/04/23 11:17:40.3      39   -249    121    253    280 171.1  27.3  34202  290.27 0855.22
2009/04/23 11:17:40.4      78   -232    121    245    273 161.3  28.2  34192  290.10 0855.22
2009/04/23 11:17:40.5      42   -249    159    253    298 170.3  35.5  34190  290.07 0855.22
2009/04/23 11:17:40.6     -43   -233    142    237    276 190.5  33.5  34210  290.41 0855.22
2009/04/23 11:17:40.7      50   -231     92    237    254 167.7  22.1  34190  290.09 0855.22
2009/04/23 11:17:40.8     142   -258     69    295    303 151.1  13.2  34188  290.03 0855.22
2009/04/23 11:17:40.9      91   -332     95    345    358 164.7  15.4  34194  290.15 0855.22
2009/04/23 11:17:41.0     117   -300    103    323    339 158.6  17.7  34198  290.20 0855.22
2009/04/23 11:17:41.1     142   -288    123    322    344 153.7  21.8  34192  290.11 0855.22
2009/04/23 11:17:41.2     123   -281    112    307    326 156.3  20.7  34200  290.24 0855.22
2009/04/23 11:17:41.3     110   -215    105    242    263 152.9  25.1  34198  290.20 0855.22
2009/04/23 11:17:41.4     143   -260     -6    297    298 151.1  -1.2  34206  290.36 0855.22
2009/04/23 11:17:41.5      97   -255    -39    274    277 159.1  -8.2  34206  290.34 0855.22
2009/04/23 11:17:41.6      39   -240    -22    244    246 170.7  -5.2  34206  290.34 0855.22
2009/04/23 11:17:41.7      75   -239    -82    251    264 162.6 -23.6  34198  290.20 0855.22
2009/04/23 11:17:41.8      79   -217    -80    232    245 159.9 -24.0  34200  290.26 0855.22
2009/04/23 11:17:41.9      72   -180    -62    194    204 158.2 -17.9  34204  290.31 0855.22
2009/04/23 11:17:42.0     108   -170     -4    202    203 147.5  -1.3  34202  290.28 0855.22
2009/04/23 11:17:42.1     113   -205    -27    235    237 151.0  -6.7  34194  290.15 0855.22
2009/04/23 11:17:42.2     102   -213    -25    237    239 154.5  -6.2  34200  290.24 0855.22
2009/04/23 11:17:42.3      72   -250    -22    261    263 163.9  -4.9  34210  290.41 0855.22
2009/04/23 11:17:42.4      90   -259      7    275    276 160.8   1.6  34188  290.05 0855.22
2009/04/23 11:17:42.5     182   -363     19    407    408 153.4   2.8  34174  289.82 0855.22
2009/04/23 11:17:42.6     206   -387      2    439    440 151.9   0.4  34174  289.82 0855.22
2009/04/23 11:17:42.7     147   -379     13    407    408 158.7   1.9  34176  289.83 0855.22
2009/04/23 11:17:42.8     192   -313    -17    368    369 148.5  -2.8  34176  289.84 0855.22
2009/04/23 11:17:42.9     217   -300     13    371    372 144.2   2.1  34174  289.81 0855.22
2009/04/23 11:17:43.0     118   -373    -37    392    394 162.4  -5.5  34182  289.93 0855.22
2009/04/23 11:17:43.1     138   -350    -32    377    379 158.5  -4.9  34182  289.94 0855.23
2009/04/23 11:17:43.2      21   -358    -78    359    368 176.5 -12.4  34188  290.06 0855.23
2009/04/23 11:17:43.3      77   -392    -42    400    403 168.8  -6.1  34180  289.91 0855.23
2009/04/23 11:17:43.4     100   -382    -80    395    403 165.3 -11.5  34172  289.76 0855.23
2009/04/23 11:17:43.5      72   -337    -68    345    352 167.9 -11.2  34168  289.71 0855.23
2009/04/23 11:17:43.6      99   -332    -77    347    356 163.4 -12.6  34166  289.69 0855.23
2009/04/23 11:17:43.7      92   -340    -93    353    366 164.8 -14.8  34170  289.74 0855.23
2009/04/23 11:17:43.8      96   -299   -111    315    335 162.2 -19.4  34170  289.75 0855.23
2009/04/23 11:17:43.9      66   -402    -86    408    418 170.7 -12.0  34178  289.88 0855.23
2009/04/23 11:17:44.0      44   -433    -70    436    442 174.2  -9.1  34184  289.97 0855.23
2009/04/23 11:17:44.1       6   -390    -14    391    392 179.0  -2.1  34184  289.99 0855.23
2009/04/23 11:17:44.2     -25   -367     13    368    369 183.9   2.1  34184  289.99 0855.23
2009/04/23 11:17:44.3      -9   -363    -20    364    365 181.5  -3.2  34192  290.10 0855.23
2009/04/23 11:17:44.4     -18   -346    -18    347    348 183.1  -3.0  34180  289.91 0855.23
2009/04/23 11:17:44.5    -101   -312    -29    329    331 198.0  -5.1  34220  290.59 0855.23
2009/04/23 11:17:44.6     -88   -330    -45    342    346 195.1  -7.6  34202  290.30 0855.23
2009/04/23 11:17:44.7    -148   -346    -47    377    381 203.2  -7.2  34208  290.37 0855.23
2009/04/23 11:17:44.8     -89   -316    -78    329    339 195.8 -13.4  34210  290.43 0855.23
2009/04/23 11:17:44.9    -100   -271    -47    289    293 200.3  -9.3  34206  290.36 0855.23
2009/04/23 11:17:45.0    -111   -275    -87    297    309 202.1 -21.5  34166  289.66 0855.23
2009/04/23 11:17:45.1     -61   -259    -80    267    278 193.3 -21.7  34166  289.68 0855.22
2009/04/23 11:17:45.2     -70   -232    -73    243    253 196.9 -21.7  34166  289.68 0855.22
2009/04/23 11:17:45.3     -90   -196    -93    216    235 204.7 -29.3  34166  289.69 0855.22
2009/04/23 11:17:45.4     -48   -168    -87    175    195 196.0 -32.9  34162  289.62 0855.22
2009/04/23 11:17:45.5     -47   -141    -81    149    169 198.7 -35.2  34166  289.69 0855.22
2009/04/23 11:17:45.6     -47   -140    -93    148    174 198.7 -39.9  34166  289.67 0855.22
2009/04/23 11:17:45.7     -25   -179    -92    181    203 188.0 -33.6  34170  289.75 0855.22
2009/04/23 11:17:45.8      -5   -162    -94    163    188 181.8 -37.1  34172  289.79 0855.22
2009/04/23 11:17:45.9      31   -156    -86    160    181 168.5 -35.2  34178  289.89 0855.22
2009/04/23 11:17:46.0      33   -161    -83    165    184 168.2 -33.1  34182  289.94 0855.22
2009/04/23 11:17:46.1      -7   -171    -94    172    196 182.5 -35.4  34198  290.21 0855.22
2009/04/23 11:17:46.2      43   -157    -71    163    177 164.6 -29.3  34194  290.16 0855.22
2009/04/23 11:17:46.3      53   -166    -49    175    181 162.2 -20.2  34198  290.21 0855.22
2009/04/23 11:17:46.4      72   -144    -45    162    169 153.3 -15.5  34198  290.21 0855.22
2009/04/23 11:17:46.5      74   -116    -27    138    141 147.5 -11.3  34196  290.18 0855.22
2009/04/23 11:17:46.6      42   -114      9    122    123 159.5   4.4  34198  290.21 0855.22
2009/04/23 11:17:46.7      43    -50     -8     67     68 139.5  -7.2  34200  290.26 0855.22
2009/04/23 11:17:46.8      59    -32     -8     68     69 118.9  -7.3  34198  290.23 0855.22
2009/04/23 11:17:46.9      33    -50     -9     60     61 146.6  -9.3  34206  290.35 0855.22
2009/04/23 11:17:47.0      63    -67    -34     93     99 136.8 -24.8  34202  290.30 0855.22
2009/04/23 11:17:47.1      89    -86    -39    124    131 134.0 -17.6  34198  290.23 0855.19
2009/04/23 11:17:47.2     100   -104    -44    145    152 136.3 -17.0  34198  290.23 0855.19
2009/04/23 11:17:47.3      94   -121    -36    154    159 142.2 -13.2  34196  290.19 0855.19
2009/04/23 11:17:47.4     116   -145    -62    186    196 141.3 -23.6  34196  290.19 0855.19
2009/04/23 11:17:47.5     134   -143    -41    197    202 136.8 -11.9  34190  290.08 0855.19
2009/04/23 11:17:47.7     159   -168      2    232    233 136.6   0.7  34180  289.91 0855.19
2009/04/23 11:17:47.8     131   -169     76    215    229 142.2  19.4  34178  289.87 0855.19
2009/04/23 11:17:47.9     119   -108     29    161    164 132.2  10.3  34182  289.94 0855.19
2009/04/23 11:17:47.9      87   -105     -8    137    138 140.3  -3.7  34184  289.99 0855.19
2009/04/23 11:17:48.1      85    -84    -15    120    121 134.8  -7.3  34186  290.01 0855.19
2009/04/23 11:17:48.2      95    -64    -12    115    116 124.2  -6.2  34188  290.04 0855.19
2009/04/23 11:17:48.3     110    -78     -5    136    137 125.5  -2.2  34196  290.19 0855.19
2009/04/23 11:17:48.4     104    -59    -25    120    123 119.8 -11.9  34202  290.28 0855.19
2009/04/23 11:17:48.5      79    -68     -4    105    106 130.4  -2.6  34200  290.25 0855.19
2009/04/23 11:17:48.6      61    -96    -19    115    117 147.5  -9.4  34198  290.21 0855.19
2009/04/23 11:17:48.7      67   -109     -8    129    130 148.4  -3.7  34196  290.18 0855.19
2009/04/23 11:17:48.8      73    -89    -39    116    122 140.8 -23.6  34196  290.19 0855.19
2009/04/23 11:17:48.9      14   -108      0    109    110 172.4  -0.3  34196  290.19 0855.19
2009/04/23 11:17:49.0       0   -101     56    102    116 179.5  31.4  34194  290.16 0855.19
2009/04/23 11:17:49.1      50   -149     78    158    176 161.5  28.0  34192  290.11 0855.19
2009/04/23 11:17:49.2       5   -146     67    147    161 177.8  26.2  34184  289.99 0855.20
2009/04/23 11:17:49.3      10   -130     38    131    137 175.6  16.3  34186  290.01 0855.20
2009/04/23 11:17:49.4       4   -118     45    119    127 177.8  21.5  34192  290.11 0855.20
2009/04/23 11:17:49.5       6   -182    130    183    224 178.0  39.1  34192  290.11 0855.20
2009/04/23 11:17:49.6      69   -108     98    129    162 147.5  41.2  34196  290.18 0855.20
2009/04/23 11:17:49.7      99   -165    -41    193    198 149.0 -12.2  34194  290.14 0855.20
2009/04/23 11:17:49.8      96   -147    -57    176    186 146.8 -17.9  34194  290.16 0855.20
2009/04/23 11:17:49.9      67   -138    -48    154    162 153.9 -17.6  34196  290.19 0855.20
2009/04/23 11:17:50.0      62   -137    -39    151    157 155.5 -14.7  34200  290.25 0855.20
2009/04/23 11:17:50.1      15   -109     39    111    118 171.9  19.4  34198  290.21 0855.20
2009/04/23 11:17:50.2      50   -168     41    176    181 163.5  13.2  34198  290.23 0855.20
2009/04/23 11:17:50.3      23   -188     85    190    208 172.9  25.7  34206  290.36 0855.20
2009/04/23 11:17:50.4      25   -110     59    113    127 167.1  29.3  34196  290.18 0855.20
2009/04/23 11:17:50.5      65   -125     56    142    152 152.4  23.0  34188  290.04 0855.20
2009/04/23 11:17:50.6      86    -98     31    131    135 138.6  13.7  34190  290.08 0855.20
2009/04/23 11:17:50.7      28   -138     57    141    152 168.4  23.0  34190  290.08 0855.20
2009/04/23 11:17:50.8      12   -175     81    176    193 176.0  26.6  34200  290.25 0855.20
2009/04/23 11:17:50.9      31   -185     72    188    201 170.2  22.0  34202  290.28 0855.20
2009/04/23 11:17:51.0      65   -178     -7    190    191 159.7  -2.1  34198  290.23 0855.20
2009/04/23 11:17:51.1      90   -159    -38    183    188 150.4 -11.9  34196  290.18 0855.20
2009/04/23 11:17:51.2      66   -150    -11    165    166 156.2  -4.1  34192  290.11 0855.19
2009/04/23 11:17:51.3      50   -120     11    131    132 157.3   5.0  34200  290.25 0855.19
2009/04/23 11:17:51.4      56   -128    -12    140    141 156.3  -5.2  34206  290.35 0855.19
2009/04/23 11:17:51.5      74   -159    -16    176    177 155.1  -5.4  34210  290.43 0855.19
2009/04/23 11:17:51.6      81   -175    -10    193    194 155.1  -3.1  34218  290.55 0855.19
2009/04/23 11:17:51.7     108   -178      0    209    210 148.8   0.2  34216  290.52 0855.19
2009/04/23 11:17:51.8     164   -154    -32    226    229 133.2  -8.2  34210  290.43 0855.19
2009/04/23 11:17:51.9     178   -154     -1    236    237 130.9  -0.3  34204  290.32 0855.19
2009/04/23 11:17:52.0     149   -121     53    193    201 129.1  15.3  34204  290.31 0855.19
2009/04/23 11:17:52.1     138   -174     20    223    224 141.5   5.2  34202  290.30 0855.19
2009/04/23 11:17:52.2     133   -156     11    206    207 139.5   3.3  34202  290.28 0855.19
2009/04/23 11:17:52.3     118   -111     13    163    164 133.1   4.6  34204  290.33 0855.19
2009/04/23 11:17:52.4      75   -127     41    148    154 149.2  15.8  34204  290.33 0855.19
2009/04/23 11:17:52.5      39   -144    -30    150    153 164.9 -11.3  34204  290.31 0855.19
2009/04/23 11:17:52.6      33   -162    -37    166    171 168.4 -12.6  34206  290.36 0855.19
2009/04/23 11:17:52.7      30   -148    -37    151    156 168.5 -13.9  34206  290.36 0855.19
2009/04/23 11:17:52.8      41   -123    -35    130    135 161.3 -15.4  34206  290.36 0855.19
2009/04/23 11:17:52.9      82   -116    -28    143    146 144.8 -11.3  34202  290.30 0855.19
2009/04/23 11:17:53.0      97   -172    -50    198    205 150.6 -14.3  34202  290.28 0855.19
2009/04/23 11:17:53.1      57   -149    -27    160    163 158.8  -9.8  34202  290.28 0855.19
2009/04/23 11:17:53.2      28   -148     41    151    157 169.3  15.3  34202  290.30 0855.20
2009/04/23 11:17:53.3      49   -155     92    163    187 162.4  31.9  34200  290.25 0855.20
2009/04/23 11:17:53.4      94   -198     69    220    231 154.6  17.4  34196  290.19 0855.20
2009/04/23 11:17:53.5     130   -222     38    258    261 149.5   8.5  34192  290.12 0855.20
2009/04/23 11:17:53.6     148   -249    -15    290    291 149.3  -3.1  34188  290.05 0855.20
2009/04/23 11:17:53.7      75   -213     27    226    228 160.6   6.9  34190  290.09 0855.20
2009/04/23 11:17:53.8      32   -210     18    213    214 171.1   4.9  34190  290.08 0855.20
2009/04/23 11:17:53.9      48   -201     40    207    211 166.4  11.1  34192  290.11 0855.20
2009/04/23 11:17:54.0      83   -208      0    225    226 158.2   0.0  34188  290.04 0855.20
2009/04/23 11:17:54.1      65   -221    -42    231    235 163.5 -10.4  34192  290.10 0855.20
2009/04/23 11:17:54.2      -4   -269    -54    270    276 181.0 -11.5  34192  290.12 0855.20
2009/04/23 11:17:54.3      18   -262    -85    263    277 176.0 -17.9  34194  290.14 0855.20
2009/04/23 11:17:54.4     -14   -251    -36    252    255 183.4  -8.2  34192  290.10 0855.20
2009/04/23 11:17:54.5      -2   -231    -13    232    233 180.7  -3.3  34190  290.08 0855.20
2009/04/23 11:17:54.6      20   -240    -13    241    242 175.1  -3.2  34198  290.22 0855.20
2009/04/23 11:17:54.7      28   -235    -67    237    246 173.1 -20.7  34206  290.36 0855.20
2009/04/23 11:17:54.8     101   -222    -94    245    262 155.5 -26.4  34200  290.24 0855.20
2009/04/23 11:17:54.9      53   -195    -61    203    213 164.8 -16.8  34192  290.13 0855.20
2009/04/23 11:17:55.0      -6   -240    -67    241    251 181.6 -15.5  34202  290.27 0855.20
2009/04/23 11:17:55.1      53   -249    -56    255    262 168.0 -12.4  34204  290.31 0855.20
2009/04/23 11:17:55.2      17   -236    -85    237    251 175.8 -24.8  34206  290.34 0855.20
2009/04/23 11:17:55.3      41   -242    -69    246    256 170.4 -15.8  34202  290.29 0855.20
2009/04/23 11:17:55.4      90   -218    -65    236    244 157.5 -20.0  34202  290.27 0855.20
2009/04/23 11:17:55.5      92   -215    -83    234    249 156.8 -19.6  34198  290.20 0855.20
2009/04/23 11:17:55.6      75   -268    -66    279    287 164.2 -13.4  34204  290.32 0855.20
2009/04/23 11:17:55.7      56   -301    -56    307    313 169.4 -10.5  34214  290.48 0855.20
2009/04/23 11:17:55.8      29   -303    -23    305    306 174.4  -4.4  34218  290.56 0855.20
2009/04/23 11:17:55.9      37   -267    -64    270    278 172.0 -13.4  34220  290.58 0855.20
2009/04/23 11:17:56.0      73   -240    -88    251    267 163.1 -19.4  34210  290.41 0855.20
2009/04/23 11:17:56.1      16   -188    -75    189    203 175.1 -27.2  34214  290.48 0855.20
2009/04/23 11:17:56.2     -32   -227    -70    230    241 188.1 -17.0  34226  290.68 0855.20
2009/04/23 11:17:56.3       3   -284    -57    285    291 179.3 -11.5  34228  290.73 0855.20
2009/04/23 11:17:56.4      53   -262    -56    268    274 168.4 -11.9  34218  290.54 0855.20
2009/04/23 11:17:56.5      64   -246    -36    255    258 165.3  -8.2  34214  290.48 0855.20
2009/04/23 11:17:56.6      16   -212     10    213    214 175.5   2.9  34208  290.40 0855.20
2009/04/23 11:17:56.7      53   -216    -69    223    234 166.2 -17.3  34210  290.43 0855.20
2009/04/23 11:17:56.8      64   -296      3    303    304 167.7   0.7  34204  290.32 0855.20
2009/04/23 11:17:56.9      31   -293     12    295    296 173.8   2.5  34204  290.32 0855.20
2009/04/23 11:17:57.0      42   -255    -54    259    265 170.7 -11.9  34216  290.51 0855.20
2009/04/23 11:17:57.1      31   -289    -11    291    292 173.8  -2.2  34210  290.42 0855.20
2009/04/23 11:17:57.2      66   -324    -10    331    332 168.3  -1.8  34208  290.37 0855.20
2009/04/23 11:17:57.3      71   -373    -20    380    381 169.1  -3.0  34206  290.35 0855.20
2009/04/23 11:17:57.4      83   -402    -19    411    412 168.3  -2.7  34200  290.26 0855.20
2009/04/23 11:17:57.5      95   -363     15    376    377 165.3   2.4  34204  290.33 0855.20
2009/04/23 11:17:57.6     -27   -322    -46    324    328 184.9  -8.1  34202  290.29 0855.20
2009/04/23 11:17:57.7     -17   -289    -20    290    291 183.4  -4.1  34202  290.27 0855.20
2009/04/23 11:17:57.8     -52   -273    -69    279    288 190.9 -13.9  34204  290.31 0855.20
2009/04/23 11:17:57.9      -3   -348     17    349    350 180.5   2.9  34188  290.03 0855.20
2009/04/23 11:17:58.0      31   -360     14    362    363 175.0   2.2  34188  290.06 0855.20
2009/04/23 11:17:58.1      67   -429      5    435    436 171.1   0.7  34192  290.11 0855.20
2009/04/23 11:17:58.2      52   -480    -18    483    484 173.8  -2.2  34194  290.15 0855.20
2009/04/23 11:17:58.3      44   -494    -45    497    500 174.8  -5.2  34186  290.01 0855.20
2009/04/23 11:17:58.4     -64   -510    -31    515    516 187.2  -3.5  34182  289.95 0855.20
2009/04/23 11:17:58.5     -68   -451    -66    457    462 188.6  -8.2  34178  289.87 0855.20
2009/04/23 11:17:58.6     -59   -409    -59    414    419 188.3  -8.1  34180  289.90 0855.20
2009/04/23 11:17:58.7    -100   -394    -18    407    408 194.3  -2.6  34182  289.94 0855.20
2009/04/23 11:17:58.8     -83   -416     -9    425    426 191.3  -1.3  34180  289.90 0855.20
2009/04/23 11:17:58.9       7   -420    -13    421    422 179.0  -1.9  34164  289.63 0855.20
2009/04/23 11:17:59.0      35   -454     -9    456    457 175.5  -1.2  34162  289.61 0855.20
2009/04/23 11:17:59.1      38   -468     20    470    471 175.3   2.5  34166  289.67 0855.20
2009/04/23 11:17:59.2      73   -423     75    430    437 170.2  10.0  34168  289.72 0855.21
2009/04/23 11:17:59.3      31   -388     94    390    402 175.3  13.6  34172  289.77 0855.21
2009/04/23 11:17:59.4      34   -320    155    322    357 173.8  27.4  34178  289.87 0855.21
2009/04/23 11:17:59.5      24   -306    156    308    345 175.5  28.9  34170  289.74 0855.21
2009/04/23 11:17:59.6     -95   -246     52    264    270 201.2  11.1  34178  289.88 0855.21
2009/04/23 11:17:59.7    -121   -317     26    340    341 200.9   4.4  34178  289.86 0855.21
2009/04/23 11:17:59.8    -101   -302     29    319    321 198.5   5.3  34174  289.81 0855.21
2009/04/23 11:17:59.9    -113   -372     19    389    390 196.9   2.9  34188  290.04 0855.21
2009/04/23 11:18:00.0     -96   -359    -42    372    375 195.1  -6.6  34176  289.84 0855.21
2009/04/23 11:18:00.1    -105   -394    -61    408    413 195.0  -8.6  34154  289.46 0855.21
2009/04/23 11:18:00.2    -104   -405    -58    419    423 194.4  -7.9  34152  289.43 0855.21
2009/04/23 11:18:00.3    -158   -402     -4    433    434 201.5  -0.6  34162  289.60 0855.21
2009/04/23 11:18:00.4    -189   -382    -15    427    428 206.3  -2.1  34160  289.58 0855.21
2009/04/23 11:18:00.5    -102   -376    -12    390    391 195.2  -1.9  34158  289.55 0855.21
2009/04/23 11:18:00.6    -129   -424   -104    444    457 196.9 -13.3  34158  289.53 0855.21
2009/04/23 11:18:00.7    -131   -421   -114    441    456 197.3 -14.5  34154  289.46 0855.21
2009/04/23 11:18:00.8     -87   -428   -130    437    457 191.5 -16.6  34170  289.73 0855.21
2009/04/23 11:18:00.9     -90   -401    -89    412    422 192.7 -12.3  34156  289.51 0855.21
2009/04/23 11:18:01.0    -130   -385    -59    407    412 198.7  -8.3  34148  289.36 0855.21
2009/04/23 11:18:01.1     -99   -386    -81    399    408 194.4 -11.6  34148  289.38 0855.21
2009/04/23 11:18:01.2     -94   -375    -78    387    395 194.1 -11.5  34152  289.42 0855.20
2009/04/23 11:18:01.3    -103   -366    -90    381    392 195.7 -13.4  34148  289.37 0855.20
2009/04/23 11:18:01.4    -113   -350   -102    368    382 197.9 -15.5  34152  289.45 0855.20
2009/04/23 11:18:01.5    -115   -323    -88    344    356 199.7 -14.4  34148  289.37 0855.20
2009/04/23 11:18:01.6    -114   -345    -86    364    375 198.4 -13.4  34152  289.43 0855.20
2009/04/23 11:18:01.7    -123   -342    -79    364    373 199.8 -12.3  34152  289.42 0855.20
2009/04/23 11:18:01.8    -115   -340    -66    360    367 198.7 -10.5  34152  289.42 0855.20
2009/04/23 11:18:01.9    -141   -319    -78    349    358 203.9 -12.6  34148  289.38 0855.20
2009/04/23 11:18:02.0    -148   -319    -90    352    364 204.9 -14.4  34150  289.40 0855.20
2009/04/23 11:18:02.1    -126   -339   -121    362    382 200.4 -18.6  34152  289.45 0855.20
2009/04/23 11:18:02.2    -118   -314    -96    336    349 200.6 -20.9  34154  289.48 0855.20
2009/04/23 11:18:02.3    -117   -286   -105    310    328 202.3 -18.7  34160  289.56 0855.20
2009/04/23 11:18:02.4     -84   -277    -75    290    300 197.0 -14.5  34154  289.47 0855.20
2009/04/23 11:18:02.5    -130   -268    -82    298    310 205.9 -15.5  34176  289.85 0855.20
2009/04/23 11:18:02.6    -148   -296    -63    331    338 206.6 -10.9  34172  289.79 0855.20
2009/04/23 11:18:02.7    -127   -269    -66    298    306 205.3 -12.6  34170  289.75 0855.20
2009/04/23 11:18:02.8    -132   -222    -95    259    275 210.7 -25.4  34168  289.70 0855.20
2009/04/23 11:18:02.9    -142   -205    -96    250    267 214.7 -26.5  34162  289.61 0855.20
2009/04/23 11:18:03.0    -162   -229    -46    281    285 215.4  -9.4  34164  289.63 0855.20
2009/04/23 11:18:03.1    -133   -216     16    254    255 211.6   3.8  34170  289.73 0855.20
2009/04/23 11:18:03.2     -68   -203     17    215    216 198.7   4.6  34166  289.67 0855.21
2009/04/23 11:18:03.3     -68   -195      1    207    208 199.4   0.5  34168  289.72 0855.21
2009/04/23 11:18:03.4    -118   -167    -61    205    214 215.2 -16.6  34170  289.74 0855.21
2009/04/23 11:18:03.5    -129    -93    -71    160    175 234.1 -30.1  34184  289.97 0855.21
2009/04/23 11:18:03.6     -20   -124      2    126    127 189.3   1.2  34166  289.69 0855.21
2009/04/23 11:18:03.7     -56   -144      7    155    156 201.4   2.9  34162  289.62 0855.21
2009/04/23 11:18:03.8     -85   -133     14    159    160 212.6   5.2  34164  289.65 0855.21
2009/04/23 11:18:03.9     -82    -83     18    117    119 224.7   8.9  34176  289.85 0855.21
2009/04/23 11:18:04.0    -101    -96     -3    140    141 226.4  -1.3  34186  290.02 0855.21
2009/04/23 11:18:04.1     -92    -76     24    120    123 230.4  11.6  34188  290.04 0855.21
2009/04/23 11:18:04.2    -155    -21      0    157    158 262.1   0.2  34178  289.89 0855.20
2009/04/23 11:18:04.3    -145    -91     -9    172    173 238.0  -3.3  34178  289.89 0855.20
2009/04/23 11:18:04.4    -160    -72    -47    176    183 245.8 -15.2  34180  289.92 0855.20
2009/04/23 11:18:04.5    -185    -26    -23    187    189 261.9  -7.2  34186  290.02 0855.20
2009/04/23 11:18:04.6    -163    -81    -27    183    186 243.6  -8.6  34200  290.25 0855.20
2009/04/23 11:18:04.7    -127   -100    -57    162    171 231.8 -24.4  34202  290.30 0855.20
2009/04/23 11:18:04.8     -58   -114    -51    129    138 207.2 -27.4  34196  290.19 0855.20
2009/04/23 11:18:04.9     -34   -124    -43    129    135 195.6 -23.6  34188  290.04 0855.20
2009/04/23 11:18:05.0     -21   -123    -81    125    148 189.7 -40.0  34178  289.89 0855.20
2009/04/23 11:18:05.1     -12   -135    -54    136    146 185.3 -27.4  34182  289.94 0855.20
2009/04/23 11:18:05.2      -8   -102    -63    103    120 184.5 -38.8  34184  289.99 0855.20
2009/04/23 11:18:05.3      15    -87    -52     89    103 170.2 -37.3  34180  289.92 0855.20
2009/04/23 11:18:05.4      49    -90    -49    103    114 151.5 -31.7  34180  289.92 0855.20
2009/04/23 11:18:05.5      80    -74    -22    110    113 132.7 -11.3  34176  289.85 0855.20
2009/04/23 11:18:05.6     114    -72     -1    136    137 122.4  -0.7  34184  289.99 0855.20
2009/04/23 11:18:05.7      83    -67     16    107    109 129.1   8.5  34184  289.97 0855.20
2009/04/23 11:18:05.8      55    -57     46     80     92 135.9  32.9  34184  289.99 0855.20
2009/04/23 11:18:05.9      69    -52     31     87     92 127.3  20.0  34182  289.94 0855.20
2009/04/23 11:18:06.0     126    -22    -14    129    130 100.1  -6.2  34180  289.91 0855.20
2009/04/23 11:18:06.1      83    -15     37     85     92 100.6  25.1  34180  289.91 0855.20
2009/04/23 11:18:06.2      57      2     70     58     90  87.4  56.3  34196  290.18 0855.20
2009/04/23 11:18:06.3      44      0     77     45     89  89.2  66.8  34188  290.06 0855.20
2009/04/23 11:18:06.4      61     -8     73     62     95  97.9  55.8  34188  290.06 0855.20
2009/04/23 11:18:06.5      71     14     89     73    115  78.6  56.4  34182  289.94 0855.20
2009/04/23 11:18:06.6     124      0     93    125    155  90.0  40.1  34178  289.87 0855.20
2009/04/23 11:18:06.7     122    -24     84    125    150 101.5  37.0  34178  289.87 0855.20
2009/04/23 11:18:06.8     159   -121     20    200    202 127.3   5.9  34174  289.82 0855.20
2009/04/23 11:18:06.9     140   -106     -9    176    177 127.1  -3.1  34180  289.91 0855.20
2009/04/23 11:18:07.0     163   -104     19    194    195 122.6   5.7  34178  289.89 0855.20
2009/04/23 11:18:07.1     182    -76     43    198    203 112.8  12.4  34192  290.13 0855.20
2009/04/23 11:18:07.2     193    -43     36    198    202 102.8  10.3  34196  290.18 0855.20
2009/04/23 11:18:07.3     254      1     62    255    263  89.6  13.7  34220  290.58 0855.20
2009/04/23 11:18:07.4     201     -7    111    202    230  92.1  31.3  34210  290.43 0855.20
2009/04/23 11:18:07.5     164    -10     83    165    184  93.5  28.7  34226  290.69 0855.20
2009/04/23 11:18:07.6     111    -68     90    131    158 121.5  37.8  34226  290.69 0855.20
2009/04/23 11:18:07.7      86    -52     57    101    115 121.1  31.9  34220  290.60 0855.20
2009/04/23 11:18:07.8     122    -40     95    129    160 108.2  40.1  34226  290.70 0855.20
2009/04/23 11:18:07.9     152      0     95    153    180  90.0  35.0  34236  290.86 0855.20
2009/04/23 11:18:08.0     159     22     98    161    188  82.1  34.4  34244  291.01 0855.20
2009/04/23 11:18:08.1      98    -17     82    100    129 100.1  43.7  34236  290.86 0855.20
2009/04/23 11:18:08.2      21     25     89     33     94  39.7  79.7  34238  290.89 0855.20
2009/04/23 11:18:08.3      66     -7    108     67    127  96.1  64.7  34244  290.99 0855.20
2009/04/23 11:18:08.4      65     17    135     68    151  74.9  71.9  34236  290.86 0855.20
2009/04/23 11:18:08.5      13    -56    102     58    117 166.6  68.3  34244  290.99 0855.20
2009/04/23 11:18:08.6     119    -98     92    155    180 129.5  33.5  34224  290.65 0855.20
2009/04/23 11:18:08.7      79   -105     83    132    155 143.0  35.5  34224  290.67 0855.20
2009/04/23 11:18:08.8     111    -86    -28    141    144 127.8 -11.3  34222  290.64 0855.20
2009/04/23 11:18:08.9     116    -12    -10    117    118  96.1  -5.2  34220  290.58 0855.20
2009/04/23 11:18:09.0     119    -21      1    121    122 100.1   0.8  34218  290.55 0855.20
2009/04/23 11:18:09.1     157    -51     15    166    167 108.2   5.4  34220  290.58 0855.20
2009/04/23 11:18:09.2     169    -47     34    176    180 105.5  11.1  34200  290.25 0855.20
2009/04/23 11:18:09.3     150    -54     25    160    163 110.0   9.0  34194  290.14 0855.20
2009/04/23 11:18:09.4     119    -40     55    126    137 108.6  25.1  34220  290.58 0855.20
2009/04/23 11:18:09.5      92    -85     72    126    145 132.7  32.4  34220  290.60 0855.20
2009/04/23 11:18:09.6     115    -68     96    134    164 120.7  39.1  34218  290.57 0855.20
2009/04/23 11:18:09.7      88    -85     98    123    157 134.0  42.7  34198  290.23 0855.20
2009/04/23 11:18:09.8      98    -66    109    119    161 123.7  47.5  34202  290.30 0855.20
2009/04/23 11:18:09.9     139    -88     79    165    182 122.4  27.4  34192  290.13 0855.20
2009/04/23 11:18:10.0     112   -134    107    175    205 140.1  34.4  34186  290.01 0855.20
2009/04/23 11:18:10.1     103   -149    100    182    207 145.3  31.4  34184  289.97 0855.20
2009/04/23 11:18:10.3     108   -151    107    186    214 144.4  32.7  34188  290.04 0855.20
2009/04/23 11:18:10.3     128   -154     99    201    224 140.4  28.2  34186  290.01 0855.20
2009/04/23 11:18:10.4     115   -161     79    199    214 144.4  22.8  34186  290.01 0855.20
2009/04/23 11:18:10.5     135   -135     81    191    207 135.0  24.6  34186  290.01 0855.20
2009/04/23 11:18:10.6     130   -135     57    188    197 135.9  17.1  34186  290.02 0855.20
2009/04/23 11:18:10.7     128   -155     83    202    218 140.3  23.1  34182  289.96 0855.20
2009/04/23 11:18:10.8     145   -166     75    221    234 138.8  18.9  34184  289.97 0855.20
2009/04/23 11:18:10.9     110   -152    110    188    217 144.0  33.1  34188  290.04 0855.20
2009/04/23 11:18:11.0      17   -119    144    121    188 171.9  56.1  34188  290.06 0855.20
2009/04/23 11:18:11.1       7   -155    124    156    199 177.3  42.4  34186  290.01 0855.20
2009/04/23 11:18:11.2      77   -153    110    172    204 153.3  35.6  34186  290.01 0855.20
2009/04/23 11:18:11.4     109   -159     90    193    212 145.5  27.0  34184  289.97 0855.20
2009/04/23 11:18:11.4     106   -156     78    190    205 145.7  23.6  34182  289.94 0855.20
2009/04/23 11:18:11.5      88   -158    101    182    208 150.8  31.4  34184  289.97 0855.20
2009/04/23 11:18:11.6      64   -183    103    195    220 160.6  30.1  34184  289.97 0855.20
2009/04/23 11:18:11.7      61   -170     91    181    202 160.2  29.1  34186  290.01 0855.20
2009/04/23 11:18:11.8      55   -170    107    179    208 162.0  33.7  34186  290.01 0855.20
2009/04/23 11:18:11.9      58   -174    103    184    210 161.3  31.6  34186  290.01 0855.20
2009/04/23 11:18:12.0      54   -175     86    184    203 162.8  27.1  34188  290.06 0855.20
2009/04/23 11:18:12.1      68   -170     74    184    198 158.2  23.0  34186  290.02 0855.20
2009/04/23 11:18:12.2      28   -199     98    202    224 171.8  27.3  34192  290.13 0855.21
2009/04/23 11:18:12.3      34   -213     67    216    227 170.9  17.4  34198  290.23 0855.21
2009/04/23 11:18:12.4      12   -227     71    228    240 176.9  17.4  34202  290.27 0855.21
2009/04/23 11:18:12.6      32   -196    103    199    224 170.7  29.5  34202  290.28 0855.21
2009/04/23 11:18:12.7      33   -190    120    193    227 170.0  35.2  34200  290.26 0855.21
2009/04/23 11:18:12.7      72   -216    103    228    250 161.5  26.2  34196  290.17 0855.21
2009/04/23 11:18:12.8      65   -199    112    210    238 161.7  30.3  34198  290.21 0855.21
2009/04/23 11:18:12.9      54   -165    124    174    213 161.7  39.1  34194  290.14 0855.21
2009/04/23 11:18:13.0      48   -173    115    180    213 164.2  35.6  34194  290.14 0855.21
2009/04/23 11:18:13.1      35   -154    116    159    196 167.1  39.7  34194  290.16 0855.21
2009/04/23 11:18:13.2      60   -128    108    142    178 154.7  41.2  34196  290.18 0855.21
2009/04/23 11:18:13.3      89   -162     92    185    206 151.1  28.2  34188  290.06 0855.21
2009/04/23 11:18:13.4      38   -187     35    191    195 168.4  10.6  34194  290.14 0855.21
2009/04/23 11:18:13.5      29   -169     30    172    175 170.0  10.1  34190  290.09 0855.21
2009/04/23 11:18:13.6      10   -175     49    176    183 176.6  15.6  34190  290.09 0855.21
2009/04/23 11:18:13.7      14   -183     56    184    193 175.5  17.1  34190  290.09 0855.21
2009/04/23 11:18:13.8      19   -188     37    190    194 174.0  11.1  34194  290.16 0855.21
2009/04/23 11:18:14.0      22   -184     59    186    196 172.9  17.7  34196  290.18 0855.21
2009/04/23 11:18:14.0      33   -168     60    172    183 168.7  19.4  34200  290.26 0855.21
2009/04/23 11:18:14.2      34   -183     15    187    188 169.3   4.6  34200  290.25 0855.21
2009/04/23 11:18:14.3      38   -175     29    180    183 167.5   9.3  34194  290.16 0855.20
2009/04/23 11:18:14.4      45   -172     47    178    185 165.1  15.0  34196  290.18 0855.20
2009/04/23 11:18:14.5      79   -193     42    209    214 157.7  11.6  34180  289.91 0855.20
2009/04/23 11:18:14.6      91   -203     26    223    225 155.9   6.9  34184  289.99 0855.20
2009/04/23 11:18:14.7      87   -191     45    210    215 155.5  12.2  34176  289.85 0855.20
2009/04/23 11:18:14.8      83   -162     51    183    191 152.8  15.8  34174  289.80 0855.20
2009/04/23 11:18:14.9     126   -152     43    198    203 140.3  12.4  34166  289.67 0855.20
2009/04/23 11:18:15.0      59   -134    125    147    192 156.3  44.8  34180  289.91 0855.20
2009/04/23 11:18:15.1      55    -80    121     98    155 145.7  56.4  34190  290.09 0855.20
2009/04/23 11:18:15.2      83   -105     73    135    153 141.7  31.3  34176  289.85 0855.20
2009/04/23 11:18:15.3      32   -137     91    141    167 166.7  35.7  34174  289.80 0855.20
2009/04/23 11:18:15.4       9   -129    112    130    171 176.0  45.4  34182  289.94 0855.20
2009/04/23 11:18:15.5      -8   -114    102    115    153 184.5  46.4  34178  289.87 0855.20
2009/04/23 11:18:15.6     -37   -122     96    128    160 196.9  40.7  34180  289.92 0855.20
2009/04/23 11:18:15.7     -18    -82     87     85    121 192.5  50.2  34188  290.04 0855.20
2009/04/23 11:18:15.8     -23   -113     80    116    140 191.5  38.0  34200  290.26 0855.20
2009/04/23 11:18:15.9      39    -38     68     55     87 134.1  56.9  34222  290.62 0855.20
2009/04/23 11:18:16.0      -8   -113    124    114    168 184.4  52.5  34202  290.28 0855.20
2009/04/23 11:18:16.1     -34   -122     58    127    139 195.6  26.6  34206  290.36 0855.20
2009/04/23 11:18:16.2     -62   -134     48    148    156 204.9  17.9  34228  290.74 0855.20
2009/04/23 11:18:16.3    -100   -169     67    197    209 210.5  18.9  34216  290.52 0855.20
2009/04/23 11:18:16.4     -98   -181     83    206    222 208.5  23.0  34206  290.35 0855.20
2009/04/23 11:18:16.5     -27   -172     47    175    182 189.1  15.2  34186  290.02 0855.20
2009/04/23 11:18:16.6     -61   -174     11    185    186 199.4   3.6  34188  290.04 0855.20
2009/04/23 11:18:16.7     -67   -171     25    184    186 201.4   7.8  34184  289.97 0855.20
2009/04/23 11:18:16.8     -68   -175     29    189    192 201.4   8.8  34196  290.18 0855.20
2009/04/23 11:18:16.9    -125   -181    -40    221    225 214.7 -10.5  34202  290.28 0855.20
2009/04/23 11:18:17.0    -140   -178    -81    227    242 218.3 -19.7  34214  290.49 0855.20
2009/04/23 11:18:17.1    -135   -165    -23    214    216 219.2  -6.2  34220  290.60 0855.20
2009/04/23 11:18:17.2    -103   -189     -4    216    217 208.5  -1.1  34214  290.48 0855.20
2009/04/23 11:18:17.3     -53   -198     17    205    206 195.1   4.9  34224  290.65 0855.20
2009/04/23 11:18:17.4     -42   -173      9    179    180 193.8   2.9  34226  290.70 0855.20
2009/04/23 11:18:17.5     -64   -190      1    201    202 198.7   0.5  34250  291.11 0855.20
2009/04/23 11:18:17.6    -121   -147    -20    191    193 219.6  -6.2  34270  291.43 0855.20
2009/04/23 11:18:17.7    -142   -131    -14    194    195 227.3  -4.4  34270  291.43 0855.20
2009/04/23 11:18:17.8    -138   -129    -30    190    193 226.9  -9.0  34266  291.37 0855.20
2009/04/23 11:18:17.9    -152   -121    -37    195    199 231.6 -10.9  34220  290.58 0855.20
2009/04/23 11:18:18.0    -148    -90     34    174    178 238.5  11.1  34280  291.62 0855.20
2009/04/23 11:18:18.1    -126   -119      0    174    175 226.7   0.0  34264  291.35 0855.20
2009/04/23 11:18:18.2    -135   -110     42    175    181 230.9  13.7  34266  291.37 0855.20
2009/04/23 11:18:18.3    -110   -103     24    151    154 226.9   9.3  34256  291.20 0855.20
2009/04/23 11:18:18.4    -125    -80     30    149    153 237.5  11.6  34268  291.42 0855.20
2009/04/23 11:18:18.5     -35    -97    -30    104    108 200.0 -20.7  34248  291.08 0855.20
2009/04/23 11:18:18.6      57   -136     38    148    153 157.3  14.7  34210  290.41 0855.20
2009/04/23 11:18:18.7      66   -236    -54    246    252 164.4 -12.4  34168  289.71 0855.20
2009/04/23 11:18:18.8      67   -192    -60    204    213 160.8 -16.4  34164  289.63 0855.20
2009/04/23 11:18:18.9      97   -238    -51    258    264 157.7 -11.3  34172  289.76 0855.20
2009/04/23 11:18:19.0      41   -267      8    271    272 171.1   1.8  34180  289.90 0855.20
2009/04/23 11:18:19.1      43   -282     24    286    288 171.3   4.9  34176  289.85 0855.20
2009/04/23 11:18:19.2     -64   -246     40    255    259 194.7   9.0  34196  290.17 0855.20
2009/04/23 11:18:19.3     -60   -252    -10    260    261 193.4  -2.2  34180  289.92 0855.20
2009/04/23 11:18:19.4    -170   -251    -39    304    307 214.2  -7.3  34170  289.75 0855.20
2009/04/23 11:18:19.5    -192   -234    -25    303    305 219.4  -4.9  34176  289.83 0855.20
2009/04/23 11:18:19.6    -133   -259    -33    292    294 207.2  -6.5  34186  290.00 0855.20
2009/04/23 11:18:19.7     -96   -233     72    253    264 202.5  16.0  34194  290.15 0855.20
2009/04/23 11:18:19.8     -84   -194     87    212    229 203.4  23.1  34196  290.19 0855.20
2009/04/23 11:18:19.9     -76   -128     32    150    154 210.8  12.2  34196  290.18 0855.20
2009/04/23 11:18:20.0     -96   -143    -34    173    177 213.8 -11.1  34182  289.96 0855.20
2009/04/23 11:18:20.1     -81   -203     42    219    224 201.9  11.0  34196  290.19 0855.20
2009/04/23 11:18:20.2     -74   -221    -29    234    236 198.5  -7.2  34198  290.22 0855.20
2009/04/23 11:18:20.3     -55   -224    -72    231    241 194.0 -22.3  34176  289.83 0855.20
2009/04/23 11:18:20.4     -51   -217    -63    223    231 193.3 -20.4  34162  289.62 0855.20
2009/04/23 11:18:20.5     -16   -219    -60    220    229 184.4 -15.4  34160  289.57 0855.20
2009/04/23 11:18:20.6     -17   -237    -30    238    240 184.2  -7.3  34164  289.64 0855.20
2009/04/23 11:18:20.7     -17   -244    -35    245    248 184.0  -8.2  34162  289.59 0855.20
2009/04/23 11:18:20.8     -40   -221    -22    225    227 190.5  -5.6  34170  289.75 0855.20
2009/04/23 11:18:20.9     -19   -193     -7    195    196 185.8  -2.2  34164  289.65 0855.20
2009/04/23 11:18:21.0     -14   -189     -1    190    191 184.4  -0.5  34160  289.58 0855.20
2009/04/23 11:18:21.1     -16   -212     -8    213    214 184.5  -2.2  34162  289.60 0855.20
2009/04/23 11:18:21.2     -23   -197     -1    199    200 186.9  -0.5  34162  289.60 0855.20
2009/04/23 11:18:21.3     -13   -177     10    178    179 184.2   3.3  34160  289.58 0855.20
2009/04/23 11:18:21.4     -15   -185      5    186    187 184.7   1.8  34164  289.65 0855.20
2009/04/23 11:18:21.5      15   -170      9    171    172 174.7   3.3  34164  289.65 0855.20
2009/04/23 11:18:21.6      39   -188    -37    193    197 168.2 -11.1  34168  289.70 0855.20
2009/04/23 11:18:21.7      37   -221    -44    225    230 170.4 -11.1  34172  289.79 0855.20
2009/04/23 11:18:21.8      15   -203    -47    204    210 175.5 -13.2  34172  289.79 0855.20
2009/04/23 11:18:21.9      15   -219    -47    220    226 176.0 -12.2  34172  289.77 0855.20
2009/04/23 11:18:22.0     -37   -216    -26    220    222 189.8  -6.9  34170  289.75 0855.20
2009/04/23 11:18:22.1     -15   -197    -26    198    200 184.5  -7.5  34170  289.75 0855.20
2009/04/23 11:18:22.2     -21   -238    -39    239    243 185.1  -9.4  34172  289.76 0855.20
2009/04/23 11:18:22.3     -39   -226    -29    230    232 189.8  -7.2  34170  289.74 0855.19
2009/04/23 11:18:22.4     -41   -217    -21    222    224 190.9  -5.6  34172  289.77 0855.19
2009/04/23 11:18:22.5     -27   -224    -23    226    228 187.1  -6.0  34172  289.79 0855.19
2009/04/23 11:18:22.6     -30   -226    -32    228    231 187.6  -8.0  34170  289.74 0855.19
2009/04/23 11:18:22.7     -32   -227    -46    230    235 188.2 -11.3  34174  289.81 0855.19
2009/04/23 11:18:22.8     -24   -221    -12    223    224 186.3  -3.1  34168  289.72 0855.19
2009/04/23 11:18:22.9      -5   -213     -4    214    215 181.6  -1.3  34166  289.69 0855.19
2009/04/23 11:18:23.0       9   -202     -8    203    204 177.4  -2.3  34172  289.77 0855.19
2009/04/23 11:18:23.1     -40   -200    -48    205    211 191.5 -13.4  34170  289.75 0855.19
2009/04/23 11:18:23.2     -18   -178    -35    179    183 185.8 -11.3  34176  289.85 0855.19
2009/04/23 11:18:23.3       5   -212    -35    213    216 178.6  -9.3  34172  289.79 0855.19
2009/04/23 11:18:23.4      17   -215    -44    216    221 175.3 -11.5  34174  289.82 0855.19
2009/04/23 11:18:23.5      32   -214    -32    217    220 171.5  -8.6  34172  289.79 0855.19
2009/04/23 11:18:23.6       3   -236    -25    237    239 179.1  -6.2  34172  289.76 0855.19
2009/04/23 11:18:23.7      13   -223     -8    224    225 176.6  -2.2  34174  289.82 0855.19
2009/04/23 11:18:23.8       5   -208     -8    209    210 178.6  -2.2  34176  289.84 0855.19
2009/04/23 11:18:23.9      -3   -188    -27    189    191 181.1  -8.2  34174  289.82 0855.19
2009/04/23 11:18:24.0     -13   -186     23    187    189 184.0   7.2  34184  289.97 0855.19
2009/04/23 11:18:24.1      -9   -174     21    175    177 183.1   6.9  34186  290.02 0855.19
2009/04/23 11:18:24.2      -3   -184     30    185    188 181.0   9.3  34182  289.94 0855.19
2009/04/23 11:18:24.3      -8   -186      0    187    188 182.5  -0.3  34174  289.80 0855.19
2009/04/23 11:18:24.4     -25   -186      3    188    189 187.8   1.0  34168  289.72 0855.19
2009/04/23 11:18:24.5      -4   -187      0    188    189 181.4   0.2  34174  289.82 0855.19
2009/04/23 11:18:24.6      -4   -181      1    182    183 181.4   0.5  34172  289.79 0855.19
2009/04/23 11:18:24.7     -24   -173     31    175    178 188.0  10.1  34178  289.87 0855.19
2009/04/23 11:18:24.8     -13   -174      8    175    176 184.5   2.9  34176  289.84 0855.19
2009/04/23 11:18:24.9       0   -157      0    158    159 180.0   0.0  34176  289.85 0855.19
2009/04/23 11:18:25.0      30   -166    -12    169    170 169.5  -4.4  34176  289.85 0855.19
2009/04/23 11:18:25.1      25   -188     20    190    192 172.4   6.1  34184  289.97 0855.19
2009/04/23 11:18:25.2      14   -180     22    181    183 175.5   7.1  34192  290.13 0855.19
2009/04/23 11:18:25.3      30   -176     29    179    182 170.2   9.5  34188  290.04 0855.18
2009/04/23 11:18:25.4       2   -147     46    148    155 179.1  17.3  34196  290.18 0855.18
2009/04/23 11:18:25.5       0   -136     65    137    151 180.0  27.2  34206  290.35 0855.18
2009/04/23 11:18:25.6      15   -136     72    137    154 173.7  29.8  34194  290.16 0855.18
2009/04/23 11:18:25.7      33   -141     67    145    159 166.6  26.6  34194  290.16 0855.18
2009/04/23 11:18:25.8      32   -136     58    140    151 166.6  23.6  34182  289.94 0855.18
2009/04/23 11:18:25.9      46   -140     46    148    155 161.5  17.3  34182  289.94 0855.18
2009/04/23 11:18:26.0      41   -126     47    133    142 161.7  19.4  34184  289.99 0855.18
2009/04/23 11:18:26.1      51   -127     44    137    144 158.1  17.9  34186  290.01 0855.18
2009/04/23 11:18:26.2      49   -150     73    159    174 161.7  26.6  34182  289.96 0855.18
2009/04/23 11:18:26.3      59   -153     78    165    182 158.8  27.1  34180  289.92 0855.18
2009/04/23 11:18:26.4      24   -157     80    159    177 171.1  28.7  34182  289.94 0855.18
2009/04/23 11:18:26.5      61   -163     85    175    194 159.5  27.4  34174  289.80 0855.18
2009/04/23 11:18:26.6      70   -223     68    234    244 162.6  16.3  34174  289.80 0855.18
2009/04/23 11:18:26.7      80   -244     27    257    259 161.7   6.1  34174  289.80 0855.18
2009/04/23 11:18:26.8      63   -202     40    212    216 162.6  10.8  34176  289.84 0855.18
2009/04/23 11:18:26.9      59   -193      2    203    204 162.8   0.7  34168  289.72 0855.18
2009/04/23 11:18:27.0      45   -223    -29    228    230 168.4  -7.3  34172  289.77 0855.18
2009/04/23 11:18:27.1      51   -215    -48    222    228 166.6 -12.4  34176  289.84 0855.18
2009/04/23 11:18:27.2      41   -221    -45    225    230 169.3 -11.3  34172  289.79 0855.18
2009/04/23 11:18:27.3      20   -164      0    166    167 172.9  -0.3  34172  289.79 0855.17
2009/04/23 11:18:27.4      40   -149      7    155    156 164.9   2.8  34174  289.80 0855.17
2009/04/23 11:18:27.5      36   -152     10    157    158 166.6   3.8  34174  289.82 0855.17
2009/04/23 11:18:27.6      17   -188     12    189    190 174.7   3.6  34172  289.77 0855.17
2009/04/23 11:18:27.7      43   -190     14    195    196 167.1   4.4  34168  289.72 0855.17
2009/04/23 11:18:27.8      50   -176      9    184    185 164.0   2.8  34168  289.70 0855.17
2009/04/23 11:18:27.9      32   -169     19    173    175 169.1   6.5  34168  289.70 0855.17
2009/04/23 11:18:28.0      34   -166      8    170    171 168.2   2.8  34166  289.67 0855.17
2009/04/23 11:18:28.1      29   -155     16    158    159 169.3   5.9  34166  289.69 0855.17
2009/04/23 11:18:28.2      23   -157     46    159    166 171.5  16.3  34168  289.72 0855.17
2009/04/23 11:18:28.3      20   -161     57    163    173 172.9  19.4  34170  289.75 0855.17
2009/04/23 11:18:28.4      30   -148     55    152    161 168.4  20.7  34172  289.79 0855.17
2009/04/23 11:18:28.5      30   -159     56    162    172 169.3  19.2  34172  289.79 0855.17
2009/04/23 11:18:28.6      31   -155     45    159    166 168.5  16.0  34172  289.77 0855.17
2009/04/23 11:18:28.7      34   -150     32    154    158 167.1  12.0  34170  289.75 0855.17
2009/04/23 11:18:28.8      29   -145     23    148    150 168.5   9.0  34172  289.77 0855.17
2009/04/23 11:18:28.9      32   -137     12    141    142 166.7   4.9  34172  289.77 0855.17
2009/04/23 11:18:29.0      32   -125     40    130    137 165.3  17.3  34168  289.72 0855.17
2009/04/23 11:18:29.1      22   -111     50    114    124 168.5  25.1  34174  289.82 0855.17
2009/04/23 11:18:29.2      29   -116     56    120    132 165.7  27.1  34174  289.82 0855.17
2009/04/23 11:18:29.3      19   -133     54    135    145 171.5  23.0  34178  289.87 0855.15
2009/04/23 11:18:29.4      34   -126     52    131    140 164.9  23.0  34184  289.97 0855.15
2009/04/23 11:18:29.5      52   -110     51    122    132 154.5  23.6  34184  289.97 0855.15
2009/04/23 11:18:29.6      85   -136     15    161    162 147.9   5.4  34176  289.85 0855.15
2009/04/23 11:18:29.7      80   -157      0    177    178 152.8  -0.3  34176  289.85 0855.15
2009/04/23 11:18:29.8      61   -165      6    176    177 159.7   2.1  34176  289.84 0855.15
2009/04/23 11:18:29.9      68   -167     21    181    183 157.7   6.7  34174  289.80 0855.15
2009/04/23 11:18:30.0      50   -161     40    169    174 162.6  13.5  34176  289.84 0855.15
2009/04/23 11:18:30.1      29   -142     34    146    150 168.4  13.2  34176  289.84 0855.15
2009/04/23 11:18:30.2      29   -141     43    145    152 168.4  16.8  34180  289.92 0855.15
2009/04/23 11:18:30.3      30   -129     71    133    150 166.6  30.8  34182  289.94 0855.15
2009/04/23 11:18:30.4      23   -116     64    119    135 168.5  30.8  34180  289.91 0855.15
2009/04/23 11:18:30.5      19   -118     53    120    131 170.7  25.2  34178  289.87 0855.15
2009/04/23 11:18:30.6      28   -113     54    117    128 165.7  26.6  34182  289.94 0855.15
2009/04/23 11:18:30.7      29   -110     56    114    127 164.8  28.2  34180  289.91 0855.15
2009/04/23 11:18:30.8      17   -105     58    107    121 170.7  30.8  34182  289.94 0855.15
2009/04/23 11:18:30.9      23    -97     57    100    115 166.2  32.4  34188  290.06 0855.15
2009/04/23 11:18:31.0      27    -87     60     92    109 162.6  35.6  34186  290.02 0855.15
2009/04/23 11:18:31.1      17   -105     65    107    125 170.7  34.4  34182  289.96 0855.15
2009/04/23 11:18:31.2      14   -114     62    115    130 172.9  30.8  34180  289.92 0855.15
2009/04/23 11:18:31.3      18   -135     65    137    151 172.4  27.2  34180  289.91 0855.15
2009/04/23 11:18:31.4      10   -130     65    131    146 175.6  27.8  34184  289.97 0855.15
2009/04/23 11:18:31.5       6   -120     75    121    142 176.9  35.5  34184  289.99 0855.15
2009/04/23 11:18:31.6      10   -107     80    108    134 174.2  40.1  34188  290.04 0855.15
2009/04/23 11:18:31.7      23   -112     82    115    141 168.4  39.5  34186  290.02 0855.15
2009/04/23 11:18:31.8      21   -102     77    105    130 168.0  39.7  34188  290.04 0855.15
2009/04/23 11:18:31.9       8    -87     82     88    120 174.2  47.9  34188  290.06 0855.15
2009/04/23 11:18:32.0       8   -110     90    111    142 175.6  43.7  34182  289.94 0855.15
2009/04/23 11:18:32.1       2    -94     85     95    127 178.2  46.4  34184  289.99 0855.15
2009/04/23 11:18:32.2      18    -71     89     74    115 165.7  56.3  34188  290.04 0855.15
2009/04/23 11:18:32.3      -8    -94     92     95    132 184.9  49.4  34182  289.94 0855.15
2009/04/23 11:18:32.4      10   -134    115    135    177 175.5  44.8  34184  289.97 0855.15
2009/04/23 11:18:32.5       3   -124    110    125    166 178.2  45.8  34184  289.97 0855.15
2009/04/23 11:18:32.6       0   -139     96    140    169 180.4  37.8  34182  289.96 0855.15
2009/04/23 11:18:32.7       7   -111    103    112    152 176.0  47.9  34188  290.06 0855.15
2009/04/23 11:18:32.8       5    -82     94     83    125 176.4  54.2  34188  290.04 0855.15
2009/04/23 11:18:32.9      14   -100     96    102    140 171.9  48.0  34190  290.08 0855.15
2009/04/23 11:18:33.0      43   -118     97    126    159 160.0  41.4  34186  290.02 0855.15
2009/04/23 11:18:33.1      30   -101     89    106    138 163.1  44.3  34190  290.09 0855.15
2009/04/23 11:18:33.2      27   -118     67    122    139 167.1  31.3  34184  289.99 0855.15
2009/04/23 11:18:33.3      44   -102     57    112    125 156.4  29.2  34186  290.02 0855.15
2009/04/23 11:18:33.4      42   -102     30    111    116 157.3  15.2  34182  289.94 0855.15
2009/04/23 11:18:33.5      37    -96      5    104    105 158.6   2.8  34180  289.91 0855.15
2009/04/23 11:18:33.6      38    -99    -13    107    108 159.1  -7.3  34178  289.89 0855.15
2009/04/23 11:18:33.7      30    -89    -14     94     96 161.3  -8.8  34180  289.91 0855.15
2009/04/23 11:18:33.8       3   -144    -14    145    146 178.6  -5.6  34182  289.96 0855.15
2009/04/23 11:18:33.9     -18   -179     -7    180    181 185.8  -2.2  34184  289.99 0855.15
2009/04/23 11:18:34.0       3   -175    -24    176    178 178.9  -8.0  34178  289.87 0855.15
2009/04/23 11:18:34.1       4   -172    -23    173    175 178.4  -7.7  34180  289.92 0855.15
2009/04/23 11:18:34.2      23   -179    -14    181    182 172.7  -4.6  34178  289.87 0855.15
2009/04/23 11:18:34.3      -7   -192    -11    193    194 182.2  -3.3  34184  289.97 0855.15
2009/04/23 11:18:34.4      13   -162      8    163    164 175.3   2.9  34186  290.01 0855.15
2009/04/23 11:18:34.5     -12   -147      0    148    149 184.9  -0.3  34194  290.14 0855.15
2009/04/23 11:18:34.6      -8   -157     -1    158    159 183.1  -0.7  34200  290.26 0855.15
2009/04/23 11:18:34.7       6   -138     -5    139    140 177.3  -2.2  34188  290.06 0855.15
2009/04/23 11:18:34.8      -6   -129     25    130    133 182.7  11.0  34226  290.69 0855.15
2009/04/23 11:18:34.9      34   -132      1    137    138 165.3   0.7  34186  290.02 0855.15
2009/04/23 11:18:35.0      31   -128      0    132    133 166.2  -0.3  34178  289.89 0855.15
2009/04/23 11:18:35.1      34   -123      2    128    129 164.4   1.2  34182  289.96 0855.15
2009/04/23 11:18:35.2      18   -109      0    111    112 170.2  -0.3  34180  289.92 0855.15
2009/04/23 11:18:35.3      29   -114     10    118    119 165.3   5.0  34184  289.99 0855.15
2009/04/23 11:18:35.4      17    -99    -11    101    102 169.8  -6.2  34180  289.91 0855.15
2009/04/23 11:18:35.5      19    -95    -26     98    102 168.4 -15.0  34180  289.91 0855.15
2009/04/23 11:18:35.6      24    -79     -3     83     84 162.6  -2.2  34184  289.99 0855.15
2009/04/23 11:18:35.7     -13    -65     23     67     71 191.6  18.9  34186  290.01 0855.15
2009/04/23 11:18:35.8      -3    -75     15     76     78 182.7  11.1  34182  289.96 0855.15
2009/04/23 11:18:35.9      -5    -67     26     68     72 184.5  22.0  34192  290.11 0855.15
2009/04/23 11:18:36.0     -21    -84     17     87     89 194.3  11.1  34192  290.13 0855.15
2009/04/23 11:18:36.1      -5    -65     18     66     69 184.5  15.3  34192  290.11 0855.15
2009/04/23 11:18:36.2      -1    -57     31     58     65 181.8  31.3  34192  290.11 0855.15
2009/04/23 11:18:36.3      -7    -90     47     91    102 184.5  29.3  34190  290.08 0855.15
2009/04/23 11:18:36.4      16   -113     39    115    122 171.5  18.9  34186  290.01 0855.15
2009/04/23 11:18:36.5      18   -130     20    132    134 171.9   8.9  34186  290.01 0855.15
2009/04/23 11:18:36.6      19   -116     25    118    121 170.7  12.2  34188  290.06 0855.15
2009/04/23 11:18:36.7       9   -114     31    115    120 175.1  15.3  34188  290.06 0855.15
2009/04/23 11:18:36.8       8   -107     25    108    111 175.6  13.2  34188  290.04 0855.15
2009/04/23 11:18:36.9     -30    -75     41     81     90 201.9  28.7  34196  290.19 0855.15
2009/04/23 11:18:37.0     -46    -96     33    107    113 205.5  17.3  34218  290.57 0855.15
2009/04/23 11:18:37.1     -30   -104     38    109    116 196.0  19.4  34202  290.30 0855.15
2009/04/23 11:18:37.2     -16   -113     22    115    118 188.0  11.0  34200  290.25 0855.15
2009/04/23 11:18:37.3     -27   -135     35    138    143 191.5  14.3  34202  290.28 0855.16
2009/04/23 11:18:37.4     -33   -139     29    143    147 193.4  11.6  34208  290.40 0855.16
2009/04/23 11:18:37.5     -17   -123     15    125    126 188.0   6.9  34200  290.26 0855.16
2009/04/23 11:18:37.6      -4   -109      5    110    111 182.2   2.8  34194  290.16 0855.16
2009/04/23 11:18:37.7      -5   -107     21    108    111 182.7  11.0  34194  290.14 0855.16
2009/04/23 11:18:37.8     -20   -119     47    121    129 189.8  22.0  34236  290.87 0855.16
2009/04/23 11:18:37.9     -14    -55     81     57     99 195.1  61.1  34268  291.40 0855.16
2009/04/23 11:18:38.0       9    -15     65     18     67 147.4  84.8  34288  291.76 0855.16
2009/04/23 11:18:38.1      23     15     69     28     74  57.6  77.1  34282  291.64 0855.16
2009/04/23 11:18:38.2     -44     15     52     47     70 289.1  53.3  34288  291.76 0855.16
2009/04/23 11:18:38.3      -6    -33     32     34     46 191.6  50.0  34282  291.64 0855.16
2009/04/23 11:18:38.4      69    -47     37     84     91 124.2  25.1  34270  291.43 0855.16
2009/04/23 11:18:38.5      70    -14     40     72     82 101.5  31.4  34272  291.47 0855.16
2009/04/23 11:18:38.6      50    -23     57     56     79 115.3  50.1  34280  291.62 0855.16
2009/04/23 11:18:38.7     -15    -47     68     50     84 198.3  60.0  34284  291.67 0855.16
2009/04/23 11:18:38.8     -20    -97     60    100    116 192.0  34.4  34268  291.40 0855.16
2009/04/23 11:18:38.9      29    -92     87     97    130 162.2  46.4  34236  290.87 0855.16
2009/04/23 11:18:39.0      17   -117     87    119    147 171.5  39.7  34196  290.18 0855.16
2009/04/23 11:18:39.1      44   -126     41    134    141 160.4  17.3  34200  290.25 0855.16
2009/04/23 11:18:39.2      35   -127     42    132    139 164.4  17.9  34188  290.06 0855.16
2009/04/23 11:18:39.3      51   -130     62    140    153 158.6  25.2  34192  290.11 0855.16
2009/04/23 11:18:39.4      38   -121     49    127    136 162.6  22.0  34190  290.09 0855.16
2009/04/23 11:18:39.5      32   -112     72    117    137 164.0  35.0  34194  290.16 0855.16
2009/04/23 11:18:39.6      40   -113     27    121    125 160.4  12.6  34192  290.11 0855.16
2009/04/23 11:18:39.7      10   -100     52    101    113 173.8  28.7  34192  290.13 0855.16
2009/04/23 11:18:39.8      -5   -111     56    112    125 182.7  28.7  34192  290.13 0855.16
2009/04/23 11:18:39.9      -5   -126     63    127    141 182.7  28.2  34190  290.08 0855.16
2009/04/23 11:18:40.0      -5   -122     59    123    136 182.7  27.3  34192  290.11 0855.16
2009/04/23 11:18:40.1      14   -133     56    134    145 173.7  23.6  34192  290.13 0855.16
2009/04/23 11:18:40.2      17   -121     71    123    142 172.0  32.4  34194  290.14 0855.16
2009/04/23 11:18:40.3      24   -109     79    112    137 167.5  39.1  34196  290.18 0855.16
2009/04/23 11:18:40.4      23   -113     82    116    142 168.4  39.5  34198  290.23 0855.16
2009/04/23 11:18:40.6       7   -112     76    113    136 176.0  37.0  34196  290.19 0855.16
2009/04/23 11:18:40.6      -8   -102     78    103    129 184.5  41.2  34196  290.18 0855.16
2009/04/23 11:18:40.7       0   -102     61    103    119 180.4  33.5  34192  290.13 0855.16
2009/04/23 11:18:40.9     -13    -87     54     89    104 188.9  34.4  34194  290.16 0855.16
2009/04/23 11:18:40.9      -7    -90     51     91    104 184.5  31.9  34198  290.21 0855.16
2009/04/23 11:18:41.1       6    -78     70     79    105 175.5  46.4  34200  290.25 0855.16
2009/04/23 11:18:41.2       5   -106     74    107    130 177.3  37.6  34194  290.16 0855.16
2009/04/23 11:18:41.3       7    -99     88    100    133 176.0  45.9  34200  290.25 0855.16
2009/04/23 11:18:41.4     -10    -99     70    100    122 185.8  38.6  34194  290.14 0855.16
2009/04/23 11:18:41.5     -14   -103     80    105    132 188.0  41.6  34194  290.14 0855.16
2009/04/23 11:18:41.6      -8   -104     73    105    127 184.5  38.0  34194  290.14 0855.16
2009/04/23 11:18:41.7      -5    -82     81     83    115 184.0  50.0  34196  290.19 0855.16
2009/04/23 11:18:41.8       3    -78     85     79    116 177.3  52.1  34200  290.26 0855.16
2009/04/23 11:18:41.9      -5    -74     93     75    119 184.4  56.9  34196  290.19 0855.16
2009/04/23 11:18:42.0     -16    -98     92    100    135 189.8  47.9  34192  290.11 0855.16
2009/04/23 11:18:42.1     -33   -119     90    124    153 195.6  39.7  34188  290.04 0855.16
2009/04/23 11:18:42.2     -60   -127     80    141    162 205.3  32.1  34190  290.08 0855.16
2009/04/23 11:18:42.3     -38   -126     83    132    155 196.9  35.5  34188  290.04 0855.16
2009/04/23 11:18:42.4     -50   -134     80    144    164 200.5  31.6  34190  290.09 0855.16
2009/04/23 11:18:42.5     -43   -118     79    126    148 200.1  35.5  34196  290.18 0855.16
2009/04/23 11:18:42.6     -20   -109     86    111    140 190.7  41.7  34194  290.16 0855.16
2009/04/23 11:18:42.7     -31   -115     78    120    143 195.1  35.6  34200  290.25 0855.16
2009/04/23 11:18:42.8     -29   -104     94    108    143 195.6  45.8  34206  290.35 0855.16
2009/04/23 11:18:42.9     -15   -108     92    110    143 188.1  44.3  34196  290.18 0855.16
2009/04/23 11:18:43.0     -35   -119     74    125    145 196.5  33.5  34188  290.06 0855.16
2009/04/23 11:18:43.1     -58   -118     85    132    157 206.3  35.7  34194  290.14 0855.16
2009/04/23 11:18:43.2     -42   -108     77    117    140 201.4  36.5  34194  290.14 0855.16
2009/04/23 11:18:43.3     -28   -105     66    109    127 195.2  34.0  34190  290.09 0855.16
2009/04/23 11:18:43.4     -33   -113     76    118    140 196.5  35.6  34188  290.04 0855.17
2009/04/23 11:18:43.5     -33   -113     76    118    140 196.5  35.6  34188  290.04 0855.17
2009/04/23 11:18:43.6     -18    -89    104     91    138 191.6  54.3  34190  290.09 0855.17
2009/04/23 11:18:43.7     -58   -104     81    120    144 209.0  37.0  34194  290.16 0855.17
2009/04/23 11:18:43.8     -34   -103    104    109    150 198.3  48.5  34190  290.08 0855.17
2009/04/23 11:18:43.9     -25   -101     98    105    143 193.8  48.0  34194  290.14 0855.17
2009/04/23 11:18:44.0      -5    -85     76     86    114 183.6  46.4  34198  290.21 0855.17
2009/04/23 11:18:44.1      53    -83     79     99    126 147.5  42.7  34218  290.57 0855.17
2009/04/23 11:18:44.2      70    -57     84     91    123 129.1  47.9  34228  290.72 0855.17
2009/04/23 11:18:44.3      64    -40    100     76    125 122.4  59.0  34224  290.65 0855.17
2009/04/23 11:18:44.4      -4    -40     76     41     86 186.2  69.3  34212  290.47 0855.17
2009/04/23 11:18:44.5      27    -31     81     42     91 139.5  70.8  34210  290.43 0855.17
2009/04/23 11:18:44.6      -1    -37     63     38     73 182.7  65.7  34212  290.47 0855.17
2009/04/23 11:18:44.7       9    -66     85     67    108 172.0  56.9  34200  290.26 0855.17
2009/04/23 11:18:44.8      -5    -67     87     68    110 184.5  57.9  34196  290.19 0855.17
2009/04/23 11:18:44.9     -24    -81     62     85    105 196.9  39.7  34200  290.25 0855.17
2009/04/23 11:18:45.0     -27    -83     49     88    100 198.3  31.4  34190  290.09 0855.17
2009/04/23 11:18:45.1     -43    -82     59     93    110 207.6  35.5  34196  290.18 0855.17
2009/04/23 11:18:45.2     -24    -73     73     77    106 198.3  48.5  34200  290.25 0855.17
2009/04/23 11:18:45.3     -19    -58     67     62     91 198.3  52.2  34198  290.21 0855.17
2009/04/23 11:18:45.4     -17    -64     68     67     95 195.1  49.1  34200  290.25 0855.17
2009/04/23 11:18:45.5     -21    -67     61     71     93 197.8  45.4  34198  290.23 0855.17
2009/04/23 11:18:45.6     -18    -67     53     70     87 195.2  41.2  34198  290.23 0855.17
2009/04/23 11:18:45.7     -10    -53     51     55     75 191.5  47.9  34196  290.18 0855.17
2009/04/23 11:18:45.8     -12    -48     50     50     70 194.3  50.1  34198  290.23 0855.17
2009/04/23 11:18:45.9      -6    -58     40     59     71 186.2  36.5  34198  290.21 0855.17
2009/04/23 11:18:46.0     -14    -54     47     56     73 195.1  43.8  34196  290.18 0855.17
2009/04/23 11:18:46.1     -20    -61     42     65     77 198.7  35.6  34200  290.25 0855.17
2009/04/23 11:18:46.2     -20    -61     55     65     85 198.7  44.8  34214  290.50 0855.17
2009/04/23 11:18:46.3     -63    -31     55     71     89 243.8  42.2  34282  291.66 0855.17
2009/04/23 11:18:46.4     -52     14     55     54     77 285.1  49.1  34320  292.30 0855.17
2009/04/23 11:18:46.5     -99    -32     55    105    118 251.8  29.8  34328  292.42 0855.17
2009/04/23 11:18:46.6     -80      6     18     81     84 274.4  12.6  34328  292.44 0855.17
2009/04/23 11:18:46.7     -41      5     21     42     46 277.9  28.2  34326  292.40 0855.17
2009/04/23 11:18:46.8     -42     26     39     50     63 302.4  42.7  34330  292.46 0855.17
2009/04/23 11:18:46.9      -7     47     46     48     66 351.1  50.0  34336  292.56 0855.17
2009/04/23 11:18:47.0      20     24     46     32     56  39.6  62.6  34316  292.22 0855.17
2009/04/23 11:18:47.1      26      0     33     27     42  90.0  55.4  34282  291.66 0855.17
2009/04/23 11:18:47.2       7    -22     44     24     50 161.7  68.8  34226  290.70 0855.17
2009/04/23 11:18:47.3       0    -54     53     55     76 180.0  50.0  34200  290.26 0855.17
2009/04/23 11:18:47.4      -1    -72     34     73     80 180.9  26.6  34194  290.14 0855.17
2009/04/23 11:18:47.5      -1    -89     31     90     96 180.9  18.9  34192  290.11 0855.17
2009/04/23 11:18:47.6       0    -89     30     90     95 179.5  18.4  34200  290.25 0855.17
2009/04/23 11:18:47.7       6    -77     21     78     81 175.5  15.3  34200  290.26 0855.17
2009/04/23 11:18:47.8      -9    -74     41     75     85 187.1  31.4  34204  290.31 0855.17
2009/04/23 11:18:47.9      -9    -93     47     94    105 185.8  28.2  34218  290.55 0855.17
2009/04/23 11:18:48.0     -17    -87     41     89     97 191.6  26.6  34236  290.87 0855.17
2009/04/23 11:18:48.1     -13    -96     40     97    104 188.0  23.0  34246  291.03 0855.17
2009/04/23 11:18:48.2     -23    -86     59     90    107 195.1  35.6  34252  291.13 0855.17
2009/04/23 11:18:48.3      -5    -71     37     72     80 184.5  29.3  34264  291.33 0855.17
2009/04/23 11:18:48.4     -42    -66     41     79     89 212.5  29.8  34264  291.35 0855.17
2009/04/23 11:18:48.5     -29    -64     41     71     81 204.5  32.9  34258  291.25 0855.17
2009/04/23 11:18:48.6     -25    -53     20     59     63 205.5  19.2  34264  291.33 0855.17
2009/04/23 11:18:48.7     -28    -42     10     51     53 214.3  11.1  34254  291.16 0855.17
2009/04/23 11:18:48.8     -39    -42      0     58     59 222.3  -0.3  34244  290.99 0855.17
2009/04/23 11:18:48.9     -38    -24     -4     45     46 237.6  -5.2  34250  291.11 0855.17
2009/04/23 11:18:49.0     -23     -4     -7     24     26 258.5 -17.6  34250  291.09 0855.17
2009/04/23 11:18:49.1     -25     -6     -1     26     27 254.9  -2.2  34246  291.03 0855.17
2009/04/23 11:18:49.2     -28    -44     -4     53     54 212.6  -5.2  34236  290.86 0855.17
2009/04/23 11:18:49.3     -10    -50    -14     52     55 191.6 -15.5  34234  290.82 0855.17
2009/04/23 11:18:49.4     -34    -37    -14     51     53 222.3 -15.5  34236  290.87 0855.17
2009/04/23 11:18:49.5     -27    -39     -1     48     49 214.3  -2.2  34232  290.81 0855.17
2009/04/23 11:18:49.6     -14    -53      3     55     56 195.1   3.8  34224  290.65 0855.17
2009/04/23 11:18:49.7     -23    -69      8     73     74 198.5   6.9  34208  290.40 0855.17
2009/04/23 11:18:49.8     -14    -70     14     72     74 191.6  11.0  34208  290.38 0855.17
2009/04/23 11:18:49.9     -15    -82      1     84     85 190.7   0.8  34204  290.33 0855.17
2009/04/23 11:18:50.0     -16    -85      5     87     88 191.1   3.3  34208  290.38 0855.17
2009/04/23 11:18:50.1     -42    -80     23     91     94 208.1  14.3  34212  290.45 0855.17
2009/04/23 11:18:50.2     -43    -92     35    102    108 205.4  18.9  34216  290.52 0855.17
2009/04/23 11:18:50.3     -47   -104      5    115    116 204.5   2.8  34210  290.41 0855.17
2009/04/23 11:18:50.4     -60    -82     -4    102    103 216.1  -2.2  34212  290.47 0855.16
2009/04/23 11:18:50.5     -62   -108     -6    125    126 209.9  -3.1  34202  290.30 0855.16
2009/04/23 11:18:50.6     -78   -108    -27    134    137 216.0 -11.5  34206  290.35 0855.16
2009/04/23 11:18:50.7     -68    -85    -32    110    115 218.7 -16.6  34206  290.36 0855.16
2009/04/23 11:18:50.8     -78    -73     -4    108    109 226.8  -2.2  34206  290.35 0855.16
2009/04/23 11:18:50.9     -75    -75     10    107    108 225.1   5.4  34208  290.38 0855.16
2009/04/23 11:18:51.0     -68    -85     -4    109    110 218.7  -2.2  34204  290.31 0855.16
2009/04/23 11:18:51.1     -56    -95     30    111    116 210.7  15.2  34200  290.26 0855.16
2009/04/23 11:18:51.2     -35   -107      9    113    114 198.3   4.9  34200  290.26 0855.16
2009/04/23 11:18:51.3     -30   -107     13    112    113 196.0   7.1  34204  290.33 0855.16
2009/04/23 11:18:51.4     -37    -82     -5     91     92 204.5  -3.7  34204  290.31 0855.16
2009/04/23 11:18:51.5     -47    -88     -2    100    101 208.1  -1.3  34200  290.25 0855.16
2009/04/23 11:18:51.6     -50    -82     11     97     98 211.2   6.9  34200  290.26 0855.16
2009/04/23 11:18:51.7     -48    -65     -3     82     83 216.5  -2.2  34200  290.26 0855.16
2009/04/23 11:18:51.8     -36    -77     16     86     88 204.9  11.0  34200  290.26 0855.16
2009/04/23 11:18:51.9     -40    -64     -3     76     77 212.6  -2.2  34200  290.26 0855.16
2009/04/23 11:18:52.0     -52    -52      2     74     75 225.0   1.8  34204  290.31 0855.16
2009/04/23 11:18:52.1     -53    -44     -1     70     71 230.4  -1.3  34204  290.33 0855.16
2009/04/23 11:18:52.2     -52    -57    -11     78     79 222.3  -8.2  34206  290.36 0855.16
2009/04/23 11:18:52.3     -54    -57      0     79     80 223.2  -0.7  34202  290.30 0855.16
2009/04/23 11:18:52.4     -44    -78     15     90     92 209.9   9.5  34200  290.26 0855.17
2009/04/23 11:18:52.5     -43    -63     15     77     79 214.3  11.6  34200  290.26 0855.17
2009/04/23 11:18:52.6     -41    -37     52     56     76 227.8  48.0  34208  290.38 0855.17
2009/04/23 11:18:52.7     -81    -39     51     90    103 244.2  31.4  34240  290.94 0855.17
2009/04/23 11:18:52.8     -94    -38     29    102    107 247.8  15.8  34272  291.49 0855.17
2009/04/23 11:18:52.9    -112    -37     14    119    120 251.4   6.9  34280  291.60 0855.17
2009/04/23 11:18:53.0    -104    -40    -14    112    113 248.7  -7.3  34290  291.79 0855.17
2009/04/23 11:18:53.1     -81    -47    -24     94     98 239.8 -14.5  34286  291.71 0855.17
2009/04/23 11:18:53.2     -83    -53    -32     99    105 237.6 -18.1  34282  291.66 0855.17
2009/04/23 11:18:53.3     -71    -56    -26     91     95 231.4 -16.0  34286  291.71 0855.17
2009/04/23 11:18:53.4    -103    -45     10    113    114 246.0   5.4  34256  291.21 0855.17
2009/04/23 11:18:53.5     -76    -52     32     93     99 235.4  19.2  34236  290.87 0855.17
2009/04/23 11:18:53.6     -59    -43     41     74     84 234.1  31.9  34254  291.16 0855.17
2009/04/23 11:18:53.7     -56     -4    -21     57     60 265.7 -25.4  34250  291.11 0855.17
2009/04/23 11:18:53.8     -68    -37    -15     78     80 241.2 -10.9  34260  291.26 0855.17
2009/04/23 11:18:53.9     -89    -52    -28    104    108 239.8 -15.5  34268  291.40 0855.17
2009/04/23 11:18:54.0     -96    -31    -18    102    104 251.8 -10.3  34322  292.34 0855.17
2009/04/23 11:18:54.1     -91    -29    -29     96    101 252.3 -17.0  34302  292.00 0855.17
2009/04/23 11:18:54.2    -106    -35    -30    112    116 251.4 -15.0  34312  292.15 0855.17
2009/04/23 11:18:54.3    -111    -19    -22    113    116 259.9 -11.3  34314  292.20 0855.17
2009/04/23 11:18:54.4    -135    -28    -22    138    140 258.1  -9.3  34308  292.08 0855.17
2009/04/23 11:18:54.5    -113    -41    -31    121    126 250.1 -14.5  34296  291.89 0855.17
2009/04/23 11:18:54.6    -102    -40    -38    110    116 248.3 -23.3  34296  291.88 0855.17
2009/04/23 11:18:54.7     -69    -43    -49     82     95 237.6 -38.8  34300  291.96 0855.17
2009/04/23 11:18:54.8     -66    -68    -64     96    115 224.1 -40.4  34298  291.91 0855.17
2009/04/23 11:18:54.9     -51    -62    -49     81     94 219.6 -39.4  34290  291.77 0855.17
2009/04/23 11:18:55.0     -37    -70    -50     80     94 208.1 -39.9  34280  291.62 0855.17
2009/04/23 11:18:55.1     -27    -81    -41     86     95 198.3 -31.6  34290  291.79 0855.17
2009/04/23 11:18:55.2     -27    -60    -51     66     83 204.5 -46.1  34270  291.45 0855.17
2009/04/23 11:18:55.3     -15    -48    -48     51     70 197.8 -52.4  34268  291.42 0855.17
2009/04/23 11:18:55.4      32    -58    -43     67     79 151.0 -40.4  34272  291.47 0855.17
2009/04/23 11:18:55.5      16    -49    -54     52     74 161.7 -53.5  34280  291.60 0855.17
2009/04/23 11:18:55.6       0    -44    -80     45     91 180.0 -72.7  34306  292.05 0855.17
2009/04/23 11:18:55.7       0    -47    -60     48     76 180.9 -60.8  34302  291.98 0855.17
2009/04/23 11:18:55.8     -24    -35    -39     43     58 214.3 -52.3  34320  292.30 0855.17
2009/04/23 11:18:55.9     -18    -31    -52     37     63 210.7 -65.0  34336  292.58 0855.17
2009/04/23 11:18:56.0     -60    -60    -49     85     98 225.1 -37.3  34332  292.49 0855.17
2009/04/23 11:18:56.1     -89    -84    -77    123    145 226.9 -39.9  34328  292.42 0855.17
2009/04/23 11:18:56.2     -36   -108    -37    115    120 198.7 -23.3  34336  292.58 0855.17
2009/04/23 11:18:56.3     -33   -102      1    108    109 198.3   0.8  34334  292.54 0855.17
2009/04/23 11:18:56.4     -59    -84     -6    104    105 215.2  -3.7  34316  292.22 0855.18
2009/04/23 11:18:56.5     -42    -71    -49     83     96 211.2 -38.4  34280  291.60 0855.18
2009/04/23 11:18:56.6     -46    -58    -61     75     96 218.7 -48.1  34286  291.72 0855.18
2009/04/23 11:18:56.7     -30    -55    -64     63     89 209.0 -54.1  34282  291.64 0855.18
2009/04/23 11:18:56.8      -1    -90    -67     91    113 180.9 -44.5  34302  292.00 0855.18
2009/04/23 11:18:56.9      30   -110    -58    115    128 164.4 -33.1  34284  291.67 0855.18
2009/04/23 11:18:57.0      15    -98    -53    100    113 171.1 -34.2  34272  291.49 0855.18
2009/04/23 11:18:57.1       3    -74    -39     75     84 177.3 -34.2  34262  291.32 0855.18
2009/04/23 11:18:57.2     -12    -87    -40     88     96 188.5 -30.6  34228  290.74 0855.18
2009/04/23 11:18:57.3     -16   -102    -27    104    108 188.9 -14.5  34246  291.04 0855.18
2009/04/23 11:18:57.4     -33    -96    -29    102    107 199.2 -16.0  34292  291.83 0855.18
2009/04/23 11:18:57.5     -54    -92    -25    107    111 210.7 -13.4  34312  292.17 0855.18
2009/04/23 11:18:57.6     -53    -75    -31     93     98 215.2 -23.6  34300  291.96 0855.18
2009/04/23 11:18:57.7     -68    -69    -17     97     99 224.5 -10.3  34314  292.20 0855.18
2009/04/23 11:18:57.8     -12    -88    -47     89    100 188.0 -34.7  34240  290.94 0855.18
2009/04/23 11:18:57.9       0    -73    -55     74     92 180.0 -45.1  34238  290.91 0855.18
2009/04/23 11:18:58.0      -8    -76    -50     77     91 186.2 -40.0  34240  290.94 0855.18
2009/04/23 11:18:58.1     -24    -87    -44     91    101 195.6 -31.7  34240  290.94 0855.18
2009/04/23 11:18:58.2     -98   -104    -52    144    153 223.2 -24.8  34280  291.62 0855.18
2009/04/23 11:18:58.3    -118    -97    -60    153    164 230.5 -26.7  34286  291.71 0855.18
2009/04/23 11:18:58.4    -123   -106    -46    163    169 229.1 -20.4  34276  291.54 0855.18
2009/04/23 11:18:58.5    -117    -99    -18    154    156 230.0  -6.7  34302  291.98 0855.18
2009/04/23 11:18:58.6    -161    -90    -73    185    198 240.7 -27.2  34244  290.99 0855.18
2009/04/23 11:18:58.7    -162   -120    -65    202    212 233.4 -23.0  34278  291.59 0855.18
2009/04/23 11:18:58.8    -157    -89    -54    181    189 240.5 -16.6  34272  291.47 0855.18
2009/04/23 11:18:58.9    -161    -76    -77    179    194 244.7 -29.3  34212  290.45 0855.18
2009/04/23 11:18:59.0    -180    -86   -108    200    227 244.2 -35.4  34254  291.16 0855.18
2009/04/23 11:18:59.1    -142   -104   -102    177    204 233.8 -37.1  34260  291.28 0855.18
2009/04/23 11:18:59.2    -101   -141   -112    174    206 215.8 -40.0  34244  290.99 0855.18
2009/04/23 11:18:59.3    -138   -181    -55    228    235 217.4 -13.7  34288  291.75 0855.18
2009/04/23 11:18:59.4    -146   -200    -22    248    250 216.1  -5.2  34280  291.61 0855.18
2009/04/23 11:18:59.5    -117   -145     45    187    193 219.0  13.7  34314  292.18 0855.18
2009/04/23 11:18:59.6    -116    -87     45    145    152 233.1  17.4  34320  292.30 0855.18
2009/04/23 11:18:59.7    -140   -103     52    175    183 233.6  16.6  34326  292.39 0855.18
2009/04/23 11:18:59.8    -139    -59     52    152    161 246.9  18.9  34338  292.59 0855.18
2009/04/23 11:18:59.9    -135    -91     49    164    172 235.9  16.6  34352  292.83 0855.18
2009/04/23 11:19:00.0    -168    -79     73    186    199 244.6  22.5  34298  291.91 0855.18
2009/04/23 11:19:00.1    -145   -122     18    190    191 229.8   5.7  34302  292.00 0855.18
2009/04/23 11:19:00.2    -129    -77    -24    151    154 239.3  -9.3  34312  292.15 0855.18
2009/04/23 11:19:00.3    -133    -78    -20    155    157 239.8  -7.5  34316  292.23 0855.18
2009/04/23 11:19:00.4    -141    -66    -13    156    157 244.7  -4.9  34334  292.52 0855.18
2009/04/23 11:19:00.5    -119   -116      0    167    168 225.8   0.0  34314  292.18 0855.18
2009/04/23 11:19:00.6    -112   -128      8    171    172 221.2   2.8  34320  292.29 0855.18
2009/04/23 11:19:00.7     -83   -126     18    151    153 213.4   6.9  34250  291.11 0855.18
2009/04/23 11:19:00.8     -83   -157      1    178    179 207.9   0.5  34250  291.09 0855.18
2009/04/23 11:19:00.9     -65   -160     11    173    174 202.1   3.8  34240  290.92 0855.18
2009/04/23 11:19:01.0     -72   -164     11    180    181 203.8   3.8  34232  290.81 0855.18
2009/04/23 11:19:01.1     -82   -166    -10    186    187 206.3  -3.2  34242  290.98 0855.18
2009/04/23 11:19:01.2     -89   -168    -10    191    192 207.9  -3.1  34236  290.86 0855.18
2009/04/23 11:19:01.3     -76   -165    -11    182    183 204.9  -3.7  34230  290.75 0855.18
2009/04/23 11:19:01.4     -53   -172     23    181    183 197.2   7.5  34226  290.70 0855.18
2009/04/23 11:19:01.5     -37   -175     11    179    180 192.0   3.6  34204  290.33 0855.18
2009/04/23 11:19:01.6     -23   -191     19    193    194 186.9   5.7  34200  290.25 0855.18
2009/04/23 11:19:01.7     -16   -205     26    206    208 184.7   7.2  34196  290.18 0855.18
2009/04/23 11:19:01.8     -22   -178     23    180    182 187.3   7.5  34198  290.23 0855.18
2009/04/23 11:19:01.9      10   -199     46    200    206 176.9  13.1  34204  290.33 0855.18
2009/04/23 11:19:02.0      36   -201     83    205    221 169.8  23.1  34206  290.35 0855.18
2009/04/23 11:19:02.1      31   -153     48    157    165 168.4  17.1  34208  290.38 0855.18
2009/04/23 11:19:02.2      39   -118    -27    125    129 161.7 -12.4  34206  290.35 0855.18
2009/04/23 11:19:02.3      46   -178    -64    185    195 165.3 -23.8  34206  290.36 0855.18
2009/04/23 11:19:02.4      58   -175    -86    185    204 161.5 -31.0  34218  290.55 0855.18
2009/04/23 11:19:02.5      79   -170    -71    188    200 155.1 -25.9  34212  290.45 0855.18
2009/04/23 11:19:02.6      88   -185    -48    205    211 154.5 -13.2  34206  290.36 0855.18
2009/04/23 11:19:02.7      79   -184    -29    201    204 156.6  -8.2  34202  290.30 0855.18
2009/04/23 11:19:02.8      68   -167    -29    181    184 157.9  -9.3  34204  290.33 0855.18
2009/04/23 11:19:02.9      65   -187     -4    199    200 160.8  -1.2  34202  290.30 0855.18
2009/04/23 11:19:03.0      58   -175      0    185    186 161.5   0.2  34204  290.33 0855.18
2009/04/23 11:19:03.1      46   -165      1    172    173 164.4   0.5  34204  290.31 0855.18
2009/04/23 11:19:03.2      29   -147      9    150    151 168.5   3.8  34202  290.30 0855.18
2009/04/23 11:19:03.3       7   -135     26    136    139 176.9  11.0  34204  290.31 0855.18
2009/04/23 11:19:03.4     -10   -137     37    138    144 184.4  15.2  34206  290.35 0855.18
2009/04/23 11:19:03.5     -27   -132     47    135    144 191.6  19.4  34204  290.33 0855.18
2009/04/23 11:19:03.6     -35   -132     16    137    139 195.1   6.9  34200  290.25 0855.18
2009/04/23 11:19:03.7     -38   -143     19    149    151 195.1   7.5  34198  290.21 0855.18
2009/04/23 11:19:03.8     -32   -134     12    138    139 193.4   5.0  34196  290.19 0855.18
2009/04/23 11:19:03.9     -30   -128     46    132    140 193.3  19.4  34198  290.21 0855.18
2009/04/23 11:19:04.0     -29   -142     55    146    156 191.6  21.0  34194  290.14 0855.18
2009/04/23 11:19:04.1     -28   -163     66    166    178 190.0  23.0  34202  290.28 0855.18
2009/04/23 11:19:04.2      -2   -177     66    178    189 180.7  21.0  34198  290.23 0855.18
2009/04/23 11:19:04.3      -3   -174     90    175    196 181.1  29.3  34202  290.30 0855.18
2009/04/23 11:19:04.4       0   -184     59    185    195 180.0  17.7  34202  290.28 0855.19
2009/04/23 11:19:04.5      15   -190     60    191    201 175.3  17.4  34200  290.26 0855.19
2009/04/23 11:19:04.6      33   -175     73    179    193 169.1  23.1  34204  290.33 0855.19
2009/04/23 11:19:04.7      28   -181     82    184    201 171.1  25.3  34202  290.30 0855.19
2009/04/23 11:19:04.8      13   -223     11    224    225 176.6   2.9  34200  290.25 0855.19
2009/04/23 11:19:04.9      24   -239     16    241    242 174.2   3.9  34198  290.22 0855.19
2009/04/23 11:19:05.0      46   -166     61    173    183 164.4  20.0  34204  290.31 0855.19
2009/04/23 11:19:05.1      22   -181      0    183    184 172.9   0.0  34202  290.28 0855.19
2009/04/23 11:19:05.2      50   -171     43    179    185 163.7  13.7  34204  290.33 0855.19
2009/04/23 11:19:05.3      55   -151     28    161    164 159.9   9.9  34210  290.43 0855.19
2009/04/23 11:19:05.4     -15   -106     14    108    109 188.5   7.5  34204  290.33 0855.19
2009/04/23 11:19:05.5     -34   -110     27    116    120 197.4  13.2  34202  290.28 0855.19
2009/04/23 11:19:05.7     -24   -122     11    125    126 191.5   5.4  34202  290.28 0855.19
2009/04/23 11:19:05.7      16   -149    -19    150    152 173.8  -7.3  34204  290.31 0855.19
2009/04/23 11:19:05.8     -21   -142     -2    144    145 188.5  -1.2  34194  290.16 0855.19
2009/04/23 11:19:05.9     -48   -131     -5    140    141 200.1  -2.2  34198  290.21 0855.19
2009/04/23 11:19:06.0     -79   -134    -12    156    157 210.7  -4.6  34196  290.18 0855.19
2009/04/23 11:19:06.1     -79   -127     -6    150    151 212.1  -2.6  34198  290.23 0855.19
2009/04/23 11:19:06.2     -61   -113     -2    129    130 208.5  -1.3  34202  290.28 0855.19
2009/04/23 11:19:06.3     -69   -110     10    130    131 212.1   4.4  34198  290.21 0855.19
2009/04/23 11:19:06.4     -70   -106      1    128    129 213.4   0.7  34200  290.26 0855.18
2009/04/23 11:19:06.5     -82   -105      6    134    135 217.8   2.8  34200  290.26 0855.18
2009/04/23 11:19:06.6     -81   -101     24    130    133 218.7  10.6  34208  290.38 0855.18
2009/04/23 11:19:06.7     -64   -118     36    135    140 208.5  15.3  34202  290.30 0855.18
2009/04/23 11:19:06.9     -74   -116     33    138    143 212.5  13.7  34208  290.38 0855.18
2009/04/23 11:19:07.0     -68   -107     31    128    132 212.5  13.7  34202  290.30 0855.18
2009/04/23 11:19:07.1     -55   -116     45    129    137 205.5  19.4  34218  290.57 0855.18
2009/04/23 11:19:07.2     -45   -122     49    131    139 200.5  21.0  34204  290.31 0855.18
2009/04/23 11:19:07.2     -40   -121     54    128    138 198.3  24.1  34204  290.31 0855.18
2009/04/23 11:19:07.4     -48   -102     39    113    120 205.4  19.4  34204  290.33 0855.18
2009/04/23 11:19:07.5     -60    -94     38    112    119 212.5  18.9  34200  290.26 0855.18
2009/04/23 11:19:07.6     -60    -94     38    112    119 212.5  18.9  34200  290.26 0855.18
2009/04/23 11:19:07.7     -43   -124     72    132    150 199.2  31.3  34262  291.30 0855.18
2009/04/23 11:19:07.8     -42   -102    114    111    159 202.3  50.7  34246  291.03 0855.18
2009/04/23 11:19:07.9     -32    -76     90     83    122 202.7  52.2  34234  290.82 0855.18
2009/04/23 11:19:08.0      33    -45     93     56    108 143.9  65.7  34232  290.79 0855.18
2009/04/23 11:19:08.1      -9   -110    114    111    159 184.9  50.7  34208  290.40 0855.18
2009/04/23 11:19:08.2      -3    -92     70     93    116 182.2  40.7  34204  290.33 0855.18
2009/04/23 11:19:08.3       0    -98     98     99    139 180.4  50.0  34208  290.40 0855.18
2009/04/23 11:19:08.4      10   -135     94    136    165 175.5  38.0  34208  290.40 0855.18
2009/04/23 11:19:08.5      34   -139     74    144    161 166.2  29.3  34208  290.40 0855.18
2009/04/23 11:19:08.6      15   -146     17    147    149 173.8   6.9  34204  290.31 0855.18
2009/04/23 11:19:08.7     -26   -137     40    140    146 191.1  16.3  34208  290.38 0855.18
2009/04/23 11:19:08.8     -61   -183     95    194    216 198.5  27.8  34210  290.41 0855.18
2009/04/23 11:19:08.9     -43   -173     62    179    190 194.0  19.2  34222  290.62 0855.18
2009/04/23 11:19:09.0    -102   -178     86    206    223 209.9  23.6  34260  291.28 0855.18
2009/04/23 11:19:09.1     -95   -185     46    208    214 207.2  12.6  34244  291.01 0855.18
2009/04/23 11:19:09.2     -65   -154    -58    168    178 202.9 -19.1  34236  290.87 0855.18
2009/04/23 11:19:09.3    -101   -181    -34    208    211 209.2  -9.3  34254  291.16 0855.18
2009/04/23 11:19:09.4    -108   -175     19    206    207 211.6   5.4  34246  291.04 0855.18
2009/04/23 11:19:09.5    -104   -141     20    176    178 216.5   6.5  34244  290.99 0855.18
2009/04/23 11:19:09.6     -47   -139      2    147    148 198.7   0.8  34236  290.87 0855.18
2009/04/23 11:19:09.7     -48   -146     22    154    156 198.3   8.2  34222  290.64 0855.18
2009/04/23 11:19:09.8     -79   -147      6    168    169 208.3   2.3  34228  290.72 0855.18
2009/04/23 11:19:09.9     -80   -173      2    191    192 204.9   0.8  34238  290.91 0855.18
2009/04/23 11:19:10.0     -67   -147    -15    162    163 204.5  -5.4  34238  290.91 0855.18
2009/04/23 11:19:10.1     -76   -105     37    130    136 216.1  15.8  34240  290.92 0855.18
2009/04/23 11:19:10.2     -81    -98     20    128    130 219.6   9.0  34242  290.98 0855.18
2009/04/23 11:19:10.3     -73    -77     21    107    110 223.7  11.1  34242  290.98 0855.18
2009/04/23 11:19:10.4     -51    -80     53     95    108 212.5  31.4  34232  290.81 0855.18
2009/04/23 11:19:10.5     -28    -78     49     83     96 200.0  34.0  34238  290.89 0855.18
2009/04/23 11:19:10.6     -24    -72     78     77    109 198.7  49.7  34252  291.13 0855.18
2009/04/23 11:19:10.7     -48    -75     47     90    101 212.6  29.8  34256  291.21 0855.18
2009/04/23 11:19:10.8     -30    -90     66     96    116 198.7  37.6  34244  290.99 0855.18
2009/04/23 11:19:10.9     -24    -71     72     76    104 198.7  49.0  34246  291.03 0855.18
2009/04/23 11:19:11.0     -33    -80     56     87    103 202.3  35.6  34240  290.92 0855.18
2009/04/23 11:19:11.1     -24    -63     58     68     89 200.9  44.8  34240  290.92 0855.18
2009/04/23 11:19:11.2     -38    -94     64    102    120 202.3  35.5  34236  290.86 0855.18
2009/04/23 11:19:11.3     -63    -91     63    111    127 214.7  31.9  34232  290.81 0855.18
2009/04/23 11:19:11.4     -55    -62     28     84     89 221.4  18.9  34234  290.84 0855.18
2009/04/23 11:19:11.5     -31    -89     26     95     99 199.6  15.8  34244  290.99 0855.17
2009/04/23 11:19:11.6     -51    -72     38     89     96 215.2  24.1  34240  290.94 0855.17
2009/04/23 11:19:11.7     -46    -67     39     82     90 214.3  27.2  34230  290.77 0855.17
2009/04/23 11:19:11.8     -31    -81     -1     87     88 200.9  -1.3  34220  290.60 0855.17
2009/04/23 11:19:11.9     -36    -37     28     52     59 224.2  31.3  34228  290.74 0855.17
2009/04/23 11:19:12.0     -52    -61     31     81     86 220.5  21.5  34228  290.74 0855.17
2009/04/23 11:19:12.1     -44    -28     32     53     61 237.6  34.4  34230  290.77 0855.17
2009/04/23 11:19:12.2       0    -50     56     51     75 180.9  52.2  34236  290.87 0855.17
2009/04/23 11:19:12.3      42    -55     67     70     96 143.0  49.4  34234  290.82 0855.17
2009/04/23 11:19:12.4      47    -88     72    100    123 151.9  39.5  34210  290.43 0855.17
2009/04/23 11:19:12.5      45    -79     71     92    116 150.1  41.7  34210  290.43 0855.17
2009/04/23 11:19:12.6      57    -77     66     97    117 143.5  37.0  34218  290.57 0855.17
2009/04/23 11:19:12.7      33    -54     61     64     88 148.4  49.4  34222  290.64 0855.17
2009/04/23 11:19:12.8      33    -30     48     45     65 132.2  52.1  34228  290.74 0855.17
2009/04/23 11:19:12.9      28    -28     48     40     62 135.0  56.3  34244  290.99 0855.17
2009/04/23 11:19:13.0      25     -8     40     27     48 108.6  63.6  34246  291.03 0855.17
2009/04/23 11:19:13.1      24    -14     37     29     47 120.7  57.5  34242  290.96 0855.17
2009/04/23 11:19:13.2      22     -7     49     24     54 108.2  72.9  34236  290.86 0855.17
2009/04/23 11:19:13.3      86    -14     58     88    105  99.7  36.0  34222  290.64 0855.17
2009/04/23 11:19:13.4      62    -42     85     75    113 124.2  53.7  34230  290.75 0855.17
2009/04/23 11:19:13.5      47     -8     73     48     87 100.6  64.1  34246  291.04 0855.17
2009/04/23 11:19:13.6      -8     57     68     58     89 352.0  55.4  34244  290.99 0855.17
2009/04/23 11:19:13.7     110      4     57    111    124  87.9  29.3  34214  290.48 0855.17
2009/04/23 11:19:13.8     105      0     61    106    122  90.4  32.4  34218  290.55 0855.17
2009/04/23 11:19:13.9     100     -7     79    101    128  94.3  42.2  34230  290.77 0855.17
2009/04/23 11:19:14.0      72    -19     85     75    113 105.0  53.7  34236  290.86 0855.17
2009/04/23 11:19:14.1      62     13     85     64    106  77.6  59.4  34244  291.01 0855.17
2009/04/23 11:19:14.2      88      0     99     89    133  90.0  53.3  34234  290.82 0855.17
2009/04/23 11:19:14.3      21     21     87     30     92  45.1  81.2  34254  291.16 0855.17
2009/04/23 11:19:14.4       9      4     80     11     80  64.7  90.0  34262  291.32 0855.17
2009/04/23 11:19:14.5      57    -47     55     74     92 129.5  40.7  34238  290.89 0855.17
2009/04/23 11:19:14.6      32    -67     72     75    103 154.6  49.0  34226  290.69 0855.17
2009/04/23 11:19:14.7      11    -95     60     96    113 173.3  35.5  34216  290.52 0855.17
2009/04/23 11:19:14.8      28   -117     62    121    135 166.2  29.2  34218  290.55 0855.17
2009/04/23 11:19:14.9      53   -112     92    125    155 154.6  39.7  34224  290.65 0855.17
2009/04/23 11:19:15.0      81    -97     88    127    154 139.9  37.6  34220  290.60 0855.17
2009/04/23 11:19:15.1      94    -60    104    112    152 122.4  47.9  34230  290.77 0855.17
2009/04/23 11:19:15.2       0    -98    127     99    161 179.5  58.2  34222  290.62 0855.17
2009/04/23 11:19:15.3      49     20     97     54    111  67.4  68.8  34230  290.75 0855.17
2009/04/23 11:19:15.4       0    -17     91     18     92 182.7  89.1  34228  290.74 0855.17
2009/04/23 11:19:15.5      59    -22     98     64    117 110.8  64.6  34226  290.69 0855.18
2009/04/23 11:19:15.6      92    -35    104     99    143 111.3  51.6  34228  290.72 0855.18
2009/04/23 11:19:15.7      86    -49    100    100    141 119.8  50.1  34230  290.75 0855.18
2009/04/23 11:19:15.8     111    -63    128    128    181 119.8  50.1  34222  290.62 0855.18
2009/04/23 11:19:15.9      75    -45     89     88    125 121.1  50.1  34222  290.64 0855.18
2009/04/23 11:19:16.0      46    -68     68     83    107 146.2  43.7  34224  290.67 0855.18
2009/04/23 11:19:16.1     100    -79     33    128    133 128.6  14.7  34214  290.48 0855.18
2009/04/23 11:19:16.2     112    -93     47    146    154 129.6  17.9  34216  290.53 0855.18
2009/04/23 11:19:16.3      99   -120     87    156    178 140.4  31.4  34208  290.40 0855.18
2009/04/23 11:19:16.4      81   -112     43    139    146 144.0  17.3  34212  290.47 0855.18
2009/04/23 11:19:16.5      79   -100     25    128    131 141.7  11.1  34214  290.48 0855.18
2009/04/23 11:19:16.6      90   -107     38    140    146 139.9  15.3  34208  290.40 0855.18
2009/04/23 11:19:16.7      70   -134     53    152    162 152.4  19.2  34214  290.48 0855.18
2009/04/23 11:19:16.8      69   -148     58    164    173 155.1  20.0  34206  290.36 0855.18
2009/04/23 11:19:16.9      81   -166     71    185    198 153.9  22.0  34206  290.36 0855.18
2009/04/23 11:19:17.0      67   -168     72    181    194 158.2  22.8  34208  290.38 0855.18
2009/04/23 11:19:17.1      83   -177     36    196    200 154.8  10.6  34212  290.47 0855.18
2009/04/23 11:19:17.2      89   -175     35    197    201 153.0  10.1  34210  290.41 0855.18
2009/04/23 11:19:17.3      56   -167     45    177    183 161.3  14.5  34210  290.41 0855.18
2009/04/23 11:19:17.4      54   -162     33    171    175 161.5  11.1  34210  290.43 0855.18
2009/04/23 11:19:17.5       8   -157    -25    158    160 176.9  -9.0  34210  290.41 0855.17
2009/04/23 11:19:17.6      13   -163    -11    164    165 175.1  -4.1  34206  290.36 0855.17
2009/04/23 11:19:17.7      37   -166    -11    171    172 167.3  -3.9  34204  290.33 0855.17
2009/04/23 11:19:17.8      24   -171     -8    173    174 171.8  -2.8  34206  290.35 0855.17
2009/04/23 11:19:17.9      -4   -165     20    166    168 181.4   6.9  34208  290.40 0855.17
2009/04/23 11:19:18.0      -8   -179     32    180    183 182.7  10.1  34206  290.36 0855.17
2009/04/23 11:19:18.1      24   -200     10    202    203 173.1   2.9  34204  290.33 0855.17
2009/04/23 11:19:18.2       6   -195      7    196    197 178.0   2.1  34196  290.19 0855.17
2009/04/23 11:19:18.3     -11   -203     17    204    205 183.1   4.9  34196  290.19 0855.17
2009/04/23 11:19:18.4       0   -189     22    190    192 180.2   6.9  34200  290.26 0855.17
2009/04/23 11:19:18.5      32   -203     36    206    210 170.9   9.9  34206  290.35 0855.17
2009/04/23 11:19:18.6      27   -192     30    194    197 172.0   8.9  34206  290.35 0855.17
2009/04/23 11:19:18.7      19   -188      9    190    191 174.0   2.9  34200  290.26 0855.17
2009/04/23 11:19:18.8      19   -190      9    192    193 174.0   2.9  34198  290.23 0855.17
2009/04/23 11:19:18.9       8   -215     14    216    217 177.8   3.8  34202  290.30 0855.17
2009/04/23 11:19:19.0      10   -230      9    231    232 177.5   2.3  34200  290.25 0855.17
2009/04/23 11:19:19.1      18   -239      3    240    241 175.6   0.8  34198  290.20 0855.17
2009/04/23 11:19:19.2      13   -240     -1    241    242 176.9  -0.3  34200  290.24 0855.17
2009/04/23 11:19:19.3       3   -227     16    228    229 179.1   4.2  34198  290.21 0855.17
2009/04/23 11:19:19.4      10   -250      2    251    252 177.5   0.5  34194  290.15 0855.17
2009/04/23 11:19:19.5      10   -246     12    247    248 177.5   2.9  34196  290.17 0855.18
2009/04/23 11:19:19.6      28   -251     14    253    254 173.5   3.3  34196  290.17 0855.18
2009/04/23 11:19:19.7      46   -271     20    276    277 170.2   4.2  34212  290.46 0855.18
2009/04/23 11:19:19.8      62   -272     17    280    281 167.1   3.6  34206  290.34 0855.18
2009/04/23 11:19:19.9      73   -286      1    296    297 165.7   0.2  34200  290.24 0855.18
2009/04/23 11:19:20.0      90   -302     13    316    317 163.3   2.4  34206  290.36 0855.18
2009/04/23 11:19:20.1      89   -293     84    307    319 163.1  15.3  34210  290.41 0855.18
2009/04/23 11:19:20.2      46   -292     46    296    300 170.9   9.0  34206  290.36 0855.18
2009/04/23 11:19:20.3      92   -273     59    289    296 161.3  11.6  34208  290.37 0855.18
2009/04/23 11:19:20.4     136   -286     49    317    321 154.5   8.9  34208  290.39 0855.18
2009/04/23 11:19:20.5     120   -274     49    300    305 156.3   9.3  34208  290.37 0855.18
2009/04/23 11:19:20.6     126   -272      4    300    301 155.1   0.8  34206  290.34 0855.18
2009/04/23 11:19:20.7     127   -232    -27    265    267 151.3  -6.0  34212  290.44 0855.18
2009/04/23 11:19:20.8      -3   -220    152    221    268 181.0  37.8  34222  290.63 0855.18
2009/04/23 11:19:20.9       4   -251    148    252    292 178.9  33.4  34234  290.82 0855.18
2009/04/23 11:19:21.0      86   -236    147    252    291 160.0  33.4  34216  290.51 0855.18
2009/04/23 11:19:21.1      48   -281    158    286    326 170.3  31.4  34222  290.63 0855.18
2009/04/23 11:19:21.2       4   -245     97    246    264 178.9  22.8  34226  290.68 0855.18
2009/04/23 11:19:21.3      31   -226    179    229    290 172.2  42.0  34224  290.66 0855.18
2009/04/23 11:19:21.4       6   -253    197    254    321 178.6  41.7  34224  290.65 0855.18
2009/04/23 11:19:21.5       3   -262    106    263    283 179.3  23.0  34220  290.58 0855.17
2009/04/23 11:19:21.6      71   -275     40    285    288 165.5   8.0  34212  290.44 0855.17
2009/04/23 11:19:21.8      82   -254     27    267    269 162.1   5.9  34210  290.42 0855.17
2009/04/23 11:19:21.8     101   -190     46    216    222 151.9  12.2  34210  290.43 0855.17
2009/04/23 11:19:21.9     108   -168     39    200    204 147.3  11.1  34216  290.53 0855.17
2009/04/23 11:19:22.0      90   -142     -6    169    170 147.5  -2.2  34212  290.45 0855.17
2009/04/23 11:19:22.1      88   -151    -23    175    177 149.7  -7.7  34212  290.45 0855.17
2009/04/23 11:19:22.2      65   -152     -6    166    167 156.8  -2.1  34212  290.45 0855.17
2009/04/23 11:19:22.3      59   -146     -1    158    159 157.7  -0.7  34216  290.53 0855.17
2009/04/23 11:19:22.4      26   -175    -39    178    183 171.3 -12.6  34212  290.47 0855.17
2009/04/23 11:19:22.5      16   -210    -41    211    216 175.5 -11.1  34212  290.47 0855.17
2009/04/23 11:19:22.6      51   -201    -20    208    210 165.7  -5.6  34216  290.52 0855.17
2009/04/23 11:19:22.7       0   -193    -25    194    196 180.2  -7.5  34212  290.47 0855.17
2009/04/23 11:19:22.8      37   -207    -19    211    213 169.8  -5.4  34216  290.52 0855.17
2009/04/23 11:19:22.9     -16   -213     -1    214    215 184.4  -0.5  34214  290.48 0855.17
2009/04/23 11:19:23.0      33   -202    -49    205    211 170.7 -13.7  34214  290.48 0855.17
2009/04/23 11:19:23.1      13   -202    -61    203    213 176.2 -16.8  34218  290.55 0855.17
2009/04/23 11:19:23.2      12   -175    -53    176    184 175.8 -16.8  34218  290.57 0855.17
2009/04/23 11:19:23.3       4   -149    -55    150    159 178.2 -25.1  34222  290.64 0855.17
2009/04/23 11:19:23.4      11   -152    -86    153    175 175.5 -36.0  34220  290.58 0855.17
2009/04/23 11:19:23.5      38   -145    -72    150    166 165.3 -31.7  34220  290.58 0855.16
2009/04/23 11:19:23.6      20   -148    -47    150    157 172.0 -22.3  34214  290.50 0855.16
2009/04/23 11:19:23.7      14   -186    -42    187    192 175.6 -12.9  34220  290.60 0855.16
2009/04/23 11:19:23.8     -14   -190    -50    191    198 184.5 -14.7  34224  290.67 0855.16
2009/04/23 11:19:23.9     -22   -208    -60    210    219 186.2 -16.0  34222  290.64 0855.16
2009/04/23 11:19:24.0     -16   -221    -36    222    226 184.4  -9.3  34226  290.69 0855.16
2009/04/23 11:19:24.1     -16   -207    -42    208    213 184.5 -11.5  34230  290.75 0855.16
2009/04/23 11:19:24.2      16   -209    -42    210    215 175.6 -11.5  34226  290.69 0855.16
2009/04/23 11:19:24.3      15   -207    -49    208    214 175.6 -13.4  34230  290.77 0855.16
2009/04/23 11:19:24.4       7   -187    -44    188    194 177.8 -13.2  34230  290.75 0855.16
2009/04/23 11:19:24.5      60   -188    -40    198    202 162.2 -11.5  34222  290.62 0855.16
2009/04/23 11:19:24.6      51   -176    -33    184    187 163.7 -10.3  34222  290.62 0855.16
2009/04/23 11:19:24.7       7   -151    -43    152    159 177.3 -15.8  34228  290.72 0855.16
2009/04/23 11:19:24.8      11   -136    -40    137    142 175.1 -21.2  34232  290.81 0855.16
2009/04/23 11:19:24.9       2   -153    -44    154    160 179.1 -21.0  34236  290.86 0855.16
2009/04/23 11:19:25.0     -13   -169    -54    170    179 184.5 -17.6  34252  291.13 0855.16
2009/04/23 11:19:25.1     -28   -185    -49    188    195 188.7 -14.7  34242  290.98 0855.16
2009/04/23 11:19:25.2     -15   -203    -56    204    211 184.4 -20.0  34240  290.94 0855.16
2009/04/23 11:19:25.3      -4   -194    -32    195    198 181.4  -9.3  34236  290.87 0855.16
2009/04/23 11:19:25.4      31   -199    -47    202    208 170.9 -13.2  34238  290.89 0855.16
2009/04/23 11:19:25.5      19   -210      0    211    212 174.7  -0.3  34230  290.77 0855.17
2009/04/23 11:19:25.6      28   -216    -28    218    220 172.4  -7.3  34238  290.91 0855.17
2009/04/23 11:19:25.7      11   -175    -50    176    182 176.2 -20.7  34242  290.98 0855.17
2009/04/23 11:19:25.8      23   -155    -42    157    163 171.3 -15.0  34246  291.03 0855.17
2009/04/23 11:19:25.9      26   -123    -35    126    131 168.0 -15.5  34240  290.92 0855.17
2009/04/23 11:19:26.0      32   -118    -46    123    131 164.9 -25.4  34242  290.96 0855.17
2009/04/23 11:19:26.1      61   -122    -38    137    143 153.3 -15.5  34238  290.89 0855.17
2009/04/23 11:19:26.2      68   -143    -43    159    164 154.5 -20.2  34234  290.82 0855.17
2009/04/23 11:19:26.3      57   -160    -47    171    177 160.2 -20.0  34226  290.70 0855.17
2009/04/23 11:19:26.4      32   -143    -44    147    154 167.1 -16.8  34224  290.67 0855.17
2009/04/23 11:19:26.5      42   -105    -54    114    126 158.2 -31.6  34240  290.92 0855.17
2009/04/23 11:19:26.6      44   -114    -38    123    128 158.6 -21.8  34234  290.84 0855.17
2009/04/23 11:19:26.7      41   -107    -41    115    123 158.6 -19.6  34230  290.77 0855.17
2009/04/23 11:19:26.8      49   -118    -47    128    136 157.3 -25.3  34238  290.89 0855.17
2009/04/23 11:19:26.9      63   -114    -42    131    137 151.0 -23.3  34230  290.77 0855.17
2009/04/23 11:19:27.0      51   -109    -40    121    127 155.1 -23.8  34232  290.81 0855.17
2009/04/23 11:19:27.1      37    -97    -45    104    113 159.1 -29.0  34236  290.86 0855.17
2009/04/23 11:19:27.2      14    -86    -53     88    102 170.7 -38.4  34240  290.92 0855.17
2009/04/23 11:19:27.3       8    -86    -65     87    108 174.7 -45.1  34248  291.06 0855.17
2009/04/23 11:19:27.4      24    -89    -45     93    103 164.9 -31.7  34248  291.08 0855.17
2009/04/23 11:19:27.5      32    -89    -49     95    106 160.0 -34.2  34248  291.08 0855.16
2009/04/23 11:19:27.6      30    -87    -51     93    106 160.8 -35.8  34250  291.09 0855.16
2009/04/23 11:19:27.7      29    -88    -41     93    101 161.7 -29.5  34246  291.03 0855.16
2009/04/23 11:19:27.8      34   -101     10    107    108 161.3   5.4  34240  290.94 0855.16
2009/04/23 11:19:27.9      50    -91     -5    104    105 151.1  -3.1  34240  290.94 0855.16
2009/04/23 11:19:28.0      30    -61      0     69     70 153.7  -0.3  34240  290.92 0855.16
2009/04/23 11:19:28.1      29    -45    -12     54     56 147.4 -12.4  34236  290.86 0855.16
2009/04/23 11:19:28.2      17    -50     -8     54     55 160.8  -9.3  34238  290.89 0855.16
2009/04/23 11:19:28.3       3    -47    -22     48     52 175.5 -31.5  34238  290.91 0855.16
2009/04/23 11:19:28.4      -4    -32    -39     33     51 188.0 -59.8  34246  291.04 0855.16
2009/04/23 11:19:28.5     -20    -44    -47     49     67 204.5 -54.4  34242  290.98 0855.16
2009/04/23 11:19:28.6     -20    -67    -80     71    106 196.9 -57.7  34240  290.92 0855.16
2009/04/23 11:19:28.7     -10    -66    -72     67     98 188.9 -56.6  34240  290.92 0855.16
2009/04/23 11:19:28.8     -31    -49    -76     59     96 212.6 -62.3  34240  290.94 0855.16
2009/04/23 11:19:28.9     -87    -43    -66     98    118 243.8 -41.8  34238  290.91 0855.16
2009/04/23 11:19:29.0     -65    -42    -83     78    113 236.7 -56.0  34234  290.84 0855.16
2009/04/23 11:19:29.1     -74    -45    -86     87    122 238.5 -54.4  34230  290.75 0855.16
2009/04/23 11:19:29.2     -42    -41    -86     59    104 226.0 -67.0  34224  290.65 0855.16
2009/04/23 11:19:29.3     -51    -60    -84     79    115 220.5 -56.5  34216  290.53 0855.16
2009/04/23 11:19:29.4     -73    -64    -66     98    118 228.7 -41.8  34220  290.60 0855.16
2009/04/23 11:19:29.5     -86    -63    -52    107    118 233.6 -32.2  34230  290.77 0855.16
2009/04/23 11:19:29.6     -66    -73    -68     99    120 222.3 -42.0  34234  290.82 0855.16
2009/04/23 11:19:29.7     -76    -92    -67    120    137 219.6 -35.8  34242  290.98 0855.16
2009/04/23 11:19:29.8     -54    -86    -62    102    119 212.1 -38.4  34230  290.75 0855.16
2009/04/23 11:19:29.9     -34    -93    -45    100    109 200.5 -30.6  34216  290.52 0855.16
2009/04/23 11:19:30.0     -56    -77    -49     96    107 216.1 -32.6  34224  290.67 0855.16
2009/04/23 11:19:30.1     -67    -88    -37    111    118 217.4 -18.7  34238  290.91 0855.16
2009/04/23 11:19:30.2     -72    -86    -18    113    115 219.7  -9.3  34230  290.77 0855.16
2009/04/23 11:19:30.3     -51    -85    -22    100    103 211.2 -12.9  34206  290.35 0855.16
2009/04/23 11:19:30.4     -31    -94    -25     99    103 198.3 -14.5  34200  290.25 0855.16
2009/04/23 11:19:30.5     -50   -106     -8    118    119 205.3  -4.1  34210  290.41 0855.15
2009/04/23 11:19:30.6     -62    -96    -14    115    116 213.0  -7.2  34226  290.69 0855.15
2009/04/23 11:19:30.7     -40   -100    -11    108    109 201.8  -6.2  34234  290.84 0855.15
2009/04/23 11:19:30.8     -36    -56    -22     67     70 212.6 -23.8  34242  290.98 0855.15
2009/04/23 11:19:30.9     -65    -30    -39     72     81 244.7 -35.2  34268  291.42 0855.15
2009/04/23 11:19:31.0     -59    -19    -29     63     69 251.6 -31.5  34272  291.49 0855.15
2009/04/23 11:19:31.1     -41    -11    -47     43     63 254.9 -56.6  34280  291.60 0855.15
2009/04/23 11:19:31.2     -10    -16    -44     19     47 212.5 -80.5  34296  291.88 0855.15
2009/04/23 11:19:31.3     -26    -26    -30     37     47 225.0 -48.1  34280  291.60 0855.15
2009/04/23 11:19:31.4     -36    -15    -30     40     50 246.5 -46.1  34278  291.59 0855.15
2009/04/23 11:19:31.5     -48    -23    -24     54     59 244.6 -29.5  34284  291.69 0855.15
2009/04/23 11:19:31.6     -54    -12    -20     56     60 256.7 -19.7  34290  291.77 0855.15
2009/04/23 11:19:31.7     -66    -13     -8     68     69 258.5  -7.2  34304  292.03 0855.15
2009/04/23 11:19:31.8     -60     -8     16     61     64 262.1  15.2  34314  292.20 0855.15
2009/04/23 11:19:31.9     -66      3     29     67     73 272.6  25.1  34308  292.08 0855.15
2009/04/23 11:19:32.0     -96     -7     -8     97     98 265.6  -5.2  34312  292.17 0855.15
2009/04/23 11:19:32.1     -77    -16    -14     79     81 258.1 -10.3  34294  291.86 0855.15
2009/04/23 11:19:32.2     -71    -36     12     80     82 242.9   9.0  34284  291.69 0855.15
2009/04/23 11:19:32.3     -48    -49      5     69     70 224.2   4.9  34274  291.52 0855.15
2009/04/23 11:19:32.4     -95    -83    -40    127    134 228.7 -17.6  34244  291.01 0855.15
2009/04/23 11:19:32.5    -127    -75      2    148    149 239.3   0.8  34240  290.92 0855.15
2009/04/23 11:19:32.6     -87    -75     15    116    117 229.1   7.5  34242  290.98 0855.15
2009/04/23 11:19:32.7     -42    -72     13     84     86 210.7   9.0  34248  291.06 0855.15
2009/04/23 11:19:32.8     -31    -58      0     66     67 208.1   0.8  34268  291.40 0855.15
2009/04/23 11:19:32.9     -57    -45     -5     73     74 231.4  -4.1  34268  291.42 0855.15
2009/04/23 11:19:33.0     -53    -54     -3     76     77 224.2  -2.2  34282  291.64 0855.15
2009/04/23 11:19:33.1     -62    -62      0     88     89 225.0   0.2  34282  291.64 0855.15
2009/04/23 11:19:33.2     -81    -67    -25    106    109 230.5 -13.4  34270  291.45 0855.15
2009/04/23 11:19:33.4     -60    -62    -15     87     89 224.1  -9.8  34266  291.38 0855.15
2009/04/23 11:19:33.4     -54    -95    -25    110    113 209.9 -12.9  34246  291.04 0855.15
2009/04/23 11:19:33.5     -68    -83    -30    108    112 219.6 -20.2  34238  290.91 0855.15
2009/04/23 11:19:33.7     -83    -67    -17    107    109 230.9  -9.3  34238  290.91 0855.15
2009/04/23 11:19:33.8     -30    -24    -52     39     65 230.5 -64.9  34244  290.99 0855.15
2009/04/23 11:19:33.9      33    -12    -10     36     37 110.0 -21.7  34242  290.98 0855.15
2009/04/23 11:19:34.0      -1   -121     84    122    148 180.5  37.6  34258  291.23 0855.15
2009/04/23 11:19:34.1     -41   -156     37    162    167 194.9  12.9  34254  291.16 0855.15
2009/04/23 11:19:34.2     -33   -157     39    161    166 192.0  13.9  34268  291.42 0855.15
2009/04/23 11:19:34.3     -34   -180      9    184    185 190.9   2.8  34262  291.30 0855.15
2009/04/23 11:19:34.4     -11   -148    -29    149    152 184.5 -11.3  34240  290.94 0855.15
2009/04/23 11:19:34.5     -33   -169    -39    173    178 191.1 -12.9  34256  291.20 0855.15
2009/04/23 11:19:34.6     -39   -148    -52    154    162 194.7 -23.6  34244  290.99 0855.14
2009/04/23 11:19:34.7      -7   -117    -40    118    125 183.6 -18.7  34244  291.01 0855.14
2009/04/23 11:19:34.8      -5    -97    -28     98    103 183.1 -16.0  34260  291.26 0855.14
2009/04/23 11:19:34.9      13    -98    -35     99    106 172.4 -19.6  34262  291.30 0855.14
2009/04/23 11:19:35.0      12   -127    -44    128    135 174.2 -23.3  34260  291.26 0855.14
2009/04/23 11:19:35.1      27   -160      9    163    164 170.4   3.3  34266  291.38 0855.14
2009/04/23 11:19:35.2      43   -162     59    168    179 165.1  19.4  34250  291.11 0855.14
2009/04/23 11:19:35.3      36   -167     -6    171    172 167.7  -2.2  34252  291.15 0855.14
2009/04/23 11:19:35.4      47   -206     -6    212    213 167.1  -1.8  34248  291.06 0855.14
2009/04/23 11:19:35.5      22   -218    -66    220    230 174.0 -16.8  34242  290.96 0855.14
2009/04/23 11:19:35.6      89   -173    -22    195    197 152.6  -6.7  34248  291.08 0855.14
2009/04/23 11:19:35.7     105   -145    -56    180    189 144.2 -17.3  34254  291.16 0855.14
2009/04/23 11:19:35.8      65   -161      8    174    175 157.9   2.9  34246  291.04 0855.14
2009/04/23 11:19:35.9      97   -172     17    198    199 150.6   5.0  34238  290.91 0855.14
2009/04/23 11:19:36.0      96   -203     18    225    226 154.5   4.6  34230  290.77 0855.14
2009/04/23 11:19:36.1      86   -197     27    216    218 156.3   7.2  34234  290.82 0855.14
2009/04/23 11:19:36.2      93   -202     21    223    225 155.3   5.4  34236  290.86 0855.14
2009/04/23 11:19:36.3      75   -167     98    184    208 155.9  30.3  34250  291.09 0855.14
2009/04/23 11:19:36.4      46   -101    143    111    181 155.5  58.2  34264  291.35 0855.14
2009/04/23 11:19:36.5      20    -10     67     23     70 117.1  81.2  34274  291.50 0855.14
2009/04/23 11:19:36.6      50    -73     62     89    108 145.3  38.0  34262  291.30 0855.14
2009/04/23 11:19:36.7      51   -115     91    127    156 155.9  39.1  34260  291.26 0855.14
2009/04/23 11:19:36.8      78   -153     95    172    196 152.8  31.3  34252  291.13 0855.14
2009/04/23 11:19:36.9     113   -176     82    210    225 147.4  22.8  34240  290.94 0855.14
2009/04/23 11:19:37.0      95   -149     78    178    194 147.4  25.3  34236  290.87 0855.14
2009/04/23 11:19:37.1     117   -101     18    155    157 130.9   6.7  34246  291.03 0855.14
2009/04/23 11:19:37.2      66   -129     55    146    156 152.8  21.0  34252  291.15 0855.14
2009/04/23 11:19:37.3      84   -182     44    201    206 155.3  12.4  34264  291.33 0855.14
2009/04/23 11:19:37.4      96   -134     23    166    168 144.4   8.0  34268  291.40 0855.14
2009/04/23 11:19:37.5     118   -118     51    167    175 135.0  17.1  34268  291.42 0855.14
2009/04/23 11:19:37.6     109    -69     24    130    133 122.4  10.6  34268  291.40 0855.14
2009/04/23 11:19:37.7     103   -128     27    165    168 141.0   9.3  34250  291.09 0855.14
2009/04/23 11:19:37.8      70   -140     28    157    160 153.3  10.1  34256  291.21 0855.14
2009/04/23 11:19:37.9      91   -103      5    138    139 138.6   2.3  34260  291.28 0855.14
2009/04/23 11:19:38.0     125    -79    -35    149    154 122.4 -13.4  34268  291.42 0855.14
2009/04/23 11:19:38.1     140   -119    -10    184    185 130.4  -3.1  34266  291.37 0855.14
2009/04/23 11:19:38.2     147   -124     -4    193    194 130.2  -1.3  34260  291.28 0855.14
2009/04/23 11:19:38.3     143    -50     -3    152    153 109.5  -1.3  34254  291.16 0855.14
2009/04/23 11:19:38.4     122    -72    -18    142    144 120.7  -7.2  34256  291.20 0855.14
2009/04/23 11:19:38.5     104    -29     21    109    112 105.9  11.1  34262  291.30 0855.14
2009/04/23 11:19:38.6      89    -24     26     93     97 105.5  15.8  34270  291.43 0855.14
2009/04/23 11:19:38.7      90    -55      5    106    107 121.5   2.8  34268  291.40 0855.14
2009/04/23 11:19:38.8      89    -56     13    106    107 122.0   7.1  34270  291.43 0855.14
2009/04/23 11:19:38.9      91    -57     24    108    111 122.4  12.6  34268  291.42 0855.14
2009/04/23 11:19:39.0     111    -33     46    116    124 106.8  22.5  34272  291.49 0855.14
2009/04/23 11:19:39.1     115     -4      5    116    117  92.1   2.9  34274  291.50 0855.14
2009/04/23 11:19:39.2      97    -25     46    101    110 104.6  26.6  34272  291.49 0855.14
2009/04/23 11:19:39.3      97    -51     21    110    113 118.0  11.1  34264  291.35 0855.14
2009/04/23 11:19:39.4     102    -40      8    110    111 111.7   4.4  34266  291.38 0855.14
2009/04/23 11:19:39.5      84    -27     13     89     90 107.7   8.5  34270  291.43 0855.14
2009/04/23 11:19:39.6      94    -13      0     95     96  97.9  -0.3  34276  291.55 0855.14
2009/04/23 11:19:39.7      83    -16    -17     85     87 101.5 -11.3  34280  291.60 0855.14
2009/04/23 11:19:39.8      89    -33    -31     95     99 110.4 -23.8  34274  291.50 0855.14
2009/04/23 11:19:39.9      64    -40    -21     76     79 122.5 -15.5  34260  291.28 0855.14
2009/04/23 11:19:40.0      49    -46    -13     68     70 133.1 -11.3  34260  291.26 0855.14
2009/04/23 11:19:40.1      38    -25    -36     46     58 124.2 -48.1  34266  291.38 0855.14
2009/04/23 11:19:40.2      33    -27    -32     43     53 129.5 -45.1  34266  291.37 0855.14
2009/04/23 11:19:40.3      36     -7    -11     37     38 101.5 -23.8  34272  291.49 0855.14
2009/04/23 11:19:40.4      63      2     -8     64     65  87.4  -7.3  34272  291.49 0855.14
2009/04/23 11:19:40.5      79      4      0     80     81  86.5  -0.3  34278  291.57 0855.14
2009/04/23 11:19:40.6      90     -4      3     91     92  92.6   2.3  34280  291.60 0855.14
2009/04/23 11:19:40.7      84    -28      5     89     90 108.6   3.3  34278  291.59 0855.14
2009/04/23 11:19:40.8      63    -34     15     72     74 118.9  12.2  34274  291.50 0855.14
2009/04/23 11:19:40.9      58    -28     22     65     69 116.2  18.9  34270  291.45 0855.14
2009/04/23 11:19:41.0      53    -19     24     57     61 110.0  23.1  34266  291.38 0855.14
2009/04/23 11:19:41.1      47    -17     25     50     55 110.0  28.2  34264  291.33 0855.14
2009/04/23 11:19:41.2      39    -22     23     46     51 119.8  27.3  34266  291.38 0855.14
2009/04/23 11:19:41.3      28    -44     23     53     57 147.4  25.1  34258  291.23 0855.14
2009/04/23 11:19:41.4      31    -65     19     73     76 154.5  15.2  34258  291.25 0855.14
2009/04/23 11:19:41.5      17    -65     25     68     72 164.8  20.0  34246  291.04 0855.14
2009/04/23 11:19:41.6      40    -64     47     76     89 147.4  35.0  34236  290.87 0855.14
2009/04/23 11:19:41.7      21    -98     55    101    115 167.5  31.4  34236  290.86 0855.14
2009/04/23 11:19:41.8      16    -82     71     84    109 168.4  43.8  34238  290.89 0855.14
2009/04/23 11:19:41.9      19   -115     33    117    122 170.2  15.8  34238  290.89 0855.14
2009/04/23 11:19:42.0      29    -90     58     95    111 162.2  35.0  34240  290.92 0855.14
2009/04/23 11:19:42.1      23    -73     48     77     90 162.2  35.5  34242  290.96 0855.14
2009/04/23 11:19:42.2      26    -46     67     54     86 150.1  56.9  34246  291.03 0855.14
2009/04/23 11:19:42.3       8    -69     74     70    101 172.9  51.6  34242  290.98 0855.14
2009/04/23 11:19:42.4      -9   -118     79    119    142 184.4  36.5  34238  290.89 0855.14
2009/04/23 11:19:42.5      -9   -117     94    118    150 184.4  43.3  34244  291.01 0855.14
2009/04/23 11:19:42.6       0   -113     96    114    149 180.4  43.8  34244  291.01 0855.14
2009/04/23 11:19:42.7       0   -111    115    112    160 180.4  50.7  34244  291.01 0855.14
2009/04/23 11:19:42.8      -5   -124    109    125    165 182.7  45.6  34244  291.01 0855.14
2009/04/23 11:19:42.9      20   -119     89    121    150 170.2  39.7  34250  291.11 0855.14
2009/04/23 11:19:43.0      12   -105     94    106    141 173.3  46.4  34252  291.15 0855.14
2009/04/23 11:19:43.1       0    -95     97     96    136 180.5  50.1  34258  291.23 0855.14
2009/04/23 11:19:43.2     -13    -96     74     97    122 188.0  41.6  34254  291.16 0855.14
2009/04/23 11:19:43.3      -9   -110     80    111    136 184.9  39.5  34250  291.11 0855.14
2009/04/23 11:19:43.4     -50   -152     86    161    182 198.3  30.6  34236  290.86 0855.14
2009/04/23 11:19:43.5     -36   -165     80    170    187 192.5  27.1  34234  290.82 0855.14
2009/04/23 11:19:43.6     -34   -201     69    205    217 189.8  18.6  34236  290.86 0855.14
2009/04/23 11:19:43.7      20   -263     48    264    269 175.6  10.3  34230  290.76 0855.14
2009/04/23 11:19:43.8       6   -271     58    272    279 178.6  12.1  34232  290.78 0855.14
2009/04/23 11:19:43.9      46   -301     99    305    321 171.3  18.0  34230  290.75 0855.14
2009/04/23 11:19:44.0      87   -272     76    286    297 162.2  15.0  34230  290.75 0855.14
2009/04/23 11:19:44.1      62   -304     66    311    319 168.4  12.0  34226  290.70 0855.14
2009/04/23 11:19:44.2      55   -319     49    324    328 170.2   8.7  34232  290.78 0855.14
2009/04/23 11:19:44.3      70   -319     58    327    333 167.5  10.1  34238  290.88 0855.14
2009/04/23 11:19:44.4      44   -315     66    319    326 172.0  11.8  34240  290.93 0855.14
2009/04/23 11:19:44.5      55   -327     65    332    339 170.3  11.1  34242  290.96 0855.14
2009/04/23 11:19:44.6      63   -312     51    319    324 168.4   9.2  34236  290.85 0855.14
2009/04/23 11:19:44.7      66   -337     50    344    348 168.8   8.3  34232  290.81 0855.14
2009/04/23 11:19:44.8      83   -306     33    318    320 164.9   6.0  34230  290.75 0855.14
2009/04/23 11:19:44.9      11   -323     53    324    329 178.0   9.4  34234  290.82 0855.14
2009/04/23 11:19:45.0      23   -305     75    306    316 175.6  13.8  34228  290.71 0855.14
2009/04/23 11:19:45.1      88   -266     55    281    287 161.5  11.1  34222  290.63 0855.14
2009/04/23 11:19:45.2     136   -254     16    289    290 151.7   3.3  34222  290.61 0855.14
2009/04/23 11:19:45.3      26   -281     17    283    284 174.6   3.6  34224  290.65 0855.14
2009/04/23 11:19:45.4     104   -309     18    327    328 161.3   3.2  34216  290.51 0855.14
2009/04/23 11:19:45.5      71   -443    101    449    461 170.9  12.8  34214  290.50 0855.14
2009/04/23 11:19:45.6     116   -447    153    462    487 165.4  18.4  34216  290.51 0855.14
2009/04/23 11:19:45.7     133   -455    -14    475    476 163.7  -1.8  34226  290.69 0855.14
2009/04/23 11:19:45.8     133   -394    -67    417    423 161.3  -9.1  34224  290.67 0855.14
2009/04/23 11:19:45.9      74   -314    156    323    358 166.7  27.7  34228  290.72 0855.14
2009/04/23 11:19:46.0      35   -342    104    344    360 174.0  16.8  34228  290.71 0855.14
2009/04/23 11:19:46.1      22   -286    132    287    315 175.5  26.3  34226  290.68 0855.14
2009/04/23 11:19:46.2     135   -297     63    327    334 155.5  11.0  34226  290.69 0855.14
2009/04/23 11:19:46.3     127   -384     78    405    413 161.7  11.0  34226  290.68 0855.14
2009/04/23 11:19:46.4      62   -420     59    425    430 171.5   8.0  34228  290.72 0855.14
2009/04/23 11:19:46.5     110   -371    114    387    404 163.5  16.4  34230  290.76 0855.14
2009/04/23 11:19:46.6      60   -296    127    302    327 168.5  24.1  34230  290.76 0855.13
2009/04/23 11:19:46.7      17   -352    173    353    393 177.2  28.1  34228  290.74 0855.13
2009/04/23 11:19:46.8     179   -349     55    393    397 152.9   8.0  34230  290.77 0855.13
2009/04/23 11:19:46.9     101   -366     62    380    386 164.5   9.3  34234  290.83 0855.13
2009/04/23 11:19:47.0      54   -285    117    291    313 169.3  23.2  34232  290.78 0855.13
2009/04/23 11:19:47.1      45   -321     99    325    340 172.0  17.1  34238  290.91 0855.13
2009/04/23 11:19:47.2     105   -289     -1    308    309 159.9  -0.3  34232  290.80 0855.13
2009/04/23 11:19:47.3     129   -304     25    331    332 157.0   4.3  34232  290.79 0855.13
2009/04/23 11:19:47.4     118   -238     78    266    278 153.5  16.3  34232  290.80 0855.13
2009/04/23 11:19:47.5      57   -286     14    292    293 168.7   2.9  34236  290.87 0855.13
2009/04/23 11:19:47.6     109   -363     74    380    388 163.2  11.1  34238  290.88 0855.13
2009/04/23 11:19:47.7      86   -390     58    400    405 167.5   8.3  34236  290.85 0855.13
2009/04/23 11:19:47.8       3   -413     43    414    417 179.5   6.0  34236  290.87 0855.13
2009/04/23 11:19:47.9      33   -390    174    392    428 175.0  25.3  34238  290.90 0855.13
2009/04/23 11:19:48.0      31   -262    201    264    331 173.1  40.9  34236  290.87 0855.13
2009/04/23 11:19:48.1     166   -213    162    271    315 142.1  33.7  34240  290.92 0855.13
2009/04/23 11:19:48.2     189   -201    146    277    313 136.8  30.0  34236  290.85 0855.13
2009/04/23 11:19:48.3     181   -150     99    236    255 129.6  24.1  34236  290.87 0855.13
2009/04/23 11:19:48.4     203   -165     24    262    264 129.1   5.4  34236  290.87 0855.13
2009/04/23 11:19:48.5     126   -197      9    234    235 147.4   2.3  34236  290.85 0855.13
2009/04/23 11:19:48.6     156   -135     42    207    212 130.9  11.4  34236  290.87 0855.14
2009/04/23 11:19:48.7     140   -159     71    213    225 138.6  18.6  34236  290.86 0855.14
2009/04/23 11:19:48.8     134   -166     87    214    231 141.0  23.1  34240  290.92 0855.14
2009/04/23 11:19:48.9     109   -187    115    217    245 149.7  30.2  34240  290.92 0855.14
2009/04/23 11:19:49.0     104   -242    167    264    312 156.8  35.5  34242  290.95 0855.14
2009/04/23 11:19:49.1      29   -191    135    194    236 171.1  38.4  34248  291.06 0855.14
2009/04/23 11:19:49.2      15   -208     80    209    223 175.6  21.7  34244  290.99 0855.14
2009/04/23 11:19:49.3     -54   -285    103    291    309 190.7  19.6  34242  290.97 0855.14
2009/04/23 11:19:49.4     -59   -314    116    320    340 190.7  20.7  34242  290.98 0855.14
2009/04/23 11:19:49.5    -101   -300    136    317    344 198.7  24.8  34248  291.06 0855.14
2009/04/23 11:19:49.6     -68   -228    119    239    266 196.7  28.2  34244  291.00 0855.14
2009/04/23 11:19:49.7     -35   -298    113    301    321 186.9  21.5  34238  290.90 0855.14
2009/04/23 11:19:49.8      -8   -251    140    252    288 182.0  31.4  34240  290.93 0855.14
2009/04/23 11:19:49.9     -11   -220    138    221    260 182.9  35.2  34244  291.00 0855.14
2009/04/23 11:19:50.0      -3   -187    145    188    237 181.1  41.6  34242  290.98 0855.14
2009/04/23 11:19:50.1      35   -134    161    139    212 165.3  54.6  34244  290.99 0855.14
2009/04/23 11:19:50.2     -42   -208    145    213    257 191.6  37.6  34242  290.95 0855.14
2009/04/23 11:19:50.3     -30   -123    134    127    184 193.8  51.6  34236  290.86 0855.14
2009/04/23 11:19:50.4     -43   -124    156    132    204 199.2  55.6  34240  290.92 0855.14
2009/04/23 11:19:50.5       0   -125    150    126    195 180.4  55.8  34246  291.04 0855.14
2009/04/23 11:19:50.6     -13   -171    185    172    252 184.5  52.2  34242  290.98 0855.14
2009/04/23 11:19:50.7       3   -150    125    151    196 178.6  43.8  34238  290.91 0855.14
2009/04/23 11:19:50.8     -12   -155    130    156    203 184.5  44.1  34240  290.94 0855.14
2009/04/23 11:19:50.9      -8   -120     87    121    149 184.0  39.5  34246  291.03 0855.14
2009/04/23 11:19:51.0       0    -98     73     99    123 180.5  39.7  34242  290.96 0855.14
2009/04/23 11:19:51.1     -27   -102     39    106    112 195.2  20.4  34240  290.94 0855.14
2009/04/23 11:19:51.2     -13    -43    -16     45     47 196.9 -23.3  34242  290.96 0855.14
2009/04/23 11:19:51.3      15     -4     -8     16     17 108.2 -31.6  34246  291.03 0855.14
2009/04/23 11:19:51.4     -29    -30    -12     43     44 224.1 -20.7  34246  291.04 0855.14
2009/04/23 11:19:51.5     -27    -22    -14     36     38 230.5 -23.3  34252  291.15 0855.14
2009/04/23 11:19:51.6     -40    -23     -8     47     48 240.2 -10.3  34252  291.15 0855.14
2009/04/23 11:19:51.7     -22    -21      1     31     32 226.9   2.9  34254  291.18 0855.14
2009/04/23 11:19:51.8      24     10     48     27     55  66.5  67.7  34262  291.32 0855.14
2009/04/23 11:19:51.9      -4    -78     -7     79     80 183.6  -5.2  34262  291.32 0855.14
2009/04/23 11:19:52.0     -72      5    -46     73     86 274.4 -39.9  34266  291.38 0855.14
2009/04/23 11:19:52.1     -52     17    -37     55     66 288.4 -40.9  34274  291.50 0855.14
2009/04/23 11:19:52.2     -55     15    -61     58     84 285.9 -55.6  34270  291.43 0855.14
2009/04/23 11:19:52.3     -16     29    -57     34     66 331.0 -70.1  34272  291.49 0855.14
2009/04/23 11:19:52.4      -4     77    -35     78     85 356.4 -30.1  34266  291.37 0855.14
2009/04/23 11:19:52.5     -15     91    -20     93     96 350.7 -12.4  34262  291.32 0855.14
2009/04/23 11:19:52.6     -22     91     -2     94     95 346.2  -1.8  34258  291.23 0855.14
2009/04/23 11:19:52.7     -20     74     26     77     82 344.9  19.2  34264  291.35 0855.14
2009/04/23 11:19:52.8     -32     32     28     46     53 314.9  35.5  34272  291.49 0855.14
2009/04/23 11:19:52.9     -27    -39     55     48     73 214.3  54.3  34286  291.71 0855.14
2009/04/23 11:19:53.0     -25    -76     90     81    121 198.5  53.3  34256  291.20 0855.14
2009/04/23 11:19:53.1       5    -76     99     77    125 175.6  58.4  34254  291.18 0855.14
2009/04/23 11:19:53.2     -17   -116    107    118    159 188.5  47.1  34244  290.99 0855.14
2009/04/23 11:19:53.3     -61   -125    107    140    176 205.9  41.4  34246  291.04 0855.14
2009/04/23 11:19:53.4    -109   -112     93    157    182 224.1  33.7  34250  291.11 0855.14
2009/04/23 11:19:53.5    -123   -160     74    202    215 217.6  20.9  34244  290.99 0855.14
2009/04/23 11:19:53.6     -63   -181    115    192    223 199.2  33.7  34242  290.98 0855.14
2009/04/23 11:19:53.7      -4   -275     86    276    290 180.9  17.4  34244  290.99 0855.14
2009/04/23 11:19:53.8     -21   -273     71    274    284 184.5  14.5  34242  290.95 0855.14
2009/04/23 11:19:53.9     -33   -260     51    263    269 187.3  11.1  34244  290.99 0855.14
2009/04/23 11:19:54.0     -42   -259     77    263    275 189.3  16.3  34242  290.97 0855.14
2009/04/23 11:19:54.1     -76   -239     67    251    260 197.8  15.0  34242  290.97 0855.14
2009/04/23 11:19:54.2     -46   -270     60    275    282 189.8  12.4  34240  290.93 0855.14
2009/04/23 11:19:54.3     -36   -261     82    264    277 188.0  17.3  34238  290.90 0855.14
2009/04/23 11:19:54.4     -56   -257     95    264    280 192.3  20.7  34240  290.93 0855.14
2009/04/23 11:19:54.5     -54   -238     67    245    255 192.9  15.3  34240  290.92 0855.14
2009/04/23 11:19:54.6     -48   -250     35    255    258 190.9   8.0  34244  290.99 0855.14
2009/04/23 11:19:54.7     -13   -175     39    176    181 184.4  12.6  34238  290.89 0855.14
2009/04/23 11:19:54.8     -12   -142     61    143    155 184.9  24.6  34240  290.94 0855.14
2009/04/23 11:19:54.9     -31   -119     75    124    144 194.7  34.4  34240  290.94 0855.14
2009/04/23 11:19:55.0     -67   -157     78    171    187 203.2  26.4  34244  291.01 0855.14
2009/04/23 11:19:55.1     -39   -166     98    171    197 193.4  32.4  34240  290.92 0855.14
2009/04/23 11:19:55.2     -59   -248    148    255    294 193.4  32.4  34242  290.95 0855.14
2009/04/23 11:19:55.3    -101   -240    139    261    295 202.8  30.3  34244  290.99 0855.14
2009/04/23 11:19:55.4     -38   -242    186    246    308 188.9  40.9  34244  290.99 0855.14
2009/04/23 11:19:55.5      49   -263    175    268    320 169.3  36.2  34236  290.85 0855.14
2009/04/23 11:19:55.6      54   -236    110    243    266 167.1  26.2  34238  290.88 0855.14
2009/04/23 11:19:55.7      46   -263     52    268    274 170.0  11.1  34244  290.99 0855.14
2009/04/23 11:19:55.8      13   -241     27    242    244 176.9   6.5  34242  290.95 0855.14
2009/04/23 11:19:55.9       7   -189    -20    190    192 177.8  -6.2  34244  290.99 0855.14
2009/04/23 11:19:56.0     -13   -176    -32    177    181 184.4 -10.5  34244  291.01 0855.14
2009/04/23 11:19:56.1     105   -148      9    182    183 144.6   2.9  34244  290.99 0855.14
2009/04/23 11:19:56.2     127   -126      7    180    181 134.8   2.5  34240  290.94 0855.14
2009/04/23 11:19:56.3     182   -116      4    217    218 122.6   1.2  34242  290.96 0855.14
2009/04/23 11:19:56.4     255    -74     85    266    280 106.2  17.7  34244  290.99 0855.14
2009/04/23 11:19:56.5     285   -163    148    329    360 119.8  25.8  34242  290.98 0855.14
2009/04/23 11:19:56.6     241   -236    160    338    373 134.3  27.2  34236  290.86 0855.14
2009/04/23 11:19:56.7      77   -139    143    160    214 151.0  46.4  34242  290.98 0855.14
2009/04/23 11:19:56.8      23   -116    112    119    163 168.5  48.5  34242  290.98 0855.14
2009/04/23 11:19:56.9      42   -126     90    134    161 161.3  37.3  34242  290.96 0855.14
2009/04/23 11:19:57.0     -11   -142    118    143    185 184.5  43.7  34244  291.01 0855.14
2009/04/23 11:19:57.1     -15   -203    105    204    229 184.2  29.3  34246  291.03 0855.14
2009/04/23 11:19:57.2     -40   -192     88    197    215 192.0  25.7  34242  290.98 0855.14
2009/04/23 11:19:57.3     -13   -174    116    175    209 184.4  36.5  34246  291.03 0855.14
2009/04/23 11:19:57.4      17   -229     50    230    236 175.5  12.4  34244  290.99 0855.14
2009/04/23 11:19:57.5      19   -230     74    231    243 175.1  17.9  34246  291.02 0855.14
2009/04/23 11:19:57.6      46   -209     79    215    229 167.5  21.0  34244  291.01 0855.13
2009/04/23 11:19:57.7      71   -184     45    198    204 158.8  12.9  34244  291.01 0855.13
2009/04/23 11:19:57.8      53   -147     55    157    166 160.0  20.0  34246  291.03 0855.13
2009/04/23 11:19:57.9      50   -158     53    166    175 162.4  17.9  34246  291.03 0855.13
2009/04/23 11:19:58.0      -6   -180     75    181    195 182.0  23.8  34252  291.13 0855.13
2009/04/23 11:19:58.1     -34   -275    102    278    296 187.2  21.0  34238  290.88 0855.13
2009/04/23 11:19:58.2     -29   -247    111    249    272 186.7  25.7  34242  290.95 0855.13
2009/04/23 11:19:58.3     141   -255     97    292    308 151.0  18.4  34238  290.90 0855.13
2009/04/23 11:19:58.4     136   -265    105    298    317 152.8  19.4  34234  290.82 0855.13
2009/04/23 11:19:58.5     137   -242     64    279    287 150.4  12.9  34236  290.85 0855.13
2009/04/23 11:19:58.6     107   -236     89    260    275 155.5  18.9  34238  290.88 0855.13
2009/04/23 11:19:58.7     110   -173     98    206    228 147.5  27.3  34236  290.87 0855.13
2009/04/23 11:19:58.8     125   -162     70    205    217 142.4  18.9  34236  290.86 0855.13
2009/04/23 11:19:58.9      95   -139     50    169    177 145.5  16.6  34240  290.94 0855.13
2009/04/23 11:19:59.0      27   -119     53    123    133 167.1  25.1  34238  290.91 0855.13
2009/04/23 11:19:59.1      24   -151     52    154    163 170.7  18.9  34236  290.87 0855.13
2009/04/23 11:19:59.2     -42   -184    102    189    214 192.9  31.0  34240  290.92 0855.13
2009/04/23 11:19:59.3     -56   -181     69    190    202 197.2  20.9  34238  290.89 0855.13
2009/04/23 11:19:59.4     -82   -233     87    248    263 199.4  19.4  34236  290.87 0855.13
2009/04/23 11:19:59.5      -4   -271     90    272    287 181.0  18.5  34238  290.88 0855.13
2009/04/23 11:19:59.6       9   -309    108    310    329 178.2  19.2  34236  290.85 0855.14
2009/04/23 11:19:59.7      65   -251    117    260    285 165.5  25.9  34242  290.95 0855.14
2009/04/23 11:19:59.8      93   -187    126    209    244 153.5  34.0  34244  290.99 0855.14
2009/04/23 11:19:59.9     138   -169    131    219    255 140.8  33.5  34246  291.02 0855.14
2009/04/23 11:20:00.0     -24   -202     95    204    225 186.9  27.1  34244  291.01 0855.14
2009/04/23 11:20:00.1     -26   -177     93    179    201 188.5  29.5  34248  291.06 0855.14
2009/04/23 11:20:00.2     -33   -169    139    173    221 191.3  43.3  34244  290.99 0855.14
2009/04/23 11:20:00.3     -40   -180    160    185    244 192.5  45.1  34250  291.09 0855.14
2009/04/23 11:20:00.4      -1   -166    183    167    247 180.5  53.0  34250  291.09 0855.14
2009/04/23 11:20:00.5       7    -98    145     99    175 175.5  62.4  34248  291.08 0855.14
2009/04/23 11:20:00.6      54    -45     65     71     96 129.6  47.9  34254  291.16 0855.14
2009/04/23 11:20:00.7      82     14     80     84    116  79.9  49.0  34252  291.13 0855.14
2009/04/23 11:20:00.8      79     45    110     92    143  60.2  55.8  34252  291.15 0855.14
2009/04/23 11:20:00.9      92     88    108    128    167  46.4  44.5  34254  291.16 0855.14
2009/04/23 11:20:01.1     153    115    106    192    219  53.1  31.4  34250  291.11 0855.14
2009/04/23 11:20:01.2     144     84    115    167    202  59.8  37.6  34248  291.06 0855.14
2009/04/23 11:20:01.3     125     81    119    150    191  57.1  42.7  34252  291.15 0855.14
2009/04/23 11:20:01.4     137    -35     71    142    158 104.6  28.5  34248  291.08 0855.14
2009/04/23 11:20:01.5     104    -35     90    110    142 108.6  43.7  34254  291.16 0855.14
2009/04/23 11:20:01.6      74    -61     58     97    113 129.5  34.0  34254  291.16 0855.14
2009/04/23 11:20:01.7      84    -57     19    102    104 124.2  10.6  34252  291.13 0855.14
2009/04/23 11:20:01.8     109    -51     11    121    122 115.3   5.4  34250  291.09 0855.14
2009/04/23 11:20:01.9      59    -75      4     96     97 141.7   2.9  34252  291.13 0855.14
2009/04/23 11:20:02.0      49    -78     32     93     99 147.9  19.4  34252  291.15 0855.14
2009/04/23 11:20:02.1      79    -50    -26     94     98 122.4 -15.5  34258  291.23 0855.14
2009/04/23 11:20:02.2      27   -178     35    181    185 171.3  11.1  34242  290.98 0855.14
2009/04/23 11:20:02.3     -20   -206     81    208    223 185.6  22.3  34248  291.06 0855.14
2009/04/23 11:20:02.4       4   -216    101    217    239 178.9  26.6  34252  291.15 0855.14
2009/04/23 11:20:02.5     -31   -221     61    224    233 188.0  15.2  34262  291.30 0855.14
2009/04/23 11:20:02.6     -25   -197     83    199    215 187.3  23.8  34266  291.38 0855.14
2009/04/23 11:20:02.7     -28   -138     89    141    166 191.5  35.5  34266  291.37 0855.14
2009/04/23 11:20:02.8     -25   -122     69    125    142 191.6  31.4  34260  291.26 0855.14
2009/04/23 11:20:02.9      -9   -103     65    104    122 185.3  35.0  34258  291.25 0855.14
2009/04/23 11:20:03.0      10    -65     93     66    114 171.1  61.5  34266  291.37 0855.14
2009/04/23 11:20:03.1       1     17     65     18     67   4.4  84.8  34280  291.60 0855.14
2009/04/23 11:20:03.2       4    -53     65     54     84 175.5  56.4  34268  291.42 0855.14
2009/04/23 11:20:03.3      13    -72     95     74    120 169.3  58.4  34270  291.43 0855.14
2009/04/23 11:20:03.4      17   -105    119    107    160 170.7  53.5  34266  291.37 0855.14
2009/04/23 11:20:03.5      18    -75    122     78    144 166.6  64.6  34272  291.47 0855.14
2009/04/23 11:20:03.6      44   -215    157    220    270 168.2  39.1  34252  291.14 0855.14
2009/04/23 11:20:03.7      67   -285    170    293    338 166.7  32.7  34246  291.04 0855.15
2009/04/23 11:20:03.8      50   -270    188    275    333 169.5  37.8  34246  291.02 0855.15
2009/04/23 11:20:03.9      46   -227    159    232    281 168.5  37.6  34254  291.17 0855.15
2009/04/23 11:20:04.0       0   -173    117    174    209 180.0  37.3  34252  291.13 0855.15
2009/04/23 11:20:04.1     -31   -155    122    159    200 191.6  41.6  34254  291.18 0855.15
2009/04/23 11:20:04.2      -1    -94     40     95    103 180.9  23.6  34256  291.21 0855.15
2009/04/23 11:20:04.3      72    -66     54     98    111 132.7  31.4  34256  291.20 0855.15
2009/04/23 11:20:04.4      87    -69     25    112    115 128.6  12.6  34258  291.25 0855.15
2009/04/23 11:20:04.5     153    -52     10    162    163 109.1   3.8  34252  291.13 0855.15
2009/04/23 11:20:04.6     159    -65     13    173    174 112.4   4.6  34250  291.11 0855.15
2009/04/23 11:20:04.7     149    -90     26    175    177 121.1   8.5  34254  291.16 0855.15
2009/04/23 11:20:04.8     186    -16     50    187    194  95.2  15.0  34252  291.15 0855.15
2009/04/23 11:20:04.9     223    -17    106    224    247  94.4  27.2  34260  291.27 0855.15
2009/04/23 11:20:05.0     191    -74     44    205    210 111.3  12.2  34254  291.16 0855.15
2009/04/23 11:20:05.1     105   -140    138    176    223 143.0  42.0  34238  290.89 0855.15
2009/04/23 11:20:05.2     139   -151    113    206    234 137.5  31.0  34250  291.09 0855.15
2009/04/23 11:20:05.3     -27   -198     -7    201    202 188.0  -2.2  34246  291.03 0855.15
2009/04/23 11:20:05.4     -26   -235    109    237    260 186.5  26.4  34238  290.90 0855.15
2009/04/23 11:20:05.5    -153   -307     17    343    344 206.5   2.9  34242  290.98 0855.15
2009/04/23 11:20:05.6    -129   -202     -9    241    242 212.6  -2.3  34254  291.17 0855.15
2009/04/23 11:20:05.7     -99   -165    -44    193    198 211.0 -12.9  34252  291.13 0855.14
2009/04/23 11:20:05.8     -33   -166     41    170    175 191.5  13.7  34250  291.11 0855.14
2009/04/23 11:20:05.9       6    -63     90     64    110 173.8  60.6  34254  291.16 0855.14
2009/04/23 11:20:06.0       0    -58    117     59    131 180.0  71.4  34268  291.42 0855.14
2009/04/23 11:20:06.1       0    -59     55     60     81 180.9  47.5  34270  291.45 0855.14
2009/04/23 11:20:06.2      11   -171     46    172    179 176.2  15.0  34256  291.20 0855.14
2009/04/23 11:20:06.3      22   -169     50    171    179 172.4  16.3  34256  291.21 0855.14
2009/04/23 11:20:06.4      31   -155     20    159    161 168.5   7.2  34252  291.13 0855.14
2009/04/23 11:20:06.5      34   -168     -4    172    173 168.4  -1.6  34250  291.09 0855.14
2009/04/23 11:20:06.6      70   -197     13    210    211 160.4   3.8  34252  291.13 0855.14
2009/04/23 11:20:06.7      75   -208     54    222    229 160.2  13.7  34252  291.15 0855.14
2009/04/23 11:20:06.8     -28   -204     48    207    213 188.0  13.2  34252  291.13 0855.14
2009/04/23 11:20:06.9     -37   -217     86    221    237 189.8  22.3  34254  291.16 0855.14
2009/04/23 11:20:07.0      13   -183     96    184    207 175.8  29.5  34262  291.30 0855.14
2009/04/23 11:20:07.1      -9   -153     99    154    183 183.6  35.6  34258  291.23 0855.14
2009/04/23 11:20:07.2     -35   -162    102    166    194 192.3  35.0  34254  291.18 0855.14
2009/04/23 11:20:07.3     -67   -152     91    167    190 203.8  31.0  34254  291.18 0855.14
2009/04/23 11:20:07.4     -38   -224      3    228    229 189.8   1.0  34252  291.13 0855.14
2009/04/23 11:20:07.5     -79   -173     43    191    196 204.5  12.9  34256  291.20 0855.14
2009/04/23 11:20:07.6     -35   -189     74    193    206 190.7  22.0  34256  291.21 0855.14
2009/04/23 11:20:07.7      11   -145     93    146    173 175.6  35.5  34258  291.23 0855.14
2009/04/23 11:20:07.8       3   -171    123    172    211 178.9  39.3  34252  291.13 0855.14
2009/04/23 11:20:07.9      14   -126     74    127    146 173.3  33.4  34256  291.20 0855.14
2009/04/23 11:20:08.0      37   -157     98    162    189 166.6  34.2  34258  291.23 0855.14
2009/04/23 11:20:08.1       6   -236    130    237    270 178.4  31.3  34232  290.78 0855.14
2009/04/23 11:20:08.2      54   -227    134    234    269 166.6  32.4  34228  290.71 0855.14
2009/04/23 11:20:08.3      74   -162     99    179    204 155.3  31.4  34228  290.72 0855.14
2009/04/23 11:20:08.4      16   -117    128    119    174 172.0  52.0  34234  290.82 0855.14
2009/04/23 11:20:08.5      66    -56    118     87    146 130.4  60.5  34240  290.94 0855.14
2009/04/23 11:20:08.6     112    -41    123    120    171 110.4  50.7  34222  290.64 0855.14
2009/04/23 11:20:08.7     153    -18    145    155    212  97.0  48.0  34224  290.67 0855.14
2009/04/23 11:20:08.8     144    -25    168    147    223 100.1  54.3  34228  290.74 0855.14
2009/04/23 11:20:08.9      10     16    106     20    107  32.6  89.1  34246  291.04 0855.14
2009/04/23 11:20:09.0      95     83     99    127    161  48.7  42.0  34232  290.81 0855.14
2009/04/23 11:20:09.1      81     69     44    107    115  49.6  23.1  34230  290.75 0855.14
2009/04/23 11:20:09.2      56     56     32     80     86  45.0  22.5  34226  290.70 0855.14
2009/04/23 11:20:09.3       8    103     27    104    108   4.5  14.7  34232  290.79 0855.14
2009/04/23 11:20:09.4      28    140     -3    143    144  11.5  -1.3  34236  290.87 0855.14
2009/04/23 11:20:09.5     -29    153    -65    156    169 349.3 -28.2  34242  290.96 0855.14
2009/04/23 11:20:09.6     -53    193   -141    201    245 344.4 -43.0  34262  291.30 0855.14
2009/04/23 11:20:09.7    -149     33   -143    153    209 282.8 -52.4  34274  291.52 0855.14
2009/04/23 11:20:09.8    -218     -1   -113    219    246 269.6 -33.7  34272  291.48 0855.14
2009/04/23 11:20:09.9    -326     46    -52    330    335 278.1  -9.0  34278  291.57 0855.14
2009/04/23 11:20:10.0    -237    -17    -82    238    251 265.7 -23.8  34284  291.67 0855.14
2009/04/23 11:20:10.1    -140    -58    -72    152    168 247.4 -31.6  34290  291.77 0855.14
2009/04/23 11:20:10.2    -130   -130    -13    185    186 225.0  -4.1  34288  291.74 0855.14
2009/04/23 11:20:10.3    -139   -122    -24    185    187 228.7  -7.5  34286  291.71 0855.14
2009/04/23 11:20:10.4    -113   -144    -52    184    191 218.1 -20.4  34280  291.60 0855.14
2009/04/23 11:20:10.5    -184    -49      9    191    192 254.9   2.9  34280  291.62 0855.14
2009/04/23 11:20:10.6    -285     -9      4    286    287 268.1   0.8  34278  291.58 0855.14
2009/04/23 11:20:10.7    -182    -22    -60    184    193 263.0 -23.8  34274  291.50 0855.15
2009/04/23 11:20:10.8    -181    -51    -45    189    195 254.3 -13.4  34260  291.26 0855.15
2009/04/23 11:20:10.9    -111    117    -50    162    170 316.7 -17.3  34262  291.30 0855.15
2009/04/23 11:20:11.0     -12    169     -6    170    171 355.6  -2.2  34264  291.35 0855.15
2009/04/23 11:20:11.1      67     42     78     80    111  57.6  50.0  34294  291.86 0855.15
2009/04/23 11:20:11.2      61     -4     79     62    100  94.4  57.9  34284  291.69 0855.15
2009/04/23 11:20:11.3      23    -38    104     45    113 149.3  75.5  34284  291.67 0855.15
2009/04/23 11:20:11.4     -39      0     80     40     89 270.0  71.9  34288  291.74 0855.15
2009/04/23 11:20:11.5     -30     55     80     63    101 331.0  57.5  34292  291.81 0855.15
2009/04/23 11:20:11.6      33    183    102    186    212  10.2  31.4  34272  291.47 0855.15
2009/04/23 11:20:11.7      82    242    125    256    284  18.7  27.8  34286  291.72 0855.15
2009/04/23 11:20:11.8      60    232    132    240    273  14.5  31.3  34308  292.07 0855.15
2009/04/23 11:20:11.9      52    297    121    302    325  10.0  23.0  34294  291.84 0855.15
2009/04/23 11:20:12.0       3    252     84    253    267   0.9  18.4  34298  291.92 0855.15
2009/04/23 11:20:12.1     -53    312     78    317    327 350.2  13.9  34292  291.80 0855.15
2009/04/23 11:20:12.2    -138    303     34    333    335 335.5   6.0  34270  291.45 0855.15
2009/04/23 11:20:12.3    -269    308      5    410    411 318.9   0.8  34228  290.73 0855.15
2009/04/23 11:20:12.4    -340    187    -61    389    394 298.9  -9.0  34182  289.96 0855.15
2009/04/23 11:20:12.5    -386    293     -9    485    486 307.2  -1.2  34162  289.61 0855.15
2009/04/23 11:20:12.6    -477    229   -184    530    561 295.7 -24.4  34156  289.51 0855.15
2009/04/23 11:20:12.7    -374    203   -135    426    447 298.5 -17.6  34146  289.33 0855.15
2009/04/23 11:20:12.8    -333    173   -119    376    395 297.5 -17.6  34144  289.30 0855.15
2009/04/23 11:20:12.9    -326    212    -61    390    395 303.1  -9.0  34136  289.15 0855.15
2009/04/23 11:20:13.0    -281    224    -94    360    373 308.6 -14.7  34146  289.32 0855.15
2009/04/23 11:20:13.1    -275    143    -96    311    326 297.5 -17.2  34168  289.70 0855.15
2009/04/23 11:20:13.2    -304    165   -100    347    361 298.5 -20.9  34202  290.28 0855.15
2009/04/23 11:20:13.3    -509    100    -41    519    521 281.1  -4.6  34206  290.36 0855.15
2009/04/23 11:20:13.4    -434     -6   -127    435    453 269.2 -21.1  34182  289.94 0855.15
2009/04/23 11:20:13.5    -288    -71   -156    297    335 256.1 -34.5  34188  290.03 0855.15
2009/04/23 11:20:13.6    -229    -13   -257    230    344 266.7 -58.1  34182  289.95 0855.15
2009/04/23 11:20:13.7    -158    -66   -165    172    238 247.2 -53.4  34182  289.96 0855.15
2009/04/23 11:20:13.8      -4    -63    -86     64    107 183.6 -64.4  34210  290.41 0855.15
2009/04/23 11:20:13.9       0      0    -47      0     47   0.0 -90.0  34216  290.52 0855.15
2009/04/23 11:20:14.0      49     24    -19     55     58  63.8 -23.3  34216  290.53 0855.15
2009/04/23 11:20:14.1     210     -3      1    211    212  90.9   0.5  34202  290.28 0855.15
2009/04/23 11:20:14.2     309     95    -49    324    328  72.9  -8.6  34192  290.10 0855.15
2009/04/23 11:20:14.3     361    179   -111    404    420  63.6 -15.4  34206  290.34 0855.15
2009/04/23 11:20:14.4     373    255   -111    452    466  55.6 -13.9  34230  290.77 0855.15
2009/04/23 11:20:14.5     374    296     69    478    484  51.6   8.2  34192  290.10 0855.15
2009/04/23 11:20:14.6     238    395     20    462    463  31.1   2.5  34214  290.48 0855.15
2009/04/23 11:20:14.7     171    505    -63    534    538  18.7  -6.8  34176  289.85 0855.15
2009/04/23 11:20:14.8     287    414    108    504    516  34.7  12.1  34214  290.49 0855.15
2009/04/23 11:20:14.9     319    417     74    526    532  37.4   8.0  34184  289.99 0855.15
2009/04/23 11:20:15.0     391    447     85    594    601  41.2   8.2  34172  289.76 0855.15
2009/04/23 11:20:15.1     479    325    174    579    605  55.8  16.8  34178  289.88 0855.15
2009/04/23 11:20:15.2     475    419    172    634    657  48.6  15.2  34198  290.21 0855.15
2009/04/23 11:20:15.3     279    233    -43    364    367  50.1  -6.9  34230  290.76 0855.15
2009/04/23 11:20:15.4     294    228    -42    373    376  52.2  -6.5  34214  290.49 0855.15
2009/04/23 11:20:15.5     143    142    -41    202    207  45.3 -11.6  34224  290.67 0855.15
2009/04/23 11:20:15.6      73    140    -48    159    167  27.6 -16.8  34222  290.64 0855.15
2009/04/23 11:20:15.7     182    249    -32    309    311  36.1  -6.0  34226  290.70 0855.15
2009/04/23 11:20:15.8     252     79     93    265    282  72.5  19.4  34202  290.29 0855.15
2009/04/23 11:20:15.9     321    -39    280    324    428  97.0  45.2  34214  290.49 0855.15
2009/04/23 11:20:16.0      35    106    282    112    303  18.7  77.1  34210  290.41 0855.15
2009/04/23 11:20:16.1     -51    214    108    221    245 346.6  27.8  34206  290.36 0855.15
2009/04/23 11:20:16.2      65    525    170    530    557   7.1  17.8  34226  290.69 0855.15
2009/04/23 11:20:16.3     127    449    -28    467    468  15.8  -3.5  34230  290.76 0855.15
2009/04/23 11:20:16.4     181    488   -155    521    544  20.4 -16.6  34224  290.65 0855.15
2009/04/23 11:20:16.5      51    473     -7    476    477   6.2  -0.9  34208  290.39 0855.15
2009/04/23 11:20:16.6     -61    342     -7    348    349 349.9  -1.3  34212  290.47 0855.15
2009/04/23 11:20:16.7     -68    376    -68    383    390 349.7 -10.1  34214  290.50 0855.15
2009/04/23 11:20:16.8    -197    528    -40    564    566 339.5  -4.1  34228  290.72 0855.15
2009/04/23 11:20:16.9     -77    536   -149    542    563 351.8 -15.4  34228  290.72 0855.15
2009/04/23 11:20:17.0     168    259    -24    309    311  33.0  -4.6  34228  290.71 0855.15
2009/04/23 11:20:17.1     140    343    -42    371    374  22.2  -6.5  34214  290.50 0855.15
2009/04/23 11:20:17.2     188    470    -36    507    509  21.8  -4.1  34228  290.73 0855.15
2009/04/23 11:20:17.3     317    391      0    504    505  39.0   0.0  34204  290.32 0855.15
2009/04/23 11:20:17.4     427    417     39    597    599  45.7   3.8  34206  290.36 0855.15
2009/04/23 11:20:17.5     382    433   -107    578    588  41.4 -10.5  34212  290.47 0855.15
2009/04/23 11:20:17.6     243    446    180    508    538  28.6  20.4  34292  291.82 0855.15
2009/04/23 11:20:17.7     295    425    259    518    579  34.7  28.5  34308  292.08 0855.15
2009/04/23 11:20:17.8     232    528     81    577    583  23.7   8.0  34186  290.02 0855.15
2009/04/23 11:20:17.9     359    455     -7    580    581  38.3  -0.7  34268  291.39 0855.15
2009/04/23 11:20:18.0     417    291     46    509    512  55.0   5.2  34292  291.80 0855.15
2009/04/23 11:20:18.1     194    408    178    452    485  25.5  22.7  34300  291.95 0855.15
2009/04/23 11:20:18.2     465    452    307    649    717  45.8  27.2  34306  292.06 0855.15
2009/04/23 11:20:18.3     520    463    225    697    733  48.3  17.9  34214  290.49 0855.15
2009/04/23 11:20:18.4     237    424    187    486    520  29.2  22.1  34188  290.03 0855.15
2009/04/23 11:20:18.5     470    383    254    607    658  50.8  24.1  34292  291.81 0855.15
2009/04/23 11:20:18.6     340    445    110    561    572  37.4  11.1  34276  291.54 0855.15
2009/04/23 11:20:18.7     359    434    203    564    599  39.6  20.8  34272  291.49 0855.14
2009/04/23 11:20:18.8     385    397    179    554    583  44.1  17.9  34260  291.26 0855.14
2009/04/23 11:20:18.9     318    341    104    467    479  43.0  12.6  34238  290.88 0855.14
2009/04/23 11:20:19.0     386    243    300    457    546  57.8  36.5  34242  290.95 0855.14
2009/04/23 11:20:19.1     276    152    270    316    415  61.2  44.9  34234  290.83 0855.14
2009/04/23 11:20:19.2     123    501    234    516    566  13.8  26.2  34272  291.48 0855.14
2009/04/23 11:20:19.3     262    398    204    477    518  33.4  24.6  34260  291.27 0855.14
2009/04/23 11:20:19.4     340    264    275    431    511  52.2  35.6  34268  291.42 0855.14
2009/04/23 11:20:19.5     754    149    -16    769    770  78.8  -1.3  34276  291.55 0855.14
2009/04/23 11:20:19.6     782    197    303    807    862  75.8  21.6  34232  290.78 0855.14
2009/04/23 11:20:19.7     545    232    303    593    665  66.9  29.2  34254  291.16 0855.14
2009/04/23 11:20:19.8     413    218    241    468    526  62.1  29.3  34222  290.62 0855.14
2009/04/23 11:20:19.9     334    250     27    418    419  53.2   3.8  34212  290.44 0855.14
2009/04/23 11:20:20.0     343    199    -38    397    399  59.8  -5.6  34208  290.38 0855.14
2009/04/23 11:20:20.1     301    300    147    425    450  45.1  19.1  34198  290.22 0855.14
2009/04/23 11:20:20.2     619    329     20    702    703  62.0   1.7  34222  290.62 0855.14
2009/04/23 11:20:20.3     395    322     31    510    511  50.8   3.5  34228  290.71 0855.14
2009/04/23 11:20:20.4     376    326     24    498    499  49.1   2.8  34222  290.62 0855.14
2009/04/23 11:20:20.5     236    429     52    490    493  28.9   6.1  34262  291.29 0855.14
2009/04/23 11:20:20.6     358    222   -133    422    443  58.3 -17.5  34218  290.55 0855.14
2009/04/23 11:20:20.7     299    178    -97    349    362  59.3 -20.2  34218  290.54 0855.14
2009/04/23 11:20:20.8     295    202      9    358    359  55.6   1.5  34218  290.54 0855.14
2009/04/23 11:20:20.9     341    164    -41    379    382  64.3  -6.2  34222  290.62 0855.14
2009/04/23 11:20:21.0     359    120    -54    379    383  71.4  -8.1  34244  291.00 0855.14
2009/04/23 11:20:21.1     385     77     41    393    396  78.6   6.0  34244  291.00 0855.14
2009/04/23 11:20:21.2     291     66    -26    299    301  77.2  -5.1  34244  291.00 0855.14
2009/04/23 11:20:21.3     312     48    -57    316    322  81.2 -10.2  34252  291.12 0855.14
2009/04/23 11:20:21.4     258    -35     -5    261    262  97.9  -1.3  34246  291.04 0855.14
2009/04/23 11:20:21.5     303     42    132    306    333  82.1  24.9  34260  291.26 0855.14
2009/04/23 11:20:21.6     294     32    138    296    326  83.6  26.9  34262  291.31 0855.14
2009/04/23 11:20:21.7     297      0    203    298    360  90.0  37.4  34270  291.45 0855.14
2009/04/23 11:20:21.8     215   -100    167    238    290 115.1  38.4  34280  291.61 0855.14
2009/04/23 11:20:21.9     192    -14    233    193    302  94.3  56.3  34296  291.89 0855.14
2009/04/23 11:20:22.0       6    -33    178     34    181 168.4  89.6  34286  291.71 0855.14
2009/04/23 11:20:22.1      19     31    153     37    157  32.6  86.4  34282  291.64 0855.14
2009/04/23 11:20:22.2     -39     41    190     57    198 316.8  82.8  34278  291.59 0855.14
2009/04/23 11:20:22.3     -61      0    169     62    180 270.0  79.5  34276  291.54 0855.14
2009/04/23 11:20:22.4     -33     42    135     54    145 321.3  77.1  34278  291.59 0855.14
2009/04/23 11:20:22.5    -330     98    127    345    367 286.5  21.0  34278  291.59 0855.14
2009/04/23 11:20:22.6    -360     94    -42    373    376 284.6  -6.5  34258  291.23 0855.14
2009/04/23 11:20:22.7    -342    165    -62    380    386 295.8  -9.3  34238  290.91 0855.15
2009/04/23 11:20:22.8    -113    122   -168    167    236 317.2 -54.5  34246  291.03 0855.15
2009/04/23 11:20:22.9     -68     -5    -93     69    115 265.7 -64.4  34248  291.08 0855.15
2009/04/23 11:20:23.0     -69    -41   -159     81    178 239.3 -75.2  34238  290.89 0855.15
2009/04/23 11:20:23.1     -35   -142   -131    147    196 193.8 -50.8  34236  290.87 0855.15
2009/04/23 11:20:23.2     -76   -155    -34    173    177 206.1 -11.1  34240  290.94 0855.15
2009/04/23 11:20:23.3     -38   -112    -41    119    125 198.7 -23.3  34236  290.86 0855.15
2009/04/23 11:20:23.4     -10    -51     29     53     60 191.6  31.4  34234  290.82 0855.15
2009/04/23 11:20:23.5      -1    -12     63     13     64 184.5  89.0  34240  290.92 0855.15
2009/04/23 11:20:23.7       1      0      8      2      8  71.6  80.7  34252  291.15 0855.15
2009/04/23 11:20:23.7      64    -16    -18     67     70 104.2 -15.4  34244  290.99 0855.15
2009/04/23 11:20:23.8     112    -92    117    146    187 129.5  43.3  34234  290.82 0855.15
2009/04/23 11:20:23.9      92   -186    205    208    292 153.5  49.9  34234  290.82 0855.15
2009/04/23 11:20:24.0     -80   -295    226    306    380 195.2  39.9  34250  291.10 0855.15
2009/04/23 11:20:24.1     -66   -248    189    257    319 194.9  40.0  34244  290.99 0855.15
2009/04/23 11:20:24.2     -88   -150    133    175    219 210.5  41.2  34226  290.70 0855.15
2009/04/23 11:20:24.3     -88   -179    167    200    260 206.3  44.1  34202  290.29 0855.15
2009/04/23 11:20:24.4    -102   -284    176    302    349 199.8  33.0  34202  290.30 0855.15
2009/04/23 11:20:24.5    -320   -400     99    513    523 218.7  11.0  34268  291.40 0855.15
2009/04/23 11:20:24.6     -17   -435     41    436    439 182.3   5.5  34216  290.53 0855.15
2009/04/23 11:20:24.7      65   -431    111    436    450 171.4  14.3  34208  290.38 0855.15
2009/04/23 11:20:24.8      29   -440    185    441    478 176.1  24.2  34236  290.86 0855.15
2009/04/23 11:20:24.9     -57   -411    194    415    458 187.9  27.1  34234  290.84 0855.15
2009/04/23 11:20:25.0    -123   -374    135    394    417 198.3  18.9  34244  291.01 0855.15
2009/04/23 11:20:25.1     -63   -460    148    465    489 187.9  17.7  34254  291.17 0855.15
2009/04/23 11:20:25.2    -177   -477     89    509    517 200.4  10.0  34270  291.44 0855.15
2009/04/23 11:20:25.3    -162   -344     59    381    386 205.3   8.8  34270  291.44 0855.15
2009/04/23 11:20:25.4    -115   -423     86    439    448 195.2  11.1  34264  291.33 0855.15
2009/04/23 11:20:25.5     -95   -466    158    476    502 191.6  18.5  34244  291.00 0855.15
2009/04/23 11:20:25.6    -134   -494    147    512    533 195.2  16.0  34232  290.80 0855.15
2009/04/23 11:20:25.7    -135   -459    168    479    508 196.4  19.4  34238  290.91 0855.15
2009/04/23 11:20:25.8     -58   -469    158    473    499 187.1  18.5  34228  290.71 0855.15
2009/04/23 11:20:25.9      23   -442     86    443    452 177.0  11.0  34244  290.99 0855.15
2009/04/23 11:20:26.0     -19   -505    -18    506    507 182.2  -2.1  34276  291.54 0855.15
2009/04/23 11:20:26.1     -17   -442    -23    443    444 182.2  -3.0  34282  291.65 0855.15
2009/04/23 11:20:26.2      54   -497      7    500    501 173.8   0.8  34276  291.53 0855.15
2009/04/23 11:20:26.3       8   -487     81    488    495 179.0   9.4  34282  291.64 0855.15
2009/04/23 11:20:26.4     -48   -513    133    516    533 185.4  14.5  34270  291.43 0855.15
2009/04/23 11:20:26.5     -61   -496    153    500    523 187.1  17.0  34232  290.81 0855.15
2009/04/23 11:20:26.6    -138   -469    114    489    503 196.4  13.1  34238  290.88 0855.15
2009/04/23 11:20:26.7    -127   -405    116    425    441 197.5  15.3  34226  290.68 0855.14
2009/04/23 11:20:26.8       0   -451    243    452    513 180.1  30.7  34224  290.66 0855.14
2009/04/23 11:20:26.9       9   -460    134    461    481 178.8  16.3  34230  290.76 0855.14
2009/04/23 11:20:27.0     -13   -426    136    427    449 181.8  17.7  34234  290.82 0855.14
2009/04/23 11:20:27.1     -60   -593    216    597    636 185.8  19.9  34222  290.62 0855.14
2009/04/23 11:20:27.2     -34   -567    189    569    600 183.5  18.4  34222  290.63 0855.14
2009/04/23 11:20:27.3     -44   -570    180    572    600 184.5  17.5  34220  290.59 0855.14
2009/04/23 11:20:27.4     -47   -605    214    608    645 184.5  19.4  34220  290.59 0855.14
2009/04/23 11:20:27.5     -79   -521    202    528    565 188.7  22.0  34222  290.62 0855.14
2009/04/23 11:20:27.6       4   -465    222    466    516 179.4  27.3  34222  290.61 0855.14
2009/04/23 11:20:27.7     -25   -354    103    355    370 184.1  16.3  34224  290.66 0855.14
2009/04/23 11:20:27.8     -21   -309     62    310    317 184.0  11.3  34224  290.65 0855.14
2009/04/23 11:20:27.9     -11   -250     30    251    253 182.6   6.9  34228  290.71 0855.14
2009/04/23 11:20:28.0     -35   -322     63    324    331 186.3  11.1  34218  290.55 0855.14
2009/04/23 11:20:28.1    -112   -257    111    281    302 203.6  23.0  34214  290.49 0855.14
2009/04/23 11:20:28.2      56   -370     78    375    384 171.3  11.8  34208  290.38 0855.14
2009/04/23 11:20:28.3    -112   -489     85    502    510 192.9   9.6  34216  290.51 0855.14
2009/04/23 11:20:28.4      -7   -314    122    315    337 181.4  22.3  34198  290.20 0855.14
2009/04/23 11:20:28.5      24   -317    156    319    355 175.5  27.9  34218  290.55 0855.14
2009/04/23 11:20:28.6    -168   -450     91    481    490 200.5  10.8  34198  290.20 0855.14
2009/04/23 11:20:28.7    -140   -219     91    261    277 212.6  19.2  34208  290.37 0855.14
2009/04/23 11:20:28.9       8    -35    129     36    133 166.6  84.4  34234  290.82 0855.14
2009/04/23 11:20:29.0       2   -113    230    114    256 178.6  71.9  34228  290.74 0855.14
2009/04/23 11:20:29.1     -15   -288    347    289    451 183.1  56.3  34220  290.58 0855.14
2009/04/23 11:20:29.2      12   -159    235    160    284 175.5  62.7  34224  290.66 0855.14
2009/04/23 11:20:29.3    -103   -258    278    278    393 201.8  50.1  34214  290.50 0855.14
2009/04/23 11:20:29.4    -122   -147    158    192    248 219.7  43.7  34212  290.47 0855.14
2009/04/23 11:20:29.5     -72   -207    115    220    248 199.2  29.8  34222  290.61 0855.14
2009/04/23 11:20:29.6     -54   -189     70    197    209 196.0  20.2  34222  290.62 0855.14
2009/04/23 11:20:29.7     -52   -165     42    174    180 197.6  13.7  34218  290.55 0855.14
2009/04/23 11:20:29.8     -94   -198     56    220    228 205.5  14.3  34214  290.50 0855.14
2009/04/23 11:20:29.9    -122   -149     74    193    206 219.2  22.0  34218  290.55 0855.14
2009/04/23 11:20:30.0    -150   -160    108    220    245 223.2  28.0  34214  290.49 0855.14
2009/04/23 11:20:30.1     -39   -184    171    189    254 192.0  46.9  34216  290.53 0855.14
2009/04/23 11:20:30.2    -110   -229    145    255    293 205.6  32.3  34212  290.46 0855.14
2009/04/23 11:20:30.3    -104   -393    181    407    445 194.9  25.6  34202  290.29 0855.14
2009/04/23 11:20:30.4     -77   -334    203    343    398 193.1  33.5  34204  290.33 0855.14
2009/04/23 11:20:30.5     -26   -252    178    254    310 186.0  38.5  34206  290.36 0855.14
2009/04/23 11:20:30.6     126   -123    166    177    242 134.4  48.0  34212  290.45 0855.14
2009/04/23 11:20:30.7      16   -151     99    152    181 173.7  36.0  34210  290.41 0855.14
2009/04/23 11:20:30.8     -32   -135    104    139    173 193.4  40.4  34212  290.47 0855.13
2009/04/23 11:20:30.9     -28   -137     98    140    170 191.6  38.6  34208  290.38 0855.13
2009/04/23 11:20:31.0      -8   -129     69    130    147 183.6  29.8  34206  290.35 0855.13
2009/04/23 11:20:31.1       0   -114     62    115    130 179.5  30.8  34210  290.41 0855.13
2009/04/23 11:20:31.2    -167    -36      1    171    172 257.8   0.5  34202  290.30 0855.13
2009/04/23 11:20:31.3    -206     20    -30    208    211 275.7  -8.2  34198  290.23 0855.13
2009/04/23 11:20:31.4    -233     46     -9    238    239 281.4  -2.2  34206  290.34 0855.13
2009/04/23 11:20:31.5    -161     22    -32    163    167 277.9 -11.1  34208  290.40 0855.13
2009/04/23 11:20:31.6     -76    -25    -52     81     96 251.4 -40.0  34216  290.53 0855.13
2009/04/23 11:20:31.7     -38    -45    -96     60    113 220.5 -69.1  34220  290.58 0855.13
2009/04/23 11:20:31.8     -63     76    -35     99    106 320.4 -19.7  34210  290.41 0855.13
2009/04/23 11:20:31.9     -66    154     22    168    170 336.6   7.5  34208  290.40 0855.13
2009/04/23 11:20:32.0     -88     22     71     91    115 284.2  42.2  34232  290.81 0855.13
2009/04/23 11:20:32.1    -271    -89     34    286    289 251.8   6.9  34246  291.04 0855.13
2009/04/23 11:20:32.2    -361    -97     22    375    376 254.9   3.5  34228  290.71 0855.13
2009/04/23 11:20:32.3    -380    -85    -69    390    397 257.3 -10.1  34224  290.66 0855.13
2009/04/23 11:20:32.4    -318   -129     73    344    352 247.9  12.1  34232  290.79 0855.13
2009/04/23 11:20:32.5    -320   -322     62    455    460 224.8   7.8  34206  290.34 0855.13
2009/04/23 11:20:32.6    -412   -223    144    469    491 241.5  17.1  34212  290.44 0855.13
2009/04/23 11:20:32.7    -327   -264    114    421    437 231.2  15.2  34212  290.46 0855.13
2009/04/23 11:20:32.8    -335   -237    178    411    447 234.7  25.1  34212  290.44 0855.13
2009/04/23 11:20:32.9    -393   -172     83    430    439 246.4  11.0  34224  290.65 0855.13
2009/04/23 11:20:33.0    -328   -266   -143    423    447 230.9 -18.7  34210  290.41 0855.13
2009/04/23 11:20:33.1    -495   -137     36    514    516 254.5   4.0  34242  290.95 0855.13
2009/04/23 11:20:33.2    -279   -231   -155    363    394 230.3 -29.0  34222  290.62 0855.13
2009/04/23 11:20:33.3    -265   -148   -148    304    338 240.7 -32.3  34208  290.37 0855.13
2009/04/23 11:20:33.4    -267   -250   -173    367    405 226.9 -31.5  34210  290.42 0855.13
2009/04/23 11:20:33.5    -256   -175    -12    311    312 235.6  -2.2  34226  290.68 0855.13
2009/04/23 11:20:33.6    -221   -248   -150    333    365 221.7 -30.3  34210  290.42 0855.13
2009/04/23 11:20:33.7     -57   -274   -120    280    304 191.8 -29.3  34190  290.09 0855.13
2009/04/23 11:20:33.8    -343   -249   -122    424    442 234.0 -16.0  34216  290.51 0855.13
2009/04/23 11:20:33.9    -333   -277   -128    434    452 230.2 -21.2  34198  290.22 0855.13
2009/04/23 11:20:34.0    -488    -83    -59    496    500 260.3  -6.8  34208  290.40 0855.13
2009/04/23 11:20:34.1    -363   -225   -135    428    448 238.2 -22.5  34234  290.82 0855.13
2009/04/23 11:20:34.2    -333   -253   -155    419    446 232.7 -25.4  34222  290.61 0855.13
2009/04/23 11:20:34.3    -125   -246    -15    277    278 207.0  -3.2  34228  290.73 0855.13
2009/04/23 11:20:34.4     -41   -312    -18    315    316 187.6  -3.3  34220  290.58 0855.13
2009/04/23 11:20:34.5    -136   -190     89    234    250 215.6  21.7  34224  290.66 0855.13
2009/04/23 11:20:34.6    -376   -233    -59    443    447 238.2  -7.6  34212  290.44 0855.13
2009/04/23 11:20:34.7    -337   -277   -104    437    450 230.6 -13.4  34210  290.43 0855.13
2009/04/23 11:20:34.8    -277   -363   -100    457    468 217.3 -12.4  34192  290.13 0855.13
2009/04/23 11:20:34.9    -149   -426   -116    452    467 199.3 -14.5  34180  289.90 0855.13
2009/04/23 11:20:35.0    -324   -587   -173    671    694 208.9 -14.5  34188  290.04 0855.13
2009/04/23 11:20:35.1    -324   -510     25    605    606 212.5   2.4  34198  290.22 0855.13
2009/04/23 11:20:35.2    -380   -398    -18    551    552 223.7  -1.9  34190  290.07 0855.13
2009/04/23 11:20:35.3    -212   -336    -18    398    399 212.2  -2.6  34202  290.28 0855.13
2009/04/23 11:20:35.4    -272   -223     49    352    356 230.7   8.0  34252  291.15 0855.13
2009/04/23 11:20:35.5    -146   -439    -45    463    466 198.5  -5.6  34188  290.03 0855.13
2009/04/23 11:20:35.6    -116   -554    -31    567    568 191.9  -3.1  34196  290.18 0855.13
2009/04/23 11:20:35.7     -21   -432    -42    433    436 182.8  -5.6  34170  289.75 0855.13
2009/04/23 11:20:35.8     -47   -437   -147    440    463 186.3 -23.6  34182  289.94 0855.12
2009/04/23 11:20:35.9    -111   -549    -87    561    568 191.5  -8.8  34176  289.85 0855.12
2009/04/23 11:20:36.0     -95   -556     29    565    566 189.7   3.0  34178  289.89 0855.12
2009/04/23 11:20:36.1     -96   -534    -37    543    545 190.3  -3.9  34166  289.68 0855.12
2009/04/23 11:20:36.2    -136   -540     -2    557    558 194.2  -0.3  34166  289.68 0855.12
2009/04/23 11:20:36.3    -105   -440     52    453    457 193.5   6.6  34164  289.65 0855.12
2009/04/23 11:20:36.4    -176   -393     77    431    439 204.2  10.2  34172  289.77 0855.12
2009/04/23 11:20:36.5    -134   -370     70    394    401 200.0  10.1  34174  289.81 0855.12
2009/04/23 11:20:36.6    -203   -440     23    485    486 204.8   2.8  34182  289.96 0855.12
2009/04/23 11:20:36.7    -140   -391     12    416    417 199.7   1.7  34182  289.94 0855.12
2009/04/23 11:20:36.8     -55   -344     -7    349    350 189.1  -1.2  34176  289.84 0855.12
2009/04/23 11:20:36.9      16   -438    -32    439    441 177.9  -4.2  34174  289.82 0855.12
2009/04/23 11:20:37.0       6   -400    -15    401    402 179.0  -2.2  34178  289.86 0855.12
2009/04/23 11:20:37.1     -79   -389     26    398    399 191.6   3.8  34180  289.91 0855.12
2009/04/23 11:20:37.2      38   -379    134    381    405 174.2  19.4  34178  289.89 0855.12
2009/04/23 11:20:37.3     -71   -396    150    403    430 190.2  21.3  34184  289.97 0855.12
2009/04/23 11:20:37.4     -19   -393    151    394    421 182.9  22.1  34180  289.92 0855.12
2009/04/23 11:20:37.5     -29   -394    101    396    409 184.3  14.4  34186  290.00 0855.12
2009/04/23 11:20:37.6     -38   -438    162    440    468 185.0  21.1  34184  289.97 0855.12
2009/04/23 11:20:37.7     -25   -399    104    400    414 183.6  14.6  34184  289.99 0855.12
2009/04/23 11:20:37.8     -37   -344     21    347    348 186.3   3.6  34182  289.94 0855.12
2009/04/23 11:20:37.9    -140   -256     14    293    294 208.7   2.8  34184  289.98 0855.12
2009/04/23 11:20:38.0     -68   -260    135    269    300 194.7  29.1  34180  289.92 0855.12
2009/04/23 11:20:38.1     -64   -279     84    287    300 192.9  16.4  34182  289.93 0855.12
2009/04/23 11:20:38.2    -103   -344    -35    360    362 196.6  -5.6  34190  290.08 0855.12
2009/04/23 11:20:38.3     -65   -279     58    287    294 193.3  11.6  34184  289.97 0855.12
2009/04/23 11:20:38.4     -62   -272     99    280    296 192.9  20.0  34178  289.88 0855.12
2009/04/23 11:20:38.5    -116   -265    165    290    333 203.7  32.0  34192  290.10 0855.12
2009/04/23 11:20:38.6     -56   -275    123    281    306 191.6  25.2  34188  290.05 0855.12
2009/04/23 11:20:38.7    -124   -439     43    457    460 195.8   5.5  34180  289.92 0855.12
2009/04/23 11:20:38.8    -126   -397     36    417    419 197.7   5.0  34190  290.07 0855.12
2009/04/23 11:20:38.9    -205   -329    -15    388    389 211.9  -2.2  34188  290.06 0855.12
2009/04/23 11:20:39.0    -184   -333     38    381    383 209.0   5.8  34188  290.06 0855.12
2009/04/23 11:20:39.1    -153   -309     33    345    347 206.4   5.5  34186  290.01 0855.12
2009/04/23 11:20:39.2    -195   -332   -102    386    400 210.4 -14.8  34188  290.04 0855.12
2009/04/23 11:20:39.3    -166   -260     -6    309    310 212.6  -1.3  34198  290.22 0855.12
2009/04/23 11:20:39.4    -171   -301     94    347    360 209.6  15.2  34198  290.20 0855.12
2009/04/23 11:20:39.5    -157   -196     47    252    257 218.7  10.6  34198  290.22 0855.12
2009/04/23 11:20:39.6    -146   -230     -7    273    274 212.5  -1.6  34200  290.26 0855.12
2009/04/23 11:20:39.7     -28   -241    102    243    263 186.7  24.1  34196  290.19 0855.12
2009/04/23 11:20:39.8     -76   -252     -1    264    265 196.9  -0.3  34192  290.12 0855.12
2009/04/23 11:20:39.9     -50   -324     65    328    335 188.8  11.3  34194  290.15 0855.12
2009/04/23 11:20:40.0      15   -247     26    248    250 176.5   6.1  34188  290.05 0855.12
2009/04/23 11:20:40.1       1   -131     99    132    165 179.5  40.7  34192  290.11 0855.12
2009/04/23 11:20:40.2      81   -181    159    199    254 155.7  42.8  34202  290.27 0855.12
2009/04/23 11:20:40.3      -4   -174    110    175    206 181.6  35.5  34190  290.08 0855.12
2009/04/23 11:20:40.4     -35   -159    104    164    194 192.7  35.5  34194  290.14 0855.12
2009/04/23 11:20:40.5     -37   -165    102    170    198 192.9  33.7  34198  290.21 0855.12
2009/04/23 11:20:40.6     -33   -100     59    106    121 198.7  31.4  34198  290.21 0855.12
2009/04/23 11:20:40.7      17     22     71     28     76  37.8  78.2  34214  290.48 0855.12
2009/04/23 11:20:40.8    -112     41    102    120    157 290.4  45.1  34222  290.64 0855.12
2009/04/23 11:20:40.9     -84     95     55    127    138 318.5  25.1  34206  290.35 0855.12
2009/04/23 11:20:41.0     -60    120     47    135    144 333.3  19.4  34210  290.41 0855.12
2009/04/23 11:20:41.1     -86    147     66    171    183 329.7  22.0  34208  290.38 0855.12
2009/04/23 11:20:41.2      58     36     41     69     80  57.6  33.5  34200  290.26 0855.12
2009/04/23 11:20:41.3      27    -43    -17     52     54 147.5 -23.8  34206  290.36 0855.12
2009/04/23 11:20:41.4      15    -23     55     28     61 147.5  71.9  34204  290.31 0855.12
2009/04/23 11:20:41.5      18    -52     64     56     85 160.8  54.3  34200  290.26 0855.12
2009/04/23 11:20:41.6      59    -92    119    110    162 147.4  52.5  34202  290.30 0855.12
2009/04/23 11:20:41.7      49    -35    147     61    159 125.1  76.3  34210  290.43 0855.12
2009/04/23 11:20:41.8     132    -29    166    136    214 102.4  56.4  34214  290.48 0855.12
2009/04/23 11:20:41.9     145     60    123    158    200  67.4  41.7  34212  290.47 0855.12
2009/04/23 11:20:42.0     149     16    125    150    195  83.8  44.1  34218  290.55 0855.12
2009/04/23 11:20:42.1     180    -22     78    182    198  97.0  24.6  34210  290.43 0855.12
2009/04/23 11:20:42.2     162      0     56    163    173  90.0  18.9  34210  290.41 0855.12
2009/04/23 11:20:42.3     195     45     37    201    205  77.0  10.6  34212  290.45 0855.12
2009/04/23 11:20:42.4     173     43     13    179    180  75.8   4.4  34216  290.52 0855.12
2009/04/23 11:20:42.5     105      8    -37    106    112  85.6 -23.3  34214  290.48 0855.12
2009/04/23 11:20:42.6      60    -12    -33     62     70 101.4 -34.7  34212  290.45 0855.12
2009/04/23 11:20:42.7      43    -36    -24     57     61 129.6 -27.5  34210  290.43 0855.12
2009/04/23 11:20:42.8     104    -83     -8    134    135 128.6  -3.7  34210  290.43 0855.12
2009/04/23 11:20:42.9      90     16    -83     92    123  79.9 -51.9  34216  290.52 0855.12
2009/04/23 11:20:43.0      50     47    -85     69    109  46.9 -60.8  34218  290.57 0855.12
2009/04/23 11:20:43.1      21    -21   -125     30    128 135.0 -90.0  34236  290.87 0855.12
2009/04/23 11:20:43.2     -30    -24    -98     39    105 230.5 -81.5  34248  291.06 0855.12
2009/04/23 11:20:43.3     -44      0    -77     45     89 270.8 -71.2  34238  290.91 0855.12
2009/04/23 11:20:43.4    -135      0    -69    136    152 270.0 -33.1  34222  290.62 0855.12
2009/04/23 11:20:43.5    -160    -31    -51    164    171 258.8 -22.3  34218  290.57 0855.12
2009/04/23 11:20:43.6    -182    -11     33    183    187 266.3  10.3  34222  290.62 0855.12
2009/04/23 11:20:43.7    -172    -59     42    182    187 250.9  13.2  34212  290.47 0855.12
2009/04/23 11:20:43.8    -167    -52     60    176    187 252.5  18.9  34216  290.52 0855.11
2009/04/23 11:20:43.9     -91    -86    135    126    184 226.9  52.1  34236  290.87 0855.11
2009/04/23 11:20:44.0    -142   -104     99    177    202 233.8  31.9  34232  290.79 0855.11
2009/04/23 11:20:44.1    -134    -89    104    162    192 236.3  35.6  34220  290.60 0855.11
2009/04/23 11:20:44.2    -125   -159    125    203    238 218.3  34.5  34230  290.75 0855.11
2009/04/23 11:20:44.3    -162   -103    106    193    220 237.6  31.3  34228  290.74 0855.11
2009/04/23 11:20:44.4    -181   -181     65    257    266 225.0  14.3  34232  290.80 0855.11
2009/04/23 11:20:44.5    -167   -222     43    279    283 217.0   8.9  34226  290.70 0855.11
2009/04/23 11:20:44.6    -153   -241     44    286    290 212.5   8.9  34234  290.82 0855.11
2009/04/23 11:20:44.7    -131   -285     10    314    315 204.7   1.9  34226  290.70 0855.11
2009/04/23 11:20:44.8     -58   -212    128    220    254 195.4  32.7  34248  291.07 0855.11
2009/04/23 11:20:44.9    -101   -212     98    235    254 205.5  24.1  34222  290.61 0855.11
2009/04/23 11:20:45.0    -109   -181     89    212    229 211.2  24.1  34226  290.70 0855.11
2009/04/23 11:20:45.1     -78   -163     68    181    193 205.6  21.3  34256  291.20 0855.11
2009/04/23 11:20:45.2     -54   -194    114    202    231 195.8  31.9  34210  290.41 0855.11
2009/04/23 11:20:45.3    -115   -164    141    201    245 215.0  38.6  34240  290.94 0855.11
2009/04/23 11:20:45.4    -118   -113     98    164    191 226.2  34.0  34254  291.18 0855.11
2009/04/23 11:20:45.5    -127   -104     85    165    185 230.5  29.3  34276  291.54 0855.11
2009/04/23 11:20:45.6    -182   -115     67    216    227 237.6  17.3  34256  291.20 0855.11
2009/04/23 11:20:45.7    -106    -67     75    126    146 237.5  33.5  34276  291.54 0855.11
2009/04/23 11:20:45.8    -108    -89     62    141    154 230.5  25.1  34274  291.52 0855.12
2009/04/23 11:20:45.9    -136   -155    143    207    251 221.2  37.8  34264  291.33 0855.12
2009/04/23 11:20:46.0    -181   -157     62    240    248 229.1  14.5  34242  290.97 0855.12
2009/04/23 11:20:46.1    -234   -138     43    272    276 239.4   9.0  34250  291.10 0855.12
2009/04/23 11:20:46.2    -150   -241     97    285    302 211.9  18.8  34248  291.07 0855.12
2009/04/23 11:20:46.3    -101   -259    177    279    330 201.4  35.5  34262  291.29 0855.12
2009/04/23 11:20:46.4     -93   -233    202    252    322 201.9  43.0  34244  291.00 0855.12
2009/04/23 11:20:46.5    -132   -223    118    260    285 210.7  26.2  34212  290.46 0855.12
2009/04/23 11:20:46.6     -75   -175     59    191    201 203.4  17.3  34208  290.40 0855.12
2009/04/23 11:20:46.7     -82   -181     24    199    201 204.5   6.9  34212  290.47 0855.12
2009/04/23 11:20:46.8     -75   -175     66    191    203 203.2  19.2  34224  290.67 0855.12
2009/04/23 11:20:46.9     -88   -164     44    187    193 208.3  13.2  34212  290.45 0855.12
2009/04/23 11:20:47.0     -53   -198    -40    206    210 195.2 -11.1  34208  290.38 0855.12
2009/04/23 11:20:47.1     -32   -194     -7    197    198 189.6  -2.3  34212  290.47 0855.12
2009/04/23 11:20:47.2     -31   -218    -12    221    222 188.1  -3.1  34216  290.53 0855.12
2009/04/23 11:20:47.3     -29   -178     35    181    185 189.3  11.1  34218  290.57 0855.12
2009/04/23 11:20:47.4     -60   -159     44    170    176 200.7  14.5  34222  290.62 0855.12
2009/04/23 11:20:47.5     -65   -112    166    130    210 210.3  57.9  34246  291.03 0855.12
2009/04/23 11:20:47.6     -20    -87    151     90    175 192.9  66.2  34244  291.01 0855.12
2009/04/23 11:20:47.7     -29    -93    112     98    148 197.4  54.3  34232  290.81 0855.12
2009/04/23 11:20:47.8    -106   -123    144    163    217 220.8  45.9  34272  291.47 0855.13
2009/04/23 11:20:47.9     -76   -121    177    143    227 212.1  56.6  34264  291.35 0855.13
2009/04/23 11:20:48.0     -91   -110    169    143    221 219.7  55.6  34260  291.26 0855.13
2009/04/23 11:20:48.1    -127   -107    145    167    221 230.0  45.8  34256  291.20 0855.13
2009/04/23 11:20:48.2    -125   -113    155    169    229 227.8  47.7  34246  291.04 0855.13
2009/04/23 11:20:48.3     -80   -168     96    187    210 205.5  29.2  34222  290.62 0855.13
2009/04/23 11:20:48.4     -85   -181     92    201    221 205.3  26.4  34218  290.55 0855.13
2009/04/23 11:20:48.5     -52   -170     93    179    201 197.2  29.5  34214  290.48 0855.13
2009/04/23 11:20:48.6     -48   -178    110    185    215 195.1  33.5  34212  290.47 0855.13
2009/04/23 11:20:48.7     -46   -190     85    196    213 193.6  24.9  34216  290.53 0855.13
2009/04/23 11:20:48.8     -37   -165    116    170    205 192.9  37.6  34226  290.69 0855.13
2009/04/23 11:20:48.9     -87   -171    135    192    234 207.0  38.6  34234  290.82 0855.13
2009/04/23 11:20:49.0     -71   -129    136    148    200 209.0  47.7  34238  290.91 0855.13
2009/04/23 11:20:49.1     -92   -104    128    140    189 221.4  47.5  34246  291.04 0855.13
2009/04/23 11:20:49.2     -46   -125    137    134    191 200.1  50.7  34248  291.06 0855.13
2009/04/23 11:20:49.3     -72   -143    188    161    247 206.7  55.3  34234  290.82 0855.13
2009/04/23 11:20:49.4     -68   -169    154    183    239 201.8  44.5  34228  290.74 0855.13
2009/04/23 11:20:49.5    -119   -144    154    188    243 219.6  43.7  34274  291.50 0855.13
2009/04/23 11:20:49.6    -147   -128    214    196    290 228.9  52.7  34260  291.26 0855.13
2009/04/23 11:20:49.7    -230   -116    112    258    281 243.1  25.1  34292  291.80 0855.13
2009/04/23 11:20:49.8    -147   -103     93    180    202 234.9  29.3  34300  291.95 0855.12
2009/04/23 11:20:49.9    -150    -81     76    171    187 241.6  25.7  34292  291.81 0855.12
2009/04/23 11:20:50.0    -169    -52     66    177    188 252.7  21.3  34314  292.18 0855.12
2009/04/23 11:20:50.1    -150   -110     71    187    200 233.6  21.5  34236  290.87 0855.12
2009/04/23 11:20:50.2    -133   -125    125    183    221 226.9  37.6  34238  290.91 0855.12
2009/04/23 11:20:50.3    -146    -98    133    177    221 236.0  40.7  34258  291.25 0855.12
2009/04/23 11:20:50.4     -85    -78    123    116    169 227.3  51.6  34304  292.03 0855.12
2009/04/23 11:20:50.5     -95    -31     75    101    125 251.8  40.1  34302  291.98 0855.12
2009/04/23 11:20:50.6    -108    -30     22    113    116 254.5  11.1  34302  292.00 0855.12
2009/04/23 11:20:50.7    -142    -24     34    145    149 260.3  13.2  34310  292.13 0855.12
2009/04/23 11:20:50.8    -145     22     17    147    149 278.8   6.9  34310  292.13 0855.12
2009/04/23 11:20:50.9     -88      4    -24     89     93 273.0 -15.5  34300  291.96 0855.12
2009/04/23 11:20:51.0     -94    -21    -27     97    101 257.2 -16.0  34310  292.12 0855.12
2009/04/23 11:20:51.1    -107    -37      5    114    115 250.9   2.9  34324  292.37 0855.12
2009/04/23 11:20:51.2     -71    -58     47     92    103 230.9  28.7  34314  292.18 0855.12
2009/04/23 11:20:51.3     -47      5      6     48     49 276.1   8.0  34322  292.32 0855.12
2009/04/23 11:20:51.4     -12    -45     21     47     51 196.0  26.2  34304  292.03 0855.12
2009/04/23 11:20:51.5      -6    -57     12     58     60 186.2  12.2  34270  291.45 0855.12
2009/04/23 11:20:51.6       0    -80    -21     81     84 180.5 -14.5  34276  291.54 0855.12
2009/04/23 11:20:51.7      28    -86    -29     91     96 161.5 -18.1  34276  291.54 0855.12
2009/04/23 11:20:51.8       2    -65    -14     66     68 178.2 -12.4  34272  291.49 0855.12
2009/04/23 11:20:51.9       7    -33    -47     34     58 166.6 -64.9  34272  291.49 0855.12
2009/04/23 11:20:52.0     -29    -59    -21     66     70 206.3 -17.6  34258  291.25 0855.12
2009/04/23 11:20:52.1     -81   -136     -9    159    160 210.8  -3.3  34272  291.49 0855.12
2009/04/23 11:20:52.2     -79   -133      8    155    156 210.8   3.3  34274  291.50 0855.12
2009/04/23 11:20:52.3     -38   -163     -3    168    169 193.1  -1.3  34268  291.40 0855.12
2009/04/23 11:20:52.4     -25   -208     -8    210    211 187.1  -2.2  34258  291.25 0855.12
2009/04/23 11:20:52.5     -30   -202    -10    205    206 188.5  -2.8  34250  291.09 0855.12
2009/04/23 11:20:52.6     -24   -163     32    165    169 188.7  11.0  34234  290.84 0855.12
2009/04/23 11:20:52.7       0   -150     48    151    159 180.0  17.7  34260  291.28 0855.12
2009/04/23 11:20:52.8       3   -179     48    180    187 179.0  15.0  34254  291.16 0855.13
2009/04/23 11:20:52.9      14   -190     49    191    198 175.6  14.5  34228  290.72 0855.13
2009/04/23 11:20:53.0      43   -205     76    210    223 168.0  20.7  34208  290.38 0855.13
2009/04/23 11:20:53.1      15   -196     69    197    208 175.5  20.0  34212  290.45 0855.13
2009/04/23 11:20:53.2      41   -244     86    248    263 170.4  19.2  34218  290.54 0855.13
2009/04/23 11:20:53.3     -24   -286    101    288    306 184.9  19.4  34228  290.71 0855.13
2009/04/23 11:20:53.4      40   -280     44    283    287 171.8   9.0  34244  291.00 0855.13
2009/04/23 11:20:53.5     -39   -278     23    281    283 188.0   4.9  34262  291.31 0855.13
2009/04/23 11:20:53.6     -24   -216    -15    218    219 186.5  -4.1  34268  291.42 0855.13
2009/04/23 11:20:53.7     -20   -219     -8    221    222 185.3  -2.2  34284  291.69 0855.13
2009/04/23 11:20:53.8      20   -245    -22    246    248 175.3  -5.2  34242  290.95 0855.13
2009/04/23 11:20:53.9      40   -194     15    199    200 168.2   4.4  34206  290.35 0855.13
2009/04/23 11:20:54.0      44   -207     32    212    215 168.0   8.8  34206  290.35 0855.13
2009/04/23 11:20:54.1       2   -224    -14    225    226 179.3  -3.7  34272  291.47 0855.13
2009/04/23 11:20:54.2      30   -207     33    210    213 171.8   9.0  34220  290.58 0855.13
2009/04/23 11:20:54.3      54   -234     25    241    243 166.9   6.1  34208  290.39 0855.13
2009/04/23 11:20:54.4      66   -298     -6    306    307 167.5  -1.2  34212  290.44 0855.13
2009/04/23 11:20:54.5      44   -284    -20    288    289 171.1  -4.1  34220  290.58 0855.13
2009/04/23 11:20:54.6     -23   -255    -56    257    264 185.3 -12.4  34226  290.70 0855.13
2009/04/23 11:20:54.7     -28   -264    -34    266    269 186.3  -7.3  34250  291.10 0855.13
2009/04/23 11:20:54.8     -17   -192    -24    193    195 185.1  -7.3  34250  291.09 0855.15
2009/04/23 11:20:54.9      62   -185    -46    196    202 161.5 -13.2  34216  290.52 0855.15
2009/04/23 11:20:55.0      28   -165     -6    168    169 170.4  -2.3  34210  290.43 0855.15
2009/04/23 11:20:55.1      86   -204     14    222    223 157.1   3.8  34206  290.35 0855.15
2009/04/23 11:20:55.2      88   -191     71    211    223 155.3  18.6  34210  290.41 0855.15
2009/04/23 11:20:55.3      82   -242     42    256    260 161.3   9.3  34216  290.53 0855.15
2009/04/23 11:20:55.4      46   -283     78    287    298 170.7  15.2  34220  290.59 0855.15
2009/04/23 11:20:55.5      48   -317     79    321    331 171.3  13.9  34224  290.65 0855.15
2009/04/23 11:20:55.6       0   -344     48    345    349 179.9   8.0  34228  290.72 0855.15
2009/04/23 11:20:55.7     -26   -359     44    360    363 184.2   7.1  34226  290.69 0855.15
2009/04/23 11:20:55.8     -38   -323     40    326    329 186.7   7.1  34228  290.73 0855.15
2009/04/23 11:20:56.0     -32   -296     37    298    301 186.2   7.1  34236  290.85 0855.15
2009/04/23 11:20:56.0     -41   -255     86    259    273 189.1  18.4  34236  290.87 0855.15
2009/04/23 11:20:56.1     -77   -286     63    297    304 195.2  12.0  34236  290.85 0855.15
2009/04/23 11:20:56.2     -38   -272     54    275    281 188.0  11.1  34230  290.76 0855.15
2009/04/23 11:20:56.3     -12   -283     83    284    296 182.6  16.3  34234  290.82 0855.15
2009/04/23 11:20:56.4     -16   -256     80    257    270 183.6  17.4  34232  290.80 0855.15
2009/04/23 11:20:56.6       4   -257     80    258    271 179.1  17.3  34228  290.73 0855.15
2009/04/23 11:20:56.7     -62   -284    102    291    308 192.5  20.0  34232  290.78 0855.15
2009/04/23 11:20:56.8     -30   -242    105    244    265 187.1  24.9  34228  290.73 0855.15
2009/04/23 11:20:56.9     -15   -202    148    203    251 184.4  39.7  34230  290.75 0855.16
2009/04/23 11:20:57.0      35   -316    100    319    335 173.5  17.5  34216  290.52 0855.16
2009/04/23 11:20:57.1     151   -464     97    488    498 162.0  11.3  34208  290.40 0855.16
2009/04/23 11:20:57.2      43   -488     50    491    494 174.9   5.9  34222  290.61 0855.16
2009/04/23 11:20:57.3     236   -478     30    534    535 153.7   3.3  34210  290.41 0855.16
2009/04/23 11:20:57.4     303   -464    -11    555    556 146.8  -1.2  34206  290.36 0855.16
2009/04/23 11:20:57.5     198   -457    -45    499    502 156.6  -5.2  34202  290.30 0855.16
2009/04/23 11:20:57.6     135   -427    -29    448    449 162.4  -3.7  34206  290.36 0855.16
2009/04/23 11:20:57.7      45   -413    -15    416    417 173.8  -2.1  34226  290.70 0855.16
2009/04/23 11:20:57.8      33   -432    -32    434    436 175.6  -4.2  34230  290.75 0855.16
2009/04/23 11:20:57.9      77   -548    -10    554    555 172.0  -1.1  34252  291.14 0855.16
2009/04/23 11:20:58.0      77   -544     46    550    553 171.9   4.9  34198  290.21 0855.16
2009/04/23 11:20:58.1     199   -589     61    622    626 161.3   5.7  34158  289.55 0855.16
2009/04/23 11:20:58.2     123   -473   -175    489    520 165.3 -19.7  34144  289.30 0855.16
2009/04/23 11:20:58.3      18   -464   -150    465    488 177.7 -23.0  34152  289.44 0855.16
2009/04/23 11:20:58.4     -14   -450    -75    451    458 181.8  -9.5  34146  289.33 0855.16
2009/04/23 11:20:58.5      76   -451    -25    458    459 170.4  -3.2  34138  289.19 0855.16
2009/04/23 11:20:58.6      59   -427    -36    432    434 172.1  -4.8  34142  289.26 0855.16
2009/04/23 11:20:58.7      44   -410    -47    413    416 173.8  -6.6  34142  289.27 0855.16
2009/04/23 11:20:58.8      31   -438    -56    440    444 175.9  -7.4  34156  289.49 0855.16
2009/04/23 11:20:58.9      42   -409    -92    412    423 174.1 -12.6  34162  289.61 0855.16
2009/04/23 11:20:59.0      12   -430    -62    431    436 178.3  -8.2  34162  289.60 0855.16
2009/04/23 11:20:59.1       0   -376    -19    377    378 179.9  -3.0  34146  289.33 0855.16
2009/04/23 11:20:59.2       8   -359     -5    360    361 178.6  -0.9  34152  289.45 0855.16
2009/04/23 11:20:59.3     -27   -371    -69    372    379 184.2 -10.5  34174  289.82 0855.16
2009/04/23 11:20:59.4     -52   -373    -33    377    379 188.0  -5.1  34172  289.76 0855.16
2009/04/23 11:20:59.5     -55   -408    -69    412    418 187.8  -9.6  34178  289.88 0855.16
2009/04/23 11:20:59.6     -87   -441    -74    450    457 191.2  -9.4  34184  289.97 0855.16
2009/04/23 11:20:59.7     -45   -374    -89    377    388 187.0 -13.3  34172  289.76 0855.16
2009/04/23 11:20:59.8     -85   -400    -73    409    416 192.0 -10.2  34172  289.77 0855.16
2009/04/23 11:20:59.9       1   -382    -73    383    390 179.8 -10.8  34168  289.71 0855.16
2009/04/23 11:21:00.0      -2   -339    -40    340    343 180.5  -6.8  34160  289.57 0855.16
2009/04/23 11:21:00.1     -26   -339    -25    341    342 184.5  -4.2  34152  289.45 0855.16
2009/04/23 11:21:00.2     -21   -321     48    322    326 183.8   8.5  34148  289.36 0855.16
2009/04/23 11:21:00.3     -42   -304      4    308    309 188.0   0.8  34148  289.36 0855.16
2009/04/23 11:21:00.4     -14   -313    -20    314    315 182.7  -3.8  34148  289.36 0855.16
2009/04/23 11:21:00.5      18   -333    -28    334    336 176.8  -4.9  34146  289.32 0855.16
2009/04/23 11:21:00.6      56   -310    -97    316    331 169.7 -17.2  34150  289.39 0855.16
2009/04/23 11:21:00.7     106   -318   -100    336    351 161.5 -16.6  34164  289.64 0855.16
2009/04/23 11:21:00.8      58   -297    -87    303    315 168.9 -20.9  34180  289.92 0855.16
2009/04/23 11:21:00.9     108   -257    -43    279    283 157.2  -8.8  34174  289.81 0855.17
2009/04/23 11:21:01.0      55   -298     53    304    309 169.5   9.9  34190  290.07 0855.17
2009/04/23 11:21:01.1      62   -282     45    289    293 167.5   9.0  34192  290.10 0855.17
2009/04/23 11:21:01.2      64   -231     57    240    247 164.4  13.5  34184  289.98 0855.17
2009/04/23 11:21:01.3      84   -310     24    322    323 164.8   4.3  34182  289.93 0855.17
2009/04/23 11:21:01.4      42   -391    -47    394    397 173.8  -6.8  34194  290.15 0855.17
2009/04/23 11:21:01.5     -93   -458     42    468    470 191.5   5.2  34188  290.05 0855.17
2009/04/23 11:21:01.6     -80   -468     54    475    479 189.7   6.6  34182  289.96 0855.17
2009/04/23 11:21:01.7     -19   -489     95    490    500 182.3  11.0  34180  289.91 0855.17
2009/04/23 11:21:01.8       0   -410    157    411    439 180.0  22.0  34176  289.83 0855.17
2009/04/23 11:21:01.9      21   -330    170    331    372 176.3  29.3  34184  289.98 0855.17
2009/04/23 11:21:02.0      -5   -319    198    320    376 181.0  34.9  34174  289.82 0855.17
2009/04/23 11:21:02.1       4   -418    246    419    485 179.4  33.1  34174  289.81 0855.17
2009/04/23 11:21:02.2     -91   -413     93    424    435 192.5  12.4  34164  289.65 0855.17
2009/04/23 11:21:02.3    -113   -418     -2    434    435 195.2  -0.3  34176  289.85 0855.17
2009/04/23 11:21:02.4    -171   -373    -82    411    420 204.6 -11.3  34180  289.92 0855.17
2009/04/23 11:21:02.5    -105   -414     67    428    434 194.3   9.0  34176  289.83 0855.17
2009/04/23 11:21:02.6    -133   -373     70    397    404 199.7  10.0  34172  289.79 0855.17
2009/04/23 11:21:02.7    -128   -239    123    272    298 208.1  26.2  34182  289.93 0855.17
2009/04/23 11:21:02.8     -77   -208    133    223    259 200.5  33.5  34182  289.95 0855.17
2009/04/23 11:21:02.9    -137   -268    173    302    348 207.1  32.4  34178  289.86 0855.18
2009/04/23 11:21:03.0     -17   -209    182    210    277 184.7  45.6  34186  290.02 0855.18
2009/04/23 11:21:03.1      66   -326    225    333    401 168.4  37.4  34178  289.87 0855.18
2009/04/23 11:21:03.2      86   -464    101    472    483 169.4  12.1  34178  289.86 0855.18
2009/04/23 11:21:03.3      91   -416     59    426    431 167.6   8.0  34186  290.00 0855.18
2009/04/23 11:21:03.4      89   -274     44    289    293 162.0   8.8  34184  289.98 0855.18
2009/04/23 11:21:03.5     104   -200    -12    226    227 152.4  -3.2  34188  290.06 0855.18
2009/04/23 11:21:03.6     -16   -210     41    211    215 184.5  11.0  34190  290.08 0855.18
2009/04/23 11:21:03.7    -126   -200     16    237    238 212.3   3.9  34192  290.10 0855.18
2009/04/23 11:21:03.8    -232   -224     -6    323    324 226.0  -1.2  34196  290.17 0855.18
2009/04/23 11:21:03.9    -164   -241     79    292    303 214.2  15.3  34198  290.22 0855.18
2009/04/23 11:21:04.0    -205   -358    104    413    426 209.8  14.2  34194  290.14 0855.18
2009/04/23 11:21:04.1    -196   -345     72    398    405 209.6  10.3  34198  290.23 0855.18
2009/04/23 11:21:04.2    -250   -311     63    400    406 218.8   9.0  34198  290.22 0855.18
2009/04/23 11:21:04.3    -228   -225     70    321    329 225.3  12.4  34198  290.20 0855.18
2009/04/23 11:21:04.4    -229   -188    101    297    314 230.5  18.9  34204  290.31 0855.18
2009/04/23 11:21:04.5    -216   -245     37    327    330 221.4   6.6  34204  290.32 0855.18
2009/04/23 11:21:04.6    -227   -193    -89    299    313 229.6 -16.6  34222  290.63 0855.18
2009/04/23 11:21:04.7    -189   -198    -26    274    276 223.7  -5.6  34208  290.37 0855.18
2009/04/23 11:21:04.8    -160   -148     -4    219    220 227.3  -1.2  34214  290.48 0855.18
2009/04/23 11:21:04.9    -108   -129    -47    169    176 219.9 -15.5  34212  290.47 0855.19
2009/04/23 11:21:05.0    -137    -15    -17    138    140 263.4  -7.2  34222  290.62 0855.19
2009/04/23 11:21:05.1     -69    -15    -53     71     88 257.6 -45.1  34214  290.48 0855.19
2009/04/23 11:21:05.2     -56    -20    -90     60    108 250.0 -68.0  34218  290.55 0855.19
2009/04/23 11:21:05.3    -101    -44   -141    111    179 246.5 -62.1  34222  290.62 0855.19
2009/04/23 11:21:05.4     -61    -50   -160     80    178 230.5 -76.1  34220  290.60 0855.19
2009/04/23 11:21:05.5     -38     24   -156     46    162 302.4 -87.5  34228  290.72 0855.19
2009/04/23 11:21:05.6    -167     14    -74    168    183 275.0 -29.5  34218  290.57 0855.19
2009/04/23 11:21:05.7    -106    -17    -88    108    139 260.8 -48.1  34204  290.31 0855.19
2009/04/23 11:21:05.8      22   -100   -129    103    165 167.5 -61.9  34208  290.38 0855.19
2009/04/23 11:21:05.9     -32      0   -107     33    111 269.2 -86.2  34216  290.53 0855.19
2009/04/23 11:21:06.0    -224    -69   -101    235    255 252.7 -29.3  34198  290.22 0855.19
2009/04/23 11:21:06.1    -293     -5   -129    294    321 269.0 -29.5  34198  290.20 0855.19
2009/04/23 11:21:06.2    -297     30    -49    299    304 275.9  -9.3  34212  290.44 0855.19
2009/04/23 11:21:06.3    -291     20    -69    292    301 274.1 -13.4  34212  290.44 0855.19
2009/04/23 11:21:06.4    -267     97    -25    285    287 289.9  -5.1  34216  290.53 0855.19
2009/04/23 11:21:06.5    -331    -73    108    340    357 257.5  17.7  34214  290.50 0855.19
2009/04/23 11:21:06.6    -274   -124     64    301    308 245.6  12.2  34214  290.49 0855.19
2009/04/23 11:21:06.7    -117   -119     70    168    182 224.5  23.8  34206  290.35 0855.19
2009/04/23 11:21:06.8     -42   -125     45    132    140 198.7  18.9  34210  290.43 0855.19
2009/04/23 11:21:06.9      60   -152      9    164    165 158.2   3.1  34222  290.62 0855.20
2009/04/23 11:21:07.0      74   -196     26    210    212 159.1   7.1  34216  290.53 0855.20
2009/04/23 11:21:07.1     150   -172     76    229    242 139.0  18.4  34204  290.32 0855.20
2009/04/23 11:21:07.2      35   -140    -57    145    155 165.7 -26.9  34212  290.45 0855.20
2009/04/23 11:21:07.3     -87    -58   -151    105    183 236.3 -66.2  34182  289.94 0855.20
2009/04/23 11:21:07.4       3    -95   -170     96    195 177.8 -72.5  34166  289.69 0855.20
2009/04/23 11:21:07.5      16    -46   -116     49    125 160.0 -80.5  34186  290.02 0855.20
2009/04/23 11:21:07.6       7      3    -47      8     47  64.7 -90.0  34176  289.84 0855.20
2009/04/23 11:21:07.7     -19    -64    -29     67     73 196.9 -29.5  34180  289.92 0855.20
2009/04/23 11:21:07.8      26    -87    -49     91    103 163.1 -35.7  34178  289.87 0855.20
2009/04/23 11:21:07.9      93   -196    -48    218    224 154.6 -12.6  34184  289.97 0855.20
2009/04/23 11:21:08.0     -12   -153    -46    154    160 184.5 -21.5  34194  290.16 0855.20
2009/04/23 11:21:08.1     -64   -136    -19    151    153 205.5  -7.3  34204  290.31 0855.20
2009/04/23 11:21:08.2      -3   -122    -55    123    134 181.8 -30.1  34204  290.31 0855.20
2009/04/23 11:21:08.3     -18    -99    -52    101    113 190.7 -33.1  34194  290.14 0855.20
2009/04/23 11:21:08.4      -6   -108   -129    109    168 183.6 -60.2  34200  290.26 0855.20
2009/04/23 11:21:08.5      28   -139    -50    142    150 168.4 -23.8  34194  290.16 0855.20
2009/04/23 11:21:08.6     -62    -83    -63    104    121 217.0 -38.4  34198  290.21 0855.20
2009/04/23 11:21:08.7     -75    -63   -113     99    150 230.0 -58.7  34208  290.40 0855.20
2009/04/23 11:21:08.8      12   -103    -90    104    137 172.9 -50.2  34210  290.43 0855.20
2009/04/23 11:21:08.9      76   -181   -130    197    236 157.1 -40.9  34200  290.26 0855.20
2009/04/23 11:21:09.0     107   -148    -87    183    202 144.2 -31.6  34200  290.25 0855.20
2009/04/23 11:21:09.1     156   -136    -86    208    225 131.1 -28.2  34202  290.28 0855.20
2009/04/23 11:21:09.2      92   -122    -95    153    180 143.0 -39.4  34216  290.52 0855.20
2009/04/23 11:21:09.3     143   -173   -143    225    266 140.4 -39.9  34206  290.36 0855.20
2009/04/23 11:21:09.4     138   -203   -103    246    266 145.7 -28.5  34206  290.34 0855.20
2009/04/23 11:21:09.5     109   -138    -59    176    185 141.7 -23.6  34206  290.36 0855.20
2009/04/23 11:21:09.6      60   -172    -70    183    195 160.6 -26.4  34216  290.52 0855.20
2009/04/23 11:21:09.7     128   -239   -116    272    295 151.7 -29.0  34212  290.46 0855.20
2009/04/23 11:21:09.8     133   -241   -111    276    297 151.0 -27.4  34204  290.32 0855.20
2009/04/23 11:21:09.9       0   -231    -55    232    239 180.0 -13.4  34210  290.41 0855.20
2009/04/23 11:21:10.0     -59   -239    -18    247    248 194.0  -4.4  34214  290.49 0855.20
2009/04/23 11:21:10.1     -47   -196    -33    202    205 193.6  -9.3  34208  290.38 0855.20
2009/04/23 11:21:10.2     -44   -184     -7    190    191 193.4  -2.1  34200  290.26 0855.20
2009/04/23 11:21:10.3    -135    -99     -7    168    169 233.6  -2.6  34204  290.33 0855.20
2009/04/23 11:21:10.4    -140    -71    -48    158    165 242.9 -22.3  34204  290.33 0855.20
2009/04/23 11:21:10.5    -125    -25    -80    128    150 258.5 -39.9  34212  290.47 0855.20
2009/04/23 11:21:10.6    -199    -55    -75    207    220 254.5 -25.1  34200  290.26 0855.20
2009/04/23 11:21:10.7    -215    -38    -74    219    232 259.9 -18.7  34206  290.35 0855.20
2009/04/23 11:21:10.8    -264    106     -8    285    286 292.0  -1.6  34194  290.15 0855.20
2009/04/23 11:21:10.9    -254     68    -31    264    266 285.1  -6.7  34200  290.24 0855.19
2009/04/23 11:21:11.0    -197     85    -34    215    218 293.5  -9.0  34204  290.33 0855.19
2009/04/23 11:21:11.1    -187     33     37    190    194 280.1  11.1  34208  290.38 0855.19
2009/04/23 11:21:11.2    -154    -11    -26    155    158 265.6  -9.8  34202  290.30 0855.19
2009/04/23 11:21:11.3    -124   -121     94    174    197 225.6  30.8  34194  290.16 0855.19
2009/04/23 11:21:11.4    -276   -138     97    309    325 243.4  17.5  34198  290.20 0855.19
2009/04/23 11:21:11.5    -266    -54    -81    272    283 258.3 -21.7  34196  290.17 0855.19
2009/04/23 11:21:11.6    -184    -86    -56    204    212 244.9 -15.5  34190  290.09 0855.19
2009/04/23 11:21:11.7    -139   -115   -125    181    219 230.5 -42.4  34180  289.91 0855.19
2009/04/23 11:21:11.8    -175    -68   -114    188    219 248.7 -38.6  34172  289.79 0855.19
2009/04/23 11:21:11.9    -209     -7   -125    210    244 267.9 -37.9  34190  290.07 0855.19
2009/04/23 11:21:12.0    -231    -16   -104    232    254 265.9 -30.3  34186  290.02 0855.19
2009/04/23 11:21:12.1    -257     15    -10    258    259 273.4  -2.2  34202  290.27 0855.19
2009/04/23 11:21:12.2    -231   -109   -136    256    289 244.8 -34.6  34184  289.98 0855.19
2009/04/23 11:21:12.3    -186   -128   -163    227    279 235.4 -43.9  34184  289.98 0855.19
2009/04/23 11:21:12.4    -162   -129    -70    208    219 231.4 -23.3  34186  290.02 0855.19
2009/04/23 11:21:12.5    -141      6    -75    142    160 272.5 -34.5  34196  290.19 0855.19
2009/04/23 11:21:12.6     -81    -90    -98    122    156 221.9 -47.4  34196  290.19 0855.19
2009/04/23 11:21:12.7      78   -148    -61    168    178 152.1 -25.1  34190  290.09 0855.19
2009/04/23 11:21:12.8      89   -193      2    213    214 155.1   0.7  34190  290.08 0855.19
2009/04/23 11:21:12.9      78   -259     68    271    280 163.1  14.2  34188  290.05 0855.21
2009/04/23 11:21:13.0      47   -251     46    256    261 169.3  10.3  34194  290.15 0855.21
2009/04/23 11:21:13.1      33   -109     66    115    132 163.1  32.4  34196  290.19 0855.21
2009/04/23 11:21:13.2    -107    -50    -44    119    126 244.8 -25.3  34194  290.16 0855.21
2009/04/23 11:21:13.3    -314     10   -125    315    338 271.9 -27.3  34184  289.98 0855.21
2009/04/23 11:21:13.4    -352    -48    115    356    375 262.1  17.9  34188  290.03 0855.21
2009/04/23 11:21:13.5    -394   -250     24    467    468 237.6   3.0  34182  289.93 0855.21
2009/04/23 11:21:13.6    -256   -362    -43    444    447 215.2  -5.6  34172  289.78 0855.21
2009/04/23 11:21:13.7    -283   -160    -72    326    334 240.5 -12.5  34172  289.79 0855.21
2009/04/23 11:21:13.8    -266   -199     69    333    341 233.1  11.8  34190  290.08 0855.21
2009/04/23 11:21:13.9    -261   -260    -87    369    380 225.2 -13.3  34142  289.26 0855.19
2009/04/23 11:21:14.0    -254   -234    -54    346    351 227.3  -9.0  34136  289.16 0855.19
2009/04/23 11:21:14.1    -127   -278    -95    306    320 204.7 -22.3  34134  289.14 0855.19
2009/04/23 11:21:14.2    -124   -300   -113    325    345 202.5 -19.3  34132  289.10 0855.19
2009/04/23 11:21:14.3     -22   -285    -30    286    288 184.5  -6.1  34146  289.34 0855.19
2009/04/23 11:21:14.4      28   -337   -128    339    362 175.2 -26.0  34152  289.43 0855.19
2009/04/23 11:21:14.5      64   -329   -131    336    360 168.9 -26.8  34156  289.50 0855.19
2009/04/23 11:21:14.6      64   -364   -131    370    393 170.0 -19.6  34164  289.64 0855.19
2009/04/23 11:21:14.7      96   -378   -116    391    408 165.7 -16.5  34168  289.72 0855.19
2009/04/23 11:21:14.8     220   -449   -104    500    511 153.9 -11.8  34166  289.66 0855.19
2009/04/23 11:21:14.9      23   -513    -69    514    519 177.4  -7.7  34166  289.69 0855.19
2009/04/23 11:21:15.0     121   -530    -83    544    551 167.1  -8.7  34182  289.94 0855.19
2009/04/23 11:21:15.1    -111   -462   -113    476    490 193.6 -13.4  34186  290.00 0855.19
2009/04/23 11:21:15.2    -126   -361   -116    383    401 199.3 -16.9  34196  290.18 0855.19
2009/04/23 11:21:15.3      -8   -448   -124    449    466 181.1 -15.5  34200  290.24 0855.19
2009/04/23 11:21:15.4     -63   -423   -152    428    454 188.5 -24.8  34138  289.19 0855.19
2009/04/23 11:21:15.5     -64   -387   -182    393    433 189.4 -30.9  34108  288.68 0855.19
2009/04/23 11:21:15.6     -44   -403   -238    406    470 186.3 -37.3  34158  289.55 0855.19
2009/04/23 11:21:15.7      44   -399   -147    402    428 173.7 -25.3  34158  289.53 0855.19
2009/04/23 11:21:15.8      43   -396   -174    399    435 173.8 -29.5  34182  289.95 0855.19
2009/04/23 11:21:15.9      67   -338   -127    345    367 168.7 -25.4  34182  289.96 0855.16
2009/04/23 11:21:16.0     131   -315   -226    342    409 157.4 -40.9  34182  289.94 0855.16
2009/04/23 11:21:16.1     218   -379   -275    438    517 150.1 -39.6  34172  289.79 0855.16
2009/04/23 11:21:16.2      76   -431    -39    438    440 170.0  -5.2  34170  289.73 0855.16
2009/04/23 11:21:16.3     116   -403    -98    420    432 164.0 -13.2  34182  289.95 0855.16
2009/04/23 11:21:16.4     -56   -495    -58    499    503 186.5  -6.7  34180  289.91 0855.16
2009/04/23 11:21:16.5    -225   -707   -182    742    765 197.7 -13.8  34122  288.94 0855.16
2009/04/23 11:21:16.6    -228   -568   -185    613    640 201.9 -21.7  34166  289.69 0855.16
2009/04/23 11:21:16.7    -297   -443   -147    534    554 213.8 -15.4  34148  289.38 0855.16
2009/04/23 11:21:16.8    -184   -459   -177    495    526 201.9 -19.7  34118  288.86 0855.16
2009/04/23 11:21:16.9    -196   -393   -163    440    469 206.5 -25.7  34132  289.09 0855.16
2009/04/23 11:21:17.0    -178   -309    -68    357    364 209.9 -10.8  34172  289.77 0855.16
2009/04/23 11:21:17.1    -145   -261    -19    299    300 209.0  -3.7  34196  290.19 0855.16
2009/04/23 11:21:17.2    -178   -241     19    300    301 216.5   3.8  34194  290.15 0855.16
2009/04/23 11:21:17.3    -121   -165    271    205    339 216.3  59.3  34184  289.98 0855.16
2009/04/23 11:21:17.4    -126   -217    279    252    375 210.1  53.4  34196  290.18 0855.16
2009/04/23 11:21:17.5      85    -54    163    101    191 122.5  64.7  34206  290.35 0855.16
2009/04/23 11:21:17.6    -121   -213    170    246    299 209.6  38.0  34192  290.10 0855.16
2009/04/23 11:21:17.7    -134   -252     -8    286    287 208.0  -1.8  34188  290.03 0855.16
2009/04/23 11:21:17.8    -178   -177     11    252    253 225.1   2.5  34196  290.17 0855.16
2009/04/23 11:21:17.9     163   -407    -24    439    440 158.2  -3.1  34166  289.66 0855.11
2009/04/23 11:21:18.0     123   -516    -10    531    532 166.6  -1.2  34168  289.72 0855.11
2009/04/23 11:21:18.1     183   -485      4    519    520 159.3   0.5  34164  289.65 0855.11
2009/04/23 11:21:18.2     215   -605    105    643    652 160.4   9.3  34156  289.50 0855.11
2009/04/23 11:21:18.3     186   -542    225    574    616 161.1  22.7  34146  289.34 0855.11
2009/04/23 11:21:18.4     223   -493    220    542    584 155.7  23.4  34136  289.17 0855.11
2009/04/23 11:21:18.5     226   -592    123    634    646 159.1  11.0  34188  290.03 0855.11
2009/04/23 11:21:18.6     160   -578     48    600    602 164.5   4.6  34188  290.05 0855.11
2009/04/23 11:21:18.7      16   -527    117    528    541 178.2  12.5  34170  289.74 0855.11
2009/04/23 11:21:18.8     169   -585    186    609    638 163.9  17.0  34178  289.87 0855.11
2009/04/23 11:21:18.9     114   -560     56    572    575 168.4   5.7  34186  290.02 0855.11
2009/04/23 11:21:19.0     167   -471     85    501    509 160.4   9.7  34190  290.08 0855.11
2009/04/23 11:21:19.1     225   -439    -11    494    495 152.8  -1.4  34188  290.06 0855.11
2009/04/23 11:21:19.2     277   -415    -19    500    501 146.3  -2.3  34174  289.81 0855.11
2009/04/23 11:21:19.3     219   -344    -15    409    410 147.5  -2.2  34172  289.78 0855.11
2009/04/23 11:21:19.4     176   -375     89    415    425 154.8  12.2  34190  290.09 0855.11
2009/04/23 11:21:19.5     174   -287    115    336    356 148.8  18.9  34184  289.98 0855.11
2009/04/23 11:21:19.6     -20   -229    114    230    256 185.1  28.2  34182  289.95 0855.11
2009/04/23 11:21:19.7    -212   -393     99    447    458 208.4  12.5  34176  289.85 0855.11
2009/04/23 11:21:19.8    -141   -410     12    434    435 199.1   1.7  34182  289.95 0855.11
2009/04/23 11:21:19.9    -198   -456   -110    498    511 203.5 -12.5  34182  289.93 0855.09
2009/04/23 11:21:20.0    -200   -418   -108    464    477 205.6 -13.2  34178  289.88 0855.09
2009/04/23 11:21:20.1    -133   -377   -149    401    427 199.5 -25.7  34156  289.49 0855.09
2009/04/23 11:21:20.2    -250   -406   -156    477    503 211.6 -18.2  34176  289.83 0855.09
2009/04/23 11:21:20.3    -245   -384   -125    456    474 212.6 -15.4  34178  289.88 0855.09
2009/04/23 11:21:20.4     -53   -388    -93    392    403 187.8 -13.4  34174  289.81 0855.09
2009/04/23 11:21:20.5     -61   -483   -135    487    506 187.2 -15.5  34162  289.61 0855.09
2009/04/23 11:21:20.6    -130   -441    -58    460    464 196.5  -7.2  34170  289.75 0855.09
2009/04/23 11:21:20.7     -41   -448    -52    451    455 185.3  -6.6  34172  289.77 0855.09
2009/04/23 11:21:20.8     -62   -447    -77    452    459 188.0  -9.8  34160  289.56 0855.09
2009/04/23 11:21:20.9    -207   -384    -60    437    442 208.4  -7.9  34202  290.28 0855.09
2009/04/23 11:21:21.0    -255   -400   -108    475    488 212.6 -12.9  34178  289.86 0855.09
2009/04/23 11:21:21.1    -194   -350    -57    401    406 209.0  -8.1  34184  289.97 0855.09
2009/04/23 11:21:21.2    -194   -404   -130    449    468 205.7 -16.2  34184  289.99 0855.09
2009/04/23 11:21:21.3    -201   -305   -102    366    379 213.5 -20.3  34182  289.96 0855.09
2009/04/23 11:21:21.4    -146   -120   -146    190    239 230.7 -46.0  34186  290.01 0855.09
2009/04/23 11:21:21.5     -61   -163   -128    175    216 200.7 -44.1  34184  289.97 0855.09
2009/04/23 11:21:21.6      13    -71     -2     73     74 169.3  -2.2  34184  289.97 0855.09
2009/04/23 11:21:21.7     -72     87    109    113    157 320.4  49.0  34186  290.01 0855.09
2009/04/23 11:21:21.8     -89     17     62     91    110 281.0  37.6  34200  290.25 0855.09
2009/04/23 11:21:21.9    -120   -133     -7    180    181 221.9  -2.2  34202  290.30 0855.09
2009/04/23 11:21:22.0    -194    -72    -64    208    217 249.6 -22.1  34202  290.30 0855.09
2009/04/23 11:21:22.1    -152   -184     15    239    240 219.6   3.8  34182  289.93 0855.09
2009/04/23 11:21:22.2     -60   -226    -30    234    236 194.9  -7.3  34178  289.88 0855.09
2009/04/23 11:21:22.3     -59   -214    -17    223    224 195.6  -4.4  34176  289.84 0855.09
2009/04/23 11:21:22.4      58   -241     94    248    265 166.4  22.0  34180  289.90 0855.09
2009/04/23 11:21:22.5      -7   -389     96    390    402 181.1  13.9  34162  289.62 0855.09
2009/04/23 11:21:22.7     -24   -494    -95    495    505 182.8 -10.9  34160  289.56 0855.09
2009/04/23 11:21:22.8    -190   -485    -67    522    527 201.4  -7.3  34148  289.36 0855.09
2009/04/23 11:21:22.9    -216   -552    -48    593    596 201.4  -4.7  34166  289.69 0855.09
2009/04/23 11:21:23.0    -232   -499    -31    551    552 205.0  -3.3  34164  289.63 0855.09
2009/04/23 11:21:23.1    -139   -488    -19    508    509 195.9  -2.2  34166  289.66 0855.09
2009/04/23 11:21:23.2    -144   -578   -122    596    609 194.0 -11.6  34174  289.81 0855.09
2009/04/23 11:21:23.3    -169   -588    -19    612    613 196.0  -1.8  34184  289.98 0855.09
2009/04/23 11:21:23.4    -115   -603      3    614    615 190.8   0.3  34178  289.86 0855.09
2009/04/23 11:21:23.5    -111   -484   -133    497    515 193.0 -15.0  34164  289.64 0855.09
2009/04/23 11:21:23.6    -199   -577     -2    611    612 199.1  -0.3  34156  289.52 0855.09
2009/04/23 11:21:23.7      -9   -597     94    598    606 180.9   9.0  34156  289.51 0855.09
2009/04/23 11:21:23.8      44   -351    217    354    415 172.8  34.4  34168  289.71 0855.09
2009/04/23 11:21:23.9    -436   -429    167    612    635 225.5  15.3  34166  289.69 0855.09
2009/04/23 11:21:24.0    -290   -569    -70    639    643 207.0  -6.3  34164  289.64 0855.08
2009/04/23 11:21:24.1    -354   -442    -57    567    570 218.7  -5.8  34162  289.61 0855.08
2009/04/23 11:21:24.2    -366   -559    -90    669    676 213.2  -7.7  34164  289.65 0855.08
2009/04/23 11:21:24.3    -353   -581    -81    680    685 211.3  -6.9  34150  289.41 0855.08
2009/04/23 11:21:24.4    -293   -611    -54    678    681 205.6  -4.6  34154  289.48 0855.08
2009/04/23 11:21:24.5    -376   -488   -103    617    626 217.6  -9.5  34154  289.48 0855.08
2009/04/23 11:21:24.6    -362   -457    -67    584    588 218.4  -6.6  34152  289.44 0855.08
2009/04/23 11:21:24.7    -131   -457   -132    476    495 196.1 -15.5  34162  289.62 0855.08
2009/04/23 11:21:24.8    -125   -465    -96    482    492 195.1 -11.3  34176  289.83 0855.08
2009/04/23 11:21:24.9    -132   -434     27    454    455 197.0   3.5  34170  289.73 0855.08
2009/04/23 11:21:25.0    -120   -342    130    363    385 199.4  20.4  34170  289.74 0855.08
2009/04/23 11:21:25.1     -19   -232    166    233    286 184.9  38.8  34172  289.76 0855.08
2009/04/23 11:21:25.2     -35   -297      5    300    301 186.9   1.0  34172  289.76 0855.08
2009/04/23 11:21:25.3     -92   -210    -12    230    231 203.6  -3.1  34172  289.77 0855.08
2009/04/23 11:21:25.4       8   -186     12    187    188 177.3   3.8  34174  289.80 0855.08
2009/04/23 11:21:25.5      30   -194     93    197    217 171.1  27.2  34176  289.84 0855.08
2009/04/23 11:21:25.6      16   -181    112    182    213 174.9  35.0  34178  289.89 0855.08
2009/04/23 11:21:25.7     -82   -141     51    164    172 210.3  17.3  34172  289.79 0855.08
2009/04/23 11:21:25.8     -18   -233     68    234    244 184.5  16.3  34174  289.81 0855.08
2009/04/23 11:21:25.9       0   -184    -23    185    187 179.8  -7.3  34168  289.72 0855.08
2009/04/23 11:21:26.0     103   -228    124    251    279 155.7  28.2  34164  289.64 0855.06
2009/04/23 11:21:26.1     207   -138    164    249    298 123.7  36.5  34170  289.73 0855.06
2009/04/23 11:21:26.2     116   -121     97    168    193 136.1  32.7  34170  289.75 0855.06
2009/04/23 11:21:26.3      40   -261     93    265    280 171.1  20.0  34168  289.70 0855.06
2009/04/23 11:21:26.4      77   -396    -53    404    408 168.9  -7.6  34190  290.09 0855.06
2009/04/23 11:21:26.5      66   -425    -30    431    433 171.1  -4.0  34186  290.00 0855.06
2009/04/23 11:21:26.6      54   -377    -14    381    382 171.8  -2.2  34182  289.94 0855.06
2009/04/23 11:21:26.7      20   -402    -32    403    405 177.1  -4.6  34190  290.09 0855.06
2009/04/23 11:21:26.8      17   -443    -34    444    446 177.8  -4.5  34184  289.99 0855.06
2009/04/23 11:21:26.9       5   -399    -15    400    401 179.2  -2.2  34182  289.93 0855.06
2009/04/23 11:21:27.0      -3   -400     34    401    403 180.5   4.9  34186  290.01 0855.06
2009/04/23 11:21:27.1      47   -392    -14    395    396 173.1  -2.1  34184  289.98 0855.06
2009/04/23 11:21:27.2      48   -382    -18    386    387 172.8  -2.8  34182  289.94 0855.06
2009/04/23 11:21:27.3      14   -400    -15    401    402 177.9  -2.2  34182  289.93 0855.06
2009/04/23 11:21:27.4      52   -325     -7    330    331 170.9  -1.3  34180  289.91 0855.06
2009/04/23 11:21:27.5      83   -306     -2    318    319 164.9  -0.4  34184  289.97 0855.06
2009/04/23 11:21:27.6       0   -286    -33    287    289 180.0  -6.7  34188  290.03 0855.06
2009/04/23 11:21:27.7      23   -295    -70    296    305 175.5 -13.4  34190  290.07 0855.06
2009/04/23 11:21:27.8      55   -290    -26    296    298 169.3  -5.2  34188  290.05 0855.06
2009/04/23 11:21:27.9      94   -331     14    345    346 164.1   2.4  34188  290.03 0855.06
2009/04/23 11:21:28.0      30   -279    -20    281    282 173.7  -4.1  34190  290.07 0855.02
2009/04/23 11:21:28.1       4   -274    -15    275    276 179.1  -3.2  34188  290.05 0855.02
2009/04/23 11:21:28.2      24   -312      8    314    315 175.5   1.5  34190  290.09 0855.02
2009/04/23 11:21:28.3      53   -302     -6    307    308 170.0  -1.3  34190  290.07 0855.02
2009/04/23 11:21:28.4       6   -256     13    257    258 178.6   2.9  34192  290.10 0855.02
2009/04/23 11:21:28.5       2   -251     73    252    263 179.5  16.3  34188  290.05 0855.02
2009/04/23 11:21:28.6       3   -209     35    210    213 179.0   9.5  34190  290.09 0855.02
2009/04/23 11:21:28.7       5   -218     87    219    235 178.6  23.0  34188  290.06 0855.02
2009/04/23 11:21:28.8     -17   -222     74    223    236 184.5  18.4  34188  290.06 0855.02
2009/04/23 11:21:28.9      -7   -240    107    241    263 181.8  25.9  34190  290.09 0855.02
2009/04/23 11:21:29.0     -15   -231    156    232    279 183.8  37.4  34188  290.03 0855.02
2009/04/23 11:21:29.1     -17   -200    145    201    247 185.1  39.5  34186  290.00 0855.02
2009/04/23 11:21:29.2       9   -203    152    204    254 177.4  40.6  34186  290.00 0855.02
2009/04/23 11:21:29.3      14   -168    165    169    236 175.1  49.2  34188  290.04 0855.02
2009/04/23 11:21:29.4       5   -140    170    141    220 177.8  56.3  34200  290.25 0855.02
2009/04/23 11:21:29.5      -2   -126    157    127    201 181.0  56.6  34206  290.36 0855.02
2009/04/23 11:21:29.6     -55   -138    149    149    210 201.9  50.1  34210  290.43 0855.02
2009/04/23 11:21:29.7     -45   -120    118    129    174 200.5  47.1  34204  290.31 0855.02
2009/04/23 11:21:29.8     -22   -112     98    115    151 191.5  44.3  34204  290.31 0855.02
2009/04/23 11:21:29.9     -11   -114     69    115    134 185.8  34.4  34202  290.30 0855.02
2009/04/23 11:21:30.0       7    -96     91     97    133 175.5  48.5  34224  290.67 0855.01
2009/04/23 11:21:30.1      31    -48     91     58    107 146.6  64.7  34246  291.04 0855.01
2009/04/23 11:21:30.2      74    -39     58     84    102 118.0  38.6  34250  291.11 0855.01
2009/04/23 11:21:30.3     -21    -10     32     24     40 242.9  59.4  34258  291.25 0855.01
2009/04/23 11:21:30.4     -52      9     10     53     54 280.6  11.0  34248  291.06 0855.01
2009/04/23 11:21:30.5     -73    -34     12     81     82 244.8   8.5  34214  290.48 0855.01
2009/04/23 11:21:30.6     -50    -35     48     62     78 234.9  42.2  34204  290.33 0855.01
2009/04/23 11:21:30.7     -39      3     42     40     58 274.4  49.1  34216  290.52 0855.01
2009/04/23 11:21:30.8     -39      3     42     40     58 274.4  49.1  34220  290.60 0855.01
2009/04/23 11:21:30.9     -17     56     34     59     68 343.1  32.4  34230  290.77 0855.01
2009/04/23 11:21:31.0     -10     93     29     94     99 353.3  17.3  34224  290.67 0855.01
2009/04/23 11:21:31.1      64    165     35    178    182  21.2  11.1  34282  291.64 0855.01
2009/04/23 11:21:31.2      62    158     47    170    177  21.6  15.6  34280  291.62 0855.01
2009/04/23 11:21:31.3     114    111     21    160    162  45.6   7.8  34252  291.13 0855.01
2009/04/23 11:21:31.4     144     39    -44    150    156  74.9 -21.2  34232  290.79 0855.01
2009/04/23 11:21:31.5      85   -103    -15    134    135 140.4  -6.7  34254  291.18 0855.01
2009/04/23 11:21:31.6      24    -73    -26     77     81 161.5 -23.6  34246  291.03 0855.01
2009/04/23 11:21:31.7      -1    -16    -37     17     40 184.4 -78.4  34216  290.52 0855.01
2009/04/23 11:21:31.8       0     39    -12     40     41   0.9 -21.7  34206  290.36 0855.01
2009/04/23 11:21:31.9     101     19    -92    103    138  79.0 -50.8  34192  290.13 0855.01
2009/04/23 11:21:32.0     117    -77    -99    141    172 123.3 -42.8  34218  290.57 0855.02
2009/04/23 11:21:32.1     201   -102     61    226    235 117.0  15.2  34258  291.23 0855.02
2009/04/23 11:21:32.2     200    -46     37    206    210 103.0  10.3  34234  290.84 0855.02
2009/04/23 11:21:32.3     170    -58     74    180    194 108.8  23.6  34260  291.28 0855.02
2009/04/23 11:21:32.4     184   -137    -29    230    232 126.6  -7.2  34266  291.37 0855.02
2009/04/23 11:21:32.5     154   -129    -36    202    206 130.0 -10.1  34204  290.31 0855.02
2009/04/23 11:21:32.6     157   -191    -71    248    257 140.6 -20.7  34208  290.39 0855.02
2009/04/23 11:21:32.7     111   -134    -54    175    183 140.4 -22.3  34198  290.23 0855.02
2009/04/23 11:21:32.8     177   -243   -103    301    319 143.9 -19.0  34196  290.17 0855.02
2009/04/23 11:21:32.9     147   -197      4    247    248 143.3   1.0  34194  290.15 0855.02
2009/04/23 11:21:33.0     115   -172    -24    208    210 146.2  -6.7  34194  290.14 0855.02
2009/04/23 11:21:33.1     120   -166    -33    206    209 144.0  -9.3  34196  290.18 0855.02
2009/04/23 11:21:33.2     104   -164    -43    195    200 147.5 -12.6  34194  290.16 0855.02
2009/04/23 11:21:33.3      94   -178    -36    202    206 152.1 -10.1  34196  290.18 0855.02
2009/04/23 11:21:33.4      96   -186    -33    210    213 152.6  -9.0  34194  290.14 0855.02
2009/04/23 11:21:33.5      79   -199     25    215    217 158.2   6.7  34190  290.08 0855.02
2009/04/23 11:21:33.6     100   -189    -19    214    215 152.1  -5.2  34194  290.14 0855.02
2009/04/23 11:21:33.7       9   -210     57    211    219 177.3  15.3  34186  290.02 0855.02
2009/04/23 11:21:33.8       0   -235     50    236    242 180.2  12.2  34190  290.09 0855.02
2009/04/23 11:21:33.9      50   -226      0    232    233 167.5   0.0  34192  290.13 0855.02
2009/04/23 11:21:34.0      -3   -252    -13    253    254 180.9  -3.1  34196  290.17 0855.02
2009/04/23 11:21:34.1     -45   -220     61    225    234 191.8  15.3  34192  290.11 0855.02
2009/04/23 11:21:34.2     -44   -212     36    217    220 191.8   9.5  34194  290.14 0855.02
2009/04/23 11:21:34.3       6   -198     49    199    206 178.2  13.9  34200  290.25 0855.02
2009/04/23 11:21:34.4      41   -153     39    159    164 164.9  13.9  34202  290.28 0855.02
2009/04/23 11:21:34.5      -8   -148     -9    149    150 183.1  -3.7  34196  290.18 0855.02
2009/04/23 11:21:34.6       6   -138     -7    139    140 177.3  -3.1  34198  290.21 0855.02
2009/04/23 11:21:34.7      28   -107     36    111    117 164.9  17.9  34194  290.16 0855.02
2009/04/23 11:21:34.8      79   -124     70    148    163 147.4  27.2  34204  290.31 0855.02
2009/04/23 11:21:34.9      65   -104     68    123    140 147.9  31.4  34206  290.36 0855.02
2009/04/23 11:21:35.0      -3    -35     62     36     71 186.2  66.8  34214  290.48 0854.98
2009/04/23 11:21:35.1     -42     20     39     47     61 296.2  43.8  34230  290.77 0854.98
2009/04/23 11:21:35.2     -26     40     17     49     52 326.6  19.4  34226  290.69 0854.98
2009/04/23 11:21:35.3     -10     31     45     33     55 341.3  60.5  34222  290.62 0854.98
2009/04/23 11:21:35.4      16     15     71     23     74  46.9  80.7  34222  290.62 0854.98
2009/04/23 11:21:35.5       3      8     58      9     58  25.4  90.0  34224  290.67 0854.98
2009/04/23 11:21:35.6     -15    -14    113     21    114 226.9  89.6  34228  290.74 0854.98
2009/04/23 11:21:35.7      80      9     99     81    127  83.0  56.4  34226  290.70 0854.98
2009/04/23 11:21:35.8      51     -8    118     52    128  99.7  74.9  34224  290.67 0854.98
2009/04/23 11:21:35.9      56     -6     98     57    113  97.0  66.8  34222  290.62 0854.98
2009/04/23 11:21:36.0      -2   -115    146    116    186 181.4  57.1  34216  290.52 0854.98
2009/04/23 11:21:36.1     -44   -151    148    158    216 196.5  48.0  34212  290.45 0854.98
2009/04/23 11:21:36.2     -41   -135    130    142    192 197.0  47.7  34206  290.35 0854.98
2009/04/23 11:21:36.3      -2   -117     98    118    153 181.4  43.8  34204  290.33 0854.98
2009/04/23 11:21:36.4     -11   -116     61    117    131 185.8  29.3  34206  290.36 0854.98
2009/04/23 11:21:36.5     -21   -100     40    103    110 192.0  22.5  34204  290.33 0854.98
2009/04/23 11:21:36.6     -14    -58     50     60     78 194.3  44.8  34204  290.33 0854.98
2009/04/23 11:21:36.7      40    -28     62     50     79 125.1  56.9  34214  290.50 0854.98
2009/04/23 11:21:36.8      94     -7    103     95    140  94.4  52.2  34226  290.70 0854.98
2009/04/23 11:21:36.9      65    -64     97     92    133 134.4  51.2  34214  290.50 0854.98
2009/04/23 11:21:37.0      62    -93    108    112    155 146.2  49.4  34214  290.48 0854.96
2009/04/23 11:21:37.1      55    -69     99     89    133 141.3  53.3  34218  290.57 0854.96
2009/04/23 11:21:37.2      71   -112    103    133    168 147.5  42.0  34216  290.53 0854.96
2009/04/23 11:21:37.3      80    -87    115    119    165 137.2  49.2  34216  290.53 0854.96
2009/04/23 11:21:37.4     -49   -184    151    191    243 194.9  42.4  34214  290.50 0854.96
2009/04/23 11:21:37.5    -126   -234    115    266    289 208.3  25.1  34210  290.42 0854.96
2009/04/23 11:21:37.6    -126   -318    120    343    363 201.7  20.1  34212  290.47 0854.96
2009/04/23 11:21:37.7     -63   -325    184    332    379 191.0  31.4  34210  290.43 0854.96
2009/04/23 11:21:37.8     -58   -287    199    294    355 191.6  37.4  34212  290.47 0854.96
2009/04/23 11:21:37.9    -150   -335    157    368    400 204.1  24.5  34208  290.38 0854.96
2009/04/23 11:21:38.0    -118   -349    165    369    404 198.8  25.8  34206  290.35 0854.96
2009/04/23 11:21:38.1    -105   -275    157    295    334 201.0  30.3  34214  290.48 0854.96
2009/04/23 11:21:38.2    -138   -282    142    314    344 206.1  26.2  34210  290.42 0854.96
2009/04/23 11:21:38.3     -64   -265    140    273    306 193.6  29.3  34210  290.42 0854.96
2009/04/23 11:21:38.4      -5   -189    178    190    260 181.6  48.0  34210  290.41 0854.96
2009/04/23 11:21:38.5     -45   -243    222    248    332 190.6  46.6  34206  290.36 0854.96
2009/04/23 11:21:38.6       6   -135    239    136    274 177.3  68.1  34222  290.63 0854.96
2009/04/23 11:21:38.7     -51   -236    222    242    328 192.3  47.5  34196  290.19 0854.96
2009/04/23 11:21:38.8     -51   -253    199    259    326 191.5  41.4  34198  290.20 0854.96
2009/04/23 11:21:38.9     -91   -291    154    305    341 197.4  28.9  34206  290.35 0854.96
2009/04/23 11:21:39.0    -124   -284    140    311    341 203.6  25.8  34204  290.33 0854.97
2009/04/23 11:21:39.1    -141   -247    172    285    332 209.8  34.0  34192  290.10 0854.97
2009/04/23 11:21:39.2    -232   -138     37    271    274 239.3   7.8  34218  290.54 0854.97
2009/04/23 11:21:39.3    -166   -154      0    227    228 227.1   0.2  34212  290.47 0854.97
2009/04/23 11:21:39.4    -170   -235    -26    291    293 216.0  -5.2  34208  290.37 0854.97
2009/04/23 11:21:39.5     -77   -319    -18    329    330 193.6  -3.1  34196  290.18 0854.97
2009/04/23 11:21:39.6     -99   -362     21    376    377 195.4   3.2  34198  290.21 0854.97
2009/04/23 11:21:39.7    -166   -365     94    402    413 204.5  13.2  34214  290.48 0854.97
2009/04/23 11:21:39.8    -112   -418     49    433    436 195.1   6.5  34194  290.14 0854.97
2009/04/23 11:21:39.9     -97   -379    -32    392    394 194.4  -4.8  34198  290.21 0854.97
2009/04/23 11:21:40.0     -49   -359     43    363    366 187.9   6.8  34196  290.18 0854.97
2009/04/23 11:21:40.1      -8   -301     32    302    304 181.6   6.1  34194  290.15 0854.97
2009/04/23 11:21:40.2     -60   -327    -66    333    340 190.5 -11.2  34196  290.18 0854.97
2009/04/23 11:21:40.3     -17   -330     10    331    332 183.0   1.8  34200  290.25 0854.97
2009/04/23 11:21:40.4     -13   -395    -37    396    398 182.0  -5.5  34210  290.42 0854.97
2009/04/23 11:21:40.5       9   -379    -41    380    383 178.6  -6.2  34216  290.52 0854.97
2009/04/23 11:21:40.6     -17   -302    -16    303    304 183.4  -3.2  34206  290.36 0854.97
2009/04/23 11:21:40.7     -45   -335    -23    339    340 187.7  -3.9  34208  290.37 0854.97
2009/04/23 11:21:40.8     -26   -371    -42    372    375 184.1  -6.6  34202  290.28 0854.97
2009/04/23 11:21:40.9      -1   -362     -2    363    364 180.3  -0.4  34210  290.43 0854.97
2009/04/23 11:21:41.0      37   -405     27    407    408 174.7   3.8  34208  290.38 0854.96
2009/04/23 11:21:41.1      -8   -397     39    398    400 181.2   5.7  34200  290.25 0854.96
2009/04/23 11:21:41.2      30   -380     18    382    383 175.4   2.8  34198  290.23 0854.96
2009/04/23 11:21:41.3      39   -344     21    347    348 173.4   3.6  34198  290.23 0854.96
2009/04/23 11:21:41.4      93   -277    -16    293    294 161.3  -3.2  34198  290.20 0854.96
2009/04/23 11:21:41.5     164   -387     13    421    422 157.1   1.8  34188  290.04 0854.96
2009/04/23 11:21:41.6     210   -330    -28    392    393 147.5  -4.1  34194  290.15 0854.96
2009/04/23 11:21:41.7     190   -325    -65    377    383 149.7  -9.9  34212  290.47 0854.96
2009/04/23 11:21:41.8     219   -344    -51    408    412 147.5  -7.2  34198  290.21 0854.96
2009/04/23 11:21:41.9     252   -386    -88    462    471 146.8 -10.9  34184  289.98 0854.96
2009/04/23 11:21:42.0     245   -356    -15    433    434 145.5  -2.1  34174  289.80 0854.96
2009/04/23 11:21:42.1     364   -239     40    436    439 123.4   5.3  34186  290.00 0854.96
2009/04/23 11:21:42.2     404   -321     44    517    520 128.5   4.9  34196  290.18 0854.96
2009/04/23 11:21:42.3     310   -315    195    443    484 135.5  25.3  34188  290.03 0854.96
2009/04/23 11:21:42.4     250   -239    195    347    398 133.7  31.9  34198  290.23 0854.96
2009/04/23 11:21:42.5     275   -258     13    378    379 133.1   2.1  34214  290.50 0854.96
2009/04/23 11:21:42.6     310   -245     72    396    403 128.4  10.4  34204  290.32 0854.96
2009/04/23 11:21:42.7     258   -335     39    423    426 142.4   5.3  34214  290.50 0854.96
2009/04/23 11:21:42.8     200   -405     -1    452    453 153.7  -0.2  34220  290.60 0854.96
2009/04/23 11:21:42.9     137   -328     11    356    357 157.3   1.9  34218  290.57 0854.96
2009/04/23 11:21:43.0     206   -317     56    379    384 146.9   8.5  34218  290.55 0854.99
2009/04/23 11:21:43.1     191   -263    120    326    347 144.0  21.1  34208  290.40 0854.99
2009/04/23 11:21:43.2     214   -194    154    290    328 132.2  30.2  34188  290.05 0854.99
2009/04/23 11:21:43.3     243   -219    131    328    353 132.1  23.0  34200  290.25 0854.99
2009/04/23 11:21:43.4     212   -129    126    249    279 121.3  29.1  34186  290.00 0854.99
2009/04/23 11:21:43.5     175   -164    169    241    294 133.1  38.6  34190  290.07 0854.99
2009/04/23 11:21:43.6     175   -133    149    221    266 127.3  37.3  34198  290.20 0854.99
2009/04/23 11:21:43.7     159   -161    207    227    307 135.5  47.1  34212  290.44 0854.99
2009/04/23 11:21:43.8      99   -202    228    226    321 153.9  50.0  34204  290.31 0854.99
2009/04/23 11:21:43.9      -9    -64    169     65    181 188.1  77.8  34200  290.25 0854.99
2009/04/23 11:21:44.0      85   -124    198    151    249 145.7  59.0  34202  290.28 0854.99
2009/04/23 11:21:44.1     -24     12    200     28    201 297.1  90.0  34210  290.43 0854.99
2009/04/23 11:21:44.2      58    -30    197     66    207 118.0  81.0  34222  290.64 0854.99
2009/04/23 11:21:44.3      32      8    192     34    194  74.9  90.0  34226  290.70 0854.99
2009/04/23 11:21:44.4      56     31    160     65    172  61.1  77.1  34232  290.79 0854.99
2009/04/23 11:21:44.5       7    -11    140     14    140 147.5  90.0  34230  290.77 0854.99
2009/04/23 11:21:44.6     103    -45    131    113    173 113.5  54.8  34226  290.69 0854.99
2009/04/23 11:21:44.7     110   -107    154    154    217 134.0  50.1  34218  290.57 0854.99
2009/04/23 11:21:44.8      18    -68    177     71    190 164.9  77.1  34214  290.50 0854.99
2009/04/23 11:21:44.9     114    -98    167    151    225 130.9  53.3  34212  290.47 0854.99
2009/04/23 11:21:45.0     111   -104    120    153    194 133.2  42.2  34210  290.41 0855.01
2009/04/23 11:21:45.1      82   -212    102    228    249 158.8  25.9  34216  290.53 0855.01
2009/04/23 11:21:45.2      96   -319    140    334    362 163.2  24.2  34204  290.32 0855.01
2009/04/23 11:21:45.3      87   -252    193    267    329 160.8  39.3  34204  290.32 0855.01
2009/04/23 11:21:45.4     136   -303    192    333    384 155.8  32.7  34200  290.25 0855.01
2009/04/23 11:21:45.5      70   -297    214    306    373 166.6  38.5  34202  290.30 0855.01
2009/04/23 11:21:45.6      59   -320    239    326    404 169.5  39.8  34198  290.23 0855.01
2009/04/23 11:21:45.7      13   -334    238    335    410 177.8  39.0  34192  290.13 0855.01
2009/04/23 11:21:45.8      50   -354    247    358    434 171.9  37.8  34194  290.14 0855.01
2009/04/23 11:21:45.9      25   -380    280    381    472 176.1  40.0  34190  290.07 0855.01
2009/04/23 11:21:46.0      55   -439    211    443    490 172.8  27.3  34192  290.10 0855.01
2009/04/23 11:21:46.1     145   -355    303    384    489 157.7  42.2  34194  290.16 0855.01
2009/04/23 11:21:46.2     222   -287    284    364    461 142.3  41.9  34196  290.19 0855.01
2009/04/23 11:21:46.3     -12   -268    230    269    353 182.7  45.0  34202  290.27 0855.01
2009/04/23 11:21:46.4      56   -153    213    164    268 159.9  58.5  34200  290.26 0855.01
2009/04/23 11:21:46.5      24   -270    260    272    376 174.9  48.6  34202  290.28 0855.01
2009/04/23 11:21:46.6      15   -257    222    258    340 176.5  45.2  34202  290.27 0855.01
2009/04/23 11:21:46.7      65   -197    182    208    276 161.5  45.8  34200  290.26 0855.01
2009/04/23 11:21:46.8      46    -68    163     83    182 146.2  70.8  34210  290.41 0855.01
2009/04/23 11:21:46.9      15   -165    166    166    234 174.7  50.1  34204  290.31 0855.01
2009/04/23 11:21:47.0     -61   -326    168    332    372 190.7  29.1  34194  290.16 0855.03
2009/04/23 11:21:47.1    -155   -308    125    345    366 206.7  20.7  34198  290.20 0855.03
2009/04/23 11:21:47.2     -39   -211    132    215    252 190.7  34.5  34196  290.19 0855.03
2009/04/23 11:21:47.3     -66   -192    -41    204    209 198.9 -11.5  34204  290.33 0855.03
2009/04/23 11:21:47.4      -1   -103    123    104    161 181.0  55.6  34202  290.28 0855.03
2009/04/23 11:21:47.5     -63   -266     69    274    283 193.4  14.2  34202  290.29 0855.03
2009/04/23 11:21:47.6     -68   -253     14    262    263 195.1   3.1  34204  290.32 0855.03
2009/04/23 11:21:47.7    -109   -312    -42    331    334 199.3  -7.3  34204  290.33 0855.03
2009/04/23 11:21:47.9     -34   -434      6    436    437 184.5   0.8  34198  290.22 0855.03
2009/04/23 11:21:47.9    -145   -406    -79    432    440 199.7 -10.4  34204  290.31 0855.03
2009/04/23 11:21:48.0    -202   -444    -97    488    498 204.5 -11.3  34208  290.40 0855.03
2009/04/23 11:21:48.1    -144   -474   -103    496    507 197.0 -11.8  34214  290.49 0855.03
2009/04/23 11:21:48.2    -111   -278   -103    300    318 201.8 -19.1  34214  290.48 0855.03
2009/04/23 11:21:48.4    -196   -225    -59    299    305 221.0 -11.3  34216  290.51 0855.03
2009/04/23 11:21:48.4    -136   -276    -33    308    310 206.3  -6.2  34220  290.58 0855.03
2009/04/23 11:21:48.5     -68   -345    -60    352    358 191.2  -9.7  34210  290.43 0855.03
2009/04/23 11:21:48.6    -220   -255     65    338    345 220.8  11.0  34222  290.62 0855.03
2009/04/23 11:21:48.7    -226   -312     68    386    393 216.0  10.0  34218  290.55 0855.03
2009/04/23 11:21:48.8    -193   -355     12    405    406 208.5   1.7  34214  290.48 0855.03
2009/04/23 11:21:49.0    -241   -375     47    447    450 212.8   6.1  34212  290.46 0855.03
2009/04/23 11:21:49.0    -199   -311    -48    370    374 212.7  -7.5  34202  290.30 0855.05
2009/04/23 11:21:49.2    -122   -455     45    472    475 195.1   5.5  34208  290.40 0855.05
2009/04/23 11:21:49.3     -84   -453    128    461    479 190.6  15.6  34208  290.39 0855.05
2009/04/23 11:21:49.3     -23   -451    174    452    484 183.0  22.1  34206  290.34 0855.05
2009/04/23 11:21:49.4       0   -361    256    362    443 180.0  38.7  34216  290.51 0855.05
2009/04/23 11:21:49.6     -28   -362    237    364    434 184.5  36.2  34220  290.58 0855.05
2009/04/23 11:21:49.7      74   -524     83    530    537 171.9   9.0  34220  290.58 0855.05
2009/04/23 11:21:49.8     181   -540     74    570    575 161.4   7.5  34204  290.31 0855.05
2009/04/23 11:21:49.9     166   -546    166    571    595 163.1  16.3  34202  290.29 0855.05
2009/04/23 11:21:50.0     154   -505     75    529    535 163.0   8.1  34208  290.40 0855.05
2009/04/23 11:21:50.1     123   -437     59    455    459 164.2   7.5  34210  290.43 0855.05
2009/04/23 11:21:50.2      36   -462    -30    464    466 175.5  -3.8  34218  290.54 0855.05
2009/04/23 11:21:50.3      60   -401    -64    406    412 171.4  -9.0  34214  290.48 0855.05
2009/04/23 11:21:50.4      81   -333   -101    343    358 166.2 -16.5  34214  290.50 0855.05
2009/04/23 11:21:50.5      83   -360    -47    370    374 166.9  -7.3  34212  290.47 0855.05
2009/04/23 11:21:50.6      91   -447     -5    457    458 168.4  -0.7  34200  290.26 0855.05
2009/04/23 11:21:50.7     100   -389    -15    402    403 165.5  -2.2  34200  290.24 0855.05
2009/04/23 11:21:50.8      87   -400      7    410    411 167.6   1.0  34202  290.29 0855.05
2009/04/23 11:21:50.9     105   -505     19    516    517 168.2   2.1  34178  289.88 0855.05
2009/04/23 11:21:51.0      94   -527     26    536    537 169.9   2.8  34184  289.99 0855.05
2009/04/23 11:21:51.1      87   -471     25    479    480 169.5   3.0  34170  289.73 0855.08
2009/04/23 11:21:51.2      86   -475     45    483    486 169.7   5.3  34156  289.50 0855.08
2009/04/23 11:21:51.3     -26   -588     99    589    598 182.6   9.6  34146  289.32 0855.08
2009/04/23 11:21:51.4     -50   -597     45    600    602 184.9   4.3  34144  289.30 0855.08
2009/04/23 11:21:51.5      -5   -597    124    598    611 180.5  11.8  34160  289.58 0855.08
2009/04/23 11:21:51.6     186   -598    -96    627    635 162.7  -8.7  34174  289.82 0855.08
2009/04/23 11:21:51.7     116   -622    -53    633    636 169.4  -4.9  34158  289.53 0855.08
2009/04/23 11:21:51.8     171   -562     28    588    589 163.1   2.8  34162  289.59 0855.08
2009/04/23 11:21:51.9     284   -562     44    630    632 153.2   4.0  34178  289.87 0855.08
2009/04/23 11:21:52.0     239   -598    -54    645    648 158.2  -4.9  34162  289.60 0855.08
2009/04/23 11:21:52.1      74   -631    -27    636    637 173.3  -2.5  34166  289.69 0855.08
2009/04/23 11:21:52.2      90   -768    166    774    792 173.3  12.1  34166  289.68 0855.08
2009/04/23 11:21:52.3      45   -683    176    685    708 176.2  14.4  34172  289.76 0855.08
2009/04/23 11:21:52.4      95   -670      4    677    678 171.9   0.4  34172  289.78 0855.08
2009/04/23 11:21:52.5      98   -632     33    640    641 171.1   3.0  34174  289.82 0855.08
2009/04/23 11:21:52.6     140   -584     34    601    602 166.5   3.2  34174  289.81 0855.08
2009/04/23 11:21:52.7     126   -565    -68    580    584 167.4  -6.7  34182  289.93 0855.08
2009/04/23 11:21:52.8     146   -517    -98    538    547 164.2 -10.4  34186  290.01 0855.08
2009/04/23 11:21:52.9     143   -508     -6    528    529 164.2  -0.7  34188  290.06 0855.08
2009/04/23 11:21:53.0       4   -493   -101    494    505 179.5 -11.6  34186  290.00 0855.08
2009/04/23 11:21:53.1      39   -476   -142    478    499 175.2 -16.6  34176  289.83 0855.11
2009/04/23 11:21:53.2      77   -478   -113    485    498 170.8 -13.1  34186  290.00 0855.11
2009/04/23 11:21:53.3     143   -479   -152    501    524 163.3 -16.9  34192  290.10 0855.11
2009/04/23 11:21:53.4     167   -482   -132    511    528 160.8 -14.5  34190  290.07 0855.11
2009/04/23 11:21:53.5      94   -469    -97    479    489 168.6 -11.5  34192  290.13 0855.11
2009/04/23 11:21:53.6     114   -458    -68    473    478 166.0  -8.2  34192  290.10 0855.11
2009/04/23 11:21:53.7      76   -451    -65    458    463 170.4  -8.1  34184  289.99 0855.11
2009/04/23 11:21:53.8      81   -424   -101    432    444 169.1 -13.2  34182  289.95 0855.11
2009/04/23 11:21:53.9      71   -398   -115    405    422 169.9 -15.9  34182  289.95 0855.11
2009/04/23 11:21:54.0      63   -404   -130    410    431 171.1 -17.7  34178  289.88 0855.11
2009/04/23 11:21:54.1      65   -401   -122    407    424 170.8 -21.6  34176  289.83 0855.11
2009/04/23 11:21:54.2       4   -470      1    471    472 179.4   0.2  34172  289.78 0855.11
2009/04/23 11:21:54.3     -22   -461      0    462    463 182.8   0.1  34172  289.77 0855.11
2009/04/23 11:21:54.4     -71   -455    -12    461    462 188.9  -1.6  34176  289.85 0855.11
2009/04/23 11:21:54.5    -113   -341     17    360    361 198.3   2.8  34182  289.96 0855.11
2009/04/23 11:21:54.6     -21   -390    157    391    421 183.1  23.1  34186  290.00 0855.11
2009/04/23 11:21:54.7      17   -441    187    442    479 177.8  24.3  34188  290.03 0855.11
2009/04/23 11:21:54.8     101   -396    215    409    462 165.6  30.0  34188  290.05 0855.11
2009/04/23 11:21:54.9     -84   -356    233    366    433 193.4  35.5  34186  290.02 0855.11
2009/04/23 11:21:55.0     182   -478     95    512    521 159.1  10.6  34178  289.86 0855.11
2009/04/23 11:21:55.1     176   -519     97    549    558 161.2  10.1  34184  289.97 0855.15
2009/04/23 11:21:55.2     182   -499    139    532    550 160.0  14.7  34184  289.99 0855.15
2009/04/23 11:21:55.3     147   -470    155    493    517 162.6  17.5  34186  290.01 0855.15
2009/04/23 11:21:55.4     126   -517    177    533    562 166.3  18.4  34186  290.02 0855.15
2009/04/23 11:21:55.5     158   -505    177    530    559 162.6  18.5  34190  290.07 0855.15
2009/04/23 11:21:55.6     158   -453    172    480    509 160.7  20.7  34192  290.10 0855.15
2009/04/23 11:21:55.7     121   -472    200    488    527 165.6  23.5  34184  289.98 0855.15
2009/04/23 11:21:55.8     129   -517    150    533    554 165.9  15.8  34192  290.13 0855.15
2009/04/23 11:21:55.9     126   -519    -69    535    540 166.3  -7.4  34184  289.97 0855.15
2009/04/23 11:21:56.0     149   -504     74    526    532 163.5   8.0  34192  290.13 0855.15
2009/04/23 11:21:56.1    -104   -389    -15    403    404 195.1  -2.2  34190  290.07 0855.15
2009/04/23 11:21:56.2       8   -511    -12    512    513 179.0  -1.4  34212  290.47 0855.15
2009/04/23 11:21:56.3     -24   -532    -77    533    539 182.7  -8.2  34194  290.14 0855.15
2009/04/23 11:21:56.4     -58   -500   -113    504    517 186.7 -12.7  34188  290.06 0855.15
2009/04/23 11:21:56.5    -154   -354   -139    386    410 203.5 -25.0  34188  290.05 0855.15
2009/04/23 11:21:56.6     -75   -438   -134    445    464 189.8 -21.7  34186  290.02 0855.15
2009/04/23 11:21:56.7    -111   -437   -162    452    480 194.3 -25.0  34192  290.13 0855.15
2009/04/23 11:21:56.8     -75   -371   -118    379    396 191.6 -22.3  34192  290.10 0855.15
2009/04/23 11:21:56.9     -32   -377    -66    379    385 184.9  -9.9  34192  290.10 0855.15
2009/04/23 11:21:57.0      10   -377    -85    378    388 178.4 -12.7  34192  290.11 0855.15
2009/04/23 11:21:57.1      27   -361     -1    362    363 175.6  -0.3  34188  290.04 0855.18
2009/04/23 11:21:57.2      25   -468    -63    469    474 176.9  -7.7  34192  290.10 0855.18
2009/04/23 11:21:57.3       0   -450   -115    451    466 179.9 -14.4  34198  290.21 0855.18
2009/04/23 11:21:57.4      57   -348      0    353    354 170.6   0.0  34202  290.27 0855.18
2009/04/23 11:21:57.5     -33   -427     73    429    436 184.5   9.7  34204  290.31 0855.18
2009/04/23 11:21:57.6      -6   -384    -17    385    386 180.9  -2.6  34200  290.25 0855.18
2009/04/23 11:21:57.7     131   -531     56    547    550 166.1   5.9  34176  289.84 0855.18
2009/04/23 11:21:57.8     202   -637     76    669    674 162.4   6.5  34168  289.71 0855.18
2009/04/23 11:21:57.9     197   -640     70    670    674 162.8   6.0  34156  289.51 0855.18
2009/04/23 11:21:58.0     200   -532     65    569    573 159.4   6.6  34162  289.59 0855.18
2009/04/23 11:21:58.1     152   -438    -54    464    468 160.8  -6.7  34152  289.45 0855.21
2009/04/23 11:21:58.2      96   -344    -61    358    364 164.4  -9.8  34176  289.84 0855.21
2009/04/23 11:21:58.3      35   -376    -89    378    389 174.6 -13.3  34188  290.03 0855.21
2009/04/23 11:21:58.4     -11   -396    -15    397    398 181.6  -2.2  34202  290.28 0855.21
2009/04/23 11:21:58.5     -95   -362    -11    375    376 194.8  -1.7  34198  290.23 0855.21
2009/04/23 11:21:58.6    -225   -365    -26    429    430 211.6  -3.5  34210  290.41 0855.21
2009/04/23 11:21:58.7    -227   -474    -87    526    534 205.7  -9.4  34124  288.96 0855.21
2009/04/23 11:21:58.8    -128   -562   -106    577    587 192.9 -10.5  34110  288.73 0855.21
2009/04/23 11:21:58.9    -142   -561    -83    579    586 194.3  -8.2  34110  288.71 0855.21
2009/04/23 11:21:59.0    -128   -537   -100    553    562 193.4 -10.3  34108  288.69 0855.21
2009/04/23 11:21:59.1     -38   -563    -86    565    572 183.9  -8.7  34128  289.02 0855.21
2009/04/23 11:21:59.2     -67   -540    -70    545    550 187.1  -7.4  34120  288.89 0855.21
2009/04/23 11:21:59.3     -87   -499    -24    507    508 189.9  -2.8  34124  288.96 0855.21
2009/04/23 11:21:59.4    -123   -519     17    534    535 193.4   1.9  34122  288.92 0855.21
2009/04/23 11:21:59.5     -87   -541    -70    549    554 189.2  -7.3  34126  289.01 0855.21
2009/04/23 11:21:59.6     -87   -426   -156    436    464 191.6 -19.7  34118  288.85 0855.21
2009/04/23 11:21:59.7    -101   -407   -104    420    433 194.0 -13.9  34122  288.92 0855.21
2009/04/23 11:21:59.8    -112   -380   -102    397    411 196.4 -14.5  34118  288.87 0855.21
2009/04/23 11:21:59.9     -49   -324    -99    328    343 188.6 -16.9  34110  288.72 0855.21
2009/04/23 11:22:00.0     -76   -288    -82    298    310 194.9 -15.4  34114  288.80 0855.21
2009/04/23 11:22:00.1     -81   -242    -71    256    266 198.5 -15.5  34124  288.95 0855.22
2009/04/23 11:22:00.2     -32   -167    -93    171    194 191.1 -35.7  34122  288.92 0855.22
2009/04/23 11:22:00.3      -1   -187    -55    188    195 180.5 -21.0  34118  288.86 0855.22
2009/04/23 11:22:00.4      47   -131    -41    140    145 160.0 -21.2  34126  288.99 0855.22
2009/04/23 11:22:00.5      97   -108     39    146    152 138.1  15.2  34122  288.94 0855.22
2009/04/23 11:22:00.6     123    -95     30    156    160 127.8  11.1  34128  289.04 0855.22
2009/04/23 11:22:00.7      43   -157     69    163    177 164.6  24.3  34130  289.06 0855.22
2009/04/23 11:22:00.8      11   -179     51    180    188 176.4  15.8  34132  289.09 0855.22
2009/04/23 11:22:00.9     -40   -197     43    202    207 191.6  12.2  34128  289.02 0855.22
2009/04/23 11:22:01.0     -17   -219     34    220    223 184.5   8.8  34132  289.09 0855.22
2009/04/23 11:22:01.1      -1   -265    -34    266    269 180.2  -7.3  34130  289.05 0855.22
2009/04/23 11:22:01.2       2   -239    -55    240    247 179.3 -12.9  34126  288.98 0855.22
2009/04/23 11:22:01.3      38   -299    -17    302    303 172.7  -3.3  34120  288.88 0855.22
2009/04/23 11:22:01.4      20   -337    -52    338    342 176.6  -8.8  34128  289.04 0855.22
2009/04/23 11:22:01.5      26   -339    -27    341    343 175.5  -4.6  34142  289.28 0855.22
2009/04/23 11:22:01.6      13   -298    -21    299    300 177.4  -4.1  34150  289.39 0855.22
2009/04/23 11:22:01.7      89   -290      8    304    305 163.0   1.6  34132  289.10 0855.22
2009/04/23 11:22:01.8      90   -311     30    324    326 163.7   5.4  34130  289.05 0855.22
2009/04/23 11:22:01.9      58   -348     36    353    355 170.4   5.9  34136  289.16 0855.22
2009/04/23 11:22:02.0       0   -356     40    357    360 180.0   6.5  34148  289.38 0855.22
2009/04/23 11:22:02.1     -76   -362     60    370    375 191.9   9.2  34138  289.21 0855.23
2009/04/23 11:22:02.2    -106   -382     74    397    404 195.6  10.6  34148  289.37 0855.23
2009/04/23 11:22:02.3    -188   -428    -15    468    469 203.7  -1.9  34164  289.64 0855.23
2009/04/23 11:22:02.4    -324   -469   -121    571    584 214.6 -12.0  34160  289.58 0855.23
2009/04/23 11:22:02.5    -232   -525    -62    575    579 203.8  -6.2  34152  289.44 0855.23
2009/04/23 11:22:02.6    -359   -477    -49    598    601 217.0  -4.7  34160  289.58 0855.23
2009/04/23 11:22:02.7    -396   -478   -112    621    632 219.6 -10.2  34162  289.59 0855.23
2009/04/23 11:22:02.8    -404   -458    -19    611    612 221.4  -1.8  34164  289.63 0855.23
2009/04/23 11:22:02.9    -224   -413    -94    470    480 208.5 -11.3  34162  289.59 0855.23
2009/04/23 11:22:03.0     -90   -374    -21    385    386 193.6  -3.2  34162  289.60 0855.23
2009/04/23 11:22:03.1     103   -269     78    289    300 159.1  15.2  34168  289.70 0855.23
2009/04/23 11:22:03.2    -133   -377    -43    400    403 199.5  -6.3  34166  289.67 0855.23
2009/04/23 11:22:03.3    -172   -270   -141    321    350 212.6 -29.6  34142  289.25 0855.23
2009/04/23 11:22:03.4    -402   -306    -93    506    515 232.7 -10.5  34160  289.56 0855.23
2009/04/23 11:22:03.5    -347   -413    -78    540    546 220.0  -8.2  34168  289.70 0855.23
2009/04/23 11:22:03.6    -271   -312    -31    414    416 221.0  -4.4  34158  289.55 0855.23
2009/04/23 11:22:03.7     -63   -315   -113    322    341 191.3 -24.4  34168  289.71 0855.23
2009/04/23 11:22:03.8    -154   -205   -127    257    286 217.0 -32.6  34172  289.78 0855.23
2009/04/23 11:22:03.9    -170   -516     70    544    549 198.3   7.4  34170  289.75 0855.23
2009/04/23 11:22:04.0    -109   -459   -161    472    499 193.4 -18.9  34172  289.79 0855.23
2009/04/23 11:22:04.1     -27   -377   -139    378    402 184.1 -25.4  34176  289.84 0855.26
2009/04/23 11:22:04.2     -13   -340   -117    341    361 182.3 -18.9  34174  289.81 0855.26
2009/04/23 11:22:04.3     -80   -497    -28    504    505 189.2  -3.2  34184  289.98 0855.26
2009/04/23 11:22:04.4    -187   -467     57    504    508 201.8   6.5  34186  290.00 0855.26
2009/04/23 11:22:04.5    -158   -519    -25    543    544 196.9  -2.7  34196  290.19 0855.26
2009/04/23 11:22:04.6    -151   -448   -106    474    486 198.7 -12.7  34188  290.05 0855.26
2009/04/23 11:22:04.7    -262   -615   -181    669    694 203.1 -15.2  34156  289.49 0855.26
2009/04/23 11:22:04.8    -217   -656   -187    691    717 198.3 -15.2  34110  288.71 0855.26
2009/04/23 11:22:04.9    -138   -699   -119    713    723 191.2  -9.5  34112  288.76 0855.26
2009/04/23 11:22:05.0     -80   -625   -150    631    649 187.4 -13.4  34124  288.96 0855.26
2009/04/23 11:22:05.1     -64   -533   -154    537    559 186.9 -16.0  34150  289.41 0855.26
2009/04/23 11:22:05.2     -55   -593   -237    596    641 185.3 -27.3  34120  288.89 0855.26
2009/04/23 11:22:05.3     182   -614   -198    641    671 163.5 -17.2  34142  289.26 0855.26
2009/04/23 11:22:05.4      88   -637     65    643    647 172.1   5.8  34156  289.50 0855.26
2009/04/23 11:22:05.5     113   -661      8    671    672 170.3   0.7  34140  289.24 0855.26
2009/04/23 11:22:05.6    -111   -747   -130    756    768 188.5  -9.8  34140  289.24 0855.26
2009/04/23 11:22:05.7    -180   -794   -234    815    848 192.8 -16.0  34150  289.41 0855.26
2009/04/23 11:22:05.8      69   -828   -244    831    866 175.2 -21.1  34146  289.32 0855.26
2009/04/23 11:22:05.9     139   -729    -29    743    744 169.2  -2.2  34148  289.36 0855.26
2009/04/23 11:22:06.0     205   -632    -10    665    666 162.0  -0.9  34164  289.63 0855.26
2009/04/23 11:22:06.1     117   -493   -137    507    526 166.6 -15.2  34144  289.29 0855.26
2009/04/23 11:22:06.2     163   -455   -114    484    498 160.3 -13.3  34146  289.35 0855.26
2009/04/23 11:22:06.3     158   -455   -101    482    493 160.8 -11.9  34150  289.40 0855.26
2009/04/23 11:22:06.4     -19   -500   -169    501    530 182.3 -18.7  34150  289.40 0855.26
2009/04/23 11:22:06.5     -23   -458   -199    459    500 182.9 -29.4  34160  289.56 0855.26
2009/04/23 11:22:06.6      45   -534   -280    537    605 175.1 -34.0  34148  289.37 0855.26
2009/04/23 11:22:06.7      31   -693   -340    694    772 177.4 -32.4  34134  289.14 0855.26
2009/04/23 11:22:06.8     177   -791    -88    811    816 167.3  -6.2  34132  289.09 0855.26
2009/04/23 11:22:06.9     127   -743   -151    754    770 170.3 -11.3  34142  289.28 0855.26
2009/04/23 11:22:07.0      63   -539    -93    543    552 173.3  -9.8  34132  289.11 0855.26
2009/04/23 11:22:07.1      77   -582   -159    588    610 172.4 -15.2  34142  289.27 0855.26
2009/04/23 11:22:07.2      -8   -647   -176    648    672 180.7 -15.2  34148  289.36 0855.26
2009/04/23 11:22:07.3     -60   -647   -110    651    661 185.3  -9.6  34146  289.32 0855.26
2009/04/23 11:22:07.4      19   -633   -104    634    643 178.2  -9.3  34132  289.11 0855.26
2009/04/23 11:22:07.5     104   -603    -54    613    616 170.2  -5.1  34154  289.48 0855.26
2009/04/23 11:22:07.6      -8   -617    -12    618    619 180.8  -1.2  34142  289.25 0855.26
2009/04/23 11:22:07.7      56   -684    -26    687    688 175.3  -2.2  34148  289.38 0855.26
2009/04/23 11:22:07.8     126   -600    -26    614    615 168.1  -2.5  34146  289.35 0855.26
2009/04/23 11:22:07.9     171   -623      5    647    648 164.6   0.5  34140  289.23 0855.26
2009/04/23 11:22:08.0     260   -632     86    684    690 157.6   7.2  34140  289.24 0855.26
2009/04/23 11:22:08.1     166   -686     85    706    712 166.3   6.9  34134  289.13 0855.24
2009/04/23 11:22:08.2      64   -744     78    747    752 175.0   6.0  34144  289.31 0855.24
2009/04/23 11:22:08.3     -74   -683     19    688    689 186.3   1.6  34126  289.00 0855.24
2009/04/23 11:22:08.4     -72   -730    -75    734    738 185.7  -5.9  34120  288.89 0855.24
2009/04/23 11:22:08.5     -21   -704    -27    705    706 181.8  -2.2  34126  289.01 0855.24
2009/04/23 11:22:08.6     -55   -736    -17    738    739 184.3  -1.4  34132  289.11 0855.24
2009/04/23 11:22:08.7     -11   -756    -41    757    759 180.9  -3.1  34120  288.89 0855.24
2009/04/23 11:22:08.8      20   -747     -9    748    749 178.4  -0.7  34116  288.82 0855.24
2009/04/23 11:22:08.9      84   -764    -98    769    776 173.7  -7.3  34130  289.05 0855.24
2009/04/23 11:22:09.0      57   -701   -115    704    714 175.3  -9.3  34136  289.18 0855.24
2009/04/23 11:22:09.1      87   -636    -83    642    648 172.2  -7.4  34140  289.23 0855.24
2009/04/23 11:22:09.2      49   -617    -60    620    624 175.4  -5.6  34136  289.18 0855.24
2009/04/23 11:22:09.3      57   -609   -100    612    621 174.6  -9.3  34136  289.16 0855.24
2009/04/23 11:22:09.4     101   -612    -91    621    628 170.6  -8.4  34136  289.15 0855.24
2009/04/23 11:22:09.5     137   -552    -51    569    572 166.0  -5.2  34134  289.12 0855.24
2009/04/23 11:22:09.6     168   -522      3    549    550 162.1   0.4  34116  288.84 0855.24
2009/04/23 11:22:09.7     117   -592    138    604    620 168.8  12.9  34120  288.91 0855.24
2009/04/23 11:22:09.8      50   -645     92    648    655 175.5   8.1  34126  289.01 0855.24
2009/04/23 11:22:09.9      94   -625    -15    633    634 171.4  -1.4  34130  289.08 0855.24
2009/04/23 11:22:10.0      38   -587     33    589    590 176.2   3.3  34134  289.12 0855.24
2009/04/23 11:22:10.1      71   -626    -59    631    634 173.5  -5.4  34132  289.11 0855.23
2009/04/23 11:22:10.2      92   -613    -24    620    621 171.4  -2.2  34132  289.11 0855.23
2009/04/23 11:22:10.3      97   -563    -31    572    573 170.2  -3.2  34134  289.14 0855.23
2009/04/23 11:22:10.4     114   -532    -24    545    546 167.9  -2.6  34130  289.07 0855.23
2009/04/23 11:22:10.5      47   -556     87    559    566 175.1   8.9  34136  289.16 0855.23
2009/04/23 11:22:10.6      79   -560     18    566    567 171.9   1.9  34130  289.06 0855.23
2009/04/23 11:22:10.7     122   -557     -8    571    572 167.6  -0.9  34130  289.08 0855.23
2009/04/23 11:22:10.8      81   -581     -5    587    588 172.0  -0.5  34134  289.12 0855.23
2009/04/23 11:22:10.9     101   -582     19    591    592 170.1   1.9  34138  289.19 0855.23
2009/04/23 11:22:11.0     176   -585    -14    612    613 163.2  -1.4  34134  289.12 0855.23
2009/04/23 11:22:11.1     124   -566     -4    580    581 167.6  -0.5  34148  289.37 0855.23
2009/04/23 11:22:11.2      99   -515     21    525    526 169.1   2.4  34142  289.28 0855.23
2009/04/23 11:22:11.3     156   -548    -76    570    576 164.1  -7.6  34146  289.34 0855.23
2009/04/23 11:22:11.4     151   -486   -107    509    521 162.7 -11.9  34142  289.25 0855.23
2009/04/23 11:22:11.5     155   -425   -141    453    475 160.0 -17.3  34146  289.35 0855.23
2009/04/23 11:22:11.6      93   -435    -24    445    446 167.9  -3.2  34148  289.38 0855.23
2009/04/23 11:22:11.7     116   -484   -101    498    509 166.5 -11.5  34136  289.18 0855.23
2009/04/23 11:22:11.8     131   -481     -2    499    500 164.7  -0.3  34138  289.20 0855.23
2009/04/23 11:22:11.9      94   -499    -10    508    509 169.3  -1.2  34146  289.35 0855.23
2009/04/23 11:22:12.0      88   -430    -41    440    443 168.4  -5.3  34152  289.44 0855.23
2009/04/23 11:22:12.1      74   -518     40    524    526 171.8   4.4  34158  289.53 0855.23
2009/04/23 11:22:12.2      11   -423     96    424    435 178.4  12.8  34148  289.38 0855.23
2009/04/23 11:22:12.3     -26   -327     79    329    339 184.7  13.6  34152  289.43 0855.23
2009/04/23 11:22:12.4     -99   -371     15    385    386 195.0   2.3  34148  289.37 0855.23
2009/04/23 11:22:12.5     -33   -417     -1    419    420 184.6  -0.3  34152  289.43 0855.23
2009/04/23 11:22:12.6      32   -406    -22    408    409 175.4  -3.1  34152  289.43 0855.23
2009/04/23 11:22:12.7      60   -370     -3    375    376 170.8  -0.6  34146  289.35 0855.23
2009/04/23 11:22:12.8      73   -323   -107    332    349 167.2 -17.9  34146  289.32 0855.23
2009/04/23 11:22:12.9      26   -401    -82    402    411 176.3 -11.6  34146  289.33 0855.23
2009/04/23 11:22:13.0      82   -386    -87    395    405 168.0 -12.5  34146  289.35 0855.23
2009/04/23 11:22:13.1      65   -381    -21    387    388 170.2  -3.2  34146  289.35 0855.23
2009/04/23 11:22:13.2      70   -295   -102    304    321 166.6 -18.6  34148  289.36 0855.23
2009/04/23 11:22:13.3      23   -265    -95    267    284 174.9 -19.7  34148  289.36 0855.23
2009/04/23 11:22:13.4       8   -272    -75    273    284 178.2 -15.4  34148  289.36 0855.23
2009/04/23 11:22:13.5      34   -245    -38    248    251 172.0  -8.8  34146  289.34 0855.23
2009/04/23 11:22:13.6      48   -178    -43    185    191 164.9 -13.2  34142  289.28 0855.23
2009/04/23 11:22:13.7      82   -128    -46    153    160 147.4 -17.0  34146  289.35 0855.23
2009/04/23 11:22:13.8      64   -169    -50    182    189 159.1 -15.5  34146  289.33 0855.23
2009/04/23 11:22:13.9      38   -174    -21    179    181 167.5  -6.7  34144  289.31 0855.23
2009/04/23 11:22:14.0      60   -185     53    195    203 162.0  15.2  34142  289.28 0855.23
2009/04/23 11:22:14.1      50   -197    103    204    228 165.7  28.7  34150  289.41 0855.24
2009/04/23 11:22:14.2      62   -213    155    222    270 163.7  38.4  34156  289.49 0855.24
2009/04/23 11:22:14.3      64   -194    131    205    243 161.7  35.6  34162  289.60 0855.24
2009/04/23 11:22:14.4     -10   -214     58    215    223 182.7  15.2  34152  289.45 0855.24
2009/04/23 11:22:14.5     -23   -256    112    258    281 185.3  25.1  34160  289.58 0855.24
2009/04/23 11:22:14.6     -51   -214    111    220    246 193.4  28.5  34160  289.58 0855.24
2009/04/23 11:22:14.7     -84   -204     82    221    235 202.5  21.0  34158  289.53 0855.24
2009/04/23 11:22:14.8     -55   -202    117    210    240 195.2  31.4  34164  289.65 0855.24
2009/04/23 11:22:14.9     -16   -186    120    187    222 185.1  35.6  34170  289.74 0855.24
2009/04/23 11:22:15.0     -16   -205    154    206    257 184.5  40.6  34166  289.68 0855.24
2009/04/23 11:22:15.1      36   -180    113    184    215 168.7  34.4  34160  289.58 0855.24
2009/04/23 11:22:15.2      20   -188    106    190    217 173.8  31.4  34158  289.53 0855.24
2009/04/23 11:22:15.3      55   -163     88    173    194 161.3  29.1  34160  289.58 0855.24
2009/04/23 11:22:15.4      63    -63    111     90    142 135.0  56.4  34178  289.89 0855.24
2009/04/23 11:22:15.5      62   -159    149    171    226 158.6  45.8  34158  289.55 0855.24
2009/04/23 11:22:15.6      17   -137    133    139    192 172.9  49.0  34160  289.58 0855.24
2009/04/23 11:22:15.8      95   -157     90    184    204 148.8  28.0  34156  289.50 0855.24
2009/04/23 11:22:15.8     159   -158    153    225    272 134.9  37.4  34156  289.49 0855.24
2009/04/23 11:22:16.0     244   -209    169    322    363 130.7  29.8  34154  289.48 0855.24
2009/04/23 11:22:16.1     271   -154    138    312    341 119.7  25.3  34148  289.38 0855.24
2009/04/23 11:22:16.2     196   -156    146    251    290 128.6  33.1  34154  289.47 0855.26
2009/04/23 11:22:16.3     167   -183    194    248    314 137.6  42.1  34156  289.49 0855.26
2009/04/23 11:22:16.4     123   -222    165    255    303 151.0  35.6  34158  289.53 0855.26
2009/04/23 11:22:16.5      62   -324    190    330    380 169.1  32.7  34154  289.47 0855.26
2009/04/23 11:22:16.6      48   -334    189    338    387 171.8  31.5  34158  289.55 0855.26
2009/04/23 11:22:16.7      48   -341    213    345    405 172.0  34.6  34162  289.62 0855.26
2009/04/23 11:22:16.8      16   -342    184    343    389 177.2  30.7  34168  289.72 0855.26
2009/04/23 11:22:16.9      68   -325    185    333    380 168.1  31.4  34162  289.59 0855.26
2009/04/23 11:22:17.0      43   -309     25    313    315 172.0   4.7  34156  289.49 0855.26
2009/04/23 11:22:17.1      36   -326    -32    329    331 173.7  -5.6  34152  289.43 0855.26
2009/04/23 11:22:17.2     -17   -365    -17    366    367 182.8  -2.8  34154  289.48 0855.26
2009/04/23 11:22:17.3      25   -340     30    341    343 175.7   5.1  34152  289.45 0855.26
2009/04/23 11:22:17.4      -8   -328     16    329    330 181.5   2.8  34156  289.52 0855.26
2009/04/23 11:22:17.5     -23   -302     23    303    304 184.5   4.4  34160  289.58 0855.26
2009/04/23 11:22:17.6     -12   -283      6    284    285 182.5   1.2  34168  289.70 0855.26
2009/04/23 11:22:17.7     -20   -293    -26    294    296 184.0  -5.2  34194  290.14 0855.26
2009/04/23 11:22:17.8     112   -368     28    385    387 163.1   4.2  34158  289.54 0855.26
2009/04/23 11:22:17.9     150   -386    -34    415    417 158.7  -4.8  34160  289.58 0855.26
2009/04/23 11:22:18.0     103   -396     -6    410    411 165.4  -0.9  34168  289.70 0855.26
2009/04/23 11:22:18.1      58   -326    -47    332    336 169.9  -8.1  34166  289.69 0855.26
2009/04/23 11:22:18.2      23   -295    -59    296    302 175.5 -11.3  34158  289.54 0855.24
2009/04/23 11:22:18.3      32   -379   -107    381    396 175.1 -15.7  34158  289.54 0855.24
2009/04/23 11:22:18.4      75   -438    -62    445    450 170.2  -8.0  34160  289.56 0855.24
2009/04/23 11:22:18.5     113   -445    -17    460    461 165.7  -2.2  34158  289.55 0855.24
2009/04/23 11:22:18.6      36   -476    -18    478    479 175.6  -2.2  34160  289.57 0855.24
2009/04/23 11:22:18.7     141   -425    -39    448    450 161.6  -5.1  34156  289.49 0855.24
2009/04/23 11:22:18.8      95   -493     -7    503    504 169.1  -0.9  34160  289.57 0855.24
2009/04/23 11:22:18.9      29   -465     -7    466    467 176.4  -0.9  34162  289.61 0855.24
2009/04/23 11:22:19.0     126   -391     53    411    415 162.1   7.4  34162  289.61 0855.24
2009/04/23 11:22:19.1      56   -436     45    440    443 172.6   5.9  34164  289.65 0855.24
2009/04/23 11:22:19.2      31   -420     96    422    433 175.8  12.9  34162  289.60 0855.24
2009/04/23 11:22:19.3      37   -367      3    369    370 174.1   0.5  34160  289.57 0855.24
2009/04/23 11:22:19.4       2   -344     26    345    346 179.5   4.4  34158  289.54 0855.24
2009/04/23 11:22:19.5      -5   -302     15    303    304 181.1   2.9  34150  289.39 0855.24
2009/04/23 11:22:19.6      19   -311    -21    312    313 176.5  -4.0  34126  289.00 0855.24
2009/04/23 11:22:19.7     -41   -348     -1    351    352 186.8  -0.2  34126  288.99 0855.24
2009/04/23 11:22:19.8      25   -327    -12    329    330 175.5  -2.2  34128  289.03 0855.24
2009/04/23 11:22:19.9      23   -301      4    302    303 175.5   0.8  34140  289.24 0855.24
2009/04/23 11:22:20.0      23   -266     54    268    274 174.9  11.6  34144  289.31 0855.24
2009/04/23 11:22:20.1      27   -233     38    235    239 173.3   9.3  34146  289.32 0855.24
2009/04/23 11:22:20.2      27   -140    -13    143    144 168.9  -5.2  34144  289.30 0855.24
2009/04/23 11:22:20.3     -87    -68     79    111    136 232.2  39.1  34156  289.52 0855.24
2009/04/23 11:22:20.4     -81    -47     67     94    115 239.8  39.1  34168  289.72 0855.24
2009/04/23 11:22:20.5     -91    -51     36    105    112 240.7  19.2  34164  289.65 0855.24
2009/04/23 11:22:20.6     -63    -66     67     92    113 223.7  39.7  34162  289.62 0855.24
2009/04/23 11:22:20.7     -61    -12     42     63     75 258.5  35.6  34160  289.58 0855.24
2009/04/23 11:22:20.8     -12     20     62     24     66 329.3  78.2  34164  289.65 0855.24
2009/04/23 11:22:20.9     -12     60     42     62     74 348.5  36.5  34160  289.58 0855.24
2009/04/23 11:22:21.0     -16     63     55     66     85 345.7  44.3  34162  289.60 0855.24
2009/04/23 11:22:21.1     -75     75     43    107    115 314.9  23.0  34164  289.63 0855.24
2009/04/23 11:22:21.2    -114    177     48    211    217 327.3  12.9  34164  289.63 0855.23
2009/04/23 11:22:21.3     -68    202     33    214    217 341.3   9.0  34160  289.58 0855.23
2009/04/23 11:22:21.4     -50    153     39    162    167 341.7  13.7  34162  289.60 0855.23
2009/04/23 11:22:21.5     -72    153     16    170    171 334.6   5.4  34160  289.57 0855.23
2009/04/23 11:22:21.6     -11     95    -12     96     97 353.3  -7.3  34160  289.57 0855.23
2009/04/23 11:22:21.7       0     30     -8     31     33 359.1 -15.4  34160  289.58 0855.23
2009/04/23 11:22:21.8      -1      5      0      6      7 341.7  -2.2  34158  289.55 0855.23
2009/04/23 11:22:21.9     -37     40     19     55     59 316.8  19.4  34164  289.63 0855.23
2009/04/23 11:22:22.0     -70    139    -36    156    161 333.3 -13.2  34162  289.60 0855.23
2009/04/23 11:22:22.1     -20    115    -21    117    119 349.8 -10.3  34164  289.65 0855.23
2009/04/23 11:22:22.2     -69    102    -44    124    132 325.7 -19.6  34158  289.55 0855.23
2009/04/23 11:22:22.3    -120      9     10    121    122 274.4   5.0  34166  289.67 0855.23
2009/04/23 11:22:22.4     -78      6     42     79     89 274.4  30.3  34170  289.75 0855.23
2009/04/23 11:22:22.5       2    -33     73     34     80 175.5  73.5  34180  289.92 0855.23
2009/04/23 11:22:22.6     -90    -93     49    130    138 224.1  21.5  34164  289.63 0855.23
2009/04/23 11:22:22.7     -80   -127    132    151    200 212.1  45.8  34154  289.48 0855.23
2009/04/23 11:22:22.8     -83    -76    127    113    169 227.3  53.7  34176  289.85 0855.23
2009/04/23 11:22:22.9     -33     11    124     35    128 288.4  84.4  34194  290.16 0855.23
2009/04/23 11:22:23.0     -33     18    102     38    108 298.9  79.2  34200  290.25 0855.23
2009/04/23 11:22:23.1     -55     -7     88     56    104 262.1  64.7  34184  289.97 0855.23
2009/04/23 11:22:23.2     -34    -11     88     36     95 251.4  76.6  34194  290.14 0855.23
2009/04/23 11:22:23.3     -35     12     24     38     44 290.0  35.5  34174  289.80 0855.23
2009/04/23 11:22:23.4       2     -3     22      4     22 147.5  90.0  34178  289.89 0855.23
2009/04/23 11:22:23.5      13     -4     35     14     37 108.6  79.2  34172  289.79 0855.23
2009/04/23 11:22:23.6       4    -12     12     13     17 161.7  52.0  34164  289.63 0855.23
2009/04/23 11:22:23.7      -5    -10     -6     12     13 209.0 -31.6  34170  289.75 0855.23
2009/04/23 11:22:23.8     -14      0    -19     15     24 270.0 -60.8  34174  289.80 0855.23
2009/04/23 11:22:23.9      -1     -6    -33      7     33 189.7 -90.0  34184  289.97 0855.23
2009/04/23 11:22:24.0       6      0      7      7      9  90.0  50.1  34178  289.89 0855.23
2009/04/23 11:22:24.1     133    115      6    176    177  49.1   2.1  34172  289.79 0855.23
2009/04/23 11:22:24.2      92    144     32    172    175  32.7  10.6  34174  289.80 0855.23
2009/04/23 11:22:24.3      87    158     17    181    182  28.7   5.4  34174  289.82 0855.23
2009/04/23 11:22:24.4      63    122    -32    138    142  27.2 -13.4  34168  289.72 0855.23
2009/04/23 11:22:24.5      14    104    -49    106    116   8.1 -31.5  34168  289.70 0855.23
2009/04/23 11:22:24.6     -32     79    -29     86     90 337.7 -23.6  34176  289.85 0855.23
2009/04/23 11:22:24.7     -22    145    -70    147    162 351.1 -31.6  34176  289.85 0855.23
2009/04/23 11:22:24.8    -134      0   -122    135    181 270.0 -51.5  34174  289.80 0855.23
2009/04/23 11:22:24.9    -320      9   -224    321    391 271.7 -42.8  34154  289.47 0855.23
2009/04/23 11:22:25.0     -75   -187   -217    202    296 201.8 -56.6  34164  289.64 0855.23
2009/04/23 11:22:25.1      -1   -122   -135    123    182 180.9 -57.1  34166  289.67 0855.23
2009/04/23 11:22:25.2      83   -140    -23    163    165 149.3  -8.2  34164  289.65 0855.25
2009/04/23 11:22:25.3      10   -128      0    129    130 175.5  -0.3  34168  289.72 0855.25
2009/04/23 11:22:25.4    -166     26    -98    169    195 279.0 -37.3  34164  289.65 0855.25
2009/04/23 11:22:25.5    -158    -63      2    171    172 248.3   1.0  34166  289.67 0855.25
2009/04/23 11:22:25.6     -67    -68    140     96    169 224.7  62.4  34186  290.01 0855.25
2009/04/23 11:22:25.7    -230    -94     53    249    255 247.6  12.2  34162  289.59 0855.25
2009/04/23 11:22:25.8    -321    -96    -45    336    340 253.3  -7.7  34148  289.37 0855.25
2009/04/23 11:22:25.9    -361   -118    -93    380    392 251.8 -13.8  34146  289.32 0855.25
2009/04/23 11:22:26.0    -288    -86   -142    301    332 253.2 -31.5  34164  289.63 0855.25
2009/04/23 11:22:26.1    -280   -110   -114    301    321 248.5 -26.0  34184  289.97 0855.25
2009/04/23 11:22:26.2    -177    -82     15    196    197 245.2   4.6  34186  290.01 0855.25
2009/04/23 11:22:26.3    -324    107     80    342    352 288.3  13.2  34166  289.69 0855.25
2009/04/23 11:22:26.4    -345    307   -160    463    490 311.7 -19.1  34168  289.71 0855.25
2009/04/23 11:22:26.5    -233    211   -231    315    390 312.2 -44.3  34192  290.13 0855.25
2009/04/23 11:22:26.6    -257     86    -64    272    280 288.6 -13.4  34188  290.03 0855.25
2009/04/23 11:22:26.7    -274    -24   -121    276    301 264.8 -29.5  34162  289.61 0855.25
2009/04/23 11:22:26.8    -167    -28    193    170    257 260.5  54.2  34186  290.02 0855.25
2009/04/23 11:22:26.9    -138    107    192    175    259 307.8  53.0  34186  290.00 0855.25
2009/04/23 11:22:27.0    -163    174    188    239    304 317.0  42.2  34208  290.37 0855.25
2009/04/23 11:22:27.1    -175    267    104    320    337 326.8  18.0  34202  290.27 0855.25
2009/04/23 11:22:27.2    -217    249    -12    331    332 319.0  -2.2  34214  290.49 0855.25
2009/04/23 11:22:27.3     -93    292   -108    307    326 342.2 -19.5  34196  290.19 0855.25
2009/04/23 11:22:27.4     -96    203    100    225    246 334.5  25.7  34204  290.31 0855.25
2009/04/23 11:22:27.5    -256    255    134    362    386 314.8  21.1  34214  290.49 0855.25
2009/04/23 11:22:27.6    -242    181    -29    303    305 306.9  -5.6  34216  290.51 0855.25
2009/04/23 11:22:27.7    -195    114    -86    227    242 300.4 -26.1  34206  290.36 0855.25
2009/04/23 11:22:27.8    -129    -72      6    148    149 240.7   2.3  34216  290.52 0855.25
2009/04/23 11:22:27.9     -27   -133     50    136    144 191.6  20.9  34212  290.47 0855.25
2009/04/23 11:22:28.0     -27   -194    -10    196    197 188.1  -3.2  34194  290.14 0855.25
2009/04/23 11:22:28.1      46   -285    -74    289    299 170.7 -14.4  34182  289.95 0855.25
2009/04/23 11:22:28.2      50   -357      9    361    362 171.9   1.5  34184  289.98 0855.25
2009/04/23 11:22:28.3     -44   -385    136    388    412 186.6  19.4  34198  290.21 0855.25
2009/04/23 11:22:28.4    -276   -426     56    508    512 213.0   6.4  34248  291.08 0855.25
2009/04/23 11:22:28.5    -207   -349     33    406    408 210.7   4.7  34250  291.11 0855.25
2009/04/23 11:22:28.6    -241   -238   -123    340    361 225.4 -25.1  34220  290.60 0855.25
2009/04/23 11:22:28.7    -158   -379     20    411    412 202.7   2.8  34204  290.33 0855.25
2009/04/23 11:22:28.8    -119   -415     57    432    436 196.0   7.6  34184  289.97 0855.25
2009/04/23 11:22:28.9    -130   -389    -75    411    418 198.5 -10.4  34196  290.19 0855.25
2009/04/23 11:22:29.0    -157   -381     72    413    420 202.4   9.9  34240  290.94 0855.25
2009/04/23 11:22:29.1    -200   -213   -116    293    315 223.2 -27.1  34236  290.87 0855.25
2009/04/23 11:22:29.2    -124   -179   -191    219    290 214.7 -50.2  34218  290.56 0855.24
2009/04/23 11:22:29.3     -95   -240    -47    259    264 201.6 -10.3  34188  290.03 0855.24
2009/04/23 11:22:29.4      79   -266    -35    278    281 163.5  -7.3  34196  290.19 0855.24
2009/04/23 11:22:29.5      71   -281    121    290    314 165.7  24.1  34170  289.73 0855.24
2009/04/23 11:22:29.6      43   -172    178    178    251 165.7  50.1  34174  289.80 0855.24
2009/04/23 11:22:29.7     -59    128    145    142    202 335.1  50.4  34178  289.87 0855.24
2009/04/23 11:22:29.8       0   -178      9    179    180 179.8   2.9  34180  289.92 0855.24
2009/04/23 11:22:29.9     201   -175    -17    267    268 131.1  -3.7  34184  289.97 0855.24
2009/04/23 11:22:30.0     -52   -282   -139    287    318 190.6 -32.2  34192  290.10 0855.24
2009/04/23 11:22:30.1       5   -290    -82    291    302 178.9 -20.4  34180  289.92 0855.24
2009/04/23 11:22:30.2     -34   -371   -248    373    447 185.4 -41.0  34178  289.87 0855.24
2009/04/23 11:22:30.3     -33   -391   -119    393    410 184.9 -21.8  34188  290.04 0855.24
2009/04/23 11:22:30.4      52   -255   -214    261    337 168.4 -48.0  34190  290.07 0855.24
2009/04/23 11:22:30.5     120   -229    -92    259    276 152.4 -19.6  34202  290.27 0855.24
2009/04/23 11:22:30.6     -32   -259    -78    262    274 187.2 -16.6  34192  290.12 0855.24
2009/04/23 11:22:30.7      26   -425   -198    426    469 176.5 -31.0  34176  289.85 0855.24
2009/04/23 11:22:30.8     108   -530   -372    542    657 168.4 -42.3  34178  289.89 0855.24
2009/04/23 11:22:30.9      41   -295   -136    298    327 172.0 -30.8  34186  290.02 0855.24
2009/04/23 11:22:31.0     -37   -328    103    331    347 186.6  17.4  34196  290.18 0855.24
2009/04/23 11:22:31.1    -310   -485    230    576    620 212.6  23.0  34192  290.10 0855.24
2009/04/23 11:22:31.2    -173   -398    220    435    487 203.5  28.9  34200  290.25 0855.23
2009/04/23 11:22:31.3    -175   -458    100    491    502 200.9  11.6  34198  290.23 0855.23
2009/04/23 11:22:31.4     -94   -503    -88    512    520 190.6  -9.8  34136  289.18 0855.23
2009/04/23 11:22:31.5    -309   -448    -43    545    547 214.6  -4.6  34196  290.19 0855.23
2009/04/23 11:22:31.6    -365   -586   -101    691    699 211.9  -8.4  34210  290.43 0855.23
2009/04/23 11:22:31.7    -454   -495   -198    673    702 222.5 -16.4  34198  290.22 0855.23
2009/04/23 11:22:31.8    -461   -502   -261    682    730 222.5 -26.4  34168  289.71 0855.23
2009/04/23 11:22:31.9    -393   -459   -302    605    676 220.5 -32.9  34184  289.98 0855.23
2009/04/23 11:22:32.0    -461   -345   -183    577    606 233.2 -17.6  34222  290.61 0855.23
2009/04/23 11:22:32.1    -495   -308   -207    584    620 238.1 -19.6  34194  290.14 0855.23
2009/04/23 11:22:32.2    -389   -486   -189    623    652 218.7 -16.9  34146  289.33 0855.23
2009/04/23 11:22:32.3    -388   -432   -161    581    603 221.9 -15.5  34144  289.29 0855.23
2009/04/23 11:22:32.4    -387   -380   -217    543    584 225.6 -27.4  34160  289.58 0855.23
2009/04/23 11:22:32.5    -253   -288   -195    384    430 221.3 -33.6  34154  289.46 0855.23
2009/04/23 11:22:32.6    -347   -347    -81    492    499 225.0  -9.4  34152  289.45 0855.23
2009/04/23 11:22:32.7    -436   -327   -140    545    563 233.1 -14.4  34182  289.96 0855.23
2009/04/23 11:22:32.8    -426   -314   -137    530    548 233.6 -14.5  34176  289.84 0855.23
2009/04/23 11:22:32.9    -360   -257   -149    443    468 234.4 -18.7  34170  289.73 0855.23
2009/04/23 11:22:33.0    -435   -157   -213    463    509 250.1 -30.8  34184  289.98 0855.23
2009/04/23 11:22:33.1    -432    -90   -152    442    468 258.2 -19.1  34182  289.94 0855.23
2009/04/23 11:22:33.2    -331   -110   -157    349    382 251.6 -30.4  34182  289.93 0855.21
2009/04/23 11:22:33.3    -262   -319   -140    413    436 219.4 -23.7  34206  290.34 0855.21
2009/04/23 11:22:33.4    -413   -219   -223    468    518 242.0 -31.7  34196  290.18 0855.21
2009/04/23 11:22:33.5    -320   -171   -160    363    396 241.9 -29.6  34188  290.06 0855.21
2009/04/23 11:22:33.6    -217   -154   -181    267    322 234.5 -41.8  34184  289.97 0855.21
2009/04/23 11:22:33.7    -112   -137   -239    178    298 219.4 -64.2  34184  289.97 0855.21
2009/04/23 11:22:33.8    -100   -276   -191    294    350 200.1 -40.1  34160  289.57 0855.21
2009/04/23 11:22:33.9     -82   -369   -197    379    427 192.5 -34.0  34178  289.87 0855.21
2009/04/23 11:22:34.0      -8   -422   -160    423    452 181.2 -26.2  34186  290.00 0855.21
2009/04/23 11:22:34.1      -1   -324   -141    325    354 180.3 -29.5  34176  289.84 0855.21
2009/04/23 11:22:34.2      23   -273   -118    275    299 175.1 -29.3  34178  289.86 0855.21
2009/04/23 11:22:34.3     114   -383    -87    400    410 163.4 -12.4  34168  289.70 0855.21
2009/04/23 11:22:34.4     114   -307    -49    328    332 159.5  -8.6  34170  289.74 0855.21
2009/04/23 11:22:34.5      78   -258     -1    270    271 163.1  -0.3  34168  289.71 0855.21
2009/04/23 11:22:34.6      81   -243     49    257    262 161.5  11.0  34166  289.68 0855.21
2009/04/23 11:22:34.7       8   -336     28    337    339 178.6   4.9  34168  289.72 0855.21
2009/04/23 11:22:34.8      34   -343    -10    345    346 174.2  -1.7  34164  289.64 0855.21
2009/04/23 11:22:34.9     -64   -355    -41    361    364 190.3  -6.6  34170  289.74 0855.21
2009/04/23 11:22:35.0     -46   -294     70    298    307 188.9  13.2  34164  289.64 0855.21
2009/04/23 11:22:35.1       3   -269     79    270    282 179.3  16.4  34168  289.71 0855.21
2009/04/23 11:22:35.2     192   -245    -13    312    313 141.9  -2.5  34172  289.78 0855.20
2009/04/23 11:22:35.3     273   -190    122    333    354 124.9  21.0  34156  289.50 0855.20
2009/04/23 11:22:35.4     234   -142     87    275    289 121.3  17.7  34150  289.39 0855.20
2009/04/23 11:22:35.5     102   -143     96    176    200 144.4  31.0  34142  289.28 0855.20
2009/04/23 11:22:35.6     111   -176     79    209    223 147.7  21.5  34144  289.31 0855.20
2009/04/23 11:22:35.7     134   -145     62    198    208 137.2  17.4  34142  289.28 0855.20
2009/04/23 11:22:35.8     113   -171     23    206    208 146.4   6.5  34152  289.45 0855.20
2009/04/23 11:22:35.9     123    -92     24    154    156 126.9   9.0  34150  289.41 0855.20
2009/04/23 11:22:36.0      67    -96     51    118    128 145.3  25.1  34164  289.65 0855.20
2009/04/23 11:22:36.1      66    -64     86     93    126 134.0  47.9  34176  289.85 0855.20
2009/04/23 11:22:36.2      34   -125     88    130    156 164.8  37.8  34184  289.97 0855.20
2009/04/23 11:22:36.3      92    -91     96    130    161 134.9  40.4  34186  290.02 0855.20
2009/04/23 11:22:36.4      17    -73     84     76    113 166.6  52.7  34186  290.02 0855.20
2009/04/23 11:22:36.5     -16   -125     78    127    149 187.6  35.0  34182  289.96 0855.20
2009/04/23 11:22:36.6      48   -178     53    185    193 164.9  16.0  34202  290.28 0855.20
2009/04/23 11:22:36.7      61   -172     65    183    195 160.2  19.6  34190  290.09 0855.20
2009/04/23 11:22:36.8     113   -141     49    182    189 141.3  15.3  34188  290.04 0855.20
2009/04/23 11:22:36.9      43    -76    123     88    151 150.6  60.6  34198  290.21 0855.20
2009/04/23 11:22:37.1      33      6     72     34     79  78.6  72.9  34206  290.35 0855.20
2009/04/23 11:22:37.2     -48     71     40     87     95 325.7  26.6  34202  290.28 0855.20
2009/04/23 11:22:37.2     -76     82    110    113    157 317.2  49.2  34188  290.06 0855.20
2009/04/23 11:22:37.3    -151     35     68    156    170 283.2  25.1  34184  289.99 0855.20
2009/04/23 11:22:37.4     -23     24    147     34    150 316.6  87.5  34194  290.16 0855.20
2009/04/23 11:22:37.5     -86     51     65    101    120 300.7  35.6  34192  290.13 0855.20
2009/04/23 11:22:37.6    -189     63     37    200    204 288.6  10.6  34178  289.89 0855.20
2009/04/23 11:22:37.7    -158     81   -108    178    208 297.1 -38.6  34164  289.63 0855.20
2009/04/23 11:22:37.8    -180    148     44    234    239 309.5  10.8  34172  289.76 0855.20
2009/04/23 11:22:37.9    -159    127    -13    204    205 308.6  -3.9  34170  289.75 0855.20
2009/04/23 11:22:38.0    -248     81    -10    261    262 288.2  -2.2  34178  289.88 0855.20
2009/04/23 11:22:38.1    -292     83      8    304    305 286.0   1.6  34182  289.95 0855.20
2009/04/23 11:22:38.3    -270    100     62    289    296 290.4  12.1  34178  289.86 0855.20
2009/04/23 11:22:38.3    -292   -219    105    366    381 233.1  16.0  34172  289.76 0855.20
2009/04/23 11:22:38.4    -283   -167    123    329    351 239.4  21.5  34162  289.60 0855.20
2009/04/23 11:22:38.5    -391    -94    110    403    418 256.4  15.3  34168  289.72 0855.20
2009/04/23 11:22:38.6    -300   -213    138    369    393 234.6  21.5  34168  289.72 0855.20
2009/04/23 11:22:38.7    -184   -143    190    234    301 232.2  43.5  34184  289.97 0855.20
2009/04/23 11:22:38.8     -82    -87     50    120    130 223.3  24.1  34178  289.87 0855.20
2009/04/23 11:22:38.9     -87   -293    135    306    334 196.5  25.3  34162  289.61 0855.20
2009/04/23 11:22:39.0     -64   -313    206    320    380 191.6  35.6  34156  289.52 0855.20
2009/04/23 11:22:39.1     -76   -227    260    240    353 198.7  52.5  34158  289.53 0855.20
2009/04/23 11:22:39.2    -123   -202    273    237    361 211.4  54.7  34156  289.49 0855.17
2009/04/23 11:22:39.3    -140   -237    180    276    329 210.7  36.0  34154  289.46 0855.17
2009/04/23 11:22:39.5    -242   -224    107    331    348 227.2  17.9  34156  289.52 0855.17
2009/04/23 11:22:39.6    -113   -279    161    302    342 202.1  30.3  34146  289.32 0855.17
2009/04/23 11:22:39.6    -124   -275    164    302    343 204.3  30.9  34152  289.42 0855.17
2009/04/23 11:22:39.7    -163   -225    149    279    316 216.0  30.5  34158  289.54 0855.17
2009/04/23 11:22:39.8     -39   -191    146    196    244 191.6  40.7  34180  289.92 0855.17
2009/04/23 11:22:39.9     -16   -211    172    212    272 184.4  43.3  34180  289.90 0855.17
2009/04/23 11:22:40.0    -268   -262     95    375    388 225.7  14.3  34202  290.28 0855.17
2009/04/23 11:22:40.1    -174   -320     77    365    374 208.6  12.0  34174  289.82 0855.17
2009/04/23 11:22:40.2     -99   -179    141    205    248 209.0  37.8  34176  289.85 0855.17
2009/04/23 11:22:40.3    -189   -282     88    340    352 213.9  14.5  34196  290.18 0855.17
2009/04/23 11:22:40.4     -71   -247    231    258    346 196.1  46.5  34190  290.07 0855.17
2009/04/23 11:22:40.5    -120   -253    129    281    309 205.5  26.6  34190  290.07 0855.17
2009/04/23 11:22:40.7     -48   -316    194    320    374 188.7  34.1  34196  290.18 0855.17
2009/04/23 11:22:40.7     -16   -211     49    212    218 184.5  13.2  34196  290.18 0855.17
2009/04/23 11:22:40.8     -72   -156     -6    173    174 204.9  -2.1  34198  290.21 0855.17
2009/04/23 11:22:40.9      29    -61     31     68     74 154.6  27.1  34202  290.30 0855.17
2009/04/23 11:22:41.0     -26   -100     97    104    142 194.7  47.9  34192  290.13 0855.17
2009/04/23 11:22:41.1     -40   -178    199    183    270 192.7  52.5  34180  289.90 0855.17
2009/04/23 11:22:41.2       6   -193    197    194    276 178.2  50.4  34192  290.12 0855.16
2009/04/23 11:22:41.3       4     -1    177      5    177 108.4  90.0  34202  290.28 0855.16
2009/04/23 11:22:41.4     -21   -221    279    223    357 185.6  57.5  34184  289.97 0855.16
2009/04/23 11:22:41.5     -31   -288    257    290    387 186.3  46.2  34182  289.93 0855.16
2009/04/23 11:22:41.6     -32   -258    179    261    316 187.1  37.8  34180  289.90 0855.16
2009/04/23 11:22:41.7      23   -148    156    150    216 171.1  51.4  34186  290.02 0855.16
2009/04/23 11:22:41.8      29   -161    185    164    247 169.8  54.0  34182  289.96 0855.16
2009/04/23 11:22:41.9      45   -202    160    208    262 167.3  41.4  34180  289.90 0855.16
2009/04/23 11:22:42.1      92    -41    173    101    200 114.0  67.0  34188  290.06 0855.16
2009/04/23 11:22:42.2      -4     -5    125      7    125 219.6  90.0  34192  290.13 0855.16
2009/04/23 11:22:42.2     106   -130    132    168    213 140.8  42.2  34180  289.92 0855.16
2009/04/23 11:22:42.4      75    -32    131     82    154 113.5  64.7  34206  290.36 0855.16
2009/04/23 11:22:42.5      30     -6     71     31     77 101.5  75.0  34194  290.16 0855.16
2009/04/23 11:22:42.6       2     -1     81      3     81 122.4  90.0  34202  290.30 0855.16
2009/04/23 11:22:42.7     119   -142     80    186    202 140.1  24.9  34188  290.04 0855.16
2009/04/23 11:22:42.8      88   -105     -7    138    139 139.9  -3.2  34188  290.06 0855.16
2009/04/23 11:22:42.9     106    -88     16    138    140 129.6   6.9  34184  289.99 0855.16
2009/04/23 11:22:43.0      48   -134    -28    143    146 160.0 -11.3  34172  289.79 0855.16
2009/04/23 11:22:43.1     137    -14    -42    138    145  96.1 -17.0  34178  289.87 0855.16
2009/04/23 11:22:43.2     153     -2     25    154    157  90.9   9.3  34180  289.91 0855.16
2009/04/23 11:22:43.3     135    -74     53    155    164 118.9  18.9  34186  290.01 0855.15
2009/04/23 11:22:43.4     115   -128     30    173    176 137.9   9.9  34172  289.79 0855.15
2009/04/23 11:22:43.5     139    -10     79    140    160  94.3  31.9  34176  289.85 0855.15
2009/04/23 11:22:43.6     164    -65    124    177    216 111.7  38.8  34180  289.91 0855.15
2009/04/23 11:22:43.7      64     35    179     74    193  61.1  76.8  34186  290.02 0855.15
2009/04/23 11:22:43.8      20    -58    136     62    149 160.8  73.1  34194  290.14 0855.15
2009/04/23 11:22:43.9       4     57     90     58    107   4.4  64.6  34194  290.14 0855.15
2009/04/23 11:22:44.0     -47    -16     67     50     83 250.9  59.4  34190  290.08 0855.15
2009/04/23 11:22:44.1      -2    -24    111     25    113 186.2  88.0  34194  290.14 0855.15
2009/04/23 11:22:44.2      67     36    130     77    151  62.0  66.8  34196  290.19 0855.15
2009/04/23 11:22:44.3      60     -2    128     61    141  92.6  72.9  34200  290.25 0855.15
2009/04/23 11:22:44.4      74     -5    144     75    162  94.3  70.6  34190  290.09 0855.15
2009/04/23 11:22:44.5      -1    -30     87     31     92 182.6  80.2  34194  290.16 0855.15
2009/04/23 11:22:44.6      24   -219    203    221    300 173.7  47.7  34174  289.81 0855.15
2009/04/23 11:22:44.7      10   -168    164    169    235 176.4  49.2  34174  289.82 0855.15
2009/04/23 11:22:44.8     -31   -279    251    281    376 186.5  46.5  34176  289.84 0855.15
2009/04/23 11:22:44.9     -53   -227    159    234    282 193.3  37.4  34168  289.71 0855.15
2009/04/23 11:22:45.0     -34   -243    170    246    299 188.1  38.0  34168  289.71 0855.15
2009/04/23 11:22:45.1       0   -202    219    203    298 180.2  52.2  34172  289.78 0855.15
2009/04/23 11:22:45.2       3   -228    184    229    293 179.1  43.0  34172  289.78 0855.15
2009/04/23 11:22:45.3      16   -160    199    161    255 174.2  56.6  34176  289.85 0855.15
2009/04/23 11:22:45.4     -13   -170    211    171    271 184.4  56.4  34174  289.80 0855.15
2009/04/23 11:22:45.5     -12    -71    113     73    134 189.8  64.6  34176  289.85 0855.15
2009/04/23 11:22:45.6     -70     10    102     71    124 278.8  62.6  34186  290.01 0855.15
2009/04/23 11:22:45.7    -100     98     49    141    150 314.4  19.4  34180  289.91 0855.15
2009/04/23 11:22:45.8     -68    130     56    147    157 332.4  21.7  34172  289.79 0855.15
2009/04/23 11:22:45.9     -46    196     36    202    206 346.6  10.1  34176  289.84 0855.15
2009/04/23 11:22:46.0      -5    118     55    119    131 357.3  27.1  34176  289.85 0855.15
2009/04/23 11:22:46.1      -2    159     58    160    170 359.1  20.4  34176  289.84 0855.15
2009/04/23 11:22:46.2      -8    186     29    187    190 357.3   9.0  34170  289.75 0855.15
2009/04/23 11:22:46.3     -33    123     21    128    130 344.8   9.5  34172  289.77 0855.16
2009/04/23 11:22:46.4     -30     54     -8     62     63 331.0  -7.3  34178  289.87 0855.16
2009/04/23 11:22:46.5       0     -9      0     10     11 175.5   2.9  34176  289.85 0855.16
2009/04/23 11:22:46.6      -8      8    -34     12     36 313.1 -85.6  34180  289.92 0855.16
2009/04/23 11:22:46.7     -22     17    -57     28     63 307.8 -77.2  34180  289.92 0855.16
2009/04/23 11:22:46.8       4     14    -62     15     63  18.5 -90.0  34182  289.94 0855.16
2009/04/23 11:22:46.9      -4    -34    -67     35     75 188.0 -74.2  34184  289.99 0855.16
2009/04/23 11:22:47.0     -10    -63    -31     64     71 189.8 -31.7  34184  289.97 0855.16
2009/04/23 11:22:47.1      16    -38     -9     42     44 156.4 -12.4  34188  290.06 0855.16
2009/04/23 11:22:47.2      88   -136     86    163    184 147.0  30.3  34190  290.08 0855.16
2009/04/23 11:22:47.3     102   -108     76    149    167 136.8  28.7  34188  290.04 0855.16
2009/04/23 11:22:47.4      85   -144     61    168    178 149.5  20.7  34184  289.99 0855.16
2009/04/23 11:22:47.5     110   -137     47    176    183 141.3  15.0  34182  289.96 0855.16
2009/04/23 11:22:47.6     127   -196      4    234    235 147.0   1.2  34180  289.92 0855.16
2009/04/23 11:22:47.7     103   -207    -20    232    233 153.5  -5.1  34184  289.97 0855.16
2009/04/23 11:22:47.8     116   -218    126    248    278 151.9  29.2  34202  290.29 0855.16
2009/04/23 11:22:47.9     150   -221     78    268    280 145.7  16.3  34196  290.19 0855.16
2009/04/23 11:22:48.0      96   -243    148    262    300 158.4  32.1  34188  290.03 0855.16
2009/04/23 11:22:48.1     104   -142    107    177    206 143.9  34.2  34202  290.28 0855.16
2009/04/23 11:22:48.2      81   -162    102    182    208 153.3  31.6  34196  290.19 0855.16
2009/04/23 11:22:48.3     107    -89     98    140    170 129.6  38.6  34204  290.33 0855.17
2009/04/23 11:22:48.4      99    -69     73    121    141 125.1  34.0  34208  290.38 0855.17
2009/04/23 11:22:48.5      23   -161     60    163    173 171.8  20.7  34204  290.33 0855.17
2009/04/23 11:22:48.6      50   -187     75    194    207 164.8  22.0  34206  290.35 0855.17
2009/04/23 11:22:48.7      59   -212     83    221    236 164.4  21.7  34212  290.45 0855.17
2009/04/23 11:22:48.8      75   -224    109    237    260 161.5  26.4  34194  290.15 0855.17
2009/04/23 11:22:48.9      70   -207    110    219    245 161.1  28.5  34194  290.14 0855.17
2009/04/23 11:22:49.0      18   -197    121    198    232 174.7  34.8  34208  290.38 0855.17
2009/04/23 11:22:49.1      -7   -171     87    172    192 182.5  28.7  34196  290.18 0855.17
2009/04/23 11:22:49.2      48   -121     77    131    151 158.2  33.5  34196  290.18 0855.17
2009/04/23 11:22:49.3      39   -121    135    128    186 162.2  52.0  34200  290.25 0855.17
2009/04/23 11:22:49.4      81   -127    107    151    185 147.4  38.8  34192  290.11 0855.17
2009/04/23 11:22:49.5      48   -104     94    115    148 155.1  43.7  34188  290.06 0855.17
2009/04/23 11:22:49.6       4    -72     93     73    118 176.4  57.9  34192  290.13 0855.17
2009/04/23 11:22:49.7     -10   -140    149    141    205 184.5  52.0  34188  290.06 0855.17
2009/04/23 11:22:49.8     -17   -175    149    176    230 185.8  44.3  34196  290.18 0855.17
2009/04/23 11:22:49.9     -31   -196    153    199    251 189.1  41.7  34190  290.07 0855.17
2009/04/23 11:22:50.0     -44   -221    169    226    282 191.3  40.6  34208  290.37 0855.17
2009/04/23 11:22:50.1     -57   -286    179    292    342 191.3  34.6  34232  290.78 0855.17
2009/04/23 11:22:50.2     -56   -237    268    244    362 193.4  53.2  34230  290.75 0855.17
2009/04/23 11:22:50.3    -203   -232    175    309    355 221.2  32.1  34216  290.52 0855.18
2009/04/23 11:22:50.4    -216   -241    191    324    376 221.9  33.3  34230  290.76 0855.18
2009/04/23 11:22:50.5    -150   -312    168    347    385 205.7  27.3  34218  290.57 0855.18
2009/04/23 11:22:50.6    -202   -310    172    371    408 213.1  26.6  34248  291.08 0855.18
2009/04/23 11:22:50.7    -222   -221    105    314    332 225.1  18.6  34248  291.07 0855.18
2009/04/23 11:22:50.8    -185   -191    151    267    306 224.1  31.9  34258  291.24 0855.18
2009/04/23 11:22:50.9    -159   -290     92    331    344 208.7  15.6  34188  290.03 0855.18
2009/04/23 11:22:51.0    -153   -287     71    326    334 208.0  12.3  34202  290.27 0855.18
2009/04/23 11:22:51.1     -97   -293     78    309    319 198.3  14.3  34172  289.76 0855.18
2009/04/23 11:22:51.2     -93   -268    125    284    310 199.2  25.2  34188  290.05 0855.18
2009/04/23 11:22:51.3     -88   -214    170    232    287 202.5  39.7  34190  290.07 0855.18
2009/04/23 11:22:51.4    -103   -216    174    240    296 205.6  39.7  34182  289.93 0855.18
2009/04/23 11:22:51.5    -149   -248     57    290    296 211.0  11.1  34184  289.97 0855.18
2009/04/23 11:22:51.6    -162   -180     47    243    248 221.9  11.1  34176  289.85 0855.18
2009/04/23 11:22:51.7    -190   -157     21    247    248 230.4   4.9  34182  289.93 0855.18
2009/04/23 11:22:51.8    -130   -182     66    224    234 215.6  16.4  34176  289.84 0855.18
2009/04/23 11:22:51.9    -150   -162     25    222    224 222.8   6.5  34176  289.85 0855.18
2009/04/23 11:22:52.0     -93    -93     46    132    140 225.1  19.2  34186  290.01 0855.18
2009/04/23 11:22:52.1     -49   -100     90    112    143 206.3  43.3  34182  289.94 0855.18
2009/04/23 11:22:52.2     -75   -124     90    146    171 211.2  34.8  34188  290.06 0855.18
2009/04/23 11:22:52.3     -83   -131     77    156    173 212.5  28.0  34188  290.04 0855.20
2009/04/23 11:22:52.4     -38   -124     62    130    144 197.4  27.3  34210  290.41 0855.20
2009/04/23 11:22:52.5       4   -125     63    126    140 177.8  28.2  34224  290.65 0855.20
2009/04/23 11:22:52.6     -94   -117    117    151    191 218.7  42.0  34236  290.87 0855.20
2009/04/23 11:22:52.7     -73   -103    116    127    172 215.6  47.1  34240  290.94 0855.20
2009/04/23 11:22:52.8     -55    -80    105     98    143 214.3  52.1  34240  290.92 0855.20
2009/04/23 11:22:52.9     -78     73    137    108    174 313.1  57.7  34226  290.69 0855.20
2009/04/23 11:22:53.0    -105     23     98    108    145 282.8  47.9  34232  290.79 0855.20
2009/04/23 11:22:53.1    -124     37     77    130    151 286.9  33.5  34228  290.74 0855.20
2009/04/23 11:22:53.2    -115    -11     66    116    133 264.3  32.9  34238  290.89 0855.20
2009/04/23 11:22:53.3    -122     -3     42    123    131 268.3  18.9  34224  290.65 0855.20
2009/04/23 11:22:53.4     -50     59     81     78    112 319.5  51.2  34242  290.96 0855.20
2009/04/23 11:22:53.5     -92     76    122    120    171 309.5  50.1  34248  291.08 0855.20
2009/04/23 11:22:53.6    -113     40     79    120    143 289.5  36.0  34252  291.13 0855.20
2009/04/23 11:22:53.7     -99     32    102    105    146 288.2  49.4  34244  290.99 0855.20
2009/04/23 11:22:53.8     -37     45     89     59    106 320.3  63.6  34242  290.96 0855.20
2009/04/23 11:22:53.9     -62     20     82     66    105 288.2  56.9  34244  290.99 0855.20
2009/04/23 11:22:54.0     -61     -4     62     62     87 265.7  50.1  34228  290.74 0855.20
2009/04/23 11:22:54.1     -56      0     41     57     70 270.0  39.7  34216  290.53 0855.20
2009/04/23 11:22:54.2      -3     22     -5     23     24 350.2 -13.4  34230  290.75 0855.20
2009/04/23 11:22:54.3     -16     -6      0     18     19 248.3   2.8  34234  290.84 0855.21
2009/04/23 11:22:54.4     -31    -31     58     44     72 225.0  58.5  34242  290.96 0855.21
2009/04/23 11:22:54.5      -5    -12     56     14     57 201.8  85.9  34244  290.99 0855.21
2009/04/23 11:22:54.6      21    -56     63     61     87 159.1  50.1  34232  290.81 0855.21
2009/04/23 11:22:54.7      11    -56     53     58     78 168.4  47.9  34226  290.69 0855.21
2009/04/23 11:22:54.8     -36     -2     42     37     55 265.7  54.3  34234  290.82 0855.21
2009/04/23 11:22:54.9     -57      2     32     58     66 272.6  31.4  34238  290.91 0855.21
2009/04/23 11:22:55.0     -94      0     45     95    105 270.0  27.2  34238  290.89 0855.21
2009/04/23 11:22:55.1    -162     -2     39    163    168 269.1  13.5  34244  290.99 0855.21
2009/04/23 11:22:55.2    -150     20     25    152    155 277.9   9.5  34242  290.96 0855.21
2009/04/23 11:22:55.3    -163     10     89    164    186 273.5  30.8  34248  291.08 0855.21
2009/04/23 11:22:55.4    -155    -77     93    174    197 243.6  30.6  34258  291.25 0855.21
2009/04/23 11:22:55.5    -107   -100     74    147    164 226.9  28.7  34260  291.26 0855.21
2009/04/23 11:22:55.6     -48   -102     81    113    139 205.5  39.5  34252  291.13 0855.21
2009/04/23 11:22:55.7     -59    -77    114     98    150 217.4  55.4  34268  291.40 0855.21
2009/04/23 11:22:55.8     -56    -67     85     88    122 220.1  49.4  34268  291.40 0855.21
2009/04/23 11:22:55.9     -49    -78     92     93    130 212.5  50.0  34266  291.37 0855.21
2009/04/23 11:22:56.0     -79    -50     39     94    101 237.5  23.1  34266  291.38 0855.21
2009/04/23 11:22:56.1      21    -42     55     48     73 152.8  54.3  34268  291.40 0855.21
2009/04/23 11:22:56.2      56    -37     64     68     93 123.3  49.0  34220  290.60 0855.21
2009/04/23 11:22:56.3      -1   -111     89    112    143 180.9  42.7  34214  290.50 0855.22
2009/04/23 11:22:56.4     -23   -104    106    107    150 192.9  50.0  34210  290.43 0855.22
2009/04/23 11:22:56.5       8    -51    129     52    139 170.2  77.1  34222  290.62 0855.22
2009/04/23 11:22:56.6     -35   -106    120    112    164 198.7  52.0  34212  290.47 0855.22
2009/04/23 11:22:56.7     -52   -134    136    145    198 201.4  48.0  34228  290.74 0855.22
2009/04/23 11:22:56.8     -45   -151    125    158    201 196.9  42.4  34206  290.36 0855.22
2009/04/23 11:22:56.9     -55   -138    113    149    187 201.8  41.2  34208  290.40 0855.22
2009/04/23 11:22:57.0     -40   -100    118    108    159 201.8  52.7  34204  290.31 0855.22
2009/04/23 11:22:57.1     -53    -97     96    111    146 209.0  45.4  34214  290.48 0855.22
2009/04/23 11:22:57.2     -37   -120     79    126    148 197.4  35.5  34218  290.57 0855.22
2009/04/23 11:22:57.3     -14   -136     93    137    165 186.2  37.3  34210  290.41 0855.22
2009/04/23 11:22:57.4       1   -122     87    123    150 179.1  39.1  34198  290.23 0855.22
2009/04/23 11:22:57.5     -60   -110     65    126    141 208.5  29.3  34240  290.94 0855.22
2009/04/23 11:22:57.6     -75   -104     49    129    137 216.0  22.0  34252  291.13 0855.22
2009/04/23 11:22:57.7    -102    -89     94    136    165 228.7  38.0  34298  291.93 0855.22
2009/04/23 11:22:57.8    -122    -68     96    140    169 240.7  37.8  34280  291.62 0855.22
2009/04/23 11:22:57.9    -103    -34     72    109    130 251.4  36.5  34294  291.84 0855.22
2009/04/23 11:22:58.0     -81    -32     79     88    118 248.3  46.9  34286  291.71 0855.22
2009/04/23 11:22:58.1     -66    -14     79     68    104 257.6  54.8  34246  291.03 0855.22
2009/04/23 11:22:58.2     -45      6     69     46     82 277.9  63.2  34296  291.89 0855.22
2009/04/23 11:22:58.3     -56     11     64     58     86 281.5  52.7  34310  292.13 0855.24
2009/04/23 11:22:58.4     -39     11     63     41     75 285.9  64.6  34294  291.84 0855.24
2009/04/23 11:22:58.5     -22     10     48     25     54 295.3  71.9  34284  291.67 0855.24
2009/04/23 11:22:58.6      10     -7     39     13     41 126.0  81.0  34256  291.20 0855.24
2009/04/23 11:22:58.7       0    -24     48     25     54 180.9  71.9  34232  290.79 0855.24
2009/04/23 11:22:58.8     -13    -34     48     37     60 201.8  58.5  34206  290.35 0855.24
2009/04/23 11:22:58.9     -42    -28     42     51     66 236.7  43.7  34196  290.18 0855.24
2009/04/23 11:22:59.0     -53    -25     35     59     68 244.8  34.4  34230  290.77 0855.24
2009/04/23 11:22:59.1     -21    -11     61     24     65 241.1  77.1  34232  290.81 0855.24
2009/04/23 11:22:59.2     -21     21     67     30     73 315.0  74.0  34260  291.26 0855.24
2009/04/23 11:22:59.3     -32     30     78     44     89 313.1  67.7  34290  291.77 0855.24
2009/04/23 11:22:59.4     -26     25     70     37     79 313.3  69.8  34276  291.54 0855.24
2009/04/23 11:22:59.5     -14     22     60     27     65 327.5  74.0  34282  291.66 0855.24
2009/04/23 11:22:59.6     -21      3     60     22     63 279.7  80.2  34270  291.43 0855.24
2009/04/23 11:22:59.7     -30      2     51     31     59 274.4  65.7  34276  291.55 0855.24
2009/04/23 11:22:59.8     -27     31     47     42     63 318.6  52.2  34290  291.77 0855.24
2009/04/23 11:22:59.9     -42     15     47     45     65 290.0  51.2  34298  291.93 0855.24
2009/04/23 11:23:00.0     -53     17     38     56     67 288.6  37.6  34308  292.08 0855.24
2009/04/23 11:23:00.1     -83     40     57     93    109 295.8  35.0  34270  291.45 0855.24
2009/04/23 11:23:00.2     -41     22     62     47     77 298.0  59.4  34252  291.13 0855.24
2009/04/23 11:23:00.3       2     28     41     29     50   4.5  61.5  34226  290.69 0855.26
2009/04/23 11:23:00.4      17     39     45     43     62  23.6  51.2  34228  290.72 0855.26
2009/04/23 11:23:00.5      10     21     32     24     40  27.2  59.4  34220  290.58 0855.26
2009/04/23 11:23:00.6      12      9     51     16     53  54.0  80.7  34226  290.70 0855.26
2009/04/23 11:23:00.7       3     17     74     18     76  11.6  85.9  34254  291.16 0855.26
2009/04/23 11:23:00.8     -17     46     77     50     91 340.0  64.6  34278  291.57 0855.26
2009/04/23 11:23:00.9      -4     58     90     59    107 355.6  64.6  34262  291.30 0855.26
2009/04/23 11:23:01.0     -43     47     74     64     97 317.7  54.3  34260  291.28 0855.26
2009/04/23 11:23:01.1     -38     30     50     49     70 308.6  49.1  34256  291.20 0855.26
2009/04/23 11:23:01.2     -18      1     31     19     36 274.4  64.7  34258  291.23 0855.26
2009/04/23 11:23:01.3       2    -40     20     41     45 176.4  28.2  34250  291.11 0855.26
2009/04/23 11:23:01.4       0    -57     46     58     74 180.9  43.7  34254  291.18 0855.26
2009/04/23 11:23:01.5     -52    -46     44     70     82 228.7  35.5  34260  291.26 0855.26
2009/04/23 11:23:01.6     -82    -21     -2     85     86 255.4  -1.8  34300  291.96 0855.26
2009/04/23 11:23:01.7    -114     -7     13    115    116 266.1   6.9  34300  291.95 0855.26
2009/04/23 11:23:01.8    -118    -29     58    122    135 255.8  27.2  34250  291.09 0855.26
2009/04/23 11:23:01.9    -112    -37     76    119    141 251.6  35.5  34250  291.11 0855.26
2009/04/23 11:23:02.0    -122    -68     55    140    150 240.7  23.0  34252  291.13 0855.26
2009/04/23 11:23:02.1    -102    -66     51    122    132 237.1  23.6  34250  291.09 0855.26
2009/04/23 11:23:02.2     -86    -62     57    107    121 234.0  30.3  34250  291.11 0855.26
2009/04/23 11:23:02.3    -101    -61     36    119    125 238.9  16.8  34260  291.26 0855.27
2009/04/23 11:23:02.4     -60    -77     64     98    117 217.8  35.6  34246  291.04 0855.27
2009/04/23 11:23:02.5     -77    -78     60    110    125 224.7  31.4  34250  291.09 0855.27
2009/04/23 11:23:02.6     -97    -91     -5    134    135 226.9  -2.2  34288  291.76 0855.27
2009/04/23 11:23:02.7     -99   -120     66    156    169 219.7  24.6  34300  291.96 0855.27
2009/04/23 11:23:02.8     -44   -119     58    128    140 200.5  26.2  34296  291.89 0855.27
2009/04/23 11:23:02.9     -74   -137    120    157    197 208.5  41.4  34284  291.69 0855.27
2009/04/23 11:23:03.0    -128   -120     95    176    200 226.9  30.8  34308  292.10 0855.27
2009/04/23 11:23:03.1    -212    -82     13    228    229 248.7   3.3  34328  292.42 0855.27
2009/04/23 11:23:03.2    -197    -74     29    211    214 249.4   8.0  34316  292.22 0855.27
2009/04/23 11:23:03.3    -144    -94     52    173    181 236.7  16.8  34332  292.51 0855.27
2009/04/23 11:23:03.4     -84   -121     75    148    165 214.7  29.1  34330  292.47 0855.27
2009/04/23 11:23:03.5     -80   -104     59    132    144 217.8  25.7  34318  292.27 0855.27
2009/04/23 11:23:03.6    -150   -135     84    202    218 228.0  23.6  34270  291.43 0855.27
2009/04/23 11:23:03.7    -136   -185     55    230    237 216.3  13.5  34246  291.02 0855.27
2009/04/23 11:23:03.8    -150   -188     40    241    245 218.7   9.5  34242  290.95 0855.27
2009/04/23 11:23:03.9    -182   -203     48    273    278 221.9  10.1  34236  290.85 0855.27
2009/04/23 11:23:04.0    -154   -192     70    247    257 218.7  16.0  34234  290.82 0855.27
2009/04/23 11:23:04.1    -119   -219     44    250    254 208.5  10.1  34248  291.05 0855.27
2009/04/23 11:23:04.2    -114   -138     11    180    181 219.6   3.8  34258  291.25 0855.27
2009/04/23 11:23:04.3     -77    -92    -11    121    122 220.1  -5.2  34264  291.33 0855.29
2009/04/23 11:23:04.4    -125    -66    -32    142    146 242.0 -12.9  34268  291.40 0855.29
2009/04/23 11:23:04.5    -122    -75     49    144    153 238.5  18.9  34274  291.52 0855.29
2009/04/23 11:23:04.6    -117   -128     56    174    183 222.5  17.9  34308  292.08 0855.29
2009/04/23 11:23:04.7     -38   -152     99    157    185 194.3  35.5  34216  290.53 0855.29
2009/04/23 11:23:04.8     -61   -176    111    187    217 199.2  33.5  34192  290.13 0855.29
2009/04/23 11:23:04.9     -67   -142    104    158    189 205.3  36.3  34202  290.30 0855.29
2009/04/23 11:23:05.0      -5   -146    110    147    183 182.2  40.4  34196  290.19 0855.29
2009/04/23 11:23:05.1      18    -73    134     76    154 165.7  67.7  34218  290.55 0855.29
2009/04/23 11:23:05.3     -27   -123    137    127    186 192.5  52.2  34194  290.14 0855.31
2009/04/23 11:23:05.4     -31   -184    166    187    250 189.8  46.2  34188  290.04 0855.31
2009/04/23 11:23:05.4     -32   -167    165    171    237 191.1  49.0  34190  290.08 0855.31
2009/04/23 11:23:05.5     -10   -182    187    183    261 183.4  50.7  34186  290.02 0855.31
2009/04/23 11:23:05.6     -24   -229    124    231    262 186.2  30.6  34186  290.02 0855.31
2009/04/23 11:23:05.7      24   -204     98    206    228 173.1  27.3  34192  290.13 0855.31
2009/04/23 11:23:05.8      -3   -195     92    196    216 181.0  27.1  34190  290.08 0855.31
2009/04/23 11:23:05.9      -5   -214     96    215    235 181.4  25.7  34186  290.01 0855.31
2009/04/23 11:23:06.0      33   -233     97    236    255 171.8  23.6  34190  290.09 0855.31
2009/04/23 11:23:06.1      42   -238    103    242    263 169.8  24.2  34190  290.07 0855.31
2009/04/23 11:23:06.2      52   -239    119    245    272 167.6  27.8  34194  290.15 0855.31
2009/04/23 11:23:06.3      46   -226    111    231    256 168.4  27.3  34192  290.12 0855.31
2009/04/23 11:23:06.4      52   -221     99    228    248 166.6  25.1  34188  290.05 0855.31
2009/04/23 11:23:06.5      37   -230     98    234    253 170.7  23.8  34190  290.07 0855.31
2009/04/23 11:23:06.6      54   -243    125    250    279 167.3  28.5  34194  290.14 0855.31
2009/04/23 11:23:06.7      39   -274    108    277    297 171.9  22.5  34192  290.10 0855.31
2009/04/23 11:23:06.8      -2   -249    154    250    293 180.5  34.5  34192  290.12 0855.31
2009/04/23 11:23:06.9      13   -216    174    217    278 176.4  42.7  34194  290.15 0855.31
2009/04/23 11:23:07.0      18   -223    157    224    273 175.1  38.5  34196  290.17 0855.31
2009/04/23 11:23:07.1      44   -218    164    223    276 168.4  39.7  34194  290.14 0855.31
2009/04/23 11:23:07.2      55   -248    129    255    285 167.3  29.1  34188  290.05 0855.31
2009/04/23 11:23:07.3      59   -259    155    266    307 167.1  32.9  34190  290.09 0855.31
2009/04/23 11:23:07.4      -7   -289    118    290    313 181.4  23.5  34196  290.19 0855.31
2009/04/23 11:23:07.5       0   -287    136    288    318 180.0  27.1  34192  290.12 0855.31
2009/04/23 11:23:07.6       8   -312    195    313    368 178.4  35.2  34192  290.11 0855.31
2009/04/23 11:23:07.7      29   -343    186    345    391 175.1  30.6  34188  290.06 0855.31
2009/04/23 11:23:07.8      56   -276    164    282    326 168.5  32.9  34190  290.07 0855.31
2009/04/23 11:23:07.9      42   -273    161    277    320 171.1  32.9  34190  290.07 0855.31
2009/04/23 11:23:08.0      89   -257    193    273    334 160.8  38.8  34194  290.14 0855.31
2009/04/23 11:23:08.1      89   -269    217    284    357 161.5  41.3  34182  289.96 0855.31
2009/04/23 11:23:08.2     -15   -260    134    261    293 183.5  29.3  34182  289.95 0855.31
2009/04/23 11:23:08.3      32   -224     79    227    241 171.9  19.2  34184  289.97 0855.31
2009/04/23 11:23:08.4      48   -194     77    200    214 166.0  21.7  34182  289.96 0855.31
2009/04/23 11:23:08.5      61   -227     78    236    249 164.9  18.4  34184  289.98 0855.31
2009/04/23 11:23:08.6     110   -261     34    284    287 157.2   6.9  34182  289.93 0855.31
2009/04/23 11:23:08.7     131   -250     19    283    284 152.4   3.9  34182  289.93 0855.31
2009/04/23 11:23:08.9      68   -225     -1    236    237 163.1  -0.3  34182  289.95 0855.31
2009/04/23 11:23:09.0      83   -196     24    213    215 157.1   6.5  34186  290.01 0855.31
2009/04/23 11:23:09.1      97   -281     14    298    299 160.8   2.8  34184  289.98 0855.31
2009/04/23 11:23:09.2     120   -285     15    310    311 157.2   2.9  34186  290.02 0855.31
2009/04/23 11:23:09.3     124   -305     64    330    337 157.9  11.1  34188  290.03 0855.31
2009/04/23 11:23:09.4      76   -288     87    299    312 165.1  16.3  34194  290.15 0855.31
2009/04/23 11:23:09.5      98   -325     44    340    343 163.2   7.5  34202  290.27 0855.31
2009/04/23 11:23:09.6      89   -361     44    372    375 166.1   6.9  34202  290.30 0855.31
2009/04/23 11:23:09.7     106   -364     32    380    382 163.7   4.9  34198  290.20 0855.31
2009/04/23 11:23:09.8     131   -289    125    318    341 155.5  22.7  34192  290.13 0855.31
2009/04/23 11:23:09.9     157   -284    128    325    349 151.1  22.7  34188  290.04 0855.31
2009/04/23 11:23:10.0     193   -205     81    282    294 136.8  16.0  34188  290.03 0855.31
2009/04/23 11:23:10.1     202   -275     92    342    355 143.7  15.1  34188  290.03 0855.31
2009/04/23 11:23:10.2     195   -267    125    331    353 143.8  21.7  34182  289.96 0855.31
2009/04/23 11:23:10.3     163   -284     25    328    329 150.1   4.4  34192  290.13 0855.31
2009/04/23 11:23:10.4      66   -340    136    347    372 169.0  22.7  34188  290.04 0855.31
2009/04/23 11:23:10.5      70   -356     66    363    369 168.8  10.4  34184  289.98 0855.31
2009/04/23 11:23:10.6     -60   -274     -1    281    282 192.5  -0.3  34198  290.20 0855.31
2009/04/23 11:23:10.7     -87   -264     26    279    281 198.3   5.4  34188  290.03 0855.31
2009/04/23 11:23:10.8     -95   -286     34    302    304 198.5   6.5  34184  289.98 0855.31
2009/04/23 11:23:10.9    -131   -321     22    347    348 202.3   3.7  34190  290.08 0855.31
2009/04/23 11:23:11.0    -155   -265    -46    308    312 210.3  -8.6  34202  290.27 0855.31
2009/04/23 11:23:11.1    -176   -275    -42    327    330 212.6  -7.4  34202  290.28 0855.31
2009/04/23 11:23:11.2    -172   -287     38    335    338 210.9   6.6  34204  290.33 0855.31
2009/04/23 11:23:11.3    -252   -272     46    372    375 222.8   7.1  34204  290.32 0855.31
2009/04/23 11:23:11.4    -265   -405     58    485    489 213.2   6.9  34192  290.13 0855.30
2009/04/23 11:23:11.5    -225   -441     26    496    497 207.1   3.0  34188  290.03 0855.30
2009/04/23 11:23:11.6    -159   -464     23    491    492 198.9   2.8  34192  290.13 0855.30
2009/04/23 11:23:11.7    -388   -336      8    514    515 229.1   0.9  34190  290.08 0855.30
2009/04/23 11:23:11.8    -298   -225     -8    374    375 232.9  -1.3  34194  290.16 0855.30
2009/04/23 11:23:11.9    -134   -254     22    288    289 207.9   4.4  34190  290.07 0855.30
2009/04/23 11:23:12.0    -181   -347    -50    392    396 207.5  -7.3  34184  289.98 0855.30
2009/04/23 11:23:12.1    -171   -285    -18    333    334 211.0  -3.2  34178  289.86 0855.30
2009/04/23 11:23:12.2    -130   -324    -70    350    357 201.9 -11.3  34166  289.69 0855.30
2009/04/23 11:23:12.3     -74   -350      4    358    359 192.0   0.7  34188  290.04 0855.30
2009/04/23 11:23:12.4     -93   -349     11    362    363 195.0   1.8  34190  290.08 0855.30
2009/04/23 11:23:12.5     -91   -291     53    305    310 197.4   9.9  34190  290.09 0855.30
2009/04/23 11:23:12.6    -100   -196     80    221    236 207.2  19.9  34192  290.11 0855.30
2009/04/23 11:23:12.7    -127   -240    100    272    289 208.0  21.0  34194  290.14 0855.30
2009/04/23 11:23:12.8    -131   -192    105    233    255 214.3  26.2  34194  290.14 0855.30
2009/04/23 11:23:12.9    -173   -208     63    271    279 219.7  13.2  34188  290.05 0855.30
2009/04/23 11:23:13.0    -146   -182    127    234    266 218.7  31.0  34192  290.10 0855.30
2009/04/23 11:23:13.1    -103   -110     99    151    180 223.2  36.3  34194  290.14 0855.30
2009/04/23 11:23:13.2       1    -62     92     63    111 178.2  62.6  34210  290.43 0855.30
2009/04/23 11:23:13.3     -26   -132     87    135    160 191.5  36.0  34198  290.21 0855.30
2009/04/23 11:23:13.4     -85   -258     42    272    276 198.3   8.9  34184  289.97 0855.30
2009/04/23 11:23:13.5     -36   -308    116    311    331 186.7  21.4  34188  290.03 0855.30
2009/04/23 11:23:13.6     -18   -315    139    316    345 183.4  25.3  34188  290.06 0855.30
2009/04/23 11:23:13.7     -37   -269     51    272    277 188.0  10.8  34190  290.07 0855.30
2009/04/23 11:23:13.8     -74   -331     96    340    354 192.6  15.8  34192  290.10 0855.30
2009/04/23 11:23:13.9     -63   -287     66    295    303 192.5  12.6  34188  290.05 0855.30
2009/04/23 11:23:14.0     -85   -259     87    273    287 198.3  17.7  34192  290.12 0855.30
2009/04/23 11:23:14.1     -70   -211     69    223    234 198.5  17.3  34192  290.13 0855.30
2009/04/23 11:23:14.2     -75   -193     83    208    223 201.4  23.0  34196  290.19 0855.30
2009/04/23 11:23:14.3     -47   -161    104    168    197 196.3  34.8  34194  290.16 0855.30
2009/04/23 11:23:14.4       2   -117     98    118    153 178.6  43.8  34196  290.19 0855.30
2009/04/23 11:23:14.5      19    -92     87     95    128 168.0  47.9  34196  290.18 0855.30
2009/04/23 11:23:14.6      37   -156    114    161    197 166.6  38.8  34182  289.96 0855.30
2009/04/23 11:23:14.7      97   -216    103    237    258 155.7  25.1  34186  290.02 0855.30
2009/04/23 11:23:14.8     100   -298    105    315    333 161.3  18.5  34186  290.00 0855.30
2009/04/23 11:23:14.9      95   -329     65    343    350 163.9  10.8  34186  290.01 0855.30
2009/04/23 11:23:15.0      81   -289    104    301    319 164.2  19.2  34184  289.97 0855.30
2009/04/23 11:23:15.1      -1   -304     32    305    307 180.2   6.1  34194  290.14 0855.30
2009/04/23 11:23:15.2      13   -280    -35    281    284 177.3  -7.2  34194  290.14 0855.30
2009/04/23 11:23:15.3      20   -147    -63    149    161 172.0 -28.7  34188  290.04 0855.30
2009/04/23 11:23:15.4      12   -163     -9    164    165 175.5  -3.3  34184  289.99 0855.29
2009/04/23 11:23:15.5      35   -232     -1    235    236 171.3  -0.3  34188  290.05 0855.29
2009/04/23 11:23:15.6      99   -259     52    278    283 159.0  10.6  34178  289.88 0855.29
2009/04/23 11:23:15.7      61   -278    -61    285    292 167.5 -12.2  34180  289.92 0855.29
2009/04/23 11:23:15.8      69   -271    -77    280    291 165.7 -15.4  34168  289.71 0855.29
2009/04/23 11:23:15.9      66   -269    -35    277    280 166.2  -7.3  34188  290.03 0855.29
2009/04/23 11:23:16.0     106   -315    -25    333    334 161.4  -4.4  34188  290.06 0855.29
2009/04/23 11:23:16.1      75   -327      9    336    337 167.0   1.6  34194  290.15 0855.29
2009/04/23 11:23:16.2      -9   -316     21    317    318 181.8   3.8  34192  290.10 0855.29
2009/04/23 11:23:16.3      24   -327    -52    328    333 175.7  -9.0  34186  290.01 0855.29
2009/04/23 11:23:16.4     -11   -292    -54    293    298 182.2 -10.5  34202  290.29 0855.29
2009/04/23 11:23:16.5     -32   -282    -26    284    286 186.5  -5.4  34212  290.44 0855.29
2009/04/23 11:23:16.6       1   -312    -41    313    316 179.8  -7.5  34218  290.56 0855.29
2009/04/23 11:23:16.7       6   -357   -102    358    372 179.0 -20.5  34184  289.99 0855.29
2009/04/23 11:23:16.8     -24   -309   -129    311    336 184.5 -28.2  34184  289.98 0855.29
2009/04/23 11:23:16.9     -58   -273   -113    280    301 192.0 -27.4  34196  290.19 0855.29
2009/04/23 11:23:17.0     -62   -267   -112    275    296 193.1 -27.5  34190  290.09 0855.29
2009/04/23 11:23:17.1      32   -226    -90    229    246 171.9 -26.9  34190  290.07 0855.29
2009/04/23 11:23:17.2     -12   -272   -116    273    296 182.7 -28.7  34196  290.17 0855.29
2009/04/23 11:23:17.3    -160   -220   -124    273    299 216.0 -30.6  34206  290.36 0855.29
2009/04/23 11:23:17.4    -152   -163   -162    223    275 223.0 -44.1  34218  290.56 0855.28
2009/04/23 11:23:17.5     -76   -253   -136    265    297 196.7 -33.7  34208  290.39 0855.28
2009/04/23 11:23:17.6    -134   -185   -125    229    260 215.8 -35.7  34210  290.42 0855.28
2009/04/23 11:23:17.7    -157   -112   -131    194    234 234.5 -41.4  34222  290.62 0855.28
2009/04/23 11:23:17.8    -148   -195   -115    245    270 217.2 -31.5  34204  290.32 0855.28
2009/04/23 11:23:17.9    -106   -205   -112    231    256 207.4 -31.8  34176  289.83 0855.28
2009/04/23 11:23:18.0     -62   -209    -99    219    240 196.5 -30.6  34164  289.64 0855.28
2009/04/23 11:23:18.1      43   -214   -105    219    242 168.5 -31.8  34176  289.85 0855.28
2009/04/23 11:23:18.2      99   -247    -83    267    279 158.2 -22.3  34186  290.00 0855.28
2009/04/23 11:23:18.3     108   -264    -36    286    289 157.7  -7.3  34180  289.92 0855.28
2009/04/23 11:23:18.4     -10   -223    -12    224    225 182.6  -3.1  34166  289.67 0855.28
2009/04/23 11:23:18.5      -9   -214     26    215    217 182.6   7.1  34178  289.89 0855.28
2009/04/23 11:23:18.6      10   -214     46    215    220 177.1  12.2  34186  290.01 0855.28
2009/04/23 11:23:18.7      28   -221      3    223    224 172.7   0.8  34180  289.91 0855.28
2009/04/23 11:23:18.8      50   -262    -14    267    268 169.1  -3.2  34178  289.88 0855.28
2009/04/23 11:23:18.9      93   -288    -38    303    306 162.0  -7.3  34180  289.92 0855.28
2009/04/23 11:23:19.0     107   -234    -19    258    259 155.5  -4.4  34182  289.93 0855.28
2009/04/23 11:23:19.1     228   -200    -41    304    307 131.3  -7.7  34180  289.92 0855.28
2009/04/23 11:23:19.2     191   -242    -80    309    320 141.7 -14.5  34158  289.53 0855.28
2009/04/23 11:23:19.3     153   -225    -97    273    290 145.8 -19.6  34156  289.49 0855.28
2009/04/23 11:23:19.4     106   -235     -8    258    259 155.7  -1.8  34168  289.71 0855.27
2009/04/23 11:23:19.5      36   -214    -19    218    219 170.4  -5.1  34164  289.65 0855.27
2009/04/23 11:23:19.6      75   -205    -15    219    220 159.9  -4.1  34160  289.58 0855.27
2009/04/23 11:23:19.7      75   -210     14    224    225 160.2   3.8  34158  289.55 0855.27
2009/04/23 11:23:19.8      34   -188     37    192    196 169.5  11.0  34168  289.70 0855.27
2009/04/23 11:23:19.9     -17   -236     22    237    239 184.2   5.4  34186  290.02 0855.27
2009/04/23 11:23:20.0     -43   -198     65    203    214 192.3  17.7  34184  289.97 0855.27
2009/04/23 11:23:20.1     -24   -188     77    190    205 187.3  23.1  34184  289.97 0855.27
2009/04/23 11:23:20.2     -43   -254     80    258    271 189.7  17.3  34184  289.98 0855.27
2009/04/23 11:23:20.3    -101   -232      4    254    255 203.6   1.0  34178  289.88 0855.27
2009/04/23 11:23:20.4    -129   -219     31    255    257 210.5   7.1  34196  290.19 0855.27
2009/04/23 11:23:20.5    -110   -206      2    234    235 208.3   0.5  34166  289.68 0855.27
2009/04/23 11:23:20.6     -69   -238    -68    248    258 196.3 -15.4  34174  289.81 0855.27
2009/04/23 11:23:20.7      -6   -219    -66    220    229 181.8 -21.7  34174  289.80 0855.27
2009/04/23 11:23:20.8      14   -185    -35    186    190 175.5 -10.9  34164  289.63 0855.27
2009/04/23 11:23:20.9      -5   -166     32    167    171 181.8  11.1  34172  289.77 0855.27
2009/04/23 11:23:21.0     -76   -161     70    179    192 205.3  22.5  34168  289.72 0855.27
2009/04/23 11:23:21.1     -53   -122     92    134    162 203.7  37.8  34172  289.79 0855.27
2009/04/23 11:23:21.2     -35    -98    100    105    145 200.0  49.0  34182  289.94 0855.27
2009/04/23 11:23:21.3      34    -73     80     81    113 154.5  50.5  34180  289.92 0855.27
2009/04/23 11:23:21.4      39   -119     81    126    149 161.7  35.6  34166  289.69 0855.26
2009/04/23 11:23:21.5      74   -144     99    162    189 152.8  34.4  34170  289.75 0855.26
2009/04/23 11:23:21.6      57   -178    100    187    212 162.2  30.6  34166  289.69 0855.26
2009/04/23 11:23:21.7      59   -260    118    267    291 167.1  25.2  34174  289.80 0855.26
2009/04/23 11:23:21.8      43   -345    148    348    378 172.8  24.5  34176  289.84 0855.26
2009/04/23 11:23:21.9     -64   -368     87    374    385 189.9  13.1  34178  289.86 0855.26
2009/04/23 11:23:22.0     -41   -485     50    487    490 184.9   5.9  34188  290.03 0855.26
2009/04/23 11:23:22.1       0   -488     19    489    490 180.1   2.3  34188  290.06 0855.26
2009/04/23 11:23:22.2     -34   -456     22    458    459 184.3   2.8  34180  289.90 0855.26
2009/04/23 11:23:22.3     -89   -452     -9    461    462 191.2  -1.2  34192  290.11 0855.26
2009/04/23 11:23:22.4     -93   -499    -81    508    515 190.6  -9.1  34188  290.06 0855.26
2009/04/23 11:23:22.5    -131   -426    -51    446    449 197.2  -6.6  34184  289.99 0855.26
2009/04/23 11:23:22.6    -198   -466     -7    507    508 203.1  -0.9  34188  290.05 0855.26
2009/04/23 11:23:22.7    -240   -405    -95    471    481 210.7 -11.5  34186  290.01 0855.26
2009/04/23 11:23:22.8    -262   -445    -72    517    523 210.5  -8.0  34180  289.92 0855.26
2009/04/23 11:23:22.9    -250   -423    -85    492    500 210.6  -9.9  34134  289.13 0855.26
2009/04/23 11:23:23.0    -247   -429    -76    496    502 209.9  -8.7  34128  289.03 0855.26
2009/04/23 11:23:23.1    -176   -374    -36    414    416 205.2  -5.1  34130  289.05 0855.26
2009/04/23 11:23:23.2    -188   -335    -63    385    391 209.3  -9.3  34126  288.99 0855.26
2009/04/23 11:23:23.3    -191   -306   -100    361    374 212.0 -20.0  34130  289.08 0855.26
2009/04/23 11:23:23.4    -159   -308    -97    347    360 207.4 -20.3  34136  289.15 0855.25
2009/04/23 11:23:23.5    -153   -261   -116    303    324 210.5 -26.2  34140  289.22 0855.25
2009/04/23 11:23:23.6     -78   -274   -150    286    322 196.0 -34.2  34136  289.17 0855.25
2009/04/23 11:23:23.7     -93   -297   -127    312    336 197.4 -27.8  34142  289.26 0855.25
2009/04/23 11:23:23.8    -175   -278   -230    329    401 212.2 -42.9  34130  289.08 0855.25
2009/04/23 11:23:23.9    -145   -236   -253    278    375 211.6 -51.5  34126  288.99 0855.25
2009/04/23 11:23:24.0    -240   -199   -204    312    372 230.4 -40.8  34148  289.37 0855.25
2009/04/23 11:23:24.1    -309    -88   -201    322    379 254.1 -39.6  34148  289.37 0855.25
2009/04/23 11:23:24.2    -294    -99   -175    311    356 251.4 -36.3  34152  289.45 0855.25
2009/04/23 11:23:24.3    -248    -42   -115    252    277 260.4 -30.6  34158  289.53 0855.25
2009/04/23 11:23:24.4    -205   -105    -93    231    249 242.9 -27.4  34148  289.37 0855.25
2009/04/23 11:23:24.5    -202    -73    -41    216    220 250.0 -10.9  34150  289.41 0855.25
2009/04/23 11:23:24.6    -146   -107     23    182    184 233.6   7.2  34156  289.50 0855.25
2009/04/23 11:23:24.7     -97    -98    -21    139    141 224.7  -8.8  34158  289.53 0855.25
2009/04/23 11:23:24.8      12   -175    -49    176    182 176.0 -20.2  34146  289.33 0855.25
2009/04/23 11:23:24.9      12   -194    -61    195    205 176.2 -17.5  34158  289.53 0855.25
2009/04/23 11:23:25.0     107   -253    -55    275    281 157.1 -11.5  34160  289.58 0855.25
2009/04/23 11:23:25.1     176   -183    -32    255    258 136.1  -7.3  34158  289.53 0855.25
2009/04/23 11:23:25.2     207   -195   -144    285    319 133.3 -33.3  34148  289.36 0855.25
2009/04/23 11:23:25.3     242   -176    -92    300    313 126.0 -22.1  34150  289.39 0855.25
2009/04/23 11:23:25.4     128   -231    -62    265    273 151.0 -13.3  34148  289.36 0855.23
2009/04/23 11:23:25.5     182   -175     25    253    255 133.8   5.7  34146  289.34 0855.23
2009/04/23 11:23:25.6     148   -148    -62    210    218 135.0 -21.5  34152  289.43 0855.23
2009/04/23 11:23:25.7     122   -192    -64    228    236 147.5 -20.4  34154  289.47 0855.23
2009/04/23 11:23:25.8     127   -118      4    174    175 132.9   1.6  34150  289.41 0855.23
2009/04/23 11:23:25.9     106    -82    -31    135    139 127.8 -13.3  34154  289.48 0855.23
2009/04/23 11:23:26.0     116    -87   -117    146    187 126.9 -47.7  34156  289.52 0855.23
2009/04/23 11:23:26.1      64   -101   -102    120    157 147.5 -49.5  34158  289.53 0855.23
2009/04/23 11:23:26.2     -32   -141   -106    145    179 192.9 -44.1  34160  289.58 0855.23
2009/04/23 11:23:26.3      19   -165   -144    167    220 173.3 -49.8  34162  289.60 0855.23
2009/04/23 11:23:26.4      58   -232    -52    240    246 166.0 -12.4  34170  289.75 0855.23
2009/04/23 11:23:26.5     201   -242    -32    315    317 140.3  -6.0  34174  289.80 0855.23
2009/04/23 11:23:26.6     205   -189    -88    279    293 132.7 -17.6  34178  289.88 0855.23
2009/04/23 11:23:26.7     204   -334    -70    392    399 148.6 -10.2  34160  289.57 0855.23
2009/04/23 11:23:26.8     201   -412   -152    459    483 154.0 -23.6  34152  289.45 0855.23
2009/04/23 11:23:26.9      64   -439   -265    444    517 171.7 -38.0  34156  289.52 0855.23
2009/04/23 11:23:27.0      83   -505   -212    512    554 170.6 -28.3  34148  289.36 0855.23
2009/04/23 11:23:27.1     -11   -457   -199    458    499 181.4 -29.5  34162  289.59 0855.23
2009/04/23 11:23:27.2     140   -417   -301    441    533 161.4 -42.0  34162  289.61 0855.23
2009/04/23 11:23:27.3     137   -318   -268    347    438 156.6 -46.0  34164  289.63 0855.23
2009/04/23 11:23:27.4     101   -245   -195    266    329 157.5 -44.3  34166  289.66 0855.23
2009/04/23 11:23:27.5       6   -262    -98    263    280 178.6 -25.4  34156  289.51 0855.23
2009/04/23 11:23:27.6     -62   -239    -91    248    264 194.7 -25.3  34160  289.58 0855.23
2009/04/23 11:23:27.7    -108   -227    -89    252    267 205.4 -24.4  34160  289.56 0855.23
2009/04/23 11:23:27.8     -73   -241    -73    253    263 196.9 -21.0  34164  289.63 0855.23
2009/04/23 11:23:27.9     -60   -271   -110    278    298 192.7 -27.4  34162  289.59 0855.23
2009/04/23 11:23:28.0     -53   -224    -68    231    240 193.4 -21.5  34164  289.63 0855.23
2009/04/23 11:23:28.1    -103   -237    -71    259    268 203.6 -20.0  34168  289.70 0855.23
2009/04/23 11:23:28.2    -100   -174    139    201    244 209.9  38.4  34176  289.84 0855.23
2009/04/23 11:23:28.3    -111   -174    110    207    234 212.6  30.3  34180  289.92 0855.23
2009/04/23 11:23:28.4    -104   -191     98    218    239 208.7  25.9  34192  290.13 0855.23
2009/04/23 11:23:28.5    -111   -278      5    300    301 201.8   1.0  34176  289.83 0855.23
2009/04/23 11:23:28.6     -89   -261     34    276    279 198.9   7.2  34178  289.88 0855.23
2009/04/23 11:23:28.7     -73   -220     46    232    237 198.5  11.4  34172  289.78 0855.23
2009/04/23 11:23:28.8     -53   -275    112    281    302 190.9  23.0  34176  289.83 0855.23
2009/04/23 11:23:28.9      30   -375     30    377    379 175.4   4.6  34168  289.71 0855.23
2009/04/23 11:23:29.0      91   -383    129    394    415 166.6  18.2  34174  289.82 0855.23
2009/04/23 11:23:29.1     145   -344    103    374    388 157.1  15.4  34172  289.76 0855.23
2009/04/23 11:23:29.2     102   -309     95    326    340 161.7  16.3  34166  289.69 0855.23
2009/04/23 11:23:29.3      73   -308    151    317    351 166.6  27.3  34176  289.84 0855.23
2009/04/23 11:23:29.4      41   -295    187    298    351 172.0  35.1  34182  289.96 0855.18
2009/04/23 11:23:29.5      64   -326    168    333    372 168.8  28.9  34178  289.86 0855.18
2009/04/23 11:23:29.6     146   -421    121    446    463 160.8  15.2  34154  289.48 0855.18
2009/04/23 11:23:29.7      97   -362    273    375    463 165.0  39.7  34176  289.85 0855.18
2009/04/23 11:23:29.8     203   -359     72    413    420 150.5   9.9  34168  289.72 0855.18
2009/04/23 11:23:29.9      91   -325     54    338    343 164.3   9.2  34174  289.81 0855.18
2009/04/23 11:23:30.0     -67   -384     83    391    400 190.0  12.1  34170  289.74 0855.18
2009/04/23 11:23:30.1    -154   -519    -33    542    543 196.5  -3.5  34176  289.84 0855.18
2009/04/23 11:23:30.2     -89   -524   -153    532    553 189.7 -20.8  34172  289.79 0855.18
2009/04/23 11:23:30.3    -255   -508   -156    569    591 206.7 -15.4  34166  289.66 0855.18
2009/04/23 11:23:30.4    -201   -487   -136    528    546 202.5 -14.5  34158  289.55 0855.16
2009/04/23 11:23:30.5    -160   -504   -190    529    563 197.7 -19.8  34162  289.62 0855.16
2009/04/23 11:23:30.6    -153   -455   -190    481    517 198.6 -27.1  34162  289.62 0855.16
2009/04/23 11:23:30.7    -227   -377   -244    441    504 211.1 -35.8  34160  289.56 0855.16
2009/04/23 11:23:30.8    -258   -292   -173    391    427 221.5 -30.0  34176  289.83 0855.16
2009/04/23 11:23:30.9    -252   -304    -71    395    402 219.6 -10.2  34180  289.91 0855.16
2009/04/23 11:23:31.0    -199   -280    -63    344    350 215.5 -10.5  34182  289.96 0855.16
2009/04/23 11:23:31.1    -152   -267     -6    308    309 209.6  -1.3  34194  290.15 0855.16
2009/04/23 11:23:31.2     -79   -301    -27    312    314 194.7  -5.1  34208  290.39 0855.16
2009/04/23 11:23:31.3    -171   -473   -159    504    529 200.0 -17.6  34162  289.62 0855.16
2009/04/23 11:23:31.4     -81   -502   -235    509    560 189.2 -31.0  34160  289.58 0855.16
2009/04/23 11:23:31.5     -89   -523    -63    531    535 189.7  -6.8  34170  289.75 0855.16
2009/04/23 11:23:31.6      15   -536   -112    537    549 178.4 -11.8  34164  289.63 0855.16
2009/04/23 11:23:31.7     231   -608    -52    651    654 159.2  -4.6  34158  289.55 0855.16
2009/04/23 11:23:31.8     173   -488    126    519    535 160.4  13.7  34160  289.57 0855.16
2009/04/23 11:23:31.9      29   -575    179    576    604 177.1  17.3  34168  289.71 0855.16
2009/04/23 11:23:32.0     -17   -582    137    583    599 181.7  13.2  34172  289.76 0855.16
2009/04/23 11:23:32.1     -92   -592     45    600    602 188.9   4.3  34166  289.69 0855.16
2009/04/23 11:23:32.2      -8   -724   -121    725    735 180.7  -9.5  34146  289.33 0855.16
2009/04/23 11:23:32.3     -35   -669   -150    670    687 183.0 -12.7  34144  289.29 0855.16
2009/04/23 11:23:32.4     -92   -621   -146    628    645 188.5 -13.2  34146  289.35 0855.13
2009/04/23 11:23:32.5     -39   -624    -24    626    627 183.6  -2.2  34162  289.62 0855.13
2009/04/23 11:23:32.6      -8   -546    143    547    566 180.9  14.7  34166  289.68 0855.13
2009/04/23 11:23:32.7      56   -561     68    564    569 174.2   6.9  34164  289.65 0855.13
2009/04/23 11:23:32.8     137   -625     51    640    643 167.6   4.6  34146  289.33 0855.13
2009/04/23 11:23:32.9      94   -689    163    696    715 172.2  13.2  34146  289.33 0855.13
2009/04/23 11:23:33.0      91   -711    233    717    754 172.7  18.0  34146  289.34 0855.13
2009/04/23 11:23:33.1     122   -772    130    782    793 171.0   9.5  34150  289.41 0855.13
2009/04/23 11:23:33.2       1   -764     79    765    770 179.9   5.9  34156  289.50 0855.13
2009/04/23 11:23:33.3    -121   -683      8    694    695 190.1   0.7  34170  289.73 0855.13
2009/04/23 11:23:33.4    -194   -699    -17    726    727 195.5  -1.4  34170  289.74 0855.13
2009/04/23 11:23:33.5    -192   -745     68    770    774 194.5   5.1  34164  289.64 0855.13
2009/04/23 11:23:33.6     -23   -332      5    333    334 184.0   0.9  34172  289.76 0855.13
2009/04/23 11:23:33.7      66   -560    -25    564    565 173.2  -2.6  34172  289.79 0855.13
2009/04/23 11:23:33.8     -54   -640    -73    643    648 184.9  -6.5  34164  289.65 0855.13
2009/04/23 11:23:33.9    -276   -398     26    485    486 214.7   3.1  34170  289.74 0855.13
2009/04/23 11:23:34.0     -75   -482    -41    488    490 188.9  -4.9  34170  289.73 0855.13
2009/04/23 11:23:34.1    -121   -524    -58    538    542 193.0  -6.2  34170  289.74 0855.13
2009/04/23 11:23:34.2    -136   -484     28    503    504 195.7   3.3  34172  289.78 0855.13
2009/04/23 11:23:34.3     -96   -516     -8    525    526 190.6  -0.9  34164  289.63 0855.13
2009/04/23 11:23:34.4     -40   -514      0    516    517 184.5   0.0  34138  289.20 0855.13
2009/04/23 11:23:34.5     -99   -503     16    513    514 191.2   1.8  34156  289.50 0855.13
2009/04/23 11:23:34.6    -115   -451    -42    466    468 194.3  -5.2  34168  289.71 0855.13
2009/04/23 11:23:34.7    -189   -346   -145    395    420 208.6 -25.4  34182  289.94 0855.13
2009/04/23 11:23:34.8    -253   -322   -146    410    436 218.1 -19.7  34168  289.72 0855.13
2009/04/23 11:23:34.9    -151   -300    -70    336    344 206.7 -11.8  34172  289.76 0855.13
2009/04/23 11:23:35.0    -127   -303    -31    329    331 202.7  -5.5  34172  289.77 0855.13
2009/04/23 11:23:35.1    -158   -282     54    324    329 209.3   9.5  34160  289.58 0855.13
2009/04/23 11:23:35.2    -135   -315    -18    343    344 203.2  -3.0  34162  289.62 0855.13
2009/04/23 11:23:35.3    -124   -297    -30    323    325 202.7  -5.5  34156  289.51 0855.13
2009/04/23 11:23:35.4     -65   -348     -8    355    356 190.7  -1.4  34158  289.54 0855.13
2009/04/23 11:23:35.5     -48   -395    -15    398    399 187.0  -2.2  34120  288.88 0855.13
2009/04/23 11:23:35.6     -76   -448    -32    455    457 189.7  -4.1  34118  288.87 0855.13
2009/04/23 11:23:35.7     -34   -454     -9    456    457 184.3  -1.2  34114  288.80 0855.13
2009/04/23 11:23:35.8     -61   -434    -25    439    440 188.1  -3.3  34126  289.00 0855.13
2009/04/23 11:23:35.9     -35   -407    -15    409    410 185.0  -2.2  34122  288.92 0855.13
2009/04/23 11:23:36.1     -68   -398    -19    404    405 189.7  -2.8  34122  288.94 0855.13
2009/04/23 11:23:36.1     -42   -403     12    406    407 186.1   1.8  34118  288.87 0855.13
2009/04/23 11:23:36.2     -88   -432     21    442    443 191.6   2.8  34126  289.00 0855.13
2009/04/23 11:23:36.3     -35   -377     47    379    382 185.4   7.1  34122  288.94 0855.13
2009/04/23 11:23:36.4     -47   -368     47    372    375 187.3   7.2  34132  289.11 0855.14
2009/04/23 11:23:36.5      -3   -330     77    331    340 180.6  13.1  34132  289.11 0855.14
2009/04/23 11:23:36.7      28   -303     91    305    319 174.6  16.6  34138  289.19 0855.14
2009/04/23 11:23:36.8     -11   -355     18    356    357 181.8   3.0  34132  289.11 0855.14
2009/04/23 11:23:36.9     -27   -371     18    372    373 184.2   2.8  34134  289.13 0855.14
2009/04/23 11:23:37.0     -48   -365     32    369    371 187.6   5.0  34130  289.08 0855.14
2009/04/23 11:23:37.1      -3   -354     44    355    358 180.6   7.1  34134  289.13 0855.14
2009/04/23 11:23:37.2     -15   -361     36    362    364 182.5   5.7  34132  289.10 0855.14
2009/04/23 11:23:37.3      23   -390      8    391    392 176.6   1.2  34126  288.99 0855.14
2009/04/23 11:23:37.4      29   -379      3    381    382 175.5   0.5  34122  288.94 0855.14
2009/04/23 11:23:37.5     -12   -347     57    348    353 182.0   9.4  34128  289.04 0855.14
2009/04/23 11:23:37.6      14   -312     19    313    314 177.3   3.5  34126  288.98 0855.14
2009/04/23 11:23:37.7      37   -289    -16    292    293 172.7  -3.1  34126  289.00 0855.14
2009/04/23 11:23:37.8      30   -284    -15    286    287 173.8  -3.1  34122  288.93 0855.14
2009/04/23 11:23:37.9       0   -266     -7    267    268 180.0  -1.6  34124  288.95 0855.14
2009/04/23 11:23:38.0       7   -245     -1    246    247 178.2  -0.3  34124  288.97 0855.14
2009/04/23 11:23:38.1      -8   -188     35    189    193 182.5  10.6  34128  289.04 0855.14
2009/04/23 11:23:38.2      -4   -204      0    205    206 181.4   0.2  34118  288.87 0855.14
2009/04/23 11:23:38.3     -16   -213     -4    214    215 184.4  -1.2  34120  288.91 0855.14
2009/04/23 11:23:38.4     -18   -235      7    236    237 184.4   1.8  34122  288.92 0855.14
2009/04/23 11:23:38.5      -2   -224      3    225    226 180.7   0.8  34122  288.92 0855.16
2009/04/23 11:23:38.6      10   -236      0    237    238 177.5   0.0  34124  288.97 0855.16
2009/04/23 11:23:38.7      11   -235     11    236    237 177.3   2.8  34118  288.87 0855.16
2009/04/23 11:23:38.8      17   -229     -5    230    231 175.5  -1.3  34122  288.92 0855.16
2009/04/23 11:23:38.9      -9   -213     10    214    215 182.6   2.9  34120  288.89 0855.16
2009/04/23 11:23:39.0      13   -224     19    225    226 176.6   5.0  34134  289.14 0855.16
2009/04/23 11:23:39.1      15   -214     18    215    216 176.0   4.9  34140  289.23 0855.16
2009/04/23 11:23:39.2     -18   -217      2    218    219 184.9   0.7  34144  289.30 0855.16
2009/04/23 11:23:39.3     -18   -201    -23    202    204 185.3  -6.5  34140  289.24 0855.16
2009/04/23 11:23:39.4      -4   -198      8    199    200 181.4   2.3  34138  289.19 0855.16
2009/04/23 11:23:39.5     -38   -191     17    195    196 191.3   5.2  34138  289.19 0855.16
2009/04/23 11:23:39.6      52   -208    -11    215    216 166.0  -3.1  34130  289.08 0855.16
2009/04/23 11:23:39.7      85   -204    -12    222    223 157.3  -3.2  34128  289.02 0855.16
2009/04/23 11:23:39.8      79   -185      8    202    203 156.8   2.3  34126  288.99 0855.16
2009/04/23 11:23:39.9      44   -199    -26    204    206 167.3  -7.3  34128  289.02 0855.16
2009/04/23 11:23:40.0      69   -206    -65    218    227 161.5 -21.5  34128  289.04 0855.16
2009/04/23 11:23:40.1      74   -167    -36    183    187 155.9 -11.3  34136  289.18 0855.16
2009/04/23 11:23:40.2      79   -144    -23    165    167 151.3  -8.0  34132  289.11 0855.16
2009/04/23 11:23:40.3     154   -186     -1    242    243 140.3  -0.3  34134  289.14 0855.16
2009/04/23 11:23:40.4     170   -134    -43    217    222 128.2 -11.3  34144  289.30 0855.16
2009/04/23 11:23:40.5     136   -152     11    205    206 138.1   3.1  34146  289.35 0855.11
2009/04/23 11:23:40.6     143    -89     83    169    188 122.0  28.0  34148  289.38 0855.11
2009/04/23 11:23:40.7     145   -128    112    194    224 131.3  32.9  34152  289.45 0855.11
2009/04/23 11:23:40.8     203   -198    100    284    301 134.2  20.0  34152  289.44 0855.11
2009/04/23 11:23:40.9     215   -214    181    304    353 134.8  33.5  34140  289.23 0855.11
2009/04/23 11:23:41.0     211   -192    190    286    343 132.2  36.7  34140  289.22 0855.11
2009/04/23 11:23:41.1      -9   -219    174    220    280 182.5  42.4  34162  289.61 0855.11
2009/04/23 11:23:41.2     -19   -306     91    307    321 183.6  16.5  34160  289.58 0855.11
2009/04/23 11:23:41.3      74   -358     28    366    368 168.2   4.5  34152  289.45 0855.11
2009/04/23 11:23:41.4      76   -329    132    338    362 166.9  22.5  34142  289.28 0855.11
2009/04/23 11:23:41.5      81   -282    135    294    323 164.0  26.4  34164  289.63 0855.11
2009/04/23 11:23:41.6      56   -277    106    283    302 168.5  21.3  34174  289.80 0855.11
2009/04/23 11:23:41.7      92   -323    100    336    351 164.1  16.6  34166  289.69 0855.11
2009/04/23 11:23:41.8      55   -241     87    248    262 167.1  20.0  34172  289.78 0855.11
2009/04/23 11:23:41.9     151   -135    109    203    230 131.8  30.8  34170  289.74 0855.11
2009/04/23 11:23:42.0     171   -132    190    217    288 127.8  45.8  34174  289.80 0855.11
2009/04/23 11:23:42.1      17   -225    174    226    285 175.5  41.7  34178  289.86 0855.11
2009/04/23 11:23:42.2      95   -176    145    201    247 151.5  39.5  34170  289.73 0855.11
2009/04/23 11:23:42.3     210   -209    113    297    317 134.9  21.8  34170  289.75 0855.11
2009/04/23 11:23:42.4     137   -255    145    290    324 151.7  28.5  34170  289.73 0855.11
2009/04/23 11:23:42.5      40   -237    171    241    295 170.3  39.1  34172  289.76 0855.08
2009/04/23 11:23:42.6      18   -278    198    279    342 176.2  38.8  34172  289.78 0855.08
2009/04/23 11:23:42.7      56   -274    127    280    307 168.4  26.2  34172  289.76 0855.08
2009/04/23 11:23:42.8       3   -223    112    224    250 179.1  28.2  34178  289.88 0855.08
2009/04/23 11:23:42.9      14   -215    156    216    266 176.2  39.5  34186  290.02 0855.08
2009/04/23 11:23:43.0      16   -245    175    246    301 176.2  38.8  34184  289.98 0855.08
2009/04/23 11:23:43.1      51   -247    152    253    295 168.2  33.7  34178  289.86 0855.08
2009/04/23 11:23:43.2     -88   -187    163    207    263 205.4  42.4  34166  289.68 0855.08
2009/04/23 11:23:43.3    -135   -211     89    251    267 212.6  19.6  34170  289.73 0855.08
2009/04/23 11:23:43.4     -91   -217     78    236    249 202.8  18.5  34186  290.02 0855.08
2009/04/23 11:23:43.5     -37   -189    128    193    231 191.3  36.3  34192  290.11 0855.08
2009/04/23 11:23:43.6    -120   -203     87    236    251 210.7  21.0  34184  289.97 0855.08
2009/04/23 11:23:43.7      25   -426    154    427    453 176.6  20.8  34182  289.94 0855.08
2009/04/23 11:23:43.8      28   -401    139    402    426 175.9  19.2  34186  290.00 0855.08
2009/04/23 11:23:43.9     -34   -485     46    487    490 184.1   5.5  34176  289.83 0855.08
2009/04/23 11:23:44.0     -92   -450    -62    460    465 191.6  -7.7  34190  290.09 0855.08
2009/04/23 11:23:44.1    -202   -595    -68    629    633 198.8  -6.2  34186  290.01 0855.08
2009/04/23 11:23:44.2    -286   -539     18    611    612 208.0   1.7  34178  289.88 0855.08
2009/04/23 11:23:44.3    -200   -527      2    564    565 200.8   0.2  34168  289.72 0855.08
2009/04/23 11:23:44.4    -310   -555    -67    636    640 209.2  -6.1  34166  289.69 0855.08
2009/04/23 11:23:44.5    -382   -609    -63    719    722 212.1  -5.1  34172  289.78 0855.06
2009/04/23 11:23:44.6    -354   -703    -12    788    789 206.7  -0.9  34172  289.76 0855.06
2009/04/23 11:23:44.7    -194   -522    109    557    568 200.4  11.1  34178  289.87 0855.06
2009/04/23 11:23:44.8    -336   -526    -45    625    627 212.6  -4.1  34174  289.81 0855.06
2009/04/23 11:23:44.9    -345   -480    -80    592    598 215.7  -7.7  34172  289.76 0855.06
2009/04/23 11:23:45.0    -333   -433   -178    547    576 217.5 -18.0  34170  289.74 0855.06
2009/04/23 11:23:45.1    -351   -401   -183    534    565 221.2 -18.9  34180  289.92 0855.06
2009/04/23 11:23:45.2    -371   -383   -219    534    577 224.1 -28.0  34170  289.74 0855.06
2009/04/23 11:23:45.3    -344   -302   -239    458    516 228.7 -34.2  34172  289.79 0855.06
2009/04/23 11:23:45.4    -378   -241   -212    449    496 237.5 -31.5  34172  289.79 0855.06
2009/04/23 11:23:45.5    -220   -384   -196    443    484 209.8 -30.0  34176  289.83 0855.06
2009/04/23 11:23:45.6      36   -415   -185    417    456 174.9 -29.7  34184  289.99 0855.06
2009/04/23 11:23:45.7    -164   -409   -108    441    455 201.9 -13.8  34186  290.00 0855.06
2009/04/23 11:23:45.8    -408   -313   -263    515    578 232.5 -33.6  34182  289.96 0855.06
2009/04/23 11:23:45.9    -156   -253   -217    298    368 211.6 -44.1  34176  289.84 0855.06
2009/04/23 11:23:46.0       2   -174   -160    175    237 179.1 -51.5  34188  290.06 0855.06
2009/04/23 11:23:46.1     114   -322   -125    342    364 160.4 -25.4  34192  290.10 0855.06
2009/04/23 11:23:46.2     189   -198   -154    274    314 136.3 -36.1  34194  290.15 0855.06
2009/04/23 11:23:46.3     174   -252   -175    307    353 145.3 -36.5  34194  290.16 0855.06
2009/04/23 11:23:46.4    -190     38   -301    194    358 281.4 -68.8  34206  290.36 0855.06
2009/04/23 11:23:46.5     207   -435   -361    482    602 154.5 -45.0  34198  290.21 0855.06
2009/04/23 11:23:46.6     220    -34   -449    223    501  99.0 -76.3  34206  290.34 0855.06
2009/04/23 11:23:46.7      65    107   -241    126    271  31.2 -74.8  34206  290.34 0855.06
2009/04/23 11:23:46.8    -212      3   -357    213    415 270.9 -70.9  34188  290.06 0855.06
2009/04/23 11:23:46.9    -567     43   -215    569    608 274.4 -26.2  34182  289.93 0855.06
2009/04/23 11:23:47.0    -289    -50   -110    294    313 260.1 -25.9  34176  289.85 0855.06
2009/04/23 11:23:47.1    -501    -85   -162    509    535 260.3 -17.7  34186  290.02 0855.06
2009/04/23 11:23:47.2    -282   -197    -75    345    354 235.0 -12.4  34196  290.18 0855.06
2009/04/23 11:23:47.3     -85    -91     76    125    146 223.2  34.4  34198  290.23 0855.06
2009/04/23 11:23:47.4    -123   -330     22    353    354 200.4   3.6  34200  290.25 0855.06
2009/04/23 11:23:47.5     -51   -379    -43    383    386 187.7  -6.5  34198  290.20 0855.06
2009/04/23 11:23:47.6      88   -371   -158    382    413 166.6 -28.1  34198  290.21 0855.06
2009/04/23 11:23:47.7      44   -261    -83    265    278 170.4 -17.5  34190  290.07 0855.06
2009/04/23 11:23:47.8    -103   -308   -111    326    344 198.6 -23.7  34188  290.03 0855.06
2009/04/23 11:23:47.9    -173   -247   -136    302    331 215.0 -30.3  34204  290.32 0855.06
2009/04/23 11:23:48.0    -237   -254    -44    348    351 223.1  -7.3  34178  289.87 0855.06
2009/04/23 11:23:48.1    -335   -314    -33    460    462 226.8  -4.1  34188  290.05 0855.06
2009/04/23 11:23:48.2    -288   -343   -141    449    471 220.0 -17.5  34186  290.00 0855.06
2009/04/23 11:23:48.3    -110   -363     40    380    383 197.0   6.1  34170  289.74 0855.06
2009/04/23 11:23:48.4    -288   -236   -106    373    387 230.7 -20.5  34198  290.20 0855.06
2009/04/23 11:23:48.5    -214   -262   -110    339    357 219.2 -18.1  34170  289.74 0855.06
2009/04/23 11:23:48.6    -286   -448   -121    532    546 212.6 -12.9  34170  289.75 0855.06
2009/04/23 11:23:48.7    -429   -248   -108    496    508 240.0 -12.4  34184  289.98 0855.06
2009/04/23 11:23:48.8    -306   -337   -185    456    492 222.3 -27.6  34126  289.01 0855.06
2009/04/23 11:23:48.9    -290   -276   -160    401    431 226.4 -27.4  34130  289.07 0855.06
2009/04/23 11:23:49.0    -260   -283   -165    385    418 222.6 -29.0  34130  289.05 0855.06
2009/04/23 11:23:49.1    -279   -320   -186    425    463 221.1 -29.6  34160  289.56 0855.06
2009/04/23 11:23:49.2    -227   -296   -121    374    393 217.5 -22.9  34186  290.01 0855.06
2009/04/23 11:23:49.3    -129   -128    -14    182    183 225.2  -4.6  34192  290.13 0855.06
2009/04/23 11:23:49.4      -9   -129    -83    130    154 184.0 -39.9  34202  290.28 0855.06
2009/04/23 11:23:49.5    -101   -214   -232    237    331 205.3 -53.8  34200  290.24 0855.06
2009/04/23 11:23:49.6    -237     99    -75    258    268 292.7 -21.0  34204  290.31 0855.06
2009/04/23 11:23:49.7    -192     14    112    193    223 274.4  32.9  34202  290.28 0855.06
2009/04/23 11:23:49.8    -310   -115   -129    331    355 249.6 -26.9  34116  288.81 0855.06
2009/04/23 11:23:49.9    -290   -115   -131    313    339 248.3 -28.5  34100  288.57 0855.06
2009/04/23 11:23:50.0    -290   -115   -131    313    339 248.3 -28.5  34100  288.54 0855.06
2009/04/23 11:23:50.1    -280   -110   -132    301    328 248.5 -29.6  34098  288.51 0855.06
2009/04/23 11:23:50.2    -274   -115   -132    298    325 247.3 -30.0  34106  288.66 0855.06
2009/04/23 11:23:50.3    -274    -92   -111    290    310 251.4 -26.4  34130  289.05 0855.06
2009/04/23 11:23:50.4    -261    -91   -122    277    302 250.7 -29.6  34102  288.59 0855.06
2009/04/23 11:23:50.5    -250   -114   -128    275    303 245.4 -31.5  34114  288.80 0855.07
2009/04/23 11:23:50.6    -284   -101   -136    302    331 250.3 -30.3  34130  289.07 0855.07
2009/04/23 11:23:50.7    -273   -104    -98    293    308 249.2 -23.6  34148  289.37 0855.07
2009/04/23 11:23:50.8    -189    -45    -49    195    202 256.5 -14.3  34176  289.85 0855.07
2009/04/23 11:23:50.9    -165    -46    -70    172    185 254.3 -27.5  34166  289.67 0855.07
2009/04/23 11:23:51.0    -131   -113    -91    174    196 229.1 -33.9  34126  288.99 0855.07
2009/04/23 11:23:51.1     -83   -123    -98    149    178 214.3 -40.7  34142  289.28 0855.07
2009/04/23 11:23:51.2     -99    -10     -2    100    101 263.9  -1.3  34164  289.63 0855.07
2009/04/23 11:23:51.3     -93    -81    -56    124    136 229.1 -30.6  34186  290.01 0855.07
2009/04/23 11:23:51.4    -122   -192   -106    228    251 212.5 -31.4  34156  289.51 0855.07
2009/04/23 11:23:51.5     -98   -186    -66    211    222 207.9 -17.5  34174  289.80 0855.07
2009/04/23 11:23:51.6     -60   -414   -209    419    468 188.3 -32.9  34152  289.44 0855.07
2009/04/23 11:23:51.7      17   -438   -255    439    507 177.7 -37.3  34160  289.56 0855.07
2009/04/23 11:23:51.8    -121   -360   -271    380    466 198.6 -43.5  34160  289.58 0855.07
2009/04/23 11:23:51.9    -119   -356   -193    376    422 198.5 -33.6  34158  289.55 0855.07
2009/04/23 11:23:52.0    -182   -321   -150    370    399 209.6 -27.8  34152  289.43 0855.07
2009/04/23 11:23:52.1    -251   -304   -164    395    427 219.5 -28.2  34150  289.39 0855.07
2009/04/23 11:23:52.2     -69   -428   -193    434    474 189.2 -30.0  34152  289.44 0855.07
2009/04/23 11:23:52.3      46   -424   -254    427    496 173.7 -38.0  34152  289.42 0855.07
2009/04/23 11:23:52.4      98   -386   -224    399    457 165.7 -36.1  34150  289.39 0855.07
2009/04/23 11:23:52.5       6   -375   -159    376    408 179.0 -28.6  34150  289.40 0855.08
2009/04/23 11:23:52.6     140   -365    -98    392    405 159.0 -14.1  34148  289.38 0855.08
2009/04/23 11:23:52.7     312   -199    -39    371    374 122.6  -6.1  34146  289.35 0855.08
2009/04/23 11:23:52.8     330   -193     -1    383    384 120.3  -0.3  34144  289.30 0855.08
2009/04/23 11:23:52.9     320   -239   -129    400    421 126.8 -17.9  34152  289.44 0855.08
2009/04/23 11:23:53.0     271   -238    -84    361    371 131.3 -13.2  34154  289.48 0855.08
2009/04/23 11:23:53.1      52   -254    -37    260    263 168.4  -8.3  34154  289.46 0855.08
2009/04/23 11:23:53.2      82   -269    -63    282    290 163.1 -12.6  34154  289.47 0855.08
2009/04/23 11:23:53.3     -59   -277   -141    284    317 192.0 -32.8  34150  289.41 0855.08
2009/04/23 11:23:53.4    -159   -253   -158    299    338 212.1 -34.6  34150  289.41 0855.08
2009/04/23 11:23:53.5     -22   -359   -223    360    423 183.6 -39.3  34148  289.36 0855.09
2009/04/23 11:23:53.6      -4   -281   -201    282    346 181.0 -43.5  34146  289.32 0855.09
2009/04/23 11:23:53.7      27   -118   -181    122    218 167.1 -67.2  34154  289.48 0855.09
2009/04/23 11:23:53.8    -133   -307   -225    335    403 203.5 -41.6  34156  289.52 0855.09
2009/04/23 11:23:53.9    -104   -203   -220    229    317 207.1 -53.2  34160  289.58 0855.09
2009/04/23 11:23:54.0       0   -281   -235    282    367 179.9 -48.2  34164  289.64 0855.09
2009/04/23 11:23:54.1     -28   -180   -156    183    240 188.9 -49.2  34160  289.58 0855.09
2009/04/23 11:23:54.2     -42   -128    -78    135    155 198.3 -37.3  34162  289.62 0855.09
2009/04/23 11:23:54.3    -170   -123   -217    211    302 234.1 -55.1  34164  289.64 0855.09
2009/04/23 11:23:54.4    -191   -179   -216    262    339 226.9 -48.1  34160  289.56 0855.09
2009/04/23 11:23:54.5    -102    -53   -175    115    209 242.5 -68.3  34164  289.65 0855.09
2009/04/23 11:23:54.6     -64    -89   -195    110    223 215.6 -72.7  34172  289.79 0855.09
2009/04/23 11:23:54.7    -149   -225   -244    271    364 213.6 -50.9  34164  289.64 0855.09
2009/04/23 11:23:54.8    -225   -182   -178    290    340 231.1 -39.0  34164  289.64 0855.09
2009/04/23 11:23:54.9       6   -254   -100    255    273 178.6 -26.7  34166  289.66 0855.09
2009/04/23 11:23:55.0      24   -266   -138    268    301 174.7 -33.7  34162  289.59 0855.09
2009/04/23 11:23:55.1      84   -133   -140    158    211 147.5 -50.6  34164  289.65 0855.09
2009/04/23 11:23:55.2      19    -57    -74     61     95 161.3 -60.8  34164  289.65 0855.09
2009/04/23 11:23:55.3     -19    -58    -95     62    113 198.3 -69.0  34164  289.63 0855.09
2009/04/23 11:23:55.4    -163     23   -147    165    220 278.1 -50.8  34164  289.65 0855.09
2009/04/23 11:23:55.5    -245    -29   -191    247    312 263.0 -45.9  34162  289.59 0855.09
2009/04/23 11:23:55.6     -80    -43   -191     92    212 241.6 -77.2  34170  289.74 0855.09
2009/04/23 11:23:55.7      51    -22   -162     56    171 113.5 -85.1  34178  289.89 0855.09
2009/04/23 11:23:55.8     -82      5   -257     83    270 273.5 -85.6  34172  289.79 0855.09
2009/04/23 11:23:55.9    -141    -31   -211    145    256 257.6 -66.8  34176  289.85 0855.09
2009/04/23 11:23:56.0     -60   -184   -149    194    244 198.3 -46.0  34174  289.82 0855.09
2009/04/23 11:23:56.1    -145   -296   -125    330    352 206.2 -26.1  34166  289.69 0855.09
2009/04/23 11:23:56.2     -40   -372   -103    375    390 186.3 -15.4  34174  289.81 0855.09
2009/04/23 11:23:56.3     -53   -396    -35    400    402 187.7  -5.1  34172  289.76 0855.09
2009/04/23 11:23:56.4     -32   -413     -8    415    416 184.5  -1.2  34172  289.78 0855.09
2009/04/23 11:23:56.5      90   -378    -42    389    392 166.6  -6.2  34174  289.81 0855.09
2009/04/23 11:23:56.6      62   -380    -71    386    393 170.7 -10.5  34172  289.76 0855.09
2009/04/23 11:23:56.7     102   -360    -48    375    379 164.1  -7.3  34174  289.82 0855.09
2009/04/23 11:23:56.8      74   -366    -48    374    378 168.6  -7.3  34174  289.81 0855.09
2009/04/23 11:23:56.9     250   -344    -62    426    431 144.0  -8.4  34172  289.78 0855.09
2009/04/23 11:23:57.0     267   -306    -58    407    412 138.9  -8.2  34172  289.78 0855.09
2009/04/23 11:23:57.1     188   -296    -38    351    354 147.6  -6.3  34174  289.81 0855.09
2009/04/23 11:23:57.2     142   -319    -46    350    354 155.9  -7.6  34184  289.99 0855.09
2009/04/23 11:23:57.3     126   -315    -63    340    346 158.1 -10.5  34188  290.06 0855.09
2009/04/23 11:23:57.4     170   -316      0    359    360 151.7   0.0  34174  289.82 0855.09
2009/04/23 11:23:57.5     111   -333     22    352    353 161.5   3.7  34174  289.82 0855.10
2009/04/23 11:23:57.6     134   -321      0    349    350 157.3   0.1  34178  289.86 0855.10
2009/04/23 11:23:57.7     150   -319     30    353    355 154.7   5.0  34176  289.84 0855.10
2009/04/23 11:23:57.8      96   -324    -30    339    341 163.5  -5.1  34182  289.94 0855.10
2009/04/23 11:23:57.9     193   -330     15    383    384 149.7   2.3  34170  289.74 0855.10
2009/04/23 11:23:58.0     127   -296    -43    323    326 156.8  -7.6  34170  289.75 0855.10
2009/04/23 11:23:58.1      53   -284    -31    290    292 169.3  -6.2  34176  289.85 0855.10
2009/04/23 11:23:58.2      88   -272    -36    287    290 162.0  -7.3  34178  289.88 0855.10
2009/04/23 11:23:58.3     108   -397     39    412    414 164.7   5.5  34184  289.97 0855.10
2009/04/23 11:23:58.4     135   -421    -47    443    446 162.2  -6.1  34174  289.80 0855.10
2009/04/23 11:23:58.5     164   -421     -1    452    453 158.7  -0.2  34172  289.78 0855.10
2009/04/23 11:23:58.6      49   -388     34    392    394 172.7   5.0  34172  289.79 0855.10
2009/04/23 11:23:58.7     130   -357     89    381    392 159.9  13.2  34174  289.82 0855.10
2009/04/23 11:23:58.8     104   -348     14    364    365 163.3   2.2  34186  290.01 0855.10
2009/04/23 11:23:58.9      86   -329     25    341    342 165.3   4.2  34198  290.23 0855.10
2009/04/23 11:23:59.0     113   -325     14    345    346 160.7   2.4  34188  290.06 0855.10
2009/04/23 11:23:59.1     100   -366      0    380    381 164.7   0.1  34182  289.94 0855.10
2009/04/23 11:23:59.2      46   -387     70    390    397 173.1  10.2  34172  289.79 0855.10
2009/04/23 11:23:59.3      69   -341     93    349    362 168.4  15.0  34178  289.86 0855.10
2009/04/23 11:23:59.4       6   -320    107    321    339 178.8  18.5  34172  289.77 0855.10
2009/04/23 11:23:59.5     -19   -376     68    377    384 183.0  10.3  34174  289.82 0855.12
2009/04/23 11:23:59.6     -47   -289     75    293    303 189.3  14.5  34184  289.97 0855.12
2009/04/23 11:23:59.7     -78   -326     26    336    338 193.5   4.5  34188  290.03 0855.12
2009/04/23 11:23:59.8     -45   -389    -15    392    393 186.7  -2.2  34186  290.01 0855.12
2009/04/23 11:23:59.9     -40   -454    -38    456    458 185.1  -4.8  34180  289.90 0855.12
2009/04/23 11:24:00.0     -46   -455      6    458    459 185.8   0.8  34182  289.94 0855.12
2009/04/23 11:24:00.1     -81   -411    -13    420    421 191.2  -1.8  34194  290.14 0855.12
2009/04/23 11:24:00.2    -131   -394     -3    416    417 198.4  -0.5  34200  290.26 0855.12
2009/04/23 11:24:00.3    -145   -351     20    380    381 202.5   3.0  34198  290.21 0855.12
2009/04/23 11:24:00.4     -90   -351    105    363    378 194.4  16.1  34184  289.98 0855.12
2009/04/23 11:24:00.5    -123   -377    116    397    414 198.1  16.3  34186  290.02 0855.12
2009/04/23 11:24:00.6    -107   -399     39    414    416 195.1   5.5  34188  290.04 0855.12
2009/04/23 11:24:00.7    -128   -303    110    330    348 202.9  18.5  34184  289.99 0855.12
2009/04/23 11:24:00.8    -143   -371     22    398    399 201.2   3.3  34188  290.03 0855.12
2009/04/23 11:24:00.9     -79   -351    -45    360    363 192.8  -7.2  34192  290.13 0855.12
2009/04/23 11:24:01.0     -33   -325   -112    327    346 185.9 -18.9  34202  290.28 0855.12
2009/04/23 11:24:01.1     -59   -294    -90    300    313 191.5 -21.6  34186  290.02 0855.12
2009/04/23 11:24:01.2      37   -267    -49    270    275 172.0 -10.4  34182  289.93 0855.12
2009/04/23 11:24:01.3      58   -248    -51    255    261 166.7 -11.3  34206  290.34 0855.12
2009/04/23 11:24:01.4     132   -207    -31    246    248 147.5  -7.2  34210  290.41 0855.12
2009/04/23 11:24:01.5     100   -175    -57    202    210 150.1 -15.8  34212  290.47 0855.13
2009/04/23 11:24:01.6     132   -159    -48    207    213 140.4 -13.2  34210  290.43 0855.13
2009/04/23 11:24:01.7      94    -80     45    124    131 130.4  20.4  34200  290.26 0855.13
2009/04/23 11:24:01.8      59   -107    -29    123    127 151.1 -13.4  34222  290.64 0855.13
2009/04/23 11:24:01.9      24   -166    -50    168    176 171.8 -16.8  34220  290.58 0855.13
2009/04/23 11:24:02.0      27   -132     16    135    137 168.4   7.1  34208  290.38 0855.13
2009/04/23 11:24:02.1      32   -239     61    242    250 172.2  14.3  34202  290.27 0855.13
2009/04/23 11:24:02.2       6   -272     48    273    278 178.6  10.0  34192  290.12 0855.13
2009/04/23 11:24:02.3       0   -266    110    267    288 179.9  23.6  34200  290.24 0855.13
2009/04/23 11:24:02.4      16   -215     11    216    217 175.5   2.9  34194  290.14 0855.13
2009/04/23 11:24:02.5      35   -169     69    173    186 168.0  23.0  34196  290.19 0855.13
2009/04/23 11:24:02.6      15   -102     19    104    106 171.5  10.6  34192  290.13 0855.13
2009/04/23 11:24:02.7      36    -39     18     54     57 137.7  18.4  34198  290.23 0855.13
2009/04/23 11:24:02.8      35    -22     33     42     53 122.4  43.7  34198  290.23 0855.13
2009/04/23 11:24:02.9      21     20     49     30     57  46.9  64.7  34206  290.35 0855.13
2009/04/23 11:24:03.0     -37     42     55     57     79 318.6  49.4  34230  290.77 0855.13
2009/04/23 11:24:03.1     -30     35     66     47     81 319.5  61.1  34234  290.84 0855.13
2009/04/23 11:24:03.2     -94     59    114    112    159 302.0  50.1  34222  290.64 0855.13
2009/04/23 11:24:03.3    -178     59     88    188    207 288.4  27.1  34204  290.31 0855.13
2009/04/23 11:24:03.4    -230    -14     57    231    238 266.5  13.9  34204  290.32 0855.13
2009/04/23 11:24:03.5    -217     -8     -6    218    219 267.9  -1.8  34186  290.01 0855.13
2009/04/23 11:24:03.6    -135     36    -17    140    142 285.0  -7.2  34192  290.11 0855.13
2009/04/23 11:24:03.7    -100     12   -105    101    145 277.0 -55.6  34194  290.16 0855.13
2009/04/23 11:24:03.8     -26   -118     48    121    130 192.5  22.5  34190  290.09 0855.13
2009/04/23 11:24:03.9      12   -109    129    110    169 173.3  55.6  34200  290.26 0855.13
2009/04/23 11:24:04.0     -47     39     83     62    103 309.6  59.4  34212  290.47 0855.13
2009/04/23 11:24:04.1       3     50     72     51     88   4.5  61.5  34204  290.31 0855.13
2009/04/23 11:24:04.2     -11     -9     58     15     59 230.5  84.9  34200  290.26 0855.13
2009/04/23 11:24:04.3     -45     15     41     48     63 289.1  44.8  34210  290.41 0855.13
2009/04/23 11:24:04.5      -9    -98    133     99    165 185.3  59.8  34202  290.28 0855.13
2009/04/23 11:24:04.6     -51   -116    148    127    195 203.7  55.4  34196  290.19 0855.13
2009/04/23 11:24:04.7     -43    -53    116     69    134 218.7  66.7  34206  290.36 0855.13
2009/04/23 11:24:04.8    -115    -51     75    126    146 246.0  33.5  34204  290.31 0855.13
2009/04/23 11:24:04.9    -135   -107     25    173    175 231.4   8.5  34192  290.11 0855.13
2009/04/23 11:24:05.0    -118    -46    -21    127    129 248.3  -9.8  34186  290.02 0855.13
2009/04/23 11:24:05.1     -83      0      3     84     85 270.0   2.3  34190  290.08 0855.13
2009/04/23 11:24:05.2    -118    -15     14    119    120 262.5   6.9  34186  290.02 0855.13
2009/04/23 11:24:05.3    -138      8     23    139    141 273.5   9.5  34186  290.02 0855.13
2009/04/23 11:24:05.4    -189     35     24    193    195 280.6   7.1  34176  289.84 0855.13
2009/04/23 11:24:05.5    -103    -68     38    124    130 236.3  17.4  34178  289.87 0855.13
2009/04/23 11:24:05.6    -156     -9    107    157    189 266.5  37.6  34136  289.18 0855.13
2009/04/23 11:24:05.7     -80    -32    -49     87     99 247.8 -36.3  34174  289.82 0855.13
2009/04/23 11:24:05.8     -20      0    -71     21     74 270.0 -86.2  34174  289.80 0855.13
2009/04/23 11:24:05.9     -94     91     11    132    133 314.0   4.9  34162  289.62 0855.13
2009/04/23 11:24:06.0    -164    117     18    202    203 305.7   5.2  34168  289.72 0855.13
2009/04/23 11:24:06.1    -112     49    -71    123    142 293.5 -36.8  34170  289.74 0855.13
2009/04/23 11:24:06.2    -181    -13   -138    182    228 265.9 -45.6  34156  289.50 0855.13
2009/04/23 11:24:06.3    -253     -6   -156    254    298 268.5 -38.9  34154  289.47 0855.13
2009/04/23 11:24:06.4    -233     36    -84    236    251 279.0 -19.7  34152  289.42 0855.13
2009/04/23 11:24:06.5    -298     60   -110    305    325 281.5 -19.8  34148  289.36 0855.13
2009/04/23 11:24:06.6    -264     99    -85    283    296 290.6 -16.8  34144  289.31 0855.13
2009/04/23 11:24:06.7    -207    117    -43    238    242 299.5 -10.3  34148  289.36 0855.13
2009/04/23 11:24:06.8    -164    138     13    215    216 310.0   3.6  34152  289.43 0855.13
2009/04/23 11:24:06.9    -138    128    -45    189    195 312.9 -13.4  34146  289.33 0855.13
2009/04/23 11:24:07.0    -107     64   -100    125    160 301.1 -47.1  34146  289.35 0855.13
2009/04/23 11:24:07.1    -285    -53    -96    290    305 259.4 -23.8  34158  289.54 0855.13
2009/04/23 11:24:07.2    -245     29    -54    247    253 276.8 -12.4  34156  289.51 0855.13
2009/04/23 11:24:07.3    -246     63     -5    254    255 284.4  -1.3  34156  289.51 0855.13
2009/04/23 11:24:07.4    -178     55    -55    187    194 287.3 -21.7  34164  289.63 0855.13
2009/04/23 11:24:07.5    -189     44    -66    195    206 283.2 -18.7  34164  289.63 0855.13
2009/04/23 11:24:07.6    -203     66     -7    214    215 288.2  -2.1  34168  289.72 0855.13
2009/04/23 11:24:07.7    -222      1    -99    223    243 270.4 -30.1  34168  289.71 0855.13
2009/04/23 11:24:07.8    -254     18   -165    255    303 274.1 -40.0  34166  289.68 0855.13
2009/04/23 11:24:07.9    -261    -63   -128    269    297 256.3 -31.7  34168  289.71 0855.13
2009/04/23 11:24:08.0    -372     -7    -35    373    375 268.8  -5.5  34168  289.71 0855.13
2009/04/23 11:24:08.1    -261     56     54    268    274 282.3  11.4  34174  289.80 0855.13
2009/04/23 11:24:08.2    -265   -187     56    325    330 234.7   9.9  34182  289.93 0855.13
2009/04/23 11:24:08.3    -145   -269    -11    306    307 208.3  -2.2  34182  289.93 0855.13
2009/04/23 11:24:08.4    -253   -253      4    358    359 225.0   0.7  34184  289.99 0855.13
2009/04/23 11:24:08.5    -323    -24   -114    324    343 265.7 -24.6  34174  289.81 0855.13
2009/04/23 11:24:08.6    -349     41   -121    352    372 276.7 -23.8  34166  289.67 0855.13
2009/04/23 11:24:08.7    -266    -33    -92    269    285 262.8 -18.9  34176  289.83 0855.13
2009/04/23 11:24:08.8    -163    -23   -102    165    193 261.9 -39.6  34174  289.82 0855.13
2009/04/23 11:24:08.9    -251    -83    -63    265    273 251.6 -13.4  34172  289.78 0855.13
2009/04/23 11:24:09.0    -353   -239   -110    427    442 235.9 -14.5  34158  289.53 0855.13
2009/04/23 11:24:09.1    -305   -237     19    387    388 232.2   2.9  34154  289.48 0855.13
2009/04/23 11:24:09.2    -253   -162     47    301    305 237.4   9.0  34154  289.47 0855.13
2009/04/23 11:24:09.3    -267   -181     13    323    324 235.8   2.3  34154  289.46 0855.13
2009/04/23 11:24:09.4    -137   -277    -66    310    318 206.3 -12.2  34154  289.46 0855.13
2009/04/23 11:24:09.5     -74   -356   -166    364    400 191.8 -30.6  34138  289.21 0855.13
2009/04/23 11:24:09.6     -74   -274    -89    284    298 195.2 -17.5  34154  289.47 0855.13
2009/04/23 11:24:09.7      18   -291     24    292    294 176.4   4.9  34164  289.63 0855.13
2009/04/23 11:24:09.8    -290   -171   -162    337    373 239.4 -31.7  34152  289.45 0855.13
2009/04/23 11:24:09.9    -314   -161   -230    353    421 242.8 -40.4  34152  289.43 0855.13
2009/04/23 11:24:10.0    -296    -25   -205    298    361 265.0 -42.1  34168  289.71 0855.13
2009/04/23 11:24:10.1    -307     41    -68    310    318 277.7 -12.5  34196  290.17 0855.13
2009/04/23 11:24:10.2    -265    170   -112    316    336 302.8 -19.5  34194  290.15 0855.13
2009/04/23 11:24:10.3    -334    155   -137    369    393 295.0 -25.8  34188  290.03 0855.13
2009/04/23 11:24:10.4    -503    129    -65    520    525 284.4  -7.2  34198  290.23 0855.13
2009/04/23 11:24:10.5    -537    200    -25    574    575 290.4  -2.5  34160  289.58 0855.13
2009/04/23 11:24:10.6    -444      0   -172    445    477 270.0 -26.6  34152  289.44 0855.13
2009/04/23 11:24:10.7    -434    -22   -170    435    467 267.1 -26.9  34150  289.41 0855.13
2009/04/23 11:24:10.8    -334     16   -114    335    353 272.8 -23.8  34150  289.40 0855.13
2009/04/23 11:24:10.9    -301     22    -90    302    315 274.3 -21.5  34146  289.34 0855.13
2009/04/23 11:24:11.0    -259      2   -164    260    307 270.6 -39.9  34150  289.39 0855.13
2009/04/23 11:24:11.1    -362     22   -184    363    406 273.5 -33.3  34152  289.45 0855.13
2009/04/23 11:24:11.2    -294     59   -131    300    327 281.5 -29.5  34150  289.41 0855.13
2009/04/23 11:24:11.3    -298    100   -142    315    345 288.6 -30.4  34152  289.43 0855.13
2009/04/23 11:24:11.4    -286    104   -200    305    364 290.0 -40.7  34146  289.32 0855.13
2009/04/23 11:24:11.5    -225    132   -189    261    322 300.4 -44.1  34138  289.19 0855.13
2009/04/23 11:24:11.6    -200    201   -180    284    336 315.1 -39.9  34142  289.25 0855.15
2009/04/23 11:24:11.7    -173    213   -206    275    343 321.0 -45.1  34132  289.09 0855.15
2009/04/23 11:24:11.8    -192    221   -171    294    340 319.0 -37.3  34138  289.20 0855.15
2009/04/23 11:24:11.9    -265    174   -198    318    374 303.3 -39.4  34148  289.37 0855.15
2009/04/23 11:24:12.0    -237    155   -222    284    360 303.1 -46.3  34146  289.35 0855.15
2009/04/23 11:24:12.1    -346    149   -189    377    421 293.3 -32.9  34146  289.33 0855.15
2009/04/23 11:24:12.2    -340    127   -239    364    435 290.5 -40.9  34148  289.36 0855.15
2009/04/23 11:24:12.3    -260     87   -276    275    389 288.6 -54.4  34146  289.33 0855.15
2009/04/23 11:24:12.4    -261    307   -197    404    449 319.6 -32.2  34142  289.26 0855.15
2009/04/23 11:24:12.5    -466    180   -149    500    521 291.2 -21.6  34146  289.35 0855.15
2009/04/23 11:24:12.6    -573    192   -271    605    662 288.6 -30.2  34136  289.16 0855.15
2009/04/23 11:24:12.7    -644    109   -280    654    711 279.6 -29.0  34136  289.17 0855.15
2009/04/23 11:24:12.8    -673    123   -307    685    750 280.4 -30.2  34154  289.47 0855.15
2009/04/23 11:24:12.9    -530    107   -163    541    566 281.5 -16.8  34162  289.60 0855.15
2009/04/23 11:24:13.0    -502    131   -293    519    595 284.7 -36.4  34140  289.22 0855.15
2009/04/23 11:24:13.1    -379     97   -245    392    462 284.4 -39.6  34150  289.39 0855.15
2009/04/23 11:24:13.2    -393    105   -270    407    488 285.1 -41.0  34142  289.26 0855.15
2009/04/23 11:24:13.3    -422     76    -86    429    438 280.3 -11.3  34162  289.61 0855.15
2009/04/23 11:24:13.4    -288     -4    -94    289    303 269.2 -23.6  34164  289.63 0855.15
2009/04/23 11:24:13.5    -283    118   -105    307    324 292.7 -23.9  34160  289.58 0855.15
2009/04/23 11:24:13.6    -141     64   -206    155    257 294.4 -63.8  34166  289.69 0855.17
2009/04/23 11:24:13.7     -90   -224    -74    242    253 202.1 -22.3  34164  289.64 0855.17
2009/04/23 11:24:13.8     -62    -64     82     90    121 224.1  47.5  34160  289.58 0855.17
2009/04/23 11:24:13.9    -151     63     32    164    168 292.8  11.1  34164  289.63 0855.17
2009/04/23 11:24:14.0    -121    -10    -37    122    128 265.2 -17.0  34162  289.60 0855.17
2009/04/23 11:24:14.1    -102    -76   -141    128    190 233.1 -57.4  34158  289.53 0855.17
2009/04/23 11:24:14.2       8   -258   -151    259    299 178.2 -37.5  34182  289.95 0855.17
2009/04/23 11:24:14.3     -42   -273   -220    277    353 188.9 -46.8  34172  289.79 0855.17
2009/04/23 11:24:14.4      16   -211   -165    212    268 175.6 -46.1  34166  289.66 0855.17
2009/04/23 11:24:14.5     -14    -54   -110     56    123 195.1 -75.2  34178  289.87 0855.17
2009/04/23 11:24:14.6    -204   -208    -86    292    305 224.5 -16.5  34170  289.73 0855.18
2009/04/23 11:24:14.7    -369   -148   -131    398    419 248.1 -23.6  34160  289.56 0855.18
2009/04/23 11:24:14.8    -240   -174    -93    297    312 234.1 -17.5  34160  289.58 0855.18
2009/04/23 11:24:14.9     -72   -199   -148    212    258 200.0 -42.9  34162  289.61 0855.18
2009/04/23 11:24:15.0    -272   -197   -155    337    370 234.0 -30.9  34174  289.81 0855.18
2009/04/23 11:24:15.1    -177   -216   -111    280    301 219.4 -27.4  34180  289.92 0855.18
2009/04/23 11:24:15.2    -229   -229    -98    324    339 225.0 -17.0  34172  289.79 0855.18
2009/04/23 11:24:15.3    -272   -167   -110    320    339 238.5 -19.0  34174  289.82 0855.18
2009/04/23 11:24:15.4    -322   -227    -65    395    401 234.8  -9.3  34186  290.01 0855.18
2009/04/23 11:24:15.5    -297   -166   -116    341    361 240.7 -18.8  34184  289.99 0855.18
2009/04/23 11:24:15.6    -408   -192   -197    451    492 244.8 -29.6  34164  289.64 0855.18
2009/04/23 11:24:15.7    -395   -235   -184    460    495 239.3 -27.4  34166  289.69 0855.18
2009/04/23 11:24:15.8    -309   -282   -228    419    477 227.6 -35.3  34156  289.51 0855.18
2009/04/23 11:24:15.9    -282   -365   -128    462    479 217.8 -20.2  34168  289.71 0855.18
2009/04/23 11:24:16.0    -220   -260    -69    341    349 220.2 -11.6  34208  290.37 0855.18
2009/04/23 11:24:16.1    -387   -237    -26    455    456 238.5  -3.3  34212  290.44 0855.18
2009/04/23 11:24:16.2    -225   -202     96    303    318 228.0  17.7  34198  290.22 0855.18
2009/04/23 11:24:16.3    -161   -280    115    324    343 209.9  20.3  34198  290.21 0855.18
2009/04/23 11:24:16.4    -223   -270     96    351    365 219.5  15.4  34194  290.15 0855.18
2009/04/23 11:24:16.5    -201   -199    113    283    304 225.3  23.0  34180  289.90 0855.18
2009/04/23 11:24:16.6    -379   -195     28    427    428 242.8   3.8  34234  290.84 0855.19
2009/04/23 11:24:16.7    -252   -172     57    306    312 235.6  10.6  34196  290.19 0855.19
2009/04/23 11:24:16.8    -169   -170    -44    240    245 224.8 -10.5  34216  290.53 0855.19
2009/04/23 11:24:16.9    -143   -133    -65    196    206 226.9 -23.8  34214  290.50 0855.19
2009/04/23 11:24:17.0     -26   -130    -36    133    138 191.5 -15.4  34238  290.91 0855.19
2009/04/23 11:24:17.1      -9   -126     69    127    144 184.4  31.3  34240  290.94 0855.19
2009/04/23 11:24:17.2     -90   -182    118    204    235 206.3  32.4  34240  290.92 0855.19
2009/04/23 11:24:17.3    -186   -107     13    215    216 240.0   3.6  34224  290.65 0855.19
2009/04/23 11:24:17.4     -74   -135    -43    155    160 208.9 -20.2  34220  290.58 0855.19
2009/04/23 11:24:17.5     -64    -16    -45     66     79 255.8 -42.0  34218  290.55 0855.19
2009/04/23 11:24:17.6    -119   -115     55    166    175 225.8  18.4  34212  290.47 0855.19
2009/04/23 11:24:17.7    -210   -176    190    275    334 230.0  38.3  34236  290.87 0855.19
2009/04/23 11:24:17.8    -173   -192     91    259    275 222.1  19.4  34224  290.66 0855.19
2009/04/23 11:24:17.9    -190   -113     27    222    224 239.3   7.1  34234  290.84 0855.19
2009/04/23 11:24:18.0    -145    -73    -50    163    170 243.4 -22.3  34232  290.81 0855.19
2009/04/23 11:24:18.1     -90      3    -73     91    116 272.1 -48.1  34222  290.62 0855.19
2009/04/23 11:24:18.2     -30    -10     31     32     44 250.0  51.1  34228  290.74 0855.19
2009/04/23 11:24:18.3     -81     -8     33     82     88 263.9  23.0  34224  290.67 0855.19
2009/04/23 11:24:18.4    -209    -76     51    223    229 250.0  12.9  34218  290.55 0855.19
2009/04/23 11:24:18.5    -261   -119     78    288    299 245.4  15.3  34214  290.48 0855.19
2009/04/23 11:24:18.6    -139      0    -23    140    142 270.0  -9.4  34192  290.13 0855.19
2009/04/23 11:24:18.7    -147    -69     68    163    176 244.8  23.8  34226  290.70 0855.19
2009/04/23 11:24:18.8     -54   -189    156    197    251 196.0  42.7  34204  290.32 0855.19
2009/04/23 11:24:18.9     -40   -322    131    325    350 187.1  23.1  34182  289.94 0855.19
2009/04/23 11:24:19.0     -50   -186    221    193    293 195.2  54.3  34186  290.00 0855.19
2009/04/23 11:24:19.1     -16   -166    194    167    255 185.6  55.0  34200  290.25 0855.19
2009/04/23 11:24:19.2    -102   -195    129    221    255 207.6  32.9  34186  290.00 0855.19
2009/04/23 11:24:19.3    -128   -197     60    236    244 213.0  14.3  34180  289.92 0855.19
2009/04/23 11:24:19.4    -209   -267     10    340    341 218.0   1.7  34178  289.86 0855.19
2009/04/23 11:24:19.5    -218   -358    -76    420    427 211.4 -10.4  34192  290.11 0855.19
2009/04/23 11:24:19.6    -135   -375    -61    399    404 199.9  -8.8  34178  289.88 0855.19
2009/04/23 11:24:19.7    -261   -391      1    471    472 213.7   0.2  34202  290.29 0855.19
2009/04/23 11:24:19.8    -117   -310    -65    332    339 200.7 -11.1  34220  290.60 0855.19
2009/04/23 11:24:19.9    -182   -350   -112    395    411 207.5 -15.9  34218  290.56 0855.19
2009/04/23 11:24:20.0    -269   -344   -204    437    482 218.0 -31.3  34226  290.68 0855.19
2009/04/23 11:24:20.1    -221   -366   -112    428    443 211.2 -14.7  34186  290.00 0855.19
2009/04/23 11:24:20.2    -117   -436     67    452    458 195.1   8.5  34182  289.94 0855.19
2009/04/23 11:24:20.3    -257   -426     70    498    504 211.2   8.0  34188  290.06 0855.19
2009/04/23 11:24:20.4    -212   -364    -12    422    423 210.3  -1.7  34216  290.53 0855.19
2009/04/23 11:24:20.5    -282   -424    -81    510    517 213.6  -9.1  34210  290.42 0855.19
2009/04/23 11:24:20.6    -301   -277     21    410    411 227.4   3.0  34182  289.94 0855.19
2009/04/23 11:24:20.7    -154   -300    157    338    372 207.2  26.9  34188  290.03 0855.19
2009/04/23 11:24:20.8     -29   -279    101    281    298 186.0  20.7  34178  289.86 0855.19
2009/04/23 11:24:20.9       5   -178     97    179    203 178.4  31.0  34182  289.94 0855.19
2009/04/23 11:24:21.0     -32   -230    -12    233    234 188.0  -3.1  34214  290.48 0855.19
2009/04/23 11:24:21.1       3   -171    -49    172    178 178.9 -20.4  34218  290.55 0855.19
2009/04/23 11:24:21.2     -51   -181      1    189    190 195.8   0.5  34196  290.18 0855.19
2009/04/23 11:24:21.3     -47   -114      7    124    125 202.3   3.3  34194  290.14 0855.19
2009/04/23 11:24:21.4     -29    -91     -3     96     97 197.8  -2.2  34198  290.23 0855.19
2009/04/23 11:24:21.5      78    -78     11    111    112 135.3   5.9  34196  290.18 0855.19
2009/04/23 11:24:21.6     150   -215     27    263    265 145.0   5.9  34180  289.92 0855.19
2009/04/23 11:24:21.7      73   -262     53    273    279 164.4  11.1  34176  289.83 0855.19
2009/04/23 11:24:21.8      92   -341     92    354    366 164.9  14.6  34172  289.79 0855.19
2009/04/23 11:24:21.9     106   -360    115    376    394 163.6  17.0  34178  289.89 0855.19
2009/04/23 11:24:22.0     -44   -354    263    357    443 187.2  40.0  34192  290.11 0855.19
2009/04/23 11:24:22.1    -333   -341     17    477    478 224.3   2.1  34200  290.25 0855.19
2009/04/23 11:24:22.2     -84   -287    233    300    379 196.3  41.7  34182  289.93 0855.19
2009/04/23 11:24:22.3    -154   -358    221    390    448 203.3  32.1  34186  290.02 0855.19
2009/04/23 11:24:22.4    -160   -366    162    400    431 203.7  23.2  34192  290.12 0855.19
2009/04/23 11:24:22.5    -190   -313    169    367    404 211.2  26.5  34204  290.32 0855.19
2009/04/23 11:24:22.6     -67   -302    116    310    330 192.5  21.4  34186  290.00 0855.21
2009/04/23 11:24:22.7     -26   -444    172    445    477 183.4  22.2  34182  289.93 0855.21
2009/04/23 11:24:22.8     -39   -469     89    471    480 184.8  10.7  34188  290.05 0855.21
2009/04/23 11:24:22.9       2   -406     33    407    409 179.7   4.7  34174  289.80 0855.21
2009/04/23 11:24:23.0      64   -405    172    411    445 171.0  24.1  34174  289.80 0855.21
2009/04/23 11:24:23.1      89   -345    129    357    379 165.5  20.7  34174  289.81 0855.21
2009/04/23 11:24:23.2     129   -300    137    327    354 156.6  24.2  34178  289.87 0855.21
2009/04/23 11:24:23.3      18   -298    276    299    406 176.5  47.6  34174  289.82 0855.21
2009/04/23 11:24:23.4     -33   -435    207    437    483 184.4  27.2  34172  289.79 0855.21
2009/04/23 11:24:23.5     -42   -417    216    420    472 185.8  29.3  34168  289.72 0855.21
2009/04/23 11:24:23.6     -36   -333    277    336    435 186.2  43.7  34176  289.85 0855.21
2009/04/23 11:24:23.7     -54   -348    244    353    429 188.8  37.9  34172  289.78 0855.21
2009/04/23 11:24:23.8      49   -357    221    361    423 172.2  34.4  34180  289.90 0855.21
2009/04/23 11:24:23.9      41   -384    164    387    420 173.8  24.3  34176  289.85 0855.21
2009/04/23 11:24:24.0     -53   -335    194    340    391 189.0  32.3  34186  290.01 0855.21
2009/04/23 11:24:24.1     -23   -245    208    247    322 185.4  44.3  34184  289.98 0855.21
2009/04/23 11:24:24.2     -22   -246    195    248    315 185.3  42.2  34184  289.97 0855.21
2009/04/23 11:24:24.3     -19   -315    127    316    340 183.6  23.0  34178  289.87 0855.21
2009/04/23 11:24:24.4     -32   -360    135    362    386 185.2  21.3  34168  289.71 0855.21
2009/04/23 11:24:24.5     -21   -323    121    324    345 183.8  21.4  34162  289.62 0855.21
2009/04/23 11:24:24.6      34   -371     91    373    385 174.7  13.8  34166  289.67 0855.24
2009/04/23 11:24:24.7      -3   -370    129    371    393 180.6  19.2  34168  289.72 0855.24
2009/04/23 11:24:24.8       9   -348    133    349    373 178.4  22.0  34174  289.81 0855.24
2009/04/23 11:24:24.9      -6   -350     90    351    363 181.1  14.5  34170  289.74 0855.24
2009/04/23 11:24:25.0      -7   -372    122    373    393 181.2  18.1  34174  289.81 0855.24
2009/04/23 11:24:25.1     -27   -364     94    365    377 184.3  14.5  34172  289.79 0855.24
2009/04/23 11:24:25.2       3   -365     74    366    374 179.5  11.6  34174  289.82 0855.24
2009/04/23 11:24:25.3       5   -344     81    345    355 179.1  13.2  34176  289.84 0855.24
2009/04/23 11:24:25.4     -40   -339    137    342    368 186.8  23.0  34176  289.84 0855.24
2009/04/23 11:24:25.5     -67   -321    127    329    352 191.9  22.3  34174  289.81 0855.24
2009/04/23 11:24:25.6     -24   -247    153    249    292 185.6  34.8  34176  289.85 0855.24
2009/04/23 11:24:25.7     -61   -298    117    305    326 191.6  22.0  34174  289.80 0855.24
2009/04/23 11:24:25.8     -21   -319    123    320    342 183.8  22.2  34178  289.87 0855.24
2009/04/23 11:24:25.9     -10   -333     75    334    343 181.8  12.8  34178  289.87 0855.24
2009/04/23 11:24:26.0       0   -299    104    300    318 180.0  19.2  34178  289.86 0855.24
2009/04/23 11:24:26.1      20   -316     39    317    320 176.4   7.1  34180  289.92 0855.24
2009/04/23 11:24:26.2     -52   -303     41    308    311 189.8   7.6  34184  289.97 0855.24
2009/04/23 11:24:26.3     -24   -342     10    343    344 184.0   1.8  34178  289.86 0855.24
2009/04/23 11:24:26.4      36   -256     70    259    269 171.9  15.3  34178  289.88 0855.24
2009/04/23 11:24:26.5      33   -243     47    246    251 172.2  11.0  34178  289.86 0855.24
2009/04/23 11:24:26.6      19   -250     83    251    265 175.6  18.4  34180  289.90 0855.23
2009/04/23 11:24:26.7     -45   -318    118    322    342 188.1  21.1  34182  289.94 0855.23
2009/04/23 11:24:26.8     -50   -318     94    322    336 189.0  16.3  34176  289.84 0855.23
2009/04/23 11:24:26.9     -43   -277     -6    281    282 188.9  -1.3  34168  289.71 0855.23
2009/04/23 11:24:27.0     -42   -299    -40    303    306 188.0  -7.7  34172  289.78 0855.23
2009/04/23 11:24:27.1     -80   -283    -62    295    302 195.8 -11.9  34172  289.78 0855.23
2009/04/23 11:24:27.2     -82   -182    -17    200    201 204.3  -5.1  34176  289.84 0855.23
2009/04/23 11:24:27.3     -60   -197     92    207    226 196.9  25.3  34180  289.92 0855.23
2009/04/23 11:24:27.4     -73   -132     31    152    156 209.0  11.6  34170  289.75 0855.23
2009/04/23 11:24:27.5     -90   -134    116    162    199 213.8  39.3  34182  289.94 0855.23
2009/04/23 11:24:27.6    -105   -181     94    210    230 210.1  25.9  34180  289.91 0855.23
2009/04/23 11:24:27.7    -124   -229     84    261    275 208.5  17.9  34178  289.88 0855.23
2009/04/23 11:24:27.8    -209   -244    129    322    346 220.5  23.0  34200  290.25 0855.23
2009/04/23 11:24:27.9    -154   -251    -11    295    296 211.6  -2.2  34204  290.31 0855.23
2009/04/23 11:24:28.0    -146   -170    131    225    260 220.8  33.1  34182  289.93 0855.23
2009/04/23 11:24:28.1    -235   -120    107    265    285 242.9  23.1  34204  290.31 0855.23
2009/04/23 11:24:28.2    -270   -104    -75    290    300 248.9 -14.5  34198  290.22 0855.23
2009/04/23 11:24:28.3    -319     44     43    323    326 278.0   7.6  34200  290.26 0855.23
2009/04/23 11:24:28.4    -221     87     66    238    248 291.7  15.6  34198  290.22 0855.23
2009/04/23 11:24:28.5    -189    117    124    223    255 301.8  31.4  34206  290.36 0855.23
2009/04/23 11:24:28.6    -231     -3     38    232    236 269.1   9.5  34216  290.51 0855.21
2009/04/23 11:24:28.7    -234    -10      7    235    236 267.4   1.8  34218  290.54 0855.21
2009/04/23 11:24:28.8    -214    -11     88    215    232 267.0  23.1  34226  290.70 0855.21
2009/04/23 11:24:28.9    -248     20     55    249    256 274.8  12.6  34242  290.95 0855.21
2009/04/23 11:24:29.0    -227     47    -16    232    233 281.9  -4.1  34248  291.07 0855.21
2009/04/23 11:24:29.1    -151     97     38    180    185 302.9  12.0  34242  290.98 0855.21
2009/04/23 11:24:29.2    -145     80     43    166    172 299.1  14.7  34264  291.33 0855.21
2009/04/23 11:24:29.3    -156    139    120    210    241 311.8  32.4  34224  290.65 0855.21
2009/04/23 11:24:29.4    -205     87    147    223    267 293.1  36.5  34238  290.90 0855.21
2009/04/23 11:24:29.5    -181     32    116    184    217 280.1  35.5  34228  290.72 0855.21
2009/04/23 11:24:29.6     -96   -109     71    146    162 221.4  27.8  34222  290.64 0855.21
2009/04/23 11:24:29.7     -23   -153     57    155    165 188.9  20.7  34202  290.28 0855.21
2009/04/23 11:24:29.8     -59   -148    101    160    189 201.8  35.5  34206  290.35 0855.21
2009/04/23 11:24:29.9     -44   -151     80    158    177 196.5  28.7  34196  290.18 0855.21
2009/04/23 11:24:30.0     -25    -97     34    101    107 194.7  18.9  34194  290.16 0855.21
2009/04/23 11:24:30.1     -63    -89     72    110    131 215.2  36.0  34196  290.19 0855.21
2009/04/23 11:24:30.2    -102    -84     31    133    137 230.4  13.2  34194  290.16 0855.21
2009/04/23 11:24:30.3    -137     -8     73    138    156 266.5  30.3  34232  290.79 0855.21
2009/04/23 11:24:30.4    -142     71     76    159    176 296.6  27.2  34236  290.86 0855.21
2009/04/23 11:24:30.5     -98     98     47    139    148 315.0  18.9  34240  290.92 0855.21
2009/04/23 11:24:30.6     -93    -22     43     96    105 256.3  25.7  34232  290.79 0855.21
2009/04/23 11:24:30.7      29   -137    131    141    192 168.0  47.9  34192  290.11 0855.21
2009/04/23 11:24:30.8      15   -177    147    178    230 174.9  43.7  34186  290.01 0855.21
2009/04/23 11:24:30.9       2    -84    150     85    172 178.2  67.7  34196  290.19 0855.21
2009/04/23 11:24:31.0     -61    -74    101     97    140 219.6  51.2  34204  290.33 0855.21
2009/04/23 11:24:31.1     -20    -63     96     67    117 197.8  62.1  34202  290.28 0855.21
2009/04/23 11:24:31.2     -13    -87    108     89    139 188.9  56.4  34212  290.47 0855.21
2009/04/23 11:24:31.3     -78    -61     65    100    119 231.8  36.0  34218  290.55 0855.21
2009/04/23 11:24:31.4     -35    -32     98     48    109 226.9  72.4  34228  290.72 0855.21
2009/04/23 11:24:31.5      -7    -98     19     99    101 184.4  11.1  34228  290.74 0855.21
2009/04/23 11:24:31.7     -16    -98      8    100    101 189.3   4.9  34228  290.72 0855.21
2009/04/23 11:24:31.7     -56   -103     42    118    125 208.5  20.0  34222  290.64 0855.21
2009/04/23 11:24:31.8     -68   -106     24    127    130 212.6  11.0  34226  290.69 0855.21
2009/04/23 11:24:32.0     -85    -62     29    106    110 234.0  15.3  34224  290.67 0855.21
2009/04/23 11:24:32.0    -128    -71      4    147    148 241.1   1.8  34226  290.69 0855.21
2009/04/23 11:24:32.2     -76    -76    -65    108    126 225.0 -38.4  34224  290.67 0855.21
2009/04/23 11:24:32.3    -101    -79    -64    129    144 232.2 -32.6  34220  290.60 0855.21
2009/04/23 11:24:32.4     -55   -129     34    141    146 203.2  13.7  34212  290.47 0855.21
2009/04/23 11:24:32.5     -98   -131     47    164    171 216.7  16.3  34216  290.53 0855.21
2009/04/23 11:24:32.6     -76   -119     41    142    148 212.6  16.3  34214  290.50 0855.21
2009/04/23 11:24:32.7     -82    -99     62    129    143 219.7  27.2  34226  290.69 0855.20
2009/04/23 11:24:32.8     -76    -85     62    115    130 221.9  30.8  34252  291.15 0855.20
2009/04/23 11:24:32.9    -113    -68     61    133    146 238.9  27.1  34250  291.09 0855.20
2009/04/23 11:24:33.0    -165     24     36    167    172 278.6  12.4  34248  291.06 0855.20
2009/04/23 11:24:33.1     -92     -3     67     93    114 267.9  39.5  34232  290.79 0855.20
2009/04/23 11:24:33.2    -100      0     81    101    129 270.4  43.3  34222  290.64 0855.20
2009/04/23 11:24:33.3     -94     39     72    102    124 292.6  38.6  34224  290.67 0855.20
2009/04/23 11:24:33.4    -106     34     16    112    114 288.2   8.5  34244  290.99 0855.20
2009/04/23 11:24:33.5     -57     27     94     64    113 295.4  63.2  34246  291.04 0855.20
2009/04/23 11:24:33.6     -62     11     40     64     75 280.6  35.5  34244  291.01 0855.20
2009/04/23 11:24:33.7     -55    -62     -3     84     85 221.4  -2.2  34236  290.86 0855.20
2009/04/23 11:24:33.8     -55   -121    -27    134    137 204.5 -11.5  34218  290.57 0855.20
2009/04/23 11:24:33.9     -59   -152    -15    164    165 201.2  -5.4  34198  290.21 0855.20
2009/04/23 11:24:34.0     -46   -137     -8    145    146 198.7  -3.2  34198  290.23 0855.20
2009/04/23 11:24:34.1      18   -132    -22    134    136 172.0  -9.3  34200  290.25 0855.20
2009/04/23 11:24:34.2       8   -112     -7    113    114 175.5  -3.7  34202  290.28 0855.20
2009/04/23 11:24:34.3     -24   -120      0    123    124 191.6   0.2  34208  290.40 0855.20
2009/04/23 11:24:34.4     -54   -106     24    120    123 207.2  11.6  34206  290.36 0855.20
2009/04/23 11:24:34.5     -77   -100     48    127    135 217.8  21.0  34200  290.26 0855.20
2009/04/23 11:24:34.6     -57    -73     32     93     99 218.3  19.4  34200  290.26 0855.20
2009/04/23 11:24:34.7     -22    -65     31     69     75 199.2  27.1  34200  290.26 0855.21
2009/04/23 11:24:34.8      -1    -39     47     40     61 182.6  55.4  34208  290.38 0855.21
2009/04/23 11:24:34.9       0      2     53      3     53 341.5  90.0  34240  290.92 0855.21
2009/04/23 11:24:35.0       7     19     59     21     62  21.8  80.2  34228  290.74 0855.21
2009/04/23 11:24:35.1     -33    -67     92     75    118 206.3  56.4  34200  290.26 0855.21
2009/04/23 11:24:35.2      56    -89    125    106    163 147.9  55.6  34194  290.14 0855.21
2009/04/23 11:24:35.3      75    -73     93    105    140 134.4  45.9  34190  290.09 0855.21
2009/04/23 11:24:35.4      19    -70     76     73    105 164.9  50.7  34190  290.08 0855.21
2009/04/23 11:24:35.5     -12    -97    102     98    141 187.6  51.2  34192  290.11 0855.21
2009/04/23 11:24:35.6      34    -25     58     43     72 126.9  60.5  34194  290.14 0855.21
2009/04/23 11:24:35.7      37    -24     83     45     94 123.3  68.8  34212  290.47 0855.21
2009/04/23 11:24:35.8    -104    -57     89    119    148 241.1  40.7  34204  290.33 0855.21
2009/04/23 11:24:35.9    -152   -116     31    192    195 232.5   9.3  34198  290.21 0855.21
2009/04/23 11:24:36.0    -162   -135     29    211    214 230.2   8.0  34192  290.13 0855.21
2009/04/23 11:24:36.1     -52   -120     82    132    155 203.6  35.5  34200  290.26 0855.21
2009/04/23 11:24:36.2    -129   -153     10    201    202 220.1   2.9  34200  290.26 0855.21
2009/04/23 11:24:36.3    -131   -122    -55    180    188 227.1 -22.1  34200  290.26 0855.21
2009/04/23 11:24:36.4     -25   -157    -48    160    167 189.3 -21.7  34200  290.26 0855.21
2009/04/23 11:24:36.5      10    -63    -36     64     73 170.2 -35.8  34204  290.33 0855.21
2009/04/23 11:24:36.6      19    -91      3     94     95 168.0   2.3  34210  290.43 0855.21
2009/04/23 11:24:36.7      15    -26     83     31     88 149.3  79.2  34222  290.62 0855.21
2009/04/23 11:24:36.8     -59    -18     59     62     85 252.3  49.0  34226  290.70 0855.21
2009/04/23 11:24:36.9     -27    -22     54     36     64 230.4  63.6  34232  290.81 0855.21
2009/04/23 11:24:37.0     -29      2     59     30     66 274.3  70.8  34232  290.81 0855.21
2009/04/23 11:24:37.1     -60     -8     60     61     85 262.0  50.5  34236  290.86 0855.21
2009/04/23 11:24:37.2    -114      7     67    115    133 273.5  33.5  34224  290.67 0855.21
2009/04/23 11:24:37.3    -135    -66     78    151    169 243.8  29.3  34222  290.62 0855.21
2009/04/23 11:24:37.4     -99    -90    117    134    177 227.8  45.8  34240  290.92 0855.21
2009/04/23 11:24:37.5    -121   -175    129    213    249 214.7  34.2  34216  290.53 0855.21
2009/04/23 11:24:37.6    -117   -209    186    240    303 209.2  41.7  34204  290.31 0855.21
2009/04/23 11:24:37.7     -93   -195    159    217    269 205.5  39.7  34194  290.14 0855.21
2009/04/23 11:24:37.8    -106   -254    157    276    317 202.7  32.1  34190  290.09 0855.21
2009/04/23 11:24:37.9     -85   -231    134    247    281 200.3  31.0  34194  290.14 0855.21
2009/04/23 11:24:38.0    -116   -254     80    280    292 204.5  16.0  34194  290.14 0855.21
2009/04/23 11:24:38.1     -42   -271     99    275    292 188.9  20.7  34192  290.12 0855.21
2009/04/23 11:24:38.2     -32   -205     59    208    217 189.1  16.0  34190  290.08 0855.21
2009/04/23 11:24:38.3      99   -202     55    225    232 153.9  13.9  34190  290.09 0855.21
2009/04/23 11:24:38.4      57   -212     10    220    221 164.9   2.8  34186  290.02 0855.21
2009/04/23 11:24:38.5      31   -265      0    267    268 173.3   0.0  34190  290.07 0855.21
2009/04/23 11:24:38.6     -11   -211     37    212    216 183.1   9.9  34188  290.04 0855.21
2009/04/23 11:24:38.7     -32   -215     54    218    225 188.5  13.9  34188  290.04 0855.21
2009/04/23 11:24:38.8    -122   -256     -3    284    285 205.5  -0.7  34188  290.03 0855.21
2009/04/23 11:24:38.9    -117   -200    -38    232    236 210.3  -9.3  34190  290.09 0855.21
2009/04/23 11:24:39.0     -43   -156     -6    162    163 195.4  -2.2  34188  290.06 0855.21
2009/04/23 11:24:39.1      34   -138     -5    143    144 166.2  -2.2  34188  290.06 0855.21
2009/04/23 11:24:39.2      17   -159     -7    160    161 173.8  -2.6  34186  290.02 0855.21
2009/04/23 11:24:39.3      86   -119      0    148    149 144.0   0.2  34188  290.06 0855.21
2009/04/23 11:24:39.4      89    -95     66    131    146 136.7  28.2  34196  290.18 0855.21
2009/04/23 11:24:39.5      80   -126    105    150    183 147.4  38.4  34192  290.11 0855.21
2009/04/23 11:24:39.6     218   -176    112    281    302 128.9  23.0  34192  290.10 0855.21
2009/04/23 11:24:39.7     180   -216    100    282    299 140.1  20.2  34198  290.22 0855.22
2009/04/23 11:24:39.8      94   -307    254    322    410 163.0  42.3  34186  290.01 0855.22
2009/04/23 11:24:39.9      46   -208    216    214    304 167.3  50.1  34196  290.17 0855.22
2009/04/23 11:24:40.0      65   -279    219    287    361 166.9  41.3  34194  290.16 0855.22
2009/04/23 11:24:40.1       2   -241     95    242    259 179.5  22.5  34196  290.19 0855.22
2009/04/23 11:24:40.2      44   -263     13    267    268 170.4   2.9  34196  290.17 0855.22
2009/04/23 11:24:40.3     -73   -232     66    244    253 197.6  15.3  34196  290.17 0855.22
2009/04/23 11:24:40.4    -121   -216    -54    248    254 209.4 -12.4  34194  290.14 0855.22
2009/04/23 11:24:40.5     -90   -163    -52    187    195 209.0 -15.5  34202  290.30 0855.22
2009/04/23 11:24:40.6     -86   -155    -41    178    183 209.2 -13.2  34202  290.30 0855.22
2009/04/23 11:24:40.7     -78   -108    -98    134    166 216.1 -44.5  34216  290.52 0855.22
2009/04/23 11:24:40.8      49    -94     12    107    108 152.4   6.5  34206  290.36 0855.22
2009/04/23 11:24:40.9      24   -292    165    294    337 175.3  31.7  34190  290.07 0855.22
2009/04/23 11:24:41.0     -74   -359    195    367    415 191.8  30.3  34188  290.03 0855.22
2009/04/23 11:24:41.1     -82   -325    117    336    357 194.3  19.3  34176  289.84 0855.22
2009/04/23 11:24:41.2      34   -296    106    299    318 173.3  19.6  34180  289.90 0855.22
2009/04/23 11:24:41.3     -11   -270     94    271    288 182.5  19.2  34184  289.97 0855.22
2009/04/23 11:24:41.4     -57   -282    135    288    318 191.5  27.0  34184  289.98 0855.22
2009/04/23 11:24:41.5     -68   -441    177    447    480 188.8  22.9  34180  289.91 0855.22
2009/04/23 11:24:41.6    -145   -389     12    416    417 200.5   1.7  34192  290.11 0855.22
2009/04/23 11:24:41.7      31   -375     -8    377    378 175.2  -1.3  34192  290.10 0855.20
2009/04/23 11:24:41.8     115   -214     66    243    252 151.7  15.2  34180  289.90 0855.20
2009/04/23 11:24:41.9      95   -227      4    247    248 157.2   1.0  34194  290.15 0855.20
2009/04/23 11:24:42.0     160   -276   -113    320    340 149.9 -19.6  34198  290.21 0855.20
2009/04/23 11:24:42.1      28   -255   -104    257    277 173.7 -27.5  34198  290.20 0855.20
2009/04/23 11:24:42.2      79   -359     43    368    371 167.5   6.7  34192  290.11 0855.20
2009/04/23 11:24:42.3     -16   -343    149    344    374 182.8  25.0  34196  290.18 0855.20
2009/04/23 11:24:42.4      12   -276    164    277    321 177.3  33.5  34196  290.19 0855.20
2009/04/23 11:24:42.5      46   -184    221    190    291 165.7  55.0  34168  289.71 0855.20
2009/04/23 11:24:42.6     261   -220     84    342    353 130.2  13.8  34204  290.33 0855.20
2009/04/23 11:24:42.7     339   -347     30    486    487 135.7   3.6  34166  289.69 0855.20
2009/04/23 11:24:42.8     315   -230    124    391    411 126.1  17.7  34160  289.58 0855.20
2009/04/23 11:24:42.9     265   -163    175    312    357 121.5  31.7  34160  289.57 0855.20
2009/04/23 11:24:43.0     133   -229    102    265    283 149.9  22.0  34142  289.25 0855.20
2009/04/23 11:24:43.1      70   -213     51    225    231 161.7  12.9  34134  289.14 0855.20
2009/04/23 11:24:43.2      29   -189     34    192    196 171.3  10.1  34146  289.35 0855.20
2009/04/23 11:24:43.3      29   -145     87    149    172 168.4  33.5  34162  289.62 0855.20
2009/04/23 11:24:43.4      12   -195    176    196    263 176.2  46.9  34180  289.92 0855.20
2009/04/23 11:24:43.5     -63   -212      2    222    223 196.7   0.7  34172  289.79 0855.20
2009/04/23 11:24:43.6      46   -160     29    167    170 163.7   9.9  34184  289.97 0855.20
2009/04/23 11:24:43.7       3    -44    127     45    134 175.5  80.7  34196  290.18 0855.20
2009/04/23 11:24:43.8     -57     35     51     67     84 301.5  41.2  34196  290.18 0855.20
2009/04/23 11:24:43.9       7    -94     57     95    110 175.5  34.4  34178  289.87 0855.20
2009/04/23 11:24:44.0     -76   -146     69    165    178 207.6  23.8  34168  289.70 0855.20
2009/04/23 11:24:44.1    -123   -123    108    175    205 225.1  34.8  34168  289.70 0855.20
2009/04/23 11:24:44.2     -52   -140    -30    150    153 200.5 -11.3  34166  289.67 0855.20
2009/04/23 11:24:44.3     -17    -53      7     56     57 198.5   8.0  34162  289.60 0855.20
2009/04/23 11:24:44.4      46     53     56     71     90  40.5  42.7  34168  289.70 0855.20
2009/04/23 11:24:44.5      24     40    125     47    133  31.6  79.1  34194  290.16 0855.20
2009/04/23 11:24:44.6     -26    -14    196     30    198 241.1  90.0  34190  290.09 0855.20
2009/04/23 11:24:44.7     -38     94    149    102    180 337.7  62.4  34188  290.04 0855.20
2009/04/23 11:24:44.8      29    -92    228     97    247 162.6  75.9  34178  289.87 0855.20
2009/04/23 11:24:44.9      17     36    116     40    122  25.4  80.7  34180  289.92 0855.20
2009/04/23 11:24:45.0      77   -121    164    144    218 147.5  54.2  34182  289.96 0855.20
2009/04/23 11:24:45.1     302   -107    284    321    428 109.5  46.1  34166  289.67 0855.20
2009/04/23 11:24:45.2     211    -98    261    233    349 115.1  53.7  34164  289.64 0855.20
2009/04/23 11:24:45.3     117   -292    235    315    393 158.2  40.6  34154  289.48 0855.20
2009/04/23 11:24:45.4      63   -340    274    346    441 169.4  42.4  34152  289.43 0855.20
2009/04/23 11:24:45.5     108   -260    283    282    399 157.3  50.1  34154  289.47 0855.20
2009/04/23 11:24:45.6     169   -122    152    209    258 126.0  39.7  34154  289.47 0855.20
2009/04/23 11:24:45.7     155   -242     62    288    295 147.4  12.2  34152  289.44 0855.22
2009/04/23 11:24:45.8     295   -361    164    467    494 140.8  20.1  34146  289.32 0855.22
2009/04/23 11:24:45.9     243   -278    208    370    424 138.9  31.9  34142  289.26 0855.22
2009/04/23 11:24:46.0     278   -230    197    362    412 129.6  30.9  34142  289.25 0855.22
2009/04/23 11:24:46.1     219   -219    203    310    370 135.0  36.3  34146  289.35 0855.22
2009/04/23 11:24:46.2     172   -303    182    349    393 150.4  29.6  34148  289.37 0855.22
2009/04/23 11:24:46.3     160   -308    134    348    372 152.5  22.3  34156  289.50 0855.22
2009/04/23 11:24:46.4     191   -279    193    339    390 145.5  32.3  34144  289.30 0855.22
2009/04/23 11:24:46.5     188   -252    221    315    384 143.3  38.6  34132  289.11 0855.22
2009/04/23 11:24:46.6      31   -220    232    223    321 171.8  51.2  34132  289.10 0855.22
2009/04/23 11:24:46.7      97    -79    137    126    186 129.1  52.7  34146  289.33 0855.22
2009/04/23 11:24:46.8     162    -51    180    170    247 107.5  51.6  34138  289.21 0855.22
2009/04/23 11:24:46.9     -15     44     99     47    109 340.8  72.9  34150  289.41 0855.22
2009/04/23 11:24:47.0       2    -98    200     99    223 178.6  71.9  34146  289.35 0855.22
2009/04/23 11:24:47.1      39      4    107     40    114  83.0  79.7  34152  289.45 0855.22
2009/04/23 11:24:47.2      97    104    134    143    195  43.2  47.9  34146  289.35 0855.22
2009/04/23 11:24:47.3      -2     37    119     38    124 355.6  81.2  34172  289.79 0855.22
2009/04/23 11:24:47.4     -63    108    154    126    198 329.7  56.4  34158  289.55 0855.22
2009/04/23 11:24:47.5    -113    -90    138    145    200 231.4  48.7  34164  289.65 0855.22
2009/04/23 11:24:47.6    -136   -120    168    182    247 228.7  47.7  34150  289.40 0855.22
2009/04/23 11:24:47.7    -190   -113    114    222    249 239.3  29.3  34150  289.41 0855.19
2009/04/23 11:24:47.8    -359   -236     31    430    432 236.6   4.2  34140  289.24 0855.19
2009/04/23 11:24:47.9    -390   -247    273    462    536 237.6  33.4  34156  289.50 0855.19
2009/04/23 11:24:48.0    -449   -123    150    466    490 254.6  17.9  34172  289.76 0855.19
2009/04/23 11:24:48.1    -206   -343    307    401    505 211.0  41.3  34140  289.22 0855.19
2009/04/23 11:24:48.2    -136   -383    322    407    518 199.6  42.3  34154  289.47 0855.19
2009/04/23 11:24:48.3    -189   -504    202    539    575 200.6  21.5  34148  289.36 0855.19
2009/04/23 11:24:48.4     -87   -365    263    376    458 193.4  38.5  34146  289.33 0855.19
2009/04/23 11:24:48.5    -130   -313    215    340    402 202.6  35.5  34142  289.28 0855.19
2009/04/23 11:24:48.6    -178   -208    130    274    303 220.6  27.2  34144  289.29 0855.19
2009/04/23 11:24:48.8    -164   -279    114    324    344 210.5  19.5  34142  289.28 0855.19
2009/04/23 11:24:48.9    -242   -153    152    287    324 237.6  30.1  34144  289.31 0855.19
2009/04/23 11:24:48.9     -35   -106    201    112    230 198.3  68.8  34156  289.52 0855.19
2009/04/23 11:24:49.0     -92   -188    146    210    255 206.1  38.4  34154  289.47 0855.19
2009/04/23 11:24:49.1    -124   -252    142    282    315 206.3  28.9  34148  289.36 0855.19
2009/04/23 11:24:49.2    -190   -108     66    219    229 240.2  16.8  34156  289.52 0855.19
2009/04/23 11:24:49.3    -229   -188     48    297    302 230.5   9.3  34182  289.93 0855.19
2009/04/23 11:24:49.4    -288   -212     45    358    361 233.6   7.2  34162  289.59 0855.19
2009/04/23 11:24:49.5    -183   -126     36    223    227 235.4   9.3  34160  289.58 0855.19
2009/04/23 11:24:49.6    -228   -130     88    263    278 240.2  18.6  34164  289.63 0855.19
2009/04/23 11:24:49.7    -104   -176    172    205    267 210.7  44.1  34154  289.47 0855.19
2009/04/23 11:24:49.8     -99   -172    147    199    247 210.1  40.1  34172  289.78 0855.19
2009/04/23 11:24:49.9    -231   -231      5    328    329 225.0   1.0  34164  289.64 0855.19
2009/04/23 11:24:50.0    -264   -329   -137    422    444 218.7 -18.0  34148  289.36 0855.19
2009/04/23 11:24:50.1    -167   -303     19    347    348 208.9   3.3  34156  289.50 0855.19
2009/04/23 11:24:50.2    -279   -183     42    335    338 236.7   7.2  34172  289.79 0855.19
2009/04/23 11:24:50.3    -365   -213     18    423    424 239.7   2.5  34162  289.61 0855.19
2009/04/23 11:24:50.4    -393   -219     64    451    456 240.9   8.1  34174  289.80 0855.19
2009/04/23 11:24:50.5    -202    -28    182    204    273 262.1  46.4  34182  289.95 0855.19
2009/04/23 11:24:50.6    -142   -189    135    237    272 217.0  32.4  34176  289.83 0855.19
2009/04/23 11:24:50.7    -113   -295    119    316    337 201.0  21.6  34158  289.54 0855.19
2009/04/23 11:24:50.8    -354   -243    -16    430    431 235.5  -2.2  34140  289.24 0855.19
2009/04/23 11:24:50.9    -198   -169    -63    261    269 229.6 -13.7  34148  289.37 0855.19
2009/04/23 11:24:51.1    -206    -92    -80    226    239 245.8 -24.6  34154  289.46 0855.19
2009/04/23 11:24:51.1     112   -145    136    184    228 142.2  39.9  34156  289.52 0855.19
2009/04/23 11:24:51.2      36    -99    185    106    213 160.0  67.5  34156  289.50 0855.19
2009/04/23 11:24:51.3       1   -107     67    108    127 179.1  35.5  34148  289.36 0855.19
2009/04/23 11:24:51.4     -10   -124    -59    125    138 184.9 -31.5  34146  289.35 0855.19
2009/04/23 11:24:51.5     -86    -86    100    123    158 225.0  43.3  34148  289.36 0855.19
2009/04/23 11:24:51.6    -129   -120     54    177    186 226.9  17.1  34146  289.35 0855.19
2009/04/23 11:24:51.7    -186   -165     46    249    254 228.4  10.6  34148  289.36 0855.22
2009/04/23 11:24:51.8    -161   -173     -9    237    238 223.0  -2.2  34140  289.24 0855.22
2009/04/23 11:24:51.9     -68   -253    117    263    287 195.2  25.7  34142  289.27 0855.22
2009/04/23 11:24:52.0     -96   -169    111    195    224 209.6  32.1  34144  289.30 0855.22
2009/04/23 11:24:52.2    -185   -183     16    261    262 225.3   3.6  34156  289.49 0855.22
2009/04/23 11:24:52.2    -210   -217    105    303    321 224.1  19.2  34144  289.29 0855.22
2009/04/23 11:24:52.3    -213   -268    218    343    406 218.5  35.5  34146  289.33 0855.22
2009/04/23 11:24:52.4    -130   -220    235    256    347 210.7  47.5  34146  289.34 0855.22
2009/04/23 11:24:52.5    -126   -231    158    264    307 208.7  33.7  34146  289.32 0855.22
2009/04/23 11:24:52.6    -127   -187    154    227    274 214.3  37.4  34150  289.41 0855.22
2009/04/23 11:24:52.7     -93   -113    100    147    177 219.6  37.6  34148  289.36 0855.22
2009/04/23 11:24:52.8      -1    -70    148     71    164 180.9  72.7  34164  289.65 0855.22
2009/04/23 11:24:52.9       8     22    104     24    106  20.0  86.9  34184  289.99 0855.22
2009/04/23 11:24:53.0     -44     44    106     63    123 314.9  66.7  34196  290.19 0855.22
2009/04/23 11:24:53.1     -69     35    125     78    147 297.1  64.7  34188  290.06 0855.22
2009/04/23 11:24:53.2     -29     46    101     55    115 327.5  68.8  34194  290.16 0855.22
2009/04/23 11:24:53.3    -171     11     84    172    191 273.7  27.4  34206  290.35 0855.22
2009/04/23 11:24:53.4    -279    -92     87    294    307 251.6  16.6  34214  290.48 0855.22
2009/04/23 11:24:53.5    -112   -129     96    172    196 221.0  31.6  34196  290.18 0855.22
2009/04/23 11:24:53.6    -141   -136     27    197    199 226.0   8.0  34202  290.28 0855.22
2009/04/23 11:24:53.7    -201    -66     63    212    222 251.6  16.6  34216  290.53 0855.22
2009/04/23 11:24:53.8    -161   -116     68    199    211 234.1  18.9  34214  290.48 0855.22
2009/04/23 11:24:53.9    -145    -34    146    149    208 256.8  49.8  34194  290.14 0855.22
2009/04/23 11:24:54.0    -226    -17    147    227    270 265.6  35.6  34172  289.78 0855.22
2009/04/23 11:24:54.1    -207    -85    132    224    260 247.6  33.4  34176  289.85 0855.22
2009/04/23 11:24:54.2    -308    -36    144    311    342 263.2  26.9  34208  290.37 0855.22
2009/04/23 11:24:54.3    -267    -49     73    272    282 259.5  15.0  34198  290.20 0855.22
2009/04/23 11:24:54.4    -191    -54     90    199    218 254.1  25.9  34186  290.02 0855.22
2009/04/23 11:24:54.5    -181     25    142    183    231 278.1  41.7  34178  289.87 0855.22
2009/04/23 11:24:54.6    -213     43     95    218    237 281.5  25.1  34184  289.97 0855.22
2009/04/23 11:24:54.7    -177      5    178    178    251 271.9  50.1  34208  290.38 0855.22
2009/04/23 11:24:54.8    -139    -28    115    142    182 258.5  43.5  34218  290.55 0855.22
2009/04/23 11:24:54.9    -236   -177     53    296    301 233.1  10.3  34194  290.15 0855.22
2009/04/23 11:24:55.0    -176   -155     -9    235    236 228.7  -2.2  34196  290.17 0855.22
2009/04/23 11:24:55.1    -136   -175     80    222    235 217.9  20.7  34198  290.21 0855.22
2009/04/23 11:24:55.2     -35   -116    123    122    173 196.9  49.9  34190  290.09 0855.22
2009/04/23 11:24:55.3     -50    -94     22    107    110 208.1  11.6  34212  290.45 0855.22
2009/04/23 11:24:55.4    -109   -124     29    166    169 221.4  10.1  34202  290.30 0855.22
2009/04/23 11:24:55.5    -181    -79     -7    198    199 246.5  -2.2  34202  290.30 0855.22
2009/04/23 11:24:55.6    -249    -73     32    260    263 253.6   7.1  34208  290.37 0855.22
2009/04/23 11:24:55.7    -226      4    -13    227    228 271.3  -3.3  34188  290.06 0855.22
2009/04/23 11:24:55.8    -204     16     38    205    209 274.6  10.6  34206  290.35 0855.22
2009/04/23 11:24:55.9    -235     33     68    238    248 278.0  16.0  34256  291.19 0855.22
2009/04/23 11:24:56.0    -198     -3     15    199    200 269.1   4.4  34234  290.84 0855.22
2009/04/23 11:24:56.1    -241     21     84    242    257 275.2  19.2  34238  290.88 0855.22
2009/04/23 11:24:56.2    -246     34    -84    249    262 278.0 -23.3  34208  290.39 0855.22
2009/04/23 11:24:56.3    -232      0     47    233    238 270.1  11.6  34212  290.46 0855.22
2009/04/23 11:24:56.4    -342    -20     28    343    345 266.5   4.7  34238  290.89 0855.22
2009/04/23 11:24:56.5    -373   -137     26    398    399 249.8   3.8  34244  291.00 0855.22
2009/04/23 11:24:56.6    -407   -135     83    429    438 251.6  11.0  34220  290.58 0855.22
2009/04/23 11:24:56.7    -341   -199    -19    395    396 239.7  -2.8  34210  290.43 0855.22
2009/04/23 11:24:56.8    -241   -325    104    405    419 216.6  14.4  34202  290.28 0855.22
2009/04/23 11:24:56.9    -295   -277     35    405    407 226.8   5.0  34210  290.41 0855.22
2009/04/23 11:24:57.0    -408    -15    -52    409    413 267.9  -7.4  34216  290.51 0855.22
2009/04/23 11:24:57.1    -437     32    -72    439    445 274.3  -9.4  34168  289.70 0855.22
2009/04/23 11:24:57.2    -456     38   -131    458    477 274.8 -16.0  34168  289.71 0855.22
2009/04/23 11:24:57.3    -421    -15   -150    422    448 267.9 -19.6  34176  289.83 0855.22
2009/04/23 11:24:57.4    -500    -73   -183    506    538 261.6 -25.1  34166  289.67 0855.22
2009/04/23 11:24:57.5    -406      6   -182    407    445 270.9 -30.1  34176  289.83 0855.22
2009/04/23 11:24:57.6    -388    -66   -136    394    417 260.3 -19.1  34180  289.90 0855.22
2009/04/23 11:24:57.7    -472    -24   -155    473    498 267.0 -18.2  34172  289.79 0855.20
2009/04/23 11:24:57.9    -465     32    -99    467    478 274.0 -12.0  34174  289.81 0855.20
2009/04/23 11:24:58.0    -300    -68    -91    308    322 257.2 -16.5  34186  290.00 0855.20
2009/04/23 11:24:58.1    -329      7    -79    330    340 271.4 -13.6  34192  290.11 0855.20
2009/04/23 11:24:58.2    -279    -47   -142    284    317 260.3 -33.0  34168  289.71 0855.20
2009/04/23 11:24:58.3    -308    -47    -97    312    326 261.2 -22.4  34190  290.07 0855.20
2009/04/23 11:24:58.3    -297    134   -105    326    342 294.3 -23.2  34192  290.13 0855.20
2009/04/23 11:24:58.5    -248     54    -84    254    267 282.3 -23.8  34192  290.12 0855.20
2009/04/23 11:24:58.6    -368     13   -150    369    398 272.1 -27.6  34162  289.62 0855.20
2009/04/23 11:24:58.7    -350      7   -143    351    379 271.3 -27.6  34156  289.52 0855.20
2009/04/23 11:24:58.8    -422     58   -177    426    461 277.9 -28.3  34146  289.34 0855.18
2009/04/23 11:24:58.9    -387     29   -207    389    440 274.4 -34.7  34140  289.24 0855.18
2009/04/23 11:24:59.0    -369    114   -173    387    423 287.2 -30.3  34174  289.82 0855.18
2009/04/23 11:24:59.1    -288     77    -77    299    309 285.0 -14.6  34200  290.24 0855.18
2009/04/23 11:24:59.2    -212     54    -81    219    233 284.4 -25.4  34194  290.16 0855.18
2009/04/23 11:24:59.3    -149    142    -54    207    214 313.6 -14.7  34192  290.11 0855.18
2009/04/23 11:24:59.4    -208    114    -75    238    249 298.8 -22.8  34214  290.48 0855.18
2009/04/23 11:24:59.5    -210      2    -19    211    212 270.6  -5.4  34256  291.21 0855.18
2009/04/23 11:24:59.6    -191     57     42    200    205 286.8  12.0  34232  290.79 0855.18
2009/04/23 11:24:59.7    -175      0     40    176    181 269.9  12.9  34218  290.57 0855.18
2009/04/23 11:24:59.8    -172     75     44    188    194 293.5  13.2  34192  290.13 0855.18
2009/04/23 11:24:59.9    -181     75     51    197    204 292.6  14.5  34204  290.33 0855.18
2009/04/23 11:25:00.0    -125     74    -40    146    152 300.7 -15.5  34200  290.26 0855.18
2009/04/23 11:25:00.1    -224     36    -96    227    246 279.2 -28.6  34184  289.97 0855.18
2009/04/23 11:25:00.2    -222     76    -97    235    254 289.1 -28.2  34194  290.15 0855.18
2009/04/23 11:25:00.3    -254     47    -86    259    272 280.6 -23.8  34188  290.03 0855.18
2009/04/23 11:25:00.4    -258     32   -124    261    288 277.2 -31.6  34172  289.76 0855.18
2009/04/23 11:25:00.5    -175    -32   -100    178    204 259.6 -36.3  34168  289.70 0855.18
2009/04/23 11:25:00.6    -104    -34   -107    110    153 251.8 -54.3  34168  289.72 0855.18
2009/04/23 11:25:00.7     -73     18    -68     76    101 284.2 -51.3  34182  289.94 0855.18
2009/04/23 11:25:00.8     -69     37     -2     79     80 298.4  -1.8  34176  289.85 0855.16
2009/04/23 11:25:00.9    -117     35    -11    123    124 286.8  -5.2  34194  290.14 0855.16
2009/04/23 11:25:01.0    -114     41     16    122    124 289.9   7.5  34202  290.30 0855.16
2009/04/23 11:25:01.1    -118      2      1    119    120 271.3   0.8  34210  290.41 0855.16
2009/04/23 11:25:01.2    -153      0    -83    154    174 269.6 -35.0  34212  290.47 0855.16
2009/04/23 11:25:01.3    -143     18    -83    145    167 277.5 -37.1  34218  290.57 0855.16
2009/04/23 11:25:01.4    -155    -16   -105    156    188 263.8 -41.4  34178  289.87 0855.16
2009/04/23 11:25:01.5    -151     -2    -97    152    180 269.2 -39.9  34172  289.79 0855.16
2009/04/23 11:25:01.6    -162     -2    -94    163    188 269.2 -37.1  34192  290.13 0855.16
2009/04/23 11:25:01.7    -152     61   -137    164    213 292.0 -48.2  34204  290.33 0855.16
2009/04/23 11:25:01.8    -213     83   -156    229    277 291.3 -42.0  34194  290.15 0855.16
2009/04/23 11:25:01.9    -153     85    -69    176    189 299.1 -26.9  34216  290.52 0855.16
2009/04/23 11:25:02.0    -200     32    -88    203    221 279.2 -29.3  34246  291.03 0855.16
2009/04/23 11:25:02.1    -216    -34    -56    219    227 261.0 -14.3  34248  291.06 0855.16
2009/04/23 11:25:02.2    -202    -15    -76    203    216 265.6 -25.9  34230  290.75 0855.16
2009/04/23 11:25:02.3    -297    -50   -156    302    339 260.4 -33.9  34174  289.80 0855.16
2009/04/23 11:25:02.4    -385     13   -155    386    415 272.0 -27.4  34196  290.19 0855.16
2009/04/23 11:25:02.5    -298     22   -148    299    333 274.4 -32.6  34186  290.00 0855.16
2009/04/23 11:25:02.6    -173      9   -130    174    217 273.0 -44.8  34180  289.92 0855.16
2009/04/23 11:25:02.7    -190   -102    -44    216    221 241.8 -11.6  34204  290.31 0855.16
2009/04/23 11:25:02.8    -208   -131    -88    246    261 237.8 -24.6  34218  290.56 0855.16
2009/04/23 11:25:02.9    -189   -132    -96    231    250 235.1 -28.5  34194  290.15 0855.16
2009/04/23 11:25:03.0    -212   -120   -133    244    277 240.5 -35.4  34194  290.15 0855.16
2009/04/23 11:25:03.1    -207   -121   -128    241    272 239.6 -34.7  34186  290.00 0855.16
2009/04/23 11:25:03.2     -33   -199   -151    202    252 189.6 -45.0  34186  290.02 0855.16
2009/04/23 11:25:03.3    -153   -221   -140    269    303 214.7 -33.7  34214  290.49 0855.16
2009/04/23 11:25:03.4    -133   -129   -150    186    238 225.8 -47.4  34216  290.52 0855.16
2009/04/23 11:25:03.5    -138   -253      8    289    290 208.7   1.6  34208  290.39 0855.16
2009/04/23 11:25:03.6    -151   -318    -44    353    356 205.5  -7.2  34250  291.10 0855.16
2009/04/23 11:25:03.7      15   -208   -105    209    233 175.6 -33.1  34220  290.58 0855.16
2009/04/23 11:25:03.8    -104   -191     74    218    231 208.7  18.9  34224  290.65 0855.16
2009/04/23 11:25:03.9     -32   -259     31    262    264 187.1   6.9  34244  290.99 0855.16
2009/04/23 11:25:04.0     -56   -284    -16    290    291 191.3  -3.3  34248  291.05 0855.16
2009/04/23 11:25:04.1    -112   -360    105    378    393 197.3  15.6  34230  290.77 0855.16
2009/04/23 11:25:04.2     -27   -365      5    366    367 184.4   0.8  34206  290.35 0855.16
2009/04/23 11:25:04.3     -82   -377     54    386    390 192.3   8.0  34212  290.47 0855.16
2009/04/23 11:25:04.4    -114   -417     22    433    434 195.3   2.9  34236  290.85 0855.16
2009/04/23 11:25:04.5    -142   -349     59    377    382 202.2   9.0  34240  290.93 0855.16
2009/04/23 11:25:04.6      20   -329     57    330    336 176.4   9.9  34216  290.52 0855.16
2009/04/23 11:25:04.7       5   -287    165    288    331 179.0  32.4  34236  290.85 0855.16
2009/04/23 11:25:04.8    -157   -392    106    423    437 201.9  14.2  34242  290.97 0855.17
2009/04/23 11:25:04.9     -92   -388     32    399    401 193.4   4.7  34230  290.76 0855.17
2009/04/23 11:25:05.0    -143   -325    -27    356    358 203.7  -4.5  34258  291.22 0855.17
2009/04/23 11:25:05.1    -130   -301     -7    329    330 203.4  -1.4  34256  291.20 0855.17
2009/04/23 11:25:05.2    -142   -185    -78    234    246 217.6 -23.6  34230  290.75 0855.17
2009/04/23 11:25:05.3    -111   -161    -76    196    210 214.7 -26.7  34232  290.81 0855.17
2009/04/23 11:25:05.4    -142   -217    -77    260    272 213.2 -16.6  34230  290.75 0855.17
2009/04/23 11:25:05.5    -217   -166    -47    274    279 232.5  -9.8  34266  291.38 0855.17
2009/04/23 11:25:05.6    -197   -188    -35    273    276 226.2  -7.3  34266  291.36 0855.17
2009/04/23 11:25:05.7    -225   -204    -44    304    308 227.8  -8.2  34276  291.55 0855.17
2009/04/23 11:25:05.8    -268   -129   -122    298    322 244.2 -27.9  34228  290.71 0855.17
2009/04/23 11:25:05.9    -300   -136   -111    330    349 245.6 -18.7  34238  290.89 0855.17
2009/04/23 11:25:06.0    -347   -154   -112    380    396 246.0 -21.4  34230  290.76 0855.17
2009/04/23 11:25:06.1    -390   -179   -156    430    457 245.3 -25.3  34224  290.65 0855.17
2009/04/23 11:25:06.2    -314   -132   -193    341    391 247.2 -36.4  34198  290.21 0855.17
2009/04/23 11:25:06.3    -323   -187   -129    374    396 240.0 -19.1  34208  290.40 0855.17
2009/04/23 11:25:06.4    -359   -201     10    412    413 240.7   1.5  34212  290.44 0855.17
2009/04/23 11:25:06.5    -317    -73    -76    326    335 257.0 -13.2  34214  290.49 0855.17
2009/04/23 11:25:06.6    -351   -130    -11    375    376 249.6  -1.7  34236  290.86 0855.17
2009/04/23 11:25:06.7    -385   -118    -26    403    404 253.0  -3.8  34250  291.09 0855.17
2009/04/23 11:25:06.8    -346   -169   -119    386    405 244.0 -17.2  34228  290.74 0855.20
2009/04/23 11:25:06.9    -330    -96   -123    344    366 253.7 -19.7  34208  290.38 0855.20
2009/04/23 11:25:07.0    -335    -72    -61    343    349 257.8 -10.2  34198  290.21 0855.20
2009/04/23 11:25:07.1    -312    -89     -3    325    326 254.1  -0.6  34232  290.80 0855.20
2009/04/23 11:25:07.2    -335   -144     64    365    371 246.7  10.0  34238  290.89 0855.20
2009/04/23 11:25:07.3    -358   -121     84    379    389 251.3  12.5  34204  290.32 0855.20
2009/04/23 11:25:07.4    -256    -88     60    271    278 251.0  12.6  34254  291.17 0855.20
2009/04/23 11:25:07.5    -175   -227    114    287    308 217.6  23.0  34272  291.46 0855.20
2009/04/23 11:25:07.6     -70   -300    250    309    397 193.3  43.0  34224  290.67 0855.20
2009/04/23 11:25:07.7     -62   -363    144    369    396 189.7  22.4  34194  290.15 0855.20
2009/04/23 11:25:07.8     -60   -298    137    305    334 191.5  25.9  34194  290.14 0855.20
2009/04/23 11:25:07.9    -107   -210    114    236    262 207.1  27.8  34214  290.48 0855.20
2009/04/23 11:25:08.0    -178   -230     77    292    303 217.8  14.9  34188  290.05 0855.20
2009/04/23 11:25:08.1    -162   -238     22    289    290 214.3   4.4  34190  290.07 0855.20
2009/04/23 11:25:08.2    -161   -363     45    398    401 203.9   6.5  34186  290.01 0855.20
2009/04/23 11:25:08.3     -91   -390     73    401    408 193.2  10.3  34186  290.00 0855.20
2009/04/23 11:25:08.4     -18   -332    -16    333    334 183.2  -2.8  34184  289.98 0855.20
2009/04/23 11:25:08.5      32   -418    -44    420    423 175.5  -6.1  34182  289.95 0855.20
2009/04/23 11:25:08.6      60   -416    -67    421    427 171.7  -9.1  34182  289.94 0855.20
2009/04/23 11:25:08.7     -56   -326     34    331    333 189.9   6.0  34188  290.03 0855.20
2009/04/23 11:25:08.8     -54   -279     69    285    294 191.1  13.7  34182  289.93 0855.19
2009/04/23 11:25:08.9      29   -309     73    311    320 174.6  13.3  34184  289.97 0855.19
2009/04/23 11:25:09.0      78   -257     73    269    279 163.1  15.3  34182  289.95 0855.19
2009/04/23 11:25:09.1      33   -304     15    306    307 173.8   2.9  34182  289.93 0855.19
2009/04/23 11:25:09.2      58   -327     26    333    335 169.9   4.6  34182  289.93 0855.19
2009/04/23 11:25:09.3      56   -305      1    311    312 169.5   0.4  34182  289.95 0855.19
2009/04/23 11:25:09.4      71   -301    -69    310    318 166.6 -12.7  34182  289.95 0855.19
2009/04/23 11:25:09.5      87   -384    -83    394    403 167.1 -12.0  34176  289.84 0855.19
2009/04/23 11:25:09.6      78   -365    -85    374    384 167.9 -12.9  34178  289.86 0855.19
2009/04/23 11:25:09.7      57   -370    -67    375    382 171.2 -10.2  34174  289.81 0855.19
2009/04/23 11:25:09.8      71   -321    -49    329    333 167.4  -8.6  34178  289.89 0855.19
2009/04/23 11:25:09.9      47   -248    -26    253    255 169.3  -6.0  34182  289.95 0855.19
2009/04/23 11:25:10.0      97   -227     -9    248    249 156.8  -2.2  34174  289.81 0855.19
2009/04/23 11:25:10.1      77   -248    -93    260    277 162.6 -19.7  34176  289.83 0855.19
2009/04/23 11:25:10.2      77   -303    -34    313    315 165.7  -6.2  34176  289.83 0855.19
2009/04/23 11:25:10.3      64   -305      8    312    313 168.0   1.6  34174  289.80 0855.19
2009/04/23 11:25:10.4      15   -209     -8    210    211 175.8  -2.2  34170  289.74 0855.19
2009/04/23 11:25:10.5      31   -210    -57    213    221 171.5 -15.0  34176  289.84 0855.19
2009/04/23 11:25:10.6      29   -235     29    237    239 172.9   7.2  34182  289.93 0855.19
2009/04/23 11:25:10.7      53   -244     64    250    259 167.7  14.5  34184  289.98 0855.19
2009/04/23 11:25:10.8      22   -292     53    293    298 175.6  10.3  34178  289.88 0855.19
2009/04/23 11:25:10.9      24   -314     23    315    316 175.6   4.3  34160  289.56 0855.19
2009/04/23 11:25:11.0      14   -299      1    300    301 177.3   0.2  34140  289.24 0855.19
2009/04/23 11:25:11.1      11   -285    -11    286    287 177.8  -2.2  34148  289.36 0855.19
2009/04/23 11:25:11.2      63   -277    -46    285    289 167.1  -9.3  34150  289.41 0855.19
2009/04/23 11:25:11.3      92   -327    -79    340    350 164.2 -13.2  34152  289.45 0855.19
2009/04/23 11:25:11.4     113   -336     32    355    357 161.3   5.2  34176  289.84 0855.19
2009/04/23 11:25:11.5      71   -299      0    308    309 166.6   0.0  34174  289.81 0855.19
2009/04/23 11:25:11.6     131   -374    -29    397    399 160.6  -4.2  34178  289.87 0855.19
2009/04/23 11:25:11.7     132   -362      6    386    387 160.0   1.0  34178  289.86 0855.19
2009/04/23 11:25:11.8     143   -336      9    366    367 157.0   1.5  34172  289.76 0855.19
2009/04/23 11:25:11.9     146   -245    -79    286    297 149.2 -15.5  34174  289.81 0855.19
2009/04/23 11:25:12.0     150   -221     28    268    270 145.7   6.0  34182  289.95 0855.19
2009/04/23 11:25:12.1     133   -209     58    249    256 147.5  13.1  34188  290.03 0855.19
2009/04/23 11:25:12.2     109   -187     91    217    235 149.7  24.2  34192  290.11 0855.19
2009/04/23 11:25:12.3      93   -196     67    217    228 154.6  17.3  34192  290.11 0855.19
2009/04/23 11:25:12.4     155   -176     18    235    236 138.6   4.6  34186  290.02 0855.19
2009/04/23 11:25:12.5     124   -176     26    216    218 144.8   7.1  34184  289.99 0855.19
2009/04/23 11:25:12.6      68   -191     56    203    211 160.4  15.6  34176  289.85 0855.19
2009/04/23 11:25:12.7     103   -141     40    175    180 143.9  12.9  34174  289.82 0855.19
2009/04/23 11:25:12.8      11   -161     90    162    185 175.8  31.4  34170  289.75 0855.19
2009/04/23 11:25:12.9     -12   -218    103    219    242 183.4  27.0  34176  289.85 0855.19
2009/04/23 11:25:13.0     -12   -227     19    228    229 183.1   4.9  34176  289.85 0855.19
2009/04/23 11:25:13.1      26   -184     30    186    189 171.8   9.3  34180  289.92 0855.19
2009/04/23 11:25:13.2      33   -169     64    173    184 168.9  21.0  34174  289.82 0855.19
2009/04/23 11:25:13.3      69   -116     94    136    165 149.3  38.0  34174  289.82 0855.19
2009/04/23 11:25:13.4      95   -107     91    144    170 138.6  35.5  34174  289.80 0855.19
2009/04/23 11:25:13.5      58    -57     94     82    124 134.4  54.3  34182  289.94 0855.19
2009/04/23 11:25:13.6      55    -33     58     65     87 121.5  46.9  34180  289.92 0855.19
2009/04/23 11:25:13.7      37    -55     62     67     91 145.7  47.9  34172  289.77 0855.19
2009/04/23 11:25:13.8       0    -30     67     31     73 180.9  73.1  34184  289.99 0855.19
2009/04/23 11:25:13.9      61     12     53     63     82  78.5  44.8  34182  289.96 0855.19
2009/04/23 11:25:14.0      25     28     65     38     75  41.4  66.8  34192  290.13 0855.19
2009/04/23 11:25:14.1     -30     30     41     43     59 315.0  49.0  34204  290.33 0855.19
2009/04/23 11:25:14.2     -65     38     68     76    101 300.7  46.9  34208  290.40 0855.19
2009/04/23 11:25:14.3      19     37     93     42    102  27.2  74.5  34200  290.25 0855.19
2009/04/23 11:25:14.4       6     23     64     24     68  15.1  80.2  34208  290.40 0855.19
2009/04/23 11:25:14.5     -24      8     39     26     46 288.4  63.6  34212  290.45 0855.19
2009/04/23 11:25:14.6     -16      9     37     19     41 298.9  70.8  34212  290.45 0855.19
2009/04/23 11:25:14.7     -12    -48     50     50     70 194.3  50.1  34196  290.18 0855.19
2009/04/23 11:25:14.8     -42    -59     71     73    101 215.2  49.4  34190  290.08 0855.15
2009/04/23 11:25:14.9     -62    -26     53     68     86 247.4  41.7  34188  290.04 0855.15
2009/04/23 11:25:15.0     -32    -60     74     69    101 208.1  52.2  34178  289.89 0855.15
2009/04/23 11:25:15.1     -27    -77     68     82    106 199.6  43.8  34176  289.85 0855.15
2009/04/23 11:25:15.2     -23    -72     40     76     85 198.3  30.3  34178  289.87 0855.15
2009/04/23 11:25:15.3     -27    -64     47     70     84 202.7  36.5  34176  289.85 0855.15
2009/04/23 11:25:15.4     -32    -59     28     68     73 209.0  23.0  34178  289.89 0855.15
2009/04/23 11:25:15.5     -17    -72     42     75     85 193.4  31.9  34172  289.79 0855.15
2009/04/23 11:25:15.6     -27   -100     64    104    122 195.6  34.4  34170  289.74 0855.15
2009/04/23 11:25:15.7     -32   -105     36    110    116 196.9  18.4  34170  289.74 0855.15
2009/04/23 11:25:15.8     -42    -92     -3    102    103 204.5  -1.8  34176  289.85 0855.15
2009/04/23 11:25:15.9     -32   -140     -7    144    145 192.9  -3.1  34180  289.91 0855.15
2009/04/23 11:25:16.0     -50   -171     27    179    182 196.5   8.8  34178  289.89 0855.15
2009/04/23 11:25:16.1     -69   -148     53    164    173 204.9  17.9  34188  290.04 0855.15
2009/04/23 11:25:16.2    -101   -131    -20    166    168 217.6  -6.9  34178  289.87 0855.15
2009/04/23 11:25:16.3    -104   -123    -27    162    165 220.3  -9.6  34190  290.09 0855.15
2009/04/23 11:25:16.4    -102   -137    -19    171    173 216.7  -6.5  34196  290.19 0855.15
2009/04/23 11:25:16.5     -91   -110     -7    144    145 219.6  -3.1  34200  290.26 0855.15
2009/04/23 11:25:16.6    -127   -119    -19    175    177 226.9  -6.2  34212  290.47 0855.15
2009/04/23 11:25:16.7    -121   -118    -23    170    172 225.6  -7.7  34208  290.38 0855.15
2009/04/23 11:25:16.8    -111    -86    -39    141    147 232.2 -15.5  34226  290.70 0855.14
2009/04/23 11:25:16.9     -92   -104    -23    140    142 221.5  -9.3  34206  290.35 0855.14
2009/04/23 11:25:17.0    -148   -122    -35    192    196 230.5 -10.5  34194  290.16 0855.14
2009/04/23 11:25:17.1    -226   -171    -74    284    294 232.9 -14.7  34160  289.56 0855.14
2009/04/23 11:25:17.2    -163   -192    -75    253    263 220.3 -21.7  34170  289.75 0855.14
2009/04/23 11:25:17.3    -119   -241    -34    269    272 206.3  -7.3  34176  289.83 0855.14
2009/04/23 11:25:17.4    -139   -208    -13    251    252 213.8  -3.1  34180  289.92 0855.14
2009/04/23 11:25:17.5     -88   -185     53    206    213 205.5  14.7  34192  290.13 0855.14
2009/04/23 11:25:17.6     -84   -209     29    226    228 201.9   7.5  34172  289.79 0855.14
2009/04/23 11:25:17.7     -69   -225     50    236    242 197.2  12.1  34170  289.73 0855.14
2009/04/23 11:25:17.8     -62   -188     58    198    207 198.3  16.3  34172  289.79 0855.14
2009/04/23 11:25:17.9     -51   -235     37    241    244 192.4   8.9  34176  289.83 0855.14
2009/04/23 11:25:18.0     -82   -272    -26    285    287 196.9  -5.4  34174  289.81 0855.14
2009/04/23 11:25:18.1     -59   -292      6    299    300 191.6   1.2  34168  289.71 0855.14
2009/04/23 11:25:18.2     -92   -277    -37    293    296 198.5  -7.2  34174  289.80 0855.14
2009/04/23 11:25:18.3     -91   -263    -73    279    289 199.1 -14.7  34160  289.58 0855.14
2009/04/23 11:25:18.4       0   -235     32    236    239 180.2   7.8  34164  289.63 0855.14
2009/04/23 11:25:18.5     -58   -203     38    212    216 196.0  10.3  34160  289.57 0855.14
2009/04/23 11:25:18.6    -140    -66    -31    155    159 244.7 -11.6  34156  289.50 0855.14
2009/04/23 11:25:18.7    -162   -100     -7    191    192 238.2  -2.2  34150  289.41 0855.14
2009/04/23 11:25:18.8    -199   -180     49    269    274 227.8  10.3  34158  289.54 0855.11
2009/04/23 11:25:18.9    -240    -18     10    241    242 265.7   2.5  34160  289.58 0855.11
2009/04/23 11:25:19.0    -398   -201      0    446    447 243.2   0.0  34166  289.68 0855.11
2009/04/23 11:25:19.1    -472   -309    -96    565    574 236.8  -9.7  34156  289.51 0855.11
2009/04/23 11:25:19.2    -374   -246    -32    448    450 236.6  -4.1  34156  289.51 0855.11
2009/04/23 11:25:19.3    -421   -241    -35    486    488 240.2  -4.1  34150  289.40 0855.11
2009/04/23 11:25:19.4    -411   -201    -33    458    460 243.9  -4.2  34146  289.34 0855.11
2009/04/23 11:25:19.5    -401   -129   -126    422    440 252.2 -21.7  34142  289.27 0855.11
2009/04/23 11:25:19.6    -541   -123   -141    555    573 257.1 -14.3  34164  289.63 0855.11
2009/04/23 11:25:19.7    -567   -114   -160    579    601 258.6 -15.5  34144  289.29 0855.11
2009/04/23 11:25:19.8    -474   -135     -1    493    494 254.1  -0.2  34166  289.67 0855.11
2009/04/23 11:25:19.9    -438   -176    -32    473    475 248.1  -3.9  34162  289.59 0855.11
2009/04/23 11:25:20.0    -387   -183    -83    429    438 244.6 -11.0  34168  289.70 0855.11
2009/04/23 11:25:20.1    -313   -242   -129    396    416 232.3 -23.2  34160  289.56 0855.11
2009/04/23 11:25:20.2    -329   -327     -2    465    466 225.2  -0.3  34178  289.88 0855.11
2009/04/23 11:25:20.3    -221   -350    -18    414    415 212.3  -2.6  34186  290.02 0855.11
2009/04/23 11:25:20.4    -173   -355     -9    396    397 206.0  -1.4  34186  290.01 0855.11
2009/04/23 11:25:20.5    -362   -191   -144    410    435 242.2 -19.4  34160  289.56 0855.11
2009/04/23 11:25:20.6    -290   -273   -115    399    415 226.8 -20.9  34170  289.75 0855.11
2009/04/23 11:25:20.7    -248   -259   -123    359    379 223.8 -23.8  34172  289.76 0855.11
2009/04/23 11:25:20.8    -149   -340    -67    372    379 203.6 -10.3  34208  290.38 0855.09
2009/04/23 11:25:20.9    -208   -222   -141    305    336 223.0 -30.9  34160  289.56 0855.09
2009/04/23 11:25:21.0     -61   -311   -107    318    336 191.1 -18.7  34188  290.04 0855.09
2009/04/23 11:25:21.1     -56   -330    -67    335    342 189.7 -11.3  34182  289.94 0855.09
2009/04/23 11:25:21.2     -30   -396   -106    398    412 184.4 -15.0  34176  289.83 0855.09
2009/04/23 11:25:21.3     -29   -398   -127    400    420 184.3 -17.7  34176  289.85 0855.09
2009/04/23 11:25:21.4     -43   -403    -48    406    409 186.2  -6.8  34176  289.85 0855.09
2009/04/23 11:25:21.5     -58   -353    -60    358    364 189.4  -9.6  34178  289.86 0855.09
2009/04/23 11:25:21.6     -32   -327    -48    329    333 185.7  -8.4  34174  289.81 0855.09
2009/04/23 11:25:21.7      26   -461    -12    462    463 176.8  -1.6  34182  289.94 0855.09
2009/04/23 11:25:21.8       0   -513    -80    514    521 180.0  -8.9  34188  290.06 0855.04
2009/04/23 11:25:21.9       3   -583    -19    584    585 179.7  -1.9  34200  290.24 0855.04
2009/04/23 11:25:22.0      16   -585     66    586    590 178.4   6.5  34188  290.03 0855.04
2009/04/23 11:25:22.1      31   -523     16    524    525 176.6   1.8  34190  290.09 0855.04
2009/04/23 11:25:22.2      37   -523     63    525    529 175.9   6.9  34184  289.99 0855.04
2009/04/23 11:25:22.3      35   -453     70    455    461 175.5   8.8  34184  289.97 0855.04
2009/04/23 11:25:22.4      79   -466    111    473    486 170.3  13.2  34178  289.89 0855.04
2009/04/23 11:25:22.5      78   -433    104    441    454 169.8  13.3  34174  289.80 0855.04
2009/04/23 11:25:22.6      89   -375     54    386    390 166.6   8.0  34172  289.79 0855.04
2009/04/23 11:25:22.7     172   -316    -25    361    362 151.4  -4.1  34174  289.82 0855.04
2009/04/23 11:25:22.8     178   -283     43    335    338 147.8   7.4  34172  289.77 0855.04
2009/04/23 11:25:22.9     164   -328     41    367    370 153.4   6.5  34172  289.79 0855.04
2009/04/23 11:25:23.0     182   -289     71    342    350 147.8  11.8  34174  289.82 0855.04
2009/04/23 11:25:23.1     126   -230     20    263    264 151.3   4.4  34174  289.81 0855.04
2009/04/23 11:25:23.2      58   -341    -19    346    347 170.3  -3.2  34130  289.08 0855.04
2009/04/23 11:25:23.3      50   -346    -13    350    351 171.8  -2.2  34132  289.10 0855.04
2009/04/23 11:25:23.4      28   -337    -67    339    346 175.1 -11.3  34142  289.25 0855.04
2009/04/23 11:25:23.5      -6   -325      6    326    327 181.1   1.2  34166  289.66 0855.04
2009/04/23 11:25:23.6      10   -315    -93    316    330 178.1 -16.4  34162  289.61 0855.04
2009/04/23 11:25:23.7       0   -308    -39    309    312 180.1  -7.3  34174  289.81 0855.04
2009/04/23 11:25:23.8     -20   -335    -67    336    343 183.5 -11.3  34176  289.84 0855.02
2009/04/23 11:25:23.9      22   -286    -67    287    295 175.5 -13.3  34176  289.83 0855.02
2009/04/23 11:25:24.0       3   -296    -70    297    306 179.3 -13.3  34184  289.97 0855.02
2009/04/23 11:25:24.2     -32   -288    -26    290    292 186.5  -5.2  34184  289.98 0855.02
2009/04/23 11:25:24.3     -33   -274    -21    276    277 186.9  -4.4  34182  289.95 0855.02
2009/04/23 11:25:24.4     -21   -273    -15    274    275 184.5  -3.1  34174  289.81 0855.02
2009/04/23 11:25:24.5       1   -209     37    210    214 179.5  10.1  34182  289.94 0855.02
2009/04/23 11:25:24.6      -4   -103    103    104    146 182.7  50.0  34184  289.99 0855.02
2009/04/23 11:25:24.6      34   -147    115    152    190 166.7  40.9  34182  289.96 0855.02
2009/04/23 11:25:24.8      -5   -110     76    111    134 182.7  37.4  34184  289.99 0855.02
2009/04/23 11:25:24.9      28    -42     51     51     72 145.7  50.1  34180  289.91 0855.02
2009/04/23 11:25:24.9      -8    -63     45     64     78 188.0  38.6  34176  289.84 0855.02
2009/04/23 11:25:25.1      22   -161    104    163    193 172.0  35.5  34164  289.65 0855.02
2009/04/23 11:25:25.2      16   -185     99    186    210 174.9  30.1  34164  289.63 0855.02
2009/04/23 11:25:25.3       5   -171    107    172    202 178.2  35.2  34158  289.55 0855.02
2009/04/23 11:25:25.4       2   -148    131    149    198 179.1  45.9  34162  289.62 0855.02
2009/04/23 11:25:25.5      24   -161    133    163    210 171.3  43.7  34162  289.60 0855.02
2009/04/23 11:25:25.6      68    -95    109    117    159 144.4  47.9  34162  289.60 0855.02
2009/04/23 11:25:25.7      35   -100    103    107    148 160.4  49.0  34162  289.62 0855.02
2009/04/23 11:25:25.8      56   -100    122    115    167 150.6  52.0  34164  289.63 0855.02
2009/04/23 11:25:25.9      22    -78    103     82    131 164.4  56.9  34172  289.77 0855.04
2009/04/23 11:25:26.0       0    -42     90     43     99 180.9  72.9  34176  289.84 0855.04
2009/04/23 11:25:26.1      23    -11     66     26     70 115.3  77.1  34180  289.91 0855.04
2009/04/23 11:25:26.2     113    -54    111    126    167 115.4  45.8  34174  289.80 0855.04
2009/04/23 11:25:26.3      83    -82    124    117    170 134.6  52.0  34172  289.79 0855.04
2009/04/23 11:25:26.4     110    -28    119    114    164 104.6  50.9  34184  289.99 0855.04
2009/04/23 11:25:26.5      21   -126    111    128    169 170.2  45.4  34176  289.84 0855.04
2009/04/23 11:25:26.6      61   -156    170    168    239 158.4  50.1  34170  289.74 0855.04
2009/04/23 11:25:26.7      21   -163    137    165    214 172.7  43.8  34168  289.72 0855.04
2009/04/23 11:25:26.8      56    -83    116    101    153 146.2  54.3  34170  289.74 0855.04
2009/04/23 11:25:26.9      75   -156    120    174    211 154.4  37.6  34168  289.72 0855.04
2009/04/23 11:25:27.0      53   -153    107    163    194 160.8  36.0  34166  289.67 0855.04
2009/04/23 11:25:27.1      64   -135    115    150    189 154.7  41.4  34174  289.82 0855.04
2009/04/23 11:25:27.2      50   -135    110    145    182 159.5  40.9  34170  289.74 0855.04
2009/04/23 11:25:27.3      32    -67    100     75    125 154.5  59.4  34180  289.92 0855.04
2009/04/23 11:25:27.4      64    -30     72     71    101 115.3  50.1  34188  290.04 0855.04
2009/04/23 11:25:27.5      25    -47     74     54     91 151.9  60.0  34186  290.02 0855.04
2009/04/23 11:25:27.6      39      4     65     40     76  83.0  64.7  34188  290.06 0855.04
2009/04/23 11:25:27.7      53    -34     90     64    110 122.5  60.6  34188  290.04 0855.04
2009/04/23 11:25:27.8      42    -20     84     47     96 115.3  68.3  34188  290.04 0855.04
2009/04/23 11:25:27.9      68    -57     86     90    124 130.0  49.4  34182  289.96 0855.06
2009/04/23 11:25:28.0      52    -69     84     87    120 143.0  49.0  34184  289.97 0855.06
2009/04/23 11:25:28.1      37    -42     78     57     96 138.6  60.5  34190  290.08 0855.06
2009/04/23 11:25:28.2      59    -32     74     68    100 118.9  52.2  34184  289.97 0855.06
2009/04/23 11:25:28.3      27    -41     58     50     76 146.6  55.4  34186  290.02 0855.06
2009/04/23 11:25:28.4       8    -60     73     61     95 171.9  56.3  34180  289.92 0855.06
2009/04/23 11:25:28.5      38    -26     56     47     73 124.2  56.3  34190  290.09 0855.06
2009/04/23 11:25:28.6      44    -18     48     48     67 112.6  50.1  34192  290.11 0855.06
2009/04/23 11:25:28.7       4    -23     38     24     44 170.2  64.7  34192  290.13 0855.06
2009/04/23 11:25:28.8     -15    -31     68     35     76 207.2  70.8  34188  290.04 0855.06
2009/04/23 11:25:28.9      30    -10     56     32     64 110.0  67.7  34194  290.14 0855.06
2009/04/23 11:25:29.0       4    -28     66     29     72 172.0  75.0  34196  290.18 0855.06
2009/04/23 11:25:29.1     -34    -72     69     80    105 205.4  45.4  34176  289.85 0855.06
2009/04/23 11:25:29.2      -6    -78     66     79    102 184.5  44.3  34176  289.84 0855.06
2009/04/23 11:25:29.3       0    -90     84     91    123 180.4  47.9  34180  289.91 0855.06
2009/04/23 11:25:29.4     -17   -122     88    124    152 188.0  39.5  34198  290.21 0855.06
2009/04/23 11:25:29.5       4    -97     76     98    124 177.3  41.7  34194  290.16 0855.06
2009/04/23 11:25:29.6      32   -107     22    112    115 163.1  11.1  34182  289.94 0855.06
2009/04/23 11:25:29.7      52   -110     41    122    129 154.7  18.9  34172  289.77 0855.06
2009/04/23 11:25:29.8      41   -143     80    149    169 164.0  30.6  34172  289.77 0855.06
2009/04/23 11:25:29.9      32   -154     90    158    181 168.0  32.4  34174  289.82 0855.06
2009/04/23 11:25:30.0       1   -150     76    151    169 179.5  28.5  34174  289.82 0855.06
2009/04/23 11:25:30.1       4   -149     44    150    157 178.2  16.6  34172  289.77 0855.06
2009/04/23 11:25:30.2      11   -138     57    139    150 175.1  23.1  34172  289.79 0855.06
2009/04/23 11:25:30.3      39   -194     65    199    210 168.4  18.1  34168  289.72 0855.06
2009/04/23 11:25:30.4      -5   -230     60    231    239 181.4  14.7  34172  289.78 0855.06
2009/04/23 11:25:30.5     -21   -276     54    277    283 184.5  11.1  34172  289.78 0855.06
2009/04/23 11:25:30.6      -8   -265     88    266    281 181.8  18.5  34174  289.80 0855.06
2009/04/23 11:25:30.7      -4   -300     68    301    309 180.9  12.9  34174  289.80 0855.06
2009/04/23 11:25:30.8      35   -310     84    313    325 173.5  15.0  34176  289.83 0855.06
2009/04/23 11:25:30.9      58   -374     84    379    389 171.2  12.6  34178  289.86 0855.06
2009/04/23 11:25:31.0      64   -375     94    381    393 170.3  13.9  34180  289.91 0855.06
2009/04/23 11:25:31.1      52   -307    159    312    350 170.3  29.1  34182  289.96 0855.06
2009/04/23 11:25:31.2     101   -357    130    372    395 164.1  19.3  34180  289.91 0855.06
2009/04/23 11:25:31.3      70   -326    149    334    365 167.9  25.7  34188  290.03 0855.06
2009/04/23 11:25:31.4      82   -243    132    257    288 161.3  29.3  34182  289.93 0855.06
2009/04/23 11:25:31.5      62   -347     63    353    359 169.8  10.2  34178  289.86 0855.06
2009/04/23 11:25:31.6      26   -370    113    371    389 175.9  17.0  34174  289.82 0855.06
2009/04/23 11:25:31.7     -18   -341    130    342    365 183.2  21.8  34178  289.87 0855.06
2009/04/23 11:25:31.8      27   -385    128    386    407 175.9  18.4  34174  289.81 0855.06
2009/04/23 11:25:31.9      25   -414    153    415    442 176.5  21.1  34176  289.85 0855.07
2009/04/23 11:25:32.0     -47   -401    164    404    436 186.8  23.2  34178  289.87 0855.07
2009/04/23 11:25:32.1     -91   -350    120    362    382 194.6  18.4  34182  289.94 0855.07
2009/04/23 11:25:32.2     -89   -407    122    417    435 192.4  16.3  34178  289.87 0855.07
2009/04/23 11:25:32.3     -78   -423    194    431    472 190.5  25.9  34180  289.90 0855.07
2009/04/23 11:25:32.4    -107   -371    191    387    431 196.1  28.2  34178  289.88 0855.07
2009/04/23 11:25:32.5    -110   -410    188    425    464 195.1  25.3  34182  289.94 0855.07
2009/04/23 11:25:32.6    -146   -330    147    361    389 203.9  23.5  34182  289.96 0855.07
2009/04/23 11:25:32.7    -148   -275    129    313    338 208.3  23.6  34182  289.93 0855.07
2009/04/23 11:25:32.8     -82   -255    162    269    314 197.9  33.7  34176  289.83 0855.07
2009/04/23 11:25:32.9     -32   -307    173    309    354 186.0  31.7  34176  289.84 0855.07
2009/04/23 11:25:33.0      -3   -220    168    221    277 181.0  41.2  34176  289.83 0855.07
2009/04/23 11:25:33.1     104   -221    127    245    275 154.7  29.5  34172  289.76 0855.07
2009/04/23 11:25:33.2     116   -182     73    217    230 147.5  18.6  34186  290.02 0855.07
2009/04/23 11:25:33.3     119   -215    107    247    269 151.0  25.1  34186  290.00 0855.07
2009/04/23 11:25:33.4      82   -225    124    240    270 160.0  29.3  34188  290.03 0855.07
2009/04/23 11:25:33.5      59   -303     15    309    310 168.9   2.8  34192  290.12 0855.07
2009/04/23 11:25:33.6      81   -299     78    310    320 164.8  14.2  34190  290.09 0855.07
2009/04/23 11:25:33.7     101   -251     32    271    273 158.1   6.9  34190  290.09 0855.07
2009/04/23 11:25:33.8     106   -291     15    310    311 160.0   2.9  34196  290.17 0855.07
2009/04/23 11:25:33.9      92   -338     25    351    352 164.7   4.2  34184  289.98 0855.07
2009/04/23 11:25:34.0     142   -343     32    372    374 157.5   5.0  34182  289.93 0855.07
2009/04/23 11:25:34.1     186   -336    -60    385    390 151.0  -9.0  34178  289.89 0855.07
2009/04/23 11:25:34.2     293   -109    -19    313    314 110.4  -3.5  34166  289.68 0855.07
2009/04/23 11:25:34.3     223   -191    -81    294    305 130.5 -15.4  34184  289.98 0855.07
2009/04/23 11:25:34.4     229   -203   -123    307    330 131.6 -27.4  34200  290.24 0855.07
2009/04/23 11:25:34.5     121   -183   -153    220    267 146.6 -42.8  34206  290.34 0855.07
2009/04/23 11:25:34.6     165   -122   -139    206    248 126.4 -41.7  34198  290.20 0855.07
2009/04/23 11:25:34.7     218    -33   -127    221    254  98.6 -36.8  34188  290.03 0855.07
2009/04/23 11:25:34.8     238    -68   -108    248    270 106.0 -29.5  34186  290.00 0855.07
2009/04/23 11:25:34.9     217    -38    -91    221    239 100.1 -28.0  34188  290.03 0855.07
2009/04/23 11:25:35.0     141    -29    -54    145    154 101.9 -25.3  34194  290.16 0855.07
2009/04/23 11:25:35.1     113    -62    -14    130    131 118.8  -6.2  34200  290.26 0855.07
2009/04/23 11:25:35.2      96    -88     -5    131    132 132.7  -2.2  34198  290.21 0855.07
2009/04/23 11:25:35.3       0    -84      7     85     86 180.5   4.9  34190  290.09 0855.07
2009/04/23 11:25:35.4     -40   -233     -9    237    238 189.8  -2.2  34186  290.00 0855.07
2009/04/23 11:25:35.5     -68   -273     -1    282    283 194.0  -0.3  34186  290.02 0855.07
2009/04/23 11:25:35.6      79   -268     60    280    287 163.5  12.1  34188  290.05 0855.07
2009/04/23 11:25:35.7      88   -290     47    304    308 163.1   8.9  34176  289.83 0855.07
2009/04/23 11:25:35.8     138   -307     42    337    340 155.8   7.1  34174  289.81 0855.07
2009/04/23 11:25:35.9      59   -332    124    338    360 169.9  21.0  34174  289.81 0855.07
2009/04/23 11:25:36.0      99   -359    129    373    395 164.6  19.2  34174  289.81 0855.07
2009/04/23 11:25:36.1     125   -335     92    358    370 159.4  14.5  34176  289.84 0855.07
2009/04/23 11:25:36.2     162   -301    140    342    369 151.7  23.6  34174  289.81 0855.07
2009/04/23 11:25:36.3      45   -352     99    355    369 172.7  15.7  34174  289.81 0855.07
2009/04/23 11:25:36.4      81   -398    143    407    432 168.5  19.4  34178  289.87 0855.07
2009/04/23 11:25:36.5      99   -341    128    356    378 163.7  20.7  34176  289.84 0855.07
2009/04/23 11:25:36.6     103   -413    130    426    446 166.0  17.1  34174  289.80 0855.07
2009/04/23 11:25:36.7      96   -382    162    394    426 165.9  23.6  34172  289.77 0855.07
2009/04/23 11:25:36.8      44   -427    128    430    449 174.0  16.6  34174  289.82 0855.07
2009/04/23 11:25:36.9      34   -401     97    403    415 175.0  13.6  34174  289.80 0855.07
2009/04/23 11:25:37.0     -47   -377     82    381    390 187.2  12.3  34172  289.77 0855.07
2009/04/23 11:25:37.1     -67   -358    102    365    380 190.6  15.7  34176  289.84 0855.07
2009/04/23 11:25:37.2       0   -391    121    392    411 180.1  17.2  34176  289.85 0855.07
2009/04/23 11:25:37.3     -19   -420    125    421    440 182.7  16.5  34174  289.80 0855.07
2009/04/23 11:25:37.4      -1   -406    149    407    433 180.3  21.0  34174  289.80 0855.07
2009/04/23 11:25:37.5      40   -401     91    404    415 174.2  12.8  34178  289.87 0855.07
2009/04/23 11:25:37.6      94   -458     59    468    472 168.3   7.2  34172  289.79 0855.07
2009/04/23 11:25:37.7     116   -370     71    388    395 162.6  10.4  34172  289.77 0855.07
2009/04/23 11:25:37.8      84   -365      5    375    376 167.0   0.9  34170  289.74 0855.07
2009/04/23 11:25:37.9     138   -292     27    324    326 154.7   4.9  34166  289.66 0855.09
2009/04/23 11:25:38.0      83   -249     60    263    270 161.5  12.9  34178  289.88 0855.09
2009/04/23 11:25:38.1      -9   -318    -12    319    320 181.8  -2.2  34172  289.76 0855.09
2009/04/23 11:25:38.2     -39   -342     35    345    347 186.6   5.9  34178  289.86 0855.09
2009/04/23 11:25:38.3     -66   -332     67    339    346 191.3  11.3  34182  289.96 0855.09
2009/04/23 11:25:38.4      21   -300    121    301    324 176.0  23.0  34180  289.92 0855.09
2009/04/23 11:25:38.5     -20   -306    107    307    325 183.8  20.0  34186  290.00 0855.09
2009/04/23 11:25:38.6       4   -331     72    332    340 179.2  12.3  34188  290.06 0855.09
2009/04/23 11:25:38.7     -41   -330     63    333    339 187.1  10.7  34194  290.15 0855.09
2009/04/23 11:25:38.8    -169   -375    105    412    426 204.3  14.3  34188  290.04 0855.09
2009/04/23 11:25:38.9     -89   -309     84    322    333 196.1  14.6  34190  290.08 0855.09
2009/04/23 11:25:39.0     -10   -292     30    293    295 182.0   6.0  34188  290.03 0855.09
2009/04/23 11:25:39.1     128   -307     40    333    336 157.3   6.9  34188  290.04 0855.09
2009/04/23 11:25:39.2     214   -235    115    319    339 137.7  20.6  34182  289.94 0855.09
2009/04/23 11:25:39.3      52   -275    250    280    375 169.3  46.4  34178  289.89 0855.09
2009/04/23 11:25:39.4      -9   -309    210    310    374 181.8  37.4  34182  289.94 0855.09
2009/04/23 11:25:39.5      63   -314    192    321    374 168.7  33.6  34184  289.98 0855.09
2009/04/23 11:25:39.6      17   -334    117    335    355 177.0  19.3  34182  289.96 0855.09
2009/04/23 11:25:39.7      19   -283     98    284    301 176.0  19.2  34194  290.15 0855.09
2009/04/23 11:25:39.8      30   -279    113    281    302 173.7  23.1  34192  290.12 0855.09
2009/04/23 11:25:39.9     -34   -317     18    319    320 186.2   3.2  34194  290.15 0855.11
2009/04/23 11:25:40.0     -63   -320     27    327    329 191.1   4.9  34188  290.03 0855.11
2009/04/23 11:25:40.1     -17   -219    199    220    296 184.5  46.9  34194  290.15 0855.11
2009/04/23 11:25:40.2     -23   -191    186    193    268 186.9  49.0  34204  290.31 0855.11
2009/04/23 11:25:40.3     -22   -183    145    185    235 187.1  42.2  34196  290.18 0855.11
2009/04/23 11:25:40.4      18   -189     96    190    212 174.4  29.1  34194  290.16 0855.11
2009/04/23 11:25:40.5      67   -121    159    139    211 151.0  54.3  34200  290.25 0855.11
2009/04/23 11:25:40.6     107   -154    172    188    254 145.3  47.1  34200  290.26 0855.11
2009/04/23 11:25:40.7     166   -261    174    310    355 147.5  31.7  34190  290.08 0855.11
2009/04/23 11:25:40.8     174   -301    139    348    374 150.0  23.0  34190  290.08 0855.11
2009/04/23 11:25:40.9     236   -312     29    392    394 142.9   4.3  34188  290.03 0855.11
2009/04/23 11:25:41.0     252   -298     40    391    394 139.8   5.9  34190  290.08 0855.11
2009/04/23 11:25:41.1     218   -391     73    449    456 150.8   9.3  34178  289.87 0855.11
2009/04/23 11:25:41.2     241   -366     94    439    450 146.7  12.2  34182  289.95 0855.11
2009/04/23 11:25:41.3     159   -320     37    358    360 153.6   6.0  34182  289.93 0855.11
2009/04/23 11:25:41.4     217   -285    176    359    399 142.7  28.0  34178  289.86 0855.11
2009/04/23 11:25:41.5     258   -258    218    365    425 135.0  33.6  34186  290.02 0855.11
2009/04/23 11:25:41.6     300   -168    218    344    407 119.3  35.5  34186  290.01 0855.11
2009/04/23 11:25:41.7     249   -240    140    347    374 133.9  23.1  34192  290.11 0855.11
2009/04/23 11:25:41.8     206   -247     37    322    325 140.1   6.6  34188  290.03 0855.11
2009/04/23 11:25:41.9     182   -227     19    292    293 141.3   3.9  34184  289.97 0855.12
2009/04/23 11:25:42.0     120   -236    104    265    284 153.0  22.5  34192  290.10 0855.12
2009/04/23 11:25:42.1      32   -212     96    215    235 171.3  25.7  34190  290.09 0855.12
2009/04/23 11:25:42.2      53    -83    132     99    165 147.5  59.4  34202  290.30 0855.12
2009/04/23 11:25:42.3     129   -194    112    234    259 146.4  27.3  34200  290.24 0855.12
2009/04/23 11:25:42.4     129   -201    131    240    273 147.3  31.3  34196  290.19 0855.12
2009/04/23 11:25:42.5     227   -124    149    259    298 118.8  32.4  34202  290.29 0855.12
2009/04/23 11:25:42.6     224   -191     53    295    300 130.4  10.3  34194  290.14 0855.12
2009/04/23 11:25:42.7     152   -165    125    225    257 137.2  31.4  34198  290.22 0855.12
2009/04/23 11:25:42.8     163   -149    153    221    268 132.4  38.0  34190  290.09 0855.12
2009/04/23 11:25:42.9     205   -121    108    239    262 120.6  25.9  34194  290.15 0855.11
2009/04/23 11:25:43.0     184   -141    102    233    254 127.5  25.1  34192  290.10 0855.11
2009/04/23 11:25:43.1     166   -158    132    230    265 133.6  32.4  34192  290.10 0855.11
2009/04/23 11:25:43.2     187   -112    137    218    257 120.9  35.5  34200  290.24 0855.11
2009/04/23 11:25:43.3      74    -65    139     99    170 131.3  61.1  34210  290.43 0855.11
2009/04/23 11:25:43.4     -10   -133    133    134    188 184.5  50.2  34198  290.23 0855.11
2009/04/23 11:25:43.5      51   -163    152    171    228 162.6  46.2  34198  290.23 0855.11
2009/04/23 11:25:43.6     116   -175    181    211    277 146.4  45.1  34188  290.03 0855.11
2009/04/23 11:25:43.7      51   -130    177    140    225 158.6  57.5  34198  290.21 0855.11
2009/04/23 11:25:43.8     105   -127    131    166    211 140.4  42.4  34190  290.09 0855.11
2009/04/23 11:25:43.9      33    -61    151     70    166 151.1  73.5  34198  290.23 0855.11
2009/04/23 11:25:44.0     -22     53     93     58    109 337.3  64.7  34204  290.31 0855.11
2009/04/23 11:25:44.1     123    -57    148    136    200 114.8  52.5  34202  290.28 0855.11
2009/04/23 11:25:44.2     -37     -2    109     38    115 265.6  81.2  34214  290.48 0855.11
2009/04/23 11:25:44.3      52    -35    145     64    158 124.2  75.0  34206  290.35 0855.11
2009/04/23 11:25:44.4     103      0    134    104    169  90.0  58.2  34204  290.33 0855.11
2009/04/23 11:25:44.5      29    -28     97     41    105 134.9  76.1  34208  290.38 0855.11
2009/04/23 11:25:44.6    -150    -11    121    151    193 265.6  43.3  34214  290.48 0855.11
2009/04/23 11:25:44.7      24     58     80     63    101  22.7  57.5  34208  290.40 0855.11
2009/04/23 11:25:44.8    -120    -40     54    127    138 251.4  24.1  34200  290.26 0855.11
2009/04/23 11:25:44.9    -126     42     47    133    141 288.4  20.4  34202  290.28 0855.11
2009/04/23 11:25:45.0       0     77     81     78    112   0.0  51.2  34204  290.31 0855.11
2009/04/23 11:25:45.1      26    -29    123     40    129 138.6  80.7  34222  290.64 0855.11
2009/04/23 11:25:45.2     -17    -17    121     25    123 225.1  89.0  34216  290.52 0855.11
2009/04/23 11:25:45.3    -126    -53     75    137    156 246.9  31.0  34200  290.26 0855.11
2009/04/23 11:25:45.4    -308    -47    100    312    328 261.2  17.9  34224  290.65 0855.11
2009/04/23 11:25:45.5    -242    -65     54    251    257 254.9  12.2  34242  290.95 0855.11
2009/04/23 11:25:45.6    -231    -69     12    242    243 253.2   2.9  34250  291.10 0855.11
2009/04/23 11:25:45.7    -315    -99     -9    331    332 252.4  -1.7  34250  291.10 0855.11
2009/04/23 11:25:45.8    -309    -62    -74    316    325 258.5 -13.2  34248  291.07 0855.11
2009/04/23 11:25:45.9    -301    -80    -95    312    326 255.0 -21.9  34250  291.10 0855.11
2009/04/23 11:25:46.0    -201   -167    -11    262    263 230.2  -2.6  34242  290.95 0855.11
2009/04/23 11:25:46.1    -242   -148    -66    285    293 238.5 -13.2  34246  291.02 0855.11
2009/04/23 11:25:46.2    -204   -174    -76    269    280 229.6 -15.8  34238  290.90 0855.11
2009/04/23 11:25:46.3    -212   -174    -28    275    277 230.7  -6.0  34240  290.92 0855.11
2009/04/23 11:25:46.4    -237   -151      0    282    283 237.5   0.0  34234  290.83 0855.11
2009/04/23 11:25:46.5    -300   -123    -72    325    334 247.6 -12.6  34252  291.15 0855.11
2009/04/23 11:25:46.6    -260   -148    -88    300    313 240.3 -16.4  34250  291.09 0855.11
2009/04/23 11:25:46.7    -370   -197     -3    420    421 241.9  -0.5  34228  290.73 0855.11
2009/04/23 11:25:46.8    -341   -183    -79    387    396 241.8 -11.6  34212  290.45 0855.11
2009/04/23 11:25:46.9    -235   -194    -80    305    316 230.5 -14.7  34232  290.78 0855.10
2009/04/23 11:25:47.0    -348   -261     39    435    437 233.1   5.2  34234  290.82 0855.10
2009/04/23 11:25:47.1    -279   -154   -100    319    334 241.1 -22.4  34254  291.18 0855.10
2009/04/23 11:25:47.2    -273   -254    -39    374    377 227.1  -6.1  34230  290.77 0855.10
2009/04/23 11:25:47.3    -273   -284    -12    395    396 223.9  -1.8  34218  290.57 0855.10
2009/04/23 11:25:47.4    -126   -315     20    340    341 201.9   3.5  34204  290.32 0855.10
2009/04/23 11:25:47.5     -61   -340     74    346    355 190.2  12.2  34182  289.96 0855.10
2009/04/23 11:25:47.6     -31   -291     52    293    298 186.3  10.1  34190  290.07 0855.10
2009/04/23 11:25:47.7     -74   -211    -65    224    233 199.4 -21.2  34188  290.04 0855.10
2009/04/23 11:25:47.8    -112   -205    -32    234    237 208.7  -8.0  34192  290.10 0855.10
2009/04/23 11:25:47.9    -223   -213    -98    309    325 226.2 -17.7  34194  290.14 0855.10
2009/04/23 11:25:48.0    -110   -231     40    256    260 205.5   8.9  34190  290.07 0855.10
2009/04/23 11:25:48.1      57   -181     88    190    209 162.4  27.0  34194  290.16 0855.10
2009/04/23 11:25:48.2     159   -233     60    283    290 145.7  12.1  34184  289.98 0855.10
2009/04/23 11:25:48.3     215   -222    141    310    340 135.9  26.2  34166  289.69 0855.10
2009/04/23 11:25:48.4      85   -252    179    267    321 161.3  37.0  34170  289.75 0855.10
2009/04/23 11:25:48.5      18   -267    154    268    309 176.0  32.4  34176  289.83 0855.10
2009/04/23 11:25:48.6      -4   -276    151    277    315 180.9  31.0  34180  289.90 0855.10
2009/04/23 11:25:48.7     -22   -269    133    270    300 184.7  28.2  34186  290.02 0855.10
2009/04/23 11:25:48.8     -32   -231     84    234    248 188.0  20.4  34186  290.02 0855.10
2009/04/23 11:25:48.9     -45   -275     27    279    281 189.3   5.7  34190  290.07 0855.09
2009/04/23 11:25:49.0      10   -219     92    220    238 177.3  24.1  34188  290.06 0855.09
2009/04/23 11:25:49.1      69   -213     70    225    236 162.0  17.4  34190  290.09 0855.09
2009/04/23 11:25:49.2      37   -148     70    153    168 165.7  26.2  34186  290.01 0855.09
2009/04/23 11:25:49.3       8   -185     38    186    190 177.5  11.6  34190  290.08 0855.09
2009/04/23 11:25:49.4      19   -213     92    215    233 174.7  24.3  34188  290.06 0855.09
2009/04/23 11:25:49.5      59   -153    106    165    196 158.8  35.6  34190  290.08 0855.09
2009/04/23 11:25:49.6      26   -174     96    177    201 171.3  30.8  34188  290.06 0855.09
2009/04/23 11:25:49.7     -27   -168     70    171    184 189.3  23.1  34186  290.01 0855.09
2009/04/23 11:25:49.8       1   -142     30    143    147 179.5  12.2  34186  290.01 0855.09
2009/04/23 11:25:49.9     140   -166     67    218    229 139.9  17.1  34172  289.77 0855.09
2009/04/23 11:25:50.0      70   -242     26    252    254 163.9   5.9  34170  289.73 0855.09
2009/04/23 11:25:50.1      75   -232     64    245    254 162.0  14.7  34166  289.68 0855.09
2009/04/23 11:25:50.2      77   -241     37    254    257 162.2   8.5  34166  289.68 0855.09
2009/04/23 11:25:50.4      73   -203      6    216    217 160.2   1.8  34168  289.70 0855.09
2009/04/23 11:25:50.4     147    -49     63    156    168 108.6  23.0  34168  289.72 0855.09
2009/04/23 11:25:50.5     111    -37    125    118    171 108.6  51.6  34178  289.87 0855.09
2009/04/23 11:25:50.6      35     -1    117     36    122  92.6  82.7  34194  290.14 0855.09
2009/04/23 11:25:50.7       2    -32     50     33     59 175.6  63.6  34182  289.96 0855.09
2009/04/23 11:25:50.8      22    -40     76     46     88 151.0  65.7  34188  290.04 0855.09
2009/04/23 11:25:51.0       7    -41     85     42     94 169.3  72.4  34194  290.14 0855.09
2009/04/23 11:25:51.1      79     26    118     84    144  71.6  60.6  34190  290.08 0855.09
2009/04/23 11:25:51.2      45     21    119     50    129  64.6  76.1  34196  290.18 0855.09
2009/04/23 11:25:51.3      -7     33     89     34     95 346.6  79.2  34204  290.33 0855.09
2009/04/23 11:25:51.4     -15     46     76     49     90 341.5  64.6  34204  290.31 0855.09
2009/04/23 11:25:51.5     -51     27     96     58    112 298.0  65.7  34198  290.23 0855.09
2009/04/23 11:25:51.6     -78      7    107     79    133 275.2  60.5  34200  290.26 0855.09
2009/04/23 11:25:51.7    -176     46     61    183    194 284.8  18.6  34202  290.28 0855.09
2009/04/23 11:25:51.8    -222     10     -2    223    224 272.6  -0.7  34224  290.65 0855.09
2009/04/23 11:25:51.9    -222     -3      3    223    224 269.0   0.8  34228  290.72 0855.09
2009/04/23 11:25:52.0    -224    -53    -65    231    241 256.7 -15.8  34240  290.92 0855.09
2009/04/23 11:25:52.1    -211    -27     -4    213    214 262.5  -1.2  34216  290.53 0855.09
2009/04/23 11:25:52.2    -236    -47     12    241    242 258.5   2.9  34206  290.34 0855.09
2009/04/23 11:25:52.3    -218   -121     -1    250    251 240.9  -0.3  34220  290.59 0855.09
2009/04/23 11:25:52.4    -260   -181    -30    318    320 235.1  -5.5  34224  290.66 0855.09
2009/04/23 11:25:52.5    -260   -295      8    394    395 221.5   1.2  34194  290.16 0855.09
2009/04/23 11:25:52.6    -188   -295    118    351    371 212.5  18.6  34182  289.96 0855.09
2009/04/23 11:25:52.7    -104   -323    194    340    391 197.9  32.3  34188  290.04 0855.09
2009/04/23 11:25:52.8    -176   -328    175    373    412 208.2  27.1  34184  289.99 0855.09
2009/04/23 11:25:52.9    -152   -387    235    416    477 201.5  32.0  34188  290.05 0855.09
2009/04/23 11:25:53.0    -192   -316    188    370    415 211.3  29.2  34214  290.49 0855.11
2009/04/23 11:25:53.1    -219   -255     97    337    351 220.6  16.1  34226  290.69 0855.11
2009/04/23 11:25:53.2    -112   -266    137    289    319 202.8  27.2  34224  290.66 0855.11
2009/04/23 11:25:53.3    -321   -194    -44    376    379 238.9  -6.7  34228  290.71 0855.11
2009/04/23 11:25:53.4    -377   -202     36    428    430 241.8   4.9  34234  290.82 0855.11
2009/04/23 11:25:53.5    -350   -208    112    408    424 239.3  15.4  34232  290.80 0855.11
2009/04/23 11:25:53.6    -137   -343    217    370    428 201.8  33.3  34208  290.38 0855.11
2009/04/23 11:25:53.7     -52   -305    240    310    392 189.7  41.7  34200  290.25 0855.11
2009/04/23 11:25:53.8     -60   -368    232    373    439 189.3  35.0  34174  289.82 0855.11
2009/04/23 11:25:53.9      -5   -357    243    358    432 180.8  37.4  34174  289.82 0855.11
2009/04/23 11:25:54.0     -34   -315    216    317    383 186.2  37.6  34176  289.84 0855.11
2009/04/23 11:25:54.1     -42   -376     43    379    382 186.5   6.6  34168  289.71 0855.11
2009/04/23 11:25:54.2       4   -466     75    467    474 179.5   9.2  34170  289.74 0855.11
2009/04/23 11:25:54.3     -45   -492     83    495    503 185.3   9.6  34172  289.78 0855.11
2009/04/23 11:25:54.4     -20   -415     54    416    420 182.8   7.4  34176  289.85 0855.11
2009/04/23 11:25:54.5    -168   -434     84    466    474 201.2  10.2  34172  289.78 0855.11
2009/04/23 11:25:54.6    -137   -509     -2    528    529 195.1  -0.3  34172  289.79 0855.11
2009/04/23 11:25:54.7     101   -389     -1    402    403 165.4  -0.2  34162  289.61 0855.11
2009/04/23 11:25:54.8      74   -415     50    422    426 169.9   6.9  34182  289.94 0855.11
2009/04/23 11:25:54.9     -22   -422     93    423    434 183.0  12.5  34172  289.78 0855.11
2009/04/23 11:25:55.0     -49   -457     39    460    462 186.2   4.9  34182  289.94 0855.12
2009/04/23 11:25:55.1     -98   -439     58    451    455 192.7   7.4  34178  289.87 0855.12
2009/04/23 11:25:55.2     -57   -411    113    416    432 188.0  15.2  34184  289.97 0855.12
2009/04/23 11:25:55.3     -24   -327     84    328    339 184.3  14.4  34188  290.03 0855.12
2009/04/23 11:25:55.4      44   -203      4    208    209 167.7   1.2  34186  290.01 0855.12
2009/04/23 11:25:55.5      41   -205     12    210    211 168.7   3.3  34186  290.02 0855.12
2009/04/23 11:25:55.6       0   -232     56    233    240 179.8  13.5  34184  289.97 0855.12
2009/04/23 11:25:55.7     -84   -208    110    225    250 202.1  27.8  34184  289.97 0855.12
2009/04/23 11:25:55.8    -119   -152     31    194    197 218.1   9.3  34186  290.01 0855.12
2009/04/23 11:25:55.9    -119   -108    -23    161    163 227.8  -8.2  34208  290.40 0855.12
2009/04/23 11:25:56.0     -65    -56     30     87     93 229.1  19.4  34218  290.57 0855.12
2009/04/23 11:25:56.1     -93   -119    155    152    217 217.9  50.7  34184  289.99 0855.12
2009/04/23 11:25:56.2       9   -110    106    111    153 175.1  49.0  34186  290.02 0855.12
2009/04/23 11:25:56.3      16   -114    115    116    163 172.0  50.2  34184  289.99 0855.12
2009/04/23 11:25:56.4     135   -255    146    289    323 152.0  28.7  34188  290.05 0855.12
2009/04/23 11:25:56.5       0   -262     92    263    279 180.0  19.4  34188  290.03 0855.12
2009/04/23 11:25:56.6     -52   -280     39    285    288 190.7   7.8  34186  290.02 0855.12
2009/04/23 11:25:56.7       3   -232    110    233    257 179.1  27.1  34188  290.03 0855.12
2009/04/23 11:25:56.8      57   -220    129    228    261 165.3  32.1  34188  290.03 0855.12
2009/04/23 11:25:56.9      42   -274    101    278    295 171.3  20.9  34178  289.88 0855.12
2009/04/23 11:25:57.0      95   -446    131    457    476 167.9  16.0  34158  289.54 0855.13
2009/04/23 11:25:57.1     137   -578     67    595    599 166.6   6.5  34166  289.66 0855.13
2009/04/23 11:25:57.2     147   -558     55    577    580 165.2   5.5  34166  289.68 0855.13
2009/04/23 11:25:57.3     129   -544     35    560    562 166.6   3.6  34168  289.70 0855.13
2009/04/23 11:25:57.4     153   -461     10    486    487 161.6   1.2  34170  289.73 0855.13
2009/04/23 11:25:57.5     176   -405    -93    442    452 156.5 -11.9  34172  289.78 0855.13
2009/04/23 11:25:57.6     133   -439    -79    459    466 163.1  -9.8  34172  289.77 0855.13
2009/04/23 11:25:57.7     125   -405     -9    424    425 162.8  -1.3  34176  289.83 0855.13
2009/04/23 11:25:57.8      16   -359   -106    360    375 177.3 -21.4  34154  289.48 0855.13
2009/04/23 11:25:57.9    -227   -199    -95    303    317 228.7 -22.4  34164  289.64 0855.13
2009/04/23 11:25:58.0    -277   -141   -122    311    334 243.0 -27.1  34144  289.29 0855.13
2009/04/23 11:25:58.1    -166   -126   -120    209    241 232.9 -36.8  34172  289.79 0855.13
2009/04/23 11:25:58.2    -281   -185    -31    337    339 236.7  -5.3  34180  289.91 0855.13
2009/04/23 11:25:58.3    -151   -177    -29    233    235 220.5  -7.3  34172  289.78 0855.13
2009/04/23 11:25:58.4     -28   -193     63    196    207 188.2  17.9  34172  289.79 0855.13
2009/04/23 11:25:58.5      21   -278     54    279    285 175.6  11.1  34178  289.88 0855.13
2009/04/23 11:25:58.6      30   -326    -14    328    329 174.7  -2.6  34188  290.03 0855.13
2009/04/23 11:25:58.7     -10   -291    -21    292    293 182.0  -4.1  34186  290.00 0855.13
2009/04/23 11:25:58.8      92   -304     46    318    322 163.1   8.3  34188  290.03 0855.13
2009/04/23 11:25:58.9      30   -308     99    310    326 174.4  17.7  34186  290.02 0855.13
2009/04/23 11:25:59.0      39   -177     35    182    186 167.5  11.1  34198  290.21 0855.12
2009/04/23 11:25:59.1     -17   -158     42    159    165 186.2  15.0  34192  290.11 0855.12
2009/04/23 11:25:59.2     -25   -194     47    196    202 187.6  13.7  34194  290.14 0855.12
2009/04/23 11:25:59.3     -45   -203     73    209    222 192.7  19.4  34200  290.25 0855.12
2009/04/23 11:25:59.4     -72   -158     94    174    197 204.7  30.8  34184  289.97 0855.12
2009/04/23 11:25:59.5     -37    -58     41     70     81 212.6  32.9  34170  289.74 0855.12
2009/04/23 11:25:59.6      54     -3     50     55     74  93.5  47.9  34184  289.99 0855.12
2009/04/23 11:25:59.7      32    -15     82     36     89 115.3  74.5  34196  290.18 0855.12
2009/04/23 11:25:59.8      73    -65    149     98    178 131.8  63.9  34182  289.94 0855.12
2009/04/23 11:25:59.9       6    -17    101     19    102 161.3  89.6  34184  289.97 0855.12
2009/04/23 11:26:00.0     104    -66    119    124    171 122.4  49.0  34164  289.65 0855.12
2009/04/23 11:26:00.1     166    -95    129    192    231 119.8  36.7  34162  289.60 0855.12
2009/04/23 11:26:00.2     134    -53    156    145    212 111.7  52.2  34160  289.58 0855.12
2009/04/23 11:26:00.3      23    -37     94     44    103 148.4  73.1  34170  289.75 0855.12
2009/04/23 11:26:00.4     213    -71    130    225    259 108.6  32.4  34168  289.71 0855.12
2009/04/23 11:26:00.5     184   -109    110    215    241 120.7  29.2  34168  289.71 0855.12
2009/04/23 11:26:00.6     283   -144     94    318    332 117.0  16.5  34170  289.75 0855.12
2009/04/23 11:26:00.7     203   -143     25    249    251 125.1   5.9  34168  289.70 0855.12
2009/04/23 11:26:00.8     202    -95     72    224    236 115.3  17.9  34168  289.72 0855.12
2009/04/23 11:26:00.9     110    -88    136    142    196 128.6  48.7  34164  289.65 0855.12
2009/04/23 11:26:01.0     173   -120    124    211    244 124.9  33.4  34158  289.53 0855.11
2009/04/23 11:26:01.1     148   -128    149    196    246 130.9  41.2  34148  289.38 0855.11
2009/04/23 11:26:01.2     138    -88     87    164    185 122.5  30.1  34150  289.41 0855.11
2009/04/23 11:26:01.3      83    -53     94     99    136 122.4  49.0  34154  289.48 0855.11
2009/04/23 11:26:01.4      -1     13     73     14     74 355.5  89.1  34166  289.69 0855.11
2009/04/23 11:26:01.5     -13     17     15     22     26 322.2  35.6  34164  289.63 0855.11
2009/04/23 11:26:01.6      15    -73     43     75     86 168.4  32.9  34154  289.46 0855.11
2009/04/23 11:26:01.7      23   -114     21    117    119 168.5  10.6  34152  289.45 0855.11
2009/04/23 11:26:01.8       8   -109      5    110    111 175.6   2.8  34152  289.45 0855.11
2009/04/23 11:26:01.9       5    -65     12     66     68 175.5  11.0  34150  289.40 0855.11
2009/04/23 11:26:02.0     -29    -32    -14     44     46 221.4 -23.8  34150  289.41 0855.11
2009/04/23 11:26:02.1     -38      2    -31     39     49 274.4 -48.1  34152  289.45 0855.11
2009/04/23 11:26:02.2     -83     78    -48    115    124 313.1 -27.5  34188  290.06 0855.11
2009/04/23 11:26:02.3    -104     98    -35    144    149 313.2 -13.9  34180  289.92 0855.11
2009/04/23 11:26:02.4    -103     70     38    125    131 304.2  17.3  34164  289.63 0855.11
2009/04/23 11:26:02.5     -96     86    -35    130    135 311.8 -15.4  34188  290.06 0855.11
2009/04/23 11:26:02.6     -41     97    -20    106    108 336.8 -10.9  34186  290.01 0855.11
2009/04/23 11:26:02.7       8     87    -30     88     94   5.3 -19.1  34192  290.13 0855.11
2009/04/23 11:26:02.8      15    123    -20    124    126   7.1  -9.3  34190  290.09 0855.11
2009/04/23 11:26:02.9     -29    177    -13    180    181 350.7  -4.4  34176  289.85 0855.11
2009/04/23 11:26:03.0     -46    229    -25    234    236 348.4  -6.2  34178  289.86 0855.11
2009/04/23 11:26:03.1       8    148    -41    149    155   3.1 -15.5  34180  289.91 0855.11
2009/04/23 11:26:03.2       7    112    -45    113    121   4.0 -27.4  34186  290.02 0855.11
2009/04/23 11:26:03.3     -88     -7     -8     89     90 265.2  -5.2  34198  290.21 0855.11
2009/04/23 11:26:03.4    -107     22    -19    110    112 281.9 -10.3  34194  290.14 0855.11
2009/04/23 11:26:03.5     -62     94     22    113    116 326.6  11.1  34188  290.04 0855.11
2009/04/23 11:26:03.6     100    209    -16    232    233  25.6  -4.1  34180  289.92 0855.11
2009/04/23 11:26:03.7     127    194     79    232    246  33.2  18.9  34166  289.68 0855.11
2009/04/23 11:26:03.8      46    183    -17    189    190  14.3  -5.4  34190  290.08 0855.11
2009/04/23 11:26:03.9     132    184     11    227    228  35.8   2.8  34182  289.94 0855.11
2009/04/23 11:26:04.0     156    245     54    291    296  32.5  10.6  34186  290.00 0855.11
2009/04/23 11:26:04.1     136    172     57    220    228  38.3  14.5  34196  290.18 0855.11
2009/04/23 11:26:04.2     110    167    124    201    236  33.4  34.5  34202  290.30 0855.11
2009/04/23 11:26:04.3     143    139    123    200    234  45.8  34.4  34222  290.64 0855.11
2009/04/23 11:26:04.4      77    129     98    151    180  30.7  36.0  34230  290.75 0855.11
2009/04/23 11:26:04.5       0    178     97    179    203   0.0  31.0  34218  290.57 0855.11
2009/04/23 11:26:04.6      42    163     68    169    182  14.5  23.0  34214  290.48 0855.11
2009/04/23 11:26:04.7      14    180     62    181    192   4.5  18.9  34214  290.50 0855.11
2009/04/23 11:26:04.8       6    142     78    143    162   2.7  31.0  34212  290.47 0855.11
2009/04/23 11:26:04.9      12    176     34    177    181   4.0  11.1  34208  290.38 0855.11
2009/04/23 11:26:05.0      22    157     34    159    163   8.0  12.4  34196  290.19 0855.10
2009/04/23 11:26:05.1      43    127     36    135    140  18.7  15.2  34192  290.11 0855.10
2009/04/23 11:26:05.2     -25    152     29    155    158 350.7  10.6  34184  289.99 0855.10
2009/04/23 11:26:05.3     -73    149     86    167    187 333.9  29.3  34186  290.01 0855.10
2009/04/23 11:26:05.4     -72     72     55    103    116 315.0  30.8  34186  290.01 0855.10
2009/04/23 11:26:05.5     -75    105     70    130    147 324.4  31.3  34186  290.02 0855.10
2009/04/23 11:26:05.6     -55    122     52    135    144 335.5  21.5  34186  290.02 0855.10
2009/04/23 11:26:05.7       0    120     83    121    146   0.0  38.0  34192  290.11 0855.10
2009/04/23 11:26:05.8      44    110    123    119    171  21.9  50.9  34194  290.14 0855.10
2009/04/23 11:26:05.9      11    178    137    179    225   3.8  41.6  34190  290.08 0855.10
2009/04/23 11:26:06.0      41     45    116     61    131  42.3  70.8  34214  290.48 0855.07
2009/04/23 11:26:06.1      10     21    100     24    102  27.2  86.4  34226  290.69 0855.07
2009/04/23 11:26:06.2     -29     10     84     31     89 290.0  79.7  34230  290.77 0855.07
2009/04/23 11:26:06.3     -43     36     65     57     86 309.5  53.7  34212  290.45 0855.07
2009/04/23 11:26:06.4     -31     31     75     44     86 315.0  66.8  34222  290.62 0855.07
2009/04/23 11:26:06.5     -62     67     87     92    126 317.2  48.5  34210  290.43 0855.07
2009/04/23 11:26:06.6     -52    106     92    119    150 333.7  41.7  34212  290.45 0855.07
2009/04/23 11:26:06.7      71     62     34     95    100  49.1  20.0  34222  290.62 0855.07
2009/04/23 11:26:06.8     -82     -8    131     83    155 263.9  64.7  34190  290.09 0855.07
2009/04/23 11:26:06.9     -83   -108    161    137    211 217.8  55.4  34178  289.89 0855.07
2009/04/23 11:26:07.0    -118    -87    155    147    213 233.6  51.4  34180  289.91 0855.07
2009/04/23 11:26:07.1       9    -41    121     42    128 167.5  80.7  34192  290.11 0855.07
2009/04/23 11:26:07.2       0     82    120     83    145   0.0  62.6  34198  290.21 0855.07
2009/04/23 11:26:07.3     -65    -41    100     78    126 237.5  58.4  34182  289.94 0855.07
2009/04/23 11:26:07.4    -192     64     55    203    211 288.6  15.3  34188  290.04 0855.07
2009/04/23 11:26:07.5      15     49    -67     52     84  16.9 -62.9  34180  289.91 0855.07
2009/04/23 11:26:07.6     107     -3     37    108    115  91.7  18.9  34182  289.94 0855.07
2009/04/23 11:26:07.7     120      9    126    121    174  85.7  50.9  34180  289.92 0855.07
2009/04/23 11:26:07.8      63    -98    132    117    176 147.4  54.0  34170  289.74 0855.07
2009/04/23 11:26:07.9      10    -31    126     33    130 161.3  85.4  34170  289.74 0855.07
2009/04/23 11:26:08.0      94      3    125     95    157  87.9  58.7  34174  289.80 0855.07
2009/04/23 11:26:08.1     -12     51    123     53    133 346.6  75.0  34174  289.82 0855.07
2009/04/23 11:26:08.2    -126   -144    192    192    271 221.0  50.1  34166  289.68 0855.07
2009/04/23 11:26:08.3    -178   -222     72    285    295 218.7  14.3  34160  289.56 0855.07
2009/04/23 11:26:08.4    -152   -207     30    257    259 216.3   6.9  34162  289.61 0855.07
2009/04/23 11:26:08.5    -216    -86    -51    233    239 248.2 -12.4  34170  289.75 0855.07
2009/04/23 11:26:08.6    -149    -40      3    155    156 255.0   1.2  34176  289.85 0855.07
2009/04/23 11:26:08.7    -119    -98     -1    155    156 230.5  -0.5  34186  290.02 0855.07
2009/04/23 11:26:08.8    -159    -64    -24    172    174 248.0  -8.0  34194  290.14 0855.07
2009/04/23 11:26:08.9    -185    -31    -92    188    209 260.3 -32.2  34196  290.19 0855.07
2009/04/23 11:26:09.0    -348    -54    -45    353    356 261.2  -7.3  34230  290.76 0855.07
2009/04/23 11:26:09.1    -352      8    -24    353    354 271.4  -3.9  34238  290.89 0855.07
2009/04/23 11:26:09.2    -354     51    -13    358    359 278.3  -2.1  34230  290.77 0855.07
2009/04/23 11:26:09.3    -408     -5   -147    409    435 269.2 -19.8  34230  290.75 0855.07
2009/04/23 11:26:09.4    -277     74   -155    287    326 285.1 -35.1  34218  290.54 0855.07
2009/04/23 11:26:09.5    -206   -109    -50    234    240 242.0 -12.2  34210  290.41 0855.07
2009/04/23 11:26:09.6    -181   -198    -21    269    270 222.3  -4.6  34206  290.34 0855.07
2009/04/23 11:26:09.7    -203   -124     -9    239    240 238.5  -2.2  34210  290.41 0855.07
2009/04/23 11:26:09.8    -340    -66     89    347    359 259.0  14.4  34208  290.40 0855.07
2009/04/23 11:26:09.9    -212   -149      8    260    261 234.9   1.8  34214  290.48 0855.07
2009/04/23 11:26:10.0    -102   -225    -95    248    265 204.5 -26.4  34194  290.15 0855.09
2009/04/23 11:26:10.1    -180   -107    -26    210    212 239.3  -7.2  34192  290.13 0855.09
2009/04/23 11:26:10.2    -111   -121     65    165    177 222.5  22.8  34200  290.25 0855.09
2009/04/23 11:26:10.3    -120   -134     64    181    193 221.9  19.6  34198  290.21 0855.09
2009/04/23 11:26:10.4     -84     14     10     86     87 279.7   6.9  34188  290.04 0855.09
2009/04/23 11:26:10.5     -31    -26     17     41     44 230.4  23.0  34194  290.14 0855.09
2009/04/23 11:26:10.6    -228    -34    -29    231    233 261.4  -7.3  34190  290.09 0855.09
2009/04/23 11:26:10.7    -433   -138   -106    455    468 252.3 -13.1  34150  289.39 0855.09
2009/04/23 11:26:10.8    -418   -205   -151    466    489 243.8 -23.2  34132  289.10 0855.09
2009/04/23 11:26:10.9    -459   -120   -170    475    505 255.3 -19.8  34146  289.34 0855.09
2009/04/23 11:26:11.0    -541   -125   -200    556    592 257.0 -19.8  34134  289.12 0855.09
2009/04/23 11:26:11.1    -551    -53   -158    554    576 264.4 -20.7  34146  289.32 0855.09
2009/04/23 11:26:11.2    -467   -113   -128    481    498 256.3 -15.0  34172  289.79 0855.09
2009/04/23 11:26:11.3    -485    -88   -136    494    513 259.7 -15.4  34152  289.45 0855.09
2009/04/23 11:26:11.4    -581   -155   -178    602    627 255.0 -21.2  34138  289.20 0855.09
2009/04/23 11:26:11.5    -543   -145   -249    563    615 255.0 -30.0  34152  289.42 0855.09
2009/04/23 11:26:11.6    -535   -148   -264    556    615 254.5 -31.7  34150  289.39 0855.09
2009/04/23 11:26:11.7    -533    -69   -271    538    602 262.5 -33.2  34150  289.41 0855.09
2009/04/23 11:26:11.8    -622     18   -187    623    650 271.7 -21.6  34168  289.72 0855.09
2009/04/23 11:26:11.9    -551     32   -203    552    588 273.4 -25.4  34172  289.78 0855.09
2009/04/23 11:26:12.0    -428    -41      1    431    432 264.4   0.2  34182  289.95 0855.11
2009/04/23 11:26:12.1    -330    -60    -30    336    338 259.6  -5.2  34208  290.38 0855.11
2009/04/23 11:26:12.2    -137   -128    -48    188    195 226.9 -14.3  34222  290.64 0855.11
2009/04/23 11:26:12.3    -257   -163   -109    305    323 237.6 -24.8  34220  290.58 0855.11
2009/04/23 11:26:12.4    -277   -115    -95    301    315 247.4 -22.5  34222  290.61 0855.11
2009/04/23 11:26:12.5    -265   -192   -119    328    348 234.0 -25.1  34206  290.35 0855.11
2009/04/23 11:26:12.6    -269   -311   -133    412    434 220.8 -17.9  34222  290.63 0855.11
2009/04/23 11:26:12.7     -99   -298   -127    315    339 198.5 -27.5  34222  290.62 0855.11
2009/04/23 11:26:12.8    -142   -287    -55    321    326 206.3  -9.9  34232  290.80 0855.11
2009/04/23 11:26:12.9     -30   -387    -61    389    394 184.5  -9.0  34210  290.42 0855.11
2009/04/23 11:26:13.0     -61   -435    -61    440    445 188.0  -7.9  34198  290.22 0855.11
2009/04/23 11:26:13.1      80   -477   -121    484    499 170.4 -14.1  34170  289.73 0855.11
2009/04/23 11:26:13.2     131   -394   -148    416    442 161.5 -19.7  34152  289.43 0855.11
2009/04/23 11:26:13.3      26   -229   -191    231    299 173.3 -48.2  34166  289.68 0855.11
2009/04/23 11:26:13.4     270   -127    -11    299    300 115.3  -2.2  34146  289.34 0855.11
2009/04/23 11:26:13.5     115     35     81    121    145  72.7  37.0  34142  289.26 0855.11
2009/04/23 11:26:13.6    -124    166    139    208    250 323.3  36.7  34168  289.71 0855.11
2009/04/23 11:26:13.7    -170    133     58    217    225 308.0  15.0  34176  289.85 0855.11
2009/04/23 11:26:13.8    -204    130    110    243    266 302.5  26.2  34196  290.17 0855.11
2009/04/23 11:26:13.9     -78    123    117    146    187 327.5  43.3  34186  290.01 0855.11
2009/04/23 11:26:14.0    -111    121    199    165    258 317.5  56.3  34190  290.08 0855.12
2009/04/23 11:26:14.1     -24     81    156     85    177 343.1  69.1  34194  290.14 0855.12
2009/04/23 11:26:14.2    -108   -133    144    172    224 219.0  43.8  34188  290.06 0855.12
2009/04/23 11:26:14.3    -120   -286    181    311    359 202.7  33.0  34164  289.65 0855.12
2009/04/23 11:26:14.4    -206   -285    189    352    399 215.9  30.6  34172  289.79 0855.12
2009/04/23 11:26:14.5      -6   -271    183    272    327 181.4  37.2  34166  289.68 0855.12
2009/04/23 11:26:14.6     130   -253    127    285    312 152.8  25.7  34170  289.75 0855.12
2009/04/23 11:26:14.7     204   -208     79    292    303 135.7  15.2  34168  289.70 0855.12
2009/04/23 11:26:14.8     184   -255     83    315    326 144.2  14.9  34172  289.76 0855.12
2009/04/23 11:26:14.9     108   -354     97    371    384 163.0  14.7  34172  289.77 0855.12
2009/04/23 11:26:15.0      51   -321     89    326    338 170.9  15.3  34172  289.76 0855.12
2009/04/23 11:26:15.1      29   -386     33    388    390 175.6   4.9  34162  289.62 0855.12
2009/04/23 11:26:15.2      72   -400    -43    407    410 169.7  -6.1  34160  289.58 0855.12
2009/04/23 11:26:15.3     110   -405    -45    420    423 164.7  -6.2  34156  289.51 0855.12
2009/04/23 11:26:15.4     115   -379     -7    397    398 163.1  -1.1  34158  289.55 0855.12
2009/04/23 11:26:15.5      47   -331    -71    335    343 171.9 -12.0  34162  289.62 0855.12
2009/04/23 11:26:15.6      90   -272    -68    287    296 161.7 -13.4  34164  289.63 0855.12
2009/04/23 11:26:15.7     109   -142    -50    180    187 142.4 -15.5  34162  289.62 0855.12
2009/04/23 11:26:15.8     -12   -155    -97    156    183 184.5 -39.6  34164  289.63 0855.12
2009/04/23 11:26:15.9     132   -246   -160    280    322 151.7 -36.7  34172  289.76 0855.12
2009/04/23 11:26:16.0     107   -255   -125    277    303 157.2 -30.6  34172  289.76 0855.12
2009/04/23 11:26:16.1      90   -227   -138    245    281 158.4 -36.3  34164  289.64 0855.12
2009/04/23 11:26:16.2      90   -162   -134    186    229 150.8 -43.9  34162  289.62 0855.12
2009/04/23 11:26:16.3      20   -143   -103    145    177 172.0 -43.5  34162  289.62 0855.12
2009/04/23 11:26:16.4    -104     13   -129    105    166 277.5 -60.8  34172  289.77 0855.12
2009/04/23 11:26:16.5    -138    -26   -126    141    189 259.0 -51.0  34184  289.97 0855.12
2009/04/23 11:26:16.6    -454   -193   -151    494    516 247.0 -21.9  34162  289.62 0855.12
2009/04/23 11:26:16.7    -412   -228     36    472    474 241.0   4.4  34168  289.71 0855.12
2009/04/23 11:26:16.9    -357   -342   -196    495    532 226.2 -27.3  34140  289.24 0855.12
2009/04/23 11:26:16.9    -317   -409   -263    518    580 217.8 -33.3  34138  289.19 0855.12
2009/04/23 11:26:17.0    -228   -414   -236    473    528 208.9 -33.0  34142  289.28 0855.12
2009/04/23 11:26:17.2    -191   -402   -194    446    486 205.5 -29.5  34150  289.39 0855.12
2009/04/23 11:26:17.3    -228   -398   -298    459    547 209.8 -40.4  34148  289.36 0855.12
2009/04/23 11:26:17.4    -284   -375   -323    471    571 217.1 -42.1  34150  289.41 0855.12
2009/04/23 11:26:17.5    -346   -234   -256    418    490 235.9 -38.8  34140  289.22 0855.12
2009/04/23 11:26:17.6    -116   -389   -328    406    521 196.6 -47.5  34146  289.34 0855.12
2009/04/23 11:26:17.7    -299   -246   -239    388    455 230.6 -38.9  34152  289.44 0855.12
2009/04/23 11:26:17.8    -275   -377   -110    467    480 216.1 -13.3  34160  289.56 0855.12
2009/04/23 11:26:17.9    -292   -356   -223    461    512 219.3 -32.2  34156  289.50 0855.12
2009/04/23 11:26:18.0     -79   -418   -230    426    484 190.8 -35.2  34146  289.35 0855.12
2009/04/23 11:26:18.1    -120   -274   -244    300    386 203.6 -47.9  34136  289.18 0855.12
2009/04/23 11:26:18.2     -21   -234   -152    236    280 185.3 -40.0  34140  289.24 0855.12
2009/04/23 11:26:18.3    -106   -151   -199    185    271 215.2 -56.6  34154  289.46 0855.12
2009/04/23 11:26:18.4     -17   -287   -200    288    350 183.5 -42.4  34156  289.50 0855.12
2009/04/23 11:26:18.5      -1   -345   -207    346    403 180.3 -38.1  34152  289.45 0855.12
2009/04/23 11:26:18.6     -74   -278   -207    288    354 195.1 -43.7  34154  289.47 0855.12
2009/04/23 11:26:18.7      -1    -88   -145     89    170 180.9 -69.8  34164  289.63 0855.12
2009/04/23 11:26:18.8      89     54   -209    105    233  58.9 -75.8  34174  289.80 0855.12
2009/04/23 11:26:18.9     -35     43   -130     56    141 320.3 -79.4  34188  290.06 0855.12
2009/04/23 11:26:19.0     -64     49    -84     81    116 307.3 -55.1  34178  289.89 0855.12
2009/04/23 11:26:19.1    -291    189   -112    348    366 303.1 -17.9  34166  289.69 0855.12
2009/04/23 11:26:19.2    -137   -176    -71    224    236 217.9 -17.6  34168  289.70 0855.12
2009/04/23 11:26:19.3    -178     84   -123    197    232 295.3 -39.9  34168  289.72 0855.12
2009/04/23 11:26:19.4    -320    -20   -143    321    351 266.3 -30.0  34172  289.76 0855.12
2009/04/23 11:26:19.5    -390    -25   -100    391    404 266.2 -14.4  34162  289.60 0855.12
2009/04/23 11:26:19.6    -338     25   -121    339    361 274.4 -19.7  34182  289.93 0855.12
2009/04/23 11:26:19.7    -493    -39    -76    495    501 265.4  -8.8  34170  289.73 0855.12
2009/04/23 11:26:19.8    -415    -36     -9    417    418 265.0  -1.3  34150  289.41 0855.12
2009/04/23 11:26:19.9    -353     97    -65    367    373 285.4 -10.1  34182  289.93 0855.12
2009/04/23 11:26:20.0    -353    122   -117    374    391 289.1 -22.4  34200  290.25 0855.12
2009/04/23 11:26:20.1    -382    145    -83    409    418 290.8 -11.5  34168  289.70 0855.13
2009/04/23 11:26:20.2    -469    117    -83    484    492 284.1  -9.8  34172  289.79 0855.13
2009/04/23 11:26:20.3    -467    120   -111    483    496 284.5 -13.0  34150  289.39 0855.13
2009/04/23 11:26:20.4    -208   -171    -34    270    273 230.7  -7.2  34160  289.56 0855.13
2009/04/23 11:26:20.5     -44   -260    127    264    292 189.8  27.3  34164  289.64 0855.13
2009/04/23 11:26:20.6      26   -245    101    247    266 173.8  23.4  34162  289.61 0855.13
2009/04/23 11:26:20.7      16   -255     62    256    264 176.2  13.7  34168  289.70 0855.13
2009/04/23 11:26:20.8      -4   -177    148    178    231 181.4  43.8  34160  289.57 0855.13
2009/04/23 11:26:20.9     -22   -173    134    175    220 187.3  41.4  34162  289.60 0855.13
2009/04/23 11:26:21.0      31   -231     53    234    241 172.2  12.9  34160  289.56 0855.13
2009/04/23 11:26:21.1      43   -284     61    288    295 171.3  12.0  34160  289.56 0855.13
2009/04/23 11:26:21.2      55   -322     85    327    338 170.2  14.7  34160  289.57 0855.13
2009/04/23 11:26:21.3      36   -291     75    294    304 172.8  14.3  34162  289.61 0855.13
2009/04/23 11:26:21.4      90   -260    111    276    297 160.9  23.0  34170  289.73 0855.13
2009/04/23 11:26:21.5      79   -323     95    333    347 166.2  16.0  34160  289.57 0855.13
2009/04/23 11:26:21.6      33   -327     76    329    338 174.1  13.1  34162  289.59 0855.13
2009/04/23 11:26:21.7     120   -314     63    337    343 159.0  10.6  34158  289.55 0855.13
2009/04/23 11:26:21.8     191   -216     -1    289    290 138.6  -0.3  34158  289.54 0855.13
2009/04/23 11:26:21.9     205   -205    -76    291    301 135.0 -14.7  34156  289.51 0855.13
2009/04/23 11:26:22.0     170   -175    -64    245    254 135.9 -14.7  34162  289.61 0855.13
2009/04/23 11:26:22.1     243   -120     38    272    275 116.4   8.0  34168  289.70 0855.12
2009/04/23 11:26:22.2     204    -85     69    222    233 112.6  17.3  34164  289.63 0855.12
2009/04/23 11:26:22.3     157    -94    121    183    219 120.9  36.7  34166  289.69 0855.12
2009/04/23 11:26:22.4     177    -98     72    203    216 118.9  19.6  34168  289.70 0855.12
2009/04/23 11:26:22.5     136   -103     -1    171    172 127.1  -0.5  34162  289.62 0855.12
2009/04/23 11:26:22.6     122    -49    -31    132    136 112.2 -13.4  34166  289.67 0855.12
2009/04/23 11:26:22.7     121    -61     19    136    138 117.0   8.0  34164  289.65 0855.12
2009/04/23 11:26:22.8     148    -44     -7    155    156 106.8  -2.6  34172  289.77 0855.12
2009/04/23 11:26:22.9      97    -80      2    126    127 129.5   1.2  34166  289.69 0855.12
2009/04/23 11:26:23.0      68   -123      7    141    142 151.0   2.9  34166  289.69 0855.12
2009/04/23 11:26:23.1      84   -122    -24    149    152 145.3  -9.3  34164  289.63 0855.12
2009/04/23 11:26:23.2      76   -106      6    131    132 144.4   2.9  34164  289.65 0855.12
2009/04/23 11:26:23.3     144    -68    -13    160    161 115.4  -4.9  34174  289.80 0855.12
2009/04/23 11:26:23.4     128    -47     21    137    139 110.4   9.0  34170  289.75 0855.12
2009/04/23 11:26:23.5     115   -119     12    166    167 135.9   4.2  34172  289.77 0855.12
2009/04/23 11:26:23.6      75   -118    -15    140    141 147.5  -6.2  34168  289.72 0855.12
2009/04/23 11:26:23.7      18   -132     11    134    135 171.9   4.9  34168  289.70 0855.12
2009/04/23 11:26:23.8      66   -126     -5    143    144 152.4  -2.2  34166  289.67 0855.12
2009/04/23 11:26:23.9     105   -149    -54    183    190 144.6 -21.5  34162  289.62 0855.12
2009/04/23 11:26:24.0     101   -228     29    250    252 156.2   6.7  34158  289.54 0855.12
2009/04/23 11:26:24.1      67   -182     68    195    207 159.7  19.4  34164  289.63 0855.11
2009/04/23 11:26:24.2      67    -92     87    115    144 143.9  40.7  34170  289.74 0855.11
2009/04/23 11:26:24.3       0   -103     64    104    122 180.0  34.4  34174  289.80 0855.11
2009/04/23 11:26:24.4      42   -295     93    299    314 171.9  17.4  34164  289.64 0855.11
2009/04/23 11:26:24.5     -15   -238     90    239    255 183.6  21.7  34168  289.71 0855.11
2009/04/23 11:26:24.6      68   -292     29    300    302 166.9   5.7  34164  289.63 0855.11
2009/04/23 11:26:24.7      72   -277     67    287    295 165.3  13.2  34160  289.58 0855.11
2009/04/23 11:26:24.8      24   -258      5    260    261 174.7   1.2  34164  289.63 0855.11
2009/04/23 11:26:24.9      54   -232     18    239    240 166.7   4.4  34164  289.64 0855.11
2009/04/23 11:26:25.0      36   -183    -34    187    191 168.7 -10.3  34166  289.67 0855.11
2009/04/23 11:26:25.1      56   -170    -26    180    182 161.7  -8.2  34166  289.67 0855.11
2009/04/23 11:26:25.2      44   -172     -5    178    179 165.5  -1.6  34164  289.65 0855.11
2009/04/23 11:26:25.3       8   -153    -48    154    162 176.9 -17.6  34166  289.69 0855.11
2009/04/23 11:26:25.4      41   -105    -40    113    121 158.6 -19.6  34164  289.65 0855.11
2009/04/23 11:26:25.5      57    -47    -35     75     82 129.5 -31.0  34162  289.60 0855.11
2009/04/23 11:26:25.6      37    -72    -52     82     97 152.8 -39.9  34160  289.58 0855.11
2009/04/23 11:26:25.7      -8    -48    -30     49     57 189.8 -39.9  34152  289.45 0855.11
2009/04/23 11:26:25.8      -1     -6    -47      7     47 189.7 -90.0  34146  289.33 0855.11
2009/04/23 11:26:25.9     -87     12     58     88    105 277.9  36.0  34138  289.21 0855.11
2009/04/23 11:26:26.0    -209    -29    -11    211    212 262.1  -3.2  34108  288.70 0855.11
2009/04/23 11:26:26.1    -218    -26    -27    220    222 263.0  -7.2  34106  288.65 0855.11
2009/04/23 11:26:26.2    -192    -16    -31    193    196 265.0  -9.3  34106  288.65 0855.11
2009/04/23 11:26:26.3    -170     -4    -49    171    178 268.5 -16.0  34128  289.04 0855.11
2009/04/23 11:26:26.4    -186      6    -59    187    197 271.9 -17.6  34134  289.14 0855.11
2009/04/23 11:26:26.5    -212     43    -55    217    224 281.5 -14.3  34126  288.99 0855.11
2009/04/23 11:26:26.6    -199     53    -76    207    220 285.1 -25.3  34124  288.96 0855.11
2009/04/23 11:26:26.7    -201    100    -62    225    234 296.6 -15.5  34132  289.09 0855.11
2009/04/23 11:26:26.8    -206    122    -57    240    247 300.7 -13.4  34134  289.14 0855.11
2009/04/23 11:26:26.9    -175    135    -49    222    228 307.7 -12.6  34132  289.09 0855.11
2009/04/23 11:26:27.0    -173    135    -61    220    229 308.0 -15.5  34132  289.11 0855.11
2009/04/23 11:26:27.1    -128    180     -8    222    223 324.6  -2.2  34132  289.09 0855.11
2009/04/23 11:26:27.2     -96    151    -11    180    181 327.5  -3.7  34138  289.19 0855.11
2009/04/23 11:26:27.3     -90    105    -28    139    142 319.5 -11.5  34140  289.23 0855.11
2009/04/23 11:26:27.4    -124      1   -126    125    177 270.8 -54.5  34152  289.45 0855.11
2009/04/23 11:26:27.5    -102    -37   -124    109    165 250.0 -58.7  34152  289.45 0855.11
2009/04/23 11:26:27.6    -122    -68    -91    140    166 240.7 -40.4  34152  289.45 0855.11
2009/04/23 11:26:27.7    -108   -106   -102    152    183 225.6 -41.4  34148  289.38 0855.11
2009/04/23 11:26:27.8    -179   -144   -163    230    281 231.1 -43.0  34152  289.42 0855.11
2009/04/23 11:26:27.9    -218    -93    -84    238    252 246.9 -24.4  34154  289.47 0855.11
2009/04/23 11:26:28.0    -127   -124    -96    178    202 225.6 -35.4  34154  289.46 0855.11
2009/04/23 11:26:28.1    -118    -22   -131    121    178 259.4 -56.6  34156  289.52 0855.11
2009/04/23 11:26:28.2     -69     16   -149     71    165 283.3 -77.1  34164  289.65 0855.11
2009/04/23 11:26:28.3    -257     91   -206    273    342 289.7 -45.2  34166  289.66 0855.11
2009/04/23 11:26:28.4     -95     67   -137    117    180 305.1 -59.8  34160  289.58 0855.11
2009/04/23 11:26:28.5     -53    133   -140    144    200 338.2 -53.8  34164  289.65 0855.11
2009/04/23 11:26:28.6     -90    128    -22    157    159 324.8  -8.2  34164  289.65 0855.11
2009/04/23 11:26:28.7     -67    191    -56    203    210 340.6 -20.0  34160  289.58 0855.11
2009/04/23 11:26:28.8     -44    166   -227    172    284 344.9 -63.4  34148  289.37 0855.11
2009/04/23 11:26:28.9    -315    118   -139    337    364 290.6 -28.2  34172  289.79 0855.11
2009/04/23 11:26:29.0    -287    135   -109    318    336 295.2 -23.9  34182  289.96 0855.11
2009/04/23 11:26:29.1    -207    102    -86    231    246 296.2 -25.7  34186  290.02 0855.09
2009/04/23 11:26:29.2    -154     50    -70    163    177 288.2 -29.0  34180  289.91 0855.09
2009/04/23 11:26:29.3    -156    113    -34    193    197 306.0 -10.1  34180  289.92 0855.09
2009/04/23 11:26:29.4    -194    148      3    245    246 307.3   0.8  34184  289.97 0855.09
2009/04/23 11:26:29.5    -252    118     -5    279    280 295.2  -1.2  34184  289.97 0855.09
2009/04/23 11:26:29.6    -230     63    -39    239    243 285.3  -9.4  34182  289.93 0855.09
2009/04/23 11:26:29.7    -319    -11    -49    320    324 268.0  -8.7  34182  289.95 0855.09
2009/04/23 11:26:29.8    -250    -83    -63    264    272 251.6 -13.4  34184  289.97 0855.09
2009/04/23 11:26:29.9    -290     48   -103    294    311 279.5 -24.0  34174  289.81 0855.09
2009/04/23 11:26:30.0    -268      8    -85    269    283 271.7 -17.6  34170  289.75 0855.09
2009/04/23 11:26:30.1    -343    -26   -157    344    378 265.7 -30.7  34172  289.76 0855.09
2009/04/23 11:26:30.2    -314   -253   -131    404    424 231.1 -23.0  34170  289.75 0855.09
2009/04/23 11:26:30.3    -239   -211     40    319    322 228.6   7.2  34174  289.81 0855.09
2009/04/23 11:26:30.4    -298     59    117    304    325 281.4  22.0  34190  290.07 0855.09
2009/04/23 11:26:30.5    -279     76    -75    290    300 285.3 -14.5  34188  290.03 0855.09
2009/04/23 11:26:30.6    -307    -25   -109    309    328 265.2 -19.5  34182  289.93 0855.09
2009/04/23 11:26:30.7    -218    -49    -93    224    242 257.2 -28.2  34196  290.17 0855.09
2009/04/23 11:26:30.8    -172    -65    -92    184    205 249.2 -32.9  34200  290.26 0855.09
2009/04/23 11:26:30.9    -209   -145   -130    255    286 235.1 -33.6  34210  290.42 0855.09
2009/04/23 11:26:31.0    -211    -77   -185    225    291 249.8 -48.1  34190  290.07 0855.09
2009/04/23 11:26:31.1    -133   -182    -19    226    227 216.1  -4.9  34198  290.21 0855.09
2009/04/23 11:26:31.2    -258     82    -77    271    281 287.7 -20.7  34194  290.15 0855.09
2009/04/23 11:26:31.3    -402    139   -143    426    449 289.1 -23.3  34158  289.53 0855.09
2009/04/23 11:26:31.4    -309    116   -111    331    349 290.6 -23.3  34166  289.69 0855.09
2009/04/23 11:26:31.5    -374    -47   -184    377    419 262.8 -32.3  34204  290.33 0855.09
2009/04/23 11:26:31.6    -438    -74   -206    445    490 260.4 -31.0  34172  289.79 0855.09
2009/04/23 11:26:31.7    -516     36   -168    518    544 274.0 -23.3  34160  289.57 0855.09
2009/04/23 11:26:31.8    -490     64   -211    495    538 277.5 -29.0  34150  289.41 0855.09
2009/04/23 11:26:31.9    -431     18   -173    432    465 272.5 -27.4  34158  289.53 0855.09
2009/04/23 11:26:32.0    -440    -54   -188    444    482 262.9 -28.7  34172  289.76 0855.09
2009/04/23 11:26:32.1    -277     60   -239    284    371 282.4 -48.7  34178  289.86 0855.09
2009/04/23 11:26:32.2    -153     11   -144    154    210 274.4 -52.4  34188  290.04 0855.09
2009/04/23 11:26:32.3     -67     -9    -20     68     71 262.1 -16.6  34202  290.28 0855.09
2009/04/23 11:26:32.4    -183   -122    162    220    273 236.3  39.9  34210  290.42 0855.09
2009/04/23 11:26:32.5    -340     26   -110    342    360 274.5 -17.9  34198  290.23 0855.09
2009/04/23 11:26:32.6    -414    211   -136    465    484 297.0 -21.1  34172  289.76 0855.09
2009/04/23 11:26:32.7    -483    210   -151    527    548 293.5 -20.7  34180  289.90 0855.09
2009/04/23 11:26:32.8    -329    167    -81    370    379 297.0 -12.4  34192  290.10 0855.09
2009/04/23 11:26:32.9    -230     54    -84    237    251 283.3 -24.4  34192  290.12 0855.09
2009/04/23 11:26:33.0    -357     49    111    361    378 277.9  17.1  34210  290.43 0855.09
2009/04/23 11:26:33.1    -398   -120   -114    416    432 253.2 -15.4  34194  290.16 0855.10
2009/04/23 11:26:33.2    -450   -277   -179    529    558 238.4 -23.8  34164  289.65 0855.10
2009/04/23 11:26:33.3    -471   -282   -185    549    579 239.1 -23.6  34166  289.66 0855.10
2009/04/23 11:26:33.4    -491   -215   -184    537    567 246.3 -23.9  34156  289.50 0855.10
2009/04/23 11:26:33.5    -511   -194   -197    547    581 249.2 -25.1  34156  289.51 0855.10
2009/04/23 11:26:33.6    -482   -241   -166    539    563 243.4 -22.1  34152  289.45 0855.10
2009/04/23 11:26:33.7    -389   -304   -235    494    547 232.0 -31.7  34166  289.67 0855.10
2009/04/23 11:26:33.8    -364   -303   -192    474    511 230.2 -27.8  34160  289.56 0855.10
2009/04/23 11:26:33.9    -403   -182   -222    443    495 245.7 -33.1  34166  289.66 0855.10
2009/04/23 11:26:34.0    -392   -236   -164    458    486 238.9 -24.8  34170  289.73 0855.10
2009/04/23 11:26:34.1    -367   -144   -181    395    434 248.5 -30.7  34170  289.73 0855.10
2009/04/23 11:26:34.2    -333   -122   -178    355    397 249.8 -33.0  34162  289.60 0855.10
2009/04/23 11:26:34.3    -338    -88   -160    350    384 255.3 -30.8  34162  289.60 0855.10
2009/04/23 11:26:34.4    -227   -133   -148    264    302 239.6 -36.0  34168  289.71 0855.10
2009/04/23 11:26:34.5    -245   -140   -150    283    320 240.3 -34.6  34170  289.73 0855.10
2009/04/23 11:26:34.6    -250    -86   -173    265    316 250.9 -40.7  34168  289.71 0855.10
2009/04/23 11:26:34.7    -252   -126   -218    282    356 243.4 -46.0  34168  289.72 0855.10
2009/04/23 11:26:34.8    -224     -7   -140    225    265 268.1 -39.6  34166  289.66 0855.10
2009/04/23 11:26:34.9    -206    -22   -145    208    253 263.8 -42.8  34170  289.73 0855.10
2009/04/23 11:26:35.0    -199     15   -181    200    269 274.4 -51.3  34172  289.78 0855.10
2009/04/23 11:26:35.1    -188     30   -123    191    227 279.2 -40.0  34172  289.77 0855.10
2009/04/23 11:26:35.2    -156     -2   -157    157    222 269.1 -54.5  34164  289.65 0855.10
2009/04/23 11:26:35.3    -175     65   -176    187    256 290.4 -52.4  34166  289.66 0855.10
2009/04/23 11:26:35.4    -150     69   -148    166    222 294.8 -51.0  34162  289.62 0855.10
2009/04/23 11:26:35.5    -273     34   -142    276    310 277.2 -33.7  34154  289.47 0855.10
2009/04/23 11:26:35.6    -251    -31    -84    253    266 262.9 -23.8  34162  289.61 0855.10
2009/04/23 11:26:35.7    -214      0   -174    215    276 270.1 -47.7  34156  289.49 0855.10
2009/04/23 11:26:35.8    -258     12   -167    259    308 272.8 -40.0  34160  289.56 0855.10
2009/04/23 11:26:35.9    -345    140   -170    373    409 292.2 -30.6  34158  289.54 0855.10
2009/04/23 11:26:36.0    -343     31   -227    345    412 275.2 -40.9  34164  289.64 0855.10
2009/04/23 11:26:36.1    -319    104   -194    336    387 288.2 -37.1  34154  289.48 0855.10
2009/04/23 11:26:36.2    -326    173   -152    370    400 298.0 -28.1  34194  290.15 0855.10
2009/04/23 11:26:36.3    -250    161    -96    298    313 302.9 -22.9  34178  289.88 0855.10
2009/04/23 11:26:36.4    -346    121   -196    367    416 289.4 -34.7  34184  289.98 0855.10
2009/04/23 11:26:36.5    -364    105   -116    379    396 286.2 -21.9  34192  290.11 0855.10
2009/04/23 11:26:36.6    -414    169   -188    448    485 292.2 -28.6  34184  289.98 0855.10
2009/04/23 11:26:36.7    -462     49   -151    465    489 276.1 -18.0  34178  289.86 0855.10
2009/04/23 11:26:36.8    -562    -17   -223    563    605 268.2 -27.4  34178  289.88 0855.10
2009/04/23 11:26:36.9    -557    -45   -230    559    604 265.3 -28.0  34168  289.71 0855.10
2009/04/23 11:26:37.0    -570    -85   -228    577    620 261.5 -27.4  34166  289.69 0855.10
2009/04/23 11:26:37.1    -496   -100   -219    506    551 258.5 -29.3  34170  289.74 0855.11
2009/04/23 11:26:37.2    -509    -89   -165    517    542 260.0 -22.9  34176  289.84 0855.11
2009/04/23 11:26:37.3    -511    -87   -172    519    546 260.3 -23.5  34172  289.79 0855.11
2009/04/23 11:26:37.4    -521    -54   -197    524    559 264.0 -25.9  34172  289.79 0855.11
2009/04/23 11:26:37.5    -514   -125   -197    529    564 256.3 -25.9  34172  289.77 0855.11
2009/04/23 11:26:37.6    -437   -103   -186    449    486 256.7 -28.2  34176  289.83 0855.11
2009/04/23 11:26:37.7    -467    -75   -218    474    521 260.8 -30.9  34160  289.57 0855.11
2009/04/23 11:26:37.8    -518    -11   -232    519    568 268.8 -30.1  34164  289.63 0855.11
2009/04/23 11:26:37.9    -459    -37   -210    461    506 265.3 -30.6  34162  289.61 0855.11
2009/04/23 11:26:38.0    -548     -8   -233    549    596 269.1 -28.9  34158  289.54 0855.11
2009/04/23 11:26:38.1    -471    -36   -296    473    557 265.6 -39.4  34158  289.53 0855.11
2009/04/23 11:26:38.2    -336   -112   -163    355    390 251.6 -30.7  34174  289.82 0855.11
2009/04/23 11:26:38.3    -341    -50   -187    345    392 261.5 -35.2  34172  289.79 0855.11
2009/04/23 11:26:38.4    -430     -9   -216    431    482 268.8 -33.0  34166  289.69 0855.11
2009/04/23 11:26:38.5    -493     22   -205    494    534 272.6 -28.2  34168  289.72 0855.11
2009/04/23 11:26:38.6    -496    -31   -165    497    523 266.4 -23.8  34172  289.76 0855.11
2009/04/23 11:26:38.7    -382   -100   -140    395    419 255.2 -24.6  34172  289.78 0855.11
2009/04/23 11:26:38.8    -398     -9   -206    399    449 268.6 -33.7  34176  289.83 0855.11
2009/04/23 11:26:38.9    -437    -39   -193    439    479 264.8 -29.7  34170  289.74 0855.11
2009/04/23 11:26:39.1    -264    -64   -189    272    331 256.3 -42.4  34168  289.71 0855.11
2009/04/23 11:26:39.1    -261   -132   -162    293    334 243.1 -35.8  34176  289.83 0855.13
2009/04/23 11:26:39.2    -149   -164   -167    222    277 222.3 -45.1  34180  289.90 0855.13
2009/04/23 11:26:39.3    -269    -72   -161    279    322 254.9 -37.2  34184  289.97 0855.13
2009/04/23 11:26:39.4    -326     24   -123    327    349 274.4 -25.9  34202  290.28 0855.13
2009/04/23 11:26:39.5     -82    -49   -163     96    189 238.9 -71.4  34190  290.08 0855.13
2009/04/23 11:26:39.6    -327   -184   -107    376    391 240.6 -15.9  34192  290.10 0855.13
2009/04/23 11:26:39.7    -271    -20   -223    272    351 265.7 -48.0  34178  289.88 0855.13
2009/04/23 11:26:39.8    -449     55   -185    453    489 277.1 -27.9  34180  289.91 0855.13
2009/04/23 11:26:39.9    -394    -30    -87    396    406 265.6 -12.4  34172  289.77 0855.13
2009/04/23 11:26:40.0    -417     84   -295    426    518 281.4 -42.4  34176  289.84 0855.13
2009/04/23 11:26:40.1    -269     63   -362    277    455 283.3 -63.3  34186  290.02 0855.13
2009/04/23 11:26:40.2    -398    156   -306    428    526 291.5 -43.6  34222  290.61 0855.13
2009/04/23 11:26:40.3    -330     46    -39    334    337 278.0  -6.7  34192  290.11 0855.13
2009/04/23 11:26:40.4    -361   -229    -77    428    435 237.6 -10.3  34192  290.11 0855.13
2009/04/23 11:26:40.5    -257   -258   -112    365    381 224.9 -22.1  34190  290.08 0855.13
2009/04/23 11:26:40.6    -260   -177   -150    315    348 235.8 -31.7  34198  290.20 0855.13
2009/04/23 11:26:40.7    -310   -209   -103    375    390 236.0 -15.4  34192  290.10 0855.13
2009/04/23 11:26:40.8    -298   -283    -83    412    421 226.5 -11.5  34212  290.46 0855.13
2009/04/23 11:26:40.9    -230   -179    -45    292    296 232.2  -8.8  34268  291.39 0855.13
2009/04/23 11:26:41.0    -353    -71   -158    361    394 258.6 -29.5  34252  291.13 0855.13
2009/04/23 11:26:41.1    -380   -124   -154    400    428 251.8 -26.5  34240  290.94 0855.14
2009/04/23 11:26:41.2    -291   -153   -137    329    356 242.2 -28.3  34210  290.42 0855.14
2009/04/23 11:26:41.3    -359   -164     44    395    398 245.4   6.5  34206  290.35 0855.14
2009/04/23 11:26:41.4    -413   -191     50    456    459 245.2   6.4  34212  290.46 0855.14
2009/04/23 11:26:41.5    -329   -155    -75    364    372 244.8 -11.8  34198  290.21 0855.14
2009/04/23 11:26:41.6    -363   -171   -100    402    415 244.8 -14.1  34200  290.24 0855.14
2009/04/23 11:26:41.7    -222   -235   -116    324    344 223.5 -24.8  34188  290.06 0855.14
2009/04/23 11:26:41.8    -464   -130    -62    482    486 254.3  -7.4  34178  289.88 0855.14
2009/04/23 11:26:41.9    -366   -244    -92    441    451 236.3 -11.8  34182  289.95 0855.14
2009/04/23 11:26:42.0    -249   -380    -65    455    460 213.3  -8.2  34180  289.90 0855.14
2009/04/23 11:26:42.1    -252   -367    -80    446    454 214.5 -10.3  34176  289.83 0855.14
2009/04/23 11:26:42.2    -199   -497    -57    536    540 201.8  -6.1  34178  289.87 0855.14
2009/04/23 11:26:42.3    -283   -414   -139    502    522 214.4 -15.5  34162  289.61 0855.14
2009/04/23 11:26:42.4    -149   -385   -133    413    433 201.2 -22.9  34174  289.82 0855.14
2009/04/23 11:26:42.5    -244   -382   -258    454    522 212.6 -36.7  34156  289.52 0855.14
2009/04/23 11:26:42.6    -217   -278   -215    353    413 218.0 -38.7  34178  289.86 0855.14
2009/04/23 11:26:42.7    -406   -311   -266    512    576 232.5 -34.0  34190  290.07 0855.14
2009/04/23 11:26:42.8    -429   -226   -295    485    567 242.2 -38.7  34190  290.07 0855.14
2009/04/23 11:26:42.9    -330   -286   -222    437    490 229.1 -33.5  34196  290.17 0855.14
2009/04/23 11:26:43.0    -385   -505    -44    636    638 217.3  -4.0  34178  289.86 0855.14
2009/04/23 11:26:43.1    -178   -518     26    548    549 199.0   2.8  34176  289.85 0855.14
2009/04/23 11:26:43.2    -217   -446     19    497    498 206.0   2.2  34180  289.91 0855.14
2009/04/23 11:26:43.3    -281   -443    113    525    538 212.4  12.2  34178  289.87 0855.14
2009/04/23 11:26:43.4    -222   -405    148    462    486 208.7  17.8  34172  289.79 0855.14
2009/04/23 11:26:43.5    -204   -426    230    473    525 205.7  27.8  34180  289.91 0855.14
2009/04/23 11:26:43.6    -162   -389    254    422    492 202.7  34.0  34178  289.86 0855.14
2009/04/23 11:26:43.7    -173   -402    234    438    496 203.3  30.5  34176  289.84 0855.14
2009/04/23 11:26:43.8    -213   -448    122    497    512 205.5  13.8  34176  289.84 0855.14
2009/04/23 11:26:43.9    -255   -517      2    577    578 206.3   0.2  34180  289.91 0855.14
2009/04/23 11:26:44.0    -307   -465     -3    558    559 213.5  -0.4  34180  289.90 0855.14
2009/04/23 11:26:44.1    -262   -462    -23    532    533 209.5  -2.5  34184  289.99 0855.14
2009/04/23 11:26:44.2    -240   -415      5    480    481 210.0   0.7  34178  289.89 0855.14
2009/04/23 11:26:44.4    -392   -249     37    465    467 237.6   4.6  34180  289.91 0855.14
2009/04/23 11:26:44.5    -285    163    -18    329    330 299.8  -3.3  34186  290.01 0855.14
2009/04/23 11:26:44.6    -280    201     -5    346    347 305.7  -0.9  34184  289.99 0855.14
2009/04/23 11:26:44.7    -205    159     12    260    261 307.8   2.8  34182  289.95 0855.14
2009/04/23 11:26:44.8    -134      0      0    135    136 270.0  -0.3  34188  290.04 0855.14
2009/04/23 11:26:44.9    -105   -107     41    151    157 224.5  15.3  34184  289.97 0855.14
2009/04/23 11:26:45.0    -101   -182     41    209    214 209.0  11.1  34192  290.13 0855.14
2009/04/23 11:26:45.1    -168   -319    -32    361    363 207.9  -5.1  34234  290.83 0855.14
2009/04/23 11:26:45.2     -13   -435    -16    436    437 181.8  -2.1  34220  290.60 0855.15
2009/04/23 11:26:45.3    -135   -399    -30    422    424 198.7  -4.1  34210  290.41 0855.15
2009/04/23 11:26:45.4     -74   -331    -98    340    353 192.7 -20.9  34198  290.20 0855.15
2009/04/23 11:26:45.5     -54   -315    -77    320    330 189.8 -13.6  34206  290.34 0855.15
2009/04/23 11:26:45.6     -80   -465     -2    473    474 189.8  -0.3  34206  290.34 0855.15
2009/04/23 11:26:45.7     -79   -347      9    356    357 192.9   1.6  34198  290.23 0855.15
2009/04/23 11:26:45.8    -114   -355     46    373    376 197.8   7.1  34202  290.28 0855.15
2009/04/23 11:26:45.9     -50   -361    -49    365    369 188.0  -7.7  34192  290.13 0855.15
2009/04/23 11:26:46.0     -70   -357    -32    364    366 191.1  -5.1  34198  290.20 0855.15
2009/04/23 11:26:46.1     -40   -374     -7    377    378 186.2  -1.2  34202  290.27 0855.15
2009/04/23 11:26:46.2      20   -338    -19    339    340 176.5  -3.3  34198  290.20 0855.15
2009/04/23 11:26:46.3      -8   -312    -10    313    314 181.6  -1.9  34192  290.12 0855.15
2009/04/23 11:26:46.4     -81   -391     21    400    401 191.8   3.1  34202  290.28 0855.15
2009/04/23 11:26:46.5     -75   -249     -7    261    262 196.9  -1.6  34216  290.53 0855.15
2009/04/23 11:26:46.6    -119   -312    -94    335    347 200.9 -20.3  34236  290.86 0855.15
2009/04/23 11:26:46.7     -91   -262     28    278    280 199.2   5.9  34232  290.80 0855.15
2009/04/23 11:26:46.8     -99   -355    147    369    397 195.6  23.0  34220  290.60 0855.15
2009/04/23 11:26:46.9     -26   -283    172    285    332 185.3  34.0  34218  290.54 0855.15
2009/04/23 11:26:47.0     -45   -349    143    352    379 187.4  23.2  34222  290.62 0855.15
2009/04/23 11:26:47.1      58   -410    205    415    462 171.9  28.2  34210  290.43 0855.15
2009/04/23 11:26:47.2      17   -461    125    462    479 177.9  15.1  34212  290.45 0855.15
2009/04/23 11:26:47.3     -22   -503    196    504    540 182.6  22.5  34202  290.28 0855.15
2009/04/23 11:26:47.4     -48   -446    176    449    482 186.3  22.5  34222  290.64 0855.15
2009/04/23 11:26:47.5     -87   -446    175    455    487 191.1  22.2  34216  290.52 0855.15
2009/04/23 11:26:47.6       9   -467    213    468    514 178.9  26.2  34202  290.29 0855.15
2009/04/23 11:26:47.7     -36   -418    222    420    475 185.0  30.2  34196  290.19 0855.15
2009/04/23 11:26:47.8     -16   -438    222    439    491 182.1  28.8  34202  290.29 0855.15
2009/04/23 11:26:47.9      30   -465    169    466    495 176.3  20.8  34198  290.22 0855.15
2009/04/23 11:26:48.0      10   -323    179    324    370 178.2  31.4  34196  290.18 0855.15
2009/04/23 11:26:48.1     -24   -328    189    329    379 184.3  32.6  34192  290.13 0855.15
2009/04/23 11:26:48.2      12   -402    213    403    455 178.2  30.2  34200  290.24 0855.15
2009/04/23 11:26:48.3      22   -403    173    404    439 176.9  24.8  34202  290.28 0855.15
2009/04/23 11:26:48.4      18   -396    155    397    426 177.3  22.5  34202  290.28 0855.15
2009/04/23 11:26:48.5      14   -314    216    315    381 177.3  37.6  34202  290.28 0855.15
2009/04/23 11:26:48.6     -16   -329    196    330    383 182.9  33.5  34196  290.18 0855.15
2009/04/23 11:26:48.7     -13   -291    211    292    360 182.7  39.5  34200  290.25 0855.15
2009/04/23 11:26:48.8      -4   -273    206    274    342 181.0  40.8  34198  290.20 0855.15
2009/04/23 11:26:48.9     -95   -348    196    361    410 195.4  30.9  34198  290.21 0855.15
2009/04/23 11:26:49.0    -171   -269    128    320    344 212.5  23.0  34210  290.42 0855.15
2009/04/23 11:26:49.1     -71   -320     66    328    335 192.6  11.4  34198  290.23 0855.15
2009/04/23 11:26:49.2      -3   -219     42    220    225 180.9  11.0  34196  290.19 0855.14
2009/04/23 11:26:49.3     -48   -205    165    211    267 193.4  42.2  34198  290.20 0855.14
2009/04/23 11:26:49.4    -104   -259    186    280    336 201.9  36.7  34200  290.24 0855.14
2009/04/23 11:26:49.5    -118   -354    105    374    389 198.5  15.8  34198  290.20 0855.14
2009/04/23 11:26:49.6    -119   -359    101    379    393 198.4  15.0  34208  290.37 0855.14
2009/04/23 11:26:49.7    -166   -331     58    371    376 206.7   9.0  34212  290.45 0855.14
2009/04/23 11:26:49.8    -105   -232     59    255    262 204.5  13.2  34208  290.39 0855.14
2009/04/23 11:26:49.9    -111   -292     80    313    324 201.0  14.4  34196  290.19 0855.14
2009/04/23 11:26:50.0     -36   -220    108    224    248 189.3  27.4  34198  290.20 0855.14
2009/04/23 11:26:50.1      -8   -202    121    203    236 182.5  33.5  34198  290.21 0855.14
2009/04/23 11:26:50.2     -20   -263     93    264    280 184.4  19.4  34200  290.24 0855.14
2009/04/23 11:26:50.3     -45   -274     61    278    285 189.3  12.4  34200  290.24 0855.14
2009/04/23 11:26:50.4     -65   -276     11    284    285 193.4   2.3  34210  290.41 0855.14
2009/04/23 11:26:50.5     -64   -292    -17    300    301 192.4  -3.3  34200  290.26 0855.14
2009/04/23 11:26:50.6     -81   -207    -12    223    224 201.6  -3.1  34194  290.16 0855.14
2009/04/23 11:26:50.7    -161    -75    -46    178    184 244.8 -14.7  34198  290.23 0855.14
2009/04/23 11:26:50.8    -108    -72      6    131    132 236.3   2.9  34212  290.45 0855.14
2009/04/23 11:26:50.9     -88    -94    -33    130    135 223.2 -14.5  34210  290.43 0855.14
2009/04/23 11:26:51.0     -69    -95      2    118    119 216.0   1.2  34212  290.45 0855.14
2009/04/23 11:26:51.1     -95   -210    -10    231    232 204.5  -2.6  34204  290.33 0855.14
2009/04/23 11:26:51.2     -86   -215    -10    232    233 201.8  -2.6  34200  290.25 0855.14
2009/04/23 11:26:51.3     -98   -219     -9    240    241 204.1  -2.2  34202  290.27 0855.14
2009/04/23 11:26:51.4     -62   -187      5    198    199 198.5   1.6  34204  290.31 0855.14
2009/04/23 11:26:51.5     -49   -144    -48    153    161 198.7 -17.6  34204  290.33 0855.14
2009/04/23 11:26:51.6     -10   -139    -45    140    147 184.5 -23.8  34208  290.38 0855.14
2009/04/23 11:26:51.7      -5   -115    -18    116    118 182.7  -8.8  34204  290.31 0855.14
2009/04/23 11:26:51.8      20    -84     40     87     95 166.2  26.6  34208  290.38 0855.14
2009/04/23 11:26:51.9     -49    -92    -11    105    106 208.1  -6.2  34208  290.40 0855.14
2009/04/23 11:26:52.0     -57   -190     28    199    202 196.7   8.2  34212  290.47 0855.14
2009/04/23 11:26:52.1     -24   -199     29    201    204 186.9   8.2  34210  290.43 0855.14
2009/04/23 11:26:52.2     -59   -205     18    214    215 196.0   4.9  34208  290.40 0855.14
2009/04/23 11:26:52.3     -45   -159     27    166    169 196.0   9.5  34202  290.28 0855.14
2009/04/23 11:26:52.4      -2   -154     59    155    165 180.9  21.7  34208  290.38 0855.14
2009/04/23 11:26:52.5     -26   -126     58    129    141 192.0  25.7  34206  290.35 0855.14
2009/04/23 11:26:52.6     -41    -91     58    101    116 204.5  32.4  34198  290.23 0855.14
2009/04/23 11:26:52.7     -35   -100    114    107    156 199.6  52.1  34228  290.72 0855.14
2009/04/23 11:26:52.8     -14    -88     57     90    106 189.3  35.5  34230  290.77 0855.14
2009/04/23 11:26:52.9     -62    -78     45    100    109 218.7  26.2  34242  290.96 0855.14
2009/04/23 11:26:53.0    -106   -132    -38    170    175 219.0 -12.6  34248  291.06 0855.14
2009/04/23 11:26:53.1    -174   -122   -142    213    255 234.9 -41.1  34174  289.80 0855.14
2009/04/23 11:26:53.2     -97    -67    -24    118    121 235.4 -11.9  34178  289.87 0855.14
2009/04/23 11:26:53.3    -135   -243    -46    279    283 209.0  -9.4  34198  290.20 0855.14
2009/04/23 11:26:53.4    -148   -305    -60    340    346 206.0 -10.1  34166  289.69 0855.14
2009/04/23 11:26:53.5    -125   -390   -121    410    428 197.8 -16.5  34164  289.65 0855.14
2009/04/23 11:26:53.6    -129   -387   -112    409    425 198.5 -15.4  34164  289.65 0855.14
2009/04/23 11:26:53.7     -39   -363    -74    366    374 186.3 -11.6  34160  289.57 0855.14
2009/04/23 11:26:53.8     -72   -354    -95    362    375 191.6 -14.8  34162  289.62 0855.14
2009/04/23 11:26:53.9      53   -375    -80    379    388 171.9 -12.0  34154  289.47 0855.14
2009/04/23 11:26:54.0      -2   -315    -64    316    323 180.5 -11.6  34152  289.44 0855.14
2009/04/23 11:26:54.1    -154   -317    -90    353    365 206.0 -14.4  34178  289.87 0855.14
2009/04/23 11:26:54.2     -81   -347   -109    357    374 193.1 -17.0  34172  289.76 0855.12
2009/04/23 11:26:54.3     -99   -333   -113    348    366 196.6 -18.0  34178  289.89 0855.12
2009/04/23 11:26:54.4     -46   -268    -92    273    289 189.8 -18.7  34172  289.78 0855.12
2009/04/23 11:26:54.5     -93   -270    -16    286    287 199.2  -3.3  34192  290.10 0855.12
2009/04/23 11:26:54.6     -88   -262    -58    277    284 198.7 -11.9  34164  289.63 0855.12
2009/04/23 11:26:54.7    -105   -205    -77    231    244 207.2 -18.6  34160  289.58 0855.12
2009/04/23 11:26:54.8     -58   -243    -41    250    254 193.6  -9.3  34168  289.71 0855.12
2009/04/23 11:26:54.9     -37   -259    -77    262    274 188.2 -16.5  34164  289.63 0855.12
2009/04/23 11:26:55.0     -96   -228    -54    248    254 202.9 -12.4  34166  289.66 0855.12
2009/04/23 11:26:55.1     -34   -228    -60    231    239 188.7 -14.7  34162  289.59 0855.12
2009/04/23 11:26:55.2      -1   -199    -25    200    202 180.5  -7.3  34162  289.62 0855.12
2009/04/23 11:26:55.3     -38   -174    -33    179    183 192.5 -10.5  34172  289.77 0855.12
2009/04/23 11:26:55.4     -23   -176    -35    178    182 187.6 -11.1  34174  289.80 0855.12
2009/04/23 11:26:55.5      -7   -184     -3    185    186 182.2  -1.1  34170  289.75 0855.12
2009/04/23 11:26:55.6      15   -197    -59    198    206 175.6 -21.5  34168  289.70 0855.12
2009/04/23 11:26:55.7      50   -185    -63    192    202 164.8 -23.6  34160  289.58 0855.12
2009/04/23 11:26:55.8      47   -212    -43    218    223 167.3 -11.3  34164  289.63 0855.12
2009/04/23 11:26:55.9      50   -226    -51    232    238 167.5 -12.4  34160  289.56 0855.12
2009/04/23 11:26:56.0      38   -244   -108    248    270 171.1 -29.5  34152  289.42 0855.12
2009/04/23 11:26:56.1      -4   -237   -113    238    263 181.0 -31.6  34154  289.47 0855.12
2009/04/23 11:26:56.2      15   -202    -85    203    220 175.5 -28.5  34150  289.41 0855.13
2009/04/23 11:26:56.3       5   -144    -81    145    166 177.8 -36.3  34152  289.45 0855.13
2009/04/23 11:26:56.4      12   -135    -74    136    154 174.7 -35.7  34146  289.35 0855.13
2009/04/23 11:26:56.5      48   -134    -45    143    151 160.0 -17.6  34150  289.40 0855.13
2009/04/23 11:26:56.6      32   -160     -8    164    165 168.4  -2.8  34152  289.43 0855.13
2009/04/23 11:26:56.7      66   -139    -44    155    161 154.5 -20.4  34150  289.41 0855.13
2009/04/23 11:26:56.8      78   -146    -21    166    168 151.9  -7.2  34146  289.33 0855.13
2009/04/23 11:26:56.9      80   -128    -49    152    160 147.9 -18.1  34150  289.40 0855.13
2009/04/23 11:26:57.0      90   -109    -39    142    148 140.4 -15.5  34152  289.45 0855.13
2009/04/23 11:26:57.1      65   -101    -34    121    126 147.0 -16.0  34150  289.41 0855.13
2009/04/23 11:26:57.2      41    -97    -61    106    122 156.8 -36.8  34152  289.43 0855.13
2009/04/23 11:26:57.3       4   -110    -63    111    127 177.8 -36.3  34156  289.50 0855.13
2009/04/23 11:26:57.4     -10   -131    -51    132    141 184.5 -26.9  34154  289.48 0855.13
2009/04/23 11:26:57.5      21   -106   -121    109    162 168.4 -57.7  34156  289.52 0855.13
2009/04/23 11:26:57.6      34   -128    -90    133    160 164.9 -41.7  34154  289.48 0855.13
2009/04/23 11:26:57.7      46   -122    -70    131    148 159.1 -35.2  34154  289.48 0855.13
2009/04/23 11:26:57.8      29   -136    -89    140    165 168.0 -39.9  34158  289.53 0855.13
2009/04/23 11:26:57.9      58   -165   -121    175    212 160.6 -42.2  34170  289.75 0855.13
2009/04/23 11:26:58.0      50   -201    -66    208    219 166.0 -17.6  34170  289.75 0855.13
2009/04/23 11:26:58.1      36   -212    -43    216    221 170.2 -11.3  34170  289.74 0855.13
2009/04/23 11:26:58.2      16   -215    -33    216    219 175.6  -8.8  34168  289.70 0855.15
2009/04/23 11:26:58.3      -4   -164      2    165    166 181.6   1.0  34162  289.62 0855.15
2009/04/23 11:26:58.4     -13   -167      9    168    169 184.5   3.3  34164  289.63 0855.15
2009/04/23 11:26:58.5     -13   -171     37    172    177 184.5  12.4  34170  289.74 0855.15
2009/04/23 11:26:58.6      19   -189     59    191    201 174.0  17.3  34180  289.91 0855.15
2009/04/23 11:26:58.7      48   -194     47    200    206 166.0  13.2  34182  289.96 0855.15
2009/04/23 11:26:58.8      42   -209     31    214    217 168.4   8.2  34180  289.91 0855.15
2009/04/23 11:26:58.9      25   -198     -7    200    201 172.7  -2.1  34176  289.84 0855.15
2009/04/23 11:26:59.0      34   -227    -21    230    232 171.3  -5.4  34174  289.80 0855.15
2009/04/23 11:26:59.1     114   -271      4    295    296 157.2   0.8  34172  289.78 0855.15
2009/04/23 11:26:59.2     118   -280     15    305    306 157.1   2.9  34176  289.85 0855.15
2009/04/23 11:26:59.3     166   -262     59    311    317 147.7  10.8  34180  289.92 0855.15
2009/04/23 11:26:59.4     107   -228     -9    252    253 154.8  -2.2  34180  289.90 0855.15
2009/04/23 11:26:59.5     107   -341    -57    358    363 162.6  -9.1  34182  289.93 0855.15
2009/04/23 11:26:59.6     151   -326    -62    360    366 155.2  -9.8  34182  289.93 0855.15
2009/04/23 11:26:59.7     140   -353    -29    380    382 158.3  -4.5  34174  289.81 0855.15
2009/04/23 11:26:59.8     140   -331    -48    360    364 157.1  -7.7  34178  289.86 0855.15
2009/04/23 11:26:59.9     144   -312     10    344    345 155.2   1.8  34172  289.76 0855.15
2009/04/23 11:27:00.0     166   -292    -66    337    344 150.4 -11.2  34174  289.81 0855.15
2009/04/23 11:27:00.1     139   -350   -102    377    391 158.3 -15.2  34174  289.82 0855.15
2009/04/23 11:27:00.2     100   -336    -90    351    363 163.3 -14.4  34174  289.81 0855.18
2009/04/23 11:27:00.3      97   -334    -23    348    349 163.7  -3.8  34176  289.84 0855.18
2009/04/23 11:27:00.4     177   -376    -44    416    419 154.7  -6.1  34176  289.83 0855.18
2009/04/23 11:27:00.5     146   -423     -9    448    449 161.0  -1.2  34170  289.73 0855.18
2009/04/23 11:27:00.6      92   -443    -47    453    456 168.2  -6.0  34174  289.80 0855.18
2009/04/23 11:27:00.7      64   -450    -54    455    459 171.9  -6.9  34176  289.85 0855.18
2009/04/23 11:27:00.8      50   -413     20    417    418 173.0   2.8  34176  289.83 0855.18
2009/04/23 11:27:00.9      51   -401     69    405    411 172.7   9.7  34172  289.77 0855.18
2009/04/23 11:27:01.0      21   -362     14    363    364 176.6   2.2  34174  289.81 0855.18
2009/04/23 11:27:01.1     103   -341    -56    357    362 163.2  -9.0  34180  289.91 0855.18
2009/04/23 11:27:01.2      58   -351    -47    356    360 170.6  -7.6  34178  289.89 0855.18
2009/04/23 11:27:01.3      61   -377     47    382    385 170.8   7.1  34178  289.86 0855.18
2009/04/23 11:27:01.4      52   -363    -14    367    368 171.8  -2.2  34178  289.87 0855.18
2009/04/23 11:27:01.5      90   -384      4    395    396 166.8   0.7  34174  289.82 0855.18
2009/04/23 11:27:01.6      43   -340     -1    343    344 172.8  -0.3  34178  289.86 0855.18
2009/04/23 11:27:01.7      67   -334    -22    341    342 168.6  -3.7  34178  289.87 0855.18
2009/04/23 11:27:01.8      99   -296    -39    313    316 161.5  -7.2  34174  289.80 0855.18
2009/04/23 11:27:01.9      33   -298    -40    300    303 173.7  -7.7  34180  289.90 0855.18
2009/04/23 11:27:02.0      56   -326     -9    331    332 170.2  -1.7  34178  289.86 0855.18
2009/04/23 11:27:02.1      27   -334    -56    336    341 175.3  -9.6  34182  289.96 0855.18
2009/04/23 11:27:02.2      -6   -312    -34    313    315 181.1  -6.2  34190  290.07 0855.18
2009/04/23 11:27:02.3      21   -276      8    277    278 175.5   1.7  34192  290.12 0855.18
2009/04/23 11:27:02.4      48   -255    -11    260    261 169.3  -2.6  34188  290.05 0855.18
2009/04/23 11:27:02.5      25   -202    -70    204    215 172.7 -23.6  34186  290.01 0855.18
2009/04/23 11:27:02.6     129   -218    -90    254    269 149.3 -24.4  34180  289.92 0855.18
2009/04/23 11:27:02.7      92   -145    -14    172    173 147.5  -4.9  34180  289.92 0855.18
2009/04/23 11:27:02.8       3   -139      2    140    141 178.6   0.8  34184  289.97 0855.18
2009/04/23 11:27:02.9      28   -120    -41    124    130 166.7 -23.8  34186  290.02 0855.18
2009/04/23 11:27:03.0      30   -195     10    198    199 171.1   2.9  34182  289.96 0855.18
2009/04/23 11:27:03.1     119   -220     35    251    254 151.5   8.0  34184  289.98 0855.18
2009/04/23 11:27:03.2      14   -215     28    216    218 176.2   7.5  34186  290.02 0855.18
2009/04/23 11:27:03.3       0   -216     46    217    223 180.2  12.2  34186  290.01 0855.18
2009/04/23 11:27:03.4      -2   -185     28    186    189 180.9   8.8  34186  290.02 0855.18
2009/04/23 11:27:03.5      40   -132     72    139    156 163.1  29.3  34192  290.11 0855.18
2009/04/23 11:27:03.6     -40   -100     42    108    115 201.8  22.5  34190  290.08 0855.18
2009/04/23 11:27:03.7     -29    -81     83     87    120 199.6  48.5  34190  290.09 0855.18
2009/04/23 11:27:03.8      64   -135    110    150    186 154.6  39.9  34196  290.19 0855.18
2009/04/23 11:27:03.9      -6   -134     95    135    165 182.7  38.6  34194  290.16 0855.18
2009/04/23 11:27:04.0       9   -106    112    107    154 175.1  51.2  34208  290.38 0855.18
2009/04/23 11:27:04.1      -1    -94     61     95    112 180.9  35.6  34206  290.35 0855.18
2009/04/23 11:27:04.2     -72    -86     47    113    122 220.1  23.6  34198  290.23 0855.18
2009/04/23 11:27:04.3     -27    -76     22     81     84 200.0  15.3  34200  290.26 0855.18
2009/04/23 11:27:04.4     -17    -58     58     61     84 196.9  49.0  34200  290.26 0855.18
2009/04/23 11:27:04.5       0    -57     57     58     81 180.9  50.0  34216  290.53 0855.18
2009/04/23 11:27:04.6      35      0     69     36     77  90.0  70.8  34238  290.89 0855.18
2009/04/23 11:27:04.7      12    -31     95     34    100 158.2  80.2  34220  290.58 0855.18
2009/04/23 11:27:04.8       5    -80    135     81    157 176.4  66.2  34234  290.84 0855.18
2009/04/23 11:27:04.9      -8   -138    135    139    193 183.6  49.4  34208  290.38 0855.18
2009/04/23 11:27:05.0      14   -137    134    138    192 173.8  49.4  34202  290.28 0855.18
2009/04/23 11:27:05.1      37   -167    123    172    211 167.3  39.3  34198  290.23 0855.18
2009/04/23 11:27:05.2      70   -154    114    170    204 155.5  37.0  34196  290.18 0855.18
2009/04/23 11:27:05.3      45   -137    131    145    195 161.7  46.9  34198  290.23 0855.18
2009/04/23 11:27:05.4      16   -147    109    148    183 173.7  39.7  34198  290.21 0855.18
2009/04/23 11:27:05.5     -10   -222    119    223    252 182.6  30.3  34208  290.37 0855.18
2009/04/23 11:27:05.6       9   -206    125    207    241 177.4  34.2  34206  290.35 0855.18
2009/04/23 11:27:05.7     -32   -227    107    230    253 188.0  27.0  34212  290.46 0855.18
2009/04/23 11:27:05.8     -24   -225    124    227    258 186.2  31.3  34210  290.42 0855.18
2009/04/23 11:27:05.9       0   -231    152    232    277 180.2  36.5  34210  290.42 0855.18
2009/04/23 11:27:06.0      19   -251    148    252    292 175.6  33.4  34212  290.44 0855.18
2009/04/23 11:27:06.1      11   -225    156    226    274 177.1  38.0  34208  290.39 0855.18
2009/04/23 11:27:06.2     -12   -266    144    267    303 182.7  30.6  34212  290.46 0855.18
2009/04/23 11:27:06.3     -32   -225    131    228    262 188.1  32.4  34214  290.49 0855.18
2009/04/23 11:27:06.4     -13   -183    157    184    241 184.2  44.9  34218  290.55 0855.18
2009/04/23 11:27:06.5     -76   -230    122    243    271 198.3  28.5  34214  290.49 0855.18
2009/04/23 11:27:06.6     -92   -272    103    288    305 198.7  20.4  34208  290.37 0855.18
2009/04/23 11:27:06.7     -93   -256     99    273    291 200.0  19.9  34210  290.41 0855.18
2009/04/23 11:27:06.8    -104   -246    124    268    295 202.9  26.6  34216  290.51 0855.18
2009/04/23 11:27:06.9    -126   -221    112    255    278 209.8  25.2  34210  290.42 0855.18
2009/04/23 11:27:07.0    -120   -234     82    264    277 207.2  17.4  34210  290.42 0855.18
2009/04/23 11:27:07.1    -192   -266     73    329    338 215.9  12.5  34220  290.60 0855.18
2009/04/23 11:27:07.2    -127   -268    116    297    318 205.5  22.4  34200  290.26 0855.18
2009/04/23 11:27:07.3     -90   -255    154    271    311 199.4  32.3  34206  290.34 0855.18
2009/04/23 11:27:07.4     -78   -198     77    214    227 201.6  20.7  34206  290.36 0855.18
2009/04/23 11:27:07.5      -5   -120     82    121    146 182.7  37.4  34208  290.40 0855.18
2009/04/23 11:27:07.6      63    -54     75     84    112 130.4  46.9  34226  290.70 0855.18
2009/04/23 11:27:07.7      94      0    105     95    141  90.0  52.7  34242  290.98 0855.18
2009/04/23 11:27:07.8      76     31     82     83    116  67.8  50.5  34238  290.89 0855.18
2009/04/23 11:27:07.9      83    117     86    144    167  35.6  34.0  34222  290.62 0855.18
2009/04/23 11:27:08.0     110    103    115    152    190  46.9  40.9  34218  290.57 0855.18
2009/04/23 11:27:08.1      55    169     66    178    189  18.3  21.0  34220  290.58 0855.18
2009/04/23 11:27:08.2      26    157     30    160    163   9.7  10.8  34220  290.60 0855.20
2009/04/23 11:27:08.3     -22     97     13    100    101 347.1   7.5  34238  290.89 0855.20
2009/04/23 11:27:08.4     -81     96     47    126    134 319.9  20.9  34260  291.28 0855.20
2009/04/23 11:27:08.5       0    105     37    106    113 359.6  19.2  34260  291.26 0855.20
2009/04/23 11:27:08.6     -98     54      5    112    113 298.9   2.8  34266  291.37 0855.20
2009/04/23 11:27:08.7    -230     25     67    232    242 276.4  16.3  34308  292.07 0855.20
2009/04/23 11:27:08.8    -157     32     35    161    165 281.5  12.4  34304  292.01 0855.20
2009/04/23 11:27:08.9    -126     97    110    160    194 307.8  37.8  34296  291.88 0855.20
2009/04/23 11:27:09.0    -117     35      1    123    124 286.8   0.8  34308  292.08 0855.20
2009/04/23 11:27:09.1     -59     87     36    106    113 325.7  18.9  34298  291.91 0855.20
2009/04/23 11:27:09.2     -86     52     53    101    114 301.1  30.3  34292  291.81 0855.20
2009/04/23 11:27:09.3     -54    123     61    135    148 336.4  26.2  34288  291.74 0855.20
2009/04/23 11:27:09.4    -147     85     56    170    180 300.0  18.4  34262  291.30 0855.20
2009/04/23 11:27:09.5    -137    109     61    176    187 308.4  19.2  34238  290.89 0855.20
2009/04/23 11:27:09.6    -119    112     57    164    174 313.1  19.2  34222  290.62 0855.20
2009/04/23 11:27:09.7    -114    110     66    159    172 314.0  23.8  34216  290.53 0855.20
2009/04/23 11:27:09.8     -68     83     64    108    125 320.4  33.5  34254  291.16 0855.20
2009/04/23 11:27:09.9     -53     48     33     72     79 312.2  25.7  34248  291.06 0855.20
2009/04/23 11:27:10.0     -48     31     18     58     61 302.4  17.3  34248  291.06 0855.20
2009/04/23 11:27:10.1      19     34     53     40     66  29.0  59.4  34264  291.35 0855.20
2009/04/23 11:27:10.2      34     58     33     68     75  30.7  27.3  34268  291.40 0855.22
2009/04/23 11:27:10.3      27     17     27     32     41  57.6  44.8  34274  291.50 0855.22
2009/04/23 11:27:10.4      23     26     46     35     57  41.4  58.5  34270  291.45 0855.22
2009/04/23 11:27:10.5      25    131     86    134    159  11.1  35.7  34300  291.96 0855.22
2009/04/23 11:27:10.6       1    152     72    153    169   0.5  27.1  34278  291.57 0855.22
2009/04/23 11:27:10.7     -16    112     51    114    124 351.9  25.2  34276  291.54 0855.22
2009/04/23 11:27:10.8     -50     62     15     80     82 321.3  11.1  34274  291.52 0855.22
2009/04/23 11:27:10.9     -31     31      9     45     47 315.0  12.2  34282  291.66 0855.22
2009/04/23 11:27:11.0     -36      0     24     37     44 269.2  36.5  34282  291.64 0855.22
2009/04/23 11:27:11.1     -25    -55     41     61     73 204.5  36.5  34270  291.43 0855.22
2009/04/23 11:27:11.2       0      7     70      8     70 357.3  90.0  34272  291.49 0855.22
2009/04/23 11:27:11.3      -8     40     52     41     66 347.5  57.5  34270  291.43 0855.22
2009/04/23 11:27:11.4      -1     40     41     41     57 357.4  50.1  34270  291.45 0855.22
2009/04/23 11:27:11.5     -18     15     16     24     28 309.5  35.6  34282  291.66 0855.22
2009/04/23 11:27:11.6      -8     12     -8     15     17 327.5 -35.8  34276  291.54 0855.22
2009/04/23 11:27:11.7      -8     -4      3     10     11 241.1  19.2  34276  291.55 0855.22
2009/04/23 11:27:11.8       0    -18     17     19     25 182.7  47.9  34274  291.50 0855.22
2009/04/23 11:27:11.9     -26    -42     63     50     80 211.6  57.5  34280  291.60 0855.22
2009/04/23 11:27:12.0     -21    -13     51     25     56 237.6  72.8  34278  291.57 0855.22
2009/04/23 11:27:12.1     -11    -29     72     32     78 201.8  75.0  34288  291.76 0855.22
2009/04/23 11:27:12.3     -34     -6     61     35     70 258.5  67.7  34280  291.60 0855.21
2009/04/23 11:27:12.4     -17     17     16     25     29 314.9  35.5  34270  291.43 0855.21
2009/04/23 11:27:12.5      30     19     57     36     67  57.6  64.7  34264  291.33 0855.21
2009/04/23 11:27:12.6       7     22     51     24     56  18.3  73.1  34264  291.33 0855.21
2009/04/23 11:27:12.7       6    -10     59     13     60 147.5  89.0  34262  291.32 0855.21
2009/04/23 11:27:12.8     -12     36     57     38     68 341.5  64.6  34264  291.33 0855.21
2009/04/23 11:27:12.9     -31     35     79     48     92 318.6  65.7  34268  291.40 0855.21
2009/04/23 11:27:13.0      -6     37     56     38     67 350.2  62.6  34266  291.37 0855.21
2009/04/23 11:27:13.1     -34     -4     34     35     48 262.1  51.1  34256  291.21 0855.21
2009/04/23 11:27:13.2     -28     -2     33     29     43 265.6  53.3  34260  291.28 0855.21
2009/04/23 11:27:13.3     -10    -22     39     25     46 205.4  64.6  34272  291.49 0855.21
2009/04/23 11:27:13.4       5    -21     39     22     44 166.6  67.7  34262  291.32 0855.21
2009/04/23 11:27:13.5      16    -39     39     43     58 157.3  47.9  34256  291.20 0855.21
2009/04/23 11:27:13.6       6    -63     33     64     72 173.8  28.2  34246  291.03 0855.21
2009/04/23 11:27:13.7      19    -59     74     63     97 161.5  55.4  34254  291.16 0855.21
2009/04/23 11:27:13.8      41    -91     97    100    139 155.5  49.4  34238  290.89 0855.21
2009/04/23 11:27:13.9      17   -128    106    130    167 172.4  43.7  34222  290.62 0855.21
2009/04/23 11:27:14.0      16   -150    118    151    191 173.8  42.2  34214  290.48 0855.21
2009/04/23 11:27:14.1     -34   -166    127    170    212 191.6  40.4  34218  290.55 0855.21
2009/04/23 11:27:14.2     -37   -185    133    189    231 191.6  38.6  34198  290.23 0855.21
2009/04/23 11:27:14.3     -65   -218    125    228    260 196.7  31.3  34220  290.59 0855.19
2009/04/23 11:27:14.4     -66   -217    127    227    260 196.9  31.4  34220  290.58 0855.19
2009/04/23 11:27:14.5     -82   -256    167    269    316 197.8  34.9  34242  290.95 0855.19
2009/04/23 11:27:14.6    -123   -259    185    287    341 205.5  35.7  34286  291.70 0855.19
2009/04/23 11:27:14.7     -91   -238    157    255    299 200.9  34.8  34270  291.43 0855.19
2009/04/23 11:27:14.8    -152   -233     85    279    292 213.2  17.1  34320  292.30 0855.19
2009/04/23 11:27:14.9     -81   -139    203    161    259 210.3  57.5  34282  291.64 0855.19
2009/04/23 11:27:15.0      24   -112    139    115    180 167.5  56.3  34260  291.26 0855.19
2009/04/23 11:27:15.1     -42   -172    185    178    256 193.8  51.2  34242  290.95 0855.19
2009/04/23 11:27:15.2    -126   -275    146    303    336 204.7  27.4  34260  291.26 0855.19
2009/04/23 11:27:15.3     -68   -176    195    189    271 201.2  50.9  34246  291.04 0855.19
2009/04/23 11:27:15.4     -88   -162    189    185    264 208.5  50.7  34236  290.87 0855.19
2009/04/23 11:27:15.5     -92   -119    154    151    215 217.8  50.4  34246  291.04 0855.19
2009/04/23 11:27:15.6     -90   -100    141    135    195 221.9  51.2  34248  291.08 0855.19
2009/04/23 11:27:15.7    -171    -79     56    189    198 245.2  16.6  34242  290.96 0855.19
2009/04/23 11:27:15.8    -137   -125     19    186    187 227.6   5.9  34228  290.74 0855.19
2009/04/23 11:27:15.9    -105   -195     12    222    223 208.3   3.3  34204  290.33 0855.19
2009/04/23 11:27:16.0    -192     27     53    194    202 278.0  15.3  34218  290.55 0855.19
2009/04/23 11:27:16.1    -170    -29     61    173    184 260.1  19.4  34230  290.77 0855.19
2009/04/23 11:27:16.2     -88    -99    116    133    176 221.5  45.6  34244  290.99 0855.19
2009/04/23 11:27:16.3    -132   -170     96    216    236 217.8  25.3  34258  291.23 0855.19
2009/04/23 11:27:16.4     -75   -143     39    162    167 207.6  13.7  34268  291.40 0855.19
2009/04/23 11:27:16.5     -92    -74     40    119    126 231.4  18.9  34264  291.33 0855.19
2009/04/23 11:27:16.6    -142     28    -18    145    147 281.4  -7.2  34262  291.30 0855.19
2009/04/23 11:27:16.7    -214     41    -72    218    229 281.0 -23.8  34236  290.86 0855.19
2009/04/23 11:27:16.8    -230     62   -132    239    273 285.1 -35.8  34204  290.32 0855.19
2009/04/23 11:27:16.9    -153    163   -142    224    265 316.8 -39.9  34220  290.59 0855.19
2009/04/23 11:27:17.0    -116    105     -3    157    158 312.2  -1.3  34220  290.60 0855.19
2009/04/23 11:27:17.1    -144   -134     -7    197    198 227.1  -2.2  34244  290.99 0855.19
2009/04/23 11:27:17.2     -84   -314    -51    326    331 195.1  -9.0  34242  290.97 0855.19
2009/04/23 11:27:17.3       4   -271     17    272    273 179.0   3.6  34248  291.07 0855.19
2009/04/23 11:27:17.4       2   -143     37    144    149 179.0  14.7  34246  291.04 0855.19
2009/04/23 11:27:17.5    -246   -195    -11    314    315 231.6  -2.1  34248  291.07 0855.19
2009/04/23 11:27:17.6    -175    -90    -54    198    206 242.7 -15.4  34250  291.11 0855.19
2009/04/23 11:27:17.7     -46   -197     47    203    209 193.3  13.2  34254  291.18 0855.19
2009/04/23 11:27:17.8    -104   -193     78    220    233 208.3  20.0  34246  291.04 0855.19
2009/04/23 11:27:17.9    -176   -121     18    214    215 235.4   5.0  34258  291.25 0855.19
2009/04/23 11:27:18.0     -87   -136    -49    162    170 212.5 -17.0  34258  291.25 0855.19
2009/04/23 11:27:18.1     -12   -193    -90    194    213 183.6 -31.4  34238  290.91 0855.19
2009/04/23 11:27:18.2     -27   -173   -139    176    224 188.9 -46.6  34228  290.72 0855.19
2009/04/23 11:27:18.3    -114    -32    -86    119    146 254.1 -43.9  34254  291.18 0855.19
2009/04/23 11:27:18.4    -122    -93    -65    154    167 232.7 -28.7  34272  291.49 0855.19
2009/04/23 11:27:18.5    -162   -115    -36    199    203 234.7 -10.3  34282  291.64 0855.19
2009/04/23 11:27:18.6    -204    -98    -46    227    232 244.2 -11.5  34288  291.76 0855.19
2009/04/23 11:27:18.7    -133   -150     35    201    205 221.7   9.9  34278  291.59 0855.19
2009/04/23 11:27:18.8     -77   -240     31    253    255 197.9   7.1  34272  291.48 0855.19
2009/04/23 11:27:18.9     -63   -211     14    221    222 196.7   3.6  34270  291.43 0855.19
2009/04/23 11:27:19.0     -53   -160     -4    169    170 198.5  -1.6  34266  291.37 0855.19
2009/04/23 11:27:19.1    -135    -86     16    161    162 237.6   5.7  34278  291.57 0855.19
2009/04/23 11:27:19.2     -82   -111    -27    139    142 216.5 -11.3  34278  291.57 0855.19
2009/04/23 11:27:19.3     -95   -101    -38    139    145 223.2 -15.5  34280  291.60 0855.17
2009/04/23 11:27:19.4     -51    -67    -53     85    100 217.0 -39.9  34286  291.72 0855.17
2009/04/23 11:27:19.5     -34    -44    -51     56     75 217.8 -52.3  34280  291.62 0855.17
2009/04/23 11:27:19.6     -35    -35    -28     50     57 225.1 -36.8  34264  291.33 0855.17
2009/04/23 11:27:19.7      44    -61    -25     76     80 143.9 -23.3  34252  291.13 0855.17
2009/04/23 11:27:19.8     -37    -45     19     59     63 219.7  18.4  34252  291.13 0855.17
2009/04/23 11:27:19.9     -72     -5    -20     73     76 265.7 -15.5  34262  291.32 0855.17
2009/04/23 11:27:20.0     -66    -48    -26     82     86 234.0 -23.3  34264  291.33 0855.17
2009/04/23 11:27:20.1     -60    -69    -24     92     96 221.0 -15.0  34270  291.45 0855.17
2009/04/23 11:27:20.2     -19   -119    -14    121    122 189.3  -6.7  34278  291.59 0855.17
2009/04/23 11:27:20.3     -41   -103    -47    112    121 201.8 -28.5  34236  290.87 0855.17
2009/04/23 11:27:20.4       0      8    -29      9     30   4.5 -85.1  34248  291.08 0855.17
2009/04/23 11:27:20.5     -60    -73    -72     95    119 219.6 -45.6  34232  290.79 0855.17
2009/04/23 11:27:20.6     -54   -106     42    120    128 207.1  19.4  34232  290.81 0855.17
2009/04/23 11:27:20.7      23   -185     -6    187    188 172.7  -2.1  34220  290.60 0855.17
2009/04/23 11:27:20.8       0   -222    -36    223    227 180.0  -9.3  34212  290.45 0855.17
2009/04/23 11:27:20.9     -33   -267    -34    270    273 187.2  -7.2  34216  290.51 0855.17
2009/04/23 11:27:21.0     -40   -263    -10    267    268 188.7  -2.2  34212  290.44 0855.17
2009/04/23 11:27:21.1     -35   -250    -36    253    256 188.0  -8.2  34204  290.32 0855.17
2009/04/23 11:27:21.2    -213   -211    -70    301    310 225.3 -13.2  34248  291.05 0855.17
2009/04/23 11:27:21.3    -244   -121    -75    273    284 243.6 -15.5  34248  291.07 0855.17
2009/04/23 11:27:21.4    -176   -133    -64    221    230 232.9 -21.0  34244  290.99 0855.17
2009/04/23 11:27:21.5    -149   -192     54    244    251 217.8  12.6  34222  290.61 0855.17
2009/04/23 11:27:21.6    -169   -191      5    256    257 221.4   1.2  34230  290.76 0855.17
2009/04/23 11:27:21.7    -145   -220    -65    264    272 213.4 -13.9  34230  290.76 0855.17
2009/04/23 11:27:21.8    -145   -166    -46    221    226 221.0 -11.9  34236  290.86 0855.17
2009/04/23 11:27:21.9    -180    -72    -56    194    201 248.2 -21.0  34266  291.37 0855.17
2009/04/23 11:27:22.0    -259    -64    -29    267    269 256.1  -6.2  34268  291.41 0855.17
2009/04/23 11:27:22.1    -200    -78    -73    215    228 248.5 -18.9  34254  291.16 0855.17
2009/04/23 11:27:22.2    -209    -83    -71    226    238 248.3 -17.6  34240  290.93 0855.17
2009/04/23 11:27:22.3    -217    -44     81    222    236 258.5  20.9  34222  290.64 0855.17
2009/04/23 11:27:22.4    -249     83     37    263    266 288.4   8.0  34236  290.87 0855.17
2009/04/23 11:27:22.5    -217    -40     26    221    223 259.4   6.9  34242  290.98 0855.17
2009/04/23 11:27:22.6    -257   -146      4    296    297 240.3   0.8  34226  290.70 0855.17
2009/04/23 11:27:22.7    -268   -138     14    302    303 242.7   2.8  34220  290.59 0855.17
2009/04/23 11:27:22.8    -237   -226    -52    328    333 226.4  -9.1  34248  291.05 0855.17
2009/04/23 11:27:22.9     -36   -273    -67    276    285 187.6 -13.7  34210  290.41 0855.17
2009/04/23 11:27:23.0    -165   -259    -67    308    316 212.5 -12.4  34216  290.53 0855.17
2009/04/23 11:27:23.1    -221   -291   -116    366    383 217.2 -22.6  34210  290.43 0855.17
2009/04/23 11:27:23.2    -121   -275    -34    301    303 203.7  -6.5  34226  290.68 0855.17
2009/04/23 11:27:23.3     -44   -209     -7    214    215 192.0  -2.1  34224  290.67 0855.17
2009/04/23 11:27:23.4     -42   -205     10    210    211 191.6   2.9  34220  290.60 0855.17
2009/04/23 11:27:23.5      -3   -220      9    221    222 180.9   2.3  34214  290.48 0855.17
2009/04/23 11:27:23.6      21   -281      3    282    283 175.5   0.7  34210  290.42 0855.17
2009/04/23 11:27:23.7      -4   -300     37    301    304 180.9   7.1  34204  290.32 0855.17
2009/04/23 11:27:23.8     -44   -319     -4    323    324 188.0  -0.7  34212  290.44 0855.17
2009/04/23 11:27:23.9     -38   -302     24    305    307 187.3   4.6  34208  290.37 0855.17
2009/04/23 11:27:24.0      16   -341     78    342    351 177.3  12.9  34208  290.37 0855.17
2009/04/23 11:27:24.1      12   -283    105    284    302 177.5  21.0  34208  290.39 0855.17
2009/04/23 11:27:24.2       8   -341    154    342    375 178.5  25.9  34214  290.49 0855.17
2009/04/23 11:27:24.3     -53   -264     92    270    286 191.5  18.9  34206  290.36 0855.17
2009/04/23 11:27:24.4      -4   -281    116    282    304 181.0  23.6  34212  290.46 0855.17
2009/04/23 11:27:24.5    -111   -264     78    287    298 202.8  15.3  34214  290.49 0855.17
2009/04/23 11:27:24.6    -152   -225     90    272    287 214.2  18.5  34216  290.51 0855.17
2009/04/23 11:27:24.7    -180   -216    135    282    312 219.7  27.4  34218  290.56 0855.17
2009/04/23 11:27:24.8    -141   -214    129    257    287 213.4  28.7  34212  290.44 0855.17
2009/04/23 11:27:24.9    -105   -223    110    247    270 205.4  25.7  34206  290.34 0855.17
2009/04/23 11:27:25.0     -70   -243     21    253    254 196.1   4.9  34206  290.36 0855.17
2009/04/23 11:27:25.1     -12   -210    -74    211    223 183.4 -24.0  34208  290.38 0855.17
2009/04/23 11:27:25.2      33   -239    -71    242    252 172.0 -21.2  34210  290.41 0855.17
2009/04/23 11:27:25.3      45   -172    -99    178    203 165.1 -35.8  34214  290.48 0855.19
2009/04/23 11:27:25.4      77   -212   -118    226    254 160.0 -34.2  34210  290.42 0855.19
2009/04/23 11:27:25.5      33   -161   -127    165    208 168.2 -46.1  34214  290.48 0855.19
2009/04/23 11:27:25.6      79   -152    -87    172    192 152.4 -33.1  34216  290.52 0855.19
2009/04/23 11:27:25.7      17   -242    -17    243    244 176.0  -4.1  34206  290.36 0855.19
2009/04/23 11:27:25.8     -44   -257    -14    261    262 189.8  -3.2  34220  290.59 0855.19
2009/04/23 11:27:25.9     -34   -234    -13    237    238 188.5  -3.1  34226  290.68 0855.19
2009/04/23 11:27:26.0      52   -182      2    190    191 164.0   0.8  34218  290.55 0855.19
2009/04/23 11:27:26.1      76   -148    -14    167    168 152.8  -4.9  34216  290.52 0855.19
2009/04/23 11:27:26.2      82   -155    -57    176    186 152.1 -17.9  34214  290.48 0855.19
2009/04/23 11:27:26.3      92   -140    -51    168    175 146.6 -22.3  34218  290.57 0855.19
2009/04/23 11:27:26.4      68    -96    -40    118    125 144.8 -19.1  34222  290.64 0855.19
2009/04/23 11:27:26.5      74   -106    -26    130    133 144.8 -11.5  34218  290.57 0855.19
2009/04/23 11:27:26.6      10   -117    -25    118    121 174.7 -12.4  34224  290.67 0855.19
2009/04/23 11:27:26.7     -86   -258     13    273    274 198.5   2.9  34226  290.68 0855.19
2009/04/23 11:27:26.8    -132   -331    -43    357    360 201.8  -6.9  34224  290.66 0855.19
2009/04/23 11:27:26.9      -7   -250   -107    251    272 181.8 -28.7  34230  290.76 0855.19
2009/04/23 11:27:27.0     -76   -119   -134    142    195 212.5 -52.6  34234  290.82 0855.19
2009/04/23 11:27:27.1    -131    -47   -132    140    192 250.1 -52.6  34238  290.91 0855.19
2009/04/23 11:27:27.2    -174    -21   -136    176    222 263.0 -46.0  34232  290.79 0855.19
2009/04/23 11:27:27.3    -232    -50    -66    238    247 257.7 -15.5  34242  290.95 0855.22
2009/04/23 11:27:27.4    -201    -95      9    223    224 244.5   2.3  34230  290.75 0855.22
2009/04/23 11:27:27.5    -181   -218    -88    284    297 219.7 -22.1  34226  290.70 0855.22
2009/04/23 11:27:27.6    -175   -185    -80    256    268 223.4 -22.8  34220  290.59 0855.22
2009/04/23 11:27:27.7    -194   -180    -74    265    275 227.1 -20.2  34196  290.19 0855.22
2009/04/23 11:27:27.8    -191   -154    -35    246    249 231.1  -8.3  34216  290.53 0855.22
2009/04/23 11:27:27.9    -188    -78     24    204    206 247.4   6.9  34224  290.65 0855.22
2009/04/23 11:27:28.0    -129   -129     22    183    185 225.0   6.9  34228  290.74 0855.22
2009/04/23 11:27:28.1    -102    -90     29    137    141 228.7  12.2  34226  290.69 0855.22
2009/04/23 11:27:28.2     -24   -118     -4    121    122 191.5  -2.2  34224  290.67 0855.22
2009/04/23 11:27:28.3     -28   -159      8    162    163 190.0   2.9  34220  290.60 0855.22
2009/04/23 11:27:28.4     -71   -189      3    203    204 200.7   1.0  34230  290.77 0855.22
2009/04/23 11:27:28.5     -58   -181    -17    191    192 197.8  -5.2  34236  290.86 0855.22
2009/04/23 11:27:28.6      -7   -236    -52    237    243 181.8 -12.4  34238  290.90 0855.22
2009/04/23 11:27:28.7      -3   -216    -76    217    231 181.0 -19.4  34226  290.69 0855.22
2009/04/23 11:27:28.8     -84   -266    -77    280    291 197.6 -15.4  34214  290.48 0855.22
2009/04/23 11:27:28.9    -234   -407    -55    470    474 209.9  -6.7  34152  289.45 0855.22
2009/04/23 11:27:29.0    -139   -419   -135    442    462 198.4 -21.8  34160  289.58 0855.22
2009/04/23 11:27:29.1    -162   -423   -163    453    482 201.0 -19.8  34156  289.50 0855.22
2009/04/23 11:27:29.2    -218   -435   -170    487    516 206.6 -19.3  34166  289.67 0855.22
2009/04/23 11:27:29.3    -200   -364   -115    416    431 208.8 -20.0  34168  289.70 0855.23
2009/04/23 11:27:29.4      30   -413   -175    415    450 175.8 -28.6  34170  289.73 0855.23
2009/04/23 11:27:29.5       7   -417   -122    418    435 179.0 -21.2  34154  289.46 0855.23
2009/04/23 11:27:29.6      25   -389   -103    390    404 176.3 -14.8  34146  289.35 0855.23
2009/04/23 11:27:29.7       1   -383   -129    384    406 179.8 -18.6  34152  289.42 0855.23
2009/04/23 11:27:29.8      54   -430   -194    434    475 172.8 -30.1  34154  289.48 0855.23
2009/04/23 11:27:29.9      90   -444   -231    454    509 168.4 -33.6  34142  289.27 0855.23
2009/04/23 11:27:30.0     127   -433   -239    452    511 163.6 -34.5  34152  289.42 0855.23
2009/04/23 11:27:30.1     125   -391   -227    411    469 162.2 -35.8  34158  289.53 0855.23
2009/04/23 11:27:30.2     190   -354   -191    402    445 151.8 -31.6  34156  289.51 0855.23
2009/04/23 11:27:30.3     157   -339   -212    374    429 155.1 -36.7  34158  289.53 0855.23
2009/04/23 11:27:30.4     135   -387   -186    411    451 160.7 -30.4  34156  289.51 0855.23
2009/04/23 11:27:30.5     147   -419    -59    445    449 160.6  -7.6  34156  289.51 0855.23
2009/04/23 11:27:30.6     198   -328    -49    384    388 148.9  -7.4  34156  289.50 0855.23
2009/04/23 11:27:30.7     123   -299    -86    324    336 157.6 -15.0  34156  289.50 0855.23
2009/04/23 11:27:30.8      54   -247   -155    254    297 167.5 -38.8  34148  289.36 0855.23
2009/04/23 11:27:30.9      90   -247   -103    263    282 160.0 -26.9  34152  289.42 0855.23
2009/04/23 11:27:31.0     100   -303   -138    320    348 161.7 -29.3  34162  289.59 0855.23
2009/04/23 11:27:31.1     -59   -317   -163    323    361 190.6 -33.3  34148  289.38 0855.23
2009/04/23 11:27:31.2      11   -328   -121    329    350 178.0 -25.4  34162  289.62 0855.23
2009/04/23 11:27:31.3      81   -273   -113    285    306 163.3 -27.4  34166  289.68 0855.21
2009/04/23 11:27:31.4      64   -238    -81    247    259 164.9 -23.6  34168  289.71 0855.21
2009/04/23 11:27:31.5      51   -214    -68    220    230 166.6 -22.5  34170  289.75 0855.21
2009/04/23 11:27:31.6      59   -186    -47    196    202 162.2 -13.7  34168  289.72 0855.21
2009/04/23 11:27:31.7       0   -295      1    296    297 180.1   0.2  34178  289.86 0855.21
2009/04/23 11:27:31.8       3   -328     25    329    331 179.4   4.5  34174  289.81 0855.21
2009/04/23 11:27:31.9     -28   -328    -12    330    331 185.0  -2.2  34178  289.87 0855.21
2009/04/23 11:27:32.0     -74   -324     31    333    335 193.0   5.5  34188  290.06 0855.21
2009/04/23 11:27:32.1     -85   -303     63    315    322 195.8  11.3  34184  289.97 0855.21
2009/04/23 11:27:32.2     -61   -289     99    296    313 192.0  18.5  34170  289.73 0855.21
2009/04/23 11:27:32.3     -32   -263     83    266    279 187.1  17.4  34186  290.02 0855.21
2009/04/23 11:27:32.4     -10   -270     74    271    281 182.2  15.3  34194  290.14 0855.21
2009/04/23 11:27:32.5      12   -269     35    270    273 177.3   7.5  34178  289.88 0855.21
2009/04/23 11:27:32.6      -6   -240     52    241    247 181.6  12.2  34180  289.90 0855.21
2009/04/23 11:27:32.7      15   -198      2    199    200 175.5   0.8  34172  289.79 0855.21
2009/04/23 11:27:32.8      12   -182      7    183    184 176.0   2.3  34182  289.94 0855.21
2009/04/23 11:27:32.9     -28   -199     39    202    206 188.2  11.1  34186  290.01 0855.21
2009/04/23 11:27:33.0     -18   -202     67    203    214 185.3  18.4  34180  289.92 0855.21
2009/04/23 11:27:33.1    -133   -205    107    245    267 213.0  25.1  34182  289.93 0855.21
2009/04/23 11:27:33.2     -90   -132    173    160    235 214.3  52.5  34182  289.94 0855.21
2009/04/23 11:27:33.3      18   -122    137    124    184 171.5  53.0  34186  290.01 0855.16
2009/04/23 11:27:33.4      33   -115     84    120    146 164.0  38.6  34182  289.96 0855.16
2009/04/23 11:27:33.5      -1   -102      6    103    104 180.9   3.8  34178  289.89 0855.16
2009/04/23 11:27:33.6      17    -83     47     85     97 168.0  31.9  34180  289.91 0855.16
2009/04/23 11:27:33.7      64    -64     69     91    114 135.0  41.2  34182  289.96 0855.16
2009/04/23 11:27:33.8      86    -91     76    126    147 136.7  34.4  34182  289.94 0855.16
2009/04/23 11:27:33.9       9   -167     61    168    178 176.6  20.7  34178  289.87 0855.16
2009/04/23 11:27:34.0      -8   -217     55    218    225 182.2  14.3  34176  289.84 0855.16
2009/04/23 11:27:34.1     126   -175     34    216    219 144.2   9.0  34176  289.85 0855.16
2009/04/23 11:27:34.2     134   -167     18    215    216 141.3   4.9  34178  289.87 0855.16
2009/04/23 11:27:34.3      34   -234    -27    237    239 171.5  -6.7  34176  289.83 0855.16
2009/04/23 11:27:34.4      71   -214    -53    226    233 161.5 -13.2  34174  289.80 0855.16
2009/04/23 11:27:34.5      63   -171    -48    183    190 159.5 -14.7  34176  289.85 0855.16
2009/04/23 11:27:34.6      36   -136    -47    141    149 164.9 -18.7  34176  289.85 0855.16
2009/04/23 11:27:34.7      79   -156    -24    176    178 153.0  -8.0  34172  289.77 0855.16
2009/04/23 11:27:34.8     116   -148     -7    189    190 141.9  -2.2  34174  289.80 0855.16
2009/04/23 11:27:34.9     118   -144    -24    187    189 140.6  -7.3  34174  289.82 0855.16
2009/04/23 11:27:35.0      57   -121    -17    134    136 154.7  -7.3  34172  289.77 0855.16
2009/04/23 11:27:35.1     105    -93     22    141    143 131.4   9.0  34172  289.77 0855.16
2009/04/23 11:27:35.2     163    -92     -5    188    189 119.5  -1.8  34178  289.87 0855.11
2009/04/23 11:27:35.3     118   -123    -15    171    172 136.1  -5.2  34176  289.84 0855.11
2009/04/23 11:27:35.4     120    -61    -32    135    139 117.0 -13.4  34174  289.80 0855.11
2009/04/23 11:27:35.5      94    -30      3     99    100 108.2   1.8  34176  289.84 0855.11
2009/04/23 11:27:35.6      83    -15    -34     85     91 100.6 -26.9  34176  289.85 0855.11
2009/04/23 11:27:35.7      58    -23    -47     63     78 111.7 -45.6  34174  289.80 0855.11
2009/04/23 11:27:35.8      55    -57    -48     80     93 135.8 -38.8  34174  289.80 0855.11
2009/04/23 11:27:35.9      41    -53    -55     68     87 142.2 -47.7  34174  289.82 0855.11
2009/04/23 11:27:36.0      58    -30    -34     66     74 118.0 -33.7  34180  289.91 0855.11
2009/04/23 11:27:36.1      39    -13    -62     42     74 108.4 -68.0  34180  289.92 0855.11
2009/04/23 11:27:36.2      65     30    -55     72     90  64.6 -46.1  34180  289.91 0855.11
2009/04/23 11:27:36.3      68     27    -36     74     82  68.3 -32.2  34180  289.91 0855.11
2009/04/23 11:27:36.4      90     30    -30     95    100  71.4 -17.6  34168  289.72 0855.11
2009/04/23 11:27:36.5      79     13    -23     81     84  80.3 -21.2  34168  289.70 0855.11
2009/04/23 11:27:36.6      60    -49    -23     78     81 129.5 -21.2  34174  289.82 0855.11
2009/04/23 11:27:36.7      58    -27     -4     65     66 115.3  -4.1  34174  289.80 0855.11
2009/04/23 11:27:36.8     111    -67    -18    130    132 121.1  -8.2  34172  289.79 0855.11
2009/04/23 11:27:36.9      68    -88     -4    112    113 142.2  -2.2  34170  289.75 0855.11
2009/04/23 11:27:37.0     -25   -210      3    212    213 186.9   0.8  34170  289.74 0855.11
2009/04/23 11:27:37.1     -16   -213     -1    214    215 184.4  -0.5  34176  289.85 0855.11
2009/04/23 11:27:37.2     -66   -223     42    233    237 196.7  10.3  34180  289.90 0855.11
2009/04/23 11:27:37.3     -52   -219     42    226    230 193.4  10.6  34180  289.91 0855.11
2009/04/23 11:27:37.4     -50   -210     46    216    221 193.4  12.2  34180  289.92 0855.11
2009/04/23 11:27:37.5     -20   -241      5    242    243 184.9   1.2  34178  289.88 0855.11
2009/04/23 11:27:37.6      85   -198    -33    216    219 156.8  -8.8  34166  289.69 0855.11
2009/04/23 11:27:37.7      51   -252     26    258    260 168.5   5.9  34172  289.78 0855.11
2009/04/23 11:27:37.8      30   -326     74    328    337 174.7  12.8  34192  290.13 0855.11
2009/04/23 11:27:37.9       8   -331    123    332    354 178.5  21.3  34192  290.10 0855.11
2009/04/23 11:27:38.0    -191   -205    110    281    301 223.0  22.5  34192  290.10 0855.11
2009/04/23 11:27:38.1     -71   -238     64    249    258 196.7  14.5  34192  290.12 0855.11
2009/04/23 11:27:38.2      -5   -317    106    318    336 181.0  18.5  34178  289.89 0855.10
2009/04/23 11:27:38.3      29   -415     86    416    426 176.0  11.8  34200  290.26 0855.10
2009/04/23 11:27:38.4      17   -325     73    326    335 176.9  12.6  34190  290.08 0855.10
2009/04/23 11:27:38.5      -7   -324    117    325    346 181.4  19.9  34200  290.25 0855.10
2009/04/23 11:27:38.6     -13   -397    113    398    414 182.0  15.9  34192  290.12 0855.10
2009/04/23 11:27:38.7     -67   -334     92    341    354 191.3  15.2  34188  290.03 0855.10
2009/04/23 11:27:38.8    -105   -339    138    356    381 197.3  22.5  34184  289.99 0855.10
2009/04/23 11:27:38.9     -38   -309    190    312    365 187.1  34.3  34184  289.99 0855.10
2009/04/23 11:27:39.0      94   -306    117    321    341 162.8  20.7  34182  289.94 0855.10
2009/04/23 11:27:39.1     164   -272     81    318    329 148.8  14.3  34178  289.88 0855.10
2009/04/23 11:27:39.2     121   -218    108    250    272 151.0  24.9  34176  289.85 0855.10
2009/04/23 11:27:39.3     134   -243    147    278    314 151.1  30.1  34178  289.88 0855.10
2009/04/23 11:27:39.4     184   -273    165    330    368 146.1  28.5  34188  290.03 0855.10
2009/04/23 11:27:39.5      27   -353     61    355    361 175.5   9.9  34182  289.94 0855.10
2009/04/23 11:27:39.6      51   -322     26    327    329 171.0   4.7  34184  289.97 0855.10
2009/04/23 11:27:39.7      59   -327     80    333    343 169.7  13.5  34184  289.98 0855.10
2009/04/23 11:27:39.8     -24   -251     21    253    254 185.6   4.9  34192  290.10 0855.10
2009/04/23 11:27:39.9     -44   -213     28    218    220 191.8   7.5  34188  290.04 0855.10
2009/04/23 11:27:40.1    -102   -174    -25    202    204 210.5  -7.2  34188  290.06 0855.10
2009/04/23 11:27:40.2     -73   -140    -95    159    185 207.6 -38.4  34192  290.11 0855.10
2009/04/23 11:27:40.3     -72   -141    -62    159    170 207.1 -26.7  34188  290.06 0855.09
2009/04/23 11:27:40.4     -48   -193    -33    199    202 194.0  -9.6  34186  290.01 0855.09
2009/04/23 11:27:40.5     -22   -138    -10    140    141 189.3  -4.1  34186  290.01 0855.09
2009/04/23 11:27:40.6     -60   -126    -12    140    141 205.5  -5.1  34186  290.02 0855.09
2009/04/23 11:27:40.7     -47   -173     64    180    192 195.4  19.6  34182  289.96 0855.09
2009/04/23 11:27:40.8     -33   -160     99    164    191 191.8  34.2  34182  289.94 0855.09
2009/04/23 11:27:40.9     -59   -184    153    194    247 197.8  42.4  34186  290.01 0855.09
2009/04/23 11:27:41.0     -69   -182    110    195    223 200.9  31.9  34186  290.01 0855.09
2009/04/23 11:27:41.1     -69   -162     78    177    193 203.2  25.1  34186  290.01 0855.09
2009/04/23 11:27:41.2     -17   -126     97    128    160 188.0  40.9  34186  290.01 0855.09
2009/04/23 11:27:41.3     -55   -116     82    129    152 205.5  35.5  34190  290.09 0855.09
2009/04/23 11:27:41.4     -61    -63     41     88     97 224.1  26.6  34186  290.01 0855.09
2009/04/23 11:27:41.5     -38    -72     49     82     95 208.1  34.4  34190  290.09 0855.09
2009/04/23 11:27:41.6       9    -66     92     67    113 172.0  60.5  34198  290.23 0855.09
2009/04/23 11:27:41.7      -1    -72     95     73    119 180.9  58.5  34204  290.31 0855.09
2009/04/23 11:27:41.8     -10    -52     50     54     73 191.6  48.0  34200  290.25 0855.09
2009/04/23 11:27:41.9     -10    -22     44     25     50 203.6  67.7  34210  290.43 0855.09
2009/04/23 11:27:42.0       1      0     38      2     38 108.4  90.0  34218  290.55 0855.09
2009/04/23 11:27:42.1      55      0     50     56     75  90.0  46.9  34206  290.35 0855.09
2009/04/23 11:27:42.2      56     18     57     59     82  71.8  49.4  34194  290.14 0855.09
2009/04/23 11:27:42.3      25     17     52     31     60  55.8  66.8  34210  290.43 0855.07
2009/04/23 11:27:42.4      12     37     58     39     69  18.3  63.6  34224  290.67 0855.07
2009/04/23 11:27:42.5      44     72     46     85     96  31.2  30.8  34212  290.45 0855.07
2009/04/23 11:27:42.6      76     81     32    112    117  43.3  16.3  34198  290.21 0855.07
2009/04/23 11:27:42.7     106     53     10    119    120  63.4   4.9  34190  290.09 0855.07
2009/04/23 11:27:42.8     122     55     22    134    136  65.6   9.5  34196  290.19 0855.07
2009/04/23 11:27:42.9     123     58     35    137    142  64.8  14.7  34190  290.09 0855.07
2009/04/23 11:27:43.0     107     68     -7    127    128  57.6  -3.1  34190  290.08 0855.07
2009/04/23 11:27:43.1     152     79     33    172    176  62.5  10.8  34190  290.08 0855.07
2009/04/23 11:27:43.2     131     83      8    156    157  57.6   3.3  34190  290.09 0855.07
2009/04/23 11:27:43.3     125     59    -42    139    146  64.6 -17.0  34190  290.09 0855.07
2009/04/23 11:27:43.4      84    103    -57    134    145  39.2 -28.5  34198  290.21 0855.07
2009/04/23 11:27:43.5     127     90    -59    156    166  54.5 -25.9  34206  290.36 0855.07
2009/04/23 11:27:43.6      90    107    -43    140    146  40.1 -21.8  34202  290.28 0855.07
2009/04/23 11:27:43.7     100    124    -47    160    166  38.7 -21.2  34208  290.40 0855.07
2009/04/23 11:27:43.8      78    115     32    140    144  34.3  13.2  34210  290.43 0855.07
2009/04/23 11:27:43.9      53     23     60     58     83  66.5  50.1  34208  290.40 0855.07
2009/04/23 11:27:44.0     102     56     37    117    123  61.1  17.9  34210  290.43 0855.07
2009/04/23 11:27:44.1      82     88     34    121    126  43.2  15.8  34218  290.57 0855.07
2009/04/23 11:27:44.2     148     30     57    151    161  78.5  21.7  34206  290.35 0855.07
2009/04/23 11:27:44.3     148     49    138    157    209  71.6  45.8  34196  290.18 0855.06
2009/04/23 11:27:44.4     139     -7    175    140    224  93.0  57.5  34206  290.36 0855.06
2009/04/23 11:27:44.5     144     65     77    159    176  65.6  27.4  34210  290.41 0855.06
2009/04/23 11:27:44.6     139     28    130    142    192  78.6  47.7  34212  290.45 0855.06
2009/04/23 11:27:44.7      38      0     99     39    106  90.0  77.6  34208  290.38 0855.06
2009/04/23 11:27:44.8      -1    -40     67     41     78 182.7  65.7  34216  290.52 0855.06
2009/04/23 11:27:44.9     -51    -69     73     86    112 216.5  44.3  34204  290.31 0855.06
2009/04/23 11:27:45.0     -35    -77     33     85     91 204.9  22.0  34198  290.23 0855.06
2009/04/23 11:27:45.1     -24    -27     47     37     59 221.4  57.5  34212  290.45 0855.06
2009/04/23 11:27:45.2      -4      3     52      6     52 309.5  90.0  34222  290.62 0855.06
2009/04/23 11:27:45.3      26     14     53     30     60  61.1  68.8  34222  290.62 0855.06
2009/04/23 11:27:45.4      -3    -10     39     11     40 198.5  83.9  34226  290.70 0855.06
2009/04/23 11:27:45.5     -19    -19     33     27     42 225.0  55.4  34222  290.62 0855.06
2009/04/23 11:27:45.6      13     -4     42     14     44 108.6  81.0  34218  290.55 0855.06
2009/04/23 11:27:45.7      34    -25     25     43     49 126.9  33.5  34212  290.47 0855.06
2009/04/23 11:27:45.8      50    -17     18     53     57 109.1  19.4  34208  290.38 0855.06
2009/04/23 11:27:45.9      60    -12     25     62     66 101.4  23.0  34210  290.41
     57    -11     42     59     72 101.4  39.5  34212  290.45
     78    -47     54     92    106 121.1  33.5  34204  290.33
     88   -105    105    138    173 139.9  41.2  34208  290.40
    134    -62    102    148    179 114.8  38.0  34204  290.31
    138    -40    100    144    175 106.4  38.0  34204  290.33
    176    -58    152    186    240 108.4  43.7  34208  290.38
    178   -112    155    211    261 122.2  39.7  34202  290.29
    151   -121    147    194    243 128.6  40.7  34206  290.36
    149    -69    165    165    233 114.8  50.1  34204  290.31
    161   -101    117    191    223 122.2  34.8  34202  290.28
    106   -166    229    198    302 147.5  54.8  34198  290.22
     76   -230    201    243    315 161.7  44.0  34202  290.27
     61   -262    192    270    331 166.9  39.0  34198  290.20 0855.06
2009/04/23 11:27:47.4      24   -220    139    222    261 173.8  35.5  34200  290.24 0855.03
2009/04/23 11:27:47.5     -38   -277    146    280    315 188.0  29.8  34198  290.20 0855.03
2009/04/23 11:27:47.6     -32   -259    129    262    292 187.1  28.2  34204  290.31 0855.03
2009/04/23 11:27:47.7    -142   -173     48    224    230 219.4  12.2  34196  290.19 0855.03
2009/04/23 11:27:47.8    -117   -212     16    243    244 209.0   3.8  34200  290.24 0855.03
2009/04/23 11:27:47.9    -151   -237     -6    282    283 212.6  -1.3  34210  290.41 0855.03
2009/04/23 11:27:48.0    -146   -158    -60    216    225 222.8 -15.5  34204  290.31 0855.03
2009/04/23 11:27:48.1    -142   -134    -65    196    207 226.8 -18.3  34208  290.38 0855.03
2009/04/23 11:27:48.2     -78   -200    -24    215    217 201.4  -6.5  34216  290.53 0855.03
2009/04/23 11:27:48.3     -42   -213    -55    218    226 191.3 -14.3  34214  290.50 0855.03
2009/04/23 11:27:48.4      -1   -170    -42    171    177 180.5 -13.9  34214  290.48 0855.03
2009/04/23 11:27:48.5      80   -162    -52    181    189 153.5 -16.0  34218  290.55 0855.03
2009/04/23 11:27:48.6     136   -140      0    196    197 135.7   0.2  34214  290.48 0855.03
2009/04/23 11:27:48.7      94    -78    -15    123    125 129.5  -7.3  34212  290.47 0855.03
2009/04/23 11:27:48.8      94    -60     31    112    117 122.4  15.8  34214  290.48 0855.03
2009/04/23 11:27:48.9      99    -47     65    110    127 115.3  33.5  34208  290.40 0855.03
2009/04/23 11:27:49.0      49   -150     58    158    168 161.7  21.0  34202  290.28 0855.03
2009/04/23 11:27:49.1       7   -159     57    160    169 177.3  20.0  34204  290.31 0855.03
2009/04/23 11:27:49.2     -28   -159     24    162    164 190.0   8.5  34210  290.43 0855.03
2009/04/23 11:27:49.3     -50   -138     35    147    152 200.1  13.5  34212  290.47 0855.03
2009/04/23 11:27:49.4     -65   -118     16    135    136 209.0   6.9  34214  290.48 0855.03
2009/04/23 11:27:49.5     -23   -114    -41    117    125 191.6 -19.6  34204  290.31 0855.03
2009/04/23 11:27:49.6    -117    -51     -2    128    129 246.5  -1.3  34210  290.43 0855.03
2009/04/23 11:27:49.7    -122    -11     -2    123    124 264.8  -1.2  34210  290.41 0855.03
2009/04/23 11:27:49.8     -92    -30     21     97    100 251.8  12.2  34214  290.48 0855.03
2009/04/23 11:27:49.9     -66    -65     50     93    105 225.6  30.8  34216  290.53 0855.03
2009/04/23 11:27:50.0     -93   -123     19    155    157 217.0   7.2  34212  290.47 0855.03
2009/04/23 11:27:50.1     -93    -99    -48    136    144 223.2 -23.8  34214  290.48 0855.03
2009/04/23 11:27:50.2    -134   -113    -56    176    185 230.0 -17.9  34210  290.41 0855.03
2009/04/23 11:27:50.3    -111    -81    -51    138    147 234.0 -25.3  34216  290.52 0855.03
2009/04/23 11:27:50.4     -60    -50    -24     79     83 230.5 -17.0  34216  290.53 0855.03
2009/04/23 11:27:50.5     -43    -43     -3     61     62 225.1  -3.2  34218  290.57 0855.03
2009/04/23 11:27:50.6     -94    -19    -30     96    100 258.5 -22.8  34216  290.52 0855.03
2009/04/23 11:27:50.7     -85     22    -45     88     98 284.6 -33.1  34216  290.53 0855.03
2009/04/23 11:27:50.8     -68      5    -19     69     72 274.3 -15.5  34214  290.48 0855.03
2009/04/23 11:27:50.9     -79     16     28     81     86 281.5  19.4  34224  290.67 0855.03
2009/04/23 11:27:51.0     -61    -39     45     73     85 237.6  35.0  34234  290.82 0855.03
2009/04/23 11:27:51.1    -133    -44     27    141    144 251.8  11.1  34216  290.53 0855.03
2009/04/23 11:27:51.2    -143     -2    -12    144    145 269.2  -5.1  34218  290.55 0855.03
2009/04/23 11:27:51.3    -135      5     -1    136    137 272.1  -0.7  34226  290.69 0855.04
2009/04/23 11:27:51.4    -132    -18      4    134    135 262.1   1.8  34238  290.91 0855.04
2009/04/23 11:27:51.5    -273     20     15    274    275 274.4   3.3  34268  291.41 0855.04
2009/04/23 11:27:51.6    -430    -45    -49    433    436 263.9  -6.5  34252  291.14 0855.04
2009/04/23 11:27:51.7    -492    -56    -68    496    501 263.4  -7.9  34258  291.22 0855.04
2009/04/23 11:27:51.8    -421    -59     20    426    427 262.0   2.8  34250  291.09 0855.04
2009/04/23 11:27:51.9    -336    -29    -27    338    340 264.9  -4.6  34244  291.01 0855.04
2009/04/23 11:27:52.0    -272    -74      0    283    284 254.7   0.0  34236  290.87 0855.04
2009/04/23 11:27:52.1    -247    -66     -9    256    257 255.0  -2.1  34240  290.92 0855.04
2009/04/23 11:27:52.2    -242    -40   -133    246    279 260.5 -35.2  34236  290.85 0855.04
2009/04/23 11:27:52.3    -392      6   -132    393    414 270.9 -23.5  34234  290.82 0855.04
2009/04/23 11:27:52.4    -305    -81    -88    316    329 255.1 -15.7  34244  290.99 0855.04
2009/04/23 11:27:52.5    -291    -78    -11    302    303 255.0  -2.2  34238  290.88 0855.04
2009/04/23 11:27:52.6    -170   -168     38    240    244 225.3   9.0  34252  291.14 0855.04
2009/04/23 11:27:52.7    -113   -132     60    174    185 220.5  19.2  34254  291.18 0855.04
2009/04/23 11:27:52.8    -130   -110      8    171    172 229.8   2.9  34246  291.03 0855.04
2009/04/23 11:27:52.9     -90   -116    -25    147    150 217.8  -9.8  34236  290.87 0855.04
2009/04/23 11:27:53.0    -155   -200    -32    254    257 217.8  -7.2  34216  290.53 0855.04
2009/04/23 11:27:53.1    -132   -170    -41    216    221 217.8 -10.9  34214  290.48 0855.04
2009/04/23 11:27:53.2     -99   -216    -44    238    243 204.7 -10.5  34208  290.37 0855.04
2009/04/23 11:27:53.3     -46   -266    -36    271    274 189.8  -7.7  34210  290.41 0855.07
2009/04/23 11:27:53.4     -58   -246      2    253    254 193.4   0.5  34206  290.36 0855.07
2009/04/23 11:27:53.5    -100   -182      2    208    209 208.9   0.8  34220  290.58 0855.07
2009/04/23 11:27:53.6     -92   -127     -3    157    158 216.0  -1.3  34222  290.62 0855.07
2009/04/23 11:27:53.7    -129   -164    -38    209    213 218.1 -10.5  34240  290.94 0855.07
2009/04/23 11:27:53.8    -126   -137     35    187    191 222.5  10.8  34252  291.15 0855.07
2009/04/23 11:27:53.9     -79   -176    -61    194    204 204.3 -17.5  34228  290.72 0855.07
2009/04/23 11:27:54.0    -114   -220     21    248    249 207.4   5.0  34246  291.04 0855.07
2009/04/23 11:27:54.1     -94   -168     66    193    205 209.4  18.9  34252  291.13 0855.07
2009/04/23 11:27:54.2     -19   -186     36    188    192 186.0  11.1  34220  290.58 0855.07
2009/04/23 11:27:54.3     -34   -181     49    185    192 190.7  15.0  34208  290.40 0855.07
2009/04/23 11:27:54.4     -20   -261     29    262    264 184.4   6.5  34200  290.26 0855.07
2009/04/23 11:27:54.5     -10   -276      0    277    278 182.2   0.0  34200  290.24 0855.07
2009/04/23 11:27:54.6     -91   -280      4    295    296 198.0   0.8  34202  290.27 0855.07
2009/04/23 11:27:54.7     -91   -270     27    286    288 198.7   5.4  34198  290.22 0855.07
2009/04/23 11:27:54.8      14   -260     63    261    269 176.9  13.7  34204  290.32 0855.07
2009/04/23 11:27:54.9      40   -273     59    277    284 171.5  12.0  34200  290.24 0855.07
2009/04/23 11:27:55.0     -51   -257     47    263    268 191.3  10.1  34194  290.15 0855.07
2009/04/23 11:27:55.1     -31   -180     50    183    190 189.8  15.3  34200  290.26 0855.07
2009/04/23 11:27:55.2     -45   -140     86    148    171 197.8  32.9  34208  290.38 0855.07
2009/04/23 11:27:55.3      47   -243    172    248    301 168.9  38.0  34212  290.46 0855.10
2009/04/23 11:27:55.4     194   -270    175    333    376 144.3  30.1  34208  290.38 0855.10
2009/04/23 11:27:55.5     127   -218    114    253    277 149.7  25.7  34208  290.37 0855.10
2009/04/23 11:27:55.6      37   -218    165    222    276 170.4  40.4  34210  290.41 0855.10
2009/04/23 11:27:55.7     192   -232    207    302    366 140.3  37.6  34210  290.43 0855.10
2009/04/23 11:27:55.8      85   -244    112    259    282 160.8  24.9  34204  290.32 0855.10
2009/04/23 11:27:55.9     120   -253    141    281    314 154.5  28.6  34202  290.29 0855.10
2009/04/23 11:27:56.0      58   -215     67    223    233 164.9  16.8  34202  290.30 0855.10
2009/04/23 11:27:56.1     -11   -212     15    213    214 183.1   4.2  34206  290.36 0855.10
2009/04/23 11:27:56.2     -28   -201    -64    204    215 188.1 -17.6  34202  290.28 0855.10
2009/04/23 11:27:56.3     -55   -156    -49    166    173 199.6 -21.5  34198  290.23 0855.10
2009/04/23 11:27:56.4      -9    -90      4     91     92 185.8   2.9  34204  290.31 0855.10
2009/04/23 11:27:56.5     -18    -67     -9     70     71 195.1  -7.3  34206  290.36 0855.10
2009/04/23 11:27:56.6      -1    -48     17     49     52 181.8  19.2  34208  290.38 0855.10
2009/04/23 11:27:56.7      87     39     58     96    112  66.0  34.4  34200  290.26 0855.10
2009/04/23 11:27:56.8      66    -64     20     93     96 134.0  12.2  34208  290.40 0855.10
2009/04/23 11:27:56.9      97    -61     68    115    133 122.4  33.5  34206  290.35 0855.10
2009/04/23 11:27:57.0     -71   -128     90    147    172 209.0  34.8  34210  290.43 0855.10
2009/04/23 11:27:57.1     -14   -146    175    147    228 185.8  56.3  34210  290.41 0855.10
2009/04/23 11:27:57.2     -14   -164    175    165    240 185.1  52.0  34204  290.31 0855.10
2009/04/23 11:27:57.3      73   -149     83    167    186 153.9  28.0  34202  290.28 0855.12
2009/04/23 11:27:57.4     -34   -162    -36    166    170 192.0 -12.4  34202  290.30 0855.12
2009/04/23 11:27:57.5     -77   -195      4    210    211 201.6   1.2  34216  290.53 0855.12
2009/04/23 11:27:57.6     -54   -163     18    172    173 198.3   6.1  34234  290.84 0855.12
2009/04/23 11:27:57.7     -35   -174      1    178    179 191.5   0.5  34234  290.84 0855.12
2009/04/23 11:27:57.8     -19   -186     -7    188    189 186.0  -2.2  34236  290.87 0855.12
2009/04/23 11:27:57.9     -10   -162      9    163    164 183.6   3.3  34234  290.84 0855.12
2009/04/23 11:27:58.0     -19   -163     44    165    171 186.9  15.0  34238  290.89 0855.12
2009/04/23 11:27:58.1       9   -123     71    124    142 175.5  32.4  34224  290.65 0855.12
2009/04/23 11:27:58.2      -9   -126     72    127    145 184.4  31.9  34220  290.60 0855.12
2009/04/23 11:27:58.3      25   -116     -2    119    120 167.5  -1.3  34216  290.53 0855.12
2009/04/23 11:27:58.4      86   -154    -11    177    178 150.8  -3.7  34224  290.67 0855.12
2009/04/23 11:27:58.5     110   -126    -13    168    169 139.0  -4.6  34228  290.72 0855.12
2009/04/23 11:27:58.6     197   -168    -48    260    265 130.4 -10.5  34214  290.48 0855.12
2009/04/23 11:27:58.7     164   -245     59    296    302 146.2  11.4  34192  290.10 0855.12
2009/04/23 11:27:58.8      66   -279     96    287    303 166.6  18.6  34192  290.10 0855.12
2009/04/23 11:27:58.9      23   -304    116    306    327 175.5  21.7  34194  290.15 0855.12
2009/04/23 11:27:59.0      47   -315    159    319    356 171.5  28.6  34194  290.15 0855.12
2009/04/23 11:27:59.1      84   -318    189    330    380 165.1  32.4  34192  290.13 0855.12
2009/04/23 11:27:59.2      36   -364    206    366    419 174.3  31.9  34200  290.24 0855.12
2009/04/23 11:27:59.3      77   -317    120    327    348 166.2  21.0  34210  290.43 0855.14
2009/04/23 11:27:59.4     168   -273    132    321    347 148.4  23.6  34214  290.49 0855.14
2009/04/23 11:27:59.5     175   -334    128    378    400 152.4  18.8  34212  290.47 0855.14
2009/04/23 11:27:59.6     107   -401    269    416    495 165.0  35.9  34208  290.39 0855.14
2009/04/23 11:27:59.7      63   -404    248    410    479 171.1  34.1  34202  290.29 0855.14
2009/04/23 11:27:59.8      65   -355    318    362    481 169.5  45.8  34208  290.39 0855.14
2009/04/23 11:27:59.9     268   -268    231    380    444 135.0  34.2  34212  290.46 0855.14
2009/04/23 11:28:00.0     159   -300    119    340    361 152.0  19.4  34214  290.50 0855.14
2009/04/23 11:28:00.1     199   -212     85    292    305 136.8  16.3  34210  290.42 0855.14
2009/04/23 11:28:00.2     246   -133     18    280    281 118.4   3.8  34212  290.44 0855.14
2009/04/23 11:28:00.3     311   -139    -10    341    342 114.2  -1.7  34210  290.43 0855.14
2009/04/23 11:28:00.4     379   -157     -1    411    412 112.6  -0.2  34216  290.53 0855.14
2009/04/23 11:28:00.5     308   -238    138    390    413 127.7  20.3  34200  290.26 0855.14
2009/04/23 11:28:00.6     241   -258    203    354    408 137.0  32.4  34202  290.27 0855.14
2009/04/23 11:28:00.7     221   -368    101    430    442 149.0  13.2  34202  290.28 0855.14
2009/04/23 11:28:00.8     158   -390     69    421    427 157.9   9.3  34208  290.39 0855.14
2009/04/23 11:28:00.9     155   -288      8    328    329 151.6   1.5  34212  290.44 0855.14
2009/04/23 11:28:01.0      85   -280     41    293    296 163.1   8.0  34218  290.54 0855.14
2009/04/23 11:28:01.1      25   -338     98    339    353 175.8  16.1  34220  290.59 0855.14
2009/04/23 11:28:01.2      45   -426     36    429    431 173.9   4.9  34230  290.75 0855.14
2009/04/23 11:28:01.3     187   -453    -80    491    498 157.6  -9.3  34212  290.45 0855.14
2009/04/23 11:28:01.4     143   -469    -40    491    493 163.0  -4.7  34206  290.35 0855.14
2009/04/23 11:28:01.5     154   -404     37    433    435 159.1   5.0  34202  290.29 0855.14
2009/04/23 11:28:01.6     244   -444      4    507    508 151.1   0.5  34212  290.45 0855.14
2009/04/23 11:28:01.7     199   -443     -6    486    487 155.8  -0.7  34210  290.42 0855.14
2009/04/23 11:28:01.8     263   -323     97    417    429 140.9  13.1  34204  290.31 0855.14
2009/04/23 11:28:01.9     358   -399      7    537    538 138.1   0.8  34200  290.26 0855.14
2009/04/23 11:28:02.0     270   -294    145    400    426 137.4  19.9  34200  290.24 0855.14
2009/04/23 11:28:02.1      40   -334    109    337    355 173.0  17.9  34210  290.43 0855.14
2009/04/23 11:28:02.2    -147   -269     49    307    312 208.7   9.2  34214  290.49 0855.14
2009/04/23 11:28:02.3     -76   -304     77    314    324 194.2  13.8  34222  290.61 0855.14
2009/04/23 11:28:02.4     -53   -238    -87    244    260 192.7 -19.6  34224  290.66 0855.14
2009/04/23 11:28:02.5      32   -232   -105    235    257 172.0 -30.1  34222  290.63 0855.14
2009/04/23 11:28:02.6      87   -314    -55    326    331 164.5  -9.7  34220  290.59 0855.14
2009/04/23 11:28:02.7     168   -224     60    280    287 143.1  12.2  34218  290.54 0855.14
2009/04/23 11:28:02.8     169   -119    -51    207    214 125.1 -13.9  34222  290.64 0855.14
2009/04/23 11:28:02.9     164   -126     -8    207    208 127.5  -2.2  34198  290.23 0855.14
2009/04/23 11:28:03.0      -8   -202    158    203    257 182.5  41.7  34216  290.53 0855.14
2009/04/23 11:28:03.1      58   -144     64    156    168 158.1  23.6  34214  290.50 0855.14
2009/04/23 11:28:03.2      44   -146    139    153    206 163.0  47.1  34226  290.69 0855.14
2009/04/23 11:28:03.3     105   -190    154    218    266 151.0  38.6  34224  290.66 0855.14
2009/04/23 11:28:03.4     180   -175    166    252    301 134.2  36.5  34224  290.66 0855.14
2009/04/23 11:28:03.5     105   -158    108    190    218 146.4  32.1  34222  290.64 0855.14
2009/04/23 11:28:03.6     153   -181    225    238    327 139.7  48.4  34214  290.48 0855.14
2009/04/23 11:28:03.7     211   -272    283    345    446 142.3  43.7  34216  290.53 0855.14
2009/04/23 11:28:03.8     137   -268    282    302    413 152.9  47.9  34204  290.33 0855.14
2009/04/23 11:28:03.9     135   -152    219    204    299 138.3  52.2  34220  290.58 0855.14
2009/04/23 11:28:04.0     171    -84    172    191    257 116.4  46.9  34226  290.70 0855.14
2009/04/23 11:28:04.1      94    -85    128    127    180 132.2  49.9  34222  290.62 0855.14
2009/04/23 11:28:04.2      29   -173    130    176    218 170.4  39.9  34210  290.41 0855.14
2009/04/23 11:28:04.3      21   -275    201    276    341 175.6  39.7  34208  290.37 0855.12
2009/04/23 11:28:04.4      -4   -298    208    299    364 180.9  38.0  34202  290.28 0855.12
2009/04/23 11:28:04.5      82   -162    182    182    257 153.0  50.1  34216  290.51 0855.12
2009/04/23 11:28:04.6      41   -130    121    137    182 162.6  46.4  34216  290.52 0855.12
2009/04/23 11:28:04.7      77    -56    120     96    153 126.4  56.9  34214  290.50 0855.12
2009/04/23 11:28:04.8      86    -36     84     94    126 113.1  46.9  34224  290.67 0855.12
2009/04/23 11:28:04.9     150     28     37    153    158  79.4  13.9  34232  290.81 0855.12
2009/04/23 11:28:05.0      21   -104    137    107    173 168.4  57.9  34216  290.52 0855.12
2009/04/23 11:28:05.1     -36   -179    189    183    263 191.6  50.9  34212  290.44 0855.12
2009/04/23 11:28:05.2      -9   -202    115    203    233 182.6  32.1  34206  290.36 0855.12
2009/04/23 11:28:05.3       8   -184     73    185    198 177.5  22.8  34210  290.43 0855.12
2009/04/23 11:28:05.4       0   -170    127    171    213 180.2  40.1  34210  290.41 0855.12
2009/04/23 11:28:05.5     -74   -240     98    252    270 197.2  22.5  34204  290.32 0855.12
2009/04/23 11:28:05.6       2   -178    102    179    206 179.1  32.1  34212  290.45 0855.12
2009/04/23 11:28:05.7     -43   -188     94    193    214 192.9  27.4  34208  290.38 0855.12
2009/04/23 11:28:05.8     -41   -106     75    114    136 201.4  35.6  34210  290.43 0855.12
2009/04/23 11:28:05.9     -11   -103     82    104    132 186.2  42.7  34208  290.40 0855.12
2009/04/23 11:28:06.0     -16   -113    120    115    166 188.1  51.2  34212  290.45 0855.12
2009/04/23 11:28:06.1      12    -47    120     49    129 164.9  77.1  34224  290.67 0855.12
2009/04/23 11:28:06.2     -17     -2     84     18     85 262.1  88.5  34228  290.74 0855.12
2009/04/23 11:28:06.3     -43    -23     62     49     79 242.0  57.5  34224  290.65 0855.12
2009/04/23 11:28:06.4       0      2     66      3     66  18.5  90.0  34244  290.99 0855.12
2009/04/23 11:28:06.5     -25     -1      1     26     27 265.6   2.9  34234  290.82 0855.12
2009/04/23 11:28:06.7     -20    -71    -83     74    111 196.0 -58.1  34220  290.60 0855.12
2009/04/23 11:28:06.7      32     10   -131     34    135  71.6 -89.8  34186  290.02 0855.12
2009/04/23 11:28:06.8      97     85    -90    130    158  48.7 -42.4  34184  289.99 0855.12
2009/04/23 11:28:07.0     112     70    -21    133    135  58.0  -9.3  34176  289.85 0855.12
2009/04/23 11:28:07.1     127     66    -18    144    146  62.5  -7.2  34168  289.72 0855.12
2009/04/23 11:28:07.2     164      0    131    165    210  90.1  42.7  34176  289.85 0855.12
2009/04/23 11:28:07.3     165     -4    156    166    227  91.7  48.0  34190  290.09 0855.12
2009/04/23 11:28:07.4     153    -31    170    157    231 101.5  52.2  34216  290.52 0855.12
2009/04/23 11:28:07.5      59    -87    100    106    145 145.7  48.0  34218  290.57 0855.12
2009/04/23 11:28:07.6     148    -50    143    157    212 108.6  47.5  34220  290.58 0855.12
2009/04/23 11:28:07.7     224     11    151    225    270  87.0  36.7  34212  290.44 0855.12
2009/04/23 11:28:07.8     205    -20    115    207    236  95.7  31.4  34186  290.02 0855.12
2009/04/23 11:28:07.9     173     32    138    176    223  79.4  42.0  34188  290.04 0855.12
2009/04/23 11:28:08.0     106     -3    185    107    213  91.7  67.0  34226  290.70 0855.12
2009/04/23 11:28:08.1      12     42    152     44    158  16.0  83.5  34216  290.52 0855.12
2009/04/23 11:28:08.2     173    -28    208    176    272  99.2  55.8  34208  290.37 0855.12
2009/04/23 11:28:08.3      50     32    101     60    117  57.6  66.2  34228  290.74 0855.12
2009/04/23 11:28:08.4     -51     12     76     53     92 284.2  62.1  34228  290.72 0855.13
2009/04/23 11:28:08.5      32      7     45     33     55  76.7  60.5  34218  290.57 0855.13
2009/04/23 11:28:08.6     -16    -22     32     28     42 216.1  53.3  34216  290.52 0855.13
2009/04/23 11:28:08.7      46    -15     24     49     54 108.4  27.2  34212  290.47 0855.13
2009/04/23 11:28:08.8     -19    -83    107     86    137 193.4  56.4  34214  290.48 0855.13
2009/04/23 11:28:08.9      12    -20     95     24     97 147.5  85.9  34218  290.55 0855.13
2009/04/23 11:28:09.0       2    -44    123     45    130 177.3  79.2  34204  290.33 0855.13
2009/04/23 11:28:09.1     -27     35    192     45    197 323.0  87.0  34214  290.50 0855.13
2009/04/23 11:28:09.2     -62    -96    140    115    181 213.0  56.4  34236  290.87 0855.13
2009/04/23 11:28:09.3     -45    -88    116    100    153 207.2  54.8  34240  290.94 0855.13
2009/04/23 11:28:09.4     -93    -78    115    122    167 230.0  48.2  34244  290.99 0855.13
2009/04/23 11:28:09.5      -4    -19     41     20     45 191.6  71.9  34226  290.70 0855.13
2009/04/23 11:28:09.6     -39     61    -53     73     90 327.4 -44.1  34214  290.50 0855.13
2009/04/23 11:28:09.7    -107    114     -8    157    158 316.8  -3.1  34222  290.62 0855.13
2009/04/23 11:28:09.8    -160   -112     98    196    219 234.9  28.7  34208  290.40 0855.13
2009/04/23 11:28:09.9    -168   -169    103    239    260 224.8  24.9  34228  290.71 0855.13
2009/04/23 11:28:10.0    -189   -340    119    390    408 209.1  17.1  34254  291.18 0855.13
2009/04/23 11:28:10.1    -152   -275    187    315    366 208.9  33.5  34210  290.43 0855.13
2009/04/23 11:28:10.2      32    -58    171     67    183 151.0  77.6  34224  290.67 0855.13
2009/04/23 11:28:10.3      63      0    171     64    182  90.0  78.9  34212  290.45 0855.13
2009/04/23 11:28:10.4      11     44    158     46    164  15.1  83.1  34218  290.57 0855.12
2009/04/23 11:28:10.5     -92   -264    169    280    327 199.2  34.0  34196  290.19 0855.12
2009/04/23 11:28:10.6       6   -142    178    143    228 177.3  56.9  34190  290.09 0855.12
2009/04/23 11:28:10.7    -166   -286     61    331    337 210.2  10.6  34222  290.62 0855.12
2009/04/23 11:28:10.8     -64   -254     64    263    271 194.3  13.7  34220  290.58 0855.12
2009/04/23 11:28:10.9    -142   -317    229    348    416 204.1  36.5  34198  290.21 0855.12
2009/04/23 11:28:11.0    -167   -305     79    348    358 208.7  12.9  34222  290.62 0855.12
2009/04/23 11:28:11.1     -51   -424     43    428    431 186.9   5.8  34206  290.36 0855.12
2009/04/23 11:28:11.2      36   -405    154    407    435 174.9  21.7  34196  290.17 0855.12
2009/04/23 11:28:11.3      93   -379    218    391    447 166.1  31.5  34196  290.19 0855.12
2009/04/23 11:28:11.4      24   -285    101    287    305 175.1  19.4  34204  290.31 0855.12
2009/04/23 11:28:11.5      34   -240    172    243    297 171.9  38.8  34204  290.32 0855.12
2009/04/23 11:28:11.6      35   -122    104    127    164 164.0  43.5  34234  290.84 0855.12
2009/04/23 11:28:11.7     -58   -145    135    157    207 201.8  45.4  34220  290.60 0855.12
2009/04/23 11:28:11.8     -87   -176    202    197    282 206.5  50.7  34206  290.36 0855.12
2009/04/23 11:28:11.9    -147   -223    261    268    374 213.4  49.2  34234  290.83 0855.12
2009/04/23 11:28:12.0    -293   -289    141    412    436 225.4  18.9  34270  291.45 0855.12
2009/04/23 11:28:12.1    -331   -319    153    460    486 226.1  18.5  34252  291.12 0855.12
2009/04/23 11:28:12.2    -231   -451     80    507    514 207.2   9.0  34224  290.66 0855.12
2009/04/23 11:28:12.3    -270   -258     59    374    379 226.3   9.0  34240  290.94 0855.12
2009/04/23 11:28:12.4    -153   -391     73    421    428 201.4   9.9  34240  290.92 0855.12
2009/04/23 11:28:12.5    -262   -332     53    424    428 218.3   7.2  34246  291.02 0855.12
2009/04/23 11:28:12.6    -296   -330     31    444    446 221.9   4.0  34242  290.95 0855.12
2009/04/23 11:28:12.7    -254   -310     45    402    405 219.3   6.5  34222  290.61 0855.12
2009/04/23 11:28:12.8    -294   -240     -2    380    381 230.8  -0.4  34218  290.57 0855.12
2009/04/23 11:28:12.9    -197   -290     98    351    365 214.2  15.7  34206  290.35 0855.12
2009/04/23 11:28:13.0    -215   -293    107    364    380 216.3  16.4  34198  290.23 0855.12
2009/04/23 11:28:13.1    -174   -299     98    347    361 210.2  15.9  34202  290.27 0855.12
2009/04/23 11:28:13.2    -119   -315    121    337    358 200.7  20.7  34204  290.32 0855.12
2009/04/23 11:28:13.3    -188   -274    131    333    357 214.5  22.7  34214  290.50 0855.12
2009/04/23 11:28:13.4     -53   -325     88    330    342 189.3  15.0  34198  290.23 0855.12
2009/04/23 11:28:13.5    -119   -337     -5    358    359 199.5  -0.9  34202  290.27 0855.12
2009/04/23 11:28:13.6    -221   -259    -18    341    342 220.4  -3.2  34220  290.60 0855.12
2009/04/23 11:28:13.7    -173   -260     -9    313    314 213.6  -1.8  34226  290.68 0855.12
2009/04/23 11:28:13.8    -204   -223    -24    303    305 222.4  -4.6  34232  290.80 0855.12
2009/04/23 11:28:13.9    -152   -233     -6    279    280 213.2  -1.3  34218  290.54 0855.12
2009/04/23 11:28:14.0    -126   -226     82    260    273 209.2  17.7  34220  290.58 0855.12
2009/04/23 11:28:14.1    -106   -233     69    257    267 204.5  15.2  34208  290.37 0855.12
2009/04/23 11:28:14.2     -75   -223     33    236    239 198.7   8.0  34214  290.49 0855.12
2009/04/23 11:28:14.3    -186   -291     22    346    347 212.6   3.8  34222  290.64 0855.12
2009/04/23 11:28:14.4    -101   -322      2    338    339 197.5   0.4  34214  290.50 0855.12
2009/04/23 11:28:14.5    -116   -376    -21    394    395 197.2  -3.2  34208  290.40 0855.12
2009/04/23 11:28:14.6    -122   -401   -115    420    436 196.9 -15.4  34202  290.29 0855.12
2009/04/23 11:28:14.7      17   -372     23    373    374 177.3   3.6  34198  290.20 0855.12
2009/04/23 11:28:14.8      -8   -265     86    266    280 181.8  17.9  34202  290.29 0855.12
2009/04/23 11:28:14.9      27   -291    139    293    324 174.7  27.2  34200  290.24 0855.12
2009/04/23 11:28:15.0      81   -363     72    373    380 167.4  11.0  34198  290.21 0855.12
2009/04/23 11:28:15.1     116   -359    117    378    396 162.0  17.3  34192  290.13 0855.12
2009/04/23 11:28:15.2     152   -366     78    397    405 157.4  11.1  34200  290.25 0855.12
2009/04/23 11:28:15.3     237   -312     75    393    401 142.8  10.8  34208  290.38 0855.12
2009/04/23 11:28:15.4     198   -326     23    382    383 148.7   3.5  34208  290.40 0855.12
2009/04/23 11:28:15.5     281   -333    -39    436    438 139.8  -5.2  34196  290.17 0855.12
2009/04/23 11:28:15.6     319   -416    -29    525    526 142.5  -3.2  34194  290.16 0855.12
2009/04/23 11:28:15.7     284   -331     40    437    440 139.4   5.3  34200  290.26 0855.12
2009/04/23 11:28:15.8     291   -285    -29    408    409 134.4  -4.1  34204  290.31 0855.12
2009/04/23 11:28:15.9     221   -303    -21    376    377 143.9  -3.3  34182  289.94 0855.12
2009/04/23 11:28:16.0     199   -302     56    362    367 146.6   8.8  34172  289.79 0855.12
2009/04/23 11:28:16.1     146   -276     20    313    314 152.0   3.8  34186  290.00 0855.12
2009/04/23 11:28:16.2     150   -235    -69    279    288 147.4 -13.9  34200  290.24 0855.12
2009/04/23 11:28:16.3     120   -258    -70    285    294 155.1 -13.9  34200  290.24 0855.12
2009/04/23 11:28:16.4      99   -251    -10    270    271 158.4  -2.2  34212  290.44 0855.11
2009/04/23 11:28:16.5      93   -212    -20    232    233 156.2  -5.1  34214  290.49 0855.11
2009/04/23 11:28:16.6      81   -250     81    263    276 162.0  17.1  34228  290.73 0855.11
2009/04/23 11:28:16.7     125   -226     90    259    275 151.0  19.2  34204  290.31 0855.11
2009/04/23 11:28:16.8     119   -141    104    185    212 139.9  31.9  34192  290.13 0855.11
2009/04/23 11:28:16.9      48   -148    135    156    206 161.7  45.4  34200  290.26 0855.11
2009/04/23 11:28:17.0      78   -153     32    172    175 152.8  10.6  34200  290.26 0855.11
2009/04/23 11:28:17.1      72   -153      9    170    171 154.6   3.1  34202  290.28 0855.11
2009/04/23 11:28:17.2     -43   -254    128    258    288 189.6  28.2  34210  290.41 0855.11
2009/04/23 11:28:17.3     -28   -276     63    278    286 186.0  12.9  34206  290.34 0855.11
2009/04/23 11:28:17.4      -7   -251    110    252    274 181.8  25.1  34214  290.48 0855.11
2009/04/23 11:28:17.5    -101   -232    111    254    277 203.6  25.1  34200  290.26 0855.11
2009/04/23 11:28:17.6    -130   -236     84    270    283 208.9  17.4  34212  290.44 0855.11
2009/04/23 11:28:17.7    -153   -249     57    293    299 211.6  11.1  34214  290.48 0855.11
2009/04/23 11:28:17.8    -135   -241      3    277    278 209.2   0.7  34214  290.49 0855.11
2009/04/23 11:28:17.9    -122   -257     40    285    288 205.5   8.0  34192  290.12 0855.11
2009/04/23 11:28:18.0     -77   -279    220    290    364 195.4  41.2  34192  290.11 0855.11
2009/04/23 11:28:18.1    -103   -271    262    291    391 200.9  46.8  34202  290.27 0855.11
2009/04/23 11:28:18.2     -58   -146    204    158    258 201.8  58.5  34204  290.33 0855.11
2009/04/23 11:28:18.3       2   -128    157    129    203 179.0  56.4  34210  290.43 0855.11
2009/04/23 11:28:18.4      88   -121    153    150    214 144.0  50.2  34202  290.30 0855.11
2009/04/23 11:28:18.5      95   -143    140    172    221 146.4  43.7  34202  290.30 0855.11
2009/04/23 11:28:18.6     126   -133    128    184    224 136.6  38.0  34204  290.33 0855.11
2009/04/23 11:28:18.7     188   -167     77    252    264 131.6  17.1  34210  290.41 0855.11
2009/04/23 11:28:18.8     235   -170     68    291    299 126.0  13.2  34214  290.49 0855.11
2009/04/23 11:28:18.9     198   -150      7    249    250 127.1   1.7  34212  290.44 0855.11
2009/04/23 11:28:19.0     219   -167     41    276    280 127.3   8.5  34206  290.36 0855.11
2009/04/23 11:28:19.1     214   -178    127    279    306 129.6  26.2  34208  290.39 0855.11
2009/04/23 11:28:19.2     203   -224    106    303    322 137.7  19.4  34196  290.17 0855.11
2009/04/23 11:28:19.3     195   -280    123    342    363 145.2  20.7  34192  290.10 0855.11
2009/04/23 11:28:19.4     203   -245     44    319    323 140.4   7.9  34196  290.17 0855.11
2009/04/23 11:28:19.5      68   -203    188    215    285 161.5  45.8  34198  290.20 0855.11
2009/04/23 11:28:19.6      52   -275    136    280    311 169.3  27.4  34194  290.14 0855.11
2009/04/23 11:28:19.7       4   -272    164    273    318 179.1  33.8  34198  290.22 0855.11
2009/04/23 11:28:19.8     175   -348     84    390    400 153.3  12.2  34198  290.23 0855.11
2009/04/23 11:28:19.9     139   -545    179    563    591 165.7  17.7  34194  290.14 0855.11
2009/04/23 11:28:20.0     112   -414    160    430    458 164.8  21.3  34186  290.00 0855.11
2009/04/23 11:28:20.1     250   -354    191    434    474 144.7  25.2  34194  290.14 0855.11
2009/04/23 11:28:20.2     170   -347    197    387    434 153.8  29.2  34196  290.19 0855.11
2009/04/23 11:28:20.3     176   -390    279    428    510 155.7  36.2  34198  290.20 0855.10
2009/04/23 11:28:20.4     103   -231    236    254    346 155.9  47.9  34196  290.17 0855.10
2009/04/23 11:28:20.5     146   -230    122    273    299 147.5  25.7  34202  290.27 0855.10
2009/04/23 11:28:20.6      58   -219    103    227    249 165.1  26.2  34206  290.34 0855.10
2009/04/23 11:28:20.7     142   -243     16    282    283 149.7   3.3  34202  290.29 0855.10
2009/04/23 11:28:20.8     144   -220     54    264    270 146.8  11.6  34202  290.27 0855.10
2009/04/23 11:28:20.9     229   -147    -28    273    275 122.6  -6.0  34204  290.31 0855.10
2009/04/23 11:28:21.0      99    -93     57    136    147 133.2  23.6  34208  290.38 0855.10
2009/04/23 11:28:21.1     202   -137    -74    245    255 124.1 -21.7  34208  290.39 0855.10
2009/04/23 11:28:21.2     209   -123    -35    243    246 120.6  -8.2  34208  290.37 0855.10
2009/04/23 11:28:21.3     179   -160     12    241    242 131.8   2.9  34202  290.29 0855.10
2009/04/23 11:28:21.4     136   -403     51    426    430 161.3   6.9  34190  290.09 0855.10
2009/04/23 11:28:21.5     371   -369    -47    524    527 134.8  -5.2  34196  290.19 0855.10
2009/04/23 11:28:21.6     241   -378     64    449    454 147.5   8.1  34194  290.14 0855.10
2009/04/23 11:28:21.7     143   -323     63    354    360 156.1  10.1  34194  290.15 0855.10
2009/04/23 11:28:21.8     192   -198    -49    276    281 135.9 -10.1  34194  290.15 0855.10
2009/04/23 11:28:21.9     191   -169    -84    256    269 131.4 -23.8  34194  290.14 0855.10
2009/04/23 11:28:22.0      58   -163    -38    174    179 160.4 -12.4  34190  290.09 0855.10
2009/04/23 11:28:22.1      -7   -209     82    210    225 182.0  22.8  34190  290.08 0855.10
2009/04/23 11:28:22.2     -24   -360    139    361    386 183.9  22.3  34202  290.30 0855.10
2009/04/23 11:28:22.3      21   -296    167    297    340 175.8  31.9  34208  290.37 0855.11
2009/04/23 11:28:22.4      85   -251    170    266    315 161.3  35.6  34196  290.17 0855.11
2009/04/23 11:28:22.5       0   -319    112    320    340 179.9  19.4  34198  290.20 0855.11
2009/04/23 11:28:22.6     -74   -369     72    377    384 191.3  10.8  34206  290.35 0855.11
2009/04/23 11:28:22.7    -130   -364     94    387    399 199.7  13.7  34194  290.16 0855.11
2009/04/23 11:28:22.8      26   -187     83    189    206 172.0  25.2  34202  290.28 0855.11
2009/04/23 11:28:22.9     136   -311     43    340    343 156.4   7.2  34208  290.38 0855.11
2009/04/23 11:28:23.0     -72   -214    -20    227    228 198.7  -5.2  34210  290.43 0855.11
2009/04/23 11:28:23.1     -57   -258    -58    265    272 192.5 -12.4  34208  290.39 0855.11
2009/04/23 11:28:23.2    -122   -281    -12    307    308 203.6  -2.2  34212  290.44 0855.11
2009/04/23 11:28:23.3     -48   -279     39    284    287 189.8   8.0  34212  290.46 0855.11
2009/04/23 11:28:23.4      88   -320    110    332    350 164.6  18.4  34208  290.40 0855.11
2009/04/23 11:28:23.5     140   -222     56    263    270 147.7  12.2  34214  290.48 0855.11
2009/04/23 11:28:23.6     111   -243     94    268    285 155.5  19.4  34210  290.41 0855.11
2009/04/23 11:28:23.7     194   -178     85    264    278 132.4  17.9  34200  290.24 0855.11
2009/04/23 11:28:23.8      -8   -177    234    178    294 182.7  59.0  34216  290.53 0855.11
2009/04/23 11:28:23.9     -41   -201    214    206    297 191.5  51.2  34216  290.51 0855.11
2009/04/23 11:28:24.0    -106    -50    -60    118    132 244.7 -33.6  34220  290.58 0855.11
2009/04/23 11:28:24.1    -105    -62    -49    123    132 239.3 -27.4  34218  290.57 0855.11
2009/04/23 11:28:24.2     -85    -22    -54     88    103 255.4 -39.9  34222  290.64 0855.11
2009/04/23 11:28:24.3      -7    -48    -14     49     52 188.9 -16.6  34224  290.65 0855.11
2009/04/23 11:28:24.4      12    -73     23     75     79 170.2  17.3  34224  290.65 0855.11
2009/04/23 11:28:24.5       5    -71     42     72     83 175.5  32.9  34214  290.48 0855.11
2009/04/23 11:28:24.6     -38    -45     21     60     64 220.5  19.4  34216  290.52 0855.11
2009/04/23 11:28:24.7     -15    -59     16     61     64 194.3  15.3  34214  290.50 0855.11
2009/04/23 11:28:24.8      47    -99    -39    110    116 154.6 -23.3  34214  290.48 0855.11
2009/04/23 11:28:24.9      24    -72    -22     77     80 161.3 -20.7  34216  290.53 0855.11
2009/04/23 11:28:25.0       9      2     92     10     92  74.9  90.0  34228  290.74 0855.11
2009/04/23 11:28:25.1     -29    -74     77     80    111 201.9  49.0  34220  290.60 0855.11
2009/04/23 11:28:25.2     -31    -43     10     54     56 216.1  11.0  34214  290.50 0855.11
2009/04/23 11:28:25.3      14      6     -2     16     17  64.7  -7.2  34216  290.53 0855.11
2009/04/23 11:28:25.4      16     59     35     62     71  15.2  31.4  34220  290.58 0855.11
2009/04/23 11:28:25.5      65     65     41     93    101  45.0  25.1  34230  290.75 0855.11
2009/04/23 11:28:25.6      39     21     52     45     68  61.1  55.4  34246  291.04 0855.11
2009/04/23 11:28:25.7      10    -35     58     37     68 163.1  64.7  34254  291.18 0855.11
2009/04/23 11:28:25.8     -42    -71    102     83    131 211.2  56.4  34220  290.60 0855.11
2009/04/23 11:28:25.9       8    -67    119     68    137 172.9  68.3  34240  290.94 0855.11
2009/04/23 11:28:26.0      -6   -182    108    183    212 182.0  33.5  34216  290.52 0855.11
2009/04/23 11:28:26.1      57   -173    145    183    233 161.7  42.7  34216  290.53 0855.11
2009/04/23 11:28:26.2     -40   -230    154    234    280 190.0  36.5  34212  290.44 0855.11
2009/04/23 11:28:26.3       3   -220    -38    221    225 179.0  -9.8  34210  290.43 0855.11
2009/04/23 11:28:26.4     -43   -157   -114    163    198 195.4 -42.8  34194  290.14 0855.11
2009/04/23 11:28:26.5    -129    -42    -56    136    147 251.8 -27.5  34188  290.04 0855.11
2009/04/23 11:28:26.6       5     -2   -113      6    113 115.3 -90.0  34200  290.25 0855.11
2009/04/23 11:28:26.7     126      5   -102    127    162  87.5 -47.4  34200  290.25 0855.11
2009/04/23 11:28:26.8      36   -177   -123    181    218 168.2 -42.0  34196  290.19 0855.11
2009/04/23 11:28:26.9     -88    -88     43    125    133 225.1  18.9  34196  290.19 0855.11
2009/04/23 11:28:27.0     -88   -121     24    150    153 216.1   9.3  34212  290.47 0855.11
2009/04/23 11:28:27.1    -120   -156    -69    197    208 217.6 -24.4  34228  290.72 0855.11
2009/04/23 11:28:27.2    -115   -155    -20    194    196 216.5  -6.0  34228  290.74 0855.11
2009/04/23 11:28:27.3    -106   -157     26    190    192 214.1   8.0  34218  290.55 0855.12
2009/04/23 11:28:27.4     -75   -124     60    145    156 211.2  23.8  34226  290.69 0855.12
2009/04/23 11:28:27.5     -92    -41     70    101    122 246.0  38.0  34228  290.72 0855.12
2009/04/23 11:28:27.6     -60    -24     62     65     89 248.3  49.0  34234  290.82 0855.12
2009/04/23 11:28:27.7     -69     89    104    113    153 322.2  47.9  34226  290.69 0855.12
2009/04/23 11:28:27.8    -182    123     60    220    229 304.2  15.3  34222  290.64 0855.12
2009/04/23 11:28:27.9    -154    174     29    233    235 318.5   7.1  34230  290.75 0855.12
2009/04/23 11:28:28.0    -165    165     -6    234    235 315.0  -1.6  34226  290.68 0855.12
2009/04/23 11:28:28.1    -155    212    -10    263    264 323.9  -2.2  34256  291.19 0855.12
2009/04/23 11:28:28.2    -246    225      6    334    335 312.4   1.1  34258  291.22 0855.12
2009/04/23 11:28:28.3    -224    249      4    336    337 318.0   0.7  34248  291.06 0855.12
2009/04/23 11:28:28.4    -224    191   -105    295    313 310.4 -24.8  34248  291.07 0855.12
2009/04/23 11:28:28.5     -88    143    -84    168    187 328.4 -32.9  34246  291.03 0855.12
2009/04/23 11:28:28.6    -155    -52    113    164    199 251.4  37.8  34220  290.60 0855.12
2009/04/23 11:28:28.7    -215    -56    137    223    261 255.2  34.8  34216  290.53 0855.12
2009/04/23 11:28:28.8    -276     41    184    280    335 278.6  36.4  34242  290.97 0855.12
2009/04/23 11:28:28.9    -233     61    136    241    276 284.8  31.9  34260  291.27 0855.12
2009/04/23 11:28:29.0    -166      7    150    167    224 272.6  46.6  34266  291.37 0855.12
2009/04/23 11:28:29.1    -193   -112    174    224    283 239.8  41.7  34236  290.87 0855.12
2009/04/23 11:28:29.2    -186     90    123    207    240 296.0  33.5  34220  290.58 0855.12
2009/04/23 11:28:29.3    -309    150    150    344    375 296.0  25.1  34222  290.64 0855.12
2009/04/23 11:28:29.4    -235     82    172    249    302 289.3  37.8  34224  290.65 0855.12
2009/04/23 11:28:29.5    -145    205    108    252    274 324.6  24.9  34216  290.51 0855.12
2009/04/23 11:28:29.6    -148    258    116    298    319 330.1  22.3  34220  290.58 0855.12
2009/04/23 11:28:29.7     -32    196    104    199    224 350.7  29.8  34228  290.74 0855.12
2009/04/23 11:28:29.8      97    153    120    182    218  32.5  36.5  34230  290.75 0855.12
2009/04/23 11:28:29.9     102    210    221    234    321  26.1  48.4  34244  291.00 0855.12
2009/04/23 11:28:30.0     124    260    135    289    318  25.5  26.9  34250  291.09 0855.12
2009/04/23 11:28:30.1     -70    259    116    269    292 344.8  24.6  34246  291.04 0855.12
2009/04/23 11:28:30.2     -57    281    143    287    320 348.4  28.5  34248  291.05 0855.12
2009/04/23 11:28:30.3      -6    256    151    257    298 358.6  33.4  34252  291.14 0855.12
2009/04/23 11:28:30.4     -73    295    107    304    322 346.0  20.0  34234  290.82 0855.12
2009/04/23 11:28:30.5    -169    285     55    332    337 329.3   9.4  34238  290.91 0855.12
2009/04/23 11:28:30.6    -189    265    123    326    348 324.5  21.6  34228  290.74 0855.12
2009/04/23 11:28:30.7     -90    208    146    227    269 336.6  35.6  34238  290.88 0855.12
2009/04/23 11:28:30.8     -95    161    100    188    212 329.5  30.3  34238  290.91 0855.12
2009/04/23 11:28:30.9    -128    135     88    187    206 316.6  27.1  34236  290.87 0855.12
2009/04/23 11:28:31.0    -184    196    213    270    343 316.8  42.4  34250  291.09 0855.12
2009/04/23 11:28:31.1    -132    201    161    241    289 326.6  36.7  34258  291.22 0855.12
2009/04/23 11:28:31.2    -177    120    162    215    269 304.2  40.7  34270  291.44 0855.12
2009/04/23 11:28:31.3    -152     82    159    173    234 298.4  47.5  34282  291.64 0855.12
2009/04/23 11:28:31.4    -239    -33    165    242    292 262.0  37.4  34264  291.34 0855.12
2009/04/23 11:28:31.5    -219    -69    155    230    277 252.5  37.4  34294  291.85 0855.12
2009/04/23 11:28:31.6    -148    -41    133    154    203 254.5  45.6  34282  291.66 0855.12
2009/04/23 11:28:31.7    -120    -69    143    139    199 240.2  50.7  34252  291.15 0855.12
2009/04/23 11:28:31.8     -20      0    105     21    107 270.0  89.0  34268  291.40 0855.12
2009/04/23 11:28:31.9      13    -17    116     22    118 142.2  89.6  34276  291.54 0855.12
2009/04/23 11:28:32.0    -136     55     92    147    173 292.2  35.5  34278  291.57 0855.12
2009/04/23 11:28:32.1     -66     12     89     68    112 280.6  58.5  34278  291.57 0855.12
2009/04/23 11:28:32.2      59     -2     94     60    111  92.6  64.6  34272  291.49 0855.12
2009/04/23 11:28:32.3     146     50      4    155    156  70.9   1.8  34266  291.38 0855.12
2009/04/23 11:28:32.4     103     60     42    120    128  59.8  19.2  34270  291.45 0855.12
2009/04/23 11:28:32.5     129     53    109    140    177  67.4  42.0  34268  291.42 0855.12
2009/04/23 11:28:32.6     133     66     60    149    160  63.4  23.0  34258  291.23 0855.12
2009/04/23 11:28:32.7      96     74     66    122    138  52.2  31.3  34262  291.32 0855.12
2009/04/23 11:28:32.8      49    147     80    156    175  18.7  29.3  34256  291.21 0855.12
2009/04/23 11:28:32.9     -58    149     86    161    182 338.6  30.6  34242  290.96 0855.12
2009/04/23 11:28:33.0     -84    185     82    204    219 335.5  23.1  34296  291.89 0855.12
2009/04/23 11:28:33.2     -29    259     99    261    279 353.5  21.7  34282  291.65 0855.12
2009/04/23 11:28:33.3     -10    233     81    234    248 357.3  19.2  34284  291.68 0855.12
2009/04/23 11:28:33.4     -32    228     63    231    240 351.9  15.3  34294  291.85 0855.11
2009/04/23 11:28:33.5     -39    230     78    234    247 350.2  18.6  34320  292.30 0855.11
2009/04/23 11:28:33.6     -16    208     42    209    214 355.5  11.4  34304  292.01 0855.11
2009/04/23 11:28:33.7       1    181     82    182    199   0.5  25.9  34318  292.25 0855.11
2009/04/23 11:28:33.8     -32    151     67    155    168 348.0  24.9  34318  292.25 0855.11
2009/04/23 11:28:33.9      39    128     78    134    155  16.9  33.4  34314  292.20 0855.11
2009/04/23 11:28:34.0      65    155    124    169    209  22.7  39.9  34304  292.01 0855.11
2009/04/23 11:28:34.1     109    175    123    207    240  31.9  33.5  34268  291.40 0855.11
2009/04/23 11:28:34.2      91    193    -25    214    216  25.2  -6.9  34236  290.86 0855.11
2009/04/23 11:28:34.3     -30    175    -84    178    196 350.2 -31.5  34240  290.92 0855.11
2009/04/23 11:28:34.4    -128    116    -69    173    186 312.2 -27.4  34248  291.06 0855.11
2009/04/23 11:28:34.5    -143     56    -65    154    167 291.7 -28.7  34240  290.94 0855.11
2009/04/23 11:28:34.6    -134    -38    -41    140    145 254.1 -21.2  34252  291.13 0855.11
2009/04/23 11:28:34.7    -218     65    -59    228    236 286.8 -14.7  34256  291.21 0855.11
2009/04/23 11:28:34.8    -298     47    -86    302    314 279.0 -15.9  34238  290.88 0855.11
2009/04/23 11:28:34.9    -277    141    -17    311    312 297.0  -3.1  34210  290.42 0855.11
2009/04/23 11:28:35.0    -205     39    -72    209    222 280.8 -19.1  34212  290.45 0855.11
2009/04/23 11:28:35.1    -143     -4    -39    144    150 268.3 -15.4  34220  290.58 0855.11
2009/04/23 11:28:35.2    -141    -47    -51    149    158 251.4 -18.9  34250  291.09 0855.11
2009/04/23 11:28:35.3    -170   -139    -71    220    232 230.7 -18.1  34270  291.43 0855.11
2009/04/23 11:28:35.4    -147   -209    -81    256    269 215.1 -17.6  34246  291.02 0855.11
2009/04/23 11:28:35.5    -220   -186    -98    289    306 229.8 -18.7  34242  290.95 0855.11
2009/04/23 11:28:35.6    -199   -219    -90    297    311 222.3 -17.0  34246  291.02 0855.11
2009/04/23 11:28:35.7    -165   -302    -80    345    355 208.7 -13.2  34268  291.42 0855.11
2009/04/23 11:28:35.8    -131   -335   -122    360    381 201.4 -18.7  34188  290.04 0855.11
2009/04/23 11:28:35.9     -92   -353   -128    365    386 194.6 -24.4  34212  290.47 0855.11
2009/04/23 11:28:36.0    -123   -299   -208    324    385 202.5 -40.0  34232  290.79 0855.11
2009/04/23 11:28:36.1    -193   -321   -114    375    391 211.0 -21.7  34230  290.76 0855.11
2009/04/23 11:28:36.2    -188   -339   -123    388    408 209.0 -17.7  34242  290.98 0855.11
2009/04/23 11:28:36.3    -159   -296     78    337    347 208.3  13.1  34276  291.54 0855.11
2009/04/23 11:28:36.4     -78   -302    -53    312    317 194.5  -9.7  34272  291.46 0855.11
2009/04/23 11:28:36.5     -96   -262    -50    280    285 200.1 -10.1  34292  291.80 0855.11
2009/04/23 11:28:36.6     -46   -224    -69    229    239 191.8 -21.7  34258  291.24 0855.11
2009/04/23 11:28:36.7     -50   -266    -74    271    282 190.7 -15.4  34258  291.22 0855.11
2009/04/23 11:28:36.8     -30   -192    -54    195    202 189.1 -20.0  34272  291.47 0855.11
2009/04/23 11:28:36.9     -58   -148      0    160    161 201.4  -0.3  34250  291.11 0855.11
2009/04/23 11:28:37.0       0   -131     45    132    140 180.0  18.9  34248  291.06 0855.11
2009/04/23 11:28:37.1       0    -47    -13     48     50 180.0 -15.5  34252  291.15 0855.11
2009/04/23 11:28:37.2     100    -13    -81    101    129  97.9 -47.7  34240  290.94 0855.11
2009/04/23 11:28:37.3     181      1    -23    182    184  89.6  -7.5  34220  290.58 0855.11
2009/04/23 11:28:37.4     188      0     15    189    190  90.0   4.6  34208  290.38 0855.11
2009/04/23 11:28:37.5     159     -2     29    160    163  91.0  10.3  34208  290.38 0855.11
2009/04/23 11:28:37.6     126     27     62    130    144  77.6  27.3  34210  290.43 0855.11
2009/04/23 11:28:37.7     177     24    115    179    212  82.1  35.6  34242  290.96 0855.11
2009/04/23 11:28:37.8     218      4    260    219    339  88.7  55.7  34286  291.70 0855.11
2009/04/23 11:28:37.9     230    -40    196    234    305  99.9  43.8  34214  290.48 0855.11
2009/04/23 11:28:38.0     291    106    219    310    379  70.0  38.7  34254  291.18 0855.11
2009/04/23 11:28:38.1     294    149    111    330    349  63.1  18.6  34280  291.62 0855.11
2009/04/23 11:28:38.2     311    166    236    353    424  61.9  36.9  34316  292.23 0855.11
2009/04/23 11:28:38.3     293    114    270    315    414  68.7  45.0  34336  292.56 0855.11
2009/04/23 11:28:38.4     308    211    121    374    394  55.5  18.0  34276  291.54 0855.11
2009/04/23 11:28:38.5     249    142    213    287    357  60.2  40.2  34322  292.32 0855.11
2009/04/23 11:28:38.6     462    238     44    520    523  62.7   4.9  34230  290.75 0855.11
2009/04/23 11:28:38.7     462    252      6    527    528  61.4   0.7  34190  290.09 0855.11
2009/04/23 11:28:38.8     355    229     27    423    424  57.1   3.7  34186  290.00 0855.11
2009/04/23 11:28:38.9     157    329     52    365    369  25.5   8.2  34198  290.21 0855.11
2009/04/23 11:28:39.0     232    285    -68    368    375  39.1 -10.5  34208  290.37 0855.11
2009/04/23 11:28:39.1     178    278     44    331    334  32.6   7.6  34208  290.38 0855.11
2009/04/23 11:28:39.2     217    296     64    368    374  36.3   9.9  34202  290.28 0855.11
2009/04/23 11:28:39.3     136    335     56    362    367  22.2   8.9  34216  290.52 0855.11
2009/04/23 11:28:39.4      43    359     80    362    371   7.0  12.5  34232  290.81 0855.10
2009/04/23 11:28:39.5     223    342    236    409    472  33.1  32.7  34274  291.52 0855.10
2009/04/23 11:28:39.6     303    220    192    375    421  54.1  29.2  34286  291.70 0855.10
2009/04/23 11:28:39.7     508    255    213    569    607  63.3  21.5  34278  291.56 0855.10
2009/04/23 11:28:39.8     528    338    236    628    670  57.4  21.6  34254  291.16 0855.10
2009/04/23 11:28:39.9     446    432    201    622    654  45.9  17.9  34258  291.23 0855.10
2009/04/23 11:28:40.0     357    353    103    503    514  45.4  11.6  34218  290.54 0855.10
2009/04/23 11:28:40.1     297    321    193    438    478  42.8  25.3  34236  290.85 0855.10
2009/04/23 11:28:40.2     199    400    200    447    489  26.5  25.7  34204  290.32 0855.10
2009/04/23 11:28:40.3     466    409     48    621    624  48.7   4.5  34200  290.26 0855.10
2009/04/23 11:28:40.4     427    363      7    561    562  49.6   0.8  34194  290.16 0855.10
2009/04/23 11:28:40.5     419    319      2    527    528  52.7   0.2  34192  290.13 0855.10
2009/04/23 11:28:40.6     344    352    -41    493    495  44.3  -4.9  34204  290.32 0855.10
2009/04/23 11:28:40.7     285    325    -21    433    434  41.3  -2.8  34198  290.22 0855.10
2009/04/23 11:28:40.8     320    329     53    459    463  44.2   6.6  34204  290.31 0855.10
2009/04/23 11:28:40.9     404    336    113    526    539  50.2  12.1  34202  290.30 0855.10
2009/04/23 11:28:41.0     405    312     95    512    521  52.4  10.6  34238  290.91 0855.10
2009/04/23 11:28:41.1     331    263    134    423    444  51.5  17.7  34268  291.40 0855.10
2009/04/23 11:28:41.2     371    311    127    485    502  50.0  14.7  34282  291.63 0855.10
2009/04/23 11:28:41.3     498    317    139    591    608  57.5  13.2  34250  291.10 0855.10
2009/04/23 11:28:41.4     528    262     98    590    599  63.6   9.5  34242  290.95 0855.08
2009/04/23 11:28:41.5     594    381    237    707    747  57.3  18.6  34192  290.11 0855.08
2009/04/23 11:28:41.6     373    381    194    534    568  44.4  21.0  34156  289.50 0855.08
2009/04/23 11:28:41.7     185    407     74    448    455  24.4   9.5  34158  289.55 0855.08
2009/04/23 11:28:41.8     203    292    181    356    399  34.8  29.1  34166  289.69 0855.08
2009/04/23 11:28:41.9     196    312    119    369    388  32.1  17.9  34198  290.20 0855.08
2009/04/23 11:28:42.0     189    279    143    338    367  34.2  24.3  34260  291.27 0855.08
2009/04/23 11:28:42.1     221    228    165    318    358  44.1  29.5  34242  290.98 0855.08
2009/04/23 11:28:42.2     389    172    137    426    448  66.1  17.9  34218  290.55 0855.08
2009/04/23 11:28:42.3     455    181    134    490    508  68.3  15.3  34202  290.27 0855.08
2009/04/23 11:28:42.4     384    237    128    452    470  58.3  15.9  34204  290.33 0855.08
2009/04/23 11:28:42.5     422    215     30    474    475  63.0   3.7  34162  289.59 0855.08
2009/04/23 11:28:42.6     531    241    -32    584    585  65.6  -3.2  34148  289.37 0855.08
2009/04/23 11:28:42.7     487    285    -17    565    566  59.6  -1.8  34166  289.68 0855.08
2009/04/23 11:28:42.8     439    178    -56    474    478  67.9  -6.8  34158  289.54 0855.08
2009/04/23 11:28:42.9     302    123     36    327    330  67.8   6.4  34162  289.61 0855.08
2009/04/23 11:28:43.0     302    220      2    374    375  53.9   0.4  34160  289.57 0855.08
2009/04/23 11:28:43.1     254    161    -16    301    302  57.6  -3.1  34160  289.58 0855.08
2009/04/23 11:28:43.2     199    186     27    273    275  46.9   5.7  34160  289.56 0855.08
2009/04/23 11:28:43.3     183    142     11    232    233  52.2   2.8  34168  289.70 0855.08
2009/04/23 11:28:43.4     136    132      7    190    191  45.8   2.1  34158  289.55 0855.08
2009/04/23 11:28:43.5     149     93    -27    176    179  58.0  -9.0  34182  289.94 0855.08
2009/04/23 11:28:43.6     206     85     -8    223    224  67.6  -2.2  34186  290.02 0855.08
2009/04/23 11:28:43.7     258    112     68    282    291  66.5  13.7  34160  289.58 0855.08
2009/04/23 11:28:43.8     284    104     90    303    317  69.8  16.6  34162  289.61 0855.08
2009/04/23 11:28:43.9     295    177     45    345    348  59.0   7.5  34192  290.10 0855.08
2009/04/23 11:28:44.0     280    116    105    304    322  67.4  19.2  34226  290.68 0855.08
2009/04/23 11:28:44.1     278     87    109    292    311  72.5  21.0  34218  290.56 0855.08
2009/04/23 11:28:44.2     201     54    119    209    240  74.9  32.3  34224  290.65 0855.08
2009/04/23 11:28:44.3     118     55    157    131    204  64.8  56.1  34242  290.98 0855.08
2009/04/23 11:28:44.4      98     58    152    115    190  59.3  59.2  34238  290.89 0855.08
2009/04/23 11:28:44.5     126    -36    196    132    236 105.9  62.8  34282  291.66 0855.08
2009/04/23 11:28:44.6     203    -31    111    206    234  98.8  30.8  34274  291.50 0855.08
2009/04/23 11:28:44.7     212     15    129    213    249  85.9  34.2  34266  291.38 0855.08
2009/04/23 11:28:44.8     302     45    224    306    379  81.4  39.7  34262  291.30 0855.08
2009/04/23 11:28:44.9     309     37    124    312    335  83.0  23.0  34266  291.36 0855.08
2009/04/23 11:28:45.0     270    -67    131    279    308 104.1  27.1  34262  291.29 0855.08
2009/04/23 11:28:45.1     230      5     52    231    237  88.7  12.9  34242  290.95 0855.08
2009/04/23 11:28:45.2     174    -45     71    180    193 104.8  22.5  34254  291.16 0855.08
2009/04/23 11:28:45.3     200    -16     65    201    212  94.8  17.9  34266  291.38 0855.08
2009/04/23 11:28:45.4     219     28     78    221    235  82.5  19.6  34252  291.15 0855.08
2009/04/23 11:28:45.5     284    121     86    309    321  66.9  15.7  34220  290.58 0855.08
2009/04/23 11:28:45.6     296    172    101    343    358  59.8  16.5  34208  290.40 0855.08
2009/04/23 11:28:45.7     249    164    159    299    338  56.7  30.3  34234  290.82 0855.08
2009/04/23 11:28:45.8     220    171    136    279    310  52.2  27.4  34232  290.80 0855.08
2009/04/23 11:28:45.9     198    157    132    253    285  51.6  29.3  34234  290.82 0855.08
2009/04/23 11:28:46.0     203    137    146    246    286  55.9  33.5  34230  290.76 0855.08
2009/04/23 11:28:46.1     259     52    208    265    336  78.5  42.1  34242  290.95 0855.08
2009/04/23 11:28:46.2     281      7    199    282    345  88.5  38.7  34248  291.05 0855.08
2009/04/23 11:28:46.3     282    -96    243    298    384 108.8  43.6  34252  291.13 0855.08
2009/04/23 11:28:46.4     257    -19    158    258    302  94.4  34.5  34248  291.07 0855.08
2009/04/23 11:28:46.5     195     65    111    206    234  71.6  30.8  34242  290.98 0855.08
2009/04/23 11:28:46.6     216     63    106    226    249  73.6  27.1  34236  290.85 0855.08
2009/04/23 11:28:46.7     192      0     64    193    204  89.9  18.4  34234  290.84 0855.08
2009/04/23 11:28:46.8     125     59     69    139    155  64.8  28.2  34228  290.74 0855.08
2009/04/23 11:28:46.9     218     90     83    236    251  67.6  19.4  34236  290.87 0855.08
2009/04/23 11:28:47.0     204    112     19    233    234  61.1   4.9  34236  290.85 0855.08
2009/04/23 11:28:47.1     251    149     12    293    294  59.3   2.5  34236  290.87 0855.08
2009/04/23 11:28:47.2     183     25     36    185    189  82.0  11.1  34276  291.55 0855.08
2009/04/23 11:28:47.3     127    -81    141    151    206 122.5  47.9  34312  292.17 0855.07
2009/04/23 11:28:47.4     156   -245    117    291    313 147.5  23.2  34280  291.61 0855.07
2009/04/23 11:28:47.5      59   -288     75    295    305 168.4  14.3  34284  291.68 0855.07
2009/04/23 11:28:47.6      42   -352    198    355    406 173.2  31.6  34304  292.02 0855.07
2009/04/23 11:28:47.7      55   -335     47    340    344 170.6   8.0  34282  291.64 0855.07
2009/04/23 11:28:47.8      85   -257     54    271    277 161.7  11.4  34282  291.65 0855.07
2009/04/23 11:28:47.9      79   -293    -16    304    305 164.8  -3.1  34268  291.39 0855.07
2009/04/23 11:28:48.0      78   -232     32    246    249 161.3   7.5  34296  291.87 0855.07
2009/04/23 11:28:48.1      34   -227     15    230    231 171.3   3.8  34270  291.43 0855.07
2009/04/23 11:28:48.2      58   -131    -23    144    146 155.9  -9.3  34282  291.66 0855.07
2009/04/23 11:28:48.3     -73    -99      1    124    125 216.5   0.7  34276  291.55 0855.08
2009/04/23 11:28:48.4    -171   -113     15    206    207 236.5   4.2  34266  291.37 0855.08
2009/04/23 11:28:48.5    -146   -112    106    185    213 232.5  32.7  34296  291.89 0855.08
2009/04/23 11:28:48.6      29      9     74     31     80  71.6  76.1  34308  292.08 0855.08
2009/04/23 11:28:48.7    -136    -41    103    143    176 253.1  39.7  34302  292.00 0855.08
2009/04/23 11:28:48.8    -169   -113    108    204    230 236.3  30.1  34298  291.93 0855.08
2009/04/23 11:28:48.9    -183   -120     94    220    239 236.7  24.6  34296  291.89 0855.08
2009/04/23 11:28:49.0    -156   -129    104    203    228 230.4  29.2  34302  292.00 0855.08
2009/04/23 11:28:49.1    -140   -127     83    190    207 227.8  25.1  34298  291.93 0855.08
2009/04/23 11:28:49.2    -181   -234     92    296    311 217.8  17.3  34280  291.60 0855.08
2009/04/23 11:28:49.3    -171   -268    106    319    337 212.6  18.5  34270  291.44 0855.08
2009/04/23 11:28:49.4    -204   -238     53    314    319 220.5   9.7  34278  291.58 0855.08
2009/04/23 11:28:49.5    -251   -234     32    344    346 227.1   5.3  34268  291.42 0855.08
2009/04/23 11:28:49.6    -212   -226     78    311    321 223.2  14.2  34288  291.73 0855.08
2009/04/23 11:28:49.7    -200   -250     90    321    334 218.7  15.8  34250  291.11 0855.08
2009/04/23 11:28:49.8    -222   -209     67    306    314 226.7  12.5  34264  291.33 0855.08
2009/04/23 11:28:49.9    -175   -213    113    276    298 219.4  23.1  34276  291.55 0855.08
2009/04/23 11:28:50.0    -138   -191    153    236    281 215.8  35.7  34290  291.78 0855.08
2009/04/23 11:28:50.1    -136   -137    149    194    244 224.8  41.6  34284  291.69 0855.08
2009/04/23 11:28:50.2    -109   -173    184    205    275 212.1  46.6  34284  291.68 0855.08
2009/04/23 11:28:50.3     -51   -254    204    260    330 191.5  42.1  34238  290.88 0855.08
2009/04/23 11:28:50.4     113   -325    228    345    413 160.7  36.5  34206  290.35 0855.08
2009/04/23 11:28:50.5      13   -183    201    184    272 175.8  52.7  34264  291.33 0855.08
2009/04/23 11:28:50.6      -7   -249    245    250    350 181.8  49.7  34260  291.27 0855.08
2009/04/23 11:28:50.7     -94   -246    204    264    333 201.0  41.7  34198  290.20 0855.08
2009/04/23 11:28:50.8     -76   -300    144    310    341 194.3  27.0  34194  290.15 0855.08
2009/04/23 11:28:50.9    -110   -303    -68    323    331 200.0 -11.9  34194  290.14 0855.08
2009/04/23 11:28:51.0    -110   -316    -74    335    344 199.3 -12.5  34202  290.28 0855.08
2009/04/23 11:28:51.1      -6   -345    -98    346    359 181.1 -20.7  34208  290.38 0855.08
2009/04/23 11:28:51.2     101   -327    -59    343    349 162.8  -9.8  34208  290.37 0855.08
2009/04/23 11:28:51.3     138   -177     95    225    244 141.9  24.3  34194  290.14 0855.08
2009/04/23 11:28:51.4      40   -141    155    147    213 164.0  51.4  34198  290.23 0855.08
2009/04/23 11:28:51.5     -74   -185    224    200    300 201.8  53.7  34202  290.29 0855.08
2009/04/23 11:28:51.6    -102   -182    176    209    273 209.4  44.1  34208  290.37 0855.08
2009/04/23 11:28:51.7    -119   -188      8    223    224 212.5   2.1  34208  290.38 0855.08
2009/04/23 11:28:51.8      -3   -145    171    146    224 181.4  55.6  34200  290.25 0855.08
2009/04/23 11:28:51.9      10   -136    168    137    216 175.5  56.4  34206  290.35 0855.08
2009/04/23 11:28:52.0    -141   -213     40    256    260 213.6   9.0  34194  290.15 0855.08
2009/04/23 11:28:52.1    -129   -164   -101    209    232 218.3 -31.7  34194  290.14 0855.08
2009/04/23 11:28:52.2     -42   -181   -110    186    216 193.1 -37.9  34196  290.19 0855.08
2009/04/23 11:28:52.3     -32   -137   -107    141    177 193.3 -45.6  34198  290.23 0855.08
2009/04/23 11:28:52.4      34   -151    -86    155    177 167.1 -35.8  34202  290.28 0855.08
2009/04/23 11:28:52.5       2   -144    -77    145    164 179.0 -34.7  34202  290.28 0855.08
2009/04/23 11:28:52.6       3   -110    -37    111    118 178.2 -18.7  34206  290.35 0855.08
2009/04/23 11:28:52.7      18    -88    -56     90    106 168.0 -39.9  34208  290.40 0855.08
2009/04/23 11:28:52.8      25    -25    -43     36     56 135.0 -60.7  34208  290.38 0855.08
2009/04/23 11:28:52.9      71     14     49     73     87  78.5  37.0  34206  290.35 0855.08
2009/04/23 11:28:53.0      76     29     64     82    104  69.2  42.2  34204  290.31 0855.08
2009/04/23 11:28:53.1       5     34     97     35    103   9.8  79.7  34220  290.60 0855.08
2009/04/23 11:28:53.2     -22    -84    157     87    179 195.1  68.8  34208  290.38 0855.08
2009/04/23 11:28:53.3     -31   -136    152    140    206 192.9  52.5  34184  289.99 0855.08
2009/04/23 11:28:53.4      37    -75    118     84    144 153.3  60.6  34200  290.25 0855.08
2009/04/23 11:28:53.5     133    -68     90    150    174 117.1  34.2  34200  290.26 0855.08
2009/04/23 11:28:53.6     121   -146    133    190    231 140.3  38.4  34190  290.08 0855.08
2009/04/23 11:28:53.7     185   -122    127    222    255 123.5  32.1  34174  289.81 0855.08
2009/04/23 11:28:53.8      80    -60    152    100    181 126.9  63.9  34196  290.18 0855.08
2009/04/23 11:28:53.9     244    -41    122    248    276  99.6  28.2  34180  289.92 0855.08
2009/04/23 11:28:54.0     346    -96     86    360    371 105.5  13.5  34172  289.76 0855.08
2009/04/23 11:28:54.1     341   -172     18    382    383 116.8   2.8  34178  289.86 0855.08
2009/04/23 11:28:54.2     220     42     91    224    241  79.2  23.1  34180  289.90 0855.08
2009/04/23 11:28:54.3     200     90     36    220    223  65.6   9.3  34196  290.19 0855.08
2009/04/23 11:28:54.4     190    130    129    231    264  55.6  31.4  34214  290.49 0855.08
2009/04/23 11:28:54.5     207    122    105    241    262  59.4  25.1  34192  290.12 0855.08
2009/04/23 11:28:54.6     207     98    110    230    254  64.6  27.3  34182  289.95 0855.08
2009/04/23 11:28:54.7     110     56     57    124    136  62.9  26.6  34182  289.94 0855.08
2009/04/23 11:28:54.8      95     65      0    116    117  55.4  -0.3  34182  289.94 0855.08
2009/04/23 11:28:54.9      83     53     11     99    100  57.6   6.9  34184  289.99 0855.08
2009/04/23 11:28:55.0      49     35     12     61     63  54.0  11.0  34184  289.99 0855.08
2009/04/23 11:28:55.1      22     78     -4     82     83  15.6  -3.1  34178  289.87 0855.08
2009/04/23 11:28:55.2     -40     90     12     99    100 335.9   7.1  34186  290.01 0855.08
2009/04/23 11:28:55.3     -90     14      0     92     93 279.2  -0.3  34194  290.16 0855.08
2009/04/23 11:28:55.4     -76     29     55     82     98 290.8  37.0  34206  290.36 0855.08
2009/04/23 11:28:55.5     -87      6     41     88     97 274.4  26.6  34196  290.19 0855.08
2009/04/23 11:28:55.6    -152    127    -31    199    202 309.8  -9.0  34202  290.28 0855.08
2009/04/23 11:28:55.7    -150     90    -12    176    177 301.1  -4.1  34190  290.09 0855.08
2009/04/23 11:28:55.8    -250     55    -75    257    268 282.4 -16.4  34196  290.19 0855.08
2009/04/23 11:28:55.9    -169      0     -8    170    171 270.0  -2.8  34196  290.19 0855.08
2009/04/23 11:28:56.0    -117    -77     -9    141    142 236.7  -3.7  34192  290.13 0855.08
2009/04/23 11:28:56.1     -89    -63    -39    110    117 234.5 -19.6  34190  290.08 0855.08
2009/04/23 11:28:56.2     -89   -133      6    161    162 213.8   2.3  34184  289.97 0855.08
2009/04/23 11:28:56.3     -70   -123     65    142    156 209.9  26.6  34192  290.11 0855.08
2009/04/23 11:28:56.4    -115    -87     63    145    158 232.7  24.9  34192  290.11 0855.08
2009/04/23 11:28:56.5     -94   -140     99    169    195 213.8  33.1  34186  290.02 0855.08
2009/04/23 11:28:56.6     -83   -226    115    242    267 200.3  27.2  34176  289.85 0855.08
2009/04/23 11:28:56.7     -50   -205    174    212    274 193.8  43.7  34188  290.05 0855.08
2009/04/23 11:28:56.8    -221   -150     10    268    269 235.9   2.3  34194  290.14 0855.08
2009/04/23 11:28:56.9    -293   -215     34    364    366 233.7   5.4  34178  289.87 0855.08
2009/04/23 11:28:57.0    -295   -256    -21    391    392 229.0  -3.2  34172  289.79 0855.08
2009/04/23 11:28:57.1    -209   -167    -10    268    269 231.4  -2.2  34168  289.70 0855.08
2009/04/23 11:28:57.2    -217    -36    -44    220    225 260.5 -11.3  34182  289.94 0855.08
2009/04/23 11:28:57.3    -206     -3     40    207    211 269.1  11.1  34206  290.35 0855.08
2009/04/23 11:28:57.4    -203     15    -46    204    210 274.3 -12.9  34188  290.06 0855.08
2009/04/23 11:28:57.5    -329     95    -44    343    346 286.1  -7.3  34208  290.40 0855.08
2009/04/23 11:28:57.6    -307     91    -43    321    324 286.6  -7.7  34216  290.51 0855.08
2009/04/23 11:28:57.7    -268     71     67    278    287 285.0  13.7  34188  290.05 0855.08
2009/04/23 11:28:57.8    -301    -13     26    302    304 267.5   5.0  34204  290.32 0855.08
2009/04/23 11:28:57.9    -361   -264     87    448    457 233.8  11.0  34162  289.61 0855.08
2009/04/23 11:28:58.0    -364   -381     99    527    537 223.7  10.7  34174  289.80 0855.08
2009/04/23 11:28:58.1    -317   -192    197    371    420 238.7  30.3  34208  290.38 0855.08
2009/04/23 11:28:58.2    -206   -327    226    387    448 212.3  33.1  34174  289.82 0855.08
2009/04/23 11:28:58.3     -70   -414    146    420    445 189.6  19.2  34150  289.41 0855.10
2009/04/23 11:28:58.4     -41   -484     64    486    491 184.9   7.6  34148  289.37 0855.10
2009/04/23 11:28:58.5    -104   -516    166    527    553 191.5  17.5  34152  289.45 0855.10
2009/04/23 11:28:58.6       9   -616    240    617    662 179.1  22.4  34144  289.31 0855.10
2009/04/23 11:28:58.7      31   -629    145    630    647 177.1  13.0  34144  289.30 0855.10
2009/04/23 11:28:58.8     182   -567    228    596    638 162.2  22.0  34148  289.37 0855.10
2009/04/23 11:28:58.9     219   -515    232    560    606 157.0  23.8  34148  289.37 0855.10
2009/04/23 11:28:59.0     268   -517    210    583    619 152.6  20.8  34152  289.44 0855.10
2009/04/23 11:28:59.1     164   -520    283    546    614 162.4  29.3  34148  289.37 0855.10
2009/04/23 11:28:59.2     138   -429    316    451    550 162.1  38.5  34150  289.41 0855.10
2009/04/23 11:28:59.3     170   -350    181    390    429 154.1  26.6  34144  289.31 0855.10
2009/04/23 11:28:59.5     162   -350    132    386    409 155.1  18.9  34142  289.28 0855.10
2009/04/23 11:28:59.6     144   -385     49    412    415 159.4   6.8  34148  289.38 0855.10
2009/04/23 11:28:59.7     131   -314    -22    341    342 157.3  -3.7  34146  289.35 0855.10
2009/04/23 11:28:59.8      76   -540      2    546    547 172.0   0.2  34148  289.38 0855.10
2009/04/23 11:28:59.9      65   -524    -49    529    532 172.9  -5.3  34158  289.55 0855.10
2009/04/23 11:29:00.0      31   -512    -64    513    518 176.5  -7.2  34156  289.52 0855.10
2009/04/23 11:29:00.1       7   -483   -134    484    502 179.1 -20.2  34162  289.59 0855.10
2009/04/23 11:29:00.2     -10   -576   -164    577    599 181.0 -20.7  34160  289.56 0855.10
2009/04/23 11:29:00.3     -96   -301   -112    317    337 197.8 -19.5  34158  289.55 0855.10
2009/04/23 11:29:00.4    -317   -516    -14    606    607 211.6  -1.4  34172  289.78 0855.10
2009/04/23 11:29:00.5    -276   -539     29    606    607 207.2   2.8  34198  290.22 0855.10
2009/04/23 11:29:00.6    -201   -590     -5    624    625 198.8  -0.5  34198  290.21 0855.10
2009/04/23 11:29:00.7     -62   -518     59    522    526 186.9   6.5  34192  290.11 0855.10
2009/04/23 11:29:00.8     191   -514    -69    549    554 159.5  -7.2  34172  289.79 0855.10
2009/04/23 11:29:00.9     207   -458     77    503    509 155.7   8.7  34164  289.64 0855.10
2009/04/23 11:29:01.0     225   -473     16    525    526 154.5   1.8  34162  289.60 0855.10
2009/04/23 11:29:01.1      59   -603     76    606    611 174.3   7.2  34168  289.71 0855.10
2009/04/23 11:29:01.2     108   -634      5    644    645 170.3   0.5  34154  289.48 0855.10
2009/04/23 11:29:01.3     158   -605     59    626    629 165.3   5.5  34148  289.37 0855.10
2009/04/23 11:29:01.4     260   -558    264    616    670 155.0  24.6  34152  289.42 0855.10
2009/04/23 11:29:01.5     164   -560    313    584    662 163.6  30.5  34152  289.42 0855.10
2009/04/23 11:29:01.6     137   -453    377    474    605 163.1  42.7  34146  289.35 0855.10
2009/04/23 11:29:01.7     326   -358    423    485    643 137.7  45.6  34148  289.36 0855.10
2009/04/23 11:29:01.8     162   -231    300    283    412 145.0  52.1  34162  289.59 0855.10
2009/04/23 11:29:01.9      79   -245    211    258    333 162.1  43.5  34164  289.63 0855.10
2009/04/23 11:29:02.0      26   -136    168    139    218 168.9  56.4  34170  289.74 0855.10
2009/04/23 11:29:02.1     -29   -318    245    320    403 185.3  41.4  34152  289.45 0855.10
2009/04/23 11:29:02.2     -42   -368    229    371    435 186.6  34.6  34160  289.56 0855.10
2009/04/23 11:29:02.3     -16   -323    238    324    402 182.9  40.0  34152  289.42 0855.10
2009/04/23 11:29:02.4      -9   -465    187    466    502 181.1  23.0  34158  289.54 0855.11
2009/04/23 11:29:02.5    -119   -475     52    490    493 194.2   6.1  34142  289.28 0855.11
2009/04/23 11:29:02.6    -281   -263     38    385    387 226.9   5.7  34156  289.52 0855.11
2009/04/23 11:29:02.7    -175   -175     61    248    256 225.0  13.9  34160  289.56 0855.11
2009/04/23 11:29:02.8     -66   -203    132    214    251 198.0  35.0  34160  289.58 0855.11
2009/04/23 11:29:02.9    -186   -380     74    424    431 206.1   9.9  34150  289.39 0855.11
2009/04/23 11:29:03.0    -259   -405    -47    481    484 212.6  -5.6  34150  289.40 0855.11
2009/04/23 11:29:03.1    -127   -260    196    290    350 206.1  37.2  34162  289.59 0855.11
2009/04/23 11:29:03.2     101   -252    253    272    371 158.1  47.9  34158  289.54 0855.11
2009/04/23 11:29:03.3      96   -306    275    321    422 162.4  44.9  34162  289.60 0855.11
2009/04/23 11:29:03.4      90   -279    175    294    342 162.1  33.6  34162  289.61 0855.11
2009/04/23 11:29:03.5     177   -330    217    375    433 151.7  32.8  34164  289.65 0855.11
2009/04/23 11:29:03.6     207   -269     39    340    343 142.4   6.6  34164  289.64 0855.11
2009/04/23 11:29:03.7     212   -205    -41    296    299 134.0  -8.0  34162  289.61 0855.11
2009/04/23 11:29:03.8     289   -184    209    343    401 122.5  34.4  34158  289.54 0855.11
2009/04/23 11:29:03.9     348   -232    301    419    515 123.7  39.3  34164  289.64 0855.11
2009/04/23 11:29:04.0     386   -258    289    465    547 123.7  34.9  34162  289.62 0855.11
2009/04/23 11:29:04.1     371   -278    135    464    484 126.9  16.3  34166  289.69 0855.11
2009/04/23 11:29:04.2     302   -376    275    483    555 141.3  32.3  34162  289.60 0855.11
2009/04/23 11:29:04.3     467   -161    362    495    613 109.1  39.7  34166  289.66 0855.11
2009/04/23 11:29:04.4     452   -190    219    491    537 112.8  25.7  34168  289.70 0855.12
2009/04/23 11:29:04.5     417   -256    280    490    564 121.5  32.4  34166  289.68 0855.12
2009/04/23 11:29:04.6     472   -279    332    549    641 120.6  34.1  34164  289.64 0855.12
2009/04/23 11:29:04.7     393   -241    269    462    534 121.5  32.9  34156  289.52 0855.12
2009/04/23 11:29:04.8      90   -236    308    253    398 159.0  56.5  34148  289.37 0855.12
2009/04/23 11:29:04.9     246   -346    344    425    546 144.6  43.1  34162  289.62 0855.12
2009/04/23 11:29:05.0     132   -440    186    460    496 163.2  23.2  34156  289.52 0855.12
2009/04/23 11:29:05.1     362   -374     81    521    528 135.9   8.9  34160  289.58 0855.12
2009/04/23 11:29:05.2     226   -282     14    362    363 141.3   2.2  34162  289.59 0855.12
2009/04/23 11:29:05.3     148   -204    -36    253    256 144.0  -8.2  34166  289.66 0855.12
2009/04/23 11:29:05.4      30   -161    119    164    202 169.1  39.5  34158  289.53 0855.12
2009/04/23 11:29:05.5     178   -159    -71    239    249 131.8 -21.7  34164  289.63 0855.12
2009/04/23 11:29:05.6     311   -219     69    381    388 125.1  10.4  34160  289.57 0855.12
2009/04/23 11:29:05.7     163   -260    109    307    325 147.9  20.3  34158  289.53 0855.12
2009/04/23 11:29:05.8     -49   -386   -139    390    415 187.3 -19.7  34156  289.51 0855.12
2009/04/23 11:29:05.9     -80   -444     22    452    453 190.2   2.9  34166  289.68 0855.12
2009/04/23 11:29:06.0      25   -497    100    498    509 177.1  11.4  34162  289.62 0855.12
2009/04/23 11:29:06.1     248   -463     93    526    535 151.8  10.1  34160  289.57 0855.12
2009/04/23 11:29:06.2     343   -297    -12    454    455 130.9  -1.6  34170  289.73 0855.12
2009/04/23 11:29:06.3     274   -281     47    393    396 135.8   6.9  34162  289.60 0855.12
2009/04/23 11:29:06.4      65    -51    196     84    213 128.2  75.5  34166  289.67 0855.13
2009/04/23 11:29:06.5      72   -141    123    159    201 152.9  41.7  34170  289.74 0855.13
2009/04/23 11:29:06.6      67    -59    232     90    248 131.8  78.1  34172  289.77 0855.13
2009/04/23 11:29:06.7     112     -4    149    113    187  92.1  59.0  34180  289.92 0855.13
2009/04/23 11:29:06.8     181   -122    190    219    289 124.1  45.6  34180  289.90 0855.13
2009/04/23 11:29:06.9      62   -189    106    200    226 161.7  30.1  34174  289.82 0855.13
2009/04/23 11:29:07.0     -84   -128     70    154    169 213.4  26.4  34172  289.77 0855.13
2009/04/23 11:29:07.1    -117     74    -83    139    161 302.4 -38.1  34178  289.89 0855.13
2009/04/23 11:29:07.2     -38    174    -58    179    188 347.5 -23.3  34176  289.84 0855.13
2009/04/23 11:29:07.3      25    240     -9    242    243   6.0  -2.3  34176  289.83 0855.13
2009/04/23 11:29:07.4     123    259    -15    287    288  25.5  -3.2  34170  289.75 0855.13
2009/04/23 11:29:07.5     162    255    -64    303    310  32.5 -12.0  34174  289.81 0855.13
2009/04/23 11:29:07.6     189    122     81    226    240  57.1  20.4  34172  289.78 0855.13
2009/04/23 11:29:07.7     149    142     48    206    212  46.4  13.2  34174  289.82 0855.13
2009/04/23 11:29:07.8     262     46     47    267    272  79.9  10.1  34166  289.66 0855.13
2009/04/23 11:29:07.9     252    -94    206    270    339 110.6  41.2  34162  289.61 0855.13
2009/04/23 11:29:08.0     179   -179    182    254    312 134.9  39.1  34162  289.59 0855.13
2009/04/23 11:29:08.1      69   -106    173    127    214 147.0  60.3  34172  289.77 0855.13
2009/04/23 11:29:08.2     -80     86     86    118    146 317.2  39.7  34172  289.79 0855.13
2009/04/23 11:29:08.3     -38    115     81    122    146 341.5  36.5  34166  289.69 0855.13
2009/04/23 11:29:08.4     146    274     99    311    327  28.0  17.7  34166  289.68 0855.15
2009/04/23 11:29:08.5     214    215    216    304    372  44.8  39.1  34172  289.77 0855.15
2009/04/23 11:29:08.6     183    234    161    298    338  38.1  30.8  34174  289.81 0855.15
2009/04/23 11:29:08.7      74    180    161    195    252  22.5  43.7  34170  289.75 0855.15
2009/04/23 11:29:08.8     -23    212    181    214    280 353.8  44.8  34164  289.64 0855.15
2009/04/23 11:29:08.9      -1    124    196    125    232 359.5  64.7  34174  289.80 0855.15
2009/04/23 11:29:09.0    -147    154     35    214    217 316.3   9.5  34166  289.67 0855.15
2009/04/23 11:29:09.1     -26    109     41    113    120 346.2  20.9  34180  289.92 0855.15
2009/04/23 11:29:09.2     -31     -3     41     32     52 263.9  57.5  34180  289.91 0855.15
2009/04/23 11:29:09.3    -144     51    154    153    217 289.5  50.1  34182  289.96 0855.15
2009/04/23 11:29:09.4     -83     26    221     88    237 287.7  77.1  34184  289.99 0855.15
2009/04/23 11:29:09.5    -244    150     54    287    293 301.5  10.8  34166  289.68 0855.15
2009/04/23 11:29:09.6    -370    175    -51    410    414 295.4  -7.2  34168  289.70 0855.15
2009/04/23 11:29:09.7    -338    186     -7    386    387 298.9  -1.2  34162  289.60 0855.15
2009/04/23 11:29:09.8    -305    134    -61    334    340 293.7 -10.4  34178  289.89 0855.15
2009/04/23 11:29:09.9    -308      4    -52    309    314 270.8  -9.6  34176  289.83 0855.15
2009/04/23 11:29:10.0    -310     63     64    317    324 281.5  11.4  34156  289.49 0855.15
2009/04/23 11:29:10.1    -360     27    -46    361    364 274.4  -7.3  34162  289.60 0855.15
2009/04/23 11:29:10.2    -243   -277   -132    369    392 221.3 -19.7  34174  289.81 0855.15
2009/04/23 11:29:10.3    -121   -366    -39    386    389 198.3  -5.9  34166  289.67 0855.15
2009/04/23 11:29:10.4      49   -256     35    261    264 169.1   7.8  34168  289.71 0855.18
2009/04/23 11:29:10.5      20   -219     -1    221    222 174.7  -0.3  34166  289.69 0855.18
2009/04/23 11:29:10.6     -95   -194   -123    217    249 206.1 -36.7  34176  289.85 0855.18
2009/04/23 11:29:10.7    -160   -160   -246    227    334 225.0 -57.0  34178  289.86 0855.18
2009/04/23 11:29:10.8    -171     16   -153    172    230 275.5 -50.6  34174  289.80 0855.18
2009/04/23 11:29:10.9    -333      0   -110    334    351 270.0 -23.6  34174  289.82 0855.18
2009/04/23 11:29:11.0    -260    -51    -88    266    281 258.8 -18.3  34178  289.88 0855.18
2009/04/23 11:29:11.1    -215   -214   -104    304    321 225.1 -23.8  34190  290.07 0855.18
2009/04/23 11:29:11.2    -164   -104    -99    195    218 237.5 -33.6  34186  290.02 0855.18
2009/04/23 11:29:11.3    -199    -60    -74    208    221 253.2 -19.6  34200  290.26 0855.18
2009/04/23 11:29:11.4    -326    -85   -150    337    368 255.4 -30.0  34206  290.35 0855.18
2009/04/23 11:29:11.5    -233   -172   -135    290    319 233.6 -31.0  34176  289.83 0855.18
2009/04/23 11:29:11.6    -213   -130   -117    250    276 238.5 -31.4  34208  290.37 0855.18
2009/04/23 11:29:11.7    -271   -233   -124    358    378 229.2 -24.3  34202  290.27 0855.18
2009/04/23 11:29:11.8     -56   -255    -90    262    278 192.5 -19.1  34198  290.22 0855.18
2009/04/23 11:29:11.9    -139   -248   -163    285    328 209.4 -36.8  34208  290.37 0855.18
2009/04/23 11:29:12.0      84   -241    -49    256    261 160.8 -10.9  34202  290.27 0855.18
2009/04/23 11:29:12.1     133   -205     52    245    251 147.0  12.2  34206  290.34 0855.18
2009/04/23 11:29:12.2     214   -214    129    303    329 135.0  24.6  34186  290.00 0855.18
2009/04/23 11:29:12.3      92   -386    203    397    445 166.6  29.2  34166  289.68 0855.17
2009/04/23 11:29:12.4      15   -501    192    502    537 178.2  22.0  34162  289.60 0855.17
2009/04/23 11:29:12.5       4   -425    108    426    440 179.4  14.3  34160  289.58 0855.17
2009/04/23 11:29:12.6     107   -372    187    388    430 163.9  27.7  34154  289.48 0855.17
2009/04/23 11:29:12.7      44   -459    157    462    489 174.4  18.8  34156  289.49 0855.17
2009/04/23 11:29:12.8      72   -443    103    450    462 170.7  12.9  34158  289.55 0855.17
2009/04/23 11:29:12.9      79   -405    192    413    455 168.9  26.9  34166  289.66 0855.17
2009/04/23 11:29:13.0      38   -289    293    292    413 172.4  50.1  34164  289.65 0855.17
2009/04/23 11:29:13.1     -17   -230    239    231    332 184.4  51.1  34178  289.86 0855.17
2009/04/23 11:29:13.2       2   -263    289    264    391 179.5  53.2  34170  289.74 0855.17
2009/04/23 11:29:13.3      47   -261    216    266    342 169.8  43.5  34178  289.86 0855.16
2009/04/23 11:29:13.4      18   -298    219    299    370 176.4  39.7  34178  289.87 0855.16
2009/04/23 11:29:13.5      67   -131    191    148    241 152.9  58.5  34180  289.91 0855.16
2009/04/23 11:29:13.6     -23   -114    122    117    169 191.6  51.2  34182  289.94 0855.16
2009/04/23 11:29:13.7     -19   -364     81    365    375 183.1  12.6  34160  289.57 0855.16
2009/04/23 11:29:13.8     -90   -329     96    342    356 195.3  15.8  34154  289.48 0855.16
2009/04/23 11:29:13.9     -73   -310     85    319    331 193.4  15.0  34152  289.42 0855.16
2009/04/23 11:29:14.0     -43   -280    148    284    320 188.9  29.8  34156  289.51 0855.16
2009/04/23 11:29:14.1      88   -294    192    307    362 163.3  35.1  34162  289.60 0855.16
2009/04/23 11:29:14.2      84   -340    189    351    398 166.0  30.7  34164  289.64 0855.16
2009/04/23 11:29:14.3     157   -374    209    406    456 157.2  29.3  34154  289.46 0855.16
2009/04/23 11:29:14.4     219   -402    174    458    489 151.4  22.0  34160  289.56 0855.16
2009/04/23 11:29:14.5     133   -555     32    571    572 166.5   3.3  34154  289.46 0855.16
2009/04/23 11:29:14.6       0   -559     48    560    563 180.0   5.0  34152  289.43 0855.16
2009/04/23 11:29:14.7       0   -392    146    393    419 180.0  21.3  34160  289.58 0855.16
2009/04/23 11:29:14.8      49   -411    161    414    444 173.2  22.3  34164  289.63 0855.16
2009/04/23 11:29:14.9      19   -352    142    353    380 176.8  23.0  34162  289.59 0855.16
2009/04/23 11:29:15.0      10   -294    136    295    324 178.0  26.5  34164  289.63 0855.16
2009/04/23 11:29:15.1      55   -294    121    300    323 169.3  23.2  34162  289.61 0855.16
2009/04/23 11:29:15.2       3   -348    133    349    373 179.4  22.0  34162  289.62 0855.16
2009/04/23 11:29:15.3     -48   -403    143    406    431 186.9  19.5  34168  289.70 0855.12
2009/04/23 11:29:15.4     -54   -374    126    378    399 188.2  18.4  34174  289.81 0855.12
2009/04/23 11:29:15.5      41   -104    177    113    209 158.2  64.6  34174  289.82 0855.12
2009/04/23 11:29:15.6      41   -262    131    266    296 171.1  28.0  34166  289.68 0855.12
2009/04/23 11:29:15.7     -57   -322     98    328    343 190.1  16.6  34160  289.57 0855.12
2009/04/23 11:29:15.8      21   -237     92    238    255 174.9  22.3  34166  289.68 0855.12
2009/04/23 11:29:15.9      77   -193    210    208    295 158.2  50.1  34166  289.68 0855.12
2009/04/23 11:29:16.0      92   -303    208    317    379 163.1  36.3  34168  289.72 0855.12
2009/04/23 11:29:16.1     101   -252    185    272    328 158.1  37.4  34160  289.58 0855.12
2009/04/23 11:29:16.2      -6    -66    145     67    159 185.3  73.5  34170  289.75 0855.12
2009/04/23 11:29:16.3      30   -177    163    180    242 170.2  47.0  34162  289.62 0855.12
2009/04/23 11:29:16.4     -13   -267    115    268    291 182.9  24.9  34166  289.68 0855.12
2009/04/23 11:29:16.5     -47   -275    111    279    300 189.7  23.0  34168  289.71 0855.12
2009/04/23 11:29:16.6      65   -322     64    329    336 168.6  11.0  34170  289.74 0855.12
2009/04/23 11:29:16.7      94   -308     69    323    331 163.1  12.2  34170  289.75 0855.12
2009/04/23 11:29:16.8     111   -291    142    312    342 159.0  26.4  34168  289.72 0855.12
2009/04/23 11:29:16.9      38   -272    167    275    321 172.0  34.2  34160  289.58 0855.12
2009/04/23 11:29:17.0      27   -339    137    341    367 175.4  23.0  34164  289.65 0855.12
2009/04/23 11:29:17.1       5   -413     88    414    424 179.2  12.1  34168  289.72 0855.12
2009/04/23 11:29:17.2      89   -436    162    446    474 168.4  20.9  34162  289.59 0855.12
2009/04/23 11:29:17.3      68   -517    167    522    549 172.4  17.8  34164  289.63 0855.12
2009/04/23 11:29:17.4      43   -456    196    459    499 174.6  24.6  34166  289.66 0855.12
2009/04/23 11:29:17.5      47   -401    130    404    425 173.3  17.9  34162  289.61 0855.12
2009/04/23 11:29:17.6      93   -334    181    347    391 164.3  29.8  34168  289.71 0855.12
2009/04/23 11:29:17.7      74   -415    132    422    443 169.9  17.4  34170  289.75 0855.12
2009/04/23 11:29:17.8      92   -373     60    385    390 166.1   9.0  34172  289.79 0855.12
2009/04/23 11:29:17.9       2   -319    131    320    345 179.5  23.5  34172  289.77 0855.12
2009/04/23 11:29:18.0     -35   -282    149    285    321 187.1  30.0  34166  289.66 0855.12
2009/04/23 11:29:18.1       0   -260    173    261    313 180.0  36.7  34148  289.37 0855.12
2009/04/23 11:29:18.2       5   -303    282    304    414 179.0  47.8  34152  289.45 0855.12
2009/04/23 11:29:18.3     -17   -344    296    345    454 182.9  45.0  34162  289.60 0855.12
2009/04/23 11:29:18.4       7   -302    239    303    385 178.6  42.3  34166  289.69 0855.12
2009/04/23 11:29:18.5      -8   -286    165    287    331 181.6  32.6  34168  289.71 0855.12
2009/04/23 11:29:18.6    -144   -432    149    456    480 198.5  18.1  34156  289.52 0855.12
2009/04/23 11:29:18.7    -178   -405    116    443    458 203.8  14.7  34158  289.55 0855.12
2009/04/23 11:29:18.8    -304   -327    -24    447    448 222.9  -3.2  34148  289.38 0855.12
2009/04/23 11:29:18.9    -162   -474     57    502    506 198.9   6.6  34160  289.56 0855.12
2009/04/23 11:29:19.0    -292   -297      6    417    418 224.5   0.9  34150  289.41 0855.12
2009/04/23 11:29:19.1    -156   -330    126    366    388 205.3  19.1  34166  289.69 0855.12
2009/04/23 11:29:19.2    -161   -382    145    415    440 202.9  19.3  34168  289.70 0855.12
2009/04/23 11:29:19.3     -55   -269    242    275    366 191.6  45.8  34162  289.60 0855.13
2009/04/23 11:29:19.4     -73   -308    140    317    346 193.4  25.3  34166  289.69 0855.13
2009/04/23 11:29:19.5    -202   -441      9    486    487 204.6   1.1  34156  289.52 0855.13
2009/04/23 11:29:19.6    -209   -488     72    531    536 203.2   7.8  34164  289.65 0855.13
2009/04/23 11:29:19.7    -274   -460    126    536    551 210.8  13.2  34164  289.63 0855.13
2009/04/23 11:29:19.8    -302   -473     58    562    566 212.6   6.0  34166  289.68 0855.13
2009/04/23 11:29:19.9    -314   -441     65    542    546 215.5   6.9  34164  289.63 0855.13
2009/04/23 11:29:20.0    -209   -390    139    443    465 208.3  17.4  34158  289.53 0855.13
2009/04/23 11:29:20.1    -207   -359    138    415    438 210.0  18.5  34158  289.53 0855.13
2009/04/23 11:29:20.2    -181   -281    193    335    386 212.8  32.7  34154  289.48 0855.13
2009/04/23 11:29:20.3    -133   -211    239    250    345 212.1  48.6  34168  289.71 0855.13
2009/04/23 11:29:20.4    -230   -292    167    372    407 218.3  25.9  34158  289.55 0855.13
2009/04/23 11:29:20.5    -178   -388    218    428    480 204.7  29.2  34164  289.63 0855.13
2009/04/23 11:29:20.6    -144   -362    138    390    413 201.7  20.3  34176  289.83 0855.13
2009/04/23 11:29:20.7     -93   -347    298    360    467 195.1  43.8  34174  289.80 0855.13
2009/04/23 11:29:20.8    -169   -180    271    248    367 223.2  52.9  34168  289.71 0855.13
2009/04/23 11:29:20.9    -149   -333    251    365    442 204.1  37.7  34164  289.65 0855.13
2009/04/23 11:29:21.0     -42   -303    214    307    374 188.0  38.4  34162  289.59 0855.13
2009/04/23 11:29:21.1     -81   -319    279    330    432 194.3  44.5  34158  289.54 0855.13
2009/04/23 11:29:21.2     -71   -324    240    332    409 192.5  39.5  34160  289.57 0855.13
2009/04/23 11:29:21.3     -87   -305    188    318    369 196.0  33.5  34162  289.59 0855.11
2009/04/23 11:29:21.4    -147   -371    219    400    456 201.7  31.3  34162  289.60 0855.11
2009/04/23 11:29:21.5     -90   -438    246    448    511 191.7  31.3  34158  289.54 0855.11
2009/04/23 11:29:21.6    -121   -410    204    428    474 196.5  27.3  34156  289.51 0855.11
2009/04/23 11:29:21.7     -99   -338    124    353    375 196.4  19.4  34158  289.55 0855.11
2009/04/23 11:29:21.8      17   -352    186    353    399 177.2  30.1  34158  289.55 0855.11
2009/04/23 11:29:21.9      80   -356    173    365    403 167.3  27.2  34156  289.50 0855.11
2009/04/23 11:29:22.0      42   -356    208    359    414 173.2  32.7  34160  289.57 0855.11
2009/04/23 11:29:22.1      91   -445    200    455    497 168.4  25.2  34154  289.47 0855.11
2009/04/23 11:29:22.2      94   -392    321    404    516 166.4  42.4  34166  289.66 0855.11
2009/04/23 11:29:22.3      54   -434    275    438    517 172.9  35.2  34162  289.62 0855.11
2009/04/23 11:29:22.4     102   -356    247    371    445 164.0  36.7  34162  289.60 0855.11
2009/04/23 11:29:22.5     140   -472    171    493    523 163.5  19.2  34162  289.61 0855.11
2009/04/23 11:29:22.6      30   -353    211    355    412 175.1  33.5  34156  289.50 0855.11
2009/04/23 11:29:22.7     217   -245    194    328    381 138.5  33.5  34154  289.48 0855.11
2009/04/23 11:29:22.8     108   -134    219    173    279 141.3  57.7  34162  289.59 0855.11
2009/04/23 11:29:22.9      96    -61    203    114    232 122.5  68.5  34168  289.70 0855.11
2009/04/23 11:29:23.0     237    -54    200    244    315 103.0  43.6  34164  289.63 0855.11
2009/04/23 11:29:23.1     280    -24    219    282    357  95.0  41.7  34162  289.60 0855.11
2009/04/23 11:29:23.2     291    -33    163    293    335  96.6  31.5  34158  289.54 0855.11
2009/04/23 11:29:23.3     257    -78    186    269    327 106.9  37.9  34164  289.63 0855.12
2009/04/23 11:29:23.4     111    -72    194    133    235 122.9  62.6  34164  289.63 0855.12
2009/04/23 11:29:23.5     168   -106    215    199    292 122.4  52.2  34160  289.56 0855.12
2009/04/23 11:29:23.6     138     -8    180    139    227  93.5  58.5  34158  289.55 0855.12
2009/04/23 11:29:23.7       8    -63    180     64    191 172.0  80.2  34166  289.69 0855.12
2009/04/23 11:29:23.8      68   -224    191    235    302 163.0  43.7  34160  289.58 0855.12
2009/04/23 11:29:23.9     142   -313    228    344    412 155.6  36.6  34158  289.55 0855.12
2009/04/23 11:29:24.0      67   -361    261    368    451 169.4  39.0  34160  289.58 0855.12
2009/04/23 11:29:24.1     190   -298    206    354    409 147.4  32.9  34158  289.54 0855.12
2009/04/23 11:29:24.2     130   -253    134    285    314 152.8  27.0  34156  289.51 0855.12
2009/04/23 11:29:24.3      76   -227    204    240    314 161.5  44.8  34158  289.54 0855.12
2009/04/23 11:29:24.4     104    -40    159    112    194 111.3  61.5  34172  289.77 0855.12
2009/04/23 11:29:24.5     178   -128    200    220    297 125.9  47.1  34164  289.64 0855.12
2009/04/23 11:29:24.6     214   -136    197    254    321 122.4  41.7  34160  289.56 0855.12
2009/04/23 11:29:24.7      57   -103    170    118    206 151.1  62.1  34164  289.63 0855.12
2009/04/23 11:29:24.8     -52     24    111     58    125 295.3  70.4  34192  290.11 0855.12
2009/04/23 11:29:24.9      -4    -52    142     53    151 184.5  79.1  34182  289.96 0855.12
2009/04/23 11:29:25.0     -20   -100    148    103    180 191.6  61.8  34172  289.77 0855.12
2009/04/23 11:29:25.1     -58    -81    125    100    160 215.6  57.5  34170  289.75 0855.12
2009/04/23 11:29:25.2     -61    -61     65     87    108 225.0  40.7  34172  289.77 0855.12
2009/04/23 11:29:25.3     -54     -4     69     55     88 265.7  56.4  34176  289.85 0855.14
2009/04/23 11:29:25.4     -91     28     -3     96     97 287.3  -2.2  34194  290.14 0855.14
2009/04/23 11:29:25.6     -73    -57    136     93    164 232.2  62.6  34192  290.13 0855.14
2009/04/23 11:29:25.6    -136   -213    218    253    333 212.6  45.1  34178  289.86 0855.14
2009/04/23 11:29:25.8    -308   -127     78    334    344 247.6  13.3  34188  290.06 0855.14
2009/04/23 11:29:25.9    -329   -146     44    361    364 246.0   7.1  34230  290.77 0855.14
2009/04/23 11:29:26.0    -266   -133    -21    298    299 243.4  -4.1  34248  291.05 0855.14
2009/04/23 11:29:26.1    -420   -137     45    442    445 251.9   5.9  34220  290.60 0855.14
2009/04/23 11:29:26.2    -342   -161      5    379    380 244.8   0.8  34238  290.89 0855.14
2009/04/23 11:29:26.3    -362     30     14    364    365 274.8   2.2  34218  290.55 0855.14
2009/04/23 11:29:26.4    -381    -71    -21    388    389 259.4  -3.1  34192  290.13 0855.14
2009/04/23 11:29:26.5    -345      9    -86    346    357 271.6 -14.1  34222  290.64 0855.14
2009/04/23 11:29:26.6    -326     46   -111    330    349 278.1 -18.7  34232  290.79 0855.14
2009/04/23 11:29:26.7    -356    107   -101    372    386 286.8 -15.2  34210  290.42 0855.14
2009/04/23 11:29:26.8    -331     76    -30    340    342 283.0  -5.2  34216  290.52 0855.14
2009/04/23 11:29:26.9    -308     94     11    323    324 286.9   2.1  34194  290.14 0855.14
2009/04/23 11:29:27.0    -503     37     -2    505    506 274.3  -0.3  34192  290.13 0855.14
2009/04/23 11:29:27.1    -443   -234    -20    502    503 242.1  -2.3  34192  290.13 0855.14
2009/04/23 11:29:27.2    -427    -60     21    432    433 261.9   2.9  34242  290.95 0855.14
2009/04/23 11:29:27.3    -351   -136     86    377    387 248.8  12.9  34232  290.81 0855.14
2009/04/23 11:29:27.4    -173   -202     71    267    277 220.6  15.0  34216  290.51 0855.16
2009/04/23 11:29:27.5    -234   -139    -15    273    274 239.4  -3.3  34198  290.22 0855.16
2009/04/23 11:29:27.6    -181   -157    -52    240    246 229.1 -12.4  34204  290.32 0855.16
2009/04/23 11:29:27.7    -193    -33    -47    196    202 260.3 -13.7  34206  290.35 0855.16
2009/04/23 11:29:27.8    -195   -216     62    292    299 222.1  12.2  34174  289.81 0855.16
2009/04/23 11:29:27.9    -162   -384     63    417    422 202.9   8.7  34160  289.56 0855.16
2009/04/23 11:29:28.0    -146   -314     38    347    350 205.0   6.4  34158  289.54 0855.16
2009/04/23 11:29:28.1    -247   -223     59    333    339 227.9  10.1  34164  289.64 0855.16
2009/04/23 11:29:28.2    -254   -178     27    311    313 234.9   5.1  34162  289.59 0855.16
2009/04/23 11:29:28.3    -245   -262    180    359    401 223.1  28.5  34160  289.57 0855.16
2009/04/23 11:29:28.4    -184   -305    247    357    434 211.1  38.0  34164  289.65 0855.16
2009/04/23 11:29:28.5     -31   -266    189    268    327 186.7  38.6  34156  289.51 0855.16
2009/04/23 11:29:28.6      43   -253    260    257    365 170.3  50.2  34168  289.72 0855.16
2009/04/23 11:29:28.7     122   -322    288    345    449 159.2  44.0  34170  289.75 0855.16
2009/04/23 11:29:28.8      58   -284    262    291    391 168.4  46.8  34172  289.76 0855.16
2009/04/23 11:29:28.9      -8   -334    224    335    402 181.5  36.9  34162  289.59 0855.16
2009/04/23 11:29:29.0     -58   -335     83    341    351 189.9  13.7  34166  289.69 0855.16
2009/04/23 11:29:29.1      38   -278     25    281    283 172.2   5.2  34168  289.70 0855.16
2009/04/23 11:29:29.2       4   -235     16    236    237 178.9   3.9  34164  289.63 0855.16
2009/04/23 11:29:29.3      19   -185    -24    187    189 174.0  -7.3  34172  289.77 0855.16
2009/04/23 11:29:29.4      24   -202    -67    204    214 173.1 -23.8  34168  289.72 0855.16
2009/04/23 11:29:29.5     -50   -265    -59    270    277 190.7 -12.4  34164  289.64 0855.16
2009/04/23 11:29:29.6     -84   -236     -9    251    252 199.8  -2.2  34170  289.73 0855.16
2009/04/23 11:29:29.7     -89   -187     59    208    217 205.4  16.0  34176  289.85 0855.16
2009/04/23 11:29:29.8    -181   -117     16    216    217 237.1   4.4  34182  289.94 0855.16
2009/04/23 11:29:29.9     -81    -54     59     98    114 236.3  34.4  34182  289.96 0855.16
2009/04/23 11:29:30.0      -8    -14     64     17     66 209.0  84.9  34184  289.99 0855.16
2009/04/23 11:29:30.1     -52     16    139     55    149 287.7  77.1  34198  290.23 0855.16
2009/04/23 11:29:30.2     -34     32    105     47    115 313.1  74.0  34200  290.25 0855.16
2009/04/23 11:29:30.3    -177     92    119    200    232 297.5  33.7  34188  290.04 0855.16
2009/04/23 11:29:30.4    -340    159     -7    376    377 295.1  -1.2  34178  289.86 0855.16
2009/04/23 11:29:30.5    -187     55   -206    195    283 286.4 -56.4  34156  289.49 0855.16
2009/04/23 11:29:30.6    -295   -158   -191    335    385 241.8 -36.7  34184  289.99 0855.16
2009/04/23 11:29:30.7    -391   -168   -145    426    450 246.7 -23.8  34172  289.78 0855.16
2009/04/23 11:29:30.8     -84   -382      6    392    393 192.5   0.9  34164  289.65 0855.16
2009/04/23 11:29:30.9    -119   -209    220    241    326 209.6  47.1  34172  289.76 0855.16
2009/04/23 11:29:31.0     -82   -129    124    153    196 212.5  43.5  34184  289.97 0855.16
2009/04/23 11:29:31.1      41    -51    115     66    132 141.3  67.7  34196  290.19 0855.16
2009/04/23 11:29:31.2    -117     99    179    154    236 310.0  55.0  34182  289.94 0855.16
2009/04/23 11:29:31.3     -84     22     64     88    108 285.1  39.7  34182  289.96 0855.16
2009/04/23 11:29:31.4      14   -116    -24    117    120 172.9 -11.9  34178  289.89 0855.16
2009/04/23 11:29:31.5     -15   -211    -45    212    217 184.2 -12.2  34176  289.84 0855.16
2009/04/23 11:29:31.6      -5   -217    -69    218    229 181.4 -17.6  34164  289.65 0855.16
2009/04/23 11:29:31.7     -68   -176      6    189    190 201.2   2.1  34176  289.84 0855.16
2009/04/23 11:29:31.8     -52   -162     46    171    178 197.8  15.2  34176  289.84 0855.16
2009/04/23 11:29:31.9    -141    -47     18    149    151 251.4   6.9  34180  289.92 0855.16
2009/04/23 11:29:32.0     -73    -34     54     81     97 244.8  36.0  34192  290.11 0855.16
2009/04/23 11:29:32.1    -106    -50     72    118    138 244.7  34.4  34188  290.04 0855.16
2009/04/23 11:29:32.2    -117    -16     56    119    131 262.0  27.1  34194  290.14 0855.16
2009/04/23 11:29:32.3    -158     11     71    159    174 274.3  25.9  34200  290.25 0855.16
2009/04/23 11:29:32.4    -234    -48     22    240    242 258.3   5.4  34242  290.97 0855.16
2009/04/23 11:29:32.5    -317   -105    -20    335    336 251.6  -3.5  34254  291.17 0855.16
2009/04/23 11:29:32.6    -162   -246     35    295    298 213.4   6.9  34196  290.17 0855.16
2009/04/23 11:29:32.7    -227    -38     38    231    235 260.3   9.5  34218  290.56 0855.16
2009/04/23 11:29:32.8     -46   -229    147    234    276 191.6  35.2  34174  289.81 0855.16
2009/04/23 11:29:32.9    -135   -360     36    385    387 200.6   5.5  34168  289.71 0855.16
2009/04/23 11:29:33.0    -106   -295    215    314    380 199.8  37.6  34172  289.76 0855.16
2009/04/23 11:29:33.1     -19   -138    277    140    310 188.0  71.4  34184  289.97 0855.16
2009/04/23 11:29:33.2      25    -84    267     88    281 163.1  80.7  34182  289.93 0855.16
2009/04/23 11:29:33.3      89    -89    196    127    233 134.9  64.6  34184  289.97 0855.16
2009/04/23 11:29:33.4      62   -268    196    276    338 166.9  39.0  34164  289.64 0855.17
2009/04/23 11:29:33.5     -63   -318    145    325    355 191.3  25.6  34174  289.81 0855.17
2009/04/23 11:29:33.6     -34   -257    197    260    326 187.6  40.9  34174  289.80 0855.17
2009/04/23 11:29:33.7     -23   -273    101    275    292 184.9  21.0  34174  289.81 0855.17
2009/04/23 11:29:33.8      -3   -349     86    350    361 180.6  13.9  34166  289.67 0855.17
2009/04/23 11:29:33.9     -49   -355    125    359    381 188.0  19.3  34164  289.65 0855.17
2009/04/23 11:29:34.0     -78   -311    153    321    355 194.2  27.3  34170  289.74 0855.17
2009/04/23 11:29:34.1      96   -223    146    244    284 156.6  33.5  34174  289.80 0855.17
2009/04/23 11:29:34.2      46   -262    167    267    314 170.0  35.0  34174  289.80 0855.17
2009/04/23 11:29:34.3     -14   -181    163    182    244 184.5  46.4  34176  289.84 0855.17
2009/04/23 11:29:34.4     -30   -230    190    233    300 187.6  43.7  34174  289.81 0855.17
2009/04/23 11:29:34.5     -24   -251    227    253    339 185.6  46.6  34176  289.85 0855.17
2009/04/23 11:29:34.6      -3   -289    202    290    353 180.7  38.4  34174  289.82 0855.17
2009/04/23 11:29:34.7      10   -221    185    222    288 177.4  43.8  34182  289.95 0855.17
2009/04/23 11:29:34.8      20   -260    213    261    336 175.5  43.5  34184  289.97 0855.17
2009/04/23 11:29:34.9     -48   -367     53    371    375 187.6   8.2  34164  289.65 0855.17
2009/04/23 11:29:35.0     -70   -343     50    351    355 191.6   8.1  34158  289.55 0855.17
2009/04/23 11:29:35.1     -59   -315     34    321    323 190.6   6.1  34166  289.68 0855.17
2009/04/23 11:29:35.2     -57   -277    140    284    316 191.8  28.2  34178  289.88 0855.17
2009/04/23 11:29:35.3      51   -194    122    201    235 165.1  34.2  34182  289.94 0855.17
2009/04/23 11:29:35.4      52   -104    139    117    181 153.3  55.6  34196  290.19 0855.19
2009/04/23 11:29:35.5      48    -96    112    108    155 153.3  50.7  34188  290.06 0855.19
2009/04/23 11:29:35.6      32    -46     49     57     75 144.8  44.8  34182  289.96 0855.19
2009/04/23 11:29:35.7      58    -17     70     61     92 106.8  54.3  34188  290.06 0855.19
2009/04/23 11:29:35.8     -46     16     -6     49     50 290.0  -7.3  34192  290.11 0855.19
2009/04/23 11:29:35.9      11      0     12     12     16  89.2  50.1  34188  290.06 0855.19
2009/04/23 11:29:36.0      45    -30     36     55     65 124.2  35.6  34184  289.99 0855.19
2009/04/23 11:29:36.1      34    -63     84     72    110 151.1  55.4  34194  290.14 0855.19
2009/04/23 11:29:36.2     -68    -99    111    121    164 214.3  47.7  34192  290.13 0855.19
2009/04/23 11:29:36.3     -76   -120    117    143    184 212.5  43.7  34208  290.38 0855.19
2009/04/23 11:29:36.4    -145   -151     10    210    211 223.9   2.9  34220  290.58 0855.18
2009/04/23 11:29:36.5    -240    -48     35    245    248 258.6   8.2  34268  291.39 0855.18
2009/04/23 11:29:36.6    -246    -89     66    262    271 250.0  14.3  34256  291.21 0855.18
2009/04/23 11:29:36.7    -168    -69    102    182    208 247.4  31.6  34260  291.26 0855.18
2009/04/23 11:29:36.8    -157   -113     37    194    198 234.0  10.8  34258  291.23 0855.18
2009/04/23 11:29:36.9    -149    -56     52    160    169 249.2  17.9  34262  291.30 0855.18
2009/04/23 11:29:37.0     -74    -15     96     76    122 258.5  57.5  34258  291.23 0855.18
2009/04/23 11:29:37.1     -37    -14     77     40     86 248.3  70.4  34268  291.40 0855.18
2009/04/23 11:29:37.2     -12    -19     96     23     98 212.5  86.9  34248  291.06 0855.18
2009/04/23 11:29:37.3     -44    -44    105     63    122 225.0  66.7  34252  291.15 0855.18
2009/04/23 11:29:37.4    -105    -40     77    113    136 249.2  37.4  34278  291.57 0855.18
2009/04/23 11:29:37.5    -132      0     49    133    141 270.0  21.0  34268  291.40 0855.18
2009/04/23 11:29:37.6     -77      0     61     78     99 270.0  42.2  34250  291.11 0855.18
2009/04/23 11:29:37.7     -45    -25     74     52     90 240.2  61.5  34248  291.06 0855.18
2009/04/23 11:29:37.8     -43    -68     86     81    118 212.6  52.1  34262  291.30 0855.18
2009/04/23 11:29:37.9     -80    -56     65     98    117 234.9  37.0  34258  291.25 0855.18
2009/04/23 11:29:38.0    -121     -3     67    122    139 268.3  31.3  34248  291.08 0855.18
2009/04/23 11:29:38.1    -103     -6     56    104    118 266.5  30.8  34240  290.94 0855.18
2009/04/23 11:29:38.2     -22     39     38     46     59 330.1  43.7  34232  290.79 0855.18
2009/04/23 11:29:38.3     -49    113     42    124    132 336.4  18.9  34204  290.31 0855.18
2009/04/23 11:29:38.4     -67    151     34    166    170 335.9  11.6  34192  290.13 0855.17
2009/04/23 11:29:38.5    -107    128     14    167    168 320.1   4.9  34206  290.35 0855.17
2009/04/23 11:29:38.6     -70     88     26    113    117 321.7  13.2  34192  290.13 0855.17
2009/04/23 11:29:38.7     -38     65     37     76     84 329.3  27.8  34202  290.28 0855.17
2009/04/23 11:29:38.8      -8     60     21     61     65 352.0  19.4  34194  290.16 0855.17
2009/04/23 11:29:38.9      34     67     -9     76     77  27.2  -7.3  34190  290.08 0855.17
2009/04/23 11:29:39.0     -11     33    -23     35     41 341.3 -40.9  34192  290.13 0855.17
2009/04/23 11:29:39.1       6     80    -39     81     89   4.4 -31.7  34194  290.14 0855.17
2009/04/23 11:29:39.2      55    138    -54    149    158  21.9 -25.1  34188  290.04 0855.17
2009/04/23 11:29:39.3      83    141    -71    164    178  30.7 -29.0  34194  290.16 0855.17
2009/04/23 11:29:39.4      67    147   -103    162    191  24.5 -39.9  34206  290.35 0855.17
2009/04/23 11:29:39.5      51    128   -131    138    190  21.8 -52.9  34200  290.26 0855.17
2009/04/23 11:29:39.6      87     28    -98     92    134  71.8 -56.0  34208  290.40 0855.17
2009/04/23 11:29:39.7      44    -28    -59     53     79 122.4 -57.1  34212  290.45 0855.17
2009/04/23 11:29:39.8      54     46     56     71     90  49.6  42.7  34216  290.52 0855.17
2009/04/23 11:29:39.9     -18     56    117     59    131 341.7  71.4  34220  290.60 0855.17
2009/04/23 11:29:40.0      -3    -10    104     11    104 198.5  90.0  34232  290.79 0855.17
2009/04/23 11:29:40.1      66     31     56     74     92  64.8  41.7  34198  290.23 0855.17
2009/04/23 11:29:40.2     132     44    123    140    186  71.4  45.8  34194  290.16 0855.17
2009/04/23 11:29:40.3     115     13    111    116    160  83.4  48.7  34188  290.04 0855.17
2009/04/23 11:29:40.4      41     47     81     63    102  41.4  57.9  34198  290.21 0855.13
2009/04/23 11:29:40.5      28     35     69     46     82  38.7  63.2  34208  290.38 0855.13
2009/04/23 11:29:40.6      88    -17     52     90    103 101.0  32.9  34196  290.18 0855.13
2009/04/23 11:29:40.7     132      8     25    133    136  86.5  11.0  34170  289.74 0855.13
2009/04/23 11:29:40.8     115    108    -20    159    161  46.8  -7.2  34178  289.87 0855.13
2009/04/23 11:29:40.9     281    134     85    312    324  64.5  15.3  34200  290.26 0855.13
2009/04/23 11:29:41.0     288    201    148    352    381  55.2  24.2  34216  290.52 0855.13
2009/04/23 11:29:41.1     237    169    236    292    375  54.5  43.1  34214  290.50 0855.13
2009/04/23 11:29:41.2     253    157    246    298    386  58.2  43.7  34192  290.10 0855.13
2009/04/23 11:29:41.3     293    154    190    332    382  62.3  32.3  34196  290.18 0855.13
2009/04/23 11:29:41.4     156    259    227    303    378  31.2  40.6  34210  290.42 0855.13
2009/04/23 11:29:41.5     183    161     83    244    258  48.7  18.9  34196  290.17 0855.13
2009/04/23 11:29:41.6     234    181     15    297    298  52.3   2.9  34206  290.34 0855.13
2009/04/23 11:29:41.7      63    186    157    197    251  18.9  42.7  34204  290.31 0855.13
2009/04/23 11:29:41.8      80    241    111    255    278  18.5  25.1  34208  290.39 0855.13
2009/04/23 11:29:41.9     109    203     64    231    240  28.3  15.6  34202  290.29 0855.13
2009/04/23 11:29:42.0     243    233     91    337    350  46.2  15.2  34198  290.20 0855.13
2009/04/23 11:29:42.1     207    226    148    307    340  42.4  27.4  34196  290.18 0855.13
2009/04/23 11:29:42.2     140    183    139    231    269  37.4  34.0  34200  290.26 0855.13
2009/04/23 11:29:42.3     175     77    127    192    230  66.3  36.5  34196  290.18 0855.13
2009/04/23 11:29:42.4     122     22     57    125    137  79.4  26.2  34192  290.13 0855.13
2009/04/23 11:29:42.5     300    225    -73    376    384  53.2 -11.0  34188  290.04 0855.13
2009/04/23 11:29:42.6     224    225     44    318    322  44.9   8.0  34166  289.68 0855.13
2009/04/23 11:29:42.7     185    223    222    291    366  39.7  41.3  34188  290.06 0855.13
2009/04/23 11:29:42.8      27    140    202    143    247  11.1  61.5  34200  290.26 0855.13
2009/04/23 11:29:42.9       6    136    191    137    235   2.6  60.6  34204  290.31 0855.13
2009/04/23 11:29:43.0     -28    133    200    136    241 348.0  62.7  34202  290.30 0855.13
2009/04/23 11:29:43.1      -7     22     80     24     83 341.7  82.3  34212  290.47 0855.13
2009/04/23 11:29:43.2     -31     52     79     61     99 329.3  58.5  34208  290.38 0855.13
2009/04/23 11:29:43.3    -129     97     98    162    189 306.9  34.2  34188  290.04 0855.13
2009/04/23 11:29:43.4    -217    -67    115    228    255 252.7  28.7  34196  290.19 0855.13
2009/04/23 11:29:43.5    -208    -50     96    214    234 256.5  25.9  34192  290.11 0855.13
2009/04/23 11:29:43.6     -99   -104    121    144    188 223.7  44.1  34186  290.01 0855.13
2009/04/23 11:29:43.7    -129      0     97    130    162 270.4  40.7  34190  290.08 0855.13
2009/04/23 11:29:43.8     -72    -24     67     76    101 251.6  46.4  34196  290.19 0855.13
2009/04/23 11:29:43.9     -82    -49     55     96    110 238.9  32.4  34200  290.26 0855.13
2009/04/23 11:29:44.0       2    -25     55     26     60 175.5  72.9  34202  290.28 0855.13
2009/04/23 11:29:44.1      16    -36    135     40    140 156.4  83.3  34202  290.28 0855.13
2009/04/23 11:29:44.2     -40   -213    152    217    264 190.7  38.6  34202  290.29 0855.13
2009/04/23 11:29:44.3     -13   -284    201    285    348 182.7  38.7  34194  290.16 0855.11
2009/04/23 11:29:44.4     -77   -213    199    227    301 200.0  45.8  34198  290.22 0855.11
2009/04/23 11:29:44.5       1   -114    130    115    173 179.1  54.0  34200  290.26 0855.11
2009/04/23 11:29:44.6      41    -80     54     90    104 152.8  34.4  34204  290.31 0855.11
2009/04/23 11:29:44.7      34    -21     -1     41     42 122.4  -2.2  34204  290.31 0855.11
2009/04/23 11:29:44.8       5    -53     37     54     65 174.7  37.6  34196  290.19 0855.11
2009/04/23 11:29:44.9     -86    -69    122    111    164 231.4  53.0  34196  290.19 0855.11
2009/04/23 11:29:45.0    -147    -11    110    148    184 265.6  40.1  34200  290.26 0855.11
2009/04/23 11:29:45.1    -142   -203    211    248    325 215.0  44.7  34200  290.26 0855.11
2009/04/23 11:29:45.2     -87   -250    294    265    395 199.2  53.4  34204  290.33 0855.11
2009/04/23 11:29:45.3     -87   -318    208    330    390 195.3  35.5  34204  290.33 0855.11
2009/04/23 11:29:45.4    -135   -369    170    394    429 200.2  24.9  34214  290.48 0855.11
2009/04/23 11:29:45.5    -129   -318    173    344    385 202.2  28.6  34258  291.25 0855.11
2009/04/23 11:29:45.6    -225   -257    190    342    391 221.2  31.4  34256  291.20 0855.11
2009/04/23 11:29:45.7    -269   -225     96    351    364 230.1  15.3  34264  291.35 0855.11
2009/04/23 11:29:45.8    -294   -213     22    364    365 234.0   3.5  34256  291.20 0855.11
2009/04/23 11:29:45.9    -265   -199     39    332    335 233.2   6.7  34238  290.91 0855.11
2009/04/23 11:29:46.0    -305   -189    -54    359    364 238.2  -8.6  34216  290.52 0855.11
2009/04/23 11:29:46.1    -240   -169    -16    294    295 234.9  -3.2  34226  290.68 0855.11
2009/04/23 11:29:46.2    -311   -148     29    345    347 244.5   4.9  34240  290.94 0855.11
2009/04/23 11:29:46.3    -326   -104      0    343    344 252.3   0.1  34238  290.89 0855.10
2009/04/23 11:29:46.4    -376   -112    -17    393    394 253.3  -2.6  34246  291.03 0855.10
2009/04/23 11:29:46.5    -356   -258    -50    440    443 234.0  -6.6  34222  290.63 0855.10
2009/04/23 11:29:46.6    -312   -164    -58    353    358 242.3  -9.5  34228  290.71 0855.10
2009/04/23 11:29:46.7    -211   -207    -16    296    297 225.6  -3.2  34222  290.61 0855.10
2009/04/23 11:29:46.8    -248   -140    -77    285    296 240.5 -15.2  34222  290.61 0855.10
2009/04/23 11:29:46.9    -234   -232    -25    330    331 225.3  -4.4  34244  291.00 0855.10
2009/04/23 11:29:47.0    -142   -257    -59    294    300 209.0 -11.5  34234  290.83 0855.10
2009/04/23 11:29:47.1    -214   -212   -103    302    319 225.2 -23.8  34204  290.32 0855.10
2009/04/23 11:29:47.2    -106   -222    -50    247    253 205.5 -11.6  34222  290.63 0855.10
2009/04/23 11:29:47.3    -172   -194    -91    260    275 221.7 -24.4  34216  290.53 0855.10
2009/04/23 11:29:47.4    -262   -124   -118    291    314 244.6 -27.8  34188  290.05 0855.10
2009/04/23 11:29:47.5    -232   -153    -90    279    293 236.5 -22.9  34192  290.12 0855.10
2009/04/23 11:29:47.6    -282   -116   -230    306    382 247.6 -45.2  34156  289.50 0855.10
2009/04/23 11:29:47.7    -238    -74   -260    250    360 252.7 -55.6  34164  289.63 0855.10
2009/04/23 11:29:47.8    -122    -57   -204    135    244 244.8 -68.0  34164  289.65 0855.10
2009/04/23 11:29:47.9    -201    -90   -212    221    306 245.8 -53.1  34202  290.27 0855.10
2009/04/23 11:29:48.0    -219   -139   -140    260    295 237.5 -35.2  34232  290.78 0855.10
2009/04/23 11:29:48.1    -251   -123    -91    280    294 243.8 -23.0  34240  290.93 0855.10
2009/04/23 11:29:48.2    -199   -126    -78    236    249 237.6 -18.3  34262  291.31 0855.10
2009/04/23 11:29:48.3    -142   -201   -137    247    282 215.2 -35.8  34218  290.56 0855.11
2009/04/23 11:29:48.4    -170    -88   -130    192    231 242.5 -41.7  34212  290.47 0855.11
2009/04/23 11:29:48.5    -172    -96   -169    198    260 240.7 -49.2  34204  290.31 0855.11
2009/04/23 11:29:48.6    -190   -119   -200    225    301 238.0 -50.6  34224  290.65 0855.11
2009/04/23 11:29:48.7    -269    -73   -199    279    342 254.7 -43.6  34190  290.09 0855.11
2009/04/23 11:29:48.8    -102   -185   -116    212    241 208.9 -35.7  34196  290.19 0855.11
2009/04/23 11:29:48.9     -83   -142   -159    165    229 210.3 -53.6  34198  290.21 0855.11
2009/04/23 11:29:49.0    -200   -120   -151    234    278 238.9 -40.1  34210  290.42 0855.11
2009/04/23 11:29:49.1    -171   -169   -141    241    279 225.3 -37.5  34216  290.51 0855.11
2009/04/23 11:29:49.2    -384   -105   -200    399    446 254.6 -33.0  34174  289.82 0855.11
2009/04/23 11:29:49.3    -413    -16   -158    414    443 267.7 -26.4  34162  289.60 0855.11
2009/04/23 11:29:49.4    -434   -138   -122    456    473 252.3 -15.0  34198  290.23 0855.11
2009/04/23 11:29:49.5    -237   -185    -96    301    315 232.0 -22.6  34178  289.86 0855.11
2009/04/23 11:29:49.6    -296   -163   -119    338    358 241.1 -24.6  34162  289.62 0855.11
2009/04/23 11:29:49.7    -280    -57   -145    286    320 258.3 -33.3  34156  289.49 0855.11
2009/04/23 11:29:49.8    -449     96   -236    460    517 282.1 -33.6  34156  289.50 0855.11
2009/04/23 11:29:49.9    -486     57   -287    490    567 276.7 -37.3  34164  289.63 0855.11
2009/04/23 11:29:50.0    -347   -307   -192    464    502 228.5 -28.1  34164  289.64 0855.11
2009/04/23 11:29:50.1    -427   -104   -186    440    477 256.2 -28.6  34160  289.57 0855.11
2009/04/23 11:29:50.2    -438      6   -312    439    538 270.9 -43.5  34176  289.84 0855.11
2009/04/23 11:29:50.3    -433     35   -307    435    532 274.7 -43.1  34172  289.79 0855.10
2009/04/23 11:29:50.4    -461    -41   -315    463    559 264.8 -41.8  34162  289.62 0855.10
2009/04/23 11:29:50.5    -427   -205   -141    474    494 244.3 -21.4  34182  289.93 0855.10
2009/04/23 11:29:50.6    -339   -126   -209    362    418 249.6 -37.1  34172  289.79 0855.10
2009/04/23 11:29:50.7    -542   -174   -161    570    592 252.2 -20.4  34186  290.00 0855.10
2009/04/23 11:29:50.8    -580    -44    -11    582    583 265.6  -1.2  34172  289.76 0855.10
2009/04/23 11:29:50.9    -557    130   -136    572    589 283.2 -13.4  34156  289.52 0855.10
2009/04/23 11:29:51.0    -599    -24   -161    600    622 267.7 -15.0  34172  289.76 0855.10
2009/04/23 11:29:51.1    -563     79   -164    569    592 278.0 -20.8  34166  289.68 0855.10
2009/04/23 11:29:51.2    -654     -8   -259    655    704 269.3 -27.2  34184  289.97 0855.10
2009/04/23 11:29:51.3    -529   -147   -163    550    574 254.4 -16.5  34182  289.96 0855.10
2009/04/23 11:29:51.4    -406     49   -197    410    454 277.0 -31.7  34158  289.53 0855.10
2009/04/23 11:29:51.5    -438   -214   -102    488    499 243.9 -11.9  34160  289.56 0855.10
2009/04/23 11:29:51.6    -416   -104    -86    429    438 255.8 -11.3  34178  289.87 0855.10
2009/04/23 11:29:51.7    -476      0   -202    477    518 270.0 -28.9  34164  289.64 0855.10
2009/04/23 11:29:51.8    -516    -71   -208    521    560 262.1 -27.4  34154  289.48 0855.10
2009/04/23 11:29:51.9    -325   -134   -139    352    378 247.6 -27.2  34184  289.99 0855.10
2009/04/23 11:29:52.0    -270   -145   -120    307    329 241.6 -26.7  34200  290.24 0855.10
2009/04/23 11:29:52.2    -276   -176   -148    328    359 237.4 -30.3  34188  290.04 0855.10
2009/04/23 11:29:52.2    -250   -206   -157    325    360 230.5 -32.1  34182  289.96 0855.10
2009/04/23 11:29:52.4    -293   -174   -118    342    361 239.3 -23.9  34184  289.98 0855.10
2009/04/23 11:29:52.5    -242   -207    -97    319    334 229.5 -16.9  34188  290.04 0855.10
2009/04/23 11:29:52.6    -260   -224    -95    344    356 229.2 -20.0  34192  290.11 0855.10
2009/04/23 11:29:52.7    -282   -163   -127    326    349 240.0 -26.7  34188  290.04 0855.10
2009/04/23 11:29:52.8    -270   -205    -81    340    350 232.8 -13.4  34184  289.98 0855.10
2009/04/23 11:29:52.9    -295   -153    -66    333    340 242.5 -11.3  34192  290.11 0855.10
2009/04/23 11:29:53.0    -241   -137    -70    278    287 240.3 -14.3  34182  289.93 0855.10
2009/04/23 11:29:53.1    -238   -126    -82    270    283 242.1 -17.0  34178  289.88 0855.10
2009/04/23 11:29:53.2    -252   -130    -56    284    290 242.7 -11.3  34168  289.70 0855.10
2009/04/23 11:29:53.3    -216   -187      3    287    288 229.1   0.7  34166  289.68 0855.10
2009/04/23 11:29:53.4    -207   -172    -29    270    272 230.4  -6.2  34164  289.64 0855.10
2009/04/23 11:29:53.5    -224    -31    -65    227    236 262.1 -20.7  34164  289.64 0855.10
2009/04/23 11:29:53.6    -117   -173    -22    210    212 214.1  -6.0  34166  289.69 0855.10
2009/04/23 11:29:53.7    -228   -227    -88    322    335 225.1 -15.4  34168  289.72 0855.10
2009/04/23 11:29:53.8    -135   -244    -66    280    288 209.0 -13.3  34180  289.92 0855.10
2009/04/23 11:29:53.9    -149   -211    -60    259    266 215.4 -13.2  34176  289.85 0855.10
2009/04/23 11:29:54.0    -187   -209   -115    281    303 221.9 -27.8  34174  289.80 0855.10
2009/04/23 11:29:54.1    -174   -163    -86    239    254 226.8 -24.8  34166  289.68 0855.10
2009/04/23 11:29:54.2    -227     17    -94    228    246 274.4 -28.2  34152  289.42 0855.10
2009/04/23 11:29:54.3     -28    -83    -57     88    104 199.2 -40.0  34166  289.69 0855.10
2009/04/23 11:29:54.4      33    -37   -104     50    115 138.6 -77.2  34172  289.77 0855.12
2009/04/23 11:29:54.5      93   -201    -87    222    238 155.1 -26.7  34164  289.64 0855.12
2009/04/23 11:29:54.6      28   -351    -28    353    355 175.4  -4.6  34178  289.86 0855.12
2009/04/23 11:29:54.7      10   -380    -45    381    384 178.4  -6.8  34176  289.84 0855.12
2009/04/23 11:29:54.8      27   -353    -61    355    361 175.5  -9.8  34172  289.76 0855.12
2009/04/23 11:29:54.9      14   -326    -56    327    332 177.4  -9.8  34172  289.76 0855.12
2009/04/23 11:29:55.0       0   -290    -63    291    298 180.0 -12.4  34172  289.78 0855.12
2009/04/23 11:29:55.1      13   -338    -35    339    341 177.8  -6.0  34172  289.77 0855.12
2009/04/23 11:29:55.2      35   -367     -2    369    370 174.4  -0.4  34172  289.79 0855.12
2009/04/23 11:29:55.3      24   -309    -24    311    313 175.5  -4.5  34170  289.75 0855.12
2009/04/23 11:29:55.4      32   -207      8    210    211 171.1   2.3  34176  289.84 0855.12
2009/04/23 11:29:55.5      27   -237    -49    239    245 173.3 -11.6  34172  289.78 0855.12
2009/04/23 11:29:55.6      58   -228    -20    236    237 165.7  -5.1  34174  289.81 0855.12
2009/04/23 11:29:55.7      98   -144     37    175    179 145.9  12.0  34176  289.85 0855.12
2009/04/23 11:29:55.8      79   -167     40    185    190 154.7  12.2  34178  289.87 0855.12
2009/04/23 11:29:55.9      41   -159      0    165    166 165.3   0.2  34176  289.84 0855.12
2009/04/23 11:29:56.0      35   -208     40    212    216 170.3  10.8  34176  289.84 0855.12
2009/04/23 11:29:56.1      18   -299      1    300    301 176.4   0.2  34174  289.80 0855.12
2009/04/23 11:29:56.2       6   -281     -2    282    283 178.6  -0.5  34174  289.81 0855.12
2009/04/23 11:29:56.3      -7   -232    -59    233    241 181.8 -14.4  34176  289.85 0855.12
2009/04/23 11:29:56.4      63   -162    -26    175    177 158.6  -8.6  34176  289.84 0855.13
2009/04/23 11:29:56.5      67   -132     19    149    151 152.9   7.5  34176  289.85 0855.13
2009/04/23 11:29:56.6       7   -151    -40    152    158 177.3 -14.7  34172  289.79 0855.13
2009/04/23 11:29:56.7      15   -190     -4    191    192 175.3  -1.3  34180  289.91 0855.13
2009/04/23 11:29:56.8      48   -259     27    264    266 169.4   5.9  34172  289.78 0855.13
2009/04/23 11:29:56.9      57   -269    -11    276    277 168.0  -2.3  34170  289.73 0855.13
2009/04/23 11:29:57.0     196   -333    104    387    401 149.5  15.1  34172  289.79 0855.13
2009/04/23 11:29:57.1     335   -387    132    513    530 139.1  14.5  34170  289.74 0855.13
2009/04/23 11:29:57.2     249   -350    156    430    457 144.5  20.9  34174  289.82 0855.13
2009/04/23 11:29:57.3     284   -372    165    469    497 142.6  20.1  34172  289.79 0855.13
2009/04/23 11:29:57.4     142   -364    254    391    466 158.6  35.9  34180  289.90 0855.13
2009/04/23 11:29:57.5     132   -333    239    359    431 158.3  36.9  34178  289.87 0855.13
2009/04/23 11:29:57.6     -20   -214    240    216    322 185.6  53.5  34182  289.95 0855.13
2009/04/23 11:29:57.7      19     14    160     24    161  54.0  90.0  34212  290.45 0855.13
2009/04/23 11:29:57.8      -3     39    161     40    165 355.6  86.2  34218  290.57 0855.13
2009/04/23 11:29:57.9     -15     46    121     49    130 341.7  77.0  34214  290.48 0855.13
2009/04/23 11:29:58.0     -12     44    131     46    138 344.0  80.2  34214  290.48 0855.13
2009/04/23 11:29:58.1     124     32    128    129    181  75.4  50.0  34202  290.30 0855.13
2009/04/23 11:29:58.2      96     47    135    108    172  63.8  57.1  34206  290.35 0855.13
2009/04/23 11:29:58.3      31    -27    125     42    131 130.4  81.0  34206  290.35 0855.13
2009/04/23 11:29:58.4     -21      0    152     22    153 270.0  90.0  34202  290.28 0855.14
2009/04/23 11:29:58.5       0     34    159     35    162 359.1  87.7  34202  290.30 0855.14
2009/04/23 11:29:58.6    -121     92     81    153    173 307.3  30.3  34188  290.06 0855.14
2009/04/23 11:29:58.7    -102    -64     97    121    155 237.6  43.7  34182  289.94 0855.14
2009/04/23 11:29:58.8     -78   -142    142    163    216 208.9  45.8  34182  289.94 0855.14
2009/04/23 11:29:58.9    -116   -223    161    252    299 207.6  35.6  34182  289.93 0855.14
2009/04/23 11:29:59.0    -136   -207     86    248    263 213.4  19.2  34184  289.97 0855.14
2009/04/23 11:29:59.1     -68   -150    188    165    250 204.5  54.3  34186  290.01 0855.14
2009/04/23 11:29:59.2      -9   -139    134    140    193 184.0  49.0  34186  290.02 0855.14
2009/04/23 11:29:59.3      24   -117    116    120    166 168.4  49.2  34184  289.99 0855.14
2009/04/23 11:29:59.4      71   -128    107    147    181 151.0  39.7  34186  290.02 0855.12
2009/04/23 11:29:59.5      62   -155    115    168    203 158.2  37.6  34182  289.96 0855.12
2009/04/23 11:29:59.6       4   -133    137    134    191 178.2  50.7  34188  290.06 0855.12
2009/04/23 11:29:59.7     -21   -201    108    203    229 186.2  30.3  34190  290.08 0855.12
2009/04/23 11:29:59.8      12   -155     83    156    176 175.5  30.3  34192  290.11 0855.12
2009/04/23 11:29:59.9      -6   -117     90    118    148 183.1  41.6  34190  290.09 0855.12
2009/04/23 11:30:00.0      30   -115    115    119    165 165.3  49.2  34196  290.19 0855.12
2009/04/23 11:30:00.1     -37    -36     53     52     74 225.9  49.1  34184  289.99 0855.12
2009/04/23 11:30:00.2      36    -38     42     53     67 136.8  42.7  34186  290.02 0855.12
2009/04/23 11:30:00.3      45    -45     57     65     86 135.0  46.4  34194  290.14 0855.12
2009/04/23 11:30:00.4      57   -103     62    118    133 151.0  29.8  34188  290.04 0855.12
2009/04/23 11:30:00.5      12   -121     33    122    127 174.2  15.2  34190  290.08 0855.12
2009/04/23 11:30:00.6      21    -25     48     33     58 140.3  63.6  34188  290.04 0855.12
2009/04/23 11:30:00.7     -43    -42     52     61     80 226.0  44.8  34204  290.31 0855.12
2009/04/23 11:30:00.8     -50      3     32     51     60 274.3  35.5  34198  290.23 0855.12
2009/04/23 11:30:00.9     -40   -100    104    108    149 201.8  49.4  34186  290.02 0855.12
2009/04/23 11:30:01.0     -39    -57     87     70    111 214.3  56.4  34192  290.11 0855.12
2009/04/23 11:30:01.1     -65    -77    107    101    147 220.1  52.1  34196  290.19 0855.12
2009/04/23 11:30:01.2       3     42     72     43     83   4.5  66.2  34210  290.43 0855.12
2009/04/23 11:30:01.3      14     50     43     53     68  16.0  43.7  34206  290.35 0855.12
2009/04/23 11:30:01.4     -11     12      6     17     19 318.6  19.4  34202  290.30 0855.12
2009/04/23 11:30:01.5     -46     34     -2     58     59 306.9  -2.2  34194  290.14 0855.12
2009/04/23 11:30:01.6      29     14     20     33     38  64.8  35.5  34204  290.31 0855.12
2009/04/23 11:30:01.7     -47      2     35     48     59 272.6  39.7  34206  290.36 0855.12
2009/04/23 11:30:01.8      -4    -20     65     21     68 193.4  80.7  34224  290.65 0855.12
2009/04/23 11:30:01.9     -29     48     46     57     73 328.4  43.7  34230  290.75 0855.12
2009/04/23 11:30:02.0      -5     86     83     87    120 356.4  48.5  34224  290.65 0855.12
2009/04/23 11:30:02.1      61     96     41    114    121  32.5  20.9  34220  290.60 0855.12
2009/04/23 11:30:02.2      65    102     85    122    148  32.5  38.0  34220  290.60 0855.12
2009/04/23 11:30:02.3     106     36    122    113    166  70.9  52.5  34224  290.65 0855.12
2009/04/23 11:30:02.4      31     12    137     34    141  68.3  86.4  34238  290.91 0855.12
2009/04/23 11:30:02.5     100    210     85    233    248  25.5  20.9  34240  290.92 0855.12
2009/04/23 11:30:02.6      70     76    118    104    157  42.3  54.0  34230  290.77 0855.12
2009/04/23 11:30:02.7      41     68    121     80    145  31.6  64.1  34224  290.65 0855.12
2009/04/23 11:30:02.8       7      0    118      8    118  85.6  90.0  34224  290.67 0855.12
2009/04/23 11:30:02.9     154     47    150    162    220  72.9  47.9  34206  290.35 0855.12
2009/04/23 11:30:03.0     146     58    157    158    222  68.2  50.0  34200  290.25 0855.12
2009/04/23 11:30:03.1     118     10    182    119    217  84.8  64.1  34204  290.33 0855.12
2009/04/23 11:30:03.2     129    -30    132    133    187 103.3  50.0  34208  290.38 0855.12
2009/04/23 11:30:03.3     122    -17    135    124    183  97.9  52.5  34200  290.25 0855.12
2009/04/23 11:30:03.4     125    -33    135    130    187 105.0  51.2  34204  290.31 0855.10
2009/04/23 11:30:03.5     113    -77    127    137    186 124.2  47.9  34200  290.26 0855.10
2009/04/23 11:30:03.6     130    -26     99    133    165 101.4  40.4  34192  290.13 0855.10
2009/04/23 11:30:03.7      74    -19     82     77    112 105.1  52.1  34198  290.21 0855.10
2009/04/23 11:30:03.8      46    -45     79     65    102 134.9  56.3  34208  290.38 0855.10
2009/04/23 11:30:03.9      49     -9     62     50     79 100.6  56.9  34208  290.40 0855.10
2009/04/23 11:30:04.0      47      3     35     48     59  85.6  39.7  34208  290.38 0855.10
2009/04/23 11:30:04.1      73    -44     56     86    102 121.5  36.0  34210  290.41 0855.10
2009/04/23 11:30:04.2      14    -65     86     67    109 167.5  57.9  34202  290.30 0855.10
2009/04/23 11:30:04.3     -56    -89    102    106    147 212.5  49.0  34202  290.28 0855.10
2009/04/23 11:30:04.4     -95    -93    137    133    190 225.6  50.9  34216  290.52 0855.10
2009/04/23 11:30:04.5    -118    -97    116    153    192 230.5  41.2  34248  291.06 0855.10
2009/04/23 11:30:04.6     -98   -130     -6    163    164 217.0  -2.3  34236  290.87 0855.10
2009/04/23 11:30:04.7    -128    -81    -46    152    159 237.6 -17.0  34230  290.75 0855.10
2009/04/23 11:30:04.8    -178    -27    -36    181    185 261.2 -11.3  34208  290.40 0855.10
2009/04/23 11:30:04.9    -162    -36    -19    167    169 257.4  -6.7  34264  291.35 0855.10
2009/04/23 11:30:05.0    -114   -148    -25    187    189 217.6  -7.7  34210  290.41 0855.10
2009/04/23 11:30:05.1     -77    -92     81    121    145 220.1  37.0  34192  290.11 0855.10
2009/04/23 11:30:05.2     103   -201     65    226    236 152.8  16.0  34206  290.34 0855.10
2009/04/23 11:30:05.3     249   -346    182    427    464 144.3  24.6  34184  289.99 0855.10
2009/04/23 11:30:05.4     344   -388    122    519    534 138.5  13.3  34176  289.85 0855.08
2009/04/23 11:30:05.5     244   -381    228    453    507 147.4  28.8  34180  289.91 0855.08
2009/04/23 11:30:05.6     195   -235    298    306    427 140.4  49.2  34182  289.93 0855.08
2009/04/23 11:30:05.7     442   -261    120    514    528 120.6  13.2  34180  289.92 0855.08
2009/04/23 11:30:05.8     321   -259    230    413    472 128.9  31.6  34182  289.94 0855.08
2009/04/23 11:30:05.9     360   -237    210    432    480 123.4  27.8  34182  289.96 0855.08
2009/04/23 11:30:06.0     331   -177    121    376    396 118.2  17.9  34182  289.94 0855.08
2009/04/23 11:30:06.1     234   -183    144    298    330 128.0  27.7  34184  289.98 0855.08
2009/04/23 11:30:06.2     118   -220    151    250    292 151.7  34.2  34182  289.93 0855.08
2009/04/23 11:30:06.3      55   -190    184    198    270 163.7  47.9  34182  289.95 0855.08
2009/04/23 11:30:06.4       9   -230    153    231    277 177.8  36.7  34182  289.93 0855.08
2009/04/23 11:30:06.5    -142   -183     79    232    246 217.8  18.9  34202  290.29 0855.08
2009/04/23 11:30:06.6    -393     30     47    395    398 274.4   6.9  34198  290.23 0855.08
2009/04/23 11:30:06.7    -261      4    149    262    301 270.9  32.3  34214  290.49 0855.08
2009/04/23 11:30:06.8    -219     72    152    231    276 288.2  36.5  34208  290.37 0855.08
2009/04/23 11:30:06.9    -332     19     19    333    334 273.4   3.3  34232  290.81 0855.08
2009/04/23 11:30:07.0    -170      5    103    171    199 271.7  33.7  34240  290.94 0855.08
2009/04/23 11:30:07.1    -206   -186     76    278    289 228.0  15.3  34194  290.15 0855.08
2009/04/23 11:30:07.2    -199   -155    102    253    272 232.0  23.0  34200  290.24 0855.08
2009/04/23 11:30:07.3    -200    -15    129    201    238 265.7  35.7  34238  290.89 0855.08
2009/04/23 11:30:07.4    -257      8    100    258    276 271.9  22.3  34222  290.63 0855.09
2009/04/23 11:30:07.5    -267    100     21    286    287 290.6   4.4  34222  290.63 0855.09
2009/04/23 11:30:07.6    -246    128     87    278    292 297.5  17.4  34216  290.53 0855.09
2009/04/23 11:30:07.7    -224    -36    123    227    258 260.8  31.0  34204  290.32 0855.09
2009/04/23 11:30:07.8    -144    -40    -30    150    153 254.5 -11.3  34218  290.55 0855.09
2009/04/23 11:30:07.9    -294   -159    114    335    354 241.6  18.8  34208  290.38 0855.09
2009/04/23 11:30:08.0    -145   -134     90    198    217 227.1  26.2  34206  290.35 0855.09
2009/04/23 11:30:08.1    -170     47    107    177    206 285.7  34.2  34202  290.28 0855.09
2009/04/23 11:30:08.2    -199     52     -8    206    207 284.8  -2.3  34206  290.35 0855.09
2009/04/23 11:30:08.3    -229    201    192    306    361 311.3  35.3  34204  290.33 0855.09
2009/04/23 11:30:08.4    -238    126    214    270    344 298.0  42.6  34202  290.29 0855.09
2009/04/23 11:30:08.5    -233    147    165    276    321 302.4  33.7  34208  290.37 0855.09
2009/04/23 11:30:08.6    -258    124    161    287    329 295.8  31.9  34202  290.27 0855.09
2009/04/23 11:30:08.7     -37   -123    142    129    191 196.9  53.0  34224  290.67 0855.09
2009/04/23 11:30:08.8     -47   -115    124    125    176 202.3  50.5  34232  290.81 0855.09
2009/04/23 11:30:08.9    -180    140    111    229    254 308.0  27.8  34224  290.65 0855.09
2009/04/23 11:30:09.0    -163    166    154    233    279 315.5  36.5  34224  290.65 0855.09
2009/04/23 11:30:09.1     -96    137    133    168    214 325.0  42.4  34226  290.69 0855.09
2009/04/23 11:30:09.2      21    138    164    140    215   8.9  55.4  34216  290.52 0855.09
2009/04/23 11:30:09.3     -77    233    206    246    320 341.7  44.3  34210  290.42 0855.09
2009/04/23 11:30:09.4     -24    221    140    223    263 353.8  35.5  34216  290.53 0855.10
2009/04/23 11:30:09.5     -50    245    178    251    307 348.4  38.8  34220  290.58 0855.10
2009/04/23 11:30:09.6    -119    143    124    187    224 320.3  36.5  34230  290.75 0855.10
2009/04/23 11:30:09.7    -121     77    203    144    248 302.4  61.5  34234  290.82 0855.10
2009/04/23 11:30:09.8     -70     83    153    109    187 319.9  61.1  34224  290.67 0855.10
2009/04/23 11:30:09.9     -73     -1     82     74    110 269.2  53.3  34198  290.23 0855.10
2009/04/23 11:30:10.0     -37    101    100    108    147 339.5  47.9  34220  290.58 0855.10
2009/04/23 11:30:10.1     -41     42    118     59    131 315.8  71.9  34230  290.77 0855.10
2009/04/23 11:30:10.2      -5    -92    206     93    226 183.1  74.0  34206  290.36 0855.10
2009/04/23 11:30:10.3       2   -150    223    151    269 179.0  62.7  34202  290.27 0855.10
2009/04/23 11:30:10.4     -47    -80    245     93    262 210.7  78.2  34204  290.31 0855.10
2009/04/23 11:30:10.5      16   -113    206    115    235 172.0  68.8  34202  290.30 0855.10
2009/04/23 11:30:10.6      -6   -141    161    142    214 182.6  54.3  34200  290.25 0855.10
2009/04/23 11:30:10.7      94   -139    134    169    215 145.9  42.4  34208  290.38 0855.10
2009/04/23 11:30:10.8      59   -124     75    138    157 154.7  30.6  34202  290.30 0855.10
2009/04/23 11:30:10.9      82   -138     84    161    181 149.3  29.8  34208  290.38 0855.10
2009/04/23 11:30:11.0     -11   -136    136    137    193 184.9  50.2  34220  290.60 0855.10
2009/04/23 11:30:11.1     -13   -169     96    170    195 184.5  32.1  34222  290.62 0855.10
2009/04/23 11:30:11.2     -26   -140     63    143    156 190.7  25.2  34218  290.57 0855.10
2009/04/23 11:30:11.3     -78   -257     65    269    277 197.0  13.7  34176  289.85 0855.10
2009/04/23 11:30:11.4     -40   -368    318    371    488 186.2  45.0  34176  289.83 0855.09
2009/04/23 11:30:11.5       9   -351    303    352    464 178.5  45.1  34178  289.88 0855.09
2009/04/23 11:30:11.6     -33   -254    227    257    342 187.6  46.1  34184  289.98 0855.09
2009/04/23 11:30:11.7      14   -223    141    224    264 176.4  35.5  34178  289.88 0855.09
2009/04/23 11:30:11.8    -136   -236     -1    273    274 209.9  -0.3  34178  289.88 0855.09
2009/04/23 11:30:11.9      40   -289    -16    292    293 172.0  -3.2  34180  289.92 0855.09
2009/04/23 11:30:12.0      83   -328     39    339    342 165.7   6.6  34198  290.20 0855.09
2009/04/23 11:30:12.1     131   -301     53    329    334 156.4   9.2  34208  290.37 0855.09
2009/04/23 11:30:12.2      82   -357    114    367    385 167.0  17.3  34186  290.01 0855.09
2009/04/23 11:30:12.3      51   -382     32    386    388 172.3   4.9  34190  290.08 0855.09
2009/04/23 11:30:12.4       7   -394      0    395    396 178.9   0.1  34182  289.96 0855.09
2009/04/23 11:30:12.5      13   -328    -15    329    330 177.7  -2.7  34188  290.04 0855.09
2009/04/23 11:30:12.6      58   -253     68    260    269 167.1  14.7  34188  290.03 0855.09
2009/04/23 11:30:12.7       8   -218     -4    219    220 177.8  -1.2  34190  290.09 0855.09
2009/04/23 11:30:12.8      40   -208    -59    212    221 169.1 -15.5  34196  290.18 0855.09
2009/04/23 11:30:12.9       8   -274    -46    275    279 178.2  -9.6  34204  290.31 0855.09
2009/04/23 11:30:13.0     -65   -164    -58    177    187 201.8 -18.1  34198  290.21 0855.09
2009/04/23 11:30:13.1     -39   -141    -40    147    153 195.6 -15.4  34194  290.14 0855.09
2009/04/23 11:30:13.2     -57    -68    -50     90    102 220.1 -35.8  34186  290.01 0855.09
2009/04/23 11:30:13.3    -105    -28    -53    109    121 255.0 -32.2  34194  290.16 0855.04
2009/04/23 11:30:13.4     -71    -19    -35     74     81 254.9 -31.0  34202  290.30 0855.04
2009/04/23 11:30:13.5     -22    -22    -29     32     43 225.0 -52.3  34202  290.28 0855.04
2009/04/23 11:30:13.6      24     11    -29     27     39  64.7 -55.6  34198  290.23 0855.04
2009/04/23 11:30:13.7      28     48    -27     56     62  30.7 -31.6  34202  290.30 0855.04
2009/04/23 11:30:13.8      82     53    -35     98    104  57.1 -23.8  34212  290.45 0855.04
2009/04/23 11:30:13.9      54      4     23     55     59  85.7  23.1  34206  290.36 0855.04
2009/04/23 11:30:14.0      52    -40    105     66    124 127.8  64.7  34200  290.25 0855.04
2009/04/23 11:30:14.1       3     -2     63      4     63 122.4  90.0  34202  290.28 0855.04
2009/04/23 11:30:14.2      61    -39     97     73    121 122.4  59.0  34202  290.28 0855.04
2009/04/23 11:30:14.3     -17    -64     92     67    113 195.1  60.5  34200  290.25 0855.04
2009/04/23 11:30:14.4      11   -151     80    152    171 175.5  29.8  34200  290.26 0855.04
2009/04/23 11:30:14.5      63   -133     52    148    157 154.6  19.4  34196  290.19 0855.04
2009/04/23 11:30:14.6      57   -171     21    181    183 161.5   6.9  34194  290.16 0855.04
2009/04/23 11:30:14.7      44   -202     32    207    210 167.7   8.9  34182  289.96 0855.04
2009/04/23 11:30:14.8      98   -208     36    231    234 154.7   9.0  34176  289.85 0855.04
2009/04/23 11:30:14.9     135   -215    -29    254    256 147.9  -6.7  34184  289.97 0855.04
2009/04/23 11:30:15.0     202   -168     34    263    266 129.8   7.5  34178  289.88 0855.04
2009/04/23 11:30:15.1     182   -119     57    218    226 123.3  14.7  34178  289.89 0855.04
2009/04/23 11:30:15.2     194   -127     44    233    238 123.3  10.8  34188  290.05 0855.04
2009/04/23 11:30:15.3     169    -57     61    179    190 108.8  18.9  34184  289.97 0855.02
2009/04/23 11:30:15.4     162    -89     65    186    197 118.9  20.2  34184  289.97 0855.02
2009/04/23 11:30:15.5     108   -101     71    149    165 133.1  27.4  34184  289.99 0855.02
2009/04/23 11:30:15.6     -12   -133    102    134    168 185.3  41.2  34184  289.99 0855.02
2009/04/23 11:30:15.7     -52   -172     80    180    196 196.9  25.3  34182  289.96 0855.02
2009/04/23 11:30:15.8    -124   -208     74    243    255 210.8  17.1  34178  289.86 0855.02
2009/04/23 11:30:15.9    -141   -233     95    273    290 211.2  19.2  34178  289.86 0855.02
2009/04/23 11:30:16.0    -214   -228     -7    313    314 223.2  -1.4  34176  289.85 0855.02
2009/04/23 11:30:16.1    -276   -162      9    321    322 239.6   1.6  34184  289.97 0855.02
2009/04/23 11:30:16.2    -161    -88    -86    184    203 241.4 -31.5  34180  289.92 0855.02
2009/04/23 11:30:16.3    -129     -2    -56    130    141 269.1 -29.5  34180  289.91 0855.02
2009/04/23 11:30:16.4     -85    -31    -40     91     99 249.6 -29.0  34188  290.04 0855.02
2009/04/23 11:30:16.5     -58     26     56     64     85 294.4  45.8  34186  290.01 0855.02
2009/04/23 11:30:16.6     -39      0    130     40    136 269.2  82.3  34204  290.31 0855.02
2009/04/23 11:30:16.7     -12    -95     91     96    132 187.6  48.5  34204  290.31 0855.02
2009/04/23 11:30:16.8     -16   -113     66    115    132 188.0  32.4  34200  290.25 0855.02
2009/04/23 11:30:16.9      26   -130     -5    133    134 168.4  -2.2  34184  289.99 0855.02
2009/04/23 11:30:17.0      42    -20     77     47     90 115.3  65.1  34188  290.04 0855.02
2009/04/23 11:30:17.1      -8    -12     83     15     84 212.6  90.0  34216  290.53 0855.02
2009/04/23 11:30:17.2      -3    -53    119     54    130 183.6  74.0  34204  290.33 0855.02
2009/04/23 11:30:17.3       3    -57     85     58    102 176.4  62.6  34200  290.26 0855.02
2009/04/23 11:30:17.4      10   -138    112    139    178 175.6  43.0  34192  290.11 0855.02
2009/04/23 11:30:17.5       0   -213    112    214    241 180.0  30.1  34184  289.97 0855.02
2009/04/23 11:30:17.6      52   -212    162    219    272 166.2  39.9  34186  290.00 0855.02
2009/04/23 11:30:17.7     113   -180    181    213    279 147.9  44.8  34182  289.93 0855.02
2009/04/23 11:30:17.8      41   -104    167    113    201 158.2  62.7  34186  290.02 0855.02
2009/04/23 11:30:17.9      48   -209    197    215    291 166.9  47.5  34186  290.02 0855.02
2009/04/23 11:30:18.0      97   -360    130    373    396 164.9  19.2  34178  289.86 0855.02
2009/04/23 11:30:18.1     144   -409     34    434    436 160.6   4.5  34174  289.82 0855.02
2009/04/23 11:30:18.2     125   -352      5    374    375 160.3   0.8  34172  289.79 0855.02
2009/04/23 11:30:18.3     168   -386     46    421    424 156.5   6.4  34170  289.75 0855.02
2009/04/23 11:30:18.4     182   -337     78    384    393 151.6  11.6  34162  289.59 0855.02
2009/04/23 11:30:18.5     101   -347     79    362    371 163.7  12.4  34166  289.67 0855.02
2009/04/23 11:30:18.6      -1   -408    119    409    427 180.3  16.3  34168  289.72 0855.02
2009/04/23 11:30:18.7      57   -379    173    384    421 171.4  26.0  34166  289.66 0855.02
2009/04/23 11:30:18.8      44   -370    175    373    412 173.1  27.1  34164  289.65 0855.02
2009/04/23 11:30:18.9    -110   -331    109    350    367 198.5  17.3  34168  289.71 0855.02
2009/04/23 11:30:19.0     -83   -232    163    247    295 199.8  36.5  34172  289.78 0855.02
2009/04/23 11:30:19.1     -45   -249    171    254    306 190.2  37.3  34168  289.71 0855.02
2009/04/23 11:30:19.2       0   -308    184    309    359 180.0  33.6  34166  289.69 0855.02
2009/04/23 11:30:19.3       4   -471    239    472    529 179.4  29.1  34176  289.83 0855.03
2009/04/23 11:30:19.4      14   -318    266    319    415 177.3  44.1  34180  289.91 0855.03
2009/04/23 11:30:19.5      49   -352    153    356    387 172.0  24.8  34178  289.86 0855.03
2009/04/23 11:30:19.6     103   -344    231    360    427 163.4  35.6  34160  289.56 0855.03
2009/04/23 11:30:19.7      69   -343    296    350    458 168.6  44.4  34178  289.88 0855.03
2009/04/23 11:30:19.8     251   -273    154    372    402 137.4  23.9  34178  289.86 0855.03
2009/04/23 11:30:20.0      93   -356    219    368    428 165.3  33.6  34172  289.77 0855.03
2009/04/23 11:30:20.1     188   -300    227    355    421 147.9  35.6  34176  289.84 0855.03
2009/04/23 11:30:20.2     181   -225    202    290    353 141.2  38.4  34178  289.86 0855.03
2009/04/23 11:30:20.3      19   -306    304    307    432 176.4  49.9  34174  289.81 0855.03
2009/04/23 11:30:20.4      58   -185    188    195    270 162.4  49.0  34184  289.97 0855.03
2009/04/23 11:30:20.5      46   -164    174    171    243 164.2  50.2  34192  290.11 0855.03
2009/04/23 11:30:20.6     108   -134    138    173    221 141.0  42.7  34182  289.96 0855.03
2009/04/23 11:30:20.7      45   -183    -10    189    190 166.2  -3.2  34174  289.82 0855.03
2009/04/23 11:30:20.8     -38    -71      6     81     82 208.5   4.4  34170  289.74 0855.03
2009/04/23 11:30:20.9    -131     -5     47    132    140 267.4  20.0  34178  289.87 0855.03
2009/04/23 11:30:21.0    -163   -115      8    200    201 234.7   2.3  34176  289.85 0855.03
2009/04/23 11:30:21.1    -101    -56     29    116    120 240.7  14.3  34182  289.94 0855.03
2009/04/23 11:30:21.2     -62    -16     72     65     97 254.9  53.3  34184  289.97 0855.03
2009/04/23 11:30:21.3      26    -50    107     57    121 152.8  69.8  34194  290.16 0855.03
2009/04/23 11:30:21.4      10   -185    123    186    222 176.9  36.3  34182  289.94 0855.03
2009/04/23 11:30:21.5     -79   -222     78    236    249 199.8  18.5  34186  290.02 0855.03
2009/04/23 11:30:21.6     -95   -271     29    288    290 199.4   5.9  34178  289.88 0855.03
2009/04/23 11:30:21.7    -118   -299     97    322    337 201.5  16.8  34186  290.01 0855.03
2009/04/23 11:30:21.8     -93   -256    114    273    295 200.0  24.1  34186  290.00 0855.03
2009/04/23 11:30:21.9     -82   -142     94    165    189 210.1  32.1  34180  289.91 0855.03
2009/04/23 11:30:22.0     -42    -85    111     95    146 206.3  54.8  34190  290.08 0855.03
2009/04/23 11:30:22.1     -21    -92    115     95    149 192.9  56.4  34192  290.13 0855.03
2009/04/23 11:30:22.2      10   -132    105    133    169 175.6  42.4  34192  290.13 0855.03
2009/04/23 11:30:22.3       0    -81     32     82     88 180.5  22.0  34186  290.01 0855.03
2009/04/23 11:30:22.4      32    -40     24     52     57 141.3  27.1  34192  290.13 0855.03
2009/04/23 11:30:22.5      -1    -10     38     11     39 188.0  80.7  34192  290.13 0855.03
2009/04/23 11:30:22.6      -1     20     32     21     38 355.6  64.6  34204  290.33 0855.03
2009/04/23 11:30:22.7     -26     -8     32     28     42 251.4  53.3  34202  290.28 0855.03
2009/04/23 11:30:22.8     -21    -12     20     25     32 239.3  43.7  34200  290.25 0855.03
2009/04/23 11:30:22.9     -25    -11     16     28     32 246.5  33.5  34200  290.25 0855.03
2009/04/23 11:30:23.0    -117    -50    -26    128    131 246.9 -11.9  34188  290.04 0855.03
2009/04/23 11:30:23.1     -82    -97      4    128    129 220.1   1.8  34184  289.99 0855.03
2009/04/23 11:30:23.2    -137    -67    -98    153    181 243.8 -40.0  34194  290.16 0855.03
2009/04/23 11:30:23.3    -126    -98   -124    160    202 232.2 -46.1  34202  290.28 0855.03
2009/04/23 11:30:23.4    -214     15    -67    215    226 274.1 -17.3  34202  290.30 0855.03
2009/04/23 11:30:23.5    -169      3    -56    170    178 271.3 -23.6  34204  290.33 0855.03
2009/04/23 11:30:23.6    -164     58    -56    174    183 289.5 -17.9  34212  290.45 0855.03
2009/04/23 11:30:23.7    -101     83    -65    132    147 309.5 -31.7  34220  290.58 0855.03
2009/04/23 11:30:23.8    -135     -4    -55    136    146 268.3 -27.4  34218  290.55 0855.03
2009/04/23 11:30:23.9     -82    -61   -193    103    218 233.6 -74.0  34210  290.41 0855.03
2009/04/23 11:30:24.0    -124   -182    -79    221    235 214.2 -19.7  34192  290.13 0855.03
2009/04/23 11:30:24.1     -44   -134    -86    142    166 198.3 -38.6  34194  290.16 0855.03
2009/04/23 11:30:24.2     -66   -117   -119    135    179 209.4 -50.6  34202  290.28 0855.03
2009/04/23 11:30:24.3    -173      0   -105    174    203 270.0 -38.4  34212  290.47 0855.03
2009/04/23 11:30:24.4    -236     -7   -123    237    267 268.1 -33.9  34218  290.56 0855.04
2009/04/23 11:30:24.5    -180    -30   -125    183    221 260.5 -42.0  34214  290.48 0855.04
2009/04/23 11:30:24.6    -148   -217    -15    263    264 214.3  -3.3  34222  290.63 0855.04
2009/04/23 11:30:24.7    -254   -264   -104    367    382 223.9 -15.9  34218  290.57 0855.04
2009/04/23 11:30:24.8    -313   -256    -92    405    416 230.7 -12.9  34216  290.51 0855.04
2009/04/23 11:30:24.9    -417   -287    -76    507    513 235.5  -8.6  34222  290.64 0855.04
2009/04/23 11:30:25.0    -282   -340     94    442    452 219.7  12.0  34210  290.43 0855.04
2009/04/23 11:30:25.1    -111   -466     10    480    481 193.4   1.2  34206  290.34 0855.04
2009/04/23 11:30:25.2      49   -448    -37    451    453 173.7  -4.8  34188  290.05 0855.04
2009/04/23 11:30:25.3      53   -331    -34    336    338 170.8  -5.9  34192  290.11 0855.04
2009/04/23 11:30:25.4     -22   -292    -21    293    294 184.5  -4.1  34192  290.10 0855.04
2009/04/23 11:30:25.5    -158   -269   -127    313    337 210.5 -27.6  34200  290.25 0855.04
2009/04/23 11:30:25.6    -117   -307    -24    329    330 200.9  -4.2  34198  290.23 0855.04
2009/04/23 11:30:25.7    -161   -308    -51    348    352 207.7  -8.4  34204  290.32 0855.04
2009/04/23 11:30:25.8     -20   -326   -105    327    343 183.6 -22.9  34216  290.52 0855.04
2009/04/23 11:30:25.9    -171   -184   -219    252    333 222.8 -49.9  34210  290.41 0855.04
2009/04/23 11:30:26.0    -196   -226   -158    300    339 221.0 -34.5  34208  290.39 0855.04
2009/04/23 11:30:26.1    -210   -241     57    320    326 221.0  10.2  34196  290.17 0855.04
2009/04/23 11:30:26.2     -76   -424     59    431    435 190.2   7.8  34198  290.21 0855.04
2009/04/23 11:30:26.3      15   -389    -56    390    395 177.8  -8.2  34182  289.94 0855.04
2009/04/23 11:30:26.4       0   -355    -72    356    364 180.0 -11.5  34186  290.01 0855.05
2009/04/23 11:30:26.5    -246   -377     88    451    460 213.1  11.1  34198  290.21 0855.05
2009/04/23 11:30:26.6    -171   -407    169    442    473 202.8  22.0  34188  290.05 0855.05
2009/04/23 11:30:26.7       5   -340    156    341    374 179.0  26.3  34188  290.03 0855.05
2009/04/23 11:30:26.8     157   -131    139    205    247 129.8  37.4  34184  289.97 0855.05
2009/04/23 11:30:26.9     322    -98    152    337    369 107.1  25.9  34184  289.99 0855.05
2009/04/23 11:30:27.0     331   -246    241    413    478 126.6  32.9  34190  290.07 0855.05
2009/04/23 11:30:27.1     194   -228    275    300    406 139.5  47.3  34188  290.04 0855.05
2009/04/23 11:30:27.2     121   -275    230    301    378 156.2  41.3  34192  290.10 0855.05
2009/04/23 11:30:27.3       9   -234    244    235    338 177.8  51.2  34194  290.14 0855.05
2009/04/23 11:30:27.4      -9   -249    181    250    308 182.2  39.5  34192  290.12 0855.05
2009/04/23 11:30:27.5     -76   -209    103    223    245 200.0  26.6  34192  290.12 0855.05
2009/04/23 11:30:27.6    -160   -303     89    343    355 207.9  14.6  34188  290.04 0855.05
2009/04/23 11:30:27.7    -278   -279     13    395    396 224.9   1.9  34192  290.10 0855.05
2009/04/23 11:30:27.8    -314   -161   -119    353    372 242.8 -23.5  34194  290.16 0855.05
2009/04/23 11:30:27.9    -174   -148   -129    229    262 229.6 -36.3  34190  290.09 0855.05
2009/04/23 11:30:28.0     -74   -144    -90    162    185 207.2 -35.8  34188  290.04 0855.05
2009/04/23 11:30:28.1     -73    -83    -54    111    123 221.4 -31.7  34190  290.09 0855.05
2009/04/23 11:30:28.2     -99     32     20    105    108 288.2  11.1  34196  290.18 0855.05
2009/04/23 11:30:28.3    -156     50    -53    164    173 287.9 -18.1  34210  290.41 0855.05
2009/04/23 11:30:28.4      52   -109     79    121    144 154.5  35.6  34214  290.48 0855.05
2009/04/23 11:30:28.5      51   -363    102    367    382 172.0  15.6  34196  290.18 0855.05
2009/04/23 11:30:28.6     -16   -275    -60    276    283 183.5 -12.4  34200  290.26 0855.05
2009/04/23 11:30:28.7    -126   -104    -56    164    173 230.4 -23.6  34190  290.08 0855.05
2009/04/23 11:30:28.8    -143   -194    -57    242    249 216.5 -13.4  34200  290.24 0855.05
2009/04/23 11:30:28.9     -87   -218    143    235    275 201.9  34.2  34190  290.09 0855.05
2009/04/23 11:30:29.0    -145   -284    209    320    382 207.1  36.0  34192  290.11 0855.05
2009/04/23 11:30:29.1    -195   -356    224    407    464 208.7  31.3  34202  290.28 0855.05
2009/04/23 11:30:29.2    -174   -382    168    420    452 204.5  23.0  34200  290.26 0855.05
2009/04/23 11:30:29.3    -190   -346    140    395    419 208.8  20.2  34198  290.21 0855.05
2009/04/23 11:30:29.4     -68   -223    105    234    256 197.0  25.9  34192  290.12 0855.05
2009/04/23 11:30:29.5     -13   -186    151    187    240 184.0  43.0  34202  290.28 0855.05
2009/04/23 11:30:29.6     -88   -267    110    282    302 198.3  22.5  34196  290.19 0855.05
2009/04/23 11:30:29.7    -218   -304    -13    375    376 215.6  -2.1  34192  290.13 0855.05
2009/04/23 11:30:29.8    -238   -326    -74    404    411 216.1 -10.5  34196  290.17 0855.05
2009/04/23 11:30:29.9    -173   -277   -111    327    345 212.1 -23.7  34198  290.23 0855.05
2009/04/23 11:30:30.0    -217   -264    -48    342    346 219.4  -8.1  34198  290.20 0855.05
2009/04/23 11:30:30.1    -121   -354    -49    375    379 198.9  -7.5  34196  290.18 0855.05
2009/04/23 11:30:30.2     -91   -143   -105    170    199 212.6 -39.2  34194  290.14 0855.05
2009/04/23 11:30:30.3      36   -234    -39    237    241 171.1  -9.3  34192  290.10 0855.05
2009/04/23 11:30:30.4      28   -322     38    324    327 174.9   6.7  34190  290.07 0855.04
2009/04/23 11:30:30.5      93   -423      6    434    435 167.6   0.8  34184  289.99 0855.04
2009/04/23 11:30:30.6      -5   -369    -21    370    371 180.9  -3.3  34190  290.08 0855.04
2009/04/23 11:30:30.7     -28   -359    -46    361    364 184.5  -7.3  34188  290.06 0855.04
2009/04/23 11:30:30.8     -34   -430    -79    432    440 184.6 -10.4  34198  290.22 0855.04
2009/04/23 11:30:30.9     -42   -216   -171    221    279 191.1 -46.1  34198  290.22 0855.04
2009/04/23 11:30:31.0    -125   -135   -175    184    253 222.8 -53.1  34236  290.87 0855.04
2009/04/23 11:30:31.1     -19   -305   -101    306    322 183.6 -23.6  34200  290.26 0855.04
2009/04/23 11:30:31.2      38   -222   -129    226    260 170.3 -36.7  34200  290.26 0855.04
2009/04/23 11:30:31.3     -16   -260    -37    261    264 183.6  -8.2  34192  290.12 0855.04
2009/04/23 11:30:31.4      -2   -195    -56    196    204 180.7 -16.0  34190  290.08 0855.04
2009/04/23 11:30:31.5     -32   -110    -86    115    143 196.5 -44.5  34196  290.19 0855.04
2009/04/23 11:30:31.6    -216     83    -90    232    248 291.1 -26.5  34220  290.59 0855.04
2009/04/23 11:30:31.7    -128    202    -92    240    257 327.5 -26.5  34176  289.83 0855.04
2009/04/23 11:30:31.8    -222    222   -113    315    334 315.0 -25.0  34174  289.81 0855.04
2009/04/23 11:30:31.9    -154    164    -63    226    234 316.8 -20.4  34188  290.06 0855.04
2009/04/23 11:30:32.0    -124      5      0    125    126 272.6   0.2  34196  290.18 0855.04
2009/04/23 11:30:32.1     -47    -15     19     50     53 251.4  20.0  34196  290.18 0855.04
2009/04/23 11:30:32.2      38    -24     69     45     82 122.4  63.6  34200  290.26 0855.04
2009/04/23 11:30:32.3     160     -9    109    161    194  93.5  37.0  34194  290.14 0855.04
2009/04/23 11:30:32.4     194    -77    127    209    244 111.7  34.4  34204  290.32 0855.04
2009/04/23 11:30:32.5      63    -99    175    118    211 147.4  62.8  34212  290.47 0855.04
2009/04/23 11:30:32.6     197     14    179    198    266  85.9  46.9  34196  290.19 0855.04
2009/04/23 11:30:32.7     104      0    164    105    194  89.6  64.6  34202  290.28 0855.04
2009/04/23 11:30:32.8     104     45    129    114    172  66.5  54.0  34198  290.21 0855.04
2009/04/23 11:30:32.9      46    -49     72     68     99 136.7  51.6  34202  290.30 0855.04
2009/04/23 11:30:33.0      71     -4     57     72     91  93.5  42.7  34200  290.26 0855.04
2009/04/23 11:30:33.1      25    -40     38     48     61 148.4  43.7  34204  290.31 0855.04
2009/04/23 11:30:33.2     -11      2     49     12     50 281.5  88.0  34210  290.43 0855.04
2009/04/23 11:30:33.3     -92      1     30     93     98 270.8  18.4  34210  290.41 0855.04
2009/04/23 11:30:33.4     -62    -34     35     71     79 241.1  28.2  34208  290.38 0855.04
2009/04/23 11:30:33.5    -191    -54     -3    199    200 254.1  -1.1  34226  290.69 0855.04
2009/04/23 11:30:33.6    -265    -40      9    269    270 261.4   2.1  34224  290.65 0855.04
2009/04/23 11:30:33.7    -188    -38     95    192    214 258.5  28.2  34226  290.70 0855.04
2009/04/23 11:30:33.8     -86    -74    129    114    172 229.1  54.0  34202  290.28 0855.04
2009/04/23 11:30:33.9    -173   -115     82    209    224 236.3  22.5  34228  290.74 0855.04
2009/04/23 11:30:34.0    -100    -88    100    134    167 228.7  40.9  34202  290.28 0855.04
2009/04/23 11:30:34.1    -139   -139    145    197    244 225.0  40.1  34188  290.04 0855.04
2009/04/23 11:30:34.2    -237    -41     12    241    242 260.1   2.9  34216  290.53 0855.04
2009/04/23 11:30:34.3    -141    -55    -22    152    154 248.7  -8.2  34206  290.36 0855.04
2009/04/23 11:30:34.4    -130    -43     21    138    140 251.4   9.0  34204  290.33 0855.03
2009/04/23 11:30:34.5     -31      0     36     32     48 269.2  52.2  34208  290.40 0855.03
2009/04/23 11:30:34.6     -62   -131    173    145    225 205.3  56.3  34196  290.18 0855.03
2009/04/23 11:30:34.7    -175   -155    107    234    257 228.4  26.2  34224  290.66 0855.03
2009/04/23 11:30:34.8    -143   -100     77    175    191 234.9  25.3  34226  290.69 0855.03
2009/04/23 11:30:34.9    -157    -87     62    180    191 240.9  19.2  34232  290.79 0855.03
2009/04/23 11:30:35.0     -69   -146    103    162    191 205.5  35.5  34212  290.47 0855.03
2009/04/23 11:30:35.1     -75   -167    181    184    258 204.1  49.8  34204  290.32 0855.03
2009/04/23 11:30:35.2     -62   -145    123    158    200 203.2  41.7  34202  290.28 0855.03
2009/04/23 11:30:35.3     -18   -154    149    156    215 186.7  48.2  34196  290.18 0855.03
2009/04/23 11:30:35.4    -107   -219    147    244    284 206.1  33.7  34194  290.14 0855.03
2009/04/23 11:30:35.5    -124   -183     42    222    227 214.2  10.8  34192  290.11 0855.03
2009/04/23 11:30:35.6     -78   -158     71    177    190 206.3  23.0  34190  290.09 0855.03
2009/04/23 11:30:35.7     -37   -165    194    170    257 192.9  54.3  34204  290.31 0855.03
2009/04/23 11:30:35.8     -47   -156    162    164    230 196.9  50.0  34196  290.19 0855.03
2009/04/23 11:30:35.9     -60   -293    169    300    344 191.6  31.7  34194  290.16 0855.03
2009/04/23 11:30:36.0     -68   -399     46    405    408 189.7   6.5  34200  290.24 0855.03
2009/04/23 11:30:36.1     -73   -368     75    376    384 191.2  11.3  34200  290.25 0855.03
2009/04/23 11:30:36.2       0   -378     76    379    387 180.1  11.3  34202  290.30 0855.03
2009/04/23 11:30:36.3     -23   -317    115    318    339 184.2  19.9  34204  290.33 0855.03
2009/04/23 11:30:36.4      32   -317    182    319    367 174.2  32.3  34202  290.30 0855.01
2009/04/23 11:30:36.5      85   -273    220    287    361 162.6  41.4  34198  290.23 0855.01
2009/04/23 11:30:36.6     190   -362    222    410    466 152.3  30.9  34188  290.04 0855.01
2009/04/23 11:30:36.7      94   -219    229    239    331 156.8  48.7  34196  290.17 0855.01
2009/04/23 11:30:36.8     -43   -311    238    315    394 188.0  40.8  34188  290.04 0855.01
2009/04/23 11:30:36.9     -42   -240    267    244    361 190.0  53.0  34190  290.07 0855.01
2009/04/23 11:30:37.0     129   -242    109    275    295 152.0  23.0  34192  290.10 0855.01
2009/04/23 11:30:37.1     151   -281    209    320    382 151.7  36.0  34172  289.79 0855.01
2009/04/23 11:30:37.2     110   -470    197    483    521 166.7  23.5  34172  289.78 0855.01
2009/04/23 11:30:37.3     132   -468    290    487    566 164.2  33.5  34172  289.79 0855.01
2009/04/23 11:30:37.4     113   -475    310    489    578 166.6  35.5  34176  289.84 0855.01
2009/04/23 11:30:37.5     179   -447    283    482    558 158.2  33.0  34166  289.67 0855.01
2009/04/23 11:30:37.6      14   -307    335    308    455 177.3  52.7  34190  290.09 0855.01
2009/04/23 11:30:37.7     -89   -453    280    462    540 191.1  34.1  34184  289.98 0855.01
2009/04/23 11:30:37.8    -114   -489    336    503    604 193.2  37.0  34176  289.83 0855.01
2009/04/23 11:30:37.9    -313   -452    193    551    583 214.7  20.0  34176  289.85 0855.01
2009/04/23 11:30:38.0    -267   -238    -26    358    359 228.3  -4.2  34172  289.76 0855.01
2009/04/23 11:30:38.1    -188   -322     80    374    383 210.3  12.2  34182  289.96 0855.01
2009/04/23 11:30:38.2    -111   -134    326    175    370 219.6  69.6  34200  290.24 0855.01
2009/04/23 11:30:38.3     -57    -61    197     84    214 222.8  75.9  34200  290.25 0855.04
2009/04/23 11:30:38.4       0    -19    172     20    173 180.9  90.0  34198  290.23 0855.04
2009/04/23 11:30:38.5     -57    -50     82     76    111 228.7  52.2  34196  290.19 0855.04
2009/04/23 11:30:38.6     -68    -69     83     98    128 224.7  44.3  34202  290.30 0855.04
2009/04/23 11:30:38.7      -8    -12     39     15     41 212.5  78.2  34192  290.13 0855.04
2009/04/23 11:30:38.8     -72     79     34    107    113 317.7  17.9  34214  290.48 0855.04
2009/04/23 11:30:38.9     -60    166     20    177    179 340.0   6.7  34200  290.25 0855.04
2009/04/23 11:30:39.0      12    190    123    191    227   3.8  35.6  34206  290.36 0855.04
2009/04/23 11:30:39.1      36    116    105    122    160  17.4  45.4  34208  290.40 0855.04
2009/04/23 11:30:39.2      62    -87    140    108    176 144.4  58.5  34176  289.84 0855.04
2009/04/23 11:30:39.3     -24   -143    269    146    306 189.8  69.1  34182  289.95 0855.04
2009/04/23 11:30:39.4     -32    -73    311     80    321 203.6  85.6  34194  290.15 0855.04
2009/04/23 11:30:39.5    -169   -286    359    333    489 210.6  52.5  34200  290.24 0855.04
2009/04/23 11:30:39.6    -154   -264    362    306    474 210.3  55.6  34172  289.78 0855.04
2009/04/23 11:30:39.7     -17    -52    296     55    301 198.5  90.0  34214  290.48 0855.04
2009/04/23 11:30:39.8    -311   -129    222    337    403 247.4  36.5  34218  290.55 0855.04
2009/04/23 11:30:39.9    -239    -63    138    248    283 255.2  31.4  34212  290.46 0855.04
2009/04/23 11:30:40.0    -256    -41     60    260    267 260.8  13.1  34206  290.34 0855.04
2009/04/23 11:30:40.1    -259      0     -1    260    261 270.0  -0.3  34154  289.46 0855.04
2009/04/23 11:30:40.2    -303     61    -56    310    316 281.5 -10.4  34164  289.64 0855.04
2009/04/23 11:30:40.3    -187     80     19    204    205 293.3   5.4  34176  289.84 0855.09
2009/04/23 11:30:40.4    -146    266     55    304    310 331.1  10.4  34176  289.83 0855.09
2009/04/23 11:30:40.5     -74    187     20    202    204 338.4   5.9  34184  289.97 0855.09
2009/04/23 11:30:40.6     -81    183     49    201    208 336.2  13.9  34208  290.38 0855.09
2009/04/23 11:30:40.7     -81     77     50    112    122 313.6  25.2  34206  290.35 0855.09
2009/04/23 11:30:40.8    -137    -54    110    148    184 248.2  40.1  34222  290.62 0855.09
2009/04/23 11:30:40.9    -183    -23    162    185    245 262.8  45.8  34234  290.84 0855.09
2009/04/23 11:30:41.0    -292   -112    239    313    393 248.9  41.3  34232  290.79 0855.09
2009/04/23 11:30:41.1    -405    -35     94    407    418 265.0  13.1  34212  290.46 0855.09
2009/04/23 11:30:41.2    -337     26    201    339    394 274.5  33.5  34240  290.93 0855.09
2009/04/23 11:30:41.3    -272    -73     50    282    287 255.0  10.1  34210  290.41 0855.09
2009/04/23 11:30:41.4    -319     61     96    325    340 280.8  16.5  34244  291.00 0855.09
2009/04/23 11:30:41.5    -393    -19    110    394    410 267.2  15.6  34242  290.97 0855.09
2009/04/23 11:30:41.6    -404    -82     69    413    419 258.5   9.5  34250  291.11 0855.09
2009/04/23 11:30:41.7    -316   -145     24    348    349 245.3   4.0  34172  289.77 0855.09
2009/04/23 11:30:41.8    -301   -110    119    321    342 249.8  21.3  34192  290.11 0855.09
2009/04/23 11:30:41.9    -234   -195     -2    305    306 230.2  -0.5  34208  290.37 0855.09
2009/04/23 11:30:42.0    -301   -196     -5    360    361 236.9  -0.9  34212  290.47 0855.09
2009/04/23 11:30:42.1    -138   -280     65    313    320 206.3  11.8  34230  290.76 0855.09
2009/04/23 11:30:42.2     -82   -285    140    297    328 196.0  27.1  34228  290.71 0855.09
2009/04/23 11:30:42.3    -143   -234    -10    275    276 211.4  -2.2  34202  290.27 0855.11
2009/04/23 11:30:42.4     -17   -227    200    228    303 184.5  45.8  34202  290.29 0855.11
2009/04/23 11:30:42.5      68    -99    165    121    204 145.7  60.5  34240  290.92 0855.11
2009/04/23 11:30:42.6     -49   -212     -1    218    219 193.1  -0.3  34252  291.15 0855.11
2009/04/23 11:30:42.7     -76   -266     23    277    279 196.1   4.9  34256  291.19 0855.11
2009/04/23 11:30:42.8    -256   -202     61    327    333 231.8  10.6  34220  290.60 0855.11
2009/04/23 11:30:42.9    -120   -188      3    224    225 212.5   0.8  34202  290.30 0855.11
2009/04/23 11:30:43.0    -165     17     24    166    168 276.1   8.2  34220  290.60 0855.11
2009/04/23 11:30:43.1    -172     81    -74    191    204 295.4 -26.4  34256  291.20 0855.11
2009/04/23 11:30:43.2    -100      7     68    101    121 274.4  37.4  34260  291.28 0855.11
2009/04/23 11:30:43.3    -181     41     71    186    199 283.0  21.7  34240  290.94 0855.11
2009/04/23 11:30:43.4    -133   -198     60    239    247 213.8  14.2  34202  290.27 0855.11
2009/04/23 11:30:43.5     -34   -216     96    219    239 189.1  25.1  34176  289.85 0855.11
2009/04/23 11:30:43.6     -85   -283    188    296    350 196.7  35.5  34178  289.87 0855.11
2009/04/23 11:30:43.7     -66   -262    163    271    316 194.3  33.8  34176  289.85 0855.11
2009/04/23 11:30:43.8     -31   -221    144    224    266 188.1  35.6  34184  289.97 0855.11
2009/04/23 11:30:43.9      12   -148     89    149    173 175.1  34.0  34180  289.91 0855.11
2009/04/23 11:30:44.0      15   -115     70    117    136 172.4  34.0  34184  289.99 0855.11
2009/04/23 11:30:44.1      56      0    108     57    122  90.0  70.4  34202  290.28 0855.11
2009/04/23 11:30:44.2     -39    -63    172     75    187 211.6  75.0  34204  290.31 0855.11
2009/04/23 11:30:44.3     -74   -149    170    167    238 206.5  50.4  34162  289.62 0855.11
2009/04/23 11:30:44.4     -33   -160    139    164    214 191.8  44.5  34172  289.77 0855.11
2009/04/23 11:30:44.5     -16    -64     94     67    115 194.3  61.1  34178  289.87 0855.11
2009/04/23 11:30:44.6     -40      7     90     41     98 280.6  74.0  34196  290.19 0855.11
2009/04/23 11:30:44.7     -85      4      5     86     87 273.0   3.8  34172  289.79 0855.11
2009/04/23 11:30:44.8     -31    -24      0     40     41 232.2  -0.3  34170  289.75 0855.11
2009/04/23 11:30:44.9      52      0     24     53     58  90.0  26.2  34180  289.92 0855.11
2009/04/23 11:30:45.0     -13     44     88     47     99 343.1  69.3  34198  290.23 0855.11
2009/04/23 11:30:45.1     -56     -6     74     57     93 263.9  57.9  34202  290.28 0855.11
2009/04/23 11:30:45.2     -97    -90     82    133    156 226.9  35.5  34190  290.09 0855.11
2009/04/23 11:30:45.3    -115    -44     91    124    153 249.2  39.7  34190  290.08 0855.11
2009/04/23 11:30:45.4    -119   -105     83    159    179 228.6  29.8  34172  289.79 0855.11
2009/04/23 11:30:45.5     -97   -190     15    214    215 207.2   4.2  34164  289.65 0855.11
2009/04/23 11:30:45.6    -118   -163    -50    202    209 215.8 -13.9  34162  289.60 0855.11
2009/04/23 11:30:45.7     -81   -239     12    253    254 198.9   2.9  34158  289.53 0855.11
2009/04/23 11:30:45.8    -186   -248    -14    311    312 216.9  -2.6  34160  289.58 0855.11
2009/04/23 11:30:45.9    -113   -495     83    508    515 192.9   9.3  34152  289.42 0855.11
2009/04/23 11:30:46.0    -191   -563    -86    595    602 198.8  -8.3  34160  289.58 0855.11
2009/04/23 11:30:46.1    -137   -602   -138    618    634 192.9 -12.6  34152  289.43 0855.11
2009/04/23 11:30:46.2    -114   -543    -60    555    559 191.9  -6.2  34160  289.58 0855.11
2009/04/23 11:30:46.3     -78   -669   -160    674    693 186.7 -13.4  34154  289.48 0855.11
2009/04/23 11:30:46.4    -158   -671     33    690    691 193.3   2.8  34172  289.78 0855.11
2009/04/23 11:30:46.5     -70   -479    -62    485    489 188.4  -7.3  34146  289.32 0855.11
2009/04/23 11:30:46.6      86   -596     93    603    611 171.8   8.8  34154  289.47 0855.11
2009/04/23 11:30:46.7     -77   -458     90    465    474 189.6  11.0  34162  289.61 0855.11
2009/04/23 11:30:46.8    -104   -380    110    395    411 195.4  15.6  34154  289.46 0855.11
2009/04/23 11:30:46.9      16   -340     87    341    353 177.2  14.4  34162  289.60 0855.11
2009/04/23 11:30:47.0     164   -234     86    286    299 145.0  16.8  34154  289.47 0855.11
2009/04/23 11:30:47.1      69   -146     73    162    177 154.7  25.9  34158  289.53 0855.11
2009/04/23 11:30:47.2     -29   -356     64    358    364 184.7  10.2  34158  289.54 0855.11
2009/04/23 11:30:47.3     -11   -427    -79    428    436 181.6 -10.5  34156  289.51 0855.09
2009/04/23 11:30:47.4      54   -371     16    375    376 171.7   2.5  34156  289.50 0855.09
2009/04/23 11:30:47.5      25   -313     15    315    316 175.3   2.8  34158  289.53 0855.09
2009/04/23 11:30:47.6      20   -246      0    247    248 175.3   0.0  34160  289.58 0855.09
2009/04/23 11:30:47.7       4   -243    -77    244    257 178.9 -17.6  34170  289.75 0855.09
2009/04/23 11:30:47.9    -143   -409   -213    434    483 199.3 -32.4  34156  289.50 0855.09
2009/04/23 11:30:48.0    -405   -355   -125    539    554 228.7 -13.1  34148  289.36 0855.09
2009/04/23 11:30:48.1    -383   -495   -197    627    657 217.8 -22.4  34138  289.21 0855.09
2009/04/23 11:30:48.2    -195   -382     17    430    431 207.1   2.4  34180  289.90 0855.09
2009/04/23 11:30:48.3    -196   -237     13    308    309 219.7   2.5  34200  290.24 0855.09
2009/04/23 11:30:48.4    -113   -378   -120    395    414 196.6 -16.9  34186  290.00 0855.09
2009/04/23 11:30:48.5     -56   -449    -41    453    455 187.2  -5.2  34174  289.82 0855.09
2009/04/23 11:30:48.6     -57   -257     24    264    266 192.7   5.2  34180  289.90 0855.09
2009/04/23 11:30:48.7    -160   -128     94    206    226 231.4  26.4  34186  290.02 0855.09
2009/04/23 11:30:48.8    -138   -210    -80    252    264 213.4 -22.9  34164  289.64 0855.09
2009/04/23 11:30:48.9    -267   -162    -99    313    329 238.7 -17.5  34192  290.12 0855.09
2009/04/23 11:30:49.0    -158   -274   -229    317    391 209.9 -43.9  34158  289.54 0855.09
2009/04/23 11:30:49.1      30   -150    -99    154    183 168.5 -40.0  34174  289.80 0855.09
2009/04/23 11:30:49.2      19   -144     28    146    149 172.4  11.0  34172  289.77 0855.09
2009/04/23 11:30:49.3     168   -133      7    215    216 128.2   2.1  34166  289.67 0855.09
2009/04/23 11:30:49.4     158   -170    -68    233    242 137.2 -21.0  34162  289.59 0855.08
2009/04/23 11:30:49.5     117   -117   -127    166    209 134.9 -45.8  34164  289.65 0855.08
2009/04/23 11:30:49.6    -110    -22    -59    113    127 258.5 -33.7  34166  289.67 0855.08
2009/04/23 11:30:49.7    -132    -57    -48    144    151 246.5 -23.6  34170  289.75 0855.08
2009/04/23 11:30:49.8      -6    -76     20     77     80 184.5  14.7  34164  289.63 0855.08
2009/04/23 11:30:49.9     -76   -149     32    168    172 207.2  10.8  34166  289.67 0855.08
2009/04/23 11:30:50.0    -123   -329    139    352    378 200.6  22.8  34166  289.69 0855.08
2009/04/23 11:30:50.1    -129   -311     90    337    349 202.6  15.0  34162  289.62 0855.08
2009/04/23 11:30:50.2     -18   -295     -6    296    297 183.5  -1.3  34162  289.59 0855.08
2009/04/23 11:30:50.3     -91   -327    -69    340    347 195.6 -11.5  34168  289.71 0855.08
2009/04/23 11:30:50.4     -14   -309   -100    310    326 182.7 -17.9  34172  289.76 0855.08
2009/04/23 11:30:50.5      -9   -217    -98    218    239 182.6 -30.3  34166  289.67 0855.08
2009/04/23 11:30:50.6     -54   -138    -66    149    162 201.4 -29.5  34168  289.70 0855.08
2009/04/23 11:30:50.7     -52   -169    -99    177    202 197.2 -36.3  34160  289.58 0855.08
2009/04/23 11:30:50.8    -158   -133   -118    207    238 230.0 -36.7  34158  289.55 0855.08
2009/04/23 11:30:50.9    -204   -101    -75    228    240 243.6 -23.3  34170  289.73 0855.08
2009/04/23 11:30:51.0    -169    -90    -61    192    201 242.0 -22.8  34168  289.72 0855.08
2009/04/23 11:30:51.1     -53    -43    -98     69    119 230.5 -65.9  34168  289.72 0855.08
2009/04/23 11:30:51.2     167   -101    -41    196    201 121.3 -11.9  34164  289.65 0855.08
2009/04/23 11:30:51.3     178   -168     29    245    247 133.3   6.9  34156  289.49 0855.08
2009/04/23 11:30:51.4     230    -27    -25    232    234  96.8  -6.2  34154  289.46 0855.07
2009/04/23 11:30:51.5     228     18     31    229    232  85.4   7.8  34144  289.31 0855.07
2009/04/23 11:30:51.6     192    -47    -53    198    206 103.9 -15.2  34150  289.41 0855.07
2009/04/23 11:30:51.7      -6   -131     55    132    143 182.7  23.1  34156  289.50 0855.07
2009/04/23 11:30:51.8     -18    -95    165     97    191 191.1  67.0  34150  289.40 0855.07
2009/04/23 11:30:51.9      13     33    107     36    112  21.8  81.0  34154  289.46 0855.07
2009/04/23 11:30:52.0      75    -15    133     77    153 101.5  66.8  34156  289.52 0855.07
2009/04/23 11:30:52.1     113    -68    116    132    175 121.1  45.8  34156  289.52 0855.07
2009/04/23 11:30:52.2     128    -50    161    138    212 111.7  55.0  34162  289.62 0855.07
2009/04/23 11:30:52.3      43    -65    108     79    133 146.6  60.5  34156  289.52 0855.07
2009/04/23 11:30:52.4     -20   -130    215    132    252 188.9  65.6  34148  289.38 0855.07
2009/04/23 11:30:52.5     101   -374    323    388    504 164.9  44.0  34146  289.35 0855.07
2009/04/23 11:30:52.6     183   -307    187    358    403 149.1  29.6  34138  289.20 0855.07
2009/04/23 11:30:52.7     196   -240    136    311    339 140.8  25.1  34140  289.23 0855.07
2009/04/23 11:30:52.8     229   -331    144    403    427 145.3  20.2  34140  289.22 0855.07
2009/04/23 11:30:52.9     147   -201    207    250    324 143.7  43.8  34142  289.25 0855.07
2009/04/23 11:30:53.0      61   -198    204    208    291 162.8  49.9  34150  289.41 0855.07
2009/04/23 11:30:53.1      20   -151    148    153    212 172.4  49.4  34148  289.36 0855.07
2009/04/23 11:30:53.2      -2   -163    166    164    233 180.7  50.1  34146  289.35 0855.07
2009/04/23 11:30:53.3     -41   -153    209    159    262 195.1  59.2  34158  289.53 0855.07
2009/04/23 11:30:53.4      14    -73    166     75    182 168.5  74.2  34158  289.55 0855.05
2009/04/23 11:30:53.5     -22    -17    103     29    107 232.2  83.9  34162  289.62 0855.05
2009/04/23 11:30:53.6     -39    -74    104     84    133 208.1  56.4  34156  289.50 0855.05
2009/04/23 11:30:53.7       6     26     88     27     92  13.4  82.3  34170  289.75 0855.05
2009/04/23 11:30:53.8      -1    -60    130     61    143 181.0  73.1  34160  289.58 0855.05
2009/04/23 11:30:53.9      14   -134    212    135    251 173.8  64.7  34156  289.50 0855.05
2009/04/23 11:30:54.0      18   -204    214    205    296 174.7  51.4  34154  289.46 0855.05
2009/04/23 11:30:54.1      13   -277    129    278    306 177.3  27.0  34144  289.31 0855.05
2009/04/23 11:30:54.2     123   -154    100    198    221 141.5  29.1  34142  289.28 0855.05
2009/04/23 11:30:54.3     223    -75     63    236    245 108.6  15.0  34142  289.27 0855.05
2009/04/23 11:30:54.4     127    -80     56    151    161 122.4  21.3  34144  289.31 0855.05
2009/04/23 11:30:54.5     128    -13     72    129    147  96.1  31.4  34152  289.45 0855.05
2009/04/23 11:30:54.6     157    -31     98    161    188 101.4  34.4  34156  289.52 0855.05
2009/04/23 11:30:54.7     201    -15    108    202    229  94.4  30.6  34146  289.33 0855.05
2009/04/23 11:30:54.8      74     36    180     83    198  63.8  73.8  34168  289.70 0855.05
2009/04/23 11:30:54.9     141     41    181    147    233  73.6  56.4  34160  289.57 0855.05
2009/04/23 11:30:55.0     223    -67    163    233    284 106.8  38.6  34152  289.42 0855.05
2009/04/23 11:30:55.1     177    -26     96    179    203  98.4  30.6  34162  289.60 0855.05
2009/04/23 11:30:55.2      32     54    134     63    148  30.7  73.1  34168  289.72 0855.05
2009/04/23 11:30:55.3     129     79     83    152    173  58.5  31.0  34154  289.46 0855.05
2009/04/23 11:30:55.4     136    106     56    173    182  52.0  17.9  34154  289.46 0855.05
2009/04/23 11:30:55.5     190    181     34    263    266  46.4   7.5  34150  289.41 0855.05
2009/04/23 11:30:55.6     185     25     66    187    199  82.1  19.4  34152  289.43 0855.05
2009/04/23 11:30:55.7     215     16     68    216    227  85.6  17.7  34152  289.43 0855.05
2009/04/23 11:30:55.8     205     81    146    221    264  68.3  36.5  34166  289.66 0855.05
2009/04/23 11:30:55.9     239    -43    215    243    324 100.4  46.1  34174  289.80 0855.05
2009/04/23 11:30:56.0     159     55    229    169    284  70.9  60.0  34164  289.63 0855.05
2009/04/23 11:30:56.1       0     41    201     42    205 359.1  89.0  34178  289.89 0855.05
2009/04/23 11:30:56.2    -283   -156    210    324    386 241.1  35.9  34184  289.99 0855.05
2009/04/23 11:30:56.3     -70   -209    140    221    261 198.7  35.5  34190  290.07 0855.05
2009/04/23 11:30:56.4      18    -71    146     74    163 165.7  71.1  34176  289.85 0855.05
2009/04/23 11:30:56.5     -78   -417    336    425    541 190.6  42.3  34156  289.50 0855.05
2009/04/23 11:30:56.6    -196   -383    290    431    519 207.2  37.2  34156  289.52 0855.05
2009/04/23 11:30:56.7    -130   -406    215    427    478 197.8  28.7  34146  289.34 0855.05
2009/04/23 11:30:56.8    -134   -397    193    420    462 198.7  26.5  34152  289.43 0855.05
2009/04/23 11:30:56.9    -176   -387    167    426    457 204.5  22.7  34152  289.43 0855.05
2009/04/23 11:30:57.0    -123   -395    199    414    459 197.3  27.3  34152  289.44 0855.05
2009/04/23 11:30:57.1     -68   -437    198    443    485 188.9  25.7  34152  289.44 0855.05
2009/04/23 11:30:57.2     -42   -519    128    521    537 184.7  13.8  34150  289.41 0855.05
2009/04/23 11:30:57.3     -37   -466    159    468    495 184.6  18.8  34150  289.40 0855.05
2009/04/23 11:30:57.4     -30   -444    189    445    483 183.9  24.5  34154  289.47 0855.08
2009/04/23 11:30:57.5      -4   -510    194    511    546 180.5  21.8  34152  289.45 0855.08
2009/04/23 11:30:57.6      -9   -538    132    539    556 181.0  13.8  34154  289.48 0855.08
2009/04/23 11:30:57.7      -8   -543    105    544    555 180.9  11.0  34150  289.40 0855.08
2009/04/23 11:30:57.8      58   -526    149    530    551 173.7  15.8  34156  289.51 0855.08
2009/04/23 11:30:57.9      94   -532    102    541    551 169.9  10.7  34160  289.57 0855.08
2009/04/23 11:30:58.0     -86   -534    105    542    553 189.2  11.0  34156  289.50 0855.08
2009/04/23 11:30:58.1    -164   -560     91    584    592 196.4   8.9  34154  289.46 0855.08
2009/04/23 11:30:58.2     -97   -568    362    577    681 189.7  35.1  34156  289.52 0855.08
2009/04/23 11:30:58.3     -12   -536    364    537    648 181.4  37.4  34164  289.64 0855.08
2009/04/23 11:30:58.4    -160   -725    329    743    812 192.5  25.6  34160  289.57 0855.08
2009/04/23 11:30:58.5    -370   -555    113    668    678 213.7   9.6  34162  289.60 0855.08
2009/04/23 11:30:58.6    -148   -762     72    777    781 191.0   5.3  34156  289.49 0855.08
2009/04/23 11:30:58.7    -262   -725     39    772    774 199.9   2.9  34156  289.52 0855.08
2009/04/23 11:30:58.8    -359   -773    -33    853    854 204.9  -2.3  34186  290.02 0855.08
2009/04/23 11:30:58.9    -189   -683     43    709    711 195.5   3.5  34176  289.84 0855.08
2009/04/23 11:30:59.0    -198   -573    -11    607    608 199.1  -1.1  34178  289.88 0855.08
2009/04/23 11:30:59.1     -77   -445   -107    452    465 189.9 -13.4  34154  289.46 0855.08
2009/04/23 11:30:59.2      26   -337   -105    339    356 175.5 -17.3  34162  289.60 0855.08
2009/04/23 11:30:59.3      63   -338    -83    344    355 169.4 -13.7  34160  289.57 0855.08
2009/04/23 11:30:59.4    -125   -222    170    255    306 209.4  36.7  34164  289.64 0855.11
2009/04/23 11:30:59.5     -95   -275    110    291    311 199.1  21.5  34160  289.56 0855.11
2009/04/23 11:30:59.6    -156   -238    239    285    371 213.2  44.2  34164  289.64 0855.11
2009/04/23 11:30:59.7    -209   -298    127    365    387 215.1  19.2  34158  289.55 0855.11
2009/04/23 11:30:59.8    -237   -250     62    345    351 223.5  10.3  34162  289.62 0855.11
2009/04/23 11:30:59.9    -234   -303     63    384    390 217.7   9.3  34164  289.65 0855.11
2009/04/23 11:31:00.0    -198   -266    149    332    363 216.7  25.8  34172  289.77 0855.11
2009/04/23 11:31:00.1    -252   -121     94    280    296 244.2  18.6  34170  289.75 0855.11
2009/04/23 11:31:00.2    -147     11     43    148    155 274.4  16.3  34186  290.02 0855.11
2009/04/23 11:31:00.3    -293   -117    115    316    336 248.2  20.8  34186  290.01 0855.11
2009/04/23 11:31:00.4     -90   -271     89    286    300 198.5  17.3  34166  289.66 0855.11
2009/04/23 11:31:00.5    -162   -244    154    293    331 213.6  30.0  34168  289.71 0855.11
2009/04/23 11:31:00.6    -270   -269     63    382    388 225.1   9.4  34170  289.74 0855.11
2009/04/23 11:31:00.7    -435    -57    -96    439    450 262.5 -12.4  34190  290.09 0855.11
2009/04/23 11:31:00.8    -179   -128   -127    221    254 234.3 -36.8  34180  289.92 0855.11
2009/04/23 11:31:00.9    -344   -192      2    395    396 240.8   0.4  34172  289.79 0855.11
2009/04/23 11:31:01.0    -607   -304     -5    679    680 243.4  -0.5  34174  289.82 0855.11
2009/04/23 11:31:01.1    -663   -272   -121    717    728 247.7  -9.6  34164  289.64 0855.11
2009/04/23 11:31:01.2    -570   -323   -187    656    683 240.5 -15.9  34166  289.68 0855.11
2009/04/23 11:31:01.3    -637   -447   -245    779    816 234.9 -22.4  34162  289.62 0855.11
2009/04/23 11:31:01.4    -631   -256   -293    682    742 247.9 -29.2  34168  289.71 0855.12
2009/04/23 11:31:01.5    -947      9   -325    948   1002 270.6 -24.0  34188  290.05 0855.12
2009/04/23 11:31:01.6    -700   -137   -150    714    730 258.9 -11.9  34178  289.86 0855.12
2009/04/23 11:31:01.7    -620    -64   -333    624    707 264.0 -34.7  34180  289.92 0855.12
2009/04/23 11:31:01.8    -561   -394    216    686    720 234.9  17.5  34172  289.76 0855.12
2009/04/23 11:31:01.9    -386   -345     29    518    519 228.2   3.3  34166  289.69 0855.12
2009/04/23 11:31:02.0    -543   -310     72    626    631 240.2   6.6  34182  289.94 0855.12
2009/04/23 11:31:02.1    -468   -380    215    604    641 230.9  20.3  34174  289.82 0855.12
2009/04/23 11:31:02.2    -508   -257     38    570    572 243.2   3.9  34168  289.71 0855.12
2009/04/23 11:31:02.3    -487   -207    -47    530    533 246.9  -5.1  34176  289.84 0855.12
2009/04/23 11:31:02.4    -278   -454     46    533    536 211.5   5.0  34172  289.77 0855.12
2009/04/23 11:31:02.5    -232   -461    -80    517    524 206.7  -8.8  34172  289.77 0855.12
2009/04/23 11:31:02.6     -91   -444     83    454    462 191.7  10.4  34162  289.60 0855.12
2009/04/23 11:31:02.7    -332   -311     -5    456    457 226.9  -0.7  34160  289.58 0855.12
2009/04/23 11:31:02.8    -313   -214   -127    380    400 235.6 -23.6  34188  290.04 0855.12
2009/04/23 11:31:02.9    -171   -334   -104    376    391 207.1 -15.5  34174  289.82 0855.12
2009/04/23 11:31:03.0      -2   -276   -115    277    299 180.5 -28.2  34198  290.22 0855.12
2009/04/23 11:31:03.1    -164   -489   -145    517    536 198.6 -20.3  34178  289.87 0855.12
2009/04/23 11:31:03.2      38   -545   -163    547    571 176.0 -16.6  34172  289.77 0855.12
2009/04/23 11:31:03.3     151   -581   -107    601    611 165.4 -10.1  34172  289.76 0855.12
2009/04/23 11:31:03.4     -79   -418    -45    426    429 190.7  -6.1  34162  289.61 0855.15
2009/04/23 11:31:03.5     152   -311    146    347    376 153.9  24.1  34172  289.79 0855.15
2009/04/23 11:31:03.6       0   -725     99    726    733 180.0   7.8  34166  289.67 0855.15
2009/04/23 11:31:03.7    -180   -720    -63    743    746 194.1  -4.9  34186  290.01 0855.15
2009/04/23 11:31:03.8    -551   -812    109    982    989 214.2   6.4  34206  290.34 0855.15
2009/04/23 11:31:03.9    -574   -572    -83    811    816 225.1  -5.9  34196  290.18 0855.15
2009/04/23 11:31:04.0    -523   -604     20    800    801 220.9   1.5  34176  289.83 0855.15
2009/04/23 11:31:04.1    -627   -763   -200    988   1008 219.4 -11.5  34180  289.90 0855.15
2009/04/23 11:31:04.2    -354   -638    -93    730    736 209.0  -7.3  34196  290.18 0855.15
2009/04/23 11:31:04.3    -317   -893   -266    949    985 199.6 -20.4  34186  290.01 0855.15
2009/04/23 11:31:04.4     -14   -618   -207    619    652 181.4 -23.5  34156  289.52 0855.15
2009/04/23 11:31:04.5    -290   -707    153    765    781 202.3  11.3  34192  290.10 0855.15
2009/04/23 11:31:04.6     -61   -377    321    382    498 189.2  44.3  34154  289.46 0855.15
2009/04/23 11:31:04.7    -106   -319    235    337    410 198.5  38.5  34178  289.86 0855.15
2009/04/23 11:31:04.8    -150   -491     31    514    515 197.0   3.5  34226  290.69 0855.15
2009/04/23 11:31:04.9     -66   -642    -70    646    650 185.9  -6.3  34208  290.40 0855.15
2009/04/23 11:31:05.0    -419   -410    171    587    612 225.7  16.3  34202  290.27 0855.15
2009/04/23 11:31:05.1    -545   -494     46    736    738 227.8   3.6  34186  290.01 0855.15
2009/04/23 11:31:05.2    -368   -738    107    825    832 206.5   7.4  34216  290.52 0855.15
2009/04/23 11:31:05.3     -10   -823     76    824    828 180.7   5.3  34162  289.62 0855.17
2009/04/23 11:31:05.4     -73   -861    -62    865    868 184.9  -4.1  34182  289.93 0855.17
2009/04/23 11:31:05.5    -244   -779    -16    817    818 197.4  -1.2  34170  289.75 0855.17
2009/04/23 11:31:05.6    -539   -563    -64    780    783 223.8  -4.7  34178  289.86 0855.17
2009/04/23 11:31:05.7    -679   -429   -184    804    825 237.7 -12.9  34172  289.77 0855.17
2009/04/23 11:31:05.8    -877   -494    -55   1007   1009 240.6  -3.2  34210  290.41 0855.17
2009/04/23 11:31:05.9    -672   -366    -79    766    771 241.4  -5.9  34178  289.87 0855.17
2009/04/23 11:31:06.0    -910   -520     32   1049   1050 240.3   1.8  34190  290.07 0855.17
2009/04/23 11:31:06.1    -616   -595    125    857    867 226.0   8.3  34186  290.00 0855.17
2009/04/23 11:31:06.2    -653   -305     35    721    722 245.0   2.8  34198  290.20 0855.17
2009/04/23 11:31:06.3    -542   -210    -32    582    583 248.8  -3.2  34204  290.31 0855.17
2009/04/23 11:31:06.4    -513   -236     64    565    569 245.3   6.5  34186  290.02 0855.17
2009/04/23 11:31:06.5    -352   -227     -1    419    420 237.2  -0.3  34174  289.82 0855.17
2009/04/23 11:31:06.6    -103    -22    111    106    153 257.6  51.2  34196  290.19 0855.17
2009/04/23 11:31:06.7    -287    104     74    306    315 290.0  13.7  34198  290.20 0855.17
2009/04/23 11:31:06.8    -260    325     94    417    428 321.3  12.8  34168  289.70 0855.17
2009/04/23 11:31:06.9    -488    142    -19    509    510 286.3  -2.2  34182  289.96 0855.17
2009/04/23 11:31:07.0    -499    189    147    534    554 290.8  15.4  34184  289.97 0855.17
2009/04/23 11:31:07.1    -462    405    -24    615    616 311.3  -2.2  34186  290.01 0855.17
2009/04/23 11:31:07.2    -515    362     -5    630    631 305.1  -0.5  34204  290.33 0855.17
2009/04/23 11:31:07.3    -527    335     -6    625    626 302.5  -0.6  34212  290.45 0855.16
2009/04/23 11:31:07.4      29    222    116    224    252   7.6  29.5  34174  289.81 0855.16
2009/04/23 11:31:07.5     -66     59    311     89    323 311.8  83.9  34226  290.70 0855.16
2009/04/23 11:31:07.6    -112    281    278    303    411 338.2  47.3  34210  290.43 0855.16
2009/04/23 11:31:07.7      51    413    202    417    463   7.1  27.4  34208  290.39 0855.16
2009/04/23 11:31:07.8      21    276    187    277    334   4.5  37.3  34202  290.27 0855.16
2009/04/23 11:31:07.9     206    369    212    423    473  29.2  28.6  34194  290.16 0855.16
2009/04/23 11:31:08.0     208    208    195    295    353  45.0  36.6  34202  290.30 0855.16
2009/04/23 11:31:08.1      99    -17    149    101    180 100.1  62.6  34220  290.58 0855.16
2009/04/23 11:31:08.2    -172     32    132    175    219 280.6  40.7  34210  290.43 0855.16
2009/04/23 11:31:08.3    -347      0    101    348    363 270.0  16.3  34202  290.30 0855.16
2009/04/23 11:31:08.4    -234     -3    197    235    306 269.1  44.1  34204  290.31 0855.16
2009/04/23 11:31:08.5    -254    140    157    291    330 298.9  30.8  34216  290.51 0855.16
2009/04/23 11:31:08.6     -36   -212    379    216    436 189.6  67.9  34200  290.25 0855.16
2009/04/23 11:31:08.7    -125   -146    200    193    277 220.5  51.2  34194  290.14 0855.16
2009/04/23 11:31:08.8      95    -43    156    105    188 114.4  63.2  34208  290.40 0855.16
2009/04/23 11:31:08.9      59     18    196     62    205  72.3  81.6  34218  290.55 0855.16
2009/04/23 11:31:09.0      73    -34    183     81    200 115.4  74.8  34214  290.48 0855.16
2009/04/23 11:31:09.1      31   -155    227    159    277 168.4  61.7  34212  290.46 0855.16
2009/04/23 11:31:09.2      65    -77    236    101    256 139.9  75.9  34194  290.14 0855.16
2009/04/23 11:31:09.3    -170   -193    160    258    303 221.4  35.2  34194  290.15 0855.16
2009/04/23 11:31:09.4      34      0    143     35    147  90.0  86.4  34204  290.31 0855.16
2009/04/23 11:31:09.5     129    -72     83    149    170 119.3  31.6  34200  290.25 0855.16
2009/04/23 11:31:09.6     190     30    138    193    237  81.0  39.1  34202  290.28 0855.16
2009/04/23 11:31:09.7     192     46    175    198    264  76.3  45.8  34200  290.26 0855.16
2009/04/23 11:31:09.8     114    166    156    202    255  34.5  41.7  34208  290.37 0855.16
2009/04/23 11:31:09.9     -45     85    177     97    201 331.9  68.8  34216  290.52 0855.16
2009/04/23 11:31:10.0     -62     45    153     77    171 306.0  71.7  34218  290.55 0855.16
2009/04/23 11:31:10.1    -108    -58     65    123    139 241.6  30.3  34222  290.64 0855.16
2009/04/23 11:31:10.2     -99   -160     52    189    197 211.6  15.6  34212  290.47 0855.16
2009/04/23 11:31:10.3     -16   -103      5    105    106 188.9   2.9  34208  290.40 0855.15
2009/04/23 11:31:10.4     -72     40     82     83    116 298.9  50.5  34214  290.48 0855.15
2009/04/23 11:31:10.5    -287     22     96    288    304 274.4  18.5  34204  290.32 0855.15
2009/04/23 11:31:10.6    -177    117     76    213    226 303.5  20.2  34228  290.72 0855.15
2009/04/23 11:31:10.7    -258     48     63    263    271 280.6  13.5  34220  290.58 0855.15
2009/04/23 11:31:10.8    -133   -144    131    197    236 222.8  36.7  34198  290.23 0855.15
2009/04/23 11:31:10.9    -153   -128    111    200    228 230.2  31.4  34202  290.30 0855.15
2009/04/23 11:31:11.0     -77   -254    276    266    383 197.0  51.2  34188  290.06 0855.15
2009/04/23 11:31:11.1     -45   -355    303    358    469 187.3  44.5  34200  290.24 0855.15
2009/04/23 11:31:11.2      22   -203    322    205    381 173.8  64.7  34200  290.25 0855.15
2009/04/23 11:31:11.3       7   -178    174    179    249 177.5  49.4  34198  290.23 0855.15
2009/04/23 11:31:11.4     -23   -215    214    217    304 186.3  49.9  34192  290.10 0855.15
2009/04/23 11:31:11.5       0   -215    175    216    277 180.2  43.3  34190  290.07 0855.15
2009/04/23 11:31:11.6       1   -273    207    274    343 179.8  40.9  34188  290.05 0855.15
2009/04/23 11:31:11.7      -3   -193    268    194    330 181.0  60.6  34186  290.02 0855.15
2009/04/23 11:31:11.8     -70   -232    239    243    340 196.9  49.8  34188  290.03 0855.15
2009/04/23 11:31:11.9     -26   -199    231    201    306 187.6  54.3  34186  290.00 0855.15
2009/04/23 11:31:12.0    -112   -214    159    242    289 207.6  36.5  34188  290.03 0855.15
2009/04/23 11:31:12.1     -54   -200    190    208    281 195.1  47.5  34192  290.12 0855.15
2009/04/23 11:31:12.2    -124    -79     68    148    162 237.6  26.2  34234  290.84 0855.15
2009/04/23 11:31:12.3      -9   -106    133    107    170 184.9  56.9  34194  290.16 0855.14
2009/04/23 11:31:12.4      15   -104    113    106    154 171.5  52.1  34184  289.99 0855.14
2009/04/23 11:31:12.5      10    -45     99     47    109 166.6  72.9  34198  290.23 0855.14
2009/04/23 11:31:12.6      56    -11    103     58    118 101.5  68.8  34196  290.19 0855.14
2009/04/23 11:31:12.7     -35    -34    107     50    118 226.0  73.5  34200  290.26 0855.14
2009/04/23 11:31:12.8       7     26    144     27    146  15.1  89.6  34206  290.36 0855.14
2009/04/23 11:31:12.9     -38     59    130     71    148 327.4  68.9  34222  290.64 0855.14
2009/04/23 11:31:13.0     151     49    169    159    232  71.8  52.1  34208  290.40 0855.14
2009/04/23 11:31:13.1     381    150    434    410    597  68.5  52.1  34224  290.65 0855.14
2009/04/23 11:31:13.2     344    280     32    444    446  50.9   4.2  34198  290.22 0855.14
2009/04/23 11:31:13.3     467    201    -11    509    510  66.7  -1.3  34182  289.95 0855.14
2009/04/23 11:31:13.4     478    157     79    504    511  71.8   9.0  34212  290.45 0855.14
2009/04/23 11:31:13.5     531    231    109    579    590  66.5  10.7  34212  290.47 0855.14
2009/04/23 11:31:13.6     594    215     82    632    638  70.1   7.5  34204  290.33 0855.14
2009/04/23 11:31:13.7     475    172     50    506    509  70.1   5.7  34200  290.25 0855.14
2009/04/23 11:31:13.8     350    137    167    376    411  68.6  25.6  34212  290.45 0855.14
2009/04/23 11:31:13.9     338     26    218    340    403  85.5  35.6  34214  290.50 0855.14
2009/04/23 11:31:14.0     215   -151    238    263    354 125.1  46.8  34212  290.44 0855.14
2009/04/23 11:31:14.1      95   -145    186    174    254 146.6  52.2  34224  290.65 0855.14
2009/04/23 11:31:14.2      62      0    160     63    171  90.8  77.6  34224  290.65 0855.14
2009/04/23 11:31:14.3    -118   -113    245    164    294 226.2  62.8  34222  290.61 0855.14
2009/04/23 11:31:14.4    -100    -52    206    113    234 242.5  69.1  34228  290.74 0855.14
2009/04/23 11:31:14.5    -182   -213    158    281    322 220.6  31.9  34204  290.32 0855.14
2009/04/23 11:31:14.6    -157   -113    106    194    221 234.1  31.3  34216  290.53 0855.14
2009/04/23 11:31:14.7    -115    -12    -10    116    117 263.9  -5.2  34216  290.52 0855.14
2009/04/23 11:31:14.8     -27    -81      0     86     87 198.5   0.2  34216  290.52 0855.14
2009/04/23 11:31:14.9    -102   -113      2    153    154 221.9   0.8  34214  290.50 0855.14
2009/04/23 11:31:15.0    -120     -9      4    121    122 265.7   2.3  34222  290.62 0855.14
2009/04/23 11:31:15.2     -76     34     -3     84     85 294.4  -2.2  34228  290.72 0855.14
2009/04/23 11:31:15.2    -110    -24      1    113    114 257.2   0.8  34222  290.62 0855.14
2009/04/23 11:31:15.3    -135     81    112    158    193 301.1  38.8  34224  290.67 0855.14
2009/04/23 11:31:15.5    -121     92     95    153    180 307.3  35.0  34228  290.74 0855.14
2009/04/23 11:31:15.5    -155     41     93    161    185 285.1  32.7  34234  290.84 0855.14
2009/04/23 11:31:15.7     -78     25    125     83    150 288.2  63.6  34246  291.04 0855.14
2009/04/23 11:31:15.8      -5     15    138     16    138 341.7  90.0  34238  290.89 0855.14
2009/04/23 11:31:15.9       3   -177    174    178    248 178.9  49.8  34194  290.16 0855.14
2009/04/23 11:31:16.0      98   -284    108    301    319 160.9  20.4  34180  289.90 0855.14
2009/04/23 11:31:16.1     179   -231    140    293    324 142.2  27.3  34174  289.80 0855.14
2009/04/23 11:31:16.2      20   -442    121    443    460 177.4  15.3  34168  289.70 0855.14
2009/04/23 11:31:16.3     -25   -513    112    514    527 182.8  12.3  34168  289.70 0855.14
2009/04/23 11:31:16.4      14   -508     15    509    510 178.4   1.7  34174  289.81 0855.15
2009/04/23 11:31:16.5     -54   -526     63    529    533 185.9   6.9  34160  289.57 0855.15
2009/04/23 11:31:16.6     -30   -474    -29    475    476 183.7  -3.5  34166  289.69 0855.15
2009/04/23 11:31:16.7     -33   -405    -43    407    410 184.7  -6.1  34170  289.73 0855.15
2009/04/23 11:31:16.8     143   -302    -51    335    339 154.6  -8.7  34168  289.71 0855.15
2009/04/23 11:31:16.9     201   -233   -101    308    324 139.2 -23.5  34174  289.81 0855.15
2009/04/23 11:31:17.0     177   -194    -92    263    279 137.7 -19.4  34174  289.80 0855.15
2009/04/23 11:31:17.1     147   -279    -26    316    318 152.1  -4.9  34174  289.81 0855.15
2009/04/23 11:31:17.2     182   -242     42    304    308 143.0   8.0  34172  289.78 0855.15
2009/04/23 11:31:17.3     174   -382     -8    420    421 155.5  -1.1  34160  289.56 0855.15
2009/04/23 11:31:17.4     217   -373     -1    432    433 149.8  -0.3  34158  289.55 0855.15
2009/04/23 11:31:17.5      48   -331    150    335    367 171.7  25.7  34164  289.64 0855.15
2009/04/23 11:31:17.6      83   -301     73    313    322 164.6  13.1  34156  289.49 0855.15
2009/04/23 11:31:17.7     172   -391     84    428    437 156.3  11.1  34148  289.36 0855.15
2009/04/23 11:31:17.8     180   -264    147    320    352 145.7  26.4  34156  289.50 0855.15
2009/04/23 11:31:17.9     -51   -191    168    198    259 195.2  44.8  34166  289.68 0855.15
2009/04/23 11:31:18.0    -127   -290    177    317    363 203.7  31.5  34158  289.54 0855.15
2009/04/23 11:31:18.1     -70   -389    147    396    422 190.3  21.4  34162  289.61 0855.15
2009/04/23 11:31:18.2    -102   -308    204    325    383 198.3  35.3  34164  289.65 0855.15
2009/04/23 11:31:18.3    -116   -234    184    262    320 206.5  38.5  34154  289.46 0855.15
2009/04/23 11:31:18.4    -120   -119    175    170    243 225.2  50.7  34170  289.75 0855.16
2009/04/23 11:31:18.5    -204   -157    180    258    314 232.3  38.4  34168  289.71 0855.16
2009/04/23 11:31:18.6    -298    -90     55    312    317 253.1  10.1  34164  289.63 0855.16
2009/04/23 11:31:18.7    -511    -93    152    520    542 259.7  16.3  34172  289.79 0855.16
2009/04/23 11:31:18.8    -437    -54    -31    441    443 262.9  -4.0  34174  289.82 0855.16
2009/04/23 11:31:18.9    -347   -131     24    371    372 249.3   3.8  34184  289.98 0855.16
2009/04/23 11:31:19.0    -372     70     69    379    386 280.7  10.4  34178  289.86 0855.16
2009/04/23 11:31:19.1    -261     32    -34    264    267 277.1  -7.5  34178  289.86 0855.16
2009/04/23 11:31:19.2    -171     26    -75    174    189 278.8 -29.3  34180  289.92 0855.16
2009/04/23 11:31:19.3    -116     22   -164    119    202 281.0 -65.0  34192  290.11 0855.16
2009/04/23 11:31:19.4      -7     71    -81     72    108 353.8 -58.1  34196  290.19 0855.16
2009/04/23 11:31:19.5      68    170    -24    184    186  21.8  -7.5  34190  290.08 0855.16
2009/04/23 11:31:19.6      93    107     39    143    149  41.0  15.2  34198  290.23 0855.16
2009/04/23 11:31:19.7     116    115     43    164    170  45.2  14.7  34202  290.30 0855.16
2009/04/23 11:31:19.8      97    136     93    168    192  35.6  31.4  34202  290.28 0855.16
2009/04/23 11:31:19.9     116    191    113    224    250  31.4  28.5  34174  289.81 0855.16
2009/04/23 11:31:20.0     -47     72    137     87    162 327.0  64.7  34202  290.28 0855.16
2009/04/23 11:31:20.1     -19     39    113     44    121 333.7  77.6  34190  290.08 0855.16
2009/04/23 11:31:20.2     -47    -21    139     52    148 245.6  79.1  34200  290.26 0855.16
2009/04/23 11:31:20.3     -84   -101     89    132    159 219.7  37.3  34192  290.13 0855.16
2009/04/23 11:31:20.4    -251    -24     88    253    268 264.5  19.2  34186  290.00 0855.15
2009/04/23 11:31:20.5    -327    -25      2    328    329 265.6   0.5  34198  290.20 0855.15
2009/04/23 11:31:20.6    -242    -43      3    246    247 259.9   0.8  34204  290.31 0855.15
2009/04/23 11:31:20.7    -249   -113     78    274    286 245.6  16.0  34212  290.44 0855.15
2009/04/23 11:31:20.8    -258   -107    119    280    304 247.4  24.6  34210  290.42 0855.15
2009/04/23 11:31:20.9    -179    -83    108    198    225 244.9  31.3  34204  290.33 0855.15
2009/04/23 11:31:21.0    -109   -195     17    224    225 209.2   4.6  34186  290.01 0855.15
2009/04/23 11:31:21.1    -143   -344    131    373    395 202.6  20.1  34182  289.96 0855.15
2009/04/23 11:31:21.2    -193   -440    177    481    512 203.7  21.1  34206  290.34 0855.15
2009/04/23 11:31:21.3    -159   -532     92    556    564 196.7   9.5  34194  290.14 0855.15
2009/04/23 11:31:21.4     -41   -487    -61    489    493 184.9  -7.2  34206  290.35 0855.15
2009/04/23 11:31:21.5      97   -399     31    411    413 166.3   4.3  34178  289.87 0855.15
2009/04/23 11:31:21.6     -74   -365    132    373    397 191.6  19.6  34196  290.18 0855.15
2009/04/23 11:31:21.7      21   -328     -1    329    330 176.3  -0.2  34184  289.98 0855.15
2009/04/23 11:31:21.8     -12   -210     76    211    224 183.4  20.4  34162  289.60 0855.15
2009/04/23 11:31:21.9       9    -68    154     69    168 172.0  74.5  34184  289.97 0855.15
2009/04/23 11:31:22.0     -54     17    121     57    133 288.2  72.9  34206  290.35 0855.15
2009/04/23 11:31:22.1     -36     84    172     92    195 336.4  69.8  34184  289.99 0855.15
2009/04/23 11:31:22.2     -38    -46    153     61    164 219.6  77.6  34192  290.11 0855.15
2009/04/23 11:31:22.3    -256   -326    160    415    444 218.1  22.1  34206  290.36 0855.15
2009/04/23 11:31:22.4    -164   -258    129    306    332 212.5  24.2  34180  289.92 0855.16
2009/04/23 11:31:22.5    -111   -341     80    359    368 198.0  12.6  34176  289.84 0855.16
2009/04/23 11:31:22.6    -153   -193     -9    247    248 218.5  -2.2  34214  290.49 0855.16
2009/04/23 11:31:22.7     -50   -240     69    246    256 191.8  15.8  34184  289.98 0855.16
2009/04/23 11:31:22.8    -166   -225    182    280    333 216.5  36.2  34180  289.92 0855.16
2009/04/23 11:31:22.9    -138   -264    257    298    393 207.6  45.2  34182  289.93 0855.16
2009/04/23 11:31:23.0    -135   -348    269    374    460 201.2  39.5  34164  289.65 0855.16
2009/04/23 11:31:23.1    -146   -468    419    491    645 197.4  44.8  34174  289.81 0855.16
2009/04/23 11:31:23.2    -389   -714    239    814    849 208.6  16.4  34154  289.48 0855.16
2009/04/23 11:31:23.3    -310   -548    103    630    639 209.5   9.3  34158  289.55 0855.16
2009/04/23 11:31:23.4       8     -8    305     12    305 133.1  90.0  34190  290.09 0855.16
2009/04/23 11:31:23.5      36      2    316     37    318  85.6  90.0  34204  290.32 0855.16
2009/04/23 11:31:23.6      22   -292    411    293    504 175.5  61.1  34182  289.95 0855.16
2009/04/23 11:31:23.7     106   -313    352    331    483 161.2  52.1  34180  289.90 0855.16
2009/04/23 11:31:23.8     332   -232    334    406    525 125.0  43.7  34180  289.91 0855.16
2009/04/23 11:31:23.9     379   -105    346    394    524 105.5  45.8  34182  289.95 0855.16
2009/04/23 11:31:24.0     266   -353    319    443    545 143.0  39.2  34156  289.49 0855.16
2009/04/23 11:31:24.1     264   -436    348    510    617 148.8  37.6  34154  289.46 0855.16
2009/04/23 11:31:24.2     108   -320    117    338    358 161.3  19.2  34158  289.54 0855.16
2009/04/23 11:31:24.3     258   -570    203    626    659 155.6  18.0  34150  289.40 0855.16
2009/04/23 11:31:24.4     245   -537    297    591    661 155.5  28.7  34156  289.52 0855.13
2009/04/23 11:31:24.5      67   -521     54    526    529 172.6   5.9  34170  289.75 0855.13
2009/04/23 11:31:24.6     172   -427    -79    461    468 158.1  -9.8  34166  289.67 0855.13
2009/04/23 11:31:24.7      91   -302     20    316    317 163.1   3.7  34166  289.66 0855.13
2009/04/23 11:31:24.8       3   -238    139    239    276 179.1  32.9  34172  289.76 0855.13
2009/04/23 11:31:24.9     -70   -338    252    346    428 191.8  39.7  34182  289.94 0855.13
2009/04/23 11:31:25.0    -201   -567    262    602    656 199.6  25.1  34166  289.69 0855.13
2009/04/23 11:31:25.1    -211   -369    249    426    493 209.8  32.9  34182  289.95 0855.13
2009/04/23 11:31:25.2       7   -245    328    246    410 178.2  59.4  34178  289.87 0855.13
2009/04/23 11:31:25.3    -120   -353    339    373    504 198.8  47.0  34186  290.00 0855.13
2009/04/23 11:31:25.4     -81   -293    333    305    451 195.6  52.9  34190  290.07 0855.13
2009/04/23 11:31:25.5      29   -195    260    198    326 171.5  59.0  34194  290.15 0855.13
2009/04/23 11:31:25.6     212      0    293    213    362  90.0  60.5  34176  289.83 0855.13
2009/04/23 11:31:25.7     343     44    349    346    491  82.5  50.2  34184  289.99 0855.13
2009/04/23 11:31:25.8     271    -93    323    287    432 109.0  54.0  34184  289.99 0855.13
2009/04/23 11:31:25.9     378   -236    272    446    522 122.0  34.3  34184  289.98 0855.13
2009/04/23 11:31:26.0     487   -264    233    555    601 118.5  24.2  34176  289.85 0855.13
2009/04/23 11:31:26.1     279   -224    282    358    455 128.8  42.2  34168  289.70 0855.13
2009/04/23 11:31:26.2      19    -66    186     69    198 164.0  79.1  34182  289.94 0855.13
2009/04/23 11:31:26.3     228     10    218    229    316  87.4  48.5  34186  290.02 0855.13
2009/04/23 11:31:26.4      94     75    131    121    178  51.4  52.2  34196  290.19 0855.12
2009/04/23 11:31:26.5     120    107    128    161    205  48.2  42.7  34192  290.13 0855.12
2009/04/23 11:31:26.6     159   -149     60    219    228 133.2  15.3  34178  289.89 0855.12
2009/04/23 11:31:26.7     171    -83     86    191    209 116.0  25.9  34178  289.89 0855.12
2009/04/23 11:31:26.8     108   -115    114    159    195 136.8  39.3  34176  289.84 0855.12
2009/04/23 11:31:26.9     206   -111    175    235    293 118.4  40.4  34176  289.85 0855.12
2009/04/23 11:31:27.0      -2      8    162      9    162 341.7  90.0  34196  290.18 0855.12
2009/04/23 11:31:27.1      10    -53    121     55    132 168.5  74.0  34184  289.97 0855.12
2009/04/23 11:31:27.2     -49   -178    197    185    270 195.6  52.1  34176  289.83 0855.12
2009/04/23 11:31:27.3     -26   -155    230    158    279 189.8  62.6  34182  289.93 0855.12
2009/04/23 11:31:27.4      13   -201    317    202    375 176.2  64.7  34180  289.91 0855.12
2009/04/23 11:31:27.5    -183   -161    195    244    312 228.7  42.8  34174  289.81 0855.12
2009/04/23 11:31:27.6     -24   -177    229    179    290 187.8  58.2  34180  289.90 0855.12
2009/04/23 11:31:27.7     -53   -132    214    143    257 201.8  63.4  34182  289.96 0855.12
2009/04/23 11:31:27.8     -83   -208    244    225    331 201.8  52.5  34182  289.93 0855.12
2009/04/23 11:31:27.9    -155   -262    189    305    358 210.7  34.9  34182  289.94 0855.12
2009/04/23 11:31:28.0     -44   -275    205    279    346 189.1  39.9  34178  289.86 0855.12
2009/04/23 11:31:28.1      52   -221    187    228    294 166.6  43.7  34188  290.03 0855.12
2009/04/23 11:31:28.2     -55   -293    212    299    366 190.7  38.8  34170  289.74 0855.12
2009/04/23 11:31:28.3    -242   -345    172    422    455 215.1  23.4  34180  289.92 0855.12
2009/04/23 11:31:28.4     -76   -297    263    307    404 194.5  44.9  34178  289.87 0855.09
2009/04/23 11:31:28.5    -103   -329    316    345    467 197.5  47.3  34176  289.83 0855.09
2009/04/23 11:31:28.6     -45   -238    306    243    390 190.9  57.7  34178  289.89 0855.09
2009/04/23 11:31:28.7       0    -92    240     93    257 179.5  77.8  34204  290.31 0855.09
2009/04/23 11:31:28.8       2   -139    336    140    364 179.1  76.1  34198  290.20 0855.09
2009/04/23 11:31:28.9    -163   -170    218    236    321 223.7  47.7  34184  289.98 0855.09
2009/04/23 11:31:29.0     -92   -167    228    191    297 209.0  56.3  34190  290.07 0855.09
2009/04/23 11:31:29.1     -81   -136    197    159    253 210.7  56.9  34192  290.13 0855.09
2009/04/23 11:31:29.2    -107    -68    171    127    213 237.5  60.0  34204  290.31 0855.09
2009/04/23 11:31:29.3    -177    -11    178    178    251 266.3  50.1  34198  290.23 0855.09
2009/04/23 11:31:29.4      -4    -57    231     58    238 184.4  86.0  34194  290.14 0855.09
2009/04/23 11:31:29.5     -18   -235    215    236    319 184.5  47.0  34194  290.14 0855.09
2009/04/23 11:31:29.6     -64   -109    245    127    275 210.3  70.6  34194  290.15 0855.09
2009/04/23 11:31:29.7     -94   -210    257    231    345 204.1  53.5  34186  290.02 0855.09
2009/04/23 11:31:29.8    -212   -240    226    321    392 221.5  38.6  34192  290.13 0855.09
2009/04/23 11:31:29.9    -266   -208    202    338    393 232.0  33.6  34192  290.11 0855.09
2009/04/23 11:31:30.0    -332    -15    132    333    358 267.4  22.8  34182  289.96 0855.09
2009/04/23 11:31:30.1    -250    302    212    393    446 320.4  30.7  34204  290.31 0855.09
2009/04/23 11:31:30.2    -223    304    217    378    435 323.8  32.4  34202  290.29 0855.09
2009/04/23 11:31:30.3    -325    266    175    421    455 309.3  23.9  34186  290.00 0855.09
2009/04/23 11:31:30.4    -229    117     90    258    274 297.1  19.2  34176  289.83 0855.08
2009/04/23 11:31:30.5    -302    163    192    344    393 298.3  31.6  34192  290.10 0855.08
2009/04/23 11:31:30.6    -184    240    150    303    338 322.6  28.2  34180  289.90 0855.08
2009/04/23 11:31:30.7      32    334    147    336    366   5.6  25.1  34164  289.65 0855.08
2009/04/23 11:31:30.8     -55    173    125    182    220 342.2  37.8  34172  289.79 0855.08
2009/04/23 11:31:30.9     -90    198     -8    218    219 335.5  -2.2  34164  289.65 0855.08
2009/04/23 11:31:31.0    -219    246     -9    330    331 318.3  -1.6  34172  289.77 0855.08
2009/04/23 11:31:31.1    -279    242    -20    370    371 311.0  -3.1  34168  289.72 0855.08
2009/04/23 11:31:31.2     -42    444    157    447    473 354.6  20.2  34178  289.89 0855.08
2009/04/23 11:31:31.3     -61    341     35    347    349 349.8   5.8  34178  289.87 0855.08
2009/04/23 11:31:31.4    -145    261     66    299    307 331.0  12.6  34176  289.85 0855.08
2009/04/23 11:31:31.5    -310     21    -85    311    322 273.9 -20.0  34184  289.97 0855.08
2009/04/23 11:31:31.6    -251   -118     -3    278    279 244.7  -0.7  34170  289.73 0855.08
2009/04/23 11:31:31.7    -349      7     17    350    351 271.3   2.8  34164  289.65 0855.08
2009/04/23 11:31:31.8    -333    229    -89    405    415 304.5 -12.5  34188  290.05 0855.08
2009/04/23 11:31:31.9    -224    247    -92    334    346 317.8 -20.0  34186  290.01 0855.08
2009/04/23 11:31:32.0    -178    164    -72    243    253 312.7 -21.7  34182  289.95 0855.08
2009/04/23 11:31:32.1    -103    244    -17    265    266 337.1  -3.7  34182  289.93 0855.08
2009/04/23 11:31:32.2      25    270     68    272    281   5.3  14.2  34188  290.05 0855.08
2009/04/23 11:31:32.3    -101    171     81    199    214 329.3  23.1  34180  289.91 0855.08
2009/04/23 11:31:32.4    -195    107    -32    223    226 298.9  -8.2  34182  289.96 0855.11
2009/04/23 11:31:32.5    -239    183    190    302    356 307.5  35.2  34218  290.54 0855.11
2009/04/23 11:31:32.6    -248    158    124    295    320 302.5  24.1  34228  290.73 0855.11
2009/04/23 11:31:32.7    -242    177     26    300    302 306.2   5.0  34206  290.36 0855.11
2009/04/23 11:31:32.8     -92    254     47    271    276 340.0  10.0  34198  290.20 0855.11
2009/04/23 11:31:32.9     -93    159    -52    185    193 329.7 -15.8  34200  290.25 0855.11
2009/04/23 11:31:33.0      27    151     44    154    161  10.2  16.0  34206  290.35 0855.11
2009/04/23 11:31:33.1      34     73     84     81    116  25.3  50.7  34210  290.43 0855.11
2009/04/23 11:31:33.2     111    131    133    172    217  40.3  41.6  34194  290.16 0855.11
2009/04/23 11:31:33.3      99     93    208    136    248  46.8  63.9  34192  290.11 0855.11
2009/04/23 11:31:33.4       0     68    167     69    180   0.0  76.6  34198  290.23 0855.15
2009/04/23 11:31:33.5     128     76    174    150    229  59.3  55.0  34182  289.96 0855.15
2009/04/23 11:31:33.6      99    106    150    146    209  43.2  50.4  34188  290.06 0855.15
2009/04/23 11:31:33.7      91     95    207    132    245  43.7  64.7  34190  290.09 0855.15
2009/04/23 11:31:33.8     202    315    274    375    464  32.6  39.7  34186  290.00 0855.15
2009/04/23 11:31:33.9      -5    307    225    308    381 358.9  39.7  34198  290.20 0855.15
2009/04/23 11:31:34.0      75    128    221    149    266  30.3  62.8  34198  290.20 0855.15
2009/04/23 11:31:34.1      41     48    189     64    199  40.5  81.0  34198  290.21 0855.15
2009/04/23 11:31:34.2       0    -54    182     55    190 180.0  82.5  34204  290.33 0855.15
2009/04/23 11:31:34.3     177    108    263    208    335  58.7  57.7  34182  289.93 0855.15
2009/04/23 11:31:34.4     -57     88    183    105    210 327.0  67.5  34196  290.18 0855.15
2009/04/23 11:31:34.5     -47    -45    218     66    227 225.9  82.7  34202  290.30 0855.15
2009/04/23 11:31:34.6     247    157    124    293    318  57.6  24.2  34184  289.98 0855.15
2009/04/23 11:31:34.7     267     47    187    272    330  79.9  37.7  34194  290.14 0855.15
2009/04/23 11:31:34.8     364   -115     38    382    385 107.5   5.8  34192  290.10 0855.15
2009/04/23 11:31:34.9     364     85     95    374    386  76.8  14.3  34202  290.30 0855.15
2009/04/23 11:31:35.0     636    219    256    673    720  70.9  21.8  34234  290.83 0855.15
2009/04/23 11:31:35.1     841    184    444    862    969  77.6  29.4  34200  290.25 0855.15
2009/04/23 11:31:35.2     450   -181    453    486    664 112.0  47.8  34172  289.76 0855.15
2009/04/23 11:31:35.3     379   -133    394    402    562 109.4  49.4  34170  289.74 0855.15
2009/04/23 11:31:35.4     146   -306    352    340    489 154.5  51.2  34210  290.41 0855.15
2009/04/23 11:31:35.5     250   -242    345    349    490 134.1  49.8  34176  289.85 0855.15
2009/04/23 11:31:35.6     241   -128    304    274    409 118.0  53.4  34176  289.84 0855.15
2009/04/23 11:31:35.7     102   -108    185    149    237 136.7  57.3  34186  290.02 0855.15
2009/04/23 11:31:35.8     251   -148    214    292    362 120.6  39.9  34172  289.77 0855.15
2009/04/23 11:31:35.9     137   -282    172    314    358 154.1  31.3  34172  289.77 0855.15
2009/04/23 11:31:36.0     212   -307    198    374    423 145.3  30.2  34174  289.82 0855.15
2009/04/23 11:31:36.1     106   -275    232    295    375 158.8  42.1  34168  289.71 0855.15
2009/04/23 11:31:36.2     104   -260    225    281    359 158.1  42.9  34172  289.77 0855.15
2009/04/23 11:31:36.3       0   -198    197    199    280 179.8  50.0  34174  289.80 0855.15
2009/04/23 11:31:36.4      -8   -202    107    203    229 182.5  30.1  34172  289.79 0855.15
2009/04/23 11:31:36.5     -22   -268     75    269    280 184.7  15.6  34188  290.03 0855.15
2009/04/23 11:31:36.6     -63   -167     36    179    183 200.9  11.4  34210  290.43 0855.15
2009/04/23 11:31:36.7     -11   -150     67    151    165 184.4  25.3  34200  290.25 0855.15
2009/04/23 11:31:36.8     -90   -107     45    140    148 220.1  17.9  34200  290.26 0855.15
2009/04/23 11:31:36.9     -46    -97     80    108    134 205.5  40.1  34204  290.31 0855.15
2009/04/23 11:31:37.0     -75    -75     86    107    137 225.0  43.7  34204  290.31 0855.15
2009/04/23 11:31:37.1     -66    -18     17     69     72 254.9  14.3  34206  290.36 0855.15
2009/04/23 11:31:37.2    -108    -16     16    110    112 261.6   8.5  34202  290.30 0855.15
2009/04/23 11:31:37.3    -145     10      7    146    147 274.3   2.8  34202  290.30 0855.17
2009/04/23 11:31:37.4    -138    -10    -36    139    144 265.7 -14.5  34228  290.72 0855.17
2009/04/23 11:31:37.5    -128      6    -16    129    131 273.0  -7.2  34232  290.79 0855.17
2009/04/23 11:31:37.6     -52    -52    -64     74     97 225.1 -50.2  34238  290.89 0855.17
2009/04/23 11:31:37.7     -32    -68    -61     76     97 205.5 -47.7  34228  290.74 0855.17
2009/04/23 11:31:37.8     -17    -77    -39     79     88 192.5 -32.6  34240  290.92 0855.17
2009/04/23 11:31:37.9      58    -80    -14     99    101 144.0  -8.2  34230  290.77 0855.17
2009/04/23 11:31:38.0     116    -87      7    145    146 126.9   2.9  34222  290.64 0855.17
2009/04/23 11:31:38.1      62   -142     79    156    174 156.4  28.7  34198  290.21 0855.17
2009/04/23 11:31:38.2      28   -221     58    223    231 172.7  14.7  34194  290.16 0855.17
2009/04/23 11:31:38.3     -23   -194     30    196    199 186.9   8.8  34202  290.28 0855.17
2009/04/23 11:31:38.4     -52    -83    -26     98    102 212.1 -15.0  34202  290.28 0855.17
2009/04/23 11:31:38.5     -42   -105    -19    114    116 201.8  -9.8  34198  290.23 0855.17
2009/04/23 11:31:38.6      19   -124    -40    126    132 171.1 -23.3  34188  290.04 0855.17
2009/04/23 11:31:38.7      -2    -36     44     37     57 184.4  56.3  34188  290.04 0855.17
2009/04/23 11:31:38.8     -35   -117     84    123    148 196.9  37.6  34182  289.94 0855.17
2009/04/23 11:31:38.9     -41   -203     86    208    225 191.6  23.8  34178  289.89 0855.17
2009/04/23 11:31:39.0     -82   -189     -5    207    208 203.4  -1.6  34180  289.91 0855.17
2009/04/23 11:31:39.1     -88   -130     91    158    182 214.2  32.7  34176  289.84 0855.17
2009/04/23 11:31:39.2    -117   -162    101    200    224 215.8  29.1  34174  289.82 0855.17
2009/04/23 11:31:39.3    -168   -319    127    361    383 207.9  19.5  34172  289.79 0855.19
2009/04/23 11:31:39.4    -101   -352     91    367    379 196.1  13.9  34172  289.79 0855.19
2009/04/23 11:31:39.5    -108   -271    101    293    311 201.8  19.1  34174  289.80 0855.19
2009/04/23 11:31:39.6    -154   -353    125    386    406 203.6  18.0  34178  289.86 0855.19
2009/04/23 11:31:39.7    -160   -428     92    458    468 200.6  11.4  34180  289.92 0855.19
2009/04/23 11:31:39.8    -125   -406     82    425    433 197.2  11.0  34182  289.94 0855.19
2009/04/23 11:31:39.9      11   -323    223    324    393 177.9  37.8  34176  289.84 0855.19
2009/04/23 11:31:40.0     -30   -359    233    361    429 184.9  35.9  34180  289.92 0855.19
2009/04/23 11:31:40.1      19   -406    183    407    446 177.3  25.9  34178  289.88 0855.19
2009/04/23 11:31:40.2      -1   -479    168    480    508 180.2  20.0  34166  289.67 0855.19
2009/04/23 11:31:40.3     188   -447     69    486    492 157.2   8.1  34178  289.89 0855.19
2009/04/23 11:31:40.4      76   -539      2    545    546 171.9   0.2  34174  289.82 0855.19
2009/04/23 11:31:40.5     -52   -513      7    516    517 185.8   0.8  34156  289.49 0855.19
2009/04/23 11:31:40.6    -118   -384    201    402    449 197.2  28.6  34180  289.92 0855.19
2009/04/23 11:31:40.7     -26   -342    190    344    392 184.5  31.4  34178  289.86 0855.19
2009/04/23 11:31:40.8     -27   -551    174    552    579 182.9  17.5  34178  289.86 0855.19
2009/04/23 11:31:40.9     -42   -539    166    541    567 184.5  17.1  34160  289.57 0855.19
2009/04/23 11:31:41.0     154   -614    224    633    672 165.9  19.5  34172  289.77 0855.19
2009/04/23 11:31:41.1     168   -571    207    596    632 163.6  19.2  34164  289.65 0855.19
2009/04/23 11:31:41.2     237   -578    125    625    638 157.7  11.3  34156  289.50 0855.19
2009/04/23 11:31:41.3     172   -566    -23    592    593 163.1  -2.2  34136  289.17 0855.22
2009/04/23 11:31:41.5     198   -558      0    593    594 160.4   0.0  34156  289.49 0855.22
2009/04/23 11:31:41.5     142   -585     12    602    603 166.3   1.2  34162  289.61 0855.22
2009/04/23 11:31:41.7     191   -595     19    625    626 162.2   1.8  34150  289.40 0855.22
2009/04/23 11:31:41.8     149   -609     82    628    634 166.2   7.5  34162  289.59 0855.22
2009/04/23 11:31:41.9      67   -633    -28    637    638 173.9  -2.6  34158  289.53 0855.22
2009/04/23 11:31:42.0     100   -518    -39    528    530 169.0  -4.2  34152  289.45 0855.22
2009/04/23 11:31:42.1     146   -523     40    544    546 164.4   4.2  34156  289.51 0855.22
2009/04/23 11:31:42.2     217   -470    111    518    530 155.2  12.2  34158  289.55 0855.22
2009/04/23 11:31:42.3     264   -544     95    605    613 154.1   9.0  34160  289.56 0855.22
2009/04/23 11:31:42.4      12   -530      2    531    532 178.6   0.2  34162  289.62 0855.22
2009/04/23 11:31:42.5      13   -485     20    486    487 178.4   2.4  34160  289.56 0855.22
2009/04/23 11:31:42.6      87   -389    -94    399    410 167.4 -13.3  34166  289.66 0855.22
2009/04/23 11:31:42.7      66   -416   -117    422    438 171.0 -15.5  34164  289.65 0855.22
2009/04/23 11:31:42.8      71   -500    -55    506    510 171.9  -6.2  34172  289.78 0855.22
2009/04/23 11:31:42.9       7   -381   -114    382    399 178.9 -16.6  34168  289.71 0855.22
2009/04/23 11:31:43.0      20   -431     24    432    433 177.3   3.2  34170  289.73 0855.22
2009/04/23 11:31:43.1      33   -477    -14    479    480 176.0  -1.8  34172  289.79 0855.22
2009/04/23 11:31:43.2      29   -461    -25    462    463 176.4  -3.1  34168  289.72 0855.22
2009/04/23 11:31:43.3      60   -443    173    448    480 172.2  22.2  34172  289.76 0855.22
2009/04/23 11:31:43.4     194   -639    207    669    701 163.1  17.2  34170  289.73 0855.22
2009/04/23 11:31:43.5     146   -560     82    579    585 165.3   8.1  34166  289.66 0855.22
2009/04/23 11:31:43.6      96   -473     43    484    486 168.4   5.1  34172  289.78 0855.22
2009/04/23 11:31:43.7     102   -515     12    526    527 168.8   1.4  34174  289.82 0855.22
2009/04/23 11:31:43.8      42   -502     51    504    507 175.2   5.8  34174  289.81 0855.22
2009/04/23 11:31:43.9      33   -433     28    435    436 175.5   3.7  34170  289.75 0855.22
2009/04/23 11:31:44.0     154   -491     91    515    524 162.6  10.1  34170  289.75 0855.22
2009/04/23 11:31:44.1     224   -493     76    542    548 155.6   8.0  34172  289.77 0855.22
2009/04/23 11:31:44.2     229   -522     50    571    574 156.3   5.1  34172  289.76 0855.22
2009/04/23 11:31:44.3     272   -464     95    538    547 149.6  10.0  34168  289.72 0855.22
2009/04/23 11:31:44.4     218   -410     44    465    468 152.0   5.5  34168  289.71 0855.22
2009/04/23 11:31:44.5     162   -261     60    308    314 148.1  11.1  34174  289.80 0855.22
2009/04/23 11:31:44.6     164   -282    -39    327    330 149.8  -6.8  34174  289.81 0855.22
2009/04/23 11:31:44.7     113   -262    -47    286    290 156.6  -9.3  34176  289.83 0855.22
2009/04/23 11:31:44.8     137   -239      4    276    277 150.1   1.0  34178  289.88 0855.22
2009/04/23 11:31:44.9     162   -255     96    303    318 147.5  17.7  34176  289.83 0855.22
2009/04/23 11:31:45.0     148   -377    158    406    435 158.5  22.4  34184  289.97 0855.22
2009/04/23 11:31:45.1     177   -430    165    466    495 157.6  19.5  34182  289.96 0855.22
2009/04/23 11:31:45.2     116   -433     58    449    453 165.0   7.5  34184  289.99 0855.22
2009/04/23 11:31:45.3     184   -340     19    387    388 151.6   2.9  34188  290.03 0855.22
2009/04/23 11:31:45.4     175   -334    -72    378    385 152.4 -10.9  34188  290.04 0855.24
2009/04/23 11:31:45.5     215   -294    -60    365    370 143.8  -9.3  34186  290.01 0855.24
2009/04/23 11:31:45.6     294   -227    -66    372    378 127.8 -10.1  34182  289.93 0855.24
2009/04/23 11:31:45.7     291   -166    -24    336    337 119.7  -4.2  34186  290.01 0855.24
2009/04/23 11:31:45.8     266   -141    -44    302    306 118.0  -8.3  34184  289.97 0855.24
2009/04/23 11:31:45.9     185   -184     50    262    267 134.8  11.0  34188  290.05 0855.24
2009/04/23 11:31:46.0     156   -161     19    225    226 135.9   4.9  34190  290.08 0855.24
2009/04/23 11:31:46.1     127   -121    -62    176    187 133.8 -19.4  34190  290.08 0855.24
2009/04/23 11:31:46.2     212    -71    -12    224    225 108.6  -3.1  34188  290.06 0855.24
2009/04/23 11:31:46.3     219    -51     19    225    226 103.3   4.9  34190  290.09 0855.24
2009/04/23 11:31:46.4     181   -160    107    242    264 131.4  25.3  34180  289.92 0855.24
2009/04/23 11:31:46.5      78   -231    237    244    340 161.3  49.2  34178  289.88 0855.24
2009/04/23 11:31:46.6     211   -463    178    509    540 155.5  19.3  34184  289.97 0855.24
2009/04/23 11:31:46.7      22   -332      8    333    334 176.1   1.5  34188  290.04 0855.24
2009/04/23 11:31:46.8      93   -249    -90    266    281 159.5 -18.7  34188  290.03 0855.24
2009/04/23 11:31:46.9     128   -189    -52    229    235 145.9 -12.9  34190  290.07 0855.24
2009/04/23 11:31:47.0     143   -134    -20    197    199 133.2  -6.0  34192  290.11 0855.24
2009/04/23 11:31:47.1      67   -121    -49    139    148 151.1 -19.7  34190  290.08 0855.24
2009/04/23 11:31:47.2      13   -186     82    187    204 175.8  25.1  34192  290.13 0855.24
2009/04/23 11:31:47.3       0   -105      2    106    107 179.5   1.2  34188  290.06 0855.24
2009/04/23 11:31:47.4     -19   -158      8    160    161 187.1   3.1  34186  290.01 0855.21
2009/04/23 11:31:47.5      64   -136    -26    151    154 154.7  -9.8  34190  290.09 0855.21
2009/04/23 11:31:47.6      84   -156     54    178    187 151.5  17.1  34190  290.09 0855.21
2009/04/23 11:31:47.7      71   -146     25    163    165 154.1   8.8  34182  289.96 0855.21
2009/04/23 11:31:47.8     111   -228     98    254    272 153.9  22.1  34186  290.00 0855.21
2009/04/23 11:31:47.9       0   -231    224    232    322 180.2  49.0  34180  289.90 0855.21
2009/04/23 11:31:48.0     -41   -254    219    258    338 189.3  44.5  34186  290.02 0855.21
2009/04/23 11:31:48.1     -73   -269    229    279    360 195.2  43.7  34184  289.99 0855.21
2009/04/23 11:31:48.2     -89   -200    125    220    253 204.1  32.3  34188  290.05 0855.21
2009/04/23 11:31:48.3    -128   -200     93    238    255 212.6  22.8  34188  290.03 0855.21
2009/04/23 11:31:48.4    -111   -225     74    251    262 206.3  16.6  34188  290.05 0855.21
2009/04/23 11:31:48.5     -53   -198     43    205    210 195.1  12.0  34190  290.09 0855.21
2009/04/23 11:31:48.6       6   -135     69    136    152 177.3  28.7  34188  290.06 0855.21
2009/04/23 11:31:48.7     -66   -200    114    211    239 198.5  30.6  34188  290.04 0855.21
2009/04/23 11:31:48.8     -80   -285     89    297    311 195.8  16.8  34188  290.03 0855.21
2009/04/23 11:31:48.9     -94   -279    111    295    315 198.7  21.6  34184  289.98 0855.21
2009/04/23 11:31:49.0    -140   -243     84    281    294 209.9  16.6  34180  289.90 0855.21
2009/04/23 11:31:49.1    -144   -269     81    306    317 208.1  14.9  34184  289.98 0855.21
2009/04/23 11:31:49.2    -139   -291     69    323    331 205.7  12.1  34186  290.00 0855.21
2009/04/23 11:31:49.3    -126   -307    117    332    352 202.3  20.1  34184  289.98 0855.21
2009/04/23 11:31:49.4    -128   -346     58    369    374 200.3   9.0  34182  289.94 0855.21
2009/04/23 11:31:49.5    -157   -307     81    345    355 207.1  13.2  34184  289.98 0855.21
2009/04/23 11:31:49.6    -149   -250     35    292    295 210.8   6.9  34182  289.95 0855.21
2009/04/23 11:31:49.7    -252   -119    -22    279    280 244.6  -4.6  34198  290.22 0855.21
2009/04/23 11:31:49.8    -270   -118    -10    295    296 246.4  -2.1  34204  290.31 0855.21
2009/04/23 11:31:49.9    -217   -191      4    290    291 228.6   0.8  34196  290.17 0855.21
2009/04/23 11:31:50.0    -195   -171    -25    260    262 228.9  -5.6  34196  290.17 0855.21
2009/04/23 11:31:50.1    -154   -310    -13    347    348 206.5  -2.2  34188  290.04 0855.21
2009/04/23 11:31:50.2     -96   -290    156    306    343 198.5  29.1  34188  290.06 0855.21
2009/04/23 11:31:50.3     -73   -236    192    248    313 197.2  41.7  34196  290.19 0855.21
2009/04/23 11:31:50.4     -15   -300    233    301    380 182.9  41.7  34188  290.06 0855.21
2009/04/23 11:31:50.5     -24   -319    255    320    409 184.4  42.7  34188  290.06 0855.21
2009/04/23 11:31:50.6    -104   -300    173    318    362 199.2  30.9  34188  290.06 0855.21
2009/04/23 11:31:50.7     -59   -332     19    338    339 190.2   3.2  34184  289.99 0855.21
2009/04/23 11:31:50.8     -65   -395     -1    401    402 189.3  -0.3  34188  290.03 0855.21
2009/04/23 11:31:50.9     -91   -363    -14    375    376 194.1  -2.2  34188  290.06 0855.21
2009/04/23 11:31:51.0     -59   -381     12    386    387 188.8   1.9  34192  290.10 0855.21
2009/04/23 11:31:51.1     -40   -317     49    320    324 187.2   8.8  34190  290.09 0855.21
2009/04/23 11:31:51.2    -125   -275     67    303    311 204.5  12.5  34186  290.02 0855.21
2009/04/23 11:31:51.3     -32   -217    -15    220    221 188.5  -4.1  34190  290.09 0855.21
2009/04/23 11:31:51.4     -50   -270      4    275    276 190.5   1.0  34188  290.05 0855.22
2009/04/23 11:31:51.5     -23   -281     30    283    285 184.9   6.1  34184  289.97 0855.22
2009/04/23 11:31:51.6      -8   -214     67    215    226 182.2  17.3  34192  290.11 0855.22
2009/04/23 11:31:51.7     -31   -154     30    158    161 191.6  10.8  34190  290.09 0855.22
2009/04/23 11:31:51.8      13    -87    100     89    133 171.1  53.7  34202  290.28 0855.22
2009/04/23 11:31:51.9     168   -113     74    203    216 124.0  20.9  34192  290.13 0855.22
2009/04/23 11:31:52.0     207   -166    156    266    308 128.7  33.4  34192  290.10 0855.22
2009/04/23 11:31:52.1     219    -93    206    239    315 113.1  45.2  34190  290.09 0855.22
2009/04/23 11:31:52.2     119      9    226    120    255  85.6  69.8  34210  290.41 0855.22
2009/04/23 11:31:52.3     285    -35    205    288    353  97.1  39.1  34196  290.18 0855.22
2009/04/23 11:31:52.4     274    -73    176    284    334 105.1  34.9  34192  290.10 0855.22
2009/04/23 11:31:52.5     218    -69    210    229    310 107.7  47.5  34194  290.14 0855.22
2009/04/23 11:31:52.6     189    -38    156    193    248 101.4  43.3  34194  290.14 0855.22
2009/04/23 11:31:52.7     193    -40    131    198    237 101.7  36.5  34194  290.16 0855.22
2009/04/23 11:31:52.8     -11    -72    166     73    181 188.9  75.0  34214  290.48 0855.22
2009/04/23 11:31:52.9     110   -105    182    153    237 133.6  55.6  34196  290.19 0855.22
2009/04/23 11:31:53.0      50   -170    178    178    251 163.5  50.1  34204  290.31 0855.22
2009/04/23 11:31:53.1      45    -94    142    105    176 154.6  60.0  34210  290.43 0855.22
2009/04/23 11:31:53.2     -87   -218    219    235    321 201.9  47.9  34200  290.24 0855.22
2009/04/23 11:31:53.3     -79   -166    103    185    211 205.6  31.6  34202  290.30 0855.22
2009/04/23 11:31:53.4    -131   -196     60    236    244 213.8  14.3  34196  290.19 0855.20
2009/04/23 11:31:53.5     -89   -151     32    176    179 210.7  10.3  34196  290.19 0855.20
2009/04/23 11:31:53.6     -81   -176     70    194    206 204.7  20.9  34198  290.23 0855.20
2009/04/23 11:31:53.7    -127   -175     86    217    233 216.0  22.8  34232  290.81 0855.20
2009/04/23 11:31:53.8    -139   -163     91    215    233 220.5  24.1  34238  290.89 0855.20
2009/04/23 11:31:53.9    -160   -110     50    195    202 235.4  14.5  34248  291.06 0855.20
2009/04/23 11:31:54.0    -140    -88    105    166    196 237.6  35.5  34234  290.82 0855.20
2009/04/23 11:31:54.1    -162      7     56    163    173 272.6  19.2  34218  290.57 0855.20
2009/04/23 11:31:54.2    -136    -17    -67    138    153 262.5 -31.7  34212  290.47 0855.20
2009/04/23 11:31:54.3     -73   -132    -77    152    170 209.0 -33.1  34214  290.48 0855.20
2009/04/23 11:31:54.4    -139    -88    -45    165    171 237.5 -20.0  34196  290.18 0855.20
2009/04/23 11:31:54.5    -105   -105     15    149    150 225.1   5.9  34204  290.31 0855.20
2009/04/23 11:31:54.6    -124    -55     36    136    141 246.0  15.2  34204  290.31 0855.20
2009/04/23 11:31:54.7    -121    -45     55    130    141 249.6  24.1  34204  290.33 0855.20
2009/04/23 11:31:54.8    -214    -31     61    217    226 261.6  15.8  34222  290.62 0855.20
2009/04/23 11:31:54.9    -154   -101     35    185    189 236.7  10.8  34208  290.38 0855.20
2009/04/23 11:31:55.0    -187   -169     23    253    255 227.8   5.2  34202  290.27 0855.20
2009/04/23 11:31:55.1    -197   -143      0    244    245 234.0   0.2  34200  290.24 0855.20
2009/04/23 11:31:55.2    -197   -121     -7    232    233 238.5  -1.8  34198  290.21 0855.20
2009/04/23 11:31:55.3    -245    -26     34    247    250 263.8   8.0  34204  290.31 0855.20
2009/04/23 11:31:55.4    -233    -66     37    243    246 254.1   8.8  34214  290.49 0855.18
2009/04/23 11:31:55.5    -264    -93    -77    281    292 250.5 -15.4  34198  290.22 0855.18
2009/04/23 11:31:55.6    -387   -117   -120    405    422 253.1 -21.2  34160  289.58 0855.18
2009/04/23 11:31:55.7    -284   -208    -31    353    355 233.8  -5.1  34164  289.64 0855.18
2009/04/23 11:31:55.8    -160   -170     39    234    238 223.3   9.5  34176  289.83 0855.18
2009/04/23 11:31:55.9    -474    -21    -82    475    483 267.4  -9.9  34172  289.79 0855.18
2009/04/23 11:31:56.0    -465   -102   -181    477    510 257.6 -26.2  34154  289.47 0855.18
2009/04/23 11:31:56.1    -319   -125   -309    343    461 248.6 -51.2  34178  289.88 0855.18
2009/04/23 11:31:56.2    -441     17   -252    442    508 272.3 -36.7  34180  289.91 0855.18
2009/04/23 11:31:56.3    -378    303     84    485    493 308.7   9.9  34174  289.81 0855.18
2009/04/23 11:31:56.4    -359    279    133    455    475 307.9  16.3  34168  289.71 0855.15
2009/04/23 11:31:56.5    -435    -20    192    436    476 267.3  25.2  34234  290.84 0855.15
2009/04/23 11:31:56.6    -403     -6     78    404    412 269.1  11.0  34242  290.97 0855.15
2009/04/23 11:31:56.7    -260     15    -33    261    264 273.4  -7.3  34226  290.68 0855.15
2009/04/23 11:31:56.8    -291    -15     62    292    299 267.0  12.0  34236  290.87 0855.15
2009/04/23 11:31:56.9    -443    -74    -77    450    457 260.5  -9.8  34226  290.68 0855.15
2009/04/23 11:31:57.0    -442   -194     23    483    484 246.3   2.8  34244  291.00 0855.15
2009/04/23 11:31:57.1    -295   -286     20    411    412 225.9   2.9  34214  290.48 0855.15
2009/04/23 11:31:57.2    -236   -316    165    395    428 216.8  24.1  34194  290.16 0855.15
2009/04/23 11:31:57.3    -170   -326    154    368    398 207.6  24.1  34192  290.11 0855.15
2009/04/23 11:31:57.4    -262   -343    117    432    448 217.4  15.2  34196  290.17 0855.15
2009/04/23 11:31:57.5    -249   -307    273    396    480 219.1  38.0  34200  290.24 0855.15
2009/04/23 11:31:57.6    -485   -263    214    552    592 241.5  22.4  34222  290.64 0855.15
2009/04/23 11:31:57.7    -280   -364    176    460    492 217.5  22.1  34244  291.00 0855.15
2009/04/23 11:31:57.8    -286   -314    -41    425    428 222.3  -5.6  34296  291.89 0855.15
2009/04/23 11:31:57.9    -469   -322    -22    570    571 235.5  -2.2  34270  291.44 0855.15
2009/04/23 11:31:58.0    -386   -312    -19    497    498 231.0  -2.2  34252  291.12 0855.15
2009/04/23 11:31:58.1    -484   -337    -42    590    592 235.1  -4.1  34232  290.81 0855.15
2009/04/23 11:31:58.2    -276   -263     -7    382    383 226.4  -1.2  34258  291.22 0855.15
2009/04/23 11:31:58.3    -147   -249    143    290    323 210.5  28.1  34238  290.90 0855.15
2009/04/23 11:31:58.4    -107   -308     97    327    342 199.2  16.5  34244  291.00 0855.10
2009/04/23 11:31:58.5    -346   -313      5    467    468 227.8   0.7  34262  291.32 0855.10
2009/04/23 11:31:58.6    -341   -290    -89    449    458 229.6 -11.3  34254  291.18 0855.10
2009/04/23 11:31:58.7    -373   -361   -108    520    532 226.0 -11.8  34236  290.86 0855.10
2009/04/23 11:31:58.8    -295   -449   -113    538    550 213.4 -11.9  34236  290.87 0855.10
2009/04/23 11:31:58.9    -320   -296    -74    437    444 227.2  -9.7  34220  290.58 0855.10
2009/04/23 11:31:59.0    -352   -238   -125    426    443 235.9 -21.2  34230  290.77 0855.10
2009/04/23 11:31:59.1    -314   -258    -82    407    416 230.6 -11.5  34228  290.73 0855.10
2009/04/23 11:31:59.2    -223   -315     48    386    390 215.3   7.2  34214  290.50 0855.10
2009/04/23 11:31:59.3    -195   -261     21    327    328 216.8   3.8  34232  290.78 0855.10
2009/04/23 11:31:59.4    -119   -224    127    254    283 208.1  28.2  34194  290.15 0855.10
2009/04/23 11:31:59.5     -69   -191    148    204    252 199.8  39.5  34202  290.27 0855.10
2009/04/23 11:31:59.6     -36   -192    165    196    256 190.7  44.3  34198  290.22 0855.10
2009/04/23 11:31:59.7     -36   -241    189    244    308 188.5  41.7  34198  290.20 0855.10
2009/04/23 11:31:59.8       8   -269    193    270    331 178.2  39.1  34192  290.12 0855.10
2009/04/23 11:31:59.9      12   -237    106    238    260 177.1  25.7  34194  290.14 0855.10
2009/04/23 11:32:00.0      64   -315    149    322    354 168.4  26.5  34188  290.03 0855.10
2009/04/23 11:32:00.1     117   -314     27    336    338 159.6   4.7  34190  290.08 0855.10
2009/04/23 11:32:00.2      66   -301      0    309    310 167.5   0.0  34192  290.12 0855.10
2009/04/23 11:32:00.3     101   -405    -16    418    419 166.0  -2.2  34184  289.99 0855.10
2009/04/23 11:32:00.4     127   -507    -23    523    524 165.8  -2.6  34188  290.06 0855.06
2009/04/23 11:32:00.5      69   -452     -9    458    459 171.3  -1.2  34190  290.09 0855.06
2009/04/23 11:32:00.6     190   -389     29    434    435 153.9   3.9  34178  289.88 0855.06
2009/04/23 11:32:00.7     163   -457      7    486    487 160.3   0.9  34198  290.20 0855.06
2009/04/23 11:32:00.8     172   -425    -16    459    460 157.9  -2.1  34192  290.11 0855.06
2009/04/23 11:32:00.9     160   -373     19    406    407 156.8   2.8  34214  290.48 0855.06
2009/04/23 11:32:01.0     110   -435     79    449    457 165.7  10.0  34218  290.55 0855.06
2009/04/23 11:32:01.1     115   -345     92    364    376 161.5  14.3  34210  290.43 0855.06
2009/04/23 11:32:01.2      -4   -449    134    450    470 180.6  16.7  34194  290.16 0855.06
2009/04/23 11:32:01.3      18   -463     81    464    472 177.8  10.0  34198  290.22 0855.06
2009/04/23 11:32:01.4     -19   -429    159    430    458 182.6  21.0  34194  290.16 0855.06
2009/04/23 11:32:01.5     -46   -391    172    394    429 186.8  25.1  34192  290.12 0855.06
2009/04/23 11:32:01.6     -60   -373    180    378    418 189.2  27.3  34192  290.11 0855.06
2009/04/23 11:32:01.7     -33   -329    257    331    419 185.8  41.7  34192  290.10 0855.06
2009/04/23 11:32:01.8     -59   -334    239    340    415 190.0  38.6  34192  290.10 0855.06
2009/04/23 11:32:01.9     -69   -338    229    346    414 191.7  36.5  34192  290.13 0855.06
2009/04/23 11:32:02.0     -53   -239    158    246    292 192.7  35.6  34194  290.14 0855.06
2009/04/23 11:32:02.1    -106   -326    130    343    366 198.1  21.7  34192  290.11 0855.06
2009/04/23 11:32:02.2     -88   -338    198    350    402 194.6  32.0  34198  290.20 0855.06
2009/04/23 11:32:02.3     -73   -502    210    508    549 188.4  23.9  34188  290.06 0855.04
2009/04/23 11:32:02.4    -138   -439    214    461    508 197.5  26.6  34186  290.00 0855.04
2009/04/23 11:32:02.5     -59   -363    263    368    452 189.3  39.3  34196  290.17 0855.04
2009/04/23 11:32:02.6       0   -376    250    377    452 180.1  36.6  34190  290.09 0855.04
2009/04/23 11:32:02.7     -43   -373    186    376    419 186.6  28.2  34182  289.95 0855.04
2009/04/23 11:32:02.8     -48   -201    218    207    300 193.4  52.0  34186  290.02 0855.04
2009/04/23 11:32:02.9     -73   -311    197    320    375 193.3  34.6  34188  290.06 0855.04
2009/04/23 11:32:03.0     -66   -372    174    378    416 190.1  26.5  34192  290.11 0855.04
2009/04/23 11:32:03.1    -153   -371    152    402    429 202.5  21.7  34192  290.11 0855.04
2009/04/23 11:32:03.2    -173   -421    119    456    472 202.4  14.6  34188  290.05 0855.04
2009/04/23 11:32:03.3    -221   -432     41    486    488 207.1   4.9  34188  290.06 0855.04
2009/04/23 11:32:03.4    -249   -329     12    413    414 217.1   1.7  34182  289.95 0855.04
2009/04/23 11:32:03.5    -224   -328     93    398    409 214.3  13.3  34186  290.02 0855.04
2009/04/23 11:32:03.6    -237   -373     50    443    446 212.5   6.5  34186  290.02 0855.04
2009/04/23 11:32:03.7    -252   -396     38    470    472 212.5   4.7  34192  290.13 0855.04
2009/04/23 11:32:03.8    -338   -457    -60    569    573 216.5  -6.1  34210  290.41 0855.04
2009/04/23 11:32:03.9    -356   -395   -112    533    545 222.0 -11.9  34184  289.99 0855.04
2009/04/23 11:32:04.0    -305   -375     -3    484    485 219.1  -0.4  34204  290.32 0855.04
2009/04/23 11:32:04.1    -271   -493    -93    563    571 208.9  -9.4  34188  290.04 0855.04
2009/04/23 11:32:04.2    -314   -430   -133    533    550 216.2 -14.0  34184  289.99 0855.04
2009/04/23 11:32:04.3    -313   -460   -116    557    570 214.3 -11.8  34182  289.94 0855.00
2009/04/23 11:32:04.4    -314   -359   -168    477    505 221.2 -24.5  34178  289.86 0855.00
2009/04/23 11:32:04.5    -269   -423   -226    502    550 212.5 -30.4  34186  290.01 0855.00
2009/04/23 11:32:04.6    -110   -457    -33    471    473 193.6  -4.1  34188  290.06 0855.00
2009/04/23 11:32:04.7    -183   -341     61    387    392 208.2   9.0  34202  290.27 0855.00
2009/04/23 11:32:04.8    -155   -218    128    268    296 215.4  27.3  34208  290.39 0855.00
2009/04/23 11:32:04.9     -42   -354    184    357    401 186.8  29.3  34206  290.35 0855.00
2009/04/23 11:32:05.0     -27   -337    117    339    359 184.7  19.2  34200  290.25 0855.00
2009/04/23 11:32:05.1     -18   -355     55    356    361 183.0   8.9  34200  290.25 0855.00
2009/04/23 11:32:05.2      -4   -492     64    493    498 180.5   7.5  34200  290.25 0855.00
2009/04/23 11:32:05.3     -24   -469     43    470    473 183.0   5.3  34198  290.23 0855.00
2009/04/23 11:32:05.4      29   -475    111    476    489 176.5  13.2  34188  290.05 0855.00
2009/04/23 11:32:05.5      -1   -357     88    358    369 180.3  13.8  34186  290.01 0855.00
2009/04/23 11:32:05.6      -8   -465    -80    466    474 181.0  -9.8  34188  290.03 0855.00
2009/04/23 11:32:05.7     -19   -456     -5    457    458 182.5  -0.7  34180  289.92 0855.00
2009/04/23 11:32:05.8      91   -469    -38    478    480 169.0  -4.6  34182  289.96 0855.00
2009/04/23 11:32:05.9     179   -537     -2    567    568 161.5  -0.3  34192  290.11 0855.00
2009/04/23 11:32:06.0     219   -433    -64    486    491 153.2  -7.6  34186  290.00 0855.00
2009/04/23 11:32:06.1     186   -429    -26    468    469 156.6  -3.2  34186  290.01 0855.00
2009/04/23 11:32:06.2     134   -336    -14    362    363 158.2  -2.2  34184  289.99 0855.00
2009/04/23 11:32:06.3     120   -366     63    386    392 161.9   9.3  34186  290.01 0854.94
2009/04/23 11:32:06.4      49   -398    -15    402    403 172.9  -2.2  34188  290.03 0854.94
2009/04/23 11:32:06.5     116   -431     -9    447    448 164.9  -1.2  34186  290.00 0854.94
2009/04/23 11:32:06.6      79   -421    -23    429    430 169.3  -3.1  34184  289.99 0854.94
2009/04/23 11:32:06.7      20   -383     -4    384    385 177.0  -0.7  34188  290.04 0854.94
2009/04/23 11:32:06.8      15   -333     95    334    348 177.3  15.9  34188  290.06 0854.94
2009/04/23 11:32:06.9     177   -369     -1    410    411 154.3  -0.3  34192  290.12 0854.94
2009/04/23 11:32:07.0      79   -237     97    250    268 161.5  22.3  34186  290.02 0854.94
2009/04/23 11:32:07.1       0   -270    174    271    322 180.0  35.6  34198  290.22 0854.94
2009/04/23 11:32:07.2     -16   -250    222    251    335 183.8  46.2  34196  290.17 0854.94
2009/04/23 11:32:07.3     -42   -191    169    196    258 192.5  45.1  34194  290.15 0854.94
2009/04/23 11:32:07.4      96   -160    111    187    217 149.0  33.5  34202  290.30 0854.94
2009/04/23 11:32:07.5     115   -103    137    155    206 131.8  45.9  34198  290.23 0854.94
2009/04/23 11:32:07.6      54    -40    102     68    122 126.9  62.7  34198  290.21 0854.94
2009/04/23 11:32:07.7      52      0    129     53    139  90.0  77.0  34206  290.36 0854.94
2009/04/23 11:32:07.8       5     29    132     30    135   9.8  87.5  34208  290.38 0854.94
2009/04/23 11:32:07.9      99      0    137    100    169  90.4  60.3  34208  290.38 0854.94
2009/04/23 11:32:08.0      36     12    133     39    138  71.4  83.3  34208  290.40 0854.94
2009/04/23 11:32:08.1       3    -43    172     44    177 175.5  85.4  34210  290.43 0854.94
2009/04/23 11:32:08.3      84    -14    143     86    166  99.7  66.2  34208  290.38 0854.94
2009/04/23 11:32:08.4      31     27    134     42    140  49.6  81.8  34212  290.45 0854.89
2009/04/23 11:32:08.5     130    -49    151    140    205 110.8  52.5  34198  290.23 0854.89
2009/04/23 11:32:08.6     201    -73    142    214    256 110.0  36.5  34198  290.20 0854.89
2009/04/23 11:32:08.7      96    -62    148    115    187 122.9  57.9  34202  290.28 0854.89
2009/04/23 11:32:08.8      55    -12     71     57     91 102.4  56.4  34208  290.38 0854.89
2009/04/23 11:32:08.9     161    -12     44    162    168  94.6  15.3  34190  290.09 0854.89
2009/04/23 11:32:09.0     195    116    -44    228    233  59.3 -11.1  34194  290.16 0854.89
2009/04/23 11:32:09.1     228     46     -4    233    234  78.5  -1.2  34202  290.27 0854.89
2009/04/23 11:32:09.2     301    129     50    328    332  66.8   8.7  34232  290.79 0854.89
2009/04/23 11:32:09.3     322    175    127    367    389  61.5  19.2  34230  290.77 0854.89
2009/04/23 11:32:09.4     195    110    201    225    301  60.5  46.6  34230  290.76 0854.89
2009/04/23 11:32:09.5     190    121    153    226    272  57.4  37.3  34250  291.09 0854.89
2009/04/23 11:32:09.6     222    135     76    260    271  58.7  16.4  34232  290.80 0854.89
2009/04/23 11:32:09.7     -61    192    104    202    227 342.4  29.3  34234  290.82 0854.89
2009/04/23 11:32:09.8     -86     44     92     97    133 297.1  49.0  34226  290.70 0854.89
2009/04/23 11:32:09.9     -62     24     98     67    118 291.7  62.6  34230  290.75 0854.89
2009/04/23 11:32:10.0    -106    -42     42    115    122 248.3  20.9  34212  290.45 0854.89
2009/04/23 11:32:10.1    -129      9      6    130    131 274.4   2.9  34204  290.33 0854.89
2009/04/23 11:32:10.2     -56    -10    -16     57     60 259.4 -15.5  34206  290.35 0854.89
2009/04/23 11:32:10.3     -25     75     49     80     93 341.3  35.0  34212  290.47 0854.89
2009/04/23 11:32:10.4     -28    139     50    142    151 348.4  19.4  34224  290.65 0854.94
2009/04/23 11:32:10.5      54    105     32    119    124  27.2  15.3  34232  290.79 0854.94
2009/04/23 11:32:10.6      38     69     46     79     91  29.0  32.9  34246  291.04 0854.94
2009/04/23 11:32:10.7      -7     84     72     85    111 354.7  44.3  34260  291.28 0854.94
2009/04/23 11:32:10.8      29    136     27    140    143  12.0  11.0  34266  291.37 0854.94
2009/04/23 11:32:10.9      13    170     66    171    183   4.4  22.0  34256  291.21 0854.94
2009/04/23 11:32:11.0     200     72     65    213    223  70.0  17.1  34226  290.69 0854.94
2009/04/23 11:32:11.1      48    -27     75     56     93 119.8  59.4  34266  291.37 0854.94
2009/04/23 11:32:11.2     -43    -13     79     46     91 252.3  67.2  34260  291.26 0854.94
2009/04/23 11:32:11.3     -84     89     90    123    152 316.8  39.7  34250  291.11 0854.94
2009/04/23 11:32:11.4    -115    -52     93    127    157 245.6  39.9  34258  291.23 0854.94
2009/04/23 11:32:11.5    -118   -113     84    164    184 226.4  29.3  34238  290.89 0854.94
2009/04/23 11:32:11.6    -204    -38     18    208    209 259.4   5.0  34248  291.06 0854.94
2009/04/23 11:32:11.7    -160    -57    -49    171    177 250.3 -20.7  34232  290.81 0854.94
2009/04/23 11:32:11.8     -96   -159     23    187    189 211.2   7.1  34240  290.94 0854.94
2009/04/23 11:32:11.9      -8    -63     31     64     71 188.0  27.3  34242  290.98 0854.94
2009/04/23 11:32:12.0      59    -37     -9     70     71 122.4  -7.3  34242  290.98 0854.94
2009/04/23 11:32:12.1     111      0      2    112    113  90.0   1.2  34232  290.81 0854.94
2009/04/23 11:32:12.2      77     64     -8    101    102  50.5  -4.6  34234  290.84 0854.94
2009/04/23 11:32:12.3      55    102     15    117    118  28.5   7.5  34230  290.75 0854.94
2009/04/23 11:32:12.4      89     40     -2     98     99  65.6  -1.3  34228  290.74 0854.96
2009/04/23 11:32:12.5     109    -51    -37    121    127 115.4 -17.0  34226  290.69 0854.96
2009/04/23 11:32:12.6     108   -117    -37    160    165 137.5 -13.2  34218  290.57 0854.96
2009/04/23 11:32:12.7     178   -109    -26    209    211 121.5  -7.2  34212  290.47 0854.96
2009/04/23 11:32:12.8     199   -121     81    234    248 121.3  19.2  34218  290.56 0854.96
2009/04/23 11:32:12.9     223   -105     74    247    259 115.2  16.8  34224  290.65 0854.96
2009/04/23 11:32:13.0     112   -128     81    171    189 138.8  27.2  34210  290.43 0854.96
2009/04/23 11:32:13.1     -13   -105    134    106    170 187.1  57.5  34208  290.40 0854.96
2009/04/23 11:32:13.2      52    -73     80     91    121 144.4  45.8  34214  290.48 0854.96
2009/04/23 11:32:13.3      78   -132     95    154    180 149.3  34.8  34206  290.36 0854.96
2009/04/23 11:32:13.4     -21   -271     23    272    274 184.5   5.0  34200  290.24 0854.96
2009/04/23 11:32:13.5      36   -260      3    263    264 172.0   0.8  34204  290.32 0854.96
2009/04/23 11:32:13.6      69   -317     33    325    327 167.6   5.8  34202  290.29 0854.96
2009/04/23 11:32:13.7     145   -315     85    347    358 155.3  13.8  34204  290.32 0854.96
2009/04/23 11:32:13.8      53   -360    -42    365    368 171.5  -6.6  34200  290.25 0854.96
2009/04/23 11:32:13.9      16   -327    140    328    356 177.1  24.6  34202  290.30 0854.96
2009/04/23 11:32:14.0      13   -325    108    326    344 177.7  18.5  34202  290.30 0854.96
2009/04/23 11:32:14.1       3   -307     58    308    314 179.3  10.7  34204  290.32 0854.96
2009/04/23 11:32:14.2      32   -360     63    362    368 174.8  10.0  34206  290.35 0854.96
2009/04/23 11:32:14.3       0   -295     92    296    310 180.0  17.3  34204  290.32 0854.96
2009/04/23 11:32:14.4     -61   -244     26    252    254 194.2   6.0  34204  290.32 0854.97
2009/04/23 11:32:14.5     -93   -256     45    273    277 200.1   9.5  34206  290.36 0854.97
2009/04/23 11:32:14.6    -111   -266    104    289    308 202.7  19.9  34206  290.34 0854.97
2009/04/23 11:32:14.7    -139   -328    137    357    382 202.9  22.2  34202  290.27 0854.97
2009/04/23 11:32:14.8     -96   -340    124    354    376 195.8  19.3  34192  290.13 0854.97
2009/04/23 11:32:14.9    -150   -356     66    387    393 202.8   9.7  34198  290.23 0854.97
2009/04/23 11:32:15.0     -66   -352     28    359    361 190.7   4.6  34198  290.20 0854.97
2009/04/23 11:32:15.1     -52   -370    -26    374    375 188.0  -4.1  34198  290.21 0854.97
2009/04/23 11:32:15.2     -45   -289    -98    293    308 188.9 -23.6  34202  290.27 0854.97
2009/04/23 11:32:15.3    -139   -368   -107    394    409 200.8 -15.2  34212  290.46 0854.97
2009/04/23 11:32:15.4    -134   -433   -110    454    468 197.3 -13.7  34200  290.24 0854.97
2009/04/23 11:32:15.5     -66   -472     -4    477    478 188.0  -0.5  34202  290.27 0854.97
2009/04/23 11:32:15.6    -198   -366      1    417    418 208.4   0.2  34208  290.38 0854.97
2009/04/23 11:32:15.7    -209   -402    -44    454    457 207.5  -5.6  34206  290.34 0854.97
2009/04/23 11:32:15.8    -306   -524     40    607    609 210.3   3.8  34206  290.34 0854.97
2009/04/23 11:32:15.9    -301   -540   -105    619    628 209.1  -9.7  34202  290.28 0854.97
2009/04/23 11:32:16.0    -334   -423   -191    539    573 218.3 -19.6  34214  290.48 0854.97
2009/04/23 11:32:16.1    -384   -342    -69    515    520 228.3  -7.7  34220  290.59 0854.97
2009/04/23 11:32:16.2    -466   -422   -186    629    657 227.8 -16.5  34192  290.11 0854.97
2009/04/23 11:32:16.3    -385   -519   -251    647    693 216.6 -26.8  34164  289.63 0854.97
2009/04/23 11:32:16.4    -389   -277   -201    478    518 234.5 -28.6  34190  290.08 0855.01
2009/04/23 11:32:16.5    -440   -534   -194    692    718 219.5 -20.4  34174  289.81 0855.01
2009/04/23 11:32:16.6    -440   -425   -214    612    649 226.0 -19.3  34152  289.45 0855.01
2009/04/23 11:32:16.7    -564   -251   -142    618    635 246.0 -13.0  34144  289.30 0855.01
2009/04/23 11:32:16.8     -34   -313    112    315    335 186.2  19.6  34176  289.84 0855.01
2009/04/23 11:32:16.9    -197   -387   -132    435    454 207.0 -21.7  34176  289.83 0855.01
2009/04/23 11:32:17.0    -332   -560   -138    652    667 210.7 -12.0  34116  288.82 0855.01
2009/04/23 11:32:17.1    -351   -517   -178    626    651 214.2 -15.9  34108  288.69 0855.01
2009/04/23 11:32:17.2    -212   -523   -167    565    590 202.1 -16.5  34114  288.80 0855.01
2009/04/23 11:32:17.3    -207   -550    -96    588    596 200.7  -9.3  34144  289.30 0855.01
2009/04/23 11:32:17.4    -211   -539   -116    580    592 201.4 -11.3  34108  288.68 0855.01
2009/04/23 11:32:17.5    -197   -521   -122    558    572 200.7 -12.4  34104  288.63 0855.01
2009/04/23 11:32:17.6    -198   -519    -87    556    563 201.0  -8.9  34106  288.65 0855.01
2009/04/23 11:32:17.7    -166   -517    -84    544    551 197.8  -8.8  34112  288.75 0855.01
2009/04/23 11:32:17.8    -124   -508    -70    524    529 193.8  -7.7  34124  288.96 0855.01
2009/04/23 11:32:17.9     -72   -517   -109    523    535 188.0 -11.8  34130  289.07 0855.01
2009/04/23 11:32:18.0     -40   -571   -125    573    587 184.0 -12.4  34124  288.97 0855.01
2009/04/23 11:32:18.1      -7   -531   -176    532    561 180.8 -18.3  34124  288.97 0855.01
2009/04/23 11:32:18.2     -21   -452   -153    453    478 182.7 -23.7  34122  288.93 0855.01
2009/04/23 11:32:18.3     -36   -349   -145    351    379 186.0 -28.1  34124  288.96 0855.01
2009/04/23 11:32:18.4     -43   -363   -170    366    403 186.9 -31.3  34142  289.25 0855.03
2009/04/23 11:32:18.5     -76   -374   -228    382    444 191.6 -38.0  34146  289.33 0855.03
2009/04/23 11:32:18.6    -162   -392   -261    425    498 202.4 -38.9  34136  289.18 0855.03
2009/04/23 11:32:18.7     -96   -429   -273    440    517 192.7 -39.3  34144  289.30 0855.03
2009/04/23 11:32:18.8     -24   -454   -276    455    532 183.1 -38.4  34134  289.13 0855.03
2009/04/23 11:32:18.9     -45   -372   -310    375    486 187.0 -48.1  34136  289.17 0855.03
2009/04/23 11:32:19.0     -18   -402   -322    403    515 182.6 -47.1  34140  289.22 0855.03
2009/04/23 11:32:19.1      50   -460   -313    463    558 173.7 -41.8  34136  289.16 0855.03
2009/04/23 11:32:19.2      85   -419   -288    428    515 168.4 -41.6  34132  289.10 0855.03
2009/04/23 11:32:19.3      10   -387   -267    388    470 178.5 -42.4  34126  288.99 0855.03
2009/04/23 11:32:19.4       4   -364   -118    365    383 179.3 -23.2  34136  289.16 0855.03
2009/04/23 11:32:19.5       5   -324   -200    325    381 179.1 -39.2  34136  289.16 0855.03
2009/04/23 11:32:19.6      -9   -290   -206    291    356 181.8 -43.2  34136  289.18 0855.03
2009/04/23 11:32:19.7      24   -309   -128    311    336 175.5 -28.0  34138  289.19 0855.03
2009/04/23 11:32:19.8     -15   -350    -27    351    353 182.6  -4.5  34138  289.20 0855.03
2009/04/23 11:32:19.9      -5   -321    -58    322    328 181.0 -10.2  34136  289.17 0855.03
2009/04/23 11:32:20.0      31   -221   -105    224    247 171.9 -31.4  34142  289.25 0855.03
2009/04/23 11:32:20.1     109   -205    -60    233    241 152.0 -14.5  34142  289.25 0855.03
2009/04/23 11:32:20.2     111   -308    -12    328    329 160.2  -2.2  34134  289.14 0855.03
2009/04/23 11:32:20.3     140   -347     80    375    384 158.1  12.2  34144  289.30 0855.03
2009/04/23 11:32:20.4      28   -334     82    336    346 175.1  13.8  34142  289.26 0855.03
2009/04/23 11:32:20.5     238   -111    118    263    288 115.1  25.9  34142  289.27 0855.03
2009/04/23 11:32:20.6     189    -72     96    203    224 111.1  27.1  34148  289.36 0855.03
2009/04/23 11:32:20.7     223      0     40    224    228  90.0  10.1  34152  289.43 0855.03
2009/04/23 11:32:20.8      84    -28    117     89    147 108.4  58.5  34166  289.69 0855.03
2009/04/23 11:32:20.9     106   -158     95    191    213 146.2  28.5  34154  289.46 0855.03
2009/04/23 11:32:21.0      53   -229     10    236    237 166.9   2.5  34134  289.14 0855.03
2009/04/23 11:32:21.1      62   -260    -44    268    272 166.4  -9.4  34122  288.93 0855.03
2009/04/23 11:32:21.2      85   -264    -35    278    281 162.2  -7.3  34122  288.93 0855.03
2009/04/23 11:32:21.3      99   -293    -44    310    314 161.3  -8.1  34128  289.02 0855.03
2009/04/23 11:32:21.4      77   -254    -30    266    268 163.1  -6.5  34130  289.07 0855.00
2009/04/23 11:32:21.5      71   -236    -19    247    248 163.1  -4.6  34130  289.05 0855.00
2009/04/23 11:32:21.6      66   -200    -19    211    212 161.5  -5.4  34124  288.97 0855.00
2009/04/23 11:32:21.7     107   -114    -15    157    158 136.8  -5.6  34124  288.97 0855.00
2009/04/23 11:32:21.8      87   -162     21    184    186 151.7   6.7  34122  288.94 0855.00
2009/04/23 11:32:21.9      50   -182     85    189    207 164.4  25.9  34134  289.13 0855.00
2009/04/23 11:32:22.0      95   -114    131    149    198 140.4  45.9  34152  289.43 0855.00
2009/04/23 11:32:22.1     -16   -109    141    111    179 188.5  57.7  34156  289.50 0855.00
2009/04/23 11:32:22.2     -61   -163    240    175    297 200.7  60.5  34172  289.76 0855.00
2009/04/23 11:32:22.3       6    -80    156     81    175 175.1  70.6  34172  289.77 0855.00
2009/04/23 11:32:22.4    -108   -148     96    184    207 216.3  29.5  34160  289.58 0855.00
2009/04/23 11:32:22.5     -82    -95     46    126    134 221.0  20.4  34158  289.55 0855.00
2009/04/23 11:32:22.6       9      3     51     10     51  68.3  89.1  34166  289.67 0855.00
2009/04/23 11:32:22.7       0    -50     90     51    103 180.9  68.8  34180  289.92 0855.00
2009/04/23 11:32:22.8       5    -48     92     49    104 173.8  69.3  34170  289.75 0855.00
2009/04/23 11:32:22.9      23    -19     51     31     59 129.5  65.7  34180  289.91 0855.00
2009/04/23 11:32:23.0      59    -21     43     63     76 110.0  36.5  34164  289.63 0855.00
2009/04/23 11:32:23.1      46    -46     30     66     72 135.0  27.1  34160  289.57 0855.00
2009/04/23 11:32:23.2      65    -38     26     76     81 120.7  19.2  34158  289.53 0855.00
2009/04/23 11:32:23.3      49    -60     45     78     90 140.3  32.9  34158  289.55 0855.00
2009/04/23 11:32:23.4       5    -74     54     75     92 175.5  39.7  34164  289.65 0854.98
2009/04/23 11:32:23.5     -23    -79     37     83     90 196.5  26.2  34160  289.58 0854.98
2009/04/23 11:32:23.6     -26    -87     73     91    116 196.9  43.7  34156  289.52 0854.98
2009/04/23 11:32:23.7       1    -74     89     75    116 179.1  55.8  34168  289.72 0854.98
2009/04/23 11:32:23.8      22    -87     82     90    121 165.7  47.5  34170  289.75 0854.98
2009/04/23 11:32:23.9      37   -101     72    108    129 159.5  37.0  34168  289.70 0854.98
2009/04/23 11:32:24.0      53   -104     55    118    130 152.8  27.1  34162  289.60 0854.98
2009/04/23 11:32:24.1      17   -149     22    151    153 173.3   8.5  34158  289.55 0854.98
2009/04/23 11:32:24.2      25   -147     56    150    160 170.2  21.3  34156  289.52 0854.98
2009/04/23 11:32:24.3       2   -185    -56    186    195 179.1 -17.0  34156  289.50 0854.98
2009/04/23 11:32:24.4     -31   -224     -5    227    228 188.0  -1.3  34154  289.48 0854.98
2009/04/23 11:32:24.5       0   -229    -26    230    232 180.2  -6.5  34156  289.50 0854.98
2009/04/23 11:32:24.6      -4   -272    -70    273    282 180.9 -14.5  34160  289.56 0854.98
2009/04/23 11:32:24.7     -78   -216    -27    230    232 200.0  -6.7  34156  289.52 0854.98
2009/04/23 11:32:24.8     -71   -113    -43    134    141 212.5 -18.1  34158  289.53 0854.98
2009/04/23 11:32:24.9    -100   -100     26    142    145 225.0  10.6  34156  289.50 0854.98
2009/04/23 11:32:25.0    -182   -149     23    236    238 230.7   5.7  34160  289.56 0854.98
2009/04/23 11:32:25.1    -189   -162     31    250    252 229.3   7.1  34160  289.58 0854.98
2009/04/23 11:32:25.2    -226   -107     21    251    252 244.7   4.9  34160  289.56 0854.98
2009/04/23 11:32:25.3    -198   -105     44    225    230 242.0  11.1  34158  289.55 0854.98
2009/04/23 11:32:25.4    -185    -56     30    194    197 252.9   9.0  34154  289.48 0855.01
2009/04/23 11:32:25.5    -210     32     -8    213    214 278.8  -2.3  34148  289.36 0855.01
2009/04/23 11:32:25.6    -249      9    -69    250    260 272.1 -15.4  34158  289.53 0855.01
2009/04/23 11:32:25.7    -188    -32      9    191    192 260.3   2.9  34150  289.40 0855.01
2009/04/23 11:32:25.8    -192     51     63    199    209 285.1  17.7  34154  289.48 0855.01
2009/04/23 11:32:25.9    -148     67     14    163    164 294.4   5.2  34160  289.58 0855.01
2009/04/23 11:32:26.0    -166      2    -30    167    170 270.8 -10.3  34162  289.62 0855.01
2009/04/23 11:32:26.1    -259   -127   -117    289    311 243.8 -27.5  34164  289.63 0855.01
2009/04/23 11:32:26.2    -264    -70    -90    274    288 255.0 -23.8  34162  289.59 0855.01
2009/04/23 11:32:26.3    -294    -97   -105    310    327 251.6 -23.6  34162  289.61 0855.01
2009/04/23 11:32:26.4    -265   -135    -82    298    309 242.9 -20.0  34166  289.66 0855.01
2009/04/23 11:32:26.5    -258    -78    -96    270    286 253.2 -24.6  34164  289.63 0855.01
2009/04/23 11:32:26.6    -254   -154    -95    298    313 238.7 -17.7  34168  289.71 0855.01
2009/04/23 11:32:26.7    -141   -111    -91    180    201 231.6 -33.5  34164  289.65 0855.01
2009/04/23 11:32:26.8     -21    -46   -122     51    132 205.5 -81.0  34172  289.79 0855.01
2009/04/23 11:32:26.9     -59     69    -81     91    121 319.5 -50.8  34174  289.82 0855.01
2009/04/23 11:32:27.0    -102     14   -180    104    207 278.0 -71.6  34176  289.85 0855.01
2009/04/23 11:32:27.1    -191   -107   -203    220    299 240.7 -52.3  34184  289.98 0855.01
2009/04/23 11:32:27.2    -103   -218   -191    242    308 205.3 -46.8  34188  290.03 0855.01
2009/04/23 11:32:27.3     -59   -292    -94    299    314 191.6 -17.5  34188  290.05 0855.01
2009/04/23 11:32:27.4       9   -202     55    203    211 177.4  15.3  34182  289.94 0855.00
2009/04/23 11:32:27.5     -56   -203     59    211    220 195.4  15.6  34172  289.79 0855.00
2009/04/23 11:32:27.6     -41   -197     55    202    210 191.8  15.3  34172  289.77 0855.00
2009/04/23 11:32:27.7     -20   -205     34    207    210 185.6   9.3  34176  289.85 0855.00
2009/04/23 11:32:27.8      52   -193     37    201    205 164.8  10.6  34172  289.79 0855.00
2009/04/23 11:32:27.9      97   -138    -42    169    175 144.8 -13.9  34178  289.89 0855.00
2009/04/23 11:32:28.0     162   -133    -47    210    216 129.3 -12.6  34190  290.08 0855.00
2009/04/23 11:32:28.1     264     26    -34    266    269  84.3  -7.3  34198  290.20 0855.00
2009/04/23 11:32:28.2     340    106    -13    357    358  72.7  -2.2  34230  290.77 0855.00
2009/04/23 11:32:28.3     213     59    192    222    293  74.5  45.4  34280  291.60 0855.00
2009/04/23 11:32:28.4     352     -5    197    353    404  90.9  31.6  34198  290.20 0855.00
2009/04/23 11:32:28.5     345    114    298    364    470  71.6  43.5  34328  292.43 0855.00
2009/04/23 11:32:28.6     223    -17    166    224    278  94.4  40.4  34300  291.96 0855.00
2009/04/23 11:32:28.7      32     65    206     73    218  26.3  79.9  34306  292.05 0855.00
2009/04/23 11:32:28.8     -40    -17    129     44    136 246.5  81.2  34314  292.20 0855.00
2009/04/23 11:32:28.9     -73   -134    228    153    274 208.5  62.8  34282  291.65 0855.00
2009/04/23 11:32:29.0    -122   -247    239    276    365 206.3  45.4  34278  291.59 0855.00
2009/04/23 11:32:29.1    -169   -215     89    274    289 218.1  18.1  34282  291.65 0855.00
2009/04/23 11:32:29.2    -214   -270     29    345    347 218.4   4.9  34282  291.64 0855.00
2009/04/23 11:32:29.3    -116   -256    168    282    328 204.5  33.7  34220  290.58 0855.01
2009/04/23 11:32:29.4    -121   -181    140    219    259 213.8  35.6  34230  290.76 0855.01
2009/04/23 11:32:29.5    -213   -334    220    397    453 212.6  31.4  34236  290.87 0855.01
2009/04/23 11:32:29.6    -117   -227    277    256    377 207.4  52.3  34200  290.25 0855.01
2009/04/23 11:32:29.7    -239   -221    230    326    398 227.3  38.6  34202  290.28 0855.01
2009/04/23 11:32:29.8    -331     17     -1    332    333 273.0  -0.3  34224  290.67 0855.01
2009/04/23 11:32:29.9    -431    -45   -172    434    466 263.9 -27.4  34228  290.73 0855.01
2009/04/23 11:32:30.0    -352    -52   -251    356    435 261.5 -43.0  34214  290.50 0855.01
2009/04/23 11:32:30.1    -137   -200   -235    243    338 214.5 -53.5  34198  290.20 0855.01
2009/04/23 11:32:30.2     -85   -173    -85    193    210 206.3 -29.6  34186  290.01 0855.01
2009/04/23 11:32:30.3    -209     53   -133    216    253 284.4 -39.2  34214  290.48 0855.01
2009/04/23 11:32:30.4    -166      5    -70    167    181 271.9 -28.2  34216  290.53 0855.01
2009/04/23 11:32:30.5    -175    -58    -74    185    199 251.4 -27.4  34226  290.70 0855.01
2009/04/23 11:32:30.6    -193    -87   -164    212    268 245.6 -46.1  34238  290.88 0855.01
2009/04/23 11:32:30.7     -77   -254    -19    266    267 197.0  -4.1  34226  290.70 0855.01
2009/04/23 11:32:30.8    -171   -347     85    387    397 206.3  12.5  34264  291.34 0855.01
2009/04/23 11:32:30.9    -219   -223    -41    313    316 224.5  -7.6  34260  291.27 0855.01
2009/04/23 11:32:31.0    -211   -174    -71    274    284 230.5 -14.7  34244  291.00 0855.01
2009/04/23 11:32:31.1    -313   -146    -59    346    351 244.9  -9.7  34242  290.96 0855.01
2009/04/23 11:32:31.2    -260   -100     -7    279    280 248.9  -1.6  34246  291.04 0855.01
2009/04/23 11:32:31.3    -309     14   -122    310    333 272.6 -27.2  34254  291.16 0855.03
2009/04/23 11:32:31.4    -427    -26   -154    428    455 266.5 -19.8  34252  291.12 0855.03
2009/04/23 11:32:31.5    -447    105   -210    460    505 283.3 -30.8  34186  290.01 0855.03
2009/04/23 11:32:31.6    -382     53   -110    386    402 278.0 -15.9  34192  290.13 0855.03
2009/04/23 11:32:31.7    -223   -244    175    331    374 222.4  30.2  34240  290.93 0855.03
2009/04/23 11:32:31.8    -195   -345     65    397    403 209.5   9.3  34246  291.03 0855.03
2009/04/23 11:32:31.9    -511   -156   -137    535    553 253.0 -14.4  34218  290.55 0855.03
2009/04/23 11:32:32.0    -600    -62   -176    604    629 264.0 -21.0  34194  290.16 0855.03
2009/04/23 11:32:32.1    -690   -180   -226    714    749 255.3 -17.6  34198  290.23 0855.03
2009/04/23 11:32:32.2    -738   -146   -225    753    785 258.8 -21.5  34180  289.90 0855.03
2009/04/23 11:32:32.3    -823   -115     10    832    833 262.0   0.7  34184  289.97 0855.03
2009/04/23 11:32:32.4    -709   -155    -39    727    729 257.6  -3.1  34202  290.30 0855.03
2009/04/23 11:32:32.5    -586   -278   -113    649    659 244.6  -9.9  34214  290.48 0855.03
2009/04/23 11:32:32.6    -542    -91   -190    550    582 260.4 -19.1  34184  289.97 0855.03
2009/04/23 11:32:32.7    -433    -92     12    443    444 257.9   1.6  34206  290.36 0855.03
2009/04/23 11:32:32.8    -165   -244     -2    295    296 214.2  -0.5  34204  290.31 0855.03
2009/04/23 11:32:32.9    -185   -198    -10    272    273 223.0  -2.2  34204  290.32 0855.03
2009/04/23 11:32:33.0     -64   -307     15    314    315 191.8   2.8  34206  290.34 0855.03
2009/04/23 11:32:33.1    -221   -382    -17    442    443 210.1  -2.2  34204  290.33 0855.03
2009/04/23 11:32:33.2    -276   -448    -47    527    530 211.7  -5.2  34206  290.35 0855.03
2009/04/23 11:32:33.3    -142   -372     57    399    404 200.9   8.2  34212  290.45 0855.04
2009/04/23 11:32:33.4      27   -386    -12    387    388 176.0  -1.8  34208  290.38 0855.04
2009/04/23 11:32:33.5      44   -313     92    317    331 172.0  16.1  34210  290.42 0855.04
2009/04/23 11:32:33.6      -5   -365    108    366    382 180.8  16.5  34204  290.32 0855.04
2009/04/23 11:32:33.7    -116   -447    161    462    490 194.6  19.2  34198  290.20 0855.04
2009/04/23 11:32:33.8    -160   -383     60    416    421 202.7   8.2  34198  290.21 0855.04
2009/04/23 11:32:34.0    -199   -363     -4    415    416 208.8  -0.6  34198  290.22 0855.04
2009/04/23 11:32:34.0    -133   -408      5    430    431 198.0   0.7  34198  290.22 0855.04
2009/04/23 11:32:34.1    -120   -490     66    505    510 193.8   7.5  34194  290.15 0855.04
2009/04/23 11:32:34.3    -113   -452     73    466    472 194.1   9.0  34192  290.12 0855.04
2009/04/23 11:32:34.3    -168   -412     49    445    448 202.2   6.4  34194  290.16 0855.04
2009/04/23 11:32:34.4    -108   -496     80    508    515 192.4   9.0  34186  290.01 0855.04
2009/04/23 11:32:34.6     -99   -548     67    557    562 190.3   6.9  34184  289.99 0855.04
2009/04/23 11:32:34.7     -51   -551     24    554    555 185.3   2.5  34182  289.96 0855.04
2009/04/23 11:32:34.8      23   -596     74    597    602 177.8   7.1  34184  289.98 0855.04
2009/04/23 11:32:34.9      87   -704    142    710    725 172.9  11.3  34198  290.23 0855.04
2009/04/23 11:32:35.0     129   -639    136    652    667 168.5  11.8  34190  290.09 0855.04
2009/04/23 11:32:35.1     110   -669      3    679    680 170.7   0.3  34190  290.09 0855.04
2009/04/23 11:32:35.2     191   -597     48    627    629 162.2   4.4  34190  290.09 0855.04
2009/04/23 11:32:35.3      74   -653     20    658    659 173.5   1.8  34192  290.12 0855.04
2009/04/23 11:32:35.4     -34   -661    -67    662    666 183.0  -5.8  34194  290.14 0855.06
2009/04/23 11:32:35.5      -2   -651    -66    652    656 180.2  -5.8  34202  290.28 0855.06
2009/04/23 11:32:35.6      44   -805   -118    807    816 176.9  -8.4  34176  289.84 0855.06
2009/04/23 11:32:35.7     -25   -723   -138    724    738 182.0 -10.8  34184  289.98 0855.06
2009/04/23 11:32:35.8     -47   -777   -105    779    786 183.5  -7.7  34188  290.05 0855.06
2009/04/23 11:32:35.9    -137   -771   -154    784    800 190.1 -11.1  34186  290.02 0855.06
2009/04/23 11:32:36.0     -29   -728   -170    729    749 182.3 -13.1  34182  289.95 0855.06
2009/04/23 11:32:36.1      38   -647   -145    649    666 176.6 -12.6  34182  289.93 0855.06
2009/04/23 11:32:36.2      39   -598    -96    600    608 176.3  -9.1  34182  289.93 0855.06
2009/04/23 11:32:36.3      78   -620    -17    625    626 172.8  -1.6  34188  290.03 0855.06
2009/04/23 11:32:36.4     161   -607    -24    629    630 165.1  -2.2  34176  289.84 0855.06
2009/04/23 11:32:36.5      50   -510   -117    513    527 174.3 -12.9  34178  289.87 0855.06
2009/04/23 11:32:36.6      52   -643   -133    646    660 175.3 -11.7  34188  290.06 0855.06
2009/04/23 11:32:36.7      45   -528   -160    531    554 175.1 -21.7  34194  290.16 0855.06
2009/04/23 11:32:36.8     101   -508   -109    519    531 168.7 -11.9  34190  290.09 0855.06
2009/04/23 11:32:36.9      92   -481   -161    490    516 169.1 -18.2  34190  290.08 0855.06
2009/04/23 11:32:37.0     156   -485    -47    510    513 162.1  -5.4  34194  290.15 0855.06
2009/04/23 11:32:37.1     113   -511    -93    524    533 167.5 -10.1  34200  290.24 0855.06
2009/04/23 11:32:37.2     102   -546   -122    556    570 169.4 -12.4  34200  290.26 0855.06
2009/04/23 11:32:37.3     183   -438    -86    475    483 157.3 -10.3  34196  290.18 0855.06
2009/04/23 11:32:37.4     214   -478   -105    524    535 155.9 -11.3  34196  290.19 0855.05
2009/04/23 11:32:37.5     217   -495    -68    541    546 156.3  -7.2  34206  290.35 0855.05
2009/04/23 11:32:37.6     249   -504   -104    563    573 153.7 -10.5  34186  290.02 0855.05
2009/04/23 11:32:37.7     329   -430    -39    542    544 142.6  -4.1  34178  289.89 0855.05
2009/04/23 11:32:37.8     345   -444    -72    563    568 142.2  -7.3  34178  289.89 0855.05
2009/04/23 11:32:37.9     288   -374    -24    473    474 142.4  -3.0  34174  289.81 0855.05
2009/04/23 11:32:38.0     223   -395     71    454    460 150.6   9.0  34178  289.88 0855.05
2009/04/23 11:32:38.1     139   -364     47    390    393 159.1   6.9  34178  289.87 0855.05
2009/04/23 11:32:38.2     200   -250    149    321    353 141.3  26.6  34174  289.82 0855.05
2009/04/23 11:32:38.3     245   -193    151    313    347 128.2  27.4  34182  289.93 0855.05
2009/04/23 11:32:38.4     217   -191    123    290    315 131.4  24.3  34182  289.95 0855.05
2009/04/23 11:32:38.5     281   -166    114    327    347 120.7  19.2  34188  290.06 0855.05
2009/04/23 11:32:38.6     314   -199     97    372    385 122.4  14.6  34192  290.11 0855.05
2009/04/23 11:32:38.7     337   -195    154    390    419 120.0  22.8  34182  289.94 0855.05
2009/04/23 11:32:38.8     249   -310    155    398    427 141.3  22.4  34184  289.99 0855.05
2009/04/23 11:32:38.9     276   -427    239    509    562 147.1  27.1  34182  289.94 0855.05
2009/04/23 11:32:39.0     300   -308    219    431    483 135.8  29.1  34186  290.00 0855.05
2009/04/23 11:32:39.1     245   -229    248    336    417 133.1  40.0  34184  289.99 0855.05
2009/04/23 11:32:39.2     172   -186    255    254    359 137.2  50.1  34184  289.99 0855.05
2009/04/23 11:32:39.3      32   -169    245    173    299 169.3  61.5  34178  289.88 0855.05
2009/04/23 11:32:39.4     -37   -292    327    295    440 187.3  53.4  34178  289.86 0855.09
2009/04/23 11:32:39.5      20   -250    260    251    361 175.3  51.1  34192  290.13 0855.09
2009/04/23 11:32:39.6      60   -110    221    126    254 151.5  67.8  34200  290.25 0855.09
2009/04/23 11:32:39.7      18   -238    217    239    322 175.5  47.0  34200  290.24 0855.09
2009/04/23 11:32:39.8     -16   -356    319    357    478 182.7  46.4  34174  289.82 0855.09
2009/04/23 11:32:39.9     -25   -336    292    337    445 184.4  45.5  34174  289.82 0855.09
2009/04/23 11:32:40.0    -114   -366    282    384    476 197.3  40.0  34180  289.90 0855.09
2009/04/23 11:32:40.1    -198   -420    229    465    518 205.3  28.1  34178  289.88 0855.09
2009/04/23 11:32:40.2     -95   -460    251    470    532 191.7  30.5  34178  289.88 0855.09
2009/04/23 11:32:40.3      16   -327    195    328    381 177.1  33.5  34182  289.96 0855.09
2009/04/23 11:32:40.4      54   -321    155    326    360 170.3  27.2  34192  290.11 0855.09
2009/04/23 11:32:40.5      54   -393    244    397    465 172.1  34.5  34188  290.05 0855.09
2009/04/23 11:32:40.6     -85   -354    214    365    423 193.6  33.1  34184  289.99 0855.09
2009/04/23 11:32:40.7     -92   -445    197    455    495 191.7  24.9  34188  290.03 0855.09
2009/04/23 11:32:40.8    -105   -356     76    372    380 196.5  11.6  34184  289.99 0855.09
2009/04/23 11:32:40.9     -70   -346     94    353    366 191.5  14.9  34188  290.04 0855.09
2009/04/23 11:32:41.0     -86   -300     31    313    315 196.1   5.7  34192  290.10 0855.09
2009/04/23 11:32:41.1     -40   -250    139    254    289 189.1  31.3  34192  290.12 0855.09
2009/04/23 11:32:41.2     110   -144    193    182    265 142.6  52.1  34190  290.07 0855.09
2009/04/23 11:32:41.3      45   -317    262    321    414 171.9  43.5  34192  290.11 0855.09
2009/04/23 11:32:41.4      -2   -149    269    150    307 181.0  68.8  34196  290.19 0855.13
2009/04/23 11:32:41.5     -30   -160    244    163    293 190.9  63.2  34194  290.14 0855.13
2009/04/23 11:32:41.6     -22   -108    185    111    215 191.6  66.7  34200  290.26 0855.13
2009/04/23 11:32:41.7     -88    -88    172    125    212 225.0  60.6  34198  290.23 0855.13
2009/04/23 11:32:41.8     -55    -91    151    107    185 211.2  61.3  34208  290.38 0855.13
2009/04/23 11:32:41.9    -114   -193    184    225    290 210.7  43.7  34196  290.19 0855.13
2009/04/23 11:32:42.0    -102   -224    226    247    334 204.5  47.3  34192  290.12 0855.13
2009/04/23 11:32:42.1       0   -170    199    171    262 180.0  55.0  34192  290.12 0855.13
2009/04/23 11:32:42.2       2   -134    166    135    213 179.1  56.6  34190  290.09 0855.13
2009/04/23 11:32:42.3       4   -279    239    280    368 179.1  44.8  34186  290.01 0855.13
2009/04/23 11:32:42.4      16   -208    213    209    298 175.5  50.4  34186  290.00 0855.15
2009/04/23 11:32:42.5       6   -186    208    187    279 178.0  53.5  34188  290.03 0855.15
2009/04/23 11:32:42.6     -16    -48    223     51    228 198.5  87.5  34210  290.41 0855.15
2009/04/23 11:32:42.7     -71   -156    194    172    259 204.5  54.0  34198  290.20 0855.15
2009/04/23 11:32:42.8     -79   -187    164    204    261 202.9  42.8  34192  290.10 0855.15
2009/04/23 11:32:42.9     -71   -349     76    357    366 191.6  12.1  34186  290.01 0855.15
2009/04/23 11:32:43.0       6   -433    101    434    446 179.1  13.1  34186  290.02 0855.15
2009/04/23 11:32:43.1      66   -500     35    505    507 172.4   4.0  34188  290.06 0855.15
2009/04/23 11:32:43.2     -24   -514   -112    515    528 182.7 -12.3  34180  289.92 0855.15
2009/04/23 11:32:43.3    -265   -598     84    655    661 203.9   7.3  34172  289.78 0855.15
2009/04/23 11:32:43.4    -327   -449   -165    556    579 216.1 -21.4  34174  289.81 0855.15
2009/04/23 11:32:43.5    -343   -473   -161    585    607 216.0 -15.4  34170  289.73 0855.15
2009/04/23 11:32:43.6    -252   -332     -2    418    419 217.2  -0.4  34176  289.83 0855.15
2009/04/23 11:32:43.7    -125   -192     11    230    231 213.0   2.9  34180  289.92 0855.15
2009/04/23 11:32:43.8     -61   -129    -34    143    148 205.5 -13.4  34182  289.96 0855.15
2009/04/23 11:32:43.9    -156    -35    -23    160    162 257.2  -8.2  34184  289.97 0855.15
2009/04/23 11:32:44.0    -229    -83     19    244    245 250.0   4.6  34186  290.02 0855.15
2009/04/23 11:32:44.1    -210   -157     12    263    264 233.2   2.8  34186  290.02 0855.15
2009/04/23 11:32:44.2    -167   -114     93    203    223 235.8  26.6  34208  290.40 0855.15
2009/04/23 11:32:44.3    -192   -128     27    231    233 236.3   6.9  34208  290.37 0855.15
2009/04/23 11:32:44.4    -199   -134     52    241    247 236.0  12.4  34202  290.29 0855.16
2009/04/23 11:32:44.5    -124    -79    -20    148    150 237.6  -7.7  34210  290.43 0855.16
2009/04/23 11:32:44.6     -35    -64    -42     74     85 209.0 -36.8  34216  290.53 0855.16
2009/04/23 11:32:44.7     -43     14    -71     46     84 288.2 -69.0  34218  290.57 0855.16
2009/04/23 11:32:44.8    -179      7   -120    180    216 272.4 -41.4  34216  290.53 0855.16
2009/04/23 11:32:44.9    -218    -15    -65    219    229 265.9 -16.5  34218  290.55 0855.16
2009/04/23 11:32:45.0    -160     -2    -33    161    165 269.2 -11.6  34224  290.67 0855.16
2009/04/23 11:32:45.1     -88    -17      1     90     91 259.0   1.2  34228  290.74 0855.16
2009/04/23 11:32:45.2    -145   -132    -59    197    205 227.8 -21.8  34212  290.47 0855.16
2009/04/23 11:32:45.3    -230   -105    -72    254    264 245.4 -20.7  34186  290.00 0855.16
2009/04/23 11:32:45.4    -420   -128   -113    440    455 253.1 -14.5  34200  290.24 0855.16
2009/04/23 11:32:45.5    -448   -158   -104    476    488 250.6 -12.4  34200  290.25 0855.16
2009/04/23 11:32:45.6    -398   -113   -135    414    436 254.1 -18.1  34200  290.26 0855.16
2009/04/23 11:32:45.7    -398     -6   -113    399    414 269.0 -20.5  34214  290.48 0855.16
2009/04/23 11:32:45.8    -325    -24   -114    326    346 265.6 -19.3  34210  290.43 0855.16
2009/04/23 11:32:45.9    -244    -20    -62    245    253 265.2 -14.4  34202  290.27 0855.16
2009/04/23 11:32:46.0    -267   -107    -90    288    301 248.2 -22.8  34228  290.73 0855.16
2009/04/23 11:32:46.1    -206   -170    -95    268    285 230.5 -19.7  34238  290.88 0855.16
2009/04/23 11:32:46.2    -139   -168   -120    219    249 219.7 -35.4  34236  290.85 0855.16
2009/04/23 11:32:46.3     116   -210   -124    241    271 151.0 -33.7  34218  290.54 0855.16
2009/04/23 11:32:46.4     123   -229   -129    261    291 151.7 -32.6  34218  290.54 0855.14
2009/04/23 11:32:46.5     225    -84    -67    241    251 110.4 -15.5  34214  290.49 0855.14
2009/04/23 11:32:46.6     170    -64    -23    182    184 110.8  -7.3  34218  290.55 0855.14
2009/04/23 11:32:46.7     133    -96    -55    165    173 126.0 -23.6  34218  290.57 0855.14
2009/04/23 11:32:46.8     102   -280    -68    299    307 159.9 -12.9  34212  290.44 0855.14
2009/04/23 11:32:46.9     275   -291    -37    401    403 136.7  -5.4  34208  290.39 0855.14
2009/04/23 11:32:47.0     242   -277    -66    369    376 138.8 -10.2  34210  290.43 0855.14
2009/04/23 11:32:47.1     218   -247    -84    330    341 138.5 -14.4  34208  290.38 0855.14
2009/04/23 11:32:47.2      34   -270     -5    273    274 172.8  -1.1  34210  290.42 0855.14
2009/04/23 11:32:47.3     -21   -295     -6    296    297 184.2  -1.3  34212  290.46 0855.14
2009/04/23 11:32:47.4     -78   -312    -24    322    323 194.2  -4.4  34226  290.70 0855.14
2009/04/23 11:32:47.5     -24   -310     -2    312    313 184.5  -0.5  34224  290.65 0855.14
2009/04/23 11:32:47.6     -12   -339     35    340    342 182.1   5.9  34208  290.38 0855.14
2009/04/23 11:32:47.7       9   -409     12    410    411 178.6   1.8  34210  290.43 0855.14
2009/04/23 11:32:47.8     -26   -336    -26    338    340 184.5  -4.5  34208  290.40 0855.14
2009/04/23 11:32:47.9     -12   -393     76    394    402 181.8  11.0  34190  290.08 0855.14
2009/04/23 11:32:48.0       0   -411    138    412    435 180.0  18.6  34186  290.00 0855.14
2009/04/23 11:32:48.1     -25   -403    142    404    428 183.6  20.0  34186  290.02 0855.14
2009/04/23 11:32:48.2     -31   -396    148    398    424 184.5  21.4  34188  290.04 0855.14
2009/04/23 11:32:48.3     -25   -409    159    410    439 183.5  22.2  34188  290.05 0855.14
2009/04/23 11:32:48.4       1   -348    165    349    386 179.8  27.2  34188  290.06 0855.13
2009/04/23 11:32:48.5     -42   -316    145    319    350 187.6  26.3  34188  290.04 0855.13
2009/04/23 11:32:48.6     -58   -244    122    251    279 193.4  27.8  34186  290.02 0855.13
2009/04/23 11:32:48.7       0   -233    173    234    291 179.8  39.9  34196  290.19 0855.13
2009/04/23 11:32:48.8     -17   -278    165    279    324 183.5  33.5  34188  290.03 0855.13
2009/04/23 11:32:48.9      28   -357    245    359    434 175.5  37.6  34192  290.12 0855.13
2009/04/23 11:32:49.0      17   -270    235    271    358 176.2  45.5  34194  290.16 0855.13
2009/04/23 11:32:49.1      -9   -281    252    282    378 182.0  46.4  34196  290.18 0855.13
2009/04/23 11:32:49.2      12   -368    218    369    428 178.0  33.5  34194  290.16 0855.13
2009/04/23 11:32:49.3     -49   -348    137    352    377 188.1  22.4  34194  290.16 0855.13
2009/04/23 11:32:49.4     -23   -242    215    244    325 185.6  45.8  34200  290.26 0855.13
2009/04/23 11:32:49.5     -41   -263    226    267    349 188.9  44.4  34198  290.22 0855.13
2009/04/23 11:32:49.6     -60   -294    247    301    389 191.6  43.7  34200  290.25 0855.13
2009/04/23 11:32:49.7     -77   -333    170    342    381 193.1  28.4  34192  290.13 0855.13
2009/04/23 11:32:49.8    -104   -343    133    359    382 196.9  21.3  34192  290.10 0855.13
2009/04/23 11:32:49.9     -69   -271    117    280    303 194.3  24.1  34194  290.15 0855.13
2009/04/23 11:32:50.0     -37   -185    133    189    231 191.6  38.6  34196  290.19 0855.13
2009/04/23 11:32:50.1     -45   -177     93    183    205 194.3  29.1  34192  290.11 0855.13
2009/04/23 11:32:50.2     127   -124     62    178    189 134.2  19.4  34190  290.09 0855.13
2009/04/23 11:32:50.3      59   -152    117    164    201 158.6  39.1  34190  290.08 0855.13
2009/04/23 11:32:50.4      34   -180    134    184    227 169.3  39.7  34196  290.19 0855.13
2009/04/23 11:32:50.5      71   -152    100    169    196 154.8  33.4  34194  290.16 0855.13
2009/04/23 11:32:50.6     -18   -221     45    222    227 184.7  11.6  34192  290.11 0855.13
2009/04/23 11:32:50.7     -48   -213     67    219    230 192.9  17.1  34190  290.09 0855.13
2009/04/23 11:32:50.8    -144   -314     76    346    355 204.6  12.4  34196  290.18 0855.13
2009/04/23 11:32:50.9    -113   -229    148    256    295 206.3  32.7  34196  290.19 0855.13
2009/04/23 11:32:51.0     -63   -331     82    337    347 190.8  13.8  34192  290.11 0855.13
2009/04/23 11:32:51.1     -15   -323    113    324    344 182.7  19.2  34198  290.20 0855.13
2009/04/23 11:32:51.2      27   -383     78    384    393 175.9  11.6  34192  290.13 0855.13
2009/04/23 11:32:51.3      24   -356    125    357    379 176.1  19.3  34202  290.28 0855.13
2009/04/23 11:32:51.4      43   -403    103    406    420 173.8  14.3  34198  290.22 0855.13
2009/04/23 11:32:51.5      26   -362    146    363    391 175.8  23.1  34198  290.23 0855.13
2009/04/23 11:32:51.6      98   -356    131    370    393 164.6  19.6  34202  290.28 0855.13
2009/04/23 11:32:51.7      63   -234    165    243    293 164.9  37.6  34198  290.22 0855.13
2009/04/23 11:32:51.8      57   -211    137    219    258 164.8  35.2  34202  290.29 0855.13
2009/04/23 11:32:51.9      25   -120    144    123    189 168.0  55.6  34208  290.38 0855.13
2009/04/23 11:32:52.0      89   -101    161    135    210 138.6  56.1  34210  290.41 0855.13
2009/04/23 11:32:52.1      15    -32    171     36    174 154.5  89.0  34210  290.41 0855.13
2009/04/23 11:32:52.2     165   -267    191    315    368 148.3  34.2  34204  290.33 0855.13
2009/04/23 11:32:52.3     118   -255    136    282    313 155.1  27.8  34198  290.22 0855.13
2009/04/23 11:32:52.4      59   -218     91    226    243 164.8  23.0  34204  290.32 0855.14
2009/04/23 11:32:52.5      39   -407    134    410    432 174.4  18.1  34200  290.24 0855.14
2009/04/23 11:32:52.6      73   -524     83    530    537 172.0   8.9  34198  290.21 0855.14
2009/04/23 11:32:52.7     115   -476     61    490    494 166.3   7.1  34188  290.06 0855.14
2009/04/23 11:32:52.8     214   -455    107    503    515 154.8  12.0  34196  290.17 0855.14
2009/04/23 11:32:52.9     183   -380    134    422    443 154.3  17.7  34200  290.24 0855.14
2009/04/23 11:32:53.0     181   -462     37    497    499 158.6   4.3  34202  290.27 0855.14
2009/04/23 11:32:53.1     194   -444     18    485    486 156.4   2.2  34198  290.22 0855.14
2009/04/23 11:32:53.2     182   -475     33    509    511 159.0   3.8  34192  290.13 0855.14
2009/04/23 11:32:53.3     124   -478     80    494    501 165.4   9.2  34186  290.00 0855.14
2009/04/23 11:32:53.4      96   -401    147    413    439 166.5  19.6  34194  290.14 0855.14
2009/04/23 11:32:53.5     127   -388    191    409    451 161.9  27.1  34194  290.16 0855.14
2009/04/23 11:32:53.6      95   -400    245    412    479 166.6  33.5  34200  290.26 0855.14
2009/04/23 11:32:53.7      32   -492    135    493    512 176.3  15.3  34202  290.27 0855.14
2009/04/23 11:32:53.8     -36   -470     50    472    475 184.4   6.1  34202  290.30 0855.14
2009/04/23 11:32:53.9      40   -479     91    481    490 175.1  10.7  34192  290.10 0855.14
2009/04/23 11:32:54.0      54   -392     34    396    398 172.1   5.0  34192  290.11 0855.14
2009/04/23 11:32:54.1     138   -344     -4    371    372 158.1  -0.7  34198  290.21 0855.14
2009/04/23 11:32:54.2     165   -346     14    384    385 154.5   2.1  34208  290.38 0855.14
2009/04/23 11:32:54.3     -20   -314    -60    315    321 183.8 -10.9  34208  290.37 0855.14
2009/04/23 11:32:54.4      24   -322     -3    323    324 175.7  -0.6  34208  290.39 0855.15
2009/04/23 11:32:54.5      70   -294    -16    303    304 166.6  -3.2  34204  290.31 0855.15
2009/04/23 11:32:54.6     100   -263    -15    282    283 159.1  -3.1  34206  290.34 0855.15
2009/04/23 11:32:54.7      19    -55    -27     59     64 160.8 -31.5  34204  290.31 0855.15
2009/04/23 11:32:54.8     -61    -70      4     94     95 221.0   2.8  34208  290.40 0855.15
2009/04/23 11:32:54.9     -97     35    -56    104    118 290.0 -35.2  34206  290.36 0855.15
2009/04/23 11:32:55.0     -94     95     66    134    149 315.5  27.8  34216  290.52 0855.15
2009/04/23 11:32:55.1    -111     48     59    122    135 293.6  27.3  34216  290.53 0855.15
2009/04/23 11:32:55.2    -123    -68     61    141    153 241.2  25.1  34208  290.38 0855.15
2009/04/23 11:32:55.3    -118   -118    115    168    203 225.1  37.6  34198  290.23 0855.15
2009/04/23 11:32:55.4    -135   -171     42    218    223 218.3  11.0  34196  290.19 0855.15
2009/04/23 11:32:55.5    -181   -113     71    214    226 238.0  18.6  34198  290.23 0855.15
2009/04/23 11:32:55.6    -122    -86     84    150    171 234.9  31.9  34200  290.26 0855.15
2009/04/23 11:32:55.7     -52    -82     50     98    110 212.6  28.7  34200  290.26 0855.15
2009/04/23 11:32:55.8    -121    -53      6    133    134 246.5   2.9  34196  290.18 0855.15
2009/04/23 11:32:55.9    -102      7    -21    103    106 274.4 -11.9  34198  290.23 0855.15
2009/04/23 11:32:56.0    -122      0      6    123    124 270.0   2.9  34200  290.25 0855.15
2009/04/23 11:32:56.1    -133      1    -22    134    136 270.8  -9.4  34200  290.26 0855.15
2009/04/23 11:32:56.2    -138     27     -3    141    142 281.4  -1.3  34206  290.35 0855.15
2009/04/23 11:32:56.3    -150    -37     74    155    171 255.8  27.2  34210  290.43 0855.15
2009/04/23 11:32:56.4    -228    -39    109    232    256 260.1  27.1  34222  290.61 0855.15
2009/04/23 11:32:56.5    -209     21    -93    211    230 275.9 -29.7  34208  290.38 0855.15
2009/04/23 11:32:56.6    -271    -55   -119    277    301 258.5 -29.3  34210  290.42 0855.15
2009/04/23 11:32:56.7    -330    -15    -42    331    334 267.4  -7.3  34214  290.50 0855.15
2009/04/23 11:32:56.8    -294    -47     72    298    307 260.8  13.7  34202  290.29 0855.15
2009/04/23 11:32:56.9    -298   -182    104    350    366 238.5  16.6  34214  290.50 0855.15
2009/04/23 11:32:57.0    -406   -166     68    439    445 247.7   8.9  34230  290.77 0855.15
2009/04/23 11:32:57.1    -278   -258     85    380    390 227.1  12.6  34218  290.55 0855.15
2009/04/23 11:32:57.2      -3   -243     43    244    248 180.9  10.1  34212  290.46 0855.15
2009/04/23 11:32:57.3    -178   -156    -60    237    245 228.7 -14.4  34216  290.51 0855.15
2009/04/23 11:32:57.4    -206    -68    -60    218    227 251.6 -15.4  34218  290.57 0855.15
2009/04/23 11:32:57.5    -303    -54    -44    308    312 259.9  -8.2  34232  290.78 0855.15
2009/04/23 11:32:57.6     -89   -187    -57    208    216 205.5 -15.5  34218  290.55 0855.15
2009/04/23 11:32:57.7    -158    -73    -57    175    185 245.2 -18.1  34230  290.75 0855.15
2009/04/23 11:32:57.8     -99   -117    -42    154    159 220.1 -20.2  34226  290.70 0855.15
2009/04/23 11:32:57.9     -64   -216     28    226    228 196.7   7.1  34222  290.64 0855.15
2009/04/23 11:32:58.0    -232    -59      3    240    241 255.6   0.8  34210  290.42 0855.15
2009/04/23 11:32:58.1    -298   -100    -25    315    317 251.4  -4.6  34222  290.63 0855.15
2009/04/23 11:32:58.2    -196    -85    -42    214    219 246.5 -11.1  34226  290.70 0855.15
2009/04/23 11:32:58.3    -171   -141    -80    222    235 230.5 -25.1  34230  290.75 0855.16
2009/04/23 11:32:58.4    -137   -201    -80    244    257 214.3 -18.3  34228  290.71 0855.16
2009/04/23 11:32:58.5    -222   -133    -83    259    271 239.1 -23.3  34230  290.76 0855.16
2009/04/23 11:32:58.6    -241   -153    -86    286    299 237.6 -16.8  34232  290.78 0855.16
2009/04/23 11:32:58.7    -249   -103    -95    270    286 247.4 -24.4  34268  291.39 0855.16
2009/04/23 11:32:58.8    -254   -125    -52    284    289 243.8 -10.5  34248  291.07 0855.16
2009/04/23 11:32:58.9    -245   -166    -94    297    311 235.8 -22.9  34252  291.12 0855.16
2009/04/23 11:32:59.0    -321   -177    -58    367    372 241.2  -9.0  34252  291.15 0855.16
2009/04/23 11:32:59.1    -372   -116   -115    390    407 252.6 -16.5  34274  291.52 0855.16
2009/04/23 11:32:59.2    -327   -211    -52    390    394 237.2  -7.7  34228  290.74 0855.16
2009/04/23 11:32:59.3    -375   -194    -16    423    424 242.6  -2.2  34230  290.75 0855.16
2009/04/23 11:32:59.4    -353   -105    -43    369    372 253.4  -6.7  34268  291.40 0855.16
2009/04/23 11:32:59.5    -321    -90    -70    334    342 254.2 -11.9  34266  291.37 0855.16
2009/04/23 11:32:59.6     -83   -320     21    331    332 194.7   3.8  34210  290.42 0855.16
2009/04/23 11:32:59.7    -137   -434     86    456    465 197.5  10.7  34220  290.58 0855.16
2009/04/23 11:32:59.8    -178   -337    181    382    422 207.9  27.2  34222  290.61 0855.16
2009/04/23 11:32:59.9    -185   -328    113    377    394 209.4  16.8  34208  290.38 0855.16
2009/04/23 11:33:00.0    -120   -337    124    359    380 199.7  19.1  34228  290.74 0855.16
2009/04/23 11:33:00.1    -100   -302    135    319    346 198.3  24.3  34218  290.55 0855.16
2009/04/23 11:33:00.2     -79   -290    117    301    322 195.4  22.4  34208  290.37 0855.16
2009/04/23 11:33:00.3     -72   -239    121    250    277 196.9  27.8  34218  290.56 0855.12
2009/04/23 11:33:00.4     -83   -148    146    171    224 209.4  44.5  34224  290.65 0855.12
2009/04/23 11:33:00.5    -155   -212    137    263    296 216.1  29.8  34202  290.29 0855.12
2009/04/23 11:33:00.6    -159   -212    140    266    300 216.9  30.2  34206  290.34 0855.12
2009/04/23 11:33:00.8    -207   -208    126    294    319 224.9  24.6  34206  290.34 0855.12
2009/04/23 11:33:00.9    -238   -209    112    318    338 228.7  19.4  34204  290.33 0855.12
2009/04/23 11:33:01.0    -277   -208    118    347    367 233.1  18.9  34204  290.33 0855.12
2009/04/23 11:33:01.1    -199   -275    143    340    368 215.8  24.2  34198  290.20 0855.12
2009/04/23 11:33:01.2    -141   -243     89    281    295 210.1  17.7  34198  290.20 0855.12
2009/04/23 11:33:01.3    -118   -260    140    286    318 204.5  28.1  34200  290.24 0855.12
2009/04/23 11:33:01.4     -76   -198    154    213    262 200.9  39.5  34204  290.32 0855.12
2009/04/23 11:33:01.5    -138   -195     98    240    259 215.4  23.1  34200  290.26 0855.12
2009/04/23 11:33:01.6    -182   -150      3    236    237 230.5   0.8  34276  291.53 0855.12
2009/04/23 11:33:01.7    -279    -51     18    284    285 259.5   3.8  34276  291.53 0855.12
2009/04/23 11:33:01.8    -218     67   -133    229    264 287.1 -37.1  34200  290.24 0855.12
2009/04/23 11:33:01.9    -152   -172     19    230    231 221.4   4.9  34242  290.98 0855.12
2009/04/23 11:33:02.0    -238   -155    123    285    310 236.9  25.1  34220  290.59 0855.12
2009/04/23 11:33:02.1    -309   -141     59    340    346 245.4   9.9  34250  291.10 0855.12
2009/04/23 11:33:02.2    -276   -202    -22    343    344 233.7  -3.7  34234  290.84 0855.12
2009/04/23 11:33:02.3    -280   -207     17    349    350 233.5   2.9  34222  290.62 0855.12
2009/04/23 11:33:02.4    -340   -202     -8    396    397 239.3  -1.2  34252  291.15 0855.06
2009/04/23 11:33:02.5    -359   -184    -26    404    405 242.8  -3.7  34250  291.09 0855.06
2009/04/23 11:33:02.6    -363   -200    -37    415    417 241.2  -5.2  34262  291.29 0855.06
2009/04/23 11:33:02.7    -364   -170     20    402    403 244.9   2.9  34258  291.24 0855.06
2009/04/23 11:33:02.8    -174   -291    -61    340    346 210.9 -10.2  34222  290.62 0855.06
2009/04/23 11:33:02.9    -280   -219    -33    356    358 232.0  -5.3  34238  290.88 0855.06
2009/04/23 11:33:03.0    -343   -206    -95    401    413 239.0 -13.4  34222  290.61 0855.06
2009/04/23 11:33:03.1    -258   -187   -108    319    338 234.1 -18.8  34234  290.83 0855.06
2009/04/23 11:33:03.2    -274   -214    -70    348    355 232.0 -11.5  34210  290.42 0855.06
2009/04/23 11:33:03.3    -327   -228    -93    399    410 235.1 -13.2  34202  290.28 0855.06
2009/04/23 11:33:03.4    -248   -327      0    411    412 217.2   0.1  34234  290.82 0855.06
2009/04/23 11:33:03.5    -291   -281     65    405    411 226.0   9.2  34236  290.85 0855.06
2009/04/23 11:33:03.6    -262   -306    123    403    422 220.6  17.0  34238  290.89 0855.06
2009/04/23 11:33:03.7    -322   -271     21    422    423 229.9   2.9  34240  290.92 0855.06
2009/04/23 11:33:03.8    -169   -240    164    294    336 215.2  31.6  34222  290.61 0855.06
2009/04/23 11:33:03.9    -137   -329    181    357    400 202.6  29.1  34214  290.50 0855.06
2009/04/23 11:33:04.0    -181   -328    118    375    394 208.9  17.5  34238  290.88 0855.06
2009/04/23 11:33:04.1    -138   -414     40    437    440 198.4   5.3  34242  290.97 0855.06
2009/04/23 11:33:04.2    -182   -350    -15    395    396 207.5  -2.3  34244  291.00 0855.06
2009/04/23 11:33:04.3    -265   -476    -53    545    548 209.1  -5.6  34212  290.45 0855.06
2009/04/23 11:33:04.4    -194   -456     46    496    499 203.1   5.3  34216  290.51 0855.06
2009/04/23 11:33:04.5    -124   -371    106    392    407 198.5  15.2  34218  290.54 0855.06
2009/04/23 11:33:04.6    -122   -366     -7    386    387 198.5  -1.2  34200  290.25 0855.06
2009/04/23 11:33:04.7     -80   -298    112    309    328 195.2  20.7  34214  290.49 0855.06
2009/04/23 11:33:04.8    -134   -263     97    296    312 207.1  18.2  34238  290.88 0855.06
2009/04/23 11:33:04.9    -254   -330    151    417    444 217.6  19.9  34248  291.06 0855.06
2009/04/23 11:33:05.0    -208   -352    104    409    423 210.6  14.3  34234  290.84 0855.06
2009/04/23 11:33:05.1    -231   -311     73    388    395 216.6  10.7  34244  291.00 0855.06
2009/04/23 11:33:05.2    -187   -271     92    330    343 214.6  15.7  34248  291.05 0855.06
2009/04/23 11:33:05.3    -214   -321    -15    387    388 213.7  -2.3  34232  290.81 0855.06
2009/04/23 11:33:05.4    -304   -313     14    437    438 224.2   1.9  34252  291.12 0855.09
2009/04/23 11:33:05.5    -136   -265      3    299    300 207.2   0.7  34242  290.95 0855.09
2009/04/23 11:33:05.6     -96   -347     -1    361    362 195.5  -0.2  34232  290.81 0855.09
2009/04/23 11:33:05.7    -103   -327     19    343    344 197.5   3.3  34228  290.74 0855.09
2009/04/23 11:33:05.8    -187   -331    -26    381    382 209.5  -4.0  34238  290.91 0855.09
2009/04/23 11:33:05.9    -173   -338    -37    380    382 207.1  -5.6  34228  290.71 0855.09
2009/04/23 11:33:06.0    -145   -284    -70    320    328 207.1 -12.4  34236  290.85 0855.09
2009/04/23 11:33:06.1    -127   -347    -86    370    380 200.2 -13.1  34222  290.64 0855.09
2009/04/23 11:33:06.2    -145   -371    -57    399    404 201.4  -8.2  34244  291.00 0855.09
2009/04/23 11:33:06.3    -140   -296    -43    328    331 205.4  -7.5  34240  290.94 0855.09
2009/04/23 11:33:06.4    -130   -221    -21    257    259 210.5  -4.9  34240  290.92 0855.09
2009/04/23 11:33:06.5    -204   -211    -93    294    309 224.1 -17.5  34228  290.71 0855.09
2009/04/23 11:33:06.6    -150   -227    -75    273    284 213.4 -15.4  34214  290.48 0855.09
2009/04/23 11:33:06.7    -116   -256    -11    282    283 204.5  -2.2  34226  290.70 0855.09
2009/04/23 11:33:06.8    -117   -246    -31    273    275 205.5  -6.5  34250  291.10 0855.09
2009/04/23 11:33:06.9    -156   -157    -67    222    232 224.9 -16.8  34262  291.32 0855.09
2009/04/23 11:33:07.0     -86    -92    -41    127    134 223.2 -18.1  34266  291.37 0855.09
2009/04/23 11:33:07.1     -62    -91    -19    111    113 214.3  -9.8  34270  291.45 0855.09
2009/04/23 11:33:07.2     -57    -86    -14    104    105 213.8  -7.7  34262  291.30 0855.09
2009/04/23 11:33:07.3      25    -72     40     77     86 160.8  29.8  34226  290.70 0855.09
2009/04/23 11:33:07.4      58   -143    113    155    191 157.7  39.7  34210  290.43 0855.11
2009/04/23 11:33:07.5     125    -86    115    153    191 124.6  40.9  34216  290.53 0855.11
2009/04/23 11:33:07.6     126   -178    107    219    243 144.6  28.2  34218  290.56 0855.11
2009/04/23 11:33:07.7      91   -265     25    281    283 160.9   5.2  34210  290.42 0855.11
2009/04/23 11:33:07.8     139   -260     63    295    302 151.9  12.2  34206  290.34 0855.11
2009/04/23 11:33:07.9     135   -219     70    258    268 148.4  15.2  34208  290.39 0855.11
2009/04/23 11:33:08.0     117   -141     58    184    194 140.3  17.7  34210  290.43 0855.11
2009/04/23 11:33:08.1     153   -102     79    185    201 123.7  24.6  34214  290.48 0855.11
2009/04/23 11:33:08.2     165   -133     49    212    218 128.9  13.2  34212  290.47 0855.11
2009/04/23 11:33:08.3     137   -170     10    219    220 141.3   2.8  34210  290.43 0855.11
2009/04/23 11:33:08.4     124   -263      3    292    293 154.7   0.7  34212  290.46 0855.11
2009/04/23 11:33:08.5      97   -239     91    258    274 157.9  19.4  34212  290.46 0855.11
2009/04/23 11:33:08.6      26   -217    108    219    244 173.1  28.2  34216  290.53 0855.11
2009/04/23 11:33:08.7      -3   -229    104    230    252 180.9  26.2  34220  290.59 0855.11
2009/04/23 11:33:08.8      71   -232    115    243    268 163.0  27.2  34212  290.44 0855.11
2009/04/23 11:33:08.9     189   -178     70    260    270 133.3  15.2  34214  290.48 0855.11
2009/04/23 11:33:09.0     142   -151    102    208    231 136.7  27.8  34212  290.45 0855.11
2009/04/23 11:33:09.1      36   -138     75    143    161 165.3  29.8  34214  290.48 0855.11
2009/04/23 11:33:09.2      11   -185     53    186    194 176.6  16.0  34210  290.43 0855.11
2009/04/23 11:33:09.3      17   -226     65    227    237 175.6  16.0  34214  290.48 0855.11
2009/04/23 11:33:09.4      28   -259     84    261    275 173.8  17.9  34216  290.53 0855.13
2009/04/23 11:33:09.5     -49   -228     86    234    249 192.3  21.0  34228  290.73 0855.13
2009/04/23 11:33:09.6     -14   -165     53    166    175 184.9  17.7  34228  290.74 0855.13
2009/04/23 11:33:09.7     -29   -113     74    117    138 194.7  35.5  34234  290.84 0855.13
2009/04/23 11:33:09.8      15    -73     51     75     90 168.4  37.6  34228  290.72 0855.13
2009/04/23 11:33:09.9     -14    -86     73     88    114 189.8  43.7  34224  290.67 0855.13
2009/04/23 11:33:10.0      -1    -57     65     58     87 181.8  53.3  34224  290.67 0855.13
2009/04/23 11:33:10.1      14    -39     66     42     78 159.1  64.7  34234  290.82 0855.13
2009/04/23 11:33:10.2      -4    -23     46     24     51 189.8  70.8  34232  290.81 0855.13
2009/04/23 11:33:10.3      38     12    106     40    113  72.3  78.6  34222  290.62 0855.13
2009/04/23 11:33:10.4     -11      0    104     12    104 270.0  90.0  34232  290.79 0855.13
2009/04/23 11:33:10.5      27   -101    127    105    164 164.8  56.1  34220  290.58 0855.13
2009/04/23 11:33:10.6      18     -3    108     19    109 101.5  90.0  34222  290.64 0855.13
2009/04/23 11:33:10.7       0   -134    128    135    186 180.4  48.2  34218  290.57 0855.13
2009/04/23 11:33:10.8      -2   -122    153    123    196 181.0  56.9  34216  290.53 0855.13
2009/04/23 11:33:10.9     -24   -187    112    189    219 187.6  33.5  34212  290.47 0855.13
2009/04/23 11:33:11.0     -48   -218    104    224    246 192.5  26.6  34208  290.39 0855.13
2009/04/23 11:33:11.1     -61   -223    101    232    253 195.4  25.1  34208  290.39 0855.13
2009/04/23 11:33:11.2     -73   -231     97    243    261 197.6  23.0  34210  290.42 0855.13
2009/04/23 11:33:11.3    -123   -210    127    244    275 210.5  29.3  34212  290.44 0855.13
2009/04/23 11:33:11.4    -120   -212    111    244    268 209.6  26.2  34214  290.48 0855.13
2009/04/23 11:33:11.5    -136   -187     77    232    245 216.0  18.4  34212  290.46 0855.13
2009/04/23 11:33:11.6    -165   -176     61    242    250 223.0  14.3  34230  290.75 0855.13
2009/04/23 11:33:11.7    -181   -134     -6    226    227 233.6  -1.6  34238  290.89 0855.13
2009/04/23 11:33:11.8    -225   -163     -5    278    279 234.0  -1.2  34226  290.68 0855.13
2009/04/23 11:33:11.9    -177   -131    -26    221    223 233.4  -6.7  34220  290.58 0855.13
2009/04/23 11:33:12.0    -180   -122    -61    218    226 235.9 -20.0  34218  290.55 0855.13
2009/04/23 11:33:12.1    -276    -96    -14    293    294 250.7  -2.8  34224  290.66 0855.13
2009/04/23 11:33:12.2    -179   -130     22    222    224 234.0   5.7  34230  290.75 0855.13
2009/04/23 11:33:12.3     -69   -201     -8    213    214 199.2  -2.2  34220  290.58 0855.13
2009/04/23 11:33:12.4     -74   -152     59    170    181 206.1  19.2  34222  290.64 0855.13
2009/04/23 11:33:12.5     -78   -114      4    139    140 214.2   1.8  34230  290.75 0855.13
2009/04/23 11:33:12.6    -125   -103     10    163    164 230.4   3.8  34228  290.72 0855.13
2009/04/23 11:33:12.7     -86    -97    -21    130    132 221.4  -9.3  34228  290.72 0855.13
2009/04/23 11:33:12.8    -110    -48    -42    121    129 246.5 -19.1  34238  290.89 0855.13
2009/04/23 11:33:12.9    -149    -67    -56    164    173 245.6 -23.6  34232  290.79 0855.13
2009/04/23 11:33:13.0    -108   -108    -46    153    159 225.0 -21.7  34232  290.81 0855.13
2009/04/23 11:33:13.1     -92   -139     -6    167    168 213.6  -2.2  34234  290.82 0855.13
2009/04/23 11:33:13.2      -4   -168      8    169    170 181.4   2.8  34230  290.77 0855.13
2009/04/23 11:33:13.3     -20   -120    160    122    201 189.8  58.7  34226  290.70 0855.13
2009/04/23 11:33:13.4      -8   -150    131    151    199 183.1  45.6  34222  290.64 0855.14
2009/04/23 11:33:13.5       9   -197    104    198    223 177.3  30.1  34222  290.64 0855.14
2009/04/23 11:33:13.6      42   -156    145    162    217 164.9  46.6  34220  290.58 0855.14
2009/04/23 11:33:13.7       8    -93    142     94    170 174.7  63.6  34232  290.81 0855.14
2009/04/23 11:33:13.8       0    -50    105     51    116 180.0  72.8  34222  290.64 0855.14
2009/04/23 11:33:13.9      62   -151    116    164    200 157.5  38.8  34230  290.77 0855.14
2009/04/23 11:33:14.0      78    -82    129    114    172 136.7  54.0  34224  290.67 0855.14
2009/04/23 11:33:14.1      -6    -66    139     67    154 185.3  72.8  34230  290.75 0855.14
2009/04/23 11:33:14.2      30   -276    190    278    336 173.8  37.7  34210  290.41 0855.14
2009/04/23 11:33:14.3      66   -320    183    327    374 168.3  31.6  34208  290.38 0855.14
2009/04/23 11:33:14.4      25   -332    239    333    409 175.7  39.3  34208  290.40 0855.14
2009/04/23 11:33:14.5      87   -372    108    383    399 166.8  15.8  34208  290.40 0855.14
2009/04/23 11:33:14.6      17   -274    168    275    322 176.4  34.3  34212  290.44 0855.14
2009/04/23 11:33:14.7      61   -253    153    261    302 166.4  33.4  34210  290.42 0855.14
2009/04/23 11:33:14.8      21   -310    126    311    335 176.0  23.2  34210  290.41 0855.14
2009/04/23 11:33:14.9     -21   -278    167    279    325 184.4  33.8  34212  290.46 0855.14
2009/04/23 11:33:15.0     -17   -268    179    269    323 183.6  36.7  34218  290.54 0855.14
2009/04/23 11:33:15.1     -16   -248    157    249    294 183.8  35.5  34214  290.48 0855.14
2009/04/23 11:33:15.2     -53   -283    217    289    361 190.7  40.8  34210  290.43 0855.14
2009/04/23 11:33:15.3     -82   -241    186    255    315 198.9  39.8  34214  290.48 0855.14
2009/04/23 11:33:15.4     -79   -218    199    232    305 200.0  44.9  34212  290.46 0855.14
2009/04/23 11:33:15.5    -128   -206    124    243    272 211.9  29.2  34214  290.48 0855.14
2009/04/23 11:33:15.6    -113   -201     81    231    245 209.4  19.4  34212  290.44 0855.14
2009/04/23 11:33:15.7    -110   -199     80    228    241 209.0  20.0  34212  290.46 0855.14
2009/04/23 11:33:15.8     -74   -218    110    231    255 198.9  27.2  34214  290.48 0855.14
2009/04/23 11:33:15.9     -45   -221    105    226    249 191.6  27.0  34212  290.46 0855.14
2009/04/23 11:33:16.0     -83   -265    146    278    314 197.4  30.0  34214  290.49 0855.14
2009/04/23 11:33:16.1     -33   -193    131    196    235 189.8  37.3  34212  290.47 0855.14
2009/04/23 11:33:16.2    -109   -213    136    240    275 207.1  32.1  34216  290.53 0855.14
2009/04/23 11:33:16.3     -81   -206    150    222    267 201.4  37.3  34212  290.46 0855.14
2009/04/23 11:33:16.4     -16   -139    191    140    236 186.7  60.5  34224  290.65 0855.14
2009/04/23 11:33:16.5     -93   -146    135    174    220 212.5  41.7  34218  290.57 0855.14
2009/04/23 11:33:16.6     -88   -119    179    149    232 216.5  56.3  34224  290.65 0855.14
2009/04/23 11:33:16.7     -95    -74    150    121    192 232.2  56.6  34222  290.64 0855.14
2009/04/23 11:33:16.8     -18    -85    166     87    187 192.0  70.6  34236  290.86 0855.14
2009/04/23 11:33:16.9       4   -129    107    130    168 178.2  43.7  34216  290.53 0855.14
2009/04/23 11:33:17.0     134    -68    143    151    207 117.0  48.5  34220  290.58 0855.14
2009/04/23 11:33:17.1       7    -80    125     81    148 174.7  64.6  34224  290.67 0855.14
2009/04/23 11:33:17.2     -28    -72     98     78    125 201.8  57.5  34224  290.67 0855.14
2009/04/23 11:33:17.3     -50   -169    149    177    231 196.5  44.1  34214  290.48 0855.14
2009/04/23 11:33:17.4       0   -203    141    204    247 180.2  37.8  34216  290.51 0855.19
2009/04/23 11:33:17.5      24   -187    158    189    246 172.7  44.1  34214  290.50 0855.19
2009/04/23 11:33:17.6     -50   -158    135    166    213 197.8  43.5  34212  290.47 0855.19
2009/04/23 11:33:17.7     -69   -162    180    177    252 203.2  50.2  34222  290.62 0855.19
2009/04/23 11:33:17.8     -83   -166    192    186    267 206.7  51.2  34220  290.58 0855.19
2009/04/23 11:33:17.9     -71   -167    142    182    230 203.2  42.0  34218  290.55 0855.19
2009/04/23 11:33:18.0     -66   -179     99    191    215 200.3  29.3  34218  290.55 0855.19
2009/04/23 11:33:18.1     -46   -181    171    187    253 194.5  47.7  34222  290.63 0855.19
2009/04/23 11:33:18.2      -2   -181    152    182    237 180.9  44.3  34224  290.65 0855.19
2009/04/23 11:33:18.3      -2   -174     96    175    199 180.9  31.3  34224  290.65 0855.19
2009/04/23 11:33:18.4     -42   -156    117    162    199 195.1  39.5  34222  290.62 0855.19
2009/04/23 11:33:18.5      -9   -125     90    126    154 184.4  39.5  34224  290.65 0855.19
2009/04/23 11:33:18.6     -22   -144    113    146    184 188.9  41.7  34232  290.79 0855.19
2009/04/23 11:33:18.7     -31   -154     84    158    178 191.6  30.6  34228  290.72 0855.19
2009/04/23 11:33:18.8      12    -59     86     61    105 168.5  61.1  34242  290.96 0855.19
2009/04/23 11:33:18.9      16    -34    105     38    111 154.6  80.2  34246  291.03 0855.19
2009/04/23 11:33:19.0     -53    -62     20     82     85 220.5  14.3  34234  290.82 0855.19
2009/04/23 11:33:19.1     -41    -37     55     56     78 227.8  52.0  34252  291.15 0855.19
2009/04/23 11:33:19.2     -55    -99     56    114    127 209.4  28.2  34238  290.89 0855.19
2009/04/23 11:33:19.3     -66    -53     71     85    110 231.4  43.8  34250  291.09 0855.19
2009/04/23 11:33:19.4     -12    -49    131     51    140 194.3  77.1  34260  291.28 0855.22
2009/04/23 11:33:19.5     -24    -75    152     79    171 198.3  70.6  34238  290.89 0855.22
2009/04/23 11:33:19.6      -4     14     93     15     94 341.5  90.0  34240  290.94 0855.22
2009/04/23 11:33:19.7     -25    -91    119     95    152 195.6  56.4  34218  290.55 0855.22
2009/04/23 11:33:19.8      -9   -145    149    146    208 183.6  50.4  34212  290.47 0855.22
2009/04/23 11:33:19.9     -61   -202    194    212    287 196.9  47.5  34252  291.14 0855.22
2009/04/23 11:33:20.0    -100   -187    115    213    242 208.3  30.8  34262  291.29 0855.22
2009/04/23 11:33:20.1     -46   -271     64    276    284 189.8  13.1  34230  290.76 0855.22
2009/04/23 11:33:20.2     -58   -242     10    249    250 193.6   2.3  34234  290.83 0855.22
2009/04/23 11:33:20.3      -3   -203     43    204    209 181.1  12.0  34218  290.57 0855.22
2009/04/23 11:33:20.4      57   -205     78    213    226 164.4  21.0  34214  290.50 0855.22
2009/04/23 11:33:20.5      52   -133     36    143    148 158.6  14.3  34230  290.75 0855.22
2009/04/23 11:33:20.6     -97    -93    -12    135    136 226.4  -5.2  34224  290.65 0855.22
2009/04/23 11:33:20.7    -126   -149    -32    196    199 220.3  -9.3  34238  290.89 0855.22
2009/04/23 11:33:20.8    -164   -155     42    226    230 226.7  10.6  34216  290.53 0855.22
2009/04/23 11:33:20.9    -146   -173     -5    227    228 220.3  -1.3  34228  290.72 0855.22
2009/04/23 11:33:21.0     -76   -106     69    131    148 216.0  30.3  34266  291.37 0855.22
2009/04/23 11:33:21.1     -89   -123    133    152    201 216.0  45.8  34248  291.08 0855.22
2009/04/23 11:33:21.2     -97   -207    157    229    277 205.3  37.6  34228  290.71 0855.22
2009/04/23 11:33:21.3    -116   -140    143    183    232 219.6  42.0  34232  290.81 0855.22
2009/04/23 11:33:21.4     -66   -139    122    155    197 205.5  42.2  34252  291.15 0855.26
2009/04/23 11:33:21.5     -46    -95    108    106    151 206.3  50.1  34272  291.47 0855.26
2009/04/23 11:33:21.6     -51   -172    134    180    224 196.5  40.1  34254  291.18 0855.26
2009/04/23 11:33:21.7     -66    -96    110    117    160 214.7  48.2  34260  291.26 0855.26
2009/04/23 11:33:21.8     -83   -184     77    202    216 204.3  22.0  34222  290.64 0855.26
2009/04/23 11:33:21.9     -82   -153     92    174    196 208.1  30.1  34224  290.67 0855.26
2009/04/23 11:33:22.0     -91   -144     60    171    182 212.5  19.4  34236  290.86 0855.26
2009/04/23 11:33:22.1    -111   -174    111    207    234 212.6  30.3  34240  290.94 0855.26
2009/04/23 11:33:22.2    -100   -156     70    186    198 212.6  21.5  34234  290.82 0855.26
2009/04/23 11:33:22.3     -78   -153     44    172    178 207.2  14.5  34228  290.74 0855.26
2009/04/23 11:33:22.4     -68   -144     42    160    166 205.2  15.0  34218  290.55 0855.26
2009/04/23 11:33:22.5    -132   -184     41    227    231 215.8  10.3  34212  290.47 0855.26
2009/04/23 11:33:22.6     -84   -151     51    173    181 209.2  16.6  34214  290.48 0855.26
2009/04/23 11:33:22.7     -80   -184     69    201    213 203.6  18.9  34220  290.58 0855.26
2009/04/23 11:33:22.8     -89   -234     86    251    266 200.9  18.9  34224  290.66 0855.26
2009/04/23 11:33:22.9     -86   -232     34    248    251 200.5   7.8  34228  290.71 0855.26
2009/04/23 11:33:23.0      57   -279     61    285    292 168.4  12.2  34218  290.54 0855.26
2009/04/23 11:33:23.1     113   -233     78    259    271 154.1  16.8  34216  290.53 0855.26
2009/04/23 11:33:23.2      56   -276    -25    282    284 168.5  -5.2  34216  290.51 0855.26
2009/04/23 11:33:23.3       3   -275    -41    276    280 179.3  -8.6  34224  290.65 0855.24
2009/04/23 11:33:23.4     -18   -262    -30    263    265 184.0  -6.7  34222  290.63 0855.24
2009/04/23 11:33:23.5     -32   -295      4    297    298 186.3   0.8  34218  290.54 0855.24
2009/04/23 11:33:23.6      53   -265     -5    271    272 168.5  -1.3  34216  290.53 0855.24
2009/04/23 11:33:23.7      13   -293     45    294    298 177.3   8.8  34214  290.48 0855.24
2009/04/23 11:33:23.8       9   -292    100    293    310 178.2  18.9  34216  290.53 0855.24
2009/04/23 11:33:23.9     -31   -266     83    268    281 186.7  17.3  34220  290.58 0855.24
2009/04/23 11:33:24.0       3   -227    123    228    259 179.1  30.8  34226  290.70 0855.24
2009/04/23 11:33:24.1     -25   -238    116    240    266 186.2  27.3  34226  290.68 0855.24
2009/04/23 11:33:24.2     -96   -206    137    228    265 204.9  34.0  34226  290.68 0855.24
2009/04/23 11:33:24.3     -77   -154    144    173    225 206.7  43.8  34226  290.69 0855.24
2009/04/23 11:33:24.4    -167    -76     19    184    186 245.4   6.1  34258  291.23 0855.24
2009/04/23 11:33:24.5    -205    -83     76    222    235 247.8  18.9  34322  292.32 0855.24
2009/04/23 11:33:24.6    -166    -93    101    191    216 240.7  30.1  34268  291.42 0855.24
2009/04/23 11:33:24.7     -40   -237    189    241    306 189.8  42.0  34216  290.53 0855.24
2009/04/23 11:33:24.8     -65   -230    209    240    318 195.8  45.5  34210  290.42 0855.24
2009/04/23 11:33:24.9    -113   -179    160    212    265 212.3  40.9  34222  290.61 0855.24
2009/04/23 11:33:25.0    -111   -188     84    219    234 210.5  22.0  34222  290.62 0855.24
2009/04/23 11:33:25.1    -100   -181     44    208    213 209.0  12.0  34220  290.58 0855.24
2009/04/23 11:33:25.2     -34   -103    123    109    164 198.3  53.7  34240  290.94 0855.24
2009/04/23 11:33:25.3     -80     13    -10     82     83 279.2  -7.2  34252  291.15 0855.25
2009/04/23 11:33:25.4      27    102    -38    106    112  15.1 -24.4  34248  291.06 0855.25
2009/04/23 11:33:25.5     -58     27     77     65    100 295.2  55.8  34254  291.16 0855.25
2009/04/23 11:33:25.6    -221     20     77    222    236 275.2  19.2  34258  291.25 0855.25
2009/04/23 11:33:25.7    -216      0    148    217    262 269.9  37.6  34274  291.50 0855.25
2009/04/23 11:33:25.8    -362    -91    101    374    388 255.9  15.2  34268  291.42 0855.25
2009/04/23 11:33:25.9    -445    -18      6    446    447 267.6   0.9  34290  291.79 0855.25
2009/04/23 11:33:26.0    -443   -119     64    459    464 254.9   8.0  34242  290.95 0855.25
2009/04/23 11:33:26.1    -372    -58    176    377    416 261.1  26.9  34260  291.28 0855.25
2009/04/23 11:33:26.2    -342   -131     53    367    371 249.0   8.2  34270  291.44 0855.25
2009/04/23 11:33:26.3    -175   -109    192    207    282 238.0  47.9  34232  290.78 0855.25
2009/04/23 11:33:26.4    -229    -32    198    232    305 262.0  44.8  34248  291.05 0855.25
2009/04/23 11:33:26.5    -198     40    140    202    245 281.5  38.0  34244  291.00 0855.25
2009/04/23 11:33:26.6    -200     29     75    203    216 278.4  21.3  34254  291.16 0855.25
2009/04/23 11:33:26.7    -163     76      0    180    181 295.1   0.2  34262  291.30 0855.25
2009/04/23 11:33:26.8    -147    124     52    193    201 310.2  15.2  34254  291.18 0855.25
2009/04/23 11:33:26.9     -65    152     59    166    176 336.8  20.0  34232  290.81 0855.25
2009/04/23 11:33:27.0     -74    188    -33    203    206 338.6  -9.3  34240  290.94 0855.25
2009/04/23 11:33:27.1     -98    165     14    193    194 329.3   4.2  34232  290.81 0855.25
2009/04/23 11:33:27.2    -107    221     19    246    247 334.1   4.6  34236  290.87 0855.25
2009/04/23 11:33:27.3      14    251     44    252    256   3.4  10.1  34234  290.83 0855.25
2009/04/23 11:33:27.4      10    238     64    239    248   2.5  15.2  34240  290.93 0855.25
2009/04/23 11:33:27.5     -22    134    137    136    193 350.7  49.9  34252  291.13 0855.25
2009/04/23 11:33:27.6     -34    114     28    120    124 343.1  13.2  34240  290.92 0855.25
2009/04/23 11:33:27.8     -70    120     -5    139    140 329.7  -2.2  34236  290.87 0855.25
2009/04/23 11:33:27.9    -153     80     39    173    178 297.8  12.9  34232  290.81 0855.25
2009/04/23 11:33:28.0     -78    -23   -102     82    130 253.2 -60.8  34244  290.99 0855.25
2009/04/23 11:33:28.1      41    -78    -73     89    115 151.9 -48.1  34246  291.03 0855.25
2009/04/23 11:33:28.2     -79      0     55     80     97 270.0  37.6  34250  291.09 0855.25
2009/04/23 11:33:28.3    -264   -149    101    304    321 240.5  18.4  34262  291.31 0855.25
2009/04/23 11:33:28.4    -258   -198    132    326    351 232.5  23.2  34248  291.08 0855.26
2009/04/23 11:33:28.5    -324   -244    195    406    450 233.0  27.3  34248  291.07 0855.26
2009/04/23 11:33:28.6    -320   -222    139    390    415 235.2  19.6  34262  291.29 0855.26
2009/04/23 11:33:28.7    -365    -99     68    379    386 254.8  10.2  34254  291.18 0855.26
2009/04/23 11:33:28.8      -1   -100    148    101    179 180.9  62.6  34266  291.37 0855.26
2009/04/23 11:33:28.9      38    -38    123     54    134 135.0  75.0  34266  291.38 0855.26
2009/04/23 11:33:29.0       3     34     83     35     90   6.2  75.5  34266  291.38 0855.26
2009/04/23 11:33:29.1      13     21     68     26     72  32.5  78.2  34258  291.25 0855.26
2009/04/23 11:33:29.2      35     34     89     49    101  45.9  68.8  34262  291.32 0855.26
2009/04/23 11:33:29.3      13    115     82    116    142   6.7  39.5  34258  291.25 0855.26
2009/04/23 11:33:29.4     -13    169     14    170    171 355.5   4.9  34256  291.21 0855.26
2009/04/23 11:33:29.5    -103    215    -73    239    249 334.4 -22.1  34244  290.99 0855.26
2009/04/23 11:33:29.6    -130    244    -75    277    288 332.0 -15.2  34244  290.99 0855.26
2009/04/23 11:33:29.7    -157    286     -9    327    328 331.3  -1.7  34240  290.93 0855.26
2009/04/23 11:33:29.8    -158    204    -39    259    262 322.2  -8.6  34240  290.92 0855.26
2009/04/23 11:33:29.9    -123    154    -39    198    202 321.5 -11.3  34240  290.92 0855.26
2009/04/23 11:33:30.0      14    130     25    131    134   6.2  11.0  34248  291.08 0855.26
2009/04/23 11:33:30.1     -17    122     22    124    126 351.9  10.1  34246  291.03 0855.26
2009/04/23 11:33:30.2       2    155     37    156    161   1.0  13.5  34238  290.89 0855.26
2009/04/23 11:33:30.3      -6     78     55     79     96 355.6  38.0  34240  290.94 0855.26
2009/04/23 11:33:30.4     193     70     57    206    214  70.0  15.6  34226  290.70 0855.24
2009/04/23 11:33:30.5     258     89    112    274    296  70.9  23.4  34206  290.36 0855.24
2009/04/23 11:33:30.6     162    204    330    261    420  38.5  57.7  34198  290.20 0855.24
2009/04/23 11:33:30.7      99    240    173    260    312  22.5  36.7  34200  290.24 0855.24
2009/04/23 11:33:30.8      80    125     91    149    174  32.6  34.8  34212  290.47 0855.24
2009/04/23 11:33:30.9      25    -20    172     33    175 129.5  89.8  34224  290.67 0855.24
2009/04/23 11:33:31.0    -171    -83    247    191    312 244.0  58.6  34238  290.88 0855.24
2009/04/23 11:33:31.1    -199    -70    173    212    273 250.5  43.5  34232  290.80 0855.24
2009/04/23 11:33:31.2      15     16    152     23    153  43.2  90.0  34244  290.99 0855.24
2009/04/23 11:33:31.3     -32     33    132     46    139 315.9  80.7  34246  291.04 0855.24
2009/04/23 11:33:31.4    -121      5    157    122    198 272.6  58.5  34246  291.04 0855.24
2009/04/23 11:33:31.5     -83      0    180     84    198 270.4  73.2  34252  291.13 0855.24
2009/04/23 11:33:31.6     -53     -6    173     54    181 263.0  82.0  34250  291.11 0855.24
2009/04/23 11:33:31.7      20     77    108     80    134  15.1  60.0  34244  291.01 0855.24
2009/04/23 11:33:31.8      12    234    139    235    273   3.1  33.5  34200  290.26 0855.24
2009/04/23 11:33:31.9    -251    204    310    324    448 309.2  48.7  34208  290.39 0855.24
2009/04/23 11:33:32.0    -306    126    178    332    376 292.4  30.7  34202  290.30 0855.24
2009/04/23 11:33:32.1    -262    276    266    381    464 316.5  38.4  34194  290.16 0855.24
2009/04/23 11:33:32.2    -270    184    208    327    387 304.3  35.5  34204  290.33 0855.24
2009/04/23 11:33:32.3    -356     56    271    361    451 279.0  40.7  34202  290.29 0855.24
2009/04/23 11:33:32.4    -173    -50    230    181    292 253.8  57.9  34226  290.68 0855.21
2009/04/23 11:33:32.5     -60    -85    220    105    243 215.2  72.8  34242  290.96 0855.21
2009/04/23 11:33:32.6     -36   -261    203    264    333 188.0  41.4  34234  290.83 0855.21
2009/04/23 11:33:32.7     -66   -369    195    375    422 190.2  29.5  34236  290.85 0855.21
2009/04/23 11:33:32.8      38   -456    164    458    486 175.1  20.4  34238  290.88 0855.21
2009/04/23 11:33:32.9     -44   -445    199    448    490 185.7  25.6  34232  290.79 0855.21
2009/04/23 11:33:33.0     -24   -484    210    485    528 182.9  25.0  34242  290.98 0855.21
2009/04/23 11:33:33.1    -255   -340    149    426    452 216.9  19.3  34236  290.85 0855.21
2009/04/23 11:33:33.2    -253   -233    -13    345    346 227.3  -2.3  34250  291.10 0855.21
2009/04/23 11:33:33.3    -211   -371   -126    428    446 209.7 -21.5  34240  290.92 0855.21
2009/04/23 11:33:33.4    -207   -355   -137    412    434 210.3 -23.7  34192  290.12 0855.21
2009/04/23 11:33:33.5    -253   -334     -8    420    421 217.1  -1.2  34260  291.28 0855.21
2009/04/23 11:33:33.6    -347   -526    -61    631    635 213.4  -5.6  34212  290.47 0855.21
2009/04/23 11:33:33.7    -312   -640   -150    713    729 206.0 -11.9  34162  289.62 0855.21
2009/04/23 11:33:33.8    -129   -720   -209    732    761 190.2 -20.7  34170  289.75 0855.21
2009/04/23 11:33:33.9    -171   -646   -239    669    710 194.9 -25.0  34162  289.62 0855.21
2009/04/23 11:33:34.0      28   -626   -179    627    652 177.4 -20.7  34170  289.74 0855.21
2009/04/23 11:33:34.1     -75   -569   -106    574    584 187.6 -10.5  34174  289.80 0855.21
2009/04/23 11:33:34.2       9   -537    -78    538    544 179.0  -8.3  34202  290.28 0855.21
2009/04/23 11:33:34.3    -239   -491     61    547    551 206.0   6.4  34222  290.62 0855.21
2009/04/23 11:33:34.4      58   -586    -41    589    591 174.3  -4.0  34204  290.31 0855.15
2009/04/23 11:33:34.5     127   -601      7    615    616 168.0   0.7  34188  290.06 0855.15
2009/04/23 11:33:34.6     112   -659     87    669    675 170.3   7.4  34174  289.80 0855.15
2009/04/23 11:33:34.7      48   -658      1    660    661 175.8   0.1  34162  289.60 0855.15
2009/04/23 11:33:34.8       5   -638     -4    639    640 179.5  -0.4  34174  289.82 0855.15
2009/04/23 11:33:34.9      15   -706     65    707    711 178.7   5.3  34196  290.18 0855.15
2009/04/23 11:33:35.0     -75   -650     93    655    662 186.6   8.1  34202  290.27 0855.15
2009/04/23 11:33:35.1      57   -757    118    759    769 175.6   8.9  34196  290.18 0855.15
2009/04/23 11:33:35.2       8   -724    100    725    732 179.3   7.9  34188  290.03 0855.15
2009/04/23 11:33:35.3      12   -663     79    664    669 178.9   6.8  34180  289.90 0855.15
2009/04/23 11:33:35.4       8   -817    222    818    848 179.4  15.2  34196  290.17 0855.15
2009/04/23 11:33:35.5    -152   -778     93    793    799 191.1   6.7  34218  290.54 0855.15
2009/04/23 11:33:35.6    -302   -643    -52    711    713 205.2  -4.2  34202  290.27 0855.15
2009/04/23 11:33:35.7    -299   -606     76    676    681 206.3   6.5  34206  290.36 0855.15
2009/04/23 11:33:35.8    -255   -610     49    662    664 202.7   4.2  34190  290.07 0855.15
2009/04/23 11:33:35.9    -155   -546     27    568    569 195.9   2.8  34182  289.95 0855.15
2009/04/23 11:33:36.0     -99   -505     41    515    517 191.1   4.6  34182  289.96 0855.15
2009/04/23 11:33:36.1     -68   -558     17    563    564 187.0   1.8  34180  289.92 0855.15
2009/04/23 11:33:36.2    -192   -612    -33    642    643 197.4  -3.0  34168  289.72 0855.15
2009/04/23 11:33:36.3    -106   -677    -20    686    687 188.9  -1.7  34166  289.68 0855.15
2009/04/23 11:33:36.4     -13   -678    -26    679    680 181.1  -2.2  34160  289.56 0855.11
2009/04/23 11:33:36.5      77   -682    -80    687    692 173.5  -6.7  34166  289.66 0855.11
2009/04/23 11:33:36.6      19   -663    -50    664    666 178.3  -4.4  34170  289.75 0855.11
2009/04/23 11:33:36.7       5   -575    -94    576    584 179.4  -9.3  34184  289.97 0855.11
2009/04/23 11:33:36.8    -358   -618     57    715    718 210.1   4.6  34204  290.32 0855.11
2009/04/23 11:33:36.9    -356   -618    106    714    722 209.9   8.5  34192  290.10 0855.11
2009/04/23 11:33:37.0    -216   -641    -54    677    680 198.7  -4.6  34176  289.83 0855.11
2009/04/23 11:33:37.1    -249   -651    -85    698    704 200.9  -7.0  34178  289.88 0855.11
2009/04/23 11:33:37.2    -268   -534   -131    598    613 206.7 -12.4  34174  289.81 0855.11
2009/04/23 11:33:37.3    -332   -558   -186    650    677 210.8 -16.0  34174  289.82 0855.11
2009/04/23 11:33:37.4    -258   -522   -129    583    598 206.3 -12.5  34162  289.61 0855.11
2009/04/23 11:33:37.5    -317   -415   -187    523    556 217.4 -19.7  34176  289.84 0855.11
2009/04/23 11:33:37.6    -274   -405   -148    489    510 214.1 -21.7  34176  289.84 0855.11
2009/04/23 11:33:37.7    -195   -306   -162    364    398 212.5 -30.1  34176  289.84 0855.11
2009/04/23 11:33:37.8    -136   -550   -206    567    603 193.9 -25.3  34176  289.85 0855.11
2009/04/23 11:33:37.9      14   -616   -243    617    663 178.6 -27.1  34174  289.81 0855.11
2009/04/23 11:33:38.0     -19   -618   -289    619    683 181.8 -31.4  34174  289.82 0855.11
2009/04/23 11:33:38.1      75   -646   -144    651    667 173.3 -12.5  34172  289.78 0855.11
2009/04/23 11:33:38.2     110   -479   -208    492    534 167.0 -28.7  34170  289.75 0855.11
2009/04/23 11:33:38.3     255   -374   -158    453    480 145.7 -19.3  34172  289.78 0855.11
2009/04/23 11:33:38.4     130   -337   -158    362    394 158.8 -29.5  34172  289.77 0855.11
2009/04/23 11:33:38.5       2   -383    -49    384    388 179.7  -7.3  34172  289.79 0855.11
2009/04/23 11:33:38.6     -24   -307    -88    309    322 184.5 -16.0  34172  289.76 0855.11
2009/04/23 11:33:38.7      -5   -380   -135    381    405 180.9 -19.6  34174  289.81 0855.11
2009/04/23 11:33:38.8      66   -425   -120    431    447 171.1 -20.2  34174  289.82 0855.11
2009/04/23 11:33:38.9      -4   -405   -178    406    443 180.6 -29.6  34176  289.83 0855.11
2009/04/23 11:33:39.0     -17   -388   -153    389    418 182.6 -27.1  34180  289.92 0855.11
2009/04/23 11:33:39.1     -50   -281   -102    286    303 190.2 -24.6  34178  289.88 0855.11
2009/04/23 11:33:39.2      15   -268    -84    269    281 176.6 -22.5  34174  289.80 0855.11
2009/04/23 11:33:39.3       4   -267    -80    268    280 179.1 -16.6  34178  289.88 0855.11
2009/04/23 11:33:39.4     104   -239    -71    261    271 156.4 -15.2  34180  289.92 0855.11
2009/04/23 11:33:39.5      64   -269    -91    277    292 166.6 -18.3  34178  289.88 0855.11
2009/04/23 11:33:39.6      19   -220    -76    221    234 174.9 -19.1  34180  289.92 0855.11
2009/04/23 11:33:39.7     -33   -192    -91    195    215 189.8 -31.5  34182  289.96 0855.11
2009/04/23 11:33:39.8      10   -161   -131    162    208 176.4 -47.7  34186  290.02 0855.11
2009/04/23 11:33:39.9      30   -129   -136    133    190 166.6 -54.8  34182  289.94 0855.11
2009/04/23 11:33:40.0     -53    -83    -71     99    121 212.5 -43.9  34186  290.01 0855.11
2009/04/23 11:33:40.1     -39   -115   -112    122    165 198.7 -52.1  34186  290.01 0855.11
2009/04/23 11:33:40.2     -28   -205    -96    208    229 188.0 -31.4  34180  289.92 0855.11
2009/04/23 11:33:40.3      38   -282    -25    285    287 172.2  -5.2  34180  289.92 0855.11
2009/04/23 11:33:40.4      24   -355    -86    356    367 176.0 -13.7  34180  289.91 0855.11
2009/04/23 11:33:40.5     -38   -399    -33    401    403 185.6  -4.8  34176  289.83 0855.11
2009/04/23 11:33:40.6      14   -359     40    360    363 177.8   6.4  34182  289.93 0855.11
2009/04/23 11:33:40.7      59   -447    -52    451    454 172.4  -6.6  34172  289.77 0855.11
2009/04/23 11:33:40.8      26   -340    -71    342    350 175.5 -11.8  34172  289.77 0855.11
2009/04/23 11:33:40.9     209   -197    -26    288    290 133.2  -5.2  34182  289.95 0855.11
2009/04/23 11:33:41.0     100   -413   -149    426    451 166.3 -24.4  34180  289.92 0855.11
2009/04/23 11:33:41.1     -84   -423   -276    432    512 191.3 -40.0  34186  290.01 0855.11
2009/04/23 11:33:41.2    -105   -277   -213    297    365 200.9 -43.6  34184  289.98 0855.11
2009/04/23 11:33:41.3    -172   -249    -11    303    304 214.7  -2.2  34180  289.92 0855.11
2009/04/23 11:33:41.4      37   -352     28    355    357 173.9   4.6  34182  289.94 0855.11
2009/04/23 11:33:41.5      46   -418     31    421    423 173.7   4.3  34178  289.87 0855.11
2009/04/23 11:33:41.6     182   -341    156    387    417 151.9  23.1  34186  290.00 0855.11
2009/04/23 11:33:41.7     -82   -171    -10    190    191 205.6  -3.2  34184  289.97 0855.11
2009/04/23 11:33:41.8      14   -299   -125    300    325 177.3 -28.3  34182  289.93 0855.11
2009/04/23 11:33:41.9      75   -135   -166    155    227 151.0 -56.6  34188  290.04 0855.11
2009/04/23 11:33:42.0     140   -161   -118    214    244 138.8 -35.7  34192  290.10 0855.11
2009/04/23 11:33:42.1      78   -236     37    249    252 161.5   8.5  34186  290.02 0855.11
2009/04/23 11:33:42.2     130   -172      3    216    217 142.8   1.0  34178  289.89 0855.11
2009/04/23 11:33:42.3      49   -242    245    247    347 168.5  50.0  34188  290.05 0855.11
2009/04/23 11:33:42.4     231   -351    227    421    478 146.7  30.7  34188  290.05 0855.08
2009/04/23 11:33:42.5     199   -312    272    371    460 147.5  39.7  34184  289.97 0855.08
2009/04/23 11:33:42.6     158   -203    239    258    351 142.2  47.8  34190  290.07 0855.08
2009/04/23 11:33:42.7     241   -236    215    338    400 134.3  35.5  34186  290.01 0855.08
2009/04/23 11:33:42.8      98   -333    229    348    416 163.6  36.5  34182  289.96 0855.08
2009/04/23 11:33:42.9     147   -290    -10    326    327 153.2  -1.9  34184  289.98 0855.08
2009/04/23 11:33:43.0      34   -193    -37    197    201 170.0 -10.9  34184  289.97 0855.08
2009/04/23 11:33:43.1     143   -209   -175    254    308 145.5 -42.0  34196  290.17 0855.08
2009/04/23 11:33:43.2     167    -54   -125    176    215 107.9 -43.7  34196  290.18 0855.08
2009/04/23 11:33:43.3     144    -79   -141    165    217 118.8 -49.5  34194  290.14 0855.08
2009/04/23 11:33:43.4      -4   -157   -114    158    194 181.8 -43.9  34198  290.21 0855.08
2009/04/23 11:33:43.5      48   -117    -81    127    150 157.7 -40.0  34196  290.18 0855.08
2009/04/23 11:33:43.6      78   -131   -100    153    182 149.2 -40.4  34200  290.26 0855.08
2009/04/23 11:33:43.7     126    -21    -72    128    146  99.6 -35.8  34206  290.36 0855.08
2009/04/23 11:33:43.8      84     21      5     87     88  75.4   3.3  34200  290.26 0855.08
2009/04/23 11:33:43.9      84     43      9     95     96  62.9   5.4  34202  290.28 0855.08
2009/04/23 11:33:44.0      48     21     67     53     85  66.5  57.5  34204  290.33 0855.08
2009/04/23 11:33:44.1       3     34     83     35     90   6.2  75.5  34218  290.57 0855.08
2009/04/23 11:33:44.2      -1    -12     61     13     62 186.2  89.0  34216  290.52 0855.08
2009/04/23 11:33:44.3     -43    -50     72     67     98 220.5  52.2  34214  290.48 0855.08
2009/04/23 11:33:44.4      25    -17     46     31     55 124.2  64.6  34222  290.64 0855.07
2009/04/23 11:33:44.5      40    -26     44     48     65 123.3  47.9  34220  290.58 0855.07
2009/04/23 11:33:44.6      64    -26     40     70     80 111.8  32.4  34214  290.48 0855.07
2009/04/23 11:33:44.7      24    -38     27     46     53 147.5  33.5  34216  290.52 0855.07
2009/04/23 11:33:44.8     -19    -91     47     94    105 192.0  28.2  34212  290.47 0855.07
2009/04/23 11:33:44.9      15   -104     72    106    128 171.5  37.6  34214  290.48 0855.07
2009/04/23 11:33:45.0      32    -78     88     85    122 157.3  50.7  34220  290.60 0855.07
2009/04/23 11:33:45.1      12   -157    124    158    200 175.6  42.2  34204  290.33 0855.07
2009/04/23 11:33:45.2      89   -151    140    176    224 149.5  43.0  34198  290.21 0855.07
2009/04/23 11:33:45.3     160   -153    137    222    260 133.6  34.8  34202  290.29 0855.07
2009/04/23 11:33:45.4      75   -155      9    173    174 154.1   3.1  34206  290.35 0855.07
2009/04/23 11:33:45.5     125   -409    -12    428    429 163.0  -1.7  34196  290.19 0855.07
2009/04/23 11:33:45.6      98   -373    -60    386    391 165.2  -8.9  34192  290.10 0855.07
2009/04/23 11:33:45.7       2   -321     32    322    324 179.5   5.8  34192  290.10 0855.07
2009/04/23 11:33:45.8     200   -328    114    385    402 148.7  16.5  34190  290.08 0855.07
2009/04/23 11:33:45.9     253   -435    -80    504    511 149.8  -9.1  34196  290.17 0855.07
2009/04/23 11:33:46.0     347   -381    -29    516    517 137.7  -3.3  34186  290.00 0855.07
2009/04/23 11:33:46.1     279   -379    -30    471    472 143.6  -3.7  34198  290.23 0855.07
2009/04/23 11:33:46.2     207   -449    -27    495    496 155.2  -3.2  34192  290.10 0855.07
2009/04/23 11:33:46.3      13   -429    149    430    456 178.2  19.2  34196  290.19 0855.06
2009/04/23 11:33:46.4      82   -396     30    405    407 168.2   4.2  34198  290.21 0855.06
2009/04/23 11:33:46.5      70   -316     69    324    332 167.5  12.0  34200  290.25 0855.06
2009/04/23 11:33:46.6      26   -294     69    296    305 174.9  13.2  34198  290.22 0855.06
2009/04/23 11:33:46.7      13   -279    101    280    297 177.3  20.9  34200  290.24 0855.06
2009/04/23 11:33:46.8      36   -288    138    291    322 172.8  27.2  34206  290.36 0855.06
2009/04/23 11:33:46.9     -32   -292    126    294    319 186.3  24.6  34204  290.32 0855.06
2009/04/23 11:33:47.0    -124   -333    110    356    373 200.4  17.3  34196  290.18 0855.06
2009/04/23 11:33:47.1    -127   -343    124    366    387 200.4  18.8  34198  290.23 0855.06
2009/04/23 11:33:47.2    -144   -360    102    389    403 201.9  14.7  34200  290.25 0855.06
2009/04/23 11:33:47.3    -204   -380     98    432    444 208.2  12.8  34192  290.12 0855.06
2009/04/23 11:33:47.4    -206   -374    100    427    439 208.9  13.2  34190  290.07 0855.06
2009/04/23 11:33:47.5    -288   -418   -136    508    526 214.6 -15.0  34180  289.90 0855.06
2009/04/23 11:33:47.6    -367   -439    -98    573    582 219.9  -9.7  34170  289.73 0855.06
2009/04/23 11:33:47.7    -376   -440    -77    579    585 220.5  -7.6  34174  289.81 0855.06
2009/04/23 11:33:47.8    -317   -502    -99    594    603 212.3  -9.5  34144  289.29 0855.06
2009/04/23 11:33:47.9    -328   -483   -126    585    599 214.2 -12.2  34118  288.85 0855.06
2009/04/23 11:33:48.0    -413   -405   -198    579    613 225.6 -18.9  34120  288.88 0855.06
2009/04/23 11:33:48.1    -408   -353   -230    540    586 229.1 -28.9  34116  288.83 0855.06
2009/04/23 11:33:48.2    -363   -337   -189    496    530 227.1 -26.4  34122  288.94 0855.06
2009/04/23 11:33:48.3    -423   -317   -145    529    549 233.2 -15.4  34124  288.97 0855.06
2009/04/23 11:33:48.4    -469   -268   -181    541    571 240.3 -18.6  34150  289.40 0855.06
2009/04/23 11:33:48.5    -354   -321    -23    479    480 227.8  -2.8  34174  289.81 0855.06
2009/04/23 11:33:48.6    -381   -316    -47    496    499 230.3  -5.5  34162  289.62 0855.06
2009/04/23 11:33:48.7    -164   -477     41    505    507 199.1   4.7  34192  290.12 0855.06
2009/04/23 11:33:48.8     -22   -445    127    446    464 182.9  15.9  34182  289.94 0855.06
2009/04/23 11:33:48.9     -13   -470     36    471    473 181.6   4.5  34180  289.91 0855.06
2009/04/23 11:33:49.0     -17   -502     39    503    505 182.0   4.5  34184  289.98 0855.06
2009/04/23 11:33:49.1      -7   -493     69    494    499 180.9   8.0  34182  289.95 0855.06
2009/04/23 11:33:49.2      46   -491    -10    494    495 174.6  -1.3  34182  289.96 0855.06
2009/04/23 11:33:49.3      72   -492     72    498    504 171.7   8.2  34172  289.76 0855.06
2009/04/23 11:33:49.4      86   -508    100    516    526 170.3  11.0  34172  289.79 0855.06
2009/04/23 11:33:49.5     123   -524    187    539    571 166.8  19.2  34174  289.80 0855.06
2009/04/23 11:33:49.6     102   -466    142    478    499 167.6  16.6  34176  289.83 0855.06
2009/04/23 11:33:49.7      92   -436    112    446    460 168.0  14.2  34170  289.73 0855.06
2009/04/23 11:33:49.8       1   -368     45    369    372 179.8   7.1  34174  289.82 0855.06
2009/04/23 11:33:49.9     -32   -411   -131    413    434 184.5 -17.7  34176  289.85 0855.06
2009/04/23 11:33:50.0     -64   -461    -72    466    472 188.0  -8.8  34162  289.61 0855.06
2009/04/23 11:33:50.1     -23   -517    -61    518    522 182.6  -6.8  34158  289.53 0855.06
2009/04/23 11:33:50.2      21   -438   -106    439    452 177.2 -13.6  34158  289.53 0855.06
2009/04/23 11:33:50.3    -110   -516    -48    528    531 192.1  -5.2  34148  289.38 0855.07
2009/04/23 11:33:50.4     -97   -513    -20    523    524 190.7  -2.3  34152  289.43 0855.07
2009/04/23 11:33:50.5     -97   -549    -21    558    559 190.1  -2.2  34150  289.41 0855.07
2009/04/23 11:33:50.6    -175   -533    -78    561    567 198.2  -8.0  34148  289.36 0855.07
2009/04/23 11:33:50.7    -227   -484   -148    535    556 205.2 -15.5  34140  289.24 0855.07
2009/04/23 11:33:50.8    -206   -402   -127    452    469 207.2 -20.3  34144  289.29 0855.07
2009/04/23 11:33:50.9    -140   -367   -171    393    428 200.9 -29.5  34150  289.39 0855.07
2009/04/23 11:33:51.0     -93   -371   -123    383    402 194.1 -22.9  34152  289.42 0855.07
2009/04/23 11:33:51.1    -193   -371   -141    419    443 207.5 -18.6  34154  289.48 0855.07
2009/04/23 11:33:51.2    -188   -342   -120    391    409 208.8 -21.9  34152  289.43 0855.07
2009/04/23 11:33:51.3    -109   -336    -85    354    365 198.0 -13.6  34152  289.45 0855.08
2009/04/23 11:33:51.4    -104   -361     -7    376    377 196.1  -1.2  34162  289.62 0855.08
2009/04/23 11:33:51.5     -17   -387    -12    388    389 182.6  -1.8  34186  290.01 0855.08
2009/04/23 11:33:51.6     -19   -328    -36    329    331 183.4  -6.3  34174  289.82 0855.08
2009/04/23 11:33:51.7      23   -279    -72    281    291 175.1 -14.4  34164  289.63 0855.08
2009/04/23 11:33:51.8     -14   -256    -47    257    262 183.1 -10.5  34158  289.54 0855.08
2009/04/23 11:33:51.9     -39   -252    -71    256    266 188.9 -15.5  34160  289.58 0855.08
2009/04/23 11:33:52.0     -49   -233    -56    239    246 192.0 -13.3  34158  289.54 0855.08
2009/04/23 11:33:52.1     -22   -225    -49    227    233 185.8 -12.4  34162  289.60 0855.08
2009/04/23 11:33:52.2     -46   -225    -45    230    235 191.6 -11.1  34164  289.63 0855.08
2009/04/23 11:33:52.3     -75   -207    -44    221    226 200.0 -11.5  34160  289.58 0855.08
2009/04/23 11:33:52.4     -96   -187    -58    211    219 207.1 -15.5  34164  289.63 0855.08
2009/04/23 11:33:52.5    -113   -163    -63    199    209 214.7 -17.6  34166  289.69 0855.08
2009/04/23 11:33:52.6    -154   -200    -77    253    265 217.8 -17.0  34174  289.80 0855.08
2009/04/23 11:33:52.7     -79   -251    -10    264    265 197.4  -2.2  34164  289.63 0855.08
2009/04/23 11:33:52.8    -103   -144     21    178    180 215.6   6.9  34168  289.72 0855.08
2009/04/23 11:33:52.9    -107    -97    -14    145    146 227.8  -5.6  34174  289.82 0855.08
2009/04/23 11:33:53.0     -86    -78    -57    117    130 227.8 -31.7  34178  289.87 0855.08
2009/04/23 11:33:53.1     -67    -92    -79    114    138 216.1 -42.4  34180  289.92 0855.08
2009/04/23 11:33:53.2    -131    -67   -115    148    187 242.9 -46.6  34182  289.96 0855.08
2009/04/23 11:33:53.3    -164    -62   -104    176    204 249.2 -37.9  34168  289.70 0855.09
2009/04/23 11:33:53.4    -206    -40   -127    210    245 259.0 -38.4  34168  289.70 0855.09
2009/04/23 11:33:53.5    -146    -20    -87    148    171 262.1 -37.5  34162  289.62 0855.09
2009/04/23 11:33:53.6    -208     39   -107    212    237 280.8 -33.5  34172  289.77 0855.09
2009/04/23 11:33:53.7    -202     61    -99    212    233 286.9 -31.5  34176  289.85 0855.09
2009/04/23 11:33:53.8    -199      9   -104    200    225 272.6 -33.7  34176  289.85 0855.09
2009/04/23 11:33:53.9    -264     53    -96    270    287 281.5 -19.7  34172  289.76 0855.09
2009/04/23 11:33:54.0    -469    139    -66    490    495 286.5  -7.7  34170  289.73 0855.09
2009/04/23 11:33:54.1    -417    187    -69    458    464 294.2  -8.6  34180  289.90 0855.09
2009/04/23 11:33:54.2    -360     22    124    361    382 273.6  19.1  34182  289.96 0855.09
2009/04/23 11:33:54.3    -300   -131     -2    328    329 246.4  -0.4  34188  290.03 0855.09
2009/04/23 11:33:54.4    -291   -100     43    308    312 250.9   8.0  34198  290.20 0855.09
2009/04/23 11:33:54.5    -314     -4     73    315    324 269.1  13.1  34192  290.10 0855.09
2009/04/23 11:33:54.6    -232     32    -74    235    246 278.0 -22.8  34192  290.12 0855.09
2009/04/23 11:33:54.7    -142    -50     50    151    160 250.5  18.6  34190  290.09 0855.09
2009/04/23 11:33:54.8    -214   -127    -33    250    253 239.3  -7.7  34196  290.17 0855.09
2009/04/23 11:33:54.9    -235      0    -81    236    249 270.0 -23.8  34196  290.17 0855.09
2009/04/23 11:33:55.0    -188    -63    -40    199    203 251.4 -11.5  34194  290.14 0855.09
2009/04/23 11:33:55.1    -258     43    -66    262    271 279.6 -14.3  34196  290.17 0855.09
2009/04/23 11:33:55.2    -226      0    -67    227    237 270.1 -16.6  34196  290.19 0855.09
2009/04/23 11:33:55.3    -235    -83     -9    250    251 250.5  -2.1  34208  290.39 0855.12
2009/04/23 11:33:55.4    -236   -144     29    277    279 238.5   6.0  34220  290.59 0855.12
2009/04/23 11:33:55.6    -272   -168     55    320    325 238.2   9.9  34216  290.51 0855.12
2009/04/23 11:33:55.7    -282    -42     14    286    287 261.4   2.9  34210  290.42 0855.12
2009/04/23 11:33:55.8    -282    -12     72    283    293 267.4  14.3  34220  290.58 0855.12
2009/04/23 11:33:55.9    -264    -15     -1    265    266 266.7  -0.3  34212  290.44 0855.12
2009/04/23 11:33:56.0    -272    -58     16    279    280 257.8   3.3  34240  290.93 0855.12
2009/04/23 11:33:56.1    -291   -166     33    336    338 240.2   5.7  34228  290.72 0855.12
2009/04/23 11:33:56.2    -246   -219     30    330    332 228.4   5.3  34228  290.71 0855.12
2009/04/23 11:33:56.3    -309    -82     70    320    328 255.0  12.4  34240  290.92 0855.12
2009/04/23 11:33:56.4    -303    -66     -9    311    312 257.7  -1.8  34266  291.36 0855.12
2009/04/23 11:33:56.5    -311   -108    -57    330    336 250.8  -9.9  34242  290.96 0855.12
2009/04/23 11:33:56.6    -304   -101     44    321    325 251.6   7.9  34262  291.31 0855.12
2009/04/23 11:33:56.7    -205    -68    -11    217    218 251.6  -3.1  34240  290.92 0855.12
2009/04/23 11:33:56.8    -190    -39     30    195    198 258.3   8.8  34240  290.92 0855.12
2009/04/23 11:33:56.9    -136     23     58    138    149 279.6  24.1  34208  290.38 0855.12
2009/04/23 11:33:57.0    -160     26     68    163    176 279.2  23.8  34192  290.13 0855.12
2009/04/23 11:33:57.1    -140     10     83    141    163 274.4  33.5  34208  290.40 0855.12
2009/04/23 11:33:57.2    -101     18     46    103    112 280.1  25.7  34210  290.41 0855.12
2009/04/23 11:33:57.3     -62      0     21     63     67 270.0  18.9  34226  290.70 0855.12
2009/04/23 11:33:57.4       5    -72     59     73     93 175.6  43.7  34232  290.81 0855.13
2009/04/23 11:33:57.5      49    -50     81     71    107 135.9  54.3  34242  290.98 0855.13
2009/04/23 11:33:57.6      -1    -10    113     11    113 188.0  90.0  34248  291.06 0855.13
2009/04/23 11:33:57.7     -42   -156     62    162    173 195.1  21.7  34238  290.91 0855.13
2009/04/23 11:33:57.8     -96   -116     23    151    153 219.6   9.0  34238  290.89 0855.13
2009/04/23 11:33:57.9    -124   -158    -61    201    211 218.1 -17.0  34248  291.08 0855.13
2009/04/23 11:33:58.0    -105    -35    -29    111    115 251.6 -15.0  34232  290.79 0855.13
2009/04/23 11:33:58.1    -158     -5    -43    159    164 267.9 -20.2  34212  290.45 0855.13
2009/04/23 11:33:58.2       1   -111    -89    112    143 179.1 -47.1  34244  290.99 0855.13
2009/04/23 11:33:58.3      45    -54     52     71     88 140.4  39.7  34236  290.86 0855.13
2009/04/23 11:33:58.4      30   -150    172    154    230 168.5  53.5  34230  290.75 0855.13
2009/04/23 11:33:58.5       4   -265    200    266    332 179.0  40.8  34226  290.68 0855.13
2009/04/23 11:33:58.6      90   -155    192    180    263 149.7  52.1  34222  290.61 0855.13
2009/04/23 11:33:58.7      21   -326    249    327    411 176.3  41.2  34218  290.55 0855.13
2009/04/23 11:33:58.8     -34   -373    286    375    471 185.3  41.2  34216  290.53 0855.13
2009/04/23 11:33:58.9    -107   -373    272    389    474 196.0  38.5  34222  290.61 0855.13
2009/04/23 11:33:59.0    -125   -414    244    433    497 196.8  32.0  34220  290.59 0855.13
2009/04/23 11:33:59.1    -164   -333    227    372    435 206.2  34.3  34222  290.61 0855.13
2009/04/23 11:33:59.2    -236   -243    170    339    379 224.2  28.6  34242  290.96 0855.13
2009/04/23 11:33:59.3     -58   -286    280    292    404 191.5  49.0  34204  290.32 0855.13
2009/04/23 11:33:59.4    -207   -164    200    265    332 231.6  40.7  34250  291.10 0855.12
2009/04/23 11:33:59.5     -91   -201    220    221    311 204.5  50.0  34234  290.83 0855.12
2009/04/23 11:33:59.6     -67   -249    269    259    373 195.2  51.3  34218  290.54 0855.12
2009/04/23 11:33:59.7     -49   -200    267    206    337 193.8  58.6  34228  290.71 0855.12
2009/04/23 11:33:59.8    -115   -320    184    341    387 199.8  30.8  34218  290.57 0855.12
2009/04/23 11:33:59.9     -98   -412    192    424    465 193.4  26.2  34206  290.34 0855.12
2009/04/23 11:34:00.0    -187   -383    204    427    473 206.0  27.3  34214  290.48 0855.12
2009/04/23 11:34:00.1     -90   -263    250    279    374 198.9  46.5  34236  290.86 0855.12
2009/04/23 11:34:00.2    -325   -260    175    417    452 231.4  24.1  34232  290.80 0855.12
2009/04/23 11:34:00.3    -337   -249    205    420    467 233.5  27.8  34260  291.28 0855.12
2009/04/23 11:34:00.4    -404    -20    -91    405    416 267.1 -12.7  34204  290.31 0855.12
2009/04/23 11:34:00.5    -401     57   -138    406    430 278.1 -18.8  34186  290.00 0855.12
2009/04/23 11:34:00.6    -195     20     54    197    205 275.9  15.3  34186  290.01 0855.12
2009/04/23 11:34:00.7    -243   -201    131    316    342 230.4  23.8  34220  290.60 0855.12
2009/04/23 11:34:00.8    -287   -335    135    442    463 220.6  17.0  34228  290.73 0855.12
2009/04/23 11:34:00.9    -275   -284     90    396    407 224.0  12.8  34230  290.75 0855.12
2009/04/23 11:34:01.0    -223   -309    168    382    417 215.8  25.2  34218  290.55 0855.12
2009/04/23 11:34:01.1    -189   -341    164    391    424 209.0  24.1  34206  290.36 0855.12
2009/04/23 11:34:01.2    -138   -299     98    330    345 204.8  16.5  34210  290.43 0855.12
2009/04/23 11:34:01.3    -181   -242     93    303    318 216.9  17.2  34208  290.39 0855.12
2009/04/23 11:34:01.4    -131   -276    132    306    333 205.5  24.9  34244  290.99 0855.11
2009/04/23 11:34:01.5    -181   -226    194    290    348 218.7  36.7  34220  290.59 0855.11
2009/04/23 11:34:01.6    -208   -229     59    310    316 222.3  10.8  34206  290.36 0855.11
2009/04/23 11:34:01.7    -239   -258    -99    353    366 222.8 -20.3  34198  290.23 0855.11
2009/04/23 11:34:01.8    -350   -240   -122    425    443 235.5 -16.0  34202  290.28 0855.11
2009/04/23 11:34:01.9    -255   -116   -113    281    302 245.6 -27.5  34198  290.20 0855.11
2009/04/23 11:34:02.0    -113   -157   -121    194    228 215.8 -39.9  34196  290.19 0855.11
2009/04/23 11:34:02.1    -185    -82   -166    203    262 246.0 -48.1  34202  290.27 0855.11
2009/04/23 11:34:02.2    -262   -149    -93    302    315 240.3 -22.1  34234  290.82 0855.11
2009/04/23 11:34:02.3    -290   -116    -87    313    324 248.2 -20.3  34228  290.71 0855.11
2009/04/23 11:34:02.4    -312   -211    -99    377    390 235.9 -14.8  34254  291.17 0855.11
2009/04/23 11:34:02.5    -361   -258    -79    444    452 234.4 -10.1  34222  290.63 0855.11
2009/04/23 11:34:02.6    -408   -301    -68    508    513 233.6  -7.7  34226  290.69 0855.11
2009/04/23 11:34:02.7    -461     20   -120    462    478 272.5 -14.6  34198  290.20 0855.11
2009/04/23 11:34:02.8    -440     75   -151    447    473 279.8 -18.7  34174  289.82 0855.11
2009/04/23 11:34:02.9    -329    126   -171    353    392 291.0 -32.3  34198  290.23 0855.11
2009/04/23 11:34:03.0    -343    294     22    452    453 310.6   2.9  34256  291.21 0855.11
2009/04/23 11:34:03.1    -288     23     14    289    290 274.6   2.8  34258  291.22 0855.11
2009/04/23 11:34:03.2    -185   -261     38    321    324 215.3   6.9  34216  290.51 0855.11
2009/04/23 11:34:03.3    -200   -285    -91    349    361 215.1 -14.7  34248  291.06 0855.11
2009/04/23 11:34:03.4    -147   -230    -86    274    287 212.6 -22.5  34266  291.36 0855.09
2009/04/23 11:34:03.5    -279    -70     30    288    290 255.9   6.0  34264  291.33 0855.09
2009/04/23 11:34:03.6    -296      4    136    297    326 270.9  26.3  34306  292.04 0855.09
2009/04/23 11:34:03.7    -200    -48     51    206    213 256.5  13.9  34292  291.81 0855.09
2009/04/23 11:34:03.8    -195   -238     48    308    312 219.4   8.9  34248  291.07 0855.09
2009/04/23 11:34:03.9    -205   -172     44    268    272 230.0   9.3  34248  291.07 0855.09
2009/04/23 11:34:04.0    -181   -201     11    271    272 222.1   2.3  34222  290.61 0855.09
2009/04/23 11:34:04.1    -234   -182      4    297    298 232.2   0.8  34230  290.75 0855.09
2009/04/23 11:34:04.2    -203   -185      3    275    276 227.6   0.8  34272  291.46 0855.09
2009/04/23 11:34:04.3    -275   -169      1    323    324 238.4   0.2  34286  291.70 0855.09
2009/04/23 11:34:04.4    -298   -192    -58    355    360 237.2  -9.3  34228  290.72 0855.09
2009/04/23 11:34:04.5    -307   -101      5    324    325 251.8   0.9  34306  292.04 0855.09
2009/04/23 11:34:04.6    -380   -127    -15    401    402 251.4  -2.2  34284  291.68 0855.09
2009/04/23 11:34:04.7    -296    -73    -13    305    306 256.1  -2.6  34298  291.92 0855.09
2009/04/23 11:34:04.8    -281   -113    -33    303    305 248.0  -6.2  34262  291.29 0855.09
2009/04/23 11:34:04.9    -259   -145    -16    298    299 240.7  -3.1  34284  291.68 0855.09
2009/04/23 11:34:05.0    -291   -163      2    334    335 240.7   0.4  34296  291.88 0855.09
2009/04/23 11:34:05.1    -304   -104    -57    322    328 251.0 -10.1  34230  290.76 0855.09
2009/04/23 11:34:05.2    -279    -89     46    293    297 252.3   9.0  34292  291.80 0855.09
2009/04/23 11:34:05.3    -415    -13     46    416    419 268.1   6.4  34216  290.53 0855.09
2009/04/23 11:34:05.4    -360    -23     84    361    371 266.3  13.1  34260  291.27 0855.08
2009/04/23 11:34:05.5    -280   -122    126    306    330 246.5  23.7  34254  291.17 0855.08
2009/04/23 11:34:05.6    -235   -239     38    336    339 224.6   6.6  34268  291.40 0855.08
2009/04/23 11:34:05.7    -190   -342     21    392    393 209.0   3.1  34270  291.45 0855.08
2009/04/23 11:34:05.8    -147   -298   -113    333    351 206.3 -23.7  34260  291.28 0855.08
2009/04/23 11:34:05.9    -210   -141   -140    254    290 236.0 -35.8  34214  290.49 0855.08
2009/04/23 11:34:06.0    -196   -306    -86    364    375 212.6 -13.4  34210  290.43 0855.08
2009/04/23 11:34:06.1    -363   -216   -136    423    445 239.3 -17.9  34200  290.24 0855.08
2009/04/23 11:34:06.2    -347   -293   -134    455    475 229.8 -16.4  34188  290.06 0855.08
2009/04/23 11:34:06.3    -365   -264   -144    451    474 234.1 -17.7  34178  289.86 0855.08
2009/04/23 11:34:06.4    -382   -231    -81    447    455 238.8 -10.3  34182  289.95 0855.08
2009/04/23 11:34:06.5    -407   -152    -61    435    440 249.4  -8.0  34196  290.17 0855.08
2009/04/23 11:34:06.6    -472   -144   -108    494    506 253.0 -12.4  34198  290.23 0855.08
2009/04/23 11:34:06.7    -377    -98    -97    390    402 255.3 -14.1  34204  290.33 0855.08
2009/04/23 11:34:06.8    -417    -35    -24    419    420 265.1  -3.3  34210  290.41 0855.08
2009/04/23 11:34:06.9    -327    176     -1    372    373 298.3  -0.2  34214  290.50 0855.08
2009/04/23 11:34:07.0    -238     66    -72    248    258 285.5 -21.0  34220  290.59 0855.08
2009/04/23 11:34:07.1    -166     27      2    169    170 279.2   0.8  34224  290.65 0855.08
2009/04/23 11:34:07.2     -91     26    -32     95    101 285.9 -18.7  34230  290.77 0855.08
2009/04/23 11:34:07.3      -1     75     33     76     82 359.0  24.6  34238  290.91 0855.08
2009/04/23 11:34:07.4       4     -8     -4     10     10 151.0 -27.4  34236  290.87 0855.08
2009/04/23 11:34:07.5    -211    100     11    234    235 295.5   2.9  34242  290.95 0855.08
2009/04/23 11:34:07.6    -302    162    100    343    358 298.2  16.3  34226  290.69 0855.08
2009/04/23 11:34:07.7    -256    116    -40    282    285 294.4  -8.2  34216  290.53 0855.08
2009/04/23 11:34:07.8    -492     99   -165    502    528 281.5 -23.3  34178  289.87 0855.08
2009/04/23 11:34:07.9    -278     -8   -156    279    319 268.3 -36.0  34210  290.42 0855.08
2009/04/23 11:34:08.0    -243    -96    -89    262    277 248.3 -18.9  34212  290.46 0855.08
2009/04/23 11:34:08.1    -200   -127     -9    238    239 237.6  -2.2  34218  290.56 0855.08
2009/04/23 11:34:08.2    -105      8     31    106    111 274.4  16.3  34216  290.53 0855.08
2009/04/23 11:34:08.3    -167    146    -12    223    224 311.1  -3.1  34224  290.65 0855.08
2009/04/23 11:34:08.4    -148    118    -63    190    201 308.6 -18.3  34222  290.62 0855.08
2009/04/23 11:34:08.5    -149      2    -65    150    163 270.8 -29.0  34222  290.62 0855.08
2009/04/23 11:34:08.6      -4     44   -108     45    117 353.8 -81.4  34226  290.70 0855.08
2009/04/23 11:34:08.7     -11    -10   -136     16    136 226.7 -90.0  34232  290.79 0855.08
2009/04/23 11:34:08.8       5    -73    -88     74    114 175.6 -60.7  34242  290.98 0855.08
2009/04/23 11:34:08.9     -15    -95    -30     97    102 189.3 -17.6  34226  290.69 0855.08
2009/04/23 11:34:09.0       3   -188    -31    189    192 179.0  -9.3  34214  290.48 0855.08
2009/04/23 11:34:09.1       0   -162    -45    163    170 180.0 -15.4  34226  290.70 0855.08
2009/04/23 11:34:09.2       0   -167    -80    168    186 180.2 -31.6  34242  290.96 0855.08
2009/04/23 11:34:09.3    -125   -127     39    179    184 224.7  12.4  34246  291.03 0855.08
2009/04/23 11:34:09.4    -131     13      1    132    133 275.7   0.7  34250  291.11 0855.08
2009/04/23 11:34:09.5    -180     59    -56    190    199 288.2 -16.6  34250  291.11 0855.08
2009/04/23 11:34:09.6    -288    -78    -83    299    310 254.9 -20.0  34238  290.88 0855.08
2009/04/23 11:34:09.7    -308   -122   -176    332    375 248.3 -34.7  34228  290.72 0855.08
2009/04/23 11:34:09.8    -229   -193   -210    300    366 229.8 -42.9  34212  290.45 0855.08
2009/04/23 11:34:09.9    -132    -26   -148    135    200 258.5 -57.4  34234  290.82 0855.08
2009/04/23 11:34:10.0    -106    -13   -199    107    225 262.5 -74.0  34234  290.84 0855.08
2009/04/23 11:34:10.1    -138     -1   -167    139    217 269.2 -60.7  34232  290.81 0855.08
2009/04/23 11:34:10.2    -158     52   -131    167    212 288.4 -46.4  34234  290.84 0855.08
2009/04/23 11:34:10.3    -104    149    -59    182    192 325.0 -18.1  34218  290.57 0855.08
2009/04/23 11:34:10.4    -348     77   -114    357    374 282.6 -22.8  34228  290.74 0855.08
2009/04/23 11:34:10.5    -302    -94   -163    317    356 252.7 -33.7  34200  290.25 0855.08
2009/04/23 11:34:10.6    -482   -162   -167    509    536 251.4 -18.2  34182  289.94 0855.08
2009/04/23 11:34:10.7    -414    -59   -186    419    458 261.9 -29.7  34180  289.92 0855.08
2009/04/23 11:34:10.8    -302     13   -233    303    382 272.6 -46.0  34188  290.03 0855.08
2009/04/23 11:34:10.9    -277    -61   -167    284    329 257.4 -37.7  34182  289.93 0855.08
2009/04/23 11:34:11.0    -193   -164   -218    254    334 229.6 -49.5  34202  290.29 0855.08
2009/04/23 11:34:11.1    -121      8    -96    122    155 273.9 -47.1  34200  290.25 0855.08
2009/04/23 11:34:11.2    -129    -85    -69    155    169 236.7 -30.3  34208  290.38 0855.08
2009/04/23 11:34:11.3    -206     -2     -5    207    208 269.4  -1.6  34210  290.41 0855.08
2009/04/23 11:34:11.4    -129    -66   -121    145    188 242.9 -48.2  34230  290.77 0855.10
2009/04/23 11:34:11.5    -250    -42    -76    254    265 260.4 -21.7  34218  290.54 0855.10
2009/04/23 11:34:11.6    -200   -154    -76    253    264 232.5 -21.7  34244  290.99 0855.10
2009/04/23 11:34:11.7    -144    -33    -98    148    177 256.7 -41.1  34232  290.81 0855.10
2009/04/23 11:34:11.8     -58    -60     -9     84     85 224.1  -6.7  34238  290.91 0855.10
2009/04/23 11:34:11.9      28     -6    -19     29     34 103.3 -40.0  34234  290.82 0855.10
2009/04/23 11:34:12.0      50    -36     54     62     82 126.0  45.8  34246  291.03 0855.10
2009/04/23 11:34:12.1      38    -69     37     80     88 151.0  26.2  34242  290.96 0855.10
2009/04/23 11:34:12.2      41    -64     66     77    101 147.5  44.8  34252  291.13 0855.10
2009/04/23 11:34:12.3      70    -10    116     71    136  98.8  65.1  34248  291.06 0855.10
2009/04/23 11:34:12.4      15      7    106     17    107  64.7  90.0  34246  291.04 0855.10
2009/04/23 11:34:12.5     127    -10    123    128    177  94.8  48.7  34210  290.41 0855.10
2009/04/23 11:34:12.6     181      6    116    182    215  87.9  35.6  34200  290.25 0855.10
2009/04/23 11:34:12.7     136     10     73    137    155  85.6  30.8  34208  290.38 0855.10
2009/04/23 11:34:12.8      82     36    105     90    138  66.0  54.8  34208  290.40 0855.10
2009/04/23 11:34:12.9     147     -2    135    148    200  90.9  47.1  34206  290.35 0855.10
2009/04/23 11:34:13.0     161     27     70    164    178  80.5  24.3  34194  290.16 0855.10
2009/04/23 11:34:13.1      41     55     52     69     86  37.0  40.7  34198  290.23 0855.10
2009/04/23 11:34:13.2      10     85    -32     86     91   6.7 -25.4  34198  290.23 0855.10
2009/04/23 11:34:13.3      28    145    -39    148    154  11.1 -15.0  34192  290.13 0855.10
2009/04/23 11:34:13.4      29     59     37     66     75  26.3  31.4  34196  290.19 0855.13
2009/04/23 11:34:13.5     157     82    154    178    235  62.5  45.4  34196  290.18 0855.13
2009/04/23 11:34:13.6     196    186    229    271    354  46.4  44.5  34188  290.03 0855.13
2009/04/23 11:34:13.7     232    230    266    327    421  45.2  43.5  34198  290.21 0855.13
2009/04/23 11:34:13.8     264    247    136    362    386  46.9  21.6  34194  290.15 0855.13
2009/04/23 11:34:13.9     151    193    114    246    271  38.1  27.0  34198  290.20 0855.13
2009/04/23 11:34:14.0     -66   -150    140    165    216 203.8  44.5  34202  290.28 0855.13
2009/04/23 11:34:14.1     -48   -237    176    242    299 191.5  39.7  34208  290.39 0855.13
2009/04/23 11:34:14.2     -82   -210    119    226    255 201.4  30.1  34204  290.32 0855.13
2009/04/23 11:34:14.3    -128   -138     95    189    211 222.8  28.7  34202  290.28 0855.13
2009/04/23 11:34:14.4     -33   -118    123    123    173 195.6  50.1  34210  290.41 0855.14
2009/04/23 11:34:14.5       0    -84    130     85    155 180.4  64.6  34206  290.36 0855.14
2009/04/23 11:34:14.6     -32   -185    123    188    224 190.0  36.0  34204  290.31 0855.14
2009/04/23 11:34:14.7     -91   -181    179    203    270 206.7  45.9  34212  290.44 0855.14
2009/04/23 11:34:14.8    -102   -154    105    186    213 213.6  32.1  34206  290.36 0855.14
2009/04/23 11:34:14.9     -81   -136    119    159    198 210.8  40.7  34206  290.35 0855.14
2009/04/23 11:34:15.0     -83   -175    131    194    234 205.5  37.0  34218  290.55 0855.14
2009/04/23 11:34:15.1    -100   -195    115    220    248 207.2  29.8  34220  290.58 0855.14
2009/04/23 11:34:15.2     -35   -207    126    210    244 189.7  33.7  34206  290.36 0855.14
2009/04/23 11:34:15.3     -30   -218    181    221    285 188.0  43.7  34202  290.27 0855.14
2009/04/23 11:34:15.4      -2   -180    208    181    275 180.9  54.3  34208  290.37 0855.14
2009/04/23 11:34:15.5       0   -206    221    207    302 179.8  52.1  34208  290.37 0855.14
2009/04/23 11:34:15.6      33   -240    193    243    310 172.0  42.7  34204  290.31 0855.14
2009/04/23 11:34:15.7     -17   -260    158    261    305 183.8  34.2  34204  290.32 0855.14
2009/04/23 11:34:15.8      46   -312    182    316    364 171.5  32.7  34202  290.28 0855.14
2009/04/23 11:34:15.9     119   -270    210    296    362 156.3  39.0  34210  290.43 0855.14
2009/04/23 11:34:16.0      90   -297    161    311    350 163.1  29.6  34204  290.33 0855.14
2009/04/23 11:34:16.1     132   -283    138    313    342 155.1  25.3  34204  290.32 0855.14
2009/04/23 11:34:16.2     -17   -366     37    367    369 182.8   5.8  34212  290.45 0855.14
2009/04/23 11:34:16.3       0   -337    123    338    359 180.1  20.8  34192  290.13 0855.14
2009/04/23 11:34:16.4     106   -445    223    458    509 166.6  27.9  34184  289.98 0855.15
2009/04/23 11:34:16.5      36   -595    429    597    735 176.5  39.3  34192  290.12 0855.15
2009/04/23 11:34:16.6       8   -459    417    460    620 179.0  46.9  34194  290.15 0855.15
2009/04/23 11:34:16.7      67   -250    324    260    415 164.9  57.3  34202  290.27 0855.15
2009/04/23 11:34:16.8     120   -297    296    321    436 157.9  47.6  34204  290.32 0855.15
2009/04/23 11:34:16.9      92    -64    153    113    190 125.1  60.0  34206  290.35 0855.15
2009/04/23 11:34:17.0     136   -382    213    406    458 160.3  30.1  34204  290.31 0855.15
2009/04/23 11:34:17.1      75   -437    256    444    512 170.2  32.7  34206  290.35 0855.15
2009/04/23 11:34:17.2     244   -359    219    435    487 145.8  28.7  34206  290.34 0855.15
2009/04/23 11:34:17.3     270   -308    132    410    431 138.7  17.9  34200  290.26 0855.15
2009/04/23 11:34:17.4     217   -395    125    451    469 151.1  15.6  34202  290.28 0855.15
2009/04/23 11:34:17.5     181   -485    156    518    541 159.5  16.8  34212  290.46 0855.15
2009/04/23 11:34:17.6     123   -489    122    505    520 165.8  13.6  34218  290.54 0855.15
2009/04/23 11:34:17.7      77   -473    160    480    507 170.7  18.5  34226  290.68 0855.15
2009/04/23 11:34:17.8      50   -463    132    466    485 173.8  15.8  34224  290.66 0855.15
2009/04/23 11:34:17.9     181   -380    122    422    440 154.5  16.1  34236  290.85 0855.15
2009/04/23 11:34:18.0     178   -465    159    499    524 159.0  17.7  34242  290.95 0855.15
2009/04/23 11:34:18.1     154   -435    128    462    480 160.4  15.6  34238  290.90 0855.15
2009/04/23 11:34:18.2     140   -425    200    448    490 161.7  25.7  34222  290.62 0855.15
2009/04/23 11:34:18.3     184   -283    138    338    365 146.9  23.5  34236  290.86 0855.15
2009/04/23 11:34:18.4     156   -246    132    292    320 147.5  25.9  34242  290.95 0855.15
2009/04/23 11:34:18.5      92   -312    135    326    352 163.5  23.7  34212  290.47 0855.15
2009/04/23 11:34:18.6      40   -382    128    385    406 173.9  18.4  34228  290.71 0855.15
2009/04/23 11:34:18.7      68   -362     75    369    377 169.3  11.6  34232  290.79 0855.15
2009/04/23 11:34:18.8      52   -309    113    314    334 170.3  19.9  34240  290.93 0855.15
2009/04/23 11:34:18.9      47   -197     70    203    215 166.6  19.2  34238  290.89 0855.15
2009/04/23 11:34:19.0      43    -64     90     78    119 145.7  54.3  34222  290.62 0855.15
2009/04/23 11:34:19.1      57    -26    104     63    121 115.2  66.2  34250  291.11 0855.15
2009/04/23 11:34:19.2      94     -7     62     95    113  94.4  35.6  34242  290.96 0855.15
2009/04/23 11:34:19.3     152     16     48    153    161  83.9  17.7  34234  290.82 0855.15
2009/04/23 11:34:19.4     170     53     63    179    191  72.7  19.6  34234  290.84 0855.15
2009/04/23 11:34:19.5      42    133    -41    140    145  17.8 -21.2  34216  290.53 0855.15
2009/04/23 11:34:19.6       6    143   -104    144    177   2.6 -43.9  34226  290.70 0855.15
2009/04/23 11:34:19.7      41     84   -130     94    160  26.3 -64.9  34232  290.79 0855.15
2009/04/23 11:34:19.8     100    152    -78    183    198  33.4 -28.7  34226  290.69 0855.15
2009/04/23 11:34:19.9     177    194    -83    263    276  42.3 -17.6  34220  290.59 0855.15
2009/04/23 11:34:20.0     194    192      7    274    275  45.3   1.6  34226  290.68 0855.15
2009/04/23 11:34:20.1     187     55     67    195    207  73.6  18.9  34224  290.65 0855.15
2009/04/23 11:34:20.2     103     75    -36    128    132  54.0 -20.7  34228  290.72 0855.15
2009/04/23 11:34:20.3     117     15    -43    118    125  82.5 -24.8  34240  290.94 0855.16
2009/04/23 11:34:20.4     111      8    -32    112    116  85.7 -21.2  34242  290.96 0855.16
2009/04/23 11:34:20.5     115      1    -40    116    123  89.2 -19.1  34240  290.94 0855.16
2009/04/23 11:34:20.6      90     16    -22     92     95  79.9 -13.9  34240  290.94 0855.16
2009/04/23 11:34:20.7      91     34    -16     98    100  69.6  -9.8  34232  290.79 0855.16
2009/04/23 11:34:20.8      47     93     14    105    107  27.2   8.0  34226  290.70 0855.16
2009/04/23 11:34:20.9      19    127    -42    129    136   8.9 -18.1  34224  290.65 0855.16
2009/04/23 11:34:21.0      89    152    -78    177    193  30.3 -29.5  34228  290.74 0855.16
2009/04/23 11:34:21.1      81    172   -159    191    248  25.2 -48.2  34228  290.72 0855.16
2009/04/23 11:34:21.2     118    165    -82    203    218  35.6 -27.4  34228  290.72 0855.16
2009/04/23 11:34:21.3     148    121    -53    192    200  50.9 -15.5  34228  290.74 0855.16
2009/04/23 11:34:21.4     101     78    -57    128    140  52.3 -29.6  34228  290.72 0855.16
2009/04/23 11:34:21.5     198     30     -9    201    202  81.2  -2.6  34212  290.47 0855.16
2009/04/23 11:34:21.6     225    -67    -12    235    236 106.8  -3.1  34204  290.32 0855.16
2009/04/23 11:34:21.7     152   -100    -23    183    185 123.3  -7.3  34206  290.35 0855.16
2009/04/23 11:34:21.8     210   -114     56    240    247 118.6  13.2  34208  290.39 0855.16
2009/04/23 11:34:21.9     247   -102     44    268    272 112.6   9.5  34216  290.51 0855.16
2009/04/23 11:34:22.0     229    -46     66    234    244 101.5  15.8  34230  290.75 0855.16
2009/04/23 11:34:22.1     191     58    -70    200    211  72.9 -24.4  34226  290.70 0855.16
2009/04/23 11:34:22.2     245     70    -54    255    261  74.0 -12.2  34228  290.73 0855.16
2009/04/23 11:34:22.3     166     15     10    167    168  84.8   3.6  34218  290.55 0855.16
2009/04/23 11:34:22.4      43    -77     65     89    110 151.0  39.7  34212  290.47 0855.16
2009/04/23 11:34:22.5       8   -109     99    110    147 175.5  46.9  34208  290.40 0855.16
2009/04/23 11:34:22.6     -31   -114     92    119    150 195.6  41.7  34210  290.43 0855.16
2009/04/23 11:34:22.7     -27   -129     68    132    148 192.0  29.3  34210  290.41 0855.16
2009/04/23 11:34:22.8      -8   -117     37    118    124 184.0  17.4  34208  290.40 0855.16
2009/04/23 11:34:22.9      -4    -55     78     56     96 184.4  61.1  34214  290.50 0855.16
2009/04/23 11:34:23.0     -33    -40     28     53     59 219.6  30.3  34206  290.35 0855.16
2009/04/23 11:34:23.1       1     12     22     13     25   8.0  64.7  34210  290.41 0855.16
2009/04/23 11:34:23.2      45     45     36     64     73  45.0  31.4  34220  290.58 0855.16
2009/04/23 11:34:23.4      35     32     56     48     73  46.9  55.4  34220  290.58 0855.16
2009/04/23 11:34:23.5       0    -44     63     45     77 180.9  60.6  34224  290.67 0855.16
2009/04/23 11:34:23.6     -36    -27     43     46     62 233.1  48.0  34242  290.98 0855.16
2009/04/23 11:34:23.7    -114     72     51    135    144 302.4  21.0  34224  290.67 0855.16
2009/04/23 11:34:23.8    -186     33     64    189    200 280.1  18.9  34224  290.65 0855.16
2009/04/23 11:34:23.9     -75    136    133    156    205 331.1  44.8  34218  290.55 0855.16
2009/04/23 11:34:24.0    -250      7    153    251    293 271.7  34.2  34230  290.75 0855.16
2009/04/23 11:34:24.1    -337    -32     40    339    342 264.6   6.9  34244  291.00 0855.16
2009/04/23 11:34:24.2    -272    -20     18    273    274 265.6   3.9  34220  290.58 0855.16
2009/04/23 11:34:24.3     -82    -17    227     84    242 258.1  79.1  34232  290.79 0855.16
2009/04/23 11:34:24.4     -71   -139    146    157    214 207.2  47.9  34230  290.75 0855.16
2009/04/23 11:34:24.5    -152    -98    140    181    228 237.1  41.7  34234  290.82 0855.16
2009/04/23 11:34:24.6     -76    -25     99     81    127 251.4  56.4  34236  290.86 0855.16
2009/04/23 11:34:24.7     -94     22    121     97    155 283.3  56.4  34236  290.87 0855.16
2009/04/23 11:34:24.8    -192     51     82    199    215 285.1  23.4  34232  290.79 0855.16
2009/04/23 11:34:24.9    -131     52     81    142    163 291.7  32.4  34240  290.94 0855.16
2009/04/23 11:34:25.0     -91     10     68     92    114 276.6  39.7  34232  290.81 0855.16
2009/04/23 11:34:25.1       0     51     84     52     98 359.1  65.1  34246  291.03 0855.16
2009/04/23 11:34:25.2      -7    150    114    151    189 357.3  40.9  34232  290.81 0855.16
2009/04/23 11:34:25.3     119    170    167    208    266  35.0  43.3  34228  290.73 0855.16
2009/04/23 11:34:25.4     238    243    158    341    375  44.3  26.6  34224  290.66 0855.16
2009/04/23 11:34:25.5     126    276     99    304    320  24.5  18.1  34230  290.75 0855.16
2009/04/23 11:34:25.6      46    292    115    296    317   9.1  22.3  34234  290.83 0855.16
2009/04/23 11:34:25.7      17    192    201    193    278   5.1  51.2  34218  290.56 0855.16
2009/04/23 11:34:25.8     168    210    223    270    350  38.7  43.7  34236  290.85 0855.16
2009/04/23 11:34:25.9     227    187    194    295    353  50.5  36.5  34222  290.62 0855.16
2009/04/23 11:34:26.0      61     16    210     64    219  74.9  82.7  34236  290.87 0855.16
2009/04/23 11:34:26.1      35     28    120     46    128  51.4  78.2  34250  291.11 0855.16
2009/04/23 11:34:26.2     -50    -42     70     66     96 229.6  51.2  34240  290.92 0855.16
2009/04/23 11:34:26.3    -187   -207    111    279    300 222.1  23.0  34240  290.92 0855.16
2009/04/23 11:34:26.4    -134   -226    247    263    360 210.7  48.0  34232  290.81 0855.17
2009/04/23 11:34:26.5      58    -27    239     65    247 115.4  84.8  34252  291.15 0855.17
2009/04/23 11:34:26.6      69   -227    212    238    318 163.0  46.4  34228  290.71 0855.17
2009/04/23 11:34:26.7     127   -198    119    236    264 147.3  28.5  34232  290.80 0855.17
2009/04/23 11:34:26.8     140   -317    243    347    423 156.1  38.5  34214  290.49 0855.17
2009/04/23 11:34:26.9     -32   -315    324    317    453 186.0  50.8  34212  290.44 0855.17
2009/04/23 11:34:27.0     -46   -340    362    344    499 187.8  51.6  34206  290.36 0855.17
2009/04/23 11:34:27.1      14   -402    349    403    533 177.9  45.4  34212  290.47 0855.17
2009/04/23 11:34:27.2     -62   -363    231    369    435 189.7  35.1  34214  290.48 0855.17
2009/04/23 11:34:27.3    -140   -356    132    383    406 201.6  19.1  34212  290.45 0855.17
2009/04/23 11:34:27.4     -97   -362     28    375    376 195.1   4.3  34212  290.47 0855.17
2009/04/23 11:34:27.5    -110   -394      6    410    411 195.7   0.9  34216  290.51 0855.17
2009/04/23 11:34:27.6    -142   -212   -197    256    323 213.8 -45.9  34210  290.42 0855.17
2009/04/23 11:34:27.7    -393   -106     38    408    410 254.9   5.4  34214  290.50 0855.17
2009/04/23 11:34:27.8    -252   -225     39    338    341 228.2   6.6  34234  290.83 0855.17
2009/04/23 11:34:27.9     -24    -61     85     66    107 201.8  57.9  34230  290.75 0855.17
2009/04/23 11:34:28.0    -178    -13     50    179    187 265.6  15.8  34244  290.99 0855.17
2009/04/23 11:34:28.1    -239    108     85    263    277 294.4  17.9  34258  291.22 0855.17
2009/04/23 11:34:28.2    -190     52     69    198    210 285.3  19.2  34252  291.15 0855.17
2009/04/23 11:34:28.3    -138   -168    120    218    248 219.4  31.4  34244  291.00 0855.17
2009/04/23 11:34:28.4       2   -209     77    210    223 179.3  20.9  34240  290.94 0855.17
2009/04/23 11:34:28.5     125   -119     24    173    175 133.6   8.0  34240  290.94 0855.17
2009/04/23 11:34:28.6      96    -85     51    129    138 131.4  23.0  34236  290.86 0855.17
2009/04/23 11:34:28.7      42   -110    137    118    180 159.1  55.0  34244  291.01 0855.17
2009/04/23 11:34:28.8      18   -218     -2    219    220 175.1  -0.7  34224  290.67 0855.17
2009/04/23 11:34:28.9     -45   -134     81    142    163 198.7  32.4  34226  290.69 0855.17
2009/04/23 11:34:29.0     -50    -75     53     91    105 213.8  33.5  34232  290.81 0855.17
2009/04/23 11:34:29.1     -37     17     49     42     64 295.3  54.3  34230  290.77 0855.17
2009/04/23 11:34:29.2    -150    -99     72    181    194 236.5  22.8  34228  290.74 0855.17
2009/04/23 11:34:29.3     -91   -339     96    351    364 195.1  15.3  34214  290.50 0855.17
2009/04/23 11:34:29.4     -57   -120    189    134    231 205.5  61.3  34214  290.48 0855.17
2009/04/23 11:34:29.5     -52   -146    249    156    293 199.6  64.7  34226  290.68 0855.17
2009/04/23 11:34:29.6      39   -146    214    152    262 164.9  61.3  34210  290.43 0855.17
2009/04/23 11:34:29.7    -146   -166    358    222    421 221.4  65.3  34212  290.47 0855.17
2009/04/23 11:34:29.8     165   -155    176    227    287 133.1  41.7  34220  290.58 0855.17
2009/04/23 11:34:29.9      91    -21    189     94    211 103.3  71.9  34216  290.52 0855.17
2009/04/23 11:34:30.0    -225   -237    250    328    412 223.5  41.2  34210  290.42 0855.17
2009/04/23 11:34:30.1     -28     87    232     92    249 341.7  77.4  34230  290.75 0855.17
2009/04/23 11:34:30.2       7   -269    246    270    365 178.4  47.0  34208  290.37 0855.17
2009/04/23 11:34:30.3     170   -109    195    203    281 122.6  49.0  34214  290.48 0855.17
2009/04/23 11:34:30.4     140     39    241    146    281  74.5  66.0  34224  290.65 0855.19
2009/04/23 11:34:30.5     144    196    268    244    362  36.3  53.2  34234  290.82 0855.19
2009/04/23 11:34:30.6     212     43    218    217    307  78.5  50.1  34208  290.39 0855.19
2009/04/23 11:34:30.7     234     54    205    241    316  77.0  44.8  34206  290.34 0855.19
2009/04/23 11:34:30.8     114      0    181    115    214  90.0  64.7  34214  290.48 0855.19
2009/04/23 11:34:30.9      23     19    165     31    167  50.4  90.0  34220  290.58 0855.19
2009/04/23 11:34:31.0     122    118    190    171    255  46.0  53.3  34220  290.60 0855.19
2009/04/23 11:34:31.1      60     78    177     99    202  37.8  68.3  34218  290.55 0855.19
2009/04/23 11:34:31.2     -30    119    246    123    275 345.7  71.7  34228  290.73 0855.19
2009/04/23 11:34:31.3      96    231    205    251    324  22.7  43.6  34204  290.32 0855.19
2009/04/23 11:34:31.4      60     94     92    112    144  32.6  43.7  34204  290.33 0855.19
2009/04/23 11:34:31.5    -101    152    208    183    277 326.4  54.2  34196  290.19 0855.19
2009/04/23 11:34:31.6    -150    106     98    185    209 305.3  30.1  34212  290.47 0855.19
2009/04/23 11:34:31.7    -100    100    175    142    225 314.9  56.4  34202  290.30 0855.19
2009/04/23 11:34:31.8    -138    118    133    182    225 310.7  39.7  34218  290.55 0855.19
2009/04/23 11:34:31.9       7     19    154     21    155  20.0  90.0  34220  290.60 0855.19
2009/04/23 11:34:32.0      35    -64    171     74    186 151.0  75.3  34218  290.55 0855.19
2009/04/23 11:34:32.1     -69    -98    230    121    259 215.2  70.0  34204  290.33 0855.19
2009/04/23 11:34:32.2    -134   -266    285    298    412 206.7  48.6  34198  290.23 0855.19
2009/04/23 11:34:32.3    -132   -232    186    268    326 209.6  38.3  34196  290.17 0855.19
2009/04/23 11:34:32.4     -15   -257    246    258    356 183.4  48.6  34178  289.86 0855.14
2009/04/23 11:34:32.5     -42   -303    306    307    433 188.0  50.0  34172  289.79 0855.14
2009/04/23 11:34:32.6      41   -396    405    399    568 174.1  50.6  34180  289.91 0855.14
2009/04/23 11:34:32.7      14   -343    251    344    425 177.5  39.7  34168  289.71 0855.14
2009/04/23 11:34:32.8     -95   -286    222    302    374 198.5  39.8  34168  289.72 0855.14
2009/04/23 11:34:32.9      98   -250    119    269    294 158.6  25.3  34168  289.70 0855.14
2009/04/23 11:34:33.0     273   -213    242    347    423 128.0  38.4  34180  289.91 0855.14
2009/04/23 11:34:33.1      41   -527    270    529    593 175.5  29.2  34164  289.63 0855.14
2009/04/23 11:34:33.2      -5   -382    324    383    501 180.9  44.3  34168  289.71 0855.14
2009/04/23 11:34:33.3    -122   -541    312    555    636 192.8  31.9  34178  289.86 0855.14
2009/04/23 11:34:33.4    -218   -544    -22    587    588 201.9  -2.2  34180  289.91 0855.14
2009/04/23 11:34:33.5    -270   -698   -206    749    777 201.2 -15.4  34190  290.07 0855.14
2009/04/23 11:34:33.6    -200   -650   -164    681    701 197.1 -13.6  34182  289.95 0855.14
2009/04/23 11:34:33.7    -179   -522    148    552    572 199.0  15.0  34172  289.79 0855.14
2009/04/23 11:34:33.8    -169   -249    199    302    361 214.2  36.4  34184  289.99 0855.14
2009/04/23 11:34:33.9      32    -64    179     72    192 152.8  77.1  34202  290.30 0855.14
2009/04/23 11:34:34.0      37   -112    139    118    182 161.7  55.4  34190  290.09 0855.14
2009/04/23 11:34:34.1     169   -249    114    302    322 145.8  21.7  34188  290.05 0855.14
2009/04/23 11:34:34.2     430   -152     -5    457    458 109.5  -0.7  34178  289.88 0855.14
2009/04/23 11:34:34.3     329    -76    232    338    409 103.0  37.8  34182  289.96 0855.14
2009/04/23 11:34:34.4     222    -45    217    227    314 101.5  48.7  34188  290.05 0855.10
2009/04/23 11:34:34.5     147   -138    215    202    295 133.2  52.1  34192  290.12 0855.10
2009/04/23 11:34:34.6     279    -92    208    294    360 108.4  38.7  34182  289.93 0855.10
2009/04/23 11:34:34.7      39   -249    224    253    337 171.1  46.3  34150  289.41 0855.10
2009/04/23 11:34:34.8     215   -210    202    301    362 134.4  37.0  34170  289.74 0855.10
2009/04/23 11:34:34.9     359    -12    152    360    390  92.0  24.2  34182  289.94 0855.10
2009/04/23 11:34:35.0     188   -136    158    233    281 126.0  37.4  34188  290.05 0855.10
2009/04/23 11:34:35.1     167   -133     90    214    232 128.6  24.1  34186  290.01 0855.10
2009/04/23 11:34:35.2      66    -66      0     94     95 135.0   0.2  34188  290.04 0855.10
2009/04/23 11:34:35.3      33    -50    -35     60     69 146.6 -37.9  34190  290.08 0855.10
2009/04/23 11:34:35.4     -13      0     26     14     29 270.0  68.8  34182  289.96 0855.10
2009/04/23 11:34:35.5      14     41    132     44    139  19.2  81.0  34198  290.23 0855.10
2009/04/23 11:34:35.6      88   -248    163    264    310 160.4  35.0  34176  289.83 0855.10
2009/04/23 11:34:35.7     165   -287      6    332    333 150.1   1.1  34178  289.89 0855.10
2009/04/23 11:34:35.8     200    -98   -154    224    271 116.2 -42.0  34184  289.97 0855.10
2009/04/23 11:34:35.9     253   -136      4    288    289 118.4   0.8  34182  289.93 0855.10
2009/04/23 11:34:36.0     120   -162    -29    202    205 143.5  -8.2  34180  289.92 0855.10
2009/04/23 11:34:36.1     199     -9    -46    200    206  92.6 -13.2  34176  289.85 0855.10
2009/04/23 11:34:36.2     189   -125     48    227    233 123.5  12.0  34174  289.80 0855.10
2009/04/23 11:34:36.3     191   -129    202    231    306 124.0  45.8  34166  289.66 0855.10
2009/04/23 11:34:36.4      85   -471    181    479    512 169.7  21.7  34172  289.76 0855.13
2009/04/23 11:34:36.5      96   -326    117    340    360 163.6  19.1  34184  289.99 0855.13
2009/04/23 11:34:36.6     124   -280    -86    307    319 156.2 -15.7  34184  289.97 0855.13
2009/04/23 11:34:36.7     307   -254   -117    399    415 129.6 -21.2  34176  289.85 0855.13
2009/04/23 11:34:36.8     119   -143    -73    187    200 140.3 -26.9  34176  289.84 0855.13
2009/04/23 11:34:36.9      80    -25    -27     85     89 107.7 -23.3  34166  289.67 0855.13
2009/04/23 11:34:37.0      53      0    -17     54     56  90.0 -23.8  34172  289.79 0855.13
2009/04/23 11:34:37.1      -1    -28    -27     29     39 182.7 -53.4  34178  289.87 0855.13
2009/04/23 11:34:37.2    -119   -129    -15    176    177 222.8  -4.9  34170  289.74 0855.13
2009/04/23 11:34:37.3     -21   -209    -58    211    219 186.0 -15.4  34174  289.82 0855.13
2009/04/23 11:34:37.4     106   -166    -19    198    199 147.5  -5.6  34170  289.75 0855.16
2009/04/23 11:34:37.5     169   -181     29    248    250 137.0   6.9  34170  289.73 0855.16
2009/04/23 11:34:37.6     192   -308    129    364    387 148.0  19.6  34154  289.47 0855.16
2009/04/23 11:34:37.7     171   -415    307    449    543 157.6  37.6  34146  289.34 0855.16
2009/04/23 11:34:37.8     116   -235    347    263    435 153.7  59.2  34146  289.35 0855.16
2009/04/23 11:34:37.9     484   -182    307    518    602 110.6  33.5  34160  289.56 0855.16
2009/04/23 11:34:38.0     450   -493    -16    668    669 137.6  -1.4  34154  289.48 0855.16
2009/04/23 11:34:38.1     354   -332     54    486    490 133.1   6.4  34160  289.57 0855.16
2009/04/23 11:34:38.2     372   -347    138    510    529 133.0  15.1  34160  289.57 0855.16
2009/04/23 11:34:38.3     377   -549    225    667    705 145.5  18.7  34156  289.51 0855.16
2009/04/23 11:34:38.4     379   -552    380    670    770 145.5  32.1  34138  289.21 0855.16
2009/04/23 11:34:38.5     112   -492    168    505    533 167.1  18.5  34156  289.51 0855.16
2009/04/23 11:34:38.6     126   -601    212    615    651 168.1  19.1  34160  289.57 0855.16
2009/04/23 11:34:38.7     334   -384     66    509    514 139.0   7.4  34154  289.47 0855.16
2009/04/23 11:34:38.8     297   -429    101    523    533 145.3  11.0  34150  289.41 0855.16
2009/04/23 11:34:38.9     307   -394    189    500    534 142.0  21.6  34144  289.31 0855.16
2009/04/23 11:34:39.0      52   -431    163    435    464 173.0  21.5  34158  289.53 0855.16
2009/04/23 11:34:39.1      76   -555    157    561    583 172.2  15.7  34158  289.54 0855.16
2009/04/23 11:34:39.2     146   -496    255    517    576 163.6  28.2  34156  289.50 0855.16
2009/04/23 11:34:39.3     192   -275    163    336    373 145.0  27.7  34156  289.50 0855.16
2009/04/23 11:34:39.4     238   -292     -1    377    378 140.8  -0.3  34156  289.50 0855.20
2009/04/23 11:34:39.5     268   -242    -14    362    363 132.1  -2.2  34162  289.60 0855.20
2009/04/23 11:34:39.6     313   -160    -30    352    354 117.2  -4.9  34162  289.59 0855.20
2009/04/23 11:34:39.7     369   -203     20    422    423 118.9   2.8  34162  289.60 0855.20
2009/04/23 11:34:39.8     179   -173     38    250    253 134.0   8.8  34164  289.63 0855.20
2009/04/23 11:34:39.9      81   -301    222    312    382 164.9  39.2  34156  289.52 0855.20
2009/04/23 11:34:40.0     190   -115    253    223    337 121.1  54.0  34168  289.70 0855.20
2009/04/23 11:34:40.1     -55   -232    231    239    332 193.4  49.1  34156  289.49 0855.20
2009/04/23 11:34:40.2    -108   -434    318    448    549 194.0  39.0  34160  289.56 0855.20
2009/04/23 11:34:40.3     -10   -414    317    415    522 181.5  41.2  34162  289.61 0855.20
2009/04/23 11:34:40.4      22   -545    201    546    581 177.7  21.0  34162  289.61 0855.20
2009/04/23 11:34:40.5     -68   -487      7    492    493 188.0   0.8  34160  289.56 0855.20
2009/04/23 11:34:40.6     -43   -307   -100    311    326 188.0 -23.0  34160  289.58 0855.20
2009/04/23 11:34:40.7     153   -165    -73    226    237 137.2 -22.8  34160  289.58 0855.20
2009/04/23 11:34:40.8      58   -222     27    230    232 165.3   6.9  34156  289.52 0855.20
2009/04/23 11:34:40.9    -138   -189    177    235    294 216.1  40.7  34166  289.68 0855.20
2009/04/23 11:34:41.0     -12   -297    237    298    380 182.5  42.6  34170  289.74 0855.20
2009/04/23 11:34:41.1       6   -235    168    236    289 178.4  39.1  34174  289.81 0855.20
2009/04/23 11:34:41.2      67   -202    152    214    262 161.5  38.8  34174  289.81 0855.20
2009/04/23 11:34:41.3     -60   -182    123    192    228 198.5  35.6  34170  289.75 0855.20
2009/04/23 11:34:41.4     -77   -230    161    243    291 198.7  36.5  34174  289.80 0855.20
2009/04/23 11:34:41.5    -242   -213    110    323    342 228.7  18.9  34172  289.76 0855.20
2009/04/23 11:34:41.6    -225   -357    138    423    446 212.2  18.1  34162  289.61 0855.20
2009/04/23 11:34:41.7    -117   -309    138    331    358 200.8  23.8  34170  289.74 0855.20
2009/04/23 11:34:41.8    -163   -174    -75    239    251 223.2 -17.5  34160  289.58 0855.20
2009/04/23 11:34:41.9    -234   -229   -118    328    349 225.7 -19.8  34156  289.52 0855.20
2009/04/23 11:34:42.0    -103   -384    108    398    413 195.0  15.3  34168  289.70 0855.20
2009/04/23 11:34:42.1    -195   -301     49    359    363 213.0   7.8  34166  289.69 0855.20
2009/04/23 11:34:42.2    -230   -240     38    333    336 223.8   6.6  34168  289.72 0855.20
2009/04/23 11:34:42.3    -190   -330    127    381    402 209.9  18.5  34164  289.65 0855.20
2009/04/23 11:34:42.4    -141   -289    127    322    346 206.1  22.8  34166  289.67 0855.20
2009/04/23 11:34:42.5    -138   -329    143    357    384 202.8  23.1  34168  289.72 0855.20
2009/04/23 11:34:42.6    -255   -198     25    324    326 232.2   4.5  34168  289.70 0855.20
2009/04/23 11:34:42.7    -261   -177     11    316    317 235.8   2.1  34170  289.73 0855.20
2009/04/23 11:34:42.8    -381   -235    -95    448    459 238.4 -12.0  34172  289.77 0855.20
2009/04/23 11:34:42.9    -315   -220   -143    385    410 235.0 -25.7  34170  289.73 0855.20
2009/04/23 11:34:43.0    -313   -263    -68    410    416 229.9  -9.5  34168  289.72 0855.20
2009/04/23 11:34:43.1    -263   -268     87    376    387 224.4  13.1  34168  289.72 0855.20
2009/04/23 11:34:43.2    -143   -190    110    238    262 217.0  26.4  34168  289.70 0855.20
2009/04/23 11:34:43.3    -140   -198    134    243    277 215.4  31.4  34168  289.71 0855.20
2009/04/23 11:34:43.4      50   -222    113    228    254 167.3  28.2  34168  289.70 0855.21
2009/04/23 11:34:43.5       7   -227     66    228    238 178.2  16.3  34168  289.70 0855.21
2009/04/23 11:34:43.6    -155   -169     26    230    232 222.5   6.5  34170  289.75 0855.21
2009/04/23 11:34:43.7    -187   -154     27    243    245 230.5   6.5  34184  289.97 0855.21
2009/04/23 11:34:43.8    -164    -44     17    170    171 254.9   5.9  34178  289.87 0855.21
2009/04/23 11:34:43.9    -328   -206   -110    388    403 237.9 -20.7  34182  289.96 0855.21
2009/04/23 11:34:44.0    -235    -85   -144    251    289 250.0 -36.8  34186  290.02 0855.21
2009/04/23 11:34:44.1    -123    -39   -146    130    195 252.3 -58.4  34184  289.99 0855.21
2009/04/23 11:34:44.2      12   -194   -192    195    273 176.2 -54.3  34186  290.02 0855.21
2009/04/23 11:34:44.3     124   -317   -295    341    450 158.6 -49.9  34176  289.85 0855.21
2009/04/23 11:34:44.4     225   -310   -189    384    427 144.0 -32.5  34166  289.66 0855.21
2009/04/23 11:34:44.5      48   -339   -188    343    391 171.9 -35.4  34176  289.84 0855.21
2009/04/23 11:34:44.6       4   -197   -189    198    273 178.6 -53.4  34184  289.97 0855.21
2009/04/23 11:34:44.7     102   -140    -86    174    194 143.7 -32.4  34180  289.92 0855.21
2009/04/23 11:34:44.8     116   -162    -76    200    213 144.4 -25.9  34186  290.02 0855.21
2009/04/23 11:34:44.9     194   -158    -46    251    256 129.1 -10.5  34186  290.00 0855.21
2009/04/23 11:34:45.0     189   -177    -93    260    277 133.2 -19.7  34176  289.85 0855.21
2009/04/23 11:34:45.1      81   -122    -44    147    154 146.2 -16.6  34168  289.70 0855.21
2009/04/23 11:34:45.2     117    -62      0    133    134 118.0  -0.3  34162  289.60 0855.21
2009/04/23 11:34:45.3     214     27    121    216    247  82.8  31.6  34176  289.83 0855.21
2009/04/23 11:34:45.4      98     50    110    111    156  62.9  50.0  34170  289.74 0855.21
2009/04/23 11:34:45.5       6     77    102     78    128   4.5  58.5  34176  289.85 0855.21
2009/04/23 11:34:45.6     -71    128     81    147    167 331.0  31.4  34178  289.89 0855.21
2009/04/23 11:34:45.7      -6     95     22     96     99 356.0  13.2  34180  289.91 0855.21
2009/04/23 11:34:45.8      22    120    -53    123    133  10.7 -29.5  34178  289.87 0855.21
2009/04/23 11:34:45.9      75    -21    -61     79     99 105.9 -46.1  34178  289.89 0855.21
2009/04/23 11:34:46.0      74   -222    -99    235    255 161.5 -28.6  34176  289.83 0855.21
2009/04/23 11:34:46.1     131   -168   -137    214    254 142.2 -40.0  34170  289.75 0855.21
2009/04/23 11:34:46.2     199   -131    -46    239    244 123.5 -10.9  34172  289.78 0855.21
2009/04/23 11:34:46.3     144   -130     36    195    199 132.0  10.6  34168  289.70 0855.21
2009/04/23 11:34:46.4      86   -153     93    176    199 150.6  30.1  34172  289.77 0855.21
2009/04/23 11:34:46.5     -32   -213     93    216    235 188.7  24.9  34172  289.77 0855.21
2009/04/23 11:34:46.6       4   -231    137    232    269 179.0  33.4  34176  289.85 0855.21
2009/04/23 11:34:46.7     -80   -314    164    325    364 194.3  28.7  34180  289.91 0855.21
2009/04/23 11:34:46.8    -270   -133     11    302    303 243.8   2.1  34184  289.98 0855.21
2009/04/23 11:34:46.9    -193   -225    155    297    335 220.5  30.0  34172  289.76 0855.21
2009/04/23 11:34:47.0    -163   -187     85    249    264 221.2  18.9  34170  289.75 0855.21
2009/04/23 11:34:47.1     -33   -115     75    120    141 196.0  35.5  34180  289.92 0855.21
2009/04/23 11:34:47.2     -40    -77     32     87     92 207.6  20.4  34186  290.02 0855.21
2009/04/23 11:34:47.3      26     29      6     40     41  41.4   9.0  34182  289.94 0855.20
2009/04/23 11:34:47.4      79    -50    -33     94    100 122.4 -19.7  34176  289.84 0855.20
2009/04/23 11:34:47.5     135   -184     13    229    230 143.7   3.3  34160  289.57 0855.20
2009/04/23 11:34:47.6     113   -209    -69    238    247 151.5 -20.8  34160  289.56 0855.20
2009/04/23 11:34:47.7     117   -184   -122    219    250 147.4 -35.8  34166  289.66 0855.20
2009/04/23 11:34:47.9      89   -242    -84    259    272 159.7 -23.6  34164  289.64 0855.20
2009/04/23 11:34:47.9     148   -223    -54    268    274 146.4 -11.5  34164  289.64 0855.20
2009/04/23 11:34:48.0     108   -149    -31    185    188 144.0  -9.8  34162  289.62 0855.20
2009/04/23 11:34:48.1      62   -123     48    138    147 153.3  19.4  34164  289.65 0855.20
2009/04/23 11:34:48.2      72   -164     63    180    191 156.2  19.4  34166  289.69 0855.20
2009/04/23 11:34:48.3      -7   -150    111    151    187 182.7  39.9  34164  289.63 0855.20
2009/04/23 11:34:48.4      35   -115     90    121    150 163.1  40.1  34162  289.62 0855.20
2009/04/23 11:34:48.5      37   -104     95    111    146 160.4  45.4  34170  289.75 0855.20
2009/04/23 11:34:48.6     113   -107    144    156    212 133.6  47.9  34164  289.65 0855.20
2009/04/23 11:34:48.7     174    -93    114    198    228 118.2  32.7  34168  289.70 0855.20
2009/04/23 11:34:48.8     180   -138     93    227    245 127.5  23.8  34170  289.75 0855.20
2009/04/23 11:34:48.9     163   -166    108    233    256 135.5  26.6  34164  289.63 0855.20
2009/04/23 11:34:49.0     128    -65    123    144    189 117.0  44.5  34166  289.69 0855.20
2009/04/23 11:34:49.1     169    -41    102    174    201 103.7  33.4  34168  289.70 0855.20
2009/04/23 11:34:49.2     142     -9    168    143    220  93.9  55.4  34172  289.77 0855.20
2009/04/23 11:34:49.4     176    -33    122    180    217 100.8  37.6  34170  289.74 0855.20
2009/04/23 11:34:49.4     221     14    178    222    284  86.3  43.0  34170  289.73 0855.20
2009/04/23 11:34:49.5     176    -14    211    177    275  94.6  55.8  34170  289.75 0855.20
2009/04/23 11:34:49.6     161      2    180    162    242  89.2  53.3  34164  289.63 0855.20
2009/04/23 11:34:49.7      44     -5    140     45    147  97.0  80.7  34178  289.89 0855.20
2009/04/23 11:34:49.8     185     62    183    196    268  71.4  47.9  34174  289.80 0855.20
2009/04/23 11:34:49.9     180     98    190    206    280  61.4  47.7  34182  289.93 0855.20
2009/04/23 11:34:50.0     202     78    244    217    326  68.7  53.9  34180  289.92 0855.20
2009/04/23 11:34:50.1     347     94    122    360    381  74.7  18.8  34192  290.11 0855.20
2009/04/23 11:34:50.2     209    267    181    340    385  38.1  30.3  34188  290.06 0855.20
2009/04/23 11:34:50.3     180    260    198    317    373  34.7  35.1  34188  290.03 0855.20
2009/04/23 11:34:50.4     201    248    272    320    419  39.0  44.7  34180  289.91 0855.20
2009/04/23 11:34:50.6     322     65    140    329    357  78.5  24.5  34182  289.93 0855.20
2009/04/23 11:34:50.6     430     18     84    431    440  87.5  11.1  34168  289.72 0855.20
2009/04/23 11:34:50.8     412    133     76    434    441  72.1  10.0  34190  290.09 0855.20
2009/04/23 11:34:50.9     371    130    139    394    419  70.7  19.5  34202  290.29 0855.20
2009/04/23 11:34:51.0     460    209    200    506    544  65.6  22.9  34214  290.50 0855.20
2009/04/23 11:34:51.1     422    267     97    500    510  57.7  11.0  34206  290.35 0855.20
2009/04/23 11:34:51.2     338    297      2    451    452  48.7   0.4  34202  290.28 0855.20
2009/04/23 11:34:51.3     363    345    -40    501    503  46.5  -4.6  34206  290.35 0855.20
2009/04/23 11:34:51.4     357    302    -84    468    476  49.8 -10.3  34172  289.76 0855.19
2009/04/23 11:34:51.5     363    234     66    433    439  57.2   8.7  34176  289.85 0855.19
2009/04/23 11:34:51.6     282    248    154    376    406  48.7  23.6  34174  289.82 0855.19
2009/04/23 11:34:51.7     326    236    262    403    480  54.0  36.0  34214  290.48 0855.19
2009/04/23 11:34:51.8     374    159    267    407    486  66.9  36.3  34220  290.58 0855.19
2009/04/23 11:34:51.9     429    154    225    456    508  70.2  28.2  34178  289.89 0855.19
2009/04/23 11:34:52.0     461    171    158    492    517  69.6  17.8  34182  289.95 0855.19
2009/04/23 11:34:52.1     484    146     63    506    510  73.2   7.1  34188  290.03 0855.19
2009/04/23 11:34:52.2     313    218    220    382    440  55.1  32.6  34226  290.68 0855.19
2009/04/23 11:34:52.3     301    248    270    390    474  50.5  38.0  34232  290.78 0855.19
2009/04/23 11:34:52.4     429    141    253    452    517  71.7  31.6  34218  290.56 0855.19
2009/04/23 11:34:52.5     424    109    181    438    473  75.5  23.8  34218  290.55 0855.19
2009/04/23 11:34:52.6     421    120    111    438    453  74.1  14.3  34250  291.09 0855.19
2009/04/23 11:34:52.7     364    135    297    389    489  69.6  41.2  34258  291.23 0855.19
2009/04/23 11:34:52.8     484    162    295    511    590  71.4  32.7  34250  291.11 0855.19
2009/04/23 11:34:52.9     442    188    296    481    564  66.9  34.5  34266  291.38 0855.19
2009/04/23 11:34:53.0     403     96    327    415    528  76.5  42.2  34256  291.19 0855.19
2009/04/23 11:34:53.1     574    161    117    597    609  74.3  11.1  34212  290.47 0855.19
2009/04/23 11:34:53.2     439    297    177    531    561  55.9  18.5  34216  290.52 0855.19
2009/04/23 11:34:53.3     384    292    170    483    513  52.8  19.4  34198  290.23 0855.19
2009/04/23 11:34:53.4     233    304    114    384    401  37.5  16.5  34212  290.45 0855.20
2009/04/23 11:34:53.5     292    394    115    491    505  36.6  13.2  34188  290.05 0855.20
2009/04/23 11:34:53.6     274    365    177    457    490  36.9  22.4  34188  290.06 0855.20
2009/04/23 11:34:53.7     233    169    228    289    368  54.0  42.3  34204  290.33 0855.20
2009/04/23 11:34:53.8     191    278    252    338    421  34.6  40.6  34192  290.10 0855.20
2009/04/23 11:34:53.9     289    174    211    338    398  59.0  35.0  34202  290.30 0855.20
2009/04/23 11:34:54.0     242    150    113    285    306  58.2  23.0  34186  290.00 0855.20
2009/04/23 11:34:54.1     207    117    230    239    331  60.5  48.8  34202  290.27 0855.20
2009/04/23 11:34:54.2     331     58    222    337    403  80.0  36.5  34232  290.81 0855.20
2009/04/23 11:34:54.3     346     63    321    352    476  79.6  47.0  34242  290.95 0855.20
2009/04/23 11:34:54.4     378     30    302    380    485  85.4  42.6  34238  290.89 0855.20
2009/04/23 11:34:54.5     440     39    202    442    485  84.8  26.3  34258  291.25 0855.20
2009/04/23 11:34:54.6     330     83    423    341    543  75.8  57.0  34266  291.36 0855.20
2009/04/23 11:34:54.7     321    196    369    377    527  58.6  49.4  34274  291.51 0855.20
2009/04/23 11:34:54.8     319     86    362    331    490  74.8  53.0  34260  291.28 0855.20
2009/04/23 11:34:54.9     295    194    249    354    432  56.7  38.6  34252  291.12 0855.20
2009/04/23 11:34:55.0     363    132    338    387    513  69.9  45.7  34260  291.27 0855.20
2009/04/23 11:34:55.1     600    200    276    633    690  71.5  25.1  34218  290.55 0855.20
2009/04/23 11:34:55.2     581    234    308    627    698  68.1  28.0  34226  290.68 0855.20
2009/04/23 11:34:55.3     446    167    366    477    601  69.4  41.5  34252  291.14 0855.20
2009/04/23 11:34:55.4     439    131    440    459    635  73.4  48.7  34238  290.88 0855.21
2009/04/23 11:34:55.5     473    157    483    499    694  71.6  49.1  34276  291.54 0855.21
2009/04/23 11:34:55.6     538    187    348    570    667  70.8  34.3  34230  290.76 0855.21
2009/04/23 11:34:55.7     544    106    399    555    683  78.9  39.3  34254  291.18 0855.21
2009/04/23 11:34:55.8     388    144    377    414    559  69.6  47.0  34246  291.02 0855.21
2009/04/23 11:34:55.9     472    310    226    565    608  56.7  23.0  34212  290.44 0855.21
2009/04/23 11:34:56.0     491    274    282    563    629  60.9  28.6  34230  290.76 0855.21
2009/04/23 11:34:56.1     456    269    314    530    616  59.4  33.5  34222  290.61 0855.21
2009/04/23 11:34:56.2     530    235    277    580    642  66.0  27.3  34230  290.76 0855.21
2009/04/23 11:34:56.3     536    207    237    575    621  68.8  23.6  34218  290.54 0855.21
2009/04/23 11:34:56.4     510    217    182    555    585  67.0  18.1  34202  290.27 0855.21
2009/04/23 11:34:56.5     501     97    117    511    525  79.0  12.9  34190  290.09 0855.21
2009/04/23 11:34:56.6     455    149    245    479    538  71.8  29.2  34208  290.38 0855.21
2009/04/23 11:34:56.7     447    146    205    471    513  71.8  25.1  34196  290.18 0855.21
2009/04/23 11:34:56.8     508     15    147    509    530  88.2  16.1  34176  289.85 0855.21
2009/04/23 11:34:56.9     615   -102    113    624    635  99.5  10.3  34172  289.77 0855.21
2009/04/23 11:34:57.0     561   -124    169    575    600 102.5  16.4  34166  289.66 0855.21
2009/04/23 11:34:57.1     492   -152    180    516    546 107.2  20.0  34172  289.79 0855.21
2009/04/23 11:34:57.2     409    -64    229    415    473  99.0  31.4  34168  289.70 0855.21
2009/04/23 11:34:57.3     330   -127    245    354    430 111.1  37.9  34172  289.77 0855.21
2009/04/23 11:34:57.4     330   -120    247    352    430 110.1  38.5  34176  289.83 0855.22
2009/04/23 11:34:57.5     307   -103    292    324    436 108.6  46.8  34178  289.87 0855.22
2009/04/23 11:34:57.6     252     30    341    254    425  83.0  59.8  34220  290.59 0855.22
2009/04/23 11:34:57.7     477     -7    329    478    580  90.9  37.8  34230  290.75 0855.22
2009/04/23 11:34:57.8     315    -54    209    320    382  99.9  36.0  34230  290.76 0855.22
2009/04/23 11:34:57.9     360    124    222    381    440  70.9  32.9  34214  290.48 0855.22
2009/04/23 11:34:58.0     380     76    222    388    447  78.6  32.4  34232  290.78 0855.22
2009/04/23 11:34:58.1     450    174    168    483    511  68.8  20.0  34208  290.40 0855.22
2009/04/23 11:34:58.2     464    128    189    482    517  74.5  22.5  34226  290.68 0855.22
2009/04/23 11:34:58.3     310    -39    255    313    403  97.2  43.5  34218  290.57 0855.22
2009/04/23 11:34:58.4     136   -133    200    191    276 134.4  51.4  34228  290.73 0855.19
2009/04/23 11:34:58.5     135   -164    219    213    305 140.4  50.7  34214  290.49 0855.19
2009/04/23 11:34:58.6     284    -86    232    297    376 106.9  41.9  34218  290.57 0855.19
2009/04/23 11:34:58.7     292    -97    197    308    365 108.4  35.6  34218  290.54 0855.19
2009/04/23 11:34:58.8     248    -57    195    255    321 103.0  41.2  34218  290.54 0855.19
2009/04/23 11:34:58.9     126   -184    163    224    277 145.5  39.7  34214  290.48 0855.19
2009/04/23 11:34:59.0     266   -220    210    346    404 129.6  34.2  34208  290.40 0855.19
2009/04/23 11:34:59.1     297   -113    212    318    382 110.9  36.9  34214  290.50 0855.19
2009/04/23 11:34:59.2     299   -141    187    331    380 115.4  32.0  34208  290.40 0855.19
2009/04/23 11:34:59.3     236   -145    128    278    306 121.6  26.6  34198  290.22 0855.19
2009/04/23 11:34:59.4     201   -227    157    304    342 138.6  29.4  34198  290.21 0855.19
2009/04/23 11:34:59.5      66   -229    169    239    292 164.0  38.8  34208  290.37 0855.19
2009/04/23 11:34:59.6     230   -258    226    346    413 138.3  36.3  34206  290.35 0855.19
2009/04/23 11:34:59.7     186   -182    198    261    327 134.4  41.1  34212  290.44 0855.19
2009/04/23 11:34:59.8      -6   -309    272    310    412 181.1  45.8  34184  289.99 0855.19
2009/04/23 11:34:59.9      -4   -483    183    484    517 180.5  21.6  34206  290.34 0855.19
2009/04/23 11:35:00.0    -191   -478    178    515    545 201.8  19.1  34268  291.40 0855.19
2009/04/23 11:35:00.1    -302   -523    130    604    618 210.0  12.2  34206  290.36 0855.19
2009/04/23 11:35:00.2    -247   -519    211    575    612 205.5  21.0  34196  290.17 0855.19
2009/04/23 11:35:00.3    -279   -437    227    519    566 212.6  25.2  34202  290.28 0855.19
2009/04/23 11:35:00.4     -79   -533     85    539    546 188.5   9.0  34202  290.30 0855.18
2009/04/23 11:35:00.5    -119   -487    -21    502    503 193.8  -2.5  34216  290.51 0855.18
2009/04/23 11:35:00.6    -137   -421     41    443    446 198.1   5.3  34198  290.21 0855.18
2009/04/23 11:35:00.7    -195   -373     32    422    424 207.6   4.4  34214  290.50 0855.18
2009/04/23 11:35:00.8    -175   -334   -113    378    395 207.7 -16.6  34214  290.49 0855.18
2009/04/23 11:35:00.9    -112   -339   -155    358    390 198.3 -29.3  34198  290.20 0855.18
2009/04/23 11:35:01.0    -288   -269    -92    395    406 227.0 -13.2  34194  290.16 0855.18
2009/04/23 11:35:01.1    -243   -292   -107    381    395 219.8 -20.4  34214  290.50 0855.18
2009/04/23 11:35:01.2    -121   -223   -130    254    285 208.5 -33.6  34210  290.41 0855.18
2009/04/23 11:35:01.3    -150   -150     10    213    214 225.0   2.8  34196  290.18 0855.18
2009/04/23 11:35:01.4    -195   -171    -39    260    263 228.7  -8.6  34172  289.78 0855.18
2009/04/23 11:35:01.5    -281   -156    -87    322    334 240.9 -15.2  34168  289.72 0855.18
2009/04/23 11:35:01.6    -290   -116    -82    313    324 248.2 -14.7  34162  289.61 0855.18
2009/04/23 11:35:01.7    -293   -123   -164    318    357 247.2 -33.8  34138  289.21 0855.18
2009/04/23 11:35:01.8    -287   -105   -189    306    359 249.8 -39.2  34142  289.25 0855.18
2009/04/23 11:35:01.9    -147   -231    -73    274    284 212.5 -15.0  34142  289.27 0855.18
2009/04/23 11:35:02.0    -169   -174     73    243    254 224.1  16.8  34150  289.41 0855.18
2009/04/23 11:35:02.1    -263   -188    -12    324    325 234.5  -2.2  34150  289.39 0855.18
2009/04/23 11:35:02.2    -224   -183    -36    290    293 230.7  -7.2  34152  289.44 0855.18
2009/04/23 11:35:02.3    -245   -150    -47    288    292 238.5  -9.3  34172  289.76 0855.18
2009/04/23 11:35:02.4    -277   -162    -50    322    326 239.6  -8.9  34192  290.12 0855.15
2009/04/23 11:35:02.5    -178   -157     43    238    242 228.4  10.3  34204  290.31 0855.15
2009/04/23 11:35:02.6    -205   -180     82    274    287 228.7  16.8  34202  290.29 0855.15
2009/04/23 11:35:02.7    -211   -292      3    361    362 215.8   0.5  34236  290.86 0855.15
2009/04/23 11:35:02.8    -214   -171    -13    274    275 231.4  -2.8  34224  290.66 0855.15
2009/04/23 11:35:02.9    -122   -171    -37    211    215 215.6 -10.1  34194  290.14 0855.15
2009/04/23 11:35:03.0     -90   -237     -5    254    255 201.0  -1.2  34228  290.71 0855.15
2009/04/23 11:35:03.1      23   -197     28    199    202 173.1   8.0  34230  290.75 0855.15
2009/04/23 11:35:03.2     -32   -241    -22    244    246 187.6  -5.4  34220  290.58 0855.15
2009/04/23 11:35:03.3     -92   -281    -93    296    311 198.3 -17.6  34204  290.32 0855.15
2009/04/23 11:35:03.4     -80   -255   -114    268    291 197.4 -29.0  34160  289.56 0855.15
2009/04/23 11:35:03.5     -88   -145   -118    170    206 211.2 -42.4  34166  289.69 0855.15
2009/04/23 11:35:03.6    -167   -139    -69    218    228 230.2 -22.8  34214  290.48 0855.15
2009/04/23 11:35:03.7    -177   -102   -143    205    249 240.0 -42.9  34204  290.32 0855.15
2009/04/23 11:35:03.8    -192    -93    -33    214    217 244.2  -8.8  34200  290.26 0855.15
2009/04/23 11:35:03.9    -122   -136    104    184    211 221.9  32.1  34206  290.36 0855.15
2009/04/23 11:35:04.0    -130   -147     56    197    206 221.4  16.0  34208  290.40 0855.15
2009/04/23 11:35:04.1    -177   -131      4    221    222 233.4   1.2  34200  290.26 0855.15
2009/04/23 11:35:04.2    -115   -180     42    214    219 212.6  11.1  34206  290.35 0855.15
2009/04/23 11:35:04.3    -139   -287    123    320    342 205.9  22.2  34202  290.30 0855.15
2009/04/23 11:35:04.4    -193   -405    162    449    478 205.5  19.9  34196  290.17 0855.17
2009/04/23 11:35:04.5    -118   -415    196    432    474 195.9  26.2  34198  290.21 0855.17
2009/04/23 11:35:04.6     -43   -365     91    368    380 186.8  13.9  34196  290.18 0855.17
2009/04/23 11:35:04.7     -29   -375     65    377    383 184.5   9.9  34188  290.03 0855.17
2009/04/23 11:35:04.8     -29   -349     14    351    352 184.8   2.3  34194  290.16 0855.17
2009/04/23 11:35:04.9       8   -378     24    379    380 178.8   3.6  34194  290.16 0855.17
2009/04/23 11:35:05.0      24   -377    -18    378    379 176.3  -2.8  34184  289.99 0855.17
2009/04/23 11:35:05.1      56   -350     22    355    356 170.9   3.6  34178  289.87 0855.17
2009/04/23 11:35:05.2      89   -371     39    382    385 166.5   5.9  34174  289.82 0855.17
2009/04/23 11:35:05.3      53   -303     15    308    309 170.0   2.9  34174  289.80 0855.17
2009/04/23 11:35:05.4      45   -332    -18    336    337 172.2  -3.2  34174  289.81 0855.17
2009/04/23 11:35:05.5      74   -389     66    397    403 169.2   9.4  34168  289.71 0855.17
2009/04/23 11:35:05.6      91   -369    108    381    397 166.1  15.8  34164  289.64 0855.17
2009/04/23 11:35:05.7     167   -361     19    398    399 155.2   2.8  34166  289.69 0855.17
2009/04/23 11:35:05.8     125   -357     71    379    386 160.7  10.7  34168  289.71 0855.17
2009/04/23 11:35:05.9     178   -301     33    350    352 149.4   5.4  34166  289.69 0855.17
2009/04/23 11:35:06.0      64   -346    109    352    369 169.5  17.3  34170  289.74 0855.17
2009/04/23 11:35:06.1     109   -285    123    306    329 159.1  22.9  34162  289.61 0855.17
2009/04/23 11:35:06.2      91   -339    157    352    385 164.9  25.7  34152  289.43 0855.17
2009/04/23 11:35:06.3     116   -307    220    329    395 159.2  37.0  34158  289.54 0855.17
2009/04/23 11:35:06.4      25   -257    230    259    346 174.4  46.3  34160  289.58 0855.19
2009/04/23 11:35:06.5      72   -148    158    165    228 154.1  48.7  34166  289.67 0855.19
2009/04/23 11:35:06.6      84    -79    153    116    192 133.6  59.0  34172  289.79 0855.19
2009/04/23 11:35:06.7     166    -59    104    177    205 109.5  33.4  34174  289.80 0855.19
2009/04/23 11:35:06.8     217   -128     84    253    267 120.6  18.5  34168  289.71 0855.19
2009/04/23 11:35:06.9     216    -94    143    236    275 113.5  34.0  34168  289.71 0855.19
2009/04/23 11:35:07.0     187   -120    105    223    246 122.6  27.1  34170  289.75 0855.19
2009/04/23 11:35:07.1     132   -114    118    175    211 130.9  37.3  34174  289.82 0855.19
2009/04/23 11:35:07.2     154   -108    164    189    250 125.1  45.4  34170  289.74 0855.19
2009/04/23 11:35:07.3     158    -95    102    185    211 121.1  31.3  34174  289.82 0855.19
2009/04/23 11:35:07.4     129   -109     98    170    196 130.2  32.4  34160  289.58 0855.19
2009/04/23 11:35:07.5      98   -104    115    144    184 136.8  42.7  34162  289.60 0855.19
2009/04/23 11:35:07.6      68    -58     92     90    128 130.4  50.1  34180  289.91 0855.19
2009/04/23 11:35:07.7     115    -57     95    129    160 116.6  40.1  34174  289.80 0855.19
2009/04/23 11:35:07.8      76    -60     86     97    129 128.2  45.8  34172  289.77 0855.19
2009/04/23 11:35:07.9      21    -40     82     46     94 152.8  67.7  34186  290.01 0855.19
2009/04/23 11:35:08.0      -1    -30     81     31     86 182.6  78.6  34194  290.14 0855.19
2009/04/23 11:35:08.1      36    -18     82     41     91 117.1  71.9  34180  289.92 0855.19
2009/04/23 11:35:08.2      45    -94     97    105    142 154.6  47.9  34176  289.85 0855.19
2009/04/23 11:35:08.3      23   -109    126    112    168 168.0  53.7  34170  289.74 0855.19
2009/04/23 11:35:08.4     -10    -94    133     95    163 186.2  61.1  34164  289.63 0855.21
2009/04/23 11:35:08.5      65    -21     77     69    103 108.6  52.7  34174  289.80 0855.21
2009/04/23 11:35:08.6      13      0     84     14     85  90.0  90.0  34176  289.85 0855.21
2009/04/23 11:35:08.7     -26    -28    118     39    124 223.4  80.7  34186  290.02 0855.21
2009/04/23 11:35:08.8     -14    -43    131     46    138 198.3  80.2  34188  290.04 0855.21
2009/04/23 11:35:08.9      21      0     96     22     98  90.0  87.5  34196  290.19 0855.21
2009/04/23 11:35:09.0      53    -17    107     56    120 108.6  70.8  34206  290.35 0855.21
2009/04/23 11:35:09.1      20     91    112     94    146  12.9  56.3  34204  290.33 0855.21
2009/04/23 11:35:09.2     125     53    160    136    209  66.9  55.6  34256  291.20 0855.21
2009/04/23 11:35:09.3      58     40    146     71    162  54.9  72.4  34272  291.49 0855.21
2009/04/23 11:35:09.4     -76    128    153    150    214 329.2  50.2  34210  290.41 0855.21
2009/04/23 11:35:09.5    -154     31    173    158    234 281.5  52.7  34234  290.84 0855.21
2009/04/23 11:35:09.6    -129     61    162    143    216 295.4  54.2  34246  291.04 0855.21
2009/04/23 11:35:09.7     -88    -22    115     91    146 255.8  56.9  34218  290.57 0855.21
2009/04/23 11:35:09.8       0   -131    143    132    194 180.4  52.2  34198  290.21 0855.21
2009/04/23 11:35:09.9     -21   -152    177    154    234 188.0  54.6  34180  289.92 0855.21
2009/04/23 11:35:10.0      -2   -142    183    143    232 181.0  58.2  34176  289.84 0855.21
2009/04/23 11:35:10.1     -20   -166    181    168    246 186.9  52.2  34176  289.84 0855.21
2009/04/23 11:35:10.2      26   -161    148    164    220 170.7  46.9  34170  289.74 0855.21
2009/04/23 11:35:10.3     103   -161    181    192    263 147.4  48.2  34184  289.98 0855.21
2009/04/23 11:35:10.4      48    -45    109     67    127 133.2  65.1  34194  290.14 0855.22
2009/04/23 11:35:10.5      15    -45    124     48    132 160.8  78.2  34194  290.14 0855.22
2009/04/23 11:35:10.6      -8   -108    140    109    177 184.4  58.2  34184  289.99 0855.22
2009/04/23 11:35:10.7       5    -54    146     55    156 174.7  79.1  34198  290.23 0855.22
2009/04/23 11:35:10.8     -17    -18    111     25    113 223.4  88.0  34214  290.48 0855.22
2009/04/23 11:35:10.9      88    -12    147     89    171  97.9  65.7  34248  291.06 0855.22
2009/04/23 11:35:11.0      59      4    154     60    165  85.6  77.8  34286  291.71 0855.22
2009/04/23 11:35:11.1     180    -60    177    190    259 108.6  47.9  34260  291.26 0855.22
2009/04/23 11:35:11.2     188     27     79    191    206  81.6  23.8  34256  291.21 0855.22
2009/04/23 11:35:11.3     218     26     -8    220    221  83.0  -2.2  34262  291.32 0855.22
2009/04/23 11:35:11.4     377    110    240    393    460  73.7  34.4  34270  291.43 0855.22
2009/04/23 11:35:11.5     389    128    184    410    449  71.7  25.9  34266  291.36 0855.22
2009/04/23 11:35:11.6     514    137    226    533    578  75.0  24.3  34242  290.96 0855.22
2009/04/23 11:35:11.7     560    104    259    570    626  79.4  26.0  34256  291.21 0855.22
2009/04/23 11:35:11.8     657    161    260    677    725  76.2  22.1  34234  290.84 0855.22
2009/04/23 11:35:11.9     524    111    247    536    590  78.0  26.5  34232  290.80 0855.22
2009/04/23 11:35:12.0     531    -42    371    533    649  94.6  38.3  34226  290.68 0855.22
2009/04/23 11:35:12.1     429   -254    443    499    667 120.7  46.2  34188  290.04 0855.22
2009/04/23 11:35:12.2     330   -250    430    415    597 127.2  51.2  34174  289.80 0855.22
2009/04/23 11:35:12.3     243    169    403    297    500  55.1  60.0  34204  290.31 0855.20
2009/04/23 11:35:12.4     455    119    115    471    485  75.3  13.8  34206  290.35 0855.20
2009/04/23 11:35:12.5      99      4    218    100    239  87.4  74.0  34230  290.75 0855.20
2009/04/23 11:35:12.6     226    -38    230    230    325  99.6  50.1  34236  290.87 0855.20
2009/04/23 11:35:12.7     280     12    271    281    390  87.4  49.0  34210  290.43 0855.20
2009/04/23 11:35:12.8      70      5    185     71    198  85.6  78.2  34226  290.69 0855.20
2009/04/23 11:35:12.9      74   -250    276    261    379 163.5  52.0  34188  290.04 0855.20
2009/04/23 11:35:13.0     127   -259    269    289    394 153.7  47.8  34178  289.87 0855.20
2009/04/23 11:35:13.1      63    -40    147     75    165 122.4  70.8  34188  290.04 0855.20
2009/04/23 11:35:13.2      74    -31    145     81    166 112.6  68.3  34190  290.08 0855.20
2009/04/23 11:35:13.3       0    -30    118     31    122 180.9  84.9  34182  289.96 0855.20
2009/04/23 11:35:13.4      25    -76    186     81    202 161.7  75.0  34192  290.11 0855.20
2009/04/23 11:35:13.5      39    -61    177     73    191 147.5  76.6  34188  290.06 0855.20
2009/04/23 11:35:13.6      97   -232    185    252    312 157.3  39.9  34176  289.85 0855.20
2009/04/23 11:35:13.7      -2   -232    240    233    334 180.5  51.1  34180  289.90 0855.20
2009/04/23 11:35:13.8      59   -185    207    195    284 162.2  52.1  34182  289.93 0855.20
2009/04/23 11:35:13.9     145   -268    213    305    372 151.5  38.5  34176  289.84 0855.20
2009/04/23 11:35:14.0     146   -219    185    264    322 146.2  38.4  34178  289.88 0855.20
2009/04/23 11:35:14.1     130   -170    110    215    241 142.6  29.2  34178  289.88 0855.20
2009/04/23 11:35:14.2     140   -265    204    300    362 152.1  37.6  34178  289.87 0855.20
2009/04/23 11:35:14.3     118   -274    153    299    335 156.6  29.3  34174  289.80 0855.22
2009/04/23 11:35:14.4     157   -386    120    417    435 157.8  16.1  34168  289.72 0855.22
2009/04/23 11:35:14.5      42   -328    253    331    416 172.7  41.3  34182  289.93 0855.22
2009/04/23 11:35:14.6      58   -255    176    262    315 167.1  37.2  34176  289.83 0855.22
2009/04/23 11:35:14.7      31   -185    180    188    260 170.4  48.7  34178  289.86 0855.22
2009/04/23 11:35:14.8     178      8    148    179    232  87.4  43.8  34182  289.94 0855.22
2009/04/23 11:35:14.9     227     30    150    230    274  82.3  36.3  34188  290.03 0855.22
2009/04/23 11:35:15.0     174    -68     95    188    210 111.5  28.7  34186  290.02 0855.22
2009/04/23 11:35:15.1     206   -107    111    233    258 117.5  27.3  34186  290.00 0855.22
2009/04/23 11:35:15.2     205    -41     93    210    229 101.5  25.3  34190  290.09 0855.22
2009/04/23 11:35:15.3     127     66     50    144    153  62.5  19.4  34192  290.13 0855.22
2009/04/23 11:35:15.4     -12     31     85     34     91 338.2  77.6  34206  290.35 0855.22
2009/04/23 11:35:15.5      23    -53    118     58    131 156.4  72.4  34206  290.35 0855.22
2009/04/23 11:35:15.6      33    -99     95    105    141 161.3  47.5  34190  290.09 0855.22
2009/04/23 11:35:15.7      78   -145     82    165    184 151.5  28.2  34186  290.02 0855.22
2009/04/23 11:35:15.8      91   -234     89    252    268 158.8  19.6  34184  289.97 0855.22
2009/04/23 11:35:15.9     146   -165     88    221    237 138.3  23.0  34184  289.99 0855.22
2009/04/23 11:35:16.0      33   -172     88    176    196 168.9  28.5  34184  289.97 0855.22
2009/04/23 11:35:16.1      38   -132     53    138    147 164.0  22.0  34188  290.04 0855.22
2009/04/23 11:35:16.2      28    -70     62     76     98 158.2  43.7  34194  290.14 0855.22
2009/04/23 11:35:16.3      68    -15     67     70     96 102.4  49.4  34192  290.11 0855.22
2009/04/23 11:35:16.4      88    -25     66     92    113 106.4  39.5  34192  290.11 0855.22
2009/04/23 11:35:16.5     115     17    111    117    161  81.6  48.7  34190  290.08 0855.22
2009/04/23 11:35:16.6     110    137     -6    176    177  38.7  -2.2  34188  290.04 0855.22
2009/04/23 11:35:16.8     128    128    -51    182    190  45.1 -15.8  34192  290.11 0855.22
2009/04/23 11:35:16.8     110      4    125    111    167  87.9  53.7  34200  290.25 0855.22
2009/04/23 11:35:16.9      28      9     45     30     54  71.4  63.6  34208  290.38 0855.22
2009/04/23 11:35:17.0      10     10     18     15     23  45.0  54.3  34206  290.35 0855.22
2009/04/23 11:35:17.2      14     85     -6     87     88   9.3  -4.1  34200  290.26 0855.22
2009/04/23 11:35:17.3      69     23     -9     73     74  71.4  -7.3  34196  290.18 0855.22
2009/04/23 11:35:17.4     157     38     28    162    165  76.1  10.1  34194  290.16 0855.22
2009/04/23 11:35:17.5     123      3     44    124    131  88.3  20.0  34194  290.14 0855.22
2009/04/23 11:35:17.6     189     97     14    213    214  62.9   3.8  34192  290.11 0855.22
2009/04/23 11:35:17.7     201     15    -33    202    205  85.6  -9.4  34194  290.14 0855.22
2009/04/23 11:35:17.8     249     73     31    260    262  73.6   6.9  34202  290.29 0855.22
2009/04/23 11:35:17.9     261     44     94    265    281  80.3  20.0  34244  290.99 0855.22
2009/04/23 11:35:18.0     167     36    117    171    207  77.8  37.6  34240  290.94 0855.22
2009/04/23 11:35:18.1     165     34    169    169    239  78.1  50.1  34244  291.01 0855.22
2009/04/23 11:35:18.2     129     56    146    141    202  66.5  50.9  34250  291.11 0855.22
2009/04/23 11:35:18.3      25     40    144     48    151  31.6  81.0  34266  291.38 0855.22
2009/04/23 11:35:18.4       7      0     94     62    112 360.0  64.1  34270  291.45 0855.22
2009/04/23 11:35:18.5      85    133     85    159    180  32.6  30.6  34264  291.33 0855.22
2009/04/23 11:35:18.6     103    116     64    156    168  41.5  23.6  34260  291.26 0855.22
2009/04/23 11:35:18.7      76     54     66     94    114  54.5  38.6  34262  291.32 0855.22
2009/04/23 11:35:18.8      48     69      4     85     86  34.7   3.3  34246  291.03 0855.22
2009/04/23 11:35:18.9      23     58    -18     63     66  21.9 -16.6  34224  290.65 0855.22
2009/04/23 11:35:19.0      28     87     11     92     93  18.3   6.9  34226  290.70 0855.22
2009/04/23 11:35:19.1      21    104     33    107    113  11.5  17.3  34230  290.77 0855.22
2009/04/23 11:35:19.2      14     74     37     76     84  10.7  27.8  34226  290.69 0855.22
2009/04/23 11:35:19.3     -25    124     20    127    129 348.4   9.0  34234  290.84 0855.22
2009/04/23 11:35:19.4     -61    128      5    142    143 334.5   2.3  34236  290.86 0855.22
2009/04/23 11:35:19.5     -62    131     64    145    158 334.7  25.1  34234  290.84 0855.22
2009/04/23 11:35:19.6    -103    109     64    151    164 316.7  24.1  34230  290.75 0855.22
2009/04/23 11:35:19.7    -137    170     76    219    232 321.0  19.2  34226  290.70 0855.22
2009/04/23 11:35:19.8    -118    232     36    261    264 333.0   8.0  34216  290.53 0855.22
2009/04/23 11:35:19.9       2    152     51    153    162   1.0  18.4  34216  290.53 0855.22
2009/04/23 11:35:20.0     -48    200    150    206    254 346.4  39.7  34224  290.66 0855.22
2009/04/23 11:35:20.1     -97    262     93    280    296 339.5  18.4  34178  289.86 0855.22
2009/04/23 11:35:20.2    -137    237    -65    274    282 329.9 -13.4  34182  289.95 0855.22
2009/04/23 11:35:20.3    -249    -25   -123    251    279 264.1 -32.6  34188  290.03 0855.22
2009/04/23 11:35:20.4    -227   -121      2    258    259 242.0   0.5  34196  290.19 0855.24
2009/04/23 11:35:20.5    -216    -60    -50    225    231 254.3 -12.6  34210  290.43 0855.24
2009/04/23 11:35:20.6    -196    -99    -69    220    231 243.1 -17.5  34222  290.62 0855.24
2009/04/23 11:35:20.7    -210    -42    -16    215    216 258.5  -4.4  34220  290.58 0855.24
2009/04/23 11:35:20.8    -131     26     64    134    148 281.5  27.3  34210  290.41 0855.24
2009/04/23 11:35:20.9    -173     82    128    192    230 295.4  36.5  34216  290.53 0855.24
2009/04/23 11:35:21.0    -127     44    142    135    195 289.1  51.6  34224  290.65 0855.24
2009/04/23 11:35:21.1    -274     16     66    275    283 273.4  13.7  34216  290.53 0855.24
2009/04/23 11:35:21.2    -234    -70     -7    245    246 253.4  -1.8  34220  290.58 0855.24
2009/04/23 11:35:21.3    -122    -75     12    144    145 238.5   4.9  34222  290.64 0855.24
2009/04/23 11:35:21.4     -74     13     94     76    120 280.6  56.4  34234  290.82 0855.24
2009/04/23 11:35:21.5     -41     41    133     58    145 315.0  75.0  34242  290.98 0855.24
2009/04/23 11:35:21.6       0     52     86     53    101   0.0  65.1  34230  290.75 0855.24
2009/04/23 11:35:21.7      15     -1    115     16    116  94.3  90.0  34216  290.53 0855.24
2009/04/23 11:35:21.8      63    -63     95     90    130 135.0  51.6  34212  290.45 0855.24
2009/04/23 11:35:21.9      83    -38     26     92     96 114.8  16.3  34212  290.47 0855.24
2009/04/23 11:35:22.0      43     11     29     45     53  74.9  35.6  34212  290.47 0855.24
2009/04/23 11:35:22.1     -70    -39     79     81    113 241.1  50.0  34198  290.23 0855.24
2009/04/23 11:35:22.2     -42     42      1     60     61 315.0   1.8  34224  290.67 0855.24
2009/04/23 11:35:22.3       0     -7     99      8     99 182.7  90.0  34226  290.69 0855.24
2009/04/23 11:35:22.4     -24      1     71     25     75 274.4  81.2  34222  290.64 0855.24
2009/04/23 11:35:22.5     -23   -135     83    137    160 189.7  34.2  34208  290.38 0855.24
2009/04/23 11:35:22.6     -72   -123     81    143    164 210.3  32.4  34196  290.18 0855.24
2009/04/23 11:35:22.7    -108    -89    101    140    172 230.5  39.1  34224  290.67 0855.24
2009/04/23 11:35:22.8    -139     76    113    159    195 298.6  39.1  34280  291.62 0855.24
2009/04/23 11:35:22.9    -103    186    129    213    249 331.0  34.2  34404  293.71 0855.24
2009/04/23 11:35:23.0       3    198     98    199    221   1.1  28.0  34364  293.05 0855.24
2009/04/23 11:35:23.1     -42    125    120    132    178 341.3  47.5  34358  292.93 0855.24
2009/04/23 11:35:23.2    -129    104    124    167    208 308.9  40.1  34370  293.15 0855.24
2009/04/23 11:35:23.3      -5    172    119    173    209 358.2  37.8  34370  293.15 0855.24
2009/04/23 11:35:23.4      15     40     40     43     58  20.9  49.0  34366  293.09 0855.21
2009/04/23 11:35:23.5      77     48    131     91    159  58.0  61.8  34356  292.92 0855.21
2009/04/23 11:35:23.6     157      7    148    158    216  87.4  48.0  34348  292.76 0855.21
2009/04/23 11:35:23.7     115     23    151    118    191  78.5  57.9  34346  292.73 0855.21
2009/04/23 11:35:23.8      77      1    106     78    131  89.2  60.0  34338  292.59 0855.21
2009/04/23 11:35:23.9     166     36    116    171    206  77.6  37.4  34338  292.61 0855.21
2009/04/23 11:35:24.0     127     92    102    157    187  54.1  35.7  34344  292.69 0855.21
2009/04/23 11:35:24.1     103    128     30    165    168  38.7  10.3  34314  292.20 0855.21
2009/04/23 11:35:24.2      83    175     39    194    199  25.4  11.6  34308  292.08 0855.21
2009/04/23 11:35:24.3     116    222     42    251    255  27.6   9.5  34256  291.21 0855.21
2009/04/23 11:35:24.4     155    252    -79    297    308  31.6 -15.1  34266  291.36 0855.21
2009/04/23 11:35:24.5     189    113    -45    221    226  59.3 -11.6  34264  291.33 0855.21
2009/04/23 11:35:24.6     227    134     84    264    278  59.4  17.7  34294  291.85 0855.21
2009/04/23 11:35:24.7     153    285    106    324    342  28.3  18.2  34270  291.45 0855.21
2009/04/23 11:35:24.8     207    161     77    263    275  52.0  16.4  34282  291.63 0855.21
2009/04/23 11:35:24.9     316    152     70    351    358  64.3  11.3  34234  290.84 0855.21
2009/04/23 11:35:25.0     361    167    225    398    457  65.2  31.9  34254  291.18 0855.21
2009/04/23 11:35:25.1     470    139    174    491    521  73.5  19.5  34270  291.44 0855.21
2009/04/23 11:35:25.2     480     74    -26    486    487  81.2  -3.1  34246  291.02 0855.21
2009/04/23 11:35:25.3     483     43    168    485    514  84.8  19.2  34258  291.25 0855.21
2009/04/23 11:35:25.4     289    -82   -147    301    334 105.9 -32.3  34254  291.16 0855.21
2009/04/23 11:35:25.5     365     68   -107    372    387  79.4 -20.7  34220  290.59 0855.21
2009/04/23 11:35:25.6     547    149   -323    568    653  74.7 -36.5  34248  291.08 0855.21
2009/04/23 11:35:25.7     638     48   -146    640    657  85.6 -12.9  34238  290.89 0855.21
2009/04/23 11:35:25.8     661    -41   -155    663    681  93.6 -13.2  34220  290.60 0855.21
2009/04/23 11:35:25.9     629    -48   -181    631    657  94.4 -16.0  34204  290.32 0855.21
2009/04/23 11:35:26.0     651    -60    -95    655    662  95.3  -8.3  34200  290.26 0855.21
2009/04/23 11:35:26.1     483    158    -31    509    510  71.9  -3.5  34212  290.44 0855.21
2009/04/23 11:35:26.2     485    106     61    497    501  77.6   7.1  34192  290.13 0855.21
2009/04/23 11:35:26.3     379     59    140    384    408  81.1  20.9  34220  290.59 0855.21
2009/04/23 11:35:26.4     368   -111     97    385    398 106.8  14.2  34242  290.98 0855.21
2009/04/23 11:35:26.5     444    -90     96    453    464 101.5  12.0  34210  290.43 0855.21
2009/04/23 11:35:26.6     492    -91     70    501    507 100.5   8.0  34228  290.71 0855.21
2009/04/23 11:35:26.7     381   -153    -38    411    413 112.0  -5.3  34246  291.04 0855.21
2009/04/23 11:35:26.8     386    -98     78    399    407 104.3  11.1  34238  290.89 0855.21
2009/04/23 11:35:26.9     324   -168    -16    365    366 117.4  -2.6  34224  290.66 0855.21
2009/04/23 11:35:27.0     292    -54    123    297    321 100.6  23.8  34248  291.07 0855.21
2009/04/23 11:35:27.1     212    -16    139    213    254  94.4  36.3  34258  291.22 0855.21
2009/04/23 11:35:27.2     187    -10    153    188    242  93.3  43.5  34256  291.20 0855.21
2009/04/23 11:35:27.3      92    -64    148    113    186 125.1  58.7  34260  291.26 0855.21
2009/04/23 11:35:27.4     227    -61    134    236    271 105.0  32.3  34240  290.92 0855.20
2009/04/23 11:35:27.5      15   -112    151    114    189 172.0  59.2  34240  290.94 0855.20
2009/04/23 11:35:27.6      29    -76     97     82    127 158.6  55.4  34240  290.92 0855.20
2009/04/23 11:35:27.7     -10   -167     98    168    194 183.6  33.1  34258  291.23 0855.20
2009/04/23 11:35:27.8    -123   -172     10    212    213 215.6   2.8  34246  291.04 0855.20
2009/04/23 11:35:27.9    -177   -106     27    207    209 239.1   7.5  34248  291.06 0855.20
2009/04/23 11:35:28.0    -111    -70     55    132    143 237.6  23.1  34248  291.08 0855.20
2009/04/23 11:35:28.1    -156   -117     -6    196    197 233.1  -1.8  34236  290.87 0855.20
2009/04/23 11:35:28.2    -147    112    -56    185    194 307.3 -16.8  34192  290.13 0855.20
2009/04/23 11:35:28.3    -125     86    -52    153    161 304.6 -23.6  34172  289.77 0855.20
2009/04/23 11:35:28.4     -50      0   -122     51    132 269.2 -81.0  34178  289.87 0855.20
2009/04/23 11:35:28.5    -239     18   -205    240    315 274.4 -49.4  34172  289.78 0855.20
2009/04/23 11:35:28.6    -236     85   -245    252    351 289.9 -53.6  34182  289.93 0855.20
2009/04/23 11:35:28.7    -155    180   -132    238    272 319.2 -35.8  34184  289.98 0855.20
2009/04/23 11:35:28.8    -190     11    -53    191    199 273.5 -15.5  34184  289.97 0855.20
2009/04/23 11:35:28.9    -164      5    -58    165    176 271.9 -19.6  34178  289.87 0855.20
2009/04/23 11:35:29.0    -156     -2    -62    157    168 269.1 -26.9  34192  290.11 0855.20
2009/04/23 11:35:29.1    -161    126    -35    205    209 308.2  -9.8  34178  289.89 0855.20
2009/04/23 11:35:29.2    -189     55    -32    198    201 286.4  -9.3  34188  290.04 0855.20
2009/04/23 11:35:29.3    -146    -86    -60    170    181 239.6 -19.7  34232  290.81 0855.20
2009/04/23 11:35:29.4     -45    -53     40     70     80 220.5  32.4  34222  290.64 0855.20
2009/04/23 11:35:29.5     -19    -31     30     37     47 212.5  43.7  34222  290.64 0855.20
2009/04/23 11:35:29.6      23    -25     25     35     43 136.8  39.7  34220  290.58 0855.20
2009/04/23 11:35:29.7       8    113    -36    114    119   4.5 -22.8  34228  290.72 0855.20
2009/04/23 11:35:29.8     -46     29    -92     55    107 302.4 -70.6  34224  290.65 0855.20
2009/04/23 11:35:29.9     -74     21    -72     77    105 285.9 -52.4  34234  290.84 0855.20
2009/04/23 11:35:30.0     -24     76    -29     80     85 342.2 -24.4  34232  290.81 0855.20
2009/04/23 11:35:30.1      71    150    -19    167    169  25.4  -6.5  34216  290.52 0855.20
2009/04/23 11:35:30.2     114    128     49    172    179  41.7  16.0  34206  290.35 0855.20
2009/04/23 11:35:30.3      47    168     51    175    183  15.8  16.3  34218  290.57 0855.20
2009/04/23 11:35:30.4      21    163     17    165    166   7.6   6.1  34252  291.15 0855.20
2009/04/23 11:35:30.5      -2    170    -48    171    178 359.1 -15.8  34240  290.92 0855.20
2009/04/23 11:35:30.6      37     97    -45    104    113  20.9 -29.0  34234  290.84 0855.20
2009/04/23 11:35:30.7      55     92    -45    108    117  31.2 -27.5  34216  290.53 0855.20
2009/04/23 11:35:30.8      27     39   -122     48    131  35.2 -81.5  34226  290.69 0855.20
2009/04/23 11:35:30.9      92     13    -74     93    118  81.6 -46.6  34220  290.58 0855.20
2009/04/23 11:35:31.0      18     -5    -84     19     86 108.2 -90.0  34220  290.60 0855.20
2009/04/23 11:35:31.1     -28    -18    -95     34    100 237.6 -84.6  34226  290.70 0855.20
2009/04/23 11:35:31.2     -42    -11    -96     44    105 254.9 -77.9  34240  290.94 0855.20
2009/04/23 11:35:31.3     -12    -62   -102     64    120 191.6 -69.1  34222  290.64 0855.20
2009/04/23 11:35:31.4      32    -96   -123    102    159 161.7 -60.5  34194  290.14 0855.20
2009/04/23 11:35:31.5      10    -72   -127     73    146 171.9 -71.6  34188  290.04 0855.20
2009/04/23 11:35:31.6     -32    -86   -133     92    161 200.5 -66.5  34198  290.21 0855.20
2009/04/23 11:35:31.7     -80    -27   -149     85    171 250.9 -72.1  34212  290.45 0855.20
2009/04/23 11:35:31.8     -48    -48    -70     69     98 225.1 -54.5  34214  290.48 0855.20
2009/04/23 11:35:31.9     -91    -91    -96    130    161 225.0 -44.8  34230  290.75 0855.20
2009/04/23 11:35:32.0     -13   -287    -81    288    299 182.7 -20.4  34242  290.97 0855.20
2009/04/23 11:35:32.1      -5   -441   -141    442    464 180.7 -17.7  34256  291.19 0855.20
2009/04/23 11:35:32.2      31   -409   -147    411    437 175.6 -19.8  34250  291.09 0855.20
2009/04/23 11:35:32.3     -29   -280   -124    282    308 186.0 -29.6  34234  290.83 0855.20
2009/04/23 11:35:32.4      66   -319    -55    326    331 168.2  -9.6  34224  290.67 0855.20
2009/04/23 11:35:32.5     116   -155   -126    194    231 143.3 -40.0  34208  290.40 0855.20
2009/04/23 11:35:32.6     106   -291    -16    310    311 160.0  -3.0  34226  290.68 0855.20
2009/04/23 11:35:32.7     158   -248     35    295    298 147.5   6.9  34212  290.44 0855.20
2009/04/23 11:35:32.8     191   -231    -32    300    302 140.4  -6.2  34214  290.48 0855.20
2009/04/23 11:35:32.9     122   -196     27    232    234 148.1   6.7  34214  290.48 0855.20
2009/04/23 11:35:33.0     152   -207     40    258    262 143.7   9.0  34216  290.51 0855.20
2009/04/23 11:35:33.1     175   -164     47    241    246 133.1  11.1  34218  290.54 0855.20
2009/04/23 11:35:33.2     254   -186      4    315    316 126.2   0.8  34212  290.46 0855.20
2009/04/23 11:35:33.3     206   -165     57    265    272 128.7  12.2  34218  290.54 0855.20
2009/04/23 11:35:33.4     188    -61     50    198    205 108.2  14.3  34226  290.70 0855.24
2009/04/23 11:35:33.5     238    -88     21    254    255 110.4   4.9  34226  290.70 0855.24
2009/04/23 11:35:33.6     292   -127     33    319    321 113.6   6.0  34222  290.63 0855.24
2009/04/23 11:35:33.7     306     67     44    314    318  77.6   8.0  34224  290.65 0855.24
2009/04/23 11:35:33.8     354     89     72    366    374  75.8  11.1  34208  290.37 0855.24
2009/04/23 11:35:33.9     447     90    100    456    467  78.5  12.4  34176  289.85 0855.24
2009/04/23 11:35:34.0     377     73    151    385    413  79.0  22.7  34180  289.92 0855.24
2009/04/23 11:35:34.1     633    166    245    655    699  75.3  21.5  34176  289.83 0855.24
2009/04/23 11:35:34.2     585    100    329    594    679  80.3  31.4  34176  289.84 0855.24
2009/04/23 11:35:34.3     386    -58    302    391    494  98.6  41.5  34188  290.05 0855.24
2009/04/23 11:35:34.4     257    -13    234    258    348  93.0  47.0  34188  290.05 0855.24
2009/04/23 11:35:34.5     233   -162    214    285    356 124.9  40.7  34196  290.18 0855.24
2009/04/23 11:35:34.6     279   -101    154    297    334 110.0  29.5  34200  290.24 0855.24
2009/04/23 11:35:34.7     250   -159    172    297    343 122.4  32.7  34198  290.21 0855.24
2009/04/23 11:35:34.8     375    -56    177    380    419  98.6  26.9  34174  289.80 0855.24
2009/04/23 11:35:34.9     276    -34    -15    279    280  97.2  -3.2  34174  289.81 0855.24
2009/04/23 11:35:35.0     241     76    -38    253    256  72.3  -8.6  34170  289.73 0855.24
2009/04/23 11:35:35.1      25    124    -37    127    132  11.6 -21.7  34184  289.97 0855.24
2009/04/23 11:35:35.2      32     50    -81     60    100  32.6 -64.4  34192  290.13 0855.24
2009/04/23 11:35:35.3     107    134    -69    172    185  38.5 -27.4  34188  290.06 0855.24
2009/04/23 11:35:35.4      89    136    -42    163    169  33.2 -14.5  34194  290.14 0855.24
2009/04/23 11:35:35.5      71    104      9    127    128  34.3   4.4  34194  290.16 0855.24
2009/04/23 11:35:35.6      43     81     35     92     98  28.1  22.0  34198  290.21 0855.24
2009/04/23 11:35:35.7      12     82      7     84     85   8.9   4.9  34196  290.19 0855.24
2009/04/23 11:35:35.8     -42     96    -13    105    106 336.4  -7.2  34194  290.14 0855.24
2009/04/23 11:35:35.9    -156     87    -25    179    181 299.1  -8.0  34190  290.09 0855.24
2009/04/23 11:35:36.0    -255    -91      1    271    272 250.3   0.2  34200  290.24 0855.24
2009/04/23 11:35:36.1    -235    -90    -40    252    256 248.9  -9.0  34194  290.14 0855.24
2009/04/23 11:35:36.2    -143   -113     41    183    188 231.8  12.6  34194  290.16 0855.24
2009/04/23 11:35:36.3    -280   -157     42    322    325 240.7   7.6  34194  290.15 0855.24
2009/04/23 11:35:36.4     -94     30     73     99    123 288.2  39.7  34208  290.38 0855.24
2009/04/23 11:35:36.5      33    -99    114    105    154 161.5  52.2  34212  290.45 0855.24
2009/04/23 11:35:36.6     -23   -220    165    222    276 186.0  40.4  34200  290.26 0855.24
2009/04/23 11:35:36.7      34   -410    286    412    501 175.1  38.1  34200  290.25 0855.24
2009/04/23 11:35:36.8       8   -528    176    529    558 179.1  18.4  34186  290.02 0855.24
2009/04/23 11:35:36.9      21   -606    288    607    671 178.0  27.2  34196  290.18 0855.24
2009/04/23 11:35:37.0      55   -729    226    731    766 175.6  17.2  34198  290.23 0855.24
2009/04/23 11:35:37.1     -28   -600    214    601    639 182.7  19.6  34204  290.32 0855.24
2009/04/23 11:35:37.2    -109   -540    197    551    585 191.5  20.6  34210  290.42 0855.24
2009/04/23 11:35:37.3    -142   -424    301    448    539 198.6  37.2  34212  290.47 0855.24
2009/04/23 11:35:37.4    -175   -442    124    476    492 201.6  14.7  34216  290.51 0855.21
2009/04/23 11:35:37.5    -139   -471    126    492    508 196.5  14.4  34212  290.45 0855.21
2009/04/23 11:35:37.6    -129   -395    102    416    429 198.1  13.8  34210  290.43 0855.21
2009/04/23 11:35:37.7    -261   -397    148    476    499 213.4  17.3  34218  290.57 0855.21
2009/04/23 11:35:37.8    -112   -450    164    464    492 194.0  20.3  34216  290.51 0855.21
2009/04/23 11:35:37.9    -166   -458    162    488    515 200.0  18.4  34212  290.44 0855.21
2009/04/23 11:35:38.0    -135   -471    222    491    538 196.0  26.2  34216  290.53 0855.21
2009/04/23 11:35:38.1    -145   -477    241    499    554 197.0  27.8  34212  290.46 0855.21
2009/04/23 11:35:38.2    -228   -443    106    499    511 207.3  12.0  34218  290.56 0855.21
2009/04/23 11:35:38.3    -145   -381    114    408    424 200.9  15.7  34198  290.21 0855.21
2009/04/23 11:35:38.4    -207   -594     99    630    638 199.2   9.0  34210  290.43 0855.21
2009/04/23 11:35:38.5    -149   -602    -12    621    622 193.9  -1.2  34218  290.55 0855.21
2009/04/23 11:35:38.6    -224   -606     72    647    652 200.3   6.4  34212  290.45 0855.21
2009/04/23 11:35:38.7    -319   -479    134    576    592 213.7  13.1  34218  290.56 0855.21
2009/04/23 11:35:38.8    -263   -386    132    468    487 214.3  15.8  34200  290.25 0855.21
2009/04/23 11:35:38.9    -343   -191    -44    393    396 240.9  -6.5  34202  290.28 0855.21
2009/04/23 11:35:39.0    -365   -132    -50    389    393 250.1  -7.4  34220  290.60 0855.21
2009/04/23 11:35:39.1    -272   -135   -131    304    331 243.6 -29.2  34202  290.29 0855.21
2009/04/23 11:35:39.2    -328   -249      8    413    414 232.8   1.2  34206  290.36 0855.21
2009/04/23 11:35:39.3    -237   -172     46    294    298 234.0   9.0  34196  290.19 0855.20
2009/04/23 11:35:39.4    -217   -157    -24    269    271 234.0  -5.2  34196  290.17 0855.20
2009/04/23 11:35:39.5    -167    -79     30    185    188 244.6   9.3  34192  290.13 0855.20
2009/04/23 11:35:39.6    -219    -30    -15    222    223 262.0  -3.9  34202  290.28 0855.20
2009/04/23 11:35:39.7    -137     98     17    169    170 305.5   6.1  34192  290.13 0855.20
2009/04/23 11:35:39.8    -128    167      3    211    212 322.6   1.0  34202  290.28 0855.20
2009/04/23 11:35:39.9    -316    140    -36    346    348 294.0  -6.0  34208  290.40 0855.20
2009/04/23 11:35:40.0    -345      0   -189    346    394 270.0 -35.4  34244  291.01 0855.20
2009/04/23 11:35:40.1    -270    -90    -82    285    296 251.6 -20.7  34224  290.66 0855.20
2009/04/23 11:35:40.2    -138    100    176    171    245 306.0  50.9  34234  290.82 0855.20
2009/04/23 11:35:40.3     -56    102    154    117    193 331.0  59.2  34222  290.64 0855.20
2009/04/23 11:35:40.4      44     82    158     94    183  28.1  66.4  34210  290.41 0855.20
2009/04/23 11:35:40.5     -91     55    110    107    153 301.1  50.2  34214  290.50 0855.20
2009/04/23 11:35:40.6       5     73    106     74    129   4.5  62.1  34214  290.50 0855.20
2009/04/23 11:35:40.7     -38    205    124    209    243 349.5  33.5  34214  290.48 0855.20
2009/04/23 11:35:40.8      25    149    175    152    231   9.8  54.6  34208  290.38 0855.20
2009/04/23 11:35:40.9     -21    127    131    129    183 350.2  50.1  34214  290.48 0855.20
2009/04/23 11:35:41.0     -18    -82    125     85    151 192.5  62.6  34198  290.23 0855.20
2009/04/23 11:35:41.1      -7    -82    148     83    169 185.3  68.3  34210  290.41 0855.20
2009/04/23 11:35:41.2    -118   -163     95    202    223 216.0  27.1  34202  290.30 0855.20
2009/04/23 11:35:41.3    -101   -122    178    159    238 219.7  53.5  34204  290.31 0855.20
2009/04/23 11:35:41.4    -167   -234     67    288    296 215.6  13.1  34210  290.42 0855.20
2009/04/23 11:35:41.5     -39   -191     55    196    204 191.6  15.8  34212  290.45 0855.20
2009/04/23 11:35:41.6     -37   -177     45    182    188 192.0  13.9  34208  290.40 0855.20
2009/04/23 11:35:41.7    -123   -115     75    169    184 227.1  25.7  34220  290.58 0855.20
2009/04/23 11:35:41.8    -116   -102     20    155    157 228.7   7.5  34220  290.58 0855.20
2009/04/23 11:35:41.9      -3    -42     73     43     84 185.3  66.2  34222  290.64 0855.20
2009/04/23 11:35:42.0    -155     52    109    164    196 288.8  36.7  34220  290.60 0855.20
2009/04/23 11:35:42.1    -262     70     23    272    274 285.0   5.0  34220  290.59 0855.20
2009/04/23 11:35:42.2    -221     28    -37    223    227 277.5  -9.4  34206  290.36 0855.20
2009/04/23 11:35:42.3     -51     50     39     72     81 314.1  30.8  34212  290.45 0855.21
2009/04/23 11:35:42.4      -1     58     82     59    101 358.2  60.6  34212  290.47 0855.21
2009/04/23 11:35:42.5     -15    -69    121     71    140 192.5  66.8  34220  290.58 0855.21
2009/04/23 11:35:42.6     -45     48     86     66    108 316.8  58.5  34212  290.47 0855.21
2009/04/23 11:35:42.7     -15    -16     66     22     69 223.2  81.0  34214  290.48 0855.21
2009/04/23 11:35:42.8     -12    -62     13     64     66 191.6  12.2  34216  290.53 0855.21
2009/04/23 11:35:42.9     -34   -135     69    140    156 194.3  27.3  34214  290.50 0855.21
2009/04/23 11:35:43.0    -108   -183     73    213    226 210.5  18.9  34216  290.52 0855.21
2009/04/23 11:35:43.1      38   -127    167    133    213 163.0  57.5  34216  290.52 0855.21
2009/04/23 11:35:43.2     -23    -67    139     71    156 199.2  71.1  34222  290.62 0855.21
2009/04/23 11:35:43.4      13   -105    194    106    221 172.9  68.9  34232  290.81 0855.21
2009/04/23 11:35:43.4       5    -69    166     70    180 175.5  76.1  34232  290.79 0855.21
2009/04/23 11:35:43.6     -23   -155    171    157    232 188.5  52.2  34216  290.53 0855.21
2009/04/23 11:35:43.7     -15   -146    174    147    227 186.2  55.8  34220  290.58 0855.21
2009/04/23 11:35:43.8     -33   -200    164    203    260 189.6  43.3  34212  290.44 0855.21
2009/04/23 11:35:43.9      30   -113    148    118    189 164.9  57.1  34208  290.38 0855.21
2009/04/23 11:35:44.0      43   -170    171    176    245 165.7  49.2  34194  290.14 0855.21
2009/04/23 11:35:44.1      83   -176    143    195    241 154.5  39.7  34188  290.04 0855.21
2009/04/23 11:35:44.2      -3   -236    111    237    261 180.9  27.1  34190  290.07 0855.21
2009/04/23 11:35:44.3      33   -241     83    244    258 172.2  18.9  34190  290.09 0855.21
2009/04/23 11:35:44.4      12   -166     98    167    193 175.6  33.5  34184  289.99 0855.22
2009/04/23 11:35:44.5      16   -151     40    152    158 173.8  15.0  34180  289.91 0855.22
2009/04/23 11:35:44.6      36   -181     -7    185    186 168.5  -2.2  34180  289.91 0855.22
2009/04/23 11:35:44.7       5   -123     43    124    132 177.3  19.4  34188  290.04 0855.22
2009/04/23 11:35:44.8      77    -77     39    109    115 135.0  20.0  34186  290.02 0855.22
2009/04/23 11:35:44.9     154    -98     53    183    191 122.4  16.3  34194  290.14 0855.22
2009/04/23 11:35:45.0     159    -47     18    166    168 106.6   6.5  34192  290.11 0855.22
2009/04/23 11:35:45.1     159     -7    139    160    211  92.6  45.6  34210  290.43 0855.22
2009/04/23 11:35:45.2     157     32    147    161    218  78.5  47.7  34228  290.72 0855.22
2009/04/23 11:35:45.3     142     26    164    145    218  79.4  54.0  34232  290.81 0855.22
2009/04/23 11:35:45.4       9     91    129     92    158   6.2  61.1  34240  290.92 0855.22
2009/04/23 11:35:45.5     147    -38    220    152    267 104.6  62.1  34234  290.82 0855.22
2009/04/23 11:35:45.6     326     55    291    331    440  80.4  45.8  34228  290.72 0855.22
2009/04/23 11:35:45.7     288    197    161    350    385  55.6  26.5  34222  290.62 0855.22
2009/04/23 11:35:45.8     292     48    240    297    381  80.5  43.3  34202  290.30 0855.22
2009/04/23 11:35:45.9     205     21    209    207    294  83.9  50.2  34194  290.15 0855.22
2009/04/23 11:35:46.0     -36    -75     88     84    121 205.9  51.2  34222  290.64 0855.22
2009/04/23 11:35:46.1     -67   -105    131    125    181 212.5  51.4  34222  290.64 0855.22
2009/04/23 11:35:46.2      -3    -72     49     73     87 182.7  37.0  34216  290.53 0855.22
2009/04/23 11:35:46.3      42    -38    -95     57    110 132.2 -70.1  34214  290.48 0855.22
2009/04/23 11:35:46.4     -98     43     21    108    111 294.0  11.0  34214  290.50 0855.21
2009/04/23 11:35:46.5    -113    -26     37    117    123 256.7  17.9  34216  290.53 0855.21
2009/04/23 11:35:46.6     -17     64     71     67     97 344.8  51.2  34214  290.48 0855.21
2009/04/23 11:35:46.7     125     73     51    145    154  59.8  19.4  34212  290.47 0855.21
2009/04/23 11:35:46.8     107    100    -46    147    155  46.8 -17.6  34216  290.52 0855.21
2009/04/23 11:35:46.9      11     95      0     96     97   6.7   0.2  34208  290.38 0855.21
2009/04/23 11:35:47.0    -184    297   -103    350    365 328.3 -16.4  34178  289.87 0855.21
2009/04/23 11:35:47.1    -147    374    -85    402    412 338.5 -12.0  34202  290.29 0855.21
2009/04/23 11:35:47.2     -59    278     30    285    287 348.0   6.1  34206  290.36 0855.21
2009/04/23 11:35:47.3     -27    283     46    285    289 354.4   9.3  34206  290.34 0855.21
2009/04/23 11:35:47.4      18    295      3    296    297   3.6   0.7  34194  290.15 0855.21
2009/04/23 11:35:47.5    -117    241     26    268    270 334.1   5.7  34194  290.14 0855.21
2009/04/23 11:35:47.6    -108    279    -13    300    301 338.8  -2.6  34188  290.05 0855.21
2009/04/23 11:35:47.7    -105    288      3    307    308 339.9   0.7  34196  290.17 0855.21
2009/04/23 11:35:47.8     -65    268    -50    276    281 346.2 -10.4  34198  290.20 0855.21
2009/04/23 11:35:47.9     -59    199    -28    208    210 343.5  -7.7  34184  289.99 0855.21
2009/04/23 11:35:48.0    -107    155    -50    189    196 325.3 -15.0  34240  290.94 0855.21
2009/04/23 11:35:48.1     -75    174     27    190    193 336.6   8.2  34240  290.94 0855.21
2009/04/23 11:35:48.2     -55    137     45    148    155 338.1  17.1  34214  290.50 0855.21
2009/04/23 11:35:48.3       0    158     85    159    180   0.0  30.6  34184  289.97 0855.21
2009/04/23 11:35:48.4      13     60     17     62     65  12.5  15.3  34228  290.72 0855.22
2009/04/23 11:35:48.5      12    312    138    313    342   2.2  25.3  34260  291.28 0855.22
2009/04/23 11:35:48.6      58    286     93    293    308  11.6  17.7  34250  291.09 0855.22
2009/04/23 11:35:48.7     169    224    -71    281    291  37.0 -14.3  34242  290.97 0855.22
2009/04/23 11:35:48.8     113    393    -97    409    421  16.1 -13.4  34226  290.70 0855.22
2009/04/23 11:35:48.9       4    318    -91    319    331   0.9 -20.7  34184  289.97 0855.22
2009/04/23 11:35:49.0      26    279    -66    281    289   5.3 -13.3  34180  289.90 0855.22
2009/04/23 11:35:49.1      34    245   -107    248    270   8.0 -29.3  34178  289.86 0855.22
2009/04/23 11:35:49.2     146    214    -81    260    272  34.3 -22.5  34182  289.93 0855.22
2009/04/23 11:35:49.3      25    243    -58    245    252   6.0 -13.4  34172  289.76 0855.22
2009/04/23 11:35:49.4    -127    118     -5    174    175 313.1  -1.8  34194  290.14 0855.22
2009/04/23 11:35:49.5    -218      0    -78    219    233 270.0 -19.7  34212  290.45 0855.22
2009/04/23 11:35:49.6    -250    -67    -74    260    270 254.9 -20.7  34196  290.19 0855.22
2009/04/23 11:35:49.7    -258    -78   -110    270    291 253.2 -27.5  34176  289.85 0855.22
2009/04/23 11:35:49.8    -227     61    -76    236    247 285.1 -23.0  34182  289.93 0855.22
2009/04/23 11:35:49.9    -199     69   -103    211    234 289.3 -32.4  34196  290.19 0855.22
2009/04/23 11:35:50.0    -152     98   -162    181    242 302.9 -51.0  34180  289.91 0855.22
2009/04/23 11:35:50.1    -183     89   -193    204    280 296.0 -52.6  34176  289.83 0855.22
2009/04/23 11:35:50.2     -97     87   -155    131    202 312.2 -59.8  34174  289.80 0855.22
2009/04/23 11:35:50.3     -26     56   -147     63    159 334.7 -79.9  34174  289.82 0855.22
2009/04/23 11:35:50.4      70    134   -123    152    195  27.6 -47.7  34172  289.79 0855.22
2009/04/23 11:35:50.5     108    183   -108    213    238  30.7 -33.5  34166  289.69 0855.22
2009/04/23 11:35:50.6     159    213    -84    267    279  36.7 -22.5  34172  289.76 0855.22
2009/04/23 11:35:50.7     249    143     40    288    291  60.2   8.0  34216  290.51 0855.22
2009/04/23 11:35:50.8     178    113    -33    212    215  57.5  -9.0  34200  290.26 0855.22
2009/04/23 11:35:50.9     244    147    -66    286    294  58.9 -13.2  34168  289.70 0855.22
2009/04/23 11:35:51.0     217    197    -70    294    303  47.8 -13.4  34182  289.93 0855.22
2009/04/23 11:35:51.1     307    258   -114    402    419  50.0 -15.9  34182  289.95 0855.22
2009/04/23 11:35:51.2     355    202     31    409    411  60.3   4.3  34230  290.75 0855.22
2009/04/23 11:35:51.3     415    158    -50    445    448  69.1  -6.5  34242  290.97 0855.22
2009/04/23 11:35:51.4     331    218     55    397    402  56.6   8.0  34214  290.50 0855.22
2009/04/23 11:35:51.5     311    258     36    405    407  50.3   5.1  34210  290.43 0855.22
2009/04/23 11:35:51.6     225    239     50    329    333  43.2   8.7  34232  290.79 0855.22
2009/04/23 11:35:51.7     339    228     30    409    411  56.0   4.2  34300  291.94 0855.22
2009/04/23 11:35:51.8     454     79    141    461    483  80.1  17.1  34302  292.00 0855.22
2009/04/23 11:35:51.9     380    159    223    413    469  67.3  30.8  34308  292.08 0855.22
2009/04/23 11:35:52.0     383    260   -101    463    475  55.8 -12.4  34216  290.52 0855.22
2009/04/23 11:35:52.1     381    131     48    404    407  70.9   6.8  34322  292.33 0855.22
2009/04/23 11:35:52.2     372    193    114    420    436  62.6  15.2  34356  292.91 0855.22
2009/04/23 11:35:52.3     381    175    110    420    435  65.3  14.7  34302  291.98 0855.22
2009/04/23 11:35:52.4     380    156     87    411    421  67.7  12.0  34266  291.36 0855.22
2009/04/23 11:35:52.5     410    269    109    491    504  56.7  12.6  34216  290.52 0855.22
2009/04/23 11:35:52.6     259    288    205    388    438  41.9  30.2  34258  291.23 0855.22
2009/04/23 11:35:52.7     420    126    287    439    524  73.3  36.3  34256  291.20 0855.22
2009/04/23 11:35:52.8     426     88    315    436    537  78.3  39.5  34238  290.91 0855.22
2009/04/23 11:35:52.9     307    130    291    334    442  67.0  45.6  34174  289.80 0855.22
2009/04/23 11:35:53.0     331    159    289    368    467  64.3  42.1  34194  290.14 0855.22
2009/04/23 11:35:53.1     214     63    268    224    349  73.6  56.1  34238  290.88 0855.22
2009/04/23 11:35:53.2     151    -60    164    163    231 111.7  49.9  34226  290.69 0855.22
2009/04/23 11:35:53.3     162    -87    167    185    249 118.4  46.9  34230  290.77 0855.22
2009/04/23 11:35:53.4     150   -228    130    274    303 146.6  27.2  34226  290.68 0855.22
2009/04/23 11:35:53.5      85   -238     26    253    255 160.2   5.9  34218  290.56 0855.22
2009/04/23 11:35:53.6      -3   -272    134    273    304 180.7  27.8  34188  290.05 0855.22
2009/04/23 11:35:53.7      23   -303    145    304    336 175.6  27.3  34202  290.29 0855.22
2009/04/23 11:35:53.8     -28   -257    176    259    313 186.2  37.4  34206  290.34 0855.22
2009/04/23 11:35:53.9      39   -283    236    286    370 172.0  43.8  34212  290.47 0855.22
2009/04/23 11:35:54.0       4   -284    176    285    334 179.0  34.8  34214  290.49 0855.22
2009/04/23 11:35:54.1      29   -232    182    234    296 172.7  41.7  34218  290.56 0855.22
2009/04/23 11:35:54.2      19   -110    226    112    252 170.2  71.9  34222  290.62 0855.22
2009/04/23 11:35:54.3     -27   -251    310    253    400 186.2  56.5  34218  290.55 0855.22
2009/04/23 11:35:54.4      60   -260    226    267    349 166.9  44.4  34222  290.61 0855.23
2009/04/23 11:35:54.5      49   -220    238    226    328 167.3  51.5  34214  290.48 0855.23
2009/04/23 11:35:54.6      24   -277    237    279    366 174.9  44.7  34218  290.55 0855.23
2009/04/23 11:35:54.7     -29   -279    298    281    409 186.0  52.0  34202  290.27 0855.23
2009/04/23 11:35:54.8     -30   -403    301    405    504 184.4  40.2  34216  290.51 0855.23
2009/04/23 11:35:54.9     -85   -457    317    465    562 190.6  37.6  34208  290.38 0855.23
2009/04/23 11:35:55.0     -43   -445    289    448    533 185.6  35.7  34200  290.25 0855.23
2009/04/23 11:35:55.1    -171   -339    303    380    486 206.8  42.7  34196  290.19 0855.23
2009/04/23 11:35:55.2     -40    -85    165     95    190 205.3  67.5  34202  290.28 0855.23
2009/04/23 11:35:55.3     -32     84     64     91    111 339.1  38.6  34216  290.52 0855.23
2009/04/23 11:35:55.4     -63    -59    156     87    178 226.9  68.8  34224  290.67 0855.23
2009/04/23 11:35:55.5    -182   -198    261    270    375 222.5  49.1  34204  290.33 0855.23
2009/04/23 11:35:55.6    -429    -26     28    430    431 266.5   3.8  34248  291.06 0855.23
2009/04/23 11:35:55.7    -399   -179     29    438    439 245.8   3.8  34250  291.09 0855.23
2009/04/23 11:35:55.8    -204   -231    237    309    389 221.5  41.3  34210  290.42 0855.23
2009/04/23 11:35:55.9    -156   -147    230    215    314 226.7  52.2  34232  290.80 0855.23
2009/04/23 11:35:56.0     -60    -72    150     94    177 219.7  64.9  34266  291.38 0855.23
2009/04/23 11:35:56.1     -38   -223    209    227    308 189.8  47.9  34224  290.66 0855.23
2009/04/23 11:35:56.2     -94   -250    170    268    317 200.7  35.5  34230  290.75 0855.23
2009/04/23 11:35:56.3     -78   -272    131    284    312 196.0  26.5  34224  290.65 0855.23
2009/04/23 11:35:56.4     -82   -272    194    285    344 196.9  37.4  34236  290.87 0855.22
2009/04/23 11:35:56.5    -193   -271    183    333    379 215.5  31.4  34240  290.93 0855.22
2009/04/23 11:35:56.6     -99   -251     55    270    276 201.6  11.6  34212  290.44 0855.22
2009/04/23 11:35:56.7    -147   -335     32    366    368 203.7   5.1  34218  290.57 0855.22
2009/04/23 11:35:56.8    -177   -293     34    343    345 211.1   5.8  34216  290.52 0855.22
2009/04/23 11:35:56.9    -157   -256     15    301    302 211.6   2.9  34218  290.56 0855.22
2009/04/23 11:35:57.0    -107   -277     30    298    300 201.2   5.9  34206  290.34 0855.22
2009/04/23 11:35:57.1    -142   -276     20    311    312 207.2   3.8  34204  290.31 0855.22
2009/04/23 11:35:57.2     -90   -338    -15    350    351 195.1  -2.6  34194  290.16 0855.22
2009/04/23 11:35:57.3       8   -278    116    279    302 178.2  23.6  34212  290.44 0855.22
2009/04/23 11:35:57.4     -50   -182    128    189    228 195.6  37.4  34192  290.11 0855.22
2009/04/23 11:35:57.5    -220   -128     -7    255    256 239.8  -1.6  34206  290.36 0855.22
2009/04/23 11:35:57.6    -245   -203      6    319    320 230.4   1.2  34204  290.32 0855.22
2009/04/23 11:35:57.7    -108    -59    -16    124    126 241.1  -7.3  34204  290.33 0855.22
2009/04/23 11:35:57.8    -310   -192    -33    365    367 238.2  -5.2  34198  290.23 0855.22
2009/04/23 11:35:57.9    -271   -228    -91    355    367 229.9 -14.5  34196  290.18 0855.22
2009/04/23 11:35:58.0    -118   -239    -34    267    270 206.3  -7.3  34194  290.15 0855.22
2009/04/23 11:35:58.1    -264   -120    -31    291    293 245.6  -6.2  34190  290.07 0855.22
2009/04/23 11:35:58.2    -279   -122    -44    305    309 246.3  -8.2  34192  290.10 0855.22
2009/04/23 11:35:58.3    -300   -100      4    317    318 251.4   0.8  34198  290.20 0855.22
2009/04/23 11:35:58.4    -241    -91    -25    258    260 249.2  -5.6  34204  290.32 0855.23
2009/04/23 11:35:58.5    -146    -39    -50    152    160 254.9 -23.6  34226  290.70 0855.23
2009/04/23 11:35:58.6     -42    -90     -3    100    101 205.4  -2.2  34226  290.70 0855.23
2009/04/23 11:35:58.7    -151   -202     39    253    256 216.7   8.8  34206  290.36 0855.23
2009/04/23 11:35:58.8    -121   -303    -73    327    336 201.9 -12.7  34192  290.10 0855.23
2009/04/23 11:35:58.9    -102   -318    -97    335    348 197.8 -21.0  34182  289.96 0855.23
2009/04/23 11:35:59.0    -166   -250    -94    301    315 213.6 -22.3  34190  290.07 0855.23
2009/04/23 11:35:59.1    -225   -262    -72    346    354 220.6 -11.8  34190  290.08 0855.23
2009/04/23 11:35:59.2    -214   -250    -89    330    342 220.5 -15.2  34180  289.91 0855.23
2009/04/23 11:35:59.3    -230   -275   -115    359    376 219.9 -23.0  34182  289.93 0855.23
2009/04/23 11:35:59.4    -193   -264    -27    328    330 216.1  -4.8  34182  289.95 0855.23
2009/04/23 11:35:59.5    -145   -205   -101    252    271 215.2 -27.4  34188  290.03 0855.23
2009/04/23 11:35:59.6    -184   -185   -107    262    283 224.9 -27.5  34192  290.12 0855.23
2009/04/23 11:35:59.7    -181   -197    -95    268    285 222.5 -19.7  34182  289.95 0855.23
2009/04/23 11:35:59.8    -128   -170   -175    214    276 217.0 -48.1  34186  290.00 0855.23
2009/04/23 11:35:59.9    -101   -171    -87    199    217 210.7 -29.5  34178  289.87 0855.23
2009/04/23 11:36:00.0     -52   -183     -3    191    192 196.0  -1.1  34180  289.92 0855.23
2009/04/23 11:36:00.1      -4      0    147      5    147 270.0  90.0  34192  290.11 0855.23
2009/04/23 11:36:00.2    -106    136    148    173    227 322.2  44.8  34206  290.35 0855.23
2009/04/23 11:36:00.3    -152     52     72    161    176 289.1  25.7  34198  290.23 0855.23
2009/04/23 11:36:00.4     -39     87     50     96    108 335.5  29.3  34208  290.40 0855.24
2009/04/23 11:36:00.5     -76    160     35    178    182 334.7  11.1  34218  290.57 0855.24
2009/04/23 11:36:00.6    -127    188     17    227    228 325.9   4.4  34234  290.84 0855.24
2009/04/23 11:36:00.7    -235    224    -29    325    327 313.6  -5.2  34220  290.58 0855.24
2009/04/23 11:36:00.8    -267    331    -57    426    430 321.2  -7.7  34210  290.43 0855.24
2009/04/23 11:36:00.9    -117    286   -105    310    328 337.7 -18.7  34214  290.48 0855.24
2009/04/23 11:36:01.0    -102    243    -53    264    270 337.2 -11.3  34208  290.39 0855.24
2009/04/23 11:36:01.1    -164    153     -8    225    226 313.1  -2.2  34192  290.13 0855.24
2009/04/23 11:36:01.2    -205    181      5    274    275 311.4   1.2  34194  290.15 0855.24
2009/04/23 11:36:01.3    -225      0    -29    226    228 270.1  -7.3  34190  290.09 0855.24
2009/04/23 11:36:01.4    -272    -20    -10    273    274 265.6  -2.3  34190  290.07 0855.24
2009/04/23 11:36:01.5    -335     26    -34    337    339 274.5  -5.9  34192  290.11 0855.24
2009/04/23 11:36:01.6    -190    119     -2    225    226 302.0  -0.7  34190  290.08 0855.24
2009/04/23 11:36:01.7    -122     99     35    158    162 309.1  12.6  34190  290.09 0855.24
2009/04/23 11:36:01.8     -22    125     66    128    144 349.8  29.3  34186  290.02 0855.24
2009/04/23 11:36:01.9     -50    165    169    173    241 343.1  49.4  34190  290.08 0855.24
2009/04/23 11:36:02.0     -63    191     87    202    219 341.7  24.9  34192  290.13 0855.24
2009/04/23 11:36:02.1     -48    281     60    286    293 350.3  12.0  34206  290.34 0855.24
2009/04/23 11:36:02.2     -82    243      0    257    258 341.3   0.2  34204  290.32 0855.24
2009/04/23 11:36:02.3     -89    150     37    175    180 329.3  12.2  34196  290.18 0855.24
2009/04/23 11:36:02.4    -129    241    178    274    326 331.9  36.0  34194  290.15 0855.24
2009/04/23 11:36:02.5     -87    291    122    304    327 343.3  23.0  34202  290.27 0855.24
2009/04/23 11:36:02.6    -155    282    130    322    347 331.1  23.1  34194  290.16 0855.24
2009/04/23 11:36:02.7    -149    244    138    287    318 328.6  27.7  34198  290.20 0855.24
2009/04/23 11:36:02.8    -168    183    107    249    271 317.5  24.9  34190  290.07 0855.24
2009/04/23 11:36:02.9    -155    204    118    257    282 322.8  26.2  34194  290.14 0855.24
2009/04/23 11:36:03.0    -240    211    125    320    343 311.3  22.5  34196  290.18 0855.24
2009/04/23 11:36:03.1    -218    107     75    243    255 296.2  17.3  34196  290.17 0855.24
2009/04/23 11:36:03.2    -357     17    134    358    382 272.8  21.5  34194  290.15 0855.24
2009/04/23 11:36:03.3    -317     24    122    318    340 274.4  22.2  34198  290.20 0855.24
2009/04/23 11:36:03.4    -202    -15    167    203    262 265.6  43.7  34202  290.29 0855.24
2009/04/23 11:36:03.5    -207     27    143    209    253 277.5  37.6  34196  290.19 0855.24
2009/04/23 11:36:03.6    -252     97    127    271    299 291.1  27.1  34196  290.19 0855.24
2009/04/23 11:36:03.7    -193    140     51    239    245 305.9  12.2  34194  290.15 0855.24
2009/04/23 11:36:03.8    -177    112     57    210    218 302.5  15.3  34186  290.02 0855.24
2009/04/23 11:36:03.9    -130     91     23    159    161 305.1   8.2  34184  289.99 0855.24
2009/04/23 11:36:04.0    -154     84    -21    176    178 298.6  -6.9  34180  289.92 0855.24
2009/04/23 11:36:04.1    -104     86    -13    136    137 309.5  -5.6  34184  289.97 0855.24
2009/04/23 11:36:04.2     -72     34    -41     80     89 295.3 -33.1  34190  290.09 0855.24
2009/04/23 11:36:04.3     -51    -58    -46     78     90 221.4 -37.9  34196  290.19 0855.24
2009/04/23 11:36:04.4     -29    -95    -22    100    103 196.9 -12.9  34202  290.28 0855.24
2009/04/23 11:36:04.5       0   -108    -45    109    117 180.5 -28.0  34192  290.13 0855.24
2009/04/23 11:36:04.6      35   -137    -40    142    148 165.3 -16.0  34192  290.11 0855.24
2009/04/23 11:36:04.7     -14   -134    -20    135    137 186.2  -8.8  34196  290.19 0855.24
2009/04/23 11:36:04.8     -35   -155      0    160    161 192.9  -0.3  34214  290.50 0855.24
2009/04/23 11:36:04.9     -26   -100     63    104    121 194.7  34.0  34228  290.72 0855.24
2009/04/23 11:36:05.0    -195   -221    166    295    338 221.4  31.7  34250  291.09 0855.24
2009/04/23 11:36:05.1    -170   -223    151    281    319 217.4  30.6  34246  291.02 0855.24
2009/04/23 11:36:05.2    -188   -283    185    340    387 213.6  31.0  34248  291.08 0855.24
2009/04/23 11:36:05.3    -175   -259    168    313    355 214.1  30.6  34256  291.20 0855.23
2009/04/23 11:36:05.4    -117   -279    155    303    340 202.7  29.3  34254  291.17 0855.23
2009/04/23 11:36:05.5     -59   -343    126    349    371 189.9  20.7  34250  291.11 0855.23
2009/04/23 11:36:05.6    -108   -326     94    344    357 198.4  15.4  34246  291.03 0855.23
2009/04/23 11:36:05.7    -283   -322    -23    429    430 221.3  -3.2  34274  291.50 0855.23
2009/04/23 11:36:05.8    -334   -212     17    396    397 237.6   2.5  34304  292.02 0855.23
2009/04/23 11:36:05.9    -295   -175    -36    344    346 239.3  -6.1  34274  291.51 0855.23
2009/04/23 11:36:06.0    -312   -179    -82    360    370 240.1 -12.9  34248  291.06 0855.23
2009/04/23 11:36:06.1    -388   -149      8    416    417 249.0   1.2  34292  291.82 0855.23
2009/04/23 11:36:06.2    -357   -196    -16    408    409 241.2  -2.3  34292  291.82 0855.23
2009/04/23 11:36:06.3    -383   -180      0    424    425 244.8   0.0  34246  291.04 0855.23
2009/04/23 11:36:06.4    -434   -102     33    446    448 256.7   4.2  34242  290.97 0855.23
2009/04/23 11:36:06.5    -441   -199    -49    484    487 245.7  -5.8  34246  291.03 0855.23
2009/04/23 11:36:06.6    -431    -76    -66    438    443 260.0  -8.6  34222  290.61 0855.23
2009/04/23 11:36:06.7    -405      5    -11    406    407 270.7  -1.6  34214  290.48 0855.23
2009/04/23 11:36:06.8    -426     40    -82    429    437 275.5 -10.8  34206  290.36 0855.23
2009/04/23 11:36:06.9    -327    -39    -56    330    335 263.1  -9.7  34212  290.45 0855.23
2009/04/23 11:36:07.0    -374      3    -24    375    376 270.6  -3.7  34204  290.32 0855.23
2009/04/23 11:36:07.1    -219    135    -65    258    267 301.6 -14.3  34200  290.24 0855.23
2009/04/23 11:36:07.2    -295     89    -98    309    324 286.8 -22.6  34222  290.61 0855.23
2009/04/23 11:36:07.3    -273     24    -88    275    289 275.2 -17.9  34232  290.78 0855.21
2009/04/23 11:36:07.4    -207     -2    -78    208    222 269.4 -25.9  34242  290.98 0855.21
2009/04/23 11:36:07.5    -220     64    -89    230    246 286.4 -26.5  34246  291.04 0855.21
2009/04/23 11:36:07.6    -185    -40    -65    190    202 257.8 -19.1  34244  290.99 0855.21
2009/04/23 11:36:07.7     -97    154    -30    183    186 327.7  -9.3  34238  290.89 0855.21
2009/04/23 11:36:07.8    -159    186    -28    245    247 319.5  -6.7  34220  290.59 0855.21
2009/04/23 11:36:07.9    -115    194     -4    226    227 329.3  -1.2  34210  290.41 0855.21
2009/04/23 11:36:08.0    -108    237    -33    261    264 335.5  -7.3  34210  290.42 0855.21
2009/04/23 11:36:08.1    -215     85    -50    232    238 291.5 -12.2  34218  290.56 0855.21
2009/04/23 11:36:08.2    -183    -40     -7    188    189 257.6  -2.2  34232  290.79 0855.21
2009/04/23 11:36:08.3     -92     17    -41     94    102 281.0 -29.0  34228  290.74 0855.21
2009/04/23 11:36:08.4    -318    -18   -119    319    340 266.6 -25.8  34236  290.86 0855.21
2009/04/23 11:36:08.5    -245   -138    -85    282    295 240.5 -16.8  34242  290.95 0855.21
2009/04/23 11:36:08.6    -169   -124    -74    210    222 233.8 -24.4  34220  290.58 0855.21
2009/04/23 11:36:08.7    -119   -127   -128    175    216 223.0 -44.1  34234  290.82 0855.21
2009/04/23 11:36:08.8    -104   -145    -83    179    197 215.6 -31.0  34216  290.53 0855.21
2009/04/23 11:36:08.9    -167   -153    -62    227    236 227.6 -15.4  34198  290.20 0855.21
2009/04/23 11:36:09.0    -251    -78   -106    263    283 252.7 -27.4  34178  289.86 0855.21
2009/04/23 11:36:09.1    -373    -24    -89    374    385 266.3 -13.4  34206  290.35 0855.21
2009/04/23 11:36:09.3    -317   -127    -32    342    344 248.1  -5.4  34212  290.47 0855.21
2009/04/23 11:36:09.4    -186   -223     46    291    295 219.9   9.0  34194  290.15 0855.21
2009/04/23 11:36:09.4    -167   -146     56    223    230 228.9  14.2  34194  290.16 0855.21
2009/04/23 11:36:09.6    -300   -198    -68    360    367 236.6 -10.8  34218  290.55 0855.21
2009/04/23 11:36:09.7    -241   -249    -38    347    350 224.0  -6.3  34202  290.27 0855.21
2009/04/23 11:36:09.8    -265   -207     27    337    339 232.1   4.7  34188  290.06 0855.21
2009/04/23 11:36:09.9    -183   -104    -75    211    224 240.2 -19.6  34184  289.97 0855.21
2009/04/23 11:36:10.0    -323   -100   -110    339    356 252.8 -23.0  34198  290.23 0855.21
2009/04/23 11:36:10.1    -389   -127   -185    410    449 251.8 -30.4  34164  289.63 0855.21
2009/04/23 11:36:10.2    -228   -203      9    306    307 228.2   1.8  34196  290.17 0855.21
2009/04/23 11:36:10.3    -116   -342     47    362    366 198.8   7.5  34198  290.21 0855.21
2009/04/23 11:36:10.4    -229   -255    -53    343    348 221.9  -8.8  34206  290.35 0855.21
2009/04/23 11:36:10.5    -211   -192    -36    286    289 227.8  -7.3  34198  290.20 0855.21
2009/04/23 11:36:10.6    -221   -109    -77    247    259 243.8 -17.3  34198  290.22 0855.21
2009/04/23 11:36:10.7    -225    -69    -79    236    248 252.9 -23.6  34176  289.85 0855.21
2009/04/23 11:36:10.8    -350   -117   -160    370    403 251.5 -29.5  34178  289.89 0855.21
2009/04/23 11:36:10.9    -194   -227    139    299    329 220.5  26.9  34214  290.49 0855.21
2009/04/23 11:36:11.0    -159   -188    120    247    274 220.1  27.8  34216  290.53 0855.21
2009/04/23 11:36:11.1    -190   -179     87    262    277 226.8  18.5  34198  290.22 0855.21
2009/04/23 11:36:11.2    -209   -157     85    262    276 233.1  18.1  34194  290.15 0855.21
2009/04/23 11:36:11.3    -293   -106    -29    312    314 250.0  -5.4  34192  290.10 0855.21
2009/04/23 11:36:11.4    -213   -211    -16    301    302 225.3  -3.2  34196  290.17 0855.21
2009/04/23 11:36:11.5    -209   -340    117    400    417 211.6  16.4  34202  290.29 0855.21
2009/04/23 11:36:11.6    -228   -282    125    363    385 219.0  19.1  34192  290.10 0855.21
2009/04/23 11:36:11.7    -249   -241     60    347    353 226.0   9.9  34204  290.33 0855.21
2009/04/23 11:36:11.8    -295   -303     22    423    424 224.2   3.0  34196  290.19 0855.21
2009/04/23 11:36:11.9    -221   -333     68    400    406 213.6   9.7  34196  290.19 0855.21
2009/04/23 11:36:12.0    -225   -330     19    400    401 214.3   2.8  34198  290.21 0855.21
2009/04/23 11:36:12.1    -187   -375     21    420    421 206.5   2.9  34190  290.07 0855.21
2009/04/23 11:36:12.2    -215   -382     -2    439    440 209.4  -0.3  34252  291.14 0855.21
2009/04/23 11:36:12.3    -223   -362    -14    426    427 211.7  -1.9  34250  291.09 0855.21
2009/04/23 11:36:12.4    -134   -390    -22    413    414 199.1  -3.1  34194  290.16 0855.21
2009/04/23 11:36:12.5    -171   -458    -26    490    491 200.5  -3.1  34176  289.84 0855.21
2009/04/23 11:36:12.6    -151   -434    -67    460    465 199.2  -8.4  34182  289.94 0855.21
2009/04/23 11:36:12.7    -148   -460    -39    484    486 197.9  -4.7  34182  289.96 0855.21
2009/04/23 11:36:12.8    -142   -435     26    458    459 198.1   3.3  34170  289.75 0855.21
2009/04/23 11:36:12.9    -136   -414     37    436    438 198.3   4.9  34168  289.72 0855.21
2009/04/23 11:36:13.0     -76   -441     -2    448    449 189.8  -0.3  34164  289.63 0855.21
2009/04/23 11:36:13.1     -56   -490    -19    494    495 186.6  -2.2  34160  289.57 0855.21
2009/04/23 11:36:13.2     -29   -488    -16    489    490 183.5  -1.9  34162  289.61 0855.21
2009/04/23 11:36:13.3     -42   -548    -53    550    553 184.5  -5.6  34162  289.60 0855.21
2009/04/23 11:36:13.4     -85   -516    -23    524    525 189.4  -2.6  34162  289.62 0855.22
2009/04/23 11:36:13.5      13   -437   -103    438    450 178.3 -13.3  34158  289.53 0855.22
2009/04/23 11:36:13.6     -69   -425     53    431    435 189.2   7.1  34160  289.58 0855.22
2009/04/23 11:36:13.7     -26   -472     40    473    475 183.2   4.9  34158  289.54 0855.22
2009/04/23 11:36:13.8     -64   -459    135    464    484 188.0  16.3  34172  289.76 0855.22
2009/04/23 11:36:13.9    -113   -445    150    460    485 194.3  18.1  34172  289.79 0855.22
2009/04/23 11:36:14.0    -100   -472     88    483    491 192.0  10.4  34174  289.81 0855.22
2009/04/23 11:36:14.1    -132   -513     34    530    532 194.5   3.7  34170  289.75 0855.22
2009/04/23 11:36:14.2    -194   -484     48    522    525 201.9   5.3  34172  289.77 0855.22
2009/04/23 11:36:14.3    -136   -642     75    657    662 192.0   6.6  34168  289.71 0855.22
2009/04/23 11:36:14.4    -144   -515     22    535    536 195.7   2.4  34172  289.77 0855.22
2009/04/23 11:36:14.5    -189   -486     62    522    526 201.3   6.9  34174  289.82 0855.22
2009/04/23 11:36:14.6    -173   -491     58    521    525 199.4   6.4  34166  289.67 0855.22
2009/04/23 11:36:14.7     -97   -350     63    364    370 195.6   9.9  34168  289.72 0855.22
2009/04/23 11:36:14.8     -38   -306     80    309    320 187.1  14.6  34168  289.70 0855.22
2009/04/23 11:36:14.9    -109   -334      4    352    353 198.1   0.7  34172  289.79 0855.22
2009/04/23 11:36:15.0    -166   -342    -41    381    384 206.0  -6.3  34188  290.03 0855.22
2009/04/23 11:36:15.1    -139   -320     15    349    350 203.5   2.5  34178  289.86 0855.22
2009/04/23 11:36:15.2    -110   -306     73    326    335 199.9  12.6  34172  289.79 0855.22
2009/04/23 11:36:15.3    -116   -234     30    262    264 206.5   6.7  34174  289.80 0855.22
2009/04/23 11:36:15.4    -126   -266     14    295    296 205.3   2.8  34176  289.85 0855.21
2009/04/23 11:36:15.5    -145   -269     15    306    307 208.3   2.9  34172  289.78 0855.21
2009/04/23 11:36:15.6    -112   -259     -5    283    284 203.4  -1.2  34172  289.78 0855.21
2009/04/23 11:36:15.7     -88   -200     38    219    223 203.8   9.9  34174  289.82 0855.21
2009/04/23 11:36:15.8      14   -245     34    246    249 176.6   8.0  34176  289.85 0855.21
2009/04/23 11:36:15.9      14   -293     96    294    310 177.1  18.1  34176  289.85 0855.21
2009/04/23 11:36:16.0      -3   -352     51    353    357 180.5   8.3  34164  289.65 0855.21
2009/04/23 11:36:16.1       0   -434    -72    435    441 180.0  -9.5  34166  289.68 0855.21
2009/04/23 11:36:16.2      12   -409     64    410    416 178.2   8.9  34168  289.72 0855.21
2009/04/23 11:36:16.3     125   -448    -63    466    471 164.4  -7.7  34170  289.74 0855.21
2009/04/23 11:36:16.4     192   -387    -17    433    434 153.6  -2.3  34172  289.77 0855.21
2009/04/23 11:36:16.5     140   -351    -21    379    380 158.2  -3.2  34180  289.91 0855.21
2009/04/23 11:36:16.6     166   -379     20    415    416 156.3   2.8  34176  289.85 0855.21
2009/04/23 11:36:16.7      25   -350    123    351    373 175.8  19.4  34174  289.81 0855.21
2009/04/23 11:36:16.8     -66   -233     18    243    244 195.8   4.4  34170  289.75 0855.21
2009/04/23 11:36:16.9     -15   -141     52    142    151 186.2  21.0  34166  289.67 0855.21
2009/04/23 11:36:17.0      12   -135     74    136    154 174.7  31.3  34180  289.91 0855.21
2009/04/23 11:36:17.1      57   -220     78    228    242 165.5  18.9  34176  289.83 0855.21
2009/04/23 11:36:17.2     149   -211     55    259    265 144.8  12.0  34174  289.81 0855.21
2009/04/23 11:36:17.3     100   -251     52    271    277 158.2  11.0  34182  289.93 0855.21
2009/04/23 11:36:17.4     120   -202     89    236    252 149.3  21.5  34182  289.95 0855.21
2009/04/23 11:36:17.5      -7   -203    101    204    227 182.0  28.0  34190  290.08 0855.21
2009/04/23 11:36:17.6      10   -224     46    225    230 177.3  11.6  34196  290.19 0855.21
2009/04/23 11:36:17.7      30   -313    139    315    344 174.4  25.6  34198  290.23 0855.21
2009/04/23 11:36:17.8       4   -300     64    301    308 179.1  12.0  34192  290.12 0855.21
2009/04/23 11:36:17.9    -114   -260     -3    284    285 203.7  -0.7  34186  290.02 0855.21
2009/04/23 11:36:18.0    -186   -211     34    282    285 221.4   6.9  34184  289.98 0855.21
2009/04/23 11:36:18.1    -251   -252     19    356    357 224.9   3.1  34200  290.25 0855.21
2009/04/23 11:36:18.2    -200   -259     29    328    330 217.7   5.2  34190  290.08 0855.21
2009/04/23 11:36:18.3    -175   -211      7    275    276 219.7   1.6  34192  290.12 0855.21
2009/04/23 11:36:18.4     -73   -156     52    173    181 205.3  16.8  34192  290.13 0855.21
2009/04/23 11:36:18.5     -93   -142    114    170    204 213.2  37.0  34190  290.09 0855.21
2009/04/23 11:36:18.6    -157   -121    104    199    224 232.5  29.8  34200  290.26 0855.21
2009/04/23 11:36:18.7    -145   -153    101    212    234 223.4  27.2  34200  290.26 0855.21
2009/04/23 11:36:18.8    -133   -139     75    193    207 223.9  22.5  34198  290.23 0855.21
2009/04/23 11:36:18.9    -159   -139     67    212    223 228.7  17.7  34194  290.14 0855.21
2009/04/23 11:36:19.0    -135   -152     68    204    216 221.5  18.6  34192  290.11 0855.21
2009/04/23 11:36:19.1    -127   -135     36    186    190 223.2  11.0  34190  290.08 0855.21
2009/04/23 11:36:19.2    -144   -148     24    207    209 224.3   6.7  34190  290.08 0855.21
2009/04/23 11:36:19.3    -110   -191     51    221    227 210.1  13.2  34182  289.94 0855.21
2009/04/23 11:36:19.4    -128   -267     47    297    301 205.6   9.0  34184  289.97 0855.20
2009/04/23 11:36:19.5     -98   -257     54    276    282 200.9  11.1  34188  290.05 0855.20
2009/04/23 11:36:19.6    -111   -234    104    260    280 205.4  23.0  34186  290.00 0855.20
2009/04/23 11:36:19.7    -138   -216    107    257    278 212.5  24.1  34188  290.03 0855.20
2009/04/23 11:36:19.8    -131   -276    154    306    342 205.4  28.6  34188  290.03 0855.20
2009/04/23 11:36:19.9    -124   -313    122    337    359 201.7  19.9  34182  289.94 0855.20
2009/04/23 11:36:20.0    -138   -294     80    326    336 205.2  13.8  34182  289.94 0855.20
2009/04/23 11:36:20.1    -140   -256     95    292    308 208.7  18.1  34184  289.98 0855.20
2009/04/23 11:36:20.2    -141   -321    118    351    371 203.7  18.6  34180  289.91 0855.20
2009/04/23 11:36:20.3    -104   -280     -1    300    301 200.5  -0.3  34178  289.88 0855.20
2009/04/23 11:36:20.4     -98   -341     36    355    357 196.0   5.8  34182  289.96 0855.20
2009/04/23 11:36:20.5    -158   -271      4    315    316 210.3   0.8  34180  289.90 0855.20
2009/04/23 11:36:20.6     -89   -300    101    313    329 196.5  17.9  34178  289.88 0855.20
2009/04/23 11:36:20.7     -68   -331    233    339    411 191.7  37.9  34184  289.98 0855.20
2009/04/23 11:36:20.8    -138   -334    128    362    383 202.4  20.3  34182  289.96 0855.20
2009/04/23 11:36:20.9    -157   -293    110    333    351 208.3  18.4  34186  290.01 0855.20
2009/04/23 11:36:21.0    -134   -300    178    329    374 204.2  30.8  34192  290.10 0855.20
2009/04/23 11:36:21.1    -205   -322    211    382    436 212.5  31.4  34186  290.00 0855.20
2009/04/23 11:36:21.2    -187   -233    203    299    361 218.7  37.4  34182  289.94 0855.20
2009/04/23 11:36:21.3    -106   -207    242    233    335 207.2  51.3  34186  290.02 0855.20
2009/04/23 11:36:21.4     -78   -243    208    256    329 197.8  43.4  34184  289.98 0855.19
2009/04/23 11:36:21.5     -37   -279    167    282    327 187.6  33.5  34178  289.88 0855.19
2009/04/23 11:36:21.6     -64   -294    224    302    376 192.4  40.1  34188  290.04 0855.19
2009/04/23 11:36:21.7      17   -338    219    339    403 177.1  35.9  34188  290.06 0855.19
2009/04/23 11:36:21.8     -21   -270    192    271    332 184.5  38.8  34186  290.02 0855.19
2009/04/23 11:36:21.9     -64   -268    197    276    339 193.6  39.1  34184  289.97 0855.19
2009/04/23 11:36:22.0    -164   -259    248    307    394 212.3  43.0  34210  290.43 0855.19
2009/04/23 11:36:22.1     -95   -256    228    274    356 200.5  44.0  34184  289.99 0855.19
2009/04/23 11:36:22.2     -75   -295    221    305    376 194.3  39.5  34184  289.98 0855.19
2009/04/23 11:36:22.3     -91   -313    207    327    387 196.3  35.5  34196  290.18 0855.19
2009/04/23 11:36:22.4    -147   -225    192    270    331 213.2  39.0  34204  290.32 0855.19
2009/04/23 11:36:22.5    -123   -154    173    198    262 218.7  45.8  34240  290.93 0855.19
2009/04/23 11:36:22.6     -77   -189    189    205    278 202.3  47.9  34212  290.44 0855.19
2009/04/23 11:36:22.7    -116   -235    223    263    344 206.3  44.5  34194  290.15 0855.19
2009/04/23 11:36:22.8    -122   -268    230    295    374 204.5  41.9  34196  290.18 0855.19
2009/04/23 11:36:22.9     -74   -274    183    284    337 195.2  35.7  34188  290.03 0855.19
2009/04/23 11:36:23.0     -32   -252    221    255    337 187.3  45.4  34180  289.92 0855.19
2009/04/23 11:36:23.1      20   -280    219    281    356 175.8  41.9  34182  289.94 0855.19
2009/04/23 11:36:23.2     -98   -224    236    245    340 203.6  49.0  34188  290.03 0855.19
2009/04/23 11:36:23.3    -163   -374    156    409    437 203.6  22.0  34182  289.95 0855.19
2009/04/23 11:36:23.4    -129   -325    141    350    377 201.7  23.1  34182  289.96 0855.20
2009/04/23 11:36:23.5    -150   -318     79    352    361 205.4  12.8  34178  289.89 0855.20
2009/04/23 11:36:23.6    -189   -260     10    322    323 216.0   1.9  34178  289.86 0855.20
2009/04/23 11:36:23.7    -186   -262     63    322    329 215.4  11.1  34180  289.90 0855.20
2009/04/23 11:36:23.8     -65   -214    203    224    302 197.0  47.0  34178  289.88 0855.20
2009/04/23 11:36:23.9    -107   -269    110    290    310 201.8  21.7  34178  289.88 0855.20
2009/04/23 11:36:24.0    -112   -295     20    316    317 200.9   3.8  34182  289.95 0855.20
2009/04/23 11:36:24.1    -191   -220    130    292    319 221.0  25.7  34188  290.03 0855.20
2009/04/23 11:36:24.2    -129   -261     79    292    303 206.3  15.3  34182  289.95 0855.20
2009/04/23 11:36:24.3    -175   -278     34    329    331 212.3   6.0  34188  290.03 0855.20
2009/04/23 11:36:24.4    -118   -302     41    325    328 201.4   7.2  34178  289.86 0855.20
2009/04/23 11:36:24.5    -106   -266    121    287    311 201.9  24.2  34176  289.85 0855.20
2009/04/23 11:36:24.6     -48   -337    129    341    364 188.1  21.6  34178  289.87 0855.20
2009/04/23 11:36:24.7      75   -454     86    461    469 170.6  10.6  34172  289.79 0855.20
2009/04/23 11:36:24.8      77   -391    181    399    438 168.8  26.2  34176  289.83 0855.20
2009/04/23 11:36:24.9     -26   -431    151    432    457 183.5  20.0  34176  289.83 0855.20
2009/04/23 11:36:25.0     -27   -353     79    355    364 184.5  12.6  34176  289.84 0855.20
2009/04/23 11:36:25.1     224   -282     10    361    362 141.6   1.7  34182  289.93 0855.20
2009/04/23 11:36:25.2     154   -296    -42    334    337 152.5  -7.3  34182  289.93 0855.20
2009/04/23 11:36:25.3     130   -340    -34    365    367 159.1  -5.4  34174  289.82 0855.20
2009/04/23 11:36:25.4     140   -324      6    354    355 156.6   1.1  34174  289.81 0855.20
2009/04/23 11:36:25.5     119   -328    -13    350    351 160.0  -2.2  34176  289.84 0855.20
2009/04/23 11:36:25.6     112   -355     18    373    374 162.4   2.9  34174  289.81 0855.20
2009/04/23 11:36:25.7     168   -364    -64    402    408 155.2  -9.1  34176  289.85 0855.20
2009/04/23 11:36:25.8     188   -368    -84    414    423 152.9 -11.6  34176  289.85 0855.20
2009/04/23 11:36:25.9     182   -316    -91    365    377 150.1 -14.1  34174  289.82 0855.20
2009/04/23 11:36:26.0     195   -263    -76    328    337 143.5 -13.1  34178  289.87 0855.20
2009/04/23 11:36:26.1     120   -298    -17    322    323 158.1  -3.1  34180  289.92 0855.20
2009/04/23 11:36:26.2      89   -298    -80    312    323 163.3 -14.4  34182  289.93 0855.20
2009/04/23 11:36:26.3     101   -332    -53    348    353 163.1  -8.7  34188  290.06 0855.20
2009/04/23 11:36:26.4     157   -315     -9    353    354 153.5  -1.6  34192  290.13 0855.21
2009/04/23 11:36:26.5     117   -278     25    302    304 157.1   4.9  34192  290.10 0855.21
2009/04/23 11:36:26.6      80   -327    118    337    358 166.1  19.4  34188  290.06 0855.21
2009/04/23 11:36:26.7      28   -362     27    364    365 175.5   4.4  34194  290.16 0855.21
2009/04/23 11:36:26.8     -10   -355     41    356    359 181.7   6.7  34196  290.18 0855.21
2009/04/23 11:36:26.9      -5   -345     90    346    358 180.9  14.6  34188  290.04 0855.21
2009/04/23 11:36:27.0      -6   -396     85    397    407 181.0  12.2  34194  290.14 0855.21
2009/04/23 11:36:27.1      26   -346    127    347    369 175.7  20.9  34188  290.04 0855.21
2009/04/23 11:36:27.2      13   -368    131    369    391 177.9  20.3  34188  290.03 0855.21
2009/04/23 11:36:27.3       5   -338    162    339    375 179.1  27.3  34192  290.10 0855.21
2009/04/23 11:36:27.4      23   -339    127    340    362 176.0  21.4  34186  290.01 0855.21
2009/04/23 11:36:27.5     -75   -340    138    349    375 192.5  22.9  34192  290.10 0855.21
2009/04/23 11:36:27.6      15   -339    106    340    357 177.4  17.3  34184  289.98 0855.21
2009/04/23 11:36:27.7      11   -342    119    343    364 178.1  19.2  34188  290.04 0855.21
2009/04/23 11:36:27.8      20   -378    150    379    407 176.9  22.8  34188  290.04 0855.21
2009/04/23 11:36:27.9      24   -416    147    417    443 176.6  19.4  34186  290.02 0855.21
2009/04/23 11:36:28.0     103   -441    138    453    474 166.8  17.0  34190  290.08 0855.21
2009/04/23 11:36:28.1       6   -457    121    458    474 179.2  14.9  34192  290.10 0855.21
2009/04/23 11:36:28.2     -96   -423    113    434    449 192.9  14.6  34182  289.95 0855.21
2009/04/23 11:36:28.3    -347   -362   -110    502    515 223.8 -12.4  34188  290.03 0855.21
2009/04/23 11:36:28.4    -284   -403    -27    494    495 215.2  -3.2  34192  290.10 0855.21
2009/04/23 11:36:28.5    -228   -471   -141    524    543 205.9 -15.1  34188  290.06 0855.21
2009/04/23 11:36:28.6    -213   -540   -116    581    593 201.6 -11.3  34186  290.00 0855.21
2009/04/23 11:36:28.7    -204   -386   -138    437    459 207.9 -17.5  34180  289.92 0855.21
2009/04/23 11:36:28.8    -131   -327    103    353    368 201.8  16.3  34190  290.08 0855.21
2009/04/23 11:36:28.9    -218   -384    -61    442    447 209.7  -7.9  34194  290.14 0855.21
2009/04/23 11:36:29.0    -227   -355   -121    422    440 212.6 -16.0  34192  290.11 0855.21
2009/04/23 11:36:29.1     -67   -414     35    420    422 189.2   4.9  34190  290.07 0855.21
2009/04/23 11:36:29.2     -80   -444     47    452    455 190.2   6.0  34194  290.14 0855.21
2009/04/23 11:36:29.3    -105   -377    -56    392    397 195.7  -8.2  34198  290.21 0855.21
2009/04/23 11:36:29.4     -89   -542    -33    550    551 189.3  -3.5  34202  290.28 0855.21
2009/04/23 11:36:29.5     -92   -593    -23    601    602 188.9  -2.2  34192  290.12 0855.21
2009/04/23 11:36:29.6     -79   -557    -31    563    564 188.1  -3.2  34188  290.06 0855.21
2009/04/23 11:36:29.7     -83   -537    -48    544    547 188.8  -5.1  34192  290.11 0855.21
2009/04/23 11:36:29.8     -41   -490    -58    492    496 184.9  -6.8  34188  290.06 0855.21
2009/04/23 11:36:29.9      -8   -494    -46    495    498 181.0  -5.3  34188  290.03 0855.21
2009/04/23 11:36:30.0     -21   -487    -49    488    491 182.5  -5.8  34192  290.10 0855.21
2009/04/23 11:36:30.1     -60   -477    -82    481    488 187.2  -9.7  34186  290.01 0855.21
2009/04/23 11:36:30.2     -30   -467    -62    468    473 183.7  -7.6  34192  290.10 0855.21
2009/04/23 11:36:30.3     -13   -529    -29    530    531 181.5  -3.2  34192  290.13 0855.21
2009/04/23 11:36:30.4     -16   -539    -68    540    545 181.8  -7.2  34190  290.09 0855.22
2009/04/23 11:36:30.5       9   -630    -89    631    638 179.1  -8.1  34190  290.08 0855.22
2009/04/23 11:36:30.6     -45   -580    -51    582    585 184.5  -5.1  34190  290.07 0855.22
2009/04/23 11:36:30.7      25   -567    -31    568    569 177.4  -3.2  34192  290.10 0855.22
2009/04/23 11:36:30.8     -16   -453    -13    454    455 182.1  -1.7  34194  290.14 0855.22
2009/04/23 11:36:30.9      44   -433     34    436    438 174.2   4.6  34194  290.14 0855.22
2009/04/23 11:36:31.0      67   -423     44    429    432 170.9   6.0  34192  290.11 0855.22
2009/04/23 11:36:31.1      95   -397    -32    409    411 166.5  -4.5  34190  290.09 0855.22
2009/04/23 11:36:31.2     -51   -412    -16    416    417 187.1  -2.3  34192  290.11 0855.22
2009/04/23 11:36:31.3     -63   -369    -35    375    377 189.7  -5.4  34190  290.08 0855.22
2009/04/23 11:36:31.4       0   -390    -28    391    392 180.1  -4.1  34192  290.10 0855.22
2009/04/23 11:36:31.5      30   -396    -14    398    399 175.6  -2.1  34192  290.11 0855.22
2009/04/23 11:36:31.6      45   -409     -5    412    413 173.7  -0.7  34186  290.00 0855.22
2009/04/23 11:36:31.7      16   -399   -110    400    414 177.7 -20.0  34190  290.07 0855.22
2009/04/23 11:36:31.8     -98   -439    -46    451    454 192.7  -5.9  34190  290.09 0855.22
2009/04/23 11:36:31.9     -20   -455    -72    456    462 182.6  -9.0  34198  290.22 0855.22
2009/04/23 11:36:32.0       0   -435    -70    436    442 180.0  -9.1  34202  290.29 0855.22
2009/04/23 11:36:32.1      -8   -426    -54    427    431 181.1  -7.2  34202  290.29 0855.22
2009/04/23 11:36:32.2     -35   -404    -81    406    415 185.0 -11.3  34202  290.28 0855.22
2009/04/23 11:36:32.3     -36   -410    -90    412    422 185.1 -12.4  34202  290.28 0855.21
2009/04/23 11:36:32.4       7   -407   -100    408    421 179.0 -13.8  34204  290.31 0855.21
2009/04/23 11:36:32.5     104   -386      6    400    401 164.9   0.9  34198  290.23 0855.21
2009/04/23 11:36:32.6     175   -392     75    430    437 155.9   9.9  34196  290.19 0855.21
2009/04/23 11:36:32.7     179   -463    -19    497    498 158.8  -2.2  34198  290.23 0855.21
2009/04/23 11:36:32.8     103   -438    -74    450    457 166.7  -9.4  34198  290.21 0855.21
2009/04/23 11:36:32.9     -25   -532    -49    533    536 182.8  -5.3  34202  290.30 0855.21
2009/04/23 11:36:33.0     -58   -534   -126    538    553 186.3 -13.3  34202  290.28 0855.21
2009/04/23 11:36:33.1     -88   -571    -22    578    579 188.8  -2.2  34200  290.24 0855.21
2009/04/23 11:36:33.2    -111   -566    -61    577    581 191.1  -6.1  34202  290.27 0855.21
2009/04/23 11:36:33.3    -111   -502    -65    515    520 192.5  -7.2  34204  290.32 0855.21
2009/04/23 11:36:33.4     -45   -488   -108    491    503 185.3 -12.5  34202  290.30 0855.21
2009/04/23 11:36:33.5     -46   -370    -43    373    376 187.1  -6.6  34206  290.35 0855.21
2009/04/23 11:36:33.6    -205   -345     34    402    404 210.7   4.9  34206  290.36 0855.21
2009/04/23 11:36:33.7    -256   -318     12    409    410 218.8   1.7  34210  290.41 0855.21
2009/04/23 11:36:33.8    -183   -393     22    434    435 204.9   3.0  34212  290.46 0855.21
2009/04/23 11:36:33.9     -41   -426    -38    429    431 185.6  -5.2  34206  290.34 0855.21
2009/04/23 11:36:34.0     -78   -306     88    316    329 194.3  15.6  34208  290.39 0855.21
2009/04/23 11:36:34.1     -21   -350     -7    351    352 183.5  -1.3  34202  290.28 0855.21
2009/04/23 11:36:34.2      13   -426    -54    427    431 178.2  -7.3  34202  290.28 0855.21
2009/04/23 11:36:34.3     -41   -382   -138    385    410 186.3 -19.7  34198  290.20 0855.20
2009/04/23 11:36:34.4    -173   -382     -8    420    421 204.4  -1.2  34198  290.22 0855.20
2009/04/23 11:36:34.5    -210   -354    -45    412    415 210.7  -6.3  34206  290.34 0855.20
2009/04/23 11:36:34.6    -210   -295      3    363    364 215.5   0.5  34214  290.49 0855.20
2009/04/23 11:36:34.7    -273   -215     43    348    351 231.8   7.1  34218  290.57 0855.20
2009/04/23 11:36:34.8    -258   -156    -38    302    305 238.7  -7.2  34216  290.53 0855.20
2009/04/23 11:36:34.9    -220   -144    -14    264    265 236.7  -3.1  34238  290.90 0855.20
2009/04/23 11:36:35.0    -126   -152     -7    198    199 219.7  -2.2  34232  290.81 0855.20
2009/04/23 11:36:35.1     -28   -157    -21    160    162 190.2  -7.7  34226  290.69 0855.20
2009/04/23 11:36:35.2       3   -171    -47    172    179 178.9 -15.5  34226  290.69 0855.20
2009/04/23 11:36:35.3     -17   -269     -5    270    271 183.6  -1.2  34216  290.51 0855.20
2009/04/23 11:36:35.4      32   -254     -1    257    258 172.7  -0.3  34204  290.31 0855.20
2009/04/23 11:36:35.5      44   -261    -40    265    269 170.4  -8.6  34202  290.29 0855.20
2009/04/23 11:36:35.6      27   -265    -70    267    277 174.0 -14.7  34200  290.26 0855.20
2009/04/23 11:36:35.7       8   -229    -54    230    237 178.0 -13.3  34200  290.26 0855.20
2009/04/23 11:36:35.9      23   -221    -64    223    233 174.0 -16.0  34202  290.28 0855.20
2009/04/23 11:36:36.0      44   -233   -101    238    258 169.3 -28.6  34204  290.31 0855.20
2009/04/23 11:36:36.0      61   -170    -90    181    202 160.2 -32.6  34200  290.26 0855.20
2009/04/23 11:36:36.2      15   -155   -127    156    201 174.2 -47.9  34208  290.38 0855.20
2009/04/23 11:36:36.3     -85   -180    -90    200    219 205.2 -30.3  34206  290.35 0855.20
2009/04/23 11:36:36.4     -91   -171    -24    194    196 208.1  -7.3  34204  290.31 0855.17
2009/04/23 11:36:36.5     -71   -105     22    128    131 214.2  10.1  34206  290.35 0855.17
2009/04/23 11:36:36.6      57   -141     69    153    167 158.1  25.9  34202  290.28 0855.17
2009/04/23 11:36:36.7      50   -125     79    135    156 158.2  33.1  34204  290.31 0855.17
2009/04/23 11:36:36.8      34   -107     34    113    119 162.2  16.8  34200  290.25 0855.17
2009/04/23 11:36:36.9      -8    -40     23     41     47 191.6  32.4  34204  290.33 0855.17
2009/04/23 11:36:37.0       4    -77     25     78     83 176.4  17.9  34206  290.35 0855.17
2009/04/23 11:36:37.1       5   -108     39    109    115 177.3  20.0  34206  290.35 0855.17
2009/04/23 11:36:37.2     -10    -97     33     98    104 186.2  18.9  34204  290.33 0855.17
2009/04/23 11:36:37.3      -1   -108     45    109    117 181.0  23.6  34200  290.26 0855.17
2009/04/23 11:36:37.4     -17   -119     97    121    155 188.5  43.7  34202  290.30 0855.17
2009/04/23 11:36:37.5     -19   -158     48    160    168 187.1  16.8  34198  290.23 0855.17
2009/04/23 11:36:37.6      12   -211    105    212    236 176.6  28.2  34204  290.33 0855.17
2009/04/23 11:36:37.7      45   -229    101    234    254 168.9  24.9  34212  290.46 0855.17
2009/04/23 11:36:37.8      29   -217    152    219    266 172.2  38.0  34212  290.44 0855.17
2009/04/23 11:36:37.9      68   -217    140    228    267 162.6  34.5  34212  290.44 0855.17
2009/04/23 11:36:38.0       1   -191    179    192    262 179.5  47.9  34214  290.49 0855.17
2009/04/23 11:36:38.1      53   -112    143    125    189 154.6  54.6  34220  290.58 0855.17
2009/04/23 11:36:38.2      10    -55     75     56     93 169.3  59.4  34222  290.62 0855.17
2009/04/23 11:36:38.3      37   -100    104    107    149 159.5  49.4  34220  290.60 0855.17
2009/04/23 11:36:38.4      16    -82     70     84    109 168.4  43.8  34220  290.60 0855.15
2009/04/23 11:36:38.5      30    -70     98     77    124 156.4  58.4  34224  290.67 0855.15
2009/04/23 11:36:38.6     -31    -12     79     34     86 248.3  75.5  34234  290.84 0855.15
2009/04/23 11:36:38.7     -16    -22     34     28     44 216.1  55.4  34226  290.69 0855.15
2009/04/23 11:36:38.8     -27     -7     27     29     39 254.9  49.0  34222  290.64 0855.15
2009/04/23 11:36:38.9     -32    -31     57     45     72 225.9  56.4  34224  290.65 0855.15
2009/04/23 11:36:39.0      24      4     65     25     69  80.3  78.2  34232  290.79 0855.15
2009/04/23 11:36:39.1     -17    -11     44     21     48 237.5  74.0  34232  290.81 0855.15
2009/04/23 11:36:39.2       8   -102     97    103    141 175.5  48.0  34224  290.65 0855.15
2009/04/23 11:36:39.3      39   -171    106    176    205 166.9  34.0  34220  290.58 0855.15
2009/04/23 11:36:39.4      19   -174    125    176    215 173.8  39.3  34210  290.41 0855.15
2009/04/23 11:36:39.5     184   -239    103    302    320 142.4  18.9  34206  290.36 0855.15
2009/04/23 11:36:39.6     165   -302     88    345    357 151.4  14.3  34208  290.40 0855.15
2009/04/23 11:36:39.7     190   -313    113    367    385 148.8  17.2  34204  290.33 0855.15
2009/04/23 11:36:39.8     127   -326     68    350    357 158.7  11.1  34204  290.32 0855.15
2009/04/23 11:36:39.9     114   -219    117    248    274 152.4  27.1  34208  290.39 0855.15
2009/04/23 11:36:40.0     128   -222    150    257    297 149.9  32.9  34210  290.42 0855.15
2009/04/23 11:36:40.1      81   -243    147    257    296 161.5  32.4  34210  290.42 0855.15
2009/04/23 11:36:40.2      99   -225    165    247    297 156.2  37.0  34214  290.49 0855.15
2009/04/23 11:36:40.3      87   -204    105    222    245 156.8  27.1  34214  290.49 0855.15
2009/04/23 11:36:40.4     -16   -173     68    174    186 185.6  22.8  34214  290.48 0855.12
2009/04/23 11:36:40.5     -18   -130     30    132    136 188.1  13.1  34212  290.45 0855.12
2009/04/23 11:36:40.6       7   -118     30    119    123 176.4  14.3  34212  290.45 0855.12
2009/04/23 11:36:40.7     101    -31     61    106    122 107.3  32.4  34216  290.52 0855.12
2009/04/23 11:36:40.8      54    -65     55     85    101 140.4  36.0  34216  290.52 0855.12
2009/04/23 11:36:40.9     112   -137     74    178    192 140.8  23.6  34214  290.50 0855.12
2009/04/23 11:36:41.0      34    -97    102    104    145 160.4  50.0  34212  290.47 0855.12
2009/04/23 11:36:41.1      24   -118     98    121    155 168.5  43.7  34212  290.45 0855.12
2009/04/23 11:36:41.2     -70   -114     24    135    138 211.6  10.1  34216  290.53 0855.12
2009/04/23 11:36:41.3      15   -127     29    128    132 172.9  13.1  34212  290.47 0855.12
2009/04/23 11:36:41.4      25    -89    103     93    138 164.0  52.7  34216  290.52 0855.12
2009/04/23 11:36:41.5     -21   -106     50    109    119 191.6  26.2  34222  290.64 0855.12
2009/04/23 11:36:41.6     -16   -100    105    102    146 189.3  50.7  34216  290.53 0855.12
2009/04/23 11:36:41.7    -109   -172     84    204    220 212.5  23.4  34234  290.82 0855.12
2009/04/23 11:36:41.8    -100   -181     64    207    217 209.0  17.3  34266  291.38 0855.12
2009/04/23 11:36:41.9    -109   -171     66    203    214 212.5  18.1  34270  291.45 0855.12
2009/04/23 11:36:42.0    -139   -181     79    229    243 217.6  19.2  34280  291.60 0855.12
2009/04/23 11:36:42.1    -149   -218     63    265    273 214.3  13.5  34250  291.10 0855.12
2009/04/23 11:36:42.2    -114   -224     91    252    269 207.0  19.9  34222  290.61 0855.12
2009/04/23 11:36:42.3    -154   -200     35    253    256 217.8   8.0  34220  290.58 0855.12
2009/04/23 11:36:42.4    -100   -187     26    213    215 208.1   7.2  34212  290.45 0855.12
2009/04/23 11:36:42.5     -37   -191    110    195    223 191.1  31.9  34214  290.48 0855.12
2009/04/23 11:36:42.6      24   -193     65    195    206 172.7  18.6  34220  290.60 0855.12
2009/04/23 11:36:42.7     118    -97    123    154    197 129.5  42.7  34226  290.70 0855.12
2009/04/23 11:36:42.8      76    -53     88     93    128 125.1  48.5  34228  290.74 0855.12
2009/04/23 11:36:42.9     113    -77    110    137    175 124.2  43.0  34230  290.77 0855.12
2009/04/23 11:36:43.0      49    -49    106     70    127 135.0  63.6  34240  290.92 0855.12
2009/04/23 11:36:43.1      76    -15     71     78    105 101.4  47.5  34236  290.86 0855.12
2009/04/23 11:36:43.2      69    -33     90     77    118 115.4  54.8  34234  290.84 0855.12
2009/04/23 11:36:43.3     125    -61     99    140    171 116.2  38.8  34234  290.84 0855.12
2009/04/23 11:36:43.4      20    -76     81     79    113 164.8  50.1  34234  290.84 0855.12
2009/04/23 11:36:43.5     -19   -118    133    120    179 189.3  53.0  34222  290.62 0855.12
2009/04/23 11:36:43.6     -76   -175    107    192    219 203.6  31.4  34222  290.64 0855.12
2009/04/23 11:36:43.7     -58   -155    108    166    198 200.7  36.3  34216  290.52 0855.12
2009/04/23 11:36:43.8     -77   -120    131    143    193 212.6  47.7  34226  290.69 0855.12
2009/04/23 11:36:43.9     -66    -86    125    109    165 217.4  54.6  34228  290.74 0855.12
2009/04/23 11:36:44.0     -43    -97    121    107    161 204.1  53.7  34230  290.75 0855.12
2009/04/23 11:36:44.1       0   -149    102    150    181 180.0  37.6  34222  290.62 0855.12
2009/04/23 11:36:44.2     -20   -150     91    152    177 187.6  33.7  34222  290.64 0855.12
2009/04/23 11:36:44.3     -37   -133     55    139    149 195.6  23.0  34220  290.58 0855.12
2009/04/23 11:36:44.4     -23   -136     58    139    150 189.8  23.6  34220  290.58 0855.11
2009/04/23 11:36:44.5     -36   -123     68    129    145 196.5  30.3  34218  290.57 0855.11
2009/04/23 11:36:44.6     -36   -123     68    129    145 196.5  30.3  34214  290.48 0855.11
2009/04/23 11:36:44.7      -8   -113    107    114    156 184.4  48.0  34220  290.58 0855.11
2009/04/23 11:36:44.8     -26   -128     63    131    145 191.5  27.3  34220  290.60 0855.11
2009/04/23 11:36:44.9     -58   -111     37    126    132 207.6  16.3  34216  290.53 0855.11
2009/04/23 11:36:45.0     -53   -105     58    118    131 206.7  27.8  34220  290.58 0855.11
2009/04/23 11:36:45.1     -16    -47     88     50    101 198.7  68.3  34230  290.75 0855.11
2009/04/23 11:36:45.2       4    -22     73     23     76 168.4  80.7  34242  290.96 0855.11
2009/04/23 11:36:45.3       5    -53     68     54     86 173.8  57.5  34242  290.96 0855.11
2009/04/23 11:36:45.4       7    -89     84     90    123 175.5  48.0  34236  290.87 0855.11
2009/04/23 11:36:45.5       0    -84     24     85     89 180.0  16.3  34230  290.75 0855.11
2009/04/23 11:36:45.6      -5    -67     40     68     78 184.5  33.5  34226  290.69 0855.11
2009/04/23 11:36:45.7      -7   -140     38    141    147 183.1  15.2  34224  290.67 0855.11
2009/04/23 11:36:45.8       0   -158     42    159    165 180.0  15.0  34222  290.62 0855.11
2009/04/23 11:36:45.9     -13   -170     72    171    185 184.7  23.8  34218  290.57 0855.11
2009/04/23 11:36:46.0     -44   -221     86    226    241 191.5  22.0  34214  290.48 0855.11
2009/04/23 11:36:46.1     -11   -161    110    162    195 184.2  37.6  34220  290.60 0855.11
2009/04/23 11:36:46.2      11   -149    119    150    191 175.5  42.7  34224  290.65 0855.11
2009/04/23 11:36:46.3      19   -172    101    174    201 173.5  32.9  34222  290.62 0855.11
2009/04/23 11:36:46.4      28   -160     95    163    188 170.0  32.9  34222  290.62 0855.13
2009/04/23 11:36:46.5       0   -164     96    165    190 180.2  32.9  34222  290.64 0855.13
2009/04/23 11:36:46.6     -47   -230     81    235    249 191.6  19.2  34232  290.80 0855.13
2009/04/23 11:36:46.7     -55   -184    104    193    219 196.7  30.8  34232  290.81 0855.13
2009/04/23 11:36:46.8     -70   -230    138    241    277 196.9  32.4  34232  290.80 0855.13
2009/04/23 11:36:46.9     -80   -253    142    266    301 197.6  30.6  34230  290.75 0855.13
2009/04/23 11:36:47.0     -67   -218    154    229    275 197.2  37.3  34232  290.78 0855.13
2009/04/23 11:36:47.1     -70   -243    107    253    274 196.1  24.3  34226  290.68 0855.13
2009/04/23 11:36:47.2     -71   -220     79    232    246 198.0  18.9  34238  290.88 0855.13
2009/04/23 11:36:47.3     -60   -215     41    224    228 195.6  10.6  34234  290.84 0855.13
2009/04/23 11:36:47.4     -52   -188     50    196    203 195.4  14.3  34222  290.62 0855.13
2009/04/23 11:36:47.5     -54   -195     20    203    205 195.6   5.7  34220  290.60 0855.13
2009/04/23 11:36:47.6     -11   -155     23    156    158 184.4   8.5  34218  290.57 0855.13
2009/04/23 11:36:47.7      12   -158     40    159    165 175.6  14.3  34222  290.64 0855.13
2009/04/23 11:36:47.8      14   -159     37    160    165 174.7  13.2  34222  290.62 0855.13
2009/04/23 11:36:47.9      40   -149      7    155    156 164.9   2.8  34222  290.64 0855.13
2009/04/23 11:36:48.0      15   -143     16    144    145 173.8   6.5  34220  290.60 0855.13
2009/04/23 11:36:48.1      47   -187     44    193    199 165.7  12.9  34220  290.58 0855.13
2009/04/23 11:36:48.2      60   -180     51    190    197 161.5  15.0  34218  290.57 0855.13
2009/04/23 11:36:48.3      69   -147     53    163    172 154.7  18.1  34220  290.58 0855.13
2009/04/23 11:36:48.4      87   -136     27    162    165 147.4   9.5  34218  290.55 0855.15
2009/04/23 11:36:48.5      96   -146     47    175    182 146.6  15.2  34218  290.57 0855.15
2009/04/23 11:36:48.6     107   -150     51    185    193 144.4  15.6  34220  290.58 0855.15
2009/04/23 11:36:48.7     110   -138     55    177    186 141.3  17.3  34220  290.58 0855.15
2009/04/23 11:36:48.8      93   -127     61    158    169 143.9  22.0  34220  290.58 0855.15
2009/04/23 11:36:48.9     108   -137     69    175    188 141.7  22.8  34218  290.57 0855.15
2009/04/23 11:36:49.0      82   -149     71    171    185 151.3  23.6  34216  290.53 0855.15
2009/04/23 11:36:49.1      52   -166     72    175    189 162.4  23.4  34218  290.55 0855.15
2009/04/23 11:36:49.2       2   -182     92    183    204 179.1  28.7  34222  290.62 0855.15
2009/04/23 11:36:49.3       7   -168     77    169    185 177.5  26.4  34222  290.64 0855.15
2009/04/23 11:36:49.4      -8   -165     73    166    181 182.9  25.1  34222  290.64 0855.18
2009/04/23 11:36:49.5       0   -163     84    164    184 180.0  29.3  34220  290.60 0855.18
2009/04/23 11:36:49.6      -2   -163     86    164    185 180.7  30.1  34226  290.70 0855.18
2009/04/23 11:36:49.7      -8   -215     42    216    221 182.2  11.0  34228  290.74 0855.18
2009/04/23 11:36:49.8     -43   -217     82    222    236 191.3  21.3  34230  290.75 0855.18
2009/04/23 11:36:49.9     -33   -184     65    188    200 190.2  19.2  34228  290.74 0855.18
2009/04/23 11:36:50.0     -57   -208     68    216    227 195.4  17.7  34228  290.74 0855.18
2009/04/23 11:36:50.1     -74   -219     62    232    241 198.7  15.0  34230  290.76 0855.18
2009/04/23 11:36:50.2     -60   -225     86    233    248 195.1  21.0  34226  290.68 0855.18
2009/04/23 11:36:50.3     -72   -226     94    238    255 197.8  23.0  34228  290.71 0855.18
2009/04/23 11:36:50.4     -71   -215     96    227    246 198.3  24.2  34232  290.78 0855.18
2009/04/23 11:36:50.5     -87   -185     86    205    222 205.4  23.8  34236  290.86 0855.18
2009/04/23 11:36:50.6     -78   -201     53    216    223 201.2  13.9  34238  290.91 0855.18
2009/04/23 11:36:50.7     -31   -221     54    224    231 188.1  13.7  34230  290.75 0855.18
2009/04/23 11:36:50.8     -30   -210     50    213    219 188.1  13.2  34228  290.74 0855.18
2009/04/23 11:36:50.9     -39   -194     39    199    203 191.6  11.1  34228  290.74 0855.18
2009/04/23 11:36:51.0     -41   -186     34    191    195 192.5  10.1  34228  290.74 0855.18
2009/04/23 11:36:51.1     -39   -193     16    198    199 191.6   4.9  34228  290.72 0855.18
2009/04/23 11:36:51.2     -20   -188     -1    190    191 186.2  -0.5  34228  290.72 0855.18
2009/04/23 11:36:51.3     -42   -185    -38    190    194 192.9 -11.3  34230  290.75 0855.18
2009/04/23 11:36:51.4     -25   -186    -20    188    190 187.8  -6.2  34228  290.74 0855.20
2009/04/23 11:36:51.5     -27   -193    -11    195    196 188.0  -3.3  34228  290.72 0855.20
2009/04/23 11:36:51.6     -40   -216    -25    220    222 190.5  -6.5  34230  290.75 0855.20
2009/04/23 11:36:51.7     -77   -208    -21    223    225 200.5  -5.4  34226  290.69 0855.20
2009/04/23 11:36:51.8     -85   -178    -19    198    199 205.5  -5.6  34226  290.70 0855.20
2009/04/23 11:36:51.9    -124   -156     23    200    202 218.5   6.7  34236  290.86 0855.20
2009/04/23 11:36:52.0    -106   -167     30    199    202 212.5   8.8  34234  290.82 0855.20
2009/04/23 11:36:52.1    -176   -212     54    276    282 219.7  11.1  34266  291.36 0855.20
2009/04/23 11:36:52.2    -154   -215     56    265    271 215.6  12.0  34252  291.12 0855.20
2009/04/23 11:36:52.3    -170   -115    -60    206    214 235.8 -21.5  34252  291.15 0855.20
2009/04/23 11:36:52.4    -219   -116    -85    248    263 242.0 -19.1  34236  290.87 0855.20
2009/04/23 11:36:52.5    -128   -214    -44    250    254 211.0 -10.1  34240  290.93 0855.20
2009/04/23 11:36:52.6    -228   -123    -87    260    274 241.6 -23.6  34252  291.12 0855.20
2009/04/23 11:36:52.7    -233     55    -90    240    256 283.3 -26.1  34298  291.90 0855.20
2009/04/23 11:36:52.8    -218    -31    -73    221    233 261.9 -18.3  34278  291.59 0855.20
2009/04/23 11:36:52.9    -252    -33    -80    255    268 262.5 -17.6  34292  291.82 0855.20
2009/04/23 11:36:53.0    -283    -39    -91    286    300 262.1 -22.8  34268  291.39 0855.20
2009/04/23 11:36:53.1    -186    -27    -56    188    196 261.6 -21.5  34280  291.62 0855.20
2009/04/23 11:36:53.2    -194   -118    -77    228    240 238.7 -23.3  34254  291.17 0855.20
2009/04/23 11:36:53.3    -185    -87    -67    205    215 244.6 -23.8  34262  291.30 0855.20
2009/04/23 11:36:53.4    -162    -82    -66    182    193 243.1 -24.8  34276  291.54 0855.19
2009/04/23 11:36:53.5    -128   -140    -10    190    191 222.5  -3.1  34256  291.20 0855.19
2009/04/23 11:36:53.6    -112   -154     -7    191    192 216.0  -2.2  34254  291.18 0855.19
2009/04/23 11:36:53.7    -109   -116    -31    160    164 223.3 -11.1  34256  291.20 0855.19
2009/04/23 11:36:53.8    -145    -92    -24    172    174 237.6  -8.0  34258  291.23 0855.19
2009/04/23 11:36:53.9    -220   -109      0    246    247 243.6   0.2  34260  291.27 0855.19
2009/04/23 11:36:54.0    -180    -76    -15    196    197 247.2  -4.4  34258  291.25 0855.19
2009/04/23 11:36:54.1    -179   -148     41    233    237 230.5  10.1  34246  291.02 0855.19
2009/04/23 11:36:54.2    -204   -125      3    240    241 238.5   0.8  34234  290.82 0855.19
2009/04/23 11:36:54.3    -206   -120    -85    239    254 239.8 -19.6  34180  289.92 0855.19
2009/04/23 11:36:54.4    -148   -174     42    229    233 220.3  10.6  34242  290.96 0855.19
2009/04/23 11:36:54.5    -118   -197     11    230    231 211.0   2.9  34234  290.82 0855.19
2009/04/23 11:36:54.6    -119   -176     26    213    215 214.3   7.2  34232  290.81 0855.19
2009/04/23 11:36:54.7    -103   -154      5    186    187 213.8   1.8  34240  290.94 0855.19
2009/04/23 11:36:54.8    -113   -133      1    175    176 220.3   0.5  34202  290.30 0855.19
2009/04/23 11:36:54.9    -136   -130      0    189    190 226.2   0.0  34228  290.74 0855.19
2009/04/23 11:36:55.0    -130   -163      2    209    210 218.5   0.8  34224  290.67 0855.19
2009/04/23 11:36:55.1    -119   -222     12    253    254 208.3   2.9  34226  290.70 0855.19
2009/04/23 11:36:55.2    -129   -180     36    222    226 215.8   9.3  34230  290.77 0855.19
2009/04/23 11:36:55.3    -125   -176      4    217    218 215.4   1.2  34236  290.86 0855.19
2009/04/23 11:36:55.4    -129   -179    -15    221    222 215.8  -4.1  34212  290.47 0855.18
2009/04/23 11:36:55.5     -77   -130    -31    152    156 210.7 -11.5  34216  290.53 0855.18
2009/04/23 11:36:55.6     -83   -107     83    136    159 217.8  34.2  34228  290.74 0855.18
2009/04/23 11:36:55.7     -85   -145     95    169    193 210.5  31.9  34236  290.86 0855.18
2009/04/23 11:36:55.8    -107   -142     36    179    183 217.0  11.4  34220  290.60 0855.18
2009/04/23 11:36:55.9     -94   -131     -5    162    163 215.6  -1.8  34218  290.55 0855.18
2009/04/23 11:36:56.0    -114   -136     16    178    179 220.1   5.4  34222  290.64 0855.18
2009/04/23 11:36:56.1     -65   -181     83    193    210 200.0  25.1  34226  290.70 0855.18
2009/04/23 11:36:56.2     -40   -170     54    175    184 193.4  17.1  34226  290.70 0855.18
2009/04/23 11:36:56.3     -79   -162     61    181    192 206.1  18.6  34222  290.62 0855.18
2009/04/23 11:36:56.4     -56   -170     74    180    194 198.3  23.6  34230  290.75 0855.18
2009/04/23 11:36:56.5     -51   -166     68    174    186 197.2  22.8  34232  290.81 0855.18
2009/04/23 11:36:56.6     -24   -149     78    152    170 189.3  29.3  34234  290.84 0855.18
2009/04/23 11:36:56.7     -57   -145     47    157    165 201.6  16.8  34226  290.69 0855.18
2009/04/23 11:36:56.8     -52   -155     47    164    171 198.7  16.0  34224  290.65 0855.18
2009/04/23 11:36:56.9     -72   -214     58    227    235 198.7  14.3  34222  290.62 0855.18
2009/04/23 11:36:57.0     -24   -211     40    213    217 186.5  10.8  34220  290.58 0855.18
2009/04/23 11:36:57.1     -14   -186     36    187    191 184.5  11.0  34218  290.55 0855.18
2009/04/23 11:36:57.2     -15   -171     57    172    182 185.1  18.4  34220  290.60 0855.18
2009/04/23 11:36:57.3     -17   -159     97    160    187 186.2  34.2  34224  290.67 0855.18
2009/04/23 11:36:57.4     -16   -172     86    173    193 185.3  28.2  34224  290.65 0855.16
2009/04/23 11:36:57.5     -45   -177     69    183    195 194.3  21.7  34218  290.55 0855.16
2009/04/23 11:36:57.6     -31   -151     77    155    173 191.6  28.5  34218  290.55 0855.16
2009/04/23 11:36:57.7     -51   -133     54    143    152 200.9  21.0  34216  290.53 0855.16
2009/04/23 11:36:57.8    -107   -114     -5    157    158 223.2  -2.1  34210  290.41 0855.16
2009/04/23 11:36:57.9    -123    -78      7    147    148 237.5   2.9  34216  290.53 0855.16
2009/04/23 11:36:58.0     -85   -109     16    139    141 217.8   6.9  34218  290.57 0855.16
2009/04/23 11:36:58.1     -71   -101     19    124    126 215.2   8.9  34218  290.55 0855.16
2009/04/23 11:36:58.2     -61   -140     28    154    157 203.7  10.3  34220  290.60 0855.16
2009/04/23 11:36:58.3     -38   -123      4    129    130 197.4   1.8  34224  290.65 0855.16
2009/04/23 11:36:58.4     -41    -89     32     99    105 204.9  17.9  34222  290.64 0855.16
2009/04/23 11:36:58.5     -37    -92     55    100    114 201.8  31.4  34226  290.69 0855.16
2009/04/23 11:36:58.6     -84    -87     54    122    133 224.1  25.2  34224  290.65 0855.16
2009/04/23 11:36:58.7     -61   -125     94    140    168 205.9  37.0  34222  290.64 0855.16
2009/04/23 11:36:58.8     -78   -123     67    147    161 212.5  26.2  34224  290.65 0855.16
2009/04/23 11:36:58.9     -86   -119     88    148    172 216.0  34.0  34222  290.62 0855.16
2009/04/23 11:36:59.0     -26   -111    100    115    152 193.4  45.8  34224  290.67 0855.16
2009/04/23 11:36:59.1     -38   -107     91    114    145 199.6  42.7  34230  290.75 0855.16
2009/04/23 11:36:59.2     -18   -104     70    106    127 190.2  36.5  34228  290.72 0855.16
2009/04/23 11:36:59.3     -16    -91     72     93    117 190.2  41.7  34230  290.75 0855.13
2009/04/23 11:36:59.4     -38    -78     70     87    111 206.3  43.7  34218  290.57 0855.13
2009/04/23 11:36:59.5     -48    -77     69     91    114 212.1  41.2  34218  290.55 0855.13
2009/04/23 11:36:59.6     -37    -80     71     89    113 204.9  43.3  34220  290.58 0855.13
2009/04/23 11:36:59.7     -36    -71     67     80    104 207.2  43.8  34222  290.64 0855.13
2009/04/23 11:36:59.8      -7    -38     58     39     69 191.6  63.6  34220  290.58 0855.13
2009/04/23 11:36:59.9       4    -51     34     52     62 174.7  36.5  34228  290.72 0855.13
2009/04/23 11:37:00.0      19    -43     33     48     58 156.4  36.5  34228  290.74 0855.13
2009/04/23 11:37:00.1      40    -15     27     43     50 110.8  35.5  34228  290.74 0855.13
2009/04/23 11:37:00.2      42     -3     35     43     55  95.2  43.7  34226  290.70 0855.13
2009/04/23 11:37:00.3      46     -7     38     47     60  98.8  43.7  34224  290.65 0855.13
2009/04/23 11:37:00.4      49    -19     47     53     70 111.7  46.9  34224  290.65 0855.13
2009/04/23 11:37:00.5      55    -29     44     63     76 118.0  37.6  34220  290.58 0855.13
2009/04/23 11:37:00.6      52    -33     37     62     72 122.5  34.4  34218  290.55 0855.13
2009/04/23 11:37:00.7      44    -35     22     57     61 128.6  22.0  34214  290.48 0855.13
2009/04/23 11:37:00.8      49    -37     26     62     67 126.9  23.1  34216  290.52 0855.13
2009/04/23 11:37:00.9      38    -34     24     52     57 132.2  27.1  34218  290.57 0855.13
2009/04/23 11:37:01.0      12    -35      4     38     39 161.3   5.9  34216  290.52 0855.13
2009/04/23 11:37:01.1       0    -41    -20     42     46 180.9 -31.6  34220  290.60 0855.13
2009/04/23 11:37:01.2      10    -10    -22     15     26 135.0 -69.0  34210  290.43 0855.13
2009/04/23 11:37:01.3      21     -8    -26     23     34 111.7 -56.6  34214  290.50 0855.13
2009/04/23 11:37:01.4      10    -19    -34     22     40 152.8 -68.0  34216  290.53 0855.13
2009/04/23 11:37:01.5       4    -14    -28     15     31 161.5 -75.2  34216  290.52 0855.13
2009/04/23 11:37:01.6       6    -20    -21     22     30 161.5 -54.4  34218  290.55 0855.13
2009/04/23 11:37:01.7       0    -19    -22     20     29 180.9 -54.5  34220  290.58 0855.13
2009/04/23 11:37:01.8       0    -24    -28     25     37 180.9 -56.6  34220  290.60 0855.13
2009/04/23 11:37:01.9     -10    -28    -18     30     35 200.0 -39.9  34226  290.69 0855.13
2009/04/23 11:37:02.0      -8    -30    -16     32     35 195.1 -31.7  34222  290.62 0855.13
2009/04/23 11:37:02.1      -3    -30    -18     31     35 186.2 -39.9  34216  290.53 0855.13
2009/04/23 11:37:02.2      -7    -21     -3     23     24 200.0  -7.3  34218  290.57 0855.13
2009/04/23 11:37:02.3      -8    -22      2     24     25 200.0   4.9  34220  290.58 0855.13
2009/04/23 11:37:02.4     -10    -26      0     29     30 201.8  -1.3  34224  290.67 0855.13
2009/04/23 11:37:02.5     -13    -31     -1     34     35 203.6  -2.2  34220  290.60 0855.13
2009/04/23 11:37:02.6     -25    -33      0     42     43 217.0  -0.3  34218  290.57 0855.13
2009/04/23 11:37:02.8     -14    -42     11     45     47 199.2  14.3  34218  290.57 0855.13
2009/04/23 11:37:02.8     -23    -57      6     62     63 201.9   5.9  34220  290.58 0855.13
2009/04/23 11:37:02.9      -4    -44     15     45     48 186.2  19.4  34224  290.65 0855.13
2009/04/23 11:37:03.0      -1    -41     11     42     44 182.7  15.3  34224  290.67 0855.13
2009/04/23 11:37:03.1      -3    -47      1     48     49 183.6   1.8  34222  290.62 0855.13
2009/04/23 11:37:03.2       4    -55     11     56     58 175.5  11.1  34218  290.55 0855.13
2009/04/23 11:37:03.4      -5    -69     13     70     72 184.4  11.1  34214  290.50 0855.10
2009/04/23 11:37:03.5      -7    -65     20     66     70 186.2  17.3  34216  290.52 0855.10
2009/04/23 11:37:03.6      -6    -85     39     86     94 184.5  25.7  34220  290.60 0855.10
2009/04/23 11:37:03.7      -6    -79     37     80     88 184.5  26.2  34220  290.58 0855.10
2009/04/23 11:37:03.8      -4    -91     50     92    104 182.7  31.4  34214  290.50 0855.10
2009/04/23 11:37:03.9      -8   -126     51    127    136 184.0  23.0  34218  290.57 0855.10
2009/04/23 11:37:04.0      45   -172    -28    178    181 165.3  -9.0  34220  290.60 0855.10
2009/04/23 11:37:04.1       0   -169    -19    170    172 180.0  -6.5  34220  290.60 0855.10
2009/04/23 11:37:04.2     -23   -185    -21    187    189 187.1  -6.5  34218  290.55 0855.10
2009/04/23 11:37:04.3      22   -206    -54    208    216 173.8 -14.7  34218  290.55 0855.10
2009/04/23 11:37:04.4      53   -220    -30    227    230 166.4  -7.7  34216  290.52 0855.10
2009/04/23 11:37:04.5      24   -203    -16    205    206 173.1  -4.6  34216  290.52 0855.10
2009/04/23 11:37:04.6     133   -152    -66    202    213 138.8 -18.1  34212  290.47 0855.10
2009/04/23 11:37:04.7     118   -162    -36    201    205 143.9 -10.3  34214  290.48 0855.10
2009/04/23 11:37:04.8     107   -134     -6    172    173 141.5  -2.2  34212  290.45 0855.10
2009/04/23 11:37:04.9      92   -127     34    157    161 144.0  12.4  34210  290.43 0855.10
2009/04/23 11:37:05.0      87   -139     21    165    167 147.9   7.5  34210  290.43 0855.10
2009/04/23 11:37:05.1      71   -182     46    196    202 158.6  13.2  34214  290.48 0855.10
2009/04/23 11:37:05.2      69   -146     39    162    167 154.6  13.5  34212  290.45 0855.10
2009/04/23 11:37:05.3      62   -168     43    180    186 159.7  13.7  34208  290.38 0855.10
2009/04/23 11:37:05.4      74   -164     38    180    185 155.7  12.2  34210  290.41 0855.09
2009/04/23 11:37:05.5      84   -167     45    188    194 153.3  13.5  34208  290.40 0855.09
2009/04/23 11:37:05.6      66   -139     19    155    157 154.5   7.1  34208  290.40 0855.09
2009/04/23 11:37:05.7      54   -137     17    148    150 158.2   6.9  34206  290.35 0855.09
2009/04/23 11:37:05.8      31   -108     78    113    137 164.0  38.0  34216  290.52 0855.09
2009/04/23 11:37:05.9      36   -119     99    125    159 163.0  42.4  34218  290.57 0855.09
2009/04/23 11:37:06.0      41    -88     88     98    131 154.7  46.9  34220  290.60 0855.09
2009/04/23 11:37:06.1      19    -31     77     37     85 147.5  72.4  34228  290.72 0855.09
2009/04/23 11:37:06.2       8    -26     65     28     70 161.3  75.0  34230  290.77 0855.09
2009/04/23 11:37:06.3      13   -125    109    126    166 173.8  45.4  34212  290.47 0855.09
2009/04/23 11:37:06.4     -11   -112     90    113    144 185.8  42.7  34216  290.52 0855.09
2009/04/23 11:37:06.5       9   -115     78    116    139 175.5  37.4  34212  290.45 0855.09
2009/04/23 11:37:06.6      19    -95     73     97    121 168.5  41.2  34216  290.53 0855.09
2009/04/23 11:37:06.7      36    -97     69    104    124 159.5  36.5  34208  290.40 0855.09
2009/04/23 11:37:06.8      42   -101    104    110    151 157.3  48.0  34210  290.43 0855.09
2009/04/23 11:37:06.9      14    -83    103     85    133 170.2  56.4  34220  290.58 0855.09
2009/04/23 11:37:07.0       5    -51     67     52     84 173.8  58.5  34234  290.84 0855.09
2009/04/23 11:37:07.1      38    -66     65     77    100 150.1  44.3  34224  290.67 0855.09
2009/04/23 11:37:07.2      67    -96     82    118    143 145.3  38.0  34220  290.58 0855.09
2009/04/23 11:37:07.3      59    -94     91    112    144 147.9  43.7  34224  290.67 0855.09
2009/04/23 11:37:07.4      51   -108     87    120    148 154.7  39.7  34230  290.77 0855.10
2009/04/23 11:37:07.5      63    -96     90    116    146 146.6  42.2  34230  290.75 0855.10
2009/04/23 11:37:07.6      49   -102    106    114    155 154.1  47.9  34234  290.84 0855.10
2009/04/23 11:37:07.7      61    -96     85    114    142 147.5  40.1  34238  290.91 0855.10
2009/04/23 11:37:07.8      54    -98     80    113    138 151.0  39.1  34234  290.84 0855.10
2009/04/23 11:37:07.9      46    -83     88     95    129 151.0  47.9  34232  290.81 0855.10
2009/04/23 11:37:08.0      43    -79     93     91    130 151.5  50.1  34236  290.87 0855.10
2009/04/23 11:37:08.1       0    -71     88     72    113 180.0  56.4  34240  290.94 0855.10
2009/04/23 11:37:08.2       0   -125     95    126    157 180.4  40.9  34230  290.75 0855.10
2009/04/23 11:37:08.3     -17   -123     99    125    159 188.0  42.4  34226  290.70 0855.10
2009/04/23 11:37:08.4     -13   -127    101    128    163 186.3  42.4  34228  290.74 0855.10
2009/04/23 11:37:08.5     -18   -127     97    129    161 188.1  40.9  34228  290.72 0855.10
2009/04/23 11:37:08.6     -14   -119    101    120    156 187.1  44.5  34228  290.74 0855.10
2009/04/23 11:37:08.7     -30   -128     88    132    158 193.4  37.0  34228  290.72 0855.10
2009/04/23 11:37:08.8     -37   -138     65    144    157 195.2  25.7  34224  290.67 0855.10
2009/04/23 11:37:08.9     -47   -129     70    138    154 200.0  29.2  34224  290.67 0855.10
2009/04/23 11:37:09.0     -86   -152     73    175    189 209.6  24.1  34226  290.69 0855.10
2009/04/23 11:37:09.1     -79   -161     80    180    196 206.1  25.3  34224  290.67 0855.10
2009/04/23 11:37:09.2     -73   -164     86    180    199 204.1  27.3  34226  290.69 0855.10
2009/04/23 11:37:09.3     -76   -178     76    194    208 203.2  22.5  34224  290.65 0855.10
2009/04/23 11:37:09.4     -60   -172     79    183    199 199.4  25.1  34238  290.89 0855.10
2009/04/23 11:37:09.5     -66   -164     78    177    193 202.1  25.1  34234  290.82 0855.10
2009/04/23 11:37:09.6     -66   -130     86    146    169 207.1  33.5  34244  291.01 0855.10
2009/04/23 11:37:09.7     -82   -140     36    163    168 210.5  12.6  34260  291.28 0855.10
2009/04/23 11:37:09.8     -53   -155     91    164    187 198.9  31.4  34228  290.72 0855.10
2009/04/23 11:37:09.9     -38   -188    100    192    216 191.5  29.5  34222  290.62 0855.10
2009/04/23 11:37:10.0     -41   -204     90    209    227 191.3  24.9  34224  290.65 0855.10
2009/04/23 11:37:10.1     -47   -175     74    182    196 195.1  23.4  34222  290.62 0855.10
2009/04/23 11:37:10.2     -45   -183     38    189    193 193.8  11.6  34230  290.77 0855.10
2009/04/23 11:37:10.3     -58   -180     71    190    202 197.8  21.0  34236  290.86 0855.10
2009/04/23 11:37:10.4     -51   -156     75    165    181 198.0  26.2  34230  290.77 0855.10
2009/04/23 11:37:10.5     -40   -160     73    166    181 194.3  25.1  34236  290.86 0855.10
2009/04/23 11:37:10.6     -51   -160     61    169    179 197.8  20.4  34230  290.75 0855.10
2009/04/23 11:37:10.7     -45   -172     98    178    203 194.9  31.4  34226  290.69 0855.10
2009/04/23 11:37:10.8     -21   -172     74    174    189 187.1  24.6  34238  290.89 0855.10
2009/04/23 11:37:10.9       2   -133     71    134    151 179.0  29.8  34234  290.82 0855.10
2009/04/23 11:37:11.0      43    -80     93     92    130 151.5  50.1  34230  290.77 0855.10
2009/04/23 11:37:11.1       8   -105     70    106    127 175.5  36.5  34228  290.72 0855.10
2009/04/23 11:37:11.2      -5   -105     68    106    125 183.1  35.6  34226  290.69 0855.10
2009/04/23 11:37:11.3       0   -109     66    110    128 180.0  34.0  34228  290.74 0855.10
2009/04/23 11:37:11.4     -31   -100     72    105    127 197.4  37.6  34230  290.75 0855.09
2009/04/23 11:37:11.5     -30    -93     79     98    125 198.3  43.3  34226  290.70 0855.09
2009/04/23 11:37:11.6     -13   -124     44    125    133 186.3  19.4  34226  290.69 0855.09
2009/04/23 11:37:11.7      -8   -111     58    112    126 184.5  29.3  34230  290.75 0855.09
2009/04/23 11:37:11.8     -31   -109     79    114    138 196.0  38.0  34228  290.72 0855.09
2009/04/23 11:37:11.9     -35   -100     74    107    130 199.6  37.6  34228  290.72 0855.09
2009/04/23 11:37:12.0     -36    -87     84     95    126 202.3  45.9  34230  290.77 0855.09
2009/04/23 11:37:12.1     -49    -90     62    103    120 208.9  33.5  34234  290.82 0855.09
2009/04/23 11:37:12.2     -43    -91     69    101    122 205.4  37.6  34228  290.74 0855.09
2009/04/23 11:37:12.3     -58    -70     74     91    117 219.6  43.7  34234  290.82 0855.09
2009/04/23 11:37:12.4     -85    -56     45    102    111 236.7  25.7  34246  291.03 0855.09
2009/04/23 11:37:12.5    -112    -72     34    134    139 237.1  14.3  34270  291.43 0855.09
2009/04/23 11:37:12.6    -141    -51     65    150    163 250.1  24.6  34280  291.62 0855.09
2009/04/23 11:37:12.7    -143    -28     51    146    155 258.6  19.4  34294  291.84 0855.09
2009/04/23 11:37:12.8    -102    -62     28    120    124 238.9  13.1  34250  291.11 0855.09
2009/04/23 11:37:12.9     -69   -101     32    123    128 214.2  14.7  34244  290.99 0855.09
2009/04/23 11:37:13.0     -55   -102     -4    117    118 208.5  -2.2  34240  290.92 0855.09
2009/04/23 11:37:13.1     -44    -62     90     77    118 215.2  54.8  34282  291.66 0855.09
2009/04/23 11:37:13.2     -80    -74    106    110    152 227.3  49.4  34304  292.03 0855.09
2009/04/23 11:37:13.3     -68    -53     97     87    130 231.8  53.7  34316  292.22 0855.09
2009/04/23 11:37:13.4     -43    -36     80     57     98 230.5  60.6  34324  292.35 0855.09
2009/04/23 11:37:13.5     -14    -19     70     24     74 216.1  81.2  34308  292.08 0855.09
2009/04/23 11:37:13.6     -97    -93     89    135    161 226.4  36.7  34308  292.08 0855.09
2009/04/23 11:37:13.7     -90   -100    107    135    172 221.9  42.7  34276  291.54 0855.09
2009/04/23 11:37:13.8     -80    -82    117    115    164 224.1  50.1  34284  291.69 0855.09
2009/04/23 11:37:13.9     -95    -13     95     96    135 262.1  50.5  34314  292.18 0855.09
2009/04/23 11:37:14.0    -123    -95    107    156    189 232.2  37.8  34266  291.37 0855.09
2009/04/23 11:37:14.1    -105   -123    123    162    203 220.5  40.9  34248  291.08 0855.09
2009/04/23 11:37:14.2    -129   -125    134    180    224 225.8  40.1  34264  291.33 0855.09
2009/04/23 11:37:14.3    -136    -97     89    168    190 234.5  30.1  34280  291.60 0855.09
2009/04/23 11:37:14.4    -139    -66     39    154    159 244.6  14.3  34282  291.64 0855.09
2009/04/23 11:37:14.5     -61    -73     74     96    121 219.7  41.7  34250  291.09 0855.09
2009/04/23 11:37:14.6     -87    -66    114    110    158 232.7  50.9  34268  291.42 0855.09
2009/04/23 11:37:14.7    -142    -38     29    148    151 255.0  11.1  34304  292.03 0855.09
2009/04/23 11:37:14.8     -98   -101     72    141    158 224.1  29.3  34282  291.66 0855.09
2009/04/23 11:37:14.9    -127   -107     22    167    169 230.0   7.8  34286  291.72 0855.09
2009/04/23 11:37:15.0    -129   -111     28    171    174 229.1   9.5  34308  292.08 0855.09
2009/04/23 11:37:15.1    -167    -62     25    179    181 249.4   8.2  34318  292.27 0855.09
2009/04/23 11:37:15.2    -139    -69     45    156    163 243.4  16.3  34328  292.42 0855.09
2009/04/23 11:37:15.3    -104   -103     62    147    159 225.2  24.1  34298  291.91 0855.09
2009/04/23 11:37:15.4     -28    -83     90     88    125 199.2  50.1  34256  291.20 0855.09
2009/04/23 11:37:15.5     -27   -135     90    138    164 191.6  36.0  34240  290.92 0855.09
2009/04/23 11:37:15.6      13   -102    113    103    152 172.4  52.2  34236  290.87 0855.09
2009/04/23 11:37:15.7     -22   -111    111    114    159 191.5  49.4  34232  290.81 0855.09
2009/04/23 11:37:15.8     -34   -110    109    116    159 197.4  48.2  34232  290.81 0855.09
2009/04/23 11:37:15.9     -72   -113     89    135    161 212.6  36.7  34240  290.94 0855.09
2009/04/23 11:37:16.0     -39   -130    105    136    171 196.9  41.7  34232  290.81 0855.09
2009/04/23 11:37:16.1     -25   -134    125    137    185 190.7  47.5  34238  290.89 0855.09
2009/04/23 11:37:16.2     -84   -133     71    158    173 212.5  25.7  34244  290.99 0855.09
2009/04/23 11:37:16.3     -92   -160     69    185    197 210.1  21.3  34276  291.54 0855.09
2009/04/23 11:37:16.4    -101   -143     67    176    188 215.4  21.7  34300  291.96 0855.09
2009/04/23 11:37:16.5    -162   -120    109    202    229 233.4  30.8  34292  291.83 0855.09
2009/04/23 11:37:16.6    -212   -128     18    248    249 238.9   4.2  34308  292.09 0855.09
2009/04/23 11:37:16.7    -164    -70    -13    179    180 246.9  -4.4  34318  292.27 0855.09
2009/04/23 11:37:16.8    -157    -92      2    183    184 239.6   0.8  34292  291.81 0855.09
2009/04/23 11:37:16.9    -190   -132     24    232    234 235.1   6.0  34268  291.39 0855.09
2009/04/23 11:37:17.0    -161   -110    -29    196    199 235.6  -8.6  34260  291.26 0855.09
2009/04/23 11:37:17.1    -183   -115     34    217    220 237.8   9.0  34256  291.21 0855.09
2009/04/23 11:37:17.2    -147   -129     25    196    198 228.7   7.5  34260  291.28 0855.09
2009/04/23 11:37:17.3    -151   -151     10    214    215 225.0   2.9  34234  290.82 0855.09
2009/04/23 11:37:17.4    -149   -105      5    183    184 234.9   1.8  34232  290.79 0855.09
2009/04/23 11:37:17.5    -146   -125    -47    193    199 229.3 -13.7  34216  290.53 0855.09
2009/04/23 11:37:17.6     -75    -80     62    111    127 223.2  31.4  34226  290.69 0855.09
2009/04/23 11:37:17.7     -80    -73     30    109    114 227.3  15.3  34232  290.81 0855.09
2009/04/23 11:37:17.8     -60    -24    -57     65     86 248.3 -50.8  34214  290.48 0855.09
2009/04/23 11:37:17.9     -39     21    -15     45     47 298.9 -23.6  34206  290.35 0855.09
2009/04/23 11:37:18.0     -18     34      7     39     40 331.0  11.1  34226  290.70 0855.09
2009/04/23 11:37:18.1      10     45      9     47     48  12.5  11.1  34238  290.89 0855.09
2009/04/23 11:37:18.2      32     20     26     39     46  57.6  36.5  34246  291.04 0855.09
2009/04/23 11:37:18.3      15     31     60     35     69  25.4  66.8  34264  291.35 0855.09
2009/04/23 11:37:18.4      23     37     78     44     89  32.5  67.7  34268  291.42 0855.11
2009/04/23 11:37:18.5      17     54     13     57     59  18.3  13.2  34248  291.06 0855.11
2009/04/23 11:37:18.6       4    127     -7    128    129   2.2  -3.1  34228  290.74 0855.11
2009/04/23 11:37:18.7      -7     96     19     97     99 355.6  11.1  34220  290.60 0855.11
2009/04/23 11:37:18.8     -10     76     27     77     81 352.0  20.0  34220  290.60 0855.11
2009/04/23 11:37:18.9     -44     90     44    101    110 333.7  25.1  34204  290.33 0855.11
2009/04/23 11:37:19.0     -29    113     74    117    138 345.3  35.5  34212  290.45 0855.11
2009/04/23 11:37:19.1     -33    100     47    106    115 341.3  25.7  34206  290.35 0855.11
2009/04/23 11:37:19.2     -40     75     63     86    106 331.9  39.7  34224  290.65 0855.11
2009/04/23 11:37:19.3     -18     96     63     98    116 348.9  35.6  34220  290.58 0855.11
2009/04/23 11:37:19.4     -28     85     70     90    114 341.7  42.2  34208  290.38 0855.11
2009/04/23 11:37:19.5     -64    117     95    134    164 331.1  38.6  34272  291.47 0855.11
2009/04/23 11:37:19.6     -63    179     61    191    201 340.4  17.9  34200  290.26 0855.11
2009/04/23 11:37:19.7       2    246     74    247    259   0.5  16.8  34208  290.37 0855.11
2009/04/23 11:37:19.8     -43    211     21    216    218 348.4   5.7  34248  291.08 0855.11
2009/04/23 11:37:19.9     -58     91    105    109    151 327.4  49.0  34284  291.69 0855.11
2009/04/23 11:37:20.0      -7    -46    105     47    115 189.8  74.0  34298  291.91 0855.11
2009/04/23 11:37:20.1     -27    104    121    108    162 345.3  53.5  34318  292.27 0855.11
2009/04/23 11:37:20.2       5    142    128    143    191   2.2  46.6  34314  292.20 0855.11
2009/04/23 11:37:20.3      33     53     95     63    113  32.6  64.1  34326  292.39 0855.11
2009/04/23 11:37:20.4      83    105     62    135    148  38.3  26.6  34278  291.59 0855.13
2009/04/23 11:37:20.5      80     97     81    126    149  39.6  35.6  34286  291.72 0855.13
2009/04/23 11:37:20.6      34    105     69    111    130  18.3  35.5  34266  291.38 0855.13
2009/04/23 11:37:20.7       1     82     77     83    113   0.9  48.0  34268  291.40 0855.13
2009/04/23 11:37:20.8      -9    119     99    120    155 355.5  43.7  34264  291.35 0855.13
2009/04/23 11:37:20.9     -12    174     -4    175    176 356.0  -1.6  34236  290.87 0855.13
2009/04/23 11:37:21.0     -84    143     41    166    172 329.5  13.9  34246  291.03 0855.13
2009/04/23 11:37:21.1     -91    129     90    158    181 324.8  32.4  34270  291.43 0855.13
2009/04/23 11:37:21.2     -64    109     75    127    147 329.7  33.5  34278  291.59 0855.13
2009/04/23 11:37:21.3     -90    102     42    137    144 318.6  17.3  34286  291.72 0855.13
2009/04/23 11:37:21.4     -42     49     40     65     76 319.5  35.5  34292  291.81 0855.13
2009/04/23 11:37:21.5     -64    137     20    152    154 334.7   7.8  34290  291.77 0855.13
2009/04/23 11:37:21.6     -58    159      9    170    171 340.0   3.3  34272  291.49 0855.13
2009/04/23 11:37:21.7     -64    114     25    131    134 330.6  11.1  34272  291.47 0855.13
2009/04/23 11:37:21.8     -70    123    -18    142    144 330.1  -7.3  34268  291.40 0855.13
2009/04/23 11:37:21.9     -31    155    -30    159    162 348.4 -10.9  34260  291.26 0855.13
2009/04/23 11:37:22.0     -24    193     -5    195    196 352.9  -1.6  34258  291.23 0855.13
2009/04/23 11:37:22.1    -126    220    -46    254    259 330.1 -10.3  34228  290.71 0855.13
2009/04/23 11:37:22.2    -126    114    -82    171    189 312.2 -31.7  34232  290.81 0855.13
2009/04/23 11:37:22.3     -74    101    -39    126    131 323.9 -22.3  34228  290.72 0855.13
2009/04/23 11:37:22.4     -96     69    -80    119    143 306.0 -41.4  34214  290.48 0855.14
2009/04/23 11:37:22.5     -70     96    -40    120    126 323.9 -23.6  34226  290.70 0855.14
2009/04/23 11:37:22.6       0     53    -64     54     83 359.1 -59.2  34228  290.72 0855.14
2009/04/23 11:37:22.7     231    166    -20    285    286  54.3  -4.1  34230  290.76 0855.14
2009/04/23 11:37:22.8     213    188     24    285    287  48.6   4.9  34234  290.83 0855.14
2009/04/23 11:37:22.9     127     75    -45    148    155  59.4 -17.0  34228  290.74 0855.14
2009/04/23 11:37:23.0     217     36     27    221    223  80.4   7.2  34232  290.81 0855.14
2009/04/23 11:37:23.1     255     31     -5    257    258  83.0  -1.3  34236  290.85 0855.14
2009/04/23 11:37:23.2     247     49    -21    252    253  78.8  -4.9  34218  290.56 0855.14
2009/04/23 11:37:23.3     185     88    -63    206    216  64.5 -17.0  34218  290.57 0855.14
2009/04/23 11:37:23.4     158     89    -24    182    184  60.5  -7.7  34222  290.62 0855.14
2009/04/23 11:37:23.5     302    122     15    327    328  67.9   2.8  34246  291.02 0855.14
2009/04/23 11:37:23.6     335     97     41    349    352  73.7   6.8  34238  290.88 0855.14
2009/04/23 11:37:23.7     251    149     64    293    301  59.3  12.4  34240  290.92 0855.14
2009/04/23 11:37:23.8     348    152    103    380    394  66.4  15.3  34256  291.20 0855.14
2009/04/23 11:37:23.9     277    140    123    311    334  63.1  22.8  34248  291.07 0855.14
2009/04/23 11:37:24.0     310    132     52    338    342  66.9   8.8  34238  290.89 0855.14
2009/04/23 11:37:24.1     297    153    -13    335    336  62.7  -2.2  34238  290.89 0855.14
2009/04/23 11:37:24.2     244    187     67    308    316  52.5  12.3  34260  291.26 0855.14
2009/04/23 11:37:24.3     280    122     -1    306    307  66.4  -0.3  34268  291.39 0855.14
2009/04/23 11:37:24.4     327     66    -45    334    337  78.4  -7.7  34262  291.32 0855.14
2009/04/23 11:37:24.5     288     96    -66    304    312  71.4 -12.4  34252  291.14 0855.14
2009/04/23 11:37:24.6     239    124    -53    270    276  62.5 -11.1  34270  291.43 0855.14
2009/04/23 11:37:24.7     214     52   -129    221    255  76.3 -37.3  34258  291.24 0855.14
2009/04/23 11:37:24.8     166     67    -84    180    198  68.0 -31.4  34254  291.18 0855.14
2009/04/23 11:37:24.9      32     50    -38     60     71  32.6 -39.9  34250  291.09 0855.14
2009/04/23 11:37:25.0     -91      9   -102     92    137 276.1 -57.1  34238  290.89 0855.14
2009/04/23 11:37:25.1      75    -68   -142    102    174 132.2 -65.5  34234  290.82 0855.14
2009/04/23 11:37:25.2      99   -154   -197    184    269 147.3 -56.5  34230  290.76 0855.14
2009/04/23 11:37:25.3     104   -132    -82    169    187 141.9 -31.7  34228  290.74 0855.14
2009/04/23 11:37:25.4      84   -131   -136    156    206 147.4 -50.2  34230  290.75 0855.14
2009/04/23 11:37:25.5      56   -209   -152    217    264 164.8 -43.0  34232  290.78 0855.14
2009/04/23 11:37:25.6      39   -253   -131    257    288 171.1 -33.6  34230  290.75 0855.14
2009/04/23 11:37:25.7      34   -258   -105    261    281 172.4 -27.4  34236  290.87 0855.14
2009/04/23 11:37:25.8      19   -168   -115    170    205 173.5 -41.7  34232  290.79 0855.14
2009/04/23 11:37:25.9      28   -155   -108    158    191 169.8 -42.2  34232  290.79 0855.14
2009/04/23 11:37:26.0      26   -128    -98    131    163 168.5 -44.8  34232  290.81 0855.14
2009/04/23 11:37:26.1      60   -129    -82    143    164 155.1 -37.1  34230  290.77 0855.14
2009/04/23 11:37:26.2      33   -109    -78    115    138 163.1 -42.0  34228  290.74 0855.14
2009/04/23 11:37:26.3      22   -111   -100    114    151 168.5 -50.2  34222  290.64 0855.15
2009/04/23 11:37:26.4       2   -130    -99    131    164 179.0 -45.3  34218  290.57 0855.15
2009/04/23 11:37:26.5      80   -133   -120    156    196 148.8 -46.1  34228  290.72 0855.15
2009/04/23 11:37:26.6      60   -147   -143    159    213 157.7 -51.3  34234  290.82 0855.15
2009/04/23 11:37:26.7      55   -117   -131    130    184 154.7 -54.3  34236  290.87 0855.15
2009/04/23 11:37:26.8     -20   -177   -114    179    212 186.7 -39.9  34230  290.75 0855.15
2009/04/23 11:37:26.9     -16   -217    -68    218    228 184.4 -22.5  34232  290.81 0855.15
2009/04/23 11:37:27.0      12   -232   -162    233    283 176.9 -42.4  34232  290.80 0855.15
2009/04/23 11:37:27.1      30   -231   -144    234    274 172.4 -38.9  34234  290.83 0855.15
2009/04/23 11:37:27.2      46   -203   -146    209    254 167.1 -43.0  34222  290.63 0855.15
2009/04/23 11:37:27.3      55   -174   -145    183    233 162.2 -47.1  34230  290.77 0855.15
2009/04/23 11:37:27.4     -10   -187   -114    188    219 183.1 -38.6  34242  290.96 0855.15
2009/04/23 11:37:27.5      -6   -182    -75    183    197 182.0 -27.8  34242  290.98 0855.15
2009/04/23 11:37:27.6     -14   -152    -60    153    164 185.3 -26.7  34244  290.99 0855.15
2009/04/23 11:37:27.7     -85   -136      0    161    162 212.1   0.2  34236  290.87 0855.15
2009/04/23 11:37:27.8     -20   -140     81    142    163 188.1  32.4  34256  291.20 0855.15
2009/04/23 11:37:27.9     -62   -131     43    146    153 205.5  16.6  34254  291.18 0855.15
2009/04/23 11:37:28.0     -43   -109     38    118    125 201.9  17.9  34258  291.23 0855.15
2009/04/23 11:37:28.1     -93   -140      6    169    170 213.6   2.1  34268  291.42 0855.15
2009/04/23 11:37:28.2     -23   -131     26    134    137 190.2  11.0  34266  291.38 0855.15
2009/04/23 11:37:28.3     -19   -136     19    138    140 188.1   8.0  34290  291.77 0855.17
2009/04/23 11:37:28.4     -42   -120     48    128    136 199.2  21.0  34292  291.83 0855.17
2009/04/23 11:37:28.5     -54   -100     34    114    120 208.5  16.8  34286  291.71 0855.17
2009/04/23 11:37:28.6     -75    -98     24    124    127 217.8  11.1  34264  291.33 0855.17
2009/04/23 11:37:28.7     -58   -134     -8    147    148 203.6  -3.1  34240  290.92 0855.17
2009/04/23 11:37:28.8     -74   -186    -58    201    209 201.8 -21.0  34208  290.38 0855.17
2009/04/23 11:37:28.9    -122   -132    -56    180    189 222.8 -17.3  34210  290.43 0855.17
2009/04/23 11:37:29.0     -77   -153    -71    172    186 206.7 -28.0  34224  290.67 0855.17
2009/04/23 11:37:29.1     -18   -201    -70    202    213 185.3 -23.8  34242  290.96 0855.17
2009/04/23 11:37:29.2       7   -190   -120    191    225 177.8 -39.9  34212  290.47 0855.17
2009/04/23 11:37:29.3     -27   -181    -50    184    191 188.5 -15.2  34198  290.21 0855.17
2009/04/23 11:37:29.4     -29   -228    -29    230    232 187.3  -7.2  34214  290.48 0855.17
2009/04/23 11:37:29.5     -59   -197     26    206    208 196.9   7.2  34218  290.55 0855.17
2009/04/23 11:37:29.6     -82   -175     46    194    200 205.3  13.5  34226  290.70 0855.17
2009/04/23 11:37:29.7     -39    -99     57    107    121 201.8  30.3  34234  290.82 0855.17
2009/04/23 11:37:29.8     -20    -70     15     73     75 196.0  12.2  34228  290.72 0855.17
2009/04/23 11:37:29.9     -16    -47    -32     50     59 198.7 -40.0  34234  290.82 0855.17
2009/04/23 11:37:30.0     -23     -4    -70     24     74 260.3 -85.6  34230  290.75 0855.17
2009/04/23 11:37:30.1      80     18     30     83     88  77.2  20.0  34232  290.79 0855.17
2009/04/23 11:37:30.2      71     46     60     85    104  57.1  38.6  34236  290.86 0855.17
2009/04/23 11:37:30.3      98     26     73    102    125  74.9  39.1  34238  290.91 0855.20
2009/04/23 11:37:30.4      42     65     69     78    104  33.4  46.9  34246  291.03 0855.20
2009/04/23 11:37:30.5      -6     84     66     85    107 355.6  42.2  34248  291.08 0855.20
2009/04/23 11:37:30.6     -78     53     87     95    128 304.2  47.9  34260  291.28 0855.20
2009/04/23 11:37:30.7     -83     44     22     94     97 298.0  13.7  34270  291.43 0855.20
2009/04/23 11:37:30.8       6     14     29     16     33  25.4  68.8  34262  291.32 0855.20
2009/04/23 11:37:30.9      33     26     60     43     73  51.4  60.5  34266  291.38 0855.20
2009/04/23 11:37:31.0      78     23     96     82    126  73.2  54.8  34248  291.06 0855.20
2009/04/23 11:37:31.2      83     28     99     88    132  70.9  54.2  34248  291.08 0855.20
2009/04/23 11:37:31.3      41      0     89     42     98  90.0  73.1  34266  291.37 0855.20
2009/04/23 11:37:31.4       4      0     85      5     85  90.0  90.0  34260  291.28 0855.20
2009/04/23 11:37:31.5      49     35     93     61    111  54.0  64.1  34252  291.13 0855.20
2009/04/23 11:37:31.6      15     -4     65     16     66 105.1  85.9  34256  291.20 0855.20
2009/04/23 11:37:31.7     -13    -25     41     29     50 207.2  61.5  34276  291.55 0855.20
2009/04/23 11:37:31.8     -21    -21     53     30     60 225.0  68.8  34294  291.84 0855.20
2009/04/23 11:37:31.9     -58    -27     76     65    100 244.8  55.4  34288  291.76 0855.20
2009/04/23 11:37:32.0     -54    -55     55     78     95 224.2  38.0  34276  291.54 0855.20
2009/04/23 11:37:32.1     -18    -14     62     24     66 232.2  78.2  34266  291.38 0855.20
2009/04/23 11:37:32.2     -44      0     17     45     48 269.2  20.0  34292  291.81 0855.20
2009/04/23 11:37:32.3     -67     -4     23     68     73 266.5  19.2  34306  292.06 0855.20
2009/04/23 11:37:32.4     -92     17      8     94     95 280.6   5.4  34306  292.05 0855.22
2009/04/23 11:37:32.5    -170     -8      1    171    172 267.0   0.5  34260  291.26 0855.22
2009/04/23 11:37:32.6    -123     17     66    125    141 277.9  29.8  34274  291.52 0855.22
2009/04/23 11:37:32.7    -116     26    100    119    155 282.8  43.8  34278  291.57 0855.22
2009/04/23 11:37:32.8     -76     31     98     83    128 292.6  55.8  34266  291.37 0855.22
2009/04/23 11:37:32.9     -64     55    107     85    136 310.4  56.9  34244  290.99 0855.22
2009/04/23 11:37:33.0     -24     15     56     29     63 302.4  70.8  34244  291.01 0855.22
2009/04/23 11:37:33.1      91      9     71     92    116  83.9  41.7  34266  291.37 0855.22
2009/04/23 11:37:33.2     126    -38      2    132    133 106.8   1.2  34248  291.08 0855.22
2009/04/23 11:37:33.3     107    -31     33    112    117 106.4  16.8  34250  291.09 0855.22
2009/04/23 11:37:33.4      87    -55     14    104    106 122.5   8.0  34242  290.96 0855.22
2009/04/23 11:37:33.5      15   -107     -7    109    110 172.0  -4.1  34242  290.98 0855.22
2009/04/23 11:37:33.6     -92    -88    -38    128    134 226.0 -16.6  34240  290.92 0855.22
2009/04/23 11:37:33.7      -8    -69    -20     70     72 187.1 -20.7  34224  290.65 0855.22
2009/04/23 11:37:33.8      23    -53    -30     58     65 156.4 -34.7  34222  290.64 0855.22
2009/04/23 11:37:33.9     -57     15    -82     60    101 285.1 -64.9  34222  290.62 0855.22
2009/04/23 11:37:34.0     -54     -7    -94     55    108 262.1 -71.6  34222  290.62 0855.22
2009/04/23 11:37:34.1     -26    -64    -80     70    106 201.9 -58.1  34232  290.81 0855.22
2009/04/23 11:37:34.2     -81    -81    -90    115    146 225.0 -46.1  34254  291.16 0855.22
2009/04/23 11:37:34.3     -79    -64    -95    102    139 230.9 -52.3  34260  291.28 0855.22
2009/04/23 11:37:34.4     -65    -15    -90     67    112 256.7 -64.4  34258  291.25 0855.24
2009/04/23 11:37:34.5     -40     23    -68     47     82 300.7 -66.5  34270  291.43 0855.24
2009/04/23 11:37:34.6     -36     38    -90     53    104 316.8 -71.2  34272  291.47 0855.24
2009/04/23 11:37:34.7     -17    -52    -82     55     98 198.5 -67.6  34276  291.54 0855.24
2009/04/23 11:37:34.8      51    -37    -81     64    103 126.0 -61.9  34272  291.47 0855.24
2009/04/23 11:37:34.9      63    -40    -82     75    111 122.5 -57.1  34264  291.33 0855.24
2009/04/23 11:37:35.0      63    -65    -69     91    114 135.9 -45.6  34246  291.04 0855.24
2009/04/23 11:37:35.1      57   -117    -45    131    138 154.1 -23.8  34244  291.01 0855.24
2009/04/23 11:37:35.2      69   -125    -34    143    148 151.0 -13.4  34242  290.96 0855.24
2009/04/23 11:37:35.3     128   -105      8    166    167 129.5   2.9  34244  291.01 0855.24
2009/04/23 11:37:35.4     164   -109     -7    198    199 123.7  -2.2  34246  291.03 0855.25
2009/04/23 11:37:35.5     184    -27     84    186    204  98.4  25.9  34246  291.04 0855.25
2009/04/23 11:37:35.6     154    -20     80    156    175  97.5  29.3  34246  291.03 0855.25
2009/04/23 11:37:35.7     143    -56    107    154    187 111.7  38.0  34244  291.01 0855.25
2009/04/23 11:37:35.8     117    -74     96    139    168 122.4  37.8  34234  290.82 0855.25
2009/04/23 11:37:35.9     155   -118    138    196    239 127.3  38.6  34232  290.81 0855.25
2009/04/23 11:37:36.0     132   -170    130    216    252 142.2  34.2  34224  290.65 0855.25
2009/04/23 11:37:36.1      87   -156    162    179    241 150.8  46.9  34228  290.74 0855.25
2009/04/23 11:37:36.2      47   -153    147    161    218 163.0  47.7  34234  290.82 0855.25
2009/04/23 11:37:36.3      38   -189    154    193    246 168.5  42.8  34230  290.75 0855.25
2009/04/23 11:37:36.4      59   -218    105    226    249 164.8  27.0  34230  290.75 0855.25
2009/04/23 11:37:36.5      77   -228    100    241    260 161.3  23.8  34234  290.82 0855.25
2009/04/23 11:37:36.6      50   -211    109    217    242 166.6  28.7  34230  290.76 0855.25
2009/04/23 11:37:36.7      57   -261    123    268    294 167.5  26.4  34242  290.95 0855.25
2009/04/23 11:37:36.8      85   -294    107    307    326 163.9  19.2  34236  290.87 0855.25
2009/04/23 11:37:36.9      80   -283    101    295    312 164.2  18.9  34236  290.85 0855.25
2009/04/23 11:37:37.0     120   -256    114    284    306 154.8  23.1  34232  290.80 0855.25
2009/04/23 11:37:37.1      80   -265     77    278    289 163.1  15.6  34234  290.82 0855.25
2009/04/23 11:37:37.2      99   -220     66    242    251 155.7  15.3  34232  290.78 0855.25
2009/04/23 11:37:37.3      68   -260     58    269    276 165.3  12.2  34232  290.78 0855.25
2009/04/23 11:37:37.4      78   -285     58    296    302 164.6  11.1  34232  290.78 0855.24
2009/04/23 11:37:37.5      85   -280     35    293    296 163.1   6.9  34230  290.75 0855.24
2009/04/23 11:37:37.6      74   -281     57    291    297 165.1  11.1  34232  290.78 0855.24
2009/04/23 11:37:37.7      67   -270     29    279    281 166.0   6.1  34234  290.82 0855.24
2009/04/23 11:37:37.8      66   -284     36    292    295 166.9   7.1  34236  290.87 0855.24
2009/04/23 11:37:37.9      -5   -305     65    306    314 181.0  12.1  34256  291.21 0855.24
2009/04/23 11:37:38.0      21   -345     81    346    356 176.5  13.3  34226  290.69 0855.24
2009/04/23 11:37:38.1     105   -353    142    369    395 163.3  22.0  34220  290.60 0855.24
2009/04/23 11:37:38.2     122   -319    171    342    382 159.1  28.5  34224  290.67 0855.24
2009/04/23 11:37:38.3     143   -296    143    329    358 154.1  25.1  34228  290.71 0855.24
2009/04/23 11:37:38.4     120   -276    138    302    332 156.4  26.4  34228  290.71 0855.24
2009/04/23 11:37:38.5      62   -284    135    291    320 167.5  26.5  34228  290.73 0855.24
2009/04/23 11:37:38.6      85   -266    142    280    313 162.2  29.1  34228  290.73 0855.24
2009/04/23 11:37:38.7      31   -280    165    282    326 173.5  33.0  34226  290.70 0855.24
2009/04/23 11:37:38.8      68   -319    126    327    350 168.0  22.0  34232  290.79 0855.24
2009/04/23 11:37:38.9     -28   -335    165    337    375 184.9  27.9  34228  290.72 0855.24
2009/04/23 11:37:39.0      -4   -313    115    314    334 180.9  21.0  34234  290.82 0855.24
2009/04/23 11:37:39.1     -11   -273     86    274    288 182.5  17.4  34228  290.73 0855.24
2009/04/23 11:37:39.2     -15   -275     83    276    289 183.1  16.8  34230  290.76 0855.24
2009/04/23 11:37:39.3     -33   -308    108    310    328 186.3  20.0  34232  290.78 0855.24
2009/04/23 11:37:39.4     -66   -329     29    336    338 191.4   5.1  34232  290.79 0855.26
2009/04/23 11:37:39.5     -96   -317     50    332    336 196.9   8.7  34232  290.81 0855.26
2009/04/23 11:37:39.6    -114   -289     70    311    319 201.6  12.8  34232  290.80 0855.26
2009/04/23 11:37:39.7    -102   -281    -39    299    302 200.0  -7.5  34242  290.95 0855.26
2009/04/23 11:37:39.8    -115   -246    -78    272    282 205.2 -20.8  34240  290.93 0855.26
2009/04/23 11:37:39.9    -123   -241   -146    271    307 207.1 -35.2  34218  290.54 0855.26
2009/04/23 11:37:40.0    -111   -250   -163    274    318 204.1 -37.9  34208  290.37 0855.26
2009/04/23 11:37:40.1     -70   -291   -198    300    359 193.6 -40.9  34204  290.32 0855.26
2009/04/23 11:37:40.2     -37   -307   -222    310    381 186.9 -43.7  34202  290.27 0855.26
2009/04/23 11:37:40.3     -46   -331   -154    335    368 188.0 -30.9  34204  290.33 0855.26
2009/04/23 11:37:40.4      51   -365   -191    369    415 172.0 -33.9  34202  290.30 0855.26
2009/04/23 11:37:40.5      74   -321   -115    330    349 166.9 -24.0  34198  290.20 0855.26
2009/04/23 11:37:40.6      41   -267   -156    271    312 171.1 -37.0  34178  289.88 0855.26
2009/04/23 11:37:40.7      30   -253   -167    255    304 173.1 -40.7  34184  289.97 0855.26
2009/04/23 11:37:40.8      37   -252   -138    255    289 171.5 -35.2  34186  290.00 0855.26
2009/04/23 11:37:40.9       8   -254    -99    255    273 178.0 -26.5  34182  289.95 0855.26
2009/04/23 11:37:41.0      16   -243   -120    244    271 176.2 -32.6  34190  290.09 0855.26
2009/04/23 11:37:41.1      17   -232   -114    233    259 175.6 -32.4  34188  290.05 0855.26
2009/04/23 11:37:41.2     -14   -231    -59    232    240 183.6 -14.4  34200  290.24 0855.26
2009/04/23 11:37:41.3      17   -209    -77    210    223 175.3 -25.3  34182  289.94 0855.26
2009/04/23 11:37:41.4      -3   -263    -93    264    280 180.7 -19.4  34186  290.02 0855.26
2009/04/23 11:37:41.5     -12   -270    -75    271    282 182.7 -15.5  34204  290.32 0855.26
2009/04/23 11:37:41.6     -19   -245    -27    246    248 184.5  -6.5  34206  290.36 0855.26
2009/04/23 11:37:41.7      -9   -298    -38    299    302 181.8  -7.3  34212  290.46 0855.26
2009/04/23 11:37:41.8       0   -232    -61    233    241 179.8 -14.7  34216  290.51 0855.26
2009/04/23 11:37:41.9      -6   -254    -65    255    264 181.4 -14.3  34224  290.65 0855.26
2009/04/23 11:37:42.0       5   -290     -8    291    292 179.0  -1.6  34214  290.48 0855.26
2009/04/23 11:37:42.1      21   -276     14    277    278 175.5   2.9  34212  290.46 0855.26
2009/04/23 11:37:42.2      31   -271     61    273    280 173.3  12.6  34216  290.51 0855.26
2009/04/23 11:37:42.3      63   -257     44    265    269 166.2   9.5  34220  290.58 0855.26
2009/04/23 11:37:42.4      91   -232     43    250    254 158.4   9.9  34220  290.59 0855.26
2009/04/23 11:37:42.5      86   -261     70    275    284 161.7  14.3  34222  290.61 0855.26
2009/04/23 11:37:42.6     121   -300    146    324    355 157.9  25.9  34232  290.81 0855.26
2009/04/23 11:37:42.7     235   -347    131    420    441 145.9  17.4  34200  290.24 0855.26
2009/04/23 11:37:42.8     241   -452     58    513    517 151.9   6.5  34182  289.96 0855.26
2009/04/23 11:37:42.9     244   -475     55    535    538 152.8   5.9  34186  290.01 0855.26
2009/04/23 11:37:43.0     267   -457    102    530    540 149.7  11.0  34186  290.01 0855.26
2009/04/23 11:37:43.1     295   -456    183    544    575 147.1  18.6  34182  289.94 0855.26
2009/04/23 11:37:43.2     294   -464    132    550    566 147.6  13.5  34188  290.06 0855.26
2009/04/23 11:37:43.3     294   -473    -60    558    562 148.1  -6.2  34188  290.04 0855.26
2009/04/23 11:37:43.4      96   -354     80    367    376 164.8  12.4  34192  290.10 0855.26
2009/04/23 11:37:43.5     156   -397     59    427    432 158.5   7.9  34190  290.07 0855.26
2009/04/23 11:37:43.6      83   -304     41    316    319 164.6   7.4  34188  290.03 0855.26
2009/04/23 11:37:43.7      43   -515     98    518    528 175.1  10.7  34188  290.04 0855.26
2009/04/23 11:37:43.8     103   -407     36    421    423 165.7   5.0  34188  290.05 0855.26
2009/04/23 11:37:43.9     154   -340    -26    374    375 155.7  -4.1  34192  290.11 0855.26
2009/04/23 11:37:44.0     204   -318    -16    378    379 147.3  -2.5  34198  290.21 0855.26
2009/04/23 11:37:44.1      98   -284    -27    301    303 160.8  -5.2  34200  290.26 0855.26
2009/04/23 11:37:44.2     197   -428     96    472    482 155.3  11.6  34182  289.96 0855.26
2009/04/23 11:37:44.3     -28   -340     -4    342    343 184.8  -0.7  34194  290.16 0855.26
2009/04/23 11:37:44.4     -41   -340    108    343    360 187.0  17.5  34202  290.27 0855.26
2009/04/23 11:37:44.5      15   -219     90    220    237 176.0  23.6  34194  290.14 0855.26
2009/04/23 11:37:44.6      42   -158     96    164    190 164.9  33.1  34192  290.13 0855.26
2009/04/23 11:37:44.7     109   -278    100    299    316 158.6  18.6  34190  290.09 0855.26
2009/04/23 11:37:44.8     121   -207     85    240    255 149.7  19.6  34192  290.12 0855.26
2009/04/23 11:37:44.9     141   -172    124    223    255 140.8  31.4  34212  290.46 0855.26
2009/04/23 11:37:45.0     154   -265    112    307    326 149.9  20.7  34218  290.56 0855.26
2009/04/23 11:37:45.1     171   -290     97    337    351 149.5  16.1  34216  290.52 0855.26
2009/04/23 11:37:45.2     278   -261     18    382    383 133.2   2.8  34228  290.71 0855.26
2009/04/23 11:37:45.3     247   -310     36    397    399 141.4   5.3  34224  290.67 0855.26
2009/04/23 11:37:45.4     212   -257     53    334    339 140.5   9.0  34224  290.66 0855.27
2009/04/23 11:37:45.5     130   -262     80    293    304 153.5  15.3  34230  290.75 0855.27
2009/04/23 11:37:45.6      47   -275    106    279    298 170.3  22.0  34224  290.66 0855.27
2009/04/23 11:37:45.7      39   -251      9    255    256 171.1   2.1  34224  290.66 0855.27
2009/04/23 11:37:45.8     -47   -301     26    305    307 188.9   4.9  34216  290.53 0855.27
2009/04/23 11:37:45.9     -15   -194     42    195    200 184.5  12.4  34216  290.53 0855.27
2009/04/23 11:37:46.0    -116   -245     49    272    277 205.4  10.3  34216  290.51 0855.27
2009/04/23 11:37:46.1     -79   -152     73    172    186 207.6  24.3  34218  290.57 0855.27
2009/04/23 11:37:46.2     -33   -175     77    179    194 190.7  24.9  34216  290.53 0855.27
2009/04/23 11:37:46.3    -108   -248    162    271    315 203.6  33.7  34218  290.54 0855.27
2009/04/23 11:37:46.4    -194   -256    183    322    370 217.2  32.3  34218  290.54 0855.27
2009/04/23 11:37:46.5    -120   -215    122    247    275 209.2  28.2  34210  290.42 0855.27
2009/04/23 11:37:46.6     -46   -224    179    229    290 191.8  42.0  34212  290.46 0855.27
2009/04/23 11:37:46.7    -130   -236    230    270    354 209.0  44.8  34210  290.42 0855.27
2009/04/23 11:37:46.8     -17   -127    187    129    227 187.6  62.4  34230  290.75 0855.27
2009/04/23 11:37:46.9     -74    -69    141    102    174 227.3  60.8  34224  290.67 0855.27
2009/04/23 11:37:47.0      14   -152    139    153    206 174.7  47.1  34220  290.60 0855.27
2009/04/23 11:37:47.1     -32   -145    115    149    188 192.5  41.7  34218  290.57 0855.27
2009/04/23 11:37:47.2     -92   -147     65    174    185 212.3  21.0  34216  290.53 0855.27
2009/04/23 11:37:47.3    -114    -93     23    148    150 230.9   9.0  34218  290.55 0855.27
2009/04/23 11:37:47.4    -121   -100     64    158    170 230.4  23.4  34212  290.47 0855.26
2009/04/23 11:37:47.5     -92   -250     78    267    279 200.3  16.4  34228  290.71 0855.26
2009/04/23 11:37:47.6    -104   -228     91    251    266 204.5  20.9  34230  290.76 0855.26
2009/04/23 11:37:47.7    -138   -141     83    198    214 224.3  23.8  34238  290.91 0855.26
2009/04/23 11:37:47.8    -108   -148    123    184    221 216.3  36.7  34230  290.75 0855.26
2009/04/23 11:37:47.9    -203   -161     36    260    263 231.6   8.0  34232  290.78 0855.26
2009/04/23 11:37:48.0    -129   -117     60    175    186 227.8  18.9  34220  290.60 0855.26
2009/04/23 11:37:48.1    -108   -148     35    184    188 216.1  11.0  34228  290.74 0855.26
2009/04/23 11:37:48.2     -76   -140     49    160    168 208.5  17.3  34226  290.70 0855.26
2009/04/23 11:37:48.3     -60   -128    -16    142    143 205.3  -6.7  34228  290.74 0855.26
2009/04/23 11:37:48.4       8   -103    -38    104    110 175.1 -25.4  34240  290.92 0855.26
2009/04/23 11:37:48.5      29    -52    -43     60     73 150.1 -44.1  34240  290.92 0855.26
2009/04/23 11:37:48.6     152     -2    -43    153    158  90.9 -20.4  34236  290.86 0855.26
2009/04/23 11:37:48.7     145     -2    -72    146    162  90.8 -32.6  34238  290.89 0855.26
2009/04/23 11:37:48.8     135      5     -1    136    137  87.5  -0.7  34232  290.81 0855.26
2009/04/23 11:37:48.9     116    -17    -23    118    121  98.4 -11.3  34234  290.84 0855.26
2009/04/23 11:37:49.0     127    -28    -82    131    154 102.8 -39.9  34234  290.84 0855.26
2009/04/23 11:37:49.1     112    -37    -34    119    123 108.6 -20.7  34224  290.67 0855.26
2009/04/23 11:37:49.2     167     76    108    184    213  65.6  33.5  34232  290.81 0855.26
2009/04/23 11:37:49.3      90     53    146    105    179  59.3  60.6  34232  290.79 0855.26
2009/04/23 11:37:49.4     134     42    158    141    211  72.3  53.7  34228  290.72 0855.25
2009/04/23 11:37:49.5     144    -38    180    150    234 105.1  56.1  34230  290.77 0855.25
2009/04/23 11:37:49.6      32     -6    175     33    178 101.4  90.0  34212  290.47 0855.25
2009/04/23 11:37:49.7    -207    -48     80    213    227 256.7  21.5  34230  290.77 0855.25
2009/04/23 11:37:49.8    -153     -2    326    154    360 269.2  73.1  34240  290.93 0855.25
2009/04/23 11:37:49.9    -154     38    238    159    286 284.2  63.4  34244  290.99 0855.25
2009/04/23 11:37:50.0      46     -4    184     47    189  95.2  85.9  34216  290.52 0855.25
2009/04/23 11:37:50.1     262     21    363    263    448  85.2  60.6  34238  290.91 0855.25
2009/04/23 11:37:50.2     279     39    340    282    441  81.9  56.3  34242  290.98 0855.25
2009/04/23 11:37:50.3     170     84    251    190    314  63.6  59.1  34240  290.93 0855.25
2009/04/23 11:37:50.4     -10     -9    243     14    243 226.9  90.0  34228  290.74 0855.25
2009/04/23 11:37:50.5     163     35    119    167    205  77.8  39.1  34224  290.65 0855.25
2009/04/23 11:37:50.6     171     61    192    182    264  70.3  51.6  34234  290.82 0855.25
2009/04/23 11:37:50.7     119    212    140    244    281  29.4  32.4  34218  290.56 0855.25
2009/04/23 11:37:50.8      39     95     57    103    117  22.3  31.4  34224  290.65 0855.25
2009/04/23 11:37:50.9      76     64    194    100    218  50.0  70.8  34244  290.99 0855.25
2009/04/23 11:37:51.0     337    377     96    506    516  41.8  10.8  34228  290.71 0855.25
2009/04/23 11:37:51.1     294    387    197    487    525  37.2  23.1  34216  290.52 0855.25
2009/04/23 11:37:51.2     320    159    150    358    388  63.6  23.9  34218  290.57 0855.25
2009/04/23 11:37:51.3     318    288    193    430    471  47.8  25.7  34200  290.26 0855.25
2009/04/23 11:37:51.4     173    228    124    287    312  37.2  24.8  34220  290.59 0855.24
2009/04/23 11:37:51.5     324    219    148    392    419  55.9  21.7  34220  290.58 0855.24
2009/04/23 11:37:51.6     164    220    254    275    374  36.7  47.8  34220  290.60 0855.24
2009/04/23 11:37:51.7     -92    386    249    397    468 346.6  35.0  34214  290.50 0855.24
2009/04/23 11:37:51.8      40    480    313    482    574   4.9  36.0  34206  290.36 0855.24
2009/04/23 11:37:51.9     142    485    274    506    575  16.4  30.8  34220  290.60 0855.24
2009/04/23 11:37:52.0     157    505    305    529    610  17.3  32.6  34220  290.58 0855.24
2009/04/23 11:37:52.1     241    540    212    592    628  24.1  20.6  34222  290.64 0855.24
2009/04/23 11:37:52.2     298    612    194    681    709  26.0  15.9  34228  290.73 0855.24
2009/04/23 11:37:52.3     227    549     50    595    598  22.5   4.9  34258  291.22 0855.24
2009/04/23 11:37:52.4     245    467    143    528    548  27.7  15.2  34250  291.11 0855.24
2009/04/23 11:37:52.5      36    514    126    516    532   4.0  13.8  34246  291.03 0855.24
2009/04/23 11:37:52.6      69    537    131    542    558   7.3  13.7  34232  290.79 0855.24
2009/04/23 11:37:52.7     108    275    115    296    317  21.4  22.3  34228  290.71 0855.24
2009/04/23 11:37:52.8     100    181     95    208    228  29.0  26.6  34242  290.98 0855.24
2009/04/23 11:37:52.9     134    134    220    190    290  45.0  54.8  34232  290.80 0855.24
2009/04/23 11:37:53.0     101     55    203    116    233  61.2  67.7  34236  290.87 0855.24
2009/04/23 11:37:53.1     -35     35    108     50    119 315.0  73.1  34238  290.89 0855.24
2009/04/23 11:37:53.2      24    229    184    231    295   6.2  42.7  34228  290.73 0855.24
2009/04/23 11:37:53.3      37    262    185    265    323   8.1  38.5  34246  291.02 0855.23
2009/04/23 11:37:53.4      31    116    187    121    222  15.1  64.6  34246  291.03 0855.23
2009/04/23 11:37:53.5     103     27    115    107    157  75.0  52.2  34246  291.03 0855.23
2009/04/23 11:37:53.6     160     22    137    162    212  82.0  44.5  34252  291.13 0855.23
2009/04/23 11:37:53.7      34    124     82    129    152  15.6  35.5  34244  291.01 0855.23
2009/04/23 11:37:53.8      39    226      2    230    231   9.8   0.7  34244  290.99 0855.23
2009/04/23 11:37:53.9      28    162    -45    165    172   9.8 -15.2  34242  290.96 0855.23
2009/04/23 11:37:54.0       1    207    -19    208    209   0.5  -5.4  34236  290.87 0855.23
2009/04/23 11:37:54.1      39    196     10    200    201  11.5   2.9  34234  290.82 0855.23
2009/04/23 11:37:54.2      96     78     42    124    132  50.9  18.9  34232  290.79 0855.23
2009/04/23 11:37:54.3     181     59     66    191    203  71.8  19.2  34238  290.91 0855.23
2009/04/23 11:37:54.4     240     32     42    243    247  82.3  10.0  34240  290.92 0855.23
2009/04/23 11:37:54.5     279     81     75    291    301  73.8  14.5  34232  290.80 0855.23
2009/04/23 11:37:54.6     337     40     44    340    343  83.2   7.5  34218  290.55 0855.23
2009/04/23 11:37:54.7     337     30     87    339    350  84.9  14.4  34214  290.50 0855.23
2009/04/23 11:37:54.8     330     81     95    340    354  76.1  15.7  34202  290.27 0855.23
2009/04/23 11:37:54.9     318    106    168    336    375  71.6  28.6  34220  290.59 0855.23
2009/04/23 11:37:55.0     310    115    121    331    352  69.5  21.0  34228  290.74 0855.23
2009/04/23 11:37:55.1     343     95    157    356    389  74.5  25.2  34264  291.35 0855.23
2009/04/23 11:37:55.2     288    179    185    340    387  58.1  31.0  34268  291.40 0855.23
2009/04/23 11:37:55.3     293    126     83    319    330  66.7  14.7  34260  291.26 0855.23
2009/04/23 11:37:55.4     297     78    156    308    345  75.2  28.9  34264  291.34 0855.23
2009/04/23 11:37:55.5     250     63    110    258    280  75.8  24.6  34244  291.00 0855.23
2009/04/23 11:37:55.6     224    -13    167    225    280  93.5  40.4  34236  290.87 0855.23
2009/04/23 11:37:55.7     167    -66    124    180    218 111.7  37.8  34226  290.70 0855.23
2009/04/23 11:37:55.8     142    -65    158    157    222 114.8  50.1  34260  291.26 0855.23
2009/04/23 11:37:55.9     114   -117    128    164    208 135.9  42.0  34240  290.94 0855.23
2009/04/23 11:37:56.0      93    -76    140    121    185 129.5  54.8  34268  291.40 0855.23
2009/04/23 11:37:56.1      24   -107    107    110    153 167.1  49.9  34258  291.23 0855.23
2009/04/23 11:37:56.2      72      5    118     73    138  85.7  65.1  34246  291.04 0855.23
2009/04/23 11:37:56.3      21    -61    124     65    140 160.8  70.4  34246  291.04 0855.23
2009/04/23 11:37:56.4      58   -185    119    195    228 162.4  34.4  34234  290.84 0855.23
2009/04/23 11:37:56.5     159   -218    105    271    290 143.9  22.3  34222  290.61 0855.23
2009/04/23 11:37:56.6     150   -210     96    259    276 144.4  21.0  34212  290.46 0855.23
2009/04/23 11:37:56.7     218   -178    101    282    299 129.3  20.4  34216  290.51 0855.23
2009/04/23 11:37:56.8     131   -233     95    268    284 150.6  20.2  34218  290.54 0855.23
2009/04/23 11:37:56.9     102   -195    105    221    244 152.4  27.2  34218  290.56 0855.23
2009/04/23 11:37:57.0     107   -188    150    217    263 150.4  37.8  34218  290.56 0855.23
2009/04/23 11:37:57.1     137   -189    168    234    288 144.0  39.5  34218  290.54 0855.23
2009/04/23 11:37:57.2      12   -160    202    161    258 175.6  57.5  34218  290.57 0855.23
2009/04/23 11:37:57.3     -15      9    127     18    128 302.5  90.0  34234  290.84 0855.23
2009/04/23 11:37:57.4      -7   -121    175    122    213 183.6  62.1  34224  290.67 0855.23
2009/04/23 11:37:57.5       2   -213    225    214    310 179.3  52.0  34220  290.59 0855.23
2009/04/23 11:37:57.6     -23   -301    204    302    364 184.4  37.4  34212  290.45 0855.23
2009/04/23 11:37:57.7      65   -196    168    207    266 161.5  43.7  34218  290.54 0855.23
2009/04/23 11:37:57.8      76   -247    199    259    326 162.8  41.4  34212  290.46 0855.23
2009/04/23 11:37:57.9       4   -310    178    311    358 179.1  32.4  34214  290.49 0855.23
2009/04/23 11:37:58.0      25   -332    239    333    409 175.7  39.3  34210  290.42 0855.23
2009/04/23 11:37:58.1     -14   -300    284    301    413 182.7  48.0  34212  290.45 0855.23
2009/04/23 11:37:58.2     -14   -212    200    213    292 184.0  48.0  34210  290.41 0855.23
2009/04/23 11:37:58.3     -20   -290    117    291    313 184.0  23.2  34210  290.42 0855.22
2009/04/23 11:37:58.4      55   -263    124    269    296 168.0  26.4  34210  290.41 0855.22
2009/04/23 11:37:58.5     -58   -217    103    225    247 195.1  26.2  34208  290.39 0855.22
2009/04/23 11:37:58.6      -3   -282     -1    283    284 180.7  -0.3  34224  290.65 0855.22
2009/04/23 11:37:58.8     -83   -311    -17    322    323 195.1  -3.1  34216  290.53 0855.22
2009/04/23 11:37:58.8    -197   -265     91    331    344 216.6  15.4  34234  290.84 0855.22
2009/04/23 11:37:59.0    -212   -213     47    301    305 224.9   8.9  34224  290.65 0855.22
2009/04/23 11:37:59.1    -209   -209    148    296    330 225.0  28.6  34208  290.37 0855.22
2009/04/23 11:37:59.2    -122   -170     86    210    226 215.8  23.4  34224  290.65 0855.22
2009/04/23 11:37:59.3     -74     -1    101     75    125 269.1  60.0  34236  290.87 0855.22
2009/04/23 11:37:59.4    -163    -22    127    165    208 262.3  41.7  34244  290.99 0855.22
2009/04/23 11:37:59.5    -173    110    100    206    228 302.6  27.4  34238  290.89 0855.22
2009/04/23 11:37:59.6    -184     81    117    202    233 293.7  32.9  34242  290.96 0855.22
2009/04/23 11:37:59.7    -121     66     45    139    147 298.8  17.9  34236  290.86 0855.22
2009/04/23 11:37:59.8      -5      0     56      6     56 270.0  90.0  34244  290.99 0855.22
2009/04/23 11:37:59.9      19    -55     57     59     82 160.8  49.4  34234  290.82 0855.22
2009/04/23 11:38:00.0       1    -51     17     52     55 178.2  18.4  34226  290.70 0855.22
2009/04/23 11:38:00.1     -59    -46      9     75     76 232.2   6.9  34234  290.84 0855.22
2009/04/23 11:38:00.2     -87    -28     17     92     94 251.8  11.0  34240  290.92 0855.22
2009/04/23 11:38:00.3     -91    -22    -12     94     95 256.3  -7.3  34236  290.86 0855.22
2009/04/23 11:38:00.4    -124    -85    -45    151    158 235.4 -16.8  34240  290.92 0855.22
2009/04/23 11:38:00.5    -177   -160    -61    239    247 227.8 -14.5  34282  291.65 0855.22
2009/04/23 11:38:00.6    -255   -142     23    293    294 240.9   4.6  34260  291.26 0855.22
2009/04/23 11:38:00.7    -240    -65   -133    249    282 254.9 -34.7  34270  291.44 0855.22
2009/04/23 11:38:00.8    -231    -66    -30    241    243 254.1  -7.3  34246  291.04 0855.22
2009/04/23 11:38:00.9    -204     -3     60    205    214 269.1  16.3  34244  290.99 0855.22
2009/04/23 11:38:01.0    -169     16     77    170    186 275.5  26.2  34270  291.43 0855.22
2009/04/23 11:38:01.1    -178     63     19    190    191 289.7   5.9  34284  291.69 0855.22
2009/04/23 11:38:01.2    -198     65    -34    209    212 288.2  -9.3  34282  291.64 0855.22
2009/04/23 11:38:01.3    -129     17    -37    131    137 277.5 -16.0  34256  291.21 0855.22
2009/04/23 11:38:01.4    -201    -39     13    205    206 259.0   3.8  34294  291.86 0855.22
2009/04/23 11:38:01.5    -228      3    -20    229    230 270.8  -5.2  34302  291.98 0855.22
2009/04/23 11:38:01.6    -196    -15     -8    197    198 265.4  -2.6  34304  292.03 0855.22
2009/04/23 11:38:01.7    -186    -42     -2    191    192 257.0  -0.7  34310  292.12 0855.22
2009/04/23 11:38:01.8    -119   -110      2    163    164 227.1   1.0  34278  291.57 0855.22
2009/04/23 11:38:01.9    -106    -86    -80    137    158 230.9 -37.3  34210  290.43 0855.22
2009/04/23 11:38:02.0     -75    -75    -74    107    130 225.0 -42.0  34234  290.82 0855.22
2009/04/23 11:38:02.1    -152    -31    -44    156    162 258.5 -20.7  34250  291.09 0855.22
2009/04/23 11:38:02.2    -275     -3   -115    276    299 269.2 -28.2  34286  291.70 0855.22
2009/04/23 11:38:02.3    -272      4   -154    273    313 270.9 -36.3  34258  291.24 0855.22
2009/04/23 11:38:02.4    -373    -18   -163    374    407 267.1 -29.5  34274  291.52 0855.22
2009/04/23 11:38:02.5    -476     50   -248    479    539 276.1 -33.8  34224  290.67 0855.22
2009/04/23 11:38:02.6    -480     23   -263    481    548 272.8 -35.4  34214  290.48 0855.22
2009/04/23 11:38:02.7    -310    -84   -290    322    433 254.9 -51.0  34166  289.69 0855.22
2009/04/23 11:38:02.8    -296   -108   -254    316    405 250.0 -47.3  34186  290.01 0855.22
2009/04/23 11:38:02.9    -361    -41   -321    364    485 263.4 -50.3  34224  290.67 0855.22
2009/04/23 11:38:03.0    -237    -19   -272    238    361 265.2 -58.7  34228  290.73 0855.22
2009/04/23 11:38:03.1     -57     -2   -213     58    220 267.4 -89.2  34230  290.75 0855.22
2009/04/23 11:38:03.2    -151     11   -237    152    281 274.3 -69.0  34238  290.90 0855.22
2009/04/23 11:38:03.3    -206    -89   -232    225    323 246.5 -55.5  34252  291.14 0855.22
2009/04/23 11:38:03.4       1   -122   -200    123    234 179.1 -70.1  34244  290.99 0855.22
2009/04/23 11:38:03.5      59   -138   -175    151    231 156.8 -59.2  34218  290.57 0855.22
2009/04/23 11:38:03.6      53   -113   -178    125    217 154.7 -65.9  34206  290.36 0855.22
2009/04/23 11:38:03.7      35    -77   -176     85    195 155.1 -77.2  34220  290.58 0855.22
2009/04/23 11:38:03.8     112    -77   -149    137    202 124.6 -56.9  34190  290.09 0855.22
2009/04/23 11:38:03.9     116    -57   -167    130    211 116.2 -62.6  34192  290.11 0855.22
2009/04/23 11:38:04.0     121    -39   -171    128    213 108.2 -64.2  34190  290.09 0855.22
2009/04/23 11:38:04.1     173    -43   -194    179    263 103.9 -56.6  34188  290.05 0855.22
2009/04/23 11:38:04.2     247    -23   -186    249    310  95.3 -44.8  34190  290.07 0855.22
2009/04/23 11:38:04.3     231     -6   -177    232    291  91.7 -45.6  34214  290.48 0855.22
2009/04/23 11:38:04.4     177      6   -115    178    211  87.9 -40.0  34246  291.03 0855.22
2009/04/23 11:38:04.5      55     53    -91     77    119  45.9 -59.8  34254  291.18 0855.22
2009/04/23 11:38:04.6      83     13    -20     85     88  80.8 -13.4  34270  291.45 0855.22
2009/04/23 11:38:04.7      54   -101    -63    115    131 151.5 -35.7  34272  291.47 0855.22
2009/04/23 11:38:04.8     126   -103    -50    164    172 129.3 -17.0  34256  291.21 0855.22
2009/04/23 11:38:04.9     146    -76     19    165    167 117.5   6.7  34232  290.79 0855.22
2009/04/23 11:38:05.0      36   -136    -39    141    147 164.9 -15.4  34252  291.13 0855.22
2009/04/23 11:38:05.1      70   -188      7    201    202 159.5   2.1  34244  291.01 0855.22
2009/04/23 11:38:05.2     302   -260     17    399    400 130.8   2.5  34216  290.52 0855.22
2009/04/23 11:38:05.3     234   -121     25    264    266 117.5   5.4  34194  290.14 0855.22
2009/04/23 11:38:05.4     214   -103    102    238    258 115.8  24.6  34190  290.07 0855.22
2009/04/23 11:38:05.5     194   -142    154    241    286 126.4  35.6  34192  290.10 0855.22
2009/04/23 11:38:05.6     218    -84    192    234    302 111.1  43.7  34198  290.20 0855.22
2009/04/23 11:38:05.7     254   -166    154    304    340 123.3  29.1  34198  290.21 0855.22
2009/04/23 11:38:05.8     215    -36    258    219    338  99.7  55.6  34222  290.63 0855.22
2009/04/23 11:38:05.9     222   -117    218    252    333 117.8  45.4  34206  290.36 0855.22
2009/04/23 11:38:06.0     224    -85    166    240    291 110.8  37.8  34208  290.39 0855.22
2009/04/23 11:38:06.1     285    -12    192    286    344  92.6  37.0  34212  290.44 0855.22
2009/04/23 11:38:06.2     194    -68    181    206    274 109.3  45.8  34210  290.41 0855.22
2009/04/23 11:38:06.3     119    -55    168    132    213 114.8  57.9  34210  290.41 0855.22
2009/04/23 11:38:06.4      87    -77    110    117    160 131.8  48.2  34214  290.50 0855.21
2009/04/23 11:38:06.5      23    -82    111     86    140 164.4  58.5  34210  290.43 0855.21
2009/04/23 11:38:06.6      31   -154    114    158    194 168.5  39.5  34202  290.30 0855.21
2009/04/23 11:38:06.7      31   -234    108    237    260 172.4  26.2  34206  290.34 0855.21
2009/04/23 11:38:06.8     -15   -242     38    243    247 183.6   9.0  34204  290.32 0855.21
2009/04/23 11:38:06.9     -83   -189    -35    207    210 203.8  -9.6  34202  290.28 0855.21
2009/04/23 11:38:07.0     -62   -209    -28    219    221 196.5  -7.3  34204  290.31 0855.21
2009/04/23 11:38:07.1     -69   -188    -16    201    202 200.3  -4.6  34204  290.33 0855.21
2009/04/23 11:38:07.2     -71   -179     -9    193    194 201.8  -2.8  34200  290.26 0855.21
2009/04/23 11:38:07.3     -53   -161     39    170    175 198.3  12.9  34202  290.28 0855.21
2009/04/23 11:38:07.4      37   -113    109    120    162 161.7  47.1  34212  290.45 0855.21
2009/04/23 11:38:07.5      57   -166     61    176    187 161.1  19.2  34200  290.25 0855.21
2009/04/23 11:38:07.6     109   -182     33    213    216 149.2   9.0  34200  290.26 0855.21
2009/04/23 11:38:07.7      86   -142     39    167    172 148.8  13.2  34200  290.26 0855.21
2009/04/23 11:38:07.8      74   -125     65    146    159 149.3  25.7  34196  290.19 0855.21
2009/04/23 11:38:07.9     100   -128     65    163    175 142.2  23.0  34200  290.26 0855.21
2009/04/23 11:38:08.0     102   -139     71    173    187 143.7  23.6  34200  290.26 0855.21
2009/04/23 11:38:08.1     102   -141     95    175    199 144.2  31.0  34200  290.26 0855.21
2009/04/23 11:38:08.2      93   -128    116    159    196 143.9  39.7  34202  290.30 0855.21
2009/04/23 11:38:08.3      96   -148    113    177    209 146.8  35.6  34206  290.35 0855.21
2009/04/23 11:38:08.4      32   -158     98    162    189 168.5  34.2  34206  290.35 0855.20
2009/04/23 11:38:08.5       9   -127     55    128    139 175.6  24.6  34206  290.35 0855.20
2009/04/23 11:38:08.6      57    -65    109     87    139 139.0  56.9  34210  290.43 0855.20
2009/04/23 11:38:08.7      -5    -61    113     62    128 185.3  68.9  34218  290.55 0855.20
2009/04/23 11:38:08.8      -7    -17    102     19    103 201.8  90.0  34226  290.70 0855.20
2009/04/23 11:38:08.9       9    -58    120     59    133 171.1  72.4  34224  290.65 0855.20
2009/04/23 11:38:09.0      12    -36    104     38    110 161.5  79.2  34228  290.74 0855.20
2009/04/23 11:38:09.1      25    -45     80     52     95 151.0  64.6  34214  290.50 0855.20
2009/04/23 11:38:09.2       8    -23     63     25     67 161.3  77.1  34216  290.52 0855.20
2009/04/23 11:38:09.3      26     78     98     83    128  18.7  55.8  34224  290.67 0855.20
2009/04/23 11:38:09.4       2     37    107     38    113   4.5  80.7  34238  290.89 0855.20
2009/04/23 11:38:09.5     -33    -21     98     40    105 237.6  77.0  34234  290.84 0855.20
2009/04/23 11:38:09.6     -19   -103    110    105    152 190.7  51.6  34216  290.52 0855.20
2009/04/23 11:38:09.7       0   -106    121    107    161 179.5  53.7  34210  290.43 0855.20
2009/04/23 11:38:09.8     -16    -91     72     93    117 190.2  41.7  34210  290.41 0855.20
2009/04/23 11:38:09.9      11    -89     86     90    124 172.9  49.4  34210  290.41 0855.20
2009/04/23 11:38:10.0      27    -37     55     47     72 143.9  55.4  34220  290.58 0855.20
2009/04/23 11:38:10.1      -9    -80     58     81     99 186.7  39.5  34206  290.36 0855.20
2009/04/23 11:38:10.2       0    -56     62     57     84 180.0  52.2  34210  290.41 0855.20
2009/04/23 11:38:10.3      37     16     74     41     84  65.6  68.3  34226  290.70 0855.20
2009/04/23 11:38:10.4      -8     -5     52     10     52 237.6  89.1  34218  290.57 0855.19
2009/04/23 11:38:10.5     -29   -127     80    131    153 192.9  35.0  34194  290.14 0855.19
2009/04/23 11:38:10.6     -24   -122     88    125    152 191.5  38.6  34194  290.16 0855.19
2009/04/23 11:38:10.7     -38   -151    133    156    205 194.3  44.8  34200  290.25 0855.19
2009/04/23 11:38:10.8     -60   -152    101    164    192 201.6  35.0  34198  290.23 0855.19
2009/04/23 11:38:10.9     -58   -152     69    163    177 200.9  24.3  34200  290.25 0855.19
2009/04/23 11:38:11.0     -43   -142     45    149    156 196.9  16.8  34200  290.26 0855.19
2009/04/23 11:38:11.1     -26   -166     46    169    176 188.9  15.3  34198  290.23 0855.19
2009/04/23 11:38:11.2     -27   -178     57    181    190 188.7  17.7  34196  290.18 0855.19
2009/04/23 11:38:11.3     -14   -160     54    161    170 185.3  18.6  34204  290.33 0855.19
2009/04/23 11:38:11.4     -12   -175     62    176    187 184.2  19.6  34216  290.53 0855.19
2009/04/23 11:38:11.5     -15   -192     68    193    205 184.5  19.4  34202  290.30 0855.19
2009/04/23 11:38:11.6     -43   -215     50    220    226 191.5  12.9  34202  290.28 0855.19
2009/04/23 11:38:11.7     -17   -237     44    238    243 184.2  10.6  34204  290.31 0855.19
2009/04/23 11:38:11.8     -18   -284    109    285    305 183.6  22.0  34222  290.61 0855.19
2009/04/23 11:38:11.9     -54   -246    131    252    284 192.5  29.3  34218  290.56 0855.19
2009/04/23 11:38:12.0    -118   -198     80    231    245 210.8  19.2  34260  291.26 0855.19
2009/04/23 11:38:12.1     -54   -260     39    266    269 191.8   8.5  34222  290.63 0855.19
2009/04/23 11:38:12.2     -74   -237     36    249    252 197.4   8.2  34218  290.56 0855.19
2009/04/23 11:38:12.3       0   -152     10    153    154 180.0   3.8  34206  290.35 0855.19
2009/04/23 11:38:12.4     -29   -168    122    171    210 190.0  39.1  34208  290.38 0855.18
2009/04/23 11:38:12.5     -61   -180     62    191    201 198.7  18.1  34204  290.31 0855.18
2009/04/23 11:38:12.6     -66   -188     47    200    206 199.4  13.2  34206  290.36 0855.18
2009/04/23 11:38:12.7     -64   -176     40    188    193 200.0  12.0  34204  290.33 0855.18
2009/04/23 11:38:12.8     -49   -157     82    165    184 197.6  28.2  34206  290.36 0855.18
2009/04/23 11:38:12.9      -3   -163     65    164    176 181.4  22.8  34204  290.33 0855.18
2009/04/23 11:38:13.0     -38   -169     99    174    200 192.7  32.1  34204  290.31 0855.18
2009/04/23 11:38:13.1     -73   -203     88    216    233 199.8  23.1  34204  290.33 0855.18
2009/04/23 11:38:13.2     -56   -163     96    173    197 199.2  31.4  34204  290.33 0855.18
2009/04/23 11:38:13.3     -59   -116     62    131    144 207.1  27.2  34206  290.36 0855.18
2009/04/23 11:38:13.4     -59   -134     -5    147    148 203.7  -2.2  34208  290.38 0855.18
2009/04/23 11:38:13.5     -39   -128      6    134    135 196.9   2.9  34208  290.38 0855.18
2009/04/23 11:38:13.6     -32   -134     20    138    140 193.4   8.5  34210  290.43 0855.18
2009/04/23 11:38:13.7       0   -145     28    146    149 180.0  11.1  34212  290.45 0855.18
2009/04/23 11:38:13.8      36   -107     41    113    120 161.3  20.9  34208  290.40 0855.18
2009/04/23 11:38:13.9      17    -73     37     76     84 166.6  27.8  34208  290.40 0855.18
2009/04/23 11:38:14.0      29    -71     32     77     83 157.3  23.6  34206  290.36 0855.18
2009/04/23 11:38:14.1      51    -63     28     82     87 141.3  19.2  34206  290.35 0855.18
2009/04/23 11:38:14.2      39    -73     14     83     85 151.9   9.5  34204  290.33 0855.18
2009/04/23 11:38:14.3      28    -75     21     81     84 159.1  14.7  34204  290.33 0855.18
2009/04/23 11:38:14.4      15   -105     49    107    117 171.9  26.2  34206  290.35 0855.17
2009/04/23 11:38:14.5      35   -108      8    114    115 161.7   4.4  34204  290.33 0855.17
2009/04/23 11:38:14.6       8   -101     43    102    110 175.1  24.1  34204  290.33 0855.17
2009/04/23 11:38:14.7      22   -105     21    108    111 168.0  11.1  34204  290.31 0855.17
2009/04/23 11:38:14.8      29    -88     17     93     95 161.3  10.6  34204  290.31 0855.17
2009/04/23 11:38:14.9      30    -84      4     90     91 160.4   2.9  34204  290.31 0855.17
2009/04/23 11:38:15.0      41    -69    -17     81     83 149.3 -11.9  34200  290.26 0855.17
2009/04/23 11:38:15.1      33    -52     27     62     67 147.4  24.1  34200  290.26 0855.17
2009/04/23 11:38:15.2      58    -34     26     68     72 120.7  22.0  34204  290.31 0855.17
2009/04/23 11:38:15.3      31    -19     29     37     47 122.5  42.7  34202  290.30 0855.17
2009/04/23 11:38:15.4      27    -31     26     42     49 139.5  35.5  34196  290.18 0855.17
2009/04/23 11:38:15.5      15    -25      0     30     31 149.3   0.8  34200  290.25 0855.17
2009/04/23 11:38:15.6      -2    -20    -13     21     24 188.0 -39.9  34202  290.28 0855.17
2009/04/23 11:38:15.7     -35    -42    -15     55     58 219.7 -15.4  34202  290.28 0855.17
2009/04/23 11:38:15.8     -21    -53     10     58     59 201.8  10.1  34198  290.21 0855.17
2009/04/23 11:38:15.9     -18    -76      6     79     80 193.4   4.4  34194  290.14 0855.17
2009/04/23 11:38:16.0      -2   -147      7    148    149 180.9   2.9  34186  290.02 0855.17
2009/04/23 11:38:16.1     -14   -168     21    169    171 184.9   7.2  34186  290.01 0855.17
2009/04/23 11:38:16.2     -32   -195     21    198    200 189.3   6.1  34196  290.19 0855.17
2009/04/23 11:38:16.3     -66   -174      1    187    188 200.9   0.5  34204  290.31 0855.17
2009/04/23 11:38:16.4     -61   -159      6    171    172 201.2   2.1  34204  290.33 0855.16
2009/04/23 11:38:16.5    -108   -154      9    189    190 215.0   2.9  34210  290.41 0855.16
2009/04/23 11:38:16.6    -122   -171      0    211    212 215.6   0.0  34228  290.74 0855.16
2009/04/23 11:38:16.7    -132   -159    -57    207    215 219.6 -15.5  34192  290.13 0855.16
2009/04/23 11:38:16.8     -98   -153    -62    183    193 212.7 -23.3  34184  289.97 0855.16
2009/04/23 11:38:16.9     -73   -166    -81    182    199 203.8 -29.7  34182  289.96 0855.16
2009/04/23 11:38:17.0     -35   -133    -82    138    160 195.1 -37.9  34186  290.02 0855.16
2009/04/23 11:38:17.1    -105    -62   -111    123    165 239.3 -51.3  34196  290.19 0855.16
2009/04/23 11:38:17.2    -114      8   -141    115    181 274.4 -60.8  34212  290.47 0855.16
2009/04/23 11:38:17.3     -47     38    -57     61     83 309.5 -52.9  34206  290.36 0855.16
2009/04/23 11:38:17.4     -38    -34    -30     52     60 227.8 -36.8  34216  290.52 0855.16
2009/04/23 11:38:17.5    -148    -73    -57    166    176 243.6 -19.1  34228  290.74 0855.16
2009/04/23 11:38:17.6    -117   -165    -44    203    208 215.4 -12.4  34218  290.57 0855.16
2009/04/23 11:38:17.7     -47   -231     46    236    241 191.6  11.1  34218  290.54 0855.16
2009/04/23 11:38:17.8    -111   -152     67    189    200 216.1  20.2  34216  290.52 0855.16
2009/04/23 11:38:17.9    -103   -203     83    228    242 207.1  20.9  34214  290.48 0855.16
2009/04/23 11:38:18.0    -110   -189     73    220    233 210.3  18.5  34222  290.62 0855.16
2009/04/23 11:38:18.1    -134   -192     54    235    242 215.0  13.1  34234  290.82 0855.16
2009/04/23 11:38:18.2    -115   -180     -2    214    215 212.6  -0.7  34270  291.45 0855.16
2009/04/23 11:38:18.3     -97   -212     26    234    236 204.7   6.5  34244  291.00 0855.16
2009/04/23 11:38:18.4     -69   -227      9    238    239 196.9   2.3  34232  290.78 0855.17
2009/04/23 11:38:18.5     -69   -241     -9    251    252 196.0  -2.2  34224  290.65 0855.17
2009/04/23 11:38:18.6     -44   -252    -22    256    258 190.0  -5.1  34220  290.59 0855.17
2009/04/23 11:38:18.7     -94   -259    -12    276    277 200.0  -2.6  34264  291.33 0855.17
2009/04/23 11:38:18.8    -117   -248    -35    275    278 205.4  -7.3  34248  291.05 0855.17
2009/04/23 11:38:18.9     -54   -232      6    239    240 193.3   1.6  34232  290.78 0855.17
2009/04/23 11:38:19.0     -38   -219     10    223    224 190.0   2.8  34202  290.30 0855.17
2009/04/23 11:38:19.1     -23   -217     18    219    220 186.2   4.9  34204  290.31 0855.17
2009/04/23 11:38:19.2     -20   -244     19    245    246 184.9   4.6  34198  290.20 0855.17
2009/04/23 11:38:19.3     -38   -247     16    251    252 188.9   3.8  34210  290.41 0855.17
2009/04/23 11:38:19.4     -32   -301     -6    303    304 186.2  -1.2  34216  290.51 0855.19
2009/04/23 11:38:19.5     -23   -273     -5    275    276 184.9  -1.1  34218  290.54 0855.19
2009/04/23 11:38:19.6     -24   -275    -71    277    287 185.1 -14.4  34224  290.65 0855.19
2009/04/23 11:38:19.7      -4   -303    -39    304    307 180.9  -7.3  34220  290.58 0855.19
2009/04/23 11:38:19.8      -7   -264     23    265    267 181.6   5.0  34200  290.26 0855.19
2009/04/23 11:38:19.9       5   -263     43    264    268 178.9   9.3  34196  290.19 0855.19
2009/04/23 11:38:20.0      33   -240     67    243    253 172.0  15.6  34198  290.22 0855.19
2009/04/23 11:38:20.1      34   -250     93    253    269 172.2  21.0  34208  290.39 0855.19
2009/04/23 11:38:20.2      50   -266    103    271    289 169.3  21.7  34210  290.42 0855.19
2009/04/23 11:38:20.3      95   -381    162    393    425 166.0  23.7  34212  290.46 0855.19
2009/04/23 11:38:20.4     152   -365    112    396    412 157.4  15.9  34208  290.39 0855.19
2009/04/23 11:38:20.5     151   -317    138    352    378 154.5  22.7  34208  290.40 0855.19
2009/04/23 11:38:20.6      14   -315     50    316    320 177.3   9.0  34214  290.48 0855.19
2009/04/23 11:38:20.7      53   -308     76    313    323 170.2  13.7  34206  290.34 0855.19
2009/04/23 11:38:20.8      40   -307    110    310    330 172.4  19.6  34208  290.37 0855.19
2009/04/23 11:38:20.9       0   -249    145    250    289 180.0  32.9  34208  290.37 0855.19
2009/04/23 11:38:21.0    -116   -223    153    252    294 207.6  34.0  34212  290.44 0855.19
2009/04/23 11:38:21.1    -134   -210    139    250    286 212.6  31.4  34216  290.51 0855.19
2009/04/23 11:38:21.2    -122   -229    193    260    323 208.1  40.4  34214  290.48 0855.19
2009/04/23 11:38:21.3    -153   -236    189    282    339 213.0  36.9  34228  290.73 0855.21
2009/04/23 11:38:21.4     -95   -235    183    254    313 202.1  39.2  34194  290.15 0855.21
2009/04/23 11:38:21.5     -62   -231    199    240    311 195.1  43.8  34202  290.27 0855.21
2009/04/23 11:38:21.6     -87   -261    222    276    354 198.5  43.0  34208  290.40 0855.21
2009/04/23 11:38:21.7    -135   -238    142    274    308 209.6  29.3  34204  290.31 0855.21
2009/04/23 11:38:21.8    -180   -256     60    314    320 215.1  10.8  34196  290.17 0855.21
2009/04/23 11:38:21.9    -240   -263     52    357    361 222.4   8.3  34196  290.18 0855.21
2009/04/23 11:38:22.0    -208   -272    124    343    365 217.5  19.9  34204  290.32 0855.21
2009/04/23 11:38:22.1    -179   -222     93    286    301 218.8  18.1  34210  290.42 0855.21
2009/04/23 11:38:22.2    -179   -165    -30    244    246 227.3  -7.2  34212  290.46 0855.21
2009/04/23 11:38:22.3     -98   -177     15    203    204 209.0   4.4  34210  290.43 0855.21
2009/04/23 11:38:22.4     -56   -242     47    249    254 193.1  10.8  34200  290.24 0855.21
2009/04/23 11:38:22.5     -36   -259     22    262    264 188.0   5.0  34196  290.19 0855.21
2009/04/23 11:38:22.6      21   -246    -31    248    250 174.9  -7.2  34200  290.26 0855.21
2009/04/23 11:38:22.7     -35   -233    -38    236    240 188.7  -9.3  34200  290.24 0855.21
2009/04/23 11:38:22.8     -19   -301    -38    302    305 183.6  -7.2  34204  290.31 0855.21
2009/04/23 11:38:22.9      25   -287     14    289    290 174.9   2.9  34206  290.36 0855.21
2009/04/23 11:38:23.0      15   -302     54    303    308 177.1  10.1  34204  290.31 0855.21
2009/04/23 11:38:23.1      24   -293     38    295    298 175.3   7.5  34204  290.31 0855.21
2009/04/23 11:38:23.2      45   -266     23    270    272 170.2   5.0  34202  290.29 0855.21
2009/04/23 11:38:23.3      48   -237     37    242    245 168.5   8.9  34200  290.26 0855.21
2009/04/23 11:38:23.4     -13   -180     39    181    186 184.2  12.2  34200  290.26 0855.21
2009/04/23 11:38:23.5       8   -159    110    160    194 176.9  37.8  34204  290.31 0855.21
2009/04/23 11:38:23.6      24    -98     35    101    108 166.2  19.4  34202  290.28 0855.21
2009/04/23 11:38:23.7      85    -28     55     90    105 108.2  35.0  34206  290.35 0855.21
2009/04/23 11:38:23.8     118    -29     65    122    138 104.2  30.8  34204  290.33 0855.21
2009/04/23 11:38:23.9      66    -13    116     68    134 101.5  66.8  34214  290.50 0855.21
2009/04/23 11:38:24.0      95     19     85     97    128  78.5  45.8  34214  290.48 0855.21
2009/04/23 11:38:24.1      64     21    108     68    127  71.6  64.7  34210  290.41 0855.21
2009/04/23 11:38:24.2      50      7    103     51    114  82.1  72.4  34214  290.48 0855.21
2009/04/23 11:38:24.3     140      8     80    141    162  86.5  32.1  34200  290.25 0855.21
2009/04/23 11:38:24.4     173      1     80    174    191  89.6  26.6  34200  290.26 0855.21
2009/04/23 11:38:24.5     175     13     66    176    187  85.7  21.5  34202  290.28 0855.21
2009/04/23 11:38:24.6     143     54     30    154    157  69.2  11.1  34200  290.26 0855.21
2009/04/23 11:38:24.7     135     45      7    143    144  71.4   2.8  34200  290.25 0855.21
2009/04/23 11:38:24.8     130     61    -51    144    153  64.7 -19.6  34202  290.30 0855.21
2009/04/23 11:38:24.9     139     46    -48    147    154  71.4 -23.8  34200  290.25 0855.21
2009/04/23 11:38:25.0     149     42    -46    155    162  74.1 -16.6  34200  290.26 0855.21
2009/04/23 11:38:25.1     139     16    -27    140    143  83.4 -10.9  34198  290.21 0855.21
2009/04/23 11:38:25.2     138     65    -35    153    158  64.7 -13.2  34198  290.23 0855.21
2009/04/23 11:38:25.3     141     20     -5    143    144  81.6  -2.2  34198  290.23 0855.21
2009/04/23 11:38:25.4     117      0     51    118    128  90.0  25.1  34202  290.28 0855.21
2009/04/23 11:38:25.6     103    -37     98    110    147 110.0  46.4  34210  290.41 0855.21
2009/04/23 11:38:25.6     100     -9     90    101    135  95.7  45.9  34216  290.53 0855.21
2009/04/23 11:38:25.8      51     36     58     63     85  54.9  47.9  34216  290.53 0855.21
2009/04/23 11:38:25.9      33     26     54     43     69  51.4  56.4  34214  290.48 0855.21
2009/04/23 11:38:25.9      29     18     29     35     45  57.5  44.8  34212  290.45 0855.21
2009/04/23 11:38:26.0       6     36      5     37     38   9.8   9.0  34212  290.45 0855.21
2009/04/23 11:38:26.2      16     83    -13     85     87  11.1  -8.8  34208  290.40 0855.21
2009/04/23 11:38:26.3      24     72    -27     76     81  18.5 -19.7  34204  290.31 0855.21
2009/04/23 11:38:26.4      42     50     -8     66     67  39.6  -7.3  34208  290.40 0855.21
2009/04/23 11:38:26.5      66     48    -24     82     85  53.6 -21.2  34206  290.35 0855.21
2009/04/23 11:38:26.6      93     38      4    101    102  67.4   2.3  34206  290.36 0855.21
2009/04/23 11:38:26.7      96     31     31    102    107  71.8  17.3  34206  290.36 0855.21
2009/04/23 11:38:26.8       9     24     81     26     85  21.8  81.2  34212  290.47 0855.21
2009/04/23 11:38:26.9      -8     56     72     57     91 351.1  57.5  34220  290.58 0855.21
2009/04/23 11:38:27.0      22     22     97     32    102  45.0  80.7  34224  290.67 0855.21
2009/04/23 11:38:27.1      40     75     87     86    122  28.1  50.1  34212  290.47 0855.21
2009/04/23 11:38:27.2      19    114     66    116    133   9.8  32.9  34216  290.53 0855.21
2009/04/23 11:38:27.3      -2    111     48    112    121 358.6  24.6  34208  290.40 0855.21
2009/04/23 11:38:27.4     -49    121     57    131    142 337.7  25.1  34210  290.41 0855.20
2009/04/23 11:38:27.5       4     62     86     63    106   4.4  60.5  34214  290.48 0855.20
2009/04/23 11:38:27.6     -18     20    145     28    147 318.6  89.1  34224  290.67 0855.20
2009/04/23 11:38:27.7     -38   -114    189    121    224 198.7  64.6  34218  290.55 0855.20
2009/04/23 11:38:27.8     -12   -202    239    203    313 183.6  55.5  34206  290.36 0855.20
2009/04/23 11:38:27.9      57      0    148     58    158  90.8  77.6  34220  290.58 0855.20
2009/04/23 11:38:28.0     296    -22    260    297    394  94.3  45.8  34212  290.45 0855.20
2009/04/23 11:38:28.1     250    -41    248    254    354  99.5  49.4  34214  290.48 0855.20
2009/04/23 11:38:28.2     154     34     73    158    174  77.2  26.6  34212  290.45 0855.20
2009/04/23 11:38:28.3     123    -16     88    125    152  97.5  38.6  34214  290.50 0855.20
2009/04/23 11:38:28.4     -26    -31    141     41    146 220.5  83.3  34218  290.55 0855.20
2009/04/23 11:38:28.5     107      8    110    108    154  85.6  50.1  34216  290.53 0855.20
2009/04/23 11:38:28.6     138    -56     96    150    178 112.2  35.6  34210  290.43 0855.20
2009/04/23 11:38:28.7      45   -144    104    151    183 162.6  37.8  34198  290.21 0855.20
2009/04/23 11:38:28.8     -16   -196    145    197    244 184.7  40.1  34202  290.28 0855.20
2009/04/23 11:38:28.9     167   -177     58    244    251 136.7  13.5  34206  290.34 0855.20
2009/04/23 11:38:29.0     168   -196    146    259    297 139.4  31.6  34202  290.27 0855.20
2009/04/23 11:38:29.1     101   -372     72    386    393 164.8  10.6  34208  290.37 0855.20
2009/04/23 11:38:29.2      52   -408    156    412    440 172.7  21.7  34192  290.12 0855.20
2009/04/23 11:38:29.3      58   -286    223    293    368 168.4  41.3  34200  290.25 0855.20
2009/04/23 11:38:29.4      18   -273    205    274    342 176.2  40.6  34202  290.27 0855.19
2009/04/23 11:38:29.5      34   -313    247    315    400 173.7  42.1  34204  290.32 0855.19
2009/04/23 11:38:29.6       4   -294    226    295    371 179.1  41.4  34206  290.35 0855.19
2009/04/23 11:38:29.7      82   -234    198    249    318 160.6  42.4  34208  290.39 0855.19
2009/04/23 11:38:29.8     147   -152    140    212    254 135.9  36.5  34214  290.49 0855.19
2009/04/23 11:38:29.9     230   -109    130    255    286 115.5  29.2  34210  290.42 0855.19
2009/04/23 11:38:30.0     228    -46    159    233    282 101.5  37.6  34210  290.42 0855.19
2009/04/23 11:38:30.1     224    -67     67    234    244 106.8  16.0  34210  290.41 0855.19
2009/04/23 11:38:30.2     169    -54     32    178    181 107.7  10.3  34206  290.36 0855.19
2009/04/23 11:38:30.3     142    -56     39    153    159 111.7  14.5  34210  290.41 0855.19
2009/04/23 11:38:30.4      88    -48     99    101    141 118.9  49.9  34210  290.43 0855.19
2009/04/23 11:38:30.5      39    -72     75     83    111 151.5  47.5  34214  290.50 0855.19
2009/04/23 11:38:30.6      90    -45     97    101    140 116.6  49.0  34216  290.52 0855.19
2009/04/23 11:38:30.7       5    -82     60     83    102 176.0  39.7  34216  290.53 0855.19
2009/04/23 11:38:30.8      88    -12     86     89    123  97.9  49.4  34218  290.55 0855.19
2009/04/23 11:38:30.9      62    -63    157     89    180 135.3  68.3  34216  290.53 0855.19
2009/04/23 11:38:31.0       2      2     95      4     95  45.0  90.0  34230  290.75 0855.19
2009/04/23 11:38:31.1       4    -53    114     54    126 175.6  72.9  34218  290.55 0855.19
2009/04/23 11:38:31.2      -7    -36     94     37    101 191.6  77.1  34228  290.74 0855.19
2009/04/23 11:38:31.3       2     33     96     34    101   4.5  80.2  34236  290.86 0855.19
2009/04/23 11:38:31.4      68     77    -78    104    130  41.4 -45.6  34232  290.79 0855.19
2009/04/23 11:38:31.5     103     49    -17    115    117  64.2  -8.8  34252  291.13 0855.19
2009/04/23 11:38:31.6     139    122     65    186    198  48.7  19.4  34260  291.26 0855.19
2009/04/23 11:38:31.7     126    184     40    224    228  34.5  10.3  34298  291.91 0855.19
2009/04/23 11:38:31.8     106    158     66    191    203  33.8  19.2  34266  291.38 0855.19
2009/04/23 11:38:31.9      92    104     91    140    166  41.4  36.0  34256  291.20 0855.19
2009/04/23 11:38:32.0      51     64     83     83    117  38.7  50.1  34246  291.03 0855.19
2009/04/23 11:38:32.1      48     78     73     92    117  31.6  43.3  34234  290.82 0855.19
2009/04/23 11:38:32.2      64     55     76     85    114  49.1  46.9  34228  290.74 0855.19
2009/04/23 11:38:32.3      52    145     -7    155    156  20.0  -2.6  34224  290.65 0855.19
2009/04/23 11:38:32.4       9    120    -46    121    129   4.5 -25.4  34232  290.81 0855.19
2009/04/23 11:38:32.5      24     54   -119     60    133  23.6 -76.3  34238  290.89 0855.19
2009/04/23 11:38:32.6      13     60   -131     62    144  12.5 -77.3  34246  291.03 0855.19
2009/04/23 11:38:32.7      86     66    -74    109    131  52.7 -41.8  34252  291.13 0855.19
2009/04/23 11:38:32.8      91     50    -54    105    118  61.1 -33.6  34246  291.03 0855.19
2009/04/23 11:38:32.9     100     20    -32    103    109  78.5 -17.6  34236  290.87 0855.19
2009/04/23 11:38:33.0      91      8    -28     92     97  84.8 -17.0  34236  290.87 0855.19
2009/04/23 11:38:33.1     126     -5    -45    127    135  92.5 -19.7  34234  290.82 0855.19
2009/04/23 11:38:33.2      48     44    -87     66    109  47.8 -63.4  34230  290.75 0855.19
2009/04/23 11:38:33.3       6     82   -104     83    133   4.5 -61.3  34226  290.70 0855.19
2009/04/23 11:38:33.4     -19    101    -60    103    119 348.9 -37.3  34224  290.65 0855.19
2009/04/23 11:38:33.5      -7     27    -52     29     59 344.9 -73.2  34228  290.72 0855.19
2009/04/23 11:38:33.6     -78     15    -65     80    103 281.5 -48.1  34222  290.64 0855.19
2009/04/23 11:38:33.7    -120    -18    -46    122    130 261.2 -25.9  34220  290.60 0855.19
2009/04/23 11:38:33.8    -226      3   -120    227    256 270.9 -34.6  34220  290.59 0855.19
2009/04/23 11:38:33.9    -271    -42   -130    275    304 261.2 -31.5  34224  290.65 0855.19
2009/04/23 11:38:34.0    -163     33   -136    167    215 281.7 -48.1  34202  290.28 0855.19
2009/04/23 11:38:34.1     -65     41     -7     78     79 302.5  -5.2  34208  290.40 0855.19
2009/04/23 11:38:34.2    -217    -89    100    235    255 247.6  24.3  34270  291.44 0855.19
2009/04/23 11:38:34.3    -195   -201    100    281    298 224.1  20.4  34266  291.38 0855.19
2009/04/23 11:38:34.4    -199   -189    -25    275    277 226.4  -5.2  34234  290.83 0855.19
2009/04/23 11:38:34.5    -324    -76    -93    333    345 256.8 -20.2  34234  290.84 0855.19
2009/04/23 11:38:34.6    -258   -187    -43    319    322 234.0  -7.7  34226  290.68 0855.19
2009/04/23 11:38:34.7    -290   -105     12    309    310 250.1   2.3  34214  290.49 0855.19
2009/04/23 11:38:34.8    -246   -224    -18    333    334 227.7  -3.2  34228  290.71 0855.19
2009/04/23 11:38:34.9    -290   -172    -52    338    342 239.3  -8.8  34236  290.86 0855.19
2009/04/23 11:38:35.0    -269    -47    104    274    293 260.1  22.0  34250  291.10 0855.19
2009/04/23 11:38:35.1    -196    -86     98    215    236 246.3  26.2  34240  290.92 0855.19
2009/04/23 11:38:35.2    -211   -212      4    300    301 224.9   0.8  34238  290.90 0855.19
2009/04/23 11:38:35.3    -285   -129    -11    314    315 245.6  -2.1  34244  291.00 0855.19
2009/04/23 11:38:35.4    -259     19     -5    260    261 274.3  -1.3  34256  291.19 0855.19
2009/04/23 11:38:35.5    -195     -3     51    196    203 269.0  14.7  34272  291.49 0855.19
2009/04/23 11:38:35.6     -92    118     74    150    167 322.1  28.0  34276  291.54 0855.19
2009/04/23 11:38:35.7     -62    155     39    167    172 338.2  13.2  34304  292.01 0855.19
2009/04/23 11:38:35.8     -91    111     57    144    154 320.8  22.5  34310  292.13 0855.19
2009/04/23 11:38:35.9    -139    111     62    178    189 308.6  19.2  34312  292.15 0855.19
2009/04/23 11:38:36.0    -128    101      9    164    165 308.2   3.3  34306  292.06 0855.19
2009/04/23 11:38:36.1    -113     85     22    142    144 306.9   8.9  34316  292.23 0855.19
2009/04/23 11:38:36.2    -146     63     12    160    161 293.3   4.6  34314  292.20 0855.19
2009/04/23 11:38:36.3    -216    -19   -118    217    247 264.8 -35.2  34214  290.48 0855.19
2009/04/23 11:38:36.4    -217     -3   -133    218    255 269.0 -38.6  34230  290.75 0855.19
2009/04/23 11:38:36.5    -206    116    -92    237    254 299.5 -26.5  34224  290.65 0855.19
2009/04/23 11:38:36.6    -176     -9    -87    177    197 267.0 -32.4  34242  290.96 0855.19
2009/04/23 11:38:36.7    -156    -58     -6    167    168 249.4  -2.3  34242  290.98 0855.19
2009/04/23 11:38:36.8    -139     37     61    144    156 285.0  24.1  34236  290.86 0855.19
2009/04/23 11:38:36.9     -15     31    141     35    145 332.8  85.9  34288  291.74 0855.19
2009/04/23 11:38:37.0     -22    111    128    114    171 348.5  53.7  34282  291.64 0855.19
2009/04/23 11:38:37.1     -21     74    114     77    137 344.0  62.7  34302  292.00 0855.19
2009/04/23 11:38:37.2     -16     27     86     32     91 329.3  79.2  34314  292.18 0855.19
2009/04/23 11:38:37.3     -18    -53      1     57     58 199.2   1.8  34318  292.25 0855.19
2009/04/23 11:38:37.4     -78    -41    -15     89     91 242.0  -9.8  34316  292.23 0855.20
2009/04/23 11:38:37.5     -87    -86    -94    123    154 225.1 -46.0  34244  291.01 0855.20
2009/04/23 11:38:37.6    -109    -73     32    132    136 236.3  13.7  34250  291.09 0855.20
2009/04/23 11:38:37.7    -256   -112    -10    280    281 246.4  -2.2  34256  291.19 0855.20
2009/04/23 11:38:37.8    -254    -31    -45    256    261 263.0 -10.1  34260  291.26 0855.20
2009/04/23 11:38:37.9    -216    -70    -55    228    235 252.1 -13.7  34256  291.20 0855.20
2009/04/23 11:38:38.0    -230   -156    -82    279    291 235.8 -16.4  34240  290.92 0855.20
2009/04/23 11:38:38.1    -433   -134   -155    454    479 252.8 -23.8  34212  290.44 0855.20
2009/04/23 11:38:38.2    -450    -77   -249    457    520 260.3 -35.3  34208  290.40 0855.20
2009/04/23 11:38:38.3    -394     49   -208    398    449 277.2 -34.2  34226  290.68 0855.20
2009/04/23 11:38:38.4    -420     26   -210    421    470 273.6 -32.9  34200  290.26 0855.20
2009/04/23 11:38:38.5    -417     14   -246    418    485 272.0 -37.7  34218  290.55 0855.20
2009/04/23 11:38:38.6    -341     48    -88    345    357 278.0 -14.4  34262  291.32 0855.20
2009/04/23 11:38:38.7    -316     38   -130    319    344 277.0 -27.8  34214  290.50 0855.20
2009/04/23 11:38:38.8    -222    -30   -212    225    309 262.1 -52.4  34240  290.93 0855.20
2009/04/23 11:38:38.9     -43   -138   -158    145    214 197.4 -56.9  34232  290.81 0855.20
2009/04/23 11:38:39.0      -7   -245    -90    246    261 181.8 -25.4  34282  291.63 0855.20
2009/04/23 11:38:39.1      -6   -257    -85    258    271 181.4 -23.8  34290  291.77 0855.20
2009/04/23 11:38:39.2     -73   -221    -79    233    247 198.3 -18.7  34300  291.96 0855.20
2009/04/23 11:38:39.3    -174   -268    -66    320    327 213.0 -11.8  34300  291.94 0855.20
2009/04/23 11:38:39.4    -240   -224    -69    329    337 227.0 -11.9  34282  291.64 0855.19
2009/04/23 11:38:39.5    -323   -112   -112    343    361 250.8 -18.2  34266  291.37 0855.19
2009/04/23 11:38:39.6    -316   -133   -191    343    392 247.2 -35.9  34272  291.47 0855.19
2009/04/23 11:38:39.7    -370   -148   -117    399    415 248.2 -21.2  34272  291.48 0855.19
2009/04/23 11:38:39.8    -284     -4   -148    285    321 269.1 -34.0  34220  290.58 0855.19
2009/04/23 11:38:39.9    -212    -82    -96    228    247 248.7 -28.6  34248  291.05 0855.19
2009/04/23 11:38:40.0    -247    -70    -89    257    271 254.0 -23.8  34276  291.53 0855.19
2009/04/23 11:38:40.1    -372   -134   -136    396    418 250.2 -23.9  34256  291.19 0855.19
2009/04/23 11:38:40.2    -446    -62   -181    451    485 262.1 -27.5  34242  290.96 0855.19
2009/04/23 11:38:40.3    -439    -61   -152    444    469 262.0 -23.9  34244  290.99 0855.19
2009/04/23 11:38:40.4    -430    -79   -143    438    461 259.5 -18.2  34256  291.21 0855.19
2009/04/23 11:38:40.5    -463    -33   -146    465    487 265.9 -22.4  34232  290.81 0855.19
2009/04/23 11:38:40.6    -456    -59   -145    460    483 262.6 -17.5  34242  290.95 0855.19
2009/04/23 11:38:40.7    -456   -169    -86    487    495 249.6 -10.1  34268  291.39 0855.19
2009/04/23 11:38:40.8    -395   -121   -144    414    438 253.0 -24.3  34258  291.24 0855.19
2009/04/23 11:38:40.9    -480   -210   -130    525    541 246.4 -13.9  34238  290.89 0855.19
2009/04/23 11:38:41.0    -469   -226    -31    521    522 244.2  -3.5  34242  290.97 0855.19
2009/04/23 11:38:41.1    -482   -109   -147    495    517 257.2 -16.5  34246  291.02 0855.19
2009/04/23 11:38:41.2    -572   -218    -78    613    619 249.1  -7.3  34244  291.01 0855.19
2009/04/23 11:38:41.3    -552   -224   -159    596    617 247.9 -15.0  34262  291.31 0855.19
2009/04/23 11:38:41.4    -409   -463     25    618    619 221.5   2.3  34268  291.42 0855.21
2009/04/23 11:38:41.5    -351   -551     18    654    655 212.5   1.6  34258  291.23 0855.21
2009/04/23 11:38:41.6    -390   -514    -23    646    647 217.2  -2.1  34252  291.13 0855.21
2009/04/23 11:38:41.7    -419   -314   -105    524    535 233.1 -11.3  34226  290.70 0855.21
2009/04/23 11:38:41.8    -291   -380    -18    479    480 217.5  -2.2  34238  290.91 0855.21
2009/04/23 11:38:41.9    -279   -280    -28    396    397 224.8  -4.1  34244  291.00 0855.21
2009/04/23 11:38:42.0    -172   -361    -15    401    402 205.5  -2.2  34240  290.93 0855.21
2009/04/23 11:38:42.1    -125   -390     42    410    413 197.8   6.0  34256  291.19 0855.21
2009/04/23 11:38:42.2     -42   -409     20    412    413 185.9   2.9  34230  290.77 0855.21
2009/04/23 11:38:42.3     -59   -427     32    432    434 187.9   4.3  34228  290.73 0855.21
2009/04/23 11:38:42.4     -29   -370     68    372    379 184.5  10.4  34232  290.79 0855.22
2009/04/23 11:38:42.5     -45   -371     15    374    375 187.0   2.3  34222  290.62 0855.22
2009/04/23 11:38:42.6     -97   -269    -58    287    293 200.0 -11.5  34212  290.46 0855.22
2009/04/23 11:38:42.7    -115    -38   -203    122    236 251.4 -70.8  34216  290.52 0855.22
2009/04/23 11:38:42.8    -123    -89     90    152    176 234.1  33.1  34220  290.60 0855.22
2009/04/23 11:38:42.9    -178   -177     69    252    262 225.1  15.3  34224  290.66 0855.22
2009/04/23 11:38:43.0    -248    -90    -65    265    273 250.0 -13.9  34230  290.75 0855.22
2009/04/23 11:38:43.1    -295    -69    -21    304    305 256.8  -4.1  34228  290.71 0855.22
2009/04/23 11:38:43.2    -325    -85    -73    336    344 255.3 -12.3  34224  290.67 0855.22
2009/04/23 11:38:43.3    -337   -144   -202    367    418 246.8 -35.8  34224  290.67 0855.22
2009/04/23 11:38:43.4    -288    -96    -14    304    305 251.4  -2.8  34222  290.63 0855.22
2009/04/23 11:38:43.5    -279   -149    -83    317    328 241.8 -14.8  34224  290.65 0855.22
2009/04/23 11:38:43.6    -193   -169   -124    257    285 228.9 -31.7  34226  290.70 0855.22
2009/04/23 11:38:43.7    -135   -261   -101    295    311 207.4 -23.3  34222  290.61 0855.22
2009/04/23 11:38:43.8    -131   -370    -28    393    394 199.6  -4.1  34222  290.64 0855.22
2009/04/23 11:38:43.9     -38   -311     43    314    317 187.1   7.8  34228  290.71 0855.22
2009/04/23 11:38:44.0    -121   -243     32    272    274 206.5   6.9  34224  290.65 0855.22
2009/04/23 11:38:44.1    -129   -313     40    339    342 202.4   6.9  34220  290.60 0855.22
2009/04/23 11:38:44.2    -126   -333    119    357    377 200.7  18.5  34222  290.64 0855.22
2009/04/23 11:38:44.3    -112   -369    113    386    403 196.9  16.4  34222  290.64 0855.22
2009/04/23 11:38:44.4     -91   -301     93    315    329 197.0  16.5  34222  290.61 0855.21
2009/04/23 11:38:44.5     -81   -295     80    307    318 195.4  14.6  34226  290.68 0855.21
2009/04/23 11:38:44.6     -59   -264     50    271    276 192.7  10.6  34224  290.66 0855.21
2009/04/23 11:38:44.7     -56   -256     67    263    272 192.4  14.3  34230  290.75 0855.21
2009/04/23 11:38:44.8     -91   -295     51    309    314 197.2   9.5  34230  290.75 0855.21
2009/04/23 11:38:44.9     -78   -272     29    284    286 196.0   6.0  34234  290.82 0855.21
2009/04/23 11:38:45.0    -126   -265     43    294    298 205.5   8.5  34226  290.68 0855.21
2009/04/23 11:38:45.1    -121   -312     25    335    336 201.2   4.3  34222  290.64 0855.21
2009/04/23 11:38:45.2     -87   -263     59    277    284 198.3  12.1  34222  290.63 0855.21
2009/04/23 11:38:45.3     -77   -286     18    297    298 195.2   3.6  34220  290.59 0855.21
2009/04/23 11:38:45.4     -83   -273    -21    286    287 196.9  -4.4  34220  290.59 0855.21
2009/04/23 11:38:45.5     -71   -264    -60    274    281 195.1 -12.4  34222  290.63 0855.21
2009/04/23 11:38:45.6     -80   -288    -61    300    307 195.6 -11.6  34224  290.65 0855.21
2009/04/23 11:38:45.7     -39   -286    -70    289    298 187.8 -13.7  34224  290.65 0855.21
2009/04/23 11:38:45.8     -10   -313    -68    314    322 182.0 -12.3  34224  290.66 0855.21
2009/04/23 11:38:45.9     -30   -311    -47    313    317 185.6  -8.7  34224  290.66 0855.21
2009/04/23 11:38:46.0     -66   -196     27    208    210 198.7   7.5  34220  290.60 0855.21
2009/04/23 11:38:46.1     -24   -143     79    146    166 189.8  30.8  34222  290.62 0855.21
2009/04/23 11:38:46.2     -35    -89     64     96    115 201.8  36.0  34224  290.65 0855.21
2009/04/23 11:38:46.3     -96    -51    -37    109    115 242.0 -23.3  34228  290.72 0855.21
2009/04/23 11:38:46.4    -115    -48    -60    125    138 247.4 -31.6  34242  290.98 0855.22
2009/04/23 11:38:46.5     -32    -40   -127     52    137 218.7 -81.4  34238  290.91 0855.22
2009/04/23 11:38:46.6    -100   -123   -117    159    197 219.2 -44.3  34232  290.79 0855.22
2009/04/23 11:38:46.7     -43   -128   -118    136    180 198.7 -50.0  34222  290.64 0855.22
2009/04/23 11:38:46.8      68   -132   -131    149    198 152.8 -50.3  34228  290.74 0855.22
2009/04/23 11:38:46.9     120    -99    -66    156    169 129.6 -29.0  34228  290.74 0855.22
2009/04/23 11:38:47.0     129   -152    -18    200    201 139.7  -5.2  34230  290.75 0855.22
2009/04/23 11:38:47.1     155   -129     17    202    203 129.8   5.0  34226  290.70 0855.22
2009/04/23 11:38:47.2     113    -99     61    151    162 131.3  23.0  34226  290.69 0855.22
2009/04/23 11:38:47.3      30   -116     90    120    150 165.3  40.7  34228  290.74 0855.22
2009/04/23 11:38:47.4      22   -109     73    112    133 168.4  35.6  34230  290.77 0855.22
2009/04/23 11:38:47.5      64   -132    -73    147    164 154.1 -32.9  34228  290.72 0855.22
2009/04/23 11:38:47.6      12   -165    -57    166    176 175.5 -19.1  34226  290.69 0855.22
2009/04/23 11:38:47.7      30   -206    -11    209    210 171.5  -3.1  34224  290.67 0855.22
2009/04/23 11:38:47.8      18   -239     -2    240    241 175.6  -0.5  34216  290.51 0855.22
2009/04/23 11:38:47.9      28   -229      8    231    232 172.9   2.1  34220  290.60 0855.22
2009/04/23 11:38:48.0       6   -191    -53    192    200 178.0 -15.5  34220  290.60 0855.22
2009/04/23 11:38:48.1      11   -218    -27    219    221 177.1  -7.2  34224  290.67 0855.22
2009/04/23 11:38:48.2       4   -199     -7    200    201 178.6  -2.3  34228  290.72 0855.22
2009/04/23 11:38:48.3       5   -206    -26    207    209 178.6  -7.2  34226  290.70 0855.21
2009/04/23 11:38:48.4      -3   -159     55    160    170 181.4  19.2  34226  290.69 0855.21
2009/04/23 11:38:48.5      -6   -144     24    145    147 182.7   9.5  34224  290.67 0855.21
2009/04/23 11:38:48.6     -10   -133     25    134    137 184.5  10.6  34224  290.67 0855.21
2009/04/23 11:38:48.7      14   -165     57    166    176 175.1  18.9  34226  290.69 0855.21
2009/04/23 11:38:48.8       5   -209     74    210    223 178.4  19.6  34224  290.67 0855.21
2009/04/23 11:38:48.9     -13   -224     96    225    244 183.4  24.6  34226  290.68 0855.21
2009/04/23 11:38:49.0       8   -198    121    199    232 177.5  34.8  34220  290.58 0855.21
2009/04/23 11:38:49.1      45   -239    105    244    265 169.3  24.9  34222  290.61 0855.21
2009/04/23 11:38:49.2       8   -192     67    193    205 177.5  19.2  34222  290.62 0855.21
2009/04/23 11:38:49.3      32   -227     58    230    238 171.9  14.2  34220  290.59 0855.21
2009/04/23 11:38:49.4      11   -200     39    201    205 176.6  11.1  34222  290.62 0855.21
2009/04/23 11:38:49.5     -27   -190     37    192    196 188.1  11.1  34222  290.62 0855.21
2009/04/23 11:38:49.6     -65   -170     39    183    188 200.9  12.2  34220  290.60 0855.21
2009/04/23 11:38:49.7    -117   -178    -51    214    220 213.4 -13.4  34228  290.72 0855.21
2009/04/23 11:38:49.8     -95   -205    -65    227    237 204.9 -16.0  34232  290.80 0855.21
2009/04/23 11:38:49.9    -135   -173    -23    220    222 217.9  -6.0  34218  290.55 0855.21
2009/04/23 11:38:50.0     -56   -246     49    253    258 192.9  11.1  34222  290.61 0855.21
2009/04/23 11:38:50.1     -76   -283     56    293    299 195.1  10.8  34222  290.61 0855.21
2009/04/23 11:38:50.2    -142   -286     38    320    323 206.5   6.8  34218  290.56 0855.21
2009/04/23 11:38:50.3    -139   -306    -23    337    338 204.4  -4.0  34220  290.60 0855.22
2009/04/23 11:38:50.4    -166   -267    -63    315    322 211.9 -11.3  34218  290.56 0855.22
2009/04/23 11:38:50.5    -187   -158    -14    246    247 229.8  -3.3  34228  290.71 0855.22
2009/04/23 11:38:50.6    -159   -168     36    232    235 223.4   9.0  34226  290.70 0855.22
2009/04/23 11:38:50.7    -104   -138     77    173    189 217.0  25.9  34240  290.92 0855.22
2009/04/23 11:38:50.8    -103   -126      9    163    164 219.2   3.3  34244  290.99 0855.22
2009/04/23 11:38:50.9    -136    -75    -47    156    164 241.1 -17.0  34230  290.75 0855.22
2009/04/23 11:38:51.0    -148   -125    -37    195    199 229.8 -10.9  34242  290.96 0855.22
2009/04/23 11:38:51.1    -307   -156    -19    345    346 243.0  -3.2  34252  291.13 0855.22
2009/04/23 11:38:51.2    -200   -201     14    284    285 224.9   2.9  34240  290.92 0855.22
2009/04/23 11:38:51.3    -248   -223     33    334    336 228.1   5.8  34240  290.93 0855.22
2009/04/23 11:38:51.4    -232   -218     16    319    320 226.9   2.9  34240  290.92 0855.22
2009/04/23 11:38:51.6    -258   -209    103    333    349 231.0  17.2  34252  291.13 0855.22
2009/04/23 11:38:51.7    -198   -193    138    277    309 225.8  28.2  34240  290.93 0855.22
2009/04/23 11:38:51.7    -199   -158    109    255    277 231.6  24.6  34266  291.38 0855.22
2009/04/23 11:38:51.9    -231   -172     22    289    290 233.4   4.4  34240  290.92 0855.22
2009/04/23 11:38:52.0    -178   -142     -8    228    229 231.4  -2.2  34234  290.82 0855.22
2009/04/23 11:38:52.1    -227   -108    -64    252    261 244.5 -14.4  34210  290.42 0855.22
2009/04/23 11:38:52.2    -147   -145    -11    207    208 225.3  -3.1  34228  290.72 0855.22
2009/04/23 11:38:52.3     -82   -215     54    231    238 200.9  13.2  34218  290.56 0855.22
2009/04/23 11:38:52.4     -70   -222     51    233    239 197.6  12.4  34218  290.54 0855.22
2009/04/23 11:38:52.5     -82   -245     51    259    265 198.5  11.1  34222  290.61 0855.22
2009/04/23 11:38:52.6     -83   -288     86    300    313 196.1  16.0  34222  290.63 0855.22
2009/04/23 11:38:52.7     -53   -261     89    267    282 191.6  18.5  34224  290.65 0855.22
2009/04/23 11:38:52.8      -8   -261     71    262    272 181.8  15.3  34232  290.78 0855.22
2009/04/23 11:38:52.9     -35   -247     84    250    264 188.1  18.6  34230  290.75 0855.22
2009/04/23 11:38:53.0       8   -208    130    209    246 177.8  35.0  34228  290.71 0855.22
2009/04/23 11:38:53.1      45   -219     98    224    244 168.2  25.2  34226  290.70 0855.22
2009/04/23 11:38:53.2      17   -220     75    221    234 175.5  18.9  34226  290.69 0855.22
2009/04/23 11:38:53.3      31   -252     49    254    259 172.9  11.0  34224  290.66 0855.22
2009/04/23 11:38:53.4      90   -224     58    242    249 158.1  13.5  34224  290.66 0855.22
2009/04/23 11:38:53.5     116   -198     76    230    243 149.5  18.5  34222  290.63 0855.22
2009/04/23 11:38:53.6      64   -135     52    150    158 154.6  20.0  34224  290.67 0855.22
2009/04/23 11:38:53.7      19   -117     40    119    126 170.7  18.9  34226  290.70 0855.22
2009/04/23 11:38:53.8     -18    -91     63     93    112 191.5  37.6  34228  290.74 0855.22
2009/04/23 11:38:53.9      -8   -107     82    108    135 184.5  41.6  34230  290.77 0855.22
2009/04/23 11:38:54.0     -13   -119     81    120    144 186.7  37.0  34232  290.81 0855.22
2009/04/23 11:38:54.1      -4    -58     40     59     71 184.5  36.5  34230  290.75 0855.22
2009/04/23 11:38:54.2      -2      0     57      3     57 288.4  90.0  34238  290.89 0855.22
2009/04/23 11:38:54.3       1    -20     55     21     58 175.5  78.2  34240  290.92 0855.22
2009/04/23 11:38:54.4       0    -46     60     47     76 180.9  57.5  34240  290.94 0855.20
2009/04/23 11:38:54.5      27     -9     61     29     67 108.4  72.9  34242  290.98 0855.20
2009/04/23 11:38:54.6      73    -43     46     86     97 120.7  30.3  34228  290.72 0855.20
2009/04/23 11:38:54.7      19   -105     72    107    128 169.3  37.0  34222  290.62 0855.20
2009/04/23 11:38:54.8      23   -116    106    119    159 168.4  46.6  34230  290.77 0855.20
2009/04/23 11:38:54.9      53   -108     90    121    150 153.7  40.1  34226  290.70 0855.20
2009/04/23 11:38:55.0      63    -40     86     75    114 122.5  54.3  34226  290.70 0855.20
2009/04/23 11:38:55.1      99      5     68    100    120  87.0  37.6  34224  290.65 0855.20
2009/04/23 11:38:55.2      52    -73     82     90    121 144.4  47.5  34226  290.69 0855.20
2009/04/23 11:38:55.3      43    -76     77     88    116 150.6  45.8  34226  290.70 0855.20
2009/04/23 11:38:55.4      65    -47     68     81    105 125.9  44.3  34228  290.72 0855.20
2009/04/23 11:38:55.5      53    -33     63     63     89 122.4  50.1  34232  290.79 0855.20
2009/04/23 11:38:55.6      39    -42     38     58     69 136.8  35.6  34228  290.74 0855.20
2009/04/23 11:38:55.7      27    -22     20     36     41 129.6  31.4  34228  290.72 0855.20
2009/04/23 11:38:55.8      10    -35     11     37     39 163.1  17.3  34232  290.79 0855.20
2009/04/23 11:38:55.9     -11    -53     19     55     59 192.5  18.9  34230  290.77 0855.20
2009/04/23 11:38:56.0     -25    -51     22     57     61 206.3  22.0  34232  290.81 0855.20
2009/04/23 11:38:56.1     -56    -29     29     64     70 242.9  27.1  34228  290.74 0855.20
2009/04/23 11:38:56.2     -63    -83     60    105    120 217.0  32.4  34228  290.74 0855.20
2009/04/23 11:38:56.3     -93   -102     58    139    150 222.3  23.6  34236  290.86 0855.20
2009/04/23 11:38:56.4     -92   -104     84    140    163 221.4  34.0  34244  290.99 0855.16
2009/04/23 11:38:56.5     -66    -96     79    117    141 214.7  37.6  34244  290.99 0855.16
2009/04/23 11:38:56.6     -77    -93     75    122    143 219.7  35.0  34250  291.09 0855.16
2009/04/23 11:38:56.7     -69    -91     50    115    125 217.4  25.1  34244  291.01 0855.16
2009/04/23 11:38:56.8     -51   -109     47    121    129 204.9  22.0  34240  290.92 0855.16
2009/04/23 11:38:56.9     -24   -108     13    111    112 192.5   6.9  34242  290.98 0855.16
2009/04/23 11:38:57.0     -20    -97     27    100    104 191.6  15.3  34244  290.99 0855.16
2009/04/23 11:38:57.1      15    -85     29     87     92 169.8  18.4  34246  291.03 0855.16
2009/04/23 11:38:57.2      52    -97     21    111    114 151.9  11.1  34258  291.25 0855.16
2009/04/23 11:38:57.3      60    -73     27     95     99 140.4  16.3  34256  291.20 0855.16
2009/04/23 11:38:57.4      59    -60     29     85     90 135.5  18.9  34260  291.26 0855.16
2009/04/23 11:38:57.5      20    -44     40     49     63 155.5  43.7  34252  291.13 0855.16
2009/04/23 11:38:57.6       7    -24     41     26     48 163.1  64.7  34254  291.18 0855.16
2009/04/23 11:38:57.7     -11    -10     29     16     33 226.7  68.8  34250  291.11 0855.16
2009/04/23 11:38:57.8     -60     20    -17     64     67 288.4 -15.5  34252  291.13 0855.16
2009/04/23 11:38:57.9     -72     35    -23     81     85 295.8 -16.0  34260  291.26 0855.16
2009/04/23 11:38:58.0     -96     43     15    106    108 294.4   8.0  34270  291.43 0855.16
2009/04/23 11:38:58.1    -150     -2     -5    151    152 269.2  -2.2  34280  291.62 0855.16
2009/04/23 11:38:58.2    -170    -12    -16    171    172 265.7  -5.4  34276  291.54 0855.16
2009/04/23 11:38:58.3    -130    -17     -1    132    133 262.5  -0.7  34272  291.49 0855.16
2009/04/23 11:38:58.4    -114     -2      5    115    116 268.7   2.9  34280  291.60 0855.13
2009/04/23 11:38:58.5     -83    -27     15     88     90 251.6  10.1  34248  291.06 0855.13
2009/04/23 11:38:58.6    -118     35     19    124    126 286.4   8.9  34276  291.54 0855.13
2009/04/23 11:38:58.7    -130     42    -29    137    141 288.2 -11.9  34290  291.77 0855.13
2009/04/23 11:38:58.8    -127     19    -31    129    133 278.8 -13.9  34292  291.83 0855.13
2009/04/23 11:38:58.9    -106     19    -22    108    111 280.6 -11.9  34284  291.67 0855.13
2009/04/23 11:38:59.0    -101     45     -2    111    112 294.4  -1.3  34292  291.81 0855.13
2009/04/23 11:38:59.1    -139     55     19    150    152 291.7   7.5  34282  291.64 0855.13
2009/04/23 11:38:59.2    -133     79     15    155    156 300.7   5.7  34268  291.40 0855.13
2009/04/23 11:38:59.3    -201     47     30    207    210 283.2   8.2  34252  291.15 0855.13
2009/04/23 11:38:59.4    -204     82      9    220    221 292.0   2.5  34242  290.98 0855.13
2009/04/23 11:38:59.5    -221    122    -11    253    254 298.9  -2.6  34222  290.63 0855.13
2009/04/23 11:38:59.6    -171    108     29    203    206 302.2   8.2  34232  290.79 0855.13
2009/04/23 11:38:59.7    -127    101     67    163    176 308.4  23.6  34254  291.16 0855.13
2009/04/23 11:38:59.8    -157    119     57    198    207 307.1  16.0  34252  291.15 0855.13
2009/04/23 11:38:59.9    -172    113     54    207    214 303.3  14.7  34242  290.98 0855.13
2009/04/23 11:39:00.0    -163    191     75    252    264 319.5  16.6  34226  290.70 0855.13
2009/04/23 11:39:00.1    -162    110     20    197    199 304.2   5.9  34236  290.87 0855.13
2009/04/23 11:39:00.2    -108    110     97    155    182 315.5  35.5  34260  291.28 0855.13
2009/04/23 11:39:00.3     -73     35    111     82    138 295.8  60.0  34276  291.54 0855.13
2009/04/23 11:39:00.4    -141     -6     96    142    171 267.4  37.3  34276  291.55 0855.13
2009/04/23 11:39:00.5     -73    -88    148    115    187 219.6  57.9  34280  291.62 0855.13
2009/04/23 11:39:00.6       8    -26    166     28    168 161.7  90.0  34262  291.30 0855.13
2009/04/23 11:39:00.7       1     24    167     25    168   2.7  90.0  34258  291.23 0855.13
2009/04/23 11:39:00.8     133      1    217    134    255  89.2  65.6  34242  290.98 0855.13
2009/04/23 11:39:00.9      54    -91    154    107    187 149.3  62.1  34254  291.18 0855.13
2009/04/23 11:39:01.0     138    -55    154    149    214 111.7  50.7  34248  291.08 0855.13
2009/04/23 11:39:01.1     129    -50    142    139    198 111.3  50.4  34234  290.82 0855.13
2009/04/23 11:39:01.2     101     -4    102    102    144  92.6  50.1  34232  290.81 0855.13
2009/04/23 11:39:01.3     162   -159     63    228    237 134.4  15.6  34240  290.93 0855.13
2009/04/23 11:39:01.4     273   -265     45    381    384 134.1   6.9  34182  289.96 0855.13
2009/04/23 11:39:01.5     268   -260   -129    374    395 134.2 -24.3  34202  290.28 0855.13
2009/04/23 11:39:01.6     354   -154     50    386    390 113.5   7.4  34202  290.30 0855.13
2009/04/23 11:39:01.7     297   -164     17    340    341 118.9   3.0  34192  290.13 0855.13
2009/04/23 11:39:01.8     233   -131     33    268    271 119.3   7.1  34190  290.07 0855.13
2009/04/23 11:39:01.9      39   -229     34    233    236 170.2   8.5  34186  290.00 0855.13
2009/04/23 11:39:02.0      69   -240     92    250    266 164.0  21.0  34192  290.12 0855.13
2009/04/23 11:39:02.1      75   -115     99    138    169 146.6  39.1  34190  290.09 0855.13
2009/04/23 11:39:02.2     -71   -167     27    182    185 203.2   8.5  34194  290.14 0855.13
2009/04/23 11:39:02.3    -135   -160   -157    210    262 220.1 -44.8  34210  290.41 0855.13
2009/04/23 11:39:02.4     -82   -138   -167    161    231 210.7 -55.3  34204  290.33 0855.15
2009/04/23 11:39:02.5     -18   -242    -62    243    251 184.5 -14.5  34192  290.10 0855.15
2009/04/23 11:39:02.6      53   -257    -10    263    264 168.2  -2.2  34204  290.31 0855.15
2009/04/23 11:39:02.7     133   -304    -18    333    334 156.3  -3.1  34210  290.43 0855.15
2009/04/23 11:39:02.8      45   -369    -98    372    385 172.9 -14.8  34214  290.49 0855.15
2009/04/23 11:39:02.9     111   -404    -87    420    430 164.6 -11.8  34208  290.39 0855.15
2009/04/23 11:39:03.0      99   -315   -106    331    347 162.4 -23.0  34210  290.42 0855.15
2009/04/23 11:39:03.1     144   -240    -61    281    288 149.0 -12.4  34220  290.59 0855.15
2009/04/23 11:39:03.2      91   -223    -75    242    253 157.7 -22.5  34222  290.63 0855.15
2009/04/23 11:39:03.3     129   -224    -72    259    268 150.1 -20.2  34228  290.73 0855.15
2009/04/23 11:39:03.4      52   -245    -79    251    264 168.0 -17.5  34244  291.00 0855.15
2009/04/23 11:39:03.5     -28   -348      5    350    351 184.7   0.9  34238  290.88 0855.15
2009/04/23 11:39:03.6     -30   -324    -58    326    332 185.3 -10.1  34240  290.93 0855.15
2009/04/23 11:39:03.7     -93   -393    -44    405    408 193.4  -6.2  34244  291.01 0855.15
2009/04/23 11:39:03.8     -86   -523     30    531    532 189.3   3.2  34224  290.67 0855.15
2009/04/23 11:39:03.9    -175   -521     28    550    551 198.6   3.0  34224  290.65 0855.15
2009/04/23 11:39:04.0    -114   -448      0    463    464 194.3   0.0  34240  290.94 0855.15
2009/04/23 11:39:04.1    -189   -383    -95    428    439 206.3 -12.6  34238  290.89 0855.15
2009/04/23 11:39:04.2    -131   -466    -18    485    486 195.7  -2.2  34224  290.66 0855.15
2009/04/23 11:39:04.3    -271   -424    -73    504    510 212.6  -8.3  34188  290.05 0855.15
2009/04/23 11:39:04.4    -349   -387    -20    522    523 222.1  -2.2  34208  290.40 0855.16
2009/04/23 11:39:04.5    -314   -494    -75    586    591 212.4  -7.3  34212  290.44 0855.16
2009/04/23 11:39:04.6    -258   -483   -136    548    565 208.1 -14.0  34182  289.96 0855.16
2009/04/23 11:39:04.7    -220   -400   -138    457    477 208.8 -21.7  34184  289.98 0855.16
2009/04/23 11:39:04.8    -330   -285   -167    437    467 229.2 -26.4  34198  290.22 0855.16
2009/04/23 11:39:04.9    -250   -238    -58    346    351 226.5  -9.6  34208  290.40 0855.16
2009/04/23 11:39:05.0    -307   -254   -126    399    419 230.3 -17.6  34202  290.29 0855.16
2009/04/23 11:39:05.1    -307   -307    -47    435    438 225.0  -6.3  34220  290.60 0855.16
2009/04/23 11:39:05.2    -263   -202    -93    332    344 232.5 -20.3  34212  290.47 0855.16
2009/04/23 11:39:05.3    -204   -254   -104    326    343 218.8 -17.7  34202  290.27 0855.16
2009/04/23 11:39:05.4    -119   -252    -45    279    283 205.3  -9.3  34194  290.14 0855.16
2009/04/23 11:39:05.5    -106   -302    -67    321    329 199.4 -11.9  34202  290.29 0855.16
2009/04/23 11:39:05.6    -162   -239      5    289    290 214.2   1.0  34218  290.54 0855.16
2009/04/23 11:39:05.7    -191   -230    -93    300    314 219.7 -22.2  34216  290.53 0855.16
2009/04/23 11:39:05.8    -127   -249   -130    280    308 207.2 -31.5  34194  290.15 0855.16
2009/04/23 11:39:05.9    -211    -59   -176    220    281 254.3 -47.1  34202  290.29 0855.16
2009/04/23 11:39:06.0    -244     36    -89    247    262 278.6 -25.1  34216  290.53 0855.16
2009/04/23 11:39:06.1    -193     34    -68    197    209 280.1 -19.1  34226  290.69 0855.16
2009/04/23 11:39:06.2    -216     11     11    217    218 273.0   2.9  34228  290.74 0855.16
2009/04/23 11:39:06.3    -131     16     26    132    135 277.0  11.1  34228  290.74 0855.16
2009/04/23 11:39:06.4    -135     -6     24    136    139 267.4  10.1  34232  290.81 0855.16
2009/04/23 11:39:06.5     -95     10      4     96     97 276.1   2.9  34232  290.81 0855.16
2009/04/23 11:39:06.6     -39    -35    -13     53     55 227.8 -14.5  34234  290.82 0855.16
2009/04/23 11:39:06.7     -19    -58    -47     62     77 198.5 -45.1  34232  290.79 0855.16
2009/04/23 11:39:06.8     -52    -43    -77     68    102 230.5 -58.1  34240  290.92 0855.16
2009/04/23 11:39:06.9     -54      6   -118     55    130 277.0 -77.5  34242  290.96 0855.16
2009/04/23 11:39:07.0    -186    -16    -54    187    194 264.8 -21.0  34236  290.86 0855.16
2009/04/23 11:39:07.1    -287    125   -108    314    332 293.5 -23.9  34226  290.68 0855.16
2009/04/23 11:39:07.2    -245     67   -232    254    344 285.3 -51.5  34220  290.59 0855.16
2009/04/23 11:39:07.3    -227     99   -298    248    387 293.6 -60.7  34224  290.67 0855.16
2009/04/23 11:39:07.4    -173    -57     10    183    184 251.6   3.1  34214  290.48 0855.14
2009/04/23 11:39:07.5    -150    -76     33    169    173 243.0  11.1  34226  290.69 0855.14
2009/04/23 11:39:07.6    -147   -211     83    258    272 215.0  17.9  34232  290.80 0855.14
2009/04/23 11:39:07.7    -142   -233     90    273    288 211.4  18.4  34234  290.83 0855.14
2009/04/23 11:39:07.8    -148   -250    104    291    309 210.7  20.2  34230  290.76 0855.14
2009/04/23 11:39:07.9    -163   -248     33    298    300 213.4   6.5  34238  290.90 0855.14
2009/04/23 11:39:08.0    -199   -169    137    262    295 229.6  29.5  34250  291.10 0855.14
2009/04/23 11:39:08.1    -219   -226     32    316    318 224.1   5.8  34246  291.04 0855.14
2009/04/23 11:39:08.2    -204   -158     16    259    260 232.2   3.6  34232  290.80 0855.14
2009/04/23 11:39:08.3     -38   -225     85    229    244 189.7  21.0  34240  290.93 0855.14
2009/04/23 11:39:08.4     -54   -230     37    237    240 193.4   8.9  34244  290.99 0855.14
2009/04/23 11:39:08.5     -44   -233     43    238    242 190.7  10.3  34226  290.70 0855.14
2009/04/23 11:39:08.6      12   -197     93    198    218 176.4  27.1  34230  290.77 0855.14
2009/04/23 11:39:08.7       7   -209     89    210    228 178.0  24.3  34242  290.98 0855.14
2009/04/23 11:39:08.8      15   -200    112    201    230 175.5  31.4  34242  290.98 0855.14
2009/04/23 11:39:08.9      10   -219    106    220    244 177.3  27.4  34242  290.97 0855.14
2009/04/23 11:39:09.0      67   -245     82    255    268 164.6  17.9  34236  290.87 0855.14
2009/04/23 11:39:09.1     103   -186     91    213    231 151.0  24.6  34234  290.84 0855.14
2009/04/23 11:39:09.2      67   -211    108    222    246 162.2  27.8  34224  290.66 0855.14
2009/04/23 11:39:09.3      94   -253    140    271    305 159.5  29.3  34210  290.42 0855.14
2009/04/23 11:39:09.4       6   -320    206    321    381 178.9  35.6  34208  290.37 0855.15
2009/04/23 11:39:09.5     -45   -334    167    337    376 187.7  28.4  34202  290.30 0855.15
2009/04/23 11:39:09.6     -37   -321     84    324    335 186.7  14.7  34206  290.35 0855.15
2009/04/23 11:39:09.7     -82   -271     76    284    295 197.0  15.0  34208  290.37 0855.15
2009/04/23 11:39:09.8     -75   -235    -32    247    250 197.8  -7.5  34200  290.26 0855.15
2009/04/23 11:39:09.9     -22   -221     10    223    224 185.8   2.8  34204  290.31 0855.15
2009/04/23 11:39:10.0     -22   -187     51    189    196 186.9  15.3  34204  290.33 0855.15
2009/04/23 11:39:10.1     -48   -260     95    265    281 190.5  20.4  34210  290.42 0855.15
2009/04/23 11:39:10.2     -49   -349    185    353    398 188.0  30.0  34212  290.47 0855.15
2009/04/23 11:39:10.3     -67   -339     36    346    348 191.3   6.1  34208  290.37 0855.15
2009/04/23 11:39:10.4     -79   -322     58    332    338 193.8  10.0  34208  290.40 0855.15
2009/04/23 11:39:10.5     -58   -355    102    360    375 189.4  15.8  34208  290.38 0855.15
2009/04/23 11:39:10.6    -103   -346    134    362    386 196.6  21.1  34210  290.43 0855.15
2009/04/23 11:39:10.7    -113   -373    135    391    414 196.9  19.1  34212  290.46 0855.15
2009/04/23 11:39:10.8    -124   -381     34    401    403 198.1   4.9  34212  290.46 0855.15
2009/04/23 11:39:10.9    -132   -418     24    439    440 197.5   3.1  34212  290.46 0855.15
2009/04/23 11:39:11.0    -166   -326    -46    366    369 207.0  -7.2  34208  290.38 0855.15
2009/04/23 11:39:11.1    -116   -294     37    317    320 201.6   6.7  34214  290.48 0855.15
2009/04/23 11:39:11.2     -87   -400     61    410    415 192.4   8.5  34212  290.46 0855.15
2009/04/23 11:39:11.3     -49   -388    127    392    413 187.2  18.0  34206  290.36 0855.15
2009/04/23 11:39:11.4      -3   -410     26    411    412 180.5   3.6  34204  290.33 0855.17
2009/04/23 11:39:11.5      -1   -403    -31    404    406 180.2  -4.4  34222  290.61 0855.17
2009/04/23 11:39:11.6     -58   -412     50    417    421 188.1   6.9  34230  290.75 0855.17
2009/04/23 11:39:11.7    -111   -355      5    373    374 197.4   0.9  34222  290.64 0855.17
2009/04/23 11:39:11.8    -200   -301    -83    362    372 213.7 -12.9  34208  290.37 0855.17
2009/04/23 11:39:11.9    -245    -60   -172    253    305 256.1 -41.8  34214  290.49 0855.17
2009/04/23 11:39:12.0    -258    -11   -203    259    329 267.4 -46.6  34200  290.26 0855.17
2009/04/23 11:39:12.1    -150    124   -187    195    270 309.6 -53.4  34218  290.54 0855.17
2009/04/23 11:39:12.2     -15     26    -73     31     79 329.3 -80.5  34212  290.47 0855.17
2009/04/23 11:39:12.3      76    -92    -57    120    132 140.4 -31.5  34214  290.50 0855.17
2009/04/23 11:39:12.4      34   -116    -40    121    127 163.5 -23.8  34204  290.31 0855.17
2009/04/23 11:39:12.5      76   -181     20    197    199 157.3   5.9  34206  290.36 0855.17
2009/04/23 11:39:12.6     -18   -243     83    244    258 184.4  18.9  34200  290.26 0855.17
2009/04/23 11:39:12.7     -50   -162     -5    170    171 197.2  -1.8  34206  290.36 0855.17
2009/04/23 11:39:12.8    -126   -199    -33    236    239 212.5  -8.0  34200  290.26 0855.17
2009/04/23 11:39:12.9       6   -159    -64    160    172 177.8 -27.2  34208  290.40 0855.17
2009/04/23 11:39:13.0     -73   -397     26    404    405 190.5   3.7  34210  290.43 0855.17
2009/04/23 11:39:13.1     -97   -379     70    392    399 194.4  10.1  34208  290.38 0855.17
2009/04/23 11:39:13.2    -126   -377     85    398    408 198.6  12.2  34210  290.41 0855.17
2009/04/23 11:39:13.3    -142   -467     98    489    499 196.9  11.4  34210  290.42 0855.17
2009/04/23 11:39:13.4     -86   -478     89    486    495 190.3  10.4  34206  290.35 0855.18
2009/04/23 11:39:13.5     -74   -522     85    528    535 188.1   9.2  34202  290.28 0855.18
2009/04/23 11:39:13.6     -33   -531     96    533    542 183.6  10.2  34200  290.26 0855.18
2009/04/23 11:39:13.7      52   -567    115    570    582 174.7  11.4  34218  290.56 0855.18
2009/04/23 11:39:13.8      49   -511    110    514    526 174.4  12.2  34228  290.72 0855.18
2009/04/23 11:39:13.9      11   -454    124    455    472 178.5  15.3  34222  290.64 0855.18
2009/04/23 11:39:14.0      -3   -521    178    522    552 180.4  18.9  34204  290.33 0855.18
2009/04/23 11:39:14.1       3   -457    161    458    486 179.5  19.4  34208  290.37 0855.18
2009/04/23 11:39:14.2      70   -539     26    544    545 172.5   2.8  34208  290.40 0855.18
2009/04/23 11:39:14.3      65   -468     91    473    482 172.1  11.0  34210  290.42 0855.18
2009/04/23 11:39:14.4     -79   -390     15    398    399 191.5   2.2  34208  290.38 0855.18
2009/04/23 11:39:14.5     -44   -475    129    478    496 185.3  15.1  34204  290.32 0855.18
2009/04/23 11:39:14.6     -85   -453     69    462    468 190.7   8.6  34206  290.35 0855.18
2009/04/23 11:39:14.7     -24   -485    108    486    499 182.9  12.6  34208  290.37 0855.18
2009/04/23 11:39:14.8      -9   -519    122    520    535 181.0  13.2  34208  290.38 0855.18
2009/04/23 11:39:14.9     -34   -394    222    396    453 185.0  31.6  34208  290.38 0855.18
2009/04/23 11:39:15.0     -81   -472    191    480    516 189.8  23.0  34206  290.35 0855.18
2009/04/23 11:39:15.1     -43   -324    280    327    430 187.7  45.0  34208  290.38 0855.18
2009/04/23 11:39:15.2      -8   -464    171    465    495 181.0  21.1  34208  290.40 0855.18
2009/04/23 11:39:15.3     107   -465     63    478    483 167.0   7.6  34196  290.18 0855.19
2009/04/23 11:39:15.4    -115   -454    176    469    500 194.3  21.5  34202  290.30 0855.19
2009/04/23 11:39:15.5     -92   -350     97    362    375 194.8  15.0  34196  290.18 0855.19
2009/04/23 11:39:15.6    -191   -349    171    399    434 208.7  24.8  34206  290.36 0855.19
2009/04/23 11:39:15.7    -213   -415     90    467    476 207.2  11.0  34202  290.29 0855.19
2009/04/23 11:39:15.8     -75   -332    237    341    415 192.8  38.4  34210  290.43 0855.19
2009/04/23 11:39:15.9    -117   -354    141    373    398 198.3  21.7  34210  290.43 0855.19
2009/04/23 11:39:16.0       0   -236    156    237    283 180.2  36.5  34210  290.42 0855.19
2009/04/23 11:39:16.1      15   -136    109    137    175 173.7  42.7  34214  290.50 0855.19
2009/04/23 11:39:16.2     -51   -183    124    191    227 195.6  35.6  34210  290.41 0855.19
2009/04/23 11:39:16.3     -58   -155    114    166    201 200.7  37.6  34208  290.38 0855.19
2009/04/23 11:39:16.5    -137    -62    108    151    185 245.6  39.1  34214  290.48 0855.19
2009/04/23 11:39:16.5    -137    -27     55    140    150 258.6  23.0  34210  290.43 0855.19
2009/04/23 11:39:16.6       1      0    106      2    106  71.6  90.0  34214  290.48 0855.19
2009/04/23 11:39:16.7    -105   -161    151    193    245 213.0  42.2  34212  290.45 0855.19
2009/04/23 11:39:16.8    -199   -197     14    281    282 225.3   2.9  34210  290.41 0855.19
2009/04/23 11:39:16.9    -178    -94    121    202    235 242.2  33.5  34210  290.43 0855.19
2009/04/23 11:39:17.0     -86    -82      1    120    121 226.4   0.8  34214  290.50 0855.19
2009/04/23 11:39:17.1      -6    -38    104     39    111 189.8  78.6  34226  290.69 0855.19
2009/04/23 11:39:17.2      18    -49    133     53    143 160.0  77.1  34228  290.72 0855.19
2009/04/23 11:39:17.3      26   -189    128    191    229 172.0  37.0  34206  290.36 0855.20
2009/04/23 11:39:17.4       1   -120    151    121    193 179.1  56.9  34210  290.43 0855.20
2009/04/23 11:39:17.5     119   -137    128    182    222 139.0  38.6  34214  290.50 0855.20
2009/04/23 11:39:17.7     170   -148    128    226    259 131.1  32.1  34206  290.36 0855.20
2009/04/23 11:39:17.7     184    -90    198    206    285 116.2  49.0  34214  290.49 0855.20
2009/04/23 11:39:17.8     158    -99    212    187    282 122.2  54.2  34212  290.44 0855.20
2009/04/23 11:39:17.9     153    -57    258    164    305 110.4  64.7  34216  290.53 0855.20
2009/04/23 11:39:18.0     229   -100    233    251    342 113.7  47.8  34210  290.42 0855.20
2009/04/23 11:39:18.2     210   -174    256    273    374 129.6  48.0  34212  290.45 0855.20
2009/04/23 11:39:18.2     310   -175    204    357    411 119.5  32.3  34208  290.40 0855.20
2009/04/23 11:39:18.4     307   -154    121    344    365 116.6  19.5  34204  290.33 0855.20
2009/04/23 11:39:18.5     188     13    241    189    306  85.9  58.2  34192  290.12 0855.20
2009/04/23 11:39:18.5      60     73    214     95    234  39.7  74.8  34208  290.40 0855.20
2009/04/23 11:39:18.7     166     95    314    192    368  60.2  65.7  34194  290.15 0855.20
2009/04/23 11:39:18.8     105     57    311    120    333  61.2  77.8  34210  290.41 0855.20
2009/04/23 11:39:18.9     110     91    324    143    354  50.4  74.9  34210  290.42 0855.20
2009/04/23 11:39:19.0      62    152    248    165    297  22.3  63.4  34216  290.51 0855.20
2009/04/23 11:39:19.1      88     54    268    104    287  58.5  77.8  34206  290.36 0855.20
2009/04/23 11:39:19.2      59     38    222     71    233  57.5  81.2  34212  290.47 0855.20
2009/04/23 11:39:19.3     -77    141    246    161    294 331.1  63.9  34214  290.48 0855.20
2009/04/23 11:39:19.4    -294     59    155    300    337 281.4  29.5  34222  290.61 0855.20
2009/04/23 11:39:19.5    -159    133    189    208    281 309.8  47.0  34222  290.63 0855.20
2009/04/23 11:39:19.6    -126     80     76    150    168 302.4  29.1  34212  290.45 0855.20
2009/04/23 11:39:19.7    -252    123    113    281    302 296.0  23.1  34234  290.82 0855.20
2009/04/23 11:39:19.8    -222     99     56    244    251 294.0  13.1  34238  290.88 0855.20
2009/04/23 11:39:19.9    -174     82      7    193    194 295.2   2.3  34232  290.81 0855.20
2009/04/23 11:39:20.0    -245     77    110    257    279 287.5  24.6  34220  290.58 0855.20
2009/04/23 11:39:20.1      14     89    163     91    186   9.3  68.8  34216  290.53 0855.20
2009/04/23 11:39:20.2     -74    -27     79     79    111 250.0  50.1  34230  290.77 0855.20
2009/04/23 11:39:20.3    -141   -181     81    230    243 217.9  20.0  34252  291.14 0855.20
2009/04/23 11:39:20.4    -154   -187    175    243    299 219.4  39.5  34260  291.27 0855.20
2009/04/23 11:39:20.5    -167   -211    135    270    301 218.3  28.5  34250  291.10 0855.20
2009/04/23 11:39:20.6    -170   -228    103    285    303 216.7  20.9  34230  290.76 0855.20
2009/04/23 11:39:20.7    -141    -91    114    169    203 237.1  37.3  34238  290.89 0855.20
2009/04/23 11:39:20.8    -100   -113    132    151    200 221.5  45.8  34250  291.11 0855.20
2009/04/23 11:39:20.9    -250   -184     90    311    324 233.6  16.1  34248  291.05 0855.20
2009/04/23 11:39:21.0    -225   -247    116    335    355 222.3  19.2  34260  291.27 0855.20
2009/04/23 11:39:21.1    -136   -262    105    296    314 207.4  20.3  34258  291.22 0855.20
2009/04/23 11:39:21.2    -135   -279    108    311    330 205.9  19.2  34248  291.07 0855.20
2009/04/23 11:39:21.3    -172   -271    186    322    371 212.5  32.6  34252  291.15 0855.20
2009/04/23 11:39:21.4    -187   -275    265    333    425 214.3  42.7  34248  291.05 0855.19
2009/04/23 11:39:21.5     -97   -251    256    270    372 201.2  48.2  34248  291.05 0855.19
2009/04/23 11:39:21.6       8    -90    203     91    222 174.7  74.5  34268  291.42 0855.19
2009/04/23 11:39:21.7    -228      3    174    229    287 270.9  41.2  34252  291.14 0855.19
2009/04/23 11:39:21.8    -303   -104    181    321    368 251.0  31.9  34218  290.57 0855.19
2009/04/23 11:39:21.9    -347   -156    183    381    422 245.8  27.3  34218  290.55 0855.19
2009/04/23 11:39:22.0    -323   -171    200    366    417 242.1  31.3  34230  290.76 0855.19
2009/04/23 11:39:22.1    -194   -140    278    240    367 234.0  54.9  34238  290.89 0855.19
2009/04/23 11:39:22.2    -194   -182    265    267    376 226.9  50.0  34232  290.81 0855.19
2009/04/23 11:39:22.3     -68   -111    202    131    240 211.6  64.1  34236  290.86 0855.19
2009/04/23 11:39:22.4    -217    -30    178    220    282 262.0  43.5  34246  291.04 0855.19
2009/04/23 11:39:22.5    -224    -89    238    242    339 248.2  49.8  34240  290.93 0855.19
2009/04/23 11:39:22.6    -175   -126    153    216    264 234.3  38.8  34256  291.21 0855.19
2009/04/23 11:39:22.7    -139   -212    246    254    353 213.4  49.1  34258  291.24 0855.19
2009/04/23 11:39:22.8     -96   -223    277    243    368 203.4  54.3  34262  291.30 0855.19
2009/04/23 11:39:22.9     -47   -215    234    221    321 192.5  51.9  34264  291.33 0855.19
2009/04/23 11:39:23.0     -74   -230    211    242    321 198.0  45.6  34258  291.24 0855.19
2009/04/23 11:39:23.1       4   -194    224    195    296 178.6  54.3  34256  291.21
    -10   -137    229    138    267 184.4  66.2  34260  291.27
    -54     25    134     60    146 295.3  74.0  34246  291.04
    -30      3    106     31    110 276.1  83.3  34242  290.98
    -57    -14     46     59     74 255.8  42.7  34244  290.99 0855.19
2009/04/23 11:39:23.7     110    224    187    250    312  26.3  40.4  34250  291.09 0855.21
2009/04/23 11:39:23.8     376    278    388    468    607  53.5  43.8  34240  290.92 0855.21
2009/04/23 11:39:23.9     274    355    294    449    536  37.7  36.2  34248  291.05 0855.21
2009/04/23 11:39:24.0     256    242    278    353    449  46.7  42.1  34252  291.14 0855.21
2009/04/23 11:39:24.1     336    163    204    374    426  64.1  31.3  34238  290.89 0855.21
2009/04/23 11:39:24.2     357    155    151    390    418  66.5  22.2  34240  290.94 0855.21
2009/04/23 11:39:24.3     307    149    202    342    397  64.1  33.4  34252  291.13 0855.21
2009/04/23 11:39:24.4     404    158     82    434    442  68.6  10.8  34234  290.84 0855.21
2009/04/23 11:39:24.5     400    187     88    442    451  65.0  11.3  34242  290.95 0855.21
2009/04/23 11:39:24.6     402    133    212    424    474  71.6  28.7  34238  290.89 0855.21
2009/04/23 11:39:24.7     393    147    118    420    437  69.4  15.8  34254  291.16 0855.21
2009/04/23 11:39:24.8     329    265     82    423    431  51.2  11.0  34266  291.38 0855.21
2009/04/23 11:39:24.9     286    114    111    309    328  68.2  20.6  34260  291.27 0855.21
2009/04/23 11:39:25.0     307     81     47    318    322  75.2   8.5  34246  291.04 0855.21
2009/04/23 11:39:25.1     384    123     19    404    405  72.2   2.8  34224  290.67 0855.21
2009/04/23 11:39:25.2     337    218     62    402    407  57.0   8.9  34204  290.33 0855.21
2009/04/23 11:39:25.3     293    209     78    361    370  54.5  12.3  34208  290.38 0855.21
2009/04/23 11:39:25.4     315    250     -4    403    404  51.6  -0.6  34202  290.29 0855.21
2009/04/23 11:39:25.5     289    198     93    351    364  55.6  14.9  34208  290.40 0855.21
2009/04/23 11:39:25.6     296    194     48    355    359  56.7   7.8  34210  290.42 0855.21
2009/04/23 11:39:25.7     333    194     87    386    396  59.8  12.8  34242  290.96 0855.21
2009/04/23 11:39:25.8     366    203     29    419    421  60.9   4.0  34226  290.70 0855.21
2009/04/23 11:39:25.9     382    155     23    413    414  67.9   3.3  34216  290.53 0855.21
2009/04/23 11:39:26.0     387    131     38    409    411  71.3   5.3  34218  290.56 0855.21
2009/04/23 11:39:26.1     392    166    132    426    447  67.0  17.3  34304  292.03 0855.21
2009/04/23 11:39:26.2     268    203    155    337    370  52.9  26.5  34292  291.83 0855.21
2009/04/23 11:39:26.3     266    140    194    301    358  62.2  35.7  34304  292.03 0855.21
2009/04/23 11:39:26.4     247    114    172    273    322  65.2  35.3  34318  292.26 0855.21
2009/04/23 11:39:26.5     310     43    221    314    383  82.0  38.6  34332  292.49 0855.21
2009/04/23 11:39:26.6     294     78    200    305    364  75.0  36.3  34322  292.32 0855.21
2009/04/23 11:39:26.7     334     56    178    339    382  80.4  29.8  34288  291.73 0855.21
2009/04/23 11:39:26.8     338     89    131    350    373  75.1  21.5  34278  291.56 0855.21
2009/04/23 11:39:26.9     199     95    129    221    255  64.5  32.9  34294  291.85 0855.21
2009/04/23 11:39:27.0     209    -22    156    211    262  96.2  39.9  34244  291.00 0855.21
2009/04/23 11:39:27.1     235     17    126    236    267  85.7  30.3  34270  291.43 0855.21
2009/04/23 11:39:27.2     287     26    162    289    331  84.8  31.9  34274  291.50 0855.21
2009/04/23 11:39:27.3     286    147    176    322    366  62.7  31.3  34188  290.04 0855.21
2009/04/23 11:39:27.4     329    132    198    355    406  68.1  31.6  34216  290.52 0855.21
2009/04/23 11:39:27.5     329     87    180    341    385  75.2  30.1  34222  290.62 0855.21
2009/04/23 11:39:27.6     286     94    208    302    366  71.8  37.8  34224  290.67 0855.21
2009/04/23 11:39:27.7     266     81    188    279    336  72.9  37.2  34228  290.71 0855.20
2009/04/23 11:39:27.8     182    111    222    214    308  58.5  51.2  34262  291.31 0855.20
2009/04/23 11:39:27.9     135     80    203    158    257  59.3  58.4  34254  291.18 0855.20
2009/04/23 11:39:28.0      -2     10    161     11    161 344.9  90.0  34282  291.64 0855.20
2009/04/23 11:39:28.1     -32    -36    105     49    115 221.4  73.1  34282  291.66 0855.20
2009/04/23 11:39:28.2      11   -161    166    162    231 175.8  50.4  34238  290.91 0855.20
2009/04/23 11:39:28.3      28    -94     92     99    135 163.5  47.9  34234  290.84 0855.20
2009/04/23 11:39:28.4     110    -93    139    145    200 130.4  49.0  34232  290.81 0855.20
2009/04/23 11:39:28.5     111    -75    157    135    207 124.2  54.8  34236  290.86 0855.20
2009/04/23 11:39:28.6     142    -51    123    152    195 110.0  43.3  34234  290.82 0855.20
2009/04/23 11:39:28.7     159    -41     93    165    189 104.6  31.9  34234  290.84 0855.19
2009/04/23 11:39:28.8     188    -60     42    198    203 107.9  12.2  34242  290.96 0855.19
2009/04/23 11:39:28.9     204    -89    -74    223    234 113.7 -23.6  34240  290.92 0855.19
2009/04/23 11:39:29.0     131    -26    -39    134    139 101.4 -21.2  34238  290.91 0855.19
2009/04/23 11:39:29.1     -43    -24    -26     50     56 240.2 -33.7  34242  290.98 0855.19
2009/04/23 11:39:29.2    -102     24    -65    105    123 283.3 -39.9  34240  290.92 0855.19
2009/04/23 11:39:29.3    -215      3    -90    216    234 270.9 -28.2  34246  291.03 0855.19
2009/04/23 11:39:29.4    -223    -65   -114    233    259 253.6 -32.4  34246  291.04 0855.19
2009/04/23 11:39:29.5    -204   -106    -65    231    239 242.5 -20.7  34244  291.00 0855.19
2009/04/23 11:39:29.6    -169   -138    -79    219    232 230.7 -24.8  34192  290.13 0855.19
2009/04/23 11:39:29.7     -55    -55     -3     78     79 225.1  -2.2  34194  290.16 0855.19
2009/04/23 11:39:29.8    -193      3      1    194    195 270.9   0.5  34212  290.45 0855.19
2009/04/23 11:39:29.9    -234     56     60    241    249 283.5  14.2  34250  291.09 0855.19
2009/04/23 11:39:30.0    -290     88    -56    304    310 286.9 -10.5  34230  290.76 0855.19
2009/04/23 11:39:30.1    -378    -39   -108    381    396 264.0 -20.5  34188  290.06 0855.19
2009/04/23 11:39:30.2    -339    -39   -147    342    372 263.3 -29.2  34184  289.98 0855.19
2009/04/23 11:39:30.3    -311    -37   -155    314    350 263.2 -32.4  34180  289.91 0855.19
2009/04/23 11:39:30.4    -204    -67   -130    215    251 251.6 -38.8  34192  290.10 0855.19
2009/04/23 11:39:30.5    -158    -59   -115    169    204 249.4 -42.0  34204  290.31 0855.19
2009/04/23 11:39:30.6     -75    -35   -123     83    148 244.8 -67.1  34220  290.60 0855.19
2009/04/23 11:39:30.7     -65    -37    -94     75    120 240.2 -61.9  34226  290.70 0855.18
2009/04/23 11:39:30.8     -22    -44    -65     50     82 207.2 -62.9  34226  290.69 0855.18
2009/04/23 11:39:30.9     -44   -110      1    119    120 201.8   0.8  34232  290.81 0855.18
2009/04/23 11:39:31.0     -14   -175     88    176    196 184.9  28.5  34232  290.79 0855.18
2009/04/23 11:39:31.1     -13   -161     82    162    181 184.7  28.7  34232  290.81 0855.18
2009/04/23 11:39:31.2     -67   -190     47    202    208 199.4  13.2  34224  290.67 0855.18
2009/04/23 11:39:31.3       4   -177    127    178    218 178.6  39.3  34224  290.67 0855.18
2009/04/23 11:39:31.4      -5   -180     62    181    192 181.6  18.9  34222  290.64 0855.18
2009/04/23 11:39:31.5     -24   -211     40    213    217 186.5  10.8  34224  290.65 0855.18
2009/04/23 11:39:31.6     -76   -220     56    234    241 199.2  13.7  34242  290.97 0855.18
2009/04/23 11:39:31.7    -108   -211     11    238    239 207.1   2.8  34246  291.02 0855.18
2009/04/23 11:39:31.8     -91   -118     52    150    158 217.8  20.0  34248  291.06 0855.18
2009/04/23 11:39:31.9     -97    -54     61    112    127 240.7  31.3  34240  290.92 0855.18
2009/04/23 11:39:32.0     -62    -12     52     64     82 258.5  43.7  34224  290.65 0855.18
2009/04/23 11:39:32.1     -25    -81    -23     85     89 197.4 -15.0  34236  290.86 0855.18
2009/04/23 11:39:32.2     -58     -4     32     59     67 265.7  31.3  34240  290.92 0855.18
2009/04/23 11:39:32.3     -39   -110     44    117    125 199.6  21.0  34252  291.13 0855.18
2009/04/23 11:39:32.4      -9   -214     46    215    220 182.6  12.2  34246  291.03 0855.18
2009/04/23 11:39:32.5     -22   -256     40    258    262 185.1   9.0  34244  290.99 0855.18
2009/04/23 11:39:32.6     -17   -219     49    220    226 184.7  12.6  34242  290.96 0855.18
2009/04/23 11:39:32.7      40   -227    135    231    267 170.0  33.1  34230  290.76 0855.19
2009/04/23 11:39:32.8      38   -241    190    245    310 170.9  41.7  34224  290.65 0855.19
2009/04/23 11:39:32.9       6   -235    197    236    307 178.4  43.8  34216  290.51 0855.19
2009/04/23 11:39:33.0      76   -245    169    257    307 162.6  36.5  34210  290.42 0855.19
2009/04/23 11:39:33.1     144   -164     27    219    221 138.8   7.1  34208  290.38 0855.19
2009/04/23 11:39:33.2     236   -257     -3    350    351 137.5  -0.6  34202  290.30 0855.19
2009/04/23 11:39:33.3     181   -280     34    334    336 147.0   5.9  34202  290.27 0855.19
2009/04/23 11:39:33.4     167   -258     74    308    317 147.0  13.7  34204  290.31 0855.19
2009/04/23 11:39:33.5     138   -232     84    271    284 149.3  17.3  34202  290.27 0855.19
2009/04/23 11:39:33.6     150   -271     37    311    314 151.0   6.9  34198  290.20 0855.19
2009/04/23 11:39:33.7      78   -269    123    281    306 163.9  25.2  34200  290.26 0855.19
2009/04/23 11:39:33.8      32   -360     69    362    369 174.9  10.8  34202  290.28 0855.19
2009/04/23 11:39:33.9     -39   -362    118    365    384 186.3  18.0  34216  290.52 0855.19
2009/04/23 11:39:34.0     -82   -303    117    315    336 195.2  21.4  34228  290.74 0855.19
2009/04/23 11:39:34.1      -4   -312     57    313    319 180.9  10.3  34208  290.39 0855.19
2009/04/23 11:39:34.2      41   -265     60    269    276 171.1  12.6  34212  290.46 0855.19
2009/04/23 11:39:34.3      25   -268     28    270    272 174.7   6.1  34208  290.39 0855.19
2009/04/23 11:39:34.4     -12   -281     54    282    288 182.5  11.0  34214  290.48 0855.19
2009/04/23 11:39:34.5      36   -241      7    244    245 171.3   1.8  34200  290.26 0855.19
2009/04/23 11:39:34.6      64   -305     84    312    324 168.0  15.1  34196  290.17 0855.19
2009/04/23 11:39:34.7       2   -291     41    292    295 179.5   8.0  34196  290.19 0855.18
2009/04/23 11:39:34.8       8   -276     63    277    285 178.2  12.9  34200  290.26 0855.18
2009/04/23 11:39:34.9      86   -298     79    311    321 163.9  14.3  34198  290.20 0855.18
2009/04/23 11:39:35.0      67   -303    128    311    336 167.5  23.6  34196  290.17 0855.18
2009/04/23 11:39:35.1      80   -232    159    246    292 160.9  35.6  34196  290.19 0855.18
2009/04/23 11:39:35.2      76   -254    195    266    329 163.3  39.9  34198  290.20 0855.18
2009/04/23 11:39:35.3     121   -261    238    288    373 155.1  43.8  34206  290.35 0855.18
2009/04/23 11:39:35.5     103   -344    272    360    451 163.4  40.8  34204  290.31 0855.18
2009/04/23 11:39:35.5     105   -306    189    324    375 160.9  32.9  34202  290.27 0855.18
2009/04/23 11:39:35.6     111   -334    197    353    404 161.6  31.6  34182  289.94 0855.18
2009/04/23 11:39:35.7      89   -409    208    419    467 167.6  28.2  34176  289.85 0855.18
2009/04/23 11:39:35.8     103   -383    201    397    444 164.9  29.1  34186  290.02 0855.18
2009/04/23 11:39:35.9      73   -407    265    414    491 169.8  35.6  34188  290.03 0855.18
2009/04/23 11:39:36.0      70   -352    252    360    439 168.7  38.5  34192  290.11 0855.18
2009/04/23 11:39:36.1      90   -285    137    299    328 162.4  26.4  34192  290.10 0855.18
2009/04/23 11:39:36.2      93   -329    107    343    360 164.1  17.3  34184  289.99 0855.18
2009/04/23 11:39:36.3     108   -269    159    291    331 158.1  31.3  34192  290.10 0855.18
2009/04/23 11:39:36.4     126   -311    132    336    361 157.8  22.7  34210  290.43 0855.18
2009/04/23 11:39:36.5     166   -224    118    279    302 143.5  24.2  34206  290.34 0855.18
2009/04/23 11:39:36.6     139   -112     69    179    191 128.9  22.3  34204  290.33 0855.18
2009/04/23 11:39:36.7     136   -136     74    193    206 135.1  22.0  34196  290.19 0855.20
2009/04/23 11:39:36.8      42   -187     46    192    198 167.3  13.7  34190  290.08 0855.20
2009/04/23 11:39:36.9     -47   -199    121    205    238 193.3  33.4  34182  289.96 0855.20
2009/04/23 11:39:37.0     -25   -251    190    253    316 185.8  40.7  34196  290.19 0855.20
2009/04/23 11:39:37.1      -3   -182    197    183    268 181.1  52.2  34204  290.32 0855.20
2009/04/23 11:39:37.2    -210    -99     63    233    242 244.8  15.3  34200  290.24 0855.20
2009/04/23 11:39:37.3    -283   -168     34    330    332 239.3   5.9  34204  290.33 0855.20
2009/04/23 11:39:37.4    -312   -153    113    348    366 243.9  18.0  34202  290.30 0855.20
2009/04/23 11:39:37.5    -178    -23    -91    180    201 262.5 -33.5  34190  290.08 0855.20
2009/04/23 11:39:37.6    -206     97     80    228    241 295.2  20.0  34194  290.14 0855.20
2009/04/23 11:39:37.7    -164     86    -52    186    194 297.8 -15.8  34196  290.19 0855.20
2009/04/23 11:39:37.8    -167    106     27    198    200 302.4   7.8  34212  290.47 0855.20
2009/04/23 11:39:37.9    -111    104     36    153    158 313.1  13.2  34204  290.33 0855.20
2009/04/23 11:39:38.0     -27     64     54     70     88 337.3  42.2  34202  290.30 0855.20
2009/04/23 11:39:38.1     -11    -68     96     70    118 189.8  60.5  34212  290.45 0855.20
2009/04/23 11:39:38.2     -30     -9     85     32     90 251.8  78.6  34216  290.52 0855.20
2009/04/23 11:39:38.3     -58     39     52     71     88 304.2  39.7  34218  290.57 0855.20
2009/04/23 11:39:38.4      -5     73    102     74    126 355.6  60.5  34214  290.48 0855.20
2009/04/23 11:39:38.5     115    124    110    170    202  43.0  35.7  34194  290.14 0855.20
2009/04/23 11:39:38.6     161     43    104    167    196  74.9  35.0  34188  290.04 0855.20
2009/04/23 11:39:38.7     187     71    118    201    233  69.2  33.4  34186  290.01 0855.21
2009/04/23 11:39:38.8     156     36    216    161    269  76.7  59.8  34194  290.14 0855.21
2009/04/23 11:39:38.9      83     84    141    119    184  44.5  55.6  34196  290.18 0855.21
2009/04/23 11:39:39.0      59     67    150     90    174  41.0  66.0  34206  290.36 0855.21
2009/04/23 11:39:39.1      45     45    131     64    145  45.0  72.8  34196  290.19 0855.21
2009/04/23 11:39:39.2      -7     84     99     85    130 354.7  54.8  34208  290.38 0855.21
2009/04/23 11:39:39.3      17     54     86     57    103  17.8  63.6  34208  290.38 0855.21
2009/04/23 11:39:39.4      -1     31     73     32     79 357.3  75.5  34210  290.41 0855.21
2009/04/23 11:39:39.5     -86    -74    123    114    167 229.1  52.5  34196  290.18 0855.21
2009/04/23 11:39:39.6    -106    -65    125    125    176 238.5  50.1  34202  290.28 0855.21
2009/04/23 11:39:39.7     -43   -145    123    152    195 196.5  43.3  34196  290.18 0855.21
2009/04/23 11:39:39.8     -96     15    131     98    163 278.8  59.8  34194  290.14 0855.21
2009/04/23 11:39:39.9    -187     72     30    201    204 291.3   8.5  34202  290.30 0855.21
2009/04/23 11:39:40.0    -339      3     49    340    344 270.6   8.3  34218  290.55 0855.21
2009/04/23 11:39:40.1    -229     35     98    232    251 278.8  24.2  34204  290.31 0855.21
2009/04/23 11:39:40.2    -254     26     98    256    274 275.9  22.0  34204  290.32 0855.21
2009/04/23 11:39:40.3    -304     71    125    313    337 283.3  23.0  34200  290.25 0855.21
2009/04/23 11:39:40.4    -322    -73    178    331    375 257.1  30.7  34202  290.27 0855.21
2009/04/23 11:39:40.5    -290    -49    128    295    321 260.4  24.9  34200  290.26 0855.21
2009/04/23 11:39:40.6     -43    -64     55     78     95 214.3  38.0  34208  290.40 0855.21
2009/04/23 11:39:40.7     -20     35      5     41     42 330.1   6.9  34206  290.35 0855.21
2009/04/23 11:39:40.8    -177     90    158    199    254 297.1  42.7  34208  290.37 0855.21
2009/04/23 11:39:40.9    -215     56     72    223    235 284.6  17.9  34210  290.41 0855.21
2009/04/23 11:39:41.0     -53    -48     70     72    100 227.8  49.4  34218  290.55 0855.21
2009/04/23 11:39:41.1      17   -228     49    229    235 175.6  12.1  34202  290.27 0855.21
2009/04/23 11:39:41.2       3   -287     56    288    294 179.3  11.1  34200  290.26 0855.21
2009/04/23 11:39:41.3      52   -305    113    310    329 170.2  20.7  34198  290.20 0855.21
2009/04/23 11:39:41.4      40   -365     97    368    381 173.7  14.9  34202  290.27 0855.21
2009/04/23 11:39:41.5      42   -358     50    361    365 173.3   8.0  34192  290.13 0855.21
2009/04/23 11:39:41.6      53   -312     82    317    328 170.3  14.6  34186  290.02 0855.21
2009/04/23 11:39:41.7     -14   -307    109    308    327 182.7  19.6  34190  290.07 0855.21
2009/04/23 11:39:41.8     -19   -291    165    292    335 183.8  31.9  34188  290.05 0855.21
2009/04/23 11:39:41.9     -38   -273    147    276    312 188.0  30.5  34188  290.05 0855.21
2009/04/23 11:39:42.0     -60   -487    170    491    520 187.1  19.2  34190  290.08 0855.21
2009/04/23 11:39:42.1     -39   -509     60    511    515 184.4   6.8  34192  290.13 0855.21
2009/04/23 11:39:42.2      37   -479     80    481    488 175.5   9.5  34188  290.06 0855.21
2009/04/23 11:39:42.3      50   -455    159    458    486 173.7  19.2  34186  290.00 0855.21
2009/04/23 11:39:42.4      71   -398    173    405    440 169.9  24.8  34188  290.04 0855.21
2009/04/23 11:39:42.5     140   -487     94    507    516 164.0  10.6  34184  289.98 0855.21
2009/04/23 11:39:42.6      14   -364    235    365    434 177.8  35.7  34184  289.97 0855.21
2009/04/23 11:39:42.7     -37   -403    221    405    461 185.3  31.3  34186  290.00 0855.19
2009/04/23 11:39:42.8      67   -341    235    348    419 168.9  37.3  34188  290.06 0855.19
2009/04/23 11:39:42.9      20   -654    327    655    732 178.2  28.5  34182  289.93 0855.19
2009/04/23 11:39:43.0    -174   -650    317    673    743 195.1  27.1  34202  290.28 0855.19
2009/04/23 11:39:43.1    -176   -487    -87    519    527 199.9  -9.6  34182  289.96 0855.19
2009/04/23 11:39:43.2    -157   -459   -141    486    507 199.0 -16.2  34182  289.95 0855.19
2009/04/23 11:39:43.3    -236   -508    -39    561    563 204.9  -4.0  34200  290.24 0855.19
2009/04/23 11:39:43.4    -104   -403    -45    417    420 194.5  -6.2  34206  290.36 0855.19
2009/04/23 11:39:43.5    -156   -521    -29    544    545 196.7  -3.1  34202  290.28 0855.19
2009/04/23 11:39:43.6     -13   -561     99    562    571 181.4  10.0  34198  290.21 0855.19
2009/04/23 11:39:43.7     191   -584    -13    615    616 161.9  -1.3  34186  290.01 0855.19
2009/04/23 11:39:43.8     157   -506    -63    530    534 162.7  -6.8  34184  289.99 0855.19
2009/04/23 11:39:43.9     163   -401     17    434    435 157.8   2.3  34186  290.00 0855.19
2009/04/23 11:39:44.0      82   -237    127    251    281 160.8  29.2  34182  289.95 0855.19
2009/04/23 11:39:44.1    -131   -227    222    263    344 209.9  44.3  34184  289.97 0855.19
2009/04/23 11:39:44.2    -206   -321    290    382    479 212.8  41.2  34174  289.80 0855.19
2009/04/23 11:39:44.3    -403   -235    156    467    493 239.8  18.5  34192  290.10 0855.19
2009/04/23 11:39:44.5    -170    -43    115    176    210 255.6  36.0  34196  290.18 0855.19
2009/04/23 11:39:44.5     -56    -63    142     85    165 221.9  66.2  34192  290.13 0855.19
2009/04/23 11:39:44.6     -41   -188    115    193    224 192.5  33.7  34196  290.18 0855.19
2009/04/23 11:39:44.7     -42     67    -92     80    121 327.5 -58.7  34192  290.13 0855.15
2009/04/23 11:39:44.8     146     89   -127    172    213  58.5 -44.3  34196  290.19 0855.15
2009/04/23 11:39:45.0     113     -7    -22    114    117  93.9 -11.3  34198  290.21 0855.15
2009/04/23 11:39:45.1     209     32     76    212    226  81.2  19.9  34194  290.16 0855.15
2009/04/23 11:39:45.2      33   -137    145    142    202 166.2  50.4  34196  290.18 0855.15
2009/04/23 11:39:45.3     351   -212    137    411    434 121.1  18.4  34194  290.16 0855.15
2009/04/23 11:39:45.4     296   -234    233    378    444 128.3  34.6  34192  290.11 0855.15
2009/04/23 11:39:45.5     152   -144    233    210    313 133.3  53.4  34194  290.14 0855.15
2009/04/23 11:39:45.6      92   -209    194    229    300 156.2  44.5  34192  290.10 0855.15
2009/04/23 11:39:45.7       0   -307    206    308    370 180.0  36.9  34192  290.11 0855.15
2009/04/23 11:39:45.8      14   -307    182    308    357 177.3  33.4  34194  290.15 0855.15
2009/04/23 11:39:45.9     -95   -434    174    445    477 192.4  22.4  34198  290.20 0855.15
2009/04/23 11:39:46.0    -171   -344      3    385    386 206.5   0.5  34194  290.15 0855.15
2009/04/23 11:39:46.1     -55   -295    123    301    325 190.7  23.6  34192  290.12 0855.15
2009/04/23 11:39:46.2    -182   -360    187    404    445 206.8  26.6  34190  290.07 0855.15
2009/04/23 11:39:46.3     -85   -256    247    270    365 198.5  47.1  34184  289.99 0855.15
2009/04/23 11:39:46.4       0   -230    196    231    302 180.2  44.3  34192  290.10 0855.15
2009/04/23 11:39:46.5     -68   -237    159    247    293 196.0  35.6  34196  290.17 0855.15
2009/04/23 11:39:46.6    -109   -340    163    358    393 197.8  26.2  34196  290.18 0855.15
2009/04/23 11:39:46.7    -104   -349    126    365    387 196.6  19.1  34196  290.18 0855.15
2009/04/23 11:39:46.8     -16   -292    188    293    348 183.1  35.6  34182  289.96 0855.16
2009/04/23 11:39:46.9    -191   -315    182    369    411 211.2  28.2  34194  290.15 0855.16
2009/04/23 11:39:47.0    -231   -217    124    317    340 226.8  22.4  34194  290.16 0855.16
2009/04/23 11:39:47.1    -302   -116    149    324    356 248.9  26.3  34202  290.28 0855.16
2009/04/23 11:39:47.2    -286     56    194    292    350 281.2  36.6  34208  290.38 0855.16
2009/04/23 11:39:47.3    -284     94    157    300    338 288.4  29.8  34212  290.46 0855.16
2009/04/23 11:39:47.4    -261     36    222    264    344 277.9  44.3  34202  290.29 0855.16
2009/04/23 11:39:47.5    -244    144    205    284    350 300.7  39.3  34214  290.49 0855.16
2009/04/23 11:39:47.6    -251    196    185    319    368 308.0  33.0  34208  290.37 0855.16
2009/04/23 11:39:47.7    -170    243    195    297    355 324.9  36.5  34210  290.43 0855.16
2009/04/23 11:39:47.8    -243    159    220    291    364 303.3  40.9  34208  290.38 0855.16
2009/04/23 11:39:47.9      23    354    243    355    430   3.7  37.6  34210  290.41 0855.16
2009/04/23 11:39:48.0     182    366    250    409    479  26.5  34.4  34200  290.26 0855.16
2009/04/23 11:39:48.1     -45    321    239    325    403 352.0  40.0  34206  290.35 0855.16
2009/04/23 11:39:48.2    -143    257    208    295    360 331.0  38.6  34218  290.55 0855.16
2009/04/23 11:39:48.3    -152     83     85    174    193 298.6  27.8  34214  290.48 0855.16
2009/04/23 11:39:48.4    -299   -262     78    398    406 228.8  11.1  34220  290.60 0855.16
2009/04/23 11:39:48.5     175   -310    139    357    383 150.6  22.5  34198  290.23 0855.16
2009/04/23 11:39:48.6     150   -293    133    330    355 152.9  23.1  34202  290.28 0855.16
2009/04/23 11:39:48.7     112     32    225    117    253  74.1  70.6  34206  290.35 0855.16
2009/04/23 11:39:48.8     324    -69    145    332    362 102.1  25.1  34198  290.20 0855.15
2009/04/23 11:39:48.9     429     35    164    431    461  85.3  21.8  34198  290.21 0855.15
2009/04/23 11:39:49.0     360    -17    308    361    474  92.8  44.9  34206  290.34 0855.15
2009/04/23 11:39:49.1     439     -6    358    440    567  90.9  43.4  34202  290.30 0855.15
2009/04/23 11:39:49.2     276    -90    261    291    390 108.2  46.6  34198  290.23 0855.15
2009/04/23 11:39:49.3     151    -71    222    167    277 115.2  59.4  34208  290.39 0855.15
2009/04/23 11:39:49.4     260    -52    154    266    307 101.4  32.7  34200  290.26 0855.15
2009/04/23 11:39:49.5     144   -119    157    187    244 129.6  44.3  34210  290.41 0855.15
2009/04/23 11:39:49.6     116   -304    166    326    365 159.1  29.2  34198  290.20 0855.15
2009/04/23 11:39:49.7     221   -541     44    585    587 157.8   4.3  34194  290.15 0855.15
2009/04/23 11:39:49.8     325   -518    138    612    628 147.9  12.8  34190  290.09 0855.15
2009/04/23 11:39:49.9     413   -466    161    623    644 138.5  14.5  34192  290.13 0855.15
2009/04/23 11:39:50.0     280   -386    103    477    489 144.0  12.3  34202  290.29 0855.15
2009/04/23 11:39:50.1     158   -458    117    485    499 160.9  13.6  34202  290.27 0855.15
2009/04/23 11:39:50.2      91   -414     65    425    430 167.5   8.8  34206  290.34 0855.15
2009/04/23 11:39:50.3      24   -315    152    317    351 175.5  27.4  34208  290.40 0855.15
2009/04/23 11:39:50.4     -96   -285    287    301    415 198.7  48.6  34210  290.42 0855.15
2009/04/23 11:39:50.5    -142   -272    206    308    370 207.6  36.9  34218  290.57 0855.15
2009/04/23 11:39:50.6     -70   -322    203    330    387 192.3  34.6  34214  290.50 0855.15
2009/04/23 11:39:50.7    -190   -287    -13    345    346 213.5  -2.2  34210  290.42 0855.15
2009/04/23 11:39:50.8    -352   -194    -64    403    409 241.1  -9.1  34208  290.39 0855.15
2009/04/23 11:39:50.9    -395   -132    -52    417    421 251.5  -7.2  34218  290.56 0855.15
2009/04/23 11:39:51.0    -361   -237   -120    432    449 236.7 -15.5  34208  290.38 0855.15
2009/04/23 11:39:51.1    -421   -370     48    561    564 228.7   5.0  34198  290.23 0855.15
2009/04/23 11:39:51.2    -366   -403     26    545    546 222.3   2.8  34212  290.45 0855.15
2009/04/23 11:39:51.3    -317   -315    -17    448    449 225.2  -2.2  34216  290.51 0855.15
2009/04/23 11:39:51.4    -274   -232    153    360    391 229.7  24.3  34214  290.50 0855.15
2009/04/23 11:39:51.5    -172   -167     -5    240    241 225.8  -1.3  34208  290.37 0855.15
2009/04/23 11:39:51.6      44   -313      9    317    318 171.9   1.8  34216  290.51 0855.15
2009/04/23 11:39:51.7    -162   -152    191    223    293 226.9  44.9  34230  290.75 0855.15
2009/04/23 11:39:51.8     -95    -79    199    124    234 230.4  64.7  34240  290.94 0855.16
2009/04/23 11:39:51.9     -73     37     50     82     96 297.1  35.0  34224  290.67 0855.16
2009/04/23 11:39:52.0      83    -38     10     92     93 114.8   6.5  34228  290.74 0855.16
2009/04/23 11:39:52.1      87    -87     22    124    126 135.0  10.1  34218  290.55 0855.16
2009/04/23 11:39:52.2      90    -30    100     95    137 108.6  52.1  34220  290.58 0855.16
2009/04/23 11:39:52.3     115    -31    117    120    167 105.0  49.4  34214  290.48 0855.16
2009/04/23 11:39:52.4     263     25     93    265    281  84.5  19.4  34212  290.44 0855.16
2009/04/23 11:39:52.5     145     63    178    159    238  66.5  53.5  34220  290.58 0855.16
2009/04/23 11:39:52.6     139     10    155    140    208  85.6  53.3  34220  290.60 0855.16
2009/04/23 11:39:52.7     207     44    206    212    295  77.8  49.2  34218  290.54 0855.16
2009/04/23 11:39:52.8     299     18    148    300    334  86.5  28.1  34216  290.51 0855.16
2009/04/23 11:39:52.9     271     82    168    284    329  73.2  33.6  34216  290.53 0855.16
2009/04/23 11:39:53.0     197     26    119    199    231  82.3  34.0  34218  290.57 0855.16
2009/04/23 11:39:53.1     200    -31    104    203    228  98.8  29.2  34224  290.67 0855.16
2009/04/23 11:39:53.2     155     11    193    156    248  85.6  56.9  34220  290.58 0855.16
2009/04/23 11:39:53.3     134     85     84    160    180  57.5  30.1  34214  290.48 0855.16
2009/04/23 11:39:53.4     143    105    -49    178    185  53.8 -15.5  34228  290.72 0855.16
2009/04/23 11:39:53.5     124     77     50    147    156  58.0  18.9  34246  291.03 0855.16
2009/04/23 11:39:53.6     136    115     71    179    192  49.8  22.8  34284  291.69 0855.16
2009/04/23 11:39:53.7      61     30     37     69     78  63.8  30.3  34266  291.38 0855.16
2009/04/23 11:39:53.8      -9    -35     62     37     72 195.1  65.7  34268  291.42 0855.16
2009/04/23 11:39:53.9     -56    -44    114     72    134 231.4  64.7  34266  291.37 0855.16
2009/04/23 11:39:54.0     -27   -117    142    121    186 192.9  55.6  34216  290.53 0855.16
2009/04/23 11:39:54.1     -69   -193    134    206    245 199.8  36.0  34202  290.27 0855.16
2009/04/23 11:39:54.2    -141   -300    104    332    348 205.3  17.4  34214  290.49 0855.16
2009/04/23 11:39:54.3    -160   -249     56    297    303 212.7  10.8  34218  290.56 0855.16
2009/04/23 11:39:54.4     -70   -170    164    185    247 202.5  46.2  34206  290.35 0855.16
2009/04/23 11:39:54.5     -16   -150    256    151    297 186.2  66.8  34212  290.44 0855.16
2009/04/23 11:39:54.6       8   -126    189    127    227 176.0  62.8  34206  290.36 0855.16
2009/04/23 11:39:54.7     -17    -82    100     84    130 192.0  56.3  34206  290.36 0855.16
2009/04/23 11:39:54.8      -7   -166    164    167    234 182.7  49.9  34206  290.35 0855.16
2009/04/23 11:39:54.9      86    -39    127     95    158 114.8  59.4  34214  290.50 0855.16
2009/04/23 11:39:55.0      50   -122    138    132    190 157.7  51.4  34208  290.38 0855.16
2009/04/23 11:39:55.1       7   -134    183    135    227 176.9  60.3  34210  290.43 0855.16
2009/04/23 11:39:55.2      14   -100    158    102    188 171.9  64.6  34214  290.50 0855.16
2009/04/23 11:39:55.3      19   -137     72    139    156 172.0  29.3  34212  290.47 0855.16
2009/04/23 11:39:55.4     -70   -101    -30    123    127 214.7 -13.9  34208  290.40 0855.16
2009/04/23 11:39:55.5     -90   -102     76    137    156 221.4  31.6  34216  290.52 0855.16
2009/04/23 11:39:55.6    -158      0     62    159    170 270.0  22.3  34230  290.77 0855.16
2009/04/23 11:39:55.7    -114    -84      1    142    143 233.6   0.7  34228  290.74 0855.16
2009/04/23 11:39:55.8     -49    -37     93     62    111 233.1  63.6  34234  290.82 0855.17
2009/04/23 11:39:55.9     -12    -37     46     40     60 198.3  54.3  34230  290.75 0855.17
2009/04/23 11:39:56.0      15    -19     65     25     69 140.4  78.2  34230  290.75 0855.17
2009/04/23 11:39:56.1      36     20     36     42     55  61.1  44.8  34226  290.70 0855.17
2009/04/23 11:39:56.2      49     -2     27     50     56  92.6  30.3  34226  290.69 0855.17
2009/04/23 11:39:56.3      22    -22     36     32     48 135.0  52.2  34230  290.75 0855.17
2009/04/23 11:39:56.4      24    -23     30     34     45 133.3  46.9  34228  290.72 0855.17
2009/04/23 11:39:56.5      59      0     30     60     67  90.0  28.2  34228  290.74 0855.17
2009/04/23 11:39:56.6      83     22     55     86    102  74.9  35.5  34226  290.69 0855.17
2009/04/23 11:39:56.7     133     29     53    137    146  77.6  22.0  34224  290.67 0855.17
2009/04/23 11:39:56.8     159     12     55    160    170  85.6  18.9  34226  290.69 0855.17
2009/04/23 11:39:56.9     104     37    115    111    159  70.5  50.9  34228  290.72 0855.17
2009/04/23 11:39:57.0      10    -22     82     25     85 156.4  82.8  34246  291.04 0855.17
2009/04/23 11:39:57.1      10    -42     82     44     93 166.6  69.8  34250  291.11 0855.17
2009/04/23 11:39:57.2     -43    -91    123    101    159 205.4  56.4  34224  290.65 0855.17
2009/04/23 11:39:57.3     -30    -91     99     97    138 198.5  50.2  34220  290.60 0855.17
2009/04/23 11:39:57.4      -7    -71     84     72    110 186.2  55.4  34210  290.41 0855.17
2009/04/23 11:39:57.5     -12    -45     88     47     99 196.0  69.3  34216  290.52 0855.17
2009/04/23 11:39:57.6      15     -7     56     17     58 115.3  80.7  34220  290.60 0855.17
2009/04/23 11:39:57.7     -28    -70     68     76    101 201.8  46.9  34214  290.50 0855.17
2009/04/23 11:39:57.8     -60    -33      8     69     70 241.2   7.1  34220  290.58 0855.18
2009/04/23 11:39:57.9     -72    -25     29     77     82 250.9  21.5  34220  290.60 0855.18
2009/04/23 11:39:58.0     -41    -14     -8     44     45 251.4 -11.3  34220  290.58 0855.18
2009/04/23 11:39:58.1     -43     11    -16     45     48 285.1 -19.7  34222  290.62 0855.18
2009/04/23 11:39:58.2     -40     21     -7     46     47 298.0  -9.3  34222  290.62 0855.18
2009/04/23 11:39:58.3     -34     37     18     51     55 317.7  19.4  34220  290.60 0855.18
2009/04/23 11:39:58.4     -32     68     24     76     80 334.7  17.9  34224  290.65 0855.18
2009/04/23 11:39:58.5     -37    152    -13    157    158 346.2  -4.9  34220  290.58 0855.18
2009/04/23 11:39:58.6     -77     70    -55    105    118 312.2 -34.2  34218  290.55 0855.18
2009/04/23 11:39:58.7     -21    136    -27    138    141 351.1 -11.3  34224  290.67 0855.18
2009/04/23 11:39:58.8     -70    150     11    166    167 334.8   3.8  34230  290.77 0855.18
2009/04/23 11:39:58.9      22    185    -32    187    190   6.9  -9.8  34244  291.01 0855.18
2009/04/23 11:39:59.0      23    127     38    130    136  10.2  16.3  34232  290.81 0855.18
2009/04/23 11:39:59.1     -19    113     90    115    146 350.2  41.7  34236  290.86 0855.18
2009/04/23 11:39:59.2     -57    131    121    144    188 336.4  44.1  34242  290.98 0855.18
2009/04/23 11:39:59.3     -44    114    123    123    173 338.6  50.1  34248  291.08 0855.18
2009/04/23 11:39:59.4     -19     72    104     75    128 344.9  60.6  34236  290.86 0855.18
2009/04/23 11:39:59.5      50    117    110    128    168  23.2  45.1  34236  290.87 0855.18
2009/04/23 11:39:59.6     168    217    160    275    318  37.8  32.8  34250  291.09 0855.18
2009/04/23 11:39:59.7     147    167    123    223    254  41.4  31.3  34258  291.24 0855.18
2009/04/23 11:39:59.8     158     75    127    176    217  64.5  39.5  34270  291.45 0855.19
2009/04/23 11:39:59.9      68    172    134    186    229  21.6  39.5  34264  291.33 0855.19
2009/04/23 11:40:00.0       1    199    194    200    278   0.5  49.2  34266  291.36 0855.19
2009/04/23 11:40:00.1     201    115    168    232    286  60.2  39.5  34232  290.80 0855.19
2009/04/23 11:40:00.2     130    221    127    257    286  30.5  28.2  34234  290.83 0855.19
2009/04/23 11:40:00.3      75    174    100    190    214  23.4  30.1  34230  290.77 0855.19
2009/04/23 11:40:00.4      -5     84     96     85    128 356.4  54.2  34234  290.82 0855.19
2009/04/23 11:40:00.5     -24     64     46     69     82 339.1  37.0  34236  290.87 0855.19
2009/04/23 11:40:00.6      15    -32     11     36     38 154.6  17.3  34240  290.92 0855.19
2009/04/23 11:40:00.7       5    -31     43     32     53 170.2  59.4  34248  291.06 0855.19
2009/04/23 11:40:00.8     -99   -128    -12    163    164 217.8  -4.4  34244  291.01 0855.19
2009/04/23 11:40:00.9    -114   -107   -104    157    188 226.9 -40.9  34246  291.03 0855.19
2009/04/23 11:40:01.0    -262    -32     52    265    271 262.9  11.1  34240  290.92 0855.19
2009/04/23 11:40:01.1    -292   -161     80    334    344 241.2  13.5  34248  291.05 0855.19
2009/04/23 11:40:01.2    -244   -160     35    293    296 236.7   6.9  34244  291.00 0855.19
2009/04/23 11:40:01.3     -70   -230    117    241    267 196.9  27.4  34242  290.95 0855.19
2009/04/23 11:40:01.4     -27   -234     96    236    254 186.7  23.4  34234  290.82 0855.19
2009/04/23 11:40:01.5     -51   -199    135    206    246 194.5  36.3  34244  290.99 0855.19
2009/04/23 11:40:01.6       3   -155    135    156    206 178.6  45.4  34242  290.96 0855.19
2009/04/23 11:40:01.7     -49   -309    136    314    342 189.1  25.0  34230  290.77 0855.19
2009/04/23 11:40:01.8     -61   -338    272    344    438 190.2  42.4  34230  290.75 0855.20
2009/04/23 11:40:01.9    -110   -362    160    379    411 196.9  24.2  34254  291.17 0855.20
2009/04/23 11:40:02.0    -112   -390    194    406    449 196.1  27.3  34272  291.46 0855.20
2009/04/23 11:40:02.1    -144   -378    108    405    420 201.0  15.0  34280  291.62 0855.20
2009/04/23 11:40:02.2    -175   -352    121    394    413 206.5  17.1  34290  291.79 0855.20
2009/04/23 11:40:02.3     -99   -357    216    371    429 195.5  32.9  34242  290.97 0855.20
2009/04/23 11:40:02.4    -140   -310    208    341    399 204.3  34.4  34226  290.69 0855.20
2009/04/23 11:40:02.5    -203   -245     89    319    332 219.6  15.6  34264  291.33 0855.20
2009/04/23 11:40:02.6     -78   -206    176    221    282 200.9  42.7  34232  290.80 0855.20
2009/04/23 11:40:02.7    -101   -141    116    174    209 215.8  37.0  34226  290.70 0855.20
2009/04/23 11:40:02.8    -137   -223     88    263    278 211.6  18.6  34234  290.83 0855.20
2009/04/23 11:40:02.9    -167   -326    110    367    384 207.2  16.8  34228  290.72 0855.20
2009/04/23 11:40:03.0    -167   -369    175    406    442 204.4  24.9  34230  290.75 0855.20
2009/04/23 11:40:03.1    -190   -339    161    389    421 209.3  23.8  34236  290.87 0855.20
2009/04/23 11:40:03.2    -243   -281    134    372    395 220.9  20.7  34272  291.49 0855.20
2009/04/23 11:40:03.3    -276   -220     -1    354    355 231.4  -0.3  34250  291.11 0855.20
2009/04/23 11:40:03.4    -389   -206    -80    441    449 242.1 -10.4  34220  290.58 0855.20
2009/04/23 11:40:03.5    -437   -223    -66    491    496 242.9  -7.7  34200  290.25 0855.20
2009/04/23 11:40:03.6    -387   -234    -83    453    461 238.9 -10.5  34188  290.05 0855.20
2009/04/23 11:40:03.7    -305   -251   -117    396    412 230.5 -21.2  34200  290.24 0855.20
2009/04/23 11:40:03.8    -221   -244    -42    330    333 222.1  -7.3  34208  290.40 0855.21
2009/04/23 11:40:03.9    -234   -323     46    400    403 216.0   6.6  34206  290.35 0855.21
2009/04/23 11:40:04.0    -222   -417     -2    473    474 208.1  -0.3  34212  290.44 0855.21
2009/04/23 11:40:04.1    -226   -355    -45    421    424 212.5  -6.2  34212  290.44 0855.21
2009/04/23 11:40:04.2    -243   -326   -122    407    425 216.8 -16.7  34196  290.19 0855.21
2009/04/23 11:40:04.3    -194   -305    -16    362    363 212.4  -2.6  34198  290.21 0855.21
2009/04/23 11:40:04.4    -242   -330    -65    410    416 216.3  -9.1  34194  290.16 0855.21
2009/04/23 11:40:04.5    -195   -351    -71    402    409 209.0 -10.1  34184  289.99 0855.21
2009/04/23 11:40:04.6    -141   -312   -151    343    374 204.3 -29.6  34180  289.91 0855.21
2009/04/23 11:40:04.7    -159   -367   -113    400    415 203.4 -20.5  34190  290.09 0855.21
2009/04/23 11:40:04.8    -149   -343   -115    375    392 203.5 -22.1  34190  290.08 0855.21
2009/04/23 11:40:04.9     -95   -296    -87    311    322 197.8 -20.3  34182  289.93 0855.21
2009/04/23 11:40:05.0    -161   -251    -86    299    312 212.6 -16.0  34204  290.32 0855.21
2009/04/23 11:40:05.1    -211   -116     -9    241    242 241.1  -2.2  34218  290.54 0855.21
2009/04/23 11:40:05.2    -138   -104     57    174    184 232.9  18.1  34222  290.62 0855.21
2009/04/23 11:40:05.3    -200   -140    -29    245    247 234.9  -6.9  34228  290.73 0855.21
2009/04/23 11:40:05.4    -180   -188    -62    261    269 223.7 -13.4  34240  290.92 0855.21
2009/04/23 11:40:05.5    -171   -184    -82    252    265 222.8 -23.6  34242  290.95 0855.21
2009/04/23 11:40:05.6    -186   -164    -66    249    258 228.6 -15.0  34246  291.04 0855.21
2009/04/23 11:40:05.7    -118   -176    -16    213    214 213.8  -4.4  34238  290.89 0855.21
2009/04/23 11:40:05.8    -141   -196    -43    242    246 215.8 -10.3  34246  291.02 0855.20
2009/04/23 11:40:05.9     -87   -226    -96    243    261 201.2 -27.2  34220  290.59 0855.20
2009/04/23 11:40:06.0      18   -239    -89    240    255 175.6 -25.4  34216  290.51 0855.20
2009/04/23 11:40:06.1     -33   -238    -79    241    253 188.0 -23.6  34222  290.63 0855.20
2009/04/23 11:40:06.2     -25   -258    -37    260    263 185.6  -8.3  34222  290.63 0855.20
2009/04/23 11:40:06.3     -42   -330    -47    333    337 187.4  -8.1  34214  290.49 0855.20
2009/04/23 11:40:06.4     -82   -285    -43    297    301 196.0  -8.3  34186  290.02 0855.20
2009/04/23 11:40:06.5    -107   -288    -46    308    312 200.5  -8.6  34182  289.93 0855.20
2009/04/23 11:40:06.6    -244   -214    -69    325    333 228.7 -12.0  34194  290.16 0855.20
2009/04/23 11:40:06.7    -225   -170   -103    283    301 232.9 -25.3  34206  290.34 0855.20
2009/04/23 11:40:06.8    -202   -234    -87    310    322 220.8 -15.7  34226  290.70 0855.20
2009/04/23 11:40:06.9    -169   -204      0    266    267 219.6   0.0  34234  290.82 0855.20
2009/04/23 11:40:07.0    -163   -138      7    214    215 229.8   2.1  34234  290.82 0855.20
2009/04/23 11:40:07.1    -142   -114    -43    183    189 231.4 -13.4  34234  290.82 0855.20
2009/04/23 11:40:07.2    -192   -114    -55    224    231 239.3 -13.9  34232  290.79 0855.20
2009/04/23 11:40:07.3    -119   -215    -74    247    257 209.0 -21.5  34224  290.65 0855.20
2009/04/23 11:40:07.4    -116   -201    -77    233    245 210.1 -23.8  34216  290.53 0855.20
2009/04/23 11:40:07.5     -88   -202    -98    221    241 203.6 -29.6  34226  290.70 0855.20
2009/04/23 11:40:07.6     -61   -144    -66    157    170 203.2 -28.5  34214  290.50 0855.20
2009/04/23 11:40:07.7     -39   -122    -73    129    148 197.8 -36.3  34222  290.64 0855.20
2009/04/23 11:40:07.8     -11   -113    -68    114    132 185.8 -38.4  34226  290.70 0855.20
2009/04/23 11:40:07.9     -41   -152    -39    158    163 195.1 -13.9  34242  290.98 0855.20
2009/04/23 11:40:08.0      -9   -214    -17    215    216 182.5  -4.6  34226  290.70 0855.20
2009/04/23 11:40:08.1     -18   -206     10    207    208 185.1   2.9  34230  290.77 0855.20
2009/04/23 11:40:08.2     -80   -190     29    207    210 202.9   8.0  34228  290.72 0855.20
2009/04/23 11:40:08.3     -42   -153    -28    159    162 195.6 -10.1  34226  290.70 0855.20
2009/04/23 11:40:08.4     -12   -155     34    156    160 184.5  12.6  34226  290.69 0855.20
2009/04/23 11:40:08.5    -119   -156     70    197    209 217.2  20.2  34226  290.70 0855.20
2009/04/23 11:40:08.6     -99   -158     41    187    192 212.3  12.4  34228  290.72 0855.20
2009/04/23 11:40:08.7     -80   -175      9    193    194 204.5   2.9  34222  290.62 0855.20
2009/04/23 11:40:08.8    -125   -103      3    163    164 230.5   1.2  34222  290.64 0855.20
2009/04/23 11:40:08.9    -121    -96    -43    155    161 231.4 -15.5  34218  290.55 0855.20
2009/04/23 11:40:09.0    -111   -146     24    184    186 217.4   7.5  34224  290.65 0855.20
2009/04/23 11:40:09.1    -106    -96      7    144    145 227.8   2.8  34218  290.55 0855.20
2009/04/23 11:40:09.2    -160    -71     10    176    177 246.0   3.3  34216  290.53 0855.20
2009/04/23 11:40:09.3    -112    -42     19    120    122 249.2   9.0  34220  290.60 0855.20
2009/04/23 11:40:09.4     -53      4     39     54     66 274.4  39.5  34220  290.60 0855.20
2009/04/23 11:40:09.5      33   -118     43    123    131 164.4  19.2  34208  290.40 0855.20
2009/04/23 11:40:09.6      42   -185     97    190    213 167.1  29.2  34194  290.16 0855.20
2009/04/23 11:40:09.7     -87   -260    119    275    299 198.5  25.1  34204  290.31 0855.20
2009/04/23 11:40:09.8     -73   -204    108    217    242 199.8  28.5  34210  290.42 0855.20
2009/04/23 11:40:09.9      61   -304    -11    311    312 168.5  -2.1  34212  290.46 0855.20
2009/04/23 11:40:10.0     128   -255    -81    286    298 153.3 -15.8  34212  290.46 0855.20
2009/04/23 11:40:10.1     218   -301    -42    372    375 144.0  -6.5  34216  290.52 0855.20
2009/04/23 11:40:10.2     194   -325    -32    379    381 149.1  -4.9  34218  290.57 0855.20
2009/04/23 11:40:10.3     131   -253     54    285    291 152.6  10.8  34216  290.51 0855.20
2009/04/23 11:40:10.4     197   -191    149    275    312 134.0  30.8  34214  290.48 0855.20
2009/04/23 11:40:10.5     242   -146    190    283    340 121.1  37.0  34218  290.54 0855.20
2009/04/23 11:40:10.6     248   -152    200    292    353 121.5  37.7  34214  290.49 0855.20
2009/04/23 11:40:10.7     140   -123    156    187    243 131.3  44.1  34214  290.48 0855.20
2009/04/23 11:40:10.8      79   -186    137    203    244 157.1  37.4  34218  290.55 0855.20
2009/04/23 11:40:10.9     127   -194    177    232    291 146.8  41.2  34210  290.41 0855.20
2009/04/23 11:40:11.0     146    -34    223    150    268 103.3  63.2  34214  290.49 0855.20
2009/04/23 11:40:11.2     150   -110    214    187    284 126.2  54.3  34214  290.49 0855.20
2009/04/23 11:40:11.3     169    -34    197    173    262 101.5  54.2  34214  290.49 0855.20
2009/04/23 11:40:11.4     136    -31    200    140    244 103.2  61.7  34208  290.38 0855.20
2009/04/23 11:40:11.5      81      0    171     82    189  90.4  72.8  34214  290.48 0855.20
2009/04/23 11:40:11.6     102    -27    140    106    175 105.1  59.0  34210  290.43 0855.20
2009/04/23 11:40:11.7     103    -37    105    110    152 110.0  48.5  34204  290.31 0855.20
2009/04/23 11:40:11.8     104    -57    118    119    167 118.9  50.0  34206  290.35 0855.20
2009/04/23 11:40:11.9      60   -139    134    152    202 156.4  46.2  34204  290.31 0855.17
2009/04/23 11:40:12.0     142    -94    112    171    204 123.7  36.0  34204  290.33 0855.17
2009/04/23 11:40:12.1      55    -23    127     60    140 112.6  73.1  34204  290.33 0855.17
2009/04/23 11:40:12.2      27    -78    112     83    139 160.4  60.5  34208  290.40 0855.17
2009/04/23 11:40:12.3      32    -16     79     37     87 117.1  73.5  34216  290.52 0855.17
2009/04/23 11:40:12.4      39    -82     97     91    133 154.6  51.6  34208  290.38 0855.17
2009/04/23 11:40:12.5      55    -97    128    112    170 150.1  54.6  34208  290.38 0855.17
2009/04/23 11:40:12.6     -47   -112    151    122    194 202.7  56.6  34216  290.52 0855.17
2009/04/23 11:40:12.7     -47   -120    138    129    188 201.4  52.1  34224  290.67 0855.17
2009/04/23 11:40:12.8     -80    -66     93    104    139 230.5  46.9  34224  290.67 0855.17
2009/04/23 11:40:12.9    -105    -60     60    122    135 240.2  27.8  34228  290.72 0855.18
2009/04/23 11:40:13.0     -97    -96    115    137    178 225.1  44.3  34240  290.94 0855.18
2009/04/23 11:40:13.1     -65   -161    146    174    227 202.1  44.1  34222  290.64 0855.18
2009/04/23 11:40:13.2     -99   -128     95    163    188 217.8  32.9  34216  290.53 0855.18
2009/04/23 11:40:13.3     -54   -164    123    173    212 198.5  38.8  34210  290.43 0855.18
2009/04/23 11:40:13.4     -76   -202    156    216    266 200.7  39.5  34212  290.46 0855.18
2009/04/23 11:40:13.5     -75   -189    153    204    255 201.8  40.7  34210  290.41 0855.18
2009/04/23 11:40:13.6     -63   -190    116    201    232 198.5  32.9  34206  290.35 0855.18
2009/04/23 11:40:13.7     -70   -209     80    221    236 198.7  19.9  34210  290.43 0855.18
2009/04/23 11:40:13.8    -102   -187     22    214    216 208.7   5.9  34216  290.52 0855.18
2009/04/23 11:40:13.9     -98   -208    117    231    258 205.3  29.1  34210  290.42 0855.18
2009/04/23 11:40:14.0     -21   -278    127    279    306 184.5  26.2  34214  290.49 0855.18
2009/04/23 11:40:14.1      -7   -304     88    305    318 181.4  16.1  34212  290.46 0855.18
2009/04/23 11:40:14.2      -2   -276     64    277    285 180.5  13.1  34214  290.49 0855.18
2009/04/23 11:40:14.3      20   -263     21    264    265 175.5   4.6  34208  290.39 0855.18
2009/04/23 11:40:14.4     -17   -226    106    227    250 184.5  27.0  34210  290.42 0855.18
2009/04/23 11:40:14.5      -4   -208     77    209    222 181.1  21.0  34210  290.41 0855.18
2009/04/23 11:40:14.6      33   -181      1    185    186 169.5   0.5  34206  290.36 0855.18
2009/04/23 11:40:14.7      15   -154    -11    155    156 174.2  -4.1  34216  290.53 0855.18
2009/04/23 11:40:14.8     123    -78    -17    146    147 122.4  -6.7  34214  290.48 0855.18
2009/04/23 11:40:14.9      53    -97      5    111    112 151.0   2.8  34218  290.55 0855.17
2009/04/23 11:40:15.0      53   -151     -4    161    162 160.4  -1.6  34220  290.60 0855.17
2009/04/23 11:40:15.1      45   -166    -38    173    178 164.9 -12.6  34220  290.58 0855.17
2009/04/23 11:40:15.2      69   -157    -28    172    175 156.2  -9.3  34224  290.65 0855.17
2009/04/23 11:40:15.3      -7   -132    -24    133    136 183.1 -10.3  34222  290.64 0855.17
2009/04/23 11:40:15.4     -51   -114    -58    125    137 204.1 -31.0  34222  290.64 0855.17
2009/04/23 11:40:15.5     -13    -12    -63     18     65 226.7 -89.2  34224  290.67 0855.17
2009/04/23 11:40:15.6      17    -64    -22     67     70 164.9 -23.8  34222  290.64 0855.17
2009/04/23 11:40:15.7     -18    -54    -32     57     65 198.5 -35.8  34220  290.58 0855.17
2009/04/23 11:40:15.8     -19    -88    -41     91     99 192.5 -30.6  34226  290.70 0855.17
2009/04/23 11:40:15.9     -19    -57    -20     61     65 198.5 -18.7  34226  290.70 0855.17
2009/04/23 11:40:16.0      -1    -30     13     31     33 182.6  23.0  34226  290.70 0855.17
2009/04/23 11:40:16.1       0    -31     11     32     34 180.9  18.9  34228  290.74 0855.17
2009/04/23 11:40:16.2       8    -26     17     28     32 161.7  35.5  34232  290.79 0855.17
2009/04/23 11:40:16.3     -17     -2     39     18     42 262.1  74.0  34232  290.79 0855.17
2009/04/23 11:40:16.4      -8     32     32     34     46 344.9  50.0  34238  290.91 0855.17
2009/04/23 11:40:16.5     -13     23     27     27     38 329.3  50.1  34236  290.86 0855.17
2009/04/23 11:40:16.6     -21     -5     19     22     29 254.9  47.9  34238  290.91 0855.17
2009/04/23 11:40:16.7     -21    -12     13     25     28 239.3  29.3  34236  290.86 0855.17
2009/04/23 11:40:16.8     -21    -25     13     33     35 219.6  21.0  34236  290.86 0855.17
2009/04/23 11:40:16.9     -24    -30      7     39     40 219.7  11.1  34234  290.82 0855.15
2009/04/23 11:40:17.0     -30    -32     30     45     54 223.2  36.5  34232  290.81 0855.15
2009/04/23 11:40:17.1     -52      1      9     53     54 271.7  10.1  34232  290.81 0855.15
2009/04/23 11:40:17.2     -65      5     -2     66     67 274.4  -2.2  34234  290.82 0855.15
2009/04/23 11:40:17.3     -55     17     20     58     62 287.7  18.9  34232  290.79 0855.15
2009/04/23 11:40:17.4     -70      7     21     71     75 276.1  16.3  34232  290.79 0855.15
2009/04/23 11:40:17.5     -50      7     18     51     55 278.8  19.2  34236  290.87 0855.15
2009/04/23 11:40:17.6     -35    -11     13     37     40 251.8  19.2  34236  290.86 0855.15
2009/04/23 11:40:17.7     -32    -39     -2     51     52 219.6  -2.2  34236  290.87 0855.15
2009/04/23 11:40:17.8     -12    -39      7     42     43 197.8  10.1  34236  290.87 0855.15
2009/04/23 11:40:17.9     -14    -49      9     52     53 196.0  10.1  34232  290.79 0855.15
2009/04/23 11:40:18.0     -33    -80      5     87     88 202.3   3.8  34226  290.69 0855.15
2009/04/23 11:40:18.1     -40    -82     25     92     96 205.9  15.3  34240  290.94 0855.15
2009/04/23 11:40:18.2     -51    -62     32     81     87 219.6  22.0  34238  290.91 0855.15
2009/04/23 11:40:18.3     -89    -51     28    103    107 240.2  15.2  34230  290.75 0855.15
2009/04/23 11:40:18.4    -105    -34     41    111    118 251.8  21.0  34226  290.70 0855.15
2009/04/23 11:40:18.5    -104     -8     -5    105    106 265.6  -3.2  34240  290.94 0855.15
2009/04/23 11:40:18.6    -141    -45     -6    149    150 252.3  -2.6  34226  290.70 0855.15
2009/04/23 11:40:18.7    -150    -20    -22    152    154 262.1  -8.2  34226  290.70 0855.15
2009/04/23 11:40:18.8    -152    -20    -29    154    157 262.5 -10.9  34216  290.53 0855.15
2009/04/23 11:40:18.9    -132    -31    -21    136    138 256.7  -8.8  34224  290.67 0855.14
2009/04/23 11:40:19.0    -134    -34     -5    139    140 255.8  -2.2  34234  290.82 0855.14
2009/04/23 11:40:19.1    -139    -13    -12    140    141 264.3  -5.1  34238  290.89 0855.14
2009/04/23 11:40:19.2     -94    -21    -12     97     98 257.2  -7.2  34250  291.09 0855.14
2009/04/23 11:40:19.3    -105      8    -26    106    110 274.4 -13.9  34252  291.13 0855.14
2009/04/23 11:40:19.4     -95     44     -4    105    106 295.2  -2.6  34250  291.09 0855.14
2009/04/23 11:40:19.5    -162     34     -6    166    167 282.2  -2.2  34284  291.69 0855.14
2009/04/23 11:40:19.6    -202     32      1    205    206 279.0   0.5  34286  291.72 0855.14
2009/04/23 11:40:19.7    -164    -85      0    185    186 242.5   0.0  34234  290.84 0855.14
2009/04/23 11:40:19.8    -153    -54    -22    163    165 250.5  -7.7  34234  290.84 0855.14
2009/04/23 11:40:19.9    -143   -100     -8    175    176 235.1  -2.8  34236  290.86 0855.14
2009/04/23 11:40:20.0    -162   -172    -39    237    241 223.2  -9.3  34228  290.73 0855.14
2009/04/23 11:40:20.1    -146   -155    -43    214    219 223.3 -11.6  34236  290.87 0855.14
2009/04/23 11:40:20.2    -139   -187    -29    234    236 216.7  -7.2  34240  290.93 0855.14
2009/04/23 11:40:20.3    -170    -94      2    195    196 240.9   0.8  34254  291.18 0855.14
2009/04/23 11:40:20.4     -98   -110     29    148    151 221.5  11.1  34242  290.98 0855.14
2009/04/23 11:40:20.5     -91    -93     30    131    135 224.5  13.2  34242  290.98 0855.14
2009/04/23 11:40:20.6    -165    -57    -28    175    178 250.9  -9.3  34262  291.30 0855.14
2009/04/23 11:40:20.7    -196    -35    -45    200    206 259.9 -12.9  34266  291.37 0855.14
2009/04/23 11:40:20.8    -168    -56    -58    178    188 251.4 -18.1  34240  290.94 0855.14
2009/04/23 11:40:20.9    -155    -97     16    183    184 238.0   5.2  34262  291.30 0855.14
2009/04/23 11:40:21.0    -222   -105     14    246    247 244.5   3.3  34262  291.29 0855.14
2009/04/23 11:40:21.1    -114   -117    -21    164    166 224.1  -7.3  34244  291.01 0855.14
2009/04/23 11:40:21.2     -80   -132     21    155    157 211.2   7.8  34246  291.04 0855.14
2009/04/23 11:40:21.3     -89   -122     47    152    160 216.1  17.3  34256  291.20 0855.14
2009/04/23 11:40:21.4     -81   -127     40    151    157 212.6  15.0  34252  291.13 0855.14
2009/04/23 11:40:21.5     -91    -92     39    130    136 224.5  16.8  34264  291.33 0855.14
2009/04/23 11:40:21.6    -106   -112      7    155    156 223.2   2.9  34254  291.18 0855.14
2009/04/23 11:40:21.7    -105    -82     11    134    135 231.8   4.9  34260  291.28 0855.14
2009/04/23 11:40:21.8     -60    -71    -24     94     98 220.1 -14.5  34248  291.08 0855.14
2009/04/23 11:40:21.9     -58    -58      1     83     84 225.0   1.2  34262  291.30 0855.14
2009/04/23 11:40:22.0    -109   -104     -5    151    152 226.4  -2.2  34246  291.03 0855.14
2009/04/23 11:40:22.1    -114   -110     -8    159    160 226.0  -3.1  34258  291.23 0855.14
2009/04/23 11:40:22.2     -78   -125     19    148    150 212.1   7.5  34250  291.11 0855.14
2009/04/23 11:40:22.3    -154    -83    -14    176    177 241.6  -4.6  34240  290.94 0855.14
2009/04/23 11:40:22.4     -98   -111    -53    149    159 221.4 -19.7  34228  290.74 0855.14
2009/04/23 11:40:22.5    -129   -144     -6    194    195 221.9  -1.8  34230  290.77 0855.14
2009/04/23 11:40:22.6    -156   -166     -4    229    230 223.2  -1.2  34236  290.86 0855.14
2009/04/23 11:40:22.7    -134   -105    -31    171    174 231.8 -10.5  34246  291.03 0855.14
2009/04/23 11:40:22.8    -107    -65    -49    126    135 238.9 -25.9  34242  290.98 0855.14
2009/04/23 11:40:22.9     -94    -88     -5    129    130 226.9  -2.2  34240  290.94 0855.16
2009/04/23 11:40:23.0    -112   -146    -37    185    189 217.4 -11.6  34242  290.96 0855.16
2009/04/23 11:40:23.1    -155   -169    -67    230    239 222.5 -21.0  34230  290.76 0855.16
2009/04/23 11:40:23.2    -171   -173    -63    244    253 224.8 -14.5  34226  290.70 0855.16
2009/04/23 11:40:23.3    -191   -217    -78    290    301 221.4 -15.2  34216  290.51 0855.16
2009/04/23 11:40:23.4    -202   -215   -126    296    321 223.2 -28.9  34214  290.49 0855.16
2009/04/23 11:40:23.5    -114   -238    -58    264    271 205.6 -12.4  34218  290.54 0855.16
2009/04/23 11:40:23.6    -114   -217    -77    246    258 207.6 -17.5  34220  290.58 0855.16
2009/04/23 11:40:23.7     -86   -261    -55    275    281 198.3 -11.3  34216  290.53 0855.16
2009/04/23 11:40:23.8     -41   -263    -38    267    270 188.9  -8.2  34214  290.49 0855.16
2009/04/23 11:40:23.9     -56   -275    -57    281    287 191.6 -11.5  34214  290.49 0855.16
2009/04/23 11:40:24.0    -104   -258    -24    279    281 202.1  -5.1  34218  290.54 0855.16
2009/04/23 11:40:24.1     -78   -255    -23    267    269 197.2  -5.1  34214  290.49 0855.16
2009/04/23 11:40:24.2     -77   -254    -40    266    270 197.0  -8.6  34218  290.54 0855.16
2009/04/23 11:40:24.3    -105   -223    -31    247    250 205.4  -7.3  34222  290.61 0855.16
2009/04/23 11:40:24.4     -57   -250    -30    257    259 192.9  -6.7  34216  290.51 0855.16
2009/04/23 11:40:24.5     -31   -278     -1    280    281 186.5  -0.3  34214  290.49 0855.16
2009/04/23 11:40:24.6     -28   -259    -27    261    263 186.3  -6.1  34216  290.53 0855.16
2009/04/23 11:40:24.7     -41   -239    -23    243    245 189.8  -5.6  34214  290.49 0855.16
2009/04/23 11:40:24.8     -43   -244    -27    248    250 190.0  -6.2  34214  290.48 0855.16
2009/04/23 11:40:24.9     -61   -220    -29    229    231 195.6  -7.3  34210  290.43 0855.17
2009/04/23 11:40:25.0     -13   -210      3    211    212 183.6   0.8  34212  290.45 0855.17
2009/04/23 11:40:25.1     -36   -193     -3    197    198 190.7  -1.1  34212  290.45 0855.17
2009/04/23 11:40:25.2     -46   -196      2    202    203 193.3   0.8  34212  290.47 0855.17
2009/04/23 11:40:25.3     -96   -171     16    197    198 209.2   4.9  34216  290.53 0855.17
2009/04/23 11:40:25.4    -201   -169    -10    263    264 230.0  -2.2  34218  290.54 0855.17
2009/04/23 11:40:25.5    -250   -168    -38    302    305 236.0  -7.2  34222  290.63 0855.17
2009/04/23 11:40:25.6    -329   -183   -104    377    391 240.9 -20.0  34218  290.54 0855.17
2009/04/23 11:40:25.7    -283   -105    -74    303    312 249.6 -13.8  34222  290.63 0855.17
2009/04/23 11:40:25.8    -170     -5   -125    171    211 268.3 -44.1  34222  290.64 0855.17
2009/04/23 11:40:25.9     -98   -156    -60    185    194 212.1 -23.6  34220  290.60 0855.17
2009/04/23 11:40:26.0    -146   -229      0    272    273 212.5   0.0  34236  290.87 0855.17
2009/04/23 11:40:26.1    -165   -209     16    267    268 218.3   3.6  34236  290.85 0855.17
2009/04/23 11:40:26.2    -121   -204    -13    238    239 210.7  -3.2  34234  290.83 0855.17
2009/04/23 11:40:26.3    -140   -216     22    258    260 213.0   4.9  34238  290.90 0855.17
2009/04/23 11:40:26.4     -11   -250    -31    251    254 182.7  -7.2  34228  290.73 0855.17
2009/04/23 11:40:26.5      -5   -304    -34    305    307 181.0  -6.5  34214  290.48 0855.17
2009/04/23 11:40:26.6      38   -276    -29    279    281 172.0  -6.0  34214  290.48 0855.17
2009/04/23 11:40:26.7      29   -318      5    320    321 174.7   1.0  34214  290.49 0855.17
2009/04/23 11:40:26.8      26   -305     15    307    308 175.1   2.9  34214  290.49 0855.17
2009/04/23 11:40:26.9     -19   -278    -35    279    282 184.0  -7.3  34214  290.48 0855.16
2009/04/23 11:40:27.0     -53   -291     31    296    298 190.5   6.1  34214  290.49 0855.16
2009/04/23 11:40:27.2     -45   -250     59    255    262 190.2  13.1  34214  290.49 0855.16
2009/04/23 11:40:27.2      12   -250     88    251    267 177.1  19.4  34214  290.49 0855.16
2009/04/23 11:40:27.3       9   -301     59    302    308 178.2  11.1  34212  290.44 0855.16
2009/04/23 11:40:27.4      78   -226     80    240    254 160.8  18.5  34214  290.48 0855.16
2009/04/23 11:40:27.5      47   -247     76    252    264 169.1  16.8  34214  290.49 0855.16
2009/04/23 11:40:27.6      68   -331     62    339    345 168.3  10.4  34212  290.47 0855.16
2009/04/23 11:40:27.7      54   -321     29    326    328 170.4   5.2  34214  290.48 0855.16
2009/04/23 11:40:27.8      32   -337     53    339    344 174.4   8.9  34212  290.45 0855.16
2009/04/23 11:40:27.9      53   -348    122    353    374 171.3  19.1  34210  290.42 0855.16
2009/04/23 11:40:28.0      21   -320    125    321    344 176.2  22.4  34218  290.54 0855.16
2009/04/23 11:40:28.1      23   -305    122    307    330 175.5  22.8  34214  290.49 0855.16
2009/04/23 11:40:28.2      14   -316    117    317    337 177.4  21.3  34218  290.57 0855.16
2009/04/23 11:40:28.4      23   -252     73    254    265 174.7  16.0  34216  290.53 0855.16
2009/04/23 11:40:28.5      23   -276     93    278    294 175.1  18.5  34216  290.51 0855.16
2009/04/23 11:40:28.5      23   -249     98    251    269 174.6  22.3  34218  290.54 0855.16
2009/04/23 11:40:28.6      31   -225    133    228    263 172.0  32.9  34218  290.56 0855.16
2009/04/23 11:40:28.7     -10   -182    126    183    222 183.4  37.6  34220  290.58 0855.16
2009/04/23 11:40:28.8      31   -201    182    204    273 171.1  46.4  34220  290.58 0855.16
2009/04/23 11:40:28.9      43   -269    165    273    318 170.9  34.0  34218  290.56 0855.16
2009/04/23 11:40:29.0      75   -265    164    276    321 164.2  33.6  34220  290.58 0855.16
2009/04/23 11:40:29.1      44   -280    150    284    321 170.9  30.2  34218  290.54 0855.16
2009/04/23 11:40:29.2      97   -160    161    188    247 148.6  44.9  34222  290.62 0855.16
2009/04/23 11:40:29.3      55      0    164     56    173  90.0  81.0  34226  290.70 0855.16
2009/04/23 11:40:29.4      12    -33    109     36    114 160.0  80.7  34238  290.89 0855.16
2009/04/23 11:40:29.5      28   -175    131    178    221 170.7  39.7  34222  290.62 0855.16
2009/04/23 11:40:29.6      78   -139    150    160    219 150.6  48.0  34214  290.50 0855.16
2009/04/23 11:40:29.7     103   -129    136    166    214 141.5  43.7  34218  290.57 0855.16
2009/04/23 11:40:29.8      44   -159     93    166    190 164.4  31.6  34216  290.52 0855.16
2009/04/23 11:40:29.9      67   -159    178    173    248 157.1  50.9  34220  290.60 0855.16
2009/04/23 11:40:30.0       9    -81    174     82    192 173.3  73.1  34222  290.64 0855.16
2009/04/23 11:40:30.1      23    -68    107     72    128 161.3  63.2  34226  290.69 0855.16
2009/04/23 11:40:30.2      12    -36     59     38     70 161.5  64.6  34224  290.67 0855.16
2009/04/23 11:40:30.3      52    -27     61     59     84 118.0  50.1  34232  290.81 0855.16
2009/04/23 11:40:30.4      76    -19    107     79    133 104.2  60.5  34232  290.81 0855.16
2009/04/23 11:40:30.5       7    -35     75     36     83 168.4  72.9  34228  290.74 0855.16
2009/04/23 11:40:30.6    -116   -108    164    159    228 226.9  50.9  34228  290.74 0855.16
2009/04/23 11:40:30.7     -88   -135    158    162    226 213.0  49.4  34228  290.74 0855.16
2009/04/23 11:40:30.8     -56   -179    180    188    260 197.4  48.7  34222  290.63 0855.16
2009/04/23 11:40:30.9     -45   -241     95    246    263 190.7  22.0  34222  290.63 0855.16
2009/04/23 11:40:31.0     -47   -231     85    236    252 191.6  19.9  34224  290.65 0855.16
2009/04/23 11:40:31.1     -57   -246    111    253    276 193.1  25.2  34222  290.63 0855.16
2009/04/23 11:40:31.2     -13   -188    112    189    219 184.0  33.5  34222  290.64 0855.16
2009/04/23 11:40:31.3      80   -157    135    177    222 152.8  41.2  34224  290.65 0855.16
2009/04/23 11:40:31.4      68   -133    105    150    183 152.8  38.4  34222  290.64 0855.16
2009/04/23 11:40:31.5      42   -121    114    129    172 160.8  46.2  34218  290.57 0855.16
2009/04/23 11:40:31.6       0   -132    108    133    171 180.0  43.5  34238  290.91 0855.16
2009/04/23 11:40:31.7     -42   -161    122    167    206 194.9  39.9  34242  290.98 0855.16
2009/04/23 11:40:31.8     -55   -155    119    165    203 199.8  39.5  34250  291.09 0855.16
2009/04/23 11:40:31.9    -105   -105    140    149    204 225.0  48.2  34242  290.96 0855.16
2009/04/23 11:40:32.0      11     -5    120     13    120 115.3  90.0  34246  291.03 0855.16
2009/04/23 11:40:32.1     -34    -86    109     93    143 201.8  54.8  34244  290.99 0855.16
2009/04/23 11:40:32.2     -30   -126    120    130    176 193.4  47.9  34230  290.77 0855.16
2009/04/23 11:40:32.3     -63   -192    111    203    231 198.3  31.3  34228  290.72 0855.16
2009/04/23 11:40:32.4     -20   -273    109    274    294 184.4  23.0  34216  290.51 0855.16
2009/04/23 11:40:32.5     -94   -235     54    254    260 201.9  12.2  34214  290.49 0855.16
2009/04/23 11:40:32.6    -132   -273     37    304    307 205.9   7.1  34216  290.51 0855.16
2009/04/23 11:40:32.7    -149   -295     -4    331    332 206.8  -0.7  34214  290.50 0855.16
2009/04/23 11:40:32.8    -126   -316    -13    341    342 201.8  -2.2  34224  290.66 0855.16
2009/04/23 11:40:32.9    -105   -307     76    325    334 199.0  13.3  34222  290.62 0855.18
2009/04/23 11:40:33.0    -122   -320    107    343    360 201.0  17.3  34244  291.01 0855.18
2009/04/23 11:40:33.1     -39   -314    110    317    336 187.2  19.2  34224  290.66 0855.18
2009/04/23 11:40:33.2      -5   -308     80    309    320 181.0  14.6  34216  290.51 0855.18
2009/04/23 11:40:33.3      39   -283     84    286    299 172.0  16.4  34216  290.53 0855.18
2009/04/23 11:40:33.4      34   -280     50    283    288 172.9  10.1  34216  290.53 0855.18
2009/04/23 11:40:33.5     -43   -306     62    310    317 188.0  11.3  34214  290.48 0855.18
2009/04/23 11:40:33.6      18   -334     22    335    336 176.8   3.8  34212  290.47 0855.18
2009/04/23 11:40:33.7     -40   -431    -24    434    435 185.4  -3.2  34220  290.60 0855.18
2009/04/23 11:40:33.8     -74   -381    -30    389    391 191.0  -4.5  34218  290.57 0855.18
2009/04/23 11:40:33.9     -69   -352    -65    359    365 191.2 -10.4  34210  290.43 0855.18
2009/04/23 11:40:34.0     -82   -358    -76    368    376 193.0 -11.8  34208  290.40 0855.18
2009/04/23 11:40:34.1    -116   -358    -82    377    387 198.0 -12.4  34196  290.18 0855.18
2009/04/23 11:40:34.2    -137   -392   -124    416    435 199.3 -16.7  34196  290.17 0855.18
2009/04/23 11:40:34.3    -147   -334    -85    366    376 203.8 -13.2  34226  290.69 0855.18
2009/04/23 11:40:34.4    -218   -426   -119    479    494 207.2 -14.1  34218  290.54 0855.18
2009/04/23 11:40:34.5    -124   -408   -155    427    454 196.9 -25.3  34210  290.41 0855.18
2009/04/23 11:40:34.6     -21   -455    -90    456    465 182.7 -11.2  34188  290.05 0855.18
2009/04/23 11:40:34.7    -132   -567    -52    583    586 193.1  -5.2  34218  290.54 0855.18
2009/04/23 11:40:34.8     -36   -530    -10    532    533 183.9  -1.2  34230  290.77 0855.18
2009/04/23 11:40:34.9     -70   -452    -15    458    459 188.9  -1.9  34224  290.67 0855.19
2009/04/23 11:40:35.0     -20   -515    -65    516    521 182.2  -7.2  34208  290.40 0855.19
2009/04/23 11:40:35.1      40   -645    -95    647    654 176.4  -8.4  34202  290.30 0855.19
2009/04/23 11:40:35.2      19   -618    -88    619    626 178.2  -8.1  34202  290.28 0855.19
2009/04/23 11:40:35.3     -28   -616    -48    617    620 182.7  -4.5  34202  290.30 0855.19
2009/04/23 11:40:35.4       1   -563    -81    564    570 179.9  -8.3  34196  290.19 0855.19
2009/04/23 11:40:35.5       1   -558    -71    559    564 179.9  -7.3  34198  290.23 0855.19
2009/04/23 11:40:35.6     -27   -544    -78    545    551 182.9  -8.2  34198  290.23 0855.19
2009/04/23 11:40:35.7     -29   -523    -80    524    531 183.2  -8.7  34198  290.21 0855.19
2009/04/23 11:40:35.8       5   -507    -36    508    510 179.4  -4.1  34198  290.23 0855.19
2009/04/23 11:40:35.9      11   -560    -44    561    563 178.8  -4.6  34192  290.13 0855.19
2009/04/23 11:40:36.0      18   -550    -52    551    554 178.1  -5.5  34192  290.11 0855.19
2009/04/23 11:40:36.1      82   -590    -65    596    600 172.0  -6.3  34200  290.25 0855.19
2009/04/23 11:40:36.2      36   -608    -82    610    616 176.6  -7.7  34196  290.19 0855.19
2009/04/23 11:40:36.3     110   -592    -19    603    604 169.4  -1.9  34210  290.41 0855.19
2009/04/23 11:40:36.4     160   -569    -84    592    599 164.3  -8.1  34200  290.24 0855.19
2009/04/23 11:40:36.5     195   -580    -80    613    619 161.4  -7.5  34190  290.09 0855.19
2009/04/23 11:40:36.6     189   -548   -100    580    589 160.9  -9.8  34192  290.12 0855.19
2009/04/23 11:40:36.7     198   -518    -65    555    559 159.1  -6.7  34198  290.21 0855.19
2009/04/23 11:40:36.8     197   -492    -24    531    532 158.2  -2.6  34202  290.30 0855.19
2009/04/23 11:40:36.9     190   -476     16    513    514 158.2   1.8  34192  290.12 0855.19
2009/04/23 11:40:37.0     108   -419     36    433    435 165.5   4.9  34190  290.07 0855.19
2009/04/23 11:40:37.1     147   -456    -11    480    481 162.1  -1.4  34192  290.10 0855.19
2009/04/23 11:40:37.2     184   -512    -41    545    547 160.2  -4.4  34196  290.19 0855.19
2009/04/23 11:40:37.3     208   -663     35    695    696 162.6   2.9  34192  290.13 0855.19
2009/04/23 11:40:37.4     197   -639    114    669    679 162.8   9.7  34186  290.02 0855.19
2009/04/23 11:40:37.5     157   -705    168    723    743 167.4  13.1  34170  289.75 0855.19
2009/04/23 11:40:37.6     148   -649     96    666    673 167.1   8.2  34176  289.83 0855.19
2009/04/23 11:40:37.7      44   -940   -100    942    948 177.3  -6.1  34178  289.86 0855.19
2009/04/23 11:40:37.8      47   -799    -62    801    804 176.6  -4.5  34192  290.12 0855.19
2009/04/23 11:40:38.0      77   -778    -85    782    787 174.3  -6.2  34180  289.90 0855.19
2009/04/23 11:40:38.0     120   -816    -43    825    827 171.6  -3.0  34164  289.64 0855.19
2009/04/23 11:40:38.1      41   -826     24    828    829 177.1   1.7  34180  289.91 0855.19
2009/04/23 11:40:38.2       1   -882     60    883    885 179.9   3.9  34184  289.98 0855.19
2009/04/23 11:40:38.3       1   -838     80    839    843 179.9   5.5  34174  289.80 0855.19
2009/04/23 11:40:38.4     -14   -838    -46    839    841 181.0  -3.2  34186  290.00 0855.19
2009/04/23 11:40:38.5     -66   -846     44    849    851 184.5   3.0  34190  290.07 0855.19
2009/04/23 11:40:38.6     -88   -805     46    810    812 186.3   3.3  34188  290.04 0855.19
2009/04/23 11:40:38.7    -185   -795   -116    817    826 193.1  -8.1  34188  290.04 0855.19
2009/04/23 11:40:38.8       4   -829    -73    830    834 179.7  -5.1  34184  289.97 0855.19
2009/04/23 11:40:39.0     -88   -806   -119    811    820 186.3  -8.4  34188  290.04 0855.19
2009/04/23 11:40:39.1      -6   -621   -223    622    660 180.6 -25.0  34184  289.99 0855.19
2009/04/23 11:40:39.2    -132   -492   -121    510    525 195.1 -13.4  34180  289.90 0855.19
2009/04/23 11:40:39.3    -302   -568   -123    644    656 208.0 -10.9  34188  290.03 0855.19
2009/04/23 11:40:39.4    -190   -601   -199    631    662 197.6 -17.5  34198  290.20 0855.19
2009/04/23 11:40:39.5     -79   -421   -131    429    448 190.7 -21.8  34204  290.31 0855.19
2009/04/23 11:40:39.6     -91   -340   -142    353    380 195.1 -27.4  34202  290.28 0855.19
2009/04/23 11:40:39.7      14   -383   -156    384    414 177.9 -27.8  34200  290.26 0855.19
2009/04/23 11:40:39.8      49   -398   -111    402    418 172.9 -15.5  34198  290.21 0855.19
2009/04/23 11:40:39.9     137   -358   -110    384    399 159.0 -20.8  34190  290.08 0855.19
2009/04/23 11:40:40.0       5   -285   -102    286    303 178.9 -24.6  34204  290.31 0855.19
2009/04/23 11:40:40.1     -58   -384    -71    389    396 188.6 -10.4  34208  290.37 0855.19
2009/04/23 11:40:40.2    -197   -507    -58    545    549 201.3  -6.1  34204  290.31 0855.19
2009/04/23 11:40:40.3    -188   -517    -87    551    558 200.0  -9.0  34216  290.52 0855.19
2009/04/23 11:40:40.4    -342   -442   -116    559    572 217.8 -11.8  34222  290.62 0855.19
2009/04/23 11:40:40.5    -224   -371   -147    434    459 211.1 -18.7  34216  290.53 0855.19
2009/04/23 11:40:40.6    -255   -499   -172    561    586 207.1 -21.8  34184  289.97 0855.19
2009/04/23 11:40:40.7    -163   -546   -145    570    589 196.6 -14.3  34184  289.98 0855.19
2009/04/23 11:40:40.8    -119   -561   -148    574    593 192.0 -14.5  34166  289.69 0855.19
2009/04/23 11:40:40.9    -117   -511   -195    525    560 192.9 -25.8  34184  289.97 0855.19
2009/04/23 11:40:41.0    -107   -468    -58    481    485 192.9  -6.9  34186  290.00 0855.19
2009/04/23 11:40:41.1    -175   -653      4    676    677 195.0   0.4  34192  290.12 0855.19
2009/04/23 11:40:41.2    -167   -618    -51    641    644 195.2  -4.6  34168  289.72 0855.19
2009/04/23 11:40:41.3    -359   -464    -52    587    590 217.8  -5.1  34202  290.27 0855.19
2009/04/23 11:40:41.4    -223   -470   -165    521    547 205.4 -17.6  34174  289.80 0855.19
2009/04/23 11:40:41.5    -167   -492   -120    520    534 198.8 -13.0  34174  289.82 0855.19
2009/04/23 11:40:41.6    -139   -520   -103    539    549 195.0 -10.9  34176  289.85 0855.19
2009/04/23 11:40:41.7    -134   -472   -142    491    511 195.9 -20.9  34170  289.73 0855.19
2009/04/23 11:40:41.8    -124   -464   -238    481    536 195.0 -32.6  34186  290.00 0855.19
2009/04/23 11:40:41.9     -92   -468   -224    478    527 191.2 -31.5  34178  289.89 0855.19
2009/04/23 11:40:42.0     109   -438   -161    452    479 166.0 -24.8  34172  289.76 0855.16
2009/04/23 11:40:42.1       2   -401    -13    402    403 179.7  -1.9  34158  289.55 0855.16
2009/04/23 11:40:42.2      -8   -573     44    574    576 180.9   4.4  34186  290.00 0855.16
2009/04/23 11:40:42.3     160   -723   -105    741    749 167.5  -8.1  34186  290.01 0855.16
2009/04/23 11:40:42.4      79   -641   -100    646    654 172.9  -8.8  34184  289.98 0855.16
2009/04/23 11:40:42.5      96   -580    -22    588    589 170.6  -2.2  34182  289.95 0855.16
2009/04/23 11:40:42.6     127   -484     89    501    509 165.2  10.1  34188  290.05 0855.16
2009/04/23 11:40:42.7      88   -511     98    519    529 170.2  10.7  34184  289.99 0855.16
2009/04/23 11:40:42.8      88   -514     98    522    532 170.2  10.7  34180  289.90 0855.16
2009/04/23 11:40:42.9     268   -567      2    628    629 154.7   0.2  34172  289.76 0855.16
2009/04/23 11:40:43.0     102   -459   -148    471    494 167.4 -17.5  34164  289.64 0855.16
2009/04/23 11:40:43.1     -32   -434   -146    436    459 184.3 -23.3  34166  289.68 0855.16
2009/04/23 11:40:43.2      21   -463   -168    464    493 177.3 -25.2  34164  289.64 0855.16
2009/04/23 11:40:43.3      27   -494   -171    495    523 176.9 -24.0  34170  289.74 0855.16
2009/04/23 11:40:43.4      79   -483   -174    490    521 170.7 -19.6  34176  289.84 0855.16
2009/04/23 11:40:43.5      61   -485    -83    489    497 172.8  -9.7  34176  289.84 0855.16
2009/04/23 11:40:43.6     136   -441    -79    462    469 162.8  -9.8  34176  289.84 0855.16
2009/04/23 11:40:43.7     115   -434    -24    450    451 165.1  -3.1  34174  289.80 0855.16
2009/04/23 11:40:43.8     128   -408    -48    428    431 162.5  -6.5  34178  289.88 0855.16
2009/04/23 11:40:43.9      95   -426    -38    437    439 167.4  -5.1  34172  289.78 0855.16
2009/04/23 11:40:44.0      90   -424    -28    434    435 168.0  -3.8  34178  289.88 0855.14
2009/04/23 11:40:44.1      98   -428    -39    440    442 167.1  -5.1  34180  289.90 0855.14
2009/04/23 11:40:44.2     114   -407     20    423    424 164.3   2.8  34182  289.94 0855.14
2009/04/23 11:40:44.3      20   -438     68    439    445 177.3   8.9  34186  290.00 0855.14
2009/04/23 11:40:44.4      43   -455     93    458    468 174.6  11.5  34186  290.00 0855.14
2009/04/23 11:40:44.5     211   -444     59    492    496 154.5   6.9  34184  289.98 0855.14
2009/04/23 11:40:44.6     202   -410     33    458    460 153.7   4.2  34184  289.99 0855.14
2009/04/23 11:40:44.7     179   -554     16    583    584 162.1   1.6  34186  290.00 0855.14
2009/04/23 11:40:44.8     433   -560    111    709    718 142.3   8.9  34168  289.72 0855.14
2009/04/23 11:40:44.9     258   -587    273    642    697 156.3  24.5  34180  289.90 0855.14
2009/04/23 11:40:45.0     257   -608    276    661    716 157.1  24.1  34178  289.89 0855.14
2009/04/23 11:40:45.1     177   -716   -113    738    747 166.1  -8.7  34178  289.87 0855.14
2009/04/23 11:40:45.2     199   -737    -68    764    768 164.9  -5.1  34178  289.89 0855.14
2009/04/23 11:40:45.3     166   -775     43    793    795 167.9   3.1  34188  290.03 0855.14
2009/04/23 11:40:45.4      33   -660    -34    661    662 177.1  -3.0  34174  289.82 0855.14
2009/04/23 11:40:45.5     110   -765     23    774    775 171.8   1.7  34180  289.91 0855.14
2009/04/23 11:40:45.6     119   -790    -45    799    801 171.4  -3.3  34176  289.83 0855.14
2009/04/23 11:40:45.7     146   -801    -16    815    816 169.7  -1.2  34174  289.82 0855.14
2009/04/23 11:40:45.8     145   -835     73    848    852 170.1   5.0  34182  289.93 0855.14
2009/04/23 11:40:45.9      17   -825    119    826    835 178.8   8.2  34184  289.99 0855.14
2009/04/23 11:40:46.0       4   -767     19    768    769 179.6   1.5  34182  289.95 0855.14
2009/04/23 11:40:46.1     242   -823     89    858    863 163.6   6.0  34178  289.88 0855.14
2009/04/23 11:40:46.2     257   -819      4    859    860 162.6   0.3  34180  289.90 0855.14
2009/04/23 11:40:46.3     255   -652    -80    701    706 158.6  -6.6  34178  289.86 0855.14
2009/04/23 11:40:46.4     204   -646     51    678    680 162.5   4.4  34174  289.80 0855.14
2009/04/23 11:40:46.5     240   -683     64    725    728 160.6   5.1  34188  290.06 0855.14
2009/04/23 11:40:46.6     199   -634     52    665    668 162.6   4.5  34184  289.99 0855.14
2009/04/23 11:40:46.7     145   -676    -45    692    694 167.8  -3.8  34180  289.90 0855.14
2009/04/23 11:40:46.8     220   -615     44    654    656 160.3   3.9  34184  289.99 0855.14
2009/04/23 11:40:46.9     151   -568    -27    588    589 165.1  -2.7  34182  289.95 0855.14
2009/04/23 11:40:47.0     175   -695    -99    717    724 165.8  -7.9  34178  289.88 0855.14
2009/04/23 11:40:47.1     220   -680   -183    715    739 162.1 -14.4  34188  290.05 0855.14
2009/04/23 11:40:47.2     182   -582   -219    610    649 162.6 -19.8  34196  290.18 0855.14
2009/04/23 11:40:47.3     103   -549   -198    559    594 169.3 -19.6  34198  290.20 0855.14
2009/04/23 11:40:47.4      44   -577   -183    579    608 175.6 -17.5  34198  290.22 0855.14
2009/04/23 11:40:47.5     161   -534   -127    558    573 163.2 -12.9  34198  290.23 0855.14
2009/04/23 11:40:47.6      30   -453   -130    454    473 176.2 -16.0  34188  290.03 0855.14
2009/04/23 11:40:47.7      22   -416    -91    417    428 176.9 -12.4  34188  290.05 0855.14
2009/04/23 11:40:47.8      69   -531   -137    536    554 172.5 -14.4  34196  290.18 0855.14
2009/04/23 11:40:47.9     170   -538   -179    565    593 162.5 -17.6  34198  290.22 0855.14
2009/04/23 11:40:48.0      14   -505    -92    506    515 178.4 -10.4  34198  290.23 0855.14
2009/04/23 11:40:48.1    -122   -551   -133    565    581 192.5 -13.3  34192  290.10 0855.14
2009/04/23 11:40:48.2      35   -598    -43    600    602 176.6  -4.1  34202  290.27 0855.14
2009/04/23 11:40:48.3      34   -573    -95    575    583 176.6  -9.4  34196  290.19 0855.14
2009/04/23 11:40:48.4      51   -728    -87    730    736 176.0  -6.8  34206  290.36 0855.14
2009/04/23 11:40:48.5     -97   -722   -170    729    749 187.7 -13.1  34202  290.28 0855.14
2009/04/23 11:40:48.6    -196   -568     -6    602    603 199.1  -0.6  34198  290.22 0855.14
2009/04/23 11:40:48.7    -122   -609   -190    622    650 191.4 -21.9  34198  290.21 0855.14
2009/04/23 11:40:48.8      15   -608   -220    609    647 178.5 -25.2  34198  290.20 0855.14
2009/04/23 11:40:48.9      48   -489   -141    492    512 174.3 -16.0  34198  290.23 0855.14
2009/04/23 11:40:49.0     -26   -370   -113    371    387 184.1 -21.9  34202  290.27 0855.14
2009/04/23 11:40:49.1    -128   -273   -158    302    340 205.2 -34.4  34204  290.32 0855.14
2009/04/23 11:40:49.2    -275   -388   -181    476    509 215.3 -26.2  34196  290.18 0855.14
2009/04/23 11:40:49.3     -93   -476    -27    486    487 191.1  -3.2  34204  290.32 0855.14
2009/04/23 11:40:49.4     -76   -442   -123    449    466 189.8 -15.4  34210  290.41 0855.14
2009/04/23 11:40:49.5      17   -491   -147    492    514 178.0 -16.7  34208  290.37 0855.14
2009/04/23 11:40:49.6     -20   -427   -134    428    448 182.8 -22.4  34204  290.31 0855.14
2009/04/23 11:40:49.7      13   -329   -133    330    355 177.7 -27.5  34208  290.37 0855.14
2009/04/23 11:40:49.8      29   -368    -33    370    372 175.4  -5.2  34186  290.01 0855.14
2009/04/23 11:40:49.9      43   -388    -35    391    393 173.7  -5.2  34188  290.03 0855.14
2009/04/23 11:40:50.0     101   -375     19    389    390 164.9   2.9  34184  289.98 0855.16
2009/04/23 11:40:50.1      63   -346     48    352    356 169.7   7.8  34188  290.06 0855.16
2009/04/23 11:40:50.2      99   -439     54    451    455 167.2   6.9  34190  290.09 0855.16
2009/04/23 11:40:50.3      90   -393     24    404    405 167.0   3.5  34194  290.14 0855.16
2009/04/23 11:40:50.4      74   -420     66    427    433 170.0   8.8  34190  290.07 0855.16
2009/04/23 11:40:50.5      48   -379     19    383    384 172.7   2.9  34194  290.15 0855.16
2009/04/23 11:40:50.6     -97   -524   -108    533    544 190.5 -11.5  34208  290.38 0855.16
2009/04/23 11:40:50.7      84   -487    -58    495    499 170.1  -6.7  34190  290.08 0855.16
2009/04/23 11:40:50.8      83   -478    -45    486    489 170.1  -5.3  34192  290.12 0855.16
2009/04/23 11:40:50.9      43   -486   -126    489    506 174.9 -14.5  34202  290.30 0855.16
2009/04/23 11:40:51.0     118   -457    -44    473    476 165.5  -5.3  34192  290.12 0855.16
2009/04/23 11:40:51.1      50   -396   -118    400    418 172.7 -16.5  34196  290.19 0855.16
2009/04/23 11:40:51.2      55   -269   -104    275    294 168.4 -26.1  34196  290.19 0855.16
2009/04/23 11:40:51.3      26   -272    -81    274    285 174.4 -21.5  34202  290.29 0855.16
2009/04/23 11:40:51.4    -122   -301    -89    325    338 202.1 -15.4  34204  290.33 0855.16
2009/04/23 11:40:51.5    -117   -293   -126    316    340 201.9 -27.4  34206  290.35 0855.16
2009/04/23 11:40:51.6    -107   -353   -160    370    403 196.9 -29.5  34192  290.11 0855.16
2009/04/23 11:40:51.7    -142   -343   -222    372    433 202.5 -37.9  34184  289.97 0855.16
2009/04/23 11:40:51.8    -200   -365   -229    417    475 208.7 -35.7  34184  289.99 0855.16
2009/04/23 11:40:51.9    -257   -293   -272    390    475 221.3 -42.8  34186  290.02 0855.16
2009/04/23 11:40:52.0    -305   -148   -152    340    372 244.0 -30.2  34202  290.28 0855.16
2009/04/23 11:40:52.1    -342    -77   -150    351    381 257.2 -29.0  34182  289.96 0855.16
2009/04/23 11:40:52.2    -205   -144   -185    251    311 234.9 -44.4  34178  289.88 0855.16
2009/04/23 11:40:52.3     -49   -284   -228    289    368 189.8 -46.7  34176  289.84 0855.16
2009/04/23 11:40:52.4      78   -198   -177    213    276 158.4 -48.2  34176  289.85 0855.16
2009/04/23 11:40:52.5     129   -231   -101    265    283 150.8 -26.1  34176  289.83 0855.16
2009/04/23 11:40:52.6      58   -216    -77    224    238 164.8 -19.1  34182  289.93 0855.16
2009/04/23 11:40:52.7     118   -168     25    206    208 144.8   7.1  34186  290.01 0855.16
2009/04/23 11:40:52.8     109   -146    -45    183    189 143.3 -13.9  34184  289.99 0855.16
2009/04/23 11:40:52.9      28   -179    -50    182    189 171.1 -15.5  34184  289.97 0855.16
2009/04/23 11:40:53.0     -97   -104    -71    143    159 223.2 -32.9  34194  290.16 0855.16
2009/04/23 11:40:53.1    -105    -75   -111    130    170 234.5 -49.2  34206  290.35 0855.16
2009/04/23 11:40:53.2     -22   -132    -90    134    161 189.8 -41.7  34208  290.38 0855.16
2009/04/23 11:40:53.3       8   -126    -94    127    158 176.4 -44.5  34206  290.35 0855.16
2009/04/23 11:40:53.4      29   -104    -63    109    125 164.4 -37.8  34204  290.31 0855.16
2009/04/23 11:40:53.5      17    -98    -81    100    128 169.8 -48.1  34206  290.35 0855.16
2009/04/23 11:40:53.6       5    -64    -18     65     68 175.5 -15.4  34202  290.30 0855.16
2009/04/23 11:40:53.7       1    -24      8     25     27 175.5  19.2  34204  290.31 0855.16
2009/04/23 11:40:53.8     -14    -25     19     29     34 209.0  35.6  34204  290.31 0855.16
2009/04/23 11:40:53.9     -18    -17     55     26     60 226.9  72.9  34204  290.31 0855.16
2009/04/23 11:40:54.0       2    -25     41     26     48 175.5  64.7  34204  290.33 0855.18
2009/04/23 11:40:54.1     -11     -3     -5     12     13 251.6 -23.3  34206  290.36 0855.18
2009/04/23 11:40:54.2     -85    -25   -129     89    156 253.2 -66.2  34218  290.57 0855.18
2009/04/23 11:40:54.3     -75     20   -107     78    132 285.1 -64.9  34236  290.86 0855.18
2009/04/23 11:40:54.4      -9    -93    -71     94    117 185.8 -45.1  34218  290.55 0855.18
2009/04/23 11:40:54.5     -46    -38    -86     60    104 230.5 -65.9  34204  290.33 0855.18
2009/04/23 11:40:54.6       5    -35    -87     36     94 172.0 -81.5  34210  290.41 0855.18
2009/04/23 11:40:54.7     -69     -4    -77     70    104 266.5 -56.6  34204  290.33 0855.18
2009/04/23 11:40:54.8     -53    -49    -59     73     93 226.9 -48.1  34204  290.33 0855.18
2009/04/23 11:40:54.9     -77   -100    -12    127    128 217.4  -5.6  34208  290.38 0855.18
2009/04/23 11:40:55.0    -103   -112    -49    153    161 222.8 -18.1  34204  290.31 0855.18
2009/04/23 11:40:55.1    -182   -147    -65    235    243 231.1 -20.4  34196  290.19 0855.18
2009/04/23 11:40:55.2    -118   -174    -80    211    225 214.3 -25.9  34204  290.31 0855.18
2009/04/23 11:40:55.3     -90   -162    -60    186    196 209.2 -17.9  34200  290.26 0855.18
2009/04/23 11:40:55.4      32   -225      3    228    229 171.9   1.0  34196  290.18 0855.18
2009/04/23 11:40:55.5      40   -227     -4    231    232 170.0  -1.2  34198  290.21 0855.18
2009/04/23 11:40:55.6      49   -243      7    249    250 168.4   1.7  34200  290.24 0855.18
2009/04/23 11:40:55.7      63   -342    -19    348    349 169.4  -3.3  34190  290.08 0855.18
2009/04/23 11:40:55.8      48   -312    -37    316    319 171.1  -6.7  34194  290.15 0855.18
2009/04/23 11:40:55.9      62   -305    -35    312    315 168.5  -6.5  34190  290.07 0855.18
2009/04/23 11:40:56.0      63   -276    -50    284    289 167.1 -10.1  34192  290.12 0855.16
2009/04/23 11:40:56.1      46   -262    -19    267    268 170.0  -4.1  34192  290.12 0855.16
2009/04/23 11:40:56.2     153   -274     15    315    316 150.8   2.8  34192  290.12 0855.16
2009/04/23 11:40:56.3     141   -222     49    264    269 147.5  10.6  34196  290.19 0855.16
2009/04/23 11:40:56.4      86   -180     12    200    201 154.4   3.6  34194  290.16 0855.16
2009/04/23 11:40:56.5      70   -165     58    180    190 157.1  17.9  34190  290.08 0855.16
2009/04/23 11:40:56.6     -12   -174    -12    175    176 184.0  -4.1  34196  290.19 0855.16
2009/04/23 11:40:56.7      16   -184    -43    185    190 174.9 -13.2  34198  290.21 0855.16
2009/04/23 11:40:56.8      15   -177    -25    178    180 175.1  -8.0  34198  290.21 0855.16
2009/04/23 11:40:56.9      30   -198     10    201    202 171.3   2.9  34194  290.14 0855.16
2009/04/23 11:40:57.0     121   -187      0    223    224 147.0   0.2  34190  290.09 0855.16
2009/04/23 11:40:57.1     134   -169     19    216    217 141.5   5.2  34194  290.14 0855.16
2009/04/23 11:40:57.2     139   -149     72    204    217 137.0  19.4  34194  290.16 0855.16
2009/04/23 11:40:57.3     122   -180     52    218    225 145.9  13.5  34198  290.21 0855.16
2009/04/23 11:40:57.4     128   -201    102    239    259 147.5  24.3  34200  290.26 0855.16
2009/04/23 11:40:57.5      68   -246     57    256    263 164.4  12.6  34196  290.19 0855.16
2009/04/23 11:40:57.6      57   -226     21    234    235 165.7   5.2  34196  290.17 0855.16
2009/04/23 11:40:57.7      36   -206     43    210    215 170.0  11.6  34192  290.13 0855.16
2009/04/23 11:40:57.8       9   -205     32    206    209 177.4   9.0  34194  290.14 0855.16
2009/04/23 11:40:57.9      61   -188     10    198    199 162.0   2.9  34196  290.18 0855.16
2009/04/23 11:40:58.0     129   -218     40    254    258 149.3   9.0  34204  290.32 0855.15
2009/04/23 11:40:58.1     136   -203    102    245    265 146.2  24.1  34208  290.37 0855.15
2009/04/23 11:40:58.2     100   -181     98    207    229 151.0  27.2  34208  290.38 0855.15
2009/04/23 11:40:58.3     113   -112     90    160    183 134.9  31.9  34208  290.38 0855.15
2009/04/23 11:40:58.4      71   -113     93    134    163 147.5  38.0  34210  290.43 0855.15
2009/04/23 11:40:58.5      16    -89     65     91    111 169.3  39.5  34204  290.33 0855.15
2009/04/23 11:40:58.6      17    -64     58     67     88 164.8  45.4  34204  290.33 0855.15
2009/04/23 11:40:58.7       8    -63     22     64     68 172.0  18.9  34206  290.35 0855.15
2009/04/23 11:40:58.8      72    -40     36     83     90 118.9  25.1  34208  290.38 0855.15
2009/04/23 11:40:58.9      48    -12     78     50     92 104.2  64.6  34214  290.48 0855.15
2009/04/23 11:40:59.0      15     15     53     22     57  45.0  77.1  34220  290.60 0855.15
2009/04/23 11:40:59.1     141     58     55    153    162  67.4  20.4  34204  290.33 0855.15
2009/04/23 11:40:59.2     182     67    122    195    230  69.8  35.5  34200  290.26 0855.15
2009/04/23 11:40:59.3     216     23    140    218    259  83.9  35.6  34214  290.48 0855.15
2009/04/23 11:40:59.4     141     57    219    153    267  67.8  61.7  34230  290.76 0855.15
2009/04/23 11:40:59.5     134     41    183    141    231  72.7  58.5  34226  290.70 0855.15
2009/04/23 11:40:59.6      95      0    167     96    192  90.0  67.5  34212  290.45 0855.15
2009/04/23 11:40:59.7     125    -33    169    130    213 105.0  58.5  34208  290.38 0855.15
2009/04/23 11:40:59.8       9      5     64     11     64  57.6  90.0  34218  290.57 0855.15
2009/04/23 11:40:59.9      -1     17     86     18     87 355.5  89.0  34228  290.74 0855.15
2009/04/23 11:41:00.0     -19   -140    212    142    255 188.0  62.8  34210  290.41 0855.15
2009/04/23 11:41:00.1    -115   -233    199    260    327 206.3  41.3  34204  290.32 0855.15
2009/04/23 11:41:00.2    -160   -307    167    347    385 207.6  27.3  34204  290.32 0855.15
2009/04/23 11:41:00.3    -143   -329    126    359    380 203.5  20.0  34202  290.30 0855.15
2009/04/23 11:41:00.4    -123   -262     79    290    301 205.2  15.4  34202  290.27 0855.15
2009/04/23 11:41:00.5    -124   -162    122    205    238 217.4  33.5  34204  290.33 0855.15
2009/04/23 11:41:00.6     -60   -160    109    172    203 200.7  35.5  34204  290.33 0855.15
2009/04/23 11:41:00.7     -42   -247     80    251    264 189.8  17.7  34204  290.32 0855.15
2009/04/23 11:41:00.8    -105   -220     98    244    262 205.6  23.0  34204  290.32 0855.15
2009/04/23 11:41:00.9     -97   -155    197    183    268 212.1  52.2  34218  290.56 0855.15
2009/04/23 11:41:01.0     -70   -143    172    160    234 206.3  52.2  34226  290.69 0855.17
2009/04/23 11:41:01.1     -27   -212    148    214    260 187.3  38.4  34208  290.37 0855.17
2009/04/23 11:41:01.2       5   -198     80    199    214 178.4  23.0  34208  290.40 0855.17
2009/04/23 11:41:01.3      -2   -178    100    179    205 180.9  31.6  34202  290.28 0855.17
2009/04/23 11:41:01.4     -25   -207    103    209    233 187.1  28.0  34208  290.38 0855.17
2009/04/23 11:41:01.5     -20   -183     54    185    193 186.5  16.3  34206  290.35 0855.17
2009/04/23 11:41:01.6     -31   -168    -31    172    175 190.7 -10.5  34208  290.38 0855.17
2009/04/23 11:41:01.7     -61   -104    -45    121    129 210.7 -25.4  34216  290.53 0855.17
2009/04/23 11:41:01.8       7   -100    -29    101    105 175.5 -21.2  34216  290.52 0855.17
2009/04/23 11:41:01.9      61   -169     30    181    184 160.0   9.5  34214  290.48 0855.17
2009/04/23 11:41:02.0      41   -240     24    244    246 170.3   5.7  34214  290.48 0855.17
2009/04/23 11:41:02.1    -144   -465      1    487    488 197.3   0.2  34218  290.57 0855.17
2009/04/23 11:41:02.2    -229   -384     33    448    450 210.8   4.2  34222  290.63 0855.17
2009/04/23 11:41:02.3    -115   -262     24    287    289 203.8   4.9  34224  290.65 0855.17
2009/04/23 11:41:02.4     -88   -309     71    322    330 196.0  12.5  34216  290.53 0855.17
2009/04/23 11:41:02.5     -97   -251     84    270    283 201.2  17.3  34216  290.51 0855.17
2009/04/23 11:41:02.6     -61   -236     98    244    262 194.5  23.0  34218  290.54 0855.17
2009/04/23 11:41:02.7     -97   -204    136    227    264 205.5  33.7  34214  290.48 0855.17
2009/04/23 11:41:02.8    -129      9     46    130    137 274.3  20.4  34230  290.75 0855.17
2009/04/23 11:41:02.9    -172    100    -15    200    201 300.2  -4.4  34232  290.81 0855.17
2009/04/23 11:41:03.0    -104    147    -82    181    198 324.8 -30.3  34236  290.86 0855.17
2009/04/23 11:41:03.1    -157    118    -71    197    209 307.1 -25.1  34240  290.94 0855.17
2009/04/23 11:41:03.2    -135    -19   -103    137    171 262.0 -45.3  34238  290.89 0855.17
2009/04/23 11:41:03.3    -126     27     44    130    138 282.4  18.9  34238  290.89 0855.17
2009/04/23 11:41:03.4     -43    -44     63     62     88 224.1  49.7  34242  290.98 0855.17
2009/04/23 11:41:03.5     -48    -58    128     76    148 219.7  66.7  34244  290.99 0855.17
2009/04/23 11:41:03.6      35    -79     98     87    131 155.9  54.2  34234  290.82 0855.17
2009/04/23 11:41:03.7     100    -40    128    108    167 111.8  55.6  34218  290.55 0855.17
2009/04/23 11:41:03.8       5    -43     81     44     92 172.9  69.3  34232  290.79 0855.17
2009/04/23 11:41:03.9      11     33     93     35     99  18.5  78.6  34230  290.77 0855.17
2009/04/23 11:41:04.0      -5     29     38     30     48 350.2  57.5  34234  290.84 0855.17
2009/04/23 11:41:04.1     -53     17     91     56    106 288.6  65.1  34244  290.99 0855.17
2009/04/23 11:41:04.2     -94     77     44    122    129 309.5  20.4  34236  290.87 0855.17
2009/04/23 11:41:04.3     -92     13     36     93     99 278.4  22.0  34242  290.98 0855.17
2009/04/23 11:41:04.4    -108     53     13    121    122 296.2   6.5  34236  290.87 0855.17
2009/04/23 11:41:04.5     -54    -18     97     57    112 251.4  66.8  34238  290.91 0855.17
2009/04/23 11:41:04.6    -168    -26    121    170    208 261.2  39.1  34232  290.79 0855.17
2009/04/23 11:41:04.7    -239    -67     98    249    267 254.3  22.8  34238  290.90 0855.17
2009/04/23 11:41:04.8    -240   -137     79    277    289 240.2  16.0  34246  291.04 0855.17
2009/04/23 11:41:04.9    -229   -161     97    281    298 234.9  19.2  34240  290.92 0855.17
2009/04/23 11:41:05.0    -211   -224    130    309    335 223.3  24.1  34224  290.66 0855.17
2009/04/23 11:41:05.1    -145   -213    139    258    293 214.3  30.8  34232  290.80 0855.17
2009/04/23 11:41:05.2    -169   -204    160    266    310 219.6  34.2  34244  290.99 0855.17
2009/04/23 11:41:05.3    -176   -226     11    287    288 217.9   2.3  34252  291.12 0855.17
2009/04/23 11:41:05.4     -26   -237    179    239    298 186.3  40.6  34234  290.83 0855.17
2009/04/23 11:41:05.5     -81   -236    215    250    329 199.1  45.1  34242  290.95 0855.17
2009/04/23 11:41:05.6    -175   -183    170    254    305 223.7  37.0  34262  291.29 0855.17
2009/04/23 11:41:05.7    -196   -179     98    266    283 227.7  21.0  34288  291.73 0855.17
2009/04/23 11:41:05.8    -202   -227    110    305    325 221.7  19.9  34286  291.72 0855.17
2009/04/23 11:41:05.9    -254   -240     68    350    357 226.7  11.1  34248  291.08 0855.17
2009/04/23 11:41:06.0    -125   -285    109    312    331 203.7  19.4  34246  291.02 0855.17
2009/04/23 11:41:06.1     -89   -183    148    204    252 205.9  39.5  34254  291.17 0855.17
2009/04/23 11:41:06.2     -45   -114    210    123    243 201.9  67.0  34256  291.21 0855.17
2009/04/23 11:41:06.3     -82   -109    208    137    249 217.0  63.6  34252  291.13 0855.17
2009/04/23 11:41:06.4    -128   -128    211    182    278 225.0  54.8  34250  291.09 0855.17
2009/04/23 11:41:06.5    -159    -69    160    174    236 246.5  47.5  34234  290.84 0855.17
2009/04/23 11:41:06.6    -223   -105    193    247    313 244.7  42.1  34252  291.12 0855.17
2009/04/23 11:41:06.8    -159    -34    176    163    239 257.8  52.5  34256  291.20 0855.17
2009/04/23 11:41:06.9    -231    -71    173    242    297 252.9  39.3  34258  291.22 0855.17
2009/04/23 11:41:07.0    -257    -97    127    275    302 249.2  27.0  34264  291.34 0855.17
2009/04/23 11:41:07.1    -328   -178     62    374    380 241.5   9.5  34258  291.25 0855.17
2009/04/23 11:41:07.2    -299   -167     91    343    355 240.7  14.9  34254  291.18 0855.17
2009/04/23 11:41:07.3    -323   -223     27    393    394 235.4   4.0  34248  291.06 0855.17
2009/04/23 11:41:07.4    -199   -273     66    338    345 216.1  11.1  34248  291.05 0855.17
2009/04/23 11:41:07.5     -59   -292     84    299    311 191.6  15.8  34256  291.21 0855.17
2009/04/23 11:41:07.6     -25   -251    176    253    308 185.8  38.4  34254  291.17 0855.17
2009/04/23 11:41:07.7      19   -323    238    324    402 176.5  40.0  34252  291.13 0855.17
2009/04/23 11:41:07.8     -31   -320    205    322    381 185.7  35.5  34254  291.18 0855.17
2009/04/23 11:41:07.9     -12   -292    188    293    348 182.5  35.6  34238  290.91 0855.17
2009/04/23 11:41:08.0     -39   -203    101    207    230 191.1  27.4  34250  291.11 0855.17
2009/04/23 11:41:08.1    -136   -286    164    317    356 205.5  29.4  34278  291.57 0855.17
2009/04/23 11:41:08.2    -174   -272    161    323    360 212.6  28.5  34268  291.40 0855.17
2009/04/23 11:41:08.3    -113   -233    233    259    348 205.9  46.6  34282  291.63 0855.17
2009/04/23 11:41:08.4     -96   -173    217    198    293 209.0  53.0  34282  291.65 0855.17
2009/04/23 11:41:08.5       9    -56    116     57    129 170.2  72.4  34246  291.04 0855.17
2009/04/23 11:41:08.6     -21    -13    194     25    195 237.6  90.0  34244  291.01 0855.17
2009/04/23 11:41:08.7     -95    -65    149    116    188 235.8  58.2  34230  290.77 0855.17
2009/04/23 11:41:08.8    -101    128    151    164    222 321.7  47.9  34238  290.91 0855.17
2009/04/23 11:41:08.9    -186     50    112    193    223 285.1  32.9  34242  290.96 0855.17
2009/04/23 11:41:09.0    -182    -70     81    196    212 248.9  23.6  34230  290.77 0855.17
2009/04/23 11:41:09.1    -224    -52     91    231    248 256.8  22.5  34240  290.92 0855.16
2009/04/23 11:41:09.2    -257     94     64    274    282 290.2  13.2  34232  290.78 0855.16
2009/04/23 11:41:09.3    -229     36     64    232    241 279.0  15.6  34222  290.63 0855.16
2009/04/23 11:41:09.4    -206     36    156    210    261 279.9  40.1  34234  290.83 0855.16
2009/04/23 11:41:09.5    -197    -44    189    202    276 257.4  47.9  34248  291.07 0855.16
2009/04/23 11:41:09.6    -180    -48    127    187    226 254.9  37.4  34236  290.87 0855.16
2009/04/23 11:41:09.7    -183    -46    164    189    250 255.8  45.4  34234  290.82 0855.16
2009/04/23 11:41:09.8    -133     62     31    147    151 295.2  12.2  34230  290.75 0855.16
2009/04/23 11:41:09.9    -140    -71      1    158    159 242.9   0.5  34238  290.89 0855.16
2009/04/23 11:41:10.0    -155    -34     72    159    174 257.6  26.2  34236  290.87 0855.16
2009/04/23 11:41:10.1    -161    -84     45    182    188 242.2  13.9  34240  290.92 0855.16
2009/04/23 11:41:10.2     -80     30    -27     86     90 290.8 -22.8  34232  290.81 0855.16
2009/04/23 11:41:10.3     -42     45     47     62     77 316.8  40.7  34244  290.99 0855.16
2009/04/23 11:41:10.4      14     41     10     44     46  19.2  13.2  34236  290.87 0855.16
2009/04/23 11:41:10.5      24    124     54    127    138  11.1  24.1  34240  290.92 0855.16
2009/04/23 11:41:10.6       7     71    117     72    137   6.2  65.1  34248  291.06 0855.16
2009/04/23 11:41:10.7      13     16     88     21     90  39.6  87.5  34244  290.99 0855.16
2009/04/23 11:41:10.8     -51    198    142    205    249 345.5  38.0  34242  290.97 0855.16
2009/04/23 11:41:10.9    -121    199    150    234    277 328.6  35.6  34254  291.16 0855.16
2009/04/23 11:41:11.0    -200    202    107    285    304 315.2  21.5  34256  291.21 0855.16
2009/04/23 11:41:11.1    -205    221     19    302    303 317.2   3.6  34260  291.27 0855.17
2009/04/23 11:41:11.2    -192    190     63    271    279 314.7  13.2  34242  290.97 0855.17
2009/04/23 11:41:11.3    -238    115     47    265    270 295.8  10.1  34242  290.97 0855.17
2009/04/23 11:41:11.4    -187    175    170    257    308 313.1  36.5  34242  290.97 0855.17
2009/04/23 11:41:11.5    -201     34    101    204    227 279.7  28.0  34238  290.91 0855.17
2009/04/23 11:41:11.6    -341    -41    105    344    360 263.0  17.0  34234  290.83 0855.17
2009/04/23 11:41:11.7    -337    -20     83    338    349 266.6  13.9  34240  290.94 0855.17
2009/04/23 11:41:11.8    -324    -88     63    336    342 254.8  10.7  34242  290.98 0855.17
2009/04/23 11:41:11.9    -279    -97     30    296    298 250.7   5.9  34246  291.02 0855.17
2009/04/23 11:41:12.0    -280    -78     36    291    294 254.3   7.1  34242  290.97 0855.17
2009/04/23 11:41:12.1    -118   -138     20    182    184 220.5   6.5  34234  290.82 0855.17
2009/04/23 11:41:12.2     -65   -163     51    176    184 201.8  16.3  34234  290.84 0855.17
2009/04/23 11:41:12.3     -42   -209    -23    214    216 191.6  -6.2  34232  290.79 0855.17
2009/04/23 11:41:12.4     -42   -229    -75    233    245 190.5 -17.9  34232  290.78 0855.17
2009/04/23 11:41:12.5     -59   -289    -46    296    300 191.6  -9.0  34236  290.85 0855.17
2009/04/23 11:41:12.6       4   -317    -44    318    321 179.1  -7.9  34240  290.93 0855.17
2009/04/23 11:41:12.7     124   -283   -119    310    332 156.3 -26.4  34232  290.80 0855.17
2009/04/23 11:41:12.8     147   -243     24    285    287 148.8   5.0  34242  290.97 0855.17
2009/04/23 11:41:12.9     211   -190    -46    285    289 132.0  -9.3  34244  291.00 0855.17
2009/04/23 11:41:13.0     194   -140     12    240    241 125.9   2.9  34252  291.12 0855.17
2009/04/23 11:41:13.1     191   -107    -12    220    221 119.3  -3.1  34250  291.09 0855.16
2009/04/23 11:41:13.2      67   -168   -102    182    208 158.2 -36.0  34258  291.23 0855.16
2009/04/23 11:41:13.3      41   -189   -131    194    234 167.7 -41.4  34266  291.38 0855.16
2009/04/23 11:41:13.4     212   -212   -101    301    317 135.0 -23.6  34258  291.22 0855.16
2009/04/23 11:41:13.5     150   -166   -136    225    262 137.9 -38.6  34268  291.39 0855.16
2009/04/23 11:41:13.6     215    -36    -79    219    232  99.6 -24.8  34254  291.16 0855.16
2009/04/23 11:41:13.7     221      3    -69    222    232  89.2 -22.3  34262  291.30 0855.16
2009/04/23 11:41:13.8     285    -12    -51    286    291  92.6 -10.1  34262  291.31 0855.16
2009/04/23 11:41:13.9     207   -131     34    246    249 122.4   8.0  34260  291.27 0855.16
2009/04/23 11:41:14.0     141    -42      7    148    149 106.8   2.9  34256  291.21 0855.16
2009/04/23 11:41:14.1     147      0     60    148    159  90.0  23.4  34232  290.79 0855.16
2009/04/23 11:41:14.2     160    -31     23    163    165 101.0   8.2  34252  291.15 0855.16
2009/04/23 11:41:14.3     206     22      4    208    209  83.9   1.2  34220  290.60 0855.16
2009/04/23 11:41:14.4     181     76    106    197    223  67.2  30.8  34236  290.87 0855.16
2009/04/23 11:41:14.5     165     45    138    172    220  74.5  43.3  34262  291.32 0855.16
2009/04/23 11:41:14.6     188    103    164    215    270  61.1  41.2  34260  291.26 0855.16
2009/04/23 11:41:14.7     232    134    131    269    299  60.0  27.8  34244  290.99 0855.16
2009/04/23 11:41:14.8     238    130    131    272    301  61.4  27.3  34250  291.09 0855.16
2009/04/23 11:41:14.9     256    143    100    294    311  60.7  18.9  34246  291.04 0855.16
2009/04/23 11:41:15.0     258     81    124    271    298  72.5  26.2  34242  290.97 0855.16
2009/04/23 11:41:15.1     196     62    146    206    252  72.5  38.6  34252  291.14 0855.15
2009/04/23 11:41:15.2     188    100    189    214    285  62.0  45.9  34252  291.14 0855.15
2009/04/23 11:41:15.3     220     55    120    227    256  75.8  30.2  34228  290.73 0855.15
2009/04/23 11:41:15.4     196     62    153    206    256  72.5  40.1  34254  291.16 0855.15
2009/04/23 11:41:15.5     132     44    177    140    225  71.6  57.5  34256  291.20 0855.15
2009/04/23 11:41:15.6     175     26    169    177    244  81.4  49.0  34262  291.30 0855.15
2009/04/23 11:41:15.7     132     44    177    140    225  71.4  57.5  34284  291.67 0855.15
2009/04/23 11:41:15.8     120     82    183    146    234  55.8  57.1  34306  292.06 0855.15
2009/04/23 11:41:15.9      98     87    143    132    194  48.6  52.2  34286  291.71 0855.15
2009/04/23 11:41:16.0     125     61    159    140    211  63.8  54.3  34290  291.79 0855.15
2009/04/23 11:41:16.1      61     96    118    114    164  32.5  50.7  34300  291.95 0855.15
2009/04/23 11:41:16.2      12     91    123     92    153   7.6  60.0  34290  291.79 0855.15
2009/04/23 11:41:16.3      -6     17     87     19     89 341.3  88.0  34286  291.72 0855.15
2009/04/23 11:41:16.4      22     82     76     85    114  15.1  46.9  34258  291.23 0855.15
2009/04/23 11:41:16.5       1    107     56    108    121   0.9  29.3  34238  290.89 0855.15
2009/04/23 11:41:16.6     -24     73     81     78    112 341.3  51.2  34262  291.30 0855.15
2009/04/23 11:41:16.7     -78     58    107     98    145 306.4  52.2  34264  291.33 0855.15
2009/04/23 11:41:16.8     -98     86    125    131    181 311.3  48.7  34282  291.64 0855.15
2009/04/23 11:41:16.9     -35     34    102     50    113 314.0  72.4  34300  291.95 0855.15
2009/04/23 11:41:17.0       4     57     82     58    100   4.4  61.1  34298  291.91 0855.15
2009/04/23 11:41:17.1     -38    110    101    117    154 340.8  45.4  34274  291.52 0855.17
2009/04/23 11:41:17.2     -91    103     85    138    162 318.6  34.4  34282  291.64 0855.17
2009/04/23 11:41:17.3     -68    106     39    127    133 327.4  17.3  34300  291.95 0855.17
2009/04/23 11:41:17.4     -71     90    109    115    158 321.7  48.7  34308  292.08 0855.17
2009/04/23 11:41:17.5     -91    110    123    143    188 320.4  44.8  34316  292.22 0855.17
2009/04/23 11:41:17.6    -120     52     89    131    158 293.5  37.6  34324  292.37 0855.17
2009/04/23 11:41:17.7     -92     39     72    101    124 293.1  39.1  34322  292.32 0855.17
2009/04/23 11:41:17.8     -80     49     16     94     96 301.5  10.1  34266  291.38 0855.17
2009/04/23 11:41:17.9    -119     55      6    132    133 294.8   2.9  34254  291.16 0855.17
2009/04/23 11:41:18.0    -133     84    -25    158    160 302.4  -9.0  34252  291.13 0855.17
2009/04/23 11:41:18.1    -149    115    -24    189    191 307.5  -7.3  34250  291.11 0855.17
2009/04/23 11:41:18.2     -94    219    -57    239    246 336.8 -13.4  34264  291.33 0855.17
2009/04/23 11:41:18.3    -180    153    -72    237    248 310.4 -17.0  34242  290.97 0855.17
2009/04/23 11:41:18.4    -194    132    -71    235    245 304.2 -21.8  34228  290.71 0855.17
2009/04/23 11:41:18.5    -127    175    -93    217    236 324.2 -29.0  34222  290.62 0855.17
2009/04/23 11:41:18.6     -72    246   -117    257    282 343.7 -30.6  34216  290.53 0855.17
2009/04/23 11:41:18.7    -240    263   -112    357    375 317.6 -17.5  34196  290.18 0855.17
2009/04/23 11:41:18.8    -226    193   -165    298    340 310.5 -35.8  34222  290.61 0855.17
2009/04/23 11:41:18.9     -25    223     17    225    226 353.5   4.4  34234  290.84 0855.17
2009/04/23 11:41:19.0     -62    322     35    329    331 349.0   6.1  34216  290.52 0855.17
2009/04/23 11:41:19.1     -49    343     45    347    350 351.8   7.5  34250  291.10 0855.17
2009/04/23 11:41:19.2      40    291     25    294    296   8.0   4.9  34268  291.39 0855.17
2009/04/23 11:41:19.3     -66    324    102    331    347 348.4  17.2  34226  290.69 0855.17
2009/04/23 11:41:19.4    -116    277    -21    301    302 337.2  -4.1  34204  290.31 0855.17
2009/04/23 11:41:19.5    -421    249     23    490    491 300.6   2.8  34226  290.69 0855.17
2009/04/23 11:41:19.6     -88    266    -10    281    282 341.5  -2.2  34216  290.51 0855.17
2009/04/23 11:41:19.7    -310     39   -176    313    359 277.2 -36.1  34266  291.37 0855.17
2009/04/23 11:41:19.8    -314      0   -115    315    335 270.0 -25.4  34250  291.10 0855.17
2009/04/23 11:41:19.9    -149    138    -66    204    215 312.9 -17.9  34262  291.30 0855.17
2009/04/23 11:41:20.0     -94     94    -25    134    137 315.0 -10.9  34250  291.09 0855.17
2009/04/23 11:41:20.1    -190    269    237    330    406 324.7  39.2  34244  291.00 0855.17
2009/04/23 11:41:20.2    -294    235    199    377    426 308.6  30.2  34258  291.24 0855.17
2009/04/23 11:41:20.3    -462     81   -126    470    487 280.0 -15.1  34266  291.37 0855.17
2009/04/23 11:41:20.4    -403    -10   -159    404    434 268.5 -27.1  34258  291.24 0855.17
2009/04/23 11:41:20.5    -309   -121   -153    332    365 248.6 -30.9  34246  291.03 0855.17
2009/04/23 11:41:20.6    -305     -9    -75    306    316 268.3 -13.8  34256  291.21 0855.17
2009/04/23 11:41:20.7    -372    -31     53    374    378 265.2   8.1  34268  291.40 0855.17
2009/04/23 11:41:20.8    -275    -83    103    288    305 253.2  20.4  34272  291.48 0855.17
2009/04/23 11:41:20.9    -253    -99    103    272    290 248.5  21.5  34272  291.46 0855.17
2009/04/23 11:41:21.0    -208    -74    121    222    252 250.3  31.0  34276  291.55 0855.17
2009/04/23 11:41:21.1    -221    -72     41    233    237 251.8  10.1  34274  291.50 0855.18
2009/04/23 11:41:21.2    -213     36    108    217    242 279.7  28.5  34274  291.50 0855.18
2009/04/23 11:41:21.3    -180     48    165    187    249 285.0  45.9  34290  291.79 0855.18
2009/04/23 11:41:21.4     -99     98    155    140    208 314.6  53.3  34302  292.00 0855.18
2009/04/23 11:41:21.5    -320     55    139    325    353 279.9  24.8  34294  291.85 0855.18
2009/04/23 11:41:21.6    -363    -27     74    364    372 265.7  11.5  34294  291.85 0855.18
2009/04/23 11:41:21.7    -403   -142     53    428    432 250.6   7.1  34312  292.16 0855.18
2009/04/23 11:41:21.8    -250   -240    144    347    375 226.2  23.7  34314  292.19 0855.18
2009/04/23 11:41:21.9    -244   -316    161    400    431 217.8  23.1  34300  291.94 0855.18
2009/04/23 11:41:22.0    -318   -326    265    456    527 224.2  32.9  34282  291.66 0855.18
2009/04/23 11:41:22.1    -365   -295    205    470    512 231.0  25.1  34292  291.81 0855.18
2009/04/23 11:41:22.2    -166   -279    291    325    436 210.8  46.5  34286  291.72 0855.18
2009/04/23 11:41:22.3    -250   -280    221    376    436 221.7  33.3  34272  291.48 0855.18
2009/04/23 11:41:22.4    -176   -212    151    276    314 219.7  30.9  34270  291.44 0855.18
2009/04/23 11:41:22.5     -53   -142    159    152    219 200.5  51.4  34276  291.54 0855.18
2009/04/23 11:41:22.6      -9    -64     96     65    115 188.0  63.6  34278  291.59 0855.18
2009/04/23 11:41:22.7     -58     79    107     99    145 323.5  52.2  34278  291.59 0855.18
2009/04/23 11:41:22.8     -56     16    113     59    127 285.9  70.8  34272  291.49 0855.18
2009/04/23 11:41:22.9      -2    -52     44     53     68 182.7  43.8  34258  291.23 0855.18
2009/04/23 11:41:23.0      44     44     16     63     66  45.0  14.3  34260  291.26 0855.18
2009/04/23 11:41:23.1      46    -83     64     95    114 151.0  36.5  34254  291.18 0855.19
2009/04/23 11:41:23.2      56   -154     81    164    182 160.0  28.0  34258  291.25 0855.19
2009/04/23 11:41:23.3      19   -124     74    126    146 171.1  33.5  34250  291.11 0855.19
2009/04/23 11:41:23.4      62   -111     59    128    140 151.0  26.6  34254  291.18 0855.19
2009/04/23 11:41:23.5      59   -112     98    127    160 151.9  41.7  34258  291.23 0855.19
2009/04/23 11:41:23.6      26   -102     -5    106    107 165.3  -3.1  34252  291.15 0855.19
2009/04/23 11:41:23.7     -26   -128    -88    131    157 191.6 -41.4  34252  291.15 0855.19
2009/04/23 11:41:23.8      82    -48    -68     96    117 120.2 -43.9  34256  291.21 0855.19
2009/04/23 11:41:23.9     -91     29    -61     96    113 288.2 -39.9  34252  291.13 0855.19
2009/04/23 11:41:24.0    -132     44    -39    140    146 288.6 -15.5  34262  291.30 0855.19
2009/04/23 11:41:24.1     -65    -31    -68     73     99 244.6 -52.4  34260  291.28 0855.19
2009/04/23 11:41:24.2      29   -101    -70    106    127 164.0 -40.9  34260  291.28 0855.19
2009/04/23 11:41:24.3      78    -75    -43    109    117 134.0 -26.9  34262  291.30 0855.19
2009/04/23 11:41:24.4     126    -51     15    137    138 112.2   6.5  34268  291.42 0855.19
2009/04/23 11:41:24.5     142   -138     72    199    211 134.2  20.7  34276  291.55 0855.19
2009/04/23 11:41:24.6      64   -194    138    205    247 161.7  37.0  34276  291.55 0855.19
2009/04/23 11:41:24.7      -8   -283    137    284    315 181.8  27.7  34272  291.48 0855.19
2009/04/23 11:41:24.8    -137   -342     86    369    380 201.9  13.2  34262  291.32 0855.19
2009/04/23 11:41:24.9    -113   -342     10    361    362 198.3   1.7  34260  291.27 0855.19
2009/04/23 11:41:25.0      -2   -296    -59    297    303 180.5 -11.3  34250  291.10 0855.19
2009/04/23 11:41:25.1     103   -306     83    324    335 161.3  14.5  34252  291.13 0855.19
2009/04/23 11:41:25.2     -79   -215    -20    230    231 200.3  -5.2  34242  290.98 0855.19
2009/04/23 11:41:25.3      53   -160   -173    169    241 161.5 -55.1  34256  291.21 0855.19
2009/04/23 11:41:25.4    -124   -117    -82    171    189 226.7 -31.7  34242  290.96 0855.19
2009/04/23 11:41:25.5    -335   -171      8    377    378 242.9   1.2  34250  291.11 0855.19
2009/04/23 11:41:25.6    -146   -130    -85    196    213 228.4 -29.3  34254  291.18 0855.19
2009/04/23 11:41:25.7    -209   -314     93    378    390 213.6  13.9  34252  291.15 0855.19
2009/04/23 11:41:25.8    -394   -295      8    493    494 233.2   1.0  34272  291.46 0855.19
2009/04/23 11:41:25.9    -411   -361    -11    548    549 228.7  -1.2  34268  291.42 0855.19
2009/04/23 11:41:26.0    -205   -431    -19    478    479 205.5  -2.3  34268  291.41 0855.19
2009/04/23 11:41:26.1    -241   -461     25    521    522 207.6   2.8  34262  291.31 0855.19
2009/04/23 11:41:26.2      16   -361     31    362    364 177.3   5.0  34234  290.84 0855.19
2009/04/23 11:41:26.3       7   -356     99    357    371 178.8  15.6  34238  290.89 0855.19
2009/04/23 11:41:26.4      14   -377     13    378    379 177.8   2.1  34246  291.03 0855.19
2009/04/23 11:41:26.5       0   -312     27    313    315 179.9   5.1  34246  291.04 0855.19
2009/04/23 11:41:26.6     -55   -271    142    277    311 191.6  29.3  34248  291.07 0855.19
2009/04/23 11:41:26.7     -50   -323    112    327    346 188.8  18.9  34250  291.11 0855.19
2009/04/23 11:41:26.8     103   -304    120    322    343 161.3  21.5  34250  291.11 0855.19
2009/04/23 11:41:26.9      57   -269    158    276    318 168.0  32.4  34252  291.12 0855.19
2009/04/23 11:41:27.0       9   -232    161    233    283 177.8  37.8  34256  291.19 0855.19
2009/04/23 11:41:27.1      15   -232    123    233    263 176.2  30.2  34256  291.19 0855.19
2009/04/23 11:41:27.2      37   -182    146    186    236 168.2  42.2  34246  291.04 0855.19
2009/04/23 11:41:27.3      51   -183    147    190    240 164.4  41.7  34256  291.21 0855.19
2009/04/23 11:41:27.4      64   -206    150    216    262 162.6  38.4  34256  291.21 0855.19
2009/04/23 11:41:27.5     -40   -236    173    240    295 189.8  39.5  34252  291.12 0855.19
2009/04/23 11:41:27.6     -78   -272    116    284    306 196.0  23.1  34252  291.12 0855.19
2009/04/23 11:41:27.7    -115   -253    112    279    300 204.5  23.0  34248  291.05 0855.19
2009/04/23 11:41:27.8     -57   -225    109    233    257 194.3  27.0  34250  291.09 0855.19
2009/04/23 11:41:27.9     -66   -193     92    205    224 198.9  25.7  34244  291.01 0855.19
2009/04/23 11:41:28.0     -36   -155     97    160    187 193.3  34.2  34242  290.98 0855.19
2009/04/23 11:41:28.1    -121   -189     82    225    239 212.6  20.9  34244  290.99 0855.20
2009/04/23 11:41:28.2    -127   -212    101    248    267 211.0  23.1  34244  290.99 0855.20
2009/04/23 11:41:28.3     -90   -227    111    245    268 201.6  26.2  34246  291.02 0855.20
2009/04/23 11:41:28.4     -74   -180     90    195    214 202.3  26.6  34248  291.06 0855.20
2009/04/23 11:41:28.5     -65   -198     87    209    226 198.3  23.8  34242  290.98 0855.20
2009/04/23 11:41:28.6     -88   -274    119    288    311 197.8  23.6  34240  290.93 0855.20
2009/04/23 11:41:28.7    -106   -310    123    328    350 198.9  21.4  34240  290.93 0855.20
2009/04/23 11:41:28.8     -85   -202     95    220    239 202.9  24.9  34240  290.93 0855.20
2009/04/23 11:41:28.9    -107   -254     75    276    287 202.9  15.3  34236  290.87 0855.20
2009/04/23 11:41:29.0     -79   -312     46    323    327 194.3   8.1  34238  290.88 0855.20
2009/04/23 11:41:29.1     -55   -291     95    297    312 190.7  17.8  34240  290.93 0855.20
2009/04/23 11:41:29.2     -61   -310     84    317    329 191.2  14.9  34236  290.87 0855.20
2009/04/23 11:41:29.3    -100   -263     44    282    286 201.0   8.9  34240  290.93 0855.20
2009/04/23 11:41:29.4    -105   -262     78    283    294 201.8  15.6  34238  290.88 0855.20
2009/04/23 11:41:29.5     -96   -284     42    300    304 198.7   8.0  34236  290.85 0855.20
2009/04/23 11:41:29.6    -135   -294     42    324    327 204.7   7.5  34234  290.82 0855.20
2009/04/23 11:41:29.7    -124   -351     32    373    375 199.5   5.0  34232  290.81 0855.20
2009/04/23 11:41:29.8    -102   -319     17    336    337 197.8   3.0  34230  290.76 0855.20
2009/04/23 11:41:29.9     -65   -296     -6    304    305 192.5  -1.2  34238  290.90 0855.20
2009/04/23 11:41:30.0     -45   -290     -1    294    295 188.9  -0.3  34234  290.82 0855.20
2009/04/23 11:41:30.1     -29   -382      0    384    385 184.5   0.1  34228  290.74 0855.20
2009/04/23 11:41:30.2     118   -284    199    308    366 157.3  35.7  34234  290.84 0855.20
2009/04/23 11:41:30.3     181   -193    193    265    327 136.8  39.8  34236  290.85 0855.20
2009/04/23 11:41:30.5     155   -293    217    332    396 152.1  36.4  34230  290.77 0855.20
2009/04/23 11:41:30.6      89   -249    257    265    369 160.2  49.3  34234  290.83 0855.20
2009/04/23 11:41:30.6      87    -83    235    121    264 133.6  70.8  34236  290.86 0855.20
2009/04/23 11:41:30.7     309   -188    230    362    428 121.3  35.5  34230  290.75 0855.20
2009/04/23 11:41:30.8     235   -384    176    451    484 148.6  22.4  34228  290.73 0855.20
2009/04/23 11:41:30.9     184   -420    130    459    478 156.3  15.8  34232  290.81 0855.20
2009/04/23 11:41:31.0     310   -395    198    503    540 141.9  22.8  34222  290.63 0855.20
2009/04/23 11:41:31.1     357   -371     64    515    519 136.1   7.1  34224  290.66 0855.20
2009/04/23 11:41:31.2     327   -324      8    461    462 134.8   1.1  34228  290.72 0855.20
2009/04/23 11:41:31.3     467   -435     48    639    641 133.0   4.4  34212  290.45 0855.20
2009/04/23 11:41:31.4     361   -407    -21    545    546 138.5  -2.2  34208  290.40 0855.20
2009/04/23 11:41:31.5     149   -270    -89    309    321 151.1 -21.0  34232  290.78 0855.20
2009/04/23 11:41:31.6      91   -276    130    291    318 161.7  25.7  34210  290.42 0855.20
2009/04/23 11:41:31.8     215   -418    -40    471    473 152.7  -4.9  34228  290.71 0855.20
2009/04/23 11:41:31.8      91   -345    129    357    380 165.1  19.9  34220  290.59 0855.20
2009/04/23 11:41:31.9     159   -404     99    435    447 158.4  12.9  34238  290.89 0855.20
2009/04/23 11:41:32.0     134   -372     54    396    400 160.2   7.8  34228  290.74 0855.20
2009/04/23 11:41:32.1     166   -432    149    463    487 159.0  17.9  34218  290.56 0855.20
2009/04/23 11:41:32.2      58   -391    141    396    421 171.5  19.6  34210  290.43 0855.20
2009/04/23 11:41:32.3       1   -332    137    333    360 179.7  23.6  34214  290.50 0855.20
2009/04/23 11:41:32.4     -23   -306     87    307    320 184.4  15.8  34220  290.58 0855.20
2009/04/23 11:41:32.5      14   -341     11    342    343 177.5   1.9  34212  290.45 0855.20
2009/04/23 11:41:32.6     145   -400    -16    426    427 160.0  -2.2  34222  290.61 0855.20
2009/04/23 11:41:32.7     266   -355     -8    444    445 143.1  -1.2  34222  290.63 0855.20
2009/04/23 11:41:32.8     167   -297      4    342    343 150.6   0.7  34212  290.45 0855.20
2009/04/23 11:41:33.0     268   -358   -136    448    469 143.2 -17.0  34210  290.43 0855.20
2009/04/23 11:41:33.0     238   -507    -10    561    562 154.8  -1.1  34206  290.36 0855.20
2009/04/23 11:41:33.1     287   -529     40    603    605 151.5   3.8  34200  290.24 0855.20
2009/04/23 11:41:33.2     182   -529     27    560    561 160.9   2.8  34194  290.16 0855.20
2009/04/23 11:41:33.3     111   -685      9    695    696 170.8   0.8  34218  290.55 0855.20
2009/04/23 11:41:33.5      48   -566   -134    569    585 175.1 -13.3  34206  290.36 0855.20
2009/04/23 11:41:33.5    -137   -421   -196    443    484 198.0 -30.0  34212  290.47 0855.20
2009/04/23 11:41:33.6      67   -563   -206    567    603 173.2 -25.3  34208  290.39 0855.20
2009/04/23 11:41:33.7     -30   -728   -258    729    774 182.4 -19.5  34192  290.11 0855.20
2009/04/23 11:41:33.8     -82   -775   -209    780    808 186.1 -15.1  34192  290.13 0855.20
2009/04/23 11:41:34.0     -25   -715   -224    716    750 182.0 -22.4  34180  289.92 0855.20
2009/04/23 11:41:34.1     -91   -805   -247    811    847 186.5 -21.8  34196  290.18 0855.21
2009/04/23 11:41:34.2    -225   -644   -132    683    696 199.3 -11.0  34200  290.26 0855.21
2009/04/23 11:41:34.3    -110   -590   -248    601    650 190.6 -28.1  34186  290.01 0855.21
2009/04/23 11:41:34.3     -15   -644   -239    645    687 181.4 -25.8  34176  289.83 0855.21
2009/04/23 11:41:34.4     -21   -711   -205    712    740 181.7 -20.8  34182  289.96 0855.21
2009/04/23 11:41:34.6    -184   -629   -233    656    696 196.3 -24.7  34184  289.97 0855.21
2009/04/23 11:41:34.7     -72   -563   -217    568    608 187.3 -26.4  34200  290.24 0855.21
2009/04/23 11:41:34.8       1   -617   -207    618    653 179.9 -18.6  34192  290.11 0855.21
2009/04/23 11:41:34.9      41   -596   -119    598    610 176.0 -11.3  34178  289.88 0855.21
2009/04/23 11:41:35.0     -16   -630   -255    631    680 181.5 -27.6  34178  289.87 0855.21
2009/04/23 11:41:35.1      35   -587   -211    589    625 176.5 -25.0  34178  289.88 0855.21
2009/04/23 11:41:35.2     170   -506   -187    534    566 161.4 -19.3  34180  289.92 0855.21
2009/04/23 11:41:35.3      88   -484   -158    492    516 169.7 -22.9  34190  290.08 0855.21
2009/04/23 11:41:35.4     283   -500   -184    575    603 150.5 -22.9  34170  289.73 0855.21
2009/04/23 11:41:35.5     197   -439   -208    482    524 155.8 -29.4  34176  289.84 0855.21
2009/04/23 11:41:35.6     272   -561   -175    624    648 154.1 -20.3  34164  289.64 0855.21
2009/04/23 11:41:35.7     339   -660   -173    742    762 152.8 -13.2  34160  289.56 0855.21
2009/04/23 11:41:35.8     291   -717   -101    774    781 157.9  -7.5  34166  289.69 0855.21
2009/04/23 11:41:35.9     270   -685   -178    737    759 158.5 -13.6  34164  289.63 0855.21
2009/04/23 11:41:36.0     207   -727   -178    756    777 164.1 -13.3  34166  289.68 0855.21
2009/04/23 11:41:36.1     344   -560   -102    658    666 148.5  -8.8  34156  289.51 0855.21
2009/04/23 11:41:36.2     401   -554    -38    685    687 144.1  -3.2  34156  289.49 0855.23
2009/04/23 11:41:36.3     443   -528    -19    690    691 140.0  -1.6  34160  289.58 0855.23
2009/04/23 11:41:36.4     197   -472   -182    512    544 157.3 -19.6  34160  289.58 0855.23
2009/04/23 11:41:36.5     190   -605   -215    635    670 162.6 -23.8  34172  289.78 0855.23
2009/04/23 11:41:36.6     158   -663   -182    682    706 166.6 -15.0  34180  289.91 0855.23
2009/04/23 11:41:36.7     111   -762   -253    771    812 171.7 -18.2  34176  289.83 0855.23
2009/04/23 11:41:36.8     111   -761   -222    770    802 171.7 -16.1  34178  289.86 0855.23
2009/04/23 11:41:36.9      90   -784   -122    790    800 173.4  -8.8  34182  289.93 0855.23
2009/04/23 11:41:37.0      40   -853    -44    855    857 177.3  -3.0  34166  289.66 0855.23
2009/04/23 11:41:37.1     -58   -807    -31    809    810 184.1  -2.2  34166  289.67 0855.23
2009/04/23 11:41:37.2     -57   -746    -94    748    754 184.4  -7.2  34144  289.31 0855.23
2009/04/23 11:41:37.3    -141   -648   -184    664    690 192.3 -15.5  34166  289.68 0855.23
2009/04/23 11:41:37.4      57   -621   -121    624    636 174.7 -11.0  34166  289.67 0855.23
2009/04/23 11:41:37.5      87   -615   -132    622    636 171.9 -12.0  34164  289.65 0855.23
2009/04/23 11:41:37.6     -69   -634    -12    638    639 186.3  -1.1  34162  289.59 0855.23
2009/04/23 11:41:37.7    -220   -601    -36    641    643 200.1  -3.3  34172  289.79 0855.23
2009/04/23 11:41:37.8    -145   -572    -68    591    595 194.3  -6.6  34170  289.73 0855.23
2009/04/23 11:41:37.9     -51   -466    -51    469    472 186.3  -6.2  34162  289.61 0855.23
2009/04/23 11:41:38.0     -46   -547    -30    550    551 184.9  -3.1  34172  289.77 0855.23
2009/04/23 11:41:38.1     -41   -695    -46    697    699 183.4  -3.8  34172  289.76 0855.23
2009/04/23 11:41:38.2      40   -654   -122    656    668 176.5 -10.6  34176  289.83 0855.26
2009/04/23 11:41:38.3    -124   -501   -166    517    542 193.9 -22.9  34186  290.01 0855.26
2009/04/23 11:41:38.4     -63   -500   -110    504    517 187.2 -12.4  34172  289.76 0855.26
2009/04/23 11:41:38.5    -144   -351    -74    380    388 202.4 -11.1  34178  289.87 0855.26
2009/04/23 11:41:38.6    -100   -230    -55    252    259 203.6 -12.4  34176  289.85 0855.26
2009/04/23 11:41:38.7       2   -308    -85    309    321 179.5 -15.5  34182  289.93 0855.26
2009/04/23 11:41:38.8     163   -294   -102    337    353 151.0 -16.8  34176  289.84 0855.26
2009/04/23 11:41:38.9      47   -377    -81    381    390 172.8 -12.0  34182  289.93 0855.26
2009/04/23 11:41:39.0      64   -413   -113    419    435 171.1 -15.2  34170  289.75 0855.26
2009/04/23 11:41:39.1      75   -408   -132    415    435 169.5 -22.8  34180  289.90 0855.26
2009/04/23 11:41:39.2      26   -427   -169    428    460 176.5 -27.3  34180  289.92 0855.26
2009/04/23 11:41:39.3      78   -385   -183    393    433 168.5 -31.3  34180  289.90 0855.26
2009/04/23 11:41:39.4      60   -295   -133    302    329 168.4 -29.7  34178  289.88 0855.26
2009/04/23 11:41:39.5      35   -274   -185    277    333 172.7 -41.3  34176  289.85 0855.26
2009/04/23 11:41:39.6     137   -166   -134    216    254 140.6 -39.4  34170  289.73 0855.26
2009/04/23 11:41:39.7     278   -182    -81    333    343 123.3 -13.8  34174  289.82 0855.26
2009/04/23 11:41:39.8     259    -69      7    269    270 105.1   1.6  34176  289.83 0855.26
2009/04/23 11:41:39.9     218      6     27    219    221  88.3   7.1  34170  289.75 0855.26
2009/04/23 11:41:40.0     205    -81    145    221    264 111.5  36.3  34176  289.85 0855.26
2009/04/23 11:41:40.1     166    -31    213    169    271 100.6  57.5  34178  289.86 0855.26
2009/04/23 11:41:40.2      30      3    122     31    125  83.9  85.9  34192  290.11 0855.28
2009/04/23 11:41:40.3      11   -141    156    142    210 175.5  53.0  34184  289.99 0855.28
2009/04/23 11:41:40.4       2     28    200     29    202   4.4  90.0  34184  289.99 0855.28
2009/04/23 11:41:40.5      30     75    198     81    213  21.9  77.0  34192  290.13 0855.28
2009/04/23 11:41:40.6     156      0    230    157    278  90.0  62.6  34184  289.98 0855.28
2009/04/23 11:41:40.7     252     26    259    254    362  83.9  50.6  34178  289.89 0855.28
2009/04/23 11:41:40.8     153     41    247    159    293  75.0  64.6  34178  289.88 0855.28
2009/04/23 11:41:40.9     284   -236    237    370    439 129.6  35.6  34172  289.77 0855.28
2009/04/23 11:41:41.0     260   -262    296    370    473 135.2  42.8  34176  289.83 0855.28
2009/04/23 11:41:41.1     137   -127    252    188    314 132.9  59.7  34184  289.97 0855.28
2009/04/23 11:41:41.2     275   -125    245    303    389 114.4  43.1  34178  289.89 0855.28
2009/04/23 11:41:41.3     181     72    224    195    296  68.3  54.3  34168  289.71 0855.28
2009/04/23 11:41:41.4     189     76    401    204    449  68.0  71.0  34186  290.01 0855.28
2009/04/23 11:41:41.5     326      2    268    327    422  89.6  43.7  34176  289.84 0855.28
2009/04/23 11:41:41.6     180     40    341    185    387  77.2  69.2  34198  290.23 0855.28
2009/04/23 11:41:41.7     170    159    366    233    433  46.9  64.7  34198  290.20 0855.28
2009/04/23 11:41:41.8     402     38    323    404    517  84.6  42.8  34178  289.86 0855.28
2009/04/23 11:41:41.9     101    -37    219    108    244 110.4  71.9  34192  290.13 0855.28
2009/04/23 11:41:42.0    -216    -71    249    228    337 251.8  52.7  34198  290.20 0855.28
2009/04/23 11:41:42.1     -54   -126    138    138    195 203.2  50.1  34182  289.94 0855.28
2009/04/23 11:41:42.2     248     94    193    266    328  69.2  39.7  34184  289.98 0855.30
2009/04/23 11:41:42.3     -23    -70    229     74    240 198.5  81.6  34190  290.08 0855.30
2009/04/23 11:41:42.4      49   -176    237    183    299 164.2  58.5  34186  290.02 0855.30
2009/04/23 11:41:42.5      21   -197    287    199    349 173.8  62.1  34184  289.98 0855.30
2009/04/23 11:41:42.6      15   -134    313    135    340 173.3  75.4  34188  290.03 0855.30
2009/04/23 11:41:42.7       5   -223    327    224    396 178.6  62.5  34188  290.04 0855.30
2009/04/23 11:41:42.8     115   -128    264    173    315 138.1  63.7  34194  290.14 0855.30
2009/04/23 11:41:42.9     253   -253    246    359    435 135.0  37.6  34184  289.97 0855.30
2009/04/23 11:41:43.0     118   -179    208    215    299 146.4  49.0  34188  290.05 0855.30
2009/04/23 11:41:43.1      87   -263    192    278    337 161.7  38.0  34174  289.80 0855.30
2009/04/23 11:41:43.2      17   -311    261    312    406 176.9  44.1  34176  289.84 0855.30
2009/04/23 11:41:43.3      18   -239    313    240    394 175.5  58.7  34182  289.94 0855.30
2009/04/23 11:41:43.4      13    -53    218     55    224 165.7  85.9  34188  290.04 0855.30
2009/04/23 11:41:43.5     -22    -22    164     32    167 225.0  89.4  34194  290.16 0855.30
2009/04/23 11:41:43.6     109   -270    278    292    403 158.1  48.6  34184  289.98 0855.30
2009/04/23 11:41:43.7     110   -166    218    200    295 146.4  52.5  34176  289.85 0855.30
2009/04/23 11:41:43.8     114   -250    249    275    370 155.5  46.9  34182  289.94 0855.30
2009/04/23 11:41:43.9     192   -284    265    343    433 145.9  41.7  34190  290.09 0855.30
2009/04/23 11:41:44.0     232   -191    192    301    357 129.5  35.6  34184  289.98 0855.30
2009/04/23 11:41:44.1     179    -26    125    181    219  98.4  38.0  34184  289.97 0855.30
2009/04/23 11:41:44.2      70   -133     97    151    179 152.4  35.7  34188  290.06 0855.27
2009/04/23 11:41:44.3      75   -228     90    241    257 161.7  21.5  34184  289.98 0855.27
2009/04/23 11:41:44.4     -14   -212    210    213    299 184.0  49.9  34188  290.03 0855.27
2009/04/23 11:41:44.5     -10   -326    234    327    402 181.9  39.2  34184  289.99 0855.27
2009/04/23 11:41:44.6     -21   -286    140    287    319 184.2  27.9  34188  290.03 0855.27
2009/04/23 11:41:44.7       7   -241     51    242    248 178.2  12.0  34186  290.00 0855.27
2009/04/23 11:41:44.8     137   -153     42    206    211 138.1  11.6  34188  290.04 0855.27
2009/04/23 11:41:44.9     190    -45     43    196    201 103.3  12.4  34186  290.02 0855.27
2009/04/23 11:41:45.0     164      8     42    165    171  87.2  14.5  34202  290.28 0855.27
2009/04/23 11:41:45.1     174    107    -11    205    206  58.5  -3.1  34232  290.81 0855.27
2009/04/23 11:41:45.2     197     38    -59    201    209  79.0 -21.5  34242  290.96 0855.27
2009/04/23 11:41:45.3      79     37    -30     88     92  64.7 -23.3  34252  291.13 0855.27
2009/04/23 11:41:45.4      17    -37     25     41     48 154.5  35.5  34236  290.87 0855.27
2009/04/23 11:41:45.5    -122   -137    -31    184    187 221.7  -9.6  34214  290.48 0855.27
2009/04/23 11:41:45.6     -63   -190     71    201    214 198.5  19.4  34196  290.18 0855.27
2009/04/23 11:41:45.7      -3   -199    159    200    255 181.0  42.7  34194  290.14 0855.27
2009/04/23 11:41:45.8     -56   -170    149    180    233 198.3  43.7  34194  290.14 0855.27
2009/04/23 11:41:45.9     -35   -179    167    183    247 191.3  47.1  34192  290.11 0855.27
2009/04/23 11:41:46.0     -51   -195     85    202    219 194.7  23.8  34190  290.09 0855.27
2009/04/23 11:41:46.1      60   -223     68    232    242 164.9  16.4  34192  290.10 0855.27
2009/04/23 11:41:46.2     102   -237     86    259    274 156.6  18.5  34190  290.09 0855.28
2009/04/23 11:41:46.3      49   -240    146    246    286 168.4  33.5  34190  290.09 0855.28
2009/04/23 11:41:46.4      36   -254    248    257    357 171.9  49.0  34186  290.00 0855.28
2009/04/23 11:41:46.5     245   -215    149    327    359 131.3  26.2  34182  289.96 0855.28
2009/04/23 11:41:46.6      71   -350    148    358    387 168.4  23.7  34188  290.04 0855.28
2009/04/23 11:41:46.7       9   -366     67    367    374 178.5  10.4  34190  290.08 0855.28
2009/04/23 11:41:46.8    -103   -348     45    364    367 196.5   7.1  34192  290.10 0855.28
2009/04/23 11:41:46.9     -75   -378    124    386    406 191.3  17.9  34190  290.08 0855.28
2009/04/23 11:41:47.0     -58   -537    150    541    562 186.3  15.6  34192  290.11 0855.28
2009/04/23 11:41:47.1     -26   -521     91    522    530 182.9   9.9  34190  290.09 0855.28
2009/04/23 11:41:47.2     -11   -448    -10    449    450 181.5  -1.4  34192  290.12 0855.27
2009/04/23 11:41:47.3      49   -451     15    454    455 173.7   1.9  34188  290.05 0855.27
2009/04/23 11:41:47.4      40   -395     77    398    406 174.2  11.0  34194  290.14 0855.27
2009/04/23 11:41:47.5      32   -414     33    416    418 175.5   4.6  34192  290.11 0855.27
2009/04/23 11:41:47.6      85   -394     59    404    409 167.7   8.3  34194  290.16 0855.27
2009/04/23 11:41:47.7      77   -384     12    392    393 168.6   1.9  34198  290.20 0855.27
2009/04/23 11:41:47.8      71   -371     21    378    379 169.1   3.3  34198  290.21 0855.27
2009/04/23 11:41:47.9      47   -252    -51    257    263 169.3 -11.3  34198  290.22 0855.27
2009/04/23 11:41:48.0      38   -242    -26    246    248 170.9  -6.2  34204  290.31 0855.27
2009/04/23 11:41:48.1      98   -256      4    275    276 159.1   1.0  34196  290.17 0855.27
2009/04/23 11:41:48.2     120   -254     32    282    284 154.7   6.5  34200  290.26 0855.27
2009/04/23 11:41:48.3     149   -250     51    292    297 149.2  10.0  34198  290.22 0855.27
2009/04/23 11:41:48.4     198   -186     10    273    274 133.2   2.1  34200  290.24 0855.27
2009/04/23 11:41:48.5     256   -141      4    293    294 118.9   0.8  34198  290.20 0855.27
2009/04/23 11:41:48.6     305   -138    104    336    352 114.4  17.3  34198  290.20 0855.27
2009/04/23 11:41:48.7     233   -233     41    330    333 135.0   7.1  34200  290.25 0855.27
2009/04/23 11:41:48.8     180   -130     12    223    224 126.0   3.3  34202  290.28 0855.27
2009/04/23 11:41:48.9     169   -133     59    216    224 128.2  15.3  34200  290.25 0855.27
2009/04/23 11:41:49.0     156   -129     58    203    212 129.6  16.0  34204  290.31 0855.27
2009/04/23 11:41:49.1     101   -165     69    194    205 148.6  20.0  34202  290.28 0855.27
2009/04/23 11:41:49.2      78   -186     81    202    217 157.1  23.0  34198  290.23 0855.26
2009/04/23 11:41:49.3      50   -194     89    201    219 165.3  25.3  34200  290.26 0855.26
2009/04/23 11:41:49.4      47   -158    124    165    206 163.3  40.9  34202  290.28 0855.26
2009/04/23 11:41:49.5     -24   -206    152    208    257 186.7  39.7  34202  290.27 0855.26
2009/04/23 11:41:49.6     -59   -211     69    220    231 195.6  17.4  34196  290.18 0855.26
2009/04/23 11:41:49.7     -34   -219     -1    222    223 188.9  -0.3  34198  290.21 0855.26
2009/04/23 11:41:49.8      46   -243    -46    248    253 169.3 -10.5  34198  290.20 0855.26
2009/04/23 11:41:49.9      40   -313    -49    316    320 172.7  -8.8  34198  290.20 0855.26
2009/04/23 11:41:50.0     108   -287     30    307    309 159.3   5.7  34204  290.32 0855.26
2009/04/23 11:41:50.1      30   -298    -37    300    303 174.2  -7.2  34202  290.27 0855.26
2009/04/23 11:41:50.2     -10   -372     -1    373    374 181.6  -0.2  34204  290.32 0855.26
2009/04/23 11:41:50.3     -31   -350    -30    352    354 185.1  -4.9  34208  290.40 0855.26
2009/04/23 11:41:50.4      79   -426     13    434    435 169.4   1.8  34210  290.43 0855.26
2009/04/23 11:41:50.5     170   -350    -27    390    391 154.0  -4.0  34210  290.42 0855.26
2009/04/23 11:41:50.6     174   -256    -59    310    316 145.8 -10.8  34212  290.46 0855.26
2009/04/23 11:41:50.7     297   -198      5    358    359 123.7   0.8  34206  290.35 0855.26
2009/04/23 11:41:50.8     208   -236    123    315    338 138.6  22.5  34204  290.33 0855.26
2009/04/23 11:41:50.9      86   -367    179    377    417 166.8  27.3  34208  290.39 0855.26
2009/04/23 11:41:51.0      84   -306    208    318    379 164.6  36.2  34194  290.15 0855.26
2009/04/23 11:41:51.1     108   -585    230    595    637 169.5  22.3  34200  290.26 0855.26
2009/04/23 11:41:51.2      47   -588    202    590    624 175.4  18.9  34212  290.44 0855.25
2009/04/23 11:41:51.3      78   -555     27    561    562 172.0   2.8  34214  290.48 0855.25
2009/04/23 11:41:51.4     118   -487    -44    502    505 166.3  -5.1  34212  290.47 0855.25
2009/04/23 11:41:51.5     133   -524    -52    541    544 165.7  -5.6  34212  290.46 0855.25
2009/04/23 11:41:51.6      20   -455    -91    456    466 177.4 -11.3  34214  290.50 0855.25
2009/04/23 11:41:51.7      20   -412   -121    413    430 177.1 -21.2  34210  290.41 0855.25
2009/04/23 11:41:51.8     -28   -432     46    433    436 183.7   6.1  34214  290.48 0855.25
2009/04/23 11:41:51.9     -48   -406    -29    409    410 186.9  -4.1  34216  290.53 0855.25
2009/04/23 11:41:52.0     -73   -515   -105    521    532 188.1 -11.5  34224  290.65 0855.25
2009/04/23 11:41:52.1    -154   -523    -84    546    553 196.4  -8.8  34230  290.77 0855.25
2009/04/23 11:41:52.2    -135   -442   -195    463    502 197.0 -28.6  34230  290.76 0855.25
2009/04/23 11:41:52.3     -14   -512    -68    513    518 181.6  -7.6  34238  290.91 0855.25
2009/04/23 11:41:52.4     -90   -584    -97    591    600 188.8  -9.4  34208  290.39 0855.25
2009/04/23 11:41:52.5    -116   -549     -2    562    563 192.0  -0.3  34196  290.18 0855.25
2009/04/23 11:41:52.6    -331   -367    -21    495    496 222.0  -2.5  34204  290.32 0855.25
2009/04/23 11:41:52.7    -224   -492   -149    541    561 204.5 -20.1  34196  290.19 0855.25
2009/04/23 11:41:52.8     -95   -542   -188    551    582 190.0 -23.8  34178  289.88 0855.25
2009/04/23 11:41:52.9     -62   -576   -173    580    605 186.2 -21.6  34200  290.24 0855.25
2009/04/23 11:41:53.0    -197   -413   -137    458    478 205.6 -21.5  34206  290.34 0855.25
2009/04/23 11:41:53.1     -79   -508   -351    515    623 188.9 -42.1  34200  290.24 0855.25
2009/04/23 11:41:53.2     -95   -553   -227    562    606 189.8 -27.5  34200  290.25 0855.23
2009/04/23 11:41:53.3      60   -532   -164    536    560 173.5 -21.9  34198  290.23 0855.23
2009/04/23 11:41:53.4       0   -488   -142    489    509 179.9 -21.0  34198  290.22 0855.23
2009/04/23 11:41:53.5    -144   -451   -162    474    500 197.8 -23.9  34196  290.18 0855.23
2009/04/23 11:41:53.6    -314   -470   -119    566    579 213.8 -11.9  34176  289.83 0855.23
2009/04/23 11:41:53.7    -201   -392   -232    441    498 207.2 -34.4  34192  290.13 0855.23
2009/04/23 11:41:53.8    -120   -377   -176    396    433 197.7 -30.0  34198  290.21 0855.23
2009/04/23 11:41:53.9      94   -281    -95    297    311 161.5 -23.3  34196  290.17 0855.23
2009/04/23 11:41:54.0     -41   -397   -142    400    425 186.0 -19.6  34204  290.31 0855.23
2009/04/23 11:41:54.1      63   -367   -262    373    455 170.2 -43.0  34202  290.28 0855.23
2009/04/23 11:41:54.2     195   -376   -116    424    439 152.6 -20.0  34196  290.17 0855.23
2009/04/23 11:41:54.3     175   -367    -27    407    408 154.5  -3.9  34192  290.11 0855.23
2009/04/23 11:41:54.4     195   -304    -72    362    370 147.4 -11.3  34198  290.23 0855.23
2009/04/23 11:41:54.5     174   -216     85    278    291 141.2  17.1  34188  290.05 0855.23
2009/04/23 11:41:54.6     154   -265    148    307    340 149.9  27.4  34198  290.21 0855.23
2009/04/23 11:41:54.7     241   -378    159    449    476 147.4  20.3  34196  290.18 0855.23
2009/04/23 11:41:54.8     300   -411    -19    509    510 143.9  -2.2  34196  290.17 0855.23
2009/04/23 11:41:54.9     378   -330    157    502    527 131.1  17.4  34192  290.12 0855.23
2009/04/23 11:41:55.0     372   -189    209    418    467 117.0  28.5  34190  290.09 0855.23
2009/04/23 11:41:55.1     304   -151    272    340    435 116.4  42.7  34190  290.09 0855.23
2009/04/23 11:41:55.2     187   -122    187    224    291 123.3  43.8  34196  290.17 0855.25
2009/04/23 11:41:55.3     173   -150    225    230    321 130.9  49.4  34196  290.17 0855.25
2009/04/23 11:41:55.4     -69   -311    355    319    477 192.7  53.5  34188  290.05 0855.25
2009/04/23 11:41:55.5      86    -62    312    107    329 125.9  80.7  34190  290.07 0855.25
2009/04/23 11:41:55.6     137    -64    195    152    247 115.2  58.4  34190  290.08 0855.25
2009/04/23 11:41:55.7      27    -96    138    100    170 164.0  60.5  34198  290.21 0855.25
2009/04/23 11:41:55.8      13     -8    115     16    116 122.4  90.0  34202  290.30 0855.25
2009/04/23 11:41:55.9    -124     37     50    130    139 286.9  22.0  34206  290.36 0855.25
2009/04/23 11:41:56.0    -164     -1    -29    165    168 269.4 -10.1  34194  290.14 0855.25
2009/04/23 11:41:56.1    -146     15    -18    147    149 276.1  -7.3  34192  290.13 0855.25
2009/04/23 11:41:56.2    -150     71    -15    167    168 295.3  -5.4  34196  290.18 0855.25
2009/04/23 11:41:56.3    -127     14   -127    128    180 276.6 -54.6  34196  290.18 0855.25
2009/04/23 11:41:56.4    -218    -22   -114    220    247 264.1 -33.9  34192  290.10 0855.25
2009/04/23 11:41:56.5    -216     30    -66    219    229 278.0 -16.8  34192  290.13 0855.25
2009/04/23 11:41:56.6    -329      0    -76    330    339 270.0 -13.1  34190  290.08 0855.25
2009/04/23 11:41:56.7     -94   -151    -69    179    191 211.9 -26.7  34180  289.92 0855.25
2009/04/23 11:41:56.8    -150   -394    -64    422    427 201.0  -8.7  34186  290.00 0855.25
2009/04/23 11:41:56.9    -108   -450      0    463    464 193.6   0.1  34188  290.05 0855.25
2009/04/23 11:41:57.0     -50   -215    207    221    302 193.1  48.0  34192  290.10 0855.25
2009/04/23 11:41:57.1    -140   -220     71    261    271 212.5  15.3  34186  290.02 0855.25
2009/04/23 11:41:57.2     -70   -253     93    263    278 195.6  20.2  34190  290.07 0855.24
2009/04/23 11:41:57.3     -46   -234     54    239    246 191.3  12.9  34186  290.02 0855.24
2009/04/23 11:41:57.4    -185   -217      4    286    287 220.5   0.8  34204  290.32 0855.24
2009/04/23 11:41:57.5     -98   -170     48    197    203 209.9  13.7  34188  290.06 0855.24
2009/04/23 11:41:57.6     -92   -158     13    183    184 210.3   4.2  34190  290.09 0855.24
2009/04/23 11:41:57.8     -68   -177     73    190    203 201.2  21.7  34190  290.08 0855.24
2009/04/23 11:41:57.9     -62   -158     11    171    172 201.6   3.8  34190  290.09 0855.24
2009/04/23 11:41:57.9     -18   -234     58    235    243 184.5  13.9  34184  289.97 0855.24
2009/04/23 11:41:58.0    -148   -275     52    313    318 208.3   9.5  34190  290.07 0855.24
2009/04/23 11:41:58.1     -20   -381    -14    382    383 183.0  -2.2  34182  289.93 0855.24
2009/04/23 11:41:58.2      -5   -297    154    298    335 181.1  29.5  34182  289.93 0855.24
2009/04/23 11:41:58.3     -79   -218    129    232    265 200.0  31.4  34178  289.88 0855.24
2009/04/23 11:41:58.4      89   -293     95    307    322 163.0  17.2  34176  289.85 0855.24
2009/04/23 11:41:58.5     147   -437    125    462    479 161.4  15.2  34162  289.59 0855.24
2009/04/23 11:41:58.6     254   -496    245    558    609 152.9  25.2  34166  289.66 0855.24
2009/04/23 11:41:58.7       8   -490    209    491    533 179.0  24.5  34160  289.57 0855.24
2009/04/23 11:41:58.8      46   -387    146    390    416 173.1  21.6  34162  289.61 0855.24
2009/04/23 11:41:58.9      -6   -249    191    250    314 181.4  41.3  34158  289.54 0855.24
2009/04/23 11:41:59.0     187   -193    180    270    324 135.9  36.9  34168  289.71 0855.24
2009/04/23 11:41:59.1     259   -262    191    369    415 135.4  29.5  34164  289.65 0855.24
2009/04/23 11:41:59.2     154   -221    103    270    288 145.0  21.7  34162  289.61 0855.22
2009/04/23 11:41:59.3      74   -166    149    182    235 155.9  43.7  34168  289.70 0855.22
2009/04/23 11:41:59.4      92   -103    130    139    190 138.1  47.9  34170  289.75 0855.22
2009/04/23 11:41:59.5      70    -71     46    100    110 135.5  27.1  34170  289.75 0855.22
2009/04/23 11:41:59.6      66     -6     68     67     95  95.2  49.1  34166  289.67 0855.22
2009/04/23 11:41:59.7      40    -20     51     45     68 117.1  52.2  34170  289.75 0855.22
2009/04/23 11:41:59.8      43    -36     28     57     63 129.6  27.3  34170  289.75 0855.22
2009/04/23 11:41:59.9      58      0     57     59     82  89.2  49.4  34172  289.77 0855.22
2009/04/23 11:42:00.0      47    -16     52     50     72 109.1  50.1  34178  289.89 0855.22
2009/04/23 11:42:00.1      22    -39     29     45     53 150.1  35.6  34180  289.92 0855.22
2009/04/23 11:42:00.2      56     21    -43     60     73  69.2 -44.1  34180  289.92 0855.22
2009/04/23 11:42:00.3      53    121   -102    133    167  23.6 -46.1  34180  289.91 0855.22
2009/04/23 11:42:00.4      99    179     28    205    208  28.9   8.0  34178  289.87 0855.22
2009/04/23 11:42:00.5     136     91     94    164    189  56.0  32.4  34176  289.85 0855.22
2009/04/23 11:42:00.6      23     -7    100     25    103 108.4  85.9  34178  289.89 0855.22
2009/04/23 11:42:00.7     -42    -58     76     72    104 216.1  51.2  34170  289.75 0855.22
2009/04/23 11:42:00.9    -231   -146     48    274    279 237.6  10.0  34172  289.76 0855.22
2009/04/23 11:42:01.0    -185   -217     39    286    289 220.5   7.8  34164  289.64 0855.22
2009/04/23 11:42:01.1    -172   -170    -29    243    245 225.3  -6.9  34154  289.46 0855.22
2009/04/23 11:42:01.2    -156      4    -25    157    160 271.7  -9.3  34152  289.45 0855.22
2009/04/23 11:42:01.3    -112    -15    127    114    170 262.0  53.5  34164  289.63 0855.23
2009/04/23 11:42:01.4       1    -40    140     41    145 177.3  83.3  34172  289.79 0855.23
2009/04/23 11:42:01.5       8    -30    157     32    160 164.9  89.4  34186  290.01 0855.23
2009/04/23 11:42:01.6     -40   -122    170    129    213 198.3  59.0  34170  289.74 0855.23
2009/04/23 11:42:01.7     -43   -276    101    280    297 188.9  20.9  34170  289.75 0855.23
2009/04/23 11:42:01.8     -81   -149    126    170    211 208.7  40.1  34164  289.65 0855.23
2009/04/23 11:42:01.9      -8   -221    206    222    302 182.2  47.9  34172  289.78 0855.23
2009/04/23 11:42:02.0       0   -255    200    256    324 179.8  42.1  34174  289.81 0855.23
2009/04/23 11:42:02.1       7   -103    179    104    207 175.6  67.2  34178  289.87 0855.23
2009/04/23 11:42:02.2      18   -383    274    384    471 177.3  39.1  34162  289.61 0855.23
2009/04/23 11:42:02.3     156   -282    183    323    371 151.1  32.0  34166  289.67 0855.23
2009/04/23 11:42:02.4     130   -275    131    305    331 154.7  24.8  34162  289.61 0855.23
2009/04/23 11:42:02.5      77   -279    174    290    338 164.6  33.8  34164  289.63 0855.23
2009/04/23 11:42:02.6       0   -275     90    276    291 180.0  18.1  34166  289.66 0855.23
2009/04/23 11:42:02.7      -3   -230     32    231    234 180.9   8.0  34164  289.65 0855.23
2009/04/23 11:42:02.8      63   -153     61    166    176 157.5  21.3  34160  289.57 0855.23
2009/04/23 11:42:02.9      -6   -233    172    234    290 181.6  39.7  34166  289.66 0855.23
2009/04/23 11:42:03.0    -168   -420    123    453    470 201.9  15.3  34160  289.56 0855.23
2009/04/23 11:42:03.1    -345   -333    -17    480    481 226.0  -2.1  34156  289.49 0855.23
2009/04/23 11:42:03.2    -393   -222    -21    452    453 240.5  -2.7  34154  289.46 0855.23
2009/04/23 11:42:03.3    -298   -320    218    438    489 222.9  28.5  34152  289.44 0855.22
2009/04/23 11:42:03.4    -540   -337    -29    637    638 238.0  -2.7  34152  289.43 0855.22
2009/04/23 11:42:03.5    -169   -308    213    352    411 208.8  34.1  34154  289.48 0855.22
2009/04/23 11:42:03.6    -121   -265    197    292    352 204.5  37.3  34152  289.45 0855.22
2009/04/23 11:42:03.7     -11   -249    206    250    323 182.7  43.7  34154  289.47 0855.22
2009/04/23 11:42:03.8     -21   -276    285    277    397 184.5  50.9  34154  289.48 0855.22
2009/04/23 11:42:03.9     -84   -372    274    382    470 192.8  39.2  34162  289.60 0855.22
2009/04/23 11:42:04.0    -120   -215    187    247    309 209.2  40.9  34160  289.56 0855.22
2009/04/23 11:42:04.1    -200    -28    244    203    317 262.0  56.1  34164  289.63 0855.22
2009/04/23 11:42:04.2    -183    -73    144    198    244 248.3  39.7  34164  289.65 0855.22
2009/04/23 11:42:04.3     -56   -185    108    194    222 196.9  31.4  34158  289.55 0855.22
2009/04/23 11:42:04.4     -98   -206    205    229    307 205.5  46.6  34156  289.51 0855.22
2009/04/23 11:42:04.5     -88   -240     14    256    257 200.3   3.1  34152  289.42 0855.22
2009/04/23 11:42:04.6     -86    -95     46    129    136 221.9  20.0  34154  289.46 0855.22
2009/04/23 11:42:04.7    -122    -73    121    143    187 238.9  44.5  34160  289.57 0855.22
2009/04/23 11:42:04.8     -49   -155    211    163    266 197.6  58.5  34166  289.66 0855.22
2009/04/23 11:42:04.9     -49   -192    211    199    290 194.3  52.1  34162  289.59 0855.22
2009/04/23 11:42:05.0    -109   -234    226    259    343 204.9  45.5  34162  289.61 0855.22
2009/04/23 11:42:05.1     -50   -211    224    217    311 193.4  51.2  34164  289.63 0855.22
2009/04/23 11:42:05.2    -185    -99    221    210    304 241.8  52.0  34170  289.73 0855.22
2009/04/23 11:42:05.3    -106   -215     65    240    249 206.3  15.3  34150  289.41 0855.25
2009/04/23 11:42:05.4     -84   -179    154    198    250 205.3  42.0  34152  289.42 0855.25
2009/04/23 11:42:05.5    -102   -259    326    279    429 201.6  55.4  34156  289.52 0855.25
2009/04/23 11:42:05.6     -38   -267    247    270    365 188.1  47.1  34152  289.43 0855.25
2009/04/23 11:42:05.7      -8   -223    224    224    316 182.2  50.1  34154  289.46 0855.25
2009/04/23 11:42:05.8      85   -106    139    136    194 141.3  50.4  34158  289.53 0855.25
2009/04/23 11:42:05.9      32   -158    198    162    255 168.5  56.4  34160  289.57 0855.25
2009/04/23 11:42:06.0       9      3     99     10     99  68.3  90.0  34170  289.75 0855.25
2009/04/23 11:42:06.1     -61    -27    106     67    125 245.6  64.7  34164  289.63 0855.25
2009/04/23 11:42:06.2       8     30     78     32     84  15.1  77.1  34170  289.74 0855.25
2009/04/23 11:42:06.3     -70    -65     25     96    100 226.9  14.7  34162  289.62 0855.25
2009/04/23 11:42:06.4    -162   -138     75    214    227 229.6  19.4  34162  289.60 0855.25
2009/04/23 11:42:06.5    -162   -113     51    198    205 235.1  14.7  34160  289.58 0855.25
2009/04/23 11:42:06.6    -171    112     69    205    217 303.3  18.6  34156  289.52 0855.25
2009/04/23 11:42:06.7    -167     92    164    191    251 298.9  44.9  34166  289.66 0855.25
2009/04/23 11:42:06.8       4    -76    168     77    184 176.4  73.8  34166  289.69 0855.25
2009/04/23 11:42:06.9     -52    131    129    142    191 338.2  47.1  34168  289.72 0855.25
2009/04/23 11:42:07.0    -129    178     55    221    228 324.0  14.2  34162  289.62 0855.25
2009/04/23 11:42:07.1       6    232     75    233    245   1.6  17.9  34158  289.54 0855.25
2009/04/23 11:42:07.2     -15    177    149    178    232 355.1  43.8  34176  289.84 0855.25
2009/04/23 11:42:07.3    -334     59    172    340    381 280.0  28.9  34188  290.06 0855.25
2009/04/23 11:42:07.4    -284    -26    123    286    311 264.7  24.9  34194  290.15 0855.25
2009/04/23 11:42:07.5    -264    174    169    317    359 303.3  30.3  34164  289.65 0855.25
2009/04/23 11:42:07.6    -253    105    123    275    301 292.6  25.7  34180  289.90 0855.25
2009/04/23 11:42:07.7    -269    179     67    324    332 303.7  11.8  34196  290.17 0855.25
2009/04/23 11:42:07.8    -144    146    121    206    238 315.5  33.1  34192  290.13 0855.25
2009/04/23 11:42:07.9     -39    156    144    162    216 345.7  46.4  34182  289.94 0855.25
2009/04/23 11:42:08.0    -234   -123     52    265    271 242.2  11.1  34164  289.63 0855.25
2009/04/23 11:42:08.1    -186   -146    112    237    262 231.8  27.1  34164  289.64 0855.25
2009/04/23 11:42:08.2    -373   -186     49    417    420 243.5   6.8  34158  289.53 0855.25
2009/04/23 11:42:08.3    -260   -133     -6    293    294 242.9  -1.3  34156  289.51 0855.25
2009/04/23 11:42:08.4    -155   -112     33    192    195 234.3   9.9  34154  289.46 0855.25
2009/04/23 11:42:08.5     -62   -196     23    206    208 197.6   6.5  34158  289.53 0855.25
2009/04/23 11:42:08.6       0   -163     81    164    182 180.0  28.0  34162  289.60 0855.25
2009/04/23 11:42:08.7     -51   -199    187    206    278 194.5  47.0  34160  289.58 0855.25
2009/04/23 11:42:08.8     -69   -170     67    184    195 202.3  20.7  34156  289.52 0855.25
2009/04/23 11:42:08.9     -81    -92    -24    123    126 221.4 -11.3  34156  289.50 0855.25
2009/04/23 11:42:09.0       0     92    144     93    171   0.5  64.4  34178  289.87 0855.25
2009/04/23 11:42:09.1    -116   -176    232    211    313 213.4  53.2  34170  289.75 0855.25
2009/04/23 11:42:09.2     -65   -252    202    261    330 194.5  41.7  34158  289.53 0855.25
2009/04/23 11:42:09.3      48   -148    175    156    234 161.7  54.0  34164  289.63 0855.24
2009/04/23 11:42:09.4     -45   -276    247    280    373 189.3  45.9  34162  289.60 0855.24
2009/04/23 11:42:09.5      15   -448     -9    449    450 178.0  -1.2  34158  289.55 0855.24
2009/04/23 11:42:09.6     107   -289    -67    309    317 159.7 -12.3  34158  289.54 0855.24
2009/04/23 11:42:09.7     143   -318      0    349    350 155.8   0.1  34162  289.62 0855.24
2009/04/23 11:42:09.8     -42   -245     47    249    254 189.8  10.8  34160  289.58 0855.24
2009/04/23 11:42:09.9    -129   -301    -21    328    329 203.3  -3.7  34160  289.57 0855.24
2009/04/23 11:42:10.0      74   -224    210    236    315 161.7  46.4  34158  289.54 0855.24
2009/04/23 11:42:10.1      79   -344    129    354    376 167.0  20.9  34156  289.52 0855.24
2009/04/23 11:42:10.2     100   -412    178    424    459 166.3  24.2  34160  289.56 0855.24
2009/04/23 11:42:10.3     186   -438     74    477    483 157.0   8.9  34158  289.54 0855.24
2009/04/23 11:42:10.4    -140   -536     97    555    564 194.7  10.0  34160  289.57 0855.24
2009/04/23 11:42:10.5    -222   -465    -20    516    517 205.5  -2.2  34172  289.76 0855.24
2009/04/23 11:42:10.6      -9   -302    -13    303    304 181.8  -2.6  34162  289.59 0855.24
2009/04/23 11:42:10.7     -18   -238    -21    239    240 184.5  -5.2  34164  289.64 0855.24
2009/04/23 11:42:10.8      39   -178     28    183    186 167.5   8.8  34170  289.74 0855.24
2009/04/23 11:42:10.9     130   -242     85    275    288 151.7  17.3  34156  289.49 0855.24
2009/04/23 11:42:11.0     194   -250    136    317    344 142.2  24.8  34156  289.52 0855.24
2009/04/23 11:42:11.1     112   -294     32    315    317 159.1   5.8  34158  289.54 0855.24
2009/04/23 11:42:11.2      51   -366     42    370    373 172.0   6.6  34174  289.81 0855.24
2009/04/23 11:42:11.3     -42   -431    169    434    465 185.7  22.5  34158  289.55 0855.24
2009/04/23 11:42:11.4     -75   -353     28    362    364 192.1   4.5  34166  289.67 0855.24
2009/04/23 11:42:11.5      55   -343     43    348    351 170.9   7.1  34166  289.69 0855.24
2009/04/23 11:42:11.6      12   -425     39    426    429 178.3   5.3  34164  289.63 0855.24
2009/04/23 11:42:11.7     132   -354     90    378    389 159.5  13.5  34156  289.52 0855.24
2009/04/23 11:42:11.8     126   -426    205    445    489 163.5  26.5  34162  289.59 0855.24
2009/04/23 11:42:11.9     -31   -498    -35    499    501 183.6  -4.1  34158  289.54 0855.24
2009/04/23 11:42:12.0    -104   -512    -30    523    524 191.6  -3.3  34160  289.57 0855.24
2009/04/23 11:42:12.1     -50   -486    -51    489    492 186.0  -6.0  34156  289.49 0855.24
2009/04/23 11:42:12.2     -88   -472    -56    481    485 190.6  -6.7  34160  289.56 0855.24
2009/04/23 11:42:12.3    -245   -518   -171    574    600 205.3 -16.6  34178  289.86 0855.23
2009/04/23 11:42:12.4    -379   -503   -161    630    651 217.0 -14.4  34162  289.60 0855.23
2009/04/23 11:42:12.5    -359   -575    -50    678    680 212.0  -4.2  34158  289.53 0855.23
2009/04/23 11:42:12.6    -157   -506   -126    530    545 197.3 -13.4  34160  289.58 0855.23
2009/04/23 11:42:12.7    -182   -407   -135    446    465 204.1 -21.8  34164  289.65 0855.23
2009/04/23 11:42:12.8      -4   -288    -86    289    301 180.9 -21.7  34164  289.63 0855.23
2009/04/23 11:42:12.9    -135   -256   -177    290    339 207.9 -38.8  34156  289.51 0855.23
2009/04/23 11:42:13.0    -278   -331   -154    433    460 220.1 -19.7  34164  289.65 0855.23
2009/04/23 11:42:13.1    -212   -259   -264    335    426 219.3 -46.7  34162  289.59 0855.23
2009/04/23 11:42:13.2    -319   -269   -150    418    444 229.8 -25.1  34166  289.68 0855.23
2009/04/23 11:42:13.3    -245   -269   -188    365    410 222.3 -33.7  34158  289.55 0855.23
2009/04/23 11:42:13.4    -240   -398   -192    466    504 211.1 -28.1  34164  289.64 0855.23
2009/04/23 11:42:13.5    -170   -236   -242    292    379 215.8 -48.2  34152  289.43 0855.23
2009/04/23 11:42:13.6     -95   -294    -91    310    323 198.0 -21.2  34162  289.59 0855.23
2009/04/23 11:42:13.7    -143   -242    -79    282    292 210.7 -20.2  34164  289.63 0855.23
2009/04/23 11:42:13.8    -326   -443   -151    551    572 216.4 -15.4  34154  289.46 0855.23
2009/04/23 11:42:13.9    -157   -409     -8    439    440 201.0  -1.2  34160  289.56 0855.23
2009/04/23 11:42:14.0    -152   -380   -147    410    435 201.9 -25.0  34164  289.63 0855.23
2009/04/23 11:42:14.1    -230   -232   -194    327    380 224.8 -37.9  34154  289.47 0855.23
2009/04/23 11:42:14.2    -202   -370   -117    422    438 208.7 -15.5  34158  289.53 0855.23
2009/04/23 11:42:14.3    -195   -124   -189    232    299 237.6 -48.1  34164  289.64 0855.23
2009/04/23 11:42:14.4    -214    -98   -201    236    309 245.4 -49.2  34170  289.73 0855.23
2009/04/23 11:42:14.5    -204    -73   -193    217    290 250.1 -50.6  34162  289.61 0855.23
2009/04/23 11:42:14.6     -21   -168    -63    170    181 187.3 -25.7  34168  289.70 0855.23
2009/04/23 11:42:14.7    -273   -369   -218    460    509 216.5 -31.6  34166  289.69 0855.23
2009/04/23 11:42:14.8    -299   -279   -126    409    427 227.0 -22.2  34164  289.65 0855.23
2009/04/23 11:42:14.9    -308   -135    -44    337    340 246.4  -7.5  34166  289.69 0855.23
2009/04/23 11:42:15.0    -332   -145    -41    363    366 246.3  -6.5  34164  289.64 0855.23
2009/04/23 11:42:15.1    -261   -113     68    285    294 246.5  13.5  34158  289.54 0855.23
2009/04/23 11:42:15.2    -243   -130    117    276    299 241.8  24.2  34172  289.78 0855.23
2009/04/23 11:42:15.3    -208   -141    117    252    277 235.9  26.6  34168  289.70 0855.23
2009/04/23 11:42:15.4     -87    -55    168    104    197 237.6  65.4  34170  289.74 0855.23
2009/04/23 11:42:15.5    -185      7    -91    186    207 272.4 -31.8  34164  289.63 0855.23
2009/04/23 11:42:15.6    -291    -98   -103    308    325 251.4 -18.6  34158  289.54 0855.23
2009/04/23 11:42:15.7    -274     82   -141    287    319 286.8 -32.5  34162  289.61 0855.23
2009/04/23 11:42:15.8    -231    -64    -38    240    244 254.5  -9.0  34160  289.58 0855.23
2009/04/23 11:42:15.9    -249   -169     -6    302    303 235.8  -1.3  34166  289.66 0855.23
2009/04/23 11:42:16.0    -318    -40     13    321    322 262.8   2.3  34158  289.54 0855.23
2009/04/23 11:42:16.1    -326    -61   -117    332    353 259.3 -19.5  34182  289.96 0855.23
2009/04/23 11:42:16.2    -214   -242    -96    324    337 221.4 -21.4  34164  289.65 0855.23
2009/04/23 11:42:16.4    -232   -313     12    390    391 216.6   1.8  34164  289.65 0855.21
2009/04/23 11:42:16.5    -254   -161    -49    301    306 237.6  -9.3  34168  289.70 0855.21
2009/04/23 11:42:16.5    -181   -186     40    260    264 224.3   8.8  34176  289.85 0855.21
2009/04/23 11:42:16.6    -261   -171     28    313    315 236.7   5.2  34172  289.78 0855.21
2009/04/23 11:42:16.7    -149   -180    -47    235    240 219.6 -11.3  34158  289.53 0855.21
2009/04/23 11:42:16.8    -299    -13    -88    300    312 267.4 -21.2  34164  289.64 0855.21
2009/04/23 11:42:16.9    -249    -54   -214    255    332 257.6 -48.6  34166  289.68 0855.21
2009/04/23 11:42:17.0    -102    -96    -43    141    148 226.9 -17.0  34172  289.79 0855.21
2009/04/23 11:42:17.1    -185    -60    -75    195    208 251.8 -26.4  34178  289.87 0855.21
2009/04/23 11:42:17.2     -62    -83   -146    104    179 217.0 -65.2  34178  289.87 0855.21
2009/04/23 11:42:17.3     -16   -104   -202    106    228 188.9 -74.8  34178  289.89 0855.21
2009/04/23 11:42:17.4     115   -218   -162    247    295 152.0 -40.9  34164  289.63 0855.21
2009/04/23 11:42:17.5     160   -185   -177    245    302 139.2 -43.9  34178  289.86 0855.21
2009/04/23 11:42:17.6     375   -124    -22    395    396 108.3  -3.3  34162  289.59 0855.21
2009/04/23 11:42:17.7     400   -173    151    436    462 113.4  19.2  34162  289.61 0855.21
2009/04/23 11:42:17.8     368   -261    173    452    483 125.4  22.0  34164  289.64 0855.21
2009/04/23 11:42:17.9     217   -209    126    302    327 134.0  23.9  34156  289.49 0855.21
2009/04/23 11:42:18.0     193   -199    124    278    304 135.9  25.9  34160  289.58 0855.21
2009/04/23 11:42:18.1     177   -203    128    270    298 139.0  27.2  34162  289.61 0855.21
2009/04/23 11:42:18.2      60   -162    126    174    214 159.5  39.5  34162  289.62 0855.21
2009/04/23 11:42:18.3      85   -208    143    225    266 157.7  35.5  34160  289.56 0855.21
2009/04/23 11:42:18.4     107   -162    130    195    234 146.4  36.7  34160  289.58 0855.21
2009/04/23 11:42:18.5      67   -214    105    225    248 162.4  27.1  34156  289.49 0855.21
2009/04/23 11:42:18.6     -21   -272    133    273    303 184.5  27.4  34150  289.41 0855.21
2009/04/23 11:42:18.7      40   -369    396    372    543 173.8  52.1  34152  289.42 0855.21
2009/04/23 11:42:18.8      66   -236    234    246    339 164.2  48.6  34158  289.53 0855.21
2009/04/23 11:42:18.9      71   -112    108    133    171 147.5  43.5  34162  289.60 0855.21
2009/04/23 11:42:19.0      89    -88    162    126    205 134.8  58.2  34162  289.60 0855.21
2009/04/23 11:42:19.1     117    -39    174    124    213 108.4  61.1  34168  289.72 0855.21
2009/04/23 11:42:19.2      28    -68     69     74    101 157.3  47.9  34164  289.65 0855.21
2009/04/23 11:42:19.3      -2   -116     71    117    136 181.4  34.4  34158  289.55 0855.21
2009/04/23 11:42:19.4      34   -107    134    113    175 162.2  55.8  34158  289.55 0855.21
2009/04/23 11:42:19.5     -21   -147    186    149    238 188.1  57.5  34158  289.53 0855.21
2009/04/23 11:42:19.6      39    -17     98     43    107 114.4  75.5  34164  289.65 0855.21
2009/04/23 11:42:19.7     -25    -54    121     60    135 205.4  71.9  34156  289.50 0855.21
2009/04/23 11:42:19.8     -34    -72    215     80    229 205.4  79.1  34156  289.50 0855.21
2009/04/23 11:42:19.9     -37   -169    240    174    296 192.5  60.5  34158  289.54 0855.21
2009/04/23 11:42:20.0      16    -92    183     94    205 169.8  71.0  34158  289.53 0855.21
2009/04/23 11:42:20.1      14     10    104     18    105  54.0  90.0  34172  289.79 0855.21
2009/04/23 11:42:20.2      41    -51    151     66    164 141.3  75.0  34176  289.84 0855.21
2009/04/23 11:42:20.3    -202   -214    199    295    355 223.3  37.4  34166  289.69 0855.22
2009/04/23 11:42:20.4    -276   -226    140    357    383 230.7  22.7  34156  289.52 0855.22
2009/04/23 11:42:20.5    -371   -174    121    410    428 244.8  16.5  34158  289.53 0855.22
2009/04/23 11:42:20.6    -392    -51    -15    396    397 262.5  -2.2  34166  289.67 0855.22
2009/04/23 11:42:20.7    -211      1    -74    212    225 270.4 -19.4  34162  289.62 0855.22
2009/04/23 11:42:20.8    -170   -100     69    198    210 239.6  19.4  34164  289.63 0855.22
2009/04/23 11:42:20.9    -313      5    -57    314    320 271.0 -10.4  34174  289.81 0855.22
2009/04/23 11:42:21.0    -302     37   -159    305    343 277.0 -34.0  34178  289.86 0855.22
2009/04/23 11:42:21.1    -263   -142    -84    300    311 241.6 -20.4  34176  289.83 0855.22
2009/04/23 11:42:21.2    -253   -134    -57    287    293 242.0 -11.3  34182  289.95 0855.22
2009/04/23 11:42:21.3    -388    -49     -9    392    393 262.8  -1.4  34212  290.47 0855.22
2009/04/23 11:42:21.4    -460    -35     23    462    463 265.6   2.9  34204  290.31 0855.22
2009/04/23 11:42:21.5    -334     93     87    347    358 285.6  14.2  34218  290.57 0855.22
2009/04/23 11:42:21.6    -496    154    -35    520    522 287.3  -3.9  34180  289.92 0855.22
2009/04/23 11:42:21.7    -409     82    -66    418    424 281.4  -9.0  34176  289.85 0855.22
2009/04/23 11:42:21.8    -445    -63     27    450    451 261.9   3.5  34202  290.29 0855.22
2009/04/23 11:42:21.9    -151    -31    -54    155    165 258.3 -19.4  34192  290.13 0855.22
2009/04/23 11:42:22.0    -166    -75    157    183    241 245.6  45.1  34198  290.21 0855.22
2009/04/23 11:42:22.1    -156    -80    245    176    301 242.9  60.6  34194  290.15 0855.22
2009/04/23 11:42:22.2    -183    221    269    288    394 320.4  47.9  34178  289.86 0855.22
2009/04/23 11:42:22.3    -235    290    168    374    410 321.0  25.9  34168  289.72 0855.23
2009/04/23 11:42:22.4    -272    252    200    371    421 312.8  30.6  34160  289.58 0855.23
2009/04/23 11:42:22.5    -221    240    127    327    350 317.4  22.4  34168  289.71 0855.23
2009/04/23 11:42:22.6    -163    305    229    346    414 331.9  36.5  34182  289.93 0855.23
2009/04/23 11:42:22.7    -233    148    201    277    342 302.4  39.7  34174  289.81 0855.23
2009/04/23 11:42:22.8    -221    131    145    257    295 300.7  31.9  34176  289.85 0855.23
2009/04/23 11:42:22.9    -206    124    234    241    335 301.1  49.2  34176  289.83 0855.23
2009/04/23 11:42:23.0    -161    189    161    249    296 319.5  35.7  34172  289.78 0855.23
2009/04/23 11:42:23.1    -114    251    194    276    337 335.5  38.7  34186  290.00 0855.23
2009/04/23 11:42:23.2     -87    329    140    341    368 345.1  23.5  34174  289.82 0855.23
2009/04/23 11:42:23.3     -61     92     80    111    136 326.6  39.5  34190  290.09 0855.23
2009/04/23 11:42:23.4      94     30    197     99    220  71.8  71.4  34184  289.99 0855.23
2009/04/23 11:42:23.5      80     63    235    102    256  51.8  75.0  34180  289.92 0855.23
2009/04/23 11:42:23.6      33    144    154    148    213  13.3  50.9  34176  289.84 0855.23
2009/04/23 11:42:23.7     138    191    140    236    274  35.8  33.4  34170  289.73 0855.23
2009/04/23 11:42:23.8     188    111    140    219    259  59.3  35.6  34182  289.93 0855.23
2009/04/23 11:42:23.9     176    250     83    306    318  35.2  15.2  34178  289.86 0855.23
2009/04/23 11:42:24.0     131    -39     72    137    154 106.8  29.8  34180  289.91 0855.23
2009/04/23 11:42:24.1     181    -31    182    184    258  99.9  50.0  34174  289.81 0855.23
2009/04/23 11:42:24.2     253    141    315    290    428  60.9  52.6  34180  289.91 0855.23
2009/04/23 11:42:24.3     307    151    303    343    457  63.8  45.9  34158  289.53 0855.23
2009/04/23 11:42:24.4     385    162    114    418    434  67.2  15.3  34176  289.83 0855.23
2009/04/23 11:42:24.5     376    310    214    488    532  50.5  25.2  34238  290.88 0855.23
2009/04/23 11:42:24.6     263    161    158    309    347  58.5  29.2  34200  290.25 0855.23
2009/04/23 11:42:24.7     218    184    126    286    312  49.8  25.2  34238  290.90 0855.23
2009/04/23 11:42:24.8      51    192    248    199    317  15.1  57.3  34250  291.09 0855.23
2009/04/23 11:42:24.9     123    134    185    183    260  42.5  50.1  34198  290.22 0855.23
2009/04/23 11:42:25.0     111     87    223    142    264  51.8  64.7  34196  290.19 0855.23
2009/04/23 11:42:25.1     157      0    216    158    267  90.0  60.5  34192  290.10 0855.23
2009/04/23 11:42:25.2     328   -162    288    366    465 116.3  42.2  34192  290.11 0855.23
2009/04/23 11:42:25.3      88   -201    245    220    329 156.2  53.6  34200  290.24 0855.23
2009/04/23 11:42:25.4      76   -188    235    203    310 157.9  54.8  34190  290.07 0855.23
2009/04/23 11:42:25.5     292    -68    138    300    330 103.2  26.5  34188  290.05 0855.23
2009/04/23 11:42:25.6     247   -126     -3    278    279 117.1  -0.7  34192  290.10 0855.23
2009/04/23 11:42:25.7     197   -152     45    250    255 127.7  10.3  34186  290.00 0855.23
2009/04/23 11:42:25.8     162   -143     49    217    223 131.4  12.9  34174  289.80 0855.23
2009/04/23 11:42:25.9     131    -24     76    134    154 100.6  32.4  34186  290.02 0855.23
2009/04/23 11:42:26.0     141    -19    102    143    175  97.9  38.8  34180  289.92 0855.23
2009/04/23 11:42:26.1      63    -73     85     97    128 139.0  45.8  34180  289.92 0855.23
2009/04/23 11:42:26.2     -82   -151     38    172    177 208.5  12.6  34180  289.92 0855.23
2009/04/23 11:42:26.3    -189   -297    -93    353    366 212.5 -14.8  34184  289.98 0855.22
2009/04/23 11:42:26.4     -42   -507     22    509    510 184.8   2.5  34182  289.95 0855.22
2009/04/23 11:42:26.6     -44   -353    184    356    400 187.1  29.4  34178  289.87 0855.22
2009/04/23 11:42:26.6     -16   -201    296    202    358 184.7  62.6  34184  289.97 0855.22
2009/04/23 11:42:26.7    -185   -230    235    296    377 218.7  42.4  34182  289.96 0855.22
2009/04/23 11:42:26.8    -212   -279     17    351    352 217.3   2.8  34178  289.89 0855.22
2009/04/23 11:42:27.0    -219   -181     82    285    297 230.5  16.0  34178  289.88 0855.22
2009/04/23 11:42:27.1    -398   -166     60    432    437 247.3   8.0  34188  290.05 0855.22
2009/04/23 11:42:27.2    -356    -83     27    366    367 256.8   4.3  34188  290.04 0855.22
2009/04/23 11:42:27.3    -434     68    122    440    457 278.9  15.6  34194  290.16 0855.22
2009/04/23 11:42:27.4    -421     44    -51    424    428 276.1  -6.9  34188  290.04 0855.22
2009/04/23 11:42:27.5    -401     54     26    405    406 277.8   3.7  34200  290.26 0855.22
2009/04/23 11:42:27.6    -554    -77    -40    560    562 262.0  -4.1  34178  289.87 0855.22
2009/04/23 11:42:27.7    -481   -253   -209    544    582 242.2 -26.5  34152  289.44 0855.22
2009/04/23 11:42:27.8    -472   -192   -164    510    535 247.8 -22.9  34156  289.51 0855.22
2009/04/23 11:42:27.9    -483   -319   -190    580    610 236.5 -23.3  34158  289.54 0855.22
2009/04/23 11:42:28.0    -452   -251   -174    518    546 241.0 -23.7  34156  289.51 0855.22
2009/04/23 11:42:28.1    -502   -281   -204    576    612 240.7 -19.5  34152  289.42 0855.22
2009/04/23 11:42:28.2    -461   -222   -148    512    532 244.3 -20.9  34160  289.58 0855.22
2009/04/23 11:42:28.3    -430   -171   -142    463    484 248.3 -22.1  34160  289.57 0855.22
2009/04/23 11:42:28.4    -383   -109   -143    399    423 254.1 -25.0  34160  289.58 0855.21
2009/04/23 11:42:28.5    -397    -62   -131    402    422 261.0 -23.3  34160  289.56 0855.21
2009/04/23 11:42:28.6    -324    -65   -140    331    359 258.6 -28.7  34160  289.57 0855.21
2009/04/23 11:42:28.7    -244   -143    -87    284    297 239.6 -21.8  34160  289.58 0855.21
2009/04/23 11:42:28.8    -257   -128   -147    288    323 243.4 -33.5  34162  289.59 0855.21
2009/04/23 11:42:28.9    -222   -105   -183    246    306 244.6 -44.5  34156  289.49 0855.21
2009/04/23 11:42:29.0    -157   -113   -158    194    250 234.1 -48.1  34158  289.53 0855.21
2009/04/23 11:42:29.1     -69   -146    -66    162    174 205.4 -27.8  34152  289.45 0855.21
2009/04/23 11:42:29.2     -22   -153    -71    155    170 188.5 -30.8  34154  289.48 0855.21
2009/04/23 11:42:29.3     -43   -165   -116    171    206 194.7 -41.8  34160  289.57 0855.21
2009/04/23 11:42:29.4      -4   -192   -121    193    227 181.4 -39.9  34160  289.57 0855.21
2009/04/23 11:42:29.5       7   -186    -80    187    203 177.8 -28.7  34158  289.55 0855.21
2009/04/23 11:42:29.6      43   -175    -74    181    195 166.2 -27.8  34158  289.55 0855.21
2009/04/23 11:42:29.7      32   -231    -72    234    244 171.9 -22.3  34158  289.54 0855.21
2009/04/23 11:42:29.8      12   -219    -99    220    241 176.9 -30.3  34158  289.53 0855.21
2009/04/23 11:42:29.9      33   -240   -103    243    263 172.0 -28.7  34154  289.47 0855.21
2009/04/23 11:42:30.0      33   -264   -151    267    306 172.9 -36.3  34152  289.44 0855.21
2009/04/23 11:42:30.1      27   -299    -49    301    306 174.7  -9.3  34158  289.53 0855.21
2009/04/23 11:42:30.2      34   -433     -9    435    436 175.4  -1.3  34168  289.72 0855.21
2009/04/23 11:42:30.3      37   -380     25    382    383 174.4   3.8  34172  289.76 0855.21
2009/04/23 11:42:30.4      23   -282     62    283    290 175.3  12.4  34176  289.83 0855.17
2009/04/23 11:42:30.5      30   -312     52    314    319 174.4   9.4  34168  289.71 0855.17
2009/04/23 11:42:30.6     -70   -293    131    302    329 193.6  25.0  34174  289.81 0855.17
2009/04/23 11:42:30.7     -43   -194     83    199    215 192.5  23.8  34180  289.91 0855.17
2009/04/23 11:42:30.8    -139   -177    -47    226    231 218.1 -11.9  34168  289.70 0855.17
2009/04/23 11:42:30.9    -156   -208   -118    260    285 216.9 -30.6  34164  289.64 0855.17
2009/04/23 11:42:31.0    -215   -202   -132    296    324 226.8 -30.2  34166  289.66 0855.17
2009/04/23 11:42:31.1    -131   -235    -51    270    275 209.2 -10.9  34168  289.70 0855.17
2009/04/23 11:42:31.2    -164   -225    -62    279    286 216.1 -12.6  34164  289.64 0855.17
2009/04/23 11:42:31.3    -161   -228    -77    280    291 215.2 -15.4  34162  289.61 0855.17
2009/04/23 11:42:31.4    -118   -179     33    215    218 213.4   8.8  34166  289.67 0855.17
2009/04/23 11:42:31.5    -107   -247    -67    270    279 203.4 -13.9  34174  289.81 0855.17
2009/04/23 11:42:31.6     -57   -261    -19    268    269 192.5  -4.1  34180  289.90 0855.17
2009/04/23 11:42:31.7     -25   -275    -24    277    279 185.3  -5.1  34174  289.80 0855.17
2009/04/23 11:42:31.8      29   -289    -37    291    294 174.2  -7.3  34166  289.66 0855.17
2009/04/23 11:42:31.9      10   -262    -48    263    268 177.8 -10.5  34174  289.81 0855.17
2009/04/23 11:42:32.0     -40   -286    -74    289    299 188.1 -14.4  34182  289.95 0855.17
2009/04/23 11:42:32.1     -54   -237    -67    244    254 192.9 -15.4  34168  289.71 0855.17
2009/04/23 11:42:32.2     -73   -219    -69    231    242 198.5 -16.6  34168  289.70 0855.17
2009/04/23 11:42:32.3     -72   -230    -66    242    252 197.4 -15.4  34168  289.71 0855.17
2009/04/23 11:42:32.4     -71   -251    -77    261    273 195.8 -16.4  34166  289.68 0855.17
2009/04/23 11:42:32.5     -59   -236    -17    244    245 194.2  -4.1  34170  289.73 0855.17
2009/04/23 11:42:32.6     -42   -207    -46    212    218 191.6 -12.4  34166  289.69 0855.17
2009/04/23 11:42:32.7    -124   -238      8    269    270 207.6   1.8  34174  289.81 0855.17
2009/04/23 11:42:32.8    -212   -293    -32    362    364 216.0  -5.2  34180  289.91 0855.17
2009/04/23 11:42:32.9    -128   -252    -12    283    284 207.0  -2.6  34180  289.90 0855.17
2009/04/23 11:42:33.0    -139   -271     26    305    307 207.2   5.0  34176  289.85 0855.17
2009/04/23 11:42:33.1    -149   -259     17    299    300 209.9   3.3  34184  289.97 0855.17
2009/04/23 11:42:33.2     -89   -263    -35    278    281 198.7  -7.3  34184  289.98 0855.17
2009/04/23 11:42:33.3     -80   -301    -75    312    321 194.9 -13.6  34182  289.93 0855.17
2009/04/23 11:42:33.4      29   -404   -104    405    419 175.9 -14.4  34172  289.77 0855.17
2009/04/23 11:42:33.5     113   -414   -111    430    445 164.7 -14.5  34172  289.77 0855.17
2009/04/23 11:42:33.6     117   -390    -59    408    413 163.2  -8.2  34178  289.87 0855.17
2009/04/23 11:42:33.7     145   -360    -34    389    391 158.1  -5.1  34174  289.82 0855.17
2009/04/23 11:42:33.8     152   -353    -56    385    390 156.7  -8.3  34172  289.77 0855.17
2009/04/23 11:42:33.9     151   -323    -45    357    360 155.0  -7.2  34176  289.84 0855.17
2009/04/23 11:42:34.0     154   -275     11    316    317 150.8   2.1  34180  289.90 0855.17
2009/04/23 11:42:34.1     160   -222     18    275    276 144.2   3.8  34178  289.88 0855.17
2009/04/23 11:42:34.2     221   -220    117    313    334 134.9  21.5  34166  289.68 0855.17
2009/04/23 11:42:34.3     241   -191     74    308    317 128.4  13.5  34172  289.78 0855.17
2009/04/23 11:42:34.4     234   -177     93    294    309 127.1  17.7  34174  289.81 0855.17
2009/04/23 11:42:34.5     188   -122     98    225    245 122.9  25.1  34172  289.78 0855.17
2009/04/23 11:42:34.6     113   -126    108    170    201 137.9  35.5  34170  289.74 0855.17
2009/04/23 11:42:34.7      72   -161     79    177    193 155.7  25.9  34174  289.80 0855.17
2009/04/23 11:42:34.8      27   -118     60    122    135 167.1  27.8  34176  289.85 0855.17
2009/04/23 11:42:34.9      90    -37    -30     98    102 112.2 -22.3  34176  289.85 0855.17
2009/04/23 11:42:35.0      48    -48    -20     68     70 134.9 -21.7  34182  289.94 0855.17
2009/04/23 11:42:35.1     -14    -96    -43     98    107 188.5 -29.0  34182  289.94 0855.17
2009/04/23 11:42:35.2       5    -96    -16     97     99 176.9  -9.8  34180  289.91 0855.17
2009/04/23 11:42:35.3      -4    -70     -7     71     72 183.6  -6.2  34174  289.80 0855.17
2009/04/23 11:42:35.4      14    -17     38     23     44 140.4  66.8  34178  289.87 0855.18
2009/04/23 11:42:35.5      10    -10     31     15     34 135.0  72.9  34182  289.94 0855.18
2009/04/23 11:42:35.6      14     14     62     20     65  45.0  80.7  34184  289.99 0855.18
2009/04/23 11:42:35.7      13     79    111     81    137   9.8  60.5  34190  290.08 0855.18
2009/04/23 11:42:35.8     -43      1     73     44     85 272.6  65.7  34190  290.09 0855.18
2009/04/23 11:42:35.9      59    -81     46    101    110 143.9  26.6  34180  289.92 0855.18
2009/04/23 11:42:36.0      58   -146      6    158    159 158.1   2.5  34176  289.85 0855.18
2009/04/23 11:42:36.1       7   -167     -6    168    169 177.5  -2.2  34178  289.87 0855.18
2009/04/23 11:42:36.2      16   -166    -43    167    173 174.4 -14.5  34178  289.87 0855.18
2009/04/23 11:42:36.3     -22   -155    -63    157    169 188.1 -27.4  34176  289.84 0855.18
2009/04/23 11:42:36.4     -59   -188    -65    198    209 197.6 -18.3  34178  289.87 0855.18
2009/04/23 11:42:36.5     -91   -239    -65    256    265 200.9 -14.3  34174  289.80 0855.18
2009/04/23 11:42:36.6    -100   -178     21    205    207 209.4   5.9  34174  289.80 0855.18
2009/04/23 11:42:36.7     -68   -170     44    184    190 201.8  13.7  34176  289.85 0855.18
2009/04/23 11:42:36.8     -60    -73    -31     95    100 219.6 -18.1  34178  289.87 0855.18
2009/04/23 11:42:36.9     -69   -108    -70    129    146 212.5 -35.2  34178  289.89 0855.18
2009/04/23 11:42:37.0     -79   -116    -98    141    171 214.3 -42.4  34180  289.92 0855.18
2009/04/23 11:42:37.1     -57   -172    -60    182    192 198.5 -18.3  34178  289.87 0855.18
2009/04/23 11:42:37.2     -47    -93    -53    105    117 207.2 -33.1  34178  289.89 0855.18
2009/04/23 11:42:37.3     -29   -143    -49    147    156 191.6 -18.7  34176  289.85 0855.18
2009/04/23 11:42:37.4      30   -134    -59    138    150 167.1 -29.0  34176  289.85 0855.18
2009/04/23 11:42:37.5      41   -105    -49    113    123 158.6 -29.5  34178  289.89 0855.18
2009/04/23 11:42:37.6      50   -120    -31    131    135 157.3 -13.4  34186  290.02 0855.18
2009/04/23 11:42:37.7      32    -96     -6    102    103 161.7  -3.7  34184  289.99 0855.18
2009/04/23 11:42:37.8      12    -87     19     88     91 171.5  12.2  34188  290.06 0855.18
2009/04/23 11:42:37.9     -24    -71      3     75     76 198.7   2.8  34184  289.99 0855.18
2009/04/23 11:42:38.0      -4    -53     21     54     57 184.5  21.0  34184  289.97 0855.18
2009/04/23 11:42:38.1     -45    -10      8     47     48 257.6  10.1  34186  290.02 0855.18
2009/04/23 11:42:38.2     -63      2    -20     64     67 272.6 -23.8  34202  290.30 0855.18
2009/04/23 11:42:38.3     -51    -30    -54     60     80 239.3 -51.3  34204  290.33 0855.18
2009/04/23 11:42:38.4       1   -113    -92    114    146 179.1 -48.1  34204  290.33 0855.18
2009/04/23 11:42:38.5      -2   -146   -103    147    179 180.9 -43.0  34206  290.36 0855.18
2009/04/23 11:42:38.6     -99    -92   -133    136    190 226.9 -54.2  34210  290.43 0855.18
2009/04/23 11:42:38.7     -15    -87    -56     89    105 189.8 -39.9  34218  290.55 0855.18
2009/04/23 11:42:38.8     -50   -114    -39    125    132 203.6 -17.5  34214  290.50 0855.18
2009/04/23 11:42:38.9      26   -242    -92    244    260 173.8 -26.1  34216  290.51 0855.18
2009/04/23 11:42:39.0     130   -244    -59    277    284 151.9 -12.2  34220  290.58 0855.18
2009/04/23 11:42:39.1     122   -225    -20    257    258 151.5  -4.6  34218  290.56 0855.18
2009/04/23 11:42:39.2     167   -177     40    244    248 136.8   9.3  34216  290.53 0855.18
2009/04/23 11:42:39.3     125   -348     -7    370    371 160.2  -1.2  34204  290.32 0855.18
2009/04/23 11:42:39.4     196   -430     44    473    476 155.5   5.4  34204  290.32 0855.16
2009/04/23 11:42:39.5     105   -357     22    373    374 163.6   3.5  34202  290.28 0855.16
2009/04/23 11:42:39.6      19   -306     -9    307    308 176.4  -1.8  34196  290.17 0855.16
2009/04/23 11:42:39.7     142   -388     65    414    420 159.8   9.0  34184  289.99 0855.16
2009/04/23 11:42:39.8       2   -402     89    403    413 179.7  12.5  34190  290.09 0855.16
2009/04/23 11:42:39.9       6   -329    123    330    352 178.8  21.3  34188  290.06 0855.16
2009/04/23 11:42:40.0      25   -320    143    322    352 175.5  25.3  34182  289.93 0855.16
2009/04/23 11:42:40.1      36   -331    124    334    356 173.8  21.3  34182  289.94 0855.16
2009/04/23 11:42:40.2      -5   -301    150    302    337 181.0  28.4  34178  289.88 0855.16
2009/04/23 11:42:40.3       0   -305    157    306    343 180.0  29.2  34178  289.89 0855.16
2009/04/23 11:42:40.4       0   -332    124    333    355 180.1  21.3  34178  289.89 0855.16
2009/04/23 11:42:40.5       7   -408    127    409    429 178.9  17.3  34180  289.92 0855.16
2009/04/23 11:42:40.6      27   -389     83    390    399 176.0  12.1  34186  290.01 0855.16
2009/04/23 11:42:40.7      63   -448    131    453    472 172.0  16.1  34182  289.96 0855.16
2009/04/23 11:42:40.8    -126   -380    103    401    415 198.5  14.4  34178  289.88 0855.16
2009/04/23 11:42:40.9     -53   -429    190    433    472 187.1  25.2  34182  289.94 0855.16
2009/04/23 11:42:41.0       7   -410    174    411    446 179.0  24.3  34182  289.94 0855.16
2009/04/23 11:42:41.1      16   -378    179    379    419 177.5  27.1  34178  289.87 0855.16
2009/04/23 11:42:41.2      38   -353    213    356    414 173.8  33.6  34174  289.81 0855.16
2009/04/23 11:42:41.3      17   -292    202    293    355 176.6  37.8  34180  289.91 0855.16
2009/04/23 11:42:41.4      59   -291    146    298    331 168.4  28.0  34178  289.88 0855.16
2009/04/23 11:42:41.5     110   -224    119    250    276 153.7  27.2  34178  289.88 0855.16
2009/04/23 11:42:41.6     133   -142    202    195    280 136.8  51.2  34186  290.00 0855.16
2009/04/23 11:42:41.7     105    -57    150    120    192 118.9  56.9  34184  289.99 0855.16
2009/04/23 11:42:41.8      24    -71    128     76    148 160.8  66.7  34186  290.02 0855.16
2009/04/23 11:42:41.9     -22   -133     95    135    165 189.8  38.6  34184  289.97 0855.16
2009/04/23 11:42:42.0     -21   -104    152    107    185 191.6  61.5  34184  289.97 0855.16
2009/04/23 11:42:42.1     -51   -108     92    120    151 205.3  41.7  34182  289.94 0855.16
2009/04/23 11:42:42.2     -64    -57    108     86    138 228.2  56.9  34186  290.01 0855.16
2009/04/23 11:42:42.3     -24    -79    106     83    134 197.4  58.4  34184  289.99 0855.16
2009/04/23 11:42:42.4      20   -156    128    158    203 172.4  43.3  34182  289.96 0855.16
2009/04/23 11:42:42.5    -130   -184     79    226    239 215.2  20.0  34176  289.83 0855.16
2009/04/23 11:42:42.6     -63   -209     78    219    233 196.9  19.6  34178  289.87 0855.16
2009/04/23 11:42:42.7      -1   -154    162    155    224 180.5  51.4  34182  289.94 0855.16
2009/04/23 11:42:42.8     -26   -135    123    138    184 191.1  46.4  34182  289.96 0855.16
2009/04/23 11:42:42.9    -209   -282     55    352    357 216.5   8.9  34174  289.81 0855.16
2009/04/23 11:42:43.0    -217   -308     42    377    380 215.2   6.5  34172  289.79 0855.16
2009/04/23 11:42:43.1    -266   -279     -7    386    387 223.7  -1.2  34176  289.84 0855.16
2009/04/23 11:42:43.2    -248   -305    -33    394    396 219.1  -4.8  34174  289.82 0855.16
2009/04/23 11:42:43.3    -243   -281    -69    372    379 220.9 -10.5  34174  289.81 0855.16
2009/04/23 11:42:43.4    -146   -195     70    244    254 216.9  16.0  34180  289.90 0855.16
2009/04/23 11:42:43.5     -78   -198     27    213    215 201.6   7.5  34174  289.82 0855.16
2009/04/23 11:42:43.6     -87   -227     45    244    249 200.9  10.6  34176  289.83 0855.16
2009/04/23 11:42:43.7    -109   -228     59    253    260 205.6  13.2  34178  289.86 0855.16
2009/04/23 11:42:43.8    -113   -207     39    237    241 208.7   9.3  34176  289.85 0855.16
2009/04/23 11:42:43.9    -135   -171     80    219    233 218.3  20.7  34178  289.87 0855.16
2009/04/23 11:42:44.0    -152   -169    107    228    251 221.9  27.1  34176  289.85 0855.16
2009/04/23 11:42:44.1    -241   -144    148    281    317 239.1  30.1  34184  289.98 0855.16
2009/04/23 11:42:44.2    -233    -41    144    237    277 259.9  34.2  34188  290.03 0855.16
2009/04/23 11:42:44.3    -162    -16    140    163    214 264.1  45.1  34184  289.99 0855.16
2009/04/23 11:42:44.4     -89    -40    114     98    150 245.6  55.4  34186  290.01 0855.16
2009/04/23 11:42:44.5     -89    -88    137    126    186 225.2  52.7  34186  290.02 0855.16
2009/04/23 11:42:44.6     -85    -70    103    111    151 230.4  47.9  34188  290.04 0855.16
2009/04/23 11:42:44.7     -94   -103     72    140    157 222.3  29.3  34184  289.97 0855.16
2009/04/23 11:42:44.8     -75   -162     74    179    193 204.9  23.4  34180  289.92 0855.16
2009/04/23 11:42:44.9     -60   -152     68    164    177 201.8  23.6  34178  289.89 0855.16
2009/04/23 11:42:45.0     -26    -55     63     61     87 205.3  50.1  34180  289.92 0855.16
2009/04/23 11:42:45.1     -21    -15     80     27     84 234.0  81.0  34194  290.16 0855.16
2009/04/23 11:42:45.2      -6    -88     76     89    117 184.5  44.8  34190  290.09 0855.16
2009/04/23 11:42:45.3      28   -104     87    108    138 164.9  43.3  34186  290.01 0855.16
2009/04/23 11:42:45.4      33   -127     93    132    161 165.3  38.6  34190  290.08 0855.15
2009/04/23 11:42:45.5      78   -136     82    158    178 150.1  29.8  34188  290.06 0855.15
2009/04/23 11:42:45.6      86   -138     74    163    179 147.9  26.2  34186  290.02 0855.15
2009/04/23 11:42:45.7      47   -166     30    173    176 164.0  10.1  34188  290.04 0855.15
2009/04/23 11:42:45.8      60   -178     -9    188    189 161.3  -2.8  34186  290.02 0855.15
2009/04/23 11:42:45.9     101   -157      1    187    188 147.3   0.5  34188  290.04 0855.15
2009/04/23 11:42:46.0     126   -102     72    163    178 129.1  25.1  34184  289.99 0855.15
2009/04/23 11:42:46.1     149    -49    110    158    192 108.4  38.0  34190  290.09 0855.15
2009/04/23 11:42:46.2     121   -113     82    166    185 133.1  28.0  34190  290.09 0855.15
2009/04/23 11:42:46.3     121    -86    102    149    180 125.5  37.8  34186  290.01 0855.15
2009/04/23 11:42:46.4     148    -30    130    151    199 101.5  45.4  34184  289.97 0855.15
2009/04/23 11:42:46.5     148    -11    167    149    223  94.4  53.7  34186  290.01 0855.15
2009/04/23 11:42:46.6     154    -20    154    156    219  97.5  50.0  34182  289.94 0855.15
2009/04/23 11:42:46.7     129    -12    212    130    248  95.7  65.6  34182  289.94 0855.15
2009/04/23 11:42:46.8      71     -5    161     72    176  94.4  74.5  34190  290.09 0855.15
2009/04/23 11:42:46.9     -10    -32    131     34    135 198.7  85.4  34192  290.11 0855.15
2009/04/23 11:42:47.0       2     46    150     47    157   3.6  82.3  34188  290.04 0855.15
2009/04/23 11:42:47.1      25     60    192     66    203  22.7  80.7  34192  290.13 0855.15
2009/04/23 11:42:47.2      30     44    140     54    150  34.3  78.2  34192  290.13 0855.15
2009/04/23 11:42:47.3     -35     76    102     84    132 335.1  56.3  34194  290.16 0855.15
2009/04/23 11:42:47.4     -27     22     87     36     94 309.5  77.1  34196  290.18 0855.18
2009/04/23 11:42:47.5     -16     13     95     22     97 309.5  87.5  34198  290.21 0855.18
2009/04/23 11:42:47.6      11      3     94     12     94  71.6  90.0  34194  290.14 0855.18
2009/04/23 11:42:47.7     -41     16    112     45    120 291.7  77.1  34198  290.21 0855.18
2009/04/23 11:42:47.8     -23     59    174     64    185 338.2  79.5  34188  290.06 0855.18
2009/04/23 11:42:47.9     -20    116    155    118    194 349.8  59.0  34182  289.96 0855.18
2009/04/23 11:42:48.0      94    110    159    146    215  40.5  52.5  34172  289.79 0855.18
2009/04/23 11:42:48.1      23    114     70    117    136  11.5  34.0  34170  289.74 0855.18
2009/04/23 11:42:48.2    -117     91     85    149    171 307.8  32.4  34182  289.94 0855.18
2009/04/23 11:42:48.3    -152     67     57    167    177 294.0  18.9  34206  290.36 0855.18
2009/04/23 11:42:48.4    -148    127    139    196    240 310.7  38.8  34192  290.13 0855.18
2009/04/23 11:42:48.5    -149    142    111    207    234 313.6  30.3  34196  290.18 0855.18
2009/04/23 11:42:48.6    -214    126     53    249    255 300.6  12.0  34184  289.97 0855.18
2009/04/23 11:42:48.7    -267    -66     69    276    285 256.1  14.2  34200  290.24 0855.18
2009/04/23 11:42:48.8    -240    -18     88    241    256 265.6  20.9  34214  290.49 0855.18
2009/04/23 11:42:48.9    -255    -84    138    269    302 251.6  29.3  34208  290.39 0855.18
2009/04/23 11:42:49.0    -202   -107    124    229    260 242.0  30.8  34214  290.48 0855.18
2009/04/23 11:42:49.1    -176   -193    189    262    323 222.3  39.5  34182  289.95 0855.18
2009/04/23 11:42:49.2    -277    -38    133    280    309 262.0  27.2  34208  290.39 0855.18
2009/04/23 11:42:49.3    -123    -78    165    146    220 237.5  54.2  34204  290.33 0855.18
2009/04/23 11:42:49.4     -53   -159    170    168    239 198.5  50.1  34194  290.14 0855.17
2009/04/23 11:42:49.5     -53   -181    165    189    250 196.3  45.8  34192  290.13 0855.17
2009/04/23 11:42:49.6      -2   -135    120    136    181 180.9  46.2  34190  290.08 0855.17
2009/04/23 11:42:49.7     -30   -137    194    141    239 192.5  60.5  34190  290.08 0855.17
2009/04/23 11:42:49.8     134   -113    182    176    253 130.0  51.2  34182  289.96 0855.17
2009/04/23 11:42:49.9     -10    -63    189     64    199 189.8  81.0  34182  289.96 0855.17
2009/04/23 11:42:50.0    -111    -63    179    128    220 240.2  60.8  34182  289.96 0855.17
2009/04/23 11:42:50.1     -94   -169    158    194    250 209.0  43.7  34170  289.75 0855.17
2009/04/23 11:42:50.2     -97   -216    165    237    288 204.3  38.4  34168  289.71 0855.17
2009/04/23 11:42:50.3    -114   -266    106    290    308 203.2  20.9  34164  289.64 0855.17
2009/04/23 11:42:50.4     -87   -272    114    286    307 197.8  23.0  34170  289.75 0855.17
2009/04/23 11:42:50.5     -68   -157    211    172    272 203.4  56.4  34170  289.73 0855.17
2009/04/23 11:42:50.6    -132    -11    203    133    242 265.2  63.6  34192  290.11 0855.17
2009/04/23 11:42:50.7     128     31    118    132    177  76.3  46.6  34192  290.11 0855.17
2009/04/23 11:42:50.8     127    -75    148    148    209 120.7  50.1  34182  289.94 0855.17
2009/04/23 11:42:50.9      70    -59    139     92    166 130.0  63.6  34190  290.09 0855.17
2009/04/23 11:42:51.0     239    -99    204    259    329 112.6  42.3  34186  290.02 0855.17
2009/04/23 11:42:51.2     110   -165    212    199    290 146.2  52.1  34172  289.78 0855.17
2009/04/23 11:42:51.2      59   -193    213    203    294 162.8  51.6  34172  289.78 0855.17
2009/04/23 11:42:51.3     101   -153    159    184    243 146.4  45.6  34176  289.85 0855.17
2009/04/23 11:42:51.4       7      7    133     11    133  45.0  90.0  34180  289.92 0855.18
2009/04/23 11:42:51.5       5   -123    201    124    236 177.3  65.6  34178  289.87 0855.18
2009/04/23 11:42:51.6      -8   -126    196    127    233 184.0  64.6  34174  289.80 0855.18
2009/04/23 11:42:51.7     -40     45    134     61    147 318.6  73.5  34186  290.02 0855.18
2009/04/23 11:42:51.8      22     40    116     46    124  29.0  77.6  34188  290.04 0855.18
2009/04/23 11:42:51.9     -58     22     62     63     88 290.8  50.5  34184  289.97 0855.18
2009/04/23 11:42:52.0     -75     -5     76     76    107 265.6  50.1  34194  290.16 0855.18
2009/04/23 11:42:52.1      19    -50     74     54     91 159.1  60.0  34192  290.11 0855.18
2009/04/23 11:42:52.2      36   -107     61    113    128 161.3  30.8  34182  289.96 0855.18
2009/04/23 11:42:52.3     -21    -21     15     31     34 225.0  27.2  34182  289.94 0855.18
2009/04/23 11:42:52.4       0      5     75      6     75 357.3  90.0  34190  290.08 0855.18
2009/04/23 11:42:52.5       5     68     56     69     88   4.5  43.7  34186  290.02 0855.18
2009/04/23 11:42:52.6     -17    -11     64     21     67 237.6  80.7  34184  289.97 0855.18
2009/04/23 11:42:52.7       4    -78     65     79    102 176.4  43.8  34176  289.84 0855.18
2009/04/23 11:42:52.8      16    -86     91     88    126 169.3  50.7  34178  289.87 0855.18
2009/04/23 11:42:52.9      79   -153    136    173    220 152.8  42.2  34172  289.79 0855.18
2009/04/23 11:42:53.0       0   -192    130    193    232 180.2  37.0  34172  289.79 0855.18
2009/04/23 11:42:53.1     -20   -151    123    153    196 187.6  43.3  34174  289.82 0855.18
2009/04/23 11:42:53.2     -30   -149     86    153    175 191.6  31.6  34174  289.82 0855.18
2009/04/23 11:42:53.3     -81   -121     68    146    161 213.8  26.6  34174  289.82 0855.18
2009/04/23 11:42:53.5      22    -92    131     95    161 166.2  60.5  34182  289.96 0855.18
2009/04/23 11:42:53.6      22    -59     94     64    113 159.1  63.2  34180  289.92 0855.18
2009/04/23 11:42:53.6       4    -56     86     57    103 175.6  63.6  34184  289.97 0855.18
2009/04/23 11:42:53.8    -102   -151    159    183    242 214.1  45.8  34174  289.80 0855.18
2009/04/23 11:42:53.9     -37   -165    176    170    244 192.9  51.2  34178  289.87 0855.18
2009/04/23 11:42:54.0     -38   -169    126    174    214 192.7  39.5  34174  289.82 0855.18
2009/04/23 11:42:54.1    -110   -165    123    199    233 213.6  35.2  34174  289.80 0855.18
2009/04/23 11:42:54.2    -120   -147     99    190    214 219.2  29.5  34174  289.82 0855.18
2009/04/23 11:42:54.3    -106   -178     41    208    213 210.8  11.1  34172  289.79 0855.18
2009/04/23 11:42:54.4     -48   -211     73    217    230 192.9  18.6  34176  289.84 0855.18
2009/04/23 11:42:54.5     -46   -255     87    260    275 190.2  18.5  34178  289.88 0855.17
2009/04/23 11:42:54.6     -61   -200     25    210    212 196.9   6.9  34174  289.80 0855.17
2009/04/23 11:42:54.7      -8   -202    100    203    226 182.5  27.8  34180  289.92 0855.17
2009/04/23 11:42:54.8      -3   -189    131    190    230 181.0  37.8  34176  289.84 0855.17
2009/04/23 11:42:54.9      37   -154    152    159    219 166.2  48.7  34180  289.92 0855.17
2009/04/23 11:42:55.0       0   -182    142    183    231 180.0  41.7  34180  289.91 0855.17
2009/04/23 11:42:55.1       4   -170    108    171    202 178.4  35.5  34178  289.89 0855.17
2009/04/23 11:42:55.2      -9   -179    128    180    220 183.1  39.3  34182  289.94 0855.17
2009/04/23 11:42:55.3     -39   -183    125    188    225 192.0  36.5  34182  289.94 0855.17
2009/04/23 11:42:55.4     -29   -168    148    171    226 190.0  45.4  34184  289.99 0855.17
2009/04/23 11:42:55.5     -16   -201    146    202    249 184.7  39.5  34182  289.93 0855.17
2009/04/23 11:42:55.6     -30   -280    168    282    328 186.2  33.7  34180  289.92 0855.17
2009/04/23 11:42:55.7     -93   -274     79    290    301 198.9  15.3  34176  289.85 0855.17
2009/04/23 11:42:55.8    -127   -277     82    305    316 204.7  15.1  34178  289.86 0855.17
2009/04/23 11:42:55.9     -47   -166    179    173    248 195.8  50.9  34184  289.97 0855.17
2009/04/23 11:42:56.0     -62   -160    187    172    254 201.4  52.5  34184  289.97 0855.17
2009/04/23 11:42:56.1     -61   -178    157    189    245 198.9  43.8  34184  289.99 0855.17
2009/04/23 11:42:56.2     -75   -163     84    180    198 204.9  27.0  34180  289.91 0855.17
2009/04/23 11:42:56.3     -12   -162    156    163    225 184.2  48.5  34178  289.87 0855.17
2009/04/23 11:42:56.4     -27   -238    217    240    323 186.7  46.8  34182  289.95 0855.17
2009/04/23 11:42:56.5     -34   -282    161    285    327 186.9  32.0  34182  289.93 0855.17
2009/04/23 11:42:56.6     -95   -282    151    298    334 198.7  28.9  34176  289.85 0855.17
2009/04/23 11:42:56.7      -3   -194    185    195    268 181.0  48.5  34186  290.02 0855.17
2009/04/23 11:42:56.8     -22   -155    169    157    230 188.1  52.2  34184  289.97 0855.17
2009/04/23 11:42:56.9     -38   -175    180    180    254 192.5  50.1  34182  289.96 0855.17
2009/04/23 11:42:57.0     -29   -154    187    157    244 190.7  55.8  34180  289.92 0855.17
2009/04/23 11:42:57.1     -56   -177    181    186    259 197.8  49.2  34186  290.00 0855.17
2009/04/23 11:42:57.2     -64   -147    142    161    214 203.6  45.8  34186  290.02 0855.17
2009/04/23 11:42:57.3     -66   -150    123    165    205 203.8  40.7  34186  290.02 0855.17
2009/04/23 11:42:57.4     -80   -152    132    173    217 207.9  41.2  34186  290.01 0855.17
2009/04/23 11:42:57.5     -27   -135    135    138    193 191.6  49.8  34186  290.01 0855.17
2009/04/23 11:42:57.6     -48   -148    132    156    204 198.3  44.5  34184  289.97 0855.17
2009/04/23 11:42:57.7     -57    -86    100    104    144 213.8  49.4  34184  289.99 0855.17
2009/04/23 11:42:57.8     -47   -114    123    124    174 202.7  50.5  34186  290.02 0855.17
2009/04/23 11:42:57.9     -34   -110    134    116    177 197.4  54.6  34184  289.97 0855.17
2009/04/23 11:42:58.0     -45   -129    149    137    202 199.6  52.5  34186  290.01 0855.17
2009/04/23 11:42:58.1      -4    -61    129     62    143 184.5  72.9  34192  290.11 0855.17
2009/04/23 11:42:58.2     -36    -24    107     44    115 236.7  77.0  34192  290.11 0855.17
2009/04/23 11:42:58.3       6    -23    115     24    117 164.9  89.0  34200  290.26 0855.17
2009/04/23 11:42:58.4    -117    -91    114    149    187 232.3  41.2  34186  290.02 0855.17
2009/04/23 11:42:58.5    -201    -74    151    215    262 249.6  38.6  34194  290.14 0855.16
2009/04/23 11:42:58.6    -215     12    121    216    247 273.3  31.6  34222  290.63 0855.16
2009/04/23 11:42:58.7    -201    -43    127    206    242 257.8  34.5  34196  290.19 0855.16
2009/04/23 11:42:58.8    -208      4    128    209    245 271.3  34.4  34196  290.19 0855.16
2009/04/23 11:42:58.9    -170     67    126    184    223 291.7  37.6  34198  290.21 0855.16
2009/04/23 11:42:59.0    -159     22    110    161    194 277.9  37.3  34194  290.16 0855.16
2009/04/23 11:42:59.1    -180     48    119    187    221 285.0  35.5  34200  290.25 0855.16
2009/04/23 11:42:59.2    -204      6     57    205    213 271.9  15.6  34202  290.28 0855.16
2009/04/23 11:42:59.3    -175     36     98    179    204 281.9  31.3  34194  290.16 0855.16
2009/04/23 11:42:59.4    -169     36    104    173    201 282.2  34.0  34192  290.11 0855.16
2009/04/23 11:42:59.5    -158     68     95    173    197 293.3  31.4  34204  290.33 0855.16
2009/04/23 11:42:59.6    -182     67    125    195    231 290.4  35.6  34212  290.45 0855.16
2009/04/23 11:42:59.7    -142     82    133    165    211 300.0  43.5  34198  290.23 0855.16
2009/04/23 11:42:59.8    -127     70     58    146    157 298.9  22.8  34194  290.16 0855.16
2009/04/23 11:42:59.9    -174     16      5    175    176 275.5   1.8  34200  290.25 0855.16
2009/04/23 11:43:00.0    -125     29    103    129    165 283.3  42.7  34196  290.18 0855.16
2009/04/23 11:43:00.1    -205     -7    106    206    231 267.9  29.3  34204  290.33 0855.16
2009/04/23 11:43:00.2     -69   -148    122    164    204 204.9  40.4  34186  290.01 0855.16
2009/04/23 11:43:00.3     -22   -110    123    113    167 191.5  52.7  34184  289.97 0855.16
2009/04/23 11:43:00.4     -56   -203    170    211    270 195.4  43.3  34188  290.03 0855.16
2009/04/23 11:43:00.5      -5   -140     85    141    164 182.2  34.2  34186  290.01 0855.16
2009/04/23 11:43:00.6     -65   -112    105    130    167 210.3  43.5  34192  290.13 0855.16
2009/04/23 11:43:00.7     -27   -206    109    208    234 187.6  29.8  34192  290.13 0855.16
2009/04/23 11:43:00.8      44    -90    145    101    176 153.7  61.5  34198  290.23 0855.16
2009/04/23 11:43:00.9      38    -49    122     63    137 142.2  70.8  34198  290.21 0855.16
2009/04/23 11:43:01.0     -16    -20    144     26    146 219.6  90.0  34198  290.23 0855.16
2009/04/23 11:43:01.1     -30   -137    150    141    205 192.5  52.1  34190  290.09 0855.16
2009/04/23 11:43:01.2      25    -20    155     33    158 129.5  88.5  34196  290.19 0855.16
2009/04/23 11:43:01.3      31    -56    107     65    125 151.0  65.7  34198  290.21 0855.16
2009/04/23 11:43:01.4     -12      0    135     13    135 265.6  90.0  34206  290.35 0855.16
2009/04/23 11:43:01.5      11      0     67     12     68  90.0  90.0  34200  290.25 0855.16
2009/04/23 11:43:01.6      16    -20     54     26     59 140.4  72.8  34196  290.19 0855.16
2009/04/23 11:43:01.7       8     -2     79      9     79 108.2  90.0  34204  290.33 0855.16
2009/04/23 11:43:01.8     -12    -27     71     30     77 205.4  77.0  34208  290.38 0855.16
2009/04/23 11:43:01.9    -113     17    109    115    158 278.8  48.7  34198  290.21 0855.16
2009/04/23 11:43:02.0     -66    -48    139     82    161 234.1  67.0  34194  290.16 0855.16
2009/04/23 11:43:02.1     170     26    -51    172    179  81.2 -21.2  34188  290.04 0855.16
2009/04/23 11:43:02.2     264    122    116    291    313  65.2  22.9  34196  290.19 0855.16
2009/04/23 11:43:02.3     163    104    185    194    268  57.5  48.7  34196  290.19 0855.16
2009/04/23 11:43:02.4     148     81    176    169    244  61.1  51.2  34198  290.21 0855.16
2009/04/23 11:43:02.5     187     28    190    190    268  81.4  50.1  34198  290.20 0855.18
2009/04/23 11:43:02.6     216     58    116    224    252  74.9  29.5  34184  289.97 0855.18
2009/04/23 11:43:02.7     242     27    189    244    308  83.6  41.7  34200  290.26 0855.18
2009/04/23 11:43:02.8     288     25    153    290    327  85.0  30.1  34190  290.07 0855.18
2009/04/23 11:43:02.9     344      9    121    345    365  88.4  20.1  34188  290.04 0855.18
2009/04/23 11:43:03.0     329     91    140    342    369  74.4  23.6  34164  289.65 0855.18
2009/04/23 11:43:03.1     302     34    107    305    323  83.4  20.1  34188  290.05 0855.18
2009/04/23 11:43:03.2     188    -14    105    189    216  94.4  31.4  34188  290.06 0855.18
2009/04/23 11:43:03.3     241     -1    131    242    275  90.4  30.6  34184  289.97 0855.18
2009/04/23 11:43:03.4     320     10    119    321    342  88.1  21.3  34202  290.27 0855.18
2009/04/23 11:43:03.5     179     97    260    204    330  61.4  58.0  34212  290.46 0855.18
2009/04/23 11:43:03.6     261    143    259    298    394  61.2  45.5  34216  290.52 0855.18
2009/04/23 11:43:03.7     258    118    238    284    370  65.4  44.2  34204  290.32 0855.18
2009/04/23 11:43:03.8     217    161    222    271    350  53.4  43.7  34198  290.22 0855.18
2009/04/23 11:43:03.9     296    130    172    324    366  66.3  30.2  34194  290.15 0855.18
2009/04/23 11:43:04.0     258    138    214    293    362  61.8  39.8  34192  290.10 0855.18
2009/04/23 11:43:04.1     341    133    210    367    422  68.6  32.3  34186  290.02 0855.18
2009/04/23 11:43:04.2     227    134    305    264    403  59.4  54.9  34202  290.28 0855.18
2009/04/23 11:43:04.3     204    137    204    246    319  56.0  44.1  34194  290.14 0855.18
2009/04/23 11:43:04.4     132    215    157    253    297  31.7  35.0  34188  290.05 0855.18
2009/04/23 11:43:04.5     137    220    130    260    290  31.9  28.5  34200  290.24 0855.19
2009/04/23 11:43:04.6     194    172    133    260    292  48.4  29.2  34192  290.10 0855.19
2009/04/23 11:43:04.7     174    161     70    238    249  47.3  16.4  34194  290.14 0855.19
2009/04/23 11:43:04.8     109    138     63    177    187  38.3  20.2  34194  290.14 0855.19
2009/04/23 11:43:04.9     121    129    143    178    228  43.2  43.3  34194  290.14 0855.19
2009/04/23 11:43:05.0     145    100     79    177    193  55.4  25.9  34196  290.18 0855.19
2009/04/23 11:43:05.1     183     37      8    187    188  78.6   2.5  34194  290.14 0855.19
2009/04/23 11:43:05.2     172     30     54    175    184  79.9  17.1  34192  290.13 0855.19
2009/04/23 11:43:05.3     103     43     94    112    146  66.9  43.8  34188  290.06 0855.19
2009/04/23 11:43:05.4      82     14     90     84    123  79.9  52.1  34204  290.31 0855.19
2009/04/23 11:43:05.5      88     92     70    128    145  43.7  31.4  34230  290.77 0855.19
2009/04/23 11:43:05.6      84     39     83     93    124  64.8  46.4  34240  290.94 0855.19
2009/04/23 11:43:05.7      88     39     92     97    133  66.0  49.0  34250  291.11 0855.19
2009/04/23 11:43:05.8      76     11     47     77     90  81.2  35.0  34246  291.04 0855.19
2009/04/23 11:43:05.9      23    -18     23     30     37 127.8  41.7  34240  290.94 0855.19
2009/04/23 11:43:06.0       3    -98     47     99    109 178.2  27.2  34226  290.70 0855.19
2009/04/23 11:43:06.1      79     46    129     92    158  59.8  61.1  34292  291.81 0855.19
2009/04/23 11:43:06.2     100     33    135    106    171  71.8  57.7  34272  291.49 0855.19
2009/04/23 11:43:06.3     119     19    148    121    191  80.8  56.4  34252  291.15 0855.19
2009/04/23 11:43:06.4     150     40    132    156    204  74.9  44.5  34258  291.23 0855.19
2009/04/23 11:43:06.5      79      4    120     80    144  86.5  63.6  34288  291.74 0855.19
2009/04/23 11:43:06.6      24     33    104     42    112  36.1  77.1  34288  291.74 0855.19
2009/04/23 11:43:06.7      80      6     82     81    115  85.6  49.1  34254  291.18 0855.19
2009/04/23 11:43:06.8     133     33     28    138    141  75.8  11.6  34214  290.48 0855.19
2009/04/23 11:43:06.9     149     40     59    155    165  74.9  21.7  34226  290.70 0855.19
2009/04/23 11:43:07.0     145     20     61    147    159  82.1  23.8  34248  291.08 0855.19
2009/04/23 11:43:07.1     111     30    102    116    154  74.9  45.8  34270  291.43 0855.19
2009/04/23 11:43:07.2     140    100    163    173    237  54.3  48.2  34240  290.92 0855.19
2009/04/23 11:43:07.3      92     90    130    129    183  45.6  49.9  34242  290.96 0855.19
2009/04/23 11:43:07.4      94     93    136    133    190  45.2  50.4  34262  291.30 0855.19
2009/04/23 11:43:07.5     119    112    127    164    207  46.9  41.7  34234  290.84 0855.19
2009/04/23 11:43:07.6     234     39    139    238    275  80.5  33.1  34258  291.24 0855.19
2009/04/23 11:43:07.7     243     14    151    244    286  86.5  34.8  34266  291.38 0855.19
2009/04/23 11:43:07.8     210     31    161    213    267  81.6  40.7  34252  291.14 0855.19
2009/04/23 11:43:07.9     178     34    166    182    246  79.0  47.0  34256  291.20 0855.19
2009/04/23 11:43:08.0     225      3    185    226    292  89.1  43.7  34280  291.60 0855.19
2009/04/23 11:43:08.1     258     -1    148    259    298  90.4  32.3  34272  291.46 0855.19
2009/04/23 11:43:08.2     262     87    186    277    333  71.6  37.2  34294  291.84 0855.19
2009/04/23 11:43:08.3     239     56    179    246    304  76.7  39.7  34282  291.65 0855.19
2009/04/23 11:43:08.4     232      9    171    233    289  87.6  39.9  34264  291.33 0855.19
2009/04/23 11:43:08.5     195     36    152    199    250  79.4  41.4  34278  291.56 0855.16
2009/04/23 11:43:08.6     105    105    120    149    191  45.0  43.5  34302  292.00 0855.16
2009/04/23 11:43:08.7      74     52    113     91    145  54.9  56.4  34296  291.89 0855.16
2009/04/23 11:43:08.8      29     18    111     35    116  57.5  80.7  34288  291.74 0855.16
2009/04/23 11:43:08.9      29     55    158     63    170  28.1  77.6  34276  291.54 0855.16
2009/04/23 11:43:09.0      24     64    164     69    177  20.9  76.3  34260  291.28 0855.16
2009/04/23 11:43:09.1     -89     -9    135     90    162 263.9  63.2  34258  291.23 0855.16
2009/04/23 11:43:09.2     -61    -30     51     69     85 243.8  40.1  34256  291.20 0855.16
2009/04/23 11:43:09.3     -73    -14     69     75    101 258.5  47.9  34256  291.21 0855.16
2009/04/23 11:43:09.4     -96    -27     77    100    126 254.1  41.6  34240  290.92 0855.16
2009/04/23 11:43:09.5    -155   -187     29    243    245 219.6   6.9  34230  290.75 0855.16
2009/04/23 11:43:09.6     -92   -255     84    272    285 199.8  17.3  34206  290.34 0855.16
2009/04/23 11:43:09.7     -59   -207    100    216    238 196.0  26.6  34206  290.36 0855.16
2009/04/23 11:43:09.8     -73   -222    142    234    273 198.3  34.2  34208  290.39 0855.16
2009/04/23 11:43:09.9     -94   -234    113    253    277 201.9  25.3  34206  290.34 0855.16
2009/04/23 11:43:10.0    -170   -220     65    279    287 217.8  13.2  34276  291.55 0855.16
2009/04/23 11:43:10.1    -154   -206     50    258    263 216.7  11.1  34284  291.68 0855.16
2009/04/23 11:43:10.2    -128   -169     56    213    221 217.2  14.7  34238  290.89 0855.16
2009/04/23 11:43:10.3     -99   -193     53    217    224 207.2  13.9  34232  290.81 0855.16
2009/04/23 11:43:10.4     -54   -156     15    166    167 199.2   5.2  34246  291.03 0855.16
2009/04/23 11:43:10.5     -56   -142     84    153    174 201.8  31.4  34218  290.57 0855.17
2009/04/23 11:43:10.6     -25   -147    110    150    186 189.8  39.9  34202  290.30 0855.17
2009/04/23 11:43:10.7     -25   -181    138    183    229 188.0  40.9  34206  290.35 0855.17
2009/04/23 11:43:10.8      -1   -103    127    104    164 180.9  56.6  34208  290.40 0855.17
2009/04/23 11:43:10.9      -3   -194     82    195    211 181.0  24.1  34202  290.30 0855.17
2009/04/23 11:43:11.0     -11   -167     67    168    180 183.8  23.0  34198  290.23 0855.17
2009/04/23 11:43:11.1     -53   -178     66    186    197 196.7  20.4  34196  290.18 0855.17
2009/04/23 11:43:11.2       0   -142     94    143    171 180.0  36.3  34200  290.26 0855.17
2009/04/23 11:43:11.3      -6   -159     51    160    168 182.5  17.7  34202  290.30 0855.17
2009/04/23 11:43:11.4     -39   -170     48    175    182 192.9  15.3  34210  290.41 0855.17
2009/04/23 11:43:11.5     -25   -138     81    141    162 190.2  32.7  34210  290.41 0855.17
2009/04/23 11:43:11.6     -27   -100     57    104    118 195.6  31.3  34212  290.47 0855.17
2009/04/23 11:43:11.7      54    -57     83     79    114 136.7  51.2  34218  290.55 0855.17
2009/04/23 11:43:11.8      24   -150    107    153    186 170.7  38.6  34218  290.55 0855.17
2009/04/23 11:43:11.9      70   -148     57    164    174 154.7  19.2  34206  290.35 0855.17
2009/04/23 11:43:12.0      31   -129     79    133    154 166.2  34.0  34196  290.19 0855.17
2009/04/23 11:43:12.1      -7    -97     82     98    127 184.5  43.8  34206  290.35 0855.17
2009/04/23 11:43:12.2     -57   -121     64    135    149 205.4  27.2  34192  290.11 0855.17
2009/04/23 11:43:12.3     -23   -137     90    140    166 189.8  35.7  34190  290.08 0855.17
2009/04/23 11:43:12.4       0   -106    101    107    147 179.5  48.0  34190  290.09 0855.17
2009/04/23 11:43:12.5       6    -76    130     77    151 175.5  66.8  34194  290.16 0855.19
2009/04/23 11:43:12.6      -7    -99    115    100    152 184.5  54.3  34192  290.13 0855.19
2009/04/23 11:43:12.7       0   -134    140    135    194 180.4  50.9  34190  290.09 0855.19
2009/04/23 11:43:12.8     -31   -184    133    187    229 189.6  39.3  34184  289.97 0855.19
2009/04/23 11:43:12.9     -69   -176    127    190    228 201.4  36.7  34184  289.99 0855.19
2009/04/23 11:43:13.0     -80   -195    103    211    234 202.3  28.0  34188  290.06 0855.19
2009/04/23 11:43:13.1     -84   -224    103    240    261 200.7  24.6  34190  290.09 0855.19
2009/04/23 11:43:13.2     -54   -153     86    163    184 199.6  30.3  34190  290.08 0855.19
2009/04/23 11:43:13.3     -26   -128     30    131    135 191.5  13.1  34192  290.11 0855.19
2009/04/23 11:43:13.4      39    -24     42     46     62 121.5  47.9  34196  290.18 0855.19
2009/04/23 11:43:13.5      57    -36     43     68     80 122.4  35.5  34202  290.28 0855.19
2009/04/23 11:43:13.6      94    -10     15     95     97  96.6   9.5  34192  290.11 0855.19
2009/04/23 11:43:13.7     117      8     46    118    126  85.7  22.0  34192  290.13 0855.19
2009/04/23 11:43:13.8     140    -19     40    142    148  97.9  15.8  34194  290.14 0855.19
2009/04/23 11:43:13.9     122    -53     -5    134    135 113.5  -2.2  34194  290.16 0855.19
2009/04/23 11:43:14.0      95    -30    -44    100    109 107.7 -30.1  34198  290.23 0855.19
2009/04/23 11:43:14.1     132    -14    -41    133    139  96.1 -22.3  34206  290.35 0855.19
2009/04/23 11:43:14.2     131      2     -5    132    133  88.7  -2.2  34204  290.31 0855.19
2009/04/23 11:43:14.3     136      0     -9    137    138  90.0  -4.1  34202  290.28 0855.19
2009/04/23 11:43:14.4      97    -33     45    103    112 109.1  25.1  34190  290.08 0855.19
2009/04/23 11:43:14.5      62    -34     52     71     88 118.9  39.7  34186  290.01 0855.21
2009/04/23 11:43:14.6      37   -113     78    119    142 161.7  36.0  34184  289.97 0855.21
2009/04/23 11:43:14.7      23   -140     59    142    153 170.7  23.1  34188  290.04 0855.21
2009/04/23 11:43:14.8      22   -153      7    155    156 171.5   2.8  34188  290.04 0855.21
2009/04/23 11:43:14.9      -3   -164    -10    165    166 181.4  -3.7  34186  290.01 0855.21
2009/04/23 11:43:15.0     -38   -150    -22    155    157 194.3  -8.2  34184  289.99 0855.21
2009/04/23 11:43:15.1     -77   -128    -43    150    156 211.2 -20.7  34182  289.94 0855.21
2009/04/23 11:43:15.2     -69   -108     11    129    130 212.6   5.0  34180  289.91 0855.21
2009/04/23 11:43:15.3     -74   -116    -16    138    139 212.5  -6.7  34178  289.87 0855.21
2009/04/23 11:43:15.4     -61    -96    -67    115    133 212.6 -37.9  34180  289.92 0855.21
2009/04/23 11:43:15.5    -105    -48   -117    116    164 245.2 -54.3  34186  290.02 0855.22
2009/04/23 11:43:15.6    -141      6    -98    142    172 272.6 -42.2  34184  289.99 0855.22
2009/04/23 11:43:15.7     -67     -5   -133     68    149 265.6 -75.4  34186  290.01 0855.22
2009/04/23 11:43:15.8     -51    -73    -61     90    108 214.7 -41.4  34180  289.91 0855.22
2009/04/23 11:43:15.9       6    -74    -52     75     91 174.7 -42.4  34178  289.87 0855.22
2009/04/23 11:43:16.0      33    -75    -79     83    114 155.9 -53.4  34176  289.85 0855.22
2009/04/23 11:43:16.1     -30     -9     15     32     35 251.8  27.2  34178  289.87 0855.22
2009/04/23 11:43:16.2      53   -124     51    136    145 156.8  21.0  34184  289.97 0855.22
2009/04/23 11:43:16.3      42   -347    -61    350    356 173.0  -9.9  34168  289.72 0855.22
2009/04/23 11:43:16.4     174   -324     17    368    369 151.8   2.8  34166  289.67 0855.22
2009/04/23 11:43:16.5     138   -307     -8    337    338 155.8  -1.4  34168  289.72 0855.22
2009/04/23 11:43:16.6     118   -390      7    408    409 163.1   1.1  34154  289.46 0855.22
2009/04/23 11:43:16.7     210   -384   -150    438    464 151.3 -19.0  34158  289.53 0855.22
2009/04/23 11:43:16.8     118   -364   -108    383    399 162.0 -15.8  34152  289.45 0855.22
2009/04/23 11:43:16.9     270   -402    -75    485    491 146.1  -8.8  34152  289.44 0855.22
2009/04/23 11:43:17.0     192   -453     -3    493    494 157.0  -0.4  34162  289.59 0855.22
2009/04/23 11:43:17.1     206   -474    -42    517    519 156.5  -4.7  34166  289.67 0855.22
2009/04/23 11:43:17.2     226   -440    -59    495    499 152.8  -6.8  34156  289.50 0855.22
2009/04/23 11:43:17.3      60   -553     51    557    560 173.8   5.3  34172  289.79 0855.22
2009/04/23 11:43:17.4     176   -482     67    514    519 160.0   7.5  34162  289.62 0855.22
2009/04/23 11:43:17.5     271   -316    -61    417    422 139.5  -8.4  34154  289.48 0855.19
2009/04/23 11:43:17.6     302   -453   -109    545    556 146.3 -11.3  34152  289.43 0855.19
2009/04/23 11:43:17.7     228   -427   -130    485    503 151.9 -15.0  34152  289.45 0855.19
2009/04/23 11:43:17.8     152   -456   -149    481    503 161.5 -22.3  34158  289.54 0855.19
2009/04/23 11:43:17.9     141   -419   -133    443    462 161.4 -21.7  34154  289.46 0855.19
2009/04/23 11:43:18.0       8   -497     59    498    502 179.0   6.8  34170  289.73 0855.19
2009/04/23 11:43:18.1     -97   -418    164    430    460 193.2  22.0  34170  289.75 0855.19
2009/04/23 11:43:18.2      88   -438    149    447    472 168.5  18.5  34182  289.94 0855.19
2009/04/23 11:43:18.3     108   -453     97    466    477 166.6  11.8  34172  289.79 0855.19
2009/04/23 11:43:18.4      96   -384    228    396    456 165.9  32.6  34192  290.12 0855.19
2009/04/23 11:43:18.5      33   -402    223    404    461 175.2  31.3  34182  289.95 0855.19
2009/04/23 11:43:18.6      74   -385     24    393    394 169.0   3.5  34162  289.59 0855.19
2009/04/23 11:43:18.7      76   -325     16    334    335 166.8   2.8  34158  289.54 0855.19
2009/04/23 11:43:18.8     107   -318     26    336    338 161.3   4.6  34158  289.54 0855.19
2009/04/23 11:43:18.9      44   -287     46    291    295 171.1   9.0  34158  289.54 0855.19
2009/04/23 11:43:19.0     -42   -318     57    321    327 187.6  10.1  34160  289.56 0855.19
2009/04/23 11:43:19.1     -59   -292     31    298    300 191.5   6.0  34162  289.59 0855.19
2009/04/23 11:43:19.3     -28   -289    -47    291    295 185.6  -9.3  34168  289.71 0855.19
2009/04/23 11:43:19.3      23   -297    -60    298    305 175.5 -11.5  34172  289.76 0855.19
2009/04/23 11:43:19.4      72   -317    -97    326    341 167.1 -16.6  34174  289.81 0855.19
2009/04/23 11:43:19.5      56   -279    -25    285    287 168.5  -5.1  34174  289.80 0855.17
2009/04/23 11:43:19.7      49   -267    -44    272    276 169.5  -9.4  34172  289.78 0855.17
2009/04/23 11:43:19.8       0   -252    -69    253    263 180.0 -15.4  34174  289.81 0855.17
2009/04/23 11:43:19.9      44   -261    -24    265    267 170.4  -5.2  34170  289.73 0855.17
2009/04/23 11:43:20.0      86   -259    -34    274    277 161.5  -7.2  34168  289.71 0855.17
2009/04/23 11:43:20.1      94   -306    -65    321    328 163.0 -11.5  34170  289.73 0855.17
2009/04/23 11:43:20.2      68   -240     16    250    251 164.2   3.8  34170  289.73 0855.17
2009/04/23 11:43:20.3     -23   -303      3    305    306 184.5   0.7  34168  289.71 0855.17
2009/04/23 11:43:20.4      12   -405     38    406    408 178.2   5.5  34166  289.68 0855.17
2009/04/23 11:43:20.5      82   -358     18    368    369 167.1   2.9  34168  289.71 0855.17
2009/04/23 11:43:20.6      46   -377     20    380    381 172.9   3.0  34174  289.81 0855.17
2009/04/23 11:43:20.7      71   -393     86    400    410 169.7  12.1  34176  289.85 0855.17
2009/04/23 11:43:20.8      80   -327     92    337    350 166.1  15.3  34182  289.93 0855.17
2009/04/23 11:43:20.9      78   -302    115    312    332 165.5  21.1  34178  289.86 0855.17
2009/04/23 11:43:21.0      38   -277    125    280    306 172.2  25.7  34180  289.92 0855.17
2009/04/23 11:43:21.1       1   -328     75    329    338 179.7  12.9  34182  289.96 0855.17
2009/04/23 11:43:21.2     -25   -437     82    438    446 183.4  10.6  34170  289.73 0855.17
2009/04/23 11:43:21.3     -23   -416    107    417    431 183.2  14.5  34168  289.70 0855.17
2009/04/23 11:43:21.4     -71   -403    112    410    426 190.1  15.3  34172  289.78 0855.17
2009/04/23 11:43:21.5     -75   -364    124    372    393 191.7  18.5  34178  289.86 0855.17
2009/04/23 11:43:21.6     -51   -364    130    368    391 188.1  19.6  34178  289.89 0855.15
2009/04/23 11:43:21.7    -110   -410    113    425    440 195.0  14.9  34176  289.85 0855.15
2009/04/23 11:43:21.8    -131   -442    121    462    478 196.5  14.7  34176  289.84 0855.15
2009/04/23 11:43:21.9    -127   -425    132    444    464 196.6  16.6  34176  289.85 0855.15
2009/04/23 11:43:22.0    -147   -424     65    450    455 199.2   8.2  34174  289.82 0855.15
2009/04/23 11:43:22.1    -115   -383     36    401    403 196.8   5.2  34176  289.84 0855.15
2009/04/23 11:43:22.2     -80   -346    125    356    377 193.0  20.0  34178  289.89 0855.15
2009/04/23 11:43:22.3     -16   -347     51    348    352 182.8   8.5  34176  289.84 0855.15
2009/04/23 11:43:22.4    -142   -386     35    412    414 200.2   5.0  34180  289.90 0855.15
2009/04/23 11:43:22.5     -85   -453     93    462    472 190.7  11.4  34178  289.86 0855.15
2009/04/23 11:43:22.6    -119   -358     21    378    379 198.5   3.3  34178  289.87 0855.15
2009/04/23 11:43:22.7    -142   -366    -28    393    394 201.3  -4.1  34182  289.93 0855.15
2009/04/23 11:43:22.8     -72   -305    -61    314    320 193.3 -11.0  34172  289.76 0855.15
2009/04/23 11:43:22.9     -33   -305     54    307    312 186.2  10.0  34188  290.05 0855.15
2009/04/23 11:43:23.0    -131   -255     73    287    297 207.2  14.3  34170  289.75 0855.15
2009/04/23 11:43:23.1     -81   -419    -56    427    431 191.0  -7.6  34174  289.80 0855.15
2009/04/23 11:43:23.2    -147   -369    -81    398    407 201.8 -11.5  34174  289.80 0855.15
2009/04/23 11:43:23.3     -80   -400     41    408    411 191.4   5.8  34178  289.88 0855.15
2009/04/23 11:43:23.4    -124   -417     85    436    445 196.6  11.1  34174  289.82 0855.15
2009/04/23 11:43:23.5    -125   -331    -33    354    356 200.7  -5.5  34182  289.93 0855.15
2009/04/23 11:43:23.6    -126   -320     56    345    350 201.6   9.2  34178  289.87 0855.19
2009/04/23 11:43:23.7     -67   -334     26    341    342 191.5   4.4  34180  289.91 0855.19
2009/04/23 11:43:23.8      40   -315   -113    318    338 172.7 -19.7  34178  289.87 0855.19
2009/04/23 11:43:23.9     123   -388   -128    408    427 162.3 -22.8  34176  289.83 0855.19
2009/04/23 11:43:24.0      42   -417    -81    420    428 174.2 -11.0  34168  289.72 0855.19
2009/04/23 11:43:24.1      25   -360   -126    361    382 176.0 -24.0  34172  289.77 0855.19
2009/04/23 11:43:24.2      -6   -270    -17    271    272 181.4  -3.7  34170  289.75 0855.19
2009/04/23 11:43:24.3      22   -248    -84    250    264 174.9 -18.6  34168  289.71 0855.19
2009/04/23 11:43:24.4      35   -298    -83    301    312 173.3 -20.2  34172  289.78 0855.19
2009/04/23 11:43:24.5      25   -322    -97    324    338 175.5 -21.5  34166  289.69 0855.19
2009/04/23 11:43:24.6     -15   -350    -13    351    352 182.5  -2.2  34172  289.79 0855.19
2009/04/23 11:43:24.7      -7   -359     -7    360    361 181.2  -1.3  34174  289.81 0855.19
2009/04/23 11:43:24.8      -8   -339     -6    340    341 181.4  -1.2  34174  289.82 0855.19
2009/04/23 11:43:24.9      -5   -382     59    383    388 180.9   8.8  34172  289.79 0855.19
2009/04/23 11:43:25.0     -24   -419     90    420    430 183.4  12.1  34176  289.85 0855.19
2009/04/23 11:43:25.1     -61   -429     41    434    437 188.1   5.5  34176  289.85 0855.19
2009/04/23 11:43:25.2    -162   -383     38    416    418 203.0   5.3  34176  289.85 0855.19
2009/04/23 11:43:25.3    -129   -351    -30    375    377 200.2  -4.6  34172  289.77 0855.19
2009/04/23 11:43:25.4    -141   -328    -16    358    359 203.3  -2.6  34170  289.74 0855.19
2009/04/23 11:43:25.5     -75   -369    -14    377    378 191.6  -2.2  34170  289.74 0855.19
2009/04/23 11:43:25.6     -85   -404    -43    413    416 191.9  -6.0  34168  289.72 0855.15
2009/04/23 11:43:25.7     -55   -397    -18    402    403 188.0  -2.6  34166  289.69 0855.15
2009/04/23 11:43:25.8     -67   -330    -46    337    341 191.6  -7.9  34162  289.62 0855.15
2009/04/23 11:43:25.9     -35   -336    -67    338    345 186.1 -11.2  34170  289.74 0855.15
2009/04/23 11:43:26.0      18   -385    -94    386    398 177.3 -13.8  34172  289.77 0855.15
2009/04/23 11:43:26.1      14   -363    -47    364    368 177.8  -7.5  34170  289.74 0855.15
2009/04/23 11:43:26.2      10   -344    -49    345    349 178.2  -8.2  34170  289.74 0855.15
2009/04/23 11:43:26.3     -30   -441      9    442    443 183.9   1.2  34170  289.73 0855.15
2009/04/23 11:43:26.4      37   -480    -15    482    483 175.5  -1.9  34170  289.74 0855.15
2009/04/23 11:43:26.5       6   -462     14    463    464 179.2   1.8  34172  289.77 0855.15
2009/04/23 11:43:26.6      11   -483    -17    484    485 178.6  -2.1  34170  289.74 0855.15
2009/04/23 11:43:26.7     116   -406    -37    423    425 164.0  -5.1  34174  289.82 0855.15
2009/04/23 11:43:26.8     148   -320    -70    353    361 155.2 -11.3  34178  289.89 0855.15
2009/04/23 11:43:26.9      78   -366    -50    375    379 168.0  -7.6  34174  289.81 0855.15
2009/04/23 11:43:27.0      76   -334     -7    343    344 167.1  -1.3  34172  289.77 0855.15
2009/04/23 11:43:27.1     174   -343    -34    385    387 153.0  -5.1  34158  289.55 0855.15
2009/04/23 11:43:27.2     204   -360     64    414    419 150.5   8.8  34168  289.72 0855.15
2009/04/23 11:43:27.3     100   -356    130    371    394 164.2  19.3  34162  289.60 0855.15
2009/04/23 11:43:27.4     178   -406     13    444    445 156.3   1.7  34160  289.56 0855.15
2009/04/23 11:43:27.5      93   -315    -69    329    337 163.5 -11.9  34162  289.60 0855.15
2009/04/23 11:43:27.6      53   -313    -34    318    320 170.4  -6.3  34160  289.58 0855.12
2009/04/23 11:43:27.7       7   -244    -76    245    257 178.2 -17.3  34164  289.64 0855.12
2009/04/23 11:43:27.8       2   -182    -51    183    189 179.1 -20.4  34164  289.63 0855.12
2009/04/23 11:43:27.9     -33   -124    -60    129    142 195.2 -31.5  34170  289.74 0855.12
2009/04/23 11:43:28.0      -7   -170    -11    171    172 182.5  -3.9  34172  289.77 0855.12
2009/04/23 11:43:28.1      19   -248    -44    249    253 175.5 -10.1  34172  289.76 0855.12
2009/04/23 11:43:28.2      33   -322   -111    324    343 174.1 -18.9  34178  289.86 0855.12
2009/04/23 11:43:28.3      67   -278   -102    286    304 166.4 -19.7  34176  289.83 0855.12
2009/04/23 11:43:28.4      79   -304    -17    315    316 165.3  -3.2  34174  289.81 0855.12
2009/04/23 11:43:28.5      50   -274    -32    279    281 169.5  -6.7  34176  289.83 0855.12
2009/04/23 11:43:28.6      24   -311     13    313    314 175.5   2.4  34174  289.80 0855.12
2009/04/23 11:43:28.7      -4   -309     -1    310    311 180.9  -0.3  34186  290.02 0855.12
2009/04/23 11:43:28.8      -4   -310     20    311    312 180.9   3.8  34202  290.29 0855.12
2009/04/23 11:43:28.9      56   -307    -22    313    314 169.5  -4.1  34186  290.00 0855.12
2009/04/23 11:43:29.0      91   -276    -58    291    297 161.7 -11.3  34180  289.92 0855.12
2009/04/23 11:43:29.1      79   -300    -40    311    314 165.1  -7.4  34188  290.03 0855.12
2009/04/23 11:43:29.2      89   -290    -19    304    305 163.0  -3.7  34192  290.12 0855.12
2009/04/23 11:43:29.3      71   -298    -26    307    309 166.6  -4.9  34188  290.03 0855.12
2009/04/23 11:43:29.4      85   -258    -44    272    276 161.7  -9.4  34182  289.93 0855.12
2009/04/23 11:43:29.5     101   -262     11    282    283 158.8   2.3  34178  289.86 0855.12
2009/04/23 11:43:29.6      87   -263     48    278    283 161.7   9.9  34178  289.86 0855.13
2009/04/23 11:43:29.7      42   -246     39    250    254 170.3   9.0  34182  289.93 0855.13
2009/04/23 11:43:29.8      -5   -244     76    245    257 181.4  17.3  34190  290.09 0855.13
2009/04/23 11:43:29.9       2   -241    112    242    266 179.5  27.0  34190  290.09 0855.13
2009/04/23 11:43:30.0     -25   -234    152    236    280 186.2  35.6  34188  290.03 0855.13
2009/04/23 11:43:30.1     -50   -233    120    239    267 192.3  28.5  34178  289.88 0855.13
2009/04/23 11:43:30.2     -46   -225     83    230    244 191.6  20.4  34174  289.80 0855.13
2009/04/23 11:43:30.3       3   -218     75    219    232 179.1  18.9  34172  289.79 0855.13
2009/04/23 11:43:30.4      29   -208     93    211    230 172.0  25.3  34174  289.80 0855.13
2009/04/23 11:43:30.5      42   -209     76    214    228 168.4  19.6  34176  289.84 0855.13
2009/04/23 11:43:30.6      40   -216     92    220    238 169.3  24.1  34172  289.78 0855.13
2009/04/23 11:43:30.7      48   -201     99    207    229 166.6  27.3  34172  289.77 0855.13
2009/04/23 11:43:30.8      56   -177     68    186    198 162.2  21.0  34170  289.75 0855.13
2009/04/23 11:43:30.9      74   -151     79    169    186 153.7  27.1  34170  289.74 0855.13
2009/04/23 11:43:31.0      94   -133     69    163    177 144.8  24.3  34168  289.70 0855.13
2009/04/23 11:43:31.1      85   -119     59    147    158 144.4  23.0  34168  289.70 0855.13
2009/04/23 11:43:31.2     112   -105     54    154    164 133.2  19.4  34172  289.77 0855.13
2009/04/23 11:43:31.3     124    -50     71    134    151 112.2  29.8  34174  289.80 0855.13
2009/04/23 11:43:31.4      53    -56    107     78    132 136.8  60.5  34182  289.94 0855.13
2009/04/23 11:43:31.5      54    -42     88     69    111 127.8  57.5  34186  290.01 0855.13
2009/04/23 11:43:31.6      86    -28    100     91    135 108.6  52.7  34182  289.94 0855.16
2009/04/23 11:43:31.7      56    -35     96     67    117 122.4  62.1  34188  290.06 0855.16
2009/04/23 11:43:31.8       7     -7     77     11     77 135.0  90.0  34190  290.09 0855.16
2009/04/23 11:43:31.9       9      0     58     10     58  90.0  90.0  34198  290.23 0855.16
2009/04/23 11:43:32.0      34    -22     36     41     54 122.5  46.9  34192  290.13 0855.16
2009/04/23 11:43:32.1      61      4     67     62     91  85.6  52.2  34184  289.99 0855.16
2009/04/23 11:43:32.2      58      0     71     59     92  90.0  56.3  34182  289.94 0855.16
2009/04/23 11:43:32.3      35      0     55     36     65  90.0  64.6  34186  290.01 0855.16
2009/04/23 11:43:32.4      59     25     81     65    103  66.5  56.9  34180  289.91 0855.16
2009/04/23 11:43:32.5     155      4    108    156    189  88.3  38.0  34216  290.53 0855.16
2009/04/23 11:43:32.6     121     53    126    133    183  66.5  48.5  34232  290.81 0855.16
2009/04/23 11:43:32.7      35     39    131     53    141  41.4  77.0  34230  290.75 0855.16
2009/04/23 11:43:32.8     -18     20     98     28    101 318.6  83.9  34222  290.62 0855.16
2009/04/23 11:43:32.9     -31     -6     36     32     48 258.5  52.2  34224  290.65 0855.16
2009/04/23 11:43:33.0     -15      7     49     17     51 295.3  81.2  34214  290.50 0855.16
2009/04/23 11:43:33.1      -4     -9     98     11     98 205.4  90.0  34224  290.67 0855.16
2009/04/23 11:43:33.2      -1    -10     79     11     79 188.0  90.0  34222  290.62 0855.16
2009/04/23 11:43:33.3      16    -25     50     30     58 147.5  64.7  34216  290.53 0855.16
2009/04/23 11:43:33.4      -2    -50     52     51     72 182.7  49.1  34208  290.40 0855.16
2009/04/23 11:43:33.5       0    -11     58     12     59 182.7  89.0  34202  290.30 0855.16
2009/04/23 11:43:33.6      71     69     21    100    103  46.0  12.2  34196  290.18 0855.17
2009/04/23 11:43:33.7      -9     25     74     27     78 340.0  81.2  34200  290.25 0855.17
2009/04/23 11:43:33.8     106     76     62    131    144  54.5  27.2  34204  290.33 0855.17
2009/04/23 11:43:33.9     153     79     97    173    198  62.7  31.6  34224  290.65 0855.17
2009/04/23 11:43:34.0      98    149     41    179    184  33.4  12.9  34230  290.77 0855.17
2009/04/23 11:43:34.1      72     77    130    106    167  43.2  56.4  34234  290.84 0855.17
2009/04/23 11:43:34.2     -40     77    103     88    135 332.4  55.4  34226  290.69 0855.17
2009/04/23 11:43:34.3     -25     -8     59     27     64 251.4  73.1  34228  290.74 0855.17
2009/04/23 11:43:34.4     -11    -52     69     54     87 192.5  57.9  34228  290.72 0855.17
2009/04/23 11:43:34.5     -20    -85     75     88    115 193.4  44.3  34222  290.64 0855.17
2009/04/23 11:43:34.6       8    -23     70     25     74 161.3  81.2  34218  290.57 0855.17
2009/04/23 11:43:34.7     133     -4    142    134    195  92.1  52.0  34190  290.08 0855.17
2009/04/23 11:43:34.8      86    -51    112    100    150 120.7  53.7  34196  290.19 0855.17
2009/04/23 11:43:34.9      71    -69     75    100    125 134.0  40.7  34194  290.16 0855.17
2009/04/23 11:43:35.0       2    -34     89     35     95 175.6  77.6  34220  290.58 0855.17
2009/04/23 11:43:35.1      56    -13     75     58     94 103.3  58.5  34204  290.31 0855.17
2009/04/23 11:43:35.2      70    -54     79     89    119 127.8  46.4  34188  290.04 0855.17
2009/04/23 11:43:35.3      63    -52     74     82    110 129.6  46.9  34188  290.04 0855.17
2009/04/23 11:43:35.4      63    -52     80     82    114 129.5  50.5  34186  290.02 0855.17
2009/04/23 11:43:35.5     102    -78    117    129    174 127.3  47.1  34176  289.84 0855.17
2009/04/23 11:43:35.6      90    -74    124    117    170 129.5  52.0  34178  289.87 0855.18
2009/04/23 11:43:35.7      99    -51    109    112    156 117.1  49.9  34184  289.97 0855.18
2009/04/23 11:43:35.8     104    -49    113    116    161 115.4  49.4  34178  289.87 0855.18
2009/04/23 11:43:35.9      74    -65    105     99    144 131.3  51.6  34184  289.97 0855.18
2009/04/23 11:43:36.0      71      4    103     72    125  86.5  62.1  34186  290.01 0855.18
2009/04/23 11:43:36.1      19    -31     97     37    103 147.5  78.6  34186  290.01 0855.18
2009/04/23 11:43:36.2      42     -5    101     43    109  97.9  75.5  34192  290.11 0855.18
2009/04/23 11:43:36.3      -9   -103    119    104    158 185.3  54.3  34188  290.06 0855.18
2009/04/23 11:43:36.4      -2   -132    161    133    208 180.9  56.4  34184  289.99 0855.18
2009/04/23 11:43:36.5     -26   -130    159    133    207 191.5  56.1  34180  289.91 0855.18
2009/04/23 11:43:36.6       0   -106    150    107    184 179.5  61.1  34186  290.02 0855.19
2009/04/23 11:43:36.7     -14   -135    141    136    195 186.2  51.2  34186  290.02 0855.19
2009/04/23 11:43:36.8      73    -24     89     78    118 108.6  54.3  34206  290.36 0855.19
2009/04/23 11:43:36.9     101    -33    169    107    200 108.2  64.7  34200  290.25 0855.19
2009/04/23 11:43:37.0      24    -44     98     51    110 151.0  70.8  34204  290.33 0855.19
2009/04/23 11:43:37.1      17    -97    107     99    145 169.8  52.2  34208  290.38 0855.19
2009/04/23 11:43:37.2     -10   -136    105    137    172 184.4  41.4  34206  290.35 0855.19
2009/04/23 11:43:37.3      -9   -222    144    223    265 182.5  35.6  34200  290.24 0855.19
2009/04/23 11:43:37.4     -55   -238    137    245    280 193.1  31.6  34200  290.24 0855.19
2009/04/23 11:43:37.5     -54   -246    110    253    275 192.5  25.1  34204  290.31 0855.19
2009/04/23 11:43:37.6     -93   -233    114    252    276 201.8  26.2  34228  290.71 0855.19
2009/04/23 11:43:37.7     -81   -246     71    260    270 198.3  15.3  34206  290.34 0855.19
2009/04/23 11:43:37.8     -64   -239     86    248    263 195.2  19.2  34200  290.26 0855.19
2009/04/23 11:43:37.9     -47   -240     75    245    257 191.1  17.1  34212  290.44 0855.19
2009/04/23 11:43:38.0     -58   -272    131    279    308 192.0  27.1  34232  290.78 0855.19
2009/04/23 11:43:38.1     -47   -241     85    246    261 191.1  19.2  34244  290.99 0855.19
2009/04/23 11:43:38.2     -90   -273    110    288    308 198.3  22.0  34236  290.85 0855.19
2009/04/23 11:43:38.3     -31   -276     31    278    280 186.5   6.5  34250  291.10 0855.19
2009/04/23 11:43:38.4    -100   -285    -33    303    305 199.4  -6.2  34250  291.10 0855.19
2009/04/23 11:43:38.5    -131   -300    -30    328    330 203.7  -5.3  34238  290.91 0855.19
2009/04/23 11:43:38.6    -153   -266    -23    307    308 209.9  -4.4  34240  290.92 0855.19
2009/04/23 11:43:38.7    -136   -265    -54    298    303 207.2 -10.4  34282  291.65 0855.19
2009/04/23 11:43:38.8     -61   -288    -89    295    308 192.0 -21.7  34236  290.85 0855.19
2009/04/23 11:43:38.9     -69   -205    -50    217    223 198.7 -13.2  34248  291.06 0855.19
2009/04/23 11:43:39.0     -64   -200    -71    211    222 197.8 -23.3  34262  291.30 0855.19
2009/04/23 11:43:39.1     -72   -186    -69    200    211 201.2 -23.6  34266  291.37 0855.19
2009/04/23 11:43:39.2     -92   -158    -65    183    195 210.3 -19.7  34258  291.23 0855.19
2009/04/23 11:43:39.3     -27   -166    -89    169    191 189.3 -34.5  34194  290.14 0855.19
2009/04/23 11:43:39.4     -54   -182    -92    190    211 196.5 -31.8  34184  289.97 0855.19
2009/04/23 11:43:39.5     -49   -179    -82    186    203 195.6 -29.5  34186  290.01 0855.19
2009/04/23 11:43:39.6     -57   -154    -65    165    177 200.3 -27.2  34194  290.16 0855.19
2009/04/23 11:43:39.7     -44   -147    -62    154    166 196.9 -27.8  34188  290.04 0855.19
2009/04/23 11:43:39.8     -36   -135    -71    140    156 195.1 -33.1  34186  290.01 0855.19
2009/04/23 11:43:39.9     -35   -115    -60    121    135 196.9 -32.6  34184  289.97 0855.19
2009/04/23 11:43:40.0     -15   -108    -49    110    120 188.0 -29.6  34188  290.04 0855.19
2009/04/23 11:43:40.1     -62    -96    -90    115    146 213.0 -46.1  34234  290.82 0855.19
2009/04/23 11:43:40.2     -39    -99    -93    107    141 201.8 -50.2  34238  290.89 0855.19
2009/04/23 11:43:40.3     -10   -111    -89    112    143 185.3 -47.1  34246  291.04 0855.19
2009/04/23 11:43:40.4     -14   -114    -69    115    134 187.1 -38.8  34242  290.96 0855.19
2009/04/23 11:43:40.5      14   -146    -56    147    157 174.2 -26.1  34242  290.96 0855.19
2009/04/23 11:43:40.6      44   -145    -43    152    158 163.1 -15.8  34236  290.87 0855.18
2009/04/23 11:43:40.7      28   -109    -57    113    126 165.3 -33.6  34250  291.09 0855.18
2009/04/23 11:43:40.8     -25    -87    -82     91    122 196.5 -51.3  34236  290.87 0855.18
2009/04/23 11:43:40.9      38   -179    -92    184    205 168.0 -32.9  34208  290.38 0855.18
2009/04/23 11:43:41.0      25   -145   -100    148    178 170.2 -41.7  34210  290.41 0855.18
2009/04/23 11:43:41.1      34   -107   -104    113    153 162.2 -52.3  34222  290.62 0855.18
2009/04/23 11:43:41.2     -49    -31    -57     59     82 237.5 -53.8  34258  291.23 0855.18
2009/04/23 11:43:41.3     -56      1    -24     57     61 271.7 -27.5  34256  291.21 0855.18
2009/04/23 11:43:41.4     -28     -3      2     29     30 263.9   4.9  34240  290.92 0855.18
2009/04/23 11:43:41.5     -11    -34      1     36     37 198.7   2.8  34238  290.89 0855.18
2009/04/23 11:43:41.6       0    -24      8     25     27 179.1  19.4  34232  290.79 0855.18
2009/04/23 11:43:41.7     -18    -26     53     32     61 214.3  65.7  34214  290.50 0855.18
2009/04/23 11:43:41.8     -26    -78     43     83     93 198.3  29.3  34190  290.08 0855.18
2009/04/23 11:43:41.9      31    -21     13     38     41 124.2  19.2  34192  290.11 0855.18
2009/04/23 11:43:42.0      48     45     -2     67     68  46.8  -2.2  34200  290.26 0855.18
2009/04/23 11:43:42.1      -9    127     73    128    147 355.5  31.4  34200  290.25 0855.18
2009/04/23 11:43:42.2      82     14     53     84     99  79.9  35.5  34198  290.21 0855.18
2009/04/23 11:43:42.3      66     48    109     82    136  53.6  59.4  34190  290.09 0855.18
2009/04/23 11:43:42.4      26     35    131     44    138  37.0  81.0  34212  290.47 0855.18
2009/04/23 11:43:42.5       1     67    112     68    131   1.0  65.7  34218  290.55 0855.18
2009/04/23 11:43:42.6      -8     29    100     31    104 344.9  81.8  34214  290.50 0855.15
2009/04/23 11:43:42.7    -129    -17     66    131    146 262.5  28.2  34198  290.23 0855.15
2009/04/23 11:43:42.8      57     54    117     79    141  46.9  62.6  34210  290.41 0855.15
2009/04/23 11:43:42.9      33    -42    116     54    127 141.3  73.1  34220  290.60 0855.15
2009/04/23 11:43:43.0       6     30     52     31     60  11.6  66.8  34224  290.67 0855.15
2009/04/23 11:43:43.1      -9     46    100     47    110 348.4  73.1  34226  290.69 0855.15
2009/04/23 11:43:43.2     -57     72     61     92    110 321.7  36.0  34216  290.52 0855.15
2009/04/23 11:43:43.3    -112    112     95    159    185 314.9  34.0  34212  290.47 0855.15
2009/04/23 11:43:43.4    -104    111     97    153    181 316.8  35.5  34214  290.48 0855.15
2009/04/23 11:43:43.5      70      1    131     71    149  89.1  68.9  34230  290.77 0855.15
2009/04/23 11:43:43.6     100     51    136    113    176  62.9  56.3  34218  290.57 0855.15
2009/04/23 11:43:43.7      88     15    160     90    183  80.3  68.3  34204  290.33 0855.15
2009/04/23 11:43:43.8      84     53    138    100    170  57.6  60.5  34208  290.40 0855.15
2009/04/23 11:43:43.9     100     72    113    124    167  54.1  47.1  34210  290.43 0855.15
2009/04/23 11:43:44.0      80    128     78    152    170  32.1  29.3  34216  290.52 0855.15
2009/04/23 11:43:44.1      75    107    110    131    171  35.2  44.3  34220  290.58 0855.15
2009/04/23 11:43:44.2      70     40    117     81    142  59.8  62.1  34214  290.50 0855.15
2009/04/23 11:43:44.3      32      0     99     33    104  90.8  81.0  34210  290.41 0855.15
2009/04/23 11:43:44.4     -27     16    148     32    151 300.7  89.0  34212  290.47 0855.15
2009/04/23 11:43:44.5     -41     33    144     53    153 308.6  79.2  34210  290.43 0855.15
2009/04/23 11:43:44.6     -49     69     61     85    104 324.4  39.5  34210  290.43 0855.14
2009/04/23 11:43:44.7     -81     37     29     90     95 294.4  17.9  34210  290.41 0855.14
2009/04/23 11:43:44.8    -189      9    105    190    217 273.0  31.4  34212  290.45 0855.14
2009/04/23 11:43:44.9    -136     10     80    137    158 274.3  32.9  34210  290.43 0855.14
2009/04/23 11:43:45.0     -21     16     56     27     62 307.8  72.9  34208  290.40 0855.14
2009/04/23 11:43:45.1     -30     91     58     97    113 341.5  34.0  34204  290.31 0855.14
2009/04/23 11:43:45.2     -59     18    -20     62     65 287.7 -23.8  34208  290.40 0855.14
2009/04/23 11:43:45.3     -16     63    -19     66     68 345.7 -21.7  34204  290.33 0855.14
2009/04/23 11:43:45.4      35     57    -11     68     69  31.6  -9.3  34208  290.38 0855.14
2009/04/23 11:43:45.5      15     76      4     78     79  11.6   3.3  34212  290.47 0855.14
2009/04/23 11:43:45.6      24     60     65     65     91  21.9  50.1  34218  290.57 0855.14
2009/04/23 11:43:45.7       9      8     67     13     68  46.7  89.1  34222  290.62 0855.14
2009/04/23 11:43:45.8     -40     33     69     53     87 309.5  58.5  34220  290.58 0855.14
2009/04/23 11:43:45.9       9     48     55     49     73  10.7  52.2  34218  290.55 0855.14
2009/04/23 11:43:46.0      59     67     56     90    106  41.0  35.5  34218  290.57 0855.14
2009/04/23 11:43:46.1      36     86     62     94    112  22.7  36.0  34210  290.43 0855.14
2009/04/23 11:43:46.2      47     80     38     93    100  30.7  23.1  34208  290.40 0855.14
2009/04/23 11:43:46.3     -47     98     37    109    116 334.1  18.9  34218  290.55 0855.14
2009/04/23 11:43:46.4     -79    106     47    133    142 323.5  19.4  34218  290.55 0855.14
2009/04/23 11:43:46.5       0     93     60     94    111   0.0  35.6  34216  290.52 0855.14
2009/04/23 11:43:46.7     -21     64     38     68     77 341.7  31.4  34216  290.52 0855.16
2009/04/23 11:43:46.8       0     59     40     60     72 359.1  36.5  34220  290.60 0855.16
2009/04/23 11:43:46.9      28     40     73     50     88  35.2  62.6  34234  290.82 0855.16
2009/04/23 11:43:47.0      10     75     55     76     93   8.1  39.1  34236  290.86 0855.16
2009/04/23 11:43:47.1      67     61     57     91    107  47.8  35.5  34220  290.58 0855.16
2009/04/23 11:43:47.2      66     50     51     84     98  52.7  34.4  34212  290.45 0855.16
2009/04/23 11:43:47.3      57     -5     53     58     78  95.2  47.9  34222  290.64 0855.16
2009/04/23 11:43:47.4      16    -29     59     34     68 151.0  67.7  34232  290.79 0855.16
2009/04/23 11:43:47.5      55     -2     57     56     79  92.6  50.1  34228  290.72 0855.16
2009/04/23 11:43:47.6      34    -11     41     36     54 108.6  53.3  34226  290.69 0855.16
2009/04/23 11:43:47.7      44     -6     51     45     68  97.9  52.2  34224  290.65 0855.16
2009/04/23 11:43:47.8      43     12     72     45     84  74.1  64.7  34222  290.62 0855.16
2009/04/23 11:43:47.9      -2    -16     47     17     49 188.0  80.2  34230  290.75 0855.16
2009/04/23 11:43:48.0     -28     -3     24     29     37 262.1  43.8  34228  290.72 0855.16
2009/04/23 11:43:48.1     -17    -14     29     23     37 230.5  56.4  34230  290.77 0855.16
2009/04/23 11:43:48.2      -2    -27     44     28     52 184.4  64.7  34222  290.64 0855.16
2009/04/23 11:43:48.3      11    -49     46     51     68 167.5  47.9  34222  290.64 0855.16
2009/04/23 11:43:48.4      15    -79     56     81     98 168.9  37.6  34222  290.64 0855.16
2009/04/23 11:43:48.5      26    -83     72     88    113 162.2  43.7  34222  290.62 0855.16
2009/04/23 11:43:48.6      29   -103     69    108    128 164.0  35.5  34224  290.65 0855.16
2009/04/23 11:43:48.7      46   -137     86    145    168 161.3  33.5  34220  290.58 0855.16
2009/04/23 11:43:48.8      73   -127     84    147    169 150.1  32.4  34214  290.50 0855.16
2009/04/23 11:43:48.9      37   -183     97    187    210 168.4  29.3  34216  290.53 0855.16
2009/04/23 11:43:49.0      30   -203     67    206    217 171.5  18.1  34218  290.57 0855.16
2009/04/23 11:43:49.1       0   -208     90    209    227 180.2  24.9  34232  290.79 0855.16
2009/04/23 11:43:49.2      13   -154     82    155    175 175.1  30.1  34232  290.81 0855.16
2009/04/23 11:43:49.3      13   -179     78    180    196 175.8  25.1  34248  291.08 0855.16
2009/04/23 11:43:49.4      -2   -167     70    168    182 180.7  23.8  34254  291.18 0855.16
2009/04/23 11:43:49.5     -10   -136     71    137    154 184.4  29.3  34266  291.37 0855.16
2009/04/23 11:43:49.6       2   -156     74    157    173 179.0  27.1  34260  291.26 0855.16
2009/04/23 11:43:49.7       6   -145     95    146    174 177.4  35.7  34248  291.08 0855.16
2009/04/23 11:43:49.8     -22   -194     80    196    211 186.5  23.4  34246  291.03 0855.16
2009/04/23 11:43:49.9      -3   -194     51    195    202 180.9  14.7  34244  290.99 0855.16
2009/04/23 11:43:50.0     -25   -196     33    198    201 187.3   9.5  34246  291.03 0855.16
2009/04/23 11:43:50.1       3   -235     74    236    248 179.1  17.4  34250  291.09 0855.16
2009/04/23 11:43:50.2     -27   -190    123    192    228 188.1  35.6  34238  290.89 0855.16
2009/04/23 11:43:50.3     -24   -212     96    214    234 186.5  25.9  34236  290.87 0855.16
2009/04/23 11:43:50.4       0   -199    127    200    236 180.0  35.5  34218  290.55 0855.16
2009/04/23 11:43:50.5      -3   -218    126    219    252 180.9  32.7  34208  290.39 0855.16
2009/04/23 11:43:50.6     -10   -234    106    235    257 182.5  25.9  34200  290.26 0855.16
2009/04/23 11:43:50.7     -24   -247     98    249    267 185.6  22.8  34200  290.24 0855.17
2009/04/23 11:43:50.8     -41   -245    123    249    277 189.6  28.2  34206  290.36 0855.17
2009/04/23 11:43:50.9     -31   -262    133    264    295 186.9  28.7  34206  290.36 0855.17
2009/04/23 11:43:51.0     -42   -246    156    250    294 189.8  35.2  34208  290.37 0855.17
2009/04/23 11:43:51.1     -17   -239    161    240    289 184.2  37.0  34210  290.42 0855.17
2009/04/23 11:43:51.2     -57   -229    131    237    270 194.0  31.4  34198  290.22 0855.17
2009/04/23 11:43:51.3     -78   -263    123    275    301 196.5  25.7  34194  290.14 0855.17
2009/04/23 11:43:51.4     -82   -269    109    282    302 196.9  22.1  34190  290.09 0855.17
2009/04/23 11:43:51.5     -95   -289     87    305    318 198.3  15.9  34192  290.10 0855.17
2009/04/23 11:43:51.6    -131   -216    141    253    289 211.2  31.4  34208  290.37 0855.17
2009/04/23 11:43:51.7     -61   -137     70    151    166 204.1  26.6  34208  290.40 0855.17
2009/04/23 11:43:51.8      66     -5    117     67    134  94.4  67.2  34216  290.53 0855.17
2009/04/23 11:43:51.9      23    -45    112     51    123 152.8  74.5  34218  290.55 0855.17
2009/04/23 11:43:52.0      -5     10    100     12    100 334.6  90.0  34216  290.52 0855.17
2009/04/23 11:43:52.1       7   -252     26    253    255 178.2   5.9  34210  290.42 0855.17
2009/04/23 11:43:52.2    -223    -55     79    230    244 256.1  18.9  34206  290.34 0855.17
2009/04/23 11:43:52.3     -47   -101     93    112    145 205.3  43.8  34214  290.48 0855.17
2009/04/23 11:43:52.4     -11   -150    155    151    216 184.5  50.9  34208  290.38 0855.17
2009/04/23 11:43:52.5      -3   -122    183    123    220 181.8  62.8  34208  290.38 0855.17
2009/04/23 11:43:52.6     -25   -126    179    129    220 191.5  60.6  34210  290.41 0855.17
2009/04/23 11:43:52.7     -70   -110     96    131    162 212.5  39.9  34212  290.45 0855.19
2009/04/23 11:43:52.8    -269   -127    103    298    316 244.6  19.2  34222  290.63 0855.19
2009/04/23 11:43:52.9    -221   -172    115    281    303 232.2  23.4  34216  290.51 0855.19
2009/04/23 11:43:53.0    -217   -157     81    269    281 234.1  16.8  34216  290.51 0855.19
2009/04/23 11:43:53.1    -264   -153     11    306    307 240.0   2.1  34232  290.78 0855.19
2009/04/23 11:43:53.2    -311   -172     33    356    358 241.0   5.4  34228  290.72 0855.19
2009/04/23 11:43:53.3    -292   -188    130    348    371 237.2  21.5  34222  290.64 0855.19
2009/04/23 11:43:53.4     -83   -186    189    204    278 204.1  47.9  34216  290.51 0855.19
2009/04/23 11:43:53.5     -85   -213    191    230    298 201.9  43.8  34210  290.41 0855.19
2009/04/23 11:43:53.6     -62   -285    190    292    348 192.3  36.0  34216  290.52 0855.19
2009/04/23 11:43:53.7     -47   -308    213    312    377 188.7  37.6  34214  290.49 0855.19
2009/04/23 11:43:53.8    -101   -305    206    322    382 198.5  35.6  34232  290.79 0855.19
2009/04/23 11:43:53.9    -122   -317    120    340    360 201.2  20.2  34212  290.47 0855.19
2009/04/23 11:43:54.0    -153   -292     99    330    345 207.7  16.7  34218  290.57 0855.19
2009/04/23 11:43:54.1    -102   -308    113    325    345 198.4  19.3  34204  290.32 0855.19
2009/04/23 11:43:54.2    -117   -310    107    332    349 200.7  17.9  34210  290.43 0855.19
2009/04/23 11:43:54.3    -132   -279    108    309    328 205.4  19.3  34226  290.70 0855.19
2009/04/23 11:43:54.4    -123   -258     88    286    300 205.5  17.1  34232  290.80 0855.19
2009/04/23 11:43:54.5     -81   -239    108    253    275 198.7  24.6  34226  290.70 0855.19
2009/04/23 11:43:54.6     -27   -273    149    275    312 185.8  30.8  34246  291.04 0855.19
2009/04/23 11:43:54.7     -13   -251    169    252    303 183.1  37.0  34218  290.56 0855.20
2009/04/23 11:43:54.8     -57   -274    155    280    320 191.8  31.5  34202  290.29 0855.20
2009/04/23 11:43:54.9      49   -177    154    184    239 164.4  44.3  34198  290.21 0855.20
2009/04/23 11:43:55.0     -13   -197    178    198    266 184.0  46.9  34196  290.19 0855.20
2009/04/23 11:43:55.1      41   -244    180    248    306 170.4  39.7  34198  290.22 0855.20
2009/04/23 11:43:55.2      23   -244    108    246    268 174.4  25.3  34194  290.15 0855.20
2009/04/23 11:43:55.3     -26   -218    102    220    242 186.9  26.4  34192  290.10 0855.20
2009/04/23 11:43:55.4     -73   -222     81    234    248 198.3  19.2  34194  290.15 0855.20
2009/04/23 11:43:55.5     -45   -219     91    224    241 191.8  23.1  34194  290.14 0855.20
2009/04/23 11:43:55.6     -58   -218     87    226    242 195.1  22.0  34188  290.03 0855.20
2009/04/23 11:43:55.7     -57   -166     92    176    198 199.2  29.8  34190  290.09 0855.20
2009/04/23 11:43:55.8      30   -115    107    119    160 165.3  46.6  34190  290.08 0855.20
2009/04/23 11:43:55.9      -2   -180    147    181    233 180.7  43.7  34194  290.16 0855.20
2009/04/23 11:43:56.0      -7   -137    115    138    179 183.1  43.8  34196  290.18 0855.20
2009/04/23 11:43:56.1      22   -142     84    144    166 171.1  32.9  34196  290.19 0855.20
2009/04/23 11:43:56.2      -5    -94    117     95    150 183.1  56.4  34200  290.26 0855.20
2009/04/23 11:43:56.3     -39    -90    122     99    157 203.6  56.9  34202  290.30 0855.20
2009/04/23 11:43:56.4     -32    -84     87     91    125 200.9  49.0  34202  290.28 0855.20
2009/04/23 11:43:56.5       0    -68     76     69    102 180.0  52.7  34196  290.19 0855.20
2009/04/23 11:43:56.6     -16     36     57     40     69 335.5  61.5  34206  290.36 0855.20
2009/04/23 11:43:56.7     -16     23     65     29     71 325.7  74.0  34210  290.43 0855.23
2009/04/23 11:43:56.8     -49    -12     30     51     59 255.8  34.4  34198  290.21 0855.23
2009/04/23 11:43:56.9     -45      7      8     46     47 278.8  10.1  34200  290.25 0855.23
2009/04/23 11:43:57.0      -8     12     -2     15     16 327.5  -7.3  34198  290.23 0855.23
2009/04/23 11:43:57.1      20      3    -19     21     28  80.3 -54.4  34202  290.30 0855.23
2009/04/23 11:43:57.2      24     -4    -16     25     29  99.7 -39.9  34198  290.23 0855.23
2009/04/23 11:43:57.3      45    -55    -22     72     75 140.4 -23.8  34200  290.26 0855.23
2009/04/23 11:43:57.4     -12    -82    -33     84     90 188.9 -26.4  34192  290.11 0855.23
2009/04/23 11:43:57.5      -2   -143    -44    144    150 180.9 -22.3  34190  290.08 0855.23
2009/04/23 11:43:57.6     -49   -144    -45    153    160 198.7 -16.4  34194  290.14 0855.23
2009/04/23 11:43:57.7     -45   -177    -21    183    185 194.3  -6.7  34198  290.21 0855.24
2009/04/23 11:43:57.8     -43   -132    -50    140    149 198.3 -19.7  34198  290.21 0855.24
2009/04/23 11:43:57.9     -37   -147    -56    152    161 194.3 -25.4  34198  290.21 0855.24
2009/04/23 11:43:58.0     -41   -245    -19    249    250 189.6  -4.6  34196  290.17 0855.24
2009/04/23 11:43:58.1     -66   -198      0    209    210 198.5   0.2  34194  290.16 0855.24
2009/04/23 11:43:58.2     -39   -218      6    222    223 190.2   1.8  34196  290.19 0855.24
2009/04/23 11:43:58.3     -49   -221     35    227    230 192.5   8.9  34198  290.21 0855.24
2009/04/23 11:43:58.4     -76   -137     24    157    159 209.0   8.8  34198  290.21 0855.24
2009/04/23 11:43:58.5     -98   -118     49    154    162 219.6  17.7  34192  290.13 0855.24
2009/04/23 11:43:58.6     -72   -128     64    148    161 209.4  24.9  34200  290.25 0855.24
2009/04/23 11:43:58.7    -100   -111     51    150    159 221.9  18.9  34196  290.18 0855.24
2009/04/23 11:43:58.8    -116   -121     78    168    185 223.9  27.0  34194  290.14 0855.24
2009/04/23 11:43:58.9    -126   -119     33    174    178 226.7  11.0  34200  290.25 0855.24
2009/04/23 11:43:59.0    -143   -118     48    186    193 230.4  14.5  34200  290.25 0855.24
2009/04/23 11:43:59.1    -114   -178     41    212    217 212.6  11.1  34202  290.28 0855.24
2009/04/23 11:43:59.2     -47   -168    -27    175    178 195.6  -8.8  34202  290.28 0855.24
2009/04/23 11:43:59.3     -46   -108    -11    118    119 203.2  -5.6  34200  290.26 0855.24
2009/04/23 11:43:59.4    -111     -8    -40    112    119 265.6 -19.7  34234  290.82 0855.24
2009/04/23 11:43:59.5     -75   -104    -16    129    131 215.6  -7.3  34236  290.87 0855.24
2009/04/23 11:43:59.6     -86   -166     16    187    188 207.4   5.2  34216  290.52 0855.24
2009/04/23 11:43:59.7    -100   -149      5    180    181 214.1   1.8  34216  290.52 0855.25
2009/04/23 11:43:59.8     -86   -117     19    146    148 216.1   7.5  34208  290.38 0855.25
2009/04/23 11:43:59.9     -43    -85     51     96    108 206.7  30.3  34206  290.35 0855.25
2009/04/23 11:44:00.0     -59    -92     84    110    138 212.5  41.6  34206  290.35 0855.25
2009/04/23 11:44:00.1     -35   -108     62    114    129 198.3  31.3  34204  290.33 0855.25
2009/04/23 11:44:00.2     -10   -134     40    135    141 184.4  16.8  34204  290.33 0855.25
2009/04/23 11:44:00.3      -2   -144     47    145    153 180.9  17.9  34210  290.41 0855.25
2009/04/23 11:44:00.4      -2   -139     90    140    166 180.9  35.7  34210  290.43 0855.25
2009/04/23 11:44:00.5     -19   -132     71    134    151 188.5  29.8  34204  290.31 0855.25
2009/04/23 11:44:00.6       8   -114     23    115    118 175.5  11.6  34198  290.23 0855.25
2009/04/23 11:44:00.7      31    -63     31     71     77 153.7  25.1  34198  290.21 0855.25
2009/04/23 11:44:00.8      18    -54     24     57     61 161.5  23.1  34196  290.18 0855.25
2009/04/23 11:44:00.9      73    -69     72    101    124 133.1  39.1  34200  290.25 0855.25
2009/04/23 11:44:01.0     100    -60     91    117    148 121.1  41.7  34200  290.25 0855.25
2009/04/23 11:44:01.1     119    -88     74    149    166 126.4  28.0  34202  290.28 0855.25
2009/04/23 11:44:01.2     102    -96     52    141    150 133.1  20.9  34198  290.23 0855.25
2009/04/23 11:44:01.3     104    -59     87    120    148 119.8  39.7  34202  290.30 0855.25
2009/04/23 11:44:01.4     121    -61     92    136    164 117.1  37.3  34204  290.33 0855.25
2009/04/23 11:44:01.5     124    -45     70    132    149 110.0  30.3  34204  290.31 0855.25
2009/04/23 11:44:01.6     112    -37     60    119    133 108.6  28.2  34206  290.35 0855.25
2009/04/23 11:44:01.7     102    -32     57    108    122 107.7  29.8  34206  290.36 0855.24
2009/04/23 11:44:01.8     101    -22     65    104    122 102.4  35.0  34206  290.35 0855.24
2009/04/23 11:44:01.9      98    -23     92    101    136 103.7  47.5  34206  290.36 0855.24
2009/04/23 11:44:02.0      90     -4    104     91    138  92.6  54.3  34208  290.40 0855.24
2009/04/23 11:44:02.1      66     14     95     68    116  77.6  61.1  34212  290.45 0855.24
2009/04/23 11:44:02.2      42    -11     83     44     93 105.1  69.8  34212  290.47 0855.24
2009/04/23 11:44:02.3      53    -55     55     77     94 135.9  39.1  34208  290.40 0855.24
2009/04/23 11:44:02.4      48    -48     26     68     72 135.0  22.0  34202  290.30 0855.24
2009/04/23 11:44:02.5       0    -42     44     43     61 180.9  50.1  34206  290.36 0855.24
2009/04/23 11:44:02.6       7    -50     26     51     57 172.0  28.2  34200  290.26 0855.24
2009/04/23 11:44:02.7       3    -46     24     47     52 175.5  28.2  34202  290.28 0855.24
2009/04/23 11:44:02.8      -5    -54     23     55     59 185.3  23.1  34200  290.26 0855.24
2009/04/23 11:44:02.9      -6    -69    -10     70     71 185.3  -8.2  34200  290.26 0855.24
2009/04/23 11:44:03.0     -11    -86    -11     87     88 187.6  -7.2  34200  290.25 0855.24
2009/04/23 11:44:03.1     -27    -86     -3     91     92 197.4  -2.2  34200  290.26 0855.24
2009/04/23 11:44:03.2     -25    -89    -16     93     95 196.0 -10.3  34200  290.26 0855.24
2009/04/23 11:44:03.3     -51    -88    -20    102    105 210.3 -11.5  34200  290.25 0855.24
2009/04/23 11:44:03.4     -31    -94     44    100    109 198.3  25.7  34196  290.18 0855.24
2009/04/23 11:44:03.5     -25    -83     63     87    107 196.9  39.7  34198  290.21 0855.24
2009/04/23 11:44:03.6       5    -74      9     75     76 175.5   6.9  34198  290.21 0855.24
2009/04/23 11:44:03.7       0    -80     -3     81     82 180.0  -2.2  34198  290.23 0855.24
2009/04/23 11:44:03.8      15   -134     36    135    140 173.3  15.3  34194  290.16 0855.24
2009/04/23 11:44:03.9       9   -130     30    131    135 176.0  13.1  34194  290.14 0855.24
2009/04/23 11:44:04.0       4   -138     47    139    148 178.2  18.9  34192  290.13 0855.24
2009/04/23 11:44:04.1     -32   -151     79    155    173 192.0  29.1  34194  290.14 0855.24
2009/04/23 11:44:04.2     -46   -148     99    156    184 197.4  35.5  34196  290.18 0855.24
2009/04/23 11:44:04.3      19   -196     55    198    206 174.2  15.6  34196  290.18 0855.24
2009/04/23 11:44:04.4      15   -207     56    208    216 175.6  15.3  34194  290.14 0855.24
2009/04/23 11:44:04.5      33   -181     45    185    191 169.5  13.9  34192  290.11 0855.24
2009/04/23 11:44:04.6      52    -95     84    109    137 151.0  41.7  34194  290.14 0855.24
2009/04/23 11:44:04.7      28   -133    130    137    188 168.0  48.5  34188  290.04 0855.24
2009/04/23 11:44:04.8     -29   -140     99    144    174 192.0  37.6  34186  290.02 0855.24
2009/04/23 11:44:04.9      54   -141     72    152    168 159.1  27.2  34188  290.04 0855.24
2009/04/23 11:44:05.0      62   -110     73    127    146 150.6  32.9  34192  290.13 0855.24
2009/04/23 11:44:05.1      53   -134     54    145    154 158.2  20.9  34194  290.16 0855.24
2009/04/23 11:44:05.2      39    -78     58     88    105 153.3  36.0  34194  290.16 0855.24
2009/04/23 11:44:05.3      61    -96     78    114    138 147.5  37.6  34196  290.18 0855.24
2009/04/23 11:44:05.4      79   -101     78    129    150 142.2  34.0  34196  290.19 0855.24
2009/04/23 11:44:05.5      60   -107     71    123    142 150.6  32.4  34198  290.21 0855.24
2009/04/23 11:44:05.6      50    -96     56    109    122 152.4  29.3  34196  290.18 0855.24
2009/04/23 11:44:05.7      38    -75     64     85    106 153.3  40.7  34196  290.18 0855.22
2009/04/23 11:44:05.8      54    -71     67     90    112 143.0  40.1  34200  290.26 0855.22
2009/04/23 11:44:05.9      56    -96     59    112    126 149.7  29.8  34200  290.25 0855.22
2009/04/23 11:44:06.0      77   -100     53    127    137 142.6  23.6  34198  290.21 0855.22
2009/04/23 11:44:06.1     117    -96     42    152    158 129.5  15.6  34196  290.19 0855.22
2009/04/23 11:44:06.2      93   -120    -19    152    154 142.2  -7.3  34194  290.16 0855.22
2009/04/23 11:44:06.3      68   -121      9    139    140 150.6   3.8  34196  290.18 0855.22
2009/04/23 11:44:06.4      91   -117     52    149    159 142.1  19.4  34196  290.19 0855.22
2009/04/23 11:44:06.5      80   -167     60    186    196 154.4  17.9  34194  290.16 0855.22
2009/04/23 11:44:06.6      98   -127     39    161    166 142.1  13.7  34192  290.13 0855.22
2009/04/23 11:44:06.7     142   -149     34    207    210 136.3   9.3  34188  290.04 0855.22
2009/04/23 11:44:06.8     132   -140     33    193    196 136.8   9.9  34188  290.04 0855.22
2009/04/23 11:44:06.9     125   -133     -2    183    184 136.7  -0.7  34184  289.97 0855.22
2009/04/23 11:44:07.0     102   -185     20    212    214 151.0   5.4  34180  289.91 0855.22
2009/04/23 11:44:07.1      64   -203     55    213    220 162.4  14.5  34178  289.89 0855.22
2009/04/23 11:44:07.2     111   -149     96    186    209 143.3  29.3  34178  289.87 0855.22
2009/04/23 11:44:07.3      73   -152    104    169    198 154.4  34.4  34176  289.85 0855.22
2009/04/23 11:44:07.4      58   -123     98    137    168 154.5  39.1  34176  289.85 0855.22
2009/04/23 11:44:07.5      47   -129     98    138    169 159.9  38.8  34176  289.85 0855.22
2009/04/23 11:44:07.6      10   -136     94    137    166 175.5  37.6  34186  290.01 0855.22
2009/04/23 11:44:07.7      14   -179    137    180    226 175.5  41.4  34184  289.97 0855.22
2009/04/23 11:44:07.8       8   -192    158    193    249 177.5  43.7  34184  289.99 0855.22
2009/04/23 11:44:07.9      39   -199    173    203    266 168.7  44.8  34184  289.98 0855.22
2009/04/23 11:44:08.0      35   -208    160    211    264 170.3  40.9  34190  290.07 0855.22
2009/04/23 11:44:08.1      90   -236    148    253    293 159.0  33.1  34184  289.97 0855.22
2009/04/23 11:44:08.2      78   -247    115    260    284 162.4  25.3  34184  289.98 0855.22
2009/04/23 11:44:08.3     103   -209    167    234    287 153.7  39.1  34188  290.03 0855.22
2009/04/23 11:44:08.4     101   -205    124    229    260 153.7  30.8  34184  289.97 0855.22
2009/04/23 11:44:08.5      79   -208     96    223    242 159.1  24.6  34186  290.02 0855.22
2009/04/23 11:44:08.6      77   -191    -14    207    208 157.9  -3.9  34192  290.11 0855.22
2009/04/23 11:44:08.7      77   -202     10    217    218 159.1   2.8  34192  290.13 0855.22
2009/04/23 11:44:08.8      57   -192      7    201    202 163.5   2.1  34194  290.16 0855.22
2009/04/23 11:44:08.9      80   -179     51    197    204 155.9  14.5  34190  290.09 0855.22
2009/04/23 11:44:09.0      88   -206     39    225    229 156.8   9.9  34190  290.08 0855.22
2009/04/23 11:44:09.1      14   -189    -22    190    192 175.8  -6.9  34192  290.11 0855.22
2009/04/23 11:44:09.2      55   -152     -6    162    163 160.0  -2.2  34192  290.11 0855.22
2009/04/23 11:44:09.3      46   -121     -1    130    131 159.1  -0.7  34192  290.11 0855.22
2009/04/23 11:44:09.4      -2   -105      5    106    107 181.4   2.8  34192  290.11 0855.22
2009/04/23 11:44:09.5     -44   -121     13    129    130 200.1   5.9  34194  290.14 0855.22
2009/04/23 11:44:09.6     -27   -135     35    138    143 191.5  14.3  34196  290.18 0855.22
2009/04/23 11:44:09.7      11   -148     12    149    150 175.6   4.9  34196  290.19 0855.22
2009/04/23 11:44:09.8       0   -133      2    134    135 180.4   1.2  34196  290.18 0855.22
2009/04/23 11:44:09.9     -26   -122     14    125    126 192.0   6.5  34196  290.19 0855.22
2009/04/23 11:44:10.0    -116   -140      8    182    183 219.6   2.8  34194  290.16 0855.22
2009/04/23 11:44:10.1    -109   -177     17    209    210 211.6   4.9  34198  290.21 0855.22
2009/04/23 11:44:10.2    -153   -192     14    246    247 218.5   3.3  34196  290.19 0855.22
2009/04/23 11:44:10.3    -180   -245    -29    305    307 216.3  -5.6  34192  290.12 0855.22
2009/04/23 11:44:10.4    -135   -212     49    252    257 212.5  11.1  34190  290.09 0855.22
2009/04/23 11:44:10.5    -108   -256     15    279    280 202.9   3.1  34188  290.05 0855.22
2009/04/23 11:44:10.6     -88   -262     64    277    285 198.7  13.1  34190  290.09 0855.22
2009/04/23 11:44:10.7     -88   -253     77    268    279 199.2  16.0  34192  290.10 0855.22
2009/04/23 11:44:10.8     -70   -257     71    267    277 195.4  15.0  34190  290.07 0855.22
2009/04/23 11:44:10.9     -80   -224     54    239    246 199.8  12.9  34194  290.15 0855.22
2009/04/23 11:44:11.0    -148   -191     -9    242    243 217.8  -2.2  34196  290.17 0855.22
2009/04/23 11:44:11.1    -137   -147    -34    202    205 223.0  -9.6  34200  290.25 0855.22
2009/04/23 11:44:11.2    -184   -126    -85    224    239 235.6 -26.1  34186  290.02 0855.22
2009/04/23 11:44:11.3    -187    -89    -42    208    213 244.5 -11.6  34190  290.09 0855.22
2009/04/23 11:44:11.4    -173   -115      0    208    209 236.3   0.2  34194  290.14 0855.22
2009/04/23 11:44:11.5    -138   -139     17    197    198 224.8   5.2  34194  290.14 0855.22
2009/04/23 11:44:11.6    -119   -132     16    178    179 222.1   5.4  34192  290.13 0855.22
2009/04/23 11:44:11.7    -119   -118     29    168    171 225.3   9.9  34190  290.09 0855.23
2009/04/23 11:44:11.8     -74   -123      5    144    145 211.2   2.3  34198  290.23 0855.23
2009/04/23 11:44:11.9     -61   -140     14    153    154 203.6   5.4  34198  290.23 0855.23
2009/04/23 11:44:12.0     -62   -172     -4    184    185 200.0  -1.3  34202  290.30 0855.23
2009/04/23 11:44:12.1      47   -218    -35    224    227 167.7  -9.0  34184  289.99 0855.23
2009/04/23 11:44:12.2      15   -179    -38    180    185 175.1 -12.2  34178  289.87 0855.23
2009/04/23 11:44:12.3       2   -154    -41    155    161 179.1 -15.0  34176  289.85 0855.23
2009/04/23 11:44:12.4      28   -134    -42    138    144 168.0 -22.3  34180  289.92 0855.23
2009/04/23 11:44:12.5     -58   -132    -48    145    152 203.6 -23.8  34184  289.97 0855.23
2009/04/23 11:44:12.6     -85   -130    -78    156    174 213.4 -32.9  34196  290.18 0855.23
2009/04/23 11:44:12.7    -146   -100    -92    178    200 235.6 -33.7  34182  289.94 0855.23
2009/04/23 11:44:12.8    -135   -109    -56    174    183 230.9 -17.9  34196  290.19 0855.23
2009/04/23 11:44:12.9    -122    -82    -50    148    157 235.9 -18.7  34194  290.16 0855.23
2009/04/23 11:44:13.0    -122    -73    -41    143    148 238.9 -20.7  34190  290.08 0855.23
2009/04/23 11:44:13.1    -129    -88    -34    157    161 235.8 -12.4  34188  290.06 0855.23
2009/04/23 11:44:13.2    -146    -51    -74    155    171 250.5 -31.6  34166  289.69 0855.23
2009/04/23 11:44:13.3    -117    -63    -70    133    150 241.6 -34.2  34166  289.67 0855.23
2009/04/23 11:44:13.4     -80    -60    -95    100    137 233.1 -52.4  34166  289.69 0855.23
2009/04/23 11:44:13.5     -61    -67   -100     91    135 222.3 -57.1  34164  289.65 0855.23
2009/04/23 11:44:13.6     -49    -67    -91     84    123 216.5 -56.6  34164  289.65 0855.23
2009/04/23 11:44:13.7     -32    -68    -74     76    106 205.5 -54.4  34164  289.65 0855.24
2009/04/23 11:44:13.8     -70    -76    -36    104    111 222.8 -19.1  34172  289.77 0855.24
2009/04/23 11:44:13.9     -65    -56    -42     86     95 229.1 -32.2  34170  289.75 0855.24
2009/04/23 11:44:14.0     -37    -58    -65     70     95 212.6 -52.3  34174  289.80 0855.24
2009/04/23 11:44:14.1     -55    -58    -57     81     99 223.7 -43.5  34174  289.80 0855.24
2009/04/23 11:44:14.2     -73    -34    -65     81    103 244.8 -47.7  34172  289.77 0855.24
2009/04/23 11:44:14.3     -85    -22    -82     88    120 255.4 -52.3  34172  289.77 0855.24
2009/04/23 11:44:14.4     -89    -15    -57     91    107 260.3 -39.9  34170  289.75 0855.24
2009/04/23 11:44:14.6     -86    -45    -41     98    106 242.5 -28.0  34170  289.74 0855.24
2009/04/23 11:44:14.7     -71    -82    -62    109    125 221.0 -36.8  34168  289.72 0855.24
2009/04/23 11:44:14.8     -90    -81    -50    122    131 228.2 -27.5  34166  289.69 0855.24
2009/04/23 11:44:14.9     -89    -85    -40    124    130 226.4 -23.8  34168  289.72 0855.24
2009/04/23 11:44:15.0     -68   -112    -61    132    145 211.2 -31.0  34176  289.85 0855.24
2009/04/23 11:44:15.1     -57   -166    -49    176    182 198.9 -20.2  34172  289.77 0855.24
2009/04/23 11:44:15.2    -141   -207    -99    251    269 214.2 -27.2  34176  289.85 0855.24
2009/04/23 11:44:15.3    -190   -212   -145    285    319 221.9 -33.5  34184  289.98 0855.24
2009/04/23 11:44:15.4    -187   -226   -132    294    322 219.7 -30.3  34190  290.09 0855.24
2009/04/23 11:44:15.5    -130   -252   -139    284    316 207.4 -32.4  34174  289.80 0855.24
2009/04/23 11:44:15.6    -155   -244   -177    290    339 212.5 -38.8  34176  289.83 0855.24
2009/04/23 11:44:15.7    -139   -202   -175    246    301 214.5 -43.2  34184  289.97 0855.24
2009/04/23 11:44:15.8    -178   -218   -156    282    322 219.2 -35.8  34182  289.95 0855.25
2009/04/23 11:44:15.9    -165   -192   -167    254    303 220.8 -40.7  34180  289.90 0855.25
2009/04/23 11:44:16.0    -240   -158   -233    288    370 236.7 -47.7  34192  290.13 0855.25
2009/04/23 11:44:16.1    -259    -24   -197    261    327 264.5 -45.3  34214  290.49 0855.25
2009/04/23 11:44:16.2    -290   -105   -165    309    350 250.0 -35.0  34182  289.93 0855.25
2009/04/23 11:44:16.3    -306   -122   -219    330    396 248.2 -41.0  34174  289.82 0855.25
2009/04/23 11:44:16.4    -359   -138   -229    385    447 249.0 -37.9  34182  289.94 0855.25
2009/04/23 11:44:16.5    -326    -86   -224    338    405 255.2 -41.0  34190  290.08 0855.25
2009/04/23 11:44:16.6    -211   -112   -161    239    288 242.0 -41.8  34194  290.14 0855.25
2009/04/23 11:44:16.7    -181   -115    -90    215    233 237.5 -28.2  34198  290.21 0855.25
2009/04/23 11:44:16.8    -208    -91    -73    228    240 246.3 -17.9  34198  290.22 0855.25
2009/04/23 11:44:16.9    -219   -125    -85    253    268 240.2 -18.6  34208  290.39 0855.25
2009/04/23 11:44:17.0    -222   -151    -89    269    283 235.8 -23.8  34204  290.31 0855.25
2009/04/23 11:44:17.1    -208   -137    -23    250    252 236.5  -5.4  34210  290.42 0855.25
2009/04/23 11:44:17.2    -138   -213    -19    255    256 213.0  -4.4  34204  290.31 0855.25
2009/04/23 11:44:17.3    -124   -180     -8    219    220 214.5  -2.1  34202  290.28 0855.25
2009/04/23 11:44:17.4     -84   -194    -15    212    213 203.4  -4.1  34196  290.18 0855.25
2009/04/23 11:44:17.5     -41   -183     19    188    189 192.9   5.9  34192  290.13 0855.25
2009/04/23 11:44:17.6      46   -193    -39    199    203 166.6 -11.1  34188  290.04 0855.25
2009/04/23 11:44:17.7     -33   -175    -81    179    196 190.7 -30.3  34186  290.02 0855.25
2009/04/23 11:44:17.8     -61   -165    -70    176    189 200.3 -27.4  34186  290.02 0855.26
2009/04/23 11:44:17.9     -83   -185    -86    203    220 204.3 -28.7  34188  290.06 0855.26
2009/04/23 11:44:18.0     -39   -118   -106    125    163 198.3 -48.9  34188  290.06 0855.26
2009/04/23 11:44:18.1     -70    -23    -92     74    118 251.4 -60.8  34188  290.04 0855.26
2009/04/23 11:44:18.2     -65     17    -66     68     94 285.1 -54.9  34186  290.01 0855.26
2009/04/23 11:44:18.3     -68     83    -73    108    130 320.4 -41.8  34188  290.04 0855.26
2009/04/23 11:44:18.4     -62    114    -76    130    150 331.5 -37.8  34186  290.01 0855.26
2009/04/23 11:44:18.5     -85    133    -82    158    178 327.4 -34.2  34184  289.97 0855.26
2009/04/23 11:44:18.6     -77    163    -68    181    193 334.5 -25.7  34186  290.01 0855.26
2009/04/23 11:44:18.7     -53    167    -61    176    186 342.2 -23.6  34186  290.02 0855.26
2009/04/23 11:44:18.8     -31    251    -16    254    255 352.8  -3.7  34188  290.05 0855.27
2009/04/23 11:44:18.9    -157    231     55    280    286 325.7  11.1  34186  290.02 0855.27
2009/04/23 11:44:19.0    -190    224     41    294    297 319.7   8.0  34192  290.10 0855.27
2009/04/23 11:44:19.1    -187    260     23    321    322 324.2   4.2  34190  290.09 0855.27
2009/04/23 11:44:19.2    -150    250     35    292    295 329.0   6.9  34190  290.07 0855.27
2009/04/23 11:44:19.3     -68    222     19    233    234 342.8   4.9  34192  290.10 0855.27
2009/04/23 11:44:19.4     -64    211    -68    221    232 343.1 -17.3  34180  289.92 0855.27
2009/04/23 11:44:19.5      27    253    -51    255    261   6.2 -11.3  34196  290.17 0855.27
2009/04/23 11:44:19.6      74    259      3    270    271  16.0   0.7  34194  290.14 0855.27
2009/04/23 11:44:19.7      52    309     96    314    329   9.7  17.0  34174  289.80 0855.27
2009/04/23 11:44:19.8    -149    271     12    310    311 331.1   2.4  34152  289.42 0855.27
2009/04/23 11:44:19.9    -215    328      5    393    394 326.7   0.8  34162  289.60 0855.27
2009/04/23 11:44:20.0    -166    279    -97    325    340 329.2 -16.6  34168  289.71 0855.27
2009/04/23 11:44:20.1    -146    164    -68    220    231 318.3 -17.3  34178  289.89 0855.27
2009/04/23 11:44:20.2     -97    104     72    143    160 316.8  28.7  34172  289.77 0855.27
2009/04/23 11:44:20.3      52     68    101     86    132  37.4  55.4  34174  289.80 0855.27
2009/04/23 11:44:20.4     156    157    130    222    257  44.8  33.1  34176  289.85 0855.27
2009/04/23 11:44:20.5     197    339    142    393    419  30.2  19.9  34182  289.94 0855.27
2009/04/23 11:44:20.6     244    359    169    435    466  34.3  22.4  34182  289.95 0855.27
2009/04/23 11:44:20.7     164    345    208    383    435  25.5  30.9  34174  289.82 0855.27
2009/04/23 11:44:20.8     213    212    140    301    331  45.1  26.6  34166  289.68 0855.27
2009/04/23 11:44:20.9     257    191    148    321    353  53.4  26.5  34166  289.69 0855.27
2009/04/23 11:44:21.0     150    302    230    338    408  26.5  37.4  34158  289.54 0855.27
2009/04/23 11:44:21.1     144    269     83    306    318  28.1  15.3  34158  289.53 0855.27
2009/04/23 11:44:21.2     203    235     32    311    313  40.8   5.9  34152  289.44 0855.27
2009/04/23 11:44:21.3     158    228     26    278    280  34.7   5.4  34152  289.44 0855.27
2009/04/23 11:44:21.4     200    249    148    320    352  38.8  26.6  34156  289.50 0855.27
2009/04/23 11:44:21.5     310     92    239    324    402  73.4  40.1  34170  289.74 0855.27
2009/04/23 11:44:21.6     352     41    212    355    413  83.3  33.6  34178  289.86 0855.27
2009/04/23 11:44:21.7     401      4    175    402    438  89.4  25.1  34162  289.61 0855.27
2009/04/23 11:44:21.8     386    -27     83    387    396  94.1  12.2  34162  289.59 0855.27
2009/04/23 11:44:21.9     137      6    244    138    280  87.4  67.8  34190  290.09 0855.27
2009/04/23 11:44:22.0     104    -35    236    110    260 108.6  73.2  34192  290.13 0855.27
2009/04/23 11:44:22.1     219    -21    245    221    329  95.5  53.4  34194  290.14 0855.27
2009/04/23 11:44:22.2     104   -104    182    148    234 135.0  56.6  34198  290.21 0855.27
2009/04/23 11:44:22.3      73    -58    170     94    194 128.2  68.8  34184  289.99 0855.27
2009/04/23 11:44:22.4      28   -141    143    144    202 168.5  50.0  34182  289.96 0855.27
2009/04/23 11:44:22.5      35   -122    115    127    171 164.0  46.9  34180  289.92 0855.27
2009/04/23 11:44:22.6     -40   -196    177    201    267 191.6  45.9  34180  289.92 0855.27
2009/04/23 11:44:22.7     -29   -209    183    212    280 188.0  45.4  34176  289.83 0855.27
2009/04/23 11:44:22.8     -79   -204    202    219    297 201.2  47.9  34200  290.24 0855.25
2009/04/23 11:44:22.9    -120   -198    123    232    262 211.2  30.3  34188  290.03 0855.25
2009/04/23 11:44:23.0     -96   -164     45    191    197 210.3  13.2  34186  290.02 0855.25
2009/04/23 11:44:23.1     -47    -47    165     67    178 225.0  77.0  34208  290.38 0855.25
2009/04/23 11:44:23.2    -107    -38    102    114    152 250.5  46.9  34188  290.06 0855.25
2009/04/23 11:44:23.3     -36    -35      8     51     52 225.9   9.0  34186  290.01 0855.25
2009/04/23 11:44:23.4      25    -11     31     28     41 113.5  53.3  34186  290.01 0855.25
2009/04/23 11:44:23.5      62    -21     77     66    101 109.1  55.4  34178  289.89 0855.25
2009/04/23 11:44:23.6      77     -5     96     78    123  94.4  56.4  34174  289.80 0855.25
2009/04/23 11:44:23.7      -1   -112    113    113    159 180.9  50.1  34170  289.75 0855.25
2009/04/23 11:44:23.8    -113   -162    112    198    227 215.0  31.9  34164  289.65 0855.25
2009/04/23 11:44:23.9    -124   -139     23    187    189 221.9   7.2  34164  289.63 0855.25
2009/04/23 11:44:24.0     -96   -100     83    139    161 223.7  33.7  34166  289.67 0855.25
2009/04/23 11:44:24.1     -70    -94     32    118    123 216.5  15.2  34168  289.72 0855.25
2009/04/23 11:44:24.2      32    -58    -18     67     70 151.1 -15.5  34172  289.77 0855.25
2009/04/23 11:44:24.3       6   -134    -20    135    137 177.3  -8.8  34168  289.72 0855.25
2009/04/23 11:44:24.4     -42   -142      1    149    150 196.5   0.7  34168  289.70 0855.25
2009/04/23 11:44:24.5     -34   -223    -12    226    227 188.7  -3.2  34182  289.96 0855.25
2009/04/23 11:44:24.6    -139   -181    -28    229    231 217.4  -7.2  34196  290.19 0855.25
2009/04/23 11:44:24.7    -139   -104    -87    174    194 233.1 -32.6  34182  289.94 0855.25
2009/04/23 11:44:24.8     -60    -76    -12     97     98 218.3  -7.3  34174  289.80 0855.25
2009/04/23 11:44:24.9     -81   -124     52    149    159 213.4  19.4  34180  289.91 0855.25
2009/04/23 11:44:25.0     -60   -178    -10    188    189 198.7  -3.3  34182  289.94 0855.25
2009/04/23 11:44:25.1     -84   -102     11    133    134 219.6   4.9  34180  289.92 0855.25
2009/04/23 11:44:25.2    -124   -159     55    202    210 217.9  15.3  34186  290.01 0855.25
2009/04/23 11:44:25.3    -184   -190     62    265    273 224.1  13.2  34182  289.93 0855.25
2009/04/23 11:44:25.4    -433   -196    -66    476    481 245.6  -7.9  34168  289.71 0855.25
2009/04/23 11:44:25.5    -407   -171    -55    442    446 247.2  -7.2  34168  289.72 0855.25
2009/04/23 11:44:25.6    -423    -51   -118    427    444 263.0 -15.5  34168  289.72 0855.25
2009/04/23 11:44:25.7    -455   -126   -134    473    492 254.5 -15.9  34168  289.71 0855.25
2009/04/23 11:44:25.8    -476   -132    -83    495    503 254.5  -9.6  34168  289.71 0855.25
2009/04/23 11:44:25.9    -469    -72   -131    475    493 261.2 -15.5  34168  289.71 0855.25
2009/04/23 11:44:26.0    -424   -117     40    441    443 254.5   5.2  34166  289.66 0855.25
2009/04/23 11:44:26.1    -407    -53     97    411    423 262.6  13.3  34170  289.75 0855.25
2009/04/23 11:44:26.2    -369     -5     99    370    383 269.1  15.0  34154  289.47 0855.25
2009/04/23 11:44:26.3    -171   -124    130    212    248 234.0  34.5  34184  289.98 0855.25
2009/04/23 11:44:26.4     -22   -131    131    133    186 189.7  49.8  34182  289.94 0855.25
2009/04/23 11:44:26.5     -33   -206    146    209    254 189.1  38.6  34184  289.97 0855.25
2009/04/23 11:44:26.6      58   -208    104    216    239 164.4  27.4  34180  289.92 0855.25
2009/04/23 11:44:26.7      14   -247     26    248    250 176.6   6.1  34174  289.81 0855.25
2009/04/23 11:44:26.8     -70   -243    -23    253    255 196.1  -5.2  34182  289.93 0855.25
2009/04/23 11:44:26.9       2   -194    -58    195    203 179.3 -21.7  34178  289.89 0855.25
2009/04/23 11:44:27.0     -43   -198   -107    203    229 192.3 -34.5  34182  289.94 0855.25
2009/04/23 11:44:27.1     -57   -171   -106    181    209 198.5 -37.5  34180  289.92 0855.25
2009/04/23 11:44:27.2    -135   -187   -132    231    266 215.8 -36.7  34180  289.92 0855.25
2009/04/23 11:44:27.3    -192   -128   -102    231    252 236.3 -29.6  34182  289.95 0855.25
2009/04/23 11:44:27.4    -185     22    -83    187    204 276.8 -29.7  34178  289.89 0855.25
2009/04/23 11:44:27.5    -252    -10     -1    253    254 267.6  -0.3  34190  290.09 0855.25
2009/04/23 11:44:27.6    -260    -36     -1    263    264 262.0  -0.3  34188  290.05 0855.25
2009/04/23 11:44:27.7    -242    -10     34    243    246 267.6   8.0  34194  290.14 0855.25
2009/04/23 11:44:27.8    -299     -4    -11    300    301 269.2  -2.2  34184  289.97 0855.25
2009/04/23 11:44:27.9    -239    -60    -83    247    261 255.8 -18.7  34190  290.07 0855.25
2009/04/23 11:44:28.0    -216    -28    -35    218    221 262.5  -9.3  34188  290.06 0855.25
2009/04/23 11:44:28.1    -283      0    -83    284    297 270.0 -16.4  34182  289.93 0855.25
2009/04/23 11:44:28.2    -290    -95    -88    306    319 251.8 -16.0  34186  290.02 0855.25
2009/04/23 11:44:28.3    -279     92   -103    294    312 288.4 -19.3  34178  289.88 0855.25
2009/04/23 11:44:28.4    -238     20   -169    239    292 275.0 -43.2  34182  289.95 0855.25
2009/04/23 11:44:28.5    -127   -124   -103    178    205 225.6 -37.3  34184  289.99 0855.25
2009/04/23 11:44:28.6    -135   -163   -122    212    244 219.6 -36.8  34188  290.03 0855.25
2009/04/23 11:44:28.7    -222   -187    -92    291    306 229.8 -17.5  34184  289.97 0855.25
2009/04/23 11:44:28.8    -184    -73    -78    199    213 248.3 -26.7  34184  289.97 0855.24
2009/04/23 11:44:28.9    -173   -104    -36    203    207 238.9 -10.3  34184  289.97 0855.24
2009/04/23 11:44:29.0     -69    -61    -45     93    103 228.2 -31.7  34184  289.97 0855.24
2009/04/23 11:44:29.1     -45    -41    -35     62     71 227.8 -35.8  34186  290.01 0855.24
2009/04/23 11:44:29.2      44   -110    -28    119    123 158.1 -13.4  34184  289.97 0855.24
2009/04/23 11:44:29.3    -111   -104     -6    153    154 226.8  -2.2  34184  289.97 0855.24
2009/04/23 11:44:29.4    -156   -246     19    292    293 212.5   3.9  34178  289.86 0855.24
2009/04/23 11:44:29.5    -118   -260     76    286    297 204.5  15.0  34176  289.85 0855.24
2009/04/23 11:44:29.6     -42   -120     67    128    144 199.2  29.8  34186  290.02 0855.24
2009/04/23 11:44:29.7      -8   -162     46    163    170 182.9  16.0  34182  289.96 0855.24
2009/04/23 11:44:29.8     -35   -253    -37    256    259 188.0  -8.2  34182  289.93 0855.24
2009/04/23 11:44:29.9      -4   -274     -7    275    276 180.9  -1.6  34182  289.95 0855.24
2009/04/23 11:44:30.0      41   -202     23    207    209 168.5   6.5  34182  289.94 0855.24
2009/04/23 11:44:30.1      12   -212    104    213    237 176.6  28.0  34184  289.99 0855.24
2009/04/23 11:44:30.2     -61   -221    138    230    268 195.4  34.0  34182  289.93 0855.24
2009/04/23 11:44:30.3     -45   -157    106    164    195 196.0  36.0  34178  289.87 0855.24
2009/04/23 11:44:30.4      -8   -113     50    114    124 184.5  25.1  34180  289.91 0855.24
2009/04/23 11:44:30.5      -9      4     98     11     98 295.3  90.0  34182  289.96 0855.24
2009/04/23 11:44:30.6     -30    -14    137     34    141 244.8  86.4  34190  290.09 0855.24
2009/04/23 11:44:30.7     -45    -25    141     52    150 240.2  79.2  34184  289.99 0855.24
2009/04/23 11:44:30.8     -18      7     59     20     62 291.7  81.0  34192  290.13 0855.24
2009/04/23 11:44:30.9     -13     -9    116     17    117 234.0  90.0  34192  290.13 0855.24
2009/04/23 11:44:31.0      -3    -21    104     22    106 189.8  89.0  34188  290.04 0855.24
2009/04/23 11:44:31.1      12      4     90     13     90  71.4  90.0  34190  290.08 0855.24
2009/04/23 11:44:31.2     149     -2    117    150    190  90.9  42.2  34194  290.14 0855.24
2009/04/23 11:44:31.3     132    -39    155    138    207 106.8  54.0  34194  290.14 0855.24
2009/04/23 11:44:31.4      54   -136    115    147    186 158.1  42.4  34186  290.01 0855.24
2009/04/23 11:44:31.5      79   -212    158    227    276 159.5  38.4  34178  289.88 0855.24
2009/04/23 11:44:31.6      94   -258    123    275    301 160.0  25.7  34172  289.78 0855.24
2009/04/23 11:44:31.7      80   -125    181    149    234 147.5  56.4  34174  289.82 0855.24
2009/04/23 11:44:31.8     224   -215    139    311    340 133.8  25.7  34178  289.86 0855.24
2009/04/23 11:44:31.9     253   -194    168    320    361 127.5  29.8  34174  289.81 0855.24
2009/04/23 11:44:32.0     231   -216    201    317    375 133.1  35.5  34178  289.87 0855.24
2009/04/23 11:44:32.1     225   -159    220    276    352 125.3  42.6  34178  289.89 0855.24
2009/04/23 11:44:32.2     250   -102    284    271    392 112.2  51.5  34182  289.94 0855.24
2009/04/23 11:44:32.3     186    -91    285    208    352 116.2  60.4  34182  289.95 0855.24
2009/04/23 11:44:32.4     149   -136    276    202    342 132.4  60.3  34196  290.17 0855.24
2009/04/23 11:44:32.5     223   -250    231    336    407 138.2  37.8  34168  289.71 0855.24
2009/04/23 11:44:32.6     159   -226    239    277    365 144.8  45.4  34172  289.76 0855.24
2009/04/23 11:44:32.7      36   -160    185    165    247 167.3  53.7  34168  289.70 0855.24
2009/04/23 11:44:32.8      52    -57    190     78    205 137.7  76.6  34168  289.72 0855.24
2009/04/23 11:44:32.9      -2   -135    222    136    260 180.9  65.6  34168  289.70 0855.24
2009/04/23 11:44:33.0      64   -136    212    151    260 154.6  61.1  34160  289.58 0855.24
2009/04/23 11:44:33.1     121   -128    163    177    240 136.8  47.7  34164  289.65 0855.24
2009/04/23 11:44:33.2     154    -73     78    171    187 115.3  26.4  34162  289.62 0855.24
2009/04/23 11:44:33.3     206      9    107    207    233  87.4  29.3  34168  289.70 0855.24
2009/04/23 11:44:33.4     177     84    130    197    236  64.6  36.5  34180  289.92 0855.24
2009/04/23 11:44:33.5     178     86     71    198    210  64.2  20.2  34210  290.41 0855.24
2009/04/23 11:44:33.6     279    278    138    395    419  45.1  19.3  34236  290.85 0855.24
2009/04/23 11:44:33.7       0    257    253    258    361   0.0  49.8  34228  290.71 0855.24
2009/04/23 11:44:33.8     -31   -245    240    248    345 187.3  49.1  34216  290.51 0855.24
2009/04/23 11:44:33.9     116    -90    167    147    222 127.8  54.2  34196  290.18 0855.24
2009/04/23 11:44:34.0     136    -82    189    160    247 121.1  55.4  34186  290.02 0855.24
2009/04/23 11:44:34.1     143     48    238    151    281  71.4  64.7  34210  290.42 0855.24
2009/04/23 11:44:34.2      45     -3    157     46    163  94.4  83.3  34220  290.60 0855.24
2009/04/23 11:44:34.3     411    173    288    447    531  67.2  35.7  34222  290.62 0855.24
2009/04/23 11:44:34.4     568    229    362    613    711  68.0  33.3  34218  290.55 0855.24
2009/04/23 11:44:34.5     580    200    324    614    694  70.9  30.1  34202  290.27 0855.24
2009/04/23 11:44:34.6     432    115    297    448    537  75.0  36.5  34226  290.68 0855.24
2009/04/23 11:44:34.7       7   -315    344    316    467 178.6  52.6  34184  289.99 0855.24
2009/04/23 11:44:34.8     112   -184    254    216    333 148.6  55.5  34192  290.12 0855.25
2009/04/23 11:44:34.9     144    -73    219    162    272 117.1  60.3  34190  290.07 0855.25
2009/04/23 11:44:35.0     296    103    111    314    333  70.7  20.2  34176  289.83 0855.25
2009/04/23 11:44:35.1     198     15    173    199    263  85.6  45.4  34182  289.95 0855.25
2009/04/23 11:44:35.2      26   -123    162    126    205 168.0  58.2  34180  289.91 0855.25
2009/04/23 11:44:35.3     -24   -187    176    189    258 187.6  47.9  34184  289.98 0855.25
2009/04/23 11:44:35.4       3   -169    181    170    248 178.9  52.1  34184  289.97 0855.25
2009/04/23 11:44:35.5     139   -205    207    248    323 145.9  44.1  34180  289.90 0855.25
2009/04/23 11:44:35.6     177   -133    233    222    321 127.1  51.5  34182  289.95 0855.25
2009/04/23 11:44:35.7      85   -168    192    189    269 153.0  50.2  34178  289.86 0855.25
2009/04/23 11:44:35.8     130   -252    173    284    332 152.6  34.2  34180  289.92 0855.25
2009/04/23 11:44:35.9     155   -308    162    345    381 153.3  27.1  34182  289.96 0855.25
2009/04/23 11:44:36.0      76   -407    162    414    444 169.4  22.5  34168  289.72 0855.25
2009/04/23 11:44:36.1      44   -518    173    521    549 175.1  18.4  34180  289.90 0855.25
2009/04/23 11:44:36.2      72   -494    164    500    527 171.7  18.2  34178  289.89 0855.25
2009/04/23 11:44:36.3     231   -553    141    600    617 157.3  13.2  34176  289.83 0855.25
2009/04/23 11:44:36.4     136   -448    164    469    496 163.1  20.0  34172  289.76 0855.25
2009/04/23 11:44:36.5      67   -444    138    450    471 171.4  17.1  34178  289.87 0855.25
2009/04/23 11:44:36.6      71   -451    107    457    470 171.0  13.3  34178  289.89 0855.25
2009/04/23 11:44:36.7       5   -452     88    453    462 179.3  11.0  34174  289.82 0855.25
2009/04/23 11:44:36.8      87   -447     36    456    458 168.9   4.6  34176  289.83 0855.25
2009/04/23 11:44:36.9      95   -384    106    396    410 166.0  15.0  34176  289.85 0855.25
2009/04/23 11:44:37.0     -46   -424     67    427    433 186.3   9.0  34176  289.83 0855.25
2009/04/23 11:44:37.1     -38   -324     98    327    342 186.7  16.7  34178  289.86 0855.25
2009/04/23 11:44:37.2     207   -251     51    326    331 140.4   8.9  34174  289.82 0855.25
2009/04/23 11:44:37.3     174   -365     95    405    416 154.5  13.2  34174  289.82 0855.25
2009/04/23 11:44:37.4      79   -458    -52    465    469 170.2  -6.5  34178  289.86 0855.25
2009/04/23 11:44:37.5     150   -458   -110    482    495 161.9 -12.9  34178  289.89 0855.25
2009/04/23 11:44:37.6     191   -413    152    456    481 155.2  18.5  34174  289.81 0855.25
2009/04/23 11:44:37.7      74   -379    142    387    412 168.9  21.0  34174  289.82 0855.25
2009/04/23 11:44:37.8      84   -413    164    422    452 168.5  22.5  34168  289.72 0855.25
2009/04/23 11:44:37.9    -204   -438    229    484    535 204.9  27.1  34174  289.81 0855.25
2009/04/23 11:44:38.0      -9   -313    198    314    371 181.8  35.5  34178  289.86 0855.25
2009/04/23 11:44:38.1     -16   -343    107    344    361 182.7  17.3  34172  289.76 0855.25
2009/04/23 11:44:38.2      63   -349    125    355    376 169.8  20.2  34182  289.93 0855.25
2009/04/23 11:44:38.3      -6   -338    136    339    365 181.1  23.0  34178  289.87 0855.25
2009/04/23 11:44:38.4     -43   -393     77    396    404 186.3  11.1  34176  289.84 0855.25
2009/04/23 11:44:38.5     182   -467    -70    502    508 158.7  -8.0  34172  289.76 0855.25
2009/04/23 11:44:38.6     236   -371    -42    441    444 147.5  -5.5  34180  289.92 0855.25
2009/04/23 11:44:38.7     215   -419    -49    472    475 152.8  -6.0  34172  289.76 0855.25
2009/04/23 11:44:38.8     256   -358    169    441    472 144.4  22.1  34162  289.60 0855.25
2009/04/23 11:44:38.9     267   -360    160    449    476 143.4  20.4  34172  289.79 0855.25
2009/04/23 11:44:39.0     260   -430     89    503    511 148.8  10.1  34182  289.93 0855.25
2009/04/23 11:44:39.1     148   -444     19    469    470 161.5   2.3  34174  289.81 0855.25
2009/04/23 11:44:39.2     182   -309    152    359    389 149.5  24.2  34178  289.86 0855.25
2009/04/23 11:44:39.3     249   -249     71    353    361 135.0  11.4  34178  289.86 0855.25
2009/04/23 11:44:39.4     235   -235    144    333    362 134.9  25.0  34164  289.65 0855.25
2009/04/23 11:44:39.5     262   -296      8    396    397 138.5   1.2  34172  289.77 0855.25
2009/04/23 11:44:39.6     136   -227    -10    265    266 149.0  -2.2  34170  289.75 0855.25
2009/04/23 11:44:39.7      49   -315    -17    319    320 171.1  -3.1  34166  289.68 0855.25
2009/04/23 11:44:39.8      45   -254     36    259    262 169.8   8.0  34168  289.71 0855.25
2009/04/23 11:44:39.9      24   -352     71    353    361 176.1  11.5  34164  289.65 0855.25
2009/04/23 11:44:40.0     114   -454     83    469    477 165.8  10.1  34154  289.47 0855.25
2009/04/23 11:44:40.1      38   -411    106    413    427 174.7  14.4  34160  289.56 0855.25
2009/04/23 11:44:40.2     -22   -438    112    439    454 182.9  14.3  34162  289.61 0855.25
2009/04/23 11:44:40.3     -60   -432    145    437    461 187.9  18.5  34164  289.65 0855.25
2009/04/23 11:44:40.4    -113   -449     47    463    466 194.2   5.9  34166  289.67 0855.25
2009/04/23 11:44:40.5     -10   -491     -6    492    493 181.3  -0.7  34170  289.73 0855.25
2009/04/23 11:44:40.6     -49   -449     54    452    456 186.3   6.9  34166  289.66 0855.25
2009/04/23 11:44:40.7       4   -482    219    483    530 179.5  26.2  34172  289.76 0855.25
2009/04/23 11:44:40.8      42   -652    401    654    767 176.3  34.4  34174  289.81 0855.25
2009/04/23 11:44:40.9     206   -700    331    730    801 163.6  26.0  34176  289.85 0855.25
2009/04/23 11:44:41.0     296   -771    154    827    842 159.0  10.6  34178  289.89 0855.25
2009/04/23 11:44:41.1     167   -846    -39    863    864 168.8  -2.6  34172  289.76 0855.25
2009/04/23 11:44:41.3     176   -779    109    799    807 167.2   7.8  34172  289.79 0855.25
2009/04/23 11:44:41.4     149   -828    -32    842    843 169.8  -2.2  34174  289.82 0855.25
2009/04/23 11:44:41.4     113   -869     34    877    878 172.6   2.2  34170  289.74 0855.25
2009/04/23 11:44:41.5     -18  -1060    -99   1061   1067 181.0  -5.4  34180  289.90 0855.25
2009/04/23 11:44:41.6    -136  -1187   -196   1195   1212 186.6  -9.3  34142  289.28 0855.25
2009/04/23 11:44:41.7      87  -1115    -36   1119   1120 175.5  -1.9  34156  289.51 0855.25
2009/04/23 11:44:41.8    -252   -940   -229    974   1001 195.1 -13.3  34152  289.42 0855.25
2009/04/23 11:44:41.9    -417   -860   -239    956    986 205.9 -14.1  34134  289.14 0855.25
2009/04/23 11:44:42.0    -152   -846   -122    860    869 190.2  -8.1  34140  289.22 0855.25
2009/04/23 11:44:42.1    -366   -849    -56    925    927 203.3  -3.5  34148  289.38 0855.25
2009/04/23 11:44:42.2    -358   -850   -167    923    939 202.8 -10.3  34146  289.34 0855.25
2009/04/23 11:44:42.4    -321   -793   -147    856    869 202.1  -9.8  34148  289.36 0855.25
2009/04/23 11:44:42.5    -431   -786   -211    897    922 208.8 -13.3  34136  289.16 0855.25
2009/04/23 11:44:42.6    -468   -635   -201    790    816 216.4 -14.3  34138  289.21 0855.25
2009/04/23 11:44:42.7    -439   -546      8    701    702 218.8   0.7  34144  289.30 0855.25
2009/04/23 11:44:42.8    -597   -487   -176    771    791 230.8 -12.9  34126  289.00 0855.25
2009/04/23 11:44:42.9    -650   -332   -206    731    760 242.9 -15.8  34126  288.99 0855.25
2009/04/23 11:44:43.0    -618   -323   -290    698    755 242.4 -28.3  34138  289.19 0855.25
2009/04/23 11:44:43.1    -543   -251   -224    599    639 245.2 -25.9  34132  289.09 0855.25
2009/04/23 11:44:43.2    -469   -162   -148    497    518 250.9 -21.5  34114  288.79 0855.25
2009/04/23 11:44:43.3    -305   -210   -195    371    419 235.4 -34.6  34132  289.11 0855.25
2009/04/23 11:44:43.4    -345   -337   -238    483    538 225.7 -32.5  34144  289.29 0855.25
2009/04/23 11:44:43.5    -341   -311   -268    462    534 227.7 -37.3  34152  289.44 0855.25
2009/04/23 11:44:43.6    -252   -267   -245    368    442 223.3 -41.3  34156  289.51 0855.25
2009/04/23 11:44:43.7    -225   -291   -342    368    502 217.7 -52.3  34156  289.49 0855.25
2009/04/23 11:44:43.8    -303   -119   -214    326    389 248.5 -40.9  34150  289.40 0855.25
2009/04/23 11:44:43.9    -327    -53   -264    332    424 260.8 -47.1  34154  289.47 0855.25
2009/04/23 11:44:44.0    -277    -75   -436    288    522 254.9 -68.0  34154  289.46 0855.25
2009/04/23 11:44:44.1    -294    -14   -409    295    504 267.2 -65.1  34154  289.48 0855.25
2009/04/23 11:44:44.2    -154    -26   -366    157    398 260.3 -79.8  34152  289.43 0855.25
2009/04/23 11:44:44.3    -304   -229   -184    381    423 233.0 -31.8  34146  289.34 0855.25
2009/04/23 11:44:44.4    -369   -242   -274    442    520 236.7 -39.2  34144  289.30 0855.25
2009/04/23 11:44:44.5    -378   -240   -167    448    478 237.6 -25.9  34154  289.47 0855.25
2009/04/23 11:44:44.6     -30   -408    -80    410    418 184.2 -11.1  34152  289.43 0855.25
2009/04/23 11:44:44.7     177   -388   -128    427    446 155.5 -16.7  34146  289.34 0855.25
2009/04/23 11:44:44.8     181   -511   -182    543    572 160.4 -23.5  34152  289.43 0855.25
2009/04/23 11:44:44.9     455   -561     39    723    725 140.9   3.1  34154  289.47 0855.25
2009/04/23 11:44:45.0     341   -557    -51    654    657 148.5  -4.5  34162  289.60 0855.25
2009/04/23 11:44:45.1     261   -632     37    684    686 157.5   3.1  34156  289.51 0855.25
2009/04/23 11:44:45.2     139   -648     25    663    664 167.8   2.2  34156  289.51 0855.25
2009/04/23 11:44:45.3     127   -655     99    668    676 169.0   8.5  34150  289.39 0855.25
2009/04/23 11:44:45.4      52   -879    115    881    889 176.6   7.5  34144  289.30 0855.25
2009/04/23 11:44:45.5     108   -993     78    999   1003 173.8   4.5  34142  289.27 0855.25
2009/04/23 11:44:45.6     -19   -981     65    982    985 181.1   3.8  34122  288.92 0855.25
2009/04/23 11:44:45.7    -138   -925     49    936    938 188.5   3.0  34110  288.74 0855.25
2009/04/23 11:44:45.8    -138   -624    265    640    692 192.5  23.7  34122  288.94 0855.25
2009/04/23 11:44:45.9     107   -717    184    725    749 171.5  14.3  34142  289.26 0855.23
2009/04/23 11:44:46.0     105   -706    118    714    724 171.5   9.4  34136  289.18 0855.23
2009/04/23 11:44:46.1    -117   -974    -70    982    985 186.9  -4.1  34124  288.96 0855.23
2009/04/23 11:44:46.2     -36   -983    -19    984    985 182.1  -1.1  34118  288.85 0855.23
2009/04/23 11:44:46.3     -10  -1031     12   1032   1033 180.6   0.7  34110  288.74 0855.23
2009/04/23 11:44:46.4      19  -1113     17   1114   1115 179.0   0.9  34106  288.65 0855.23
2009/04/23 11:44:46.5     -66  -1021    -69   1024   1027 183.7  -3.9  34104  288.64 0855.23
2009/04/23 11:44:46.6     -52  -1042   -113   1044   1051 182.9  -6.2  34104  288.62 0855.23
2009/04/23 11:44:46.7     -68  -1009    -49   1012   1014 183.9  -2.8  34110  288.72 0855.23
2009/04/23 11:44:46.8     -51  -1006    -43   1008   1009 182.9  -2.5  34120  288.88 0855.23
2009/04/23 11:44:46.9     -42   -908     15    910    911 182.7   1.0  34120  288.90 0855.23
2009/04/23 11:44:47.0     -57   -863     -5    865    866 183.8  -0.4  34116  288.82 0855.23
2009/04/23 11:44:47.1     -98   -901    -18    907    908 186.3  -1.2  34116  288.82 0855.23
2009/04/23 11:44:47.2    -158   -924     27    938    939 189.7   1.7  34120  288.88 0855.23
2009/04/23 11:44:47.3    -439   -793   -302    907    956 209.0 -18.4  34134  289.12 0855.23
2009/04/23 11:44:47.4    -276   -932   -123    973    981 196.5  -7.2  34134  289.13 0855.23
2009/04/23 11:44:47.5    -249   -841    -93    878    884 196.5  -6.1  34132  289.10 0855.23
2009/04/23 11:44:47.6    -294   -751    -35    807    808 201.4  -2.5  34126  288.98 0855.23
2009/04/23 11:44:47.7    -389   -772    -84    865    870 206.8  -5.6  34130  289.07 0855.23
2009/04/23 11:44:47.8    -312   -753    -78    816    820 202.5  -5.5  34138  289.20 0855.23
2009/04/23 11:44:47.9    -364   -603   -253    705    750 211.1 -19.8  34136  289.18 0855.22
2009/04/23 11:44:48.0    -394   -658    -16    767    768 210.9  -1.3  34138  289.19 0855.22
2009/04/23 11:44:48.1      35   -564    165    566    590 176.4  16.3  34134  289.12 0855.22
2009/04/23 11:44:48.2     220   -459    214    510    553 154.4  24.2  34124  288.96 0855.22
2009/04/23 11:44:48.3      25   -559    290    560    630 177.4  29.5  34128  289.02 0855.22
2009/04/23 11:44:48.4    -143   -401    267    427    503 199.7  35.1  34134  289.12 0855.22
2009/04/23 11:44:48.5    -171   -392     11    428    429 203.6   1.5  34132  289.09 0855.22
2009/04/23 11:44:48.6    -188   -318    -24    370    371 210.7  -3.7  34142  289.26 0855.22
2009/04/23 11:44:48.7     -76   -489   -176    496    527 188.9 -19.6  34150  289.39 0855.22
2009/04/23 11:44:48.8     -82   -503   -127    510    526 189.3 -14.1  34150  289.41 0855.22
2009/04/23 11:44:48.9     -24   -516    -54    517    520 182.7  -6.0  34142  289.28 0855.22
2009/04/23 11:44:49.0     174   -657   -102    680    688 165.1  -8.6  34144  289.29 0855.22
2009/04/23 11:44:49.1     238   -620   -101    665    673 159.0  -8.7  34130  289.07 0855.22
2009/04/23 11:44:49.2     189   -545    -22    578    579 160.8  -2.2  34134  289.12 0855.22
2009/04/23 11:44:49.3      96   -470     49    480    483 168.4   5.9  34142  289.28 0855.22
2009/04/23 11:44:49.4     -27   -435    119    436    453 183.6  15.3  34146  289.34 0855.22
2009/04/23 11:44:49.5      94   -520    186    529    560 169.7  20.1  34130  289.07 0855.22
2009/04/23 11:44:49.6       8   -570    221    571    612 179.1  22.4  34148  289.37 0855.22
2009/04/23 11:44:49.7     -46   -688    203    690    720 183.9  16.4  34140  289.22 0855.22
2009/04/23 11:44:49.8     -75   -690    236    695    735 186.3  18.8  34136  289.15 0855.22
2009/04/23 11:44:49.9     -43   -608    260    610    663 184.1  24.6  34142  289.26 0855.22
2009/04/23 11:44:50.0      84   -592    238    599    644 171.9  22.9  34142  289.28 0855.22
2009/04/23 11:44:50.1      67   -669     75    673    678 174.2   6.4  34142  289.27 0855.22
2009/04/23 11:44:50.2     226   -684     18    721    722 161.7   1.5  34140  289.22 0855.22
2009/04/23 11:44:50.3     309   -552    211    633    668 150.7  18.5  34146  289.33 0855.22
2009/04/23 11:44:50.4     315   -650    165    723    742 154.1  12.9  34130  289.06 0855.22
2009/04/23 11:44:50.5     147   -491   -108    513    525 163.3 -11.9  34148  289.38 0855.22
2009/04/23 11:44:50.6     188   -561     70    592    597 161.4   6.8  34130  289.05 0855.22
2009/04/23 11:44:50.7      30   -542    188    543    575 176.8  19.2  34130  289.06 0855.22
2009/04/23 11:44:50.8      30   -558     73    559    564 176.9   7.5  34130  289.07 0855.22
2009/04/23 11:44:50.9      99   -657   -118    665    676 171.4 -10.1  34144  289.31 0855.22
2009/04/23 11:44:51.0     123   -612   -120    625    637 168.6 -10.9  34128  289.03 0855.22
2009/04/23 11:44:51.1     127   -575    -62    590    594 167.5  -6.1  34120  288.90 0855.22
2009/04/23 11:44:51.2     144   -565     -2    584    585 165.7  -0.3  34130  289.08 0855.22
2009/04/23 11:44:51.3      64   -537    -51    541    544 173.2  -5.5  34130  289.07 0855.22
2009/04/23 11:44:51.4      88   -512   -105    520    531 170.2 -11.5  34126  288.99 0855.22
2009/04/23 11:44:51.5     132   -461    -50    480    483 164.0  -6.0  34130  289.06 0855.22
2009/04/23 11:44:51.6      91   -448    -33    458    460 168.4  -4.1  34130  289.07 0855.22
2009/04/23 11:44:51.7     123   -469    -34    485    487 165.2  -4.1  34140  289.22 0855.22
2009/04/23 11:44:51.8      71   -538    -63    543    547 172.4  -6.7  34146  289.33 0855.22
2009/04/23 11:44:51.9     123   -454    -18    471    472 164.9  -2.2  34148  289.37 0855.22
2009/04/23 11:44:52.0     152   -490    -87    514    522 162.7  -9.6  34152  289.44 0855.22
2009/04/23 11:44:52.1     133   -580     50    596    599 167.1   4.9  34154  289.47 0855.22
2009/04/23 11:44:52.2     135   -611     -6    626    627 167.5  -0.6  34154  289.48 0855.22
2009/04/23 11:44:52.3     171   -573    -92    598    606 163.4  -8.8  34152  289.42 0855.22
2009/04/23 11:44:52.4     181   -627     85    653    659 163.9   7.4  34160  289.56 0855.22
2009/04/23 11:44:52.5     161   -481    -65    508    513 161.4  -7.3  34160  289.56 0855.22
2009/04/23 11:44:52.6     261   -526      3    588    589 153.6   0.3  34164  289.64 0855.22
2009/04/23 11:44:52.7     387   -719    175    817    836 151.7  12.1  34174  289.82 0855.22
2009/04/23 11:44:52.8     264   -666    268    717    765 158.3  21.5  34154  289.46 0855.22
2009/04/23 11:44:52.9     186   -447    379    485    615 157.4  42.0  34174  289.80 0855.22
2009/04/23 11:44:53.0     382   -491    244    623    669 142.2  22.5  34156  289.52 0855.22
2009/04/23 11:44:53.1     278   -567    242    632    676 153.9  22.1  34154  289.46 0855.22
2009/04/23 11:44:53.2      62   -532    238    536    586 173.3  25.6  34156  289.52 0855.22
2009/04/23 11:44:53.3     172   -690    112    712    721 166.0   9.0  34156  289.50 0855.22
2009/04/23 11:44:53.4     285   -635    229    697    734 155.8  18.2  34178  289.88 0855.22
2009/04/23 11:44:53.5     339   -523     91    624    631 147.0   8.3  34156  289.52 0855.22
2009/04/23 11:44:53.6     286   -483    115    562    574 149.4  11.6  34156  289.51 0855.22
2009/04/23 11:44:53.7     192   -570    132    602    617 161.3  12.4  34164  289.64 0855.22
2009/04/23 11:44:53.8     212   -621      8    657    658 161.1   0.7  34168  289.70 0855.22
2009/04/23 11:44:53.9     152   -501     21    524    525 163.1   2.4  34164  289.63 0855.21
2009/04/23 11:44:54.0     125   -426    128    445    464 163.6  16.1  34168  289.70 0855.21
2009/04/23 11:44:54.1     -79   -459     42    466    468 189.8   5.2  34166  289.67 0855.21
2009/04/23 11:44:54.2      31   -495      6    496    497 176.4   0.7  34170  289.74 0855.21
2009/04/23 11:44:54.3     140   -484      6    504    505 163.9   0.7  34154  289.47 0855.21
2009/04/23 11:44:54.4     155   -321     -7    357    358 154.1  -1.2  34158  289.54 0855.21
2009/04/23 11:44:54.5     134   -310    -17    338    339 156.6  -3.0  34158  289.54 0855.21
2009/04/23 11:44:54.6     101   -277    -16    295    296 160.0  -3.2  34164  289.63 0855.21
2009/04/23 11:44:54.7     150   -303    -49    339    343 153.6  -8.4  34172  289.79 0855.21
2009/04/23 11:44:54.8     141   -275    -56    310    316 152.8 -10.3  34170  289.73 0855.21
2009/04/23 11:44:54.9      11   -222     61    223    232 177.1  15.3  34162  289.60 0855.21
2009/04/23 11:44:55.0      54   -231     -9    238    239 166.7  -2.2  34170  289.75 0855.21
2009/04/23 11:44:55.1      38   -205    -58    209    217 169.5 -15.5  34160  289.58 0855.21
2009/04/23 11:44:55.2      40   -252     33    256    259 170.9   7.5  34166  289.68 0855.21
2009/04/23 11:44:55.3     103   -188     98    215    236 151.1  26.2  34162  289.62 0855.21
2009/04/23 11:44:55.4      -3   -226     67    227    237 180.9  16.6  34164  289.64 0855.21
2009/04/23 11:44:55.5     -35   -321     48    323    327 186.3   8.5  34166  289.66 0855.21
2009/04/23 11:44:55.6     -70   -564    -31    569    570 187.1  -3.2  34160  289.58 0855.21
2009/04/23 11:44:55.7     -10   -373    -14    374    375 181.6  -2.2  34156  289.50 0855.21
2009/04/23 11:44:55.8     -32   -335    -23    337    338 185.6  -4.0  34162  289.60 0855.21
2009/04/23 11:44:55.9      93   -307     89    322    335 163.1  15.6  34152  289.45 0855.20
2009/04/23 11:44:56.0     104   -315    115    332    352 161.7  19.2  34146  289.32 0855.20
2009/04/23 11:44:56.1      89   -289     82    303    315 162.8  15.2  34144  289.29 0855.20
2009/04/23 11:44:56.2     160   -251     80    298    309 147.5  15.0  34146  289.32 0855.20
2009/04/23 11:44:56.4     156   -237     18    284    285 146.6   3.8  34146  289.32 0855.20
2009/04/23 11:44:56.4     133   -258    105    291    309 152.6  20.7  34154  289.46 0855.20
2009/04/23 11:44:56.5      52   -280     77    285    296 169.4  15.2  34154  289.47 0855.20
2009/04/23 11:44:56.6     -30   -283    178    285    336 186.2  35.0  34158  289.53 0855.20
2009/04/23 11:44:56.7      57   -259    218    266    343 167.6  43.7  34156  289.51 0855.20
2009/04/23 11:44:56.8     -32   -399    146    401    426 184.7  20.8  34150  289.41 0855.20
2009/04/23 11:44:56.9      58   -413     26    418    419 172.0   3.6  34152  289.44 0855.20
2009/04/23 11:44:57.0      33   -406    142    408    432 175.3  20.0  34156  289.49 0855.20
2009/04/23 11:44:57.1      36   -488    127    490    507 175.8  14.5  34150  289.40 0855.20
2009/04/23 11:44:57.2     -53   -499     51    502    505 186.1   5.9  34152  289.42 0855.20
2009/04/23 11:44:57.3    -122   -622    185    635    662 191.1  16.3  34152  289.42 0855.20
2009/04/23 11:44:57.4    -109   -512    264    524    586 192.1  28.8  34158  289.55 0855.20
2009/04/23 11:44:57.5     -93   -598    134    606    621 188.9  12.5  34152  289.42 0855.20
2009/04/23 11:44:57.6     -99   -578     38    587    589 189.8   3.8  34156  289.52 0855.20
2009/04/23 11:44:57.7     -17   -556    -95    557    566 181.8  -9.7  34150  289.41 0855.20
2009/04/23 11:44:57.8     -57   -527     88    531    539 186.3   9.4  34134  289.14 0855.20
2009/04/23 11:44:57.9    -100   -293     45    310    314 198.9   8.3  34152  289.42 0855.18
2009/04/23 11:44:58.0      -9   -375    214    376    432 181.4  32.3  34148  289.38 0855.18
2009/04/23 11:44:58.1      45   -415    194    418    460 173.7  27.0  34146  289.33 0855.18
2009/04/23 11:44:58.2      61   -428    185    433    470 171.9  24.6  34146  289.33 0855.18
2009/04/23 11:44:58.3      12   -415    238    416    479 178.2  32.4  34148  289.38 0855.18
2009/04/23 11:44:58.4       5   -410    171    411    445 179.3  24.1  34136  289.16 0855.18
2009/04/23 11:44:58.5      92   -340     46    353    356 164.9   7.5  34142  289.25 0855.18
2009/04/23 11:44:58.6     112   -258     16    282    283 156.6   3.3  34140  289.24 0855.18
2009/04/23 11:44:58.7     119   -297    -12    321    322 158.2  -2.2  34142  289.27 0855.18
2009/04/23 11:44:58.8      65   -298      4    306    307 167.6   0.8  34140  289.22 0855.18
2009/04/23 11:44:58.9      14   -302     85    303    315 177.3  15.7  34128  289.03 0855.18
2009/04/23 11:44:59.0       0   -264     93    265    282 180.0  19.4  34124  288.97 0855.18
2009/04/23 11:44:59.1     -30   -240    105    242    263 187.3  25.1  34124  288.95 0855.18
2009/04/23 11:44:59.2      -2   -261     90    262    278 180.5  18.9  34130  289.05 0855.18
2009/04/23 11:44:59.3     -46   -257     67    262    271 190.2  14.5  34130  289.05 0855.18
2009/04/23 11:44:59.4     -78   -242     35    255    258 197.8   7.8  34128  289.03 0855.18
2009/04/23 11:44:59.5     -76   -241     54    253    259 197.6  12.2  34132  289.09 0855.18
2009/04/23 11:44:59.6    -152   -215    -37    264    267 215.2  -8.0  34130  289.07 0855.18
2009/04/23 11:44:59.7    -203   -333    169    391    425 211.4  25.0  34140  289.24 0855.18
2009/04/23 11:44:59.8    -325   -321     55    457    461 225.4   6.9  34146  289.33 0855.18
2009/04/23 11:44:59.9    -369   -215    -84    428    437 239.7 -11.2  34152  289.43 0855.18
2009/04/23 11:45:00.0    -298   -164    -74    341    350 241.1 -12.3  34136  289.15 0855.18
2009/04/23 11:45:00.1    -276   -210     10    348    349 232.7   1.7  34146  289.33 0855.18
2009/04/23 11:45:00.2    -447    -56    -40    451    453 262.8  -5.2  34140  289.22 0855.18
2009/04/23 11:45:00.3    -567   -142     21    585    586 255.9   2.1  34140  289.24 0855.18
2009/04/23 11:45:00.4    -409   -260    -40    485    487 237.5  -4.8  34136  289.15 0855.18
2009/04/23 11:45:00.5    -470   -106     43    482    484 257.2   5.2  34142  289.27 0855.18
2009/04/23 11:45:00.6    -455   -172   -131    487    505 249.2 -15.1  34138  289.20 0855.18
2009/04/23 11:45:00.7    -432   -103    -99    445    457 256.5 -12.6  34138  289.19 0855.18
2009/04/23 11:45:00.8    -296   -163   -177    338    381 241.2 -34.2  34142  289.26 0855.18
2009/04/23 11:45:00.9    -292   -101   -180    310    358 250.9 -37.3  34144  289.30 0855.19
2009/04/23 11:45:01.0    -156   -176   -167    236    289 221.4 -43.0  34142  289.27 0855.19
2009/04/23 11:45:01.1    -149    -63    -93    163    187 246.9 -36.8  34148  289.38 0855.19
2009/04/23 11:45:01.2    -124   -158    -61    201    211 218.1 -17.0  34144  289.31 0855.19
2009/04/23 11:45:01.3    -145   -140    -69    202    214 226.0 -19.1  34146  289.35 0855.19
2009/04/23 11:45:01.4    -144   -172    -71    225    237 220.1 -17.6  34146  289.33 0855.19
2009/04/23 11:45:01.5    -354    -83    -66    364    371 256.8 -10.4  34148  289.37 0855.19
2009/04/23 11:45:01.6    -329   -162    -49    368    372 243.7  -7.6  34162  289.60 0855.19
2009/04/23 11:45:01.7    -420   -246    -51    488    491 239.6  -6.1  34132  289.10 0855.19
2009/04/23 11:45:01.8    -387   -224    -73    448    455 239.9  -9.3  34138  289.19 0855.19
2009/04/23 11:45:01.9    -372   -252   -106    450    463 235.9 -13.3  34138  289.21 0855.19
2009/04/23 11:45:02.0    -313   -203   -107    374    390 237.0 -16.0  34130  289.06 0855.19
2009/04/23 11:45:02.1    -443   -151   -244    469    528 251.2 -34.0  34142  289.25 0855.19
2009/04/23 11:45:02.2    -366    -99   -183    380    421 254.9 -31.7  34134  289.14 0855.19
2009/04/23 11:45:02.3    -417    -48   -146    420    444 263.3 -24.4  34138  289.19 0855.19
2009/04/23 11:45:02.4    -413    -36   -153    415    442 264.9 -25.5  34138  289.21 0855.19
2009/04/23 11:45:02.5    -300   -100   -117    317    337 251.6 -25.7  34132  289.11 0855.19
2009/04/23 11:45:02.6    -157    -82   -153    178    234 242.5 -49.5  34140  289.24 0855.19
2009/04/23 11:45:02.7    -175     14     -8    176    177 274.8  -2.6  34130  289.06 0855.19
2009/04/23 11:45:02.8     -75    -26     53     80     95 250.9  36.0  34142  289.26 0855.19
2009/04/23 11:45:02.9    -282     -6    -15    283    284 268.7  -3.1  34142  289.27 0855.19
2009/04/23 11:45:03.0    -329    -73    -74    338    347 257.5 -12.4  34146  289.33 0855.19
2009/04/23 11:45:03.1    -318   -120   -157    340    374 249.3 -30.9  34138  289.21 0855.19
2009/04/23 11:45:03.2    -168   -169   -274    239    363 224.9 -59.0  34140  289.22 0855.19
2009/04/23 11:45:03.3    -251   -395   -148    469    492 212.5 -17.5  34144  289.30 0855.19
2009/04/23 11:45:03.4     -17   -369   -125    370    390 182.7 -23.7  34146  289.32 0855.19
2009/04/23 11:45:03.5    -184   -299    -42    352    355 211.7  -6.9  34152  289.43 0855.19
2009/04/23 11:45:03.6     -86   -329   -108    341    358 194.7 -17.6  34164  289.65 0855.19
2009/04/23 11:45:03.7     -92   -369    -21    381    382 194.1  -3.2  34156  289.50 0855.19
2009/04/23 11:45:03.8    -197   -326     52    382    386 211.2   7.8  34158  289.55 0855.19
2009/04/23 11:45:03.9    -307   -232    -49    386    390 232.9  -7.4  34162  289.60 0855.19
2009/04/23 11:45:04.0    -447   -392    -13    595    596 228.7  -1.3  34144  289.30 0855.19
2009/04/23 11:45:04.1    -696   -294   -137    756    769 247.1 -10.3  34134  289.12 0855.19
2009/04/23 11:45:04.2    -723   -486    -83    872    877 236.1  -5.5  34142  289.25 0855.19
2009/04/23 11:45:04.3    -556   -624   -132    836    847 221.7  -9.0  34142  289.26 0855.19
2009/04/23 11:45:04.4    -251   -522    -83    580    587 205.7  -8.2  34140  289.22 0855.19
2009/04/23 11:45:04.5    -327   -377   -108    500    512 220.9 -12.3  34136  289.15 0855.19
2009/04/23 11:45:04.6    -220   -320   -151    389    417 214.5 -26.8  34136  289.16 0855.19
2009/04/23 11:45:04.7    -285   -287   -227    405    464 224.8 -36.0  34128  289.04 0855.19
2009/04/23 11:45:04.8    -259   -305   -175    401    437 220.4 -29.5  34126  288.99 0855.19
2009/04/23 11:45:04.9    -302   -253   -172    395    430 230.0 -29.5  34132  289.11 0855.21
2009/04/23 11:45:05.0    -251   -184   -139    312    341 233.8 -30.1  34130  289.08 0855.21
2009/04/23 11:45:05.1    -204   -150   -128    254    284 233.8 -33.1  34136  289.17 0855.21
2009/04/23 11:45:05.2    -217    -22    -78    219    232 264.1 -24.6  34136  289.18 0855.21
2009/04/23 11:45:05.3    -252    -30   -106    254    275 263.0 -28.5  34130  289.05 0855.21
2009/04/23 11:45:05.4    -189     -2    -79    190    205 269.1 -28.2  34130  289.06 0855.21
2009/04/23 11:45:05.5    -194     -3    -56    195    202 269.1 -21.0  34134  289.14 0855.21
2009/04/23 11:45:05.6    -186     21    -34    188    192 276.6 -10.5  34136  289.16 0855.21
2009/04/23 11:45:05.7    -199     40    -58    203    211 281.5 -20.7  34130  289.08 0855.21
2009/04/23 11:45:05.8    -205     68    -44    217    222 288.4 -11.5  34132  289.09 0855.21
2009/04/23 11:45:05.9    -133     80    -28    156    159 301.1 -10.5  34134  289.14 0855.21
2009/04/23 11:45:06.0    -122     66    -29    139    143 298.4 -11.9  34138  289.19 0855.21
2009/04/23 11:45:06.1    -175     26    -77    177    193 278.6 -29.3  34144  289.30 0855.21
2009/04/23 11:45:06.2    -145     81    -75    167    183 299.1 -30.1  34142  289.28 0855.21
2009/04/23 11:45:06.3     -56      0    -25     57     62 270.0 -29.5  34150  289.40 0855.21
2009/04/23 11:45:06.4      -2    -66    -29     67     73 181.8 -29.5  34148  289.38 0855.21
2009/04/23 11:45:06.5      68    -46    -24     83     86 124.2 -21.2  34150  289.41 0855.21
2009/04/23 11:45:06.6     143   -173     -8    225    226 140.3  -2.2  34140  289.24 0855.21
2009/04/23 11:45:06.7     -44   -315    -30    319    321 188.0  -5.5  34140  289.22 0855.21
2009/04/23 11:45:06.8      21   -215    144    217    260 174.2  36.5  34138  289.20 0855.21
2009/04/23 11:45:06.9     -57   -281    181    287    339 191.5  35.5  34140  289.24 0855.22
2009/04/23 11:45:07.0     128   -198     95    237    255 147.0  23.1  34142  289.25 0855.22
2009/04/23 11:45:07.1     117   -286     20    310    311 157.7   3.8  34138  289.19 0855.22
2009/04/23 11:45:07.2     110   -312     -9    332    333 160.5  -1.6  34146  289.32 0855.22
2009/04/23 11:45:07.3      59   -235     30    243    245 165.7   7.2  34140  289.24 0855.22
2009/04/23 11:45:07.4     -64   -271     95    279    295 193.3  18.9  34142  289.27 0855.22
2009/04/23 11:45:07.5     -85   -217    151    234    278 201.4  35.7  34140  289.22 0855.22
2009/04/23 11:45:07.6      46   -145     44    153    160 162.2  16.3  34146  289.33 0855.22
2009/04/23 11:45:07.7     127   -250     51    281    286 153.0  10.3  34148  289.37 0855.22
2009/04/23 11:45:07.8      45   -223    -59    228    236 168.5 -14.5  34146  289.34 0855.22
2009/04/23 11:45:07.9      39   -144    -46    150    156 164.8 -22.1  34146  289.35 0855.22
2009/04/23 11:45:08.0      92   -104      9    140    141 138.6   3.8  34146  289.35 0855.22
2009/04/23 11:45:08.1     114   -136     20    178    180 140.1   6.7  34146  289.33 0855.22
2009/04/23 11:45:08.2      96   -284     15    300    301 161.3   2.9  34146  289.34 0855.22
2009/04/23 11:45:08.3      86   -290     -6    303    304 163.5  -1.2  34150  289.41 0855.22
2009/04/23 11:45:08.4      18   -297    -60    298    305 176.4 -11.5  34152  289.44 0855.22
2009/04/23 11:45:08.5       2   -258    -25    259    261 179.5  -5.6  34152  289.42 0855.22
2009/04/23 11:45:08.6     -44   -147    -15    154    155 196.9  -5.6  34156  289.50 0855.22
2009/04/23 11:45:08.7       4    -78     62     79    100 176.4  42.2  34156  289.50 0855.22
2009/04/23 11:45:08.8      17    -66     53     69     87 165.7  41.7  34158  289.55 0855.22
2009/04/23 11:45:08.9      61    -12     -2     63     64 101.5  -2.2  34158  289.53 0855.21
2009/04/23 11:45:09.0     240    -71    -23    251    253 106.6  -5.4  34154  289.46 0855.21
2009/04/23 11:45:09.2     270   -198    -97    335    349 126.3 -16.2  34158  289.54 0855.21
2009/04/23 11:45:09.3     267   -271    -84    381    391 135.5 -12.5  34154  289.48 0855.21
2009/04/23 11:45:09.4     316   -298   -129    435    454 133.3 -16.5  34150  289.39 0855.21
2009/04/23 11:45:09.5     282   -232   -116    366    384 129.5 -17.6  34152  289.43 0855.21
2009/04/23 11:45:09.6     324   -148    -21    357    358 114.6  -3.5  34162  289.60 0855.21
2009/04/23 11:45:09.7     229   -128      8    263    264 119.1   1.8  34164  289.63 0855.21
2009/04/23 11:45:09.8     159   -139    -27    212    214 131.1  -7.3  34160  289.58 0855.21
2009/04/23 11:45:09.9      94   -209     11    230    231 155.7   2.9  34154  289.46 0855.21
2009/04/23 11:45:10.0     308   -230     88    385    395 126.8  12.9  34158  289.54 0855.21
2009/04/23 11:45:10.1     364   -240     78    437    445 123.4  10.2  34164  289.65 0855.21
2009/04/23 11:45:10.2     216   -159     82    269    282 126.4  17.1  34164  289.63 0855.21
2009/04/23 11:45:10.3     177   -194    164    263    309 137.6  35.5  34164  289.64 0855.21
2009/04/23 11:45:10.4      95   -289    175    305    351 161.7  32.6  34164  289.65 0855.21
2009/04/23 11:45:10.5      84   -276    133    289    318 163.0  26.4  34162  289.61 0855.21
2009/04/23 11:45:10.6      23   -276    151    278    316 175.1  30.8  34162  289.61 0855.21
2009/04/23 11:45:10.7      39   -231    113    235    260 170.2  27.3  34166  289.68 0855.21
2009/04/23 11:45:10.8      41   -302     40    305    308 172.2   7.5  34162  289.59 0855.21
2009/04/23 11:45:10.9      60   -394     12    399    400 171.3   1.8  34158  289.55 0855.21
2009/04/23 11:45:11.0     155   -387    -22    418    419 158.2  -3.1  34148  289.38 0855.21
2009/04/23 11:45:11.1     160   -333    -14    370    371 154.3  -2.2  34148  289.38 0855.21
2009/04/23 11:45:11.2     302   -325     83    444    452 137.1  10.6  34144  289.29 0855.21
2009/04/23 11:45:11.3     134   -309     27    337    339 156.5   4.7  34152  289.43 0855.21
2009/04/23 11:45:11.4     -19   -245    124    246    275 184.5  29.1  34152  289.44 0855.21
2009/04/23 11:45:11.5     -83   -250    172    264    315 198.5  36.3  34156  289.49 0855.21
2009/04/23 11:45:11.6      18   -219    187    220    288 175.1  44.8  34158  289.53 0855.21
2009/04/23 11:45:11.7      40    -63    145     75    163 147.4  70.4  34152  289.45 0855.21
2009/04/23 11:45:11.8      19     23     98     30    102  39.6  82.3  34158  289.53 0855.21
2009/04/23 11:45:11.9     -52    -33     84     62    104 237.5  60.5  34164  289.63 0855.21
2009/04/23 11:45:12.0      31   -172    170    175    243 169.5  49.4  34154  289.46 0855.21
2009/04/23 11:45:12.1     -46   -243    114    248    272 190.7  26.6  34152  289.42 0855.21
2009/04/23 11:45:12.2     -19   -243     73    244    255 184.7  16.8  34154  289.47 0855.21
2009/04/23 11:45:12.3     -47   -193     38    199    203 193.8  11.0  34152  289.43 0855.21
2009/04/23 11:45:12.4    -132   -207      9    246    247 212.6   2.1  34150  289.41 0855.21
2009/04/23 11:45:12.5    -113   -275    123    298    322 202.3  23.6  34166  289.66 0855.21
2009/04/23 11:45:12.6    -103   -216    208    240    317 205.5  45.4  34160  289.58 0855.21
2009/04/23 11:45:12.7     -62   -233    198    242    312 195.1  43.5  34168  289.70 0855.21
2009/04/23 11:45:12.8    -145   -294    156    328    363 206.3  27.3  34174  289.82 0855.21
2009/04/23 11:45:12.9    -115   -208     98    239    258 209.0  23.4  34178  289.86 0855.21
2009/04/23 11:45:13.0     -65   -181    116    193    225 199.8  34.0  34166  289.67 0855.22
2009/04/23 11:45:13.1     -33   -194    110    197    225 189.8  31.4  34164  289.65 0855.22
2009/04/23 11:45:13.2     -62   -198    190    208    281 197.6  47.5  34168  289.70 0855.22
2009/04/23 11:45:13.3     -72   -218    213    230    313 198.3  47.7  34168  289.71 0855.22
2009/04/23 11:45:13.4    -109   -299    200    319    376 200.1  35.2  34172  289.79 0855.22
2009/04/23 11:45:13.5     -95   -282    124    298    322 198.7  23.9  34172  289.78 0855.22
2009/04/23 11:45:13.6    -104   -243     71    265    275 203.2  15.0  34170  289.75 0855.22
2009/04/23 11:45:13.7     -27   -226     -5    228    229 186.9  -1.3  34168  289.72 0855.22
2009/04/23 11:45:13.8     -46   -247     31    252    254 190.6   7.1  34172  289.78 0855.22
2009/04/23 11:45:13.9     -78   -195    -38    211    215 201.8 -10.3  34176  289.85 0855.22
2009/04/23 11:45:14.0       7   -244     61    245    253 178.2  14.2  34172  289.78 0855.22
2009/04/23 11:45:14.1       3   -203    101    204    227 178.9  28.0  34174  289.80 0855.22
2009/04/23 11:45:14.2     -50   -210     46    216    221 193.4  12.2  34180  289.91 0855.22
2009/04/23 11:45:14.3       9   -169     38    170    175 176.9  12.6  34182  289.96 0855.22
2009/04/23 11:45:14.4     -26   -141     92    144    170 190.7  35.6  34184  289.97 0855.22
2009/04/23 11:45:14.5     -73   -114     56    136    147 212.5  23.1  34180  289.91 0855.22
2009/04/23 11:45:14.6      11    -47    131     49    139 166.6  79.1  34184  289.99 0855.22
2009/04/23 11:45:14.7     -28    -86    114     91    145 198.5  57.5  34184  289.99 0855.22
2009/04/23 11:45:14.8      29   -193     59    196    205 171.3  16.8  34180  289.91 0855.22
2009/04/23 11:45:14.9      68   -269     54    278    284 165.7  11.1  34170  289.75 0855.22
2009/04/23 11:45:15.0      19   -146     -3    148    149 172.4  -1.3  34174  289.80 0855.23
2009/04/23 11:45:15.1      69   -159     12    174    175 156.6   4.2  34174  289.82 0855.23
2009/04/23 11:45:15.2     101   -204     94    228    246 153.5  23.8  34170  289.73 0855.23
2009/04/23 11:45:15.3      90   -247     97    263    280 160.0  21.0  34164  289.63 0855.23
2009/04/23 11:45:15.4      70   -270    164    280    324 165.3  33.1  34166  289.66 0855.23
2009/04/23 11:45:15.5      75   -287    160    297    337 165.3  30.7  34166  289.66 0855.23
2009/04/23 11:45:15.6      88   -306    182    319    367 164.0  32.3  34164  289.65 0855.23
2009/04/23 11:45:15.7      76   -337    205    346    402 167.2  33.4  34168  289.71 0855.23
2009/04/23 11:45:15.8      82   -329    202    340    395 165.9  33.5  34166  289.69 0855.23
2009/04/23 11:45:15.9      28   -295    188    297    351 174.6  35.5  34168  289.71 0855.23
2009/04/23 11:45:16.0      82   -139    174    162    237 149.3  52.2  34168  289.70 0855.23
2009/04/23 11:45:16.1      48   -205    174    211    273 166.7  43.7  34164  289.64 0855.23
2009/04/23 11:45:16.2      48   -180    174    187    255 164.9  47.9  34170  289.75 0855.23
2009/04/23 11:45:16.3     108   -184    185    214    282 149.5  45.6  34168  289.70 0855.23
2009/04/23 11:45:16.4     164   -234    176    286    335 144.9  34.6  34166  289.66 0855.23
2009/04/23 11:45:16.5     138   -289    158    321    357 154.4  28.1  34168  289.71 0855.23
2009/04/23 11:45:16.6     109   -322      8    341    342 161.3   1.5  34168  289.71 0855.23
2009/04/23 11:45:16.7     205   -347     82    404    413 149.4  11.5  34174  289.80 0855.23
2009/04/23 11:45:16.8     178   -272    196    326    380 146.8  34.0  34166  289.67 0855.23
2009/04/23 11:45:16.9      99   -316    181    332    378 162.5  31.0  34166  289.67 0855.23
2009/04/23 11:45:17.0     110   -286    177    307    354 159.0  32.7  34166  289.69 0855.24
2009/04/23 11:45:17.1     -17   -289    146    290    324 183.5  28.6  34174  289.81 0855.24
2009/04/23 11:45:17.2     -16   -281    139    282    314 183.4  28.1  34174  289.81 0855.24
2009/04/23 11:45:17.3      19   -253    112    254    277 175.5  25.2  34178  289.88 0855.24
2009/04/23 11:45:17.4       3   -237     99    238    257 179.1  23.8  34176  289.83 0855.24
2009/04/23 11:45:17.5      17   -278    111    279    300 176.5  23.0  34172  289.78 0855.24
2009/04/23 11:45:17.6     -15   -297    151    298    334 182.9  28.9  34172  289.76 0855.24
2009/04/23 11:45:17.7     -14   -315    150    316    349 182.6  27.2  34174  289.81 0855.24
2009/04/23 11:45:17.8     -49   -269     87    274    288 190.5  17.7  34172  289.76 0855.24
2009/04/23 11:45:17.9      92   -342     50    355    359 164.9   8.1  34162  289.62 0855.24
2009/04/23 11:45:18.0     -12   -361     52    362    366 182.0   8.3  34156  289.52 0855.24
2009/04/23 11:45:18.1      -7   -433     45    434    437 181.0   6.0  34152  289.44 0855.24
2009/04/23 11:45:18.2      -9   -410     57    411    416 181.4   8.0  34144  289.29 0855.24
2009/04/23 11:45:18.3       9   -495     51    496    499 178.9   5.9  34140  289.22 0855.24
2009/04/23 11:45:18.4      36   -496     35    498    500 175.8   4.0  34142  289.25 0855.24
2009/04/23 11:45:18.5      79   -505     31    512    513 171.1   3.5  34142  289.25 0855.24
2009/04/23 11:45:18.6     130   -499    100    516    526 165.3  11.0  34144  289.31 0855.24
2009/04/23 11:45:18.7      66   -524     63    529    533 172.8   6.9  34148  289.36 0855.24
2009/04/23 11:45:18.8     114   -364    149    382    410 162.6  22.4  34146  289.32 0855.24
2009/04/23 11:45:18.9     127   -386    167    407    439 161.7  23.7  34146  289.34 0855.24
2009/04/23 11:45:19.0     109   -399    159    414    443 164.7  22.0  34138  289.19 0855.26
2009/04/23 11:45:19.1      84   -283    108    296    315 163.5  21.0  34144  289.31 0855.26
2009/04/23 11:45:19.2      -9   -333    108    334    352 181.6  17.9  34154  289.48 0855.26
2009/04/23 11:45:19.3       6   -324     88    325    337 178.9  15.3  34152  289.45 0855.26
2009/04/23 11:45:19.4     -24   -313     44    315    319 184.5   8.0  34150  289.41 0855.26
2009/04/23 11:45:19.5     -63   -314    -21    321    322 191.3  -3.8  34152  289.42 0855.26
2009/04/23 11:45:19.6    -169   -342     16    382    383 206.4   2.5  34154  289.47 0855.26
2009/04/23 11:45:19.7    -154   -324    -50    359    363 205.5  -8.0  34166  289.69 0855.26
2009/04/23 11:45:19.8    -120   -332    -97    354    368 199.9 -15.4  34168  289.71 0855.26
2009/04/23 11:45:19.9    -112   -235   -140    261    296 205.5 -35.0  34166  289.66 0855.26
2009/04/23 11:45:20.0    -167   -155    -98    228    248 227.1 -29.3  34168  289.70 0855.26
2009/04/23 11:45:20.1    -115   -233    -74    260    271 206.3 -16.0  34164  289.64 0855.26
2009/04/23 11:45:20.2    -122   -256    -34    284    287 205.5  -6.9  34164  289.63 0855.26
2009/04/23 11:45:20.3    -166   -186     -5    250    251 221.7  -1.3  34168  289.70 0855.26
2009/04/23 11:45:20.4    -136   -128    -54    188    196 226.7 -16.0  34164  289.63 0855.26
2009/04/23 11:45:20.5    -175   -131      3    219    220 233.1   0.8  34174  289.80 0855.26
2009/04/23 11:45:20.6    -148   -232     15    276    277 212.5   3.3  34168  289.70 0855.26
2009/04/23 11:45:20.7    -184   -175    -32    255    258 226.4  -7.3  34164  289.64 0855.26
2009/04/23 11:45:20.8    -212   -186    -85    283    295 228.7 -21.7  34156  289.49 0855.26
2009/04/23 11:45:20.9    -203    -81   -105    219    242 248.2 -31.8  34168  289.70 0855.26
2009/04/23 11:45:21.0    -147   -147    -60    209    217 225.0 -20.4  34164  289.65 0855.28
2009/04/23 11:45:21.1    -136   -231   -154    269    309 210.5 -36.8  34142  289.27 0855.28
2009/04/23 11:45:21.2    -152   -216   -128    265    294 215.1 -31.7  34146  289.34 0855.28
2009/04/23 11:45:21.3    -125   -192   -106    230    253 213.2 -31.0  34144  289.29 0855.28
2009/04/23 11:45:21.4     -98   -182    -73    207    219 208.3 -24.6  34146  289.33 0855.28
2009/04/23 11:45:21.5     -74   -162    -64    179    190 204.7 -24.4  34144  289.30 0855.28
2009/04/23 11:45:21.6     -56   -105    -80    120    144 208.1 -40.9  34144  289.30 0855.28
2009/04/23 11:45:21.7     -97   -126    -31    160    164 217.8 -11.1  34156  289.52 0855.28
2009/04/23 11:45:21.8     -94   -119    -40    152    158 218.3 -15.0  34160  289.57 0855.28
2009/04/23 11:45:21.9     -87    -93    -30    128    132 223.2 -13.4  34158  289.55 0855.28
2009/04/23 11:45:22.0    -118    -39    -15    125    126 251.8  -7.2  34162  289.60 0855.32
2009/04/23 11:45:22.1    -116    -56    -26    129    132 244.2 -11.5  34168  289.70 0855.32
2009/04/23 11:45:22.2     -93    -18    -37     95    101 258.5 -26.9  34170  289.74 0855.32
2009/04/23 11:45:22.3     -93     -4    -44     94    103 267.0 -31.5  34168  289.72 0855.32
2009/04/23 11:45:22.4     -74      5    -57     75     94 274.4 -45.6  34156  289.50 0855.32
2009/04/23 11:45:22.5     -67      4    -58     68     89 273.5 -49.2  34154  289.46 0855.32
2009/04/23 11:45:22.6     -44     11    -22     46     51 285.1 -31.6  34158  289.53 0855.32
2009/04/23 11:45:22.7     -39     25    -12     47     49 303.3 -14.5  34160  289.58 0855.32
2009/04/23 11:45:22.8     -16     13    -11     22     24 309.5 -31.6  34162  289.60 0855.32
2009/04/23 11:45:22.9      16     25     -5     30     31  32.5  -9.3  34158  289.55 0855.32
2009/04/23 11:45:23.0      43     35    -20     56     60  50.4 -19.7  34154  289.46 0855.32
2009/04/23 11:45:23.1      78     83    -81    114    139  43.2 -43.9  34146  289.35 0855.32
2009/04/23 11:45:23.2      42    157    -75    163    179  15.1 -31.0  34142  289.26 0855.32
2009/04/23 11:45:23.3      -7    119   -115    120    166 356.4 -53.4  34138  289.21 0855.32
2009/04/23 11:45:23.4      50    110    -40    121    127  24.5 -23.8  34142  289.26 0855.32
2009/04/23 11:45:23.5      48     50      4     70     71  44.2   3.8  34142  289.26 0855.32
2009/04/23 11:45:23.6       0      3      1      4      5 348.4  19.2  34144  289.31 0855.32
2009/04/23 11:45:23.7      68    -56     16     89     91 129.5  10.6  34152  289.43 0855.32
2009/04/23 11:45:23.8      86    -28      5     91     92 108.2   3.3  34168  289.72 0855.32
2009/04/23 11:45:23.9      79      6      0     80     81  85.6  -0.3  34166  289.67 0855.32
2009/04/23 11:45:24.0      92     14    -15     94     96  81.2  -9.3  34152  289.43 0855.33
2009/04/23 11:45:24.1      96      5    -41     97    105  87.0 -28.5  34162  289.60 0855.33
2009/04/23 11:45:24.2     179    -24      7    181    182  97.9   2.5  34218  290.57 0855.33
2009/04/23 11:45:24.3     197    -15      0    198    199  94.4   0.2  34230  290.77 0855.33
2009/04/23 11:45:24.4     161     20      1    163    164  82.8   0.5  34166  289.67 0855.33
2009/04/23 11:45:24.5     146     57     24    157    159  68.7   8.8  34170  289.74 0855.33
2009/04/23 11:45:24.6     163     46     45    170    176  74.1  15.0  34164  289.63 0855.33
2009/04/23 11:45:24.7     139     49     51    148    157  70.5  19.2  34164  289.65 0855.33
2009/04/23 11:45:24.8     168     33     55    172    181  78.8  17.9  34168  289.72 0855.33
2009/04/23 11:45:24.9     175    -39     77    180    195 102.6  24.6  34186  290.02 0855.33
2009/04/23 11:45:25.0     176    -46     24    182    184 104.8   7.8  34230  290.77 0855.33
2009/04/23 11:45:25.1     212     -1     42    213    218  90.4  11.1  34228  290.72 0855.33
2009/04/23 11:45:25.2     216     -7     67    217    228  91.9  17.3  34220  290.60 0855.33
2009/04/23 11:45:25.3     166    -31     72    170    184 100.8  24.3  34216  290.53 0855.33
2009/04/23 11:45:25.4     138    -16     31    140    144  97.0  12.6  34220  290.58 0855.33
2009/04/23 11:45:25.5     139    -23     73    142    159  99.7  29.3  34200  290.25 0855.33
2009/04/23 11:45:25.6     148    -50     60    157    168 108.6  21.7  34192  290.13 0855.33
2009/04/23 11:45:25.7     137    -49     75    146    164 110.0  29.3  34194  290.14 0855.33
2009/04/23 11:45:25.8     112   -155     45    192    198 144.0  13.2  34170  289.74 0855.33
2009/04/23 11:45:25.9      73   -136    -49    155    163 151.7 -17.6  34166  289.69 0855.33
2009/04/23 11:45:26.0      50   -107     23    119    122 154.7  11.1  34164  289.65 0855.30
2009/04/23 11:45:26.1      51   -131     53    141    150 158.6  21.5  34158  289.55 0855.30
2009/04/23 11:45:26.2      -3   -202     79    203    217 181.1  22.5  34152  289.45 0855.30
2009/04/23 11:45:26.3     -20   -258     88    259    274 184.5  18.9  34150  289.41 0855.30
2009/04/23 11:45:26.4      21   -302     65    303    311 176.0  12.2  34150  289.39 0855.30
2009/04/23 11:45:26.5      19   -307     15    308    309 176.4   2.9  34150  289.41 0855.30
2009/04/23 11:45:26.6     -10   -364     27    365    366 181.6   4.4  34152  289.42 0855.30
2009/04/23 11:45:26.7     -69   -361     56    368    373 190.9   8.7  34152  289.42 0855.30
2009/04/23 11:45:26.8     -94   -335     45    348    351 195.7   7.4  34150  289.40 0855.30
2009/04/23 11:45:26.9     -76   -368     -8    376    377 191.7  -1.3  34152  289.42 0855.30
2009/04/23 11:45:27.0     -85   -382    -15    392    393 192.6  -2.2  34154  289.48 0855.30
2009/04/23 11:45:27.1     -28   -428    -38    429    431 183.8  -5.1  34154  289.46 0855.30
2009/04/23 11:45:27.2      48   -441    -81    444    452 173.8 -10.4  34152  289.43 0855.30
2009/04/23 11:45:27.3      -6   -399    -22    400    401 181.0  -3.2  34146  289.32 0855.30
2009/04/23 11:45:27.4      34   -423     18    425    426 175.3   2.5  34140  289.22 0855.30
2009/04/23 11:45:27.5      71   -367     88    374    385 169.0  13.2  34150  289.40 0855.30
2009/04/23 11:45:27.6      41   -339     89    342    354 173.0  14.7  34150  289.40 0855.30
2009/04/23 11:45:27.7      22   -282     52    283    288 175.5  10.6  34148  289.37 0855.30
2009/04/23 11:45:27.8      -7   -291     64    292    300 181.4  12.4  34150  289.41 0855.30
2009/04/23 11:45:27.9     -31   -334    115    336    356 185.4  18.9  34148  289.37 0855.30
2009/04/23 11:45:28.0      21   -335    167    336    375 176.4  28.4  34152  289.43 0855.29
2009/04/23 11:45:28.1     -75   -281    152    291    328 195.1  29.6  34150  289.41 0855.29
2009/04/23 11:45:28.2     -57   -285    196    291    350 191.5  37.0  34154  289.47 0855.29
2009/04/23 11:45:28.3     -78   -309    215    319    384 194.2  37.3  34150  289.40 0855.29
2009/04/23 11:45:28.4    -142   -261    185    298    350 208.5  35.1  34152  289.43 0855.29
2009/04/23 11:45:28.5    -175   -260    107    314    332 214.1  18.9  34154  289.47 0855.29
2009/04/23 11:45:28.6    -239   -247     32    344    346 224.0   5.4  34148  289.38 0855.29
2009/04/23 11:45:28.7    -195   -208     27    286    288 223.2   5.4  34144  289.31 0855.29
2009/04/23 11:45:28.8    -111   -243     67    268    277 204.5  14.2  34152  289.44 0855.29
2009/04/23 11:45:28.9     -50   -290    -21    295    296 189.8  -4.1  34152  289.42 0855.29
2009/04/23 11:45:29.0     -91   -382    -38    393    395 193.4  -5.6  34152  289.45 0855.29
2009/04/23 11:45:29.1    -172   -407      0    443    444 203.0   0.1  34150  289.41 0855.29
2009/04/23 11:45:29.2    -175   -368    -15    408    409 205.5  -2.2  34146  289.33 0855.29
2009/04/23 11:45:29.3    -277   -334    -57    435    439 219.6  -7.6  34134  289.12 0855.29
2009/04/23 11:45:29.4    -208   -387   -140    440    461 208.3 -22.8  34136  289.17 0855.29
2009/04/23 11:45:29.5    -176   -329    -58    374    379 208.1  -8.8  34136  289.16 0855.29
2009/04/23 11:45:29.6     -92   -372     -2    384    385 193.9  -0.4  34142  289.26 0855.29
2009/04/23 11:45:29.7     -22   -228    -84    230    244 185.6 -25.3  34144  289.31 0855.29
2009/04/23 11:45:29.8      19   -279   -166    280    325 176.0 -38.0  34126  288.98 0855.29
2009/04/23 11:45:29.9      93   -380    -50    392    396 166.2  -7.3  34146  289.35 0855.29
2009/04/23 11:45:30.0      50   -308     -1    313    314 170.7  -0.3  34152  289.42 0855.29
2009/04/23 11:45:30.1     -25   -300    -16    302    303 184.9  -3.2  34142  289.25 0855.29
2009/04/23 11:45:30.2     -49   -353    -95    357    370 187.9 -15.0  34150  289.40 0855.29
2009/04/23 11:45:30.3     -10   -362    -51    363    367 181.6  -8.1  34138  289.21 0855.29
2009/04/23 11:45:30.4     -49   -406   -111    410    425 187.0 -15.2  34142  289.27 0855.29
2009/04/23 11:45:30.5    -134   -398   -100    421    433 198.6 -13.4  34164  289.63 0855.29
2009/04/23 11:45:30.6       3   -349   -124    350    372 179.5 -19.6  34132  289.11 0855.29
2009/04/23 11:45:30.7      63   -314    -99    321    337 168.6 -17.2  34152  289.45 0855.29
2009/04/23 11:45:30.8    -140   -302    -61    334    340 204.9 -10.4  34156  289.50 0855.29
2009/04/23 11:45:30.9    -220   -323    -71    391    398 214.3 -10.4  34142  289.25 0855.29
2009/04/23 11:45:31.0    -250   -390   -129    464    481 212.7 -20.2  34128  289.03 0855.29
2009/04/23 11:45:31.1    -266   -392   -181    475    508 214.2 -26.4  34130  289.05 0855.29
2009/04/23 11:45:31.2    -290   -350   -148    455    479 219.7 -18.0  34126  288.98 0855.29
2009/04/23 11:45:31.3    -165   -413   -131    446    464 201.8 -21.2  34138  289.19 0855.29
2009/04/23 11:45:31.4    -170   -424    -40    457    459 201.9  -5.1  34156  289.51 0855.29
2009/04/23 11:45:31.5    -148   -460     27    484    485 197.8   3.3  34156  289.49 0855.29
2009/04/23 11:45:31.6    -250   -451     38    516    518 209.0   4.2  34162  289.59 0855.29
2009/04/23 11:45:31.7    -254   -370     87    449    458 214.5  11.0  34136  289.16 0855.29
2009/04/23 11:45:31.8    -157   -333   -116    369    387 205.3 -17.5  34142  289.26 0855.29
2009/04/23 11:45:31.9    -283   -300   -124    413    431 223.3 -21.7  34132  289.11 0855.29
2009/04/23 11:45:32.0    -277   -224   -215    357    416 231.0 -38.4  34134  289.13 0855.29
2009/04/23 11:45:32.1    -269   -253   -242    370    442 226.8 -40.7  34122  288.94 0855.29
2009/04/23 11:45:32.2    -213   -176   -250    277    373 230.5 -51.2  34126  289.01 0855.29
2009/04/23 11:45:32.3       8   -259   -302    260    398 178.2 -59.3  34140  289.23 0855.29
2009/04/23 11:45:32.4     -67   -154   -197    169    259 203.6 -59.7  34132  289.09 0855.29
2009/04/23 11:45:32.5     -69   -161    -77    176    192 203.4 -29.5  34136  289.18 0855.29
2009/04/23 11:45:32.6     -88   -219    125    237    267 201.9  30.2  34138  289.19 0855.29
2009/04/23 11:45:32.8      12   -261    143    262    298 177.3  31.3  34138  289.19 0855.29
2009/04/23 11:45:32.8     -32   -323    108    325    343 185.7  18.5  34136  289.15 0855.29
2009/04/23 11:45:32.9      40   -327     76    330    339 172.9  13.1  34136  289.15 0855.29
2009/04/23 11:45:33.0      29   -351    -85    353    364 175.2 -13.6  34136  289.15 0855.29
2009/04/23 11:45:33.1     -40   -261    -33    265    268 188.9  -7.2  34132  289.10 0855.29
2009/04/23 11:45:33.2      -6   -316    -22    317    318 181.1  -4.1  34138  289.19 0855.29
2009/04/23 11:45:33.3     -87   -295     42    308    311 196.5   7.9  34138  289.20 0855.29
2009/04/23 11:45:33.4    -119   -353    117    373    391 198.7  17.4  34132  289.11 0855.29
2009/04/23 11:45:33.5    -238   -386     13    454    455 211.6   1.7  34134  289.12 0855.29
2009/04/23 11:45:33.6    -304   -256     -1    398    399 229.8  -0.3  34132  289.11 0855.29
2009/04/23 11:45:33.7    -224   -240     51    329    333 223.1   8.8  34136  289.16 0855.29
2009/04/23 11:45:33.8    -126   -288     45    315    319 203.6   8.2  34136  289.17 0855.29
2009/04/23 11:45:33.9    -192   -322    -17    375    376 210.8  -2.6  34132  289.10 0855.29
2009/04/23 11:45:34.0    -140   -252    -80    289    299 209.2 -20.0  34136  289.15 0855.28
2009/04/23 11:45:34.1       6   -177    -36    178    182 178.0 -11.6  34136  289.18 0855.28
2009/04/23 11:45:34.2      56   -130     33    142    146 156.4  13.2  34138  289.19 0855.28
2009/04/23 11:45:34.3      -3   -164     77    165    182 181.1  27.0  34136  289.18 0855.28
2009/04/23 11:45:34.4     -49   -141     12    150    151 199.2   4.9  34134  289.14 0855.28
2009/04/23 11:45:34.5     -62   -163      0    175    176 200.9  -0.3  34134  289.14 0855.28
2009/04/23 11:45:34.6     -54   -157    -16    167    168 199.2  -5.6  34132  289.09 0855.28
2009/04/23 11:45:34.7     -24    -61    -24     66     70 201.8 -24.4  34136  289.16 0855.28
2009/04/23 11:45:34.8      17    -44     -1     48     49 158.2  -2.2  34140  289.23 0855.28
2009/04/23 11:45:34.9      76    -15     55     78     95 101.5  38.0  34144  289.30 0855.28
2009/04/23 11:45:35.0     -41     14    116     44    124 288.6  79.1  34144  289.30 0855.28
2009/04/23 11:45:35.1    -271     25    142    273    307 275.5  29.3  34140  289.24 0855.28
2009/04/23 11:45:35.2    -379    -81     29    388    390 257.9   4.3  34138  289.20 0855.28
2009/04/23 11:45:35.3    -367      0      7    368    369 270.0   1.1  34138  289.20 0855.28
2009/04/23 11:45:35.4    -408    -91    -50    419    423 257.4  -6.9  34138  289.19 0855.28
2009/04/23 11:45:35.6    -360    -73   -151    368    397 258.5 -28.0  34128  289.04 0855.28
2009/04/23 11:45:35.7    -360    -40   -173    363    402 263.6 -31.7  34132  289.11 0855.28
2009/04/23 11:45:35.7    -338     59   -154    344    376 280.0 -30.1  34132  289.11 0855.28
2009/04/23 11:45:35.8    -355     80   -200    365    416 282.8 -35.7  34138  289.21 0855.28
2009/04/23 11:45:36.0    -300     -4   -197    301    359 269.1 -40.7  34138  289.20 0855.28
2009/04/23 11:45:36.1    -411     51   -115    415    431 277.1 -15.5  34134  289.14 0855.29
2009/04/23 11:45:36.2    -316    -10    -76    317    327 268.1 -13.6  34138  289.20 0855.29
2009/04/23 11:45:36.3    -273   -134     -3    305    306 243.8  -0.7  34142  289.27 0855.29
2009/04/23 11:45:36.4    -324   -156     -3    360    361 244.2  -0.5  34138  289.21 0855.29
2009/04/23 11:45:36.5    -343    -97    -11    357    358 254.2  -1.8  34140  289.23 0855.29
2009/04/23 11:45:36.6    -326    -20    -82    327    338 266.4 -14.1  34150  289.40 0855.29
2009/04/23 11:45:36.7    -363   -149   -103    393    407 247.6 -14.7  34148  289.38 0855.29
2009/04/23 11:45:36.8    -338   -242   -124    416    434 234.4 -21.6  34144  289.29 0855.29
2009/04/23 11:45:36.9    -366   -172    -34    405    407 244.8  -4.9  34146  289.34 0855.29
2009/04/23 11:45:37.0    -309   -258    -79    403    411 230.1 -11.2  34146  289.34 0855.29
2009/04/23 11:45:37.1    -173   -278   -121    328    349 212.0 -25.4  34142  289.26 0855.29
2009/04/23 11:45:37.2    -227   -235   -108    328    346 224.0 -18.3  34146  289.33 0855.29
2009/04/23 11:45:37.3    -170   -250   -112    303    323 214.2 -25.5  34142  289.27 0855.29
2009/04/23 11:45:37.4    -205   -369   -145    423    448 209.1 -18.9  34134  289.14 0855.29
2009/04/23 11:45:37.5    -198   -324   -140    380    404 211.4 -25.4  34142  289.25 0855.29
2009/04/23 11:45:37.6     -62   -346   -139    352    378 190.3 -27.2  34138  289.21 0855.29
2009/04/23 11:45:37.7     -28   -352   -120    354    375 184.6 -18.8  34140  289.23 0855.29
2009/04/23 11:45:37.8      16   -363    -56    364    369 177.4  -8.8  34136  289.16 0855.29
2009/04/23 11:45:37.9      -1   -331    -26    332    334 180.2  -4.5  34132  289.11 0855.29
2009/04/23 11:45:38.0       0   -290     14    291    292 180.0   2.8  34140  289.22 0855.29
2009/04/23 11:45:38.1     -58   -286     79    293    304 191.6  15.2  34140  289.22 0855.29
2009/04/23 11:45:38.2    -204   -191    141    280    313 226.9  28.7  34148  289.37 0855.29
2009/04/23 11:45:38.3     -53   -177    143    185    233 196.7  41.7  34160  289.57 0855.29
2009/04/23 11:45:38.4     -44   -306    -69    310    318 188.2 -12.6  34140  289.24 0855.29
2009/04/23 11:45:38.5     -67   -362    -67    369    376 190.5 -10.4  34140  289.23 0855.29
2009/04/23 11:45:38.6    -177   -320    -67    366    373 209.0 -10.5  34142  289.26 0855.29
2009/04/23 11:45:38.7    -155   -425    -29    453    454 200.1  -3.7  34144  289.31 0855.29
2009/04/23 11:45:38.8     -96   -376    -36    389    391 194.3  -5.3  34164  289.64 0855.29
2009/04/23 11:45:38.9     -51   -331      2    335    336 188.8   0.5  34154  289.47 0855.29
2009/04/23 11:45:39.0     -27   -356     53    357    361 184.4   8.5  34140  289.23 0855.29
2009/04/23 11:45:39.1    -170   -271     66    320    327 212.1  11.8  34170  289.75 0855.27
2009/04/23 11:45:39.2    -487   -189    -77    523    529 248.7  -8.4  34160  289.58 0855.27
2009/04/23 11:45:39.3    -506   -257    -97    568    577 243.0  -9.7  34146  289.32 0855.27
2009/04/23 11:45:39.4    -483   -166      4    512    513 251.0   0.5  34166  289.67 0855.27
2009/04/23 11:45:39.5    -160    -52     55    169    178 251.8  18.1  34180  289.92 0855.27
2009/04/23 11:45:39.6    -175   -182     77    253    265 223.9  17.1  34174  289.80 0855.27
2009/04/23 11:45:39.7    -232   -163     70    284    293 234.9  13.9  34178  289.86 0855.27
2009/04/23 11:45:39.8    -378    -49      4    382    383 262.6   0.7  34168  289.71 0855.27
2009/04/23 11:45:39.9    -329    -62    -47    335    339 259.3  -8.0  34166  289.69 0855.27
2009/04/23 11:45:40.0    -390    -54    -15    394    395 262.1  -2.2  34156  289.50 0855.27
2009/04/23 11:45:40.1    -445    -18    105    446    459 267.7  13.2  34152  289.43 0855.27
2009/04/23 11:45:40.2    -433   -235     38    493    495 241.5   4.5  34162  289.61 0855.27
2009/04/23 11:45:40.3    -367   -146    -15    396    397 248.3  -2.3  34154  289.47 0855.27
2009/04/23 11:45:40.4    -340   -112   -111    359    376 251.7 -17.3  34152  289.42 0855.27
2009/04/23 11:45:40.5    -318   -300   -161    438    466 226.7 -25.4  34154  289.48 0855.27
2009/04/23 11:45:40.6    -192   -249   -151    315    349 217.8 -31.7  34158  289.54 0855.27
2009/04/23 11:45:40.7    -261    -58   -110    268    289 257.4 -28.0  34138  289.19 0855.27
2009/04/23 11:45:40.8    -194      2   -114    195    225 270.6 -37.3  34142  289.28 0855.27
2009/04/23 11:45:40.9    -171     12    -11    172    173 274.3  -3.9  34156  289.52 0855.27
2009/04/23 11:45:41.0    -190    -62     48    200    206 251.8  13.7  34166  289.67 0855.27
2009/04/23 11:45:41.1    -106    -67     30    126    130 237.5  13.7  34166  289.67 0855.26
2009/04/23 11:45:41.2     -22   -132    -24    134    137 189.8 -10.3  34158  289.55 0855.26
2009/04/23 11:45:41.3       0   -167    -24    168    170 180.0  -8.2  34158  289.53 0855.26
2009/04/23 11:45:41.4      50   -151    -32    160    164 161.5 -11.6  34154  289.46 0855.26
2009/04/23 11:45:41.5      21   -164    -15    166    167 172.7  -5.2  34154  289.48 0855.26
2009/04/23 11:45:41.6      36   -134   -119    139    182 164.9 -49.5  34154  289.48 0855.26
2009/04/23 11:45:41.7     -74   -218    -73    231    242 198.9 -22.8  34144  289.29 0855.26
2009/04/23 11:45:41.8     -11   -215    -19    216    217 183.1  -5.2  34150  289.40 0855.26
2009/04/23 11:45:41.9     -95   -191    -28    214    216 206.5  -7.5  34150  289.40 0855.26
2009/04/23 11:45:42.0    -143    -98     67    174    186 235.4  22.3  34156  289.50 0855.26
2009/04/23 11:45:42.1    -132    -44     46    140    148 251.6  18.4  34156  289.52 0855.26
2009/04/23 11:45:42.2    -132     -5     45    133    141 267.5  18.9  34164  289.65 0855.26
2009/04/23 11:45:42.3    -144    -56     75    155    172 248.7  27.4  34158  289.53 0855.26
2009/04/23 11:45:42.4     -83   -122     62    148    160 214.2  24.1  34156  289.52 0855.26
2009/04/23 11:45:42.5    -138   -178    -71    226    238 217.9 -17.6  34158  289.53 0855.26
2009/04/23 11:45:42.6    -154   -186    -82    242    256 219.7 -18.9  34160  289.58 0855.26
2009/04/23 11:45:42.7    -208   -195     -6    286    287 226.8  -1.3  34164  289.64 0855.26
2009/04/23 11:45:42.8    -318   -170    -16    361    362 241.9  -2.6  34162  289.60 0855.26
2009/04/23 11:45:42.9    -318   -141    -78    349    358 246.0 -12.7  34148  289.38 0855.26
2009/04/23 11:45:43.0    -360    -97   -110    374    389 254.9 -21.4  34142  289.25 0855.26
2009/04/23 11:45:43.1    -378    -56   -128    383    405 261.5 -18.6  34142  289.26 0855.26
2009/04/23 11:45:43.2    -370    -64   -122    376    396 260.1 -18.0  34146  289.32 0855.26
2009/04/23 11:45:43.3    -379    -73   -166    387    421 259.1 -29.2  34144  289.29 0855.26
2009/04/23 11:45:43.4    -410   -108    -86    424    433 255.2 -11.5  34144  289.29 0855.26
2009/04/23 11:45:43.5    -351   -186    -50    398    402 242.0  -7.2  34146  289.32 0855.26
2009/04/23 11:45:43.6    -285    -68    -35    294    297 256.5  -6.9  34148  289.37 0855.26
2009/04/23 11:45:43.7    -168   -147      2    224    225 228.9   0.7  34150  289.41 0855.26
2009/04/23 11:45:43.8    -106   -208    -25    234    236 207.2  -6.2  34156  289.49 0855.26
2009/04/23 11:45:43.9     -30   -264     87    266    280 186.5  18.1  34160  289.58 0855.26
2009/04/23 11:45:44.0      20   -259    154    260    302 175.5  33.5  34154  289.47 0855.26
2009/04/23 11:45:44.1     -85   -232    115    248    273 200.1  26.6  34156  289.49 0855.26
2009/04/23 11:45:44.2     -31   -225     82    228    242 188.0  20.7  34148  289.37 0855.26
2009/04/23 11:45:44.3     -50   -187     87    194    212 195.1  25.7  34150  289.40 0855.26
2009/04/23 11:45:44.4     -75   -248     51    260    266 196.9  11.1  34150  289.39 0855.26
2009/04/23 11:45:44.5    -104   -313     49    330    334 198.4   8.5  34150  289.40 0855.26
2009/04/23 11:45:44.6    -139   -281     11    314    315 206.3   2.1  34150  289.41 0855.26
2009/04/23 11:45:44.7    -113   -362     36    380    382 197.4   5.5  34148  289.37 0855.26
2009/04/23 11:45:44.8    -197   -320     28    376    377 211.6   4.4  34146  289.33 0855.26
2009/04/23 11:45:44.9    -170   -338    -21    379    380 206.8  -3.3  34148  289.38 0855.26
2009/04/23 11:45:45.0    -200   -400     63    448    453 206.6   8.0  34150  289.39 0855.26
2009/04/23 11:45:45.1    -144   -345     60    375    380 202.7   9.2  34148  289.37 0855.31
2009/04/23 11:45:45.2    -132   -360     98    384    397 200.2  14.4  34146  289.32 0855.31
2009/04/23 11:45:45.3    -170   -367     46    405    408 204.8   6.6  34144  289.31 0855.31
2009/04/23 11:45:45.4    -205   -280    -19    348    349 216.3  -3.3  34152  289.42 0855.31
2009/04/23 11:45:45.5    -203   -307    -88    369    380 213.5 -13.4  34156  289.52 0855.31
2009/04/23 11:45:45.6    -352   -268   -108    443    457 232.7 -13.8  34146  289.34 0855.31
2009/04/23 11:45:45.7    -289   -288   -129    409    429 225.1 -17.5  34150  289.41 0855.31
2009/04/23 11:45:45.8    -315   -264   -149    412    438 230.0 -25.2  34150  289.41 0855.31
2009/04/23 11:45:45.9    -315   -229   -136    390    413 233.9 -24.4  34146  289.34 0855.31
2009/04/23 11:45:46.0    -269   -202   -145    337    366 233.1 -29.3  34150  289.40 0855.31
2009/04/23 11:45:46.1    -195   -166   -159    257    302 229.6 -39.4  34154  289.46 0855.31
2009/04/23 11:45:46.2    -270   -113   -105    293    311 247.3 -24.6  34154  289.46 0855.31
2009/04/23 11:45:46.3    -260   -193   -115    325    344 233.4 -24.6  34152  289.43 0855.31
2009/04/23 11:45:46.4    -245   -221   -116    331    350 227.9 -24.3  34164  289.65 0855.31
2009/04/23 11:45:46.5    -188   -201    -87    276    290 223.2 -17.5  34164  289.64 0855.31
2009/04/23 11:45:46.6    -213   -220    -55    307    312 224.1 -10.3  34154  289.46 0855.31
2009/04/23 11:45:46.7    -161   -294   -101    336    350 208.8 -21.7  34144  289.30 0855.31
2009/04/23 11:45:46.8    -196   -229   -148    302    336 220.6 -32.5  34140  289.24 0855.31
2009/04/23 11:45:46.9    -195   -261   -187    327    376 216.8 -36.7  34128  289.04 0855.31
2009/04/23 11:45:47.0    -198   -249   -187    319    369 218.5 -37.7  34132  289.11 0855.31
2009/04/23 11:45:47.1    -183   -253   -120    313    335 215.8 -26.4  34138  289.19 0855.35
2009/04/23 11:45:47.2    -138   -216   -122    257    284 212.7 -31.6  34136  289.17 0855.35
2009/04/23 11:45:47.3    -176   -176   -110    249    272 225.0 -29.6  34154  289.47 0855.35
2009/04/23 11:45:47.4    -278   -202    -89    344    356 234.0 -14.5  34154  289.47 0855.35
2009/04/23 11:45:47.5    -147    -29   -135    150    201 258.6 -51.0  34134  289.13 0855.35
2009/04/23 11:45:47.6    -225   -123   -128    257    287 241.2 -32.6  34134  289.12 0855.35
2009/04/23 11:45:47.7    -199   -160   -179    256    312 231.1 -42.8  34128  289.03 0855.35
2009/04/23 11:45:47.8    -245    -98   -192    265    327 248.2 -43.9  34132  289.09 0855.35
2009/04/23 11:45:47.9    -179    -78   -154    196    249 246.5 -46.8  34130  289.07 0855.35
2009/04/23 11:45:48.0    -158   -102   -165    189    250 237.1 -50.2  34124  288.97 0855.35
2009/04/23 11:45:48.1    -136    -89   -149    163    220 236.7 -52.1  34126  289.01 0855.35
2009/04/23 11:45:48.2    -137    -63   -121    152    194 245.2 -47.1  34130  289.08 0855.35
2009/04/23 11:45:48.3    -164    -50    -98    172    197 252.9 -36.8  34138  289.21 0855.35
2009/04/23 11:45:48.4    -145    -39   -112    151    188 254.9 -44.5  34140  289.24 0855.35
2009/04/23 11:45:48.5    -118    -26   -121    122    171 257.2 -54.6  34136  289.18 0855.35
2009/04/23 11:45:48.6    -138     -8   -128    139    188 266.5 -52.1  34138  289.21 0855.35
2009/04/23 11:45:48.7    -208     16   -134    209    248 274.6 -40.0  34144  289.31 0855.35
2009/04/23 11:45:48.8    -187     35   -149    191    242 280.6 -46.1  34140  289.24 0855.35
2009/04/23 11:45:48.9    -207     25   -178    209    274 277.0 -49.2  34140  289.22 0855.35
2009/04/23 11:45:49.0    -227    -14   -131    228    262 266.3 -36.8  34138  289.19 0855.35
2009/04/23 11:45:49.1    -178    -12   -120    179    215 266.1 -41.4  34136  289.16 0855.31
2009/04/23 11:45:49.2    -156    -16   -141    157    211 263.9 -51.0  34136  289.16 0855.31
2009/04/23 11:45:49.3    -155     41    -78    161    178 285.0 -31.8  34136  289.16 0855.31
2009/04/23 11:45:49.4    -166      6    -87    167    188 272.4 -34.2  34138  289.21 0855.31
2009/04/23 11:45:49.5    -165    -15   -101    166    194 264.5 -39.2  34138  289.21 0855.31
2009/04/23 11:45:49.6    -144      0    -97    145    174 270.0 -41.1  34134  289.13 0855.31
2009/04/23 11:45:49.7    -119     -9   -115    120    166 265.7 -53.4  34134  289.14 0855.31
2009/04/23 11:45:49.8    -138     -8   -107    139    175 266.5 -46.1  34134  289.13 0855.31
2009/04/23 11:45:49.9    -126      0   -104    127    164 269.6 -47.9  34134  289.14 0855.31
2009/04/23 11:45:50.0     -85      0    -79     86    116 270.0 -52.3  34130  289.08 0855.31
2009/04/23 11:45:50.1     -83      8    -87     84    120 275.7 -55.6  34130  289.06 0855.31
2009/04/23 11:45:50.2     -87      0    -65     88    109 270.0 -44.1  34128  289.04 0855.31
2009/04/23 11:45:50.3     -87      0    -65     88    109 270.0 -44.1  34128  289.04 0855.31
2009/04/23 11:45:50.4    -101    -15    -78    103    129 261.2 -45.6  34130  289.06 0855.31
2009/04/23 11:45:50.5    -118     19    -94    120    152 279.2 -47.1  34128  289.02 0855.31
2009/04/23 11:45:50.6    -119     -3   -107    120    160 268.3 -50.8  34130  289.08 0855.31
2009/04/23 11:45:50.7    -147     -2   -100    148    178 269.2 -41.7  34132  289.09 0855.31
2009/04/23 11:45:50.8    -159    -48    -98    167    193 253.2 -37.9  34136  289.16 0855.31
2009/04/23 11:45:50.9    -163    -58   -116    174    209 250.3 -41.4  34134  289.13 0855.31
2009/04/23 11:45:51.0    -134    -17   -142    136    196 262.5 -55.8  34132  289.11 0855.31
2009/04/23 11:45:51.1    -198    -23   -125    200    235 263.2 -39.4  34130  289.08 0855.35
2009/04/23 11:45:51.2    -185    -31   -132    188    229 260.3 -43.0  34134  289.14 0855.35
2009/04/23 11:45:51.3    -157     -7   -138    158    209 267.4 -50.2  34134  289.14 0855.35
2009/04/23 11:45:51.4    -170    -20   -121    172    210 263.0 -43.0  34130  289.06 0855.35
2009/04/23 11:45:51.5    -168    -56   -100    178    204 251.4 -36.3  34130  289.06 0855.35
2009/04/23 11:45:51.6    -167    -61   -103    178    205 249.8 -37.3  34132  289.09 0855.35
2009/04/23 11:45:51.7    -166    -62    -89    178    199 249.4 -33.1  34134  289.13 0855.35
2009/04/23 11:45:51.8    -164    -49   -103    172    200 253.2 -37.9  34134  289.13 0855.35
2009/04/23 11:45:51.9    -152    -39   -113    158    194 255.4 -43.5  34134  289.14 0855.35
2009/04/23 11:45:52.0    -149    -55   -107    159    191 249.6 -41.1  34138  289.19 0855.35
2009/04/23 11:45:52.1    -153    -38   -169    158    231 255.8 -56.6  34134  289.14 0855.35
2009/04/23 11:45:52.2    -151    -25   -193    154    246 260.3 -61.7  34136  289.16 0855.35
2009/04/23 11:45:52.3    -215    -36   -180    219    283 260.3 -48.1  34144  289.31 0855.35
2009/04/23 11:45:52.4    -177    -43   -187    183    261 256.1 -55.1  34158  289.53 0855.35
2009/04/23 11:45:52.5    -162    -56   -212    172    272 250.9 -61.3  34152  289.42 0855.35
2009/04/23 11:45:52.6    -186    -87   -174    206    269 244.8 -48.7  34160  289.56 0855.35
2009/04/23 11:45:52.7    -172    -57   -164    182    244 251.4 -51.3  34166  289.67 0855.35
2009/04/23 11:45:52.8    -115   -115   -169    163    234 225.0 -55.6  34168  289.70 0855.35
2009/04/23 11:45:52.9    -186    -93   -217    208    300 243.4 -55.6  34156  289.51 0855.35
2009/04/23 11:45:53.0    -106    -35   -203    112    231 251.4 -73.2  34158  289.53 0855.35
2009/04/23 11:45:53.1     -98    -59   -198    115    228 238.9 -71.6  34162  289.62 0855.38
2009/04/23 11:45:53.2      -8    -65   -194     66    204 187.1 -85.6  34156  289.50 0855.38
2009/04/23 11:45:53.3     -80   -175   -193    193    272 204.7 -54.5  34156  289.51 0855.38
2009/04/23 11:45:53.4       3   -161   -134    162    210 178.9 -48.2  34160  289.57 0855.38
2009/04/23 11:45:53.5       7   -145   -107    146    181 176.9 -44.1  34152  289.45 0855.38
2009/04/23 11:45:53.6       5   -146   -110    147    183 177.8 -44.8  34156  289.52 0855.38
2009/04/23 11:45:53.7     -17   -173   -113    174    207 185.8 -40.1  34156  289.50 0855.38
2009/04/23 11:45:53.8     -18   -153   -130    155    202 186.7 -48.7  34160  289.58 0855.38
2009/04/23 11:45:53.9      23   -198    -69    200    212 173.3 -19.1  34154  289.48 0855.38
2009/04/23 11:45:54.0     -34   -136    -57    141    152 194.3 -27.4  34156  289.52 0855.38
2009/04/23 11:45:54.1      -8    -76    -50     77     91 186.2 -40.0  34158  289.53 0855.38
2009/04/23 11:45:54.2      20    -36    -40     42     58 150.1 -55.5  34158  289.55 0855.38
2009/04/23 11:45:54.3      41     -3    -22     42     47  94.4 -34.7  34158  289.53 0855.38
2009/04/23 11:45:54.4      93      7    -23     94     97  85.7 -13.9  34152  289.45 0855.38
2009/04/23 11:45:54.5     130    -30     -7    134    135 103.3  -3.1  34154  289.46 0855.38
2009/04/23 11:45:54.6     159    -71     67    175    187 114.2  22.0  34154  289.46 0855.38
2009/04/23 11:45:54.7     196    -92     90    217    234 115.1  24.1  34158  289.53 0855.38
2009/04/23 11:45:54.8     119    -80     61    144    156 124.2  24.1  34156  289.52 0855.38
2009/04/23 11:45:54.9      34    -76     94     84    126 155.5  53.3  34158  289.53 0855.38
2009/04/23 11:45:55.0     -86    -78     27    117    121 227.8  13.2  34156  289.52 0855.38
2009/04/23 11:45:55.1     -70   -111    -19    132    134 212.5  -8.2  34158  289.53 0855.37
2009/04/23 11:45:55.2     -32   -165    -11    169    170 191.1  -3.9  34156  289.50 0855.37
2009/04/23 11:45:55.3     -39   -195    -18    199    200 191.5  -5.2  34154  289.46 0855.37
2009/04/23 11:45:55.4      -2   -187    -40    188    193 180.9 -12.2  34154  289.46 0855.37
2009/04/23 11:45:55.5       2   -167    -54    168    177 179.1 -17.9  34156  289.52 0855.37
2009/04/23 11:45:55.6     -15   -146    -44    147    154 186.2 -16.6  34154  289.48 0855.37
2009/04/23 11:45:55.7      63   -117    -61    134    147 151.5 -31.0  34154  289.48 0855.37
2009/04/23 11:45:55.8     111   -124    -15    167    168 138.1  -5.2  34156  289.50 0855.37
2009/04/23 11:45:55.9     103   -143     -3    177    178 144.4  -1.1  34156  289.52 0855.37
2009/04/23 11:45:56.0     111   -119    -20    164    166 137.0  -7.2  34154  289.48 0855.37
2009/04/23 11:45:56.1     117   -160     16    199    200 143.9   4.9  34154  289.48 0855.37
2009/04/23 11:45:56.2      71   -150     56    167    177 154.7  18.6  34152  289.43 0855.37
2009/04/23 11:45:56.3     180   -112     92    213    232 122.0  24.9  34154  289.46 0855.37
2009/04/23 11:45:56.4     169   -133     77    216    230 128.2  19.6  34154  289.46 0855.37
2009/04/23 11:45:56.5     145   -144     10    205    206 134.8   2.9  34152  289.45 0855.37
2009/04/23 11:45:56.6     102   -256    -28    276    278 158.2  -6.0  34152  289.44 0855.37
2009/04/23 11:45:56.7     101   -274     14    293    294 159.7   2.9  34150  289.41 0855.37
2009/04/23 11:45:56.8      87   -299      8    312    313 163.7   1.5  34150  289.41 0855.37
2009/04/23 11:45:56.9      93   -257     68    274    283 160.0  13.9  34150  289.41 0855.37
2009/04/23 11:45:57.0      45   -206     45    212    217 167.5  12.0  34150  289.40 0855.37
2009/04/23 11:45:57.1      44   -211     42    216    221 168.0  11.1  34148  289.38 0855.34
2009/04/23 11:45:57.2      84   -211     71    228    240 158.2  17.4  34148  289.36 0855.34
2009/04/23 11:45:57.3     141   -266     69    302    310 152.1  12.9  34150  289.39 0855.34
2009/04/23 11:45:57.4      63   -366     96    372    385 170.2  14.5  34152  289.45 0855.34
2009/04/23 11:45:57.5      31   -289    118    291    314 173.8  23.4  34150  289.39 0855.34
2009/04/23 11:45:57.6      35   -279     75    282    292 172.8  15.0  34152  289.44 0855.34
2009/04/23 11:45:57.7      38   -303     26    306    308 172.8   4.9  34152  289.42 0855.34
2009/04/23 11:45:57.8      80   -258     -1    271    272 162.8  -0.3  34152  289.42 0855.34
2009/04/23 11:45:57.9      67   -193     28    205    208 160.8   8.0  34152  289.43 0855.34
2009/04/23 11:45:58.0     100   -216     69    239    249 155.1  16.3  34154  289.47 0855.34
2009/04/23 11:45:58.1     104   -222     25    246    248 154.8   5.9  34154  289.46 0855.34
2009/04/23 11:45:58.2     105   -233     42    256    260 155.7   9.5  34156  289.51 0855.34
2009/04/23 11:45:58.3     128   -223     50    258    263 150.1  11.1  34156  289.49 0855.34
2009/04/23 11:45:58.4     150   -218     33    265    268 145.5   7.2  34156  289.51 0855.34
2009/04/23 11:45:58.6     155   -208     71    260    270 143.3  15.3  34158  289.54 0855.34
2009/04/23 11:45:58.7     162   -180    107    243    265 137.9  25.3  34160  289.56 0855.34
2009/04/23 11:45:58.7     162   -162    136    230    267 134.9  33.5  34158  289.54 0855.34
2009/04/23 11:45:58.8      44   -226    100    231    251 168.9  24.9  34158  289.54 0855.34
2009/04/23 11:45:58.9      89   -198     54    218    225 155.7  13.9  34158  289.53 0855.34
2009/04/23 11:45:59.0      72   -224     33    236    239 162.2   8.0  34158  289.53 0855.34
2009/04/23 11:45:59.1      -4   -173     69    174    187 181.6  23.0  34158  289.53 0855.33
2009/04/23 11:45:59.2      29   -154     71    157    172 169.3  26.2  34154  289.48 0855.33
2009/04/23 11:45:59.3      19   -103     64    105    122 169.3  34.0  34158  289.53 0855.33
2009/04/23 11:45:59.4      27   -136     35    139    144 168.4  14.3  34158  289.53 0855.33
2009/04/23 11:45:59.5      21   -156     76    158    175 172.0  27.4  34154  289.48 0855.33
2009/04/23 11:45:59.6      31   -156     88    160    182 168.5  31.4  34156  289.50 0855.33
2009/04/23 11:45:59.7     -22   -203    108    205    231 186.2  29.8  34158  289.55 0855.33
2009/04/23 11:45:59.8     -60   -188     92    198    218 197.8  27.1  34162  289.62 0855.33
2009/04/23 11:45:59.9     -61   -241    116    249    274 194.3  27.0  34164  289.64 0855.33
2009/04/23 11:46:00.0     -48   -205     80    211    225 193.4  21.5  34160  289.57 0855.33
2009/04/23 11:46:00.1       8   -264     96    265    281 178.2  20.7  34158  289.54 0855.30
2009/04/23 11:46:00.2      -4   -222     96    223    242 181.1  24.6  34158  289.53 0855.30
2009/04/23 11:46:00.3      -2   -153     72    154    170 180.9  27.1  34158  289.53 0855.30
2009/04/23 11:46:00.4     -63   -171    156    183    240 200.3  44.8  34158  289.53 0855.30
2009/04/23 11:46:00.5     -54   -204    153    212    261 194.9  39.5  34160  289.56 0855.30
2009/04/23 11:46:00.6     -79   -215    113    230    256 200.3  28.0  34172  289.76 0855.30
2009/04/23 11:46:00.7    -160   -229     96    280    297 215.1  18.9  34180  289.90 0855.30
2009/04/23 11:46:00.8    -146   -207     90    254    269 215.1  20.0  34182  289.95 0855.30
2009/04/23 11:46:00.9    -181   -170    101    249    268 226.9  23.1  34174  289.80 0855.30
2009/04/23 11:46:01.0    -160   -170     73    234    246 223.2  17.3  34164  289.63 0855.30
2009/04/23 11:46:01.1    -166   -164    106    234    256 225.2  26.2  34174  289.80 0855.30
2009/04/23 11:46:01.3    -118   -165     99    203    225 215.6  27.4  34174  289.80 0855.30
2009/04/23 11:46:01.3     -52   -120    146    132    196 203.6  53.3  34170  289.74 0855.30
2009/04/23 11:46:01.4     -58   -251     94    258    274 193.1  21.0  34162  289.61 0855.30
2009/04/23 11:46:01.5       0   -229    150    230    274 179.8  36.3  34164  289.64 0855.30
2009/04/23 11:46:01.7      20   -259    166    260    308 175.5  35.6  34166  289.68 0855.30
2009/04/23 11:46:01.8      22   -272    131    273    302 175.3  27.3  34166  289.68 0855.30
2009/04/23 11:46:01.8      -4   -298    105    299    316 180.9  20.1  34166  289.66 0855.30
2009/04/23 11:46:01.9      -7   -258    155    259    301 181.6  33.7  34162  289.59 0855.30
2009/04/23 11:46:02.0      18   -256     98    257    275 175.8  22.0  34162  289.59 0855.30
2009/04/23 11:46:02.1      64   -203    115    213    242 162.4  30.8  34162  289.61 0855.31
2009/04/23 11:46:02.3      62   -188    122    199    233 161.7  35.0  34158  289.55 0855.31
2009/04/23 11:46:02.4      45   -178    118    184    218 165.7  35.6  34160  289.58 0855.31
2009/04/23 11:46:02.5      37   -231    151    235    279 170.9  35.6  34168  289.70 0855.31
2009/04/23 11:46:02.6     -11   -258    109    259    281 182.6  24.2  34172  289.76 0855.31
2009/04/23 11:46:02.7     -56   -200     70    208    220 195.8  18.6  34176  289.85 0855.31
2009/04/23 11:46:02.8     -55   -184     47    193    199 196.7  13.9  34174  289.80 0855.31
2009/04/23 11:46:02.9     -14   -186     36    187    191 184.4  11.1  34172  289.77 0855.31
2009/04/23 11:46:03.0      16   -181     33    182    186 174.7  10.3  34162  289.62 0855.31
2009/04/23 11:46:03.1      33   -174     -3    178    179 169.3  -1.2  34164  289.65 0855.31
2009/04/23 11:46:03.2       2   -157      0    158    159 179.1  -0.3  34162  289.60 0855.31
2009/04/23 11:46:03.3      13   -172      6    173    174 175.5   2.1  34162  289.60 0855.31
2009/04/23 11:46:03.4       0   -186     19    187    188 179.8   5.9  34164  289.65 0855.31
2009/04/23 11:46:03.5     -41   -201     24    206    208 191.6   6.7  34164  289.65 0855.31
2009/04/23 11:46:03.6     -86   -215     57    232    240 201.8  13.9  34170  289.73 0855.31
2009/04/23 11:46:03.7    -159   -208     51    263    269 217.4  11.1  34176  289.83 0855.31
2009/04/23 11:46:03.8    -145   -221     99    265    282 213.2  21.3  34180  289.90 0855.31
2009/04/23 11:46:03.9    -127   -218    100    253    272 210.3  22.8  34174  289.81 0855.31
2009/04/23 11:46:04.0    -134   -210     63    250    259 212.5  14.3  34172  289.76 0855.31
2009/04/23 11:46:04.1     -83   -231    144    246    285 200.0  33.4  34160  289.58 0855.31
2009/04/23 11:46:04.2     -69   -254    138    264    297 195.2  29.8  34156  289.49 0855.33
2009/04/23 11:46:04.3     -97   -253    150    272    310 201.0  31.4  34156  289.49 0855.33
2009/04/23 11:46:04.4     -81   -240    172    254    306 198.7  37.4  34158  289.54 0855.33
2009/04/23 11:46:04.5     -57   -213    143    221    263 195.1  35.7  34160  289.58 0855.33
2009/04/23 11:46:04.6     -75   -197     83    211    226 200.9  23.0  34160  289.57 0855.33
2009/04/23 11:46:04.7      -3   -188     64    189    200 181.1  18.9  34160  289.57 0855.33
2009/04/23 11:46:04.8     -49   -182     38    189    193 195.2  11.6  34162  289.60 0855.33
2009/04/23 11:46:04.9    -107   -168     -2    200    201 212.5  -0.7  34164  289.65 0855.33
2009/04/23 11:46:05.0     -23   -192     -5    194    195 186.9  -1.6  34164  289.63 0855.33
2009/04/23 11:46:05.1     -33   -187    -24    190    192 190.0  -7.2  34164  289.65 0855.33
2009/04/23 11:46:05.2     -37   -122    -50    128    137 197.0 -27.4  34182  289.94 0855.33
2009/04/23 11:46:05.3      -1    -96    -50     97    109 180.9 -33.7  34178  289.87 0855.33
2009/04/23 11:46:05.4       0    -61     -8     62     63 180.0  -7.3  34170  289.75 0855.33
2009/04/23 11:46:05.5       0    -38     -1     39     40 179.1  -2.2  34172  289.77 0855.33
2009/04/23 11:46:05.6       5    -31    -23     32     39 170.2 -44.1  34162  289.62 0855.33
2009/04/23 11:46:05.7      18    -46    -33     50     59 158.2 -40.9  34164  289.65 0855.33
2009/04/23 11:46:05.8      57    -73    -20     93     96 141.7 -12.4  34164  289.63 0855.33
2009/04/23 11:46:05.9      44    -47     28     65     70 136.8  25.1  34168  289.70 0855.33
2009/04/23 11:46:06.0      28   -143     45    146    153 168.9  17.3  34170  289.74 0855.33
2009/04/23 11:46:06.1      34   -126     25    131    134 164.9  11.1  34168  289.70 0855.33
2009/04/23 11:46:06.2      51   -137     43    147    154 159.5  16.3  34170  289.74 0855.32
2009/04/23 11:46:06.3      80   -156     40    176    181 152.8  12.9  34168  289.72 0855.32
2009/04/23 11:46:06.4      90   -183     29    205    208 153.7   8.2  34164  289.63 0855.32
2009/04/23 11:46:06.5      94   -151    -11    179    180 148.1  -3.7  34162  289.62 0855.32
2009/04/23 11:46:06.6      65   -157     -1    170    171 157.5  -0.5  34166  289.67 0855.32
2009/04/23 11:46:06.7      55   -202     70    210    222 164.8  18.6  34162  289.60 0855.32
2009/04/23 11:46:06.8       2   -189      7    190    191 179.3   2.1  34162  289.62 0855.32
2009/04/23 11:46:06.9     -31   -166    -33    169    173 190.7 -11.3  34164  289.65 0855.32
2009/04/23 11:46:07.0     -38   -144    -47    150    158 195.1 -17.6  34164  289.65 0855.32
2009/04/23 11:46:07.1       0   -150    -67    151    165 180.4 -29.7  34162  289.62 0855.32
2009/04/23 11:46:07.2      95   -157    -44    184    190 148.8 -13.4  34166  289.67 0855.32
2009/04/23 11:46:07.3      93   -145    -51    173    180 147.3 -21.5  34164  289.65 0855.32
2009/04/23 11:46:07.4     123   -107    -37    164    169 131.1 -12.9  34164  289.63 0855.32
2009/04/23 11:46:07.5     107   -155     31    189    192 145.3   9.5  34164  289.65 0855.32
2009/04/23 11:46:07.6      85   -202      4    220    221 157.1   1.2  34166  289.67 0855.32
2009/04/23 11:46:07.7     150   -199     88    250    266 143.0  19.4  34170  289.73 0855.32
2009/04/23 11:46:07.8     151   -151     58    214    222 134.9  15.3  34164  289.65 0855.32
2009/04/23 11:46:07.9     119   -175     93    212    231 145.7  25.1  34158  289.55 0855.32
2009/04/23 11:46:08.0     133   -249     75    283    293 151.9  15.0  34160  289.56 0855.32
2009/04/23 11:46:08.1     134   -170     80    217    231 141.7  20.9  34158  289.55 0855.32
2009/04/23 11:46:08.2     121   -189    205    225    304 147.4  47.0  34160  289.56 0855.33
2009/04/23 11:46:08.3     123    -63    153    139    206 117.0  53.0  34164  289.65 0855.33
2009/04/23 11:46:08.4       8   -168    172    169    241 177.1  50.2  34164  289.65 0855.33
2009/04/23 11:46:08.5     174   -144    106    227    250 129.6  27.0  34156  289.51 0855.33
2009/04/23 11:46:08.6     136   -110     59    176    186 128.9  18.6  34158  289.55 0855.33
2009/04/23 11:46:08.7      46   -132     27    140    143 160.8  11.0  34160  289.57 0855.33
2009/04/23 11:46:08.8       2   -157      4    158    159 179.0   1.6  34158  289.53 0855.33
2009/04/23 11:46:08.9      50   -129     -4    139    140 158.6  -1.8  34158  289.53 0855.33
2009/04/23 11:46:09.0      56   -237     27    244    246 166.6   6.5  34158  289.54 0855.33
2009/04/23 11:46:09.1      17   -231     50    232    238 175.6  12.2  34160  289.56 0855.33
2009/04/23 11:46:09.2     -32   -240     47    243    248 187.6  11.1  34158  289.54 0855.33
2009/04/23 11:46:09.3      36   -236     25    239    241 171.3   6.1  34158  289.54 0855.33
2009/04/23 11:46:09.4      39   -286     14    289    290 172.2   2.9  34166  289.68 0855.33
2009/04/23 11:46:09.5      36   -273    -10    276    277 172.4  -2.1  34164  289.64 0855.33
2009/04/23 11:46:09.6     -53   -247     63    253    261 192.3  14.2  34174  289.80 0855.33
2009/04/23 11:46:09.7      52   -237     15    243    244 167.5   3.6  34166  289.66 0855.33
2009/04/23 11:46:09.8      92   -234    -50    252    258 158.4 -11.3  34160  289.58 0855.33
2009/04/23 11:46:09.9     108   -204    -34    231    234 152.1  -8.6  34160  289.56 0855.33
2009/04/23 11:46:10.0      19   -248    -37    249    252 175.6  -8.6  34158  289.54 0855.33
2009/04/23 11:46:10.1      27   -230    -88    232    248 173.1 -26.1  34158  289.54 0855.33
2009/04/23 11:46:10.2      48   -213    -89    219    236 167.3 -27.8  34160  289.58 0855.37
2009/04/23 11:46:10.3      61   -181   -123    192    228 161.3 -40.0  34160  289.58 0855.37
2009/04/23 11:46:10.4      55   -183    -74    192    205 163.3 -26.7  34156  289.50 0855.37
2009/04/23 11:46:10.5      56   -201    -21    209    211 164.2  -6.0  34166  289.67 0855.37
2009/04/23 11:46:10.6      22   -150    -66    152    165 171.5 -29.3  34168  289.72 0855.37
2009/04/23 11:46:10.7     111   -200      0    229    230 151.0   0.0  34170  289.75 0855.37
2009/04/23 11:46:10.8     104   -170    -71    200    212 148.4 -24.6  34166  289.67 0855.37
2009/04/23 11:46:10.9     -23   -136    -46    138    145 189.7 -23.6  34166  289.67 0855.37
2009/04/23 11:46:11.0     -49    -81    -71     95    118 211.2 -45.1  34166  289.69 0855.37
2009/04/23 11:46:11.1     -14   -182    -59    183    193 184.7 -17.9  34170  289.74 0855.37
2009/04/23 11:46:11.2      -7   -230    -73    231    242 181.8 -22.8  34162  289.59 0855.37
2009/04/23 11:46:11.3     -19   -215    -64    216    225 185.1 -21.7  34166  289.67 0855.37
2009/04/23 11:46:11.4     -56   -157    -76    167    183 199.8 -30.3  34164  289.65 0855.37
2009/04/23 11:46:11.5     -44    -93    -13    103    104 205.3  -7.3  34168  289.70 0855.37
2009/04/23 11:46:11.6     -53    -38    -19     66     69 234.1 -16.6  34166  289.67 0855.37
2009/04/23 11:46:11.7    -101     -4    -34    102    107 267.4 -23.6  34164  289.65 0855.37
2009/04/23 11:46:11.8    -130    -26    -31    133    137 258.6 -13.3  34164  289.63 0855.37
2009/04/23 11:46:11.9    -125    -33    -29    130    134 254.9 -12.9  34166  289.67 0855.37
2009/04/23 11:46:12.0    -117    -10     -3    118    119 264.8  -1.8  34168  289.72 0855.37
2009/04/23 11:46:12.1    -115     -8     -7    116    117 265.6  -3.7  34166  289.69 0855.37
2009/04/23 11:46:12.2    -271      4    -42    272    276 270.9  -8.8  34164  289.63 0855.36
2009/04/23 11:46:12.3    -318     -3   -103    319    336 269.4 -17.9  34142  289.28 0855.36
2009/04/23 11:46:12.4    -305     56   -110    311    331 280.4 -19.6  34150  289.39 0855.36
2009/04/23 11:46:12.5    -312    103   -116    329    350 288.3 -19.5  34154  289.47 0855.36
2009/04/23 11:46:12.6    -200     15   -154    201    253 274.4 -45.8  34152  289.42 0855.36
2009/04/23 11:46:12.7    -251    109    -99    274    291 293.5 -24.8  34152  289.44 0855.36
2009/04/23 11:46:12.8    -241     48   -104    246    267 281.5 -28.6  34146  289.32 0855.36
2009/04/23 11:46:12.9    -181     45   -133    187    229 284.2 -43.7  34162  289.60 0855.36
2009/04/23 11:46:13.0    -181    -44    -23    187    189 256.3  -7.2  34168  289.70 0855.36
2009/04/23 11:46:13.1    -248    -44      7    252    253 259.9   1.7  34168  289.71 0855.36
2009/04/23 11:46:13.2    -268    -44    -75    272    283 260.5 -15.4  34166  289.66 0855.36
2009/04/23 11:46:13.3    -230    -22    -83    232    247 264.5 -19.7  34162  289.59 0855.36
2009/04/23 11:46:13.4    -220    -83    -83    236    251 249.2 -19.4  34168  289.71 0855.36
2009/04/23 11:46:13.5    -217    -23      2    219    220 263.9   0.7  34168  289.70 0855.36
2009/04/23 11:46:13.6    -167    -64     13    179    180 248.9   4.2  34166  289.67 0855.36
2009/04/23 11:46:13.7    -126   -139     36    188    192 222.3  11.1  34162  289.60 0855.36
2009/04/23 11:46:13.8    -120   -166     56    206    214 216.0  15.2  34164  289.65 0855.36
2009/04/23 11:46:13.9    -149   -154    -11    215    216 224.1  -3.1  34162  289.60 0855.36
2009/04/23 11:46:14.0     -74   -185    -18    200    201 201.8  -5.2  34166  289.67 0855.36
2009/04/23 11:46:14.1      13   -168     20    169    171 175.5   6.9  34166  289.69 0855.36
2009/04/23 11:46:14.2      70   -150     30    166    169 155.1  10.3  34166  289.67 0855.35
2009/04/23 11:46:14.3      88   -218      3    236    237 157.9   0.8  34166  289.66 0855.35
2009/04/23 11:46:14.4      45   -263     22    267    269 170.3   4.9  34164  289.64 0855.35
2009/04/23 11:46:14.5      18   -326     -9    327    328 176.8  -1.6  34164  289.64 0855.35
2009/04/23 11:46:14.6      12   -255    -21    256    258 177.1  -4.9  34160  289.58 0855.35
2009/04/23 11:46:14.7    -110   -329     58    348    353 198.6   9.5  34164  289.65 0855.35
2009/04/23 11:46:14.8    -133   -323    -44    350    353 202.5  -7.2  34162  289.60 0855.35
2009/04/23 11:46:14.9    -193   -251    -96    317    332 217.6 -16.9  34162  289.59 0855.35
2009/04/23 11:46:15.0    -156   -188     -9    245    246 219.6  -2.3  34164  289.63 0855.35
2009/04/23 11:46:15.1    -140   -197     -5    242    243 215.4  -1.3  34160  289.58 0855.35
2009/04/23 11:46:15.2    -146   -148      0    209    210 224.5   0.2  34158  289.55 0855.35
2009/04/23 11:46:15.3    -133   -166     20    214    216 218.7   5.4  34160  289.57 0855.35
2009/04/23 11:46:15.4    -134   -178     -4    224    225 217.0  -1.2  34162  289.60 0855.35
2009/04/23 11:46:15.5     -38   -223      0    227    228 189.8   0.2  34156  289.52 0855.35
2009/04/23 11:46:15.6     -38   -275    -10    278    279 188.0  -2.1  34158  289.54 0855.35
2009/04/23 11:46:15.7     -38   -244    -24    248    250 188.9  -5.6  34156  289.51 0855.35
2009/04/23 11:46:15.8      11   -245    -66    246    255 177.4 -15.0  34160  289.56 0855.35
2009/04/23 11:46:15.9      40   -221   -103    225    247 169.5 -30.6  34164  289.64 0855.35
2009/04/23 11:46:16.0      99   -210    -64    233    242 154.7 -15.4  34156  289.51 0855.35
2009/04/23 11:46:16.1      70   -196     30    209    212 160.2   8.2  34158  289.53 0855.35
2009/04/23 11:46:16.2      43   -231    102    236    257 169.3  24.9  34162  289.59 0855.32
2009/04/23 11:46:16.3      23   -219    120    221    251 173.8  31.0  34162  289.59 0855.32
2009/04/23 11:46:16.4      12   -183    142    184    232 176.0  41.7  34162  289.60 0855.32
2009/04/23 11:46:16.5      37   -158    111    163    197 166.6  37.6  34160  289.58 0855.32
2009/04/23 11:46:16.6      24   -175    105    177    205 172.2  33.5  34162  289.62 0855.32
2009/04/23 11:46:16.7      -3   -192     60    193    203 181.1  17.4  34160  289.58 0855.32
2009/04/23 11:46:16.8      65   -258    109    267    288 165.7  23.4  34162  289.61 0855.32
2009/04/23 11:46:16.9     112   -284     60    306    312 158.4  11.1  34158  289.53 0855.32
2009/04/23 11:46:17.0      73   -289     36    299    302 165.8   6.9  34156  289.51 0855.32
2009/04/23 11:46:17.1      67   -240     32    250    253 164.4   7.5  34156  289.49 0855.32
2009/04/23 11:46:17.2     100   -221     10    243    244 155.5   2.5  34152  289.44 0855.32
2009/04/23 11:46:17.3     115   -201     76    232    245 150.1  18.1  34154  289.47 0855.32
2009/04/23 11:46:17.4      88   -229     96    246    264 158.8  22.5  34154  289.47 0855.32
2009/04/23 11:46:17.5     110   -242    167    266    314 155.5  35.1  34150  289.41 0855.32
2009/04/23 11:46:17.6      66   -196    146    208    254 161.3  38.6  34154  289.47 0855.32
2009/04/23 11:46:17.7      40   -226    118    230    258 169.8  29.3  34152  289.44 0855.32
2009/04/23 11:46:17.8      50   -231    165    237    288 167.7  38.4  34156  289.51 0855.32
2009/04/23 11:46:17.9      45   -235     74    240    252 169.1  17.3  34154  289.46 0855.32
2009/04/23 11:46:18.0      35   -230     63    233    242 171.3  15.3  34156  289.51 0855.32
2009/04/23 11:46:18.1     -18   -262     31    263    265 184.0   6.9  34154  289.47 0855.32
2009/04/23 11:46:18.2     -23   -247     48    249    254 185.4  11.0  34166  289.66 0855.30
2009/04/23 11:46:18.3     -44   -270      3    274    275 189.3   0.8  34162  289.61 0855.30
2009/04/23 11:46:18.4      -9   -208     71    209    222 182.5  18.9  34164  289.63 0855.30
2009/04/23 11:46:18.5     -41   -218    110    222    247 190.7  28.2  34154  289.47 0855.30
2009/04/23 11:46:18.6    -127   -237    112    270    292 208.3  23.6  34156  289.51 0855.30
2009/04/23 11:46:18.7    -128   -177     51    219    225 216.0  13.2  34150  289.41 0855.30
2009/04/23 11:46:18.8    -126   -125     26    178    180 225.3   8.5  34152  289.43 0855.30
2009/04/23 11:46:18.9    -215     21     18    217    218 275.7   4.9  34170  289.75 0855.30
2009/04/23 11:46:19.0    -184     68     39    197    201 290.4  11.4  34176  289.84 0855.30
2009/04/23 11:46:19.1    -240    113    -10    266    267 295.2  -2.2  34180  289.90 0855.30
2009/04/23 11:46:19.2    -269     59     23    276    278 282.4   4.9  34180  289.92 0855.30
2009/04/23 11:46:19.3    -248     -7   -102    249    269 268.3 -27.5  34160  289.58 0855.30
2009/04/23 11:46:19.4    -227    -25     -1    229    230 263.6  -0.5  34158  289.53 0855.30
2009/04/23 11:46:19.5    -294    -81     74    306    315 254.5  13.7  34178  289.86 0855.30
2009/04/23 11:46:19.6    -336   -108    -13    354    355 252.1  -2.1  34180  289.91 0855.30
2009/04/23 11:46:19.7    -287   -125    -70    314    322 246.4 -12.7  34162  289.59 0855.30
2009/04/23 11:46:19.8    -165   -234    106    287    305 215.2  21.0  34158  289.53 0855.30
2009/04/23 11:46:19.9    -124   -208     98    243    262 210.8  23.0  34160  289.56 0855.30
2009/04/23 11:46:20.0    -101   -166    104    195    221 211.4  30.3  34160  289.58 0855.30
2009/04/23 11:46:20.1    -197   -163    -88    257    271 230.4 -23.3  34164  289.63 0855.30
2009/04/23 11:46:20.2    -169   -184      2    250    251 222.5   0.5  34166  289.66 0855.30
2009/04/23 11:46:20.3    -119   -196     20    230    231 211.4   5.0  34160  289.58 0855.30
2009/04/23 11:46:20.4    -173   -147     35    228    231 229.6   8.8  34164  289.63 0855.30
2009/04/23 11:46:20.5    -218   -139     24    259    261 237.5   5.4  34166  289.68 0855.30
2009/04/23 11:46:20.6    -135   -169     58    217    225 218.5  15.0  34162  289.60 0855.30
2009/04/23 11:46:20.7     -57   -156     -8    167    168 200.3  -2.8  34158  289.55 0855.30
2009/04/23 11:46:20.8     -40   -151     20    157    159 195.1   7.5  34164  289.65 0855.30
2009/04/23 11:46:20.9    -174   -190      7    258    259 222.4   1.7  34170  289.73 0855.30
2009/04/23 11:46:21.0    -127   -233     62    266    274 208.7  13.2  34160  289.58 0855.30
2009/04/23 11:46:21.1    -201   -270     79    337    347 216.7  13.2  34172  289.77 0855.30
2009/04/23 11:46:21.2     -85   -184     55    203    211 204.9  15.3  34172  289.77 0855.29
2009/04/23 11:46:21.3    -229   -205     50    308    313 228.2   9.2  34176  289.83 0855.29
2009/04/23 11:46:21.4    -185   -203    181    275    329 222.4  36.4  34152  289.44 0855.29
2009/04/23 11:46:21.5    -220   -194     76    294    304 228.6  14.5  34152  289.42 0855.29
2009/04/23 11:46:21.6     -87   -161      9    184    185 208.5   2.9  34156  289.52 0855.29
2009/04/23 11:46:21.7     -42   -203     44    208    213 191.8  12.0  34156  289.52 0855.29
2009/04/23 11:46:21.8     -87   -219     69    236    247 201.8  16.4  34156  289.51 0855.29
2009/04/23 11:46:21.9    -148   -299    116    334    353 206.4  20.1  34158  289.54 0855.29
2009/04/23 11:46:22.0    -144   -324     71    355    363 204.1  11.4  34154  289.48 0855.29
2009/04/23 11:46:22.1     -98   -274     80    292    303 199.8  15.4  34158  289.53 0855.29
2009/04/23 11:46:22.2     -62   -303     36    310    313 191.6   6.7  34158  289.54 0855.29
2009/04/23 11:46:22.3    -158   -310     43    349    352 207.1   7.1  34154  289.48 0855.29
2009/04/23 11:46:22.4    -178   -305     28    354    356 210.3   4.6  34156  289.50 0855.29
2009/04/23 11:46:22.5    -137   -248     30    284    286 209.0   6.1  34152  289.44 0855.29
2009/04/23 11:46:22.6    -153   -225     48    273    278 214.2  10.1  34156  289.49 0855.29
2009/04/23 11:46:22.7    -173   -230     51    289    294 217.0  10.1  34158  289.54 0855.29
2009/04/23 11:46:22.8     -93   -261     54    278    284 199.6  11.0  34156  289.49 0855.29
2009/04/23 11:46:22.9    -111   -222     -5    249    250 206.7  -1.2  34158  289.54 0855.29
2009/04/23 11:46:23.0    -223   -156   -114    273    295 235.0 -28.5  34168  289.70 0855.29
2009/04/23 11:46:23.1     -75   -324    -42    333    336 193.2  -7.2  34158  289.55 0855.29
2009/04/23 11:46:23.2     -56   -298     -1    304    305 190.7  -0.3  34152  289.42 0855.30
2009/04/23 11:46:23.3     -57   -260     -3    267    268 192.5  -0.7  34158  289.54 0855.30
2009/04/23 11:46:23.4    -122   -192    -62    228    237 212.5 -15.4  34160  289.58 0855.30
2009/04/23 11:46:23.5     -83   -158    -70    179    192 207.9 -26.9  34164  289.65 0855.30
2009/04/23 11:46:23.6     -44   -207    -50    212    218 192.0 -13.4  34164  289.65 0855.30
2009/04/23 11:46:23.7     -37   -299      1    302    303 187.1   0.2  34162  289.59 0855.30
2009/04/23 11:46:23.8     -51   -366    -11    370    371 188.0  -1.7  34164  289.64 0855.30
2009/04/23 11:46:23.9     -40   -367    -71    370    377 186.3 -10.9  34168  289.71 0855.30
2009/04/23 11:46:24.0     -42   -331     -9    334    335 187.4  -1.6  34168  289.71 0855.30
2009/04/23 11:46:24.1    -106   -325    -35    342    344 198.1  -6.0  34168  289.71 0855.30
2009/04/23 11:46:24.2    -128   -355      5    378    379 200.0   0.8  34168  289.71 0855.30
2009/04/23 11:46:24.3    -128   -438      0    457    458 196.3   0.0  34164  289.65 0855.30
2009/04/23 11:46:24.4     -80   -395    -45    404    407 191.6  -6.5  34164  289.65 0855.30
2009/04/23 11:46:24.5     -56   -357     70    362    369 189.0  11.0  34156  289.52 0855.30
2009/04/23 11:46:24.6     -88   -334    140    346    373 194.9  23.1  34158  289.54 0855.30
2009/04/23 11:46:24.7    -106   -311    162    329    366 199.0  28.1  34158  289.54 0855.30
2009/04/23 11:46:24.8     -93   -312     97    326    341 196.6  16.7  34156  289.50 0855.30
2009/04/23 11:46:24.9     -82   -365     95    375    388 192.8  14.3  34156  289.50 0855.30
2009/04/23 11:46:25.0     -87   -425     45    435    438 191.6   5.9  34158  289.53 0855.30
2009/04/23 11:46:25.1     -67   -379    124    386    406 190.1  17.8  34156  289.50 0855.30
2009/04/23 11:46:25.2     -28   -366     76    368    376 184.5  11.8  34154  289.47 0855.28
2009/04/23 11:46:25.3     -17   -316    136    317    344 183.1  24.8  34154  289.47 0855.28
2009/04/23 11:46:25.4       9   -448    194    449    489 178.8  24.9  34154  289.47 0855.28
2009/04/23 11:46:25.5     -35   -411    155    413    441 185.0  21.5  34152  289.44 0855.28
2009/04/23 11:46:25.6      71   -486    184    492    525 171.7  21.5  34156  289.52 0855.28
2009/04/23 11:46:25.7     101   -426    154    438    465 166.6  19.4  34156  289.51 0855.28
2009/04/23 11:46:25.8     113   -439     86    454    463 165.5  10.8  34158  289.53 0855.28
2009/04/23 11:46:25.9     224   -353    169    419    451 147.6  23.1  34154  289.46 0855.28
2009/04/23 11:46:26.0     295   -328    172    442    474 138.0  22.4  34152  289.44 0855.28
2009/04/23 11:46:26.1     230   -297    173    376    413 142.3  26.4  34150  289.40 0855.28
2009/04/23 11:46:26.2     137   -453    -43    474    476 163.1  -5.2  34146  289.34 0855.28
2009/04/23 11:46:26.3     198   -440    -21    483    484 155.7  -2.5  34148  289.37 0855.28
2009/04/23 11:46:26.4     128   -310     25    336    337 157.6   4.4  34154  289.48 0855.28
2009/04/23 11:46:26.5      49   -269     64    274    282 169.5  13.2  34146  289.32 0855.28
2009/04/23 11:46:26.6     -13   -306    144    307    339 182.6  27.0  34154  289.48 0855.28
2009/04/23 11:46:26.7       9   -232    181    233    295 177.8  41.7  34154  289.46 0855.28
2009/04/23 11:46:26.8     -65   -510    198    515    551 187.3  22.1  34158  289.55 0855.28
2009/04/23 11:46:26.9       6   -485    137    486    506 179.3  15.8  34166  289.66 0855.28
2009/04/23 11:46:27.0      41   -468    115    470    484 174.9  13.8  34158  289.54 0855.28
2009/04/23 11:46:27.1      16   -443     86    444    453 177.9  11.0  34160  289.58 0855.28
2009/04/23 11:46:27.2      83   -309    -38    321    324 164.9  -6.9  34152  289.44 0855.26
2009/04/23 11:46:27.3     124   -267     69    295    303 155.1  13.2  34160  289.56 0855.26
2009/04/23 11:46:27.4      48   -334    128    338    361 171.8  21.7  34164  289.65 0855.26
2009/04/23 11:46:27.5     -23   -312     90    313    326 184.4  16.0  34172  289.76 0855.26
2009/04/23 11:46:27.6      11   -447    161    448    476 178.5  20.4  34170  289.74 0855.26
2009/04/23 11:46:27.7      21   -400    211    401    453 176.9  30.2  34176  289.83 0855.26
2009/04/23 11:46:27.8      80   -380    181    389    429 168.0  26.9  34170  289.73 0855.26
2009/04/23 11:46:27.9       5   -406    191    407    449 179.2  27.1  34160  289.58 0855.26
2009/04/23 11:46:28.0     -92   -381    134    392    415 193.6  18.9  34168  289.72 0855.26
2009/04/23 11:46:28.2     -87   -424    194    434    475 191.7  25.7  34168  289.72 0855.26
2009/04/23 11:46:28.2     -69   -404    148    410    437 189.7  19.9  34170  289.73 0855.26
2009/04/23 11:46:28.4      41   -401    102    404    417 174.1  14.2  34170  289.75 0855.26
2009/04/23 11:46:28.5      32   -420    107    422    436 175.6  14.3  34164  289.65 0855.26
2009/04/23 11:46:28.6     -37   -379     82    381    390 185.6  12.3  34164  289.64 0855.26
2009/04/23 11:46:28.7     -12   -402     50    403    407 181.8   7.1  34164  289.63 0855.26
2009/04/23 11:46:28.8      18   -304    -40    305    308 176.6  -7.5  34162  289.59 0855.26
2009/04/23 11:46:28.9     140   -376     30    402    404 159.5   4.4  34160  289.56 0855.26
2009/04/23 11:46:29.0      57   -349     66    354    361 170.7  10.6  34162  289.62 0855.26
2009/04/23 11:46:29.1      49   -359     75    363    371 172.1  11.8  34164  289.65 0855.26
2009/04/23 11:46:29.2     169   -400    102    435    447 157.1  13.3  34154  289.48 0855.26
2009/04/23 11:46:29.3     182   -279    158    334    369 146.9  27.1  34148  289.38 0855.24
2009/04/23 11:46:29.4     124   -249    133    279    309 153.5  27.3  34154  289.47 0855.24
2009/04/23 11:46:29.5     -67   -263     68    272    281 194.3  14.2  34156  289.51 0855.24
2009/04/23 11:46:29.6     -80   -222     -9    237    238 200.0  -2.2  34158  289.53 0855.24
2009/04/23 11:46:29.7      -9   -203    164    204    261 182.6  42.8  34154  289.46 0855.24
2009/04/23 11:46:29.8     132   -306    153    334    367 156.7  26.4  34152  289.45 0855.24
2009/04/23 11:46:29.9     176   -302    127    350    372 149.8  20.7  34156  289.50 0855.24
2009/04/23 11:46:30.0     143   -261     93    298    313 151.3  17.3  34158  289.53 0855.24
2009/04/23 11:46:30.1     134   -333    113    360    378 158.1  17.5  34160  289.57 0855.24
2009/04/23 11:46:30.2     147   -288    133    324    350 152.9  23.5  34158  289.54 0855.24
2009/04/23 11:46:30.3     120   -300    158    324    360 158.2  27.9  34156  289.52 0855.24
2009/04/23 11:46:30.4      68   -239    103    249    269 164.0  23.8  34160  289.56 0855.24
2009/04/23 11:46:30.5      68   -309    139    317    346 167.5  25.2  34158  289.54 0855.24
2009/04/23 11:46:30.6     119   -261    106    287    305 155.5  21.0  34158  289.54 0855.24
2009/04/23 11:46:30.7     150   -321     56    355    360 155.0   9.0  34156  289.50 0855.24
2009/04/23 11:46:30.8     133   -293    167    323    363 155.5  29.3  34158  289.54 0855.24
2009/04/23 11:46:30.9      90   -352    198    364    414 165.6  31.0  34156  289.52 0855.24
2009/04/23 11:46:31.0      71   -329    158    337    372 167.7  27.1  34158  289.54 0855.24
2009/04/23 11:46:31.1      53   -223    160    230    280 166.6  38.0  34158  289.53 0855.24
2009/04/23 11:46:31.2      71   -327     58    335    341 167.6   9.9  34156  289.52 0855.24
2009/04/23 11:46:31.3     151   -334     72    367    375 155.6  11.1  34154  289.48 0855.24
2009/04/23 11:46:31.4     207   -356     74    413    420 149.8  10.2  34156  289.51 0855.24
2009/04/23 11:46:31.5     226   -340     62    409    414 146.3   8.7  34154  289.48 0855.24
2009/04/23 11:46:31.6     243   -313     80    397    405 142.2  11.5  34156  289.51 0855.24
2009/04/23 11:46:31.7     260   -177    114    315    336 124.2  19.9  34156  289.52 0855.24
2009/04/23 11:46:31.8     258   -147    198    297    356 119.7  36.9  34160  289.57 0855.24
2009/04/23 11:46:31.9     187   -199    141    274    308 136.8  29.3  34156  289.51 0855.24
2009/04/23 11:46:32.0     211   -134    170    251    303 122.4  37.4  34158  289.53 0855.24
2009/04/23 11:46:32.1     157   -160    101    225    246 135.7  25.9  34154  289.47 0855.24
2009/04/23 11:46:32.2     180   -148    149    234    277 129.5  35.5  34152  289.44 0855.24
2009/04/23 11:46:32.3     107   -114    163    157    226 136.8  51.2  34158  289.53 0855.24
2009/04/23 11:46:32.4      30      6    105     31    109  78.5  82.8  34162  289.62 0855.24
2009/04/23 11:46:32.5     157    -85    156    179    237 118.4  45.8  34156  289.50 0855.24
2009/04/23 11:46:32.6     143   -217    154    261    303 146.6  33.4  34158  289.54 0855.24
2009/04/23 11:46:32.7      95   -275    121    291    315 160.9  23.9  34154  289.46 0855.24
2009/04/23 11:46:32.8      57   -305    260    311    405 169.3  44.1  34156  289.52 0855.24
2009/04/23 11:46:32.9      59   -218    167    226    281 164.8  39.9  34156  289.51 0855.24
2009/04/23 11:46:33.0     106   -168    131    199    238 147.7  36.5  34152  289.43 0855.24
2009/04/23 11:46:33.1      16   -118    168    120    206 172.0  61.1  34154  289.48 0855.24
2009/04/23 11:46:33.2     128    -55    143    140    200 113.5  50.4  34152  289.43 0855.24
2009/04/23 11:46:33.3      43    -41    173     60    183 133.1  80.7  34154  289.46 0855.24
2009/04/23 11:46:33.4     -21    111     71    114    134 348.9  35.5  34156  289.52 0855.24
2009/04/23 11:46:33.5      70      5     78     71    105  85.7  52.7  34152  289.43 0855.24
2009/04/23 11:46:33.6      -4   -114    181    115    214 182.2  64.7  34158  289.53 0855.24
2009/04/23 11:46:33.7      35    -61    143     71    159 150.1  71.7  34166  289.67 0855.24
2009/04/23 11:46:33.8     -32   -146    158    150    217 192.5  52.0  34162  289.62 0855.24
2009/04/23 11:46:33.9     -53   -171     96    180    204 197.2  30.6  34158  289.55 0855.24
2009/04/23 11:46:34.0     -56   -101    -36    116    121 209.0 -22.3  34156  289.50 0855.24
2009/04/23 11:46:34.1      65    -12   -123     67    140 100.6 -73.3  34160  289.58 0855.24
2009/04/23 11:46:34.2       6     16   -110     18    111  21.8 -90.0  34158  289.55 0855.24
2009/04/23 11:46:34.3    -112    -24   -101    115    153 257.6 -50.3  34154  289.48 0855.24
2009/04/23 11:46:34.4     -31   -151   -125    155    199 191.6 -47.7  34154  289.46 0855.24
2009/04/23 11:46:34.5     -30   -257   -132    259    290 186.7 -33.6  34150  289.39 0855.24
2009/04/23 11:46:34.6      16   -347    -27    348    350 177.2  -4.5  34154  289.47 0855.24
2009/04/23 11:46:34.7      66   -282     27    290    292 166.7   5.4  34154  289.46 0855.24
2009/04/23 11:46:34.8    -134   -363    -34    388    390 200.3  -5.1  34152  289.42 0855.24
2009/04/23 11:46:34.9    -206   -213    -27    297    299 224.1  -5.4  34146  289.34 0855.24
2009/04/23 11:46:35.0    -165     54    -67    174    186 288.4 -26.7  34152  289.43 0855.24
2009/04/23 11:46:35.1     -26    -97     67    101    121 195.1  37.0  34158  289.53 0855.24
2009/04/23 11:46:35.2    -152   -102    -17    184    185 236.0  -5.4  34158  289.53 0855.24
2009/04/23 11:46:35.3     -94    -18     15     96     98 259.0   9.0  34144  289.31 0855.23
2009/04/23 11:46:35.4     -84   -102    132    133    187 219.7  50.0  34158  289.55 0855.23
2009/04/23 11:46:35.5     -63   -145    218    159    269 203.6  60.5  34162  289.59 0855.23
2009/04/23 11:46:35.6     -49   -124    154    134    204 201.8  54.3  34164  289.63 0855.23
2009/04/23 11:46:35.7     -58   -216    -12    224    225 195.1  -3.2  34156  289.52 0855.23
2009/04/23 11:46:35.8    -115   -225     49    253    258 207.1  11.1  34156  289.49 0855.23
2009/04/23 11:46:35.9    -118   -283    -12    307    308 202.7  -2.2  34154  289.47 0855.23
2009/04/23 11:46:36.0     -51   -236    -22    242    244 192.3  -5.2  34156  289.49 0855.23
2009/04/23 11:46:36.1     -45   -199    -95    205    225 192.9 -31.5  34154  289.48 0855.23
2009/04/23 11:46:36.2     -80   -253   -113    266    289 197.6 -29.0  34148  289.36 0855.23
2009/04/23 11:46:36.3       7   -248   -133    249    282 178.2 -34.7  34148  289.37 0855.23
2009/04/23 11:46:36.4      47   -282   -102    287    305 170.4 -19.7  34150  289.41 0855.23
2009/04/23 11:46:36.5      19   -253    -70    254    263 175.5 -20.2  34152  289.42 0855.23
2009/04/23 11:46:36.6     -65   -176    -17    188    189 200.5  -5.2  34156  289.50 0855.23
2009/04/23 11:46:36.7     -84   -132      4    157    158 212.5   1.8  34152  289.45 0855.23
2009/04/23 11:46:36.8    -116    -76    -42    140    147 236.7 -16.6  34156  289.50 0855.23
2009/04/23 11:46:36.9    -218    -62    -46    227    232 254.1 -11.6  34156  289.50 0855.23
2009/04/23 11:46:37.0    -231     38     24    235    237 279.5   5.9  34154  289.47 0855.23
2009/04/23 11:46:37.1    -209     38    -27    213    215 280.4  -7.3  34154  289.46 0855.23
2009/04/23 11:46:37.2    -157     67    -11    171    172 293.1  -3.9  34154  289.46 0855.23
2009/04/23 11:46:37.3    -194     52    -77    201    215 285.1 -26.1  34164  289.63 0855.23
2009/04/23 11:46:37.4    -141     -3     43    142    149 268.7  16.8  34152  289.45 0855.23
2009/04/23 11:46:37.5    -194      0    -61    195    205 269.9 -17.6  34156  289.52 0855.23
2009/04/23 11:46:37.6    -175     -9     57    176    186 267.0  17.9  34154  289.48 0855.23
2009/04/23 11:46:37.7    -230    -35    107    233    256 261.2  26.4  34164  289.64 0855.23
2009/04/23 11:46:37.8    -354      2    -13    355    356 270.4  -2.2  34172  289.77 0855.23
2009/04/23 11:46:37.9    -218      0   -127    219    253 270.0 -37.1  34166  289.66 0855.23
2009/04/23 11:46:38.0    -174     13    -49    175    181 274.4 -20.2  34170  289.75 0855.23
2009/04/23 11:46:38.1    -159     -7    -32    160    164 267.2 -11.3  34166  289.67 0855.23
2009/04/23 11:46:38.2    -251    -38    -28    254    256 261.2  -6.5  34168  289.71 0855.23
2009/04/23 11:46:38.3    -261    -34    -34    264    267 262.5  -7.3  34164  289.64 0855.23
2009/04/23 11:46:38.4    -136      6     37    137    142 272.6  15.2  34162  289.60 0855.23
2009/04/23 11:46:38.5     -43      6    -40     44     59 278.8 -52.3  34160  289.58 0855.23
2009/04/23 11:46:38.6     -55    -42    -79     70    105 232.2 -58.1  34154  289.46 0855.23
2009/04/23 11:46:38.7    -182     32     30    185    188 280.1   9.3  34164  289.65 0855.23
2009/04/23 11:46:38.8    -245     34     66    248    257 277.9  15.0  34168  289.70 0855.23
2009/04/23 11:46:38.9    -263    -92     39    279    282 250.7   8.0  34164  289.63 0855.23
2009/04/23 11:46:39.0    -335   -103     -7    351    352 252.9  -1.3  34148  289.37 0855.23
2009/04/23 11:46:39.1    -344   -108    -61    361    367 252.5  -9.7  34122  288.93 0855.23
2009/04/23 11:46:39.2    -349    -83   -116    359    378 256.5 -18.0  34126  289.01 0855.23
2009/04/23 11:46:39.3    -360    -32   -134    362    386 264.8 -25.5  34132  289.10 0855.23
2009/04/23 11:46:39.4    -547    -16   -222    548    591 268.3 -27.6  34136  289.15 0855.23
2009/04/23 11:46:39.5    -566     58   -183    569    597 275.9 -22.9  34134  289.14 0855.23
2009/04/23 11:46:39.6    -502    -55   -213    506    549 263.7 -28.6  34142  289.26 0855.23
2009/04/23 11:46:39.7    -493   -119   -189    508    542 256.4 -25.7  34136  289.16 0855.23
2009/04/23 11:46:39.8    -611   -133   -261    626    678 257.7 -28.5  34132  289.10 0855.23
2009/04/23 11:46:39.9    -559    -93   -219    567    607 260.5 -26.7  34134  289.12 0855.23
2009/04/23 11:46:40.0    -523      0   -274    524    591 270.0 -34.3  34142  289.25 0855.23
2009/04/23 11:46:40.1    -501     62   -228    505    554 277.1 -30.4  34156  289.50 0855.23
2009/04/23 11:46:40.2    -404    116   -212    421    471 286.0 -33.1  34168  289.70 0855.23
2009/04/23 11:46:40.3    -278    131   -170    308    351 295.2 -35.8  34166  289.69 0855.23
2009/04/23 11:46:40.4    -279    132   -131    309    335 295.4 -28.7  34148  289.37 0855.23
2009/04/23 11:46:40.5    -108     49   -106    119    159 294.8 -51.0  34152  289.45 0855.23
2009/04/23 11:46:40.6     -38     40    -47     56     73 315.9 -48.2  34162  289.60 0855.23
2009/04/23 11:46:40.7    -190     38     69    194    207 281.4  19.6  34168  289.72 0855.23
2009/04/23 11:46:40.8    -231    152    -65    277    285 303.3 -13.3  34162  289.61 0855.23
2009/04/23 11:46:40.9    -292    218     14    365    366 306.8   2.2  34156  289.52 0855.23
2009/04/23 11:46:41.0    -225    115    -46    253    258 297.1 -10.3  34158  289.54 0855.23
2009/04/23 11:46:41.1    -219     95    -89    239    255 293.5 -25.9  34152  289.44 0855.23
2009/04/23 11:46:41.2    -226    106    -69    250    260 295.2 -15.5  34154  289.47 0855.23
2009/04/23 11:46:41.3    -429    118   -145    446    470 285.4 -18.0  34146  289.34 0855.21
2009/04/23 11:46:41.4    -536    152   -186    558    588 285.9 -23.6  34144  289.29 0855.21
2009/04/23 11:46:41.5    -581    163   -162    604    626 285.7 -15.1  34146  289.33 0855.21
2009/04/23 11:46:41.6    -413    124   -194    432    473 286.8 -30.2  34148  289.38 0855.21
2009/04/23 11:46:41.7    -356    102   -289    371    470 286.1 -46.3  34140  289.24 0855.21
2009/04/23 11:46:41.8    -347    301   -222    460    510 310.9 -32.1  34142  289.27 0855.21
2009/04/23 11:46:41.9    -354    302   -233    466    521 310.5 -33.0  34146  289.32 0855.21
2009/04/23 11:46:42.0    -404    313   -251    512    570 307.8 -32.5  34146  289.35 0855.21
2009/04/23 11:46:42.1    -270    308   -307    410    512 318.7 -45.0  34148  289.37 0855.21
2009/04/23 11:46:42.2     -43    201   -267    206    337 347.7 -63.0  34148  289.36 0855.21
2009/04/23 11:46:42.3    -288    184   -262    343    431 302.6 -45.7  34140  289.22 0855.15
2009/04/23 11:46:42.4    -234    102   -334    256    420 293.6 -63.1  34148  289.37 0855.15
2009/04/23 11:46:42.5    -331    -55   -314    336    459 260.6 -52.3  34144  289.29 0855.15
2009/04/23 11:46:42.6    -224    -40   -329    228    400 259.9 -66.5  34150  289.40 0855.15
2009/04/23 11:46:42.7     -68   -311   -223    319    389 192.4 -42.8  34142  289.25 0855.15
2009/04/23 11:46:42.8      32   -446    -91    448    458 175.9 -11.6  34154  289.46 0855.15
2009/04/23 11:46:42.9     100   -329    -54    345    350 163.1  -9.0  34154  289.47 0855.15
2009/04/23 11:46:43.0     220   -298    -40    371    374 143.6  -6.2  34156  289.50 0855.15
2009/04/23 11:46:43.1     205   -274     64    343    349 143.3  10.6  34148  289.38 0855.15
2009/04/23 11:46:43.2     206   -169    -68    267    276 129.5 -14.3  34156  289.51 0855.15
2009/04/23 11:46:43.3     176   -176   -168    250    301 135.0 -41.7  34154  289.47 0855.15
2009/04/23 11:46:43.4     324   -209   -113    386    402 122.9 -21.0  34150  289.40 0855.15
2009/04/23 11:46:43.5     193   -179    -55    264    270 132.9 -11.9  34156  289.49 0855.15
2009/04/23 11:46:43.6     173   -143     28    225    227 129.6   7.1  34156  289.50 0855.15
2009/04/23 11:46:43.7     149     11     -3    150    151  85.7  -1.3  34148  289.36 0855.15
2009/04/23 11:46:43.8     132     44    187    140    233  71.4  59.8  34154  289.48 0855.15
2009/04/23 11:46:43.9      47     30    167     56    176  57.6  81.0  34160  289.57 0855.15
2009/04/23 11:46:44.0     150   -101    219    181    284 124.0  56.3  34156  289.51 0855.15
2009/04/23 11:46:44.1       4   -127    171    128    213 177.8  59.8  34162  289.62 0855.15
2009/04/23 11:46:44.2    -202   -178    191    270    330 228.7  38.6  34158  289.53 0855.15
2009/04/23 11:46:44.3    -283   -205    177    350    392 234.1  28.9  34162  289.62 0855.16
2009/04/23 11:46:44.4    -236   -324    269    402    483 216.1  37.0  34156  289.51 0855.16
2009/04/23 11:46:44.5     -44   -486    234    489    542 185.2  27.3  34156  289.50 0855.16
2009/04/23 11:46:44.6     113   -418    258    434    504 164.8  33.5  34160  289.56 0855.16
2009/04/23 11:46:44.7      52   -240    274    246    368 167.6  53.6  34158  289.54 0855.16
2009/04/23 11:46:44.8      70   -244    213    254    331 163.9  44.3  34158  289.54 0855.16
2009/04/23 11:46:44.9     -16   -143    201    144    247 186.7  61.1  34154  289.46 0855.16
2009/04/23 11:46:45.0      42   -125    189    132    230 161.3  61.8  34156  289.52 0855.16
2009/04/23 11:46:45.1       5    -76    200     77    214 175.6  78.4  34158  289.55 0855.16
2009/04/23 11:46:45.2      23    -42    166     49    173 151.0  83.1  34164  289.65 0855.16
2009/04/23 11:46:45.3      -9     65    152     66    165 352.0  75.3  34168  289.72 0855.16
2009/04/23 11:46:45.4      -3    123    159    124    201 358.2  58.4  34162  289.60 0855.16
2009/04/23 11:46:45.5      27    151    190    154    244  10.2  56.6  34158  289.55 0855.16
2009/04/23 11:46:45.6    -114     67    120    133    179 300.7  47.1  34160  289.57 0855.16
2009/04/23 11:46:45.7    -185     67    104    197    222 290.0  30.3  34150  289.41 0855.16
2009/04/23 11:46:45.8    -125   -243    214    274    347 207.2  42.1  34154  289.46 0855.16
2009/04/23 11:46:45.9    -121   -265    140    292    323 204.5  27.3  34152  289.42 0855.16
2009/04/23 11:46:46.0     -68   -303     80    311    322 192.7  14.4  34148  289.37 0855.16
2009/04/23 11:46:46.1     -43   -307    167    311    353 188.1  30.6  34152  289.43 0855.16
2009/04/23 11:46:46.2      99   -283    126    301    326 160.6  24.1  34148  289.36 0855.16
2009/04/23 11:46:46.3      45   -264    130    268    297 170.2  27.8  34148  289.37 0855.18
2009/04/23 11:46:46.4      95   -222    155    242    287 156.8  35.6  34146  289.34 0855.18
2009/04/23 11:46:46.5     133   -224    129    261    291 149.3  28.2  34144  289.31 0855.18
2009/04/23 11:46:46.6     128   -248    157    280    321 152.6  31.9  34142  289.25 0855.18
2009/04/23 11:46:46.7      19   -188    142    189    236 174.2  40.7  34150  289.41 0855.18
2009/04/23 11:46:46.8      30   -123    138    127    187 166.2  52.5  34148  289.36 0855.18
2009/04/23 11:46:46.9      55    -51    106     76    130 133.1  60.6  34148  289.36 0855.18
2009/04/23 11:46:47.0      54    -42    102     69    123 127.8  62.7  34146  289.35 0855.18
2009/04/23 11:46:47.1     -19     30     63     36     72 327.5  68.8  34150  289.41 0855.18
2009/04/23 11:46:47.2     125     29    125    129    179  76.7  49.2  34150  289.40 0855.18
2009/04/23 11:46:47.3     190     81     55    207    215  66.9  15.0  34172  289.79 0855.18
2009/04/23 11:46:47.4     195     78     -5    211    212  68.2  -1.6  34180  289.91 0855.18
2009/04/23 11:46:47.5      59    -32    -13     68     70 118.8 -11.5  34188  290.06 0855.18
2009/04/23 11:46:47.6     214     16    111    215    241  85.6  29.5  34206  290.36 0855.18
2009/04/23 11:46:47.7      63      0    130     64    144  90.0  71.9  34202  290.30 0855.18
2009/04/23 11:46:47.8      26     26     54     37     65  45.1  62.6  34200  290.26 0855.18
2009/04/23 11:46:47.9      -9     31     82     33     88 343.1  77.1  34192  290.13 0855.18
2009/04/23 11:46:48.0    -114     59     14    129    130 297.5   6.5  34196  290.18 0855.18
2009/04/23 11:46:48.1     -75    150    -21    169    171 333.3  -7.3  34182  289.96 0855.18
2009/04/23 11:46:48.2      58    183      9    192    193  17.6   2.9  34188  290.06 0855.18
2009/04/23 11:46:48.3     234    164    -81    286    298  54.9 -15.8  34192  290.12 0855.20
2009/04/23 11:46:48.4     398    158    -16    429    430  68.3  -2.2  34178  289.88 0855.20
2009/04/23 11:46:48.5     386    239   -162    455    484  58.2 -19.6  34170  289.73 0855.20
2009/04/23 11:46:48.6     366    181    -15    409    410  63.7  -2.2  34178  289.87 0855.20
2009/04/23 11:46:48.7     439    212   -124    488    504  64.2 -14.3  34168  289.71 0855.20
2009/04/23 11:46:48.8     487    127     42    504    506  75.4   4.9  34186  290.01 0855.20
2009/04/23 11:46:48.9     489    157    -10    514    515  72.2  -1.2  34176  289.83 0855.20
2009/04/23 11:46:49.0     456     34    -57    458    462  85.6  -7.2  34160  289.58 0855.20
2009/04/23 11:46:49.1     481    113    -70    495    501  76.8  -8.1  34168  289.71 0855.20
2009/04/23 11:46:49.2     365     10    -28    366    367  88.3  -4.4  34158  289.55 0855.20
2009/04/23 11:46:49.3     283    -56     79    289    300 101.2  15.3  34158  289.53 0855.20
2009/04/23 11:46:49.4     346    -15     43    347    350  92.6   7.1  34156  289.52 0855.20
2009/04/23 11:46:49.5     418     77    149    426    451  79.5  20.0  34164  289.63 0855.20
2009/04/23 11:46:49.6     344     35     39    346    349  84.1   6.6  34164  289.65 0855.20
2009/04/23 11:46:49.7     343    -39    136    346    371  96.5  22.9  34162  289.59 0855.20
2009/04/23 11:46:49.8     293    -13    144    294    327  92.6  28.0  34156  289.51 0855.20
2009/04/23 11:46:49.9     239    -40    275    243    366  99.7  54.2  34162  289.62 0855.20
2009/04/23 11:46:50.0     271   -138    204    305    366 117.1  37.0  34160  289.57 0855.20
2009/04/23 11:46:50.1     181    -60     63    191    202 108.6  18.4  34160  289.58 0855.20
2009/04/23 11:46:50.2     126   -131    144    182    232 136.1  42.4  34154  289.48 0855.20
2009/04/23 11:46:50.3     160   -141     81    214    228 131.3  21.5  34154  289.48 0855.21
2009/04/23 11:46:50.4     194   -177     67    263    272 132.3  14.3  34150  289.39 0855.21
2009/04/23 11:46:50.5     254   -101    106    274    293 111.8  22.3  34158  289.53 0855.21
2009/04/23 11:46:50.6     322   -165     92    363    375 117.2  14.3  34162  289.59 0855.21
2009/04/23 11:46:50.7     218   -205    140    300    331 133.3  26.9  34162  289.59 0855.21
2009/04/23 11:46:50.8     192   -188    158    269    311 134.4  33.4  34160  289.58 0855.21
2009/04/23 11:46:50.9     209   -142    209    253    328 124.2  43.7  34162  289.61 0855.21
2009/04/23 11:46:51.0     301   -192    104    358    373 122.6  16.3  34154  289.48 0855.21
2009/04/23 11:46:51.1     241   -130    154    275    315 118.4  31.7  34156  289.49 0855.21
2009/04/23 11:46:51.2     252   -182    157    311    348 125.9  28.7  34158  289.54 0855.21
2009/04/23 11:46:51.3     208   -172    246    271    366 129.6  46.9  34160  289.57 0855.21
2009/04/23 11:46:51.4      60    -47    161     77    178 127.8  72.8  34160  289.58 0855.21
2009/04/23 11:46:51.5      40    -12    141     42    147 106.8  82.8  34164  289.63 0855.21
2009/04/23 11:46:51.6      -4    -52    175     53    182 184.5  82.5  34166  289.69 0855.21
2009/04/23 11:46:51.7       7     -7    182     11    182 135.0  90.0  34166  289.69 0855.21
2009/04/23 11:46:51.8      10    -62    161     63    172 170.2  77.8  34166  289.69 0855.21
2009/04/23 11:46:51.9      26     56    162     62    173  25.4  78.4  34170  289.74 0855.21
2009/04/23 11:46:52.0     -23   -209    285    211    354 186.5  60.0  34160  289.56 0855.21
2009/04/23 11:46:52.1     -19   -137    211    139    252 188.1  63.6  34150  289.40 0855.21
2009/04/23 11:46:52.2     168    -84    213    188    284 116.6  54.3  34160  289.56 0855.21
2009/04/23 11:46:52.3      26     23    193     35    196  48.7  90.0  34162  289.60 0855.21
2009/04/23 11:46:52.4      -9   -121    235    122    264 184.4  70.8  34162  289.62 0855.21
2009/04/23 11:46:52.5    -107   -135    229    173    287 218.5  59.2  34168  289.70 0855.21
2009/04/23 11:46:52.6    -144   -190    182    239    300 217.2  41.2  34158  289.53 0855.21
2009/04/23 11:46:52.7     -65   -176    201    188    275 200.5  52.2  34172  289.76 0855.21
2009/04/23 11:46:52.8      -5   -140    214    141    256 182.2  63.6  34172  289.77 0855.21
2009/04/23 11:46:52.9     -81   -162    227    182    290 206.7  57.1  34176  289.85 0855.21
2009/04/23 11:46:53.0     -79   -171    177    189    258 204.7  48.0  34176  289.85 0855.21
2009/04/23 11:46:53.1     -64   -221    191    231    299 196.3  43.8  34158  289.54 0855.21
2009/04/23 11:46:53.2     -42   -198    230    203    306 192.0  54.2  34156  289.49 0855.21
2009/04/23 11:46:53.3     -22   -128    267    130    296 189.8  72.4  34158  289.54 0855.21
2009/04/23 11:46:53.4     -33   -142    266    146    303 193.3  68.9  34154  289.47 0855.21
2009/04/23 11:46:53.5       0    -31    199     32    201 179.1  90.0  34156  289.52 0855.21
2009/04/23 11:46:53.6      17      7    124     19    125  68.3  90.0  34162  289.60 0855.21
2009/04/23 11:46:53.7      30     -9    195     32    197 108.2  90.0  34152  289.43 0855.21
2009/04/23 11:46:53.8     -11   -186    244    187    307 183.4  58.5  34158  289.53 0855.21
2009/04/23 11:46:53.9       4    -98    205     99    227 177.3  72.8  34160  289.57 0855.21
2009/04/23 11:46:54.0       9    -86    187     87    206 173.8  73.2  34154  289.46 0855.21
2009/04/23 11:46:54.1       8     65    176     66    187   7.1  78.6  34162  289.62 0855.21
2009/04/23 11:46:54.2     -33   -101    182    107    211 198.5  66.8  34164  289.63 0855.21
2009/04/23 11:46:54.3     -52     33    164     62    175 302.4  78.9  34170  289.74 0855.20
2009/04/23 11:46:54.4      27     12    124     30    127  64.8  86.9  34166  289.67 0855.20
2009/04/23 11:46:54.5      53    -16    138     56    148 106.8  77.0  34166  289.69 0855.20
2009/04/23 11:46:54.6     -34    -17    172     39    176 242.9  87.7  34174  289.80 0855.20
2009/04/23 11:46:54.8     -72      8    156     73    172 277.0  73.2  34170  289.74 0855.20
2009/04/23 11:46:54.9     -31     31    115     44    123 315.0  78.6  34172  289.77 0855.20
2009/04/23 11:46:54.9       5    -17    108     18    109 161.3  90.0  34168  289.70 0855.20
2009/04/23 11:46:55.1      94    -50     95    107    143 118.0  46.4  34164  289.63 0855.20
2009/04/23 11:46:55.2     162      5    109    163    196  87.9  37.4  34160  289.57 0855.20
2009/04/23 11:46:55.3     149     30    123    153    196  78.5  43.3  34164  289.65 0855.20
2009/04/23 11:46:55.4     118     39    123    125    175  71.4  50.2  34176  289.85 0855.20
2009/04/23 11:46:55.5     160     94    101    186    211  59.6  30.8  34190  290.08 0855.20
2009/04/23 11:46:55.6     129     95     98    161    188  53.6  34.4  34200  290.25 0855.20
2009/04/23 11:46:55.7     138     99    168    171    239  54.3  49.8  34228  290.72 0855.20
2009/04/23 11:46:55.8     131     96    127    163    206  53.8  42.0  34192  290.11 0855.20
2009/04/23 11:46:55.9     171     71     84    186    204  67.4  25.9  34164  289.65 0855.20
2009/04/23 11:46:56.0     165     98     56    193    202  59.3  16.3  34166  289.69 0855.20
2009/04/23 11:46:56.1     101    100     99    143    173  45.1  37.8  34184  289.99 0855.20
2009/04/23 11:46:56.2      91     46    115    103    154  62.9  53.7  34166  289.67 0855.20
2009/04/23 11:46:56.3      71     61     89     94    129  49.1  48.5  34156  289.50 0855.20
2009/04/23 11:46:56.4      67     67     64     95    114  45.0  36.5  34152  289.43 0855.20
2009/04/23 11:46:56.5      44     47     39     65     75  43.3  35.5  34154  289.48 0855.20
2009/04/23 11:46:56.6      10     22     28     25     37  23.6  52.2  34154  289.46 0855.20
2009/04/23 11:46:56.7      -1      0     48      2     48 270.0  90.0  34162  289.60 0855.20
2009/04/23 11:46:56.8     -18     39     42     44     60 334.6  49.0  34168  289.70 0855.20
2009/04/23 11:46:56.9     -70     71     41    100    108 315.5  23.0  34156  289.50 0855.20
2009/04/23 11:46:57.0     -76    125     80    147    167 328.8  30.6  34158  289.55 0855.20
2009/04/23 11:46:57.1    -107    145     21    181    183 323.7   6.7  34156  289.52 0855.20
2009/04/23 11:46:57.2    -167     84    -67    188    199 296.9 -24.8  34174  289.80 0855.20
2009/04/23 11:46:57.3    -113    142    -51    182    189 321.5 -20.2  34170  289.74 0855.20
2009/04/23 11:46:57.4     -82    160   -127    180    220 332.8 -43.2  34162  289.62 0855.20
2009/04/23 11:46:57.5     -67     85    -60    109    124 321.7 -35.8  34144  289.31 0855.20
2009/04/23 11:46:57.6     -96    150     33    179    183 327.5  10.6  34160  289.58 0855.20
2009/04/23 11:46:57.7    -180     55     -5    189    190 287.1  -1.6  34172  289.77 0855.20
2009/04/23 11:46:57.8    -202    101    -71    226    236 296.6 -22.5  34160  289.56 0855.20
2009/04/23 11:46:57.9    -217    -58   -160    225    276 254.9 -43.2  34152  289.44 0855.20
2009/04/23 11:46:58.0     -77    -46   -145     90    170 238.9 -69.5  34154  289.46 0855.20
2009/04/23 11:46:58.1     -79    150     -5    170    171 332.1  -1.8  34152  289.43 0855.20
2009/04/23 11:46:58.2     -28     74     80     80    113 339.1  50.1  34154  289.48 0855.20
2009/04/23 11:46:58.3    -102     79    104    130    166 307.8  43.3  34156  289.50 0855.20
2009/04/23 11:46:58.4    -107     -8      9    108    109 265.6   4.9  34156  289.50 0855.19
2009/04/23 11:46:58.5       5     76     10     77     78   4.4   7.5  34158  289.53 0855.19
2009/04/23 11:46:58.6       4     71    107     72    128   3.6  63.2  34168  289.72 0855.19
2009/04/23 11:46:58.7     -54     87     64    103    121 328.4  35.0  34170  289.74 0855.19
2009/04/23 11:46:58.8      26     56     55     62     82  25.4  46.4  34168  289.70 0855.19
2009/04/23 11:46:58.9      23     59     72     64     96  21.9  53.7  34178  289.89 0855.19
2009/04/23 11:46:59.0     -12    157     99    158    186 355.6  35.5  34172  289.79 0855.19
2009/04/23 11:46:59.1       1    199     90    200    219   0.5  25.9  34204  290.33 0855.19
2009/04/23 11:46:59.2     -66    196    134    208    247 341.3  35.7  34212  290.44 0855.19
2009/04/23 11:46:59.3     -66    160     82    174    192 337.7  27.1  34208  290.40 0855.19
2009/04/23 11:46:59.4    -115    131     79    175    192 318.6  26.2  34196  290.18 0855.19
2009/04/23 11:46:59.5    -117    178     33    214    217 326.6   8.9  34228  290.72 0855.19
2009/04/23 11:46:59.6    -180    153     85    237    251 310.4  20.4  34254  291.17 0855.19
2009/04/23 11:46:59.7    -249     26    142    251    288 276.1  32.1  34236  290.85 0855.19
2009/04/23 11:46:59.8    -169   -107    136    201    242 237.6  37.3  34188  290.06 0855.19
2009/04/23 11:46:59.9    -103   -109    132    151    200 223.3  45.8  34166  289.67 0855.19
2009/04/23 11:47:00.0     -72   -164    131    180    222 203.6  39.7  34170  289.75 0855.19
2009/04/23 11:47:00.1    -132   -180    110    224    249 216.1  28.2  34162  289.59 0855.19
2009/04/23 11:47:00.2     -99   -130     29    164    167 217.2  10.3  34162  289.62 0855.19
2009/04/23 11:47:00.3     -84   -132     33    157    161 212.5  12.0  34166  289.67 0855.19
2009/04/23 11:47:00.4      -2   -153     27    154    157 181.0  10.1  34156  289.50 0855.17
2009/04/23 11:47:00.5      12   -158     54    159    169 175.6  18.9  34162  289.62 0855.17
2009/04/23 11:47:00.6      14   -154     56    155    164 174.7  20.2  34162  289.60 0855.17
2009/04/23 11:47:00.7      18   -166     76    168    184 173.8  26.2  34166  289.67 0855.17
2009/04/23 11:47:00.8      62   -210    112    220    246 163.5  29.2  34164  289.63 0855.17
2009/04/23 11:47:00.9      37   -193    117    197    229 169.1  33.5  34174  289.80 0855.17
2009/04/23 11:47:01.0       3   -214    122    215    247 179.1  32.3  34184  289.97 0855.17
2009/04/23 11:47:01.1      22   -182    131    184    225 172.9  39.3  34182  289.96 0855.17
2009/04/23 11:47:01.2      68   -141    164    157    227 154.1  51.6  34174  289.82 0855.17
2009/04/23 11:47:01.3      -8    -62    159     63    171 188.1  77.4  34164  289.63 0855.17
2009/04/23 11:47:01.4    -128   -201    163    239    289 212.6  37.6  34204  290.32 0855.17
2009/04/23 11:47:01.5     -82   -185     80    203    218 203.8  22.8  34206  290.36 0855.17
2009/04/23 11:47:01.6    -135   -179    171    225    282 217.0  41.2  34184  289.98 0855.17
2009/04/23 11:47:01.7    -117   -147    179    188    259 218.5  48.7  34168  289.70 0855.17
2009/04/23 11:47:01.8    -102    -84    127    133    183 230.5  49.0  34172  289.77 0855.17
2009/04/23 11:47:01.9    -207   -107    166    234    286 242.7  38.8  34162  289.61 0855.17
2009/04/23 11:47:02.0    -234   -170    153    290    327 234.0  30.1  34176  289.83 0855.17
2009/04/23 11:47:02.1    -197   -139    155    242    287 234.7  35.6  34168  289.71 0855.17
2009/04/23 11:47:02.2    -247   -153    121    291    315 238.2  23.9  34200  290.26 0855.17
2009/04/23 11:47:02.3    -174   -159     50    236    242 227.6  12.2  34194  290.15 0855.17
2009/04/23 11:47:02.4    -113   -221    106    249    270 207.1  24.3  34194  290.15 0855.17
2009/04/23 11:47:02.5    -168   -157     91    231    248 226.9  22.5  34184  289.98 0855.17
2009/04/23 11:47:02.6    -144   -142     79    203    217 225.3  22.5  34162  289.62 0855.17
2009/04/23 11:47:02.7    -172   -104    103    202    226 238.7  29.1  34164  289.63 0855.17
2009/04/23 11:47:02.8    -140    -58     80    152    171 247.4  29.8  34168  289.72 0855.17
2009/04/23 11:47:02.9     -47    -75      8     89     90 212.1   5.4  34168  289.70 0855.17
2009/04/23 11:47:03.0       7   -136     17    137    139 176.9   7.1  34178  289.89 0855.17
2009/04/23 11:47:03.1      67    -13    115     69    134 101.5  65.7  34186  290.02 0855.17
2009/04/23 11:47:03.2      32     29    120     44    127  47.8  79.2  34188  290.04 0855.17
2009/04/23 11:47:03.3     -57    -81    154    100    183 215.2  64.4  34188  290.06 0855.17
2009/04/23 11:47:03.4       4    -86    179     87    199 177.3  72.4  34180  289.91 0855.16
2009/04/23 11:47:03.5     -62     30    196     70    208 296.2  79.7  34180  289.92 0855.16
2009/04/23 11:47:03.6    -146     94    126    174    214 302.9  39.5  34182  289.96 0855.16
2009/04/23 11:47:03.7     -40     58     28     71     76 324.8  22.0  34182  289.96 0855.16
2009/04/23 11:47:03.8     -25     55    107     61    123 335.5  67.2  34182  289.96 0855.16
2009/04/23 11:47:03.9     -44     60     25     75     80 324.0  18.9  34180  289.91 0855.16
2009/04/23 11:47:04.0     -14    -22     33     27     42 212.5  55.4  34190  290.08 0855.16
2009/04/23 11:47:04.1      -7    -99    114    100    151 184.5  54.3  34180  289.91 0855.16
2009/04/23 11:47:04.2     -51    -80     66     96    116 212.5  37.6  34178  289.89 0855.16
2009/04/23 11:47:04.3     -10    -54     60     55     81 190.7  52.7  34180  289.92 0855.16
2009/04/23 11:47:04.4    -105    -31     79    110    135 253.6  39.1  34174  289.80 0855.16
2009/04/23 11:47:04.5     -30    -65     94     72    118 205.4  58.5  34176  289.84 0855.16
2009/04/23 11:47:04.6     -42    -66     23     79     83 212.5  16.8  34172  289.79 0855.16
2009/04/23 11:47:04.7     -72    -62     53     96    109 229.1  31.4  34162  289.60 0855.16
2009/04/23 11:47:04.8    -113    -39     -4    120    121 250.9  -2.2  34168  289.70 0855.16
2009/04/23 11:47:04.9    -125    -13     10    126    127 263.9   4.9  34184  289.99 0855.16
2009/04/23 11:47:05.0    -152     98     68    182    194 302.9  21.3  34180  289.91 0855.16
2009/04/23 11:47:05.1    -126    144    124    192    228 318.8  35.6  34170  289.75 0855.16
2009/04/23 11:47:05.2     -55    203    140    211    253 344.9  36.5  34186  290.00 0855.16
2009/04/23 11:47:05.3     -20    173    168    175    242 353.3  49.0  34198  290.21 0855.16
2009/04/23 11:47:05.4     -55    194    107    202    228 344.0  30.1  34206  290.35 0855.16
2009/04/23 11:47:05.5    -161    116    102    199    223 305.7  29.3  34190  290.08 0855.16
2009/04/23 11:47:05.6    -204     80     65    220    230 291.5  16.6  34180  289.92 0855.16
2009/04/23 11:47:05.7    -260     37    -23    263    265 278.1  -5.2  34186  290.00 0855.16
2009/04/23 11:47:05.8    -193     79     38    209    213 292.4  10.3  34184  289.99 0855.16
2009/04/23 11:47:05.9    -166    157     85    229    244 313.3  21.0  34180  289.92 0855.16
2009/04/23 11:47:06.0    -213    245     59    325    331 319.0  10.4  34176  289.84 0855.16
2009/04/23 11:47:06.1    -209    216     45    301    305 315.9   8.5  34182  289.93 0855.16
2009/04/23 11:47:06.2    -212    205     37    296    299 314.0   7.2  34190  290.09 0855.16
2009/04/23 11:47:06.3    -205    232     32    310    312 318.6   6.0  34196  290.19 0855.16
2009/04/23 11:47:06.4    -201    177     23    269    271 311.4   5.0  34196  290.17 0855.16
2009/04/23 11:47:06.5    -182    146     88    234    250 308.9  21.5  34202  290.29 0855.16
2009/04/23 11:47:06.6    -206     90     73    226    238 293.7  17.9  34202  290.27 0855.16
2009/04/23 11:47:06.7    -246     87     56    261    268 289.5  12.1  34198  290.22 0855.16
2009/04/23 11:47:06.8    -205    -29     19    208    209 261.9   5.4  34180  289.92 0855.16
2009/04/23 11:47:06.9    -192    -38    -31    196    199 258.6  -9.0  34194  290.16 0855.16
2009/04/23 11:47:07.0    -130     88     -5    158    159 304.2  -2.1  34184  289.99 0855.16
2009/04/23 11:47:07.1    -113    135      1    177    178 320.1   0.5  34178  289.89 0855.16
2009/04/23 11:47:07.2    -137    188     54    233    240 323.9  13.2  34140  289.24 0855.16
2009/04/23 11:47:07.3    -131    219     70    256    266 329.2  15.3  34134  289.14 0855.16
2009/04/23 11:47:07.4    -187    191     18    268    269 315.7   3.9  34150  289.39 0855.18
2009/04/23 11:47:07.5    -146    108     79    182    198 306.6  24.9  34178  289.89 0855.18
2009/04/23 11:47:07.6    -213    -26      7    215    216 263.0   2.1  34178  289.89 0855.18
2009/04/23 11:47:07.7    -173   -101    -33    201    204 239.6  -9.4  34182  289.94 0855.18
2009/04/23 11:47:07.8    -109   -136    -88    175    195 218.7 -33.1  34174  289.82 0855.18
2009/04/23 11:47:07.9     -49   -281     91    286    301 190.0  17.7  34176  289.85 0855.18
2009/04/23 11:47:08.0    -140   -293     17    325    326 205.6   3.1  34204  290.32 0855.18
2009/04/23 11:47:08.1    -199   -180    -34    269    272 227.8  -7.3  34208  290.37 0855.18
2009/04/23 11:47:08.2     -72   -220    -24    232    234 198.3  -6.0  34202  290.27 0855.18
2009/04/23 11:47:08.3     -41   -153    -47    159    165 195.2 -21.5  34200  290.25 0855.18
2009/04/23 11:47:08.4     -90   -174     22    197    199 207.4   6.5  34206  290.36 0855.18
2009/04/23 11:47:08.5    -140   -131      9    192    193 226.9   2.9  34204  290.31 0855.18
2009/04/23 11:47:08.6    -143    -57     26    155    158 248.2   9.5  34210  290.41 0855.18
2009/04/23 11:47:08.7    -166   -116      8    203    204 234.9   2.5  34210  290.43 0855.18
2009/04/23 11:47:08.8    -192    -79     13    208    209 247.6   3.6  34216  290.52 0855.18
2009/04/23 11:47:08.9    -183    -21     40    185    190 263.2  12.2  34214  290.48 0855.18
2009/04/23 11:47:09.0    -320   -150     67    354    361 244.9  10.7  34202  290.30 0855.18
2009/04/23 11:47:09.1    -544     72   -111    549    561 277.6 -11.5  34134  289.14 0855.18
2009/04/23 11:47:09.2    -527   -124    -46    542    545 256.8  -4.9  34178  289.89 0855.18
2009/04/23 11:47:09.3    -496   -286    -52    573    576 240.0  -5.2  34202  290.27 0855.18
2009/04/23 11:47:09.4    -393   -380    -93    547    555 226.0  -9.7  34194  290.14 0855.19
2009/04/23 11:47:09.5    -221   -336   -199    403    449 213.4 -32.6  34184  289.99 0855.19
2009/04/23 11:47:09.6    -238   -161   -407    288    498 235.9 -65.7  34172  289.78 0855.19
2009/04/23 11:47:09.7     144   -482   -257    504    565 163.3 -33.6  34154  289.46 0855.19
2009/04/23 11:47:09.8     481   -265    200    550    585 118.9  20.9  34178  289.88 0855.19
2009/04/23 11:47:09.9     288   -276    -72    400    407 133.8 -10.3  34174  289.80 0855.19
2009/04/23 11:47:10.0     348   -135     53    374    378 111.2   8.1  34172  289.79 0855.19
2009/04/23 11:47:10.1     339   -140    137    367    391 112.5  21.6  34176  289.84 0855.19
2009/04/23 11:47:10.2     278    -96    123    295    319 109.1  23.9  34182  289.95 0855.19
2009/04/23 11:47:10.3     223   -197    102    298    316 131.4  18.9  34174  289.81 0855.19
2009/04/23 11:47:10.4     183   -184    126    260    288 135.2  27.4  34180  289.90 0855.19
2009/04/23 11:47:10.5     100   -261     64    280    288 159.0  12.9  34170  289.73 0855.19
2009/04/23 11:47:10.6      26   -314     23    316    317 175.1   4.2  34148  289.37 0855.19
2009/04/23 11:47:10.7      -6   -165     31    166    169 182.2  10.8  34158  289.55 0855.19
2009/04/23 11:47:10.8    -136    -42    110    143    180 252.7  41.4  34164  289.65 0855.19
2009/04/23 11:47:10.9    -146     44    111    153    189 286.8  39.7  34162  289.60 0855.19
2009/04/23 11:47:11.0      -7     17   -133     19    134 338.2 -90.0  34158  289.53 0855.19
2009/04/23 11:47:11.1      65     37   -127     76    148  60.2 -71.1  34160  289.57 0855.19
2009/04/23 11:47:11.2     195    -27    -97    197    219  97.9 -32.4  34154  289.48 0855.19
2009/04/23 11:47:11.3     269     -8    -87    270    283  91.7 -23.0  34160  289.58 0855.19
2009/04/23 11:47:11.4     246    -65    -66    255    264 104.8 -14.5  34154  289.47 0855.19
2009/04/23 11:47:11.5     181   -212   -111    279    300 139.5 -27.4  34154  289.47 0855.19
2009/04/23 11:47:11.6     391   -320     94    506    515 129.3  10.6  34164  289.64 0855.19
2009/04/23 11:47:11.7     235   -476    -67    531    536 153.7  -7.2  34152  289.43 0855.19
2009/04/23 11:47:11.8     236   -468    -57    525    529 153.2  -6.2  34142  289.28 0855.19
2009/04/23 11:47:11.9     378   -360    127    523    539 133.6  13.7  34148  289.36 0855.19
2009/04/23 11:47:12.0     328   -390    299    510    591 139.9  33.1  34156  289.50 0855.19
2009/04/23 11:47:12.1     245   -223    309    332    453 132.3  47.9  34150  289.41 0855.19
2009/04/23 11:47:12.2      57     18    284     60    290  72.3  88.8  34150  289.41 0855.19
2009/04/23 11:47:12.3      58    -57    275     82    286 134.9  82.8  34160  289.58 0855.19
2009/04/23 11:47:12.4     113   -441    265    456    527 165.6  32.9  34160  289.57 0855.19
2009/04/23 11:47:12.5     179   -416    248    454    517 156.7  31.0  34156  289.49 0855.19
2009/04/23 11:47:12.6     210   -393    372    446    580 151.9  44.0  34160  289.57 0855.19
2009/04/23 11:47:12.7      91   -395    372    406    550 167.0  47.3  34160  289.57 0855.19
2009/04/23 11:47:12.8      42   -273    268    277    385 171.1  49.1  34158  289.55 0855.19
2009/04/23 11:47:12.9     213     -9    218    214    305  92.6  50.2  34144  289.29 0855.19
2009/04/23 11:47:13.0      90     30    246     96    264  71.4  77.6  34148  289.36 0855.19
2009/04/23 11:47:13.1     220    -26    367    222    428  96.8  66.2  34144  289.30 0855.19
2009/04/23 11:47:13.2     406   -120    214    424    474 106.5  28.9  34152  289.43 0855.19
2009/04/23 11:47:13.3     356     67    211    363    419  79.3  32.9  34124  288.96 0855.19
2009/04/23 11:47:13.4     193     79    443    209    489  67.6  73.1  34148  289.36 0855.21
2009/04/23 11:47:13.5     200    192    298    278    407  46.2  52.2  34148  289.38 0855.21
2009/04/23 11:47:13.6     233    183    187    297    350  51.8  35.3  34150  289.40 0855.21
2009/04/23 11:47:13.7     162    188    134    249    282  40.8  30.6  34148  289.37 0855.21
2009/04/23 11:47:13.8     156    221    182    271    326  35.2  37.0  34154  289.46 0855.21
2009/04/23 11:47:13.9     225    218    129    314    339  46.0  23.6  34146  289.35 0855.21
2009/04/23 11:47:14.0     200     73    197    214    290  70.0  47.7  34144  289.29 0855.21
2009/04/23 11:47:14.1      -7     38    111     39    117 348.5  80.2  34154  289.48 0855.21
2009/04/23 11:47:14.2      -6    -33    169     34    172 191.6  89.1  34160  289.57 0855.21
2009/04/23 11:47:14.3     112    134    301    175    348  39.9  67.2  34162  289.59 0855.21
2009/04/23 11:47:14.4      33     33    244     48    248  45.1  89.4  34160  289.58 0855.21
2009/04/23 11:47:14.5     111     17    223    113    249  81.2  71.1  34156  289.52 0855.21
2009/04/23 11:47:14.6      48    -46    174     67    186 134.1  77.8  34158  289.55 0855.21
2009/04/23 11:47:14.7     153    -50    158    162    226 108.2  49.4  34156  289.52 0855.21
2009/04/23 11:47:14.8     -16    -82    263     84    276 191.6  81.8  34160  289.58 0855.21
2009/04/23 11:47:14.9     104   -205    239    231    332 153.0  51.1  34158  289.53 0855.21
2009/04/23 11:47:15.0     115   -208    168    238    291 151.0  38.6  34164  289.64 0855.21
2009/04/23 11:47:15.1      87   -136    188    162    248 147.4  55.0  34168  289.72 0855.21
2009/04/23 11:47:15.2      55     -5    108     56    121  95.2  70.8  34172  289.77 0855.21
2009/04/23 11:47:15.3     -33   -140    174    144    225 193.4  56.3  34172  289.79 0855.21
2009/04/23 11:47:15.4       0   -164    186    165    248 180.2  54.0  34174  289.80 0855.22
2009/04/23 11:47:15.5      -2    -21    150     22    151 186.2  90.0  34182  289.96 0855.22
2009/04/23 11:47:15.6     -21     21    136     30    139 315.0  88.5  34182  289.94 0855.22
2009/04/23 11:47:15.7     -24     62    106     67    125 338.2  64.7  34174  289.82 0855.22
2009/04/23 11:47:15.8      74     89     74    116    137  39.6  35.6  34158  289.53 0855.22
2009/04/23 11:47:15.9      89    247    153    263    304  20.0  32.9  34154  289.46 0855.22
2009/04/23 11:47:16.0      25    238     85    240    254   6.2  20.0  34160  289.58 0855.22
2009/04/23 11:47:16.1      49     83    189     97    212  30.7  70.8  34166  289.67 0855.22
2009/04/23 11:47:16.2      82     39    202     92    221  64.2  74.0  34172  289.79 0855.22
2009/04/23 11:47:16.3       4     57    173     58    182   4.5  81.0  34170  289.74 0855.22
2009/04/23 11:47:16.4      32     27     74     43     85  49.6  67.2  34170  289.75 0855.22
2009/04/23 11:47:16.5      81    160      0    180    181  27.0   0.2  34160  289.57 0855.22
2009/04/23 11:47:16.6       9    211    -90    212    230   2.5 -29.0  34162  289.60 0855.22
2009/04/23 11:47:16.7      72    196    -50    210    216  20.3 -13.4  34160  289.58 0855.22
2009/04/23 11:47:16.8      18    263    -43    264    268   4.0  -9.4  34174  289.81 0855.22
2009/04/23 11:47:16.9      44    215     27    220    222  11.6   7.1  34160  289.57 0855.22
2009/04/23 11:47:17.0      16    141     70    142    158   6.7  28.2  34158  289.55 0855.22
2009/04/23 11:47:17.1      10     69     65     70     95   8.9  47.9  34160  289.58 0855.22
2009/04/23 11:47:17.2     -32     57     31     66     72 331.0  27.1  34150  289.41 0855.22
2009/04/23 11:47:17.3     -34      2     30     35     46 274.4  45.8  34156  289.50 0855.22
2009/04/23 11:47:17.4     -44    -28     32     53     61 237.6  34.4  34160  289.58 0855.21
2009/04/23 11:47:17.5     -17   -134     34    136    141 187.6  14.3  34162  289.60 0855.21
2009/04/23 11:47:17.6     -58   -192     49    201    208 196.9  13.9  34178  289.87 0855.21
2009/04/23 11:47:17.7     -86   -197    216    216    305 203.6  50.1  34188  290.05 0855.21
2009/04/23 11:47:17.8     -38   -190    103    194    219 191.5  30.3  34192  290.11 0855.21
2009/04/23 11:47:17.9       0   -148    -29    149    152 180.4 -11.3  34192  290.11 0855.21
2009/04/23 11:47:18.0     -43   -178    114    184    216 193.8  35.0  34182  289.96 0855.21
2009/04/23 11:47:18.1     -86   -113     50    143    152 217.4  19.4  34182  289.96 0855.21
2009/04/23 11:47:18.2     -73    -97    -40    122    129 217.0 -18.1  34174  289.82 0855.21
2009/04/23 11:47:18.3     -98    -98     28    139    142 225.1  11.6  34174  289.82 0855.21
2009/04/23 11:47:18.4     -84   -131     34    156    160 212.6  12.6  34172  289.79 0855.21
2009/04/23 11:47:18.5     -40   -203     53    208    215 191.3  14.3  34170  289.75 0855.21
2009/04/23 11:47:18.6    -124   -152     15    197    198 219.2   4.4  34172  289.79 0855.21
2009/04/23 11:47:18.7     -99    -93     21    137    139 226.9   9.0  34180  289.92 0855.21
2009/04/23 11:47:18.8    -110    -67      6    130    131 238.5   2.9  34186  290.01 0855.21
2009/04/23 11:47:18.9    -125    -65      3    141    142 242.5   1.2  34190  290.09 0855.21
2009/04/23 11:47:19.0    -144    -48    -49    152    159 251.4 -23.0  34188  290.04 0855.21
2009/04/23 11:47:19.1    -264    -62    -24    272    274 256.7  -5.1  34168  289.71 0855.21
2009/04/23 11:47:19.2    -240   -106    -91    263    278 246.0 -24.3  34172  289.78 0855.21
2009/04/23 11:47:19.3    -182   -160    -66    243    252 228.7 -15.2  34176  289.83 0855.21
2009/04/23 11:47:19.4    -203   -184    -26    274    276 227.8  -5.6  34176  289.83 0855.20
2009/04/23 11:47:19.5    -156   -140    -47    210    216 228.0 -12.6  34178  289.89 0855.20
2009/04/23 11:47:19.6     -81   -245    -70    259    269 198.3 -15.2  34170  289.75 0855.20
2009/04/23 11:47:19.7      34   -244    -45    247    252 171.9 -10.4  34164  289.63 0855.20
2009/04/23 11:47:19.8       9   -218    -74    219    232 177.5 -18.7  34162  289.62 0855.20
2009/04/23 11:47:19.9      52   -278    -79    283    293 169.3 -20.2  34156  289.51 0855.20
2009/04/23 11:47:20.0      74   -309    -46    318    322 166.4  -8.2  34154  289.47 0855.20
2009/04/23 11:47:20.1     100   -259    -50    278    283 158.8 -10.4  34156  289.51 0855.20
2009/04/23 11:47:20.2      78   -269     22    281    282 163.9   4.6  34162  289.59 0855.20
2009/04/23 11:47:20.3      51   -254     41    260    264 168.7   9.0  34162  289.59 0855.20
2009/04/23 11:47:20.4      50   -217     78    223    237 166.9  19.4  34160  289.58 0855.20
2009/04/23 11:47:20.5     -26   -179     83    181    199 188.5  26.4  34170  289.75 0855.20
2009/04/23 11:47:20.6    -103   -178     16    206    207 210.1   4.6  34166  289.69 0855.20
2009/04/23 11:47:20.7     -26   -166     46    169    176 189.1  15.3  34168  289.70 0855.20
2009/04/23 11:47:20.8     -47   -161     47    168    175 196.5  15.6  34166  289.67 0855.20
2009/04/23 11:47:20.9     -30   -171     39    174    179 190.2  12.9  34166  289.69 0855.20
2009/04/23 11:47:21.0      55   -194     80    202    217 164.0  23.0  34154  289.46 0855.20
2009/04/23 11:47:21.1      70   -159    108    174    204 156.2  35.2  34152  289.45 0855.20
2009/04/23 11:47:21.2      50   -248     62    254    262 168.4  13.9  34154  289.47 0855.20
2009/04/23 11:47:21.3      16   -258    -47    259    264 176.4 -10.3  34156  289.51 0855.20
2009/04/23 11:47:21.4      -7   -244     15    245    246 181.8   3.6  34156  289.51 0855.20
2009/04/23 11:47:21.5      19   -232     17    233    234 175.3   4.4  34158  289.53 0855.20
2009/04/23 11:47:21.6      16   -215     20    216    218 175.6   5.4  34154  289.46 0855.20
2009/04/23 11:47:21.7      47   -234    -11    239    240 168.5  -2.8  34158  289.54 0855.20
2009/04/23 11:47:21.8      66   -244     21    253    254 164.9   5.0  34158  289.53 0855.20
2009/04/23 11:47:21.9      70   -232     25    243    245 163.1   5.9  34158  289.53 0855.20
2009/04/23 11:47:22.0      74   -199     60    213    222 159.5  15.8  34156  289.50 0855.20
2009/04/23 11:47:22.1      39   -180     69    185    197 167.7  21.3  34156  289.50 0855.20
2009/04/23 11:47:22.3       7   -178     93    179    201 177.5  29.5  34156  289.50 0855.20
2009/04/23 11:47:22.4       0   -213     74    214    227 180.2  19.2  34158  289.55 0855.20
2009/04/23 11:47:22.5      -3   -214     95    215    235 180.9  25.3  34162  289.60 0855.20
2009/04/23 11:47:22.6     -10   -167     91    168    191 183.6  30.8  34160  289.58 0855.20
2009/04/23 11:47:22.7     -24   -189     57    191    200 187.3  16.8  34164  289.63 0855.20
2009/04/23 11:47:22.8      -5   -198     22    199    201 181.6   6.5  34160  289.58 0855.20
2009/04/23 11:47:22.9       0   -115      5    116    117 180.0   2.8  34158  289.55 0855.20
2009/04/23 11:47:23.0      29   -144     51    147    156 168.5  19.4  34160  289.58 0855.20
2009/04/23 11:47:23.1      46   -174     23    181    183 165.1   7.5  34160  289.58 0855.20
2009/04/23 11:47:23.2      35   -207     46    210    216 170.4  12.4  34162  289.60 0855.20
2009/04/23 11:47:23.3      53   -225     43    232    236 166.6  10.6  34160  289.58 0855.20
2009/04/23 11:47:23.4      41   -218     71    222    234 169.3  17.7  34160  289.57 0855.20
2009/04/23 11:47:23.5      29   -207     77    210    223 172.0  20.9  34158  289.53 0855.19
2009/04/23 11:47:23.6      15   -192     84    193    210 175.5  25.1  34156  289.50 0855.19
2009/04/23 11:47:23.7      -7   -180     73    181    195 182.5  23.0  34154  289.46 0855.19
2009/04/23 11:47:23.8     -17   -230     45    231    236 184.4  11.0  34158  289.53 0855.19
2009/04/23 11:47:23.9      13   -244     61    245    253 176.9  14.2  34156  289.51 0855.19
2009/04/23 11:47:24.0      -7   -277     45    278    282 181.6   9.3  34158  289.54 0855.19
2009/04/23 11:47:24.1     -53   -273     32    279    281 191.1   6.7  34160  289.58 0855.19
2009/04/23 11:47:24.2     -34   -278     46    281    285 187.1   9.5  34158  289.54 0855.19
2009/04/23 11:47:24.3     -79   -215    -15    230    231 200.3  -3.7  34160  289.57 0855.19
2009/04/23 11:47:24.4    -101   -184     -7    211    212 208.9  -2.1  34156  289.52 0855.19
2009/04/23 11:47:24.5    -118   -208      7    240    241 209.6   1.8  34158  289.54 0855.20
2009/04/23 11:47:24.6     -30   -170     28    173    176 190.0   9.3  34156  289.52 0855.20
2009/04/23 11:47:24.7    -105   -252    -53    274    280 202.7 -11.1  34158  289.54 0855.20
2009/04/23 11:47:24.8     -36   -159     45    164    171 192.9  15.3  34156  289.52 0855.20
2009/04/23 11:47:24.9    -110   -210    146    238    279 207.6  34.4  34158  289.54 0855.20
2009/04/23 11:47:25.0    -134   -259     57    292    298 207.4  11.1  34158  289.54 0855.20
2009/04/23 11:47:25.1    -214   -218    -17    306    307 224.5  -3.2  34154  289.47 0855.20
2009/04/23 11:47:25.2    -185   -143    -42    234    238 232.3 -10.3  34166  289.68 0855.20
2009/04/23 11:47:25.3    -166   -148    -61    223    232 228.2 -15.4  34160  289.57 0855.20
2009/04/23 11:47:25.4    -174   -133      3    220    221 232.5   0.8  34156  289.52 0855.20
2009/04/23 11:47:25.5    -211   -176    -55    275    281 230.2 -11.5  34156  289.49 0855.20
2009/04/23 11:47:25.6    -319    -70    -25    327    329 257.6  -4.5  34128  289.02 0855.20
2009/04/23 11:47:25.7    -379    -35    -69    381    388 264.6 -10.3  34154  289.47 0855.20
2009/04/23 11:47:25.8    -331    -65     13    338    339 258.8   2.2  34156  289.50 0855.20
2009/04/23 11:47:25.9    -251    -51      8    257    258 258.3   1.8  34152  289.42 0855.20
2009/04/23 11:47:26.0    -153    -61    -83    165    184 248.2 -33.1  34158  289.53 0855.20
2009/04/23 11:47:26.1    -149    -50    -80    158    177 251.4 -33.1  34150  289.40 0855.20
2009/04/23 11:47:26.2      53   -166    -61    175    185 162.2 -23.8  34156  289.50 0855.20
2009/04/23 11:47:26.3     -29   -144    -31    148    152 191.6 -11.9  34156  289.50 0855.20
2009/04/23 11:47:26.4      -4   -166     17    167    168 181.4   6.1  34156  289.50 0855.20
2009/04/23 11:47:26.5      63   -155     85    168    188 157.7  28.7  34156  289.52 0855.21
2009/04/23 11:47:26.6     -18   -194    -24    195    197 185.3  -7.2  34154  289.48 0855.21
2009/04/23 11:47:26.7      -5   -209    -94    210    230 181.4 -30.3  34156  289.50 0855.21
2009/04/23 11:47:26.8      20   -119     42    121    129 170.2  19.4  34152  289.45 0855.21
2009/04/23 11:47:26.9       9   -116     83    117    143 175.5  39.1  34156  289.52 0855.21
2009/04/23 11:47:27.0     -70   -127      7    146    147 209.0   2.9  34154  289.46 0855.21
2009/04/23 11:47:27.1    -220    -74    -50    233    239 251.4 -12.2  34148  289.37 0855.21
2009/04/23 11:47:27.2    -292   -124   -107    318    335 246.9 -23.6  34136  289.16 0855.21
2009/04/23 11:47:27.3    -223   -109   -112    249    273 244.0 -30.3  34136  289.17 0855.21
2009/04/23 11:47:27.4    -205    -78   -170    220    278 249.2 -46.1  34140  289.24 0855.21
2009/04/23 11:47:27.5    -186    -59   -158    196    251 252.5 -47.7  34140  289.22 0855.21
2009/04/23 11:47:27.6     -21    -21   -165     30    167 225.0 -90.0  34140  289.23 0855.21
2009/04/23 11:47:27.7       0   -103   -210    104    234 180.0 -76.3  34148  289.36 0855.21
2009/04/23 11:47:27.8    -112   -209   -133    238    272 208.3 -36.0  34160  289.56 0855.21
2009/04/23 11:47:27.9      66   -417   -214    423    474 171.0 -33.3  34152  289.43 0855.21
2009/04/23 11:47:28.0     187   -340   -173    389    425 151.1 -30.1  34140  289.24 0855.21
2009/04/23 11:47:28.1    -120   -274    -82    300    312 203.6 -15.4  34158  289.53 0855.21
2009/04/23 11:47:28.2    -140   -402    -13    426    427 199.3  -1.8  34156  289.51 0855.21
2009/04/23 11:47:28.3    -151   -378    -16    408    409 201.8  -2.3  34160  289.58 0855.21
2009/04/23 11:47:28.4     -17   -378    -20    379    380 182.6  -3.1  34162  289.59 0855.21
2009/04/23 11:47:28.5     -94   -285    -85    301    313 198.3 -15.8  34168  289.71 0855.20
2009/04/23 11:47:28.6     -73   -273    -94    283    298 195.1 -23.8  34176  289.83 0855.20
2009/04/23 11:47:28.7    -144   -259   -104    297    315 209.2 -19.4  34180  289.92 0855.20
2009/04/23 11:47:28.8     -98   -312    -72    328    337 197.5 -12.5  34182  289.96 0855.20
2009/04/23 11:47:28.9     -10   -363    -10    364    365 181.6  -1.7  34162  289.62 0855.20
2009/04/23 11:47:29.0     -47   -383      8    386    387 187.1   1.2  34158  289.54 0855.20
2009/04/23 11:47:29.1     -63   -538    112    542    554 186.7  11.7  34162  289.62 0855.20
2009/04/23 11:47:29.2    -101   -380    176    394    431 194.9  25.7  34156  289.49 0855.20
2009/04/23 11:47:29.3      -9   -292     72    293    302 181.8  13.9  34158  289.53 0855.20
2009/04/23 11:47:29.4      19   -480     -2    481    482 177.7  -0.3  34160  289.57 0855.20
2009/04/23 11:47:29.5       0   -436    -63    437    442 179.9  -8.3  34156  289.51 0855.20
2009/04/23 11:47:29.6     114   -419   -144    435    458 164.7 -23.8  34160  289.58 0855.20
2009/04/23 11:47:29.7     -37   -434   -131    436    456 185.0 -16.8  34156  289.49 0855.20
2009/04/23 11:47:29.8     -32   -315   -116    317    337 186.0 -25.4  34154  289.48 0855.20
2009/04/23 11:47:29.9     255   -399     93    474    484 147.4  11.1  34152  289.42 0855.20
2009/04/23 11:47:30.0     156   -360     -6    393    394 156.6  -0.9  34156  289.50 0855.20
2009/04/23 11:47:30.1      94   -283     65    299    307 161.5  12.4  34156  289.51 0855.20
2009/04/23 11:47:30.2     -65   -334    -41    341    344 191.0  -6.9  34162  289.60 0855.20
2009/04/23 11:47:30.3    -143   -390    -75    416    423 200.2 -10.2  34172  289.78 0855.20
2009/04/23 11:47:30.4    -125   -491    -52    507    510 194.3  -5.9  34152  289.42 0855.20
2009/04/23 11:47:30.5    -272   -343    -24    438    439 218.4  -3.2  34160  289.56 0855.21
2009/04/23 11:47:30.6      -4   -472    -51    473    476 180.6  -6.3  34156  289.49 0855.21
2009/04/23 11:47:30.7    -138   -536      6    554    555 194.5   0.7  34162  289.62 0855.21
2009/04/23 11:47:30.8    -101   -482      0    493    494 191.9   0.1  34162  289.59 0855.21
2009/04/23 11:47:30.9    -115   -502    -20    516    517 192.9  -2.3  34160  289.57 0855.21
2009/04/23 11:47:31.0     -22   -371    -61    372    378 183.4  -9.4  34154  289.48 0855.21
2009/04/23 11:47:31.1     -33   -254    -55    257    263 187.6 -12.2  34152  289.44 0855.21
2009/04/23 11:47:31.2     125   -233     51    265    270 151.7  11.0  34152  289.42 0855.21
2009/04/23 11:47:31.3     117   -279    131    303    330 157.3  24.9  34150  289.39 0855.21
2009/04/23 11:47:31.4      64   -275    197    283    344 166.7  38.4  34148  289.36 0855.21
2009/04/23 11:47:31.5      29   -247    123    249    277 173.3  28.2  34154  289.47 0855.21
2009/04/23 11:47:31.6    -176   -204    -67    270    279 220.8 -13.9  34144  289.29 0855.21
2009/04/23 11:47:31.7    -130   -288   -100    316    331 204.3 -22.8  34156  289.51 0855.21
2009/04/23 11:47:31.8    -137   -291    -37    322    325 205.3  -6.6  34156  289.49 0855.21
2009/04/23 11:47:31.9      29   -356    -66    358    365 175.2 -10.5  34152  289.42 0855.21
2009/04/23 11:47:32.0    -115   -311   -179    332    377 200.4 -35.2  34152  289.45 0855.21
2009/04/23 11:47:32.1     -48   -240   -124    245    274 191.3 -33.5  34154  289.46 0855.21
2009/04/23 11:47:32.2      46   -227    -65    232    242 168.5 -15.8  34152  289.42 0855.21
2009/04/23 11:47:32.3      17   -118    -20    120    122 171.5  -9.8  34156  289.52 0855.21
2009/04/23 11:47:32.4      20   -142    -43    144    151 172.0 -16.6  34154  289.48 0855.21
2009/04/23 11:47:32.5       7    -91    -41     92    100 175.5 -30.1  34160  289.58 0855.22
2009/04/23 11:47:32.6      83   -130     26    155    158 147.4   9.5  34156  289.50 0855.22
2009/04/23 11:47:32.7      42   -138    -10    145    146 163.0  -4.1  34158  289.53 0855.22
2009/04/23 11:47:32.8     103   -122    -44    160    167 139.7 -15.5  34156  289.50 0855.22
2009/04/23 11:47:32.9      76   -186     10    202    203 157.7   2.9  34154  289.48 0855.22
2009/04/23 11:47:33.0     115   -196    -87    228    244 149.5 -26.1  34158  289.54 0855.22
2009/04/23 11:47:33.1      55   -115    -45    128    136 154.1 -19.7  34146  289.33 0855.22
2009/04/23 11:47:33.2     159   -234     -1    283    284 145.8  -0.3  34156  289.51 0855.22
2009/04/23 11:47:33.3     137   -276     86    309    321 153.5  15.6  34154  289.47 0855.22
2009/04/23 11:47:33.4     149   -339    164    371    405 156.2  25.3  34154  289.48 0855.22
2009/04/23 11:47:33.5     125   -373    136    394    417 161.4  19.1  34162  289.61 0855.22
2009/04/23 11:47:33.6      86   -267    120    281    305 162.0  24.6  34150  289.41 0855.22
2009/04/23 11:47:33.7     169   -190    131    255    286 138.5  29.3  34150  289.41 0855.22
2009/04/23 11:47:33.8     231   -173     71    289    298 126.9  13.9  34148  289.37 0855.22
2009/04/23 11:47:33.9     196   -207    204    286    351 136.6  39.1  34146  289.33 0855.22
2009/04/23 11:47:34.0     192   -136    204    236    311 125.3  45.4  34152  289.44 0855.22
2009/04/23 11:47:34.1     144    -91    151    171    228 122.4  45.9  34146  289.35 0855.22
2009/04/23 11:47:34.2      40    -75    179     86    198 151.9  72.7  34152  289.45 0855.22
2009/04/23 11:47:34.3      26     23    135     35    139  48.7  84.9  34154  289.46 0855.22
2009/04/23 11:47:34.4      21    -75     93     79    122 164.0  54.8  34148  289.38 0855.22
2009/04/23 11:47:34.5       6      7     89     10     89  43.2  90.0  34152  289.45 0855.26
2009/04/23 11:47:34.6     -11    -11     76     16     77 225.0  89.0  34158  289.55 0855.26
2009/04/23 11:47:34.7     -10    -84     81     85    117 187.1  49.0  34152  289.45 0855.26
2009/04/23 11:47:34.8      10   -151    108    152    186 176.0  39.3  34148  289.36 0855.26
2009/04/23 11:47:34.9       6   -209    139    210    251 178.2  36.5  34150  289.39 0855.26
2009/04/23 11:47:35.0     -12   -236     91    237    253 183.1  22.0  34148  289.37 0855.26
2009/04/23 11:47:35.1      -5   -204     39    205    209 181.6  11.0  34146  289.33 0855.26
2009/04/23 11:47:35.2      84   -236    147    251    290 160.2  33.4  34144  289.31 0855.26
2009/04/23 11:47:35.3      55   -240    169    247    299 167.1  37.6  34144  289.31 0855.26
2009/04/23 11:47:35.4     -53   -195    227    203    304 195.2  53.7  34152  289.42 0855.26
2009/04/23 11:47:35.5     -49   -241    183    247    307 191.6  40.1  34148  289.37 0855.26
2009/04/23 11:47:35.6    -122   -281     36    307    310 203.6   6.7  34146  289.32 0855.26
2009/04/23 11:47:35.7     -82   -288    -21    300    301 196.0  -4.1  34146  289.32 0855.26
2009/04/23 11:47:35.8     -42   -273     28    277    279 188.9   5.9  34148  289.36 0855.26
2009/04/23 11:47:35.9     -20   -263     22    264    266 184.5   4.9  34148  289.37 0855.26
2009/04/23 11:47:36.0     -20   -273      3    274    275 184.4   0.8  34144  289.31 0855.26
2009/04/23 11:47:36.1     -49   -341     13    345    346 188.3   2.2  34146  289.32 0855.26
2009/04/23 11:47:36.2     -39   -361    -10    364    365 186.3  -1.6  34146  289.33 0855.26
2009/04/23 11:47:36.3     -14   -391    -15    392    393 182.1  -2.2  34152  289.42 0855.26
2009/04/23 11:47:36.4    -103   -386     49    400    404 195.1   7.1  34162  289.61 0855.26
2009/04/23 11:47:36.5    -193   -495     48    532    535 201.3   5.2  34168  289.70 0855.25
2009/04/23 11:47:36.6    -375   -389     51    541    544 223.9   5.4  34142  289.26 0855.25
2009/04/23 11:47:36.7    -574   -316    -84    656    662 241.1  -7.3  34124  288.97 0855.25
2009/04/23 11:47:36.8    -541   -349   -138    645    660 237.2 -12.2  34130  289.06 0855.25
2009/04/23 11:47:36.9    -424   -318   -189    530    563 233.1 -19.7  34118  288.87 0855.25
2009/04/23 11:47:37.0    -515   -242    -93    570    578 244.8  -9.3  34124  288.97 0855.25
2009/04/23 11:47:37.1    -566   -265    -58    625    628 244.9  -5.4  34132  289.11 0855.25
2009/04/23 11:47:37.2    -521   -177    -58    551    555 251.2  -6.1  34120  288.89 0855.25
2009/04/23 11:47:37.3    -448   -236     29    507    508 242.2   3.3  34142  289.25 0855.25
2009/04/23 11:47:37.4    -445   -334    -91    557    565 233.1  -9.3  34134  289.13 0855.25
2009/04/23 11:47:37.5    -391   -239     29    459    460 238.5   3.6  34150  289.39 0855.25
2009/04/23 11:47:37.6    -479   -203    -43    521    523 247.0  -4.8  34132  289.09 0855.25
2009/04/23 11:47:37.7    -571   -190    -27    603    604 251.5  -2.6  34130  289.05 0855.25
2009/04/23 11:47:37.8    -489   -240    -52    545    548 243.8  -5.5  34128  289.04 0855.25
2009/04/23 11:47:37.9    -465   -184    -86    501    509 248.4  -9.8  34126  289.01 0855.25
2009/04/23 11:47:38.0    -494   -187    -76    529    535 249.2  -8.3  34132  289.09 0855.25
2009/04/23 11:47:38.1    -468   -196    -86    508    516 247.3  -9.7  34126  289.00 0855.25
2009/04/23 11:47:38.2    -417   -149    -85    444    453 250.3 -10.8  34122  288.94 0855.25
2009/04/23 11:47:38.3    -416   -154   -103    444    456 249.7 -13.1  34134  289.12 0855.25
2009/04/23 11:47:38.4    -443   -133    -55    463    467 253.2  -6.9  34140  289.22 0855.25
2009/04/23 11:47:38.5    -431   -138    -25    453    454 252.2  -3.2  34144  289.31 0855.27
2009/04/23 11:47:38.6    -428    -87   -151    437    463 258.5 -19.1  34130  289.07 0855.27
2009/04/23 11:47:38.7    -405    -36   -142    407    432 264.8 -19.3  34128  289.02 0855.27
2009/04/23 11:47:38.8    -388    -64   -141    394    419 260.5 -19.7  34126  289.00 0855.27
2009/04/23 11:47:38.9    -396     28   -141    397    422 274.1 -19.6  34128  289.02 0855.27
2009/04/23 11:47:39.0    -473    -30   -177    474    505 266.3 -25.9  34130  289.08 0855.27
2009/04/23 11:47:39.1    -447    -69   -179    453    487 261.2 -27.2  34130  289.08 0855.27
2009/04/23 11:47:39.2    -362   -126   -110    384    400 250.7 -16.0  34138  289.21 0855.27
2009/04/23 11:47:39.3    -341    -48   -106    345    360 261.9 -22.1  34136  289.18 0855.27
2009/04/23 11:47:39.4    -508    -13   -214    509    552 268.5 -28.6  34140  289.24 0855.27
2009/04/23 11:47:39.5    -466     34   -166    468    496 274.3 -24.7  34140  289.22 0855.27
2009/04/23 11:47:39.6    -478     50   -149    481    503 276.0 -22.3  34142  289.25 0855.27
2009/04/23 11:47:39.7    -472     -6   -162    473    501 269.2 -19.0  34146  289.35 0855.27
2009/04/23 11:47:39.8    -497     45   -149    500    522 275.2 -16.6  34146  289.32 0855.27
2009/04/23 11:47:39.9    -329    -92    -51    342    346 254.3  -8.6  34150  289.40 0855.27
2009/04/23 11:47:40.0     -75   -245    -72    257    266 197.0 -20.2  34158  289.53 0855.27
2009/04/23 11:47:40.1     -69   -192   -122    205    238 200.0 -37.9  34154  289.48 0855.27
2009/04/23 11:47:40.2     -50   -178    -97    186    209 195.8 -33.9  34152  289.43 0855.27
2009/04/23 11:47:40.3     -78   -272   -125    284    310 196.0 -29.6  34148  289.37 0855.27
2009/04/23 11:47:40.4    -216   -187   -156    286    325 229.1 -35.4  34140  289.24 0855.27
2009/04/23 11:47:40.5    -324   -314   -164    452    480 225.9 -25.2  34146  289.35 0855.27
2009/04/23 11:47:40.6    -341    -89   -106    353    369 255.4 -16.8  34142  289.28 0855.27
2009/04/23 11:47:40.7    -289   -103    -65    307    314 250.3 -12.0  34152  289.44 0855.27
2009/04/23 11:47:40.8    -207   -325     35    386    388 212.6   5.2  34148  289.38 0855.27
2009/04/23 11:47:40.9     -26    -78     49     83     96 198.3  34.0  34154  289.48 0855.27
2009/04/23 11:47:41.0      84   -203    -46    220    225 157.5 -11.9  34152  289.45 0855.27
2009/04/23 11:47:41.1      96   -289   -131    305    331 161.5 -29.2  34150  289.39 0855.27
2009/04/23 11:47:41.2     161   -193   -186    252    313 140.1 -44.6  34144  289.29 0855.27
2009/04/23 11:47:41.3    -101   -148   -189    180    261 214.3 -56.0  34146  289.32 0855.27
2009/04/23 11:47:41.4    -218   -125   -209    252    327 240.2 -48.2  34146  289.32 0855.27
2009/04/23 11:47:41.5    -107   -144   -166    180    244 216.7 -51.9  34146  289.33 0855.27
2009/04/23 11:47:41.6      -4   -265    -95    266    283 181.0 -19.7  34144  289.29 0855.27
2009/04/23 11:47:41.7     116   -348   -123    367    388 161.5 -18.6  34146  289.33 0855.27
2009/04/23 11:47:41.8      78   -403   -127    411    430 169.0 -22.2  34142  289.26 0855.27
2009/04/23 11:47:41.9     -67   -362   -114    369    387 190.6 -17.2  34146  289.33 0855.27
2009/04/23 11:47:42.0    -152   -336   -129    370    391 204.4 -24.4  34142  289.28 0855.27
2009/04/23 11:47:42.1     -57   -328   -110    333    350 189.9 -23.6  34142  289.28 0855.27
2009/04/23 11:47:42.2     -13   -344    -76    345    354 182.3 -12.5  34142  289.25 0855.27
2009/04/23 11:47:42.3      80   -379    -50    388    392 168.0  -7.4  34144  289.30 0855.27
2009/04/23 11:47:42.4      24   -335    -15    336    337 175.9  -2.7  34146  289.32 0855.27
2009/04/23 11:47:42.5      63   -231     46    240    245 164.6  11.0  34140  289.22 0855.28
2009/04/23 11:47:42.6     115   -210    112    240    264 151.3  27.1  34142  289.27 0855.28
2009/04/23 11:47:42.7      -4   -264    209    265    337 181.0  42.3  34140  289.24 0855.28
2009/04/23 11:47:42.8      80   -240    223    254    338 161.5  45.8  34142  289.25 0855.28
2009/04/23 11:47:42.9       1   -281    266    282    387 179.8  48.0  34142  289.26 0855.28
2009/04/23 11:47:43.0    -117   -419    221    436    488 195.6  28.9  34142  289.27 0855.28
2009/04/23 11:47:43.1     -81   -302    236    313    392 195.1  40.8  34138  289.20 0855.28
2009/04/23 11:47:43.2     -97   -298    277    314    418 198.0  45.9  34136  289.18 0855.28
2009/04/23 11:47:43.3    -104   -329    274    346    441 197.6  42.4  34134  289.12 0855.28
2009/04/23 11:47:43.4     -12   -282    233    283    366 182.6  43.7  34136  289.18 0855.28
2009/04/23 11:47:43.5      27   -288    170    290    336 174.6  33.0  34132  289.09 0855.28
2009/04/23 11:47:43.6      72   -174    165    189    250 157.3  45.8  34134  289.14 0855.28
2009/04/23 11:47:43.7      10   -132    187    133    229 175.6  60.8  34136  289.16 0855.28
2009/04/23 11:47:43.8     -12   -123    178    124    216 185.8  61.8  34138  289.19 0855.28
2009/04/23 11:47:43.9     -21     13    154     25    156 302.4  90.0  34148  289.36 0855.28
2009/04/23 11:47:44.0       3     28    202     29    204   6.2  90.0  34148  289.38 0855.28
2009/04/23 11:47:44.1     -15    -31    110     35    115 207.2  80.7  34144  289.30 0855.28
2009/04/23 11:47:44.2      54    116    107    129    167  24.9  44.1  34144  289.31 0855.28
2009/04/23 11:47:44.3      73     94    205    120    237  37.8  67.0  34144  289.31 0855.28
2009/04/23 11:47:44.4     -16     92    160     94    185 349.8  66.8  34148  289.38 0855.28
2009/04/23 11:47:44.5       2    168    143    169    221   1.0  44.5  34150  289.40 0855.30
2009/04/23 11:47:44.6     -25    282     88    284    298 354.9  17.3  34150  289.39 0855.30
2009/04/23 11:47:44.7      43    293    273    297    403   8.5  47.5  34156  289.50 0855.30
2009/04/23 11:47:44.8      76    265    258    276    377  16.0  48.0  34144  289.30 0855.30
2009/04/23 11:47:44.9     152    165    216    225    311  42.5  49.0  34144  289.29 0855.30
2009/04/23 11:47:45.0     101    124    164    161    229  39.2  50.2  34140  289.23 0855.30
2009/04/23 11:47:45.1     175     41    173    180    249  76.7  49.0  34142  289.26 0855.30
2009/04/23 11:47:45.2     193    189    103    271    289  45.6  21.7  34152  289.42 0855.30
2009/04/23 11:47:45.3     198    104    231    224    321  62.2  50.9  34148  289.36 0855.30
2009/04/23 11:47:45.4     191    209    219    284    358  42.5  41.6  34152  289.45 0855.30
2009/04/23 11:47:45.5     136    276    112    308    327  26.3  20.8  34200  290.24 0855.30
2009/04/23 11:47:45.6     106    358    125    374    395  16.5  18.6  34230  290.77 0855.30
2009/04/23 11:47:45.7      70    294     88    303    316  13.4  16.3  34178  289.88 0855.30
2009/04/23 11:47:45.8      89     -7    182     90    203  94.8  71.7  34166  289.69 0855.30
2009/04/23 11:47:45.9      37    -58    168     69    181 147.5  76.8  34156  289.52 0855.30
2009/04/23 11:47:46.0     161     53    290    170    336  71.8  67.1  34154  289.46 0855.30
2009/04/23 11:47:46.1      49    -16    202     52    208 108.2  85.4  34156  289.50 0855.30
2009/04/23 11:47:46.2     242    -21    303    243    388  95.0  57.1  34148  289.38 0855.30
2009/04/23 11:47:46.3     298     90    319    312    446  73.2  50.6  34174  289.80 0855.30
2009/04/23 11:47:46.4     458    192    489    497    697  67.2  49.7  34234  290.84 0855.30
2009/04/23 11:47:46.5     162    439    317    469    566  20.3  37.4  34212  290.45 0855.30
2009/04/23 11:47:46.6     106    327    346    344    487  18.0  50.1  34200  290.24 0855.30
2009/04/23 11:47:46.7      -8    188    283    189    340 357.3  63.3  34206  290.36 0855.30
2009/04/23 11:47:46.8      24    178    228    180    290   7.8  57.7  34222  290.63 0855.30
2009/04/23 11:47:46.9     318    -35    251    320    406  96.4  42.1  34240  290.93 0855.30
2009/04/23 11:47:47.0     396      6    276    397    483  89.0  38.1  34238  290.89 0855.30
2009/04/23 11:47:47.1     370    131    316    393    504  70.4  43.0  34262  291.32 0855.30
2009/04/23 11:47:47.2     299    178    323    349    475  59.3  47.6  34232  290.78 0855.30
2009/04/23 11:47:47.3     733    235    214    770    800  72.2  15.6  34176  289.83 0855.30
2009/04/23 11:47:47.4     432    298    190    526    560  55.4  19.9  34204  290.33 0855.30
2009/04/23 11:47:47.5     670     89    365    676    768  82.4  30.8  34194  290.16 0855.23
2009/04/23 11:47:47.6    1040    539    399   1172   1239  62.6  18.8  34206  290.36 0855.23
2009/04/23 11:47:47.7     708    622    155    943    956  48.7   9.3  34156  289.51 0855.23
2009/04/23 11:47:47.8     837    529     75    991    994  57.7   4.3  34188  290.03 0855.23
2009/04/23 11:47:47.9     868    643    -71   1081   1084  53.5  -3.8  34196  290.18 0855.23
2009/04/23 11:47:48.0     855    447     49    966    968  62.4   2.9  34176  289.84 0855.23
2009/04/23 11:47:48.1     863    404     96    953    958  64.9   5.8  34184  289.99 0855.23
2009/04/23 11:47:48.2     915    292    158    961    975  72.3   9.3  34192  290.11 0855.23
2009/04/23 11:47:48.3    1034    316    210   1082   1103  73.0  11.0  34196  290.18 0855.23
2009/04/23 11:47:48.4    1071    212    -72   1092   1095  78.8  -3.8  34176  289.85 0855.23
2009/04/23 11:47:48.5     844      4    442    845    953  89.7  29.8  34180  289.92 0855.23
2009/04/23 11:47:48.6     766    -55    610    768    980  94.1  42.4  34192  290.12 0855.23
2009/04/23 11:47:48.7     648     15    529    649    837  88.6  43.4  34186  290.02 0855.23
2009/04/23 11:47:48.8     541   -101    399    551    680 100.6  39.5  34188  290.03 0855.23
2009/04/23 11:47:48.9     484   -262    410    551    686 118.4  40.4  34152  289.42 0855.23
2009/04/23 11:47:49.0     387   -232    469    452    651 120.9  51.3  34160  289.58 0855.23
2009/04/23 11:47:49.1     297   -316    346    434    555 136.8  42.7  34146  289.32 0855.23
2009/04/23 11:47:49.2     295   -291    355    415    546 134.7  44.9  34148  289.37 0855.23
2009/04/23 11:47:49.3     261   -344    249    433    499 142.8  32.4  34146  289.32 0855.23
2009/04/23 11:47:49.4     190   -354    255    402    476 151.8  35.5  34144  289.31 0855.23
2009/04/23 11:47:49.5     215   -419    236    472    527 152.8  28.6  34144  289.30 0855.20
2009/04/23 11:47:49.6     172   -425    243    459    519 157.9  30.2  34142  289.27 0855.20
2009/04/23 11:47:49.7     171   -381    286    418    506 155.8  37.6  34148  289.37 0855.20
2009/04/23 11:47:49.8     189   -424    257    465    531 155.9  31.4  34144  289.30 0855.20
2009/04/23 11:47:49.9      64   -295    267    302    403 167.7  45.9  34178  289.87 0855.20
2009/04/23 11:47:50.0      75   -261    239    272    362 163.9  45.8  34152  289.45 0855.20
2009/04/23 11:47:50.2      64   -317    248    324    408 168.5  41.4  34146  289.35 0855.20
2009/04/23 11:47:50.3      36   -354    272    356    448 174.1  41.4  34152  289.44 0855.20
2009/04/23 11:47:50.4      37    -26    179     46    184 125.1  85.6  34158  289.53 0855.20
2009/04/23 11:47:50.5      52    -71    214     89    231 143.5  76.6  34148  289.38 0855.20
2009/04/23 11:47:50.6     227   -128    204    261    331 119.5  42.0  34154  289.46 0855.20
2009/04/23 11:47:50.7     246     26    161    248    295  83.9  35.7  34148  289.36 0855.20
2009/04/23 11:47:50.8     162   -142    131    216    252 131.1  34.4  34154  289.47 0855.20
2009/04/23 11:47:50.9     182   -206    116    276    299 138.6  24.1  34150  289.39 0855.20
2009/04/23 11:47:51.0      80   -283    221    295    368 164.2  40.7  34148  289.38 0855.20
2009/04/23 11:47:51.1      85   -283    148    296    330 163.3  28.6  34156  289.49 0855.20
2009/04/23 11:47:51.2     130   -219     16    255    256 149.3   3.6  34156  289.51 0855.20
2009/04/23 11:47:51.3      58   -310    -24    316    318 169.4  -4.5  34168  289.70 0855.20
2009/04/23 11:47:51.4      66   -368   -116    374    391 169.8 -22.3  34154  289.48 0855.20
2009/04/23 11:47:51.5      37   -241    119    244    271 171.1  27.4  34152  289.42 0855.20
2009/04/23 11:47:51.6     130   -198    167    238    290 146.6  38.4  34162  289.59 0855.22
2009/04/23 11:47:51.7      75   -270    232    281    364 164.4  43.7  34152  289.43 0855.22
2009/04/23 11:47:51.8     -21   -324    262    325    417 183.8  43.0  34162  289.60 0855.22
2009/04/23 11:47:51.9    -126   -288    237    315    394 203.6  40.7  34162  289.60 0855.22
2009/04/23 11:47:52.0    -127   -311    313    337    459 202.3  47.9  34160  289.58 0855.22
2009/04/23 11:47:52.1     -36   -425    243    427    491 184.9  32.1  34174  289.81 0855.22
2009/04/23 11:47:52.2      53   -389     75    393    401 172.2  10.8  34168  289.72 0855.22
2009/04/23 11:47:52.3     139   -332     48    361    365 157.3   7.6  34158  289.54 0855.22
2009/04/23 11:47:52.4     128   -154     51    201    208 140.3  14.3  34166  289.69 0855.22
2009/04/23 11:47:52.5      58    -70    145     92    171 140.3  64.7  34160  289.57 0855.22
2009/04/23 11:47:52.6     -34   -147    122    152    194 193.3  43.3  34156  289.52 0855.22
2009/04/23 11:47:52.7     -27   -267    124    269    296 186.0  26.4  34166  289.66 0855.22
2009/04/23 11:47:52.8     -63   -232    153    241    285 195.2  35.5  34164  289.64 0855.22
2009/04/23 11:47:52.9    -198    -54    187    206    278 254.7  47.0  34166  289.68 0855.22
2009/04/23 11:47:53.0    -159    -87     91    182    203 241.1  28.7  34168  289.70 0855.22
2009/04/23 11:47:53.1    -134   -108    150    173    228 231.1  45.4  34168  289.72 0855.22
2009/04/23 11:47:53.2    -141    -98    162    172    236 235.1  48.2  34168  289.70 0855.22
2009/04/23 11:47:53.3    -137     40     12    143    144 286.4   4.9  34166  289.69 0855.22
2009/04/23 11:47:53.4    -147    -38    112    152    188 255.4  39.9  34164  289.63 0855.22
2009/04/23 11:47:53.5    -122     49     46    132    140 292.2  19.4  34170  289.74 0855.22
2009/04/23 11:47:53.6     -75     25     47     80     92 288.6  33.5  34166  289.67 0855.23
2009/04/23 11:47:53.7      21     15      9     27     29  54.0  19.4  34172  289.79 0855.23
2009/04/23 11:47:53.8      47      0     -5     48     49  90.0  -6.2  34172  289.79 0855.23
2009/04/23 11:47:53.9      70    -45    -10     84     85 122.4  -7.3  34168  289.72 0855.23
2009/04/23 11:47:54.0      88    -30    -12     94     95 109.1  -7.3  34166  289.67 0855.23
2009/04/23 11:47:54.1      74    -22    -55     78     95 106.8 -42.4  34166  289.67 0855.23
2009/04/23 11:47:54.2      -2      8    -53      9     53 341.5 -90.0  34168  289.70 0855.23
2009/04/23 11:47:54.3     -74    -32    -48     81     94 246.5 -38.4  34166  289.69 0855.23
2009/04/23 11:47:54.4     -72    -36    -57     81     99 242.9 -43.5  34166  289.67 0855.23
2009/04/23 11:47:54.5     -46    -63    -51     79     94 216.0 -40.0  34170  289.74 0855.23
2009/04/23 11:47:54.6      -8    -60    -24     61     65 188.1 -27.4  34170  289.74 0855.23
2009/04/23 11:47:54.7      17    -72    -28     75     80 166.6 -25.4  34168  289.70 0855.23
2009/04/23 11:47:54.8      30    -65    -25     72     77 154.6 -19.1  34170  289.75 0855.23
2009/04/23 11:47:54.9      53      2    -29     54     61  87.4 -35.7  34172  289.79 0855.23
2009/04/23 11:47:55.0     198    -40     31    202    205 101.5   8.9  34154  289.46 0855.23
2009/04/23 11:47:55.1     188    -14    -18    189    190  94.4  -5.6  34156  289.52 0855.23
2009/04/23 11:47:55.2     152      2     43    153    160  89.1  15.8  34154  289.46 0855.23
2009/04/23 11:47:55.3     120    -61      9    135    136 117.1   3.8  34156  289.50 0855.23
2009/04/23 11:47:55.4      43    -68    -85     81    117 147.4 -55.6  34166  289.67 0855.23
2009/04/23 11:47:55.5     -26    -40    -74     48     88 213.4 -68.5  34174  289.82 0855.23
2009/04/23 11:47:55.6     -39    -54   -137     67    152 216.0 -77.2  34170  289.75 0855.20
2009/04/23 11:47:55.7     -67    -82    -85    106    135 219.2 -47.7  34172  289.79 0855.20
2009/04/23 11:47:55.8    -131    -78   -100    153    182 239.3 -40.4  34168  289.70 0855.20
2009/04/23 11:47:55.9    -307   -101   -212    324    387 251.8 -40.6  34162  289.60 0855.20
2009/04/23 11:47:56.0    -239    -48   -210    244    321 258.5 -49.6  34164  289.64 0855.20
2009/04/23 11:47:56.1    -275    111   -201    297    358 292.0 -41.8  34160  289.57 0855.20
2009/04/23 11:47:56.2    -239     51    -84    245    260 282.2 -18.9  34164  289.63 0855.20
2009/04/23 11:47:56.3    -201      2    -73    202    214 270.6 -25.1  34164  289.63 0855.20
2009/04/23 11:47:56.4    -228    -53    -69    235    244 256.8 -21.2  34174  289.80 0855.20
2009/04/23 11:47:56.5     -41   -105    -14    113    114 201.4  -7.2  34166  289.69 0855.20
2009/04/23 11:47:56.6     -55   -139     85    150    172 201.8  32.4  34156  289.52 0855.20
2009/04/23 11:47:56.7      -5   -119     48    120    129 182.7  23.0  34162  289.60 0855.20
2009/04/23 11:47:56.8     119    -51     70    130    147 113.5  31.3  34162  289.62 0855.20
2009/04/23 11:47:56.9     142      0     90    143    168  90.0  35.5  34166  289.69 0855.20
2009/04/23 11:47:57.0     196    -59    103    205    229 106.8  28.7  34166  289.67 0855.20
2009/04/23 11:47:57.1     190   -111     79    221    234 120.4  20.4  34166  289.67 0855.20
2009/04/23 11:47:57.2     214   -159     94    267    284 126.6  19.4  34164  289.63 0855.20
2009/04/23 11:47:57.3     261   -174     71    314    323 123.7  12.8  34164  289.63 0855.20
2009/04/23 11:47:57.4     327   -163    138    366    391 116.6  21.8  34152  289.42 0855.20
2009/04/23 11:47:57.5     349   -223     73    415    422 122.6  10.0  34152  289.44 0855.20
2009/04/23 11:47:57.6     317   -208     77    380    389 123.3  11.6  34154  289.47 0855.18
2009/04/23 11:47:57.7     241   -125    -19    272    273 117.5  -4.1  34158  289.54 0855.18
2009/04/23 11:47:57.8     144   -159      4    215    216 137.9   1.2  34160  289.57 0855.18
2009/04/23 11:47:57.9      85   -316     95    328    342 164.8  16.3  34150  289.40 0855.18
2009/04/23 11:47:58.0      94   -316     78    330    340 163.3  13.3  34148  289.38 0855.18
2009/04/23 11:47:58.1     -29   -446     38    447    449 183.8   4.9  34150  289.39 0855.18
2009/04/23 11:47:58.2      36   -588    149    590    609 176.5  14.2  34150  289.39 0855.18
2009/04/23 11:47:58.3    -157   -533    166    556    581 196.4  16.7  34152  289.44 0855.18
2009/04/23 11:47:58.4    -184   -586    217    615    652 197.4  20.2  34148  289.38 0855.18
2009/04/23 11:47:58.5      44   -632    154    634    653 176.0  13.7  34148  289.37 0855.18
2009/04/23 11:47:58.6     199   -502    235    541    589 158.3  25.1  34146  289.34 0855.18
2009/04/23 11:47:58.7     250   -488    224    549    592 152.8  23.5  34144  289.30 0855.18
2009/04/23 11:47:58.8     207   -435    100    482    493 154.5  11.8  34152  289.42 0855.18
2009/04/23 11:47:58.9     120   -402     74    420    427 163.3  10.0  34152  289.44 0855.18
2009/04/23 11:47:59.0     146   -323     74    355    363 155.6  11.8  34152  289.42 0855.18
2009/04/23 11:47:59.1     281   -306     27    416    417 137.5   3.8  34152  289.44 0855.18
2009/04/23 11:47:59.2     319   -411     47    521    524 142.2   5.2  34138  289.21 0855.18
2009/04/23 11:47:59.3     364   -292      7    467    468 128.7   0.9  34142  289.27 0855.18
2009/04/23 11:47:59.4     135   -298   -143    328    357 155.6 -29.5  34152  289.45 0855.18
2009/04/23 11:47:59.5     179   -179    -27    254    256 135.1  -6.2  34144  289.29 0855.18
2009/04/23 11:47:59.6      94   -182    152    205    255 152.6  40.4  34148  289.37 0855.19
2009/04/23 11:47:59.7      24   -167    201    169    262 171.8  55.8  34154  289.46 0855.19
2009/04/23 11:47:59.8     -33   -245    259    248    358 187.8  51.4  34150  289.39 0855.19
2009/04/23 11:47:59.9     -80   -275    178    287    337 196.3  34.9  34150  289.41 0855.19
2009/04/23 11:48:00.0    -107   -269    125    290    315 201.8  24.8  34152  289.42 0855.19
2009/04/23 11:48:00.1     -21   -170     79    172    189 187.3  26.6  34150  289.40 0855.19
2009/04/23 11:48:00.2      85    -78    149    116    188 132.7  58.2  34152  289.45 0855.19
2009/04/23 11:48:00.3       8      0    166      9    166  90.0  90.0  34154  289.48 0855.19
2009/04/23 11:48:00.4     -35   -207    222    211    306 189.8  52.0  34154  289.46 0855.19
2009/04/23 11:48:00.5     -40   -237     85    241    256 189.7  19.4  34150  289.41 0855.19
2009/04/23 11:48:00.6     -54   -202     60    210    219 195.1  16.0  34150  289.40 0855.19
2009/04/23 11:48:00.7     -67   -226      3    236    237 196.7   0.8  34150  289.39 0855.19
2009/04/23 11:48:00.8      32   -214     38    217    221 171.3  10.1  34150  289.40 0855.19
2009/04/23 11:48:00.9      98   -157     87    186    205 147.9  27.1  34152  289.45 0855.19
2009/04/23 11:48:01.0     224   -143     59    267    274 122.6  12.6  34150  289.41 0855.19
2009/04/23 11:48:01.1     281    -93     53    297    302 108.4  10.1  34152  289.42 0855.19
2009/04/23 11:48:01.2     244   -182     13    305    306 126.8   2.5  34156  289.51 0855.19
2009/04/23 11:48:01.3     304   -296     82    425    433 134.3  11.0  34156  289.49 0855.19
2009/04/23 11:48:01.4     306   -310     87    436    445 135.4  11.3  34152  289.44 0855.19
2009/04/23 11:48:01.5     253   -300    167    393    427 139.8  24.3  34150  289.39 0855.19
2009/04/23 11:48:01.6     196   -298    125    357    379 146.7  19.3  34154  289.48 0855.20
2009/04/23 11:48:01.7     246   -249    129    351    373 135.4  21.1  34154  289.47 0855.20
2009/04/23 11:48:01.8     217   -248    183    330    377 138.9  31.4  34152  289.45 0855.20
2009/04/23 11:48:01.9     225   -312    115    385    402 144.2  16.6  34156  289.50 0855.20
2009/04/23 11:48:02.0     261   -296    149    395    422 138.6  21.8  34156  289.51 0855.20
2009/04/23 11:48:02.1     247   -293    164    384    417 139.8  24.5  34150  289.39 0855.20
2009/04/23 11:48:02.2     145   -355    140    384    408 157.8  20.9  34146  289.35 0855.20
2009/04/23 11:48:02.3     197   -309    175    367    406 147.5  27.3  34142  289.26 0855.20
2009/04/23 11:48:02.4     254   -252    115    359    378 134.8  17.8  34146  289.35 0855.20
2009/04/23 11:48:02.5     208   -287    139    355    381 144.1  22.7  34146  289.32 0855.20
2009/04/23 11:48:02.6     210   -216    148    302    336 135.9  28.1  34150  289.39 0855.20
2009/04/23 11:48:02.7     107   -220     71    245    256 153.9  16.3  34148  289.36 0855.20
2009/04/23 11:48:02.8      33   -196     70    199    211 170.2  19.4  34148  289.36 0855.20
2009/04/23 11:48:02.9     151   -186     69    240    250 141.0  16.0  34152  289.42 0855.20
2009/04/23 11:48:03.0     104   -203     80    229    242 152.9  20.0  34150  289.41 0855.20
2009/04/23 11:48:03.1      84   -215     91    231    248 158.6  22.5  34152  289.42 0855.20
2009/04/23 11:48:03.2      22   -218    100    220    241 174.2  26.2  34150  289.39 0855.20
2009/04/23 11:48:03.3      -3   -209    119    210    241 180.9  32.3  34148  289.38 0855.20
2009/04/23 11:48:03.4     -24   -193    158    195    250 187.3  43.5  34150  289.41 0855.20
2009/04/23 11:48:03.5     -24   -217    111    219    245 186.5  28.7  34150  289.41 0855.20
2009/04/23 11:48:03.6     -29   -213    183    215    282 187.8  44.9  34150  289.41 0855.22
2009/04/23 11:48:03.7     -33   -175    123    179    217 190.7  37.8  34150  289.41 0855.22
2009/04/23 11:48:03.8     -31   -174    124    177    216 190.2  38.8  34150  289.40 0855.22
2009/04/23 11:48:03.9      -2   -154    112    155    191 181.0  39.5  34150  289.40 0855.22
2009/04/23 11:48:04.0     -18   -127    110    129    169 188.1  44.5  34152  289.43 0855.22
2009/04/23 11:48:04.1     -25    -76    115     81    140 198.7  61.1  34154  289.48 0855.22
2009/04/23 11:48:04.2     -22    -69     99     73    123 198.3  60.5  34156  289.50 0855.22
2009/04/23 11:48:04.3      13    -48     94     50    106 164.9  69.3  34160  289.58 0855.22
2009/04/23 11:48:04.4      27    -21     63     35     72 127.8  68.8  34166  289.67 0855.22
2009/04/23 11:48:04.5      75    -25     98     80    126 108.6  56.4  34164  289.63 0855.22
2009/04/23 11:48:04.6       8      8    143     12    143  46.9  90.0  34160  289.58 0855.22
2009/04/23 11:48:04.7     117    -16    108    119    160  98.0  46.9  34156  289.50 0855.22
2009/04/23 11:48:04.8      23    -70    107     74    130 161.7  62.6  34156  289.50 0855.22
2009/04/23 11:48:04.9      24    -90    140     94    168 164.9  63.2  34156  289.50 0855.22
2009/04/23 11:48:05.0      41   -103    107    112    154 158.2  49.0  34154  289.48 0855.22
2009/04/23 11:48:05.1      55   -116     88    129    156 154.5  37.4  34154  289.48 0855.22
2009/04/23 11:48:05.2      11     -7    115     14    115 122.4  90.0  34160  289.58 0855.22
2009/04/23 11:48:05.3       0     24    147     25    149   0.9  90.0  34166  289.69 0855.22
2009/04/23 11:48:05.4     -52     43     77     68    102 309.5  53.7  34160  289.57 0855.22
2009/04/23 11:48:05.5      -3     21     64     22     67 352.0  81.2  34164  289.65 0855.22
2009/04/23 11:48:05.6     -55     26     31     61     68 295.3  28.2  34164  289.65 0855.21
2009/04/23 11:48:05.7     -68     46     28     83     88 304.2  18.9  34162  289.62 0855.21
2009/04/23 11:48:05.8     -56     42      8     71     72 306.9   7.1  34162  289.62 0855.21
2009/04/23 11:48:05.9    -101     27      3    105    106 285.0   1.8  34164  289.63 0855.21
2009/04/23 11:48:06.0     -97   -166    143    193    240 210.5  40.4  34156  289.50 0855.21
2009/04/23 11:48:06.1     -96   -144     99    174    200 213.8  32.1  34152  289.43 0855.21
2009/04/23 11:48:06.2     -90   -153     83    178    196 210.5  26.6  34154  289.46 0855.21
2009/04/23 11:48:06.3       2   -131    119    132    177 179.0  46.9  34160  289.58 0855.21
2009/04/23 11:48:06.4     117    -86    150    146    209 126.4  50.4  34164  289.63 0855.21
2009/04/23 11:48:06.5       8   -184    131    185    226 177.5  39.1  34152  289.45 0855.21
2009/04/23 11:48:06.6      33   -207    153    210    259 170.9  39.7  34154  289.47 0855.21
2009/04/23 11:48:06.7     -16   -214    173    215    275 184.5  43.0  34156  289.51 0855.21
2009/04/23 11:48:06.8       0   -186    198    187    272 180.0  52.0  34156  289.51 0855.21
2009/04/23 11:48:06.9     -32   -187    186    190    265 189.8  49.4  34156  289.49 0855.21
2009/04/23 11:48:07.0      59   -229    138    237    274 165.5  32.7  34154  289.47 0855.21
2009/04/23 11:48:07.1      60   -205    107    214    239 163.5  28.5  34156  289.50 0855.21
2009/04/23 11:48:07.2      30   -198     93    201    221 171.3  26.6  34156  289.50 0855.21
2009/04/23 11:48:07.3       6   -209    107    210    235 178.2  29.1  34156  289.52 0855.21
2009/04/23 11:48:07.4     -67   -190     46    202    208 199.6  12.9  34156  289.50 0855.21
2009/04/23 11:48:07.5     -75   -186     38    201    205 202.1  10.8  34160  289.57 0855.21
2009/04/23 11:48:07.6     -53   -178     48    186    193 196.7  14.5  34158  289.55 0855.20
2009/04/23 11:48:07.7     -70   -190     77    203    217 200.5  22.0  34160  289.58 0855.20
2009/04/23 11:48:07.8     -73   -145     26    163    166 207.0   9.3  34160  289.57 0855.20
2009/04/23 11:48:07.9     -99   -142     14    174    175 215.0   4.9  34166  289.69 0855.20
2009/04/23 11:48:08.0     -65   -149    -27    163    166 203.7  -9.6  34188  290.06 0855.20
2009/04/23 11:48:08.1     -68   -133     -6    150    151 207.2  -2.6  34186  290.01 0855.20
2009/04/23 11:48:08.2     -33    -99     22    105    108 198.5  12.2  34180  289.92 0855.20
2009/04/23 11:48:08.3      -5    -72    -17     73     76 184.5 -13.4  34178  289.87 0855.20
2009/04/23 11:48:08.4      31   -109     56    114    127 164.0  28.2  34172  289.77 0855.20
2009/04/23 11:48:08.5      11   -161     13    162    163 176.0   4.9  34168  289.72 0855.20
2009/04/23 11:48:08.6      21   -136     72    138    155 171.1  29.8  34170  289.75 0855.19
2009/04/23 11:48:08.7       6   -134     36    135    140 177.3  15.3  34172  289.77 0855.19
2009/04/23 11:48:08.8       0   -102     67    103    122 180.4  35.6  34170  289.75 0855.19
2009/04/23 11:48:08.9       9   -103     75    104    128 174.7  39.5  34172  289.77 0855.19
2009/04/23 11:48:09.0      45    -55     79     72    106 140.3  52.2  34176  289.84 0855.19
2009/04/23 11:48:09.1       5    -65    109     66    127 175.5  66.2  34174  289.82 0855.19
2009/04/23 11:48:09.2     -15   -106     68    108    127 188.5  35.5  34174  289.80 0855.19
2009/04/23 11:48:09.3     -38   -122     12    128    129 197.4   5.4  34174  289.80 0855.19
2009/04/23 11:48:09.4     -71   -165     63    180    191 203.4  19.4  34178  289.89 0855.19
2009/04/23 11:48:09.5    -117   -197      2    230    231 210.7   0.7  34184  289.99 0855.19
2009/04/23 11:48:09.6    -171   -206     58    268    275 219.7  12.4  34198  290.22 0855.19
2009/04/23 11:48:09.7    -148   -232     49    276    281 212.6  10.1  34196  290.17 0855.19
2009/04/23 11:48:09.8    -158   -198     73    254    265 218.5  16.0  34200  290.24 0855.19
2009/04/23 11:48:09.9    -150   -197     82    248    262 217.4  18.4  34214  290.48 0855.19
2009/04/23 11:48:10.0    -165   -172    100    239    259 223.7  23.8  34212  290.46 0855.19
2009/04/23 11:48:10.1    -104   -175     38    204    208 210.8  10.6  34210  290.41 0855.19
2009/04/23 11:48:10.2     -92    -90     55    129    140 225.6  24.6  34222  290.62 0855.19
2009/04/23 11:48:10.3     -86    -73     67    113    131 229.6  33.5  34220  290.60 0855.19
2009/04/23 11:48:10.4     -78    -68     74    104    127 228.7  39.5  34222  290.62 0855.19
2009/04/23 11:48:10.5     -92   -104    118    140    183 221.4  44.5  34220  290.58 0855.19
2009/04/23 11:48:10.6    -104   -129     97    166    192 219.0  33.1  34208  290.38 0855.19
2009/04/23 11:48:10.7    -142   -114     54    183    191 231.1  16.6  34202  290.30 0855.19
2009/04/23 11:48:10.8     -94   -113     93    148    174 219.6  35.5  34198  290.23 0855.19
2009/04/23 11:48:10.9     -80   -133    115    156    193 211.2  39.9  34190  290.09 0855.19
2009/04/23 11:48:11.0     -81   -102     67    131    147 218.7  29.2  34194  290.14 0855.19
2009/04/23 11:48:11.1    -120   -112     64    165    176 226.9  22.5  34198  290.21 0855.19
2009/04/23 11:48:11.2    -129   -137     87    189    208 223.2  27.0  34204  290.31 0855.19
2009/04/23 11:48:11.3    -123   -138    107    185    213 221.7  33.1  34210  290.41 0855.19
2009/04/23 11:48:11.4    -153   -218     89    267    282 215.2  18.4  34210  290.41 0855.19
2009/04/23 11:48:11.5    -151   -229     54    275    281 213.4  11.1  34206  290.36 0855.19
2009/04/23 11:48:11.6    -168   -168     64    239    248 225.0  15.2  34222  290.63 0855.19
2009/04/23 11:48:11.7    -190   -158     59    248    256 230.4  13.5  34228  290.71 0855.19
2009/04/23 11:48:11.8    -191   -140     -9    237    238 233.8  -2.2  34222  290.63 0855.19
2009/04/23 11:48:11.9    -209   -124     40    244    248 239.3   9.3  34232  290.78 0855.19
2009/04/23 11:48:12.0    -169   -125     -8    211    212 233.6  -2.2  34224  290.65 0855.19
2009/04/23 11:48:12.1    -213    -84     11    230    231 248.3   2.8  34230  290.77 0855.19
2009/04/23 11:48:12.2    -224    -94     -9    244    245 247.2  -2.3  34228  290.73 0855.19
2009/04/23 11:48:12.3    -177    -65     36    189    193 249.6  10.8  34232  290.81 0855.19
2009/04/23 11:48:12.4    -151    -24     67    154    167 260.8  24.9  34244  290.99 0855.19
2009/04/23 11:48:12.5    -155    -11     96    156    183 265.6  35.0  34240  290.92 0855.19
2009/04/23 11:48:12.6    -104    -35     37    110    117 251.4  18.9  34246  291.04 0855.19
2009/04/23 11:48:12.7     -79    -36     28     88     93 245.2  17.9  34246  291.03 0855.19
2009/04/23 11:48:12.8    -103    -45     22    113    116 246.0  11.1  34238  290.89 0855.19
2009/04/23 11:48:12.9     -59    -42     54     73     90 234.1  40.1  34240  290.92 0855.19
2009/04/23 11:48:13.1     -44    -61     60     76     96 216.0  42.7  34244  290.99 0855.19
2009/04/23 11:48:13.1    -168   -123     70    209    221 233.8  18.6  34208  290.38 0855.19
2009/04/23 11:48:13.2    -133   -197    155    239    284 214.1  35.7  34216  290.51 0855.19
2009/04/23 11:48:13.3    -113   -257     98    281    298 203.7  19.4  34220  290.58 0855.19
2009/04/23 11:48:13.4    -122   -230     55    261    267 207.9  12.0  34230  290.75 0855.19
2009/04/23 11:48:13.5    -210   -230     19    312    313 222.3   3.5  34232  290.78 0855.19
2009/04/23 11:48:13.6    -223   -167    -10    279    280 233.1  -2.2  34232  290.80 0855.19
2009/04/23 11:48:13.7    -221   -201    -11    300    301 227.7  -2.2  34200  290.26 0855.19
2009/04/23 11:48:13.8    -141   -220     31    262    264 212.6   6.9  34192  290.10 0855.19
2009/04/23 11:48:13.9    -111   -222     50    249    255 206.5  11.4  34198  290.20 0855.19
2009/04/23 11:48:14.0     -94   -214     99    235    255 203.8  24.2  34194  290.15 0855.19
2009/04/23 11:48:14.1    -151   -236     84    281    294 212.6  16.8  34206  290.34 0855.19
2009/04/23 11:48:14.3    -235   -249     66    343    350 223.3  11.0  34234  290.84 0855.19
2009/04/23 11:48:14.3    -266   -168     19    315    316 237.6   3.5  34268  291.39 0855.19
2009/04/23 11:48:14.4    -233   -185    -58    298    304 231.6 -11.1  34220  290.59 0855.19
2009/04/23 11:48:14.5    -232   -126    -68    265    274 241.4 -14.4  34240  290.92 0855.19
2009/04/23 11:48:14.6    -226   -121    -36    257    260 241.8  -8.0  34184  289.97 0855.17
2009/04/23 11:48:14.7    -232   -102    -90    254    270 246.3 -19.7  34188  290.03 0855.17
2009/04/23 11:48:14.8    -126   -127    -80    180    196 224.8 -29.7  34170  289.75 0855.17
2009/04/23 11:48:14.9    -134   -114    -63    177    189 229.6 -19.7  34182  289.94 0855.17
2009/04/23 11:48:15.0    -144    -25    -11    147    148 259.9  -4.6  34186  290.01 0855.17
2009/04/23 11:48:15.1    -140    -71     15    158    159 242.9   5.4  34200  290.26 0855.17
2009/04/23 11:48:15.2    -101   -114    107    153    186 221.4  38.6  34202  290.28 0855.17
2009/04/23 11:48:15.3    -136      0    125    137    185 269.6  47.5  34218  290.57 0855.17
2009/04/23 11:48:15.5    -189    -93     77    211    224 243.6  20.9  34204  290.33 0855.17
2009/04/23 11:48:15.5    -116   -111     74    161    177 226.2  26.4  34178  289.89 0855.17
2009/04/23 11:48:15.6     -55   -105     40    119    126 207.6  18.9  34184  289.97 0855.17
2009/04/23 11:48:15.7     -52   -130     18    141    143 201.8   7.5  34188  290.04 0855.17
2009/04/23 11:48:15.8     -52   -148      6    158    159 199.6   2.5  34196  290.18 0855.17
2009/04/23 11:48:15.9       0   -122     47    123    131 180.0  21.5  34186  290.01 0855.17
2009/04/23 11:48:16.0     -18   -126     83    128    152 188.5  35.6  34178  289.89 0855.17
2009/04/23 11:48:16.1     -27   -139     76    142    161 191.1  30.6  34176  289.84 0855.17
2009/04/23 11:48:16.2     -10   -132     56    133    144 184.5  23.6  34174  289.80 0855.17
2009/04/23 11:48:16.3     -14    -72    115     74    136 191.5  64.6  34178  289.87 0855.17
2009/04/23 11:48:16.4     -40    -77    117     87    145 207.6  60.0  34182  289.94 0855.17
2009/04/23 11:48:16.5     -94    -72    109    119    161 232.7  47.5  34186  290.01 0855.17
2009/04/23 11:48:16.7     -84    -75     99    113    150 228.2  45.8  34188  290.06 0855.15
2009/04/23 11:48:16.7    -163    -44    110    169    201 254.7  35.7  34200  290.26 0855.15
2009/04/23 11:48:16.8    -115    -83    132    143    194 234.0  47.9  34196  290.19 0855.15
2009/04/23 11:48:16.9     -68    -52    123     86    150 232.7  61.5  34202  290.30 0855.15
2009/04/23 11:48:17.0    -129     -5    101    130    164 267.5  41.7  34210  290.41 0855.15
2009/04/23 11:48:17.1    -184     13     62    185    196 274.3  18.6  34206  290.35 0855.15
2009/04/23 11:48:17.2     -89     21     32     92     98 283.3  19.4  34206  290.35 0855.15
2009/04/23 11:48:17.3     -25    -19     20     32     37 232.2  35.5  34202  290.28 0855.15
2009/04/23 11:48:17.4      -6    -79     76     80    110 184.4  48.5  34200  290.26 0855.15
2009/04/23 11:48:17.5      14    -72     80     74    108 168.4  52.2  34190  290.09 0855.15
2009/04/23 11:48:17.6      -1   -116     73    117    137 180.5  35.5  34180  289.92 0855.15
2009/04/23 11:48:17.7      10   -132     56    133    144 175.5  23.6  34178  289.89 0855.15
2009/04/23 11:48:17.8     -19   -113     69    115    134 189.8  34.4  34178  289.89 0855.15
2009/04/23 11:48:18.0     -22   -131     74    133    152 189.7  31.4  34176  289.84 0855.15
2009/04/23 11:48:18.1     -57   -170     72    180    193 198.5  23.0  34164  289.65 0855.15
2009/04/23 11:48:18.2     -49   -165     75    173    188 196.5  24.9  34154  289.48 0855.15
2009/04/23 11:48:18.3     -20   -260     91    261    277 184.5  19.2  34154  289.46 0855.15
2009/04/23 11:48:18.4      12   -256     94    257    273 177.3  20.9  34154  289.47 0855.15
2009/04/23 11:48:18.5      15   -194    101    195    219 175.5  29.5  34152  289.45 0855.15
2009/04/23 11:48:18.6     -41   -238    105    242    263 189.8  25.1  34156  289.51 0855.15
2009/04/23 11:48:18.7     -20   -240     84    241    256 184.9  19.2  34158  289.53 0855.12
2009/04/23 11:48:18.8      15   -170     77    171    187 174.9  26.2  34158  289.55 0855.12
2009/04/23 11:48:18.9      40   -157      2    163    164 165.5   1.0  34158  289.55 0855.12
2009/04/23 11:48:19.0      15   -108     41    110    117 171.9  21.0  34160  289.57 0855.12
2009/04/23 11:48:19.1       8   -108     96    109    145 175.5  45.9  34158  289.55 0855.12
2009/04/23 11:48:19.2      11   -161    181    162    242 176.0  53.5  34160  289.57 0855.12
2009/04/23 11:48:19.3       4   -127    100    128    162 177.8  42.2  34162  289.60 0855.12
2009/04/23 11:48:19.4     -10   -139    144    140    200 184.5  50.7  34160  289.57 0855.12
2009/04/23 11:48:19.5     -32   -108    125    113    168 196.5  53.3  34160  289.57 0855.12
2009/04/23 11:48:19.6    -107   -135     77    173    189 218.5  25.9  34154  289.48 0855.12
2009/04/23 11:48:19.7     -75   -136     83    156    176 209.0  30.3  34158  289.53 0855.12
2009/04/23 11:48:19.8     -64   -151    121    165    204 202.9  39.7  34158  289.55 0855.12
2009/04/23 11:48:19.9     -32   -157     99    161    189 191.5  35.0  34158  289.55 0855.12
2009/04/23 11:48:20.0     -64   -166     80    179    196 201.2  25.3  34160  289.57 0855.12
2009/04/23 11:48:20.1     -71   -208     48    220    226 198.9  12.4  34162  289.60 0855.12
2009/04/23 11:48:20.2      30   -198    123    201    235 171.3  34.4  34160  289.57 0855.12
2009/04/23 11:48:20.3      11   -253    110    254    276 177.5  25.1  34166  289.66 0855.12
2009/04/23 11:48:20.4     -61   -163     61    175    186 200.5  19.4  34164  289.65 0855.12
2009/04/23 11:48:20.5     -87    -84     41    122    129 226.0  18.9  34166  289.67 0855.12
2009/04/23 11:48:20.6     -14   -135    123    136    183 186.3  47.1  34166  289.69 0855.12
2009/04/23 11:48:20.7     -59   -206     85    215    231 196.0  23.0  34168  289.70 0855.12
2009/04/23 11:48:20.8     -49   -147     77    156    173 198.7  28.0  34168  289.70 0855.12
2009/04/23 11:48:20.9     -40   -137     63    143    156 196.5  25.2  34166  289.67 0855.12
2009/04/23 11:48:21.0      24   -173     91    175    197 172.0  29.5  34164  289.63 0855.12
2009/04/23 11:48:21.1     -36   -213     92    217    235 189.8  24.3  34168  289.72 0855.12
2009/04/23 11:48:21.2      -4   -152     90    153    177 181.8  33.1  34166  289.67 0855.12
2009/04/23 11:48:21.3      24   -141     57    144    154 170.2  22.5  34166  289.69 0855.12
2009/04/23 11:48:21.4      71   -153      8    169    170 155.1   2.9  34168  289.72 0855.12
2009/04/23 11:48:21.5      82   -120      2    146    147 145.7   0.8  34166  289.69 0855.12
2009/04/23 11:48:21.6      50   -155    -41    163    169 162.0 -14.3  34168  289.72 0855.12
2009/04/23 11:48:21.7     137   -154    -55    207    215 138.3 -15.0  34168  289.72 0855.12
2009/04/23 11:48:21.8     125   -154    -28    199    202 140.8  -8.0  34168  289.72 0855.12
2009/04/23 11:48:21.9     103   -128     -3    165    166 141.3  -1.3  34166  289.67 0855.12
2009/04/23 11:48:22.0      62   -112     12    129    130 151.0   5.4  34170  289.75 0855.12
2009/04/23 11:48:22.1      67   -141     42    157    163 154.6  15.3  34168  289.70 0855.12
2009/04/23 11:48:22.2      80   -125     55    149    158 147.5  21.3  34168  289.72 0855.12
2009/04/23 11:48:22.3      71    -98    107    122    162 144.0  45.8  34170  289.74 0855.12
2009/04/23 11:48:22.4      23    -48    112     54    124 154.5  72.4  34174  289.82 0855.12
2009/04/23 11:48:22.5     -10    -92    145     93    172 186.7  64.6  34170  289.75 0855.12
2009/04/23 11:48:22.6      20     62    110     66    128  18.3  66.2  34172  289.77 0855.12
2009/04/23 11:48:22.7      43    -12     97     45    106 105.9  73.5  34170  289.74 0855.14
2009/04/23 11:48:22.8      31      6    120     32    124  78.6  84.8  34172  289.77 0855.14
2009/04/23 11:48:22.9     166    -76     57    183    192 114.8  17.3  34170  289.75 0855.14
2009/04/23 11:48:23.0     131   -117     65    176    187 131.8  21.0  34170  289.74 0855.14
2009/04/23 11:48:23.1     135   -143    108    197    224 136.6  31.3  34168  289.72 0855.14
2009/04/23 11:48:23.2     165   -155    130    227    261 133.2  32.4  34164  289.63 0855.14
2009/04/23 11:48:23.3     144   -197    107    245    267 143.9  25.1  34170  289.75 0855.14
2009/04/23 11:48:23.4      81   -217     82    232    247 159.3  19.4  34168  289.71 0855.14
2009/04/23 11:48:23.5      67   -178    108    191    219 159.3  31.6  34172  289.77 0855.14
2009/04/23 11:48:23.6     104   -139    130    174    217 143.3  40.4  34172  289.77 0855.14
2009/04/23 11:48:23.7     103   -171    139    200    243 148.8  38.0  34168  289.70 0855.14
2009/04/23 11:48:23.8     217   -224    156    313    349 135.9  28.4  34172  289.79 0855.14
2009/04/23 11:48:23.9     169   -217    192    276    336 142.2  38.4  34160  289.56 0855.14
2009/04/23 11:48:24.0     114   -252    146    277    313 155.5  30.0  34162  289.61 0855.14
2009/04/23 11:48:24.1      30   -403     78    405    413 175.6  11.0  34160  289.58 0855.14
2009/04/23 11:48:24.2      17   -282     72    283    293 176.4  14.3  34164  289.63 0855.14
2009/04/23 11:48:24.3     253   -211    -35    330    332 129.8  -6.1  34164  289.65 0855.14
2009/04/23 11:48:24.4     200   -259     62    328    334 142.4  10.7  34164  289.64 0855.14
2009/04/23 11:48:24.5     181   -397    110    437    451 155.5  14.2  34166  289.68 0855.14
2009/04/23 11:48:24.6     138   -352     99    379    392 158.6  14.7  34168  289.71 0855.14
2009/04/23 11:48:24.7      56   -324    -30    329    331 170.1  -5.3  34168  289.71 0855.16
2009/04/23 11:48:24.8      68   -222    -64    233    242 162.8 -15.4  34166  289.66 0855.16
2009/04/23 11:48:24.9     141   -238   -104    277    295 149.3 -25.9  34172  289.78 0855.16
2009/04/23 11:48:25.0     103   -258    -70    278    287 158.2 -14.3  34170  289.75 0855.16
2009/04/23 11:48:25.1    -133   -307    -35    335    337 203.4  -6.0  34178  289.86 0855.16
2009/04/23 11:48:25.2    -114   -252    -10    277    278 204.5  -2.2  34182  289.95 0855.16
2009/04/23 11:48:25.3     -59   -255      9    262    263 193.1   2.1  34178  289.88 0855.16
2009/04/23 11:48:25.4      45   -216     47    221    226 168.2  12.0  34168  289.72 0855.16
2009/04/23 11:48:25.5      12   -158     56    159    169 175.5  19.6  34168  289.70 0855.16
2009/04/23 11:48:25.6     -26    -98    -35    102    107 195.1 -23.3  34174  289.82 0855.16
2009/04/23 11:48:25.7     -55   -127    -75    139    157 203.7 -35.2  34178  289.87 0855.16
2009/04/23 11:48:25.8      -2   -168    -57    169    178 180.7 -23.6  34180  289.91 0855.16
2009/04/23 11:48:25.9       0   -131     12    132    133 180.4   5.4  34178  289.87 0855.16
2009/04/23 11:48:26.0       0   -117    -10    118    119 180.0  -5.2  34180  289.92 0855.16
2009/04/23 11:48:26.1      42    -94    -21    103    106 155.9 -11.5  34180  289.92 0855.16
2009/04/23 11:48:26.2      72   -132    -19    151    153 151.1  -7.2  34180  289.92 0855.16
2009/04/23 11:48:26.3     100   -153    -17    184    185 146.8  -5.6  34180  289.91 0855.16
2009/04/23 11:48:26.4     119   -202      8    235    236 149.5   2.1  34178  289.88 0855.16
2009/04/23 11:48:26.5     170   -189     35    255    258 138.1   8.0  34172  289.78 0855.16
2009/04/23 11:48:26.6     203   -178     42    271    275 131.3   8.9  34166  289.66 0855.16
2009/04/23 11:48:26.7     227   -181     12    291    292 128.6   2.5  34164  289.63 0855.17
2009/04/23 11:48:26.8     245   -204      2    319    320 129.8   0.4  34172  289.76 0855.17
2009/04/23 11:48:26.9     290   -188     30    346    348 123.0   5.1  34172  289.79 0855.17
2009/04/23 11:48:27.0     114   -344    -95    363    376 161.7 -14.7  34172  289.79 0855.17
2009/04/23 11:48:27.1     127   -268   -141    297    328 154.5 -31.6  34172  289.76 0855.17
2009/04/23 11:48:27.2      98   -208   -164    231    283 154.7 -43.0  34174  289.80 0855.17
2009/04/23 11:48:27.3      76   -116   -113    139    179 146.6 -47.9  34172  289.77 0855.17
2009/04/23 11:48:27.4      74   -214   -126    227    259 160.8 -35.8  34172  289.78 0855.17
2009/04/23 11:48:27.5      53   -180    -42    188    193 163.3 -12.6  34168  289.72 0855.17
2009/04/23 11:48:27.6     128   -207    -67    244    254 148.4 -15.4  34172  289.76 0855.17
2009/04/23 11:48:27.7     187   -164    -49    250    255 131.3 -11.1  34170  289.75 0855.17
2009/04/23 11:48:27.8     268    -97     42    286    290 109.9   8.5  34166  289.68 0855.17
2009/04/23 11:48:27.9     264    -95     29    281    283 110.0   5.9  34168  289.71 0855.17
2009/04/23 11:48:28.0     233   -131     32    268    270 119.3   6.9  34168  289.70 0855.17
2009/04/23 11:48:28.1     241   -140     18    280    281 120.2   3.8  34164  289.63 0855.17
2009/04/23 11:48:28.2     231   -147     91    275    290 122.5  18.4  34166  289.66 0855.17
2009/04/23 11:48:28.3     188   -180     99    261    279 133.8  21.7  34164  289.63 0855.17
2009/04/23 11:48:28.4     140   -166     97    218    238 139.7  25.7  34164  289.65 0855.17
2009/04/23 11:48:28.5     122    -53      6    134    135 113.5   2.9  34166  289.67 0855.17
2009/04/23 11:48:28.6      52   -107    -84    120    146 154.1 -43.0  34162  289.60 0855.17
2009/04/23 11:48:28.7      51   -151   -115    160    197 161.3 -43.7  34162  289.62 0855.19
2009/04/23 11:48:28.8     114    -82   -119    141    184 126.0 -48.9  34168  289.70 0855.19
2009/04/23 11:48:28.9      88    -96   -110    131    171 137.7 -48.7  34166  289.69 0855.19
2009/04/23 11:48:29.0     104    -87    -49    136    144 130.0 -24.4  34170  289.75 0855.19
2009/04/23 11:48:29.1     114    -98    -61    151    162 130.9 -27.4  34164  289.63 0855.19
2009/04/23 11:48:29.2     145   -214    -12    259    260 145.7  -2.8  34168  289.70 0855.19
2009/04/23 11:48:29.3      96   -226     12    246    247 156.8   2.9  34166  289.68 0855.19
2009/04/23 11:48:29.4     -12   -157    128    158    203 184.5  43.3  34168  289.70 0855.19
2009/04/23 11:48:29.5     -92   -147    143    174    225 212.1  43.7  34164  289.63 0855.19
2009/04/23 11:48:29.6     -65   -128    130    144    194 207.2  47.1  34164  289.65 0855.19
2009/04/23 11:48:29.7     -76   -119     98    142    172 212.6  37.8  34166  289.69 0855.23
2009/04/23 11:48:29.8     -29    -62     39     69     79 205.3  32.4  34166  289.69 0855.23
2009/04/23 11:48:29.9       8      4     31     10     32  61.1  80.7  34168  289.72 0855.23
2009/04/23 11:48:30.0      31    -31     58     45     73 135.0  57.5  34172  289.77 0855.23
2009/04/23 11:48:30.1     -15    -75     71     77    104 191.6  47.9  34168  289.70 0855.23
2009/04/23 11:48:30.2     -13    -66     -2     68     69 191.6  -2.2  34170  289.74 0855.23
2009/04/23 11:48:30.3     -21    -64    -49     68     83 198.5 -44.1  34172  289.77 0855.23
2009/04/23 11:48:30.4      13    -65    -34     67     75 168.5 -32.6  34170  289.74 0855.23
2009/04/23 11:48:30.5      77    -77     21    109    112 135.0  11.0  34166  289.67 0855.23
2009/04/23 11:48:30.6     138    -84    -16    162    163 121.5  -6.0  34166  289.67 0855.23
2009/04/23 11:48:30.7     147    -56     -7    158    159 110.8  -2.6  34164  289.65 0855.23
2009/04/23 11:48:30.8     148    -64     -4    162    163 113.5  -1.6  34162  289.60 0855.23
2009/04/23 11:48:30.9      85    -40     41     95    103 115.3  24.6  34162  289.62 0855.23
2009/04/23 11:48:31.0      -2    -66     89     67    111 181.8  59.0  34160  289.58 0855.23
2009/04/23 11:48:31.1     -51    -92    122    106    161 209.0  54.6  34170  289.74 0855.23
2009/04/23 11:48:31.2     -80    -46    110     93    144 239.8  55.8  34168  289.72 0855.23
2009/04/23 11:48:31.3     -43    -15     47     46     65 250.0  50.1  34168  289.70 0855.23
2009/04/23 11:48:31.4     -32      6     41     33     52 281.4  56.4  34168  289.72 0855.23
2009/04/23 11:48:31.5      -9     -9     -5     14     15 225.0 -19.7  34170  289.74 0855.23
2009/04/23 11:48:31.6     -59      3    -20     60     64 273.5 -18.7  34168  289.70 0855.23
2009/04/23 11:48:31.7     -50     74     11     90     91 326.2   7.5  34166  289.69 0855.25
2009/04/23 11:48:31.8     -40     40     17     57     60 315.0  17.3  34168  289.72 0855.25
2009/04/23 11:48:31.9      17     25     64     31     71  34.3  72.8  34166  289.69 0855.25
2009/04/23 11:48:32.0     -28     -9     18     30     35 251.4  35.5  34168  289.70 0855.25
2009/04/23 11:48:32.1     -27     64      3     70     71 337.3   2.8  34168  289.70 0855.25
2009/04/23 11:48:32.2     -34     97    -30    103    108 340.4 -16.6  34168  289.70 0855.25
2009/04/23 11:48:32.3     -49     85      1     99    100 329.7   0.8  34168  289.70 0855.25
2009/04/23 11:48:32.4      -1     68     49     69     84 359.1  38.6  34172  289.77 0855.25
2009/04/23 11:48:32.5     -21     58     26     62     67 340.0  23.1  34174  289.82 0855.25
2009/04/23 11:48:32.6     -23     39     24     46     51 329.3  29.3  34174  289.80 0855.25
2009/04/23 11:48:32.7     -68     13    -16     70     72 281.5 -13.4  34172  289.77 0855.25
2009/04/23 11:48:32.8     -78    -72    -29    107    111 227.3 -15.4  34168  289.72 0855.25
2009/04/23 11:48:32.9     -32    -76    -29     83     89 202.7 -19.7  34168  289.70 0855.25
2009/04/23 11:48:33.0     -10    -91     49     92    104 186.7  30.8  34168  289.72 0855.25
2009/04/23 11:48:33.1     -52    -50     61     73     95 225.9  43.8  34170  289.75 0855.25
2009/04/23 11:48:33.2     -55    -12     49     57     75 257.6  44.8  34170  289.74 0855.25
2009/04/23 11:48:33.3     -51    -47      7     70     71 226.9   5.9  34168  289.72 0855.25
2009/04/23 11:48:33.4    -127    -70    -10    146    147 241.1  -4.1  34172  289.77 0855.25
2009/04/23 11:48:33.5    -178    -22    -14    180    181 262.8  -4.6  34172  289.77 0855.25
2009/04/23 11:48:33.6    -324    -24    -65    325    332 265.6 -11.3  34184  289.98 0855.25
2009/04/23 11:48:33.7    -329    -29    -94    331    345 264.9 -15.9  34178  289.89 0855.23
2009/04/23 11:48:33.8    -366     28   -100    368    382 274.5 -15.2  34178  289.86 0855.23
2009/04/23 11:48:33.9    -393      0    -85    394    404 270.0 -12.3  34178  289.86 0855.23
2009/04/23 11:48:34.0    -444    -11    -53    445    449 268.5  -6.9  34182  289.95 0855.23
2009/04/23 11:48:34.1    -479    -37    -64    481    486 265.5  -7.6  34174  289.81 0855.23
2009/04/23 11:48:34.2    -407    -38   -123    409    428 264.6 -16.8  34172  289.77 0855.23
2009/04/23 11:48:34.3    -394    -80    -55    402    406 258.5  -7.9  34176  289.83 0855.23
2009/04/23 11:48:34.4    -202   -241     94    315    329 220.0  16.7  34164  289.64 0855.23
2009/04/23 11:48:34.5    -217   -229     55    316    321 223.4  10.0  34166  289.66 0855.23
2009/04/23 11:48:34.6    -208   -243     61    321    327 220.5  10.8  34166  289.66 0855.23
2009/04/23 11:48:34.7    -283   -191     92    342    355 236.0  15.1  34166  289.67 0855.23
2009/04/23 11:48:34.8    -308   -101     39    325    328 251.8   6.9  34176  289.83 0855.23
2009/04/23 11:48:34.9    -402    -94   -158    413    442 256.8 -26.4  34164  289.63 0855.23
2009/04/23 11:48:35.0    -327    -39   -113    330    349 263.2 -18.9  34164  289.64 0855.23
2009/04/23 11:48:35.1    -349    -62   -107    355    370 259.9 -21.7  34158  289.55 0855.23
2009/04/23 11:48:35.2    -411   -111   -139    426    448 254.9 -23.5  34174  289.82 0855.23
2009/04/23 11:48:35.3    -440    -61   -189    445    483 262.0 -28.9  34176  289.83 0855.23
2009/04/23 11:48:35.4    -308   -392   -116    499    513 218.1 -13.2  34170  289.73 0855.23
2009/04/23 11:48:35.5    -267   -322   -115    419    434 219.7 -20.0  34166  289.68 0855.23
2009/04/23 11:48:35.6    -428   -253    -88    498    506 239.4 -10.1  34176  289.83 0855.23
2009/04/23 11:48:35.7    -453   -148   -157    477    503 251.9 -18.3  34176  289.84 0855.22
2009/04/23 11:48:35.8    -425    -55   -127    429    447 262.5 -21.5  34180  289.90 0855.22
2009/04/23 11:48:35.9    -436    -67   -144    442    464 261.2 -23.3  34176  289.85 0855.22
2009/04/23 11:48:36.0    -430   -116    -40    446    448 254.9  -5.2  34186  290.00 0855.22
2009/04/23 11:48:36.1    -528     65    -29    533    534 277.1  -3.2  34152  289.45 0855.22
2009/04/23 11:48:36.2    -385    109   -143    401    426 285.9 -19.7  34144  289.29 0855.22
2009/04/23 11:48:36.3    -332      1    -99    333    347 270.3 -21.5  34150  289.40 0855.22
2009/04/23 11:48:36.4    -463   -107    -26    476    477 257.0  -3.1  34170  289.73 0855.22
2009/04/23 11:48:36.5    -463   -103    -81    475    482 257.4  -9.7  34170  289.74 0855.22
2009/04/23 11:48:36.6    -550   -148   -150    570    590 254.9 -14.8  34164  289.64 0855.22
2009/04/23 11:48:36.7    -302   -301    -85    427    436 225.1 -11.3  34182  289.95 0855.22
2009/04/23 11:48:36.8    -249    -67    -78    258    269 254.9 -21.8  34168  289.70 0855.22
2009/04/23 11:48:36.9    -207   -264    -31    336    338 218.1  -5.4  34182  289.96 0855.22
2009/04/23 11:48:37.0    -108   -257     65    279    287 202.8  13.1  34190  290.09 0855.22
2009/04/23 11:48:37.1     -86   -149    -21    173    175 209.9  -7.2  34188  290.06 0855.22
2009/04/23 11:48:37.2    -137    -75      9    157    158 241.2   3.6  34186  290.02 0855.22
2009/04/23 11:48:37.3    -136    -82     65    160    172 238.9  23.0  34188  290.06 0855.22
2009/04/23 11:48:37.4    -223   -239     -6    328    329 223.0  -1.2  34188  290.03 0855.22
2009/04/23 11:48:37.5    -186   -221    -11    290    291 220.1  -2.2  34178  289.86 0855.22
2009/04/23 11:48:37.6     -94   -248    -13    266    267 200.9  -2.8  34174  289.80 0855.22
2009/04/23 11:48:37.7     -94   -354     58    367    372 194.9   9.0  34172  289.79 0855.23
2009/04/23 11:48:37.8    -165   -324     71    364    372 207.0  11.1  34172  289.77 0855.23
2009/04/23 11:48:37.9    -130   -289     36    318    321 204.3   6.6  34174  289.80 0855.23
2009/04/23 11:48:38.0    -114   -328      2    348    349 199.2   0.4  34172  289.79 0855.23
2009/04/23 11:48:38.1     -32   -226    -29    229    231 188.1  -7.3  34174  289.80 0855.23
2009/04/23 11:48:38.2      18   -238      4    239    240 175.5   1.0  34170  289.75 0855.23
2009/04/23 11:48:38.3      81   -283     91    295    309 164.0  17.3  34172  289.78 0855.23
2009/04/23 11:48:38.4      -2   -258     65    259    268 180.5  14.2  34170  289.75 0855.23
2009/04/23 11:48:38.5     -49   -264     36    269    272 190.6   7.8  34168  289.70 0855.23
2009/04/23 11:48:38.6    -113   -177     10    211    212 212.6   2.8  34166  289.69 0855.23
2009/04/23 11:48:38.7     -43   -167     44    173    179 194.5  14.5  34164  289.65 0855.23
2009/04/23 11:48:38.8     -48    -97     21    109    112 206.3  11.1  34166  289.67 0855.23
2009/04/23 11:48:38.9     -20    -71     33     74     81 196.0  25.7  34162  289.62 0855.23
2009/04/23 11:48:39.0       9   -102     95    103    140 174.7  47.9  34170  289.74 0855.23
2009/04/23 11:48:39.1     -80   -104     66    132    147 217.4  28.2  34168  289.70 0855.23
2009/04/23 11:48:39.2    -170    -70      9    184    185 247.6   2.8  34164  289.63 0855.23
2009/04/23 11:48:39.3    -190    -97     -6    214    215 242.9  -1.8  34160  289.58 0855.23
2009/04/23 11:48:39.4    -220    -47    -17    226    227 257.8  -4.4  34160  289.57 0855.23
2009/04/23 11:48:39.5    -299      1    -32    300    302 270.4  -6.2  34158  289.53 0855.23
2009/04/23 11:48:39.6    -420     66   -100    426    438 279.0 -13.3  34148  289.36 0855.23
2009/04/23 11:48:39.7    -226    143     28    268    270 302.4   6.1  34162  289.61 0855.22
2009/04/23 11:48:39.8    -248    138     -5    285    286 299.1  -1.1  34166  289.68 0855.22
2009/04/23 11:48:39.9    -211    138     11    253    254 303.3   2.5  34164  289.64 0855.22
2009/04/23 11:48:40.0    -162    174     69    238    248 317.0  16.3  34168  289.70 0855.22
2009/04/23 11:48:40.1    -184    229     25    294    296 321.2   5.0  34160  289.56 0855.22
2009/04/23 11:48:40.2    -204    111    -31    233    236 298.6  -7.7  34158  289.54 0855.22
2009/04/23 11:48:40.3    -188     34    -55    192    199 280.4 -20.7  34164  289.63 0855.22
2009/04/23 11:48:40.4     -38   -203    -67    207    218 190.7 -17.9  34164  289.65 0855.22
2009/04/23 11:48:40.5      62   -281    -36    288    291 167.5  -7.2  34166  289.66 0855.22
2009/04/23 11:48:40.7      68   -289     29    297    299 166.7   5.7  34162  289.61 0855.22
2009/04/23 11:48:40.7      26   -257     43    259    263 174.0   9.5  34160  289.58 0855.22
2009/04/23 11:48:40.8      27   -293     -5    295    296 174.6  -1.2  34166  289.68 0855.22
2009/04/23 11:48:40.9      16   -209     77    210    223 175.5  20.9  34162  289.62 0855.22
2009/04/23 11:48:41.0     170   -191    138    256    290 138.3  30.8  34156  289.51 0855.22
2009/04/23 11:48:41.1     147   -209    131    256    287 144.8  29.2  34154  289.47 0855.22
2009/04/23 11:48:41.2     313   -160    252    352    432 117.1  39.2  34146  289.34 0855.22
2009/04/23 11:48:41.3     319    -79    430    329    541 104.1  58.9  34156  289.49 0855.22
2009/04/23 11:48:41.4     393   -119    281    411    497 106.9  37.6  34162  289.62 0855.22
2009/04/23 11:48:41.5     506     66    380    511    636  82.5  40.4  34146  289.34 0855.22
2009/04/23 11:48:41.6     484    146    354    506    617  73.2  38.5  34142  289.27 0855.22
2009/04/23 11:48:41.7     152     67    370    167    405  66.0  74.1  34156  289.52 0855.22
2009/04/23 11:48:41.8     284   -131    369    313    483 114.8  55.5  34154  289.46 0855.22
2009/04/23 11:48:41.9     434   -146    329    459    564 108.6  39.2  34158  289.55 0855.22
2009/04/23 11:48:42.0     357   -262    329    444    552 126.3  40.2  34160  289.57 0855.22
2009/04/23 11:48:42.1     330   -143    356    360    506 113.4  49.9  34162  289.61 0855.22
2009/04/23 11:48:42.2     113   -223    304    251    394 153.0  56.4  34162  289.59 0855.22
2009/04/23 11:48:42.3      15   -499    305    500    585 178.2  34.3  34162  289.60 0855.22
2009/04/23 11:48:42.4    -206   -435    169    482    510 205.3  20.2  34154  289.47 0855.22
2009/04/23 11:48:42.5     -17   -400    173    401    436 182.5  24.9  34158  289.53 0855.22
2009/04/23 11:48:42.6    -153   -397    322    426    534 201.2  40.8  34156  289.52 0855.22
2009/04/23 11:48:42.7    -257   -418    204    491    531 211.6  23.8  34152  289.44 0855.22
2009/04/23 11:48:42.8    -206   -458    162    503    529 204.2  17.9  34144  289.31 0855.22
2009/04/23 11:48:42.9    -199   -442     -1    485    486 204.3  -0.2  34174  289.81 0855.22
2009/04/23 11:48:43.0     -89   -373    199    384    432 193.5  29.4  34158  289.53 0855.22
2009/04/23 11:48:43.1     -77   -414    201    422    467 190.6  27.3  34154  289.46 0855.22
2009/04/23 11:48:43.2     -47   -390    246    393    463 186.9  35.2  34154  289.48 0855.22
2009/04/23 11:48:43.3     -28   -514    104    515    526 183.1  11.5  34152  289.45 0855.22
2009/04/23 11:48:43.4       0   -479     75    480    486 180.0   8.9  34152  289.45 0855.22
2009/04/23 11:48:43.5      46   -463    182    466    500 174.3  22.5  34156  289.49 0855.22
2009/04/23 11:48:43.6      23   -484     88    485    493 177.2  10.3  34150  289.39 0855.22
2009/04/23 11:48:43.8     -75   -427     37    434    436 190.0   5.0  34146  289.34 0855.21
2009/04/23 11:48:43.9    -112   -397     23    413    414 195.8   3.3  34150  289.39 0855.21
2009/04/23 11:48:44.0    -134   -387    -38    410    412 199.2  -5.4  34148  289.36 0855.21
2009/04/23 11:48:44.1     -79   -394     20    402    403 191.4   2.9  34158  289.55 0855.21
2009/04/23 11:48:44.2    -116   -390    110    408    423 196.6  15.2  34162  289.60 0855.21
2009/04/23 11:48:44.3    -121   -416    145    434    458 196.3  18.5  34164  289.63 0855.21
2009/04/23 11:48:44.4    -191   -398     35    442    444 205.6   4.6  34154  289.46 0855.21
2009/04/23 11:48:44.5    -139   -283    -55    316    321 206.3  -9.9  34158  289.53 0855.21
2009/04/23 11:48:44.6     -84   -339    -22    350    351 194.0  -3.7  34158  289.54 0855.21
2009/04/23 11:48:44.7    -135   -348    162    374    407 201.3  25.1  34156  289.52 0855.21
2009/04/23 11:48:44.8     -84   -498    118    506    520 189.6  13.2  34162  289.61 0855.21
2009/04/23 11:48:44.9     -94   -463     91    473    482 191.5  11.0  34160  289.56 0855.21
2009/04/23 11:48:45.0    -132   -442    126    462    479 196.7  15.3  34160  289.56 0855.21
2009/04/23 11:48:45.1     -96   -511    139    521    540 190.7  15.0  34156  289.51 0855.21
2009/04/23 11:48:45.2     -81   -571     69    577    582 188.1   6.9  34152  289.44 0855.21
2009/04/23 11:48:45.3    -207   -584     18    620    621 199.6   1.7  34152  289.42 0855.21
2009/04/23 11:48:45.4    -155   -528     56    551    554 196.4   5.9  34168  289.72 0855.21
2009/04/23 11:48:45.5    -173   -433    130    467    485 201.8  15.6  34160  289.56 0855.21
2009/04/23 11:48:45.6     -68   -532    126    537    552 187.3  13.2  34154  289.46 0855.21
2009/04/23 11:48:45.7      16   -527    102    528    538 178.2  11.0  34156  289.50 0855.21
2009/04/23 11:48:45.8     -19   -495     97    496    506 182.3  11.1  34150  289.40 0855.17
2009/04/23 11:48:45.9     -22   -655    207    656    688 182.0  17.5  34164  289.63 0855.17
2009/04/23 11:48:46.0     -35   -672    234    673    713 183.0  19.2  34158  289.55 0855.17
2009/04/23 11:48:46.1       8   -653    143    654    670 179.3  12.4  34150  289.39 0855.17
2009/04/23 11:48:46.2     -22   -610    124    611    624 182.1  11.5  34148  289.37 0855.17
2009/04/23 11:48:46.3      46   -658     71    660    664 176.0   6.2  34150  289.41 0855.17
2009/04/23 11:48:46.4     204   -689    176    719    741 163.5  13.8  34150  289.39 0855.17
2009/04/23 11:48:46.5     293   -551     59    625    628 152.0   5.5  34140  289.23 0855.17
2009/04/23 11:48:46.6     179   -425     63    462    467 157.2   7.8  34154  289.47 0855.17
2009/04/23 11:48:46.7     206   -386    141    438    461 151.9  17.9  34152  289.44 0855.17
2009/04/23 11:48:46.8     311   -259    292    406    500 129.8  39.5  34148  289.37 0855.17
2009/04/23 11:48:46.9     164   -375    332    410    527 156.4  43.3  34150  289.39 0855.17
2009/04/23 11:48:47.0     152   -505    325    528    620 163.2  34.5  34158  289.54 0855.17
2009/04/23 11:48:47.1     -99   -345     -7    360    361 196.0  -1.2  34154  289.48 0855.17
2009/04/23 11:48:47.2    -107   -381    -42    396    399 195.7  -6.1  34158  289.55 0855.17
2009/04/23 11:48:47.3    -217   -382     94    440    451 209.7  12.1  34152  289.44 0855.17
2009/04/23 11:48:47.4     -35   -395    189    397    439 185.2  27.3  34160  289.56 0855.17
2009/04/23 11:48:47.5     -47   -429    117    432    448 186.3  15.2  34162  289.61 0855.17
2009/04/23 11:48:47.6    -167   -515    148    542    562 198.0  15.3  34148  289.38 0855.17
2009/04/23 11:48:47.7    -194   -575    129    608    622 198.7  12.0  34154  289.47 0855.17
2009/04/23 11:48:47.8    -178   -568    117    596    608 197.4  11.1  34156  289.49 0855.14
2009/04/23 11:48:47.9    -178   -449     54    484    488 201.7   6.4  34146  289.34 0855.14
2009/04/23 11:48:48.0    -210   -342     20    402    403 211.5   2.9  34150  289.41 0855.14
2009/04/23 11:48:48.1    -251   -363    128    442    461 214.6  16.1  34142  289.26 0855.14
2009/04/23 11:48:48.2    -239   -400    -93    467    477 210.9 -11.3  34150  289.40 0855.14
2009/04/23 11:48:48.3    -126   -432      0    451    452 196.3   0.0  34152  289.44 0855.14
2009/04/23 11:48:48.4      41   -484    120    486    501 175.1  13.9  34148  289.37 0855.14
2009/04/23 11:48:48.5     183   -576    213    605    642 162.3  19.4  34152  289.43 0855.14
2009/04/23 11:48:48.6      -4   -529    118    530    544 180.5  12.6  34156  289.50 0855.14
2009/04/23 11:48:48.7     149   -426    236    452    509 160.7  29.8  34156  289.52 0855.14
2009/04/23 11:48:48.8     104   -428    189    441    479 166.3  24.6  34156  289.52 0855.14
2009/04/23 11:48:48.9      66   -468    171    473    502 171.9  20.8  34160  289.56 0855.14
2009/04/23 11:48:49.0     123   -484    247    500    557 165.7  28.2  34166  289.67 0855.14
2009/04/23 11:48:49.1     228   -545    233    591    635 157.3  22.8  34142  289.26 0855.14
2009/04/23 11:48:49.2     133   -443    324    463    565 163.2  38.5  34144  289.29 0855.14
2009/04/23 11:48:49.3     181   -400    350    440    562 155.6  42.7  34134  289.13 0855.14
2009/04/23 11:48:49.4      73   -367    384    375    536 168.7  50.7  34140  289.23 0855.14
2009/04/23 11:48:49.5       6   -397    346    398    527 179.1  45.5  34150  289.39 0855.14
2009/04/23 11:48:49.6      89   -391    369    402    545 167.1  47.3  34156  289.52 0855.14
2009/04/23 11:48:49.7     167   -281    281    327    431 149.3  45.2  34152  289.45 0855.14
2009/04/23 11:48:49.8      58    -62    187     86    205 136.8  73.5  34160  289.58 0855.12
2009/04/23 11:48:49.9    -129    -72    169    149    225 240.7  54.3  34160  289.57 0855.12
2009/04/23 11:48:50.0    -120     18     28    122    126 278.8  13.2  34148  289.38 0855.12
2009/04/23 11:48:50.1     -48    144     40    152    158 341.5  15.0  34160  289.57 0855.12
2009/04/23 11:48:50.2     -61   -132    152    146    210 204.9  51.2  34152  289.45 0855.12
2009/04/23 11:48:50.3      50     24    181     56    189  63.8  82.3  34164  289.63 0855.12
2009/04/23 11:48:50.4    -157    -59     67    168    180 249.2  23.0  34154  289.48 0855.12
2009/04/23 11:48:50.5    -212   -152     60    262    269 234.3  12.9  34160  289.56 0855.12
2009/04/23 11:48:50.6    -322    -14     68    323    331 267.4  12.0  34144  289.31 0855.12
2009/04/23 11:48:50.7    -432   -171   -109    465    478 248.3 -13.3  34162  289.62 0855.12
2009/04/23 11:48:50.8    -271   -271    -95    384    396 225.1 -13.9  34152  289.42 0855.12
2009/04/23 11:48:50.9     -93   -236   -188    254    316 201.6 -44.6  34146  289.34 0855.12
2009/04/23 11:48:51.0     -63   -254   -207    262    333 194.0 -46.7  34140  289.24 0855.12
2009/04/23 11:48:51.1     -76   -220    -68    233    243 199.2 -16.4  34152  289.44 0855.12
2009/04/23 11:48:51.2     -40   -249    -23    253    255 189.1  -5.2  34152  289.42 0855.12
2009/04/23 11:48:51.3    -186   -395   -154    437    464 205.3 -19.5  34152  289.44 0855.12
2009/04/23 11:48:51.4      -7   -379   -174    380    417 181.2 -30.7  34152  289.43 0855.12
2009/04/23 11:48:51.5    -137   -139    -91    196    216 224.5 -31.4  34142  289.28 0855.12
2009/04/23 11:48:51.6    -534    -82   -173    541    567 261.2 -22.9  34150  289.41 0855.12
2009/04/23 11:48:51.7    -686   -225   -260    723    768 251.8 -25.1  34136  289.18 0855.12
2009/04/23 11:48:51.8    -396   -365   -226    539    584 227.4 -28.5  34130  289.07 0855.09
2009/04/23 11:48:51.9    -138   -650    -68    665    669 192.1  -5.9  34132  289.10 0855.09
2009/04/23 11:48:52.0    -625   -220   -228    663    702 250.6 -19.0  34150  289.39 0855.09
2009/04/23 11:48:52.1    -618    -68   -177    622    647 263.6 -15.9  34148  289.37 0855.09
2009/04/23 11:48:52.2    -360   -120   -218    380    438 251.5 -37.0  34156  289.49 0855.09
2009/04/23 11:48:52.3    -377   -382   -259    537    596 224.6 -32.1  34156  289.51 0855.09
2009/04/23 11:48:52.4    -594   -564   -180    820    840 226.5 -12.4  34134  289.14 0855.09
2009/04/23 11:48:52.5    -413   -462     18    620    621 221.8   1.7  34142  289.28 0855.09
2009/04/23 11:48:52.6    -239   -223    166    328    367 227.0  29.1  34132  289.10 0855.09
2009/04/23 11:48:52.7    -466    109    224    479    528 283.3  27.0  34130  289.08 0855.09
2009/04/23 11:48:52.8    -457     92   -142    467    489 281.5 -17.0  34126  288.98 0855.08
2009/04/23 11:48:52.9    -473     88   -220    482    529 280.6 -30.6  34126  289.00 0855.08
2009/04/23 11:48:53.0    -563    -79   -191    569    601 262.0 -18.6  34142  289.27 0855.08
2009/04/23 11:48:53.1    -507   -166   -155    534    556 251.9 -16.2  34138  289.19 0855.08
2009/04/23 11:48:53.2    -522   -117   -343    536    636 257.3 -40.0  34126  288.98 0855.08
2009/04/23 11:48:53.3    -494   -313   -279    585    648 237.6 -31.7  34144  289.31 0855.08
2009/04/23 11:48:53.4    -372   -300   -296    479    563 231.1 -39.0  34122  288.94 0855.08
2009/04/23 11:48:53.5    -443     27   -334    444    555 273.5 -45.1  34138  289.19 0855.08
2009/04/23 11:48:53.6    -603     87   -247    610    658 278.3 -27.6  34132  289.11 0855.08
2009/04/23 11:48:53.7    -541   -112   -193    553    585 258.2 -24.4  34150  289.39 0855.08
2009/04/23 11:48:53.8    -695     -9   -237    696    735 269.2 -23.8  34144  289.30 0855.08
2009/04/23 11:48:53.9    -492    134   -464    511    690 285.3 -51.4  34152  289.43 0855.08
2009/04/23 11:48:54.0    -663      8   -370    664    760 270.7 -35.9  34142  289.25 0855.08
2009/04/23 11:48:54.1    -527     85   -296    534    610 279.2 -35.8  34130  289.07 0855.08
2009/04/23 11:48:54.2    -612    158   -398    633    747 284.5 -39.5  34144  289.30 0855.08
2009/04/23 11:48:54.3    -716    -34   -218    717    750 267.2 -17.0  34150  289.41 0855.08
2009/04/23 11:48:54.4    -598   -174    -83    623    629 253.7  -7.6  34150  289.40 0855.08
2009/04/23 11:48:54.5    -453   -118   -198    469    509 255.4 -28.7  34140  289.23 0855.08
2009/04/23 11:48:54.6    -602   -193      3    633    634 252.2   0.3  34150  289.40 0855.08
2009/04/23 11:48:54.7    -454    -61    150    459    484 262.3  18.1  34146  289.34 0855.08
2009/04/23 11:48:54.8    -335    -52    120    340    360 261.1  20.2  34158  289.54 0855.07
2009/04/23 11:48:54.9    -229   -103     90    252    267 245.8  20.4  34162  289.61 0855.07
2009/04/23 11:48:55.0    -141     31    156    145    212 282.4  52.2  34160  289.57 0855.07
2009/04/23 11:48:55.1     -96      0    114     97    149 270.0  55.8  34156  289.52 0855.07
2009/04/23 11:48:55.2      28     86    -53     91    105  18.5 -37.9  34148  289.38 0855.07
2009/04/23 11:48:55.3      51    160     -6    169    170  17.8  -2.2  34158  289.53 0855.07
2009/04/23 11:48:55.4     -20     43    -39     48     61 334.6 -48.1  34154  289.46 0855.07
2009/04/23 11:48:55.5     -31    -44    -75     54     92 215.2 -64.9  34154  289.48 0855.07
2009/04/23 11:48:55.6     -68   -218    -72    229    241 197.4 -17.6  34152  289.42 0855.07
2009/04/23 11:48:55.7     -77   -335   -100    344    358 193.0 -21.1  34144  289.30 0855.07
2009/04/23 11:48:55.8     -87   -365    -90    376    387 193.4 -13.6  34146  289.32 0855.07
2009/04/23 11:48:55.9    -124   -457    -61    474    478 195.2  -7.4  34142  289.28 0855.07
2009/04/23 11:48:56.0    -133   -436     -5    456    457 197.0  -0.7  34144  289.29 0855.07
2009/04/23 11:48:56.1    -237   -398      9    464    465 210.8   1.1  34150  289.41 0855.07
2009/04/23 11:48:56.2    -189   -429    -18    470    471 203.8  -2.2  34156  289.49 0855.07
2009/04/23 11:48:56.3    -161   -516    -21    541    542 197.4  -2.2  34148  289.36 0855.07
2009/04/23 11:48:56.4    -228   -551    -43    597    599 202.5  -4.1  34154  289.46 0855.07
2009/04/23 11:48:56.5    -189   -548    -61    580    584 199.1  -6.1  34154  289.47 0855.07
2009/04/23 11:48:56.6     -51   -556     -2    559    560 185.3  -0.3  34160  289.57 0855.07
2009/04/23 11:48:56.7    -108   -531    -11    543    544 191.6  -1.3  34162  289.60 0855.07
2009/04/23 11:48:56.8    -147   -495     26    517    518 196.6   2.9  34170  289.74 0855.10
2009/04/23 11:48:56.9    -199   -550    -38    586    588 200.0  -3.7  34162  289.61 0855.10
2009/04/23 11:48:57.0    -348   -540   -215    643    677 212.9 -23.5  34170  289.73 0855.10
2009/04/23 11:48:57.1    -317   -363   -277    482    555 221.1 -36.8  34154  289.46 0855.10
2009/04/23 11:48:57.2    -448   -177    -56    482    486 248.4  -6.7  34164  289.64 0855.10
2009/04/23 11:48:57.3    -429   -145   -157    454    481 251.3 -19.1  34152  289.44 0855.10
2009/04/23 11:48:57.4    -393   -275   -134    480    498 235.0 -20.2  34162  289.62 0855.10
2009/04/23 11:48:57.5    -368   -262   -126    452    469 234.5 -20.2  34162  289.60 0855.10
2009/04/23 11:48:57.6    -100   -403   -146    416    442 194.0 -19.4  34156  289.51 0855.10
2009/04/23 11:48:57.7      26   -424     91    425    435 176.4  12.2  34148  289.36 0855.10
2009/04/23 11:48:57.8     114   -492     72    506    512 166.9   8.1  34140  289.23 0855.10
2009/04/23 11:48:57.9     258   -466    144    533    553 151.0  15.1  34146  289.35 0855.10
2009/04/23 11:48:58.0     199   -438    181    482    514 155.5  21.5  34146  289.32 0855.10
2009/04/23 11:48:58.1     151   -447    168    473    503 161.3  19.6  34146  289.35 0855.10
2009/04/23 11:48:58.2     125   -437    104    455    467 164.0  12.9  34144  289.31 0855.10
2009/04/23 11:48:58.3      37   -376     54    378    382 174.3   8.2  34146  289.32 0855.10
2009/04/23 11:48:58.4     173   -380     58    418    423 155.5   8.0  34140  289.22 0855.10
2009/04/23 11:48:58.5     140   -119     96    185    208 130.4  29.3  34146  289.33 0855.10
2009/04/23 11:48:58.6    -119   -263    171    289    335 204.5  33.5  34148  289.36 0855.10
2009/04/23 11:48:58.7    -190   -229     57    298    304 219.6  11.0  34144  289.31 0855.10
2009/04/23 11:48:58.8    -228   -165     39    282    285 234.1   8.0  34144  289.31 0855.11
2009/04/23 11:48:58.9    -223   -204     47    303    307 227.6   8.9  34140  289.22 0855.11
2009/04/23 11:48:59.0    -284   -234    -32    369    371 230.5  -5.1  34136  289.18 0855.11
2009/04/23 11:48:59.1    -398   -340     22    524    525 229.5   2.5  34144  289.31 0855.11
2009/04/23 11:48:59.2    -359   -337    125    493    509 226.8  14.3  34146  289.34 0855.11
2009/04/23 11:48:59.3    -567   -195   -127    600    614 251.0 -12.0  34124  288.95 0855.11
2009/04/23 11:48:59.4    -626   -278   -195    685    712 246.0 -20.7  34126  289.01 0855.11
2009/04/23 11:48:59.5    -460   -200     -6    502    503 246.5  -0.7  34144  289.30 0855.11
2009/04/23 11:48:59.6    -493    -39    -64    495    500 265.4  -7.4  34126  289.00 0855.11
2009/04/23 11:48:59.7    -384    -10    -41    385    388 268.4  -6.1  34150  289.40 0855.11
2009/04/23 11:48:59.8    -363   -135    -99    388    401 249.5 -14.3  34152  289.45 0855.11
2009/04/23 11:48:59.9    -413    -67   -143    419    443 260.8 -18.9  34152  289.44 0855.11
2009/04/23 11:49:00.0    -471    -66   -204    476    517 262.0 -29.2  34162  289.61 0855.11
2009/04/23 11:49:00.1    -413    -85   -125    422    441 258.3 -16.5  34168  289.70 0855.11
2009/04/23 11:49:00.2    -378    -77   -129    387    407 258.4 -23.6  34158  289.55 0855.11
2009/04/23 11:49:00.3    -366   -104    -48    381    385 254.1  -7.2  34142  289.28 0855.11
2009/04/23 11:49:00.4    -340   -101   -127    355    378 253.4 -19.7  34152  289.42 0855.11
2009/04/23 11:49:00.5    -168    -75   -108    185    214 245.8 -37.8  34156  289.50 0855.11
2009/04/23 11:49:00.6    -349    -12      4    350    351 267.9   0.7  34164  289.65 0855.11
2009/04/23 11:49:00.7    -340     47    -77    344    353 277.9 -12.6  34158  289.54 0855.11
2009/04/23 11:49:00.8    -230    -20    -78    231    243 265.0 -23.3  34150  289.41 0855.13
2009/04/23 11:49:00.9    -209      3   -106    210    235 270.9 -33.1  34146  289.33 0855.13
2009/04/23 11:49:01.0    -275    -10   -209    276    346 267.9 -45.3  34156  289.49 0855.13
2009/04/23 11:49:01.1    -221    -73   -107    233    256 251.6 -30.8  34160  289.58 0855.13
2009/04/23 11:49:01.2    -253    -59   -195    260    325 256.7 -45.2  34160  289.56 0855.13
2009/04/23 11:49:01.3    -226    -48   -224    232    322 257.8 -53.4  34154  289.46 0855.13
2009/04/23 11:49:01.4    -221    -35   -212    224    308 260.8 -52.6  34164  289.64 0855.13
2009/04/23 11:49:01.5    -185    -96   -164    209    265 242.5 -46.8  34170  289.75 0855.13
2009/04/23 11:49:01.6     -61    -28   -115     68    133 245.6 -71.1  34170  289.74 0855.13
2009/04/23 11:49:01.7     -82    -61    -98    103    142 233.6 -52.9  34166  289.67 0855.13
2009/04/23 11:49:01.8    -135    -23   -137    137    193 260.3 -54.5  34152  289.45 0855.13
2009/04/23 11:49:01.9     -60   -128   -119    142    185 205.4 -48.5  34152  289.45 0855.13
2009/04/23 11:49:02.0     -85   -124   -148    151    211 214.3 -54.2  34148  289.38 0855.13
2009/04/23 11:49:02.1      33   -166   -151    170    227 168.7 -50.6  34142  289.26 0855.13
2009/04/23 11:49:02.2      63     44   -115     77    138  54.9 -67.1  34148  289.38 0855.13
2009/04/23 11:49:02.3     -24    -75   -149     79    168 198.3 -74.2  34150  289.40 0855.13
2009/04/23 11:49:02.4     -99    -87   -136    132    189 228.7 -55.1  34156  289.50 0855.13
2009/04/23 11:49:02.5    -155    -84    -84    177    195 241.4 -31.6  34146  289.35 0855.13
2009/04/23 11:49:02.6     -73    -93    -67    119    136 218.3 -36.3  34140  289.24 0855.13
2009/04/23 11:49:02.7     -11   -151    -22    152    154 184.5  -8.2  34132  289.11 0855.13
2009/04/23 11:49:02.8      43    -79    -54     91    105 151.5 -38.4  34132  289.11 0855.12
2009/04/23 11:49:02.9      48      7    -57     49     75  81.2 -59.8  34144  289.31 0855.12
2009/04/23 11:49:03.0      55    -26    -43     61     74 115.4 -43.0  34140  289.24 0855.12
2009/04/23 11:49:03.1      64    -13    -42     66     78 101.4 -39.9  34140  289.24 0855.12
2009/04/23 11:49:03.2      50     32    -99     60    115  57.6 -69.5  34140  289.24 0855.12
2009/04/23 11:49:03.3     -10   -168   -121    169    207 183.4 -43.7  34142  289.28 0855.12
2009/04/23 11:49:03.4      42   -209   -122    214    246 168.5 -36.8  34138  289.20 0855.12
2009/04/23 11:49:03.5     146   -229    -96    272    288 147.4 -24.4  34138  289.19 0855.12
2009/04/23 11:49:03.6      10   -225   -100    226    247 177.4 -29.7  34144  289.29 0855.12
2009/04/23 11:49:03.7      35   -236    -67    239    249 171.5 -15.8  34144  289.29 0855.12
2009/04/23 11:49:03.8       0   -163      0    164    165 180.2  -0.3  34146  289.33 0855.12
2009/04/23 11:49:03.9      37   -182     50    186    193 168.4  15.2  34144  289.31 0855.12
2009/04/23 11:49:04.0      38   -222     27    226    228 170.2   6.9  34140  289.24 0855.12
2009/04/23 11:49:04.1     114   -242    168    268    316 154.8  35.1  34138  289.20 0855.12
2009/04/23 11:49:04.2      95   -282    148    298    332 161.3  28.4  34150  289.41 0855.12
2009/04/23 11:49:04.3      78   -356    121    365    385 167.6  18.5  34146  289.33 0855.12
2009/04/23 11:49:04.4     112   -420    192    435    475 165.0  25.2  34138  289.21 0855.12
2009/04/23 11:49:04.5      -4   -402    141    403    428 180.7  19.3  34146  289.33 0855.12
2009/04/23 11:49:04.6      13   -434     37    435    437 178.2   4.9  34150  289.39 0855.12
2009/04/23 11:49:04.7      18   -421     20    422    423 177.5   2.8  34146  289.34 0855.12
2009/04/23 11:49:04.8     -20   -400      1    401    402 182.9   0.2  34138  289.21 0855.14
2009/04/23 11:49:04.9      10   -349     20    350    351 178.3   3.3  34138  289.20 0855.14
2009/04/23 11:49:05.0     -52   -328   -131    333    357 189.1 -27.1  34140  289.23 0855.14
2009/04/23 11:49:05.1    -210   -274    -75    346    355 217.5 -12.3  34154  289.47 0855.14
2009/04/23 11:49:05.2    -245   -251    -17    352    353 224.3  -2.8  34164  289.64 0855.14
2009/04/23 11:49:05.3    -219   -297     14    370    371 216.4   2.2  34160  289.57 0855.14
2009/04/23 11:49:05.4     -42   -498    -82    500    507 184.9  -9.3  34142  289.27 0855.14
2009/04/23 11:49:05.5    -213   -486   -167    531    557 203.7 -17.5  34136  289.16 0855.14
2009/04/23 11:49:05.6     -35   -479    -29    481    482 184.2  -3.5  34142  289.28 0855.14
2009/04/23 11:49:05.7      25   -535    -15    536    537 177.3  -1.6  34146  289.33 0855.14
2009/04/23 11:49:05.8    -156   -448   -104    475    487 199.2 -12.4  34140  289.22 0855.14
2009/04/23 11:49:05.9    -225   -518   -124    565    579 203.5 -12.4  34148  289.36 0855.14
2009/04/23 11:49:06.0    -213   -530   -169    572    597 201.9 -16.5  34146  289.34 0855.14
2009/04/23 11:49:06.1    -166   -479   -134    508    526 199.2 -14.8  34144  289.29 0855.14
2009/04/23 11:49:06.2    -142   -404   -209    429    477 199.4 -32.3  34148  289.38 0855.14
2009/04/23 11:49:06.3    -350   -333   -148    484    506 226.5 -21.9  34146  289.32 0855.14
2009/04/23 11:49:06.4    -451    -86   -135    460    479 259.2 -21.1  34178  289.88 0855.14
2009/04/23 11:49:06.5    -479   -110   -158    492    516 257.0 -22.9  34146  289.32 0855.14
2009/04/23 11:49:06.6    -409   -222   -158    466    492 241.5 -23.8  34142  289.27 0855.14
2009/04/23 11:49:06.7    -311   -251   -127    400    419 231.1 -22.8  34140  289.24 0855.14
2009/04/23 11:49:06.8    -311   -196   -104    368    382 237.7 -20.4  34146  289.32 0855.13
2009/04/23 11:49:06.9    -328   -134   -137    355    380 247.7 -26.7  34142  289.26 0855.13
2009/04/23 11:49:07.0    -319    -29    -30    321    323 264.7  -5.4  34162  289.59 0855.13
2009/04/23 11:49:07.1    -270    -33    -50    273    278 263.0 -10.5  34164  289.64 0855.13
2009/04/23 11:49:07.2    -310    -23   -107    311    328 265.7 -23.9  34144  289.31 0855.13
2009/04/23 11:49:07.3    -252   -115    -88    278    291 245.4 -22.9  34146  289.34 0855.13
2009/04/23 11:49:07.4    -353   -157   -115    387    403 246.0 -21.5  34146  289.33 0855.13
2009/04/23 11:49:07.5    -345   -213   -201    406    453 238.3 -32.6  34144  289.31 0855.13
2009/04/23 11:49:07.6    -242   -242   -191    343    392 225.1 -35.9  34152  289.43 0855.13
2009/04/23 11:49:07.7    -194   -212    -64    288    296 222.5 -12.6  34156  289.51 0855.13
2009/04/23 11:49:07.8    -187    -84     68    206    218 245.8  18.4  34166  289.69 0855.13
2009/04/23 11:49:07.9    -144    -48     66    152    165 251.4  24.9  34166  289.69 0855.13
2009/04/23 11:49:08.0     -25    -43     29     50     57 210.7  33.5  34160  289.57 0855.13
2009/04/23 11:49:08.1      22   -100     46    103    112 167.5  25.7  34154  289.48 0855.13
2009/04/23 11:49:08.2      26   -137      7    140    141 168.9   2.9  34154  289.46 0855.13
2009/04/23 11:49:08.3      97   -146     61    176    187 146.4  19.2  34148  289.38 0855.13
2009/04/23 11:49:08.4      13   -206     75    207    220 176.4  20.7  34150  289.41 0855.13
2009/04/23 11:49:08.5      29   -341    150    343    374 175.0  25.1  34154  289.48 0855.13
2009/04/23 11:49:08.6     -66   -344    144    351    379 191.0  23.5  34152  289.42 0855.13
2009/04/23 11:49:08.7    -221   -361    149    424    449 211.5  20.1  34150  289.39 0855.13
2009/04/23 11:49:08.8    -210   -363    139    420    443 210.1  18.4  34150  289.41 0855.13
2009/04/23 11:49:08.9    -216   -265     75    343    352 219.2  12.4  34162  289.60 0855.13
2009/04/23 11:49:09.0    -116   -204    128    235    267 209.6  31.0  34154  289.46 0855.13
2009/04/23 11:49:09.1     197   -260     54    327    332 142.8   9.4  34148  289.37 0855.13
2009/04/23 11:49:09.2     260   -218     91    340    352 130.0  15.0  34148  289.37 0855.13
2009/04/23 11:49:09.3     210   -251    133    328    353 140.0  23.2  34146  289.33 0855.13
2009/04/23 11:49:09.4     197   -358    116    409    426 151.1  15.9  34148  289.36 0855.13
2009/04/23 11:49:09.5     171   -463    135    494    513 159.7  15.3  34146  289.35 0855.13
2009/04/23 11:49:09.6      90   -437    163    447    475 168.3  20.9  34146  289.32 0855.13
2009/04/23 11:49:09.7     200   -186     71    274    284 132.9  14.5  34140  289.24 0855.13
2009/04/23 11:49:09.8     122   -181    216    219    307 145.9  49.9  34148  289.36 0855.13
2009/04/23 11:49:09.9      94   -198     72    220    232 154.7  18.1  34150  289.41 0855.13
2009/04/23 11:49:10.1      64   -236    148    245    286 164.8  34.0  34150  289.41 0855.13
2009/04/23 11:49:10.1     -29   -230     50    232    238 187.3  12.2  34148  289.36 0855.13
2009/04/23 11:49:10.3     -39   -211    217    215    305 190.5  50.1  34150  289.41 0855.13
2009/04/23 11:49:10.3       8   -232    131    233    267 178.0  31.9  34152  289.44 0855.13
2009/04/23 11:49:10.4      56   -158    103    168    197 160.2  34.4  34154  289.46 0855.13
2009/04/23 11:49:10.5       1   -154     89    155    178 179.5  32.4  34152  289.43 0855.13
2009/04/23 11:49:10.7     -16   -148     69    149    164 186.3  26.6  34148  289.38 0855.13
2009/04/23 11:49:10.8      55   -145     48    156    164 159.1  17.3  34154  289.46 0855.13
2009/04/23 11:49:10.9      10    -63     25     64     68 170.2  21.0  34156  289.50 0855.16
2009/04/23 11:49:11.0      -1    -30     58     31     65 182.6  68.9  34152  289.45 0855.16
2009/04/23 11:49:11.1     -41    -44    112     61    127 223.2  68.9  34164  289.63 0855.16
2009/04/23 11:49:11.2    -116   -147    144    188    236 218.1  41.4  34156  289.52 0855.16
2009/04/23 11:49:11.3    -141   -160    136    214    253 221.4  35.5  34156  289.51 0855.16
2009/04/23 11:49:11.4    -109   -238     71    262    272 204.7  15.3  34154  289.46 0855.16
2009/04/23 11:49:11.5     -89   -270    139    285    317 198.3  28.0  34152  289.42 0855.16
2009/04/23 11:49:11.6     -56   -381    118    386    404 188.5  17.0  34152  289.43 0855.16
2009/04/23 11:49:11.7     -97   -315    123    330    352 197.2  21.3  34152  289.45 0855.16
2009/04/23 11:49:11.8     -97   -216    162    237    287 204.3  37.6  34152  289.42 0855.16
2009/04/23 11:49:11.9    -110   -173    129    206    243 212.5  35.2  34152  289.43 0855.16
2009/04/23 11:49:12.0    -185   -367     82    412    421 206.8  11.3  34156  289.51 0855.16
2009/04/23 11:49:12.1    -306   -358    -75    472    479 220.5  -9.1  34162  289.62 0855.16
2009/04/23 11:49:12.2    -327   -321    -48    459    462 225.6  -6.1  34162  289.61 0855.16
2009/04/23 11:49:12.3    -102   -488     -6    499    500 191.9  -0.7  34160  289.56 0855.16
2009/04/23 11:49:12.4    -140   -522     46    541    544 195.0   4.9  34156  289.50 0855.16
2009/04/23 11:49:12.5    -160   -420    157    450    477 200.9  19.3  34152  289.42 0855.16
2009/04/23 11:49:12.6     -67   -469    164    474    502 188.2  19.1  34152  289.44 0855.16
2009/04/23 11:49:12.7     -18   -531    153    532    554 182.0  16.0  34152  289.43 0855.16
2009/04/23 11:49:12.8     -44   -555    152    557    578 184.6  15.3  34154  289.46 0855.16
2009/04/23 11:49:12.9      28   -610    231    611    653 177.3  21.7  34154  289.47 0855.17
2009/04/23 11:49:13.0     -27   -555    207    556    593 182.8  21.4  34148  289.37 0855.17
2009/04/23 11:49:13.1     -76   -500    229    506    555 188.7  26.0  34150  289.41 0855.17
2009/04/23 11:49:13.2     -83   -401    267    410    489 191.8  36.0  34158  289.54 0855.17
2009/04/23 11:49:13.3    -120   -395    200    414    459 197.0  27.4  34156  289.49 0855.17
2009/04/23 11:49:13.4    -110   -411    116    426    442 195.1  15.3  34152  289.44 0855.17
2009/04/23 11:49:13.5     -32   -299    194    301    358 186.2  35.7  34156  289.52 0855.17
2009/04/23 11:49:13.6     304   -143    158    337    372 115.2  27.1  34152  289.43 0855.17
2009/04/23 11:49:13.7     191   -113    146    222    265 120.7  36.5  34160  289.58 0855.17
2009/04/23 11:49:13.8     263   -104    187    284    340 111.7  36.4  34158  289.53 0855.17
2009/04/23 11:49:13.9     240    -98    140    260    295 112.2  30.8  34152  289.44 0855.18
2009/04/23 11:49:14.0     284     12    110    285    305  87.4  22.1  34154  289.47 0855.18
2009/04/23 11:49:14.1      90    -65    156    112    192 126.0  60.8  34154  289.48 0855.18
2009/04/23 11:49:14.2      14   -277    280    278    394 177.1  50.1  34152  289.43 0855.18
2009/04/23 11:49:14.3     -58   -198    213    207    297 196.3  50.9  34152  289.42 0855.18
2009/04/23 11:49:14.4      29   -136    123    140    186 168.0  45.8  34156  289.50 0855.18
2009/04/23 11:49:14.5     142   -206    116    251    276 145.3  26.4  34152  289.42 0855.18
2009/04/23 11:49:14.6      54   -229     58    236    244 166.7  13.9  34154  289.47 0855.18
2009/04/23 11:49:14.7     -31   -209     33    212    215 188.5   9.0  34150  289.40 0855.18
2009/04/23 11:49:14.8     -64   -245    194    254    319 194.7  41.3  34158  289.53 0855.18
2009/04/23 11:49:14.9     -22   -160    103    162    191 188.0  35.5  34152  289.43 0855.18
2009/04/23 11:49:15.0      68    -72     17    100    102 136.8  10.1  34150  289.41 0855.18
2009/04/23 11:49:15.1     135    -36     87    140    164 105.1  35.0  34152  289.45 0855.18
2009/04/23 11:49:15.2     153   -152     79    216    229 134.8  20.9  34148  289.36 0855.18
2009/04/23 11:49:15.3     205   -195    195    284    344 133.6  37.8  34152  289.42 0855.18
2009/04/23 11:49:15.4      21   -425    154    426    454 177.1  19.9  34150  289.41 0855.18
2009/04/23 11:49:15.5    -170   -374    172    412    446 204.5  24.1  34150  289.41 0855.18
2009/04/23 11:49:15.6     -58   -155    140    166    217 200.7  44.5  34154  289.48 0855.18
2009/04/23 11:49:15.7     158   -210    239    264    356 143.0  46.9  34152  289.44 0855.18
2009/04/23 11:49:15.8     116   -204    260    235    350 150.4  53.3  34148  289.36 0855.18
2009/04/23 11:49:15.9     208   -156    301    260    397 126.9  54.9  34148  289.38 0855.19
2009/04/23 11:49:16.0     344   -269    291    437    525 128.0  36.9  34148  289.37 0855.19
2009/04/23 11:49:16.1     202   -406    319    454    554 153.5  38.5  34152  289.45 0855.19
2009/04/23 11:49:16.2      60   -379    155    384    414 170.9  23.1  34158  289.53 0855.19
2009/04/23 11:49:16.3       1   -323     76    324    333 179.7  13.2  34162  289.59 0855.19
2009/04/23 11:49:16.4    -127   -353     38    376    378 199.8   5.8  34148  289.37 0855.19
2009/04/23 11:49:16.5       5   -298    206    299    363 179.0  37.9  34148  289.38 0855.19
2009/04/23 11:49:16.6      43   -307    219    311    380 172.0  38.6  34156  289.52 0855.19
2009/04/23 11:49:16.7     -37   -360    111    362    379 185.9  17.2  34146  289.33 0855.19
2009/04/23 11:49:16.8     -88   -345     20    357    358 194.3   3.2  34146  289.33 0855.19
2009/04/23 11:49:16.9      31   -439    175    441    474 175.9  22.8  34160  289.56 0855.19
2009/04/23 11:49:17.0      68   -373    237    380    447 169.7  35.1  34156  289.51 0855.19
2009/04/23 11:49:17.1     141   -322    156    352    385 156.3  25.6  34156  289.52 0855.19
2009/04/23 11:49:17.2     132   -338    160    364    397 158.6  25.2  34158  289.54 0855.19
2009/04/23 11:49:17.3      91   -291    161    305    344 162.6  30.2  34154  289.48 0855.19
2009/04/23 11:49:17.4     121   -294    112    319    338 157.5  20.1  34156  289.50 0855.19
2009/04/23 11:49:17.5     137   -208     97    250    268 146.6  22.3  34156  289.49 0855.19
2009/04/23 11:49:17.6     146   -264    168    302    345 151.0  31.5  34138  289.20 0855.19
2009/04/23 11:49:17.7     228    -62    111    237    261 105.3  27.1  34152  289.42 0855.19
2009/04/23 11:49:17.8     249    -31     -2    251    252  97.1  -0.5  34156  289.49 0855.19
2009/04/23 11:49:17.9     191    -26     41    193    198  97.9  12.0  34152  289.45 0855.20
2009/04/23 11:49:18.0     257      0     52    258    264  90.0  11.6  34152  289.42 0855.20
2009/04/23 11:49:18.1     219     66     67    229    239  73.2  16.4  34150  289.39 0855.20
2009/04/23 11:49:18.2     171    -50    207    179    273 106.4  54.8  34156  289.49 0855.20
2009/04/23 11:49:18.3     189    -10    239    190    305  93.3  57.5  34158  289.53 0855.20
2009/04/23 11:49:18.4     129     42    196    136    238  71.6  61.8  34156  289.52 0855.20
2009/04/23 11:49:18.5     153    -57    205    164    262 110.4  57.5  34152  289.44 0855.20
2009/04/23 11:49:18.6     -26   -169    232    172    288 188.9  59.8  34158  289.54 0855.20
2009/04/23 11:49:18.7     -49   -184    144    191    239 194.9  40.7  34144  289.31 0855.20
2009/04/23 11:49:18.8      95   -193    111    216    242 153.9  29.3  34146  289.32 0855.20
2009/04/23 11:49:18.9     131   -115    151    175    231 131.3  45.4  34158  289.53 0855.20
2009/04/23 11:49:19.0     102   -123    156    161    224 140.4  49.4  34148  289.38 0855.20
2009/04/23 11:49:19.1      67   -225    111    235    259 163.3  27.1  34152  289.42 0855.20
2009/04/23 11:49:19.2     204   -174     63    269    277 130.4  13.2  34156  289.49 0855.20
2009/04/23 11:49:19.3     199   -126    113    236    261 122.4  27.3  34156  289.49 0855.20
2009/04/23 11:49:19.4     273     40     18    276    277  81.6   3.8  34150  289.39 0855.20
2009/04/23 11:49:19.5     263     95    -61    280    287  70.1 -12.4  34154  289.46 0855.20
2009/04/23 11:49:19.6     192     41    -80    197    212  77.8 -27.5  34156  289.50 0855.20
2009/04/23 11:49:19.7     198     -6   -123    199    233  91.9 -39.6  34152  289.43 0855.20
2009/04/23 11:49:19.8     132    -17    -69    134    150  97.5 -33.7  34152  289.43 0855.20
2009/04/23 11:49:19.9     188    -77     17    204    205 112.2   4.9  34152  289.43 0855.21
2009/04/23 11:49:20.0     226   -174     84    286    299 127.7  16.4  34144  289.29 0855.21
2009/04/23 11:49:20.1     293      9     14    294    295  88.1   2.9  34148  289.36 0855.21
2009/04/23 11:49:20.2     273    -19    170    274    322  94.1  34.9  34144  289.29 0855.21
2009/04/23 11:49:20.3     264    -26    111    266    288  95.7  24.1  34140  289.24 0855.21
2009/04/23 11:49:20.4     222    -54     68    229    240 103.7  16.6  34146  289.32 0855.21
2009/04/23 11:49:20.5     106   -184     35    213    216 149.9   9.5  34144  289.31 0855.21
2009/04/23 11:49:20.6      29   -204    109    207    233 171.8  30.2  34146  289.33 0855.21
2009/04/23 11:49:20.7     133   -184     44    228    233 144.0  11.1  34144  289.31 0855.21
2009/04/23 11:49:20.8     197   -316    -44    373    376 148.0  -6.8  34144  289.30 0855.21
2009/04/23 11:49:20.9     185   -253    -45    314    318 143.9  -8.2  34136  289.17 0855.21
2009/04/23 11:49:21.0     232   -381      9    447    448 148.7   1.2  34140  289.24 0855.21
2009/04/23 11:49:21.1     123   -360   -113    381    397 161.1 -21.5  34142  289.28 0855.21
2009/04/23 11:49:21.2     201   -567   -178    602    628 160.5 -16.5  34136  289.18 0855.21
2009/04/23 11:49:21.3    -126   -502     62    518    522 194.2   6.9  34148  289.38 0855.21
2009/04/23 11:49:21.4      11   -479     89    480    489 178.6  10.6  34158  289.54 0855.21
2009/04/23 11:49:21.5    -118   -489      4    504    505 193.6   0.5  34166  289.67 0855.21
2009/04/23 11:49:21.6     -59   -420     37    425    427 188.1   5.1  34154  289.46 0855.21
2009/04/23 11:49:21.7      -2   -511    -69    512    517 180.3  -7.7  34142  289.25 0855.21
2009/04/23 11:49:21.8      41   -547    -99    549    558 175.6 -10.3  34150  289.41 0855.21
2009/04/23 11:49:21.9    -146   -393   -112    420    435 200.4 -15.1  34158  289.53 0855.19
2009/04/23 11:49:22.0    -138   -541     -2    559    560 194.3  -0.3  34152  289.43 0855.19
2009/04/23 11:49:22.1    -119   -535     86    549    556 192.6   9.0  34160  289.57 0855.19
2009/04/23 11:49:22.2    -212   -442   -159    491    516 205.6 -23.2  34146  289.32 0855.19
2009/04/23 11:49:22.3    -352   -187   -219    399    455 242.0 -35.7  34166  289.68 0855.19
2009/04/23 11:49:22.4    -389   -154   -133    419    440 248.3 -17.7  34162  289.61 0855.19
2009/04/23 11:49:22.5    -342   -114   -128    361    384 251.5 -19.5  34162  289.59 0855.19
2009/04/23 11:49:22.6    -656   -133   -115    670    681 258.5  -9.8  34160  289.56 0855.19
2009/04/23 11:49:22.7    -548     54   -133    551    567 275.7 -13.6  34156  289.50 0855.19
2009/04/23 11:49:22.8    -646    -31    100    647    655 267.2   8.8  34162  289.60 0855.19
2009/04/23 11:49:22.9    -436    -70    187    442    479 260.9  24.3  34156  289.50 0855.19
2009/04/23 11:49:23.0    -293   -107    110    313    332 250.0  19.4  34162  289.59 0855.19
2009/04/23 11:49:23.1    -295   -102     75    313    322 251.0  13.5  34146  289.34 0855.19
2009/04/23 11:49:23.2    -337   -166    181    376    417 243.7  27.4  34150  289.41 0855.19
2009/04/23 11:49:23.3    -237    -22     84    239    254 264.5  19.4  34158  289.54 0855.19
2009/04/23 11:49:23.4    -155   -185    112    242    266 219.9  27.0  34144  289.31 0855.19
2009/04/23 11:49:23.5     -49   -176     79    183    199 195.8  25.1  34144  289.30 0855.19
2009/04/23 11:49:23.6    -192   -217     35    290    293 221.5   6.9  34148  289.37 0855.19
2009/04/23 11:49:23.7     -68   -116    115    135    177 210.3  44.8  34148  289.38 0855.19
2009/04/23 11:49:23.8     -94   -190    127    213    247 206.3  33.7  34146  289.32 0855.19
2009/04/23 11:49:23.9     -63    -87     13    108    109 216.1   6.9  34142  289.26 0855.18
2009/04/23 11:49:24.0    -105    -71     67    127    143 235.8  30.3  34148  289.38 0855.18
2009/04/23 11:49:24.1      -8    -35     55     36     65 193.4  64.6  34142  289.28 0855.18
2009/04/23 11:49:24.2       0    -95    148     96    176 179.5  64.1  34152  289.45 0855.18
2009/04/23 11:49:24.3      48   -109    121    120    170 156.4  49.9  34154  289.48 0855.18
2009/04/23 11:49:24.4      48   -250    155    255    298 169.1  34.2  34144  289.29 0855.18
2009/04/23 11:49:24.5       4   -313    202    314    373 179.1  35.6  34138  289.21 0855.18
2009/04/23 11:49:24.6      96   -199    103    222    244 154.1  26.6  34146  289.32 0855.18
2009/04/23 11:49:24.7     222     30    203    225    303  82.1  46.9  34182  289.93 0855.18
2009/04/23 11:49:24.8     207     92    180    227    289  66.0  42.7  34154  289.46 0855.18
2009/04/23 11:49:24.9     277     48    -15    282    283  80.1  -3.1  34152  289.44 0855.18
2009/04/23 11:49:25.0      79     22     33     83     89  74.1  22.5  34162  289.62 0855.18
2009/04/23 11:49:25.1     -50    -13     43     52     67 254.9  43.8  34170  289.75 0855.18
2009/04/23 11:49:25.2    -138   -154     51    207    214 221.9  13.9  34156  289.50 0855.18
2009/04/23 11:49:25.3    -194   -349      7    400    401 209.0   1.1  34142  289.28 0855.18
2009/04/23 11:49:25.4    -167   -336     88    376    387 206.5  13.2  34140  289.23 0855.18
2009/04/23 11:49:25.5    -242   -447    113    509    522 208.5  12.6  34130  289.05 0855.18
2009/04/23 11:49:25.6    -333   -312    204    457    500 226.9  25.7  34124  288.95 0855.18
2009/04/23 11:49:25.7    -526   -230     67    575    579 246.4   6.7  34142  289.27 0855.18
2009/04/23 11:49:25.8    -471   -180    -78    505    511 249.1  -8.8  34124  288.96 0855.18
2009/04/23 11:49:25.9    -382   -213   -149    438    463 240.8 -18.8  34132  289.09 0855.17
2009/04/23 11:49:26.0    -372   -279    -25    465    466 233.1  -3.1  34138  289.20 0855.17
2009/04/23 11:49:26.1    -419   -361     28    554    555 229.2   2.9  34134  289.14 0855.17
2009/04/23 11:49:26.2    -236   -400    138    465    486 210.5  16.5  34142  289.25 0855.17
2009/04/23 11:49:26.3     -50   -366    127    370    392 187.8  18.9  34144  289.30 0855.17
2009/04/23 11:49:26.4    -224   -366     60    430    435 211.5   8.0  34134  289.12 0855.17
2009/04/23 11:49:26.5    -218   -377     39    436    438 210.1   5.2  34136  289.16 0855.17
2009/04/23 11:49:26.6    -278   -451    -67    531    536 211.7  -7.2  34134  289.14 0855.17
2009/04/23 11:49:26.7    -124   -476     -7    492    493 194.6  -0.9  34140  289.22 0855.17
2009/04/23 11:49:26.8    -234   -273   -164    360    395 220.6 -30.6  34122  288.93 0855.17
2009/04/23 11:49:26.9    -113   -323   -226    343    410 199.4 -40.9  34130  289.06 0855.17
2009/04/23 11:49:27.0    -128   -269    -61    298    305 205.5 -11.6  34134  289.12 0855.17
2009/04/23 11:49:27.1    -196   -203     39    283    286 223.9   8.0  34136  289.17 0855.17
2009/04/23 11:49:27.2     -82   -131     18    155    157 212.1   6.9  34140  289.23 0855.17
2009/04/23 11:49:27.3    -175   -104     19    204    205 239.3   5.4  34144  289.31 0855.17
2009/04/23 11:49:27.4    -174    -42     77    180    195 256.3  24.6  34140  289.23 0855.17
2009/04/23 11:49:27.5    -138     38    135    144    197 285.5  48.0  34158  289.55 0855.17
2009/04/23 11:49:27.6    -180    -40     82    185    202 257.4  25.2  34156  289.50 0855.17
2009/04/23 11:49:27.7    -134    -79     62    156    167 239.4  22.8  34144  289.31 0855.17
2009/04/23 11:49:27.8    -221      2     70    222    233 270.6  17.7  34154  289.48 0855.17
2009/04/23 11:49:27.9    -309    -13    140    310    340 267.5  26.0  34156  289.50 0855.17
2009/04/23 11:49:28.0    -245   -115     58    271    278 244.7  12.2  34140  289.22 0855.17
2009/04/23 11:49:28.1    -256    -94     69    273    282 249.8  14.3  34136  289.17 0855.17
2009/04/23 11:49:28.2    -196    -53     62    204    214 254.9  17.1  34138  289.19 0855.17
2009/04/23 11:49:28.3    -190     22    -66    192    203 276.8 -23.8  34136  289.16 0855.17
2009/04/23 11:49:28.4    -192     67   -105    204    229 289.3 -33.7  34142  289.28 0855.17
2009/04/23 11:49:28.5    -200     14    -87    201    219 274.1 -29.5  34148  289.36 0855.17
2009/04/23 11:49:28.6    -120     20   -170    122    209 279.7 -65.2  34144  289.31 0855.17
2009/04/23 11:49:28.7    -166     31   -178    170    246 280.8 -55.8  34154  289.48 0855.17
2009/04/23 11:49:28.8    -151    -44   -165    158    228 253.6 -55.8  34146  289.35 0855.17
2009/04/23 11:49:28.9     -41   -123     -7    130    131 198.5  -3.2  34142  289.28 0855.17
2009/04/23 11:49:29.0     140   -236   -151    275    313 149.3 -35.4  34146  289.32 0855.17
2009/04/23 11:49:29.1      81   -301    -48    312    316 164.9  -8.8  34138  289.20 0855.17
2009/04/23 11:49:29.2      54   -231    -33    238    241 166.9  -8.0  34140  289.24 0855.17
2009/04/23 11:49:29.3      19   -248    135    249    283 175.5  30.8  34142  289.25 0855.17
2009/04/23 11:49:29.4     142   -196    112    243    267 144.0  26.4  34142  289.25 0855.17
2009/04/23 11:49:29.5     187   -151     60    241    249 129.1  14.2  34146  289.32 0855.17
2009/04/23 11:49:29.6     149   -211    -18    259    260 144.8  -4.1  34142  289.27 0855.17
2009/04/23 11:49:29.7     167   -272     -9    320    321 148.4  -1.7  34140  289.24 0855.17
2009/04/23 11:49:29.8     160   -258     91    304    318 148.1  16.6  34144  289.29 0855.17
2009/04/23 11:49:29.9     212   -146    119    258    284 124.6  26.6  34142  289.25 0855.19
2009/04/23 11:49:30.0      89    -43    105     99    144 115.8  51.6  34146  289.33 0855.19
2009/04/23 11:49:30.1      85    -86     97    121    155 135.3  43.7  34150  289.40 0855.19
2009/04/23 11:49:30.2     186   -201     64    274    282 137.2  13.1  34142  289.25 0855.19
2009/04/23 11:49:30.3     103   -425     82    438    446 166.3  10.6  34140  289.22 0855.19
2009/04/23 11:49:30.4     -21   -451    -25    452    453 182.7  -3.2  34142  289.26 0855.19
2009/04/23 11:49:30.5     -12   -373    -41    374    377 181.9  -6.3  34142  289.28 0855.19
2009/04/23 11:49:30.6       4   -319   -105    320    336 179.1 -23.5  34150  289.40 0855.19
2009/04/23 11:49:30.7      -7   -274    -76    275    286 181.6 -15.5  34152  289.42 0855.19
2009/04/23 11:49:30.8     -53   -255    -37    261    264 191.8  -8.2  34154  289.46 0855.19
2009/04/23 11:49:30.9     -85   -118    -70    146    161 216.0 -31.8  34144  289.31 0855.19
2009/04/23 11:49:31.0     -67    -84    -38    108    114 218.7 -23.3  34142  289.26 0855.19
2009/04/23 11:49:31.1    -178   -142   -156    229    277 231.4 -42.0  34156  289.51 0855.19
2009/04/23 11:49:31.2    -140    -44    -74    147    164 252.3 -33.1  34140  289.23 0855.19
2009/04/23 11:49:31.3    -104   -264    -25    285    287 201.6  -5.1  34148  289.37 0855.19
2009/04/23 11:49:31.4    -142    -90    -91    169    191 237.6 -35.4  34164  289.63 0855.19
2009/04/23 11:49:31.5      -7    -90     18     91     93 184.5  11.6  34168  289.70 0855.19
2009/04/23 11:49:31.6     -95   -275    136    292    322 199.2  27.0  34166  289.68 0855.19
2009/04/23 11:49:31.7    -243   -426     61    491    495 209.7   7.1  34152  289.45 0855.19
2009/04/23 11:49:31.8    -236   -451     52    510    513 207.7   5.9  34152  289.42 0855.19
2009/04/23 11:49:31.9    -175   -437     27    471    472 201.9   3.3  34154  289.47 0855.19
2009/04/23 11:49:32.0    -217   -370    -23    430    431 210.4  -3.2  34146  289.34 0855.19
2009/04/23 11:49:32.1    -287   -313    -93    426    437 222.5 -12.4  34154  289.46 0855.19
2009/04/23 11:49:32.2    -286   -326   -111    434    449 221.3 -14.4  34162  289.60 0855.19
2009/04/23 11:49:32.3    -277   -355    -88    451    460 218.0 -11.1  34152  289.43 0855.19
2009/04/23 11:49:32.4    -248   -423    -55    491    495 210.4  -6.5  34148  289.37 0855.19
2009/04/23 11:49:32.5    -102   -499     85    510    518 191.6   9.5  34158  289.54 0855.19
2009/04/23 11:49:32.6     -93   -504      7    513    514 190.5   0.8  34154  289.47 0855.19
2009/04/23 11:49:32.7    -213   -388     36    443    445 208.8   4.7  34156  289.51 0855.19
2009/04/23 11:49:32.8    -140   -384     73    409    416 200.1  10.1  34154  289.46 0855.19
2009/04/23 11:49:32.9    -159   -398      7    429    430 201.9   1.0  34152  289.43 0855.19
2009/04/23 11:49:33.0    -154   -424    -29    452    453 200.0  -3.8  34162  289.60 0855.19
2009/04/23 11:49:33.1     -21   -468      1    469    470 182.7   0.2  34160  289.56 0855.19
2009/04/23 11:49:33.2       6   -346     57    347    352 179.0   9.3  34146  289.32 0855.19
2009/04/23 11:49:33.3     -13   -372     46    373    376 182.0   7.1  34144  289.30 0855.19
2009/04/23 11:49:33.4     -39   -267    237    270    359 188.5  45.8  34150  289.40 0855.19
2009/04/23 11:49:33.5    -110   -339     59    357    362 198.0   9.5  34146  289.33 0855.19
2009/04/23 11:49:33.6     -94   -383    253    395    469 193.9  35.7  34146  289.33 0855.19
2009/04/23 11:49:33.7     146   -251    191    291    348 149.9  36.3  34144  289.30 0855.19
2009/04/23 11:49:33.8     386   -297    255    488    550 127.6  29.8  34152  289.45 0855.19
2009/04/23 11:49:33.9      35   -138    270    143    305 165.7  70.0  34162  289.61 0855.21
2009/04/23 11:49:34.0     248   -192    330    314    455 127.7  51.9  34152  289.44 0855.21
2009/04/23 11:49:34.1     106   -358    199    374    423 163.5  30.2  34148  289.38 0855.21
2009/04/23 11:49:34.2     119   -263    156    289    328 155.5  30.7  34148  289.36 0855.21
2009/04/23 11:49:34.3      98   -289     97    306    322 161.3  17.7  34152  289.44 0855.21
2009/04/23 11:49:34.4     434   -253     -2    503    504 120.2  -0.3  34148  289.37 0855.21
2009/04/23 11:49:34.5     332   -242    286    411    500 126.1  38.4  34150  289.39 0855.21
2009/04/23 11:49:34.6     237   -176    268    296    399 126.6  46.9  34150  289.40 0855.21
2009/04/23 11:49:34.7      32    -83    209     90    227 158.6  75.3  34156  289.52 0855.21
2009/04/23 11:49:34.8     180   -339    241    385    454 152.0  35.2  34150  289.39 0855.21
2009/04/23 11:49:34.9      83   -419    263    428    502 168.8  34.5  34154  289.47 0855.21
2009/04/23 11:49:35.0     103   -453    155    465    491 167.1  18.4  34152  289.44 0855.21
2009/04/23 11:49:35.1      64   -489    188    494    528 172.5  22.0  34152  289.44 0855.21
2009/04/23 11:49:35.2      77   -554    156    560    582 172.0  15.6  34150  289.41 0855.21
2009/04/23 11:49:35.4      31   -486    190    487    522 176.3  22.4  34146  289.34 0855.21
2009/04/23 11:49:35.4      51   -411    230    415    474 172.9  31.4  34152  289.43 0855.21
2009/04/23 11:49:35.5      44   -473    130    476    494 174.7  15.3  34150  289.40 0855.21
2009/04/23 11:49:35.6     105   -460    226    472    523 167.1  27.3  34152  289.44 0855.21
2009/04/23 11:49:35.7     106   -444    323    457    559 166.5  38.7  34146  289.35 0855.21
2009/04/23 11:49:35.8      90   -490    361    499    615 169.5  39.5  34148  289.37 0855.21
2009/04/23 11:49:35.9     155   -469    296    494    575 161.7  33.8  34140  289.24 0855.21
2009/04/23 11:49:36.0      57   -523    354    527    634 173.8  37.1  34152  289.44 0855.21
2009/04/23 11:49:36.1      46   -552    239    554    603 175.2  25.0  34148  289.37 0855.21
2009/04/23 11:49:36.2     238   -453    164    512    538 152.3  17.8  34146  289.35 0855.21
2009/04/23 11:49:36.4     275   -552    140    617    633 153.5  12.8  34140  289.23 0855.21
2009/04/23 11:49:36.5     305   -638    165    708    727 154.4  13.1  34150  289.39 0855.21
2009/04/23 11:49:36.6     277   -574    267    638    691 154.2  24.1  34152  289.44 0855.21
2009/04/23 11:49:36.6      77   -514    279    520    590 171.4  30.5  34148  289.36 0855.21
2009/04/23 11:49:36.7    -131   -454    247    473    533 196.1  29.8  34150  289.39 0855.21
2009/04/23 11:49:36.9    -107   -304    267    323    419 199.4  43.8  34152  289.43 0855.21
2009/04/23 11:49:37.0      24    -73    142     78    162 161.5  69.1  34148  289.36 0855.23
2009/04/23 11:49:37.1     239    -52    216    245    326 102.3  46.1  34154  289.46 0855.23
2009/04/23 11:49:37.2     100    -82    216    130    252 129.5  66.0  34158  289.53 0855.23
2009/04/23 11:49:37.3     107    -44    161    116    198 112.6  60.6  34152  289.43 0855.23
2009/04/23 11:49:37.4     157     67    109    171    202  66.9  35.6  34150  289.41 0855.23
2009/04/23 11:49:37.5      99    146     99    177    202  34.3  31.9  34156  289.50 0855.23
2009/04/23 11:49:37.6     157     89     95    181    204  60.2  30.1  34154  289.46 0855.23
2009/04/23 11:49:37.7     230     22      2    232    233  84.3   0.5  34150  289.40 0855.23
2009/04/23 11:49:37.8     209     80      3    224    225  68.9   1.0  34150  289.40 0855.23
2009/04/23 11:49:37.9     235     -9     -7    236    237  92.4  -1.8  34160  289.58 0855.23
2009/04/23 11:49:38.0     185    -34     59    189    199 100.6  17.4  34158  289.53 0855.23
2009/04/23 11:49:38.1     192      6    102    193    218  88.1  30.1  34156  289.50 0855.23
2009/04/23 11:49:38.2     101     15    165    103    194  81.2  64.7  34162  289.62 0855.23
2009/04/23 11:49:38.3      93     93     99    132    165  45.1  40.7  34158  289.53 0855.23
2009/04/23 11:49:38.4      30    151    117    155    194  11.5  40.9  34158  289.53 0855.23
2009/04/23 11:49:38.5      68    125    101    143    175  28.5  38.6  34162  289.60 0855.23
2009/04/23 11:49:38.6      -4    213    104    214    237 358.9  28.0  34162  289.60 0855.23
2009/04/23 11:49:38.7     -20     57     58     61     84 340.8  49.0  34162  289.60 0855.23
2009/04/23 11:49:38.8      -8    -61    174     62    184 188.0  80.2  34164  289.63 0855.23
2009/04/23 11:49:38.9     -19     97     52     99    111 348.5  29.8  34168  289.70 0855.23
2009/04/23 11:49:39.0      37     74     36     83     90  26.7  25.1  34168  289.72 0855.23
2009/04/23 11:49:39.1      61     24     62     66     90  68.2  48.5  34168  289.70 0855.23
2009/04/23 11:49:39.2      26     31     78     41     88  39.6  70.4  34162  289.62 0855.23
2009/04/23 11:49:39.3       0     45     36     46     58 359.1  43.7  34162  289.62 0855.23
2009/04/23 11:49:39.4     -57     19     -6     61     62 288.2  -6.2  34164  289.65 0855.23
2009/04/23 11:49:39.5     -17     20    -49     27     55 318.6 -72.1  34162  289.62 0855.23
2009/04/23 11:49:39.6     -70     45    -22     84     87 302.5 -15.0  34162  289.62 0855.23
2009/04/23 11:49:39.7     -63     18    -51     66     83 285.9 -46.1  34168  289.70 0855.23
2009/04/23 11:49:39.8     -70    -53   -117     89    147 232.7 -62.9  34172  289.79 0855.23
2009/04/23 11:49:39.9     -77   -128   -110    150    186 211.2 -44.3  34162  289.62 0855.23
2009/04/23 11:49:40.0     -46    -93   -187    104    213 206.3 -73.2  34174  289.82 0855.23
2009/04/23 11:49:40.1     -48    -45    -90     67    112 226.9 -64.4  34162  289.60 0855.23
2009/04/23 11:49:40.2    -201     79    -42    217    222 291.5 -11.1  34172  289.79 0855.23
2009/04/23 11:49:40.3    -257      7    -78    258    269 271.7 -21.8  34164  289.63 0855.23
2009/04/23 11:49:40.4    -135     41    -50    142    151 286.9 -19.7  34164  289.65 0855.23
2009/04/23 11:49:40.5    -117     97    -43    153    160 309.6 -15.8  34166  289.69 0855.23
2009/04/23 11:49:40.6     -22    157     42    159    165 352.0  15.0  34168  289.70 0855.23
2009/04/23 11:49:40.7       5    186    115    187    219   1.8  34.8  34170  289.75 0855.23
2009/04/23 11:49:40.8      29    226     92    228    245   7.3  23.1  34168  289.71 0855.23
2009/04/23 11:49:40.9     -47    146    152    154    216 342.2  49.9  34170  289.75 0855.23
2009/04/23 11:49:41.0     105     -8    156    106    188  94.4  62.6  34158  289.55 0855.19
2009/04/23 11:49:41.1     -36    112    171    118    207 342.2  62.4  34170  289.74 0855.19
2009/04/23 11:49:41.2     -43     77    225     89    241 330.6  77.4  34174  289.82 0855.19
2009/04/23 11:49:41.3     -94    139    121    168    207 325.9  39.3  34160  289.58 0855.19
2009/04/23 11:49:41.4    -150    149    148    212    258 314.8  38.5  34162  289.59 0855.19
2009/04/23 11:49:41.5    -215    223    131    310    336 316.1  24.2  34172  289.76 0855.19
2009/04/23 11:49:41.6    -167    162     77    233    246 314.2  18.5  34166  289.68 0855.19
2009/04/23 11:49:41.7    -100    215    200    238    310 335.1  44.1  34156  289.51 0855.19
2009/04/23 11:49:41.8     -67    263     98    272    289 345.7  20.7  34150  289.41 0855.19
2009/04/23 11:49:41.9    -313    135    119    342    363 293.4  19.3  34148  289.38 0855.19
2009/04/23 11:49:42.0    -282   -179     46    335    339 237.5   7.9  34152  289.43 0855.19
2009/04/23 11:49:42.1    -204   -260     84    331    342 218.1  14.3  34152  289.42 0855.19
2009/04/23 11:49:42.2    -206   -181    183    275    330 228.7  36.6  34152  289.42 0855.19
2009/04/23 11:49:42.3    -339   -140    151    367    396 247.5  23.7  34156  289.52 0855.19
2009/04/23 11:49:42.4    -213   -150     91    261    276 234.7  20.0  34146  289.32 0855.19
2009/04/23 11:49:42.5    -204     11    -20    205    207 273.3  -5.6  34166  289.69 0855.19
2009/04/23 11:49:42.6    -314    -24   -107    315    332 265.6 -23.7  34194  290.15 0855.19
2009/04/23 11:49:42.7    -184    -63    -65    195    205 250.9 -23.6  34184  289.99 0855.19
2009/04/23 11:49:42.8     -31    -49    -21     59     63 212.5 -19.7  34188  290.06 0855.19
2009/04/23 11:49:42.9    -143     -7     83    144    166 267.0  32.7  34166  289.69 0855.19
2009/04/23 11:49:43.0    -109     17    140    111    178 278.8  57.7  34188  290.04 0855.18
2009/04/23 11:49:43.1    -106    -70    131    128    183 236.7  50.7  34166  289.69 0855.18
2009/04/23 11:49:43.2    -118     13    131    119    176 276.6  53.0  34172  289.77 0855.18
2009/04/23 11:49:43.3     -28     35    105     46    114 321.3  75.0  34182  289.94 0855.18
2009/04/23 11:49:43.4      25    146     88    149    173   9.7  33.7  34172  289.79 0855.18
2009/04/23 11:49:43.5     -16    175    -49    176    183 354.7 -15.8  34172  289.77 0855.18
2009/04/23 11:49:43.6    -128    272     11    301    302 334.7   2.1  34184  289.98 0855.18
2009/04/23 11:49:43.7    -138    249    -76    285    296 331.0 -15.0  34194  290.15 0855.18
2009/04/23 11:49:43.8    -257    171    -75    309    318 303.7 -13.7  34174  289.81 0855.18
2009/04/23 11:49:43.9    -365     40    -14    368    369 276.4  -2.2  34180  289.91 0855.18
2009/04/23 11:49:44.0    -337     54   -111    342    360 279.2 -18.1  34186  290.01 0855.18
2009/04/23 11:49:44.1    -334    100    -26    349    350 286.7  -4.4  34184  289.98 0855.18
2009/04/23 11:49:44.2    -349    164    -69    386    393 295.2 -10.2  34188  290.03 0855.18
2009/04/23 11:49:44.3    -198    125    -92    235    252 302.4 -26.7  34180  289.92 0855.18
2009/04/23 11:49:44.4    -224    127   -145    258    295 299.5 -36.0  34178  289.86 0855.18
2009/04/23 11:49:44.5    -221     10     32    222    225 272.8   8.2  34160  289.57 0855.18
2009/04/23 11:49:44.6    -144    -32     82    148    169 257.2  31.6  34172  289.77 0855.18
2009/04/23 11:49:44.7     -41    -34     31     54     62 229.6  31.4  34174  289.80 0855.18
2009/04/23 11:49:44.8      57     47     14     75     77  50.5  11.0  34170  289.75 0855.18
2009/04/23 11:49:44.9      -1    133     39    134    140 359.5  16.3  34168  289.72 0855.18
2009/04/23 11:49:45.0    -115    157     -7    196    197 323.7  -2.2  34170  289.74 0855.20
2009/04/23 11:49:45.1     -85     72    -62    112    128 310.0 -35.8  34176  289.84 0855.20
2009/04/23 11:49:45.2      20     32    -13     38     40  32.5 -23.6  34194  290.16 0855.20
2009/04/23 11:49:45.3     187     76    117    203    234  67.8  32.7  34240  290.94 0855.20
2009/04/23 11:49:45.4     171     42     82    177    195  76.1  27.0  34266  291.37 0855.20
2009/04/23 11:49:45.5     102    121    105    159    190  40.1  36.5  34276  291.54 0855.20
2009/04/23 11:49:45.6     150     89     -2    175    176  59.1  -0.7  34250  291.11 0855.20
2009/04/23 11:49:45.7      -2    143     21    144    146 359.0   8.5  34254  291.18 0855.20
2009/04/23 11:49:45.8      -8    140     56    141    151 356.4  23.0  34250  291.11 0855.20
2009/04/23 11:49:45.9      41    152    100    158    186  15.1  35.5  34260  291.26 0855.20
2009/04/23 11:49:46.0     118     92    121    150    192  52.2  43.5  34262  291.32 0855.20
2009/04/23 11:49:46.1     153    248    111    292    312  31.7  21.7  34254  291.17 0855.20
2009/04/23 11:49:46.2       2    188     66    189    201   0.9  19.2  34256  291.20 0855.20
2009/04/23 11:49:46.3    -123     86    107    151    185 305.1  38.8  34232  290.79 0855.20
2009/04/23 11:49:46.4     -63    101     82    120    145 327.9  37.6  34230  290.75 0855.20
2009/04/23 11:49:46.5     -77    105    110    131    171 323.9  44.3  34232  290.79 0855.20
2009/04/23 11:49:46.6    -129    111    127    171    213 310.9  40.1  34218  290.57 0855.20
2009/04/23 11:49:46.7    -155     41    109    161    194 285.0  37.0  34224  290.67 0855.20
2009/04/23 11:49:46.8    -121     42    125    129    179 289.1  49.2  34218  290.57 0855.20
2009/04/23 11:49:46.9     -87     72    164    114    199 309.5  61.8  34254  291.16 0855.20
2009/04/23 11:49:47.0     -56     44    112     72    133 307.8  64.6  34282  291.66 0855.17
2009/04/23 11:49:47.1     -70    -53     70     89    113 232.7  42.7  34234  290.82 0855.17
2009/04/23 11:49:47.2     -45   -133    126    141    189 198.7  46.6  34208  290.40 0855.17
2009/04/23 11:49:47.3      93    -99     77    137    157 136.8  31.6  34240  290.92 0855.17
2009/04/23 11:49:47.4     147     97     92    177    199  56.5  29.5  34276  291.55 0855.17
2009/04/23 11:49:47.5     293    127    170    320    362  66.5  30.2  34292  291.83 0855.17
2009/04/23 11:49:47.6     234     74    162    246    294  72.5  36.5  34242  290.97 0855.17
2009/04/23 11:49:47.7      81    284    163    296    337  16.0  31.3  34248  291.07 0855.17
2009/04/23 11:49:47.8      76    319     73    328    337  13.4  12.6  34248  291.08 0855.17
2009/04/23 11:49:47.9     191    109    187    221    289  60.2  44.5  34226  290.70 0855.17
2009/04/23 11:49:48.0     239    211     24    319    320  48.6   4.3  34216  290.53 0855.17
2009/04/23 11:49:48.1     334    226   -132    404    426  55.9 -18.2  34200  290.24 0855.17
2009/04/23 11:49:48.2     501    292    -58    580    584  59.8  -5.8  34204  290.31 0855.17
2009/04/23 11:49:48.3     307    190      0    362    363  58.3   0.0  34208  290.38 0855.17
2009/04/23 11:49:48.4     350     51    162    354    389  81.6  26.4  34202  290.27 0855.17
2009/04/23 11:49:48.5     515    121     25    530    531  76.7   2.8  34198  290.23 0855.17
2009/04/23 11:49:48.6     334    150    -42    367    370  65.8  -6.6  34192  290.13 0855.17
2009/04/23 11:49:48.7     327    209    135    389    411  57.4  20.0  34186  290.02 0855.17
2009/04/23 11:49:48.8     521    105    183    532    563  78.6  19.1  34230  290.75 0855.17
2009/04/23 11:49:48.9     300    -31     26    302    304  96.1   5.0  34228  290.73 0855.17
2009/04/23 11:49:49.0      63   -189    -74    200    213 161.5 -25.4  34224  290.67 0855.15
2009/04/23 11:49:49.1     -40   -234    -72    238    248 189.7 -21.8  34222  290.61 0855.15
2009/04/23 11:49:49.2     -74   -349   -110    357    373 192.1 -21.9  34220  290.59 0855.15
2009/04/23 11:49:49.3    -169   -400    -30    435    437 202.9  -4.0  34214  290.48 0855.15
2009/04/23 11:49:49.4      13   -290    -87    291    304 177.3 -16.6  34212  290.44 0855.15
2009/04/23 11:49:49.5     108   -280      2    301    302 158.8   0.5  34204  290.31 0855.15
2009/04/23 11:49:49.6      39   -252     32    256    259 171.1   7.2  34182  289.93 0855.15
2009/04/23 11:49:49.7      -4   -281    166    282    327 180.9  33.3  34186  290.02 0855.15
2009/04/23 11:49:49.8     -39   -257    144    260    297 188.7  31.4  34176  289.85 0855.15
2009/04/23 11:49:49.9      10   -225     86    226    241 177.3  22.0  34180  289.90 0855.15
2009/04/23 11:49:50.0      56   -274    140    280    313 168.4  28.6  34176  289.85 0855.15
2009/04/23 11:49:50.1      78   -196    110    212    238 158.2  29.5  34176  289.85 0855.15
2009/04/23 11:49:50.2      69   -235    173    246    300 163.5  38.6  34168  289.71 0855.15
2009/04/23 11:49:50.3     -29   -297    161    299    339 185.6  30.8  34172  289.78 0855.15
2009/04/23 11:49:50.4      18   -335    146    336    366 176.9  25.1  34172  289.77 0855.15
2009/04/23 11:49:50.5      60   -299    117    306    327 168.5  21.8  34166  289.66 0855.15
2009/04/23 11:49:50.6      40   -121    128    128    181 161.5  50.1  34220  290.60 0855.15
2009/04/23 11:49:50.7     -90     40    105     99    144 294.0  51.6  34212  290.45 0855.15
2009/04/23 11:49:50.8    -252    -31    -89    255    270 262.8 -24.3  34172  289.78 0855.15
2009/04/23 11:49:50.9    -390    -52     45    394    397 262.3   6.6  34198  290.20 0855.15
2009/04/23 11:49:51.0    -373    100     73    387    394 285.0  10.7  34178  289.87 0855.16
2009/04/23 11:49:51.1    -397    172   -119    433    450 293.5 -15.4  34158  289.55 0855.16
2009/04/23 11:49:51.2    -263     55    -87    269    282 281.9 -23.0  34160  289.56 0855.16
2009/04/23 11:49:51.3    -117    -20   -151    119    192 260.3 -61.9  34162  289.60 0855.16
2009/04/23 11:49:51.4    -468    212     13    514    515 294.4   1.5  34150  289.40 0855.16
2009/04/23 11:49:51.5    -517     21   -151    518    539 272.4 -21.1  34138  289.21 0855.16
2009/04/23 11:49:51.6    -451     32   -153    453    479 274.1 -18.7  34136  289.18 0855.16
2009/04/23 11:49:51.7    -370     40   -107    373    388 276.3 -20.9  34138  289.21 0855.16
2009/04/23 11:49:51.8    -449     34   -143    451    473 274.4 -22.8  34130  289.05 0855.16
2009/04/23 11:49:51.9    -417      3   -234    418    479 270.5 -36.1  34134  289.12 0855.16
2009/04/23 11:49:52.0    -438    117   -267    454    526 285.0 -37.7  34146  289.35 0855.16
2009/04/23 11:49:52.1    -344    229    105    414    428 303.7  14.3  34180  289.90 0855.16
2009/04/23 11:49:52.2    -371    259     46    453    456 305.0   5.9  34198  290.21 0855.16
2009/04/23 11:49:52.3    -309    216    100    378    392 305.0  14.9  34196  290.18 0855.16
2009/04/23 11:49:52.4    -153    207    164    258    305 323.5  35.5  34200  290.26 0855.16
2009/04/23 11:49:52.5    -268     90    111    283    303 288.6  22.8  34208  290.37 0855.16
2009/04/23 11:49:52.6    -301     -4     65    302    310 269.1  12.2  34202  290.29 0855.16
2009/04/23 11:49:52.7    -229    -32   -111    232    257 262.0 -31.7  34202  290.27 0855.16
2009/04/23 11:49:52.8    -157     38    101    162    190 283.7  35.2  34204  290.31 0855.16
2009/04/23 11:49:52.9    -195    169    154    259    301 310.9  33.5  34194  290.15 0855.16
2009/04/23 11:49:53.0    -194    132    152    235    279 304.2  35.7  34190  290.09 0855.17
2009/04/23 11:49:53.1    -100    181     18    208    209 331.0   5.0  34188  290.06 0855.17
2009/04/23 11:49:53.2     -61    114    -25    130    133 331.9 -10.9  34200  290.25 0855.17
2009/04/23 11:49:53.3     -45     66     -1     81     82 325.7  -0.7  34192  290.11 0855.17
2009/04/23 11:49:53.4    -124     32   -121    129    176 284.6 -52.4  34188  290.06 0855.17
2009/04/23 11:49:53.5    -441    111   -218    455    504 284.2 -31.7  34136  289.18 0855.17
2009/04/23 11:49:53.6    -551   -183     49    581    584 251.6   4.9  34148  289.37 0855.17
2009/04/23 11:49:53.7    -476    -83   -175    484    514 260.1 -25.2  34146  289.35 0855.17
2009/04/23 11:49:53.8    -358    -68   -254    365    444 259.2 -42.7  34166  289.68 0855.17
2009/04/23 11:49:53.9    -380    -40   -209    383    436 263.9 -35.7  34166  289.66 0855.17
2009/04/23 11:49:54.0    -276     25     24    278    280 275.2   5.0  34162  289.61 0855.17
2009/04/23 11:49:54.1    -266     96     98    283    300 289.9  19.2  34180  289.92 0855.17
2009/04/23 11:49:54.2    -313    226    -16    387    388 305.9  -2.5  34180  289.91 0855.17
2009/04/23 11:49:54.3    -277    219     55    354    359 308.3   8.9  34182  289.96 0855.17
2009/04/23 11:49:54.4    -276    200    -10    341    342 306.0  -1.7  34154  289.48 0855.17
2009/04/23 11:49:54.5    -295    150   -117    331    351 297.0 -24.7  34152  289.42 0855.17
2009/04/23 11:49:54.6    -263    262    -33    372    374 314.9  -5.2  34178  289.86 0855.17
2009/04/23 11:49:54.7    -198    181    -35    269    272 312.3  -7.5  34182  289.93 0855.17
2009/04/23 11:49:54.8    -193     98     93    217    236 297.1  24.6  34196  290.18 0855.17
2009/04/23 11:49:54.9    -231     -1     92    232    249 269.6  22.8  34194  290.14 0855.17
2009/04/23 11:49:55.0    -351   -149     66    382    388 246.9   9.9  34202  290.27 0855.13
2009/04/23 11:49:55.1    -423   -110     86    438    447 255.4  11.1  34200  290.26 0855.13
2009/04/23 11:49:55.2    -445    -85     18    454    455 259.1   2.3  34202  290.28 0855.13
2009/04/23 11:49:55.3    -435     69    102    441    453 279.1  13.1  34190  290.09 0855.13
2009/04/23 11:49:55.4    -488      2    -25    489    490 270.3  -3.0  34182  289.93 0855.13
2009/04/23 11:49:55.5    -476     49   -130    479    497 275.9 -15.2  34178  289.88 0855.13
2009/04/23 11:49:55.6    -422    126   -149    441    466 286.6 -18.7  34168  289.70 0855.13
2009/04/23 11:49:55.7    -368   -137    -50    393    397 249.6  -7.3  34182  289.96 0855.13
2009/04/23 11:49:55.8    -297   -181   -115    348    366 238.6 -23.6  34188  290.04 0855.13
2009/04/23 11:49:55.9    -179    -87   -223    200    299 244.0 -57.9  34184  289.98 0855.13
2009/04/23 11:49:56.0    -149    -59   -218    161    271 248.2 -64.7  34184  289.97 0855.09
2009/04/23 11:49:56.1     -48     23   -184     54    191 295.3 -87.7  34176  289.84 0855.09
2009/04/23 11:49:56.2      75    178   -166    194    255  22.9 -49.3  34174  289.80 0855.09
2009/04/23 11:49:56.3     -32    -27   -181     43    186 229.6 -90.0  34182  289.96 0855.09
2009/04/23 11:49:56.4    -102   -108   -124    149    193 223.2 -48.2  34168  289.72 0855.09
2009/04/23 11:49:56.5    -365   -201     85    417    426 241.1  11.6  34178  289.87 0855.09
2009/04/23 11:49:56.6     -64   -345    114    351    370 190.6  18.0  34178  289.89 0855.09
2009/04/23 11:49:56.7      -7   -411    257    412    485 181.0  35.0  34164  289.65 0855.09
2009/04/23 11:49:56.8      70   -331    194    339    390 168.0  32.4  34166  289.67 0855.09
2009/04/23 11:49:56.9      75   -345    167    354    391 167.7  27.1  34162  289.62 0855.09
2009/04/23 11:49:57.0       0   -346    143    347    375 180.0  23.6  34168  289.71 0855.09
2009/04/23 11:49:57.1      92   -474    108    483    495 169.0  12.6  34162  289.62 0855.09
2009/04/23 11:49:57.2       4   -492     96    493    503 179.5  11.1  34162  289.59 0855.09
2009/04/23 11:49:57.3     -91   -452    206    462    505 191.4  25.7  34166  289.69 0855.09
2009/04/23 11:49:57.4     -49   -358    190    362    408 187.9  30.1  34168  289.71 0855.09
2009/04/23 11:49:57.5     -74   -334    248    343    423 192.6  39.5  34170  289.74 0855.09
2009/04/23 11:49:57.6    -152   -392    190    421    461 201.3  26.2  34174  289.82 0855.09
2009/04/23 11:49:57.7    -181   -370    128    412    432 206.1  17.3  34186  290.00 0855.09
2009/04/23 11:49:57.8    -196   -306   -117    364    383 212.6 -17.9  34184  289.98 0855.09
2009/04/23 11:49:57.9    -215   -465    139    513    532 204.8  15.2  34182  289.94 0855.09
2009/04/23 11:49:58.0    -170   -374    -22    411    412 204.5  -3.2  34196  290.19 0855.05
2009/04/23 11:49:58.1    -146   -374     47    402    405 201.4   6.8  34204  290.31 0855.05
2009/04/23 11:49:58.2    -252   -381    -39    458    460 213.5  -4.9  34202  290.29 0855.05
2009/04/23 11:49:58.3    -405   -405    -38    573    575 225.0  -3.8  34194  290.15 0855.05
2009/04/23 11:49:58.4    -428   -345   -128    550    565 231.1 -13.1  34178  289.89 0855.05
2009/04/23 11:49:58.5    -325   -253    -75    413    420 232.1 -10.4  34190  290.07 0855.05
2009/04/23 11:49:58.6    -209   -376     64    431    436 209.0   8.5  34174  289.82 0855.05
2009/04/23 11:49:58.7     -87   -372     12    383    384 193.3   1.9  34178  289.86 0855.05
2009/04/23 11:49:58.8      15   -375   -112    376    393 177.7 -16.7  34172  289.77 0855.05
2009/04/23 11:49:58.9     -39   -316    -82    319    330 187.1 -14.5  34184  289.97 0855.05
2009/04/23 11:49:59.0      51   -334    -61    338    344 171.2 -10.4  34182  289.94 0855.05
2009/04/23 11:49:59.1     -51   -364    -76    368    376 188.1 -11.8  34178  289.86 0855.05
2009/04/23 11:49:59.2      59   -362     12    367    368 170.7   1.9  34158  289.55 0855.05
2009/04/23 11:49:59.3     155   -351     50    384    388 156.2   7.5  34162  289.59 0855.05
2009/04/23 11:49:59.4      91   -380     10    391    392 166.4   1.5  34164  289.64 0855.05
2009/04/23 11:49:59.5      73   -325     37    334    337 167.3   6.4  34158  289.55 0855.05
2009/04/23 11:49:59.6    -132   -307     19    335    336 203.3   3.3  34168  289.72 0855.05
2009/04/23 11:49:59.7    -137   -236      7    273    274 210.1   1.6  34182  289.93 0855.05
2009/04/23 11:49:59.8    -155   -211     17    262    263 216.3   3.9  34182  289.95 0855.05
2009/04/23 11:49:59.9    -135   -208     77    249    261 213.0  17.3  34190  290.07 0855.05
2009/04/23 11:50:00.0    -163   -235      3    287    288 214.7   0.7  34196  290.17 0854.98
2009/04/23 11:50:00.1     -73   -177    -33    192    195 202.5  -9.8  34184  289.97 0854.98
2009/04/23 11:50:00.2     -40   -149     11    155    156 195.1   4.2  34174  289.82 0854.98
2009/04/23 11:50:00.3    -132    -33     37    137    143 255.8  15.3  34178  289.89 0854.98
2009/04/23 11:50:00.4     -19    -23     76     31     82 219.6  77.1  34178  289.89 0854.98
2009/04/23 11:50:00.5    -138   -168    166    218    274 219.4  41.4  34166  289.68 0854.98
2009/04/23 11:50:00.6    -128   -250    197    282    343 207.2  38.5  34152  289.44 0854.98
2009/04/23 11:50:00.7    -144   -226    167    269    316 212.6  34.9  34158  289.54 0854.98
2009/04/23 11:50:00.8     -61   -206     93    215    234 196.5  25.1  34174  289.80 0854.98
2009/04/23 11:50:00.9       0   -150     71    151    166 180.4  27.1  34182  289.94 0854.98
2009/04/23 11:50:01.0    -214     -9     84    215    230 267.4  22.5  34164  289.63 0854.98
2009/04/23 11:50:01.1     -35     -3     46     36     58 263.9  56.4  34178  289.87 0854.98
2009/04/23 11:50:01.2       8     25    128     27    130  18.7  89.0  34180  289.92 0854.98
2009/04/23 11:50:01.3     118    -31    140    123    186 105.1  54.3  34180  289.92 0854.98
2009/04/23 11:50:01.4      62     99    150    117    190  32.1  57.9  34192  290.13 0854.98
2009/04/23 11:50:01.5     -24     61    157     66    170 338.1  76.1  34192  290.11 0854.98
2009/04/23 11:50:01.6      42     50    125     66    141  40.5  70.4  34188  290.04 0854.98
2009/04/23 11:50:01.7      15     87    100     89    133   9.8  53.7  34184  289.99 0854.98
2009/04/23 11:50:01.8      95     31    147    100    177  71.8  62.6  34180  289.91 0854.98
2009/04/23 11:50:01.9      60     44    168     75    183  54.0  74.5  34182  289.96 0854.98
2009/04/23 11:50:02.0     146     29     76    149    167  78.5  28.7  34168  289.70 0855.01
2009/04/23 11:50:02.1      77     44     14     89     91  60.2   9.5  34162  289.62 0855.01
2009/04/23 11:50:02.2      36      7      0     37     38  78.6  -1.3  34164  289.65 0855.01
2009/04/23 11:50:02.3      14     62     28     64     69  13.4  26.2  34164  289.65 0855.01
2009/04/23 11:50:02.4      64     66     38     93    100  44.1  23.1  34170  289.75 0855.01
2009/04/23 11:50:02.5      14    135     80    136    157   6.3  33.1  34182  289.96 0855.01
2009/04/23 11:50:02.6      -3     91     88     92    127 357.8  49.0  34184  289.97 0855.01
2009/04/23 11:50:02.7     -68    175    128    189    228 338.6  37.4  34178  289.87 0855.01
2009/04/23 11:50:02.8    -147    195    145    245    284 323.0  33.4  34180  289.92 0855.01
2009/04/23 11:50:02.9    -196    191    105    274    293 314.2  22.0  34172  289.78 0855.01
2009/04/23 11:50:03.1    -255    145     59    294    300 299.7  11.4  34170  289.75 0855.01
2009/04/23 11:50:03.2    -215    255    122    334    355 319.8  21.0  34168  289.71 0855.01
2009/04/23 11:50:03.3    -228    194     58    300    306 310.5  11.1  34170  289.73 0855.01
2009/04/23 11:50:03.4    -131    191      9    232    233 325.5   2.3  34166  289.67 0855.01
2009/04/23 11:50:03.5    -144    197     10    245    246 323.9   2.3  34170  289.73 0855.01
2009/04/23 11:50:03.6    -211     99      8    234    235 295.2   2.1  34154  289.46 0855.01
2009/04/23 11:50:03.7     -92    -28     -3     97     98 252.7  -2.2  34158  289.55 0855.01
2009/04/23 11:50:03.8    -123    -78    -39    146    152 237.6 -15.0  34162  289.60 0855.01
2009/04/23 11:50:03.9     -91    -50    -37    104    110 241.1 -23.8  34166  289.69 0855.01
2009/04/23 11:50:04.0     -16    -59   -149     62    161 195.1 -80.7  34172  289.79 0855.01
2009/04/23 11:50:04.1     141     47   -100    149    179  71.4 -41.4  34172  289.77 0855.08
2009/04/23 11:50:04.2     124    171   -108    212    237  36.1 -33.6  34172  289.77 0855.08
2009/04/23 11:50:04.3      98    123     24    158    160  38.7   8.8  34162  289.60 0855.08
2009/04/23 11:50:04.4      20    111    101    113    151  10.2  46.4  34172  289.79 0855.08
2009/04/23 11:50:04.5       8     95    -26     96    100   5.3 -15.5  34174  289.82 0855.08
2009/04/23 11:50:04.6     -26     -4     18     27     32 260.3  35.6  34182  289.94 0855.08
2009/04/23 11:50:04.7     -65    -78      7    102    103 219.6   4.4  34186  290.02 0855.08
2009/04/23 11:50:04.8     -26   -132    -78    135    155 191.5 -37.3  34188  290.06 0855.08
2009/04/23 11:50:04.9    -100   -123    -69    159    173 219.2 -29.3  34184  289.97 0855.08
2009/04/23 11:50:05.0    -146   -155    -73    214    226 223.2 -23.3  34172  289.79 0855.08
2009/04/23 11:50:05.1      65   -382   -201    388    436 170.3 -33.8  34148  289.38 0855.08
2009/04/23 11:50:05.2      46   -338     80    342    352 172.2  13.3  34138  289.21 0855.08
2009/04/23 11:50:05.3      20   -271     64    272    280 175.6  13.2  34146  289.32 0855.08
2009/04/23 11:50:05.4     -81    -71    197    109    225 228.7  68.8  34160  289.57 0855.08
2009/04/23 11:50:05.5    -372   -247    114    447    462 236.4  14.4  34146  289.34 0855.08
2009/04/23 11:50:05.6    -344   -219     88    408    418 237.5  12.2  34150  289.41 0855.08
2009/04/23 11:50:05.7    -291   -205     95    357    370 234.8  14.9  34152  289.43 0855.08
2009/04/23 11:50:05.8    -201   -126    140    238    276 238.0  33.4  34156  289.49 0855.08
2009/04/23 11:50:05.9    -280    -35     24    283    285 262.8   4.9  34158  289.54 0855.08
2009/04/23 11:50:06.0     -57    -26     35     63     72 245.6  31.4  34160  289.57 0855.08
2009/04/23 11:50:06.1     -87   -219    148    236    278 201.9  35.2  34158  289.53 0855.10
2009/04/23 11:50:06.2     -46   -191     87    197    215 193.6  25.3  34156  289.52 0855.10
2009/04/23 11:50:06.3    -146   -164    159    220    271 221.7  39.5  34156  289.49 0855.10
2009/04/23 11:50:06.4    -272    128    125    301    325 295.2  23.9  34182  289.93 0855.10
2009/04/23 11:50:06.5    -216   -183     16    284    285 229.8   3.3  34162  289.61 0855.10
2009/04/23 11:50:06.6    -460   -184   -218    496    541 248.2 -29.6  34150  289.41 0855.10
2009/04/23 11:50:06.7    -507   -400   -101    646    654 231.7  -8.9  34148  289.37 0855.10
2009/04/23 11:50:06.8    -447   -420     -9    614    615 226.8  -0.9  34154  289.48 0855.10
2009/04/23 11:50:06.9    -401   -374    103    549    559 227.0  10.7  34154  289.46 0855.10
2009/04/23 11:50:07.0    -554   -339      2    650    651 238.5   0.2  34144  289.30 0855.10
2009/04/23 11:50:07.1    -719   -312   -255    784    824 246.5 -23.0  34132  289.11 0855.10
2009/04/23 11:50:07.2    -714   -348   -210    795    823 244.0 -14.8  34142  289.28 0855.10
2009/04/23 11:50:07.3    -605   -252   -222    656    692 247.4 -23.8  34128  289.02 0855.10
2009/04/23 11:50:07.4    -450    -88    -90    459    468 258.9 -11.1  34162  289.61 0855.10
2009/04/23 11:50:07.5    -620   -113   -128    631    644 259.7 -11.5  34138  289.21 0855.10
2009/04/23 11:50:07.6    -621   -258     -3    673    674 247.4  -0.3  34150  289.39 0855.10
2009/04/23 11:50:07.7    -655   -469   -249    806    843 234.4 -22.1  34166  289.69 0855.10
2009/04/23 11:50:07.8    -877   -215   -276    904    945 256.2 -21.9  34126  288.98 0855.10
2009/04/23 11:50:07.9    -838   -256   -298    877    926 253.0 -23.8  34134  289.14 0855.10
2009/04/23 11:50:08.0    -764   -251   -270    805    850 251.8 -18.6  34150  289.40 0855.10
2009/04/23 11:50:08.1    -885   -437   -274    988   1026 243.7 -15.5  34152  289.43 0855.11
2009/04/23 11:50:08.2    -726   -284   -336    780    849 248.6 -29.3  34132  289.11 0855.11
2009/04/23 11:50:08.3    -820     15   -158    821    837 271.1 -10.9  34144  289.30 0855.11
2009/04/23 11:50:08.4    -549   -228    -23    595    596 247.4  -2.2  34176  289.85 0855.11
2009/04/23 11:50:08.5    -496   -179   -166    528    553 250.1 -22.5  34148  289.36 0855.11
2009/04/23 11:50:08.6    -483   -341   -117    592    604 234.8 -11.2  34146  289.34 0855.11
2009/04/23 11:50:08.7    -363   -560   -206    668    700 213.0 -17.2  34142  289.27 0855.11
2009/04/23 11:50:08.8    -342   -641     28    727    728 208.1   2.2  34138  289.20 0855.11
2009/04/23 11:50:08.9    -438   -485    -94    654    661 222.1  -8.2  34144  289.29 0855.11
2009/04/23 11:50:09.0    -448   -582   -120    735    745 217.6  -9.3  34136  289.18 0855.11
2009/04/23 11:50:09.1    -549   -253   -162    605    627 245.2 -15.0  34144  289.31 0855.11
2009/04/23 11:50:09.2    -333    -84    -99    344    357 255.7 -20.9  34162  289.60 0855.11
2009/04/23 11:50:09.3    -464   -229   -140    518    537 243.7 -15.2  34160  289.57 0855.11
2009/04/23 11:50:09.4    -551   -222   -114    595    606 248.1 -10.9  34144  289.29 0855.11
2009/04/23 11:50:09.5    -324    -49   -167    328    368 261.4 -33.6  34164  289.64 0855.11
2009/04/23 11:50:09.6    -322      4   -272    323    422 270.8 -48.6  34168  289.71 0855.11
2009/04/23 11:50:09.7    -264     74   -244    275    367 285.7 -50.6  34162  289.62 0855.11
2009/04/23 11:50:09.8     -95   -114      7    149    150 219.6   2.9  34128  289.02 0855.11
2009/04/23 11:50:09.9    -100   -422     52    434    438 193.4   6.9  34144  289.31 0855.11
2009/04/23 11:50:10.0    -180   -238    -83    299    311 217.2 -15.5  34150  289.39 0855.11
2009/04/23 11:50:10.1      20   -245    259    246    357 175.1  51.6  34160  289.56 0855.16
2009/04/23 11:50:10.2     -80   -378    288    387    482 192.0  40.4  34156  289.49 0855.16
2009/04/23 11:50:10.3      65   -381    272    387    473 170.2  38.5  34158  289.53 0855.16
2009/04/23 11:50:10.4      19   -576    158    577    599 178.1  15.3  34150  289.41 0855.16
2009/04/23 11:50:10.5      97   -570    216    579    617 170.3  21.5  34150  289.41 0855.16
2009/04/23 11:50:10.6     257   -547    213    605    642 154.8  19.4  34154  289.47 0855.16
2009/04/23 11:50:10.7      43   -625    247    627    673 176.0  22.7  34150  289.41 0855.16
2009/04/23 11:50:10.8      26   -687    147    688    704 177.8  12.1  34162  289.59 0855.16
2009/04/23 11:50:10.9       7   -702    180    703    726 179.4  14.4  34160  289.57 0855.16
2009/04/23 11:50:11.0     -93   -692     78    699    704 187.7   6.4  34156  289.52 0855.16
2009/04/23 11:50:11.1    -102   -720    -38    728    729 188.1  -3.0  34152  289.45 0855.16
2009/04/23 11:50:11.2    -208   -690    -32    721    722 196.8  -2.6  34150  289.39 0855.16
2009/04/23 11:50:11.3     -58   -674    -14    677    678 185.0  -1.3  34150  289.39 0855.16
2009/04/23 11:50:11.4      39   -624     77    626    631 176.4   7.1  34146  289.33 0855.16
2009/04/23 11:50:11.5     -55   -479    -79    483    490 186.6  -9.4  34148  289.37 0855.16
2009/04/23 11:50:11.6    -133   -398    108    420    434 198.6  14.5  34134  289.12 0855.16
2009/04/23 11:50:11.7    -127   -278    -52    306    311 204.7  -9.8  34144  289.29 0855.16
2009/04/23 11:50:11.8    -120   -539     73    553    558 192.6   7.6  34152  289.43 0855.16
2009/04/23 11:50:11.9     -92   -635   -105    642    651 188.3  -9.3  34152  289.42 0855.16
2009/04/23 11:50:12.0      28   -627    -17    628    629 177.4  -1.6  34130  289.08 0855.16
2009/04/23 11:50:12.1    -154   -641     95    660    667 193.5   8.2  34144  289.29 0855.18
2009/04/23 11:50:12.2      41   -566     65    568    572 175.8   6.6  34134  289.14 0855.18
2009/04/23 11:50:12.3     -93   -544    108    552    563 189.7  11.1  34144  289.31 0855.18
2009/04/23 11:50:12.4     -74   -569     65    574    578 187.5   6.5  34148  289.36 0855.18
2009/04/23 11:50:12.5    -221   -528     23    573    574 202.7   2.4  34148  289.37 0855.18
2009/04/23 11:50:12.6    -250   -545      8    600    601 204.7   0.8  34146  289.34 0855.18
2009/04/23 11:50:12.7    -207   -473      1    517    518 203.6   0.2  34148  289.37 0855.18
2009/04/23 11:50:12.8    -234   -575     35    621    622 202.2   3.2  34156  289.50 0855.18
2009/04/23 11:50:12.9    -155   -560      7    582    583 195.5   0.7  34154  289.47 0855.18
2009/04/23 11:50:13.0     -80   -695    148    700    716 186.6  12.0  34150  289.40 0855.18
2009/04/23 11:50:13.1    -104   -684    184    692    717 188.7  14.9  34150  289.40 0855.18
2009/04/23 11:50:13.2     -71   -652    246    656    700 186.3  21.6  34148  289.38 0855.18
2009/04/23 11:50:13.3     -17   -612    363    613    712 181.6  33.5  34150  289.41 0855.18
2009/04/23 11:50:13.4      70   -487    368    493    615 171.8  40.6  34146  289.32 0855.18
2009/04/23 11:50:13.5     222   -386    208    446    492 150.1  26.9  34140  289.23 0855.18
2009/04/23 11:50:13.6     121   -310    161    333    369 158.6  27.4  34146  289.32 0855.18
2009/04/23 11:50:13.7      67   -553     16    558    559 173.0   1.7  34144  289.29 0855.18
2009/04/23 11:50:13.8     253   -653    -49    701    703 158.8  -4.0  34136  289.18 0855.18
2009/04/23 11:50:13.9     296   -451    143    540    559 146.7  14.9  34136  289.18 0855.18
2009/04/23 11:50:14.0     301   -590    -56    663    666 152.9  -4.9  34138  289.19 0855.18
2009/04/23 11:50:14.1     372   -535   -119    652    663 145.2 -10.4  34140  289.22 0855.17
2009/04/23 11:50:14.2     415   -435   -183    602    630 136.3 -17.0  34138  289.20 0855.17
2009/04/23 11:50:14.3     322   -498   -141    594    611 147.1 -13.4  34140  289.24 0855.17
2009/04/23 11:50:14.4     220   -604    -93    644    651 160.0  -8.3  34142  289.28 0855.17
2009/04/23 11:50:14.5     116   -524   -122    537    551 167.5 -12.9  34144  289.29 0855.17
2009/04/23 11:50:14.6     207   -447    -91    493    502 155.1 -10.5  34152  289.45 0855.17
2009/04/23 11:50:14.7     236   -403     64    468    473 149.6   7.8  34146  289.34 0855.17
2009/04/23 11:50:14.8     158   -363     47    396    399 156.5   6.8  34152  289.43 0855.17
2009/04/23 11:50:14.9     111   -334     90    353    365 161.6  14.4  34154  289.48 0855.17
2009/04/23 11:50:15.0     -76   -281    109    292    311 195.2  21.0  34158  289.53 0855.17
2009/04/23 11:50:15.1     104   -231    195    254    320 155.7  41.4  34156  289.49 0855.17
2009/04/23 11:50:15.2     109   -346     85    363    373 162.4  13.2  34148  289.37 0855.17
2009/04/23 11:50:15.3     182   -324     66    372    378 150.6  10.1  34152  289.43 0855.17
2009/04/23 11:50:15.4     132   -325      2    351    352 157.8   0.4  34152  289.42 0855.17
2009/04/23 11:50:15.5      36   -377     -7    379    380 174.4  -1.2  34150  289.40 0855.17
2009/04/23 11:50:15.6      -9   -288    -47    289    293 181.8  -9.4  34152  289.42 0855.17
2009/04/23 11:50:15.7      49   -330    -92    334    347 171.5 -15.4  34146  289.33 0855.17
2009/04/23 11:50:15.8     -87   -387     16    397    398 192.7   2.3  34146  289.33 0855.17
2009/04/23 11:50:15.9    -145   -334     89    365    376 203.4  13.8  34150  289.40 0855.17
2009/04/23 11:50:16.0    -110   -377     37    393    395 196.4   5.4  34154  289.48 0855.17
2009/04/23 11:50:16.1    -121   -416     40    434    437 196.3   5.3  34152  289.44 0855.17
2009/04/23 11:50:16.2     -71   -412     46    419    422 189.9   6.4  34160  289.58 0855.17
2009/04/23 11:50:16.3     -68   -348     13    355    356 191.1   2.2  34172  289.79 0855.17
2009/04/23 11:50:16.4     -72   -276     30    286    288 194.7   6.1  34162  289.61 0855.17
2009/04/23 11:50:16.5     -44   -357    -27    360    361 187.1  -4.4  34162  289.60 0855.17
2009/04/23 11:50:16.6     -64   -301     51    308    313 192.0   9.4  34164  289.63 0855.17
2009/04/23 11:50:16.7     -63   -299     -1    306    307 192.0  -0.3  34160  289.58 0855.17
2009/04/23 11:50:16.8    -120   -264    -87    291    304 204.5 -16.8  34158  289.53 0855.17
2009/04/23 11:50:16.9     -68   -335   -108    343    360 191.6 -17.5  34152  289.42 0855.17
2009/04/23 11:50:17.0    -109   -322    -54    341    346 198.8  -9.1  34162  289.60 0855.17
2009/04/23 11:50:17.1     -97   -283    -24    300    301 198.9  -4.6  34164  289.63 0855.14
2009/04/23 11:50:17.2    -172   -261    -90    313    326 213.4 -16.2  34158  289.53 0855.14
2009/04/23 11:50:17.3    -188   -258    -93    320    333 216.1 -20.9  34162  289.59 0855.14
2009/04/23 11:50:17.4    -195   -207    -85    285    298 223.2 -16.6  34162  289.59 0855.14
2009/04/23 11:50:17.5    -147   -308   -120    342    362 205.6 -24.4  34178  289.86 0855.14
2009/04/23 11:50:17.6     -86   -337   -101    348    363 194.4 -16.2  34178  289.89 0855.14
2009/04/23 11:50:17.7    -109   -373     11    389    390 196.4   1.7  34164  289.64 0855.14
2009/04/23 11:50:17.8    -127   -408    -33    428    430 197.3  -4.5  34136  289.17 0855.14
2009/04/23 11:50:17.9    -101   -412    -69    425    431 193.8  -9.3  34140  289.24 0855.14
2009/04/23 11:50:18.0    -122   -466   -158    482    508 194.7 -18.2  34142  289.25 0855.14
2009/04/23 11:50:18.1    -159   -416   -180    446    480 201.0 -27.8  34132  289.10 0855.14
2009/04/23 11:50:18.2    -155   -315   -129    352    374 206.2 -25.4  34138  289.20 0855.14
2009/04/23 11:50:18.3    -116   -342   -123    362    382 198.7 -23.5  34142  289.25 0855.14
2009/04/23 11:50:18.4    -126   -304   -117    330    351 202.6 -19.6  34142  289.25 0855.14
2009/04/23 11:50:18.5    -105   -310    -67    328    335 198.7 -11.6  34138  289.21 0855.14
2009/04/23 11:50:18.6    -131   -350    -61    374    380 200.6  -9.3  34138  289.21 0855.14
2009/04/23 11:50:18.7    -128   -368    -41    390    393 199.3  -6.1  34138  289.21 0855.14
2009/04/23 11:50:18.8    -103   -360     29    375    377 196.1   4.5  34140  289.23 0855.14
2009/04/23 11:50:18.9     -71   -351     32    359    361 191.6   5.2  34140  289.23 0855.14
2009/04/23 11:50:19.0    -177   -274   -108    327    345 213.0 -18.3  34138  289.20 0855.14
2009/04/23 11:50:19.1    -186   -252    -65    314    321 216.5 -11.8  34142  289.27 0855.18
2009/04/23 11:50:19.2    -196   -244    -58    314    320 218.7 -10.5  34144  289.31 0855.18
2009/04/23 11:50:19.3    -170   -170    -93    241    258 224.9 -26.5  34150  289.39 0855.18
2009/04/23 11:50:19.4    -120   -192    -78    227    241 212.1 -19.1  34144  289.29 0855.18
2009/04/23 11:50:19.5     -36   -210    -61    214    222 189.7 -20.4  34146  289.35 0855.18
2009/04/23 11:50:19.6       6   -148    -48    149    156 177.4 -23.8  34152  289.43 0855.18
2009/04/23 11:50:19.7       9    -43    -82     45     93 167.5 -73.7  34156  289.50 0855.18
2009/04/23 11:50:19.8       8   -104    -72    105    127 175.5 -42.0  34156  289.50 0855.18
2009/04/23 11:50:19.9      15   -117    -86    119    146 172.4 -43.9  34158  289.53 0855.18
2009/04/23 11:50:20.0      -6   -172    -88    173    194 182.0 -33.5  34150  289.40 0855.18
2009/04/23 11:50:20.1     -20   -131    -90    133    160 188.9 -41.7  34160  289.57 0855.18
2009/04/23 11:50:20.2     -37   -124   -110    130    170 196.9 -48.9  34160  289.57 0855.18
2009/04/23 11:50:20.3      20    -84    -88     87    123 166.2 -54.5  34158  289.53 0855.18
2009/04/23 11:50:20.4      36    -46    -97     59    113 142.2 -69.1  34160  289.57 0855.18
2009/04/23 11:50:20.5     -43    -23    -92     49    104 242.0 -73.7  34176  289.84 0855.18
2009/04/23 11:50:20.6      24      7    -82     26     86  73.2 -85.6  34180  289.92 0855.18
2009/04/23 11:50:20.7      56     84    -77    102    127  33.8 -46.0  34180  289.92 0855.18
2009/04/23 11:50:20.8     -26    122   -107    125    164 348.0 -49.5  34174  289.80 0855.18
2009/04/23 11:50:20.9     -87     61    -92    107    141 305.1 -49.8  34170  289.75 0855.18
2009/04/23 11:50:21.0      68      5     -8     69     70  85.6  -7.2  34170  289.74 0855.18
2009/04/23 11:50:21.1     125      4     66    126    142  87.9  29.8  34160  289.58 0855.18
2009/04/23 11:50:21.2     223     74     83    236    250  71.6  20.0  34158  289.53 0855.18
2009/04/23 11:50:21.3      96     53     10    110    111  61.1   5.4  34154  289.48 0855.18
2009/04/23 11:50:21.4      45     62     13     77     79  36.0  10.1  34162  289.60 0855.18
2009/04/23 11:50:21.5      14      0      5     15     16  90.0  19.4  34166  289.67 0855.18
2009/04/23 11:50:21.6      -5    -17     -7     18     19 198.3 -23.3  34168  289.72 0855.18
2009/04/23 11:50:21.7      34    -87     29     94     99 158.2  17.3  34168  289.72 0855.18
2009/04/23 11:50:21.8      11    -12    147     17    147 136.8  90.0  34168  289.72 0855.18
2009/04/23 11:50:21.9     153     51    231    162    282  71.6  61.7  34156  289.51 0855.18
2009/04/23 11:50:22.0      16      2    237     17    237  82.1  90.0  34162  289.60 0855.18
2009/04/23 11:50:22.1     101     -4    230    102    251  92.6  74.8  34164  289.63 0855.18
2009/04/23 11:50:22.2      35     62    232     72    242  29.9  82.0  34172  289.79 0855.18
2009/04/23 11:50:22.3      98    -21    112    101    150 102.4  53.3  34166  289.69 0855.18
2009/04/23 11:50:22.4     -29      8     79     31     84 285.1  78.2  34178  289.89 0855.18
2009/04/23 11:50:22.5    -197     -4     72    198    210 268.7  20.7  34170  289.74 0855.18
2009/04/23 11:50:22.6    -171     21    105    173    202 277.0  34.2  34168  289.72 0855.18
2009/04/23 11:50:22.7     172   -152    140    230    269 131.6  34.4  34152  289.44 0855.18
2009/04/23 11:50:22.8      -2   -267    234    268    355 180.5  45.8  34152  289.42 0855.18
2009/04/23 11:50:22.9     -72   -222    166    234    286 198.0  38.8  34156  289.49 0855.18
2009/04/23 11:50:23.0    -148   -193    108    244    266 217.6  25.3  34152  289.44 0855.18
2009/04/23 11:50:23.1    -104   -188     56    216    224 209.0  14.5  34156  289.50 0855.18
2009/04/23 11:50:23.2      33   -237     71    240    251 172.0  16.6  34152  289.44 0855.18
2009/04/23 11:50:23.3      70   -180     67    194    206 158.6  19.2  34158  289.55 0855.18
2009/04/23 11:50:23.4     136   -178     24    225    227 142.6   6.1  34158  289.55 0855.18
2009/04/23 11:50:23.5     167    -77     28    184    187 114.8   8.8  34158  289.53 0855.18
2009/04/23 11:50:23.6     196   -150     58    248    255 127.5  13.2  34154  289.47 0855.18
2009/04/23 11:50:23.7      67   -280    147    289    324 166.4  29.1  34160  289.58 0855.18
2009/04/23 11:50:23.8     118   -240    199    268    333 153.7  40.2  34168  289.71 0855.18
2009/04/23 11:50:23.9     166   -222    179    278    330 143.3  35.6  34164  289.64 0855.18
2009/04/23 11:50:24.0     155   -128    219    202    297 129.5  52.2  34176  289.83 0855.18
2009/04/23 11:50:24.1     112   -183    200    215    293 148.6  47.9  34162  289.59 0855.18
2009/04/23 11:50:24.2     -24   -316    205    318    378 184.5  35.6  34172  289.79 0855.18
2009/04/23 11:50:24.3     -89   -295    194    309    364 196.9  35.2  34184  289.98 0855.18
2009/04/23 11:50:24.4      21   -312    225    313    385 176.0  39.5  34166  289.69 0855.18
2009/04/23 11:50:24.5      85   -129    242    155    287 146.6  64.6  34166  289.68 0855.18
2009/04/23 11:50:24.6      85   -264    273    278    389 162.2  49.8  34166  289.67 0855.18
2009/04/23 11:50:24.7      17     38    114     42    121  24.5  79.2  34172  289.77 0855.18
2009/04/23 11:50:24.8      23    -81     79     85    116 164.0  48.0  34150  289.40 0855.18
2009/04/23 11:50:24.9      53   -115    221    127    254 155.1  67.7  34162  289.60 0855.18
2009/04/23 11:50:25.0     -76   -160    203    178    269 205.3  54.3  34162  289.61 0855.18
2009/04/23 11:50:25.1     -58   -104    135    120    180 209.0  53.7  34172  289.77 0855.19
2009/04/23 11:50:25.2    -135   -189    275    233    360 215.6  55.6  34160  289.56 0855.19
2009/04/23 11:50:25.3    -249   -183    268    310    409 233.6  45.4  34184  289.98 0855.19
2009/04/23 11:50:25.4    -350   -202    248    405    474 240.0  34.4  34184  289.97 0855.19
2009/04/23 11:50:25.5    -256   -245    227    355    421 226.2  35.6  34178  289.87 0855.19
2009/04/23 11:50:25.6    -365   -192    150    413    439 242.2  20.9  34190  290.09 0855.19
2009/04/23 11:50:25.7    -217   -152    234    266    354 235.0  45.8  34180  289.92 0855.19
2009/04/23 11:50:25.8    -134   -256    296    289    413 207.6  50.9  34174  289.82 0855.19
2009/04/23 11:50:25.9    -278   -142    117    313    334 242.9  21.5  34190  290.07 0855.19
2009/04/23 11:50:26.0    -180   -183    155    257    300 224.5  34.2  34188  290.03 0855.19
2009/04/23 11:50:26.1    -198   -313    154    371    401 212.4  23.9  34194  290.16 0855.19
2009/04/23 11:50:26.2    -145   -228    119    271    295 212.6  25.2  34188  290.05 0855.19
2009/04/23 11:50:26.3    -131   -313    190    340    389 202.8  31.6  34178  289.89 0855.19
2009/04/23 11:50:26.4    -124   -147    217    193    290 220.1  54.0  34198  290.22 0855.19
2009/04/23 11:50:26.5    -220   -144     92    264    280 236.7  19.2  34192  290.10 0855.19
2009/04/23 11:50:26.6    -264   -264     70    374    381 225.1  10.7  34188  290.03 0855.19
2009/04/23 11:50:26.7    -256   -212    153    333    366 230.3  26.4  34168  289.72 0855.19
2009/04/23 11:50:26.8     -33   -124    181    129    222 195.2  61.1  34174  289.82 0855.19
2009/04/23 11:50:26.9    -157    -32     94    161    186 258.5  32.7  34178  289.87 0855.19
2009/04/23 11:50:27.0    -118    -84    182    145    232 234.5  57.5  34174  289.80 0855.19
2009/04/23 11:50:27.1     -37    234    142    238    277 350.9  33.5  34170  289.75 0855.22
2009/04/23 11:50:27.2     -58    358    213    363    420 350.8  33.1  34172  289.78 0855.22
2009/04/23 11:50:27.3     -76    398    142    406    430 349.2  20.0  34176  289.83 0855.22
2009/04/23 11:50:27.4     -89    373    105    384    399 346.6  15.3  34168  289.72 0855.22
2009/04/23 11:50:27.5    -184    369    157    413    441 333.5  22.0  34176  289.83 0855.22
2009/04/23 11:50:27.6    -120    272    129    298    324 336.2  25.0  34178  289.88 0855.22
2009/04/23 11:50:27.7     -66    416     33    422    424 350.9   4.5  34178  289.87 0855.22
2009/04/23 11:50:27.8      14    298     37    299    302   2.7   7.1  34176  289.83 0855.22
2009/04/23 11:50:27.9     -37    322    106    325    342 353.3  18.1  34184  289.99 0855.22
2009/04/23 11:50:28.0      95    353     18    366    367  15.2   2.9  34188  290.04 0855.22
2009/04/23 11:50:28.2     -18    287    101    288    306 356.4  19.4  34180  289.90 0855.22
2009/04/23 11:50:28.2      25    321    117    323    343   4.5  20.8  34172  289.76 0855.22
2009/04/23 11:50:28.3      29    312    107    314    333   5.3  18.9  34168  289.71 0855.22
2009/04/23 11:50:28.4    -243    176   -101    301    318 306.0 -18.7  34144  289.31 0855.22
2009/04/23 11:50:28.5    -253    171   -161    306    345 304.0 -34.5  34152  289.42 0855.22
2009/04/23 11:50:28.6    -237    229    -97    330    344 314.0 -16.4  34156  289.52 0855.22
2009/04/23 11:50:28.7     -79    153   -102    173    200 332.6 -37.8  34154  289.48 0855.22
2009/04/23 11:50:28.8    -124    185   -133    223    259 326.2 -37.9  34154  289.47 0855.22
2009/04/23 11:50:28.9     -97    220    -71    241    252 336.2 -16.4  34152  289.44 0855.22
2009/04/23 11:50:29.0       5    287     45    288    292   1.0   8.9  34160  289.56 0855.22
2009/04/23 11:50:29.1      20    235     77    236    249   4.9  18.1  34160  289.56 0855.25
2009/04/23 11:50:29.2     -97    186    -75    211    225 332.4 -19.7  34162  289.62 0855.25
2009/04/23 11:50:29.4     -66    120   -128    138    188 331.1 -52.3  34172  289.79 0855.25
2009/04/23 11:50:29.5     -39     47   -128     62    142 320.3 -77.2  34176  289.85 0855.25
2009/04/23 11:50:29.5      44    -40    -79     60     99 132.2 -63.8  34188  290.06 0855.25
2009/04/23 11:50:29.6     146    -20     18    148    150  98.0   7.1  34168  289.72 0855.25
2009/04/23 11:50:29.7      19    254     44    255    259   4.5  10.0  34184  289.98 0855.25
2009/04/23 11:50:29.8      28    386      6    388    389   4.2   1.0  34178  289.86 0855.25
2009/04/23 11:50:29.9      73    380     81    388    397  10.9  11.8  34206  290.35 0855.25
2009/04/23 11:50:30.1     140    254     67    290    298  28.9  13.1  34180  289.90 0855.25
2009/04/23 11:50:30.2      98    351    154    365    396  15.7  24.2  34174  289.81 0855.25
2009/04/23 11:50:30.3      69    229    144    240    279  16.9  33.7  34180  289.90 0855.25
2009/04/23 11:50:30.4      31    245     30    248    250   7.3   7.1  34194  290.15 0855.25
2009/04/23 11:50:30.5     106    207     -2    233    234  27.2  -0.5  34200  290.24 0855.25
2009/04/23 11:50:30.6     118     72      6    139    140  58.5   2.8  34176  289.85 0855.25
2009/04/23 11:50:30.7     218    158    -44    270    274  54.0  -9.4  34180  289.90 0855.25
2009/04/23 11:50:30.8     486     65    245    491    548  82.3  28.6  34136  289.18 0855.25
2009/04/23 11:50:30.9     197     15    261    198    327  85.6  59.1  34156  289.51 0855.25
2009/04/23 11:50:31.0     234    141    -39    274    277  58.9  -8.3  34158  289.53 0855.25
2009/04/23 11:50:31.1     233     77     14    246    247  71.6   3.3  34190  290.09 0855.25
2009/04/23 11:50:31.2     119      5    -24    120    123  87.4 -11.5  34180  289.92 0855.26
2009/04/23 11:50:31.3     126     -5     -2    127    128  92.5  -1.2  34180  289.92 0855.26
2009/04/23 11:50:31.4      41     -9    -41     42     58 102.4 -56.4  34182  289.96 0855.26
2009/04/23 11:50:31.5       1     18     22     19     29   4.5  52.2  34184  289.97 0855.26
2009/04/23 11:50:31.6      33     38      0     51     52  40.5   0.8  34180  289.92 0855.26
2009/04/23 11:50:31.7     154    103    -36    186    190  56.3 -11.1  34176  289.84 0855.26
2009/04/23 11:50:31.8     223   -221     15    315    316 134.8   2.8  34160  289.58 0855.26
2009/04/23 11:50:31.9     275   -162     82    320    331 120.6  14.4  34156  289.51 0855.26
2009/04/23 11:50:32.0     269   -148     82    308    319 118.9  15.0  34170  289.73 0855.26
2009/04/23 11:50:32.1     239   -197    145    310    342 129.5  27.1  34156  289.50 0855.26
2009/04/23 11:50:32.2     199   -247    177    318    363 141.2  31.4  34166  289.67 0855.26
2009/04/23 11:50:32.3     181   -205    158    274    316 138.6  32.7  34160  289.56 0855.26
2009/04/23 11:50:32.4     205   -175    215    270    345 130.5  42.7  34162  289.59 0855.26
2009/04/23 11:50:32.5      56   -141    189    152    242 158.2  57.3  34166  289.69 0855.26
2009/04/23 11:50:32.6      35    -64    173     74    188 151.0  75.9  34168  289.72 0855.26
2009/04/23 11:50:32.7      39    -17    180     43    185 114.4  86.9  34170  289.75 0855.26
2009/04/23 11:50:32.8      14    -69    170     71    184 168.5  76.6  34174  289.80 0855.26
2009/04/23 11:50:32.9      15     41    155     44    161  20.0  84.1  34184  289.97 0855.26
2009/04/23 11:50:33.0    -155     21    151    157    217 277.9  49.0  34178  289.87 0855.26
2009/04/23 11:50:33.1    -176    104    122    205    238 300.7  33.5  34176  289.84 0855.26
2009/04/23 11:50:33.2     -27     -4    153     28    155 260.3  90.0  34186  290.01 0855.27
2009/04/23 11:50:33.3    -135   -207    173    248    302 213.2  38.4  34172  289.78 0855.27
2009/04/23 11:50:33.4    -136   -151    170    204    265 221.9  43.8  34170  289.75 0855.27
2009/04/23 11:50:33.5    -266   -119    115    292    313 245.8  22.7  34166  289.68 0855.27
2009/04/23 11:50:33.6    -218    -68     94    229    247 252.7  23.6  34168  289.71 0855.27
2009/04/23 11:50:33.7    -185     60     45    195    201 288.2  13.2  34168  289.70 0855.27
2009/04/23 11:50:33.8    -191     97     58    215    223 296.9  15.3  34168  289.70 0855.27
2009/04/23 11:50:33.9    -238    -59    125    246    275 255.9  29.2  34170  289.75 0855.27
2009/04/23 11:50:34.0    -178   -113     33    212    215 237.5   9.0  34190  290.08 0855.27
2009/04/23 11:50:34.1    -154    -36     37    159    164 256.7  13.2  34200  290.26 0855.27
2009/04/23 11:50:34.2    -202   -128     33    240    243 237.6   8.0  34206  290.34 0855.27
2009/04/23 11:50:34.3    -198   -130    -25    237    239 236.7  -6.2  34218  290.56 0855.27
2009/04/23 11:50:34.4    -152   -152    -61    216    224 225.0 -20.4  34204  290.33 0855.27
2009/04/23 11:50:34.5    -209   -134    -31    249    251 237.4  -7.2  34208  290.37 0855.27
2009/04/23 11:50:34.6    -272   -118    -98    297    312 246.4 -23.5  34210  290.42 0855.27
2009/04/23 11:50:34.7    -270   -195    -42    334    337 234.1  -7.2  34208  290.37 0855.27
2009/04/23 11:50:34.8    -293   -231    -20    374    375 231.8  -3.2  34202  290.27 0855.27
2009/04/23 11:50:34.9    -221   -140    -83    262    274 237.6 -22.8  34206  290.36 0855.27
2009/04/23 11:50:35.0    -262   -140    -71    298    307 241.8 -13.4  34202  290.27 0855.27
2009/04/23 11:50:35.1    -270   -113    -71    293    302 247.3 -13.7  34216  290.53 0855.27
2009/04/23 11:50:35.2    -282   -150     -6    320    321 242.0  -1.2  34264  291.33 0855.21
2009/04/23 11:50:35.3    -240   -164     55    291    297 235.6  10.8  34266  291.38 0855.21
2009/04/23 11:50:35.4    -346   -164     34    384    386 244.6   5.1  34268  291.39 0855.21
2009/04/23 11:50:35.5    -324   -174    134    368    391 241.7  21.0  34294  291.86 0855.21
2009/04/23 11:50:35.6    -423    -74     44    430    433 260.0   5.9  34246  291.02 0855.21
2009/04/23 11:50:35.7    -461    -53   -106    465    478 263.4 -12.9  34222  290.62 0855.21
2009/04/23 11:50:35.8    -416   -153      5    444    445 249.8   0.7  34230  290.75 0855.21
2009/04/23 11:50:35.9    -410   -114    -65    426    431 254.4  -8.7  34216  290.53 0855.21
2009/04/23 11:50:36.0    -255   -250      2    358    359 225.6   0.4  34212  290.45 0855.21
2009/04/23 11:50:36.1    -269    -73    -93    279    294 254.7 -23.6  34218  290.56 0855.21
2009/04/23 11:50:36.2    -231    -46    -95    236    254 258.5 -27.4  34208  290.39 0855.21
2009/04/23 11:50:36.3    -282    -63     10    290    291 257.4   2.1  34220  290.59 0855.21
2009/04/23 11:50:36.4    -293    -81    -16    305    306 254.5  -3.1  34194  290.14 0855.21
2009/04/23 11:50:36.5    -348     78    -61    357    363 282.8  -9.7  34228  290.71 0855.21
2009/04/23 11:50:36.6    -303     61    -83    310    321 281.5 -15.0  34224  290.65 0855.21
2009/04/23 11:50:36.7    -351    -30    -31    353    355 265.0  -5.1  34200  290.25 0855.21
2009/04/23 11:50:36.8    -323    -54     93    328    342 260.5  15.9  34226  290.69 0855.21
2009/04/23 11:50:36.9    -383     77      5    391    392 281.5   0.8  34210  290.42 0855.21
2009/04/23 11:50:37.0    -261    -26     86    263    277 264.3  18.1  34174  289.80 0855.21
2009/04/23 11:50:37.1    -214    -13    122    215    247 266.5  32.3  34188  290.05 0855.21
2009/04/23 11:50:37.2    -174   -122     89    213    230 234.9  23.8  34186  290.01 0855.18
2009/04/23 11:50:37.3    -177   -120     76    215    229 235.8  19.4  34184  289.97 0855.18
2009/04/23 11:50:37.4    -133   -105     28    170    173 231.8   9.3  34192  290.11 0855.18
2009/04/23 11:50:37.5    -155    -53    -16    165    166 250.9  -5.6  34202  290.30 0855.18
2009/04/23 11:50:37.6    -253     36    -92    256    272 278.1 -24.8  34230  290.76 0855.18
2009/04/23 11:50:37.7    -259    -22    -31    261    263 265.0  -6.9  34202  290.27 0855.18
2009/04/23 11:50:37.8    -308    -57      0    314    315 259.4   0.0  34220  290.59 0855.18
2009/04/23 11:50:37.9    -327    -84     79    338    348 255.5  13.2  34188  290.03 0855.18
2009/04/23 11:50:38.0    -247    -79    102    260    279 252.3  22.5  34194  290.15 0855.18
2009/04/23 11:50:38.1    -202    -91    100    222    243 245.8  26.2  34198  290.20 0855.18
2009/04/23 11:50:38.2    -245     -3    114    246    271 269.2  27.0  34216  290.53 0855.12
2009/04/23 11:50:38.3    -251     54    108    257    278 282.2  24.1  34218  290.54 0855.12
2009/04/23 11:50:38.4    -245    168    159    298    337 304.4  30.5  34214  290.48 0855.12
2009/04/23 11:50:38.5    -140    221    156    262    304 327.7  33.5  34210  290.42 0855.12
2009/04/23 11:50:38.6    -107    236    133    260    292 335.5  29.2  34216  290.51 0855.12
2009/04/23 11:50:38.7    -127    240    143    272    307 332.0  30.1  34264  291.33 0855.12
2009/04/23 11:50:38.8    -174    247     26    303    305 324.8   5.0  34266  291.38 0855.12
2009/04/23 11:50:38.9    -184    209    114    279    301 318.6  23.1  34272  291.46 0855.12
2009/04/23 11:50:39.0    -162    253    132    301    328 327.4  25.2  34272  291.46 0855.12
2009/04/23 11:50:39.1    -133    229    154    265    306 329.9  32.9  34260  291.27 0855.12
2009/04/23 11:50:39.2    -216     96     97    237    256 294.0  23.4  34246  291.02 0855.12
2009/04/23 11:50:39.3     -56    152     50    163    171 339.7  17.1  34254  291.16 0855.12
2009/04/23 11:50:39.4     -54    154    100    164    192 340.4  34.8  34258  291.23 0855.12
2009/04/23 11:50:39.5     -83     99     56    130    141 319.9  25.1  34254  291.16 0855.12
2009/04/23 11:50:39.6     -84     30     55     90    105 290.0  35.0  34246  291.03 0855.12
2009/04/23 11:50:39.7      -1     67     49     68     83 359.0  39.7  34256  291.20 0855.12
2009/04/23 11:50:39.8      -9    119     85    120    147 355.5  39.1  34272  291.47 0855.12
2009/04/23 11:50:39.9       0     60     34     61     69 359.1  31.4  34268  291.40 0855.12
2009/04/23 11:50:40.0     -84     29     41     89     97 289.1  26.6  34270  291.45 0855.12
2009/04/23 11:50:40.1     -79     95     73    124    143 320.3  33.5  34256  291.21 0855.12
2009/04/23 11:50:40.2     -50    123    128    133    184 337.7  49.2  34254  291.16 0855.12
2009/04/23 11:50:40.3     -80     94    148    124    193 319.5  56.3  34254  291.18 0855.12
2009/04/23 11:50:40.4     -17    111     99    113    150 351.1  45.8  34242  290.96 0855.12
2009/04/23 11:50:40.5     -58     79     82     99    128 323.5  43.8  34248  291.06 0855.12
2009/04/23 11:50:40.6     -75    148    105    167    197 333.0  35.5  34282  291.66 0855.12
2009/04/23 11:50:40.7    -113     93    140    147    203 309.5  48.7  34306  292.06 0855.12
2009/04/23 11:50:40.8    -117     55    142    130    192 295.3  52.5  34312  292.15 0855.12
2009/04/23 11:50:40.9    -157    -12    107    158    190 265.6  37.3  34298  291.91 0855.12
2009/04/23 11:50:41.0    -155    -31     97    159    186 258.5  34.8  34300  291.95 0855.12
2009/04/23 11:50:41.1     -93     25    113     97    148 285.1  55.4  34318  292.27 0855.12
2009/04/23 11:50:41.2     -79    -79     91    112    144 225.0  43.7  34302  291.98 0855.12
2009/04/23 11:50:41.3    -117    -88     98    147    176 233.1  36.7  34292  291.83 0855.12
2009/04/23 11:50:41.4     -69    -67     61     97    114 226.0  35.5  34308  292.08 0855.12
2009/04/23 11:50:41.5     -70    -57    127     91    156 230.5  61.1  34302  292.00 0855.12
2009/04/23 11:50:41.6     -68    -67    119     96    152 225.4  56.4  34310  292.13 0855.12
2009/04/23 11:50:41.7     -63    -58    119     86    146 227.3  60.6  34306  292.06 0855.12
2009/04/23 11:50:41.8      -4    -72    124     73    143 183.6  66.8  34310  292.13 0855.12
2009/04/23 11:50:41.9     -13      4     88     14     89 288.6  90.0  34300  291.96 0855.12
2009/04/23 11:50:42.0      54     18     85     58    102  71.4  62.6  34278  291.57 0855.12
2009/04/23 11:50:42.1      -4    -12     81     13     82 198.3  90.0  34280  291.62 0855.12
2009/04/23 11:50:42.2      -5   -140    185    141    232 182.2  59.0  34260  291.26 0855.13
2009/04/23 11:50:42.3     -24   -150    140    153    207 189.3  47.5  34268  291.42 0855.13
2009/04/23 11:50:42.4       9   -123    153    124    196 175.6  56.6  34274  291.52 0855.13
2009/04/23 11:50:42.5     -15   -214    137    215    254 184.0  35.6  34278  291.58 0855.13
2009/04/23 11:50:42.6    -136   -180    126    226    258 217.0  31.4  34276  291.55 0855.13
2009/04/23 11:50:42.7    -103   -167    166    197    257 211.6  44.5  34288  291.73 0855.13
2009/04/23 11:50:42.8    -108    -68    148    128    195 237.6  54.6  34302  292.00 0855.13
2009/04/23 11:50:42.9      -5    -39    124     40    130 188.0  80.7  34296  291.88 0855.13
2009/04/23 11:50:43.0     -19    -31    119     37    124 212.6  81.8  34254  291.18 0855.13
2009/04/23 11:50:43.1     -51    -22    110     56    123 246.5  70.8  34252  291.13 0855.13
2009/04/23 11:50:43.2     -48    -37    131     61    144 232.2  73.1  34242  290.96 0855.13
2009/04/23 11:50:43.3     -32    -95    170    101    197 198.7  66.8  34230  290.77 0855.13
2009/04/23 11:50:43.4     -11    -26    124     29    127 203.6  86.9  34262  291.32 0855.13
2009/04/23 11:50:43.5      -6    -50    115     51    125 187.1  74.9  34220  290.58 0855.13
2009/04/23 11:50:43.6       8    -26     97     28    100 161.3  84.4  34224  290.65 0855.13
2009/04/23 11:50:43.7     -10     -3     97     11     97 251.6  90.0  34246  291.04 0855.13
2009/04/23 11:50:43.8     -14     22    128     27    130 327.4  89.0  34264  291.35 0855.13
2009/04/23 11:50:43.9     -33    -21    113     40    119 237.6  80.2  34280  291.62 0855.13
2009/04/23 11:50:44.0     -16    -49    112     52    123 198.3  73.5  34280  291.62 0855.13
2009/04/23 11:50:44.1      -4    -36    139     37    143 186.2  84.9  34278  291.59 0855.13
2009/04/23 11:50:44.2      15     12     90     20     92  50.5  88.0  34272  291.49 0855.10
2009/04/23 11:50:44.3      82     59    152    102    183  54.1  63.2  34276  291.54 0855.10
2009/04/23 11:50:44.4     -40     63     84     75    112 327.5  53.3  34276  291.55 0855.10
2009/04/23 11:50:44.5     -70     72     62    101    118 315.9  34.4  34276  291.54 0855.10
2009/04/23 11:50:44.6     -68      5     36     69     77 274.4  29.3  34242  290.96 0855.10
2009/04/23 11:50:44.7     345    -34    184    347    392  95.7  30.2  34248  291.08 0855.10
2009/04/23 11:50:44.8     432    -12    171    433    465  91.7  23.0  34238  290.90 0855.10
2009/04/23 11:50:44.9     302     27    234    304    383  84.8  41.6  34236  290.86 0855.10
2009/04/23 11:50:45.0     717    188    116    742    752  75.3   8.9  34260  291.28 0855.10
2009/04/23 11:50:45.1     563    298     93    637    644  62.1   8.3  34268  291.39 0855.10
2009/04/23 11:50:45.2     604    -72    118    609    621  96.8  11.0  34230  290.76 0855.10
2009/04/23 11:50:45.3     560     54   -103    563    573  84.4 -10.4  34226  290.70 0855.10
2009/04/23 11:50:45.4     412    -32    200    414    459  94.5  27.4  34202  290.28 0855.10
2009/04/23 11:50:45.5     633    211    320    668    740  71.6  27.4  34234  290.84 0855.10
2009/04/23 11:50:45.6     631    196    206    661    693  72.7  17.3  34246  291.02 0855.10
2009/04/23 11:50:45.7     469    155    156    494    519  71.7  17.5  34222  290.64 0855.10
2009/04/23 11:50:45.8     272    -18    210    273    344  93.9  41.5  34216  290.53 0855.10
2009/04/23 11:50:45.9     478    -25     50    479    482  93.0   6.0  34206  290.34 0855.10
2009/04/23 11:50:46.0     292     35    -28    295    297  83.0  -5.6  34202  290.27 0855.10
2009/04/23 11:50:46.1     262      4     51    263    269  89.0  11.1  34212  290.44 0855.10
2009/04/23 11:50:46.2     248     41     41    252    256  80.5   9.3  34202  290.29 0855.11
2009/04/23 11:50:46.3     197     -5     28    198    201  91.5   8.2  34196  290.18 0855.11
2009/04/23 11:50:46.4     192      0    118    193    226  90.0  34.4  34198  290.21 0855.11
2009/04/23 11:50:46.5     307     89    103    320    337  73.8  17.8  34188  290.03 0855.11
2009/04/23 11:50:46.6     290    155    150    329    361  61.9  26.2  34198  290.23 0855.11
2009/04/23 11:50:46.7     227     81     58    242    249  70.3  13.5  34216  290.53 0855.11
2009/04/23 11:50:46.8     140    131    109    193    221  46.9  31.9  34208  290.38 0855.11
2009/04/23 11:50:46.9     297     81    145    308    340  74.7  27.1  34208  290.38 0855.11
2009/04/23 11:50:47.0     285     80    142    297    329  74.3  27.3  34206  290.34 0855.11
2009/04/23 11:50:47.1     122     54    177    134    222  66.0  59.4  34220  290.60 0855.11
2009/04/23 11:50:47.2      28    -37    173     47    179 142.2  84.8  34212  290.47 0855.11
2009/04/23 11:50:47.3      24   -260    284    262    386 174.7  52.5  34188  290.06 0855.11
2009/04/23 11:50:47.4      57   -199    229    208    309 164.0  53.2  34196  290.19 0855.11
2009/04/23 11:50:47.5     -46   -268    246    273    367 189.8  46.6  34198  290.23 0855.11
2009/04/23 11:50:47.6      29   -348    283    350    450 175.1  43.1  34196  290.19 0855.11
2009/04/23 11:50:47.7    -104   -466    144    478    500 192.6  16.8  34198  290.20 0855.11
2009/04/23 11:50:47.8     -75   -418    115    425    441 190.2  15.2  34190  290.07 0855.11
2009/04/23 11:50:47.9      24   -455     66    456    461 176.9   8.3  34176  289.85 0855.11
2009/04/23 11:50:48.0      24   -405    -36    406    408 176.5  -5.1  34174  289.80 0855.11
2009/04/23 11:50:48.1      52   -305    115    310    330 170.2  21.1  34170  289.73 0855.11
2009/04/23 11:50:48.2      97   -279    101    296    313 160.8  18.9  34164  289.63 0855.10
2009/04/23 11:50:48.3     182   -272    184    328    376 146.3  31.6  34166  289.69 0855.10
2009/04/23 11:50:48.4     127   -229    217    263    340 151.0  43.8  34170  289.75 0855.10
2009/04/23 11:50:48.5     138   -157    256    210    331 138.6  56.4  34172  289.78 0855.10
2009/04/23 11:50:48.6      58    -36    218     69    228 122.4  81.8  34176  289.85 0855.10
2009/04/23 11:50:48.7      24     16    209     30    211  55.8  90.0  34182  289.94 0855.10
2009/04/23 11:50:48.8     192    104    143    219    261  61.4  36.0  34176  289.85 0855.10
2009/04/23 11:50:48.9     148     79    173    169    241  61.8  50.7  34176  289.84 0855.10
2009/04/23 11:50:49.0      32   -285     42    287    291 173.5   8.5  34160  289.56 0855.10
2009/04/23 11:50:49.1     130   -273    217    303    372 154.5  39.5  34162  289.60 0855.10
2009/04/23 11:50:49.2     110   -418    189    433    472 165.2  25.1  34160  289.58 0855.10
2009/04/23 11:50:49.3     -20   -369    194    370    417 183.2  30.0  34164  289.63 0855.10
2009/04/23 11:50:49.4    -117   -353    181    372    413 198.4  27.8  34160  289.57 0855.10
2009/04/23 11:50:49.5    -124   -383    142    403    427 198.0  20.0  34158  289.55 0855.10
2009/04/23 11:50:49.6    -110   -430     87    444    453 194.4  11.1  34164  289.65 0855.10
2009/04/23 11:50:49.7    -135   -317    120    345    366 203.2  19.2  34166  289.67 0855.10
2009/04/23 11:50:49.8    -162   -261     80    308    319 211.9  14.7  34156  289.49 0855.10
2009/04/23 11:50:49.9    -151   -269     15    309    310 209.4   2.8  34164  289.63 0855.10
2009/04/23 11:50:50.0    -129   -172    -35    216    219 217.0  -9.4  34158  289.55 0855.10
2009/04/23 11:50:50.1    -186   -108     42    216    221 239.8  11.1  34168  289.70 0855.10
2009/04/23 11:50:50.2    -141   -208     44    252    256 214.3  10.1  34176  289.85 0855.12
2009/04/23 11:50:50.3      88   -421      6    431    432 168.2   0.8  34166  289.68 0855.12
2009/04/23 11:50:50.4     166   -406     -6    439    440 157.7  -0.9  34166  289.66 0855.12
2009/04/23 11:50:50.5      40   -336     67    339    346 173.1  11.3  34166  289.69 0855.12
2009/04/23 11:50:50.6     -58   -346     79    351    360 189.6  12.8  34164  289.64 0855.12
2009/04/23 11:50:50.7      31   -369    -31    371    373 175.1  -4.8  34162  289.60 0855.12
2009/04/23 11:50:50.8      58   -310     19    316    317 169.4   3.5  34158  289.54 0855.12
2009/04/23 11:50:50.9     -69   -259    203    269    337 195.1  40.8  34166  289.68 0855.12
2009/04/23 11:50:51.0     -92   -277    107    293    311 198.5  20.9  34166  289.66 0855.12
2009/04/23 11:50:51.1    -137   -150    168    204    264 222.3  43.7  34174  289.80 0855.12
2009/04/23 11:50:51.2     -50   -189    102    196    220 195.1  29.5  34166  289.69 0855.12
2009/04/23 11:50:51.3     -30   -114     66    119    136 195.1  31.4  34172  289.79 0855.12
2009/04/23 11:50:51.4      30    -82     33     88     93 160.0  20.4  34170  289.74 0855.12
2009/04/23 11:50:51.5     116    -65     23    133    136 119.3  10.1  34172  289.77 0855.12
2009/04/23 11:50:51.6      33   -118     91    123    153 164.0  39.7  34170  289.74 0855.12
2009/04/23 11:50:51.7     129   -170     83    214    229 142.6  22.3  34170  289.74 0855.12
2009/04/23 11:50:51.8      92   -230    129    248    279 158.2  29.3  34168  289.71 0855.12
2009/04/23 11:50:51.9      21   -255    111    256    279 175.1  25.1  34170  289.75 0855.12
2009/04/23 11:50:52.0      21   -275    154    276    316 175.5  31.7  34166  289.66 0855.12
2009/04/23 11:50:52.1      83   -207     35    224    227 158.1   9.0  34166  289.69 0855.12
2009/04/23 11:50:52.2      59   -254     -1    261    262 166.9  -0.3  34164  289.64 0855.15
2009/04/23 11:50:52.3      15   -313    -20    314    315 177.1  -3.8  34166  289.66 0855.15
2009/04/23 11:50:52.4      52   -337     92    341    354 171.2  15.2  34158  289.55 0855.15
2009/04/23 11:50:52.5     101   -278    102    297    315 160.0  18.9  34160  289.58 0855.15
2009/04/23 11:50:52.6     184   -196    183    270    326 136.8  37.3  34156  289.51 0855.15
2009/04/23 11:50:52.7      70   -159    146    174    227 156.2  44.1  34160  289.57 0855.15
2009/04/23 11:50:52.8      77   -128     53    150    159 148.8  20.2  34158  289.55 0855.15
2009/04/23 11:50:52.9      30   -167     18    170    171 169.8   6.1  34160  289.57 0855.15
2009/04/23 11:50:53.0     116   -251    -59    277    284 155.1 -12.2  34164  289.63 0855.15
2009/04/23 11:50:53.1     147   -367    -98    396    408 158.1 -13.9  34166  289.66 0855.15
2009/04/23 11:50:53.2     160    -49     48    168    175 107.3  16.0  34162  289.62 0855.15
2009/04/23 11:50:53.3     246    -55    -75    253    265 102.6 -16.6  34164  289.63 0855.15
2009/04/23 11:50:53.4     251   -194    155    318    353 127.8  27.9  34160  289.57 0855.15
2009/04/23 11:50:53.5     159   -142    133    214    251 131.8  35.2  34164  289.64 0855.15
2009/04/23 11:50:53.6     337   -190     75    387    395 119.4  11.0  34166  289.67 0855.15
2009/04/23 11:50:53.7     369   -231    -13    436    437 122.0  -1.7  34166  289.66 0855.15
2009/04/23 11:50:53.8     105   -316    117    334    353 161.5  20.2  34172  289.76 0855.15
2009/04/23 11:50:53.9      81   -267    183    280    334 163.1  36.3  34172  289.76 0855.15
2009/04/23 11:50:54.0      92   -209    171    229    285 156.2  40.6  34174  289.81 0855.15
2009/04/23 11:50:54.1      27   -207    186    209    279 172.4  46.2  34158  289.54 0855.15
2009/04/23 11:50:54.2      48    -82    220     96    240 149.7  75.0  34168  289.72 0855.19
2009/04/23 11:50:54.3     196    -49    141    203    247 104.2  38.4  34170  289.73 0855.19
2009/04/23 11:50:54.4     210    -53     98    217    238 104.2  25.9  34160  289.58 0855.19
2009/04/23 11:50:54.5     190    -84     81    208    223 114.0  22.3  34168  289.70 0855.19
2009/04/23 11:50:54.6     166   -146    -12    222    223 131.3  -3.2  34168  289.70 0855.19
2009/04/23 11:50:54.7      89   -116    -38    147    152 142.6 -14.5  34168  289.70 0855.19
2009/04/23 11:50:54.8      22    -98      0    101    102 167.1   0.2  34164  289.63 0855.19
2009/04/23 11:50:54.9       4   -107     32    108    113 177.8  16.8  34162  289.62 0855.19
2009/04/23 11:50:55.0     -46   -194    182    200    270 193.6  47.1  34156  289.49 0855.19
2009/04/23 11:50:55.1     -18    -92    157     94    182 191.6  66.2  34164  289.65 0855.19
2009/04/23 11:50:55.2     -88   -171    188    193    269 207.2  49.4  34154  289.46 0855.19
2009/04/23 11:50:55.3     -86   -192    148    211    257 204.1  38.6  34158  289.54 0855.19
2009/04/23 11:50:55.4    -139   -212     69    254    264 213.4  15.3  34160  289.58 0855.19
2009/04/23 11:50:55.5    -118   -221    -76    251    263 208.1 -17.0  34164  289.63 0855.19
2009/04/23 11:50:55.6     -40   -193    -85    198    215 191.8 -29.3  34156  289.52 0855.19
2009/04/23 11:50:55.7      16   -188   -125    189    226 175.1 -40.9  34162  289.62 0855.19
2009/04/23 11:50:55.8     141   -439   -261    462    530 162.2 -36.3  34152  289.42 0855.19
2009/04/23 11:50:55.9    -146   -347   -116    377    394 202.8 -21.9  34152  289.42 0855.19
2009/04/23 11:50:56.0     -81   -506    -20    513    514 189.1  -2.2  34150  289.40 0855.19
2009/04/23 11:50:56.1    -198   -449     37    491    493 203.9   4.4  34152  289.42 0855.19
2009/04/23 11:50:56.2    -371   -164    -43    406    409 246.0  -6.1  34156  289.51 0855.20
2009/04/23 11:50:56.3    -319   -180    125    367    388 240.5  18.9  34154  289.48 0855.20
2009/04/23 11:50:56.4    -246   -202    121    319    341 230.5  21.8  34152  289.45 0855.20
2009/04/23 11:50:56.5    -135   -212    162    252    299 212.6  35.6  34156  289.51 0855.20
2009/04/23 11:50:56.6     -33   -307    161    309    348 186.2  29.6  34160  289.57 0855.20
2009/04/23 11:50:56.7     -76   -252    103    264    283 196.9  22.3  34160  289.56 0855.20
2009/04/23 11:50:56.8    -276   -294    119    404    422 223.2  16.4  34154  289.46 0855.20
2009/04/23 11:50:56.9    -247   -238     35    344    346 226.1   5.9  34148  289.38 0855.20
2009/04/23 11:50:57.0    -269   -310     95    411    422 220.9  13.1  34158  289.53 0855.20
2009/04/23 11:50:57.1    -268   -255     72    370    378 226.4  11.1  34154  289.48 0855.20
2009/04/23 11:50:57.2    -272   -272    -15    385    386 225.0  -2.2  34160  289.57 0855.20
2009/04/23 11:50:57.3    -223   -227     39    319    322 224.5   7.1  34156  289.51 0855.20
2009/04/23 11:50:57.4    -264   -373    -83    458    466 215.3 -10.4  34154  289.48 0855.20
2009/04/23 11:50:57.5    -324   -436    -72    544    549 216.6  -7.6  34146  289.33 0855.20
2009/04/23 11:50:57.6    -318   -467   -202    566    602 214.3 -19.7  34150  289.41 0855.20
2009/04/23 11:50:57.7    -259   -369   -246    452    514 215.1 -35.3  34146  289.32 0855.20
2009/04/23 11:50:57.9    -312   -459   -128    556    571 214.2 -13.0  34156  289.51 0855.20
2009/04/23 11:50:58.0    -177   -360   -135    402    424 206.2 -23.3  34148  289.36 0855.20
2009/04/23 11:50:58.1     -56   -299    -19    305    306 190.7  -3.7  34156  289.51 0855.20
2009/04/23 11:50:58.2    -245   -204     16    320    321 230.2   2.9  34150  289.41 0855.20
2009/04/23 11:50:58.3    -213   -446   -108    495    507 205.5 -12.4  34146  289.34 0855.21
2009/04/23 11:50:58.4    -161   -398   -153    430    457 202.1 -19.7  34144  289.29 0855.21
2009/04/23 11:50:58.5     -68   -362   -135    369    392 190.7 -25.4  34146  289.33 0855.21
2009/04/23 11:50:58.6     -21   -495   -146    496    517 182.5 -21.2  34150  289.40 0855.21
2009/04/23 11:50:58.7      39   -423   -139    425    448 174.7 -18.2  34150  289.39 0855.21
2009/04/23 11:50:58.8     -42   -303    -88    307    319 188.0 -20.9  34150  289.41 0855.21
2009/04/23 11:50:58.9      -9   -263    -94    264    281 182.0 -19.6  34150  289.39 0855.21
2009/04/23 11:50:59.0      80   -199    -75    215    228 158.1 -19.4  34152  289.43 0855.21
2009/04/23 11:50:59.1      80   -170    -24    188    190 154.8  -7.3  34154  289.48 0855.21
2009/04/23 11:50:59.2      52   -129     -5    140    141 158.1  -2.2  34154  289.46 0855.21
2009/04/23 11:50:59.3     114   -157     12    195    196 143.9   3.6  34154  289.48 0855.21
2009/04/23 11:50:59.4     135   -205    -51    246    252 146.6 -11.9  34154  289.46 0855.21
2009/04/23 11:50:59.5     121   -123     53    173    182 135.5  17.1  34150  289.40 0855.21
2009/04/23 11:50:59.6      95   -210    121    231    260 155.5  30.1  34152  289.44 0855.21
2009/04/23 11:50:59.7      58   -305    -12    311    312 169.1  -2.3  34152  289.42 0855.21
2009/04/23 11:50:59.8      26   -197     -5    199    200 172.4  -1.6  34154  289.46 0855.21
2009/04/23 11:50:59.9      28   -127    -66    131    146 167.5 -32.6  34158  289.53 0855.21
2009/04/23 11:51:00.0       4   -152   -148    153    212 178.2 -53.8  34154  289.46 0855.21
2009/04/23 11:51:00.1       4   -257    -37    258    261 179.1  -8.2  34156  289.49 0855.21
2009/04/23 11:51:00.2      29   -230    -76    232    244 172.7 -23.6  34154  289.47 0855.21
2009/04/23 11:51:00.3      32   -220    -70    223    234 171.5 -17.5  34154  289.48 0855.21
2009/04/23 11:51:00.4     -38   -323    -98    326    341 186.7 -16.8  34158  289.55 0855.21
2009/04/23 11:51:00.5     -32   -315    -64    317    324 186.0 -11.5  34158  289.54 0855.21
2009/04/23 11:51:00.6     -14   -308   -106    309    327 182.7 -19.0  34162  289.61 0855.21
2009/04/23 11:51:00.7      12   -258    -92    259    276 177.3 -19.6  34160  289.58 0855.21
2009/04/23 11:51:00.8      -4   -204    -37    205    209 181.4 -10.3  34158  289.55 0855.21
2009/04/23 11:51:00.9      -7   -201      0    202    203 182.0   0.2  34162  289.60 0855.21
2009/04/23 11:51:01.0      29   -207    -42    210    215 172.0 -11.5  34160  289.57 0855.21
2009/04/23 11:51:01.1      42   -188    -57    193    202 167.3 -16.6  34156  289.50 0855.21
2009/04/23 11:51:01.2      46   -189    -24    195    197 166.2  -7.2  34156  289.52 0855.21
2009/04/23 11:51:01.3      52   -144     -6    154    155 159.9  -2.2  34156  289.50 0855.19
2009/04/23 11:51:01.4      56   -159     31    169    172 160.4  10.6  34158  289.55 0855.19
2009/04/23 11:51:01.5       3   -227     46    228    233 179.1  11.6  34160  289.57 0855.19
2009/04/23 11:51:01.6    -105   -250     64    272    280 202.7  13.2  34160  289.58 0855.19
2009/04/23 11:51:01.7     -65   -230     18    240    241 195.8   4.4  34162  289.59 0855.19
2009/04/23 11:51:01.8      31   -262     28    264    266 173.1   6.1  34164  289.63 0855.19
2009/04/23 11:51:01.9      31   -256     27    258    260 172.9   6.1  34162  289.59 0855.19
2009/04/23 11:51:02.0      16   -218      8    219    220 175.6   2.3  34164  289.65 0855.19
2009/04/23 11:51:02.1      58   -183     25    193    195 162.4   7.5  34162  289.62 0855.19
2009/04/23 11:51:02.2      66   -164      3    178    179 157.9   1.2  34164  289.63 0855.19
2009/04/23 11:51:02.3      41   -201     50    206    212 168.4  13.7  34164  289.63 0855.19
2009/04/23 11:51:02.4      29   -168      8    171    172 170.0   2.9  34164  289.65 0855.19
2009/04/23 11:51:02.5      -2   -153      7    154    155 180.9   2.8  34164  289.63 0855.19
2009/04/23 11:51:02.6     -13   -183     41    184    189 184.2  12.6  34164  289.63 0855.19
2009/04/23 11:51:02.7     -22   -181     12    183    184 187.1   3.8  34172  289.77 0855.19
2009/04/23 11:51:02.8     -30   -197     24    200    202 188.9   6.9  34186  290.01 0855.19
2009/04/23 11:51:02.9     -61   -201     16    211    212 196.9   4.6  34182  289.94 0855.19
2009/04/23 11:51:03.0     -11   -225     31    226    229 182.9   8.0  34192  290.11 0855.19
2009/04/23 11:51:03.1     -17   -227     53    228    235 184.4  13.2  34190  290.08 0855.19
2009/04/23 11:51:03.2     -49   -216     41    222    226 192.9  10.6  34178  289.89 0855.19
2009/04/23 11:51:03.3     -28   -202     17    205    206 188.0   4.9  34174  289.82 0855.17
2009/04/23 11:51:03.4     -12   -175     79    176    192 184.0  25.9  34176  289.85 0855.17
2009/04/23 11:51:03.5      50   -156     53    164    173 162.2  17.9  34176  289.85 0855.17
2009/04/23 11:51:03.6       4   -139     -7    140    141 178.2  -3.1  34180  289.91 0855.17
2009/04/23 11:51:03.7     -42   -132    -40    139    144 197.8 -21.2  34184  289.97 0855.17
2009/04/23 11:51:03.8     -87   -152     -6    176    177 209.9  -2.1  34186  290.02 0855.17
2009/04/23 11:51:03.9     -64   -195    -44    206    211 198.3 -12.2  34172  289.79 0855.17
2009/04/23 11:51:04.0     -66   -167    -32    180    183 201.6 -10.1  34176  289.84 0855.17
2009/04/23 11:51:04.1     -49   -137     68    146    161 200.0  26.6  34182  289.96 0855.17
2009/04/23 11:51:04.2     -69   -137      2    154    155 206.7   0.8  34186  290.02 0855.17
2009/04/23 11:51:04.3    -104   -179    -26    208    210 210.3  -7.2  34180  289.92 0855.17
2009/04/23 11:51:04.4     -13   -300     67    301    309 182.5  12.6  34168  289.70 0855.17
2009/04/23 11:51:04.5      13   -284     45    285    289 177.3   9.0  34166  289.68 0855.17
2009/04/23 11:51:04.6     -20   -203     24    205    207 185.8   6.9  34166  289.69 0855.17
2009/04/23 11:51:04.7     -88   -229     18    246    247 201.2   4.2  34180  289.92 0855.17
2009/04/23 11:51:04.8     -69   -255    -14    265    266 195.2  -3.1  34168  289.71 0855.17
2009/04/23 11:51:04.9    -115   -236    -53    263    269 206.1 -11.5  34162  289.61 0855.17
2009/04/23 11:51:05.0     -66   -232     54    242    249 196.0  12.6  34164  289.64 0855.17
2009/04/23 11:51:05.1       6   -387     56    388    393 179.1   8.3  34156  289.52 0855.17
2009/04/23 11:51:05.2       5   -323     24    324    325 179.1   4.3  34162  289.59 0855.17
2009/04/23 11:51:05.3      33   -241     18    244    245 172.2   4.2  34160  289.58 0855.18
2009/04/23 11:51:05.4      80   -303     84    314    326 165.1  15.0  34160  289.56 0855.18
2009/04/23 11:51:05.5     116   -324    126    345    367 160.2  20.9  34166  289.69 0855.18
2009/04/23 11:51:05.6      69   -338     87    346    357 168.4  14.2  34168  289.72 0855.18
2009/04/23 11:51:05.7     114   -333     89    353    365 161.1  14.2  34164  289.64 0855.18
2009/04/23 11:51:05.8     132   -338    108    364    380 158.6  16.6  34160  289.57 0855.18
2009/04/23 11:51:05.9     177   -200     85    268    282 138.6  17.7  34160  289.58 0855.18
2009/04/23 11:51:06.0     147   -177    157    231    279 140.4  37.6  34164  289.64 0855.18
2009/04/23 11:51:06.1     140   -274    119    308    330 152.9  22.0  34156  289.51 0855.18
2009/04/23 11:51:06.2     101   -245    151    266    305 157.5  32.1  34160  289.56 0855.18
2009/04/23 11:51:06.3      86   -223     70    240    251 158.8  16.3  34162  289.61 0855.18
2009/04/23 11:51:06.4      38   -246     91    250    266 171.1  20.7  34166  289.66 0855.18
2009/04/23 11:51:06.5     -75   -302     88    312    325 194.0  15.8  34164  289.63 0855.18
2009/04/23 11:51:06.6     -41   -329     45    332    336 187.1   7.8  34162  289.60 0855.18
2009/04/23 11:51:06.7     -82   -318     97    329    344 194.5  16.5  34164  289.65 0855.18
2009/04/23 11:51:06.8      53   -313     59    318    324 170.3  10.6  34154  289.46 0855.18
2009/04/23 11:51:06.9      71   -279     78    288    299 165.7  15.3  34150  289.39 0855.18
2009/04/23 11:51:07.0      13   -252    102    253    272 176.9  23.0  34150  289.41 0855.18
2009/04/23 11:51:07.1     -32   -259     76    262    273 187.1  16.3  34154  289.47 0855.18
2009/04/23 11:51:07.2     -36   -261     33    264    267 188.0   7.1  34152  289.44 0855.18
2009/04/23 11:51:07.3     -59   -281    -52    288    293 192.0 -10.3  34158  289.53 0855.22
2009/04/23 11:51:07.4     -54   -231    -44    238    243 193.3 -10.5  34160  289.56 0855.22
2009/04/23 11:51:07.5    -126   -287    -93    314    328 203.8 -16.6  34158  289.54 0855.22
2009/04/23 11:51:07.6    -145   -316    -96    348    362 204.7 -15.5  34154  289.47 0855.22
2009/04/23 11:51:07.7    -157   -306    -68    344    351 207.2 -11.2  34156  289.52 0855.22
2009/04/23 11:51:07.8    -158   -224    -19    275    276 215.2  -4.1  34168  289.71 0855.22
2009/04/23 11:51:07.9    -139   -225    -68    265    274 211.7 -14.5  34164  289.63 0855.22
2009/04/23 11:51:08.0    -139   -190    -74    236    248 216.1 -17.5  34164  289.63 0855.22
2009/04/23 11:51:08.1     -99   -249      3    269    270 201.8   0.8  34170  289.73 0855.22
2009/04/23 11:51:08.2     -13   -208     31    209    212 183.8   8.5  34160  289.58 0855.22
2009/04/23 11:51:08.3     -18   -227     -1    228    229 184.7  -0.3  34164  289.63 0855.22
2009/04/23 11:51:08.4     -78   -242      7    255    256 197.8   1.6  34178  289.86 0855.22
2009/04/23 11:51:08.5     -71   -228    -19    239    240 197.4  -4.6  34180  289.90 0855.22
2009/04/23 11:51:08.6    -131   -233    -84    268    282 209.4 -17.5  34168  289.70 0855.22
2009/04/23 11:51:08.7    -240   -206    -53    317    322 229.3  -9.6  34180  289.90 0855.22
2009/04/23 11:51:08.8    -285   -167    -94    331    345 239.6 -15.9  34182  289.93 0855.22
2009/04/23 11:51:08.9    -228   -138    -21    267    268 238.9  -4.6  34174  289.81 0855.22
2009/04/23 11:51:09.0    -106   -161    128    194    232 213.4  36.3  34166  289.67 0855.22
2009/04/23 11:51:09.1    -134   -155    148    206    253 220.8  39.5  34162  289.59 0855.22
2009/04/23 11:51:09.2    -235   -235     93    333    346 225.1  15.7  34158  289.55 0855.22
2009/04/23 11:51:09.3    -228   -262     43    348    351 221.1   7.1  34162  289.59 0855.23
2009/04/23 11:51:09.4     -82   -254    189    268    327 198.0  38.6  34158  289.54 0855.23
2009/04/23 11:51:09.5    -126   -214    130    249    280 210.5  29.5  34160  289.56 0855.23
2009/04/23 11:51:09.6     -45   -114    149    123    193 201.9  56.4  34166  289.69 0855.23
2009/04/23 11:51:09.7     -69    -71    114    100    151 224.1  54.3  34166  289.69 0855.23
2009/04/23 11:51:09.8     -51    -80     59     96    112 212.5  35.0  34166  289.67 0855.23
2009/04/23 11:51:09.9      36    -87     49     95    106 157.7  29.8  34168  289.70 0855.23
2009/04/23 11:51:10.0      76   -114     55    138    148 146.2  23.0  34166  289.67 0855.23
2009/04/23 11:51:10.1     107   -155    102    189    214 145.5  31.0  34164  289.63 0855.23
2009/04/23 11:51:10.2     101   -218    103    241    262 155.1  24.3  34162  289.61 0855.23
2009/04/23 11:51:10.3     101   -152     76    183    198 146.2  23.6  34160  289.57 0855.23
2009/04/23 11:51:10.4      97   -130     68    163    176 143.3  23.8  34162  289.60 0855.23
2009/04/23 11:51:10.5     145    -97     65    175    186 124.0  21.5  34164  289.63 0855.23
2009/04/23 11:51:10.6     119   -103     72    158    173 130.9  26.4  34164  289.65 0855.23
2009/04/23 11:51:10.7      98    -82     77    129    150 130.0  33.5  34162  289.62 0855.23
2009/04/23 11:51:10.8      94   -107    -39    143    149 138.6 -15.4  34164  289.63 0855.23
2009/04/23 11:51:10.9      78    -24     26     82     87 107.3  17.9  34164  289.65 0855.23
2009/04/23 11:51:11.0       6    -72     90     73    115 174.7  56.4  34168  289.70 0855.23
2009/04/23 11:51:11.1       2    -21     37     22     43 173.8  66.8  34174  289.80 0855.23
2009/04/23 11:51:11.2       0    -38     33     39     51 180.9  44.8  34170  289.74 0855.23
2009/04/23 11:51:11.3     -36   -111    130    117    174 198.3  53.5  34168  289.70 0855.21
2009/04/23 11:51:11.4      -6   -148     82    149    170 182.6  31.0  34170  289.74 0855.21
2009/04/23 11:51:11.5     -70   -151     96    167    192 204.9  32.7  34168  289.72 0855.21
2009/04/23 11:51:11.6     -32   -122    130    127    181 195.1  50.7  34170  289.75 0855.21
2009/04/23 11:51:11.7      25    -98    153    102    183 165.3  63.6  34178  289.87 0855.21
2009/04/23 11:51:11.8      69   -166     77    181    196 157.3  24.6  34166  289.67 0855.21
2009/04/23 11:51:11.9      82   -285    105    297    316 164.0  19.6  34164  289.63 0855.21
2009/04/23 11:51:12.0      72   -301     76    310    320 166.4  13.8  34162  289.61 0855.21
2009/04/23 11:51:12.1      52   -254     91    260    275 168.4  20.0  34166  289.66 0855.21
2009/04/23 11:51:12.2      54   -142    166    153    225 159.1  52.5  34162  289.60 0855.21
2009/04/23 11:51:12.3     -25   -110    113    113    159 192.9  50.1  34164  289.65 0855.21
2009/04/23 11:51:12.4      12   -175    162    176    239 176.0  47.7  34166  289.69 0855.21
2009/04/23 11:51:12.5      52   -304     95    309    324 170.2  17.1  34166  289.66 0855.21
2009/04/23 11:51:12.6      70   -277    108    286    305 165.7  21.7  34166  289.66 0855.21
2009/04/23 11:51:12.7      52   -282     78    287    298 169.4  15.3  34168  289.70 0855.21
2009/04/23 11:51:12.8       0   -218    103    219    242 180.2  27.0  34166  289.66 0855.21
2009/04/23 11:51:12.9      63   -263    164    271    316 166.4  34.0  34170  289.73 0855.21
2009/04/23 11:51:13.0      60   -298    146    304    337 168.5  27.4  34170  289.73 0855.21
2009/04/23 11:51:13.1     158   -317    156    355    387 153.5  25.2  34168  289.72 0855.21
2009/04/23 11:51:13.2     142   -312    152    343    375 155.5  25.3  34170  289.74 0855.21
2009/04/23 11:51:13.3     126   -277    168    305    348 155.5  31.3  34168  289.72 0855.24
2009/04/23 11:51:13.4     132   -314    155    341    374 157.1  26.2  34166  289.69 0855.24
2009/04/23 11:51:13.5      98   -311    117    327    347 162.5  20.4  34166  289.69 0855.24
2009/04/23 11:51:13.6      71   -296    115    305    325 166.4  21.7  34166  289.66 0855.24
2009/04/23 11:51:13.7     177   -278     29    330    332 147.5   5.1  34168  289.71 0855.24
2009/04/23 11:51:13.8     172   -287    101    335    350 149.0  16.8  34164  289.65 0855.24
2009/04/23 11:51:13.9     159   -233     94    283    299 145.7  18.4  34168  289.70 0855.24
2009/04/23 11:51:14.0     142   -249     69    287    296 150.2  13.5  34168  289.70 0855.24
2009/04/23 11:51:14.1     139   -239    105    277    296 149.9  22.0  34170  289.73 0855.24
2009/04/23 11:51:14.2     145   -261    132    299    326 151.0  25.3  34168  289.70 0855.24
2009/04/23 11:51:14.3     162   -292    158    335    370 151.0  27.1  34164  289.65 0855.24
2009/04/23 11:51:14.4     131   -275    241    305    388 154.5  42.4  34168  289.71 0855.24
2009/04/23 11:51:14.5     110   -138    194    177    262 141.5  52.7  34166  289.68 0855.24
2009/04/23 11:51:14.6     150   -282    273    320    420 151.9  44.8  34164  289.64 0855.24
2009/04/23 11:51:14.7     167   -211    220    270    348 141.7  43.6  34164  289.63 0855.24
2009/04/23 11:51:14.8     117   -221    218    251    332 152.0  45.5  34170  289.73 0855.24
2009/04/23 11:51:14.9      61   -226    212    235    316 164.9  46.8  34174  289.80 0855.24
2009/04/23 11:51:15.0     106   -265    184    286    340 158.2  35.6  34168  289.70 0855.24
2009/04/23 11:51:15.1     157   -270    239    313    393 149.7  41.3  34172  289.76 0855.24
2009/04/23 11:51:15.2     117   -293    144    316    347 158.2  26.4  34172  289.79 0855.24
2009/04/23 11:51:15.3     135   -307    158    336    371 156.2  27.1  34170  289.74 0855.20
2009/04/23 11:51:15.4     156   -272    164    314    354 150.1  29.6  34170  289.74 0855.20
2009/04/23 11:51:15.5     130   -253    157    285    325 152.8  31.4  34170  289.73 0855.20
2009/04/23 11:51:15.6      93   -261    179    278    330 160.4  35.6  34170  289.73 0855.20
2009/04/23 11:51:15.7      71   -305    183    314    363 166.9  32.9  34172  289.76 0855.20
2009/04/23 11:51:15.8     174   -273    206    324    383 147.5  35.5  34164  289.64 0855.20
2009/04/23 11:51:15.9     218   -381    287    439    524 150.2  36.3  34170  289.73 0855.20
2009/04/23 11:51:16.0     158   -333    226    369    432 154.5  34.4  34168  289.72 0855.20
2009/04/23 11:51:16.1     -22   -293    292    294    414 184.4  50.0  34170  289.74 0855.20
2009/04/23 11:51:16.2      12   -155    238    156    284 175.5  63.6  34162  289.61 0855.20
2009/04/23 11:51:16.3     203   -129     78    241    254 122.5  17.9  34170  289.75 0855.20
2009/04/23 11:51:16.4     110   -173    113    206    234 147.4  31.0  34166  289.69 0855.20
2009/04/23 11:51:16.5      96   -202    123    224    255 154.5  31.3  34172  289.76 0855.20
2009/04/23 11:51:16.6      -8   -336    103    337    353 181.5  17.0  34166  289.67 0855.20
2009/04/23 11:51:16.7       9   -309     74    310    319 178.2  13.6  34168  289.71 0855.20
2009/04/23 11:51:16.8      37   -328    128    331    354 173.5  22.2  34178  289.87 0855.20
2009/04/23 11:51:16.9      57   -331    164    337    374 170.1  27.8  34182  289.94 0855.20
2009/04/23 11:51:17.0      28   -293    164    295    337 174.4  31.4  34184  289.97 0855.20
2009/04/23 11:51:17.1      10   -237    185    238    301 177.4  41.7  34184  289.97 0855.20
2009/04/23 11:51:17.2       7   -201    173    202    265 177.8  44.8  34178  289.86 0855.20
2009/04/23 11:51:17.3       0   -241    203    242    315 180.0  44.3  34174  289.81 0855.16
2009/04/23 11:51:17.4     -49   -234    198    240    311 191.8  43.8  34168  289.70 0855.16
2009/04/23 11:51:17.5     -27   -153    153    156    218 190.2  49.8  34170  289.74 0855.16
2009/04/23 11:51:17.6     141   -139    115    199    229 134.7  32.7  34176  289.85 0855.16
2009/04/23 11:51:17.7     131   -181    142    224    265 144.2  35.5  34172  289.76 0855.16
2009/04/23 11:51:17.8      -7   -250    121    251    278 181.8  27.4  34172  289.78 0855.16
2009/04/23 11:51:17.9     -50   -250    137    256    290 191.5  30.3  34170  289.75 0855.16
2009/04/23 11:51:18.0      -5   -109    168    110    200 182.7  63.6  34176  289.84 0855.16
2009/04/23 11:51:18.1     -72   -153    135    170    217 205.2  42.7  34172  289.79 0855.16
2009/04/23 11:51:18.2     -50   -115    156    126    200 203.6  56.9  34174  289.80 0855.16
2009/04/23 11:51:18.3     -45   -140    147    148    208 197.8  50.0  34172  289.77 0855.16
2009/04/23 11:51:18.4     -68   -109    155    129    201 212.1  56.1  34172  289.79 0855.16
2009/04/23 11:51:18.5     -98    -98    139    140    197 225.0  50.0  34172  289.77 0855.16
2009/04/23 11:51:18.6    -166   -132    117    213    243 231.4  31.4  34174  289.80 0855.16
2009/04/23 11:51:18.7    -173    -45     11    179    180 255.2   3.8  34166  289.67 0855.16
2009/04/23 11:51:18.8     -54     46    -13     71     73 310.4 -10.3  34180  289.91 0855.16
2009/04/23 11:51:18.9    -126    104    156    164    226 309.5  48.2  34182  289.96 0855.16
2009/04/23 11:51:19.0     -37    120    199    126    235 342.6  64.7  34178  289.89 0855.16
2009/04/23 11:51:19.1     -32     79     90     86    124 337.7  50.7  34180  289.92 0855.16
2009/04/23 11:51:19.2      54    -23    129     59    141 113.5  73.5  34182  289.96 0855.16
2009/04/23 11:51:19.3      32     50     80     60    100  32.6  59.4  34182  289.96 0855.17
2009/04/23 11:51:19.4      10     31     68     33     75  18.7  72.8  34180  289.92 0855.17
2009/04/23 11:51:19.5     -37    -50     41     63     75 216.1  35.6  34178  289.87 0855.17
2009/04/23 11:51:19.6     -33    -26     42     43     60 232.2  50.0  34176  289.85 0855.17
2009/04/23 11:51:19.7     -39    -18      6     44     45 244.7   8.0  34174  289.82 0855.17
2009/04/23 11:51:19.8     -49     -4    -13     50     52 264.8 -15.4  34172  289.77 0855.17
2009/04/23 11:51:19.9     -45      0    -23     46     51 270.0 -31.7  34174  289.82 0855.17
2009/04/23 11:51:20.0      -8     23    -21     25     32 341.3 -48.2  34170  289.75 0855.17
2009/04/23 11:51:20.1      27     58     34     65     73  25.4  29.3  34174  289.80 0855.17
2009/04/23 11:51:20.2     106     21     62    109    125  78.5  32.4  34172  289.77 0855.17
2009/04/23 11:51:20.3     106     42     79    115    139  68.2  37.6  34172  289.77 0855.17
2009/04/23 11:51:20.4      43     68     74     81    109  32.5  47.9  34178  289.87 0855.17
2009/04/23 11:51:20.5      33     47     77     58     96  35.2  59.4  34182  289.94 0855.17
2009/04/23 11:51:20.6     -19    -30     15     36     39 212.5  21.0  34186  290.01 0855.17
2009/04/23 11:51:20.7     -24    -91     58     95    111 194.7  35.0  34180  289.92 0855.17
2009/04/23 11:51:20.8     -54    -58     83     80    115 223.2  50.7  34178  289.89 0855.17
2009/04/23 11:51:20.9    -103     27     60    107    122 285.0  31.4  34180  289.91 0855.17
2009/04/23 11:51:21.0    -153    111     21    190    192 306.0   6.5  34178  289.87 0855.17
2009/04/23 11:51:21.1    -212    103    -30    236    238 296.0  -7.5  34184  289.97 0855.17
2009/04/23 11:51:21.2    -192     14    -86    193    211 274.4 -29.7  34192  290.13 0855.17
2009/04/23 11:51:21.3    -247     55    -26    254    256 282.6  -6.0  34180  289.90 0855.20
2009/04/23 11:51:21.4    -272     96    -22    289    290 289.5  -4.4  34188  290.03 0855.20
2009/04/23 11:51:21.5    -293    -68      6    301    302 256.8   1.2  34184  289.98 0855.20
2009/04/23 11:51:21.6    -275   -105    -35    295    298 249.1  -6.9  34184  289.97 0855.20
2009/04/23 11:51:21.7    -244   -276     72    369    377 221.5  11.1  34176  289.84 0855.20
2009/04/23 11:51:21.8    -207   -304    133    368    392 214.3  19.9  34178  289.86 0855.20
2009/04/23 11:51:21.9    -262   -188    134    323    349 234.3  23.8  34178  289.86 0855.20
2009/04/23 11:51:22.0    -250   -315    169    403    437 218.5  24.1  34172  289.78 0855.20
2009/04/23 11:51:22.1    -183   -166    188    248    311 227.7  40.9  34178  289.86 0855.20
2009/04/23 11:51:22.2    -302      0     59    303    309 270.0  11.1  34178  289.88 0855.20
2009/04/23 11:51:22.3    -200   -127    123    238    267 237.5  29.3  34176  289.85 0855.21
2009/04/23 11:51:22.4    -203   -180    260    272    376 228.4  48.6  34172  289.77 0855.21
2009/04/23 11:51:22.5    -223   -156    144    273    308 235.0  30.1  34176  289.83 0855.21
2009/04/23 11:51:22.6    -326   -194     42    380    383 239.3   6.4  34172  289.76 0855.21
2009/04/23 11:51:22.7    -379    -42   -113    382    398 263.7 -21.4  34182  289.94 0855.21
2009/04/23 11:51:22.8    -287   -182     -4    341    342 237.6  -0.7  34172  289.76 0855.21
2009/04/23 11:51:22.9    -308   -161   -114    348    366 242.3 -23.5  34188  290.03 0855.21
2009/04/23 11:51:23.0    -259   -226    -31    345    347 228.9  -5.2  34176  289.84 0855.21
2009/04/23 11:51:23.1    -209   -148     17    257    258 234.7   3.9  34174  289.81 0855.21
2009/04/23 11:51:23.2    -153   -203     35    255    258 217.0   8.0  34172  289.78 0855.21
2009/04/23 11:51:23.3    -118   -154     -8    195    196 217.4  -2.6  34172  289.77 0855.21
2009/04/23 11:51:23.4    -227   -450     57    505    509 206.8   6.5  34172  289.76 0855.21
2009/04/23 11:51:23.5    -255   -414      6    487    488 211.6   0.7  34170  289.74 0855.21
2009/04/23 11:51:23.6    -231   -366     77    433    440 212.2  10.1  34170  289.73 0855.21
2009/04/23 11:51:23.7    -160   -160    -30    227    230 225.0  -7.7  34180  289.92 0855.21
2009/04/23 11:51:23.8     -78   -167    -52    185    193 204.9 -15.8  34180  289.91 0855.21
2009/04/23 11:51:23.9      40   -277   -103    280    298 171.8 -25.4  34170  289.75 0855.21
2009/04/23 11:51:24.0      79   -292   -139    303    333 164.9 -30.8  34172  289.76 0855.21
2009/04/23 11:51:24.1     117   -220    -22    250    252 152.0  -5.2  34166  289.68 0855.21
2009/04/23 11:51:24.2      50    -59    -58     78     97 139.5 -45.1  34172  289.79 0855.21
2009/04/23 11:51:24.3      63     26    -87     69    111  67.4 -61.3  34180  289.92 0855.22
2009/04/23 11:51:24.4       6     84    -77     85    114   4.5 -51.9  34186  290.02 0855.22
2009/04/23 11:51:24.5     -84     27   -102     89    135 288.2 -58.7  34194  290.14 0855.22
2009/04/23 11:51:24.6      41     65   -111     78    135  32.5 -66.5  34198  290.21 0855.22
2009/04/23 11:51:24.7      13    -11   -155     18    156 129.5 -90.0  34200  290.25 0855.22
2009/04/23 11:51:24.8     129     85   -165    155    226  56.7 -56.5  34192  290.13 0855.22
2009/04/23 11:51:24.9     146     97   -154    176    233  56.5 -50.2  34182  289.96 0855.22
2009/04/23 11:51:25.0     140     11   -151    141    206  85.2 -56.6  34188  290.04 0855.22
2009/04/23 11:51:25.1     103    -57   -123    118    170 118.9 -55.3  34192  290.11 0855.22
2009/04/23 11:51:25.2     -64   -114   -140    132    192 209.4 -56.4  34186  290.02 0855.22
2009/04/23 11:51:25.3     136   -156    -25    208    210 138.8  -6.9  34178  289.87 0855.22
2009/04/23 11:51:25.4     155   -147      6    214    215 133.6   1.8  34180  289.91 0855.22
2009/04/23 11:51:25.5     180   -163    121    243    271 132.2  28.2  34160  289.58 0855.22
2009/04/23 11:51:25.7       9   -246    228    247    336 177.8  47.6  34172  289.78 0855.22
2009/04/23 11:51:25.8     197   -325     44    381    384 148.7   6.6  34172  289.76 0855.22
2009/04/23 11:51:25.9      64   -357      3    363    364 169.8   0.5  34174  289.81 0855.22
2009/04/23 11:51:26.0      17   -380    -21    381    382 177.4  -3.2  34182  289.93 0855.22
2009/04/23 11:51:26.1      42   -410     20    413    414 174.1   2.8  34178  289.88 0855.22
2009/04/23 11:51:26.2       9   -263    -47    264    269 178.0 -10.1  34182  289.95 0855.22
2009/04/23 11:51:26.3     -18   -239     98    240    259 184.4  23.1  34170  289.75 0855.22
2009/04/23 11:51:26.4     -78   -245    174    258    311 197.8  37.3  34172  289.78 0855.22
2009/04/23 11:51:26.5    -196   -195     -8    277    278 225.1  -1.8  34186  290.02 0855.22
2009/04/23 11:51:26.6    -277    -89   -100    292    309 252.1 -19.1  34206  290.34 0855.22
2009/04/23 11:51:26.7    -240   -113    -10    266    267 244.8  -2.3  34202  290.29 0855.22
2009/04/23 11:51:26.8    -188    -97     46    212    218 242.5  12.4  34200  290.25 0855.22
2009/04/23 11:51:26.9    -248   -145     29    288    290 239.8   5.9  34208  290.37 0855.22
2009/04/23 11:51:27.0    -216   -190     84    288    301 228.7  16.3  34184  289.97 0855.22
2009/04/23 11:51:27.1    -207   -235    114    314    334 221.4  20.8  34172  289.76 0855.22
2009/04/23 11:51:27.2     -41   -385     19    388    389 186.1   2.9  34164  289.64 0855.22
2009/04/23 11:51:27.3      20   -551    -50    552    555 177.9  -5.2  34158  289.55 0855.22
2009/04/23 11:51:27.4      33   -519    -10    521    522 176.3  -1.1  34160  289.57 0855.22
2009/04/23 11:51:27.5      82   -526     -5    533    534 171.1  -0.6  34162  289.62 0855.22
2009/04/23 11:51:27.6      75   -529     46    535    538 171.9   5.0  34160  289.58 0855.22
2009/04/23 11:51:27.7      26   -461     86    462    470 176.8  10.6  34162  289.61 0855.22
2009/04/23 11:51:27.8     -87   -469     32    478    480 190.6   3.9  34166  289.66 0855.22
2009/04/23 11:51:27.9     -83   -460     -5    468    469 190.3  -0.7  34166  289.66 0855.22
2009/04/23 11:51:28.0     -31   -306    163    308    348 185.8  30.2  34164  289.65 0855.22
2009/04/23 11:51:28.1      32   -284    223    286    362 173.5  41.9  34156  289.52 0855.22
2009/04/23 11:51:28.2      75   -150    208    169    268 153.3  56.6  34166  289.66 0855.22
2009/04/23 11:51:28.3     116   -194    213    227    311 149.0  48.0  34168  289.70 0855.22
2009/04/23 11:51:28.4      42   -418    146    421    446 174.2  19.2  34164  289.65 0855.21
2009/04/23 11:51:28.5      20   -448    147    449    473 177.4  18.1  34166  289.66 0855.21
2009/04/23 11:51:28.6      46   -406    154    409    437 173.5  21.6  34164  289.65 0855.21
2009/04/23 11:51:28.7      33   -402    223    404    461 175.3  31.3  34158  289.53 0855.21
2009/04/23 11:51:28.8     -53   -318    299    323    440 189.6  47.7  34166  289.66 0855.21
2009/04/23 11:51:28.9     -51   -292    277    297    406 190.0  47.9  34158  289.54 0855.21
2009/04/23 11:51:29.0     -11   -150    231    151    275 184.5  63.6  34170  289.73 0855.21
2009/04/23 11:51:29.1       9    -18    159     21    160 152.8  90.0  34176  289.84 0855.21
2009/04/23 11:51:29.2      55   -137    232    148    275 158.1  64.6  34174  289.81 0855.21
2009/04/23 11:51:29.3      51     12    176     53    183  76.7  82.8  34176  289.85 0855.21
2009/04/23 11:51:29.4     129    -43    154    137    206 108.6  54.0  34174  289.80 0855.21
2009/04/23 11:51:29.5      70    -49    175     86    194 125.1  72.4  34170  289.75 0855.21
2009/04/23 11:51:29.6      39   -159    140    164    215 166.2  44.8  34170  289.75 0855.21
2009/04/23 11:51:29.7      11   -208     32    209    212 176.9   8.8  34166  289.69 0855.21
2009/04/23 11:51:29.8      58    -91     96    108    144 147.5  46.4  34170  289.74 0855.21
2009/04/23 11:51:29.9      44   -169    159    175    236 165.1  47.0  34170  289.74 0855.21
2009/04/23 11:51:30.0     -16   -149    243    150    285 186.3  65.4  34170  289.73 0855.21
2009/04/23 11:51:30.1     -99   -381    294    394    491 194.7  40.6  34166  289.68 0855.21
2009/04/23 11:51:30.2     -99   -399    225    412    469 193.9  30.9  34162  289.60 0855.21
2009/04/23 11:51:30.3    -149   -340    264    372    456 203.7  39.0  34162  289.61 0855.21
2009/04/23 11:51:30.4    -134   -261    279    294    405 207.2  48.5  34166  289.67 0855.20
2009/04/23 11:51:30.5    -145   -220    304    264    402 213.4  54.8  34182  289.96 0855.20
2009/04/23 11:51:30.6     -47   -303    209    307    371 188.9  37.6  34172  289.77 0855.20
2009/04/23 11:51:30.7    -204   -352    215    407    460 210.1  30.2  34170  289.73 0855.20
2009/04/23 11:51:30.8    -400   -260    198    478    517 236.9  23.8  34162  289.62 0855.20
2009/04/23 11:51:30.9    -311   -161    298    351    460 242.6  44.7  34160  289.58 0855.20
2009/04/23 11:51:31.0    -398   -166     84    432    441 247.3  11.1  34164  289.63 0855.20
2009/04/23 11:51:31.1    -435    -91    231    445    501 258.1  29.6  34162  289.59 0855.20
2009/04/23 11:51:31.2    -413    -87    245    423    488 258.1  32.7  34178  289.86 0855.20
2009/04/23 11:51:31.3    -294   -157    270    334    429 241.8  43.1  34180  289.91 0855.20
2009/04/23 11:51:31.4      42   -164    330    170    371 165.5  70.8  34168  289.70 0855.20
2009/04/23 11:51:31.5    -125   -226    251    259    360 209.0  49.3  34162  289.59 0855.20
2009/04/23 11:51:31.6     -58   -287    148    294    329 191.6  28.7  34160  289.56 0855.20
2009/04/23 11:51:31.7    -103   -371    159    386    417 195.5  23.6  34158  289.53 0855.20
2009/04/23 11:51:31.8    -168   -452    108    483    496 200.5  12.6  34162  289.62 0855.20
2009/04/23 11:51:31.9    -181   -539    206    569    606 198.6  19.9  34164  289.63 0855.20
2009/04/23 11:51:32.0    -207   -571    195    608    639 200.0  17.8  34158  289.55 0855.20
2009/04/23 11:51:32.1     -73   -471    256    477    541 188.9  30.6  34164  289.63 0855.20
2009/04/23 11:51:32.2    -184   -574    271    603    661 197.8  25.9  34158  289.55 0855.20
2009/04/23 11:51:32.3    -181   -434    205    471    513 202.7  25.1  34156  289.49 0855.20
2009/04/23 11:51:32.4     -89   -478    248    487    546 190.6  29.2  34164  289.63 0855.19
2009/04/23 11:51:32.5     -69   -495    219    500    545 188.0  25.1  34162  289.62 0855.19
2009/04/23 11:51:32.6     -33   -485     76    487    494 183.9   8.9  34162  289.61 0855.19
2009/04/23 11:51:32.7      44   -435    152    438    464 174.2  19.2  34156  289.51 0855.19
2009/04/23 11:51:32.8     -79   -180    -66    197    207 203.8 -23.6  34164  289.63 0855.19
2009/04/23 11:51:32.9    -221   -169    -35    279    282 232.7  -7.3  34160  289.58 0855.19
2009/04/23 11:51:33.0    -165   -165     15    234    235 225.1   3.8  34158  289.54 0855.19
2009/04/23 11:51:33.1     -64   -211    176    221    282 196.9  42.7  34160  289.58 0855.19
2009/04/23 11:51:33.2     -39   -320    247    323    406 187.1  41.3  34164  289.65 0855.19
2009/04/23 11:51:33.3     -82   -247    137    261    294 198.5  29.8  34164  289.64 0855.19
2009/04/23 11:51:33.4    -145   -334     98    365    379 203.4  15.1  34164  289.65 0855.19
2009/04/23 11:51:33.5     -29   -353     39    355    358 184.8   6.4  34158  289.55 0855.19
2009/04/23 11:51:33.6     -12   -238    130    239    272 182.9  31.3  34162  289.61 0855.19
2009/04/23 11:51:33.7     -52   -238    175    244    300 192.4  39.3  34160  289.56 0855.19
2009/04/23 11:51:33.8    -105   -428    151    441    467 193.8  18.9  34154  289.48 0855.19
2009/04/23 11:51:33.9     -36   -475     18    477    478 184.4   2.2  34162  289.61 0855.19
2009/04/23 11:51:34.0       9   -456     39    457    459 178.8   5.0  34146  289.34 0855.19
2009/04/23 11:51:34.1      77   -537    225    543    587 171.8  23.9  34170  289.73 0855.19
2009/04/23 11:51:34.2      40   -505    197    507    543 175.4  22.4  34166  289.68 0855.19
2009/04/23 11:51:34.3     -26   -435    149    436    461 183.5  18.9  34166  289.68 0855.19
2009/04/23 11:51:34.4     -85   -425    180    434    469 191.4  23.9  34166  289.68 0855.19
2009/04/23 11:51:34.5     -82   -404     89    413    423 191.6  12.2  34166  289.66 0855.19
2009/04/23 11:51:34.6    -139   -390     60    415    420 199.7   8.2  34162  289.60 0855.19
2009/04/23 11:51:34.7    -151   -342     19    375    376 203.9   2.9  34162  289.62 0855.19
2009/04/23 11:51:34.8    -176   -321     50    367    371 208.7   7.8  34166  289.67 0855.19
2009/04/23 11:51:34.9    -104   -254     75    275    286 202.3  15.3  34166  289.68 0855.19
2009/04/23 11:51:35.0    -144   -293    115    327    346 206.3  20.0  34166  289.67 0855.19
2009/04/23 11:51:35.1    -145   -305     83    338    349 205.5  13.9  34164  289.64 0855.19
2009/04/23 11:51:35.2     -76   -386    171    394    429 191.2  25.0  34158  289.53 0855.19
2009/04/23 11:51:35.3     -37   -282    211    285    354 187.6  40.1  34160  289.57 0855.19
2009/04/23 11:51:35.4      51   -289    218    294    366 170.0  40.2  34164  289.64 0855.19
2009/04/23 11:51:35.5      25   -380    235    381    447 176.2  34.8  34166  289.68 0855.19
2009/04/23 11:51:35.6     -56   -449    262    453    523 187.2  32.8  34156  289.52 0855.19
2009/04/23 11:51:35.7    -112   -359    211    377    432 197.4  31.6  34170  289.73 0855.19
2009/04/23 11:51:35.8     -62   -446    191    451    489 188.0  24.3  34170  289.74 0855.19
2009/04/23 11:51:35.9      -4   -360    194    361    409 180.7  30.7  34166  289.67 0855.19
2009/04/23 11:51:36.0     -31   -212    163    215    269 188.5  40.9  34166  289.68 0855.19
2009/04/23 11:51:36.1       0   -102    112    103    152 180.4  52.2  34174  289.80 0855.19
2009/04/23 11:51:36.2     -65    -72      2     98     99 222.3   1.2  34164  289.65 0855.19
2009/04/23 11:51:36.3    -123    -38     65    129    144 252.7  29.2  34160  289.58 0855.19
2009/04/23 11:51:36.4    -230    -37    197    234    305 260.8  44.1  34184  289.97 0855.17
2009/04/23 11:51:36.5    -266     91    147    282    318 289.0  29.6  34180  289.92 0855.17
2009/04/23 11:51:36.6    -321     47    227    325    396 278.4  38.5  34174  289.82 0855.17
2009/04/23 11:51:36.7    -295    -36    126    298    323 263.0  24.5  34172  289.78 0855.17
2009/04/23 11:51:36.8    -315     -5    166    316    356 269.0  30.0  34168  289.71 0855.17
2009/04/23 11:51:36.9    -299      6    136    300    329 271.3  26.2  34168  289.70 0855.17
2009/04/23 11:51:37.0    -126   -208     90    244    260 211.2  21.0  34166  289.66 0855.17
2009/04/23 11:51:37.1    -174   -174    180    247    305 224.9  39.7  34170  289.73 0855.17
2009/04/23 11:51:37.2    -296   -176    160    345    380 239.3  26.6  34172  289.76 0855.17
2009/04/23 11:51:37.3    -143   -264    196    301    359 208.5  36.0  34170  289.74 0855.17
2009/04/23 11:51:37.4    -119   -135    199    181    269 221.4  53.2  34172  289.76 0855.17
2009/04/23 11:51:37.5    -208   -222     16    305    306 223.2   3.1  34184  289.97 0855.17
2009/04/23 11:51:37.6    -137   -215    199    256    324 212.5  42.0  34186  290.02 0855.17
2009/04/23 11:51:37.7    -260   -177    103    315    332 235.8  18.2  34188  290.03 0855.17
2009/04/23 11:51:37.8    -218   -154    169    268    316 234.7  35.2  34182  289.95 0855.17
2009/04/23 11:51:37.9    -213   -162    150    268    307 232.7  31.4  34198  290.22 0855.17
2009/04/23 11:51:38.0    -256   -169     80    308    319 236.5  14.6  34194  290.14 0855.17
2009/04/23 11:51:38.1    -212   -192     89    287    301 227.8  17.3  34194  290.14 0855.17
2009/04/23 11:51:38.2    -231   -152     54    277    283 236.7  11.1  34200  290.24 0855.17
2009/04/23 11:51:38.3     -97   -103     47    142    150 223.3  18.4  34204  290.31 0855.17
2009/04/23 11:51:38.4    -160   -141     17    214    215 228.6   4.6  34194  290.16 0855.17
2009/04/23 11:51:38.5    -148    -86    148    172    226 239.8  45.1  34182  289.94 0855.17
2009/04/23 11:51:38.6    -142      2     66    143    157 270.8  26.4  34180  289.91 0855.17
2009/04/23 11:51:38.7    -148     46    110    156    190 287.3  38.8  34176  289.84 0855.17
2009/04/23 11:51:38.8     -83    -28    137     88    162 251.4  64.6  34180  289.92 0855.17
2009/04/23 11:51:38.9    -168   -156    204    230    307 227.1  46.2  34172  289.76 0855.17
2009/04/23 11:51:39.0    -261   -196     74    327    336 233.1  12.9  34202  290.30 0855.17
2009/04/23 11:51:39.1    -220   -185    105    288    306 229.8  20.9  34200  290.26 0855.17
2009/04/23 11:51:39.2    -234   -155     93    281    297 236.5  18.4  34204  290.32 0855.17
2009/04/23 11:51:39.3    -194   -192     32    274    276 225.3   6.7  34204  290.32 0855.17
2009/04/23 11:51:39.4    -187   -193    115    269    292 224.1  24.3  34190  290.09 0855.17
2009/04/23 11:51:39.5     -16   -147     95    148    175 186.3  35.6  34176  289.84 0855.17
2009/04/23 11:51:39.6      40   -160    114    166    201 165.7  37.6  34166  289.67 0855.17
2009/04/23 11:51:39.7     117   -167    130    204    241 145.0  35.6  34164  289.65 0855.17
2009/04/23 11:51:39.8      -5   -221    183    222    287 181.4  43.7  34172  289.76 0855.17
2009/04/23 11:51:39.9      54   -194    151    202    252 164.2  40.6  34170  289.73 0855.17
2009/04/23 11:51:40.0      15    -26    137     31    140 149.3  87.5  34172  289.77 0855.17
2009/04/23 11:51:40.1      47   -131    112    140    179 160.0  43.0  34172  289.79 0855.17
2009/04/23 11:51:40.2      25     -5    104     26    107 103.3  85.4  34174  289.82 0855.17
2009/04/23 11:51:40.3     108    -99    161    147    218 132.7  52.5  34164  289.63 0855.17
2009/04/23 11:51:40.4      44    -69     82     82    115 147.4  50.1  34166  289.69 0855.17
2009/04/23 11:51:40.5      84    -36     85     92    125 113.5  47.9  34162  289.62 0855.17
2009/04/23 11:51:40.6     148    -43     79    155    173 106.4  29.1  34166  289.69 0855.17
2009/04/23 11:51:40.7     233    -40     37    237    240  99.9   9.0  34168  289.70 0855.17
2009/04/23 11:51:40.8     223    -77     93    236    253 109.1  22.3  34170  289.75 0855.17
2009/04/23 11:51:40.9     191    -95     92    214    232 116.6  24.9  34180  289.91 0855.17
2009/04/23 11:51:41.0     208    -99     98    231    250 115.4  24.3  34174  289.80 0855.17
2009/04/23 11:51:41.1     158   -183    154    242    286 139.2  35.5  34178  289.86 0855.17
2009/04/23 11:51:41.2     105   -222    102    246    266 154.5  23.8  34182  289.95 0855.17
2009/04/23 11:51:41.3      37   -248    157    251    296 171.5  35.5  34176  289.85 0855.17
2009/04/23 11:51:41.4      16   -216    138    217    257 175.6  35.5  34180  289.90 0855.17
2009/04/23 11:51:41.5     153   -277      9    317    318 151.0   1.8  34180  289.92 0855.17
2009/04/23 11:51:41.6     143   -257     -2    295    296 151.0  -0.5  34176  289.85 0855.17
2009/04/23 11:51:41.7     167   -163     53    234    241 134.2  12.9  34188  290.03 0855.17
2009/04/23 11:51:41.8     183   -191     31    265    267 136.3   6.9  34180  289.92 0855.17
2009/04/23 11:51:41.9     134   -153     37    204    208 138.8  10.3  34178  289.89 0855.17
2009/04/23 11:51:42.0     101   -153     64    184    195 146.4  19.2  34178  289.87 0855.17
2009/04/23 11:51:42.1      66   -116    105    134    170 150.1  42.2  34180  289.91 0855.17
2009/04/23 11:51:42.2      78   -101    107    128    166 142.1  44.1  34176  289.85 0855.17
2009/04/23 11:51:42.3     127    -92     94    158    183 126.0  33.7  34176  289.85 0855.17
2009/04/23 11:51:42.4      15   -184    130    185    226 175.1  38.8  34178  289.89 0855.18
2009/04/23 11:51:42.5     -66   -210    127    221    254 197.6  32.4  34176  289.85 0855.18
2009/04/23 11:51:42.6     -95   -129    145    161    216 216.5  46.9  34176  289.85 0855.18
2009/04/23 11:51:42.7      -8   -166    145    167    221 182.9  45.8  34180  289.91 0855.18
2009/04/23 11:51:42.8      11   -167    121    168    207 176.0  39.3  34174  289.82 0855.18
2009/04/23 11:51:42.9      -8   -190    132    191    232 182.5  37.6  34170  289.75 0855.18
2009/04/23 11:51:43.0       2   -111    132    112    173 178.6  55.4  34170  289.75 0855.18
2009/04/23 11:51:43.1      59    -49    104     77    129 129.6  60.0  34174  289.82 0855.18
2009/04/23 11:51:43.2     104     -5    135    105    171  93.0  57.9  34172  289.79 0855.18
2009/04/23 11:51:43.3     -20     14     87     25     90 306.0  83.9  34180  289.92 0855.18
2009/04/23 11:51:43.4      16     63     90     66    111  14.3  60.5  34180  289.92 0855.18
2009/04/23 11:51:43.5       0    -18     85     19     87 182.7  87.5  34174  289.82 0855.18
2009/04/23 11:51:43.6      41    -34    136     54    146 129.5  77.1  34174  289.80 0855.18
2009/04/23 11:51:43.7      20   -106    155    108    188 169.3  61.8  34172  289.79 0855.18
2009/04/23 11:51:43.8      25   -149    167    152    225 170.3  53.0  34172  289.77 0855.18
2009/04/23 11:51:43.9      65    -77    138    101    171 139.9  60.3  34170  289.75 0855.18
2009/04/23 11:51:44.0      95    -33     34    101    107 109.5  18.9  34176  289.84 0855.18
2009/04/23 11:51:44.1      40   -121     67    128    144 161.5  29.8  34178  289.87 0855.18
2009/04/23 11:51:44.2      37    -86     67     94    115 156.4  39.1  34176  289.85 0855.18
2009/04/23 11:51:44.3      52   -125     78    136    156 157.3  32.4  34174  289.80 0855.18
2009/04/23 11:51:44.4      92   -162    -21    187    189 150.4  -6.5  34172  289.79 0855.18
2009/04/23 11:51:44.5     128   -165      0    210    211 142.2   0.2  34176  289.84 0855.18
2009/04/23 11:51:44.6     101   -133    -17    168    169 142.8  -6.0  34172  289.77 0855.18
2009/04/23 11:51:44.7      74   -162     59    179    189 155.3  18.4  34172  289.77 0855.18
2009/04/23 11:51:44.8     -61    -93    -79    112    137 213.4 -43.5  34174  289.82 0855.18
2009/04/23 11:51:44.9     -71    -43   -107     84    136 238.5 -62.3  34174  289.80 0855.18
2009/04/23 11:51:45.0     -69    -47   -121     84    147 235.8 -65.9  34188  290.06 0855.18
2009/04/23 11:51:45.1    -113    -63    -80    130    152 240.7 -39.9  34184  289.99 0855.18
2009/04/23 11:51:45.2     -69   -153    -49    168    175 204.3 -21.5  34180  289.92 0855.18
2009/04/23 11:51:45.3    -117    -39    -29    124    128 251.6 -13.3  34180  289.92 0855.18
2009/04/23 11:51:45.4    -134    -17    -68    136    152 262.5 -32.6  34180  289.91 0855.18
2009/04/23 11:51:45.5    -268    -37   -158    271    313 262.1 -37.2  34170  289.73 0855.18
2009/04/23 11:51:45.6    -473    -33   -176    475    506 266.0 -25.5  34170  289.74 0855.18
2009/04/23 11:51:45.7    -479    -56   -181    483    515 263.3 -25.9  34178  289.88 0855.18
2009/04/23 11:51:45.8    -421     81    -34    429    431 281.0  -4.6  34182  289.94 0855.18
2009/04/23 11:51:45.9    -519   -150   -222    541    584 253.8 -28.0  34192  290.10 0855.18
2009/04/23 11:51:46.0    -419    -78   -143    427    451 259.4 -18.6  34176  289.85 0855.18
2009/04/23 11:51:46.1    -368     10    -14    369    370 271.6  -2.3  34180  289.91 0855.18
2009/04/23 11:51:46.2    -310    -60    -78    316    326 258.9 -13.9  34186  290.02 0855.18
2009/04/23 11:51:46.3    -424    -35    -18    426    427 265.2  -2.5  34190  290.07 0855.18
2009/04/23 11:51:46.4    -559   -151   -136    580    596 254.9 -13.3  34196  290.17 0855.18
2009/04/23 11:51:46.5    -502   -131    -20    519    520 255.3  -2.2  34188  290.06 0855.18
2009/04/23 11:51:46.6    -546   -110    -18    557    558 258.6  -1.9  34188  290.06 0855.18
2009/04/23 11:51:46.7    -566    -19   -194    567    600 268.0 -18.9  34172  289.78 0855.18
2009/04/23 11:51:46.8    -599     80   -206    605    639 277.7 -23.9  34168  289.72 0855.18
2009/04/23 11:51:46.9    -518     37   -210    520    560 274.1 -27.6  34166  289.67 0855.18
2009/04/23 11:51:47.0    -527    -50   -197    530    565 264.6 -25.8  34170  289.74 0855.18
2009/04/23 11:51:47.1    -384     30   -189    386    429 274.5 -32.4  34174  289.82 0855.18
2009/04/23 11:51:47.2    -529    -88   -257    537    595 260.6 -31.7  34170  289.75 0855.18
2009/04/23 11:51:47.3    -395     38   -268    397    478 275.6 -41.6  34190  290.07 0855.18
2009/04/23 11:51:47.4    -371     18   -289    372    471 272.8 -46.1  34174  289.80 0855.21
2009/04/23 11:51:47.5    -378    -19   -232    379    444 267.1 -38.8  34186  290.00 0855.21
2009/04/23 11:51:47.6    -258     75   -218    269    346 286.4 -47.7  34176  289.85 0855.21
2009/04/23 11:51:47.7    -176     84   -206    196    284 295.5 -55.8  34180  289.92 0855.21
2009/04/23 11:51:47.8    -232    110   -192    257    320 295.4 -44.8  34178  289.88 0855.21
2009/04/23 11:51:47.9    -312    153   -215    348    409 296.2 -39.2  34178  289.86 0855.21
2009/04/23 11:51:48.0    -164     51    -55    172    180 287.3 -23.0  34178  289.89 0855.21
2009/04/23 11:51:48.1    -194    105   -132    221    257 298.4 -37.9  34180  289.90 0855.21
2009/04/23 11:51:48.2    -207    130   -116    245    271 302.2 -31.5  34180  289.90 0855.21
2009/04/23 11:51:48.3    -171    -89    -66    193    203 242.5 -23.6  34186  290.01 0855.21
2009/04/23 11:51:48.4    -221   -119    -57    252    259 241.6 -12.9  34188  290.03 0855.21
2009/04/23 11:51:48.5    -215   -116    -38    245    249 241.6  -9.0  34186  290.00 0855.21
2009/04/23 11:51:48.6    -132     35     19    137    139 285.0   8.0  34184  289.97 0855.21
2009/04/23 11:51:48.7     -61    110     25    126    129 331.0  11.6  34184  289.99 0855.21
2009/04/23 11:51:48.8     -82     38     41     91     99 295.2  26.2  34190  290.09 0855.21
2009/04/23 11:51:48.9    -161    -41     81    167    185 255.6  27.4  34182  289.96 0855.21
2009/04/23 11:51:49.0    -215     -7    -27    216    218 267.9  -7.2  34184  289.99 0855.21
2009/04/23 11:51:49.1    -166     25      1    168    169 278.8   0.5  34178  289.87 0855.21
2009/04/23 11:51:49.2     -20    -38     68     44     80 208.1  64.1  34180  289.92 0855.21
2009/04/23 11:51:49.3     110    -89      5    142    143 129.1   2.3  34180  289.92 0855.21
2009/04/23 11:51:49.4      25    -63     -1     68     69 158.2  -1.3  34176  289.84 0855.23
2009/04/23 11:51:49.5     -15   -143     49    144    153 186.2  18.9  34174  289.82 0855.23
2009/04/23 11:51:49.6      10    -75    126     76    147 172.0  65.7  34174  289.82 0855.23
2009/04/23 11:51:49.7      24    -38    103     46    112 147.5  74.5  34188  290.04 0855.23
2009/04/23 11:51:49.8      10    -22     65     25     69 156.4  78.2  34190  290.08 0855.23
2009/04/23 11:51:49.9     110     33    103    115    154  73.2  46.4  34188  290.06 0855.23
2009/04/23 11:51:50.0     182     19    137    184    229  83.9  40.1  34176  289.84 0855.23
2009/04/23 11:51:50.1     103     35    155    110    190  70.9  61.1  34178  289.89 0855.23
2009/04/23 11:51:50.2     162     19    197    164    256  83.2  56.3  34162  289.60 0855.23
2009/04/23 11:51:50.3      14     37    191     40    195  21.8  89.0  34170  289.75 0855.23
2009/04/23 11:51:50.4     -97   -152    295    181    346 212.5  65.6  34174  289.80 0855.23
2009/04/23 11:51:50.5     -65   -218    189    228    296 196.7  43.8  34168  289.71 0855.23
2009/04/23 11:51:50.6     -93   -269    160    285    326 199.1  31.9  34166  289.66 0855.23
2009/04/23 11:51:50.7      22   -379    173    380    417 176.6  26.2  34164  289.63 0855.23
2009/04/23 11:51:50.8     -56   -321    261    327    418 190.0  42.7  34164  289.64 0855.23
2009/04/23 11:51:50.9    -136   -349    221    375    435 201.4  33.4  34168  289.70 0855.23
2009/04/23 11:51:51.0     -81   -351    221    361    423 193.0  34.4  34170  289.73 0855.23
2009/04/23 11:51:51.1    -134   -418    175    439    472 197.8  23.0  34168  289.72 0855.23
2009/04/23 11:51:51.2     250   -402    141    474    495 148.1  16.6  34166  289.66 0855.23
2009/04/23 11:51:51.3     255   -340     40    426    429 143.1   5.4  34168  289.70 0855.23
2009/04/23 11:51:51.4     171   -326    107    369    385 152.3  16.1  34166  289.67 0855.23
2009/04/23 11:51:51.5     140   -380    182    406    444 159.8  25.8  34162  289.61 0855.23
2009/04/23 11:51:51.6       3   -552    318    553    637 179.6  32.4  34152  289.44 0855.23
2009/04/23 11:51:51.7     -76   -523    333    529    625 188.3  35.1  34162  289.61 0855.23
2009/04/23 11:51:51.8    -147   -440    250    465    527 198.5  30.7  34156  289.52 0855.23
2009/04/23 11:51:51.9    -164   -318    143    358    385 207.3  23.0  34144  289.30 0855.23
2009/04/23 11:51:52.0    -110   -262    218    285    358 202.7  41.3  34168  289.71 0855.23
2009/04/23 11:51:52.1    -237   -237      8    336    337 225.0   1.5  34162  289.59 0855.23
2009/04/23 11:51:52.3    -225   -362    -44    427    430 211.9  -6.0  34166  289.66 0855.23
2009/04/23 11:51:52.3    -115   -451    -78    466    473 194.3  -9.6  34154  289.47 0855.23
2009/04/23 11:51:52.5    -161   -549    -68    573    578 196.4  -6.8  34176  289.83 0855.23
2009/04/23 11:51:52.6    -304   -478   -179    567    595 212.5 -17.5  34186  290.02 0855.23
2009/04/23 11:51:52.7    -277   -110   -193    299    355 248.3 -40.3  34182  289.93 0855.23
2009/04/23 11:51:52.8    -334      6   -123    335    356 271.2 -25.4  34182  289.96 0855.23
2009/04/23 11:51:52.9    -291     20   -162    292    333 274.1 -35.8  34186  290.02 0855.23
2009/04/23 11:51:53.0    -501    -46   -137    504    523 264.7 -15.2  34172  289.79 0855.23
2009/04/23 11:51:53.1    -207    178    -55    274    280 310.7 -11.5  34156  289.49 0855.23
2009/04/23 11:51:53.2    -280    -63     90    288    302 257.2  17.4  34166  289.68 0855.23
2009/04/23 11:51:53.3    -285   -181    104    338    354 237.6  17.2  34178  289.87 0855.23
2009/04/23 11:51:53.4     -90   -102     76    137    156 221.4  31.6  34180  289.92 0855.23
2009/04/23 11:51:53.5       4    -48     15     49     52 174.7  17.3  34184  289.97 0855.22
2009/04/23 11:51:53.6     178      0     92    179    201  90.0  29.3  34182  289.94 0855.22
2009/04/23 11:51:53.7     268     42     96    272    289  81.0  19.6  34178  289.88 0855.22
2009/04/23 11:51:53.8     211    127    204    247    320  58.9  43.7  34182  289.93 0855.22
2009/04/23 11:51:53.9     166     88    230    189    297  62.0  56.4  34180  289.90 0855.22
2009/04/23 11:51:54.0     202   -119    163    235    285 120.6  38.0  34180  289.90 0855.22
2009/04/23 11:51:54.1     212   -321    190    386    430 146.5  28.2  34170  289.73 0855.22
2009/04/23 11:51:54.2     181   -384    335    425    541 154.7  42.2  34162  289.61 0855.22
2009/04/23 11:51:54.3     242   -345    152    422    449 145.0  19.9  34160  289.58 0855.22
2009/04/23 11:51:54.4     122   -513    -76    528    534 166.6  -8.2  34162  289.62 0855.22
2009/04/23 11:51:54.5     204   -320    -89    380    391 147.5 -13.3  34152  289.45 0855.22
2009/04/23 11:51:54.6      99   -310   -121    326    347 162.2 -25.7  34158  289.55 0855.22
2009/04/23 11:51:54.7      91   -188     50    210    216 154.1  13.5  34158  289.55 0855.22
2009/04/23 11:51:54.8     -34   -188    -61    192    202 190.5 -17.6  34164  289.63 0855.22
2009/04/23 11:51:54.9      78   -345     20    354    355 167.2   3.2  34162  289.62 0855.22
2009/04/23 11:51:55.0     157   -472     60    498    502 161.5   6.9  34164  289.64 0855.22
2009/04/23 11:51:55.1     -41   -483    -61    485    489 184.9  -7.2  34162  289.61 0855.22
2009/04/23 11:51:55.2    -203   -614    -39    647    649 198.3  -3.5  34160  289.57 0855.22
2009/04/23 11:51:55.3    -198   -559   -136    594    610 199.6 -12.9  34148  289.37 0855.22
2009/04/23 11:51:55.4    -183   -561   -101    591    600 198.1  -9.8  34144  289.29 0855.22
2009/04/23 11:51:55.5    -131   -418   -135    439    460 197.4 -17.2  34148  289.36 0855.21
2009/04/23 11:51:55.6    -165   -422   -161    454    482 201.4 -19.6  34146  289.35 0855.21
2009/04/23 11:51:55.7    -164   -375   -144    410    434 203.6 -24.6  34148  289.36 0855.21
2009/04/23 11:51:55.8    -144   -361   -115    389    405 201.8 -21.5  34148  289.37 0855.21
2009/04/23 11:51:55.9     -92   -390   -113    401    417 193.4 -15.8  34148  289.38 0855.21
2009/04/23 11:51:56.0     -36   -370   -111    372    389 185.6 -16.7  34148  289.38 0855.21
2009/04/23 11:51:56.1     -20   -384    -89    385    396 183.0 -13.1  34148  289.38 0855.21
2009/04/23 11:51:56.2       7   -373    -76    374    382 178.8 -11.5  34152  289.42 0855.21
2009/04/23 11:51:56.3     -23   -386    -78    387    395 183.5 -11.5  34150  289.40 0855.21
2009/04/23 11:51:56.4      42   -387    -97    390    402 173.7 -14.1  34152  289.42 0855.21
2009/04/23 11:51:56.5      55   -386   -110    391    407 171.8 -15.8  34148  289.38 0855.21
2009/04/23 11:51:56.6      88   -326    -25    338    339 164.9  -4.4  34146  289.33 0855.21
2009/04/23 11:51:56.7     110   -296    -15    317    318 159.5  -2.8  34152  289.42 0855.21
2009/04/23 11:51:56.8      55   -270    -65    276    284 168.4 -13.3  34150  289.39 0855.21
2009/04/23 11:51:56.9      20   -370    -56    371    376 176.8  -8.6  34148  289.38 0855.21
2009/04/23 11:51:57.0     -16   -369    -29    370    372 182.5  -4.6  34146  289.33 0855.21
2009/04/23 11:51:57.1     131   -417   -121    438    455 162.6 -15.5  34144  289.31 0855.21
2009/04/23 11:51:57.2     205   -345    -97    402    414 149.3 -13.7  34148  289.38 0855.21
2009/04/23 11:51:57.3      96   -251    115    269    292 159.1  24.3  34136  289.17 0855.21
2009/04/23 11:51:57.4     -33   -274    111    276    297 186.9  23.0  34150  289.39 0855.21
2009/04/23 11:51:57.5      63   -231    114    240    265 164.6  27.2  34152  289.44 0855.19
2009/04/23 11:51:57.6      63   -288     16    295    296 167.6   3.3  34152  289.42 0855.19
2009/04/23 11:51:57.7      72   -293     45    302    306 166.2   8.5  34142  289.27 0855.19
2009/04/23 11:51:57.8      62   -333    149    339    370 169.4  25.2  34152  289.42 0855.19
2009/04/23 11:51:57.9      25   -360    161    361    395 175.9  25.7  34148  289.38 0855.19
2009/04/23 11:51:58.0      77   -373    103    381    395 168.3  15.2  34152  289.45 0855.19
2009/04/23 11:51:58.1      32   -321    114    323    342 174.2  20.0  34150  289.40 0855.19
2009/04/23 11:51:58.2      29   -343    152    345    377 175.1  25.2  34152  289.42 0855.19
2009/04/23 11:51:58.3     -10   -350    141    351    378 181.8  23.0  34152  289.42 0855.19
2009/04/23 11:51:58.4     -52   -329    160    334    370 189.0  27.3  34152  289.43 0855.19
2009/04/23 11:51:58.5     -60   -307    148    313    346 191.1  27.1  34152  289.45 0855.19
2009/04/23 11:51:58.6     -39   -290    228    293    371 187.8  41.7  34148  289.38 0855.19
2009/04/23 11:51:58.7     -17   -335    241    336    413 183.0  39.2  34156  289.50 0855.19
2009/04/23 11:51:58.8      35   -347    276    349    444 174.1  42.3  34158  289.55 0855.19
2009/04/23 11:51:58.9      42   -388    276    391    478 173.8  38.6  34160  289.56 0855.19
2009/04/23 11:51:59.0     -21   -475    246    476    535 182.6  29.4  34152  289.45 0855.19
2009/04/23 11:51:59.1     111   -599    165    610    633 169.5  15.1  34156  289.52 0855.19
2009/04/23 11:51:59.2     132   -491    129    509    526 164.9  14.3  34154  289.46 0855.19
2009/04/23 11:51:59.3     117   -479    191    494    529 166.2  22.3  34160  289.57 0855.19
2009/04/23 11:51:59.4     142   -466    250    488    548 163.1  29.3  34162  289.62 0855.19
2009/04/23 11:51:59.5     112   -539    258    551    608 168.2  27.1  34160  289.58 0855.20
2009/04/23 11:51:59.6      75   -485    238    491    545 171.1  27.7  34156  289.51 0855.20
2009/04/23 11:51:59.7     -14   -375    331    376    500 182.3  45.8  34164  289.65 0855.20
2009/04/23 11:51:59.8     -98   -393    328    406    521 194.1  43.1  34156  289.52 0855.20
2009/04/23 11:51:59.9     100    -84    201    131    239 130.0  63.6  34160  289.57 0855.20
2009/04/23 11:52:00.0     254   -166     66    304    312 123.3  12.4  34154  289.47 0855.20
2009/04/23 11:52:00.1     304    -70    106    312    330 103.0  18.9  34156  289.51 0855.20
2009/04/23 11:52:00.2     348   -111    181    366    408 107.8  28.2  34154  289.48 0855.20
2009/04/23 11:52:00.3     419   -145    122    444    461 109.1  15.4  34158  289.55 0855.20
2009/04/23 11:52:00.4     208   -275    259    346    432 142.9  40.6  34158  289.53 0855.20
2009/04/23 11:52:00.5     223   -123    280    255    378 118.9  52.9  34160  289.57 0855.20
2009/04/23 11:52:00.6     207    -47    143    213    256 102.8  37.3  34158  289.54 0855.20
2009/04/23 11:52:00.7     109    -87    153    140    207 128.6  52.7  34160  289.58 0855.20
2009/04/23 11:52:00.8      47    120     81    129    152  21.4  35.5  34162  289.60 0855.20
2009/04/23 11:52:00.9     129    164     61    209    218  38.3  16.3  34158  289.55 0855.20
2009/04/23 11:52:01.0     154    123    102    198    222  51.4  29.3  34162  289.62 0855.20
2009/04/23 11:52:01.1     101     95    -28    139    142  46.9 -11.5  34162  289.60 0855.20
2009/04/23 11:52:01.2      78    125    -60    148    159  32.1 -27.8  34164  289.63 0855.20
2009/04/23 11:52:01.3      59    150    -39    162    167  21.4 -13.7  34160  289.57 0855.20
2009/04/23 11:52:01.4      41    229    -42    233    237  10.2 -10.4  34160  289.56 0855.20
2009/04/23 11:52:01.5       0    232     22    233    235 359.8   5.4  34170  289.75 0855.22
2009/04/23 11:52:01.6     -79    124    107    148    182 327.5  39.5  34166  289.67 0855.22
2009/04/23 11:52:01.7       3    -75    153     76    170 177.3  71.9  34174  289.82 0855.22
2009/04/23 11:52:01.8     -26    -73    107     78    132 200.0  60.5  34176  289.84 0855.22
2009/04/23 11:52:01.9      -4    -62     83     63    104 184.4  59.4  34170  289.75 0855.22
2009/04/23 11:52:02.0       3    -82     75     83    111 177.8  47.5  34172  289.77 0855.22
2009/04/23 11:52:02.1      48   -105    -26    116    119 155.5 -12.9  34170  289.74 0855.22
2009/04/23 11:52:02.2     119    -56    -47    132    141 115.2 -19.6  34168  289.70 0855.22
2009/04/23 11:52:02.3     102     17    -14    104    105  80.3  -7.7  34166  289.69 0855.22
2009/04/23 11:52:02.4      28     98     27    102    106  16.0  15.2  34168  289.70 0855.22
2009/04/23 11:52:02.5      54    137     29    148    151  21.8  11.1  34168  289.72 0855.22
2009/04/23 11:52:02.6      41    164    -51    170    178  14.0 -17.0  34176  289.84 0855.22
2009/04/23 11:52:02.7      44     92    -82    103    131  25.9 -47.7  34168  289.72 0855.22
2009/04/23 11:52:02.8      49    136    -49    145    153  20.0 -23.3  34170  289.75 0855.22
2009/04/23 11:52:02.9      82      8     13     83     85  84.3   9.0  34172  289.77 0855.22
2009/04/23 11:52:03.0     120    -61    -40    135    140 117.1 -21.2  34170  289.74 0855.22
2009/04/23 11:52:03.1     182    -56    -78    191    206 107.3 -27.8  34174  289.80 0855.22
2009/04/23 11:52:03.2     146   -136    -63    200    210 132.9 -17.6  34168  289.70 0855.22
2009/04/23 11:52:03.3      45   -123     -5    132    133 160.0  -2.2  34166  289.69 0855.22
2009/04/23 11:52:03.4      91   -111    131    144    194 140.8  47.1  34166  289.67 0855.22
2009/04/23 11:52:03.5       9   -308    282    309    418 178.2  47.1  34158  289.55 0855.21
2009/04/23 11:52:03.6      35   -249    247    252    352 171.9  49.4  34166  289.68 0855.21
2009/04/23 11:52:03.7      19   -139    217    141    258 172.0  64.1  34156  289.50 0855.21
2009/04/23 11:52:03.8      78   -289    242    300    385 164.9  43.3  34164  289.64 0855.21
2009/04/23 11:52:03.9     -16   -374    182    375    416 182.5  27.8  34158  289.55 0855.21
2009/04/23 11:52:04.0     138   -238    183    276    331 149.9  36.5  34164  289.63 0855.21
2009/04/23 11:52:04.1     124   -228    179    260    315 151.5  37.9  34168  289.70 0855.21
2009/04/23 11:52:04.2     195   -310    107    367    383 147.9  16.3  34168  289.72 0855.21
2009/04/23 11:52:04.3     142   -237     98    277    293 149.0  20.0  34170  289.73 0855.21
2009/04/23 11:52:04.4     181   -205    134    274    305 138.6  27.8  34160  289.58 0855.21
2009/04/23 11:52:04.5     197   -151    191    249    313 127.5  41.4  34168  289.71 0855.19
2009/04/23 11:52:04.6     205   -111    216    234    318 118.4  47.7  34168  289.71 0855.19
2009/04/23 11:52:04.7     115    -33    235    120    263 106.4  71.1  34158  289.55 0855.19
2009/04/23 11:52:04.8     275    222    260    354    439  51.0  39.9  34168  289.72 0855.19
2009/04/23 11:52:04.9     239    163    156    290    329  55.8  30.6  34170  289.73 0855.19
2009/04/23 11:52:05.0     262    104    229    282    363  68.3  43.4  34168  289.71 0855.19
2009/04/23 11:52:05.1     127     90    184    156    241  54.5  55.4  34168  289.70 0855.19
2009/04/23 11:52:05.2     179     95    194    203    280  62.0  48.7  34164  289.63 0855.19
2009/04/23 11:52:05.3     216    107    232    242    335  63.6  48.8  34172  289.76 0855.19
2009/04/23 11:52:05.4      72    -28    204     78    218 111.7  78.2  34176  289.84 0855.19
2009/04/23 11:52:05.5       1     40    158     41    163   2.7  85.4  34178  289.89 0855.19
2009/04/23 11:52:05.6      39     70    106     81    133  29.0  58.5  34172  289.77 0855.19
2009/04/23 11:52:05.7     -12     60    103     62    120 348.4  66.7  34176  289.85 0855.19
2009/04/23 11:52:05.8     -35      4     99     36    105 277.9  80.2  34180  289.92 0855.19
2009/04/23 11:52:05.9      51    -51    132     73    150 135.0  68.8  34176  289.85 0855.19
2009/04/23 11:52:06.0      85    -15    120     87    148 100.6  60.5  34172  289.79 0855.19
2009/04/23 11:52:06.1     152    -72    155    169    229 115.3  47.7  34170  289.75 0855.19
2009/04/23 11:52:06.2     -13    -96    183     97    207 188.0  69.8  34164  289.63 0855.19
2009/04/23 11:52:06.3     -19   -268    276    269    385 184.2  50.8  34162  289.62 0855.19
2009/04/23 11:52:06.4     -43   -279    178    283    334 188.9  35.2  34160  289.56 0855.19
2009/04/23 11:52:06.5     -29   -122     73    126    145 193.4  32.9  34160  289.57 0855.21
2009/04/23 11:52:06.6     -75    -88     65    116    132 220.5  31.4  34160  289.58 0855.21
2009/04/23 11:52:06.7    -160    -37     67    165    178 256.7  23.1  34164  289.65 0855.21
2009/04/23 11:52:06.8    -203     41    -11    208    209 281.5  -3.3  34160  289.57 0855.21
2009/04/23 11:52:06.9    -211    156    132    263    294 306.6  28.5  34172  289.76 0855.21
2009/04/23 11:52:07.0    -160    104    130    191    231 303.1  37.6  34174  289.80 0855.21
2009/04/23 11:52:07.1    -134     95    126    165    207 305.5  41.4  34172  289.79 0855.21
2009/04/23 11:52:07.2     -81    -50    110     96    146 238.5  54.3  34174  289.82 0855.21
2009/04/23 11:52:07.3     -64   -130      0    145    146 206.3  -0.3  34164  289.65 0855.21
2009/04/23 11:52:07.4    -171    -28    -19    174    176 260.5  -6.2  34162  289.62 0855.21
2009/04/23 11:52:07.5    -229     79     66    243    252 289.1  15.3  34166  289.68 0855.21
2009/04/23 11:52:07.6    -227     -2     83    228    242 269.4  20.9  34166  289.68 0855.21
2009/04/23 11:52:07.7    -118     29    187    122    223 284.2  64.4  34172  289.77 0855.21
2009/04/23 11:52:07.8    -123   -102    156    160    223 230.4  49.8  34164  289.65 0855.21
2009/04/23 11:52:07.9    -196   -142    140    243    280 234.1  32.7  34160  289.56 0855.21
2009/04/23 11:52:08.0    -287   -104    113    306    326 250.0  21.1  34160  289.58 0855.21
2009/04/23 11:52:08.1     -32   -134    212    138    252 193.8  64.1  34172  289.77 0855.21
2009/04/23 11:52:08.2     -76   -162    151    180    234 205.3  44.3  34164  289.63 0855.21
2009/04/23 11:52:08.3     134    -62    142    148    205 114.8  49.2  34166  289.67 0855.21
2009/04/23 11:52:08.4     123   -102    191    160    249 129.6  56.1  34164  289.65 0855.21
2009/04/23 11:52:08.5      97      7    176     98    201  85.7  68.8  34168  289.72 0855.23
2009/04/23 11:52:08.6       1     16    133     17    134   4.4  90.0  34176  289.85 0855.23
2009/04/23 11:52:08.7     -42    -49    165     65    177 220.5  77.4  34168  289.72 0855.23
2009/04/23 11:52:08.8     -34    -77    134     85    158 204.1  64.7  34164  289.65 0855.23
2009/04/23 11:52:08.9       0    -54    120     55    132 180.0  73.5  34170  289.74 0855.23
2009/04/23 11:52:09.0      29   -116    149    120    191 165.7  56.6  34168  289.70 0855.23
2009/04/23 11:52:09.1      84   -211    148    228    271 158.2  35.6  34164  289.63 0855.23
2009/04/23 11:52:09.2      31   -265    165    267    313 173.3  34.8  34160  289.56 0855.23
2009/04/23 11:52:09.3     -68   -354    148    361    390 190.9  23.6  34160  289.57 0855.23
2009/04/23 11:52:09.4     -33   -319    111    321    340 186.0  19.2  34162  289.59 0855.23
2009/04/23 11:52:09.5     -37   -263    168    266    314 188.0  35.3  34162  289.59 0855.23
2009/04/23 11:52:09.6     -46   -298    120    302    324 188.9  22.9  34158  289.54 0855.23
2009/04/23 11:52:09.7     -38   -167    139    172    221 192.9  43.5  34154  289.46 0855.23
2009/04/23 11:52:09.8     -39   -193    215    197    291 191.5  52.7  34162  289.59 0855.23
2009/04/23 11:52:09.9     -28   -185    244    188    308 188.7  58.5  34164  289.63 0855.23
2009/04/23 11:52:10.0     -33   -192    189    195    271 189.8  49.2  34164  289.63 0855.23
2009/04/23 11:52:10.1     -73   -185    156    200    253 201.6  42.0  34164  289.64 0855.23
2009/04/23 11:52:10.2     -88   -202    123    221    252 203.6  31.6  34162  289.61 0855.23
2009/04/23 11:52:10.3     -25   -215    155    217    266 186.7  39.3  34162  289.59 0855.23
2009/04/23 11:52:10.4     -59   -203     96    212    232 196.3  26.2  34160  289.57 0855.23
2009/04/23 11:52:10.5     -13   -261    135    262    294 182.9  29.3  34152  289.42 0855.23
2009/04/23 11:52:10.6     -82   -272     95    285    301 196.9  18.5  34154  289.47 0855.23
2009/04/23 11:52:10.7     -37   -219     88    223    239 189.8  22.5  34158  289.54 0855.23
2009/04/23 11:52:10.8      81   -251      8    264    265 162.1   1.8  34154  289.46 0855.23
2009/04/23 11:52:10.9     117   -253     39    279    282 155.1   8.0  34152  289.44 0855.23
2009/04/23 11:52:11.0     188   -227     83    295    307 140.4  15.8  34152  289.44 0855.23
2009/04/23 11:52:11.1     248   -178    146    306    339 125.7  27.3  34154  289.46 0855.23
2009/04/23 11:52:11.2     156   -176    128    236    268 138.6  31.0  34156  289.49 0855.23
2009/04/23 11:52:11.3     157    -77    131    175    218 116.2  40.4  34150  289.40 0855.23
2009/04/23 11:52:11.4     173    -93     71    197    209 118.4  20.7  34154  289.48 0855.23
2009/04/23 11:52:11.5      78   -101     46    128    136 142.2  20.4  34156  289.50 0855.23
2009/04/23 11:52:11.6     -24    -64    -65     69     94 200.9 -53.4  34162  289.60 0855.23
2009/04/23 11:52:11.7     -34    -74    -45     82     93 204.9 -35.2  34158  289.55 0855.23
2009/04/23 11:52:11.8     -45    -54     -3     71     72 219.7  -3.1  34160  289.58 0855.23
2009/04/23 11:52:11.9     -67    -32      9     75     76 244.6   6.9  34164  289.65 0855.23
2009/04/23 11:52:12.0     -62     30     27     70     75 296.2  21.0  34166  289.67 0855.23
2009/04/23 11:52:12.1     -55     55     33     79     85 314.9  24.1  34162  289.62 0855.23
2009/04/23 11:52:12.2     -50     50     33     71     78 315.0  26.6  34164  289.63 0855.23
2009/04/23 11:52:12.3     -28     73     29     79     84 339.1  20.4  34160  289.57 0855.23
2009/04/23 11:52:12.4     -13     83     15     85     87 351.1  10.6  34162  289.62 0855.23
2009/04/23 11:52:12.5      33     24     27     42     49  54.0  35.5  34156  289.52 0855.23
2009/04/23 11:52:12.6     195      4     29     62     68 360.0  27.1  34158  289.55 0855.23
2009/04/23 11:52:12.7       0     64     42     65     77   0.0  35.6  34162  289.60 0855.23
2009/04/23 11:52:12.8      48     45     59     67     89  46.9  46.4  34160  289.58 0855.23
2009/04/23 11:52:12.9       6    -38     44     39     58 170.2  53.3  34168  289.72 0855.23
2009/04/23 11:52:13.0    -117     11     22    118    121 275.7  10.6  34160  289.57 0855.23
2009/04/23 11:52:13.1    -144      5      2    145    146 272.1   0.8  34160  289.57 0855.23
2009/04/23 11:52:13.2    -170      8    -46    171    178 272.8 -15.2  34184  289.99 0855.23
2009/04/23 11:52:13.3    -181    -31     33    184    188 260.1  10.3  34162  289.62 0855.23
2009/04/23 11:52:13.4    -158    -40     72    164    179 255.6  25.3  34156  289.52 0855.23
2009/04/23 11:52:13.5    -182    -36     19    186    188 258.6   6.1  34154  289.46 0855.23
2009/04/23 11:52:13.6    -156   -156     11    221    222 224.9   2.9  34164  289.65 0855.23
2009/04/23 11:52:13.7    -223   -231     37    322    325 224.0   6.6  34166  289.68 0855.23
2009/04/23 11:52:13.8    -238   -181     58    300    306 232.7  11.1  34164  289.63 0855.23
2009/04/23 11:52:13.9    -276    -83    100    289    307 253.2  19.2  34162  289.59 0855.23
2009/04/23 11:52:14.0    -164    -64     92    177    199 248.5  29.5  34162  289.60 0855.23
2009/04/23 11:52:14.1    -165    -54     60    174    185 251.6  19.2  34162  289.60 0855.23
2009/04/23 11:52:14.2     -98    -62     74    117    138 237.5  35.5  34160  289.58 0855.23
2009/04/23 11:52:14.3    -169    -60     72    180    193 250.3  23.0  34162  289.60 0855.23
2009/04/23 11:52:14.4    -276    -74    146    286    321 254.9  29.3  34162  289.61 0855.23
2009/04/23 11:52:14.5    -518    -11    -74    519    525 268.7  -8.1  34178  289.87 0855.22
2009/04/23 11:52:14.6    -448      2    140    449    471 270.3  17.3  34162  289.61 0855.22
2009/04/23 11:52:14.7    -363    -68     99    370    384 259.4  15.0  34162  289.60 0855.22
2009/04/23 11:52:14.8    -395     30    125    397    417 274.5  17.5  34164  289.65 0855.22
2009/04/23 11:52:14.9    -553    -17    -24    554    555 268.2  -2.5  34172  289.77 0855.22
2009/04/23 11:52:15.0    -443    -55     52    447    451 262.9   6.7  34174  289.80 0855.22
2009/04/23 11:52:15.1    -316    -40     16    319    320 262.8   2.9  34174  289.81 0855.22
2009/04/23 11:52:15.2    -264   -198    208    330    390 233.1  35.5  34174  289.81 0855.22
2009/04/23 11:52:15.3    -259   -180    194    316    370 235.1  34.6  34174  289.82 0855.22
2009/04/23 11:52:15.4    -164   -200    226    259    343 219.4  45.5  34174  289.80 0855.22
2009/04/23 11:52:15.5    -238    -90     30    255    257 249.2   6.9  34184  289.97 0855.22
2009/04/23 11:52:15.6    -313    -52     13    318    319 260.5   2.3  34182  289.95 0855.22
2009/04/23 11:52:15.7    -480    -57     -2    484    485 263.1  -0.3  34178  289.86 0855.22
2009/04/23 11:52:15.8    -550    -62    -92    554    562 263.5  -9.5  34174  289.82 0855.22
2009/04/23 11:52:15.9    -568     69    -31    573    574 277.0  -3.1  34174  289.80 0855.22
2009/04/23 11:52:16.0    -507     -7     59    508    512 269.2   6.7  34184  289.98 0855.22
2009/04/23 11:52:16.1    -481    -59     15    485    486 262.9   1.8  34170  289.74 0855.22
2009/04/23 11:52:16.2    -463     53    -51    467    470 276.6  -6.3  34172  289.76 0855.22
2009/04/23 11:52:16.3    -411     46    102    414    427 276.5  13.9  34176  289.85 0855.22
2009/04/23 11:52:16.4    -318    -28    178    320    366 264.8  31.5  34178  289.87 0855.22
2009/04/23 11:52:16.5    -243    -76    218    255    335 252.5  45.0  34176  289.85 0855.19
2009/04/23 11:52:16.6    -541     15    102    542    552 271.6  10.7  34170  289.75 0855.19
2009/04/23 11:52:16.7    -518    -58     40    522    524 263.5   4.4  34176  289.85 0855.19
2009/04/23 11:52:16.8    -397   -137     74    421    428 251.0  10.0  34176  289.85 0855.19
2009/04/23 11:52:16.9    -388   -108    255    403    476 254.4  35.5  34192  290.11 0855.19
2009/04/23 11:52:17.0    -428    -24    326    429    538 266.8  41.2  34188  290.06 0855.19
2009/04/23 11:52:17.1    -248    192    175    314    359 307.8  31.6  34176  289.84 0855.19
2009/04/23 11:52:17.2    -210    237     91    317    330 318.5  16.0  34182  289.93 0855.19
2009/04/23 11:52:17.3    -178    183     12    256    257 315.7   2.8  34184  289.97 0855.19
2009/04/23 11:52:17.4     -71    155    -59    171    181 335.3 -19.1  34180  289.91 0855.19
2009/04/23 11:52:17.5    -144    116    121    186    221 308.9  35.7  34176  289.84 0855.19
2009/04/23 11:52:17.6     -68    121     -7    139    140 330.6  -3.1  34174  289.80 0855.19
2009/04/23 11:52:17.7     -52    133     44    143    150 338.6  17.3  34172  289.77 0855.19
2009/04/23 11:52:17.8     -74    162    -48    179    186 335.3 -15.0  34174  289.82 0855.19
2009/04/23 11:52:17.9      46    140    -52    148    157  18.5 -19.4  34178  289.87 0855.19
2009/04/23 11:52:18.0     117    110     -6    161    162  46.8  -2.2  34176  289.85 0855.19
2009/04/23 11:52:18.1     236    103     -5    258    259  66.4  -1.2  34174  289.81 0855.19
2009/04/23 11:52:18.2     275    208     43    346    349  52.9   7.1  34172  289.76 0855.19
2009/04/23 11:52:18.3     116    310   -144    332    361  20.5 -29.5  34172  289.79 0855.19
2009/04/23 11:52:18.4     313    114    -87    334    346  69.9 -14.6  34162  289.62 0855.19
2009/04/23 11:52:18.6     539    173     68    567    572  72.2   6.9  34184  289.98 0855.18
2009/04/23 11:52:18.6     369    295    100    473    484  51.4  12.0  34202  290.29 0855.18
2009/04/23 11:52:18.8     526    224    -31    572    573  66.9  -3.1  34168  289.71 0855.18
2009/04/23 11:52:18.9     637    184     17    664    665  73.9   1.5  34170  289.75 0855.18
2009/04/23 11:52:19.0     667    128    246    680    724  79.1  19.9  34166  289.69 0855.18
2009/04/23 11:52:19.1     678    183    215    703    736  74.9  17.0  34158  289.54 0855.18
2009/04/23 11:52:19.2     613    236    237    657    698  68.9  20.7  34162  289.60 0855.18
2009/04/23 11:52:19.3     495    113     98    508    518  77.1  11.0  34174  289.81 0855.18
2009/04/23 11:52:19.4     367     39   -179    370    411  83.9 -32.1  34162  289.62 0855.18
2009/04/23 11:52:19.5     443    -52   -216    447    496  96.7 -32.1  34166  289.67 0855.18
2009/04/23 11:52:19.6     372    169   -246    409    477  65.6 -38.4  34174  289.80 0855.18
2009/04/23 11:52:19.7     336    129   -183    361    404  69.0 -33.5  34174  289.82 0855.18
2009/04/23 11:52:19.8     389     99   -135    402    424  75.7 -23.3  34170  289.75 0855.18
2009/04/23 11:52:19.9     402    -50    -68    406    412  97.2  -9.6  34162  289.61 0855.18
2009/04/23 11:52:20.0     264    -34      0    267    268  97.5   0.0  34162  289.61 0855.18
2009/04/23 11:52:20.1     165     62    -85    177    196  69.4 -31.7  34176  289.85 0855.18
2009/04/23 11:52:20.2     211     95   -117    232    259  65.8 -33.1  34182  289.93 0855.18
2009/04/23 11:52:20.3     221    117    -60    251    259  62.0 -13.4  34184  289.98 0855.18
2009/04/23 11:52:20.4     227     66      8    237    238  73.6   2.1  34182  289.95 0855.18
2009/04/23 11:52:20.5     197    -48    -89    203    221 103.7 -29.5  34178  289.89 0855.18
2009/04/23 11:52:20.6     173    -28    -74    176    190  99.2 -28.5  34176  289.85 0855.19
2009/04/23 11:52:20.7     122     60     75    136    155  63.8  31.4  34166  289.67 0855.19
2009/04/23 11:52:20.8     101     89     11    136    137  48.6   5.0  34174  289.80 0855.19
2009/04/23 11:52:20.9     211    -55     18    219    220 104.6   4.9  34168  289.70 0855.19
2009/04/23 11:52:21.0     272     46     64    276    284  80.4  13.1  34164  289.63 0855.19
2009/04/23 11:52:21.1     151     16    150    152    213  83.9  50.0  34178  289.87 0855.19
2009/04/23 11:52:21.2      12     38    122     41    128  18.3  81.0  34184  289.97 0855.19
2009/04/23 11:52:21.3     -68   -125    184    143    233 208.5  58.4  34176  289.85 0855.19
2009/04/23 11:52:21.4    -254   -222     66    338    345 228.9  11.1  34182  289.93 0855.19
2009/04/23 11:52:21.5    -245   -319     63    403    408 217.6   8.9  34168  289.70 0855.19
2009/04/23 11:52:21.6    -262   -316     65    411    417 219.6   9.0  34158  289.55 0855.19
2009/04/23 11:52:21.7    -212   -288     40    358    361 216.4   6.5  34158  289.55 0855.19
2009/04/23 11:52:21.8    -231   -304     14    382    383 217.2   2.1  34162  289.59 0855.19
2009/04/23 11:52:21.9    -287   -270     -7    395    396 226.8  -1.2  34158  289.55 0855.19
2009/04/23 11:52:22.0    -181   -314     -3    363    364 210.0  -0.5  34150  289.40 0855.19
2009/04/23 11:52:22.1    -172   -285     51    334    338 211.1   8.8  34168  289.71 0855.19
2009/04/23 11:52:22.2    -303   -127     -6    329    330 247.3  -1.1  34210  290.42 0855.19
2009/04/23 11:52:22.3    -273    -99    -11    291    292 250.0  -2.2  34222  290.63 0855.19
2009/04/23 11:52:22.4    -289    -93    -91    304    318 252.1 -16.8  34194  290.15 0855.19
2009/04/23 11:52:22.5    -292    -56    -84    298    310 259.0 -15.8  34174  289.81 0855.19
2009/04/23 11:52:22.6    -271    -75    -96    282    297 254.5 -23.6  34164  289.64 0855.20
2009/04/23 11:52:22.7    -233    -20    -76    234    247 265.0 -18.1  34180  289.90 0855.20
2009/04/23 11:52:22.8    -295     35     61    298    305 276.8  11.6  34194  290.14 0855.20
2009/04/23 11:52:22.9    -295     71    -16    304    305 283.7  -3.1  34220  290.59 0855.20
2009/04/23 11:52:23.0    -222     73    -74    234    246 288.2 -17.6  34186  290.00 0855.20
2009/04/23 11:52:23.1    -198    227    -83    302    314 319.0 -15.4  34180  289.92 0855.20
2009/04/23 11:52:23.2    -191    252     10    317    318 322.8   1.9  34176  289.85 0855.20
2009/04/23 11:52:23.3    -238    115   -230    265    350 295.8 -49.8  34152  289.44 0855.20
2009/04/23 11:52:23.4    -223    -16   -236    224    325 265.9 -56.0  34160  289.58 0855.20
2009/04/23 11:52:23.5    -262    -36   -200    265    332 262.1 -45.1  34160  289.56 0855.20
2009/04/23 11:52:23.6     -96    -99    -71    138    155 224.1 -33.7  34166  289.67 0855.20
2009/04/23 11:52:23.7     -93    -87    -62    128    142 226.8 -31.7  34164  289.65 0855.20
2009/04/23 11:52:23.8      -1    -53     41     54     67 181.8  40.7  34162  289.60 0855.20
2009/04/23 11:52:23.9     -23    -34     82     42     92 214.3  71.4  34168  289.70 0855.20
2009/04/23 11:52:24.0     -24    -44     90     51    103 209.0  68.8  34168  289.72 0855.20
2009/04/23 11:52:24.1     -16   -131     65    133    148 187.1  27.3  34162  289.62 0855.20
2009/04/23 11:52:24.2      26   -159     66    162    174 170.7  23.4  34166  289.67 0855.20
2009/04/23 11:52:24.3       5   -198     91    199    218 178.4  26.4  34158  289.55 0855.20
2009/04/23 11:52:24.4     -13   -195    117    196    228 184.0  33.5  34168  289.72 0855.20
2009/04/23 11:52:24.5       6     -7     55     10     55 136.8  90.0  34180  289.91 0855.20
2009/04/23 11:52:24.6      13    164     58    165    175   4.9  19.4  34178  289.87 0855.20
2009/04/23 11:52:24.7     -33    197    104    200    225 350.4  29.3  34172  289.77 0855.20
2009/04/23 11:52:24.8      44     82     97     94    135  28.5  50.2  34174  289.82 0855.20
2009/04/23 11:52:24.9     175      6    151    176    231  87.9  45.1  34168  289.72 0855.20
2009/04/23 11:52:25.0     155    128    134    202    242  50.4  36.5  34166  289.67 0855.20
2009/04/23 11:52:25.1     165    176    179    242    301  43.2  39.7  34160  289.56 0855.20
2009/04/23 11:52:25.2     264    125    265    293    395  64.7  46.9  34164  289.65 0855.20
2009/04/23 11:52:25.3     328    172    291    371    471  62.3  42.2  34172  289.77 0855.20
2009/04/23 11:52:25.4     263     49    293    268    397  79.4  53.0  34172  289.79 0855.20
2009/04/23 11:52:25.5      19    -14    254     24    255 126.0  90.0  34172  289.79 0855.20
2009/04/23 11:52:25.6     -47   -170    227    177    287 195.6  58.4  34176  289.83 0855.21
2009/04/23 11:52:25.7      -5   -218    288    219    361 181.4  59.0  34170  289.75 0855.21
2009/04/23 11:52:25.8     183   -286    214    340    401 147.3  35.3  34170  289.74 0855.21
2009/04/23 11:52:25.9     326   -363    118    488    503 138.1  13.7  34172  289.79 0855.21
2009/04/23 11:52:26.0     274   -453    169    530    557 148.8  17.7  34178  289.87 0855.21
2009/04/23 11:52:26.1     200   -477    101    518    528 157.3  11.1  34172  289.79 0855.21
2009/04/23 11:52:26.2     250   -438     45    505    508 150.2   5.1  34168  289.71 0855.21
2009/04/23 11:52:26.3     232   -449     99    506    516 152.7  11.1  34174  289.81 0855.21
2009/04/23 11:52:26.4     346   -399     29    529    530 139.1   3.2  34170  289.74 0855.21
2009/04/23 11:52:26.5     394   -523     78    655    660 143.0   6.9  34174  289.82 0855.21
2009/04/23 11:52:26.6     384   -434    106    580    590 138.5  10.4  34172  289.78 0855.21
2009/04/23 11:52:26.7     349   -327     -3    479    480 133.1  -0.4  34172  289.79 0855.21
2009/04/23 11:52:26.8     428   -355      1    557    558 129.7   0.1  34178  289.87 0855.21
2009/04/23 11:52:26.9     508   -393     31    643    644 127.8   2.8  34184  289.99 0855.21
2009/04/23 11:52:27.0     593   -315      8    672    673 118.0   0.7  34182  289.93 0855.21
2009/04/23 11:52:27.1     561   -462     91    727    733 129.5   7.2  34162  289.62 0855.21
2009/04/23 11:52:27.2     457   -416    138    618    634 132.3  12.6  34172  289.79 0855.21
2009/04/23 11:52:27.3     545   -339    136    643    658 121.9  12.0  34166  289.69 0855.21
2009/04/23 11:52:27.4     489   -241    254    546    602 116.2  26.9  34172  289.76 0855.21
2009/04/23 11:52:27.5     553   -357    338    659    740 122.9  29.3  34172  289.79 0855.21
2009/04/23 11:52:27.6     467   -397    363    614    713 130.4  33.4  34172  289.77 0855.21
2009/04/23 11:52:27.7     348   -389    396    523    656 138.2  40.9  34166  289.67 0855.21
2009/04/23 11:52:27.8     294   -450    340    538    636 146.8  35.3  34174  289.80 0855.21
2009/04/23 11:52:27.9     167   -536    280    562    627 162.7  28.6  34174  289.81 0855.21
2009/04/23 11:52:28.0      -3   -437    256    438    507 180.5  33.0  34188  290.06 0855.21
2009/04/23 11:52:28.1      16   -368    297    369    473 177.5  43.0  34172  289.78 0855.21
2009/04/23 11:52:28.2     -41   -293    268    297    400 188.1  46.9  34178  289.86 0855.21
2009/04/23 11:52:28.3     159   -265    244    310    394 149.0  42.3  34168  289.72 0855.21
2009/04/23 11:52:28.4      26    -36    144     45    150 143.9  81.8  34176  289.85 0855.21
2009/04/23 11:52:28.5      28    -18    136     34    140 122.4  85.9  34174  289.82 0855.21
2009/04/23 11:52:28.6      50   -105    180    117    214 154.5  64.6  34176  289.84 0855.21
2009/04/23 11:52:28.7     -14   -190    208    191    282 184.2  52.5  34180  289.90 0855.21
2009/04/23 11:52:28.8      78   -289    327    300    443 164.8  52.9  34172  289.77 0855.21
2009/04/23 11:52:28.9       0   -357    301    358    467 180.0  44.3  34166  289.68 0855.21
2009/04/23 11:52:29.0      -7   -249    264    250    363 181.8  51.9  34176  289.84 0855.21
2009/04/23 11:52:29.1     -23   -256    298    258    394 185.3  54.8  34172  289.79 0855.21
2009/04/23 11:52:29.2     -45   -262    329    266    423 189.8  56.9  34172  289.77 0855.21
2009/04/23 11:52:29.3     -14   -199    342    200    396 184.0  67.1  34178  289.87 0855.21
2009/04/23 11:52:29.4     -47   -233    286    238    372 191.6  56.3  34172  289.79 0855.21
2009/04/23 11:52:29.5     -68   -242    288    252    382 195.8  54.4  34170  289.74 0855.21
2009/04/23 11:52:29.6       0   -265    197    266    331 180.0  40.1  34168  289.70 0855.18
2009/04/23 11:52:29.7     -82   -269    165    282    326 196.9  33.0  34172  289.76 0855.18
2009/04/23 11:52:29.8     115    -67    107    134    171 120.2  43.0  34176  289.85 0855.18
2009/04/23 11:52:29.9    -109    -93    153    144    210 229.6  52.0  34172  289.79 0855.18
2009/04/23 11:52:30.0     -44   -134    159    142    213 198.3  53.7  34174  289.80 0855.18
2009/04/23 11:52:30.1    -111   -262    210    285    354 202.9  40.0  34170  289.74 0855.18
2009/04/23 11:52:30.2    -115   -242    310    269    410 205.5  54.7  34192  290.13 0855.18
2009/04/23 11:52:30.3    -178   -214    120    279    303 219.6  25.1  34198  290.20 0855.18
2009/04/23 11:52:30.4    -224   -167    -19    280    281 233.2  -3.9  34192  290.12 0855.18
2009/04/23 11:52:30.5    -219   -139    141    260    295 237.5  31.0  34204  290.32 0855.18
2009/04/23 11:52:30.6    -238    -84     68    253    263 250.5  15.2  34206  290.34 0855.18
2009/04/23 11:52:30.7    -210     -5     -9    211    212 268.5  -2.6  34202  290.28 0855.18
2009/04/23 11:52:30.8    -357   -119    -41    377    380 251.6  -6.3  34204  290.32 0855.18
2009/04/23 11:52:30.9    -295   -129    -83    323    334 246.4 -14.5  34204  290.32 0855.18
2009/04/23 11:52:31.0    -401    -94      5    412    413 256.8   0.8  34216  290.51 0855.18
2009/04/23 11:52:31.1    -387   -121    -24    406    407 252.6  -3.5  34208  290.38 0855.18
2009/04/23 11:52:31.2    -248   -157    111    294    314 237.6  21.6  34208  290.39 0855.18
2009/04/23 11:52:31.3    -306   -139     10    337    338 245.6   1.7  34204  290.32 0855.18
2009/04/23 11:52:31.4    -234    -78    -23    247    249 251.6  -5.4  34206  290.36 0855.18
2009/04/23 11:52:31.5    -180    -84     12    199    200 244.9   3.6  34214  290.48 0855.18
2009/04/23 11:52:31.6    -279    -76     36    290    293 254.7   7.1  34232  290.78 0855.17
2009/04/23 11:52:31.7    -298   -174     93    346    359 239.7  15.1  34230  290.77 0855.17
2009/04/23 11:52:31.8    -217   -137    133    257    289 237.6  29.3  34236  290.85 0855.17
2009/04/23 11:52:31.9    -183   -189    182    264    320 224.1  37.9  34226  290.70 0855.17
2009/04/23 11:52:32.0     -27    -77    180     82    197 199.6  74.0  34208  290.38 0855.17
2009/04/23 11:52:32.1       0     -4    163      5    163 189.7  90.0  34214  290.48 0855.17
2009/04/23 11:52:32.2      91     68    238    114    263  53.1  72.8  34180  289.91 0855.17
2009/04/23 11:52:32.3     -30    188    162    191    250 350.9  44.8  34190  290.07 0855.17
2009/04/23 11:52:32.4     -39    461    174    463    494 355.1  21.5  34226  290.69 0855.17
2009/04/23 11:52:32.5      29    240    147    242    283   7.1  34.2  34198  290.20 0855.17
2009/04/23 11:52:32.6      42    301    122    305    328   8.0  22.9  34208  290.39 0855.17
2009/04/23 11:52:32.7     -56    299    170    305    349 349.3  31.5  34198  290.21 0855.17
2009/04/23 11:52:32.8     -21    279     97    280    297 355.5  19.2  34196  290.19 0855.17
2009/04/23 11:52:32.9      98    365    141    378    403  15.1  21.4  34194  290.15 0855.17
2009/04/23 11:52:33.0      23    302    107    303    322   4.4  19.6  34196  290.17 0855.17
2009/04/23 11:52:33.1      56    254    109    261    282  12.5  24.1  34208  290.37 0855.17
2009/04/23 11:52:33.2      34    357     61    359    365   5.6   9.7  34196  290.18 0855.17
2009/04/23 11:52:33.3     211    255    113    332    351  39.6  18.9  34206  290.35 0855.17
2009/04/23 11:52:33.4     172    346    256    387    464  26.5  36.5  34218  290.55 0855.17
2009/04/23 11:52:33.5     168    109    133    201    241  57.1  36.5  34214  290.48 0855.17
2009/04/23 11:52:33.6      15    145    118    146    187   6.2  43.5  34222  290.64 0855.16
2009/04/23 11:52:33.7      -5    327    166    328    367 359.0  29.1  34278  291.59 0855.16
2009/04/23 11:52:33.8     -24    277    194    279    339 354.9  38.3  34232  290.80 0855.16
2009/04/23 11:52:33.9       0    114    264    115    287 359.6  75.0  34254  291.17 0855.16
2009/04/23 11:52:34.0     233     15    204    234    310  86.3  45.8  34258  291.22 0855.16
2009/04/23 11:52:34.1      10    -25    147     27    149 158.2  90.0  34262  291.30 0855.16
2009/04/23 11:52:34.2      73     25    131     78    152  70.9  66.7  34254  291.16 0855.16
2009/04/23 11:52:34.3      32     92    194     98    217  19.6  71.1  34254  291.16 0855.16
2009/04/23 11:52:34.4      92     65    140    113    179  54.5  56.9  34254  291.18 0855.16
2009/04/23 11:52:34.5     126     42    136    134    190  71.4  50.1  34262  291.30 0855.16
2009/04/23 11:52:34.6     175    194    163    262    308  42.1  35.2  34264  291.34 0855.16
2009/04/23 11:52:34.7     213     85     24    230    232  68.2   6.1  34224  290.65 0855.16
2009/04/23 11:52:34.8     142    120    173    186    254  49.8  47.9  34266  291.36 0855.16
2009/04/23 11:52:34.9     230     75    141    243    280  71.8  33.1  34260  291.27 0855.16
2009/04/23 11:52:35.0     406    184    171    446    477  65.6  22.0  34268  291.41 0855.16
2009/04/23 11:52:35.1     350    159    218    385    442  65.6  32.0  34238  290.90 0855.16
2009/04/23 11:52:35.2     140    186    137    234    271  37.0  33.4  34252  291.14 0855.16
2009/04/23 11:52:35.3     215    113    129    244    276  62.2  30.1  34250  291.09 0855.16
2009/04/23 11:52:35.4     330    217    252    396    469  56.6  35.5  34256  291.21 0855.16
2009/04/23 11:52:35.5     363    149     68    393    399  67.7   9.9  34240  290.93 0855.16
2009/04/23 11:52:35.6     344    -55     81    349    359  99.1  13.1  34232  290.81 0855.17
2009/04/23 11:52:35.7     512    153     95    535    544  73.3  10.1  34236  290.86 0855.17
2009/04/23 11:52:35.8     435    225     19    490    491  62.6   2.2  34252  291.15 0855.17
2009/04/23 11:52:35.9     282    295      8    409    410  43.7   1.2  34258  291.23 0855.17
2009/04/23 11:52:36.0     249    248     75    352    361  45.2  12.1  34244  291.01 0855.17
2009/04/23 11:52:36.1     280    284     63    399    405  44.6   9.0  34232  290.78 0855.17
2009/04/23 11:52:36.2     290    278     94    402    413  46.2  13.2  34220  290.58 0855.17
2009/04/23 11:52:36.3     272    247     74    368    376  47.7  11.5  34202  290.27 0855.17
2009/04/23 11:52:36.4     188    193    -19    270    271  44.3  -4.1  34204  290.31 0855.17
2009/04/23 11:52:36.5     266     21      9    267    268  85.4   2.1  34224  290.66 0855.17
2009/04/23 11:52:36.6     312     43     32    315    317  82.1   6.0  34242  290.95 0855.17
2009/04/23 11:52:36.7     337     22     65    338    345  86.1  11.0  34232  290.79 0855.17
2009/04/23 11:52:36.8     361    -21    117    362    381  93.4  17.9  34224  290.67 0855.17
2009/04/23 11:52:36.9     223    221     22    315    316  45.2   4.0  34210  290.41 0855.17
2009/04/23 11:52:37.0     260    162    -32    307    309  58.0  -6.1  34208  290.39 0855.17
2009/04/23 11:52:37.1     142    124    -55    189    198  48.9 -16.4  34202  290.30 0855.17
2009/04/23 11:52:37.2     151     82    -84    173    192  61.4 -31.7  34206  290.35 0855.17
2009/04/23 11:52:37.3     141    131   -102    193    218  47.1 -34.5  34196  290.18 0855.17
2009/04/23 11:52:37.4     169     45    -27    176    179  74.9  -9.0  34194  290.14 0855.17
2009/04/23 11:52:37.5     239     12      2    240    241  87.0   0.5  34212  290.44 0855.17
2009/04/23 11:52:37.6     221     10     10    222    223  87.2   2.8  34194  290.16 0855.15
2009/04/23 11:52:37.7     151     36    -51    156    164  76.3 -23.3  34200  290.26 0855.15
2009/04/23 11:52:37.8      97    -62    -14    116    117 122.4  -7.2  34188  290.06 0855.15
2009/04/23 11:52:37.9     116   -138     84    181    199 140.1  26.6  34182  289.94 0855.15
2009/04/23 11:52:38.0     147   -152    106    212    237 135.9  28.7  34190  290.08 0855.15
2009/04/23 11:52:38.1     152   -135    132    204    242 131.6  35.7  34192  290.13 0855.15
2009/04/23 11:52:38.2     103   -138    112    173    206 143.3  35.7  34192  290.11 0855.15
2009/04/23 11:52:38.3      24    -52     43     58     72 154.7  39.7  34190  290.09 0855.15
2009/04/23 11:52:38.4       0     17    -49     18     52 357.3 -84.6  34196  290.19 0855.15
2009/04/23 11:52:38.6     -40     18    -60     45     75 294.4 -64.9  34200  290.25 0855.15
2009/04/23 11:52:38.6     -15    -44     31     47     56 199.2  35.6  34214  290.48 0855.15
2009/04/23 11:52:38.7      11    -50    -15     52     54 167.5 -21.7  34230  290.75 0855.15
2009/04/23 11:52:38.8    -215   -208    -99    300    315 226.0 -23.3  34166  289.68 0855.15
2009/04/23 11:52:38.9    -252   -238   -107    347    363 226.7 -22.1  34162  289.62 0855.15
2009/04/23 11:52:39.0    -288   -265   -134    392    414 227.4 -24.0  34160  289.58 0855.15
2009/04/23 11:52:39.1    -351   -218   -132    414    434 238.2 -22.8  34164  289.63 0855.15
2009/04/23 11:52:39.2    -300   -121   -111    324    343 248.0 -19.0  34174  289.81 0855.15
2009/04/23 11:52:39.3    -364   -151    -30    395    397 247.5  -4.5  34198  290.20 0855.15
2009/04/23 11:52:39.4    -337   -204    -76    395    403 238.8 -11.0  34198  290.21 0855.15
2009/04/23 11:52:39.5    -406   -206   -101    456    468 243.0 -12.5  34182  289.94 0855.15
2009/04/23 11:52:39.6    -392   -159    -57    424    428 247.9  -7.7  34182  289.94 0855.17
2009/04/23 11:52:39.7    -394   -131    -18    416    417 251.5  -2.5  34208  290.39 0855.17
2009/04/23 11:52:39.8    -325   -164     70    365    372 243.2  11.0  34218  290.55 0855.17
2009/04/23 11:52:39.9     -46   -231     90    236    252 191.5  22.0  34196  290.19 0855.17
2009/04/23 11:52:40.0      15   -412    145    413    437 177.9  20.0  34202  290.28 0855.17
2009/04/23 11:52:40.1      21   -302     98    303    319 176.0  18.0  34202  290.27 0855.17
2009/04/23 11:52:40.2     -84   -336    -16    347    348 194.0  -2.7  34202  290.30 0855.17
2009/04/23 11:52:40.3    -140   -241     -6    279    280 210.1  -1.3  34192  290.10 0855.17
2009/04/23 11:52:40.4    -108   -228     74    253    264 205.5  16.4  34188  290.03 0855.17
2009/04/23 11:52:40.5    -103   -250     79    271    283 202.5  16.4  34188  290.05 0855.17
2009/04/23 11:52:40.6    -103   -241     29    263    265 203.2   6.5  34186  290.00 0855.17
2009/04/23 11:52:40.7     -25   -141     78    144    163 190.2  31.0  34186  290.02 0855.17
2009/04/23 11:52:40.8    -122   -185    113    222    249 213.4  29.1  34188  290.05 0855.17
2009/04/23 11:52:40.9    -254   -203    211    326    388 231.4  35.6  34192  290.13 0855.17
2009/04/23 11:52:41.0    -144    -33     12    148    149 256.8   4.9  34192  290.13 0855.17
2009/04/23 11:52:41.1     -34    -94    143    100    174 200.0  62.1  34192  290.11 0855.17
2009/04/23 11:52:41.2    -224    127     93    258    274 299.5  20.7  34188  290.03 0855.17
2009/04/23 11:52:41.3    -225     33     92    228    245 278.4  23.1  34178  289.86 0855.17
2009/04/23 11:52:41.4    -222    183     93    288    303 309.5  17.9  34196  290.19 0855.17
2009/04/23 11:52:41.5     -53     97    187    111    217 331.0  66.8  34196  290.19 0855.17
2009/04/23 11:52:41.6     -62     54    137     83    160 311.3  66.0  34192  290.11 0855.17
2009/04/23 11:52:41.7     -61     36    163     71    177 300.7  75.3  34192  290.13 0855.17
2009/04/23 11:52:41.8     -18     73    115     76    137 345.7  63.6  34194  290.14 0855.17
2009/04/23 11:52:41.9      -3    -10     92     11     92 198.5  90.0  34190  290.09 0855.17
2009/04/23 11:52:42.0      76    -15     90     78    119 101.4  54.3  34182  289.94 0855.17
2009/04/23 11:52:42.1      68     18     53     71     88  74.9  40.7  34180  289.92 0855.17
2009/04/23 11:52:42.2      14     21     31     26     40  32.6  55.4  34182  289.96 0855.17
2009/04/23 11:52:42.3      14    -17     41     23     47 140.4  67.7  34182  289.96 0855.17
2009/04/23 11:52:42.4      51    -51     65     73     97 135.0  46.9  34184  289.97 0855.17
2009/04/23 11:52:42.5       2    -74     61     75     96 178.2  43.7  34182  289.94 0855.17
2009/04/23 11:52:42.6     -27    -64     74     70    101 202.7  51.6  34186  290.02 0855.17
2009/04/23 11:52:42.7      -8     11     54     14     55 323.9  84.9  34186  290.02 0855.17
2009/04/23 11:52:42.8     -80     50     90     95    130 302.0  48.5  34188  290.06 0855.17
2009/04/23 11:52:42.9     -83     -5     78     84    114 266.5  48.0  34184  289.97 0855.17
2009/04/23 11:52:43.0    -105     -3     75    106    129 267.9  38.6  34192  290.11 0855.17
2009/04/23 11:52:43.1    -171     89     68    193    204 297.5  20.0  34190  290.09 0855.17
2009/04/23 11:52:43.3    -170    109     25    203    205 302.6   7.1  34196  290.19 0855.17
2009/04/23 11:52:43.3     -95    169     -6    195    196 330.6  -1.8  34190  290.08 0855.17
2009/04/23 11:52:43.4     -13    219     60    220    229 356.6  15.3  34194  290.16 0855.17
2009/04/23 11:52:43.5     -93    181     18    204    205 332.8   5.2  34194  290.14 0855.17
2009/04/23 11:52:43.6     -38    158     33    163    167 346.4  11.6  34192  290.11 0855.18
2009/04/23 11:52:43.7     -45    129     63    137    150 340.4  27.1  34192  290.13 0855.18
2009/04/23 11:52:43.8     -47    126     41    135    142 339.5  16.8  34194  290.14 0855.18
2009/04/23 11:52:43.9       0     97     26     98    102 359.6  15.3  34192  290.11 0855.18
2009/04/23 11:52:44.0      15     31     56     35     66  25.4  64.7  34200  290.26 0855.18
2009/04/23 11:52:44.1      22     22     35     32     47  45.0  52.2  34202  290.30 0855.18
2009/04/23 11:52:44.2     -72     31     89     79    119 293.5  53.7  34202  290.30 0855.18
2009/04/23 11:52:44.3    -116      1     58    117    130 270.9  27.8  34198  290.21 0855.18
2009/04/23 11:52:44.4    -112     -8     42    113    120 265.7  21.0  34200  290.26 0855.18
2009/04/23 11:52:44.5    -116   -103      4    156    157 228.6   1.6  34192  290.13 0855.18
2009/04/23 11:52:44.6     -83   -100     30    131    135 219.6  13.2  34194  290.16 0855.18
2009/04/23 11:52:44.7     -90   -109     27    142    145 219.6  11.1  34196  290.18 0855.18
2009/04/23 11:52:44.8    -155    -98     15    184    185 237.5   4.9  34194  290.16 0855.18
2009/04/23 11:52:44.9    -158    -69    -23    173    175 246.5  -7.7  34196  290.19 0855.18
2009/04/23 11:52:45.0    -148    -32     23    152    154 257.6   8.9  34200  290.25 0855.18
2009/04/23 11:52:45.1    -119     25    -11    122    123 281.9  -5.6  34202  290.28 0855.18
2009/04/23 11:52:45.2    -131      5     -2    132    133 272.6  -1.3  34206  290.35 0855.18
2009/04/23 11:52:45.4    -207     -9    -22    208    210 267.4  -6.2  34202  290.30 0855.18
2009/04/23 11:52:45.5    -183    -48     -5    190    191 255.2  -1.8  34202  290.28 0855.18
2009/04/23 11:52:45.6    -158    -37     49    163    171 256.7  16.8  34198  290.21 0855.18
2009/04/23 11:52:45.7    -160    -59     31    171    174 249.8  10.3  34200  290.26 0855.17
2009/04/23 11:52:45.8    -164     22     78    166    183 277.7  27.1  34202  290.28 0855.17
2009/04/23 11:52:45.9    -158    149     63    218    228 313.2  16.3  34200  290.25 0855.17
2009/04/23 11:52:46.0     -99    141      5    173    174 325.0   1.8  34186  290.01 0855.17
2009/04/23 11:52:46.1     -81    101     -2    130    131 321.3  -1.2  34186  290.01 0855.17
2009/04/23 11:52:46.2     -85      7     48     86     98 275.2  31.4  34194  290.16 0855.17
2009/04/23 11:52:46.3     -90     -1      8     91     92 269.2   5.4  34196  290.18 0855.17
2009/04/23 11:52:46.4     -52     33    -42     62     74 302.4 -40.9  34198  290.21 0855.17
2009/04/23 11:52:46.5     -29     45     67     54     86 327.4  56.9  34200  290.25 0855.17
2009/04/23 11:52:46.6     -26      8     93     28     97 288.6  82.3  34206  290.35 0855.17
2009/04/23 11:52:46.7     -14    -12     69     19     71 228.7  84.8  34206  290.35 0855.17
2009/04/23 11:52:46.8     -23    -17     70     29     75 234.0  77.0  34208  290.38 0855.17
2009/04/23 11:52:46.9     -35    -53     66     64     91 213.4  50.1  34206  290.36 0855.17
2009/04/23 11:52:47.0      14   -111     81    112    138 172.4  39.5  34200  290.26 0855.17
2009/04/23 11:52:47.1      19    -99    100    101    142 168.9  50.0  34202  290.28 0855.17
2009/04/23 11:52:47.2     -10   -131    112    132    173 184.5  44.8  34204  290.33 0855.17
2009/04/23 11:52:47.3     -11   -156     94    157    182 184.4  34.0  34198  290.21 0855.17
2009/04/23 11:52:47.4      78   -236    113    249    273 161.7  26.2  34194  290.14 0855.17
2009/04/23 11:52:47.5      94   -268    140    285    317 160.6  28.1  34188  290.05 0855.17
2009/04/23 11:52:47.6     134   -264    148    297    331 153.0  28.5  34190  290.07 0855.17
2009/04/23 11:52:47.7     159   -218    174    270    321 143.9  35.7  34198  290.22 0855.17
2009/04/23 11:52:47.8     236   -190    157    304    342 128.9  29.4  34198  290.23 0855.17
2009/04/23 11:52:47.9     212   -204    160    295    335 133.8  30.9  34196  290.17 0855.17
2009/04/23 11:52:48.0     254   -186    136    316    344 126.2  24.9  34198  290.20 0855.17
2009/04/23 11:52:48.1     206   -272    100    342    357 142.8  16.3  34194  290.16 0855.17
2009/04/23 11:52:48.2     175   -283     92    333    346 148.3  15.6  34192  290.11 0855.17
2009/04/23 11:52:48.3     173   -297    123    344    365 149.8  20.4  34186  290.01 0855.17
2009/04/23 11:52:48.4     164   -341     91    379    390 154.3  13.6  34188  290.04 0855.17
2009/04/23 11:52:48.5     135   -335    120    362    382 158.1  18.5  34188  290.03 0855.17
2009/04/23 11:52:48.6     154   -307    140    344    371 153.4  23.4  34188  290.04 0855.17
2009/04/23 11:52:48.7     197   -355    143    407    432 151.0  19.4  34184  289.99 0855.17
2009/04/23 11:52:48.8     100   -302    132    319    345 161.7  23.7  34178  289.89 0855.17
2009/04/23 11:52:48.9     124   -257    148    286    322 154.1  29.6  34182  289.93 0855.17
2009/04/23 11:52:49.0     168   -324    127    365    387 152.6  19.2  34184  289.98 0855.17
2009/04/23 11:52:49.1     127   -191    176    230    289 146.4  41.6  34178  289.88 0855.17
2009/04/23 11:52:49.2     238   -246    111    343    361 135.9  17.9  34196  290.18 0855.17
2009/04/23 11:52:49.3      84   -396     56    405    409 168.0   7.9  34210  290.43 0855.17
2009/04/23 11:52:49.4      88   -334    115    346    365 165.2  18.5  34210  290.42 0855.17
2009/04/23 11:52:49.5      63   -261    156    269    310 166.4  32.9  34212  290.44 0855.17
2009/04/23 11:52:49.6      78   -330    131    340    364 166.6  22.2  34206  290.35 0855.17
2009/04/23 11:52:49.7      79   -357     99    366    380 167.5  15.1  34206  290.35 0855.17
2009/04/23 11:52:49.8      48   -361    101    365    379 172.4  15.6  34204  290.32 0855.17
2009/04/23 11:52:49.9      15   -367     98    368    381 177.7  15.0  34204  290.32 0855.17
2009/04/23 11:52:50.0     -18   -360     77    361    370 183.0  12.1  34198  290.21 0855.17
2009/04/23 11:52:50.1       7   -301    115    302    323 178.6  21.8  34182  289.93 0855.17
2009/04/23 11:52:50.2     -18   -274    118    275    299 183.8  24.9  34174  289.81 0855.17
2009/04/23 11:52:50.3      11   -256    178    257    312 177.4  38.0  34178  289.86 0855.17
2009/04/23 11:52:50.4      16   -298    162    299    340 176.9  30.9  34178  289.88 0855.17
2009/04/23 11:52:50.5      -7   -406    151    407    434 181.1  21.3  34186  290.02 0855.17
2009/04/23 11:52:50.6     -94   -376    109    388    404 194.1  15.8  34198  290.21 0855.17
2009/04/23 11:52:50.7    -101   -371     94    385    397 195.3  13.8  34198  290.21 0855.15
2009/04/23 11:52:50.8     -85   -286    172    299    344 196.7  32.6  34178  289.86 0855.15
2009/04/23 11:52:50.9     -63   -235    149    244    285 195.2  34.4  34178  289.86 0855.15
2009/04/23 11:52:51.0     -22   -325    124    326    348 184.0  21.8  34176  289.84 0855.15
2009/04/23 11:52:51.1     -25   -391     92    392    403 183.7  13.2  34172  289.77 0855.15
2009/04/23 11:52:51.2     -35   -326    153    328    361 186.2  27.0  34182  289.96 0855.15
2009/04/23 11:52:51.3     -39   -285    119    288    311 187.8  23.6  34180  289.92 0855.15
2009/04/23 11:52:51.4     -32   -258     75    261    272 187.2  16.0  34178  289.86 0855.15
2009/04/23 11:52:51.5     -27   -177    177    180    252 188.7  49.9  34172  289.79 0855.15
2009/04/23 11:52:51.6     -80   -253    217    266    343 197.6  43.6  34186  290.00 0855.15
2009/04/23 11:52:51.7     -89   -320     96    333    347 195.5  16.1  34178  289.87 0855.15
2009/04/23 11:52:51.8     -72   -342     22    350    351 192.0   3.6  34182  289.93 0855.15
2009/04/23 11:52:51.9     -62   -319     93    326    340 191.1  16.0  34182  289.93 0855.15
2009/04/23 11:52:52.0     -90   -345     59    357    362 194.6   9.4  34184  289.98 0855.15
2009/04/23 11:52:52.1     -93   -347     34    360    362 195.0   5.4  34186  290.01 0855.15
2009/04/23 11:52:52.2     -19   -334     59    335    341 183.4  10.0  34182  289.96 0855.15
2009/04/23 11:52:52.3     -48   -342    -18    346    347 188.0  -3.1  34184  289.98 0855.15
2009/04/23 11:52:52.4     -89   -335      4    347    348 194.9   0.8  34188  290.03 0855.15
2009/04/23 11:52:52.5     -51   -301     26    306    308 189.8   4.9  34184  289.97 0855.15
2009/04/23 11:52:52.6     -81   -258     28    271    273 197.6   5.9  34182  289.95 0855.15
2009/04/23 11:52:52.7     -82   -269     39    282    285 196.9   8.0  34180  289.92 0855.12
2009/04/23 11:52:52.8    -106   -266     63    287    294 201.8  12.4  34182  289.95 0855.12
2009/04/23 11:52:52.9     -99   -330    -12    345    346 196.7  -2.1  34182  289.96 0855.12
2009/04/23 11:52:53.0     -84   -325    -32    336    338 194.5  -5.6  34182  289.96 0855.12
2009/04/23 11:52:53.1     -96   -259    -15    277    278 200.3  -3.1  34186  290.02 0855.12
2009/04/23 11:52:53.2     -50   -273     64    278    286 190.5  13.1  34182  289.95 0855.12
2009/04/23 11:52:53.3      78   -283     33    294    296 164.6   6.5  34178  289.88 0855.12
2009/04/23 11:52:53.4      24   -269     13    271    272 174.9   2.8  34178  289.88 0855.12
2009/04/23 11:52:53.5       4   -267     52    268    274 179.1  11.0  34178  289.88 0855.12
2009/04/23 11:52:53.6      51   -241    104    247    268 168.0  24.1  34184  289.97 0855.12
2009/04/23 11:52:53.7      -9   -203     95    204    225 182.6  27.1  34184  289.99 0855.12
2009/04/23 11:52:53.8     -93   -197     27    219    221 205.3   7.1  34192  290.13 0855.12
2009/04/23 11:52:53.9     -81   -162     79    182    198 206.5  24.9  34188  290.06 0855.12
2009/04/23 11:52:54.0     -89   -160     92    184    205 209.2  28.5  34192  290.13 0855.12
2009/04/23 11:52:54.1     -72   -180    119    195    228 201.9  34.4  34194  290.14 0855.12
2009/04/23 11:52:54.2     -86   -205    148    223    267 202.7  36.5  34194  290.14 0855.12
2009/04/23 11:52:54.3     -56   -187    150    196    246 196.7  41.4  34192  290.13 0855.12
2009/04/23 11:52:54.4     -93   -182    128    205    241 207.0  35.2  34194  290.14 0855.12
2009/04/23 11:52:54.5    -108   -188    101    218    240 209.9  26.4  34194  290.14 0855.12
2009/04/23 11:52:54.6    -154   -200    122    253    280 217.8  27.3  34204  290.31 0855.12
2009/04/23 11:52:54.7    -103   -138     64    173    184 216.7  21.0  34204  290.31 0855.11
2009/04/23 11:52:54.8      31   -114     74    119    140 164.8  35.5  34190  290.08 0855.11
2009/04/23 11:52:54.9      76   -120     73    143    160 147.5  29.3  34182  289.94 0855.11
2009/04/23 11:52:55.0      43    -56     92     71    116 142.2  58.5  34184  289.97 0855.11
2009/04/23 11:52:55.1      34    -91     90     98    133 159.1  47.9  34182  289.96 0855.11
2009/04/23 11:52:55.2     -41   -202     40    207    212 191.5  11.1  34182  289.94 0855.11
2009/04/23 11:52:55.3     -70   -198     41    211    215 199.6  11.0  34186  290.02 0855.11
2009/04/23 11:52:55.4      33   -261    -10    264    265 172.8  -2.2  34188  290.05 0855.11
2009/04/23 11:52:55.5      -4   -294      4    295    296 180.9   0.8  34190  290.07 0855.11
2009/04/23 11:52:55.6       8   -305      5    306    307 178.4   1.0  34184  289.98 0855.11
2009/04/23 11:52:55.7      40   -262     42    266    270 171.3   9.0  34190  290.07 0855.11
2009/04/23 11:52:55.8      64   -221     11    231    232 163.7   2.9  34192  290.13 0855.11
2009/04/23 11:52:55.9      40   -213     19    217    218 169.3   5.2  34192  290.13 0855.11
2009/04/23 11:52:56.0       4   -216     36    217    220 178.9   9.5  34188  290.06 0855.11
2009/04/23 11:52:56.1     -25   -213     15    215    216 186.9   4.2  34188  290.04 0855.11
2009/04/23 11:52:56.2      -1   -198    -18    199    200 180.5  -5.4  34190  290.08 0855.11
2009/04/23 11:52:56.3      60   -203     -8    212    213 163.3  -2.2  34190  290.08 0855.11
2009/04/23 11:52:56.4      13   -206     19    207    208 176.4   5.4  34190  290.09 0855.11
2009/04/23 11:52:56.5     -60   -296     14    303    304 191.6   2.8  34186  290.00 0855.11
2009/04/23 11:52:56.6     -52   -310     32    315    317 189.6   5.8  34182  289.93 0855.11
2009/04/23 11:52:56.7    -110   -309      9    329    330 199.7   1.7  34180  289.91 0855.12
2009/04/23 11:52:56.8    -117   -257    -20    283    284 204.5  -4.1  34176  289.85 0855.12
2009/04/23 11:52:56.9    -132   -218    -14    255    256 211.2  -3.1  34182  289.93 0855.12
2009/04/23 11:52:57.0    -132   -179     40    223    227 216.5  10.3  34178  289.89 0855.12
2009/04/23 11:52:57.1    -124   -119     50    172    180 226.2  16.3  34180  289.92 0855.12
2009/04/23 11:52:57.2     -60    -95     75    113    135 212.5  36.5  34182  289.94 0855.12
2009/04/23 11:52:57.3     -33    -88    105     95    141 200.9  52.7  34182  289.94 0855.12
2009/04/23 11:52:57.4     -40   -116     66    123    139 199.2  30.8  34182  289.94 0855.12
2009/04/23 11:52:57.5     -54   -191     31    199    202 196.0   9.0  34178  289.89 0855.12
2009/04/23 11:52:57.6     -68   -227     46    237    242 196.7  11.0  34182  289.93 0855.12
2009/04/23 11:52:57.7     -85   -255     28    269    271 198.5   6.0  34180  289.92 0855.12
2009/04/23 11:52:57.8     -85   -252     13    267    268 198.7   2.9  34186  290.00 0855.12
2009/04/23 11:52:57.9     -95   -276     51    293    298 199.1  10.0  34186  290.00 0855.12
2009/04/23 11:52:58.0     -46   -348     18    352    353 187.6   3.0  34182  289.96 0855.12
2009/04/23 11:52:58.1     -32   -355    -31    357    359 185.2  -5.1  34184  289.98 0855.12
2009/04/23 11:52:58.2     -38   -391     51    393    397 185.6   7.5  34174  289.82 0855.12
2009/04/23 11:52:58.3      -3   -367     61    368    374 180.6   9.4  34182  289.93 0855.12
2009/04/23 11:52:58.4     -16   -263     93    264    280 183.6  19.4  34184  289.97 0855.12
2009/04/23 11:52:58.5       3   -329     89    330    343 179.4  15.2  34182  289.96 0855.12
2009/04/23 11:52:58.6     -30   -203    190    206    280 188.5  47.7  34184  289.98 0855.12
2009/04/23 11:52:58.7     -69   -290    127    299    324 193.4  24.5  34182  289.93 0855.14
2009/04/23 11:52:58.8       5   -363    162    364    398 179.2  25.7  34182  289.93 0855.14
2009/04/23 11:52:58.9     103   -418    158    431    459 166.1  21.0  34182  289.94 0855.14
2009/04/23 11:52:59.0     100   -425     54    437    441 166.7   7.1  34180  289.90 0855.14
2009/04/23 11:52:59.1     207   -441    -19    488    489 154.8  -2.2  34178  289.89 0855.14
2009/04/23 11:52:59.2     227   -439    -24    495    496 152.6  -2.8  34176  289.84 0855.14
2009/04/23 11:52:59.3     168   -623     10    646    647 164.9   0.9  34174  289.81 0855.14
2009/04/23 11:52:59.4     144   -589     42    607    609 166.2   4.0  34172  289.76 0855.14
2009/04/23 11:52:59.5     176   -546    -81    574    580 162.1  -8.1  34176  289.85 0855.14
2009/04/23 11:52:59.6     210   -512     42    554    556 157.7   4.4  34180  289.90 0855.14
2009/04/23 11:52:59.7     162   -476     97    503    513 161.2  11.0  34178  289.88 0855.14
2009/04/23 11:52:59.8     187   -527     52    560    563 160.5   5.3  34176  289.85 0855.14
2009/04/23 11:52:59.9      49   -492    -46    495    498 174.2  -5.4  34168  289.71 0855.14
2009/04/23 11:53:00.0      23   -446   -148    447    470 177.0 -23.5  34166  289.68 0855.14
2009/04/23 11:53:00.1      41   -494    -99    496    506 175.2 -11.3  34178  289.86 0855.14
2009/04/23 11:53:00.2      27   -479   -119    480    495 176.8 -14.0  34180  289.91 0855.14
2009/04/23 11:53:00.3       7   -513    -98    514    524 179.2 -10.8  34160  289.58 0855.14
2009/04/23 11:53:00.4      34   -534    -49    536    539 176.3  -5.3  34172  289.79 0855.14
2009/04/23 11:53:00.5       2   -492      7    493    494 179.7   0.9  34168  289.71 0855.14
2009/04/23 11:53:00.6       0   -483     45    484    487 179.9   5.3  34176  289.84 0855.14
2009/04/23 11:53:00.7     -53   -421    -11    425    426 187.2  -1.6  34174  289.82 0855.14
2009/04/23 11:53:00.8       8   -413     21    414    415 178.9   2.9  34180  289.90 0855.14
2009/04/23 11:53:00.9     -31   -396      6    398    399 184.5   1.0  34178  289.89 0855.14
2009/04/23 11:53:01.0     -20   -401    -22    402    403 182.9  -3.2  34178  289.88 0855.14
2009/04/23 11:53:01.1     -53   -445    -73    449    456 186.8  -9.3  34164  289.65 0855.14
2009/04/23 11:53:01.2      38   -411    -38    413    415 174.6  -5.3  34160  289.56 0855.14
2009/04/23 11:53:01.3      45   -483     25    486    487 174.7   3.0  34162  289.59 0855.14
2009/04/23 11:53:01.4      22   -462     30    463    465 177.2   3.8  34162  289.60 0855.14
2009/04/23 11:53:01.5      42   -497     88    499    507 175.1  10.0  34166  289.66 0855.14
2009/04/23 11:53:01.6       7   -492     -2    493    494 179.1  -0.3  34164  289.64 0855.14
2009/04/23 11:53:01.7       0   -480    -35    481    483 180.1  -4.2  34166  289.66 0855.14
2009/04/23 11:53:01.8       4   -502      8    503    504 179.5   1.0  34166  289.69 0855.14
2009/04/23 11:53:01.9      82   -524     13    531    532 171.1   1.5  34164  289.65 0855.14
2009/04/23 11:53:02.0      -8   -474     61    475    479 181.0   7.4  34162  289.61 0855.14
2009/04/23 11:53:02.1      78   -498     65    505    510 171.1   7.4  34166  289.67 0855.14
2009/04/23 11:53:02.2     139   -562     46    579    581 166.1   4.6  34160  289.58 0855.14
2009/04/23 11:53:02.3     110   -562    -11    573    574 168.9  -1.2  34160  289.56 0855.14
2009/04/23 11:53:02.4     110   -545    -30    556    557 168.6  -3.2  34160  289.57 0855.14
2009/04/23 11:53:02.5      58   -533    -63    537    541 173.8  -6.7  34160  289.58 0855.14
2009/04/23 11:53:02.6      17   -496    -90    497    506 178.0 -10.3  34162  289.59 0855.14
2009/04/23 11:53:02.7      22   -495    -32    496    497 177.4  -3.7  34162  289.59 0855.15
2009/04/23 11:53:02.8     -19   -506     15    507    508 182.2   1.7  34160  289.56 0855.15
2009/04/23 11:53:02.9       4   -508    -15    509    510 179.5  -1.8  34162  289.59 0855.15
2009/04/23 11:53:03.0      -8   -532     10    533    534 180.9   1.1  34162  289.62 0855.15
2009/04/23 11:53:03.1      11   -540     36    541    543 178.8   3.9  34166  289.67 0855.15
2009/04/23 11:53:03.2      20   -457    -33    458    460 177.4  -4.1  34162  289.61 0855.15
2009/04/23 11:53:03.3      10   -509    -66    510    515 178.8  -7.5  34156  289.49 0855.15
2009/04/23 11:53:03.4      30   -496    -13    497    498 176.5  -1.6  34156  289.50 0855.15
2009/04/23 11:53:03.5       7   -483    -35    484    486 179.1  -4.2  34158  289.54 0855.15
2009/04/23 11:53:03.6      14   -451     -9    452    453 178.2  -1.2  34158  289.55 0855.15
2009/04/23 11:53:03.7      34   -450      1    452    453 175.7   0.2  34162  289.60 0855.15
2009/04/23 11:53:03.8      18   -463     48    464    467 177.8   5.9  34164  289.64 0855.15
2009/04/23 11:53:03.9      16   -432     29    433    434 177.8   3.9  34160  289.58 0855.15
2009/04/23 11:53:04.0      35   -452      5    454    455 175.5   0.7  34162  289.61 0855.15
2009/04/23 11:53:04.1      47   -455      8    458    459 174.1   1.1  34160  289.58 0855.15
2009/04/23 11:53:04.2      76   -445      7    452    453 170.2   1.0  34162  289.60 0855.15
2009/04/23 11:53:04.3      28   -431      5    432    433 176.2   0.7  34162  289.61 0855.15
2009/04/23 11:53:04.4      72   -421     20    428    429 170.3   2.8  34160  289.56 0855.15
2009/04/23 11:53:04.5      98   -376    107    389    404 165.4  15.4  34162  289.62 0855.15
2009/04/23 11:53:04.6      68   -403     49    409    412 170.3   6.9  34160  289.58 0855.15
2009/04/23 11:53:04.7      76   -374     21    382    383 168.5   3.3  34162  289.62 0855.14
2009/04/23 11:53:04.8      83   -404     -1    413    414 168.3  -0.3  34166  289.68 0855.14
2009/04/23 11:53:04.9      67   -369    -47    376    380 169.7  -7.2  34166  289.69 0855.14
2009/04/23 11:53:05.0      58   -323    -39    329    332 169.7  -6.9  34172  289.77 0855.14
2009/04/23 11:53:05.1      56   -343      1    348    349 170.7   0.2  34172  289.77 0855.14
2009/04/23 11:53:05.2      58   -366     29    371    373 171.0   4.6  34164  289.64 0855.14
2009/04/23 11:53:05.3      60   -367      5    372    373 170.7   0.8  34160  289.57 0855.14
2009/04/23 11:53:05.4      62   -348     27    354    355 169.8   4.4  34166  289.67 0855.14
2009/04/23 11:53:05.5      41   -341     49    344    348 173.0   8.2  34164  289.64 0855.14
2009/04/23 11:53:05.6      73   -330     46    339    343 167.5   7.8  34164  289.64 0855.14
2009/04/23 11:53:05.7      69   -317     16    325    326 167.7   2.9  34166  289.68 0855.14
2009/04/23 11:53:05.8      76   -310     24    320    321 166.2   4.3  34166  289.68 0855.14
2009/04/23 11:53:05.9      71   -263      0    273    274 164.9   0.0  34166  289.66 0855.14
2009/04/23 11:53:06.0      40   -259    -35    263    266 171.1  -7.7  34170  289.75 0855.14
2009/04/23 11:53:06.1      21   -263    -10    264    265 175.3  -2.2  34176  289.85 0855.14
2009/04/23 11:53:06.2      58   -265     -6    272    273 167.5  -1.3  34170  289.75 0855.14
2009/04/23 11:53:06.3      49   -243     -9    249    250 168.4  -2.2  34170  289.73 0855.14
2009/04/23 11:53:06.4      69   -274    -18    283    284 165.7  -3.7  34178  289.88 0855.14
2009/04/23 11:53:06.5      56   -267    -23    274    276 168.0  -4.9  34182  289.93 0855.14
2009/04/23 11:53:06.6      43   -277    -10    281    282 171.1  -2.2  34182  289.93 0855.14
2009/04/23 11:53:06.7      32   -256      9    259    260 172.7   2.1  34174  289.80 0855.14
2009/04/23 11:53:06.8      38   -248     16    252    253 171.1   3.8  34174  289.80 0855.14
2009/04/23 11:53:06.9      50   -244     12    250    251 168.4   2.8  34174  289.81 0855.14
2009/04/23 11:53:07.0      25   -271     18    273    274 174.7   3.8  34176  289.85 0855.14
2009/04/23 11:53:07.1      48   -280     -1    285    286 170.3  -0.3  34178  289.86 0855.14
2009/04/23 11:53:07.2      51   -301      5    306    307 170.2   1.0  34178  289.86 0855.14
2009/04/23 11:53:07.3      56   -327    -17    332    333 170.2  -3.0  34180  289.91 0855.14
2009/04/23 11:53:07.4      58   -316     -9    322    323 169.5  -1.7  34178  289.88 0855.14
2009/04/23 11:53:07.5      70   -309    -33    318    320 167.1  -6.1  34178  289.86 0855.14
2009/04/23 11:53:07.6      51   -296     15    301    302 170.2   2.9  34178  289.88 0855.14
2009/04/23 11:53:07.7      41   -235     28    239    241 170.0   6.9  34180  289.92 0855.14
2009/04/23 11:53:07.8      10   -227     18    228    229 177.3   4.6  34172  289.79 0855.14
2009/04/23 11:53:07.9       0   -213     43    214    219 179.8  11.4  34176  289.85 0855.14
2009/04/23 11:53:08.0      -6   -229     51    230    236 181.6  12.6  34178  289.88 0855.14
2009/04/23 11:53:08.1     -34   -266     40    269    272 187.3   8.5  34182  289.93 0855.14
2009/04/23 11:53:08.2      73   -327     40    336    339 167.3   6.8  34180  289.91 0855.14
2009/04/23 11:53:08.3      62   -329     89    335    347 169.2  14.9  34182  289.94 0855.14
2009/04/23 11:53:08.4      24   -363     57    364    369 176.1   8.9  34184  289.99 0855.14
2009/04/23 11:53:08.5      13   -298    107    299    317 177.5  20.6  34186  290.00 0855.14
2009/04/23 11:53:08.6      17   -280    113    281    302 176.4  23.1  34186  290.02 0855.14
2009/04/23 11:53:08.7      87   -239     42    255    259 159.9   9.5  34186  290.00 0855.10
2009/04/23 11:53:08.8      24   -211     90    213    231 173.5  24.1  34190  290.09 0855.10
2009/04/23 11:53:08.9       8   -167     40    168    173 177.1  13.7  34186  290.01 0855.10
2009/04/23 11:53:09.0       0   -118     64    119    135 180.0  30.8  34188  290.04 0855.10
2009/04/23 11:53:09.1      73   -146     56    164    174 153.3  18.9  34182  289.94 0855.10
2009/04/23 11:53:09.2       0   -154     64    155    167 180.4  23.6  34182  289.96 0855.10
2009/04/23 11:53:09.3     -48   -146     45    154    161 198.3  16.3  34188  290.04 0855.10
2009/04/23 11:53:09.4     -14   -143     60    144    156 185.8  23.6  34186  290.02 0855.10
2009/04/23 11:53:09.5       0   -108     52    109    120 179.5  27.2  34186  290.01 0855.10
2009/04/23 11:53:09.6     -17   -127     49    129    137 187.6  22.0  34188  290.04 0855.10
2009/04/23 11:53:09.7     -35   -102     -4    109    110 199.2  -2.2  34182  289.94 0855.10
2009/04/23 11:53:09.8     -31    -82    -11     88     89 200.9  -7.2  34182  289.96 0855.10
2009/04/23 11:53:09.9     -10    -43    -24     45     51 193.4 -34.7  34184  289.97 0855.10
2009/04/23 11:53:10.0      10    -33    -14     35     37 161.7 -25.4  34182  289.96 0855.10
2009/04/23 11:53:10.1      22    -47    -10     53     55 154.6 -11.3  34184  289.99 0855.10
2009/04/23 11:53:10.2      49    -49     13     70     72 135.0  11.1  34186  290.01 0855.10
2009/04/23 11:53:10.3      34    -54     12     65     67 147.5  11.1  34192  290.11 0855.10
2009/04/23 11:53:10.4      -7    -84      8     85     86 184.9   5.4  34192  290.13 0855.10
2009/04/23 11:53:10.5      17    -72     -1     75     76 166.6  -1.3  34188  290.04 0855.10
2009/04/23 11:53:10.6      50    -78      4     93     94 147.4   2.9  34182  289.94 0855.10
2009/04/23 11:53:10.7     130    -34    -17    135    137 105.0  -7.3  34182  289.94 0855.10
2009/04/23 11:53:10.8     121   -100    -71    158    173 129.6 -30.1  34178  289.87 0855.10
2009/04/23 11:53:10.9     147   -211    -83    258    271 145.0 -23.3  34178  289.88 0855.10
2009/04/23 11:53:11.0     114   -212     28    241    243 151.7   6.7  34176  289.83 0855.10
2009/04/23 11:53:11.1     137   -162    -14    213    214 139.9  -3.9  34174  289.82 0855.10
2009/04/23 11:53:11.2     141    -96    -16    171    172 124.4  -5.4  34176  289.84 0855.10
2009/04/23 11:53:11.3      89    -43    -41     99    107 115.8 -27.5  34178  289.87 0855.10
2009/04/23 11:53:11.4      66    -77    -38    102    108 139.5 -25.4  34176  289.85 0855.10
2009/04/23 11:53:11.5      48    -76     11     91     92 147.5   6.9  34174  289.80 0855.10
2009/04/23 11:53:11.7       7    -94     36     95    101 175.5  21.5  34176  289.84 0855.10
2009/04/23 11:53:11.7      81   -149     78    170    187 151.3  26.6  34174  289.80 0855.11
2009/04/23 11:53:11.9      92   -186     81    208    223 153.5  22.3  34176  289.85 0855.11
2009/04/23 11:53:12.0      92   -179     19    202    203 152.6   5.4  34176  289.85 0855.11
2009/04/23 11:53:12.1     108   -136    -11    175    176 141.5  -3.9  34174  289.80 0855.11
2009/04/23 11:53:12.2      70   -139     42    156    162 153.3  15.3  34176  289.84 0855.11
2009/04/23 11:53:12.3      78   -183     71    200    212 156.8  20.2  34174  289.82 0855.11
2009/04/23 11:53:12.4      84   -139     13    163    164 148.8   4.9  34176  289.85 0855.11
2009/04/23 11:53:12.5      87   -136     35    162    166 147.4  12.4  34178  289.87 0855.11
2009/04/23 11:53:12.6      65   -173     26    185    187 159.3   8.2  34176  289.85 0855.11
2009/04/23 11:53:12.7      75   -145      7    164    165 152.6   2.5  34178  289.87 0855.11
2009/04/23 11:53:12.8      54   -153      1    163    164 160.6   0.5  34176  289.85 0855.11
2009/04/23 11:53:12.9      21   -152     43    154    161 172.0  15.8  34180  289.92 0855.11
2009/04/23 11:53:13.0      21   -142     79    144    164 171.5  31.4  34182  289.94 0855.11
2009/04/23 11:53:13.1       8   -166    117    167    203 177.1  38.4  34184  289.99 0855.11
2009/04/23 11:53:13.2       1   -188    144    189    237 179.5  41.2  34180  289.91 0855.11
2009/04/23 11:53:13.3     -13   -145    166    146    221 185.3  54.2  34182  289.96 0855.11
2009/04/23 11:53:13.4       8   -115    126    116    171 175.6  52.5  34178  289.87 0855.11
2009/04/23 11:53:13.5     -21   -168    106    170    200 187.3  35.0  34178  289.87 0855.11
2009/04/23 11:53:13.6       0   -186    147    187    237 179.8  42.2  34176  289.85 0855.11
2009/04/23 11:53:13.7     -49   -208    183    214    281 193.4  44.9  34176  289.83 0855.11
2009/04/23 11:53:13.8     -67   -194    185    206    276 199.2  46.6  34176  289.85 0855.12
2009/04/23 11:53:13.9     -85   -196    177    214    277 203.4  43.7  34176  289.83 0855.12
2009/04/23 11:53:14.0     -93   -227    149    246    287 202.3  34.2  34178  289.88 0855.12
2009/04/23 11:53:14.1     -70   -251    178    261    315 195.6  37.6  34174  289.80 0855.12
2009/04/23 11:53:14.2     -54   -208    145    215    259 194.7  37.4  34178  289.88 0855.12
2009/04/23 11:53:14.3     -77   -178    175    194    261 203.4  46.9  34178  289.86 0855.12
2009/04/23 11:53:14.4    -102   -209    162    233    283 206.1  38.0  34178  289.88 0855.12
2009/04/23 11:53:14.5     -88   -146     79    171    188 211.0  27.0  34178  289.87 0855.12
2009/04/23 11:53:14.6     -21   -130    112    132    173 189.3  44.8  34180  289.92 0855.12
2009/04/23 11:53:14.7       7    -91    202     92    221 175.5  74.0  34186  290.01 0855.12
2009/04/23 11:53:14.8     130    -26    126    133    183 101.5  48.5  34188  290.04 0855.12
2009/04/23 11:53:14.9     131     83    156    156    220  57.6  50.1  34190  290.08 0855.12
2009/04/23 11:53:15.0      76     84    226    114    253  41.9  71.4  34196  290.19 0855.12
2009/04/23 11:53:15.1      87    -12    121     88    149  98.4  60.5  34194  290.16 0855.12
2009/04/23 11:53:15.2      13    -44     61     47     77 163.1  57.5  34196  290.18 0855.12
2009/04/23 11:53:15.3      40    -75    101     86    132 151.9  55.4  34186  290.02 0855.12
2009/04/23 11:53:15.4       2   -158    166    159    229 179.1  51.4  34180  289.92 0855.12
2009/04/23 11:53:15.5      63   -207    145    217    260 163.1  36.7  34182  289.93 0855.12
2009/04/23 11:53:15.6      83   -158     70    179    192 152.1  22.5  34178  289.87 0855.12
2009/04/23 11:53:15.7     115   -155     38    194    198 143.5  11.1  34180  289.91 0855.12
2009/04/23 11:53:15.8     113    -93    -18    147    149 129.5  -7.3  34180  289.91 0855.14
2009/04/23 11:53:15.9      46    -86     44     98    107 151.9  26.2  34180  289.91 0855.14
2009/04/23 11:53:16.0      30   -129     78    133    154 166.6  33.5  34176  289.85 0855.14
2009/04/23 11:53:16.1      75   -154     52    172    180 153.9  17.1  34178  289.89 0855.14
2009/04/23 11:53:16.2      75   -222     47    235    240 161.3  11.4  34180  289.92 0855.14
2009/04/23 11:53:16.3     -11   -237     43    238    242 182.7  10.3  34178  289.86 0855.14
2009/04/23 11:53:16.4     -20   -282    107    283    302 184.2  21.7  34180  289.92 0855.14
2009/04/23 11:53:16.5     -94   -291     -6    306    307 198.0  -1.3  34178  289.86 0855.14
2009/04/23 11:53:16.6      22   -299     22    300    301 175.6   4.4  34180  289.92 0855.14
2009/04/23 11:53:16.7       0   -239    -13    240    241 180.1  -3.1  34178  289.88 0855.14
2009/04/23 11:53:16.8      27   -202    125    204    239 172.2  34.4  34180  289.91 0855.14
2009/04/23 11:53:16.9      29   -193     99    196    219 171.3  29.1  34180  289.92 0855.14
2009/04/23 11:53:17.0      86   -198     77    217    231 156.4  19.6  34180  289.91 0855.14
2009/04/23 11:53:17.1      54   -208     79    216    229 165.3  20.9  34178  289.89 0855.14
2009/04/23 11:53:17.2      76   -206    140    220    260 159.5  35.5  34178  289.88 0855.14
2009/04/23 11:53:17.3      52   -218    167    225    280 166.4  40.4  34180  289.92 0855.14
2009/04/23 11:53:17.4      -9   -178    113    179    211 183.1  35.5  34182  289.94 0855.14
2009/04/23 11:53:17.5      43   -145    140    152    206 163.5  47.7  34184  289.99 0855.14
2009/04/23 11:53:17.6      27   -185    109    188    217 171.5  32.7  34182  289.94 0855.14
2009/04/23 11:53:17.7      26   -190     76    192    206 172.2  23.0  34178  289.89 0855.14
2009/04/23 11:53:17.8      29   -142     97    146    175 168.4  36.5  34180  289.91 0855.14
2009/04/23 11:53:17.9      33   -141     77    145    164 166.6  30.3  34178  289.89 0855.14
2009/04/23 11:53:18.0      58   -128    -13    141    142 155.5  -5.6  34182  289.94 0855.14
2009/04/23 11:53:18.1     -19   -167     30    169    172 186.7  10.1  34180  289.92 0855.14
2009/04/23 11:53:18.2     -10   -188     46    189    195 183.1  13.7  34180  289.92 0855.14
2009/04/23 11:53:18.3      42   -226      0    231    232 169.3   0.2  34184  289.99 0855.14
2009/04/23 11:53:18.4      54   -220      3    227    228 166.0   0.8  34184  289.97 0855.14
2009/04/23 11:53:18.5     180   -203    -10    272    273 138.5  -2.2  34188  290.03 0855.14
2009/04/23 11:53:18.6      83   -208     -6    225    226 158.2  -1.6  34188  290.04 0855.14
2009/04/23 11:53:18.7      36   -215     14    219    220 170.4   3.8  34190  290.09 0855.14
2009/04/23 11:53:18.8      55   -169    -49    178    185 161.7 -15.5  34190  290.09 0855.14
2009/04/23 11:53:18.9      94   -156    -53    183    190 149.0 -21.0  34186  290.01 0855.14
2009/04/23 11:53:19.0     105   -154    -16    187    188 145.5  -5.2  34186  290.02 0855.14
2009/04/23 11:53:19.1     -12   -220     30    221    224 183.1   7.8  34190  290.08 0855.14
2009/04/23 11:53:19.2     -60   -248    -20    256    257 193.6  -4.6  34184  289.98 0855.14
2009/04/23 11:53:19.3     -19   -259     24    260    262 184.4   5.4  34188  290.05 0855.14
2009/04/23 11:53:19.4     -75   -262     11    273    274 196.0   2.3  34190  290.09 0855.14
2009/04/23 11:53:19.5     -62   -233      7    242    243 195.1   1.8  34188  290.03 0855.14
2009/04/23 11:53:19.6     -65   -242    -59    251    258 195.1 -13.3  34188  290.03 0855.14
2009/04/23 11:53:19.7     -61   -204     -8    214    215 196.7  -2.2  34184  289.99 0855.14
2009/04/23 11:53:19.8     -65   -213      0    223    224 197.2   0.2  34184  289.99 0855.12
2009/04/23 11:53:19.9     -36   -209    -11    213    214 190.0  -3.1  34186  290.02 0855.12
2009/04/23 11:53:20.0     -20   -202     -7    204    205 185.8  -2.2  34188  290.04 0855.12
2009/04/23 11:53:20.1     -25   -186     25    188    190 187.8   7.8  34190  290.08 0855.12
2009/04/23 11:53:20.2     -39   -171      3    176    177 192.9   1.0  34188  290.06 0855.12
2009/04/23 11:53:20.3     -36   -175     -8    179    180 191.8  -2.8  34186  290.02 0855.12
2009/04/23 11:53:20.4     -31   -228      3    231    232 187.8   0.8  34188  290.04 0855.12
2009/04/23 11:53:20.5       8   -293    -32    294    296 178.4  -6.2  34182  289.95 0855.12
2009/04/23 11:53:20.6      38   -281    -48    284    289 172.2  -9.6  34186  290.00 0855.12
2009/04/23 11:53:20.7      19   -247    -48    248    253 175.5 -11.1  34182  289.95 0855.12
2009/04/23 11:53:20.8      32   -260    -34    263    266 172.8  -7.5  34182  289.95 0855.12
2009/04/23 11:53:20.9      31   -286    -90    288    302 173.8 -17.5  34186  290.00 0855.12
2009/04/23 11:53:21.0      34   -251    -86    254    269 172.2 -18.7  34186  290.00 0855.12
2009/04/23 11:53:21.1      67   -279    -93    287    302 166.4 -18.1  34180  289.92 0855.12
2009/04/23 11:53:21.2     184   -289    -41    343    346 147.5  -6.9  34182  289.93 0855.12
2009/04/23 11:53:21.3     233   -253    -27    345    347 137.4  -4.6  34178  289.86 0855.12
2009/04/23 11:53:21.4     187   -250     -3    313    314 143.3  -0.7  34176  289.85 0855.12
2009/04/23 11:53:21.5     206   -294    -84    360    370 144.9 -13.3  34180  289.91 0855.12
2009/04/23 11:53:21.6     162   -354   -131    390    411 155.4 -23.5  34178  289.87 0855.12
2009/04/23 11:53:21.7      53   -301   -142    306    337 170.0 -31.3  34174  289.81 0855.12
2009/04/23 11:53:21.8      70   -361   -151    368    397 169.0 -28.0  34164  289.65 0855.10
2009/04/23 11:53:21.9     112   -358   -141    376    401 162.6 -25.8  34168  289.72 0855.10
2009/04/23 11:53:22.0     101   -365   -123    379    398 164.5 -23.2  34170  289.74 0855.10
2009/04/23 11:53:22.1      90   -309    -91    322    334 163.7 -20.4  34172  289.76 0855.10
2009/04/23 11:53:22.2      52   -258    -99    264    281 168.5 -25.7  34172  289.78 0855.10
2009/04/23 11:53:22.3      79   -232    -80    246    258 161.1 -23.3  34172  289.78 0855.10
2009/04/23 11:53:22.4      30   -284    -44    286    290 173.8  -8.8  34180  289.90 0855.10
2009/04/23 11:53:22.5       4   -269    -64    270    278 179.0 -13.4  34180  289.90 0855.10
2009/04/23 11:53:22.6      84   -293     32    305    307 164.0   6.1  34172  289.78 0855.10
2009/04/23 11:53:22.7     -24   -264    -84    266    279 185.4 -17.5  34184  289.98 0855.10
2009/04/23 11:53:22.8      -7   -358    -78    359    368 181.2 -12.3  34184  289.98 0855.10
2009/04/23 11:53:22.9      66   -336    -87    343    354 168.9 -14.3  34168  289.71 0855.10
2009/04/23 11:53:23.0     131   -266    -89    297    311 153.7 -16.8  34162  289.59 0855.10
2009/04/23 11:53:23.1      77   -220    -83    234    248 160.6 -24.4  34154  289.47 0855.10
2009/04/23 11:53:23.2      39   -257    -66    260    269 171.3 -14.3  34168  289.71 0855.10
2009/04/23 11:53:23.3      71   -269    -99    279    297 165.1 -19.6  34164  289.64 0855.10
2009/04/23 11:53:23.4       4   -269   -110    270    291 179.0 -27.5  34180  289.92 0855.10
2009/04/23 11:53:23.5      17   -282    -66    283    291 176.5 -13.2  34188  290.05 0855.10
2009/04/23 11:53:23.6     -47   -312   -148    316    348 188.7 -31.5  34186  290.01 0855.10
2009/04/23 11:53:23.7      29   -317   -140    319    348 174.7 -29.6  34168  289.71 0855.10
2009/04/23 11:53:23.8      73   -308   -112    317    336 166.6 -24.6  34168  289.71 0855.12
2009/04/23 11:53:23.9      36   -289   -132    292    320 172.9 -30.3  34168  289.71 0855.12
2009/04/23 11:53:24.0      47   -233    -97    238    257 168.5 -27.5  34168  289.70 0855.12
2009/04/23 11:53:24.1      78   -204    -85    219    234 159.1 -26.7  34162  289.60 0855.12
2009/04/23 11:53:24.2      23   -197    -57    199    207 173.1 -20.7  34160  289.58 0855.12
2009/04/23 11:53:24.3     -39   -185    -36    190    194 192.0 -10.9  34188  290.04 0855.12
2009/04/23 11:53:24.4      12   -155    -44    156    162 175.5 -20.7  34188  290.06 0855.12
2009/04/23 11:53:24.5     -19   -142    -40    144    150 187.6 -15.5  34200  290.26 0855.12
2009/04/23 11:53:24.6      43   -178    -69    184    196 166.2 -25.9  34188  290.04 0855.12
2009/04/23 11:53:24.7      29   -189    -86    192    210 171.3 -30.3  34194  290.16 0855.12
2009/04/23 11:53:24.8      -2   -141    -72    142    159 180.9 -33.5  34194  290.14 0855.12
2009/04/23 11:53:24.9     -10   -139    -86    140    164 184.4 -39.2  34198  290.21 0855.12
2009/04/23 11:53:25.0       0   -146    -77    147    165 180.0 -34.5  34200  290.26 0855.12
2009/04/23 11:53:25.1     -36   -151    -57    156    166 193.4 -24.8  34194  290.16 0855.12
2009/04/23 11:53:25.2     -45   -173    -59    179    188 194.7 -23.8  34190  290.09 0855.12
2009/04/23 11:53:25.3     -70   -186    -85    199    216 200.7 -29.0  34194  290.16 0855.12
2009/04/23 11:53:25.4     -67   -203    -72    214    226 198.3 -18.7  34190  290.09 0855.12
2009/04/23 11:53:25.5     -97   -140    -53    171    179 214.7 -22.3  34194  290.14 0855.12
2009/04/23 11:53:25.6     -85   -115    -48    144    151 216.5 -23.6  34194  290.14 0855.12
2009/04/23 11:53:25.7     -98    -86    -36    131    136 228.7 -15.5  34194  290.16 0855.12
2009/04/23 11:53:25.8     -70   -104    -46    126    134 214.2 -24.8  34192  290.13 0855.13
2009/04/23 11:53:25.9     -78   -119    -19    143    145 213.4  -7.7  34194  290.14 0855.13
2009/04/23 11:53:26.0     -42   -105    -41    114    121 201.8 -25.3  34190  290.08 0855.13
2009/04/23 11:53:26.1     -92    -74    -58    119    132 231.4 -31.7  34200  290.25 0855.13
2009/04/23 11:53:26.2    -106    -89    -70    139    155 230.0 -33.1  34206  290.35 0855.13
2009/04/23 11:53:26.3     -48    -71   -103     87    134 214.3 -60.2  34210  290.43 0855.13
2009/04/23 11:53:26.4     -63    -34    -50     72     87 241.1 -42.4  34212  290.47 0855.13
2009/04/23 11:53:26.5     -50    -72    -56     88    104 214.7 -39.9  34206  290.35 0855.13
2009/04/23 11:53:26.6     -81   -113    -48    140    148 215.6 -23.3  34204  290.33 0855.13
2009/04/23 11:53:26.7     -54   -130    -65    142    156 202.7 -31.0  34202  290.28 0855.13
2009/04/23 11:53:26.8     -17   -119    -33    121    126 188.5 -15.5  34202  290.28 0855.13
2009/04/23 11:53:26.9     -65   -135    -43    151    158 205.9 -16.0  34208  290.38 0855.13
2009/04/23 11:53:27.0     -52   -175    -57    183    192 196.5 -17.3  34182  289.94 0855.13
2009/04/23 11:53:27.1      50   -200    -84    207    223 166.0 -27.4  34176  289.85 0855.13
2009/04/23 11:53:27.2      63   -188    -56    199    206 161.5 -20.2  34174  289.80 0855.13
2009/04/23 11:53:27.3      32   -179    -61    182    193 169.8 -18.7  34180  289.92 0855.13
2009/04/23 11:53:27.4      54   -173    -60    182    192 162.6 -18.3  34176  289.84 0855.13
2009/04/23 11:53:27.5      95   -142     -9    171    172 146.2  -3.3  34174  289.80 0855.13
2009/04/23 11:53:27.6      76   -152     24    171    173 153.3   8.2  34178  289.87 0855.13
2009/04/23 11:53:27.7      55   -140    -28    151    154 158.6 -10.5  34176  289.84 0855.13
2009/04/23 11:53:27.8      91   -169    -31    193    196 151.7  -9.3  34174  289.80 0855.13
2009/04/23 11:53:27.9      80   -167    -21    186    188 154.4  -6.5  34176  289.84 0855.13
2009/04/23 11:53:28.0      63   -147    -12    161    162 156.8  -4.4  34176  289.85 0855.13
2009/04/23 11:53:28.1      55   -138      7    149    150 158.2   2.9  34182  289.94 0855.13
2009/04/23 11:53:28.2      36   -155     26    160    163 166.7   9.3  34186  290.02 0855.13
2009/04/23 11:53:28.3      38   -147     18    152    154 165.3   6.9  34180  289.92 0855.13
2009/04/23 11:53:28.4      50   -151     21    160    162 161.7   7.5  34178  289.87 0855.13
2009/04/23 11:53:28.5      49   -144     35    153    158 161.3  13.1  34184  289.97 0855.13
2009/04/23 11:53:28.6      40   -150     37    156    161 164.9  13.5  34182  289.96 0855.13
2009/04/23 11:53:28.7      53   -159     20    168    170 161.3   6.9  34174  289.80 0855.13
2009/04/23 11:53:28.8      51   -191     10    198    199 164.9   3.1  34176  289.85 0855.13
2009/04/23 11:53:28.9      52   -170     23    178    180 162.8   7.5  34180  289.91 0855.13
2009/04/23 11:53:29.0      63   -134     29    149    152 154.7  11.1  34182  289.96 0855.13
2009/04/23 11:53:29.1      57   -139      7    151    152 157.7   2.9  34172  289.79 0855.13
2009/04/23 11:53:29.2      67   -173     -9    186    187 158.6  -2.8  34168  289.70 0855.13
2009/04/23 11:53:29.3      76   -137     10    157    158 151.0   3.8  34172  289.79 0855.13
2009/04/23 11:53:29.4      65   -112     48    130    138 149.7  21.0  34178  289.87 0855.13
2009/04/23 11:53:29.5      49   -117     81    127    150 157.3  35.6  34184  289.99 0855.13
2009/04/23 11:53:29.6      62   -121     64    137    151 152.9  27.1  34182  289.96 0855.13
2009/04/23 11:53:29.7      58   -113     44    128    136 152.9  18.9  34184  289.99 0855.13
2009/04/23 11:53:29.8      32   -132     54    136    146 166.2  23.0  34178  289.89 0855.14
2009/04/23 11:53:29.9      26   -144     54    147    156 169.8  20.9  34166  289.67 0855.14
2009/04/23 11:53:30.0      65   -199     64    210    220 161.7  17.1  34166  289.69 0855.14
2009/04/23 11:53:30.1      62   -186     82    197    213 161.5  23.6  34168  289.70 0855.14
2009/04/23 11:53:30.2      29   -161    127    164    207 169.8  41.7  34172  289.77 0855.14
2009/04/23 11:53:30.3     -26   -155    131    158    205 189.7  43.8  34168  289.72 0855.14
2009/04/23 11:53:30.4      52   -182     72    190    203 164.0  21.5  34178  289.87 0855.14
2009/04/23 11:53:30.5      27   -219     61    221    230 172.9  15.6  34176  289.84 0855.14
2009/04/23 11:53:30.6      40   -235     68    239    249 170.2  16.0  34176  289.83 0855.14
2009/04/23 11:53:30.7      32   -255     60    258    265 172.7  13.2  34176  289.83 0855.14
2009/04/23 11:53:30.8      29   -291     57    293    299 174.2  11.1  34172  289.76 0855.14
2009/04/23 11:53:30.9       9   -273     78    274    286 178.0  16.0  34174  289.80 0855.14
2009/04/23 11:53:31.0       0   -253     88    254    270 179.8  19.2  34178  289.86 0855.14
2009/04/23 11:53:31.1      23   -228    104    230    252 174.0  26.2  34182  289.95 0855.14
2009/04/23 11:53:31.2      28   -223    109    225    250 172.7  27.4  34188  290.03 0855.14
2009/04/23 11:53:31.3      51   -191     84    198    215 164.8  24.6  34184  289.97 0855.14
2009/04/23 11:53:31.4      32   -234     57    237    244 172.0  13.5  34178  289.86 0855.14
2009/04/23 11:53:31.5      59   -249     38    256    259 166.6   8.5  34176  289.83 0855.14
2009/04/23 11:53:31.6      22   -241     97    243    261 174.7  23.0  34178  289.86 0855.14
2009/04/23 11:53:31.7      60   -254     89    262    277 166.6  18.9  34176  289.83 0855.14
2009/04/23 11:53:31.8      54   -235     64    242    251 167.1  15.0  34176  289.83 0855.14
2009/04/23 11:53:31.9      41   -217     94    221    240 169.3  24.3  34184  289.98 0855.14
2009/04/23 11:53:32.0      76   -256     89    268    283 163.3  18.5  34184  289.97 0855.14
2009/04/23 11:53:32.1      65   -240     83    249    263 164.9  18.5  34178  289.88 0855.14
2009/04/23 11:53:32.2      65   -203     69    214    225 162.2  17.9  34176  289.85 0855.14
2009/04/23 11:53:32.3      65   -192     54    203    211 161.3  15.0  34178  289.89 0855.14
2009/04/23 11:53:32.4      53   -197     59    205    214 164.9  16.0  34176  289.85 0855.14
2009/04/23 11:53:32.5      25   -228     88    230    246 173.7  22.0  34186  290.02 0855.14
2009/04/23 11:53:32.6      63   -233    115    242    267 164.9  27.2  34190  290.07 0855.14
2009/04/23 11:53:32.7      25   -218    106    220    244 173.3  27.4  34180  289.92 0855.14
2009/04/23 11:53:32.8      70   -258     50    268    273 164.9  10.6  34176  289.85 0855.09
2009/04/23 11:53:32.9      46   -264     58    269    276 170.0  12.2  34174  289.81 0855.09
2009/04/23 11:53:33.0      88   -266     75    281    291 161.5  15.0  34172  289.76 0855.09
2009/04/23 11:53:33.1      97   -239     70    258    268 157.9  15.3  34178  289.86 0855.09
2009/04/23 11:53:33.2      57   -214     78    222    236 164.9  19.4  34174  289.82 0855.09
2009/04/23 11:53:33.3      47   -219     77    225    238 167.7  18.9  34174  289.80 0855.09
2009/04/23 11:53:33.4      13   -284     58    285    292 177.3  11.6  34178  289.86 0855.09
2009/04/23 11:53:33.5      23   -310     81    311    322 175.6  14.6  34180  289.92 0855.09
2009/04/23 11:53:33.6      65   -279      8    287    288 166.7   1.8  34180  289.92 0855.09
2009/04/23 11:53:33.7      80   -275     67    287    295 163.7  13.2  34180  289.90 0855.09
2009/04/23 11:53:33.8      56   -278    116    284    306 168.5  23.1  34182  289.93 0855.09
2009/04/23 11:53:33.9     112   -314    156    334    368 160.3  27.1  34180  289.91 0855.09
2009/04/23 11:53:34.0     102   -340     33    356    358 163.2   5.4  34178  289.89 0855.09
2009/04/23 11:53:34.1      73   -309     61    318    324 166.6  11.0  34180  289.90 0855.09
2009/04/23 11:53:34.2      65   -328     60    335    341 168.7  10.2  34178  289.86 0855.09
2009/04/23 11:53:34.3      57   -373     47    378    381 171.3   7.1  34178  289.86 0855.09
2009/04/23 11:53:34.4     104   -361     50    376    380 163.9   7.6  34176  289.84 0855.09
2009/04/23 11:53:34.5      94   -335     65    348    354 164.3  10.6  34178  289.86 0855.09
2009/04/23 11:53:34.6      85   -349    -30    360    362 166.2  -4.8  34180  289.91 0855.09
2009/04/23 11:53:34.7      90   -385    -15    396    397 166.7  -2.2  34172  289.76 0855.09
2009/04/23 11:53:34.8      95   -354     28    367    368 164.9   4.4  34172  289.77 0855.07
2009/04/23 11:53:34.9     157   -329     30    365    367 154.5   4.7  34172  289.77 0855.07
2009/04/23 11:53:35.0     140   -323     51    353    357 156.6   8.2  34174  289.81 0855.07
2009/04/23 11:53:35.1     119   -311     87    334    346 159.1  14.6  34176  289.84 0855.07
2009/04/23 11:53:35.2      35   -359     52    361    365 174.3   8.2  34170  289.74 0855.07
2009/04/23 11:53:35.3     -74   -388     49    396    400 190.8   7.1  34174  289.81 0855.07
2009/04/23 11:53:35.4     -69   -372     19    379    380 190.6   2.9  34172  289.77 0855.07
2009/04/23 11:53:35.5     -46   -370      7    373    374 187.2   1.2  34174  289.81 0855.07
2009/04/23 11:53:35.6      -7   -382    -17    383    384 181.2  -2.6  34168  289.72 0855.07
2009/04/23 11:53:35.7     -14   -361     13    362    363 182.2   2.1  34172  289.77 0855.07
2009/04/23 11:53:35.8     -23   -312      3    313    314 184.4   0.7  34166  289.66 0855.07
2009/04/23 11:53:35.9     -22   -277      5    278    279 184.7   1.2  34166  289.66 0855.07
2009/04/23 11:53:36.0     -70   -244     -2    254    255 196.0  -0.5  34168  289.71 0855.07
2009/04/23 11:53:36.1     -48   -254     13    259    260 190.9   2.9  34174  289.81 0855.07
2009/04/23 11:53:36.2     -23   -296     46    297    301 184.5   8.8  34186  290.00 0855.07
2009/04/23 11:53:36.3      22   -288     93    289    304 175.6  17.9  34176  289.85 0855.07
2009/04/23 11:53:36.4      -1   -372     68    373    380 180.3  10.3  34178  289.87 0855.07
2009/04/23 11:53:36.5     -99   -390     97    403    415 194.3  13.6  34174  289.82 0855.07
2009/04/23 11:53:36.6    -105   -327    119    344    365 197.8  19.2  34174  289.82 0855.07
2009/04/23 11:53:36.7    -107   -323    130    341    364 198.3  21.7  34178  289.89 0855.07
2009/04/23 11:53:36.8    -142   -257     34    294    297 208.9   6.7  34182  289.95 0855.06
2009/04/23 11:53:36.9    -170   -241     72    296    305 215.2  13.8  34174  289.80 0855.06
2009/04/23 11:53:37.0    -197   -180     66    267    276 227.6  13.9  34170  289.75 0855.06
2009/04/23 11:53:37.1    -158   -168    110    231    255 223.2  27.2  34174  289.81 0855.06
2009/04/23 11:53:37.2    -199   -164     59    259    266 230.5  12.9  34176  289.83 0855.06
2009/04/23 11:53:37.3    -204   -167     16    264    265 230.7   3.6  34170  289.75 0855.06
2009/04/23 11:53:37.4    -171   -239     79    294    305 215.6  15.1  34180  289.90 0855.06
2009/04/23 11:53:37.5    -172   -295    146    342    371 210.3  24.6  34176  289.84 0855.06
2009/04/23 11:53:37.6    -239   -367     32    439    441 213.1   4.2  34174  289.82 0855.06
2009/04/23 11:53:37.7    -276   -312     -9    417    418 221.5  -1.3  34170  289.73 0855.06
2009/04/23 11:53:37.9    -262   -411   -167    488    516 212.5 -18.9  34162  289.62 0855.06
2009/04/23 11:53:38.0    -185   -289    120    344    365 212.6  19.3  34172  289.79 0855.06
2009/04/23 11:53:38.1    -211   -332    149    394    421 212.5  21.7  34174  289.80 0855.06
2009/04/23 11:53:38.2    -363   -356    -66    509    514 225.6  -7.5  34166  289.67 0855.06
2009/04/23 11:53:38.3    -359   -305    -30    472    473 229.6  -3.7  34162  289.62 0855.06
2009/04/23 11:53:38.4    -390   -310    -76    499    505 231.5  -8.7  34166  289.67 0855.06
2009/04/23 11:53:38.5    -441   -393    -97    591    600 228.3  -9.3  34166  289.66 0855.06
2009/04/23 11:53:38.6    -389   -350   -111    524    536 228.1 -12.0  34160  289.57 0855.06
2009/04/23 11:53:38.7    -416   -294   -161    510    536 234.8 -17.6  34164  289.63 0855.06
2009/04/23 11:53:38.8    -381   -386   -165    543    568 224.6 -16.9  34164  289.65 0855.06
2009/04/23 11:53:38.9    -375   -345   -186    510    542 227.4 -25.4  34166  289.67 0855.05
2009/04/23 11:53:39.0    -354   -401   -152    536    558 221.5 -15.9  34172  289.79 0855.05
2009/04/23 11:53:39.1    -329   -338    -66    472    477 224.2  -8.0  34188  290.03 0855.05
2009/04/23 11:53:39.2    -228   -383     53    446    450 210.8   6.9  34182  289.95 0855.05
2009/04/23 11:53:39.3    -305   -346    -92    462    472 221.5 -11.3  34178  289.88 0855.05
2009/04/23 11:53:39.4    -246   -416   -119    484    499 210.7 -13.8  34172  289.76 0855.05
2009/04/23 11:53:39.5    -153   -286    -43    325    328 208.1  -7.7  34184  289.98 0855.05
2009/04/23 11:53:39.6    -111   -279    -16    301    302 201.8  -3.1  34184  289.98 0855.05
2009/04/23 11:53:39.7    -153   -286     26    325    327 208.2   4.6  34186  290.00 0855.05
2009/04/23 11:53:39.8    -219   -322     48    390    394 214.3   7.1  34184  289.99 0855.05
2009/04/23 11:53:39.9    -249   -341    103    423    436 216.1  13.7  34192  290.12 0855.05
2009/04/23 11:53:40.0    -324   -253    -36    412    414 232.0  -5.1  34188  290.05 0855.05
2009/04/23 11:53:40.1    -322   -347   -127    474    491 222.8 -15.0  34172  289.76 0855.05
2009/04/23 11:53:40.2    -276   -364    -93    458    468 217.2 -11.5  34168  289.72 0855.05
2009/04/23 11:53:40.3    -344   -425    -21    548    549 219.0  -2.2  34168  289.72 0855.05
2009/04/23 11:53:40.4    -304   -415    -20    515    516 216.2  -2.2  34166  289.66 0855.05
2009/04/23 11:53:40.5    -340   -372    -78    505    511 222.4  -8.8  34166  289.69 0855.05
2009/04/23 11:53:40.6    -337   -367    -83    499    506 222.6  -9.5  34170  289.73 0855.05
2009/04/23 11:53:40.7    -359   -331   -119    489    504 227.4 -13.7  34170  289.73 0855.05
2009/04/23 11:53:40.8    -355   -357   -130    504    521 224.8 -14.5  34170  289.73 0855.05
2009/04/23 11:53:40.9    -402   -337   -125    525    540 230.0 -13.4  34170  289.74 0855.07
2009/04/23 11:53:41.0    -390   -455    -43    600    602 220.6  -4.1  34180  289.91 0855.07
2009/04/23 11:53:41.1    -287   -335     -3    442    443 220.6  -0.5  34172  289.78 0855.07
2009/04/23 11:53:41.2    -151   -281     70    320    328 208.3  12.5  34176  289.83 0855.07
2009/04/23 11:53:41.3     -63   -364     31    370    372 189.9   4.9  34178  289.87 0855.07
2009/04/23 11:53:41.4     -11   -393     56    394    399 181.6   8.1  34180  289.91 0855.07
2009/04/23 11:53:41.5     -50   -411     48    415    418 187.0   6.7  34180  289.90 0855.07
2009/04/23 11:53:41.6      -9   -463     -1    464    465 181.1  -0.2  34174  289.80 0855.07
2009/04/23 11:53:41.7      -7   -473      8    474    475 180.9   1.0  34176  289.84 0855.07
2009/04/23 11:53:41.8     -39   -433     -2    435    436 185.2  -0.3  34178  289.88 0855.07
2009/04/23 11:53:41.9     -43   -447     34    450    452 185.6   4.3  34172  289.78 0855.07
2009/04/23 11:53:42.0     -52   -427     37    431    433 187.0   5.0  34178  289.88 0855.07
2009/04/23 11:53:42.1      -5   -438    -56    439    443 180.7  -7.3  34180  289.90 0855.07
2009/04/23 11:53:42.2      44   -400     14    403    404 173.7   2.1  34184  289.99 0855.07
2009/04/23 11:53:42.3      31   -345     29    347    349 174.8   4.9  34178  289.87 0855.07
2009/04/23 11:53:42.4     -23   -305     41    306    309 184.4   7.8  34180  289.92 0855.07
2009/04/23 11:53:42.5     -82   -244     40    258    262 198.7   9.0  34174  289.80 0855.07
2009/04/23 11:53:42.6       7   -273     60    274    281 178.4  12.4  34180  289.90 0855.07
2009/04/23 11:53:42.7      42   -272     43    276    280 171.1   9.0  34180  289.90 0855.07
2009/04/23 11:53:42.8      21   -269     42    270    274 175.5   9.0  34182  289.93 0855.07
2009/04/23 11:53:42.9     -29   -190     39    193    197 188.7  11.4  34178  289.89 0855.08
2009/04/23 11:53:43.0    -107   -190     75    219    232 209.4  18.9  34180  289.92 0855.08
2009/04/23 11:53:43.1     -89   -205     66    224    234 203.6  16.4  34174  289.82 0855.08
2009/04/23 11:53:43.2    -102   -215     32    239    242 205.5   7.8  34180  289.90 0855.08
2009/04/23 11:53:43.3     -92   -254     27    271    273 200.0   5.7  34178  289.88 0855.08
2009/04/23 11:53:43.4     -83   -286    -31    298    300 196.3  -6.1  34180  289.90 0855.08
2009/04/23 11:53:43.5     -55   -297    -11    303    304 190.6  -2.2  34178  289.88 0855.08
2009/04/23 11:53:43.6     -49   -242     16    248    249 191.6   3.8  34174  289.81 0855.08
2009/04/23 11:53:43.7     -88   -200   -184    219    286 203.8 -48.5  34172  289.78 0855.08
2009/04/23 11:53:43.8    -283   -133   -125    313    337 244.8 -27.4  34170  289.74 0855.08
2009/04/23 11:53:43.9    -180   -197    131    268    298 222.4  28.0  34172  289.76 0855.08
2009/04/23 11:53:44.0    -162   -212    122    267    293 217.4  26.2  34186  290.00 0855.08
2009/04/23 11:53:44.1    -113   -237    122    263    289 205.5  27.0  34182  289.95 0855.08
2009/04/23 11:53:44.2     -43   -312     67    316    324 188.0  12.0  34174  289.81 0855.08
2009/04/23 11:53:44.3     -32   -363     97    365    378 185.2  15.0  34174  289.82 0855.08
2009/04/23 11:53:44.4     -20   -328    115    329    348 183.5  20.0  34178  289.87 0855.08
2009/04/23 11:53:44.5     -21   -273     36    274    277 184.5   7.5  34176  289.85 0855.08
2009/04/23 11:53:44.6     -32   -319     40    321    324 185.8   7.1  34182  289.95 0855.08
2009/04/23 11:53:44.7     -25   -336     60    337    343 184.4  10.2  34182  289.93 0855.08
2009/04/23 11:53:44.8     -32   -346     81    348    358 185.4  13.1  34186  290.01 0855.08
2009/04/23 11:53:44.9     -44   -376     89    379    390 186.7  13.3  34192  290.11 0855.10
2009/04/23 11:53:45.0      -7   -427    100    428    440 181.0  13.2  34176  289.83 0855.10
2009/04/23 11:53:45.1       8   -496      7    497    498 179.0   0.9  34176  289.83 0855.10
2009/04/23 11:53:45.2     131   -433     34    453    455 163.1   4.3  34170  289.73 0855.10
2009/04/23 11:53:45.3      95   -394    -19    406    407 166.4  -2.7  34170  289.73 0855.10
2009/04/23 11:53:45.4     -65   -465     37    470    472 188.0   4.6  34170  289.73 0855.10
2009/04/23 11:53:45.5       0   -554      7    555    556 180.0   0.8  34164  289.63 0855.10
2009/04/23 11:53:45.6       0   -539      3    540    541 179.9   0.3  34162  289.60 0855.10
2009/04/23 11:53:45.7     -38   -494     20    496    497 184.5   2.4  34162  289.59 0855.10
2009/04/23 11:53:45.8     -53   -531    -54    534    537 185.8  -5.8  34156  289.51 0855.10
2009/04/23 11:53:45.9     -20   -526    -73    527    532 182.3  -7.9  34156  289.50 0855.10
2009/04/23 11:53:46.0      -9   -549    -16    550    551 181.0  -1.7  34152  289.45 0855.10
2009/04/23 11:53:46.1     -38   -542    -39    544    546 184.0  -4.1  34152  289.45 0855.10
2009/04/23 11:53:46.2     -92   -533    -21    542    543 189.8  -2.2  34150  289.41 0855.10
2009/04/23 11:53:46.3     -58   -572    -56    575    578 185.8  -5.6  34154  289.46 0855.10
2009/04/23 11:53:46.4     -29   -534    -37    535    537 183.2  -4.0  34152  289.43 0855.10
2009/04/23 11:53:46.5     -48   -513    -76    516    522 185.4  -8.4  34148  289.36 0855.10
2009/04/23 11:53:46.6      23   -502   -139    503    523 177.3 -15.5  34156  289.49 0855.10
2009/04/23 11:53:46.7      22   -470   -122    471    487 177.3 -14.6  34156  289.50 0855.10
2009/04/23 11:53:46.8     -12   -508    -80    509    516 181.4  -9.0  34156  289.52 0855.10
2009/04/23 11:53:46.9    -121   -465    -51    481    484 194.6  -6.1  34162  289.62 0855.11
2009/04/23 11:53:47.0    -210   -489      6    533    534 203.3   0.7  34168  289.70 0855.11
2009/04/23 11:53:47.1    -192   -457    -35    496    498 202.8  -4.1  34158  289.54 0855.11
2009/04/23 11:53:47.2    -194   -442    -77    483    490 203.7  -9.1  34150  289.40 0855.11
2009/04/23 11:53:47.3    -249   -466   -124    529    544 208.1 -13.3  34150  289.41 0855.11
2009/04/23 11:53:47.4    -103   -491   -160    502    527 191.9 -17.7  34156  289.50 0855.11
2009/04/23 11:53:47.5     -95   -462   -131    472    489 191.7 -20.2  34150  289.40 0855.11
2009/04/23 11:53:47.6     -90   -498   -160    507    532 190.3 -17.5  34148  289.36 0855.11
2009/04/23 11:53:47.7    -150   -464   -154    488    512 197.9 -17.5  34152  289.44 0855.11
2009/04/23 11:53:47.8    -191   -426    -93    467    477 204.2 -11.3  34152  289.42 0855.11
2009/04/23 11:53:47.9     -85   -442    -91    451    461 190.9 -11.5  34150  289.39 0855.11
2009/04/23 11:53:48.0     -79   -399    -87    407    417 191.3 -12.2  34148  289.36 0855.11
2009/04/23 11:53:48.1     -77   -396   -128    404    423 191.0 -22.8  34148  289.38 0855.11
2009/04/23 11:53:48.2     -94   -364   -130    376    397 194.5 -24.3  34148  289.38 0855.11
2009/04/23 11:53:48.3     -82   -353   -159    363    396 193.2 -29.5  34150  289.40 0855.11
2009/04/23 11:53:48.4      10   -368   -173    369    407 178.4 -31.5  34152  289.43 0855.11
2009/04/23 11:53:48.5     -31   -387   -108    389    404 184.6 -15.5  34154  289.47 0855.11
2009/04/23 11:53:48.6     -25   -338    -89    339    351 184.4 -14.8  34146  289.32 0855.11
2009/04/23 11:53:48.7    -180   -337    -80    383    392 208.1 -11.8  34154  289.48 0855.11
2009/04/23 11:53:48.8    -140   -360   -107    387    402 201.3 -15.5  34156  289.50 0855.11
2009/04/23 11:53:48.9    -170   -375   -139    412    436 204.4 -18.7  34154  289.46 0855.13
2009/04/23 11:53:49.0    -225   -321    -63    393    399 215.0  -9.1  34156  289.50 0855.13
2009/04/23 11:53:49.1    -261   -290    -75    391    399 221.9 -10.9  34156  289.50 0855.13
2009/04/23 11:53:49.2    -229   -358   -138    426    447 212.6 -23.3  34162  289.60 0855.13
2009/04/23 11:53:49.3    -182   -350   -139    395    418 207.5 -24.5  34160  289.56 0855.13
2009/04/23 11:53:49.4    -204   -311    -87    373    384 213.3 -13.2  34162  289.59 0855.13
2009/04/23 11:53:49.5    -201   -372     59    423    428 208.4   8.0  34176  289.83 0855.13
2009/04/23 11:53:49.6    -126   -333    102    357    372 200.8  16.0  34172  289.77 0855.13
2009/04/23 11:53:49.7     -79   -385    101    394    407 191.7  14.5  34170  289.75 0855.13
2009/04/23 11:53:49.8     -13   -427    -46    428    431 181.8  -6.2  34168  289.72 0855.13
2009/04/23 11:53:49.9     -35   -476    -26    478    479 184.3  -3.2  34170  289.73 0855.13
2009/04/23 11:53:50.0      39   -569     44    571    573 176.0   4.5  34160  289.58 0855.13
2009/04/23 11:53:50.1     -49   -527    180    530    560 185.3  18.8  34158  289.53 0855.13
2009/04/23 11:53:50.2       0   -552     68    553    558 179.9   7.1  34154  289.48 0855.13
2009/04/23 11:53:50.3      21   -498     -2    499    500 177.5  -0.3  34146  289.35 0855.13
2009/04/23 11:53:50.4      33   -505     25    507    508 176.2   2.9  34150  289.39 0855.13
2009/04/23 11:53:50.5     100   -459     22    470    471 167.6   2.8  34156  289.49 0855.13
2009/04/23 11:53:50.6     291   -533     -3    608    609 151.4  -0.4  34156  289.51 0855.13
2009/04/23 11:53:50.7     226   -594    -29    636    637 159.1  -2.7  34156  289.52 0855.13
2009/04/23 11:53:50.8     110   -563    -31    574    575 168.9  -3.2  34160  289.56 0855.13
2009/04/23 11:53:50.9      85   -581     43    588    590 171.6   4.2  34156  289.51 0855.14
2009/04/23 11:53:51.0     141   -689    133    704    717 168.4  10.7  34156  289.50 0855.14
2009/04/23 11:53:51.1     129   -634    135    648    663 168.4  11.8  34158  289.54 0855.14
2009/04/23 11:53:51.2     164   -548    -26    573    574 163.3  -2.6  34154  289.47 0855.14
2009/04/23 11:53:51.3     126   -624     51    637    640 168.5   4.6  34156  289.50 0855.14
2009/04/23 11:53:51.4     107   -627    -12    637    638 170.3  -1.2  34160  289.57 0855.14
2009/04/23 11:53:51.5     103   -651      2    660    661 171.0   0.2  34160  289.58 0855.14
2009/04/23 11:53:51.6     117   -627     76    638    643 169.4   6.8  34154  289.48 0855.14
2009/04/23 11:53:51.7     159   -507     -4    532    533 162.6  -0.5  34158  289.53 0855.14
2009/04/23 11:53:51.8     214   -641    -87    677    683 161.5  -7.3  34162  289.60 0855.14
2009/04/23 11:53:51.9     128   -574     39    589    591 167.4   3.8  34156  289.52 0855.14
2009/04/23 11:53:52.0     188   -450    -35    488    490 157.3  -4.1  34156  289.50 0855.14
2009/04/23 11:53:52.1     197   -556    -60    591    595 160.4  -5.8  34162  289.59 0855.14
2009/04/23 11:53:52.2     159   -530      9    554    555 163.3   1.0  34156  289.51 0855.14
2009/04/23 11:53:52.3     152   -475   -104    499    510 162.2 -11.8  34162  289.61 0855.14
2009/04/23 11:53:52.4     111   -545    -11    557    558 168.4  -1.2  34160  289.58 0855.14
2009/04/23 11:53:52.5     181   -521    -10    552    553 160.8  -1.1  34150  289.41 0855.14
2009/04/23 11:53:52.6     189   -514     41    548    550 159.8   4.3  34156  289.50 0855.14
2009/04/23 11:53:52.7     148   -460    104    484    496 162.2  12.2  34162  289.59 0855.14
2009/04/23 11:53:52.8     235   -401    -20    466    467 149.6  -2.5  34162  289.62 0855.14
2009/04/23 11:53:52.9     233   -348    -88    419    429 146.2 -11.9  34166  289.66 0855.14
2009/04/23 11:53:53.0     161   -402    -69    434    440 158.2  -9.1  34166  289.68 0855.14
2009/04/23 11:53:53.1      60   -369    -39    375    378 170.7  -6.1  34166  289.69 0855.14
2009/04/23 11:53:53.2      19   -363     -8    364    365 177.0  -1.3  34168  289.72 0855.14
2009/04/23 11:53:53.3      69   -272    -10    281    282 165.7  -2.2  34174  289.80 0855.14
2009/04/23 11:53:53.4      30   -245     38    247    250 172.8   8.8  34174  289.81 0855.14
2009/04/23 11:53:53.5     279   -306     99    415    427 137.7  13.5  34170  289.75 0855.14
2009/04/23 11:53:53.6     184   -379    141    422    446 154.1  18.5  34170  289.75 0855.14
2009/04/23 11:53:53.7     163   -255    -11    303    304 147.4  -2.2  34176  289.85 0855.14
2009/04/23 11:53:53.8     146   -186     39    237    241 141.9   9.5  34172  289.76 0855.14
2009/04/23 11:53:53.9     203   -190     54    279    285 133.1  11.0  34178  289.88 0855.14
2009/04/23 11:53:54.0     151   -157    -27    219    221 136.1  -7.2  34178  289.89 0855.14
2009/04/23 11:53:54.1     157   -135      3    208    209 130.7   1.0  34178  289.89 0855.14
2009/04/23 11:53:54.2     211   -111    -21    239    240 117.8  -5.2  34182  289.93 0855.14
2009/04/23 11:53:54.3     170   -125     47    212    218 126.4  12.6  34174  289.82 0855.14
2009/04/23 11:53:54.4      89   -101     59    135    147 138.6  25.1  34178  289.87 0855.14
2009/04/23 11:53:54.5     106   -119     40    160    166 138.1  14.3  34178  289.87 0855.14
2009/04/23 11:53:54.6      98   -122     51    157    166 141.3  17.9  34180  289.92 0855.14
2009/04/23 11:53:54.7      42   -127     26    134    137 161.7  11.0  34180  289.92 0855.14
2009/04/23 11:53:54.8      94   -132    -22    163    165 144.4  -7.7  34182  289.94 0855.14
2009/04/23 11:53:54.9      65    -78    -43    102    110 140.4 -28.5  34180  289.91 0855.14
2009/04/23 11:53:55.0     -97   -104    -52    143    152 223.2 -24.8  34180  289.91 0855.14
2009/04/23 11:53:55.1     -97   -205    -12    228    229 205.4  -3.2  34178  289.89 0855.14
2009/04/23 11:53:55.2     -28   -260     27    262    264 186.2   6.0  34176  289.85 0855.14
2009/04/23 11:53:55.3      -8   -433     93    434    445 181.1  12.2  34176  289.85 0855.14
2009/04/23 11:53:55.4      84   -414    -28    423    424 168.5  -3.8  34174  289.80 0855.14
2009/04/23 11:53:55.5     101   -310     -3    327    328 162.0  -0.6  34184  289.98 0855.14
2009/04/23 11:53:55.6      -9   -330    -15    331    332 181.6  -2.6  34188  290.06 0855.14
2009/04/23 11:53:55.7      45   -378    -33    381    383 173.1  -5.1  34182  289.96 0855.14
2009/04/23 11:53:55.8      60   -411    -71    416    422 171.7  -9.7  34186  290.00 0855.14
2009/04/23 11:53:55.9       5   -378    -80    379    388 179.1 -12.0  34178  289.87 0855.13
2009/04/23 11:53:56.0       1   -365   -109    366    382 179.8 -16.6  34172  289.79 0855.13
2009/04/23 11:53:56.1     -13   -341    -94    342    355 182.3 -15.4  34174  289.81 0855.13
2009/04/23 11:53:56.2    -118   -268    -81    294    306 203.8 -15.5  34196  290.17 0855.13
2009/04/23 11:53:56.3     -57   -336    -17    341    342 189.7  -3.0  34196  290.18 0855.13
2009/04/23 11:53:56.4     -79   -202    -78    218    232 201.4 -19.7  34188  290.06 0855.13
2009/04/23 11:53:56.5     -37    -70    -84     80    116 208.1 -55.6  34202  290.30 0855.13
2009/04/23 11:53:56.6    -108     64    -66    126    142 300.6 -34.2  34202  290.28 0855.13
2009/04/23 11:53:56.7      73    -20   -122     76    143 105.9 -69.1  34210  290.43 0855.13
2009/04/23 11:53:56.8      10    -55     61     56     82 169.3  52.2  34204  290.31 0855.13
2009/04/23 11:53:56.9     -36   -120     -2    126    127 196.9  -1.3  34196  290.18 0855.13
2009/04/23 11:53:57.0    -159    -12   -119    160    199 265.7 -44.8  34204  290.33 0855.13
2009/04/23 11:53:57.1    -221   -122    -28    253    255 241.1  -6.5  34198  290.20 0855.13
2009/04/23 11:53:57.2    -219     23    -10    221    222 276.1  -2.8  34194  290.14 0855.13
2009/04/23 11:53:57.3    -177    -10     63    178    189 266.7  19.6  34198  290.23 0855.13
2009/04/23 11:53:57.4    -144     -2     33    145    149 269.2  13.1  34198  290.23 0855.13
2009/04/23 11:53:57.5    -133      4     22    134    136 272.1   9.5  34194  290.14 0855.13
2009/04/23 11:53:57.6    -234    -55    -64    241    250 256.7 -15.0  34190  290.07 0855.13
2009/04/23 11:53:57.7    -158   -130     70    205    217 230.5  18.9  34192  290.13 0855.13
2009/04/23 11:53:57.8     -50   -168    138    176    223 196.7  42.0  34192  290.13 0855.13
2009/04/23 11:53:57.9      19   -137    156    139    208 172.0  53.7  34194  290.14 0855.13
2009/04/23 11:53:58.0      52   -170    148    178    231 162.8  43.8  34190  290.09 0855.13
2009/04/23 11:53:58.1     182   -168    163    248    296 132.7  36.5  34180  289.92 0855.13
2009/04/23 11:53:58.2     184   -214    131    283    311 139.2  27.0  34184  289.98 0855.13
2009/04/23 11:53:58.3     118   -297     38    320    323 158.2   6.9  34184  289.97 0855.13
2009/04/23 11:53:58.4     134   -234     13    270    271 150.1   2.9  34178  289.88 0855.13
2009/04/23 11:53:58.5     110   -215     91    242    258 152.9  21.5  34168  289.70 0855.13
2009/04/23 11:53:58.6      93   -256     32    273    275 159.9   6.9  34170  289.75 0855.13
2009/04/23 11:53:58.7      80   -215    -22    230    232 159.5  -5.6  34170  289.74 0855.13
2009/04/23 11:53:58.8     119   -181      4    217    218 146.6   1.2  34176  289.84 0855.13
2009/04/23 11:53:58.9     116   -105     58    157    167 132.2  21.0  34174  289.82 0855.13
2009/04/23 11:53:59.0     125    -80     94    149    176 122.5  35.5  34184  289.97 0855.13
2009/04/23 11:53:59.1      86    -87     42    123    131 135.1  18.9  34190  290.09 0855.13
2009/04/23 11:53:59.2     123   -156     -3    199    200 141.7  -1.1  34168  289.72 0855.13
2009/04/23 11:53:59.3     181   -141    -41    230    234 128.0 -10.3  34172  289.76 0855.13
2009/04/23 11:53:59.4     211   -104    -70    236    247 116.4 -16.6  34172  289.78 0855.13
2009/04/23 11:53:59.5     308    -66     50    316    320 102.2   9.0  34176  289.85 0855.13
2009/04/23 11:53:59.6     242    -18    127    243    274  94.4  29.5  34178  289.86 0855.13
2009/04/23 11:53:59.7     189    104     75    216    229  61.1  19.2  34172  289.79 0855.13
2009/04/23 11:53:59.8     205     55    178    213    277  75.0  43.8  34182  289.93 0855.13
2009/04/23 11:53:59.9     101     32    233    106    255  72.3  74.0  34184  289.99 0855.14
2009/04/23 11:54:00.0     136      8    175    137    222  86.5  58.2  34184  289.99 0855.14
2009/04/23 11:54:00.1     157     12    139    158    210  85.6  45.8  34180  289.92 0855.14
2009/04/23 11:54:00.2     179     15    107    180    209  85.0  33.5  34178  289.87 0855.14
2009/04/23 11:54:00.3     181    -31    153    184    239  99.9  43.8  34178  289.87 0855.14
2009/04/23 11:54:00.4     221    -89    151    239    282 112.0  35.5  34178  289.88 0855.14
2009/04/23 11:54:00.5     195    -41    132    200    239 101.9  36.5  34180  289.92 0855.14
2009/04/23 11:54:00.6      52   -154    137    163    212 161.3  44.1  34180  289.92 0855.14
2009/04/23 11:54:00.7     -17   -225    131    226    261 184.5  32.7  34184  289.98 0855.14
2009/04/23 11:54:00.8     -17   -250    153    251    293 184.0  34.2  34180  289.92 0855.14
2009/04/23 11:54:00.9     -21   -232    178    234    294 185.3  41.2  34182  289.93 0855.14
2009/04/23 11:54:01.0      59   -248    155    255    298 166.6  34.2  34194  290.15 0855.14
2009/04/23 11:54:01.1      33   -240    141    243    280 172.0  33.1  34200  290.24 0855.14
2009/04/23 11:54:01.2      51    -93    132    107    169 151.0  56.6  34230  290.77 0855.14
2009/04/23 11:54:01.3      37    -58     92     70    115 147.4  59.0  34240  290.92 0855.14
2009/04/23 11:54:01.4     -15    -75     41     77     87 191.6  30.3  34226  290.69 0855.14
2009/04/23 11:54:01.5      28     -2     54     29     61  94.3  68.9  34210  290.41 0855.14
2009/04/23 11:54:01.6      37    -17     31     41     51 115.4  41.7  34200  290.25 0855.14
2009/04/23 11:54:01.7     -81    -92     75    123    144 221.4  35.0  34200  290.25 0855.14
2009/04/23 11:54:01.8       8   -101     81    102    130 175.1  42.7  34190  290.08 0855.14
2009/04/23 11:54:01.9      30    -47     91     56    106 147.5  65.1  34198  290.21 0855.15
2009/04/23 11:54:02.0     -23      4     58     24     62 279.7  77.0  34192  290.11 0855.15
2009/04/23 11:54:02.1     -50    -14     18     52     56 254.1  18.9  34188  290.04 0855.15
2009/04/23 11:54:02.2     -65     17     -3     68     69 285.1  -3.2  34186  290.01 0855.15
2009/04/23 11:54:02.3    -128     81     -8    152    153 302.4  -3.1  34190  290.09 0855.15
2009/04/23 11:54:02.4    -119    134    -40    180    185 318.6 -12.6  34200  290.25 0855.15
2009/04/23 11:54:02.5     -36    214    -19    218    219 350.3  -5.2  34194  290.14 0855.15
2009/04/23 11:54:02.6     -23    144     -5    146    147 350.7  -2.2  34194  290.14 0855.15
2009/04/23 11:54:02.7     -11    180     13    181    182 356.2   4.2  34194  290.14 0855.15
2009/04/23 11:54:02.8      28    207     33    209    212   7.8   9.0  34188  290.04 0855.15
2009/04/23 11:54:02.9      23    230     44    232    237   5.8  10.8  34188  290.05 0855.15
2009/04/23 11:54:03.0     154    145     51    212    219  46.8  13.5  34192  290.11 0855.15
2009/04/23 11:54:03.1      70    155     87    171    191  24.3  28.7  34196  290.19 0855.15
2009/04/23 11:54:03.2     113    221    123    249    277  27.2  28.2  34244  291.00 0855.15
2009/04/23 11:54:03.3     197    149    106    248    269  52.9  24.6  34180  289.90 0855.15
2009/04/23 11:54:03.4     191    148     77    242    255  52.2  17.7  34180  289.92 0855.15
2009/04/23 11:54:03.5     142    159    118    214    244  41.9  31.3  34214  290.49 0855.15
2009/04/23 11:54:03.6     113    205    105    235    257  29.0  25.7  34258  291.22 0855.15
2009/04/23 11:54:03.7     187    162     99    248    267  49.1  23.0  34256  291.19 0855.15
2009/04/23 11:54:03.8     230    127    293    263    393  61.1  53.5  34302  291.97 0855.15
2009/04/23 11:54:03.9     287    256    246    385    456  48.2  35.6  34284  291.67 0855.17
2009/04/23 11:54:04.0      94    208    230    229    324  24.5  50.0  34314  292.18 0855.17
2009/04/23 11:54:04.1      28    141    205    144    250  11.5  61.5  34306  292.06 0855.17
2009/04/23 11:54:04.2     180     76    206    196    284  67.2  51.4  34200  290.26 0855.17
2009/04/23 11:54:04.3     184     95    249    208    324  62.7  56.1  34210  290.41 0855.17
2009/04/23 11:54:04.4     175     76    282    191    340  66.5  62.8  34196  290.19 0855.17
2009/04/23 11:54:04.5     109    -24    214    112    241 102.8  70.0  34216  290.52 0855.17
2009/04/23 11:54:04.6     147    -58    303    159    342 111.7  70.3  34206  290.36 0855.17
2009/04/23 11:54:04.7      55    -15    249     58    255 105.9  87.3  34218  290.55 0855.17
2009/04/23 11:54:04.8      11     53    202     55    209  11.6  84.8  34202  290.28 0855.17
2009/04/23 11:54:04.9     242    -56    226    249    336 103.0  47.0  34188  290.05 0855.17
2009/04/23 11:54:05.0      72     93    198    118    230  37.8  66.7  34206  290.36 0855.17
2009/04/23 11:54:05.1     -99     55     89    114    144 298.9  41.7  34210  290.41 0855.17
2009/04/23 11:54:05.2     -45    185    168    191    254 346.2  45.8  34210  290.41 0855.17
2009/04/23 11:54:05.3     197     53    254    205    326  74.9  57.0  34200  290.26 0855.17
2009/04/23 11:54:05.4      76    -15    193     78    208 101.5  77.1  34206  290.35 0855.17
2009/04/23 11:54:05.5     111     17    274    113    296  81.2  76.6  34198  290.22 0855.17
2009/04/23 11:54:05.7      77     51    346     93    358  56.7  84.9  34196  290.19 0855.17
2009/04/23 11:54:05.8     308    -37    313    311    441  97.0  50.1  34202  290.28 0855.17
2009/04/23 11:54:05.9     208    -93    288    228    367 114.2  57.7  34198  290.22 0855.17
2009/04/23 11:54:06.0     157    -96    212    185    281 121.5  54.3  34200  290.26 0855.18
2009/04/23 11:54:06.1      86      5    267     87    280  86.5  81.0  34210  290.42 0855.18
2009/04/23 11:54:06.2     133   -174    223    220    313 142.6  50.4  34206  290.34 0855.18
2009/04/23 11:54:06.3     -76     -5    179     77    194 265.7  75.3  34206  290.36 0855.18
2009/04/23 11:54:06.4     144   -186    244    236    339 142.1  51.1  34202  290.29 0855.18
2009/04/23 11:54:06.5     108   -226    121    251    278 154.4  27.4  34194  290.15 0855.18
2009/04/23 11:54:06.6     337   -454    305    566    642 143.4  30.7  34198  290.21 0855.18
2009/04/23 11:54:06.7     405   -319    338    516    616 128.2  36.4  34198  290.20 0855.18
2009/04/23 11:54:06.8     387   -438    253    585    637 138.6  24.9  34190  290.08 0855.18
2009/04/23 11:54:06.9     307   -395    140    501    521 142.2  15.7  34192  290.13 0855.18
2009/04/23 11:54:07.0     266   -423    308    500    587 147.9  34.5  34206  290.35 0855.18
2009/04/23 11:54:07.1      -7   -428    354    429    556 181.0  43.7  34198  290.20 0855.18
2009/04/23 11:54:07.2     -83   -411    315    420    525 191.5  40.7  34194  290.15 0855.18
2009/04/23 11:54:07.3    -176   -318     97    364    377 209.0  15.0  34208  290.37 0855.18
2009/04/23 11:54:07.4    -307   -378     23    488    489 219.1   2.8  34188  290.05 0855.18
2009/04/23 11:54:07.5    -440   -539    -33    696    697 219.2  -2.8  34182  289.96 0855.18
2009/04/23 11:54:07.6    -420   -355   -197    551    585 229.8 -25.0  34152  289.44 0855.18
2009/04/23 11:54:07.7    -457   -370   -208    589    624 231.0 -24.6  34192  290.10 0855.18
2009/04/23 11:54:07.8    -528   -408   -266    668    719 232.3 -27.4  34172  289.78 0855.18
2009/04/23 11:54:07.9    -462   -202   -244    505    560 246.4 -32.1  34158  289.53 0855.18
2009/04/23 11:54:08.0    -506   -215   -184    550    579 246.9 -23.3  34154  289.46 0855.19
2009/04/23 11:54:08.1    -426   -169   -182    459    493 248.3 -27.3  34146  289.34 0855.19
2009/04/23 11:54:08.2    -367   -156   -183    399    438 246.9 -30.8  34130  289.07 0855.19
2009/04/23 11:54:08.3    -322   -132   -185    349    395 247.7 -34.6  34128  289.04 0855.19
2009/04/23 11:54:08.4    -270    -90   -186    285    340 251.6 -40.4  34130  289.05 0855.19
2009/04/23 11:54:08.5    -260   -104   -174    281    330 248.2 -39.3  34142  289.27 0855.19
2009/04/23 11:54:08.6    -266   -106   -127    287    313 248.3 -30.0  34188  290.05 0855.19
2009/04/23 11:54:08.7    -205   -118   -144    237    277 240.0 -38.6  34182  289.95 0855.19
2009/04/23 11:54:08.8    -170    -97   -151    197    248 240.2 -46.0  34176  289.85 0855.19
2009/04/23 11:54:08.9    -251   -226   -102    339    355 228.0 -16.8  34182  289.93 0855.19
2009/04/23 11:54:09.0    -260   -310   -106    405    419 220.0 -14.8  34172  289.78 0855.19
2009/04/23 11:54:09.1    -249   -250    -99    354    367 224.9 -20.3  34156  289.52 0855.19
2009/04/23 11:54:09.2    -104   -261   -148    282    318 201.8 -34.4  34156  289.49 0855.19
2009/04/23 11:54:09.3     -94   -461   -158    471    498 191.6 -18.6  34156  289.52 0855.19
2009/04/23 11:54:09.4     -58   -409    -68    414    420 188.1  -9.4  34154  289.48 0855.19
2009/04/23 11:54:09.5      60   -375   -118    380    397 170.9 -22.3  34156  289.50 0855.19
2009/04/23 11:54:09.6     -55   -389     91    394    405 188.1  13.1  34152  289.45 0855.19
2009/04/23 11:54:09.7    -108   -615   -213    625    661 190.0 -18.8  34160  289.57 0855.19
2009/04/23 11:54:09.8     -99   -553   -201    562    598 190.2 -19.7  34148  289.37 0855.19
2009/04/23 11:54:09.9    -218   -398    -32    454    456 208.7  -4.1  34148  289.36 0855.19
2009/04/23 11:54:10.0    -132   -302     51    330    334 203.7   8.8  34148  289.38 0855.21
2009/04/23 11:54:10.1    -284   -157     41    325    328 241.1   7.2  34142  289.25 0855.21
2009/04/23 11:54:10.2    -283   -124    -23    310    311 246.4  -4.4  34150  289.39 0855.21
2009/04/23 11:54:10.3    -182   -242     15    304    305 217.0   2.9  34144  289.31 0855.21
2009/04/23 11:54:10.4    -102   -109     33    150    154 223.3  12.4  34154  289.46 0855.21
2009/04/23 11:54:10.5    -100    -22    -28    103    107 257.2 -15.5  34164  289.63 0855.21
2009/04/23 11:54:10.6    -247    146    -82    288    300 300.7 -16.0  34146  289.34 0855.21
2009/04/23 11:54:10.7    -194    125    -15    231    232 302.9  -3.7  34150  289.41 0855.21
2009/04/23 11:54:10.8    -247     61    -94    255    271 283.9 -25.4  34138  289.19 0855.21
2009/04/23 11:54:10.9    -319     -4   -142    320    350 269.2 -30.1  34142  289.28 0855.21
2009/04/23 11:54:11.0    -342     32   -153    344    376 275.5 -29.7  34136  289.16 0855.21
2009/04/23 11:54:11.1    -370     47   -168    374    410 277.4 -30.3  34136  289.18 0855.21
2009/04/23 11:54:11.2    -414    -13   -176    415    450 268.1 -28.7  34148  289.38 0855.21
2009/04/23 11:54:11.3    -389    -31   -198    391    438 265.3 -33.5  34140  289.22 0855.21
2009/04/23 11:54:11.4    -398    -76   -164    406    437 259.1 -27.5  34136  289.17 0855.21
2009/04/23 11:54:11.5    -415   -228   -110    474    487 241.1 -13.2  34142  289.28 0855.21
2009/04/23 11:54:11.6    -468   -328   -154    572    593 235.0 -15.1  34156  289.51 0855.21
2009/04/23 11:54:11.7    -532   -300   -211    611    647 240.6 -19.1  34140  289.23 0855.21
2009/04/23 11:54:11.8    -544   -345    -89    645    652 237.6  -7.9  34152  289.43 0855.21
2009/04/23 11:54:11.9    -558   -312    -99    640    648 240.8  -8.8  34152  289.45 0855.21
2009/04/23 11:54:12.0    -654   -358   -158    746    763 241.3 -12.0  34152  289.45 0855.21
2009/04/23 11:54:12.1    -513   -435    -18    673    674 229.7  -1.6  34152  289.43 0855.21
2009/04/23 11:54:12.2    -576   -347    -97    673    681 238.9  -8.3  34144  289.29 0855.21
2009/04/23 11:54:12.3    -613   -387   -106    726    734 237.7  -8.4  34140  289.23 0855.21
2009/04/23 11:54:12.4    -639   -428    -72    770    774 236.2  -5.4  34142  289.25 0855.21
2009/04/23 11:54:12.5    -639   -432    -87    772    777 235.9  -6.5  34144  289.30 0855.21
2009/04/23 11:54:12.6    -646   -386    -70    753    757 239.1  -5.4  34144  289.29 0855.21
2009/04/23 11:54:12.7    -642   -345   -114    730    740 241.7  -8.9  34142  289.28 0855.21
2009/04/23 11:54:12.8    -668   -397   -272    778    825 239.3 -19.3  34152  289.43 0855.21
2009/04/23 11:54:12.9    -192   -640   -121    669    680 196.7 -10.3  34152  289.43 0855.21
2009/04/23 11:54:13.0    -110   -544    -21    555    556 191.5  -2.2  34160  289.58 0855.21
2009/04/23 11:54:13.1      32   -434     -8    436    437 175.7  -1.2  34162  289.61 0855.21
2009/04/23 11:54:13.2     -20   -453    -16    454    455 182.6  -2.1  34160  289.56 0855.21
2009/04/23 11:54:13.3     -32   -520      7    522    523 183.6   0.8  34160  289.58 0855.21
2009/04/23 11:54:13.4     -47   -545     65    548    552 185.0   6.8  34154  289.46 0855.21
2009/04/23 11:54:13.5    -104   -558    -97    568    577 190.6  -9.7  34158  289.54 0855.21
2009/04/23 11:54:13.6     -45   -617     15    619    620 184.2   1.4  34144  289.31 0855.21
2009/04/23 11:54:13.7    -118   -514    103    528    539 193.0  11.1  34150  289.40 0855.21
2009/04/23 11:54:13.8    -171   -562     50    588    591 197.0   4.9  34150  289.41 0855.21
2009/04/23 11:54:13.9    -170   -510    101    538    548 198.5  10.7  34150  289.40 0855.21
2009/04/23 11:54:14.0    -122   -496     63    511    515 193.9   7.1  34158  289.54 0855.20
2009/04/23 11:54:14.1    -227   -489    132    540    557 204.9  13.8  34166  289.67 0855.20
2009/04/23 11:54:14.2    -285   -485     17    563    564 210.5   1.8  34160  289.58 0855.20
2009/04/23 11:54:14.3    -255   -482    -42    546    548 207.9  -4.5  34166  289.68 0855.20
2009/04/23 11:54:14.4    -195   -663    -62    692    695 196.4  -5.2  34148  289.36 0855.20
2009/04/23 11:54:14.5    -276   -722    -89    774    780 201.0  -6.6  34144  289.29 0855.20
2009/04/23 11:54:14.6    -311   -561   -181    642    667 209.0 -20.4  34152  289.44 0855.20
2009/04/23 11:54:14.7    -335   -388   -189    513    546 220.8 -25.4  34160  289.58 0855.20
2009/04/23 11:54:14.8    -270   -516    -40    583    585 207.6  -4.0  34148  289.37 0855.20
2009/04/23 11:54:14.9    -458   -458   -123    648    660 225.0 -10.8  34146  289.33 0855.20
2009/04/23 11:54:15.0    -350   -460   -135    579    595 217.3 -13.2  34152  289.44 0855.20
2009/04/23 11:54:15.1    -363   -397   -174    539    567 222.4 -17.9  34148  289.38 0855.20
2009/04/23 11:54:15.2    -331   -408    -69    526    531 219.0  -7.5  34154  289.48 0855.20
2009/04/23 11:54:15.3    -310   -368   -142    482    503 220.1 -16.4  34152  289.45 0855.20
2009/04/23 11:54:15.4    -303   -299   -162    426    455 225.4 -26.2  34142  289.27 0855.20
2009/04/23 11:54:15.5    -308   -338   -138    458    479 222.4 -16.8  34150  289.40 0855.20
2009/04/23 11:54:15.6    -348   -381    -47    517    520 222.4  -5.2  34142  289.27 0855.20
2009/04/23 11:54:15.7    -260   -469    -16    537    538 209.0  -1.8  34150  289.40 0855.20
2009/04/23 11:54:15.8    -228   -479   -101    531    541 205.5 -10.8  34148  289.36 0855.20
2009/04/23 11:54:15.9    -343   -467   -164    580    603 216.3 -15.8  34140  289.24 0855.20
2009/04/23 11:54:16.0    -313   -460   -198    557    592 214.2 -19.6  34140  289.22 0855.19
2009/04/23 11:54:16.1    -376   -425   -270    568    628 221.5 -31.7  34140  289.24 0855.19
2009/04/23 11:54:16.2    -570   -303   -147    646    663 242.0 -12.9  34172  289.78 0855.19
2009/04/23 11:54:16.3    -385   -382   -222    543    586 225.2 -27.9  34144  289.29 0855.19
2009/04/23 11:54:16.4    -270   -355   -150    447    471 217.3 -23.7  34142  289.27 0855.19
2009/04/23 11:54:16.5    -150   -308   -129    343    366 206.1 -26.0  34162  289.59 0855.19
2009/04/23 11:54:16.6    -307   -319    -63    443    448 223.9  -8.1  34166  289.68 0855.19
2009/04/23 11:54:16.7    -353   -355   -158    501    526 224.8 -17.5  34152  289.44 0855.19
2009/04/23 11:54:16.8    -387    -94   -162    399    430 256.3 -27.8  34154  289.46 0855.19
2009/04/23 11:54:16.9    -271    -98   -257    289    386 250.1 -50.7  34142  289.26 0855.19
2009/04/23 11:54:17.0    -563    181    -42    592    594 287.8  -4.1  34164  289.63 0855.19
2009/04/23 11:54:17.1    -449    -61    -20    454    455 262.2  -2.6  34176  289.83 0855.19
2009/04/23 11:54:17.2    -475    -74    -52    481    484 261.1  -6.2  34168  289.71 0855.19
2009/04/23 11:54:17.3    -536     11     67    537    542 271.3   7.2  34188  290.06 0855.19
2009/04/23 11:54:17.4    -452    -44   -140    455    476 264.4 -22.2  34180  289.91 0855.19
2009/04/23 11:54:17.5    -354   -238   -139    427    450 236.0 -18.1  34170  289.75 0855.19
2009/04/23 11:54:17.6    -382   -173   -125    420    439 245.6 -16.6  34148  289.38 0855.19
2009/04/23 11:54:17.7    -321   -138    -96    350    362 246.7 -20.0  34152  289.45 0855.19
2009/04/23 11:54:17.8    -173   -236    -90    293    306 216.3 -22.1  34170  289.75 0855.19
2009/04/23 11:54:17.9    -273      3    -36    274    277 270.8  -7.5  34186  290.02 0855.19
2009/04/23 11:54:18.0    -318     30    -33    320    322 275.5  -6.0  34178  289.86 0855.18
2009/04/23 11:54:18.1    -288   -136     59    319    325 244.7  10.6  34190  290.07 0855.18
2009/04/23 11:54:18.2    -336    -98    -76    351    360 253.7 -12.3  34184  289.98 0855.18
2009/04/23 11:54:18.3    -503   -166   -203    530    567 251.7 -26.5  34138  289.19 0855.18
2009/04/23 11:54:18.4    -557   -109   -160    568    590 258.9 -20.5  34154  289.46 0855.18
2009/04/23 11:54:18.5    -585   -176   -227    612    652 253.2 -25.7  34148  289.38 0855.18
2009/04/23 11:54:18.6    -644   -104   -260    653    702 260.8 -27.3  34152  289.43 0855.18
2009/04/23 11:54:18.7    -555   -124   -304    569    645 257.4 -34.7  34152  289.43 0855.18
2009/04/23 11:54:18.8    -394    -53   -272    398    482 262.3 -42.0  34152  289.44 0855.18
2009/04/23 11:54:18.9    -206   -130   -289    244    378 237.6 -60.1  34170  289.74 0855.18
2009/04/23 11:54:19.0    -426   -110   -308    440    537 255.5 -42.9  34160  289.57 0855.17
2009/04/23 11:54:19.1    -417     67   -261    423    497 279.2 -39.2  34154  289.47 0855.17
2009/04/23 11:54:19.2    -401    -81   -294    410    504 258.6 -43.6  34142  289.28 0855.17
2009/04/23 11:54:19.3    -363    -68   -116    370    387 259.3 -22.6  34166  289.67 0855.17
2009/04/23 11:54:19.4    -313    -53    -64    318    325 260.4 -11.5  34174  289.81 0855.17
2009/04/23 11:54:19.5    -406    -30    -88    408    418 265.7 -12.3  34174  289.82 0855.17
2009/04/23 11:54:19.6    -361    112     25    379    380 287.3   3.8  34174  289.81 0855.17
2009/04/23 11:54:19.7    -193    -64    -89    204    222 251.6 -29.5  34176  289.84 0855.17
2009/04/23 11:54:19.8    -246    112    -96    271    288 294.4 -19.6  34182  289.93 0855.17
2009/04/23 11:54:19.9    -125    126     29    178    181 315.1   9.5  34174  289.80 0855.17
2009/04/23 11:54:20.0    -182    171    -32    251    254 313.2  -7.3  34172  289.78 0855.17
2009/04/23 11:54:20.1    -235    122    -19    265    266 297.5  -4.1  34172  289.76 0855.17
2009/04/23 11:54:20.2    -111     48    -33    122    127 293.6 -15.5  34172  289.79 0855.17
2009/04/23 11:54:20.3      11     91    -26     92     95   7.1 -20.7  34164  289.65 0855.17
2009/04/23 11:54:20.4      42    138     -1    145    146  16.9  -0.7  34168  289.72 0855.17
2009/04/23 11:54:20.5      47    137     -3    146    147  19.2  -1.3  34162  289.60 0855.17
2009/04/23 11:54:20.6      92     88     67    128    144  46.4  29.8  34164  289.63 0855.17
2009/04/23 11:54:20.7      40     88     42     97    105  24.5  24.6  34162  289.62 0855.17
2009/04/23 11:54:20.8      -6     50     93     51    106 352.9  68.8  34174  289.82 0855.17
2009/04/23 11:54:20.9      20     32    136     39    141  32.5  84.4  34182  289.96 0855.17
2009/04/23 11:54:21.0     -49     33    134     60    146 304.2  74.0  34194  290.14 0855.17
2009/04/23 11:54:21.1     -76     27    137     81    159 290.0  66.8  34186  290.01 0855.17
2009/04/23 11:54:21.2     -15     36    134     40    139 337.3  82.8  34172  289.77 0855.17
2009/04/23 11:54:21.3      51     81    134     96    164  32.1  61.1  34170  289.74 0855.17
2009/04/23 11:54:21.4      59     92     90    110    142  32.5  43.7  34160  289.58 0855.17
2009/04/23 11:54:21.5     -50    115    140    126    188 336.3  53.3  34164  289.63 0855.17
2009/04/23 11:54:21.6    -104     79    102    131    166 307.3  42.0  34164  289.65 0855.17
2009/04/23 11:54:21.7     -70     78     88    106    137 318.1  43.8  34168  289.72 0855.17
2009/04/23 11:54:21.8     -55     77    103     95    140 324.4  52.2  34170  289.75 0855.17
2009/04/23 11:54:21.9     -77    170    136    187    231 335.5  39.7  34168  289.72 0855.17
2009/04/23 11:54:22.0    -152    172    119    230    258 318.5  29.3  34166  289.66 0855.17
2009/04/23 11:54:22.1    -175    242    143    299    331 324.0  27.3  34164  289.63 0855.17
2009/04/23 11:54:22.2    -223     14    171    224    281 273.7  41.2  34160  289.56 0855.17
2009/04/23 11:54:22.3    -281     21    188    282    338 274.4  36.7  34166  289.68 0855.17
2009/04/23 11:54:22.4    -242     64    189    251    314 285.0  40.9  34174  289.81 0855.17
2009/04/23 11:54:22.5      12    -30    165     33    168 158.2  89.1  34178  289.89 0855.17
2009/04/23 11:54:22.6     -21    -39     65     45     79 209.0  62.1  34170  289.75 0855.17
2009/04/23 11:54:22.7     191     47    194    197    276  76.1  49.8  34164  289.63 0855.17
2009/04/23 11:54:22.8     106     89    170    139    219  50.0  56.4  34168  289.72 0855.17
2009/04/23 11:54:22.9     148    113     59    187    197  52.5  17.7  34162  289.62 0855.17
2009/04/23 11:54:23.0       3    205     66    206    217   1.0  17.9  34162  289.60 0855.17
2009/04/23 11:54:23.1    -120     97    107    155    188 309.1  38.0  34160  289.58 0855.17
2009/04/23 11:54:23.2    -188    188     22    267    269 315.0   4.9  34156  289.49 0855.17
2009/04/23 11:54:23.3    -188    160    -16    248    249 310.4  -3.7  34162  289.61 0855.17
2009/04/23 11:54:23.4    -224    106     -3    249    250 295.4  -0.7  34158  289.53 0855.17
2009/04/23 11:54:23.5    -164    190    110    252    274 319.2  25.1  34162  289.61 0855.17
2009/04/23 11:54:23.6    -160    187     83    247    261 319.4  18.6  34160  289.58 0855.17
2009/04/23 11:54:23.7    -162    152     74    223    236 313.1  18.4  34164  289.65 0855.17
2009/04/23 11:54:23.8    -198    147     99    247    266 306.6  23.0  34160  289.58 0855.17
2009/04/23 11:54:23.9    -114    223     82    251    265 332.8  18.1  34170  289.73 0855.17
2009/04/23 11:54:24.0    -133     54     27    144    147 292.2  10.6  34164  289.65 0855.17
2009/04/23 11:54:24.1    -183    -12     24    184    186 266.1   7.5  34174  289.80 0855.17
2009/04/23 11:54:24.2     -35   -143     23    148    150 193.8   9.0  34168  289.70 0855.17
2009/04/23 11:54:24.3     -35   -184     52    188    196 190.9  15.6  34168  289.70 0855.17
2009/04/23 11:54:24.4       7   -204    139    205    247 178.0  37.4  34172  289.78 0855.17
2009/04/23 11:54:24.5     -78   -225     83    239    254 199.1  19.2  34178  289.86 0855.17
2009/04/23 11:54:24.6      23   -137    133    140    193 170.2  48.5  34174  289.80 0855.17
2009/04/23 11:54:24.7      11   -165    194    166    255 176.0  55.3  34184  289.99 0855.17
2009/04/23 11:54:24.8      19   -247    115    248    273 175.5  26.6  34182  289.93 0855.17
2009/04/23 11:54:24.9      37   -229     -4    233    234 170.7  -1.2  34188  290.05 0855.17
2009/04/23 11:54:25.0      85   -244     20    259    260 160.8   4.6  34190  290.09 0855.16
2009/04/23 11:54:25.1      63   -254     27    262    264 166.0   5.9  34184  289.97 0855.16
2009/04/23 11:54:25.2      88   -224     59    241    249 158.4  13.9  34186  290.00 0855.16
2009/04/23 11:54:25.3      48   -209    112    215    242 166.9  29.8  34190  290.07 0855.16
2009/04/23 11:54:25.4     -35   -223    117    226    254 189.1  29.3  34216  290.51 0855.16
2009/04/23 11:54:25.5     -91   -239     98    257    275 201.0  22.0  34218  290.54 0855.16
2009/04/23 11:54:25.6    -156   -282    107    323    341 209.0  18.5  34220  290.59 0855.16
2009/04/23 11:54:25.7    -190   -259    104    322    339 216.2  18.0  34208  290.40 0855.16
2009/04/23 11:54:25.8    -163   -226     99    279    296 215.8  20.2  34196  290.19 0855.16
2009/04/23 11:54:25.9      99    -98     98    140    170 134.9  38.6  34196  290.19 0855.16
2009/04/23 11:54:26.0     177    -36    132    181    224 101.5  39.7  34172  289.77 0855.16
2009/04/23 11:54:26.1     122    -32    145    127    192 105.1  54.3  34176  289.84 0855.16
2009/04/23 11:54:26.2     137   -129    190    189    267 133.3  50.1  34182  289.93 0855.16
2009/04/23 11:54:26.3     121   -221    169    252    303 151.3  37.0  34180  289.90 0855.16
2009/04/23 11:54:26.4      70   -226    142    237    276 162.6  33.5  34182  289.93 0855.16
2009/04/23 11:54:26.5     129   -256    137    287    318 153.3  27.4  34172  289.78 0855.16
2009/04/23 11:54:26.6     166   -214    179    271    324 142.2  36.5  34172  289.78 0855.16
2009/04/23 11:54:26.7     152   -338    138    371    395 155.7  21.3  34174  289.81 0855.16
2009/04/23 11:54:26.8     134   -210    117    250    276 147.5  27.0  34176  289.85 0855.16
2009/04/23 11:54:26.9      95   -161    113    188    219 149.5  33.7  34174  289.82 0855.16
2009/04/23 11:54:27.0     113    -82    184    140    231 125.9  58.7  34180  289.92 0855.14
2009/04/23 11:54:27.1       6    -13    130     15    130 154.6  90.0  34194  290.16 0855.14
2009/04/23 11:54:27.2     -15    -79    101     81    129 190.7  56.9  34190  290.08 0855.14
2009/04/23 11:54:27.3     -39    -87     90     96    131 204.5  48.0  34178  289.87 0855.14
2009/04/23 11:54:27.4     -55    -47    100     73    123 229.6  60.5  34186  290.01 0855.14
2009/04/23 11:54:27.5       1   -116     90    117    147 179.5  41.7  34178  289.87 0855.14
2009/04/23 11:54:27.6     123   -183    107    221    245 145.9  27.4  34176  289.85 0855.14
2009/04/23 11:54:27.7     160   -191    133    250    283 139.9  30.3  34170  289.73 0855.14
2009/04/23 11:54:27.8     140   -155     96    210    230 137.9  26.6  34170  289.74 0855.14
2009/04/23 11:54:27.9     203   -140     12    247    248 124.6   2.8  34170  289.75 0855.14
2009/04/23 11:54:28.0     235   -120    155    264    306 117.1  33.4  34172  289.78 0855.14
2009/04/23 11:54:28.1     258   -117    186    284    339 114.4  36.3  34168  289.70 0855.14
2009/04/23 11:54:28.2     233   -147    218    276    351 122.4  42.3  34176  289.84 0855.14
2009/04/23 11:54:28.3     209   -130    227    247    335 121.8  47.5  34184  289.98 0855.14
2009/04/23 11:54:28.4     232   -145    205    274    342 122.0  40.6  34196  290.19 0855.14
2009/04/23 11:54:28.5     125   -173    195    214    289 144.0  47.0  34190  290.09 0855.14
2009/04/23 11:54:28.6     231   -203    139    308    337 131.3  26.0  34188  290.03 0855.14
2009/04/23 11:54:28.7      50    -50     14     72     74 135.0  11.1  34192  290.11 0855.14
2009/04/23 11:54:28.8      50    -57   -100     77    126 138.6 -62.9  34192  290.11 0855.14
2009/04/23 11:54:28.9      29   -123   -128    127    180 166.6 -54.3  34188  290.06 0855.14
2009/04/23 11:54:29.0      19   -163     77    165    182 173.3  27.0  34182  289.94 0855.14
2009/04/23 11:54:29.1     -77    -93     58    122    135 219.6  27.2  34206  290.36 0855.14
2009/04/23 11:54:29.2     -25   -246    135    248    282 186.0  31.3  34194  290.14 0855.14
2009/04/23 11:54:29.3    -113   -315    174    335    377 199.8  29.5  34180  289.91 0855.14
2009/04/23 11:54:29.4      71   -403    116    410    427 169.9  15.9  34182  289.95 0855.14
2009/04/23 11:54:29.5      31   -410     80    412    420 175.6  11.1  34190  290.07 0855.14
2009/04/23 11:54:29.6     -13   -371    101    372    386 182.1  15.2  34176  289.84 0855.14
2009/04/23 11:54:29.7      31   -384     18    386    387 175.3   2.8  34176  289.84 0855.14
2009/04/23 11:54:29.8       2   -371     58    372    377 179.7   8.9  34180  289.91 0855.14
2009/04/23 11:54:29.9     -14   -317     81    318    329 182.7  14.3  34180  289.92 0855.14
2009/04/23 11:54:30.0     -54   -318    -50    323    327 189.8  -8.9  34184  289.98 0855.14
2009/04/23 11:54:30.1     -92   -285    -42    300    304 198.0  -8.0  34190  290.07 0855.14
2009/04/23 11:54:30.2    -128   -293    -33    320    322 203.6  -6.0  34190  290.09 0855.14
2009/04/23 11:54:30.3     -50   -336      1    340    341 188.6   0.2  34210  290.42 0855.14
2009/04/23 11:54:30.4    -113   -288    -23    310    311 201.4  -4.4  34210  290.41 0855.14
2009/04/23 11:54:30.5     -96   -265     76    282    293 200.0  15.2  34216  290.51 0855.14
2009/04/23 11:54:30.6     -80   -309    105    320    337 194.6  18.2  34218  290.54 0855.14
2009/04/23 11:54:30.7     -92   -195     59    216    224 205.4  15.3  34214  290.50 0855.14
2009/04/23 11:54:30.8    -160   -150     73    220    232 226.9  18.4  34206  290.36 0855.14
2009/04/23 11:54:30.9      71   -264     64    274    282 164.8  13.2  34176  289.85 0855.14
2009/04/23 11:54:31.0      72   -220    102    232    253 161.7  25.3  34178  289.88 0855.14
2009/04/23 11:54:31.1      35   -219     58    222    230 170.9  14.7  34178  289.87 0855.14
2009/04/23 11:54:31.2      50   -216     78    222    236 166.7  19.4  34180  289.91 0855.14
2009/04/23 11:54:31.3      29   -188    111    191    220 171.1  32.9  34182  289.96 0855.14
2009/04/23 11:54:31.4     -51   -234    144    240    279 192.5  33.7  34186  290.00 0855.14
2009/04/23 11:54:31.5     -49   -242     87    248    263 191.6  19.4  34182  289.93 0855.14
2009/04/23 11:54:31.6     -22   -207     74    209    221 186.2  20.0  34184  289.97 0855.14
2009/04/23 11:54:31.7      32   -170    116    174    209 169.3  37.0  34180  289.91 0855.14
2009/04/23 11:54:31.8     -24   -162     88    164    186 188.5  30.6  34180  289.92 0855.14
2009/04/23 11:54:31.9      -8   -109     84    110    138 184.4  41.6  34184  289.99 0855.14
2009/04/23 11:54:32.0      12   -155     81    156    175 175.5  29.5  34184  289.97 0855.14
2009/04/23 11:54:32.1     -17   -237    103    238    259 184.2  24.9  34200  290.26 0855.14
2009/04/23 11:54:32.2    -108   -305     18    324    325 199.6   3.2  34206  290.34 0855.14
2009/04/23 11:54:32.3     -27   -266     24    268    270 186.0   5.2  34218  290.54 0855.14
2009/04/23 11:54:32.4    -108   -283    144    304    336 200.9  27.2  34216  290.53 0855.14
2009/04/23 11:54:32.5       3   -173    209    174    271 178.9  56.3  34206  290.34 0855.14
2009/04/23 11:54:32.6      47   -159    124    166    207 163.5  40.7  34202  290.28 0855.14
2009/04/23 11:54:32.7      34   -114    108    120    161 163.1  46.9  34204  290.31 0855.14
2009/04/23 11:54:32.8      -7   -103    175    104    203 184.4  66.7  34208  290.40 0855.14
2009/04/23 11:54:32.9      31    -77    148     84    170 158.2  68.1  34222  290.64 0855.14
2009/04/23 11:54:33.0       0   -193    211    194    286 180.2  52.7  34186  290.02 0855.13
2009/04/23 11:54:33.1      -7   -173    183    174    252 182.5  51.4  34194  290.16 0855.13
2009/04/23 11:54:33.2     -10   -182    211    183    279 183.4  54.6  34206  290.36 0855.13
2009/04/23 11:54:33.3       8   -104    159    105    190 175.5  63.6  34216  290.53 0855.13
2009/04/23 11:54:33.5     -16   -114    133    116    176 188.0  54.6  34206  290.36 0855.13
2009/04/23 11:54:33.6       2     -3     97      4     97 147.5  90.0  34200  290.26 0855.13
2009/04/23 11:54:33.7      80    137     50    159    167  30.3  17.7  34206  290.35 0855.13
2009/04/23 11:54:33.8     -48     78     69     92    115 328.4  40.1  34204  290.33 0855.13
2009/04/23 11:54:33.9     -68     87     64    111    128 322.2  32.9  34206  290.35 0855.13
2009/04/23 11:54:34.0     -34     85     54     92    106 337.7  33.5  34204  290.31 0855.13
2009/04/23 11:54:34.1      -2     45     59     46     74 357.3  57.5  34198  290.21 0855.13
2009/04/23 11:54:34.2      -8   -103     48    104    114 184.9  27.1  34190  290.08 0855.13
2009/04/23 11:54:34.3     -48    -82    -73     96    120 210.3 -45.6  34190  290.08 0855.13
2009/04/23 11:54:34.4    -124    -90    -46    154    160 234.0 -21.5  34214  290.50 0855.13
2009/04/23 11:54:34.5     -86   -135    -56    161    171 212.6 -19.4  34210  290.43 0855.13
2009/04/23 11:54:34.6     -56   -130    -49    142    151 203.6 -19.1  34206  290.35 0855.13
2009/04/23 11:54:34.7     -46   -116    -45    125    132 201.8 -24.8  34188  290.06 0855.13
2009/04/23 11:54:34.8      14   -101     41    103    110 172.0  23.0  34190  290.09 0855.13
2009/04/23 11:54:34.9      25    -80     32     84     89 162.6  21.5  34190  290.09 0855.13
2009/04/23 11:54:35.0      -2    -42     58     43     72 183.6  60.5  34198  290.21 0855.13
2009/04/23 11:54:35.1      14      0     83     15     84  90.0  90.0  34224  290.65 0855.14
2009/04/23 11:54:35.2      68    -27     80     74    108 111.7  52.2  34204  290.31 0855.14
2009/04/23 11:54:35.3     130    -26     54    133    143 101.5  23.0  34186  290.01 0855.14
2009/04/23 11:54:35.4     153    -16     23    154    156  96.1   8.8  34180  289.91 0855.14
2009/04/23 11:54:35.5     127     58    124    140    187  65.2  46.2  34180  289.91 0855.14
2009/04/23 11:54:35.6     173     29    129    176    218  80.5  39.7  34182  289.96 0855.14
2009/04/23 11:54:35.7     138    -21    126    140    188  98.8  46.9  34184  289.99 0855.14
2009/04/23 11:54:35.8     113    -15     65    115    132  97.9  31.9  34186  290.01 0855.14
2009/04/23 11:54:35.9      38    -59     72     71    101 147.4  50.1  34194  290.16 0855.14
2009/04/23 11:54:36.0       2    -60     30     61     67 177.3  27.3  34194  290.14 0855.14
2009/04/23 11:54:36.1     108     35     70    114    133  71.8  35.5  34188  290.04 0855.14
2009/04/23 11:54:36.2     100     28     71    105    126  74.1  37.4  34190  290.08 0855.14
2009/04/23 11:54:36.3     178     -1     13    179    180  90.4   4.4  34178  289.89 0855.14
2009/04/23 11:54:36.4     199   -116     13    231    232 120.2   3.3  34178  289.87 0855.14
2009/04/23 11:54:36.5     106   -145     48    180    187 143.9  15.2  34180  289.91 0855.14
2009/04/23 11:54:36.6      97    -87    -42    131    137 131.8 -23.3  34182  289.96 0855.14
2009/04/23 11:54:36.7      58     -1     83     59    101  91.7  60.6  34182  289.96 0855.14
2009/04/23 11:54:36.8     150     19     85    152    174  82.5  31.9  34184  289.99 0855.14
2009/04/23 11:54:36.9     180     17    145    181    231  84.3  43.3  34188  290.04 0855.14
2009/04/23 11:54:37.0     182     78     92    199    219  66.7  26.6  34188  290.04 0855.14
2009/04/23 11:54:37.1     133     62    124    147    192  64.8  44.3  34192  290.13 0855.14
2009/04/23 11:54:37.2     136    -28     76    139    158 101.9  31.0  34180  289.91 0855.14
2009/04/23 11:54:37.3     262   -124    157    290    329 115.3  30.7  34180  289.90 0855.14
2009/04/23 11:54:37.4     210    -82     79    226    240 111.5  19.4  34180  289.92 0855.14
2009/04/23 11:54:37.5     256    -64    147    264    302 104.1  31.4  34178  289.86 0855.14
2009/04/23 11:54:37.6     243   -104    193    265    327 113.3  39.8  34182  289.95 0855.14
2009/04/23 11:54:37.7     201    -43    242    206    317 102.2  55.4  34184  289.97 0855.14
2009/04/23 11:54:37.8     263    -16    110    264    286  93.5  24.1  34180  289.90 0855.14
2009/04/23 11:54:37.9     187    -72     28    201    204 111.1   8.0  34176  289.85 0855.14
2009/04/23 11:54:38.0     184    -87     19    204    205 115.4   5.4  34176  289.84 0855.14
2009/04/23 11:54:38.1     185   -143     97    234    253 127.7  23.8  34178  289.86 0855.14
2009/04/23 11:54:38.2     130   -192    188    232    298 145.9  43.5  34178  289.86 0855.14
2009/04/23 11:54:38.3     142   -241    176    280    330 149.5  35.3  34168  289.71 0855.14
2009/04/23 11:54:38.4      90   -247    162    263    308 160.0  34.8  34176  289.85 0855.14
2009/04/23 11:54:38.5     135   -143     88    197    215 136.6  25.7  34174  289.80 0855.14
2009/04/23 11:54:38.6      78   -155     62    174    184 153.0  20.0  34178  289.87 0855.14
2009/04/23 11:54:38.7      15   -107     21    109    112 172.0  11.0  34178  289.89 0855.14
2009/04/23 11:54:38.8     -22   -177    -35    179    183 187.1 -11.3  34180  289.91 0855.14
2009/04/23 11:54:38.9     -23   -138    -85    141    164 189.8 -38.6  34184  289.97 0855.14
2009/04/23 11:54:39.0     -57   -131    -62    143    155 203.6 -29.5  34182  289.96 0855.14
2009/04/23 11:54:39.1     -35   -129    -42    134    140 195.6 -22.8  34184  289.97 0855.15
2009/04/23 11:54:39.2      20    -37    -95     43    104 151.0 -78.4  34186  290.01 0855.15
2009/04/23 11:54:39.3      16   -203   -180    204    272 175.3 -50.3  34172  289.78 0855.15
2009/04/23 11:54:39.4     -24   -172   -196    174    262 188.0 -58.1  34170  289.73 0855.15
2009/04/23 11:54:39.5    -241   -120   -164    270    315 243.4 -38.6  34190  290.09 0855.15
2009/04/23 11:54:39.6    -389   -134   -125    412    431 250.9 -17.0  34184  289.97 0855.15
2009/04/23 11:54:39.7    -435    -95   -187    446    483 257.6 -28.6  34178  289.88 0855.15
2009/04/23 11:54:39.8    -352    -39    -79    355    364 263.6 -12.6  34182  289.94 0855.15
2009/04/23 11:54:39.9    -260    -49    -83    265    278 259.2 -17.6  34190  290.07 0855.15
2009/04/23 11:54:40.0    -313     14     79    314    324 272.6  14.2  34210  290.41 0855.15
2009/04/23 11:54:40.1    -411    -61     -9    416    417 261.5  -1.3  34236  290.85 0855.16
2009/04/23 11:54:40.2    -337   -139     -7    365    366 247.6  -1.2  34242  290.96 0855.16
2009/04/23 11:54:40.3    -281   -224    -65    360    366 231.4 -10.4  34188  290.06 0855.16
2009/04/23 11:54:40.4    -236   -221    -26    324    326 226.8  -4.6  34216  290.53 0855.16
2009/04/23 11:54:40.5    -284   -247    -75    377    385 229.0 -11.3  34198  290.21 0855.16
2009/04/23 11:54:40.6    -314   -177   -110    361    378 240.6 -16.9  34152  289.42 0855.16
2009/04/23 11:54:40.7    -278   -234   -118    364    383 229.8 -18.0  34154  289.47 0855.16
2009/04/23 11:54:40.8    -146   -290   -184    325    373 206.7 -36.3  34156  289.52 0855.16
2009/04/23 11:54:40.9     -93    -97   -112    135    175 223.7 -48.2  34156  289.50 0855.16
2009/04/23 11:54:41.0    -124      0    -68    125    142 270.0 -35.7  34158  289.53 0855.16
2009/04/23 11:54:41.1    -417     -5    -66    418    424 269.2  -9.0  34170  289.75 0855.16
2009/04/23 11:54:41.2    -348   -297    -25    458    459 229.5  -3.1  34162  289.60 0855.16
2009/04/23 11:54:41.3    -367   -391   -174    537    564 223.2 -23.2  34156  289.51 0855.16
2009/04/23 11:54:41.4    -474   -422   -135    635    650 228.3 -12.0  34156  289.52 0855.16
2009/04/23 11:54:41.5    -328   -481   -184    583    612 214.3 -17.5  34156  289.51 0855.16
2009/04/23 11:54:41.6    -360   -411   -167    547    573 221.3 -17.0  34152  289.45 0855.16
2009/04/23 11:54:41.7    -327   -401   -150    518    539 219.2 -21.0  34156  289.50 0855.16
2009/04/23 11:54:41.8    -377   -440   -135    580    596 220.6 -13.1  34160  289.58 0855.16
2009/04/23 11:54:41.9    -340   -484   -148    592    611 215.1 -14.1  34154  289.46 0855.16
2009/04/23 11:54:42.0    -293   -443    -83    532    539 213.5  -8.9  34152  289.45 0855.16
2009/04/23 11:54:42.1    -268   -368   -136    456    477 216.1 -16.7  34152  289.42 0855.18
2009/04/23 11:54:42.2    -262   -328   -116    420    435 218.6 -20.1  34152  289.43 0855.18
2009/04/23 11:54:42.3    -130   -299   -166    327    366 203.5 -33.5  34158  289.55 0855.18
2009/04/23 11:54:42.4    -464   -147   -118    487    502 252.3 -13.7  34172  289.79 0855.18
2009/04/23 11:54:42.5    -533   -360   -219    644    681 235.9 -18.8  34158  289.53 0855.18
2009/04/23 11:54:42.6    -436   -256   -264    506    570 239.6 -34.2  34152  289.43 0855.18
2009/04/23 11:54:42.7    -518   -246   -300    574    647 244.6 -34.3  34158  289.53 0855.18
2009/04/23 11:54:42.8    -455   -165   -257    485    548 250.1 -34.6  34178  289.87 0855.18
2009/04/23 11:54:42.9    -485   -283   -187    562    592 239.7 -23.7  34176  289.85 0855.18
2009/04/23 11:54:43.0    -437   -199   -224    481    530 245.5 -31.3  34160  289.57 0855.18
2009/04/23 11:54:43.1    -282   -123   -145    308    340 246.4 -31.5  34188  290.06 0855.18
2009/04/23 11:54:43.2    -222   -141   -210    264    337 237.5 -47.0  34190  290.07 0855.18
2009/04/23 11:54:43.3    -313     13   -103    314    331 272.4 -18.3  34164  289.64 0855.18
2009/04/23 11:54:43.4    -250    -71   -181    260    316 254.1 -42.7  34186  290.00 0855.18
2009/04/23 11:54:43.5    -258    -36    -82    261    274 261.9 -17.5  34180  289.90 0855.18
2009/04/23 11:54:43.6    -239     56   -147    246    286 283.2 -37.9  34184  289.98 0855.18
2009/04/23 11:54:43.7    -207     98   -149    230    274 295.4 -40.4  34186  290.02 0855.18
2009/04/23 11:54:43.8    -315     64   -117    322    342 281.5 -25.1  34198  290.23 0855.18
2009/04/23 11:54:43.9    -351   -122   -273    372    461 250.7 -44.2  34176  289.85 0855.18
2009/04/23 11:54:44.0    -340     17   -141    341    369 273.0 -28.2  34208  290.40 0855.18
2009/04/23 11:54:44.1    -303     28    -64    305    312 275.3 -11.9  34206  290.34 0855.19
2009/04/23 11:54:44.2    -431     19   -223    432    486 272.6 -33.8  34178  289.88 0855.19
2009/04/23 11:54:44.3    -315    -28   -186    317    367 264.8 -37.5  34192  290.13 0855.19
2009/04/23 11:54:44.4    -233   -147   -135    276    307 237.6 -32.2  34196  290.17 0855.19
2009/04/23 11:54:44.5    -313     34   -103    315    332 276.3 -18.1  34188  290.03 0855.19
2009/04/23 11:54:44.6      20   -129   -123    131    179 171.1 -52.6  34180  289.91 0855.19
2009/04/23 11:54:44.7     -22    -76    -72     80    107 196.0 -51.3  34194  290.16 0855.19
2009/04/23 11:54:44.8       0   -200    -65    201    211 180.2 -23.6  34198  290.23 0855.19
2009/04/23 11:54:44.9     120   -417   -151    435    460 163.9 -24.3  34198  290.22 0855.19
2009/04/23 11:54:45.0      63   -348   -106    354    370 169.7 -16.8  34194  290.15 0855.19
2009/04/23 11:54:45.1     134   -283    -63    314    321 154.7 -11.5  34190  290.09 0855.19
2009/04/23 11:54:45.2     144   -337      2    367    368 156.8   0.4  34184  289.98 0855.19
2009/04/23 11:54:45.3     -58   -287    -89    294    308 191.6 -17.0  34194  290.14 0855.19
2009/04/23 11:54:45.4     -50   -419    -54    423    427 186.9  -7.3  34188  290.05 0855.19
2009/04/23 11:54:45.5      26   -427   -118    428    445 176.5 -15.5  34176  289.85 0855.19
2009/04/23 11:54:45.6     -68   -476      0    482    483 188.2   0.1  34176  289.84 0855.19
2009/04/23 11:54:45.7      83   -440    -41    448    451 169.3  -5.3  34172  289.78 0855.19
2009/04/23 11:54:45.8      93   -327   -163    340    377 164.1 -31.7  34166  289.69 0855.19
2009/04/23 11:54:45.9      32   -289    -80    291    302 173.7 -15.5  34168  289.70 0855.19
2009/04/23 11:54:46.0     -27   -321      8    323    324 185.0   1.5  34172  289.76 0855.19
2009/04/23 11:54:46.1     -95   -384     55    396    401 194.0   8.0  34168  289.71 0855.17
2009/04/23 11:54:46.2    -107   -318     37    336    339 198.6   6.4  34166  289.67 0855.17
2009/04/23 11:54:46.3     -34   -317    -40    319    322 186.2  -7.2  34170  289.73 0855.17
2009/04/23 11:54:46.4    -114   -413   -123    429    447 195.5 -16.0  34164  289.65 0855.17
2009/04/23 11:54:46.5    -147   -493    -85    515    522 196.6  -9.4  34170  289.74 0855.17
2009/04/23 11:54:46.6    -132   -513    -47    530    533 194.5  -5.1  34170  289.75 0855.17
2009/04/23 11:54:46.7    -174   -472   -163    504    529 200.3 -23.0  34172  289.79 0855.17
2009/04/23 11:54:46.8    -207   -542   -170    581    605 201.0 -21.1  34172  289.78 0855.17
2009/04/23 11:54:46.9    -319   -597   -151    677    694 208.1 -12.6  34174  289.82 0855.17
2009/04/23 11:54:47.0    -302   -576   -195    651    680 207.7 -16.7  34176  289.85 0855.17
2009/04/23 11:54:47.1    -327   -558   -209    648    681 210.4 -17.9  34164  289.65 0855.17
2009/04/23 11:54:47.2    -307   -528   -190    611    639 210.2 -22.2  34158  289.55 0855.17
2009/04/23 11:54:47.3    -291   -496   -193    576    607 210.4 -23.3  34160  289.56 0855.17
2009/04/23 11:54:47.4    -252   -474   -165    537    561 208.0 -22.2  34170  289.74 0855.17
2009/04/23 11:54:47.5    -137   -494   -163    513    538 195.5 -22.8  34176  289.85 0855.17
2009/04/23 11:54:47.6    -254   -472   -183    536    566 208.3 -23.9  34170  289.75 0855.17
2009/04/23 11:54:47.7    -150   -494   -185    517    550 197.0 -19.7  34172  289.79 0855.17
2009/04/23 11:54:47.8    -220   -453   -195    504    540 205.9 -26.7  34176  289.85 0855.17
2009/04/23 11:54:47.9    -229   -565   -137    610    626 202.1 -12.7  34176  289.84 0855.17
2009/04/23 11:54:48.0    -228   -607     12    649    650 200.6   1.1  34182  289.94 0855.17
2009/04/23 11:54:48.1    -261   -509    -48    573    576 207.2  -4.9  34180  289.90 0855.17
2009/04/23 11:54:48.2    -263   -600    -74    656    661 203.7  -6.5  34180  289.90 0855.17
2009/04/23 11:54:48.3    -296   -640     -2    706    707 204.8  -0.2  34174  289.81 0855.17
2009/04/23 11:54:48.4    -320   -626     53    703    705 207.1   4.3  34178  289.86 0855.17
2009/04/23 11:54:48.5    -327   -612    163    694    713 208.1  13.2  34172  289.76 0855.17
2009/04/23 11:54:48.6    -265   -600    167    656    678 203.8  14.3  34172  289.77 0855.17
2009/04/23 11:54:48.7    -319   -500    120    594    606 212.6  11.5  34172  289.78 0855.17
2009/04/23 11:54:48.8    -299   -440     48    533    536 214.2   5.2  34170  289.75 0855.17
2009/04/23 11:54:48.9    -246   -435     26    501    502 209.5   3.0  34172  289.78 0855.17
2009/04/23 11:54:49.0    -257   -417     10    490    491 211.7   1.2  34172  289.78 0855.17
2009/04/23 11:54:49.1    -209   -425    181    474    507 206.3  22.0  34170  289.73 0855.17
2009/04/23 11:54:49.2    -221   -424     85    479    487 207.5  10.1  34166  289.66 0855.17
2009/04/23 11:54:49.3    -291   -330     57    441    445 221.4   7.5  34172  289.77 0855.17
2009/04/23 11:54:49.4    -401   -325     26    517    518 231.0   2.9  34174  289.81 0855.17
2009/04/23 11:54:49.5    -359   -302     47    470    473 230.0   5.8  34172  289.78 0855.17
2009/04/23 11:54:49.6    -347   -369     40    507    509 223.2   4.6  34172  289.76 0855.17
2009/04/23 11:54:49.7    -382   -323    -67    501    506 229.8  -7.7  34168  289.71 0855.17
2009/04/23 11:54:49.8    -336   -234    -81    410    419 235.1 -11.2  34164  289.65 0855.17
2009/04/23 11:54:49.9    -316   -176    -77    362    371 240.9 -12.0  34172  289.77 0855.17
2009/04/23 11:54:50.0    -200   -163    -51    259    265 230.9 -11.1  34172  289.78 0855.17
2009/04/23 11:54:50.1    -155   -125     12    200    201 231.1   3.6  34172  289.79 0855.18
2009/04/23 11:54:50.2    -140   -109      5    178    179 232.2   1.8  34174  289.82 0855.18
2009/04/23 11:54:50.3    -122   -101    -22    159    161 230.5  -8.0  34176  289.84 0855.18
2009/04/23 11:54:50.4    -130   -104     -6    167    168 231.4  -2.2  34178  289.89 0855.18
2009/04/23 11:54:50.5    -108   -102    -78    149    168 226.8 -34.2  34176  289.85 0855.18
2009/04/23 11:54:50.6    -196   -194   -111    276    297 225.3 -27.4  34174  289.80 0855.18
2009/04/23 11:54:50.7    -192   -171   -155    258    300 228.2 -38.1  34138  289.20 0855.18
2009/04/23 11:54:50.8    -278   -226   -165    359    395 230.9 -30.7  34142  289.28 0855.18
2009/04/23 11:54:50.9    -315   -304   -255    438    506 226.0 -37.3  34142  289.27 0855.18
2009/04/23 11:54:51.0    -228   -234   -250    327    411 224.2 -45.7  34138  289.21 0855.18
2009/04/23 11:54:51.1     -21   -154   -209    156    260 188.1 -64.0  34140  289.24 0855.18
2009/04/23 11:54:51.2    -117   -210   -168    241    293 209.2 -42.8  34142  289.27 0855.18
2009/04/23 11:54:51.3    -201   -230   -237    306    387 221.2 -46.1  34138  289.20 0855.18
2009/04/23 11:54:51.4    -287   -239   -209    374    428 230.2 -36.0  34142  289.26 0855.18
2009/04/23 11:54:51.5    -211   -186   -220    282    357 228.7 -46.3  34146  289.32 0855.18
2009/04/23 11:54:51.6    -152   -389   -115    418    434 201.4 -15.4  34146  289.33 0855.18
2009/04/23 11:54:51.7      12   -342   -116    343    363 177.9 -18.7  34142  289.25 0855.18
2009/04/23 11:54:51.8    -140   -148    -25    204    206 223.4  -7.2  34144  289.30 0855.18
2009/04/23 11:54:51.9    -105   -129    -45    167    174 219.2 -15.2  34152  289.43 0855.18
2009/04/23 11:54:52.0     -98    -87    -47    132    140 228.6 -24.4  34158  289.55 0855.18
2009/04/23 11:54:52.1    -133    -68    -24    150    153 242.9  -9.3  34164  289.65 0855.18
2009/04/23 11:54:52.2    -135    -53    -18    146    148 248.3  -7.2  34190  290.09 0855.18
2009/04/23 11:54:52.3    -304    -61   -172    311    355 258.5 -35.8  34204  290.32 0855.18
2009/04/23 11:54:52.4    -283     16    -62    284    291 273.4 -12.4  34196  290.19 0855.18
2009/04/23 11:54:52.6    -333     13     -9    334    335 272.3  -1.7  34202  290.28 0855.18
2009/04/23 11:54:52.6    -302     -4    -29    303    305 269.2  -5.6  34170  289.75 0855.18
2009/04/23 11:54:52.7    -239   -178     -6    299    300 233.4  -1.3  34198  290.20 0855.18
2009/04/23 11:54:52.8    -293    -92    -15    308    309 252.5  -2.8  34174  289.81 0855.18
2009/04/23 11:54:52.9    -383    -72   -112    390    405 259.3 -20.9  34172  289.76 0855.18
2009/04/23 11:54:53.0    -327    -20    -46    328    332 266.5  -8.0  34180  289.91 0855.18
2009/04/23 11:54:53.1    -124   -167     20    209    211 216.7   5.7  34160  289.58 0855.18
2009/04/23 11:54:53.2    -181   -256   -107    314    332 215.2 -18.8  34168  289.71 0855.18
2009/04/23 11:54:53.3    -144   -113    -50    184    191 231.8 -15.4  34182  289.96 0855.18
2009/04/23 11:54:53.4     -53   -121    -36    133    138 203.6 -15.4  34180  289.91 0855.18
2009/04/23 11:54:53.6      88   -190    -38    210    214 155.1 -10.5  34172  289.77 0855.18
2009/04/23 11:54:53.7     159   -248    -34    295    298 147.3  -6.7  34170  289.75 0855.18
2009/04/23 11:54:53.7      90   -346     36    358    360 165.3   5.8  34174  289.82 0855.18
2009/04/23 11:54:53.8      35   -347     74    349    357 174.1  12.1  34172  289.76 0855.18
2009/04/23 11:54:53.9     -31   -321     78    323    333 185.7  13.6  34172  289.76 0855.18
2009/04/23 11:54:54.0     -19   -312     31    313    315 183.6   5.7  34170  289.73 0855.18
2009/04/23 11:54:54.1     -56   -265     35    271    274 192.0   7.5  34168  289.70 0855.19
2009/04/23 11:54:54.2     -58   -227    -18    235    236 194.5  -4.4  34170  289.75 0855.19
2009/04/23 11:54:54.3     -96   -137    -25    168    170 215.2  -8.6  34162  289.60 0855.19
2009/04/23 11:54:54.4     -55    -28    -22     62     65 242.9 -23.3  34170  289.75 0855.19
2009/04/23 11:54:54.5     -42    -42     10     60     61 225.0  10.1  34170  289.75 0855.19
2009/04/23 11:54:54.6     -74   -193      2    207    208 201.2   0.7  34164  289.65 0855.19
2009/04/23 11:54:54.8    -107   -174     39    205    209 211.6  10.8  34166  289.67 0855.19
2009/04/23 11:54:54.9    -158     -9     -9    159    160 266.5  -3.3  34172  289.77 0855.19
2009/04/23 11:54:54.9    -122     25    -25    125    128 281.9 -11.3  34174  289.82 0855.19
2009/04/23 11:54:55.0    -119     -9      1    120    121 265.7   0.7  34174  289.80 0855.19
2009/04/23 11:54:55.1     -96   -123    -65    157    169 217.9 -28.2  34170  289.74 0855.19
2009/04/23 11:54:55.2    -113   -177    -45    211    216 212.5 -12.2  34164  289.65 0855.19
2009/04/23 11:54:55.3     -87   -157    -23    180    182 209.0  -7.3  34162  289.62 0855.19
2009/04/23 11:54:55.4    -145   -151    -34    210    213 223.7  -9.3  34168  289.70 0855.19
2009/04/23 11:54:55.5    -143    -66    -54    158    168 245.2 -18.9  34170  289.74 0855.19
2009/04/23 11:54:55.6    -147    -59     13    159    160 248.2   4.9  34178  289.89 0855.19
2009/04/23 11:54:55.7    -161    -78     57    180    189 244.0  17.7  34182  289.94 0855.19
2009/04/23 11:54:55.8    -152   -110     35    188    192 234.0  10.6  34180  289.92 0855.19
2009/04/23 11:54:55.9    -132   -106     -5    170    171 231.1  -1.8  34182  289.96 0855.19
2009/04/23 11:54:56.0    -133   -112    -24    175    177 229.8  -8.0  34180  289.92 0855.19
2009/04/23 11:54:56.1    -203   -120    -48    236    241 239.4 -11.6  34180  289.90 0855.17
2009/04/23 11:54:56.2    -181   -126    -34    221    224 235.1  -8.8  34176  289.85 0855.17
2009/04/23 11:54:56.3    -138    -87    -17    164    165 237.6  -6.2  34176  289.85 0855.17
2009/04/23 11:54:56.4    -122    -41    -73    129    148 251.4 -36.3  34174  289.82 0855.17
2009/04/23 11:54:56.5    -143     -3    -80    144    164 268.7 -36.0  34178  289.89 0855.17
2009/04/23 11:54:56.6     -71    -97    -54    121    132 216.1 -29.6  34182  289.96 0855.17
2009/04/23 11:54:56.7     -60    -83    -38    103    109 216.0 -24.8  34184  289.99 0855.17
2009/04/23 11:54:56.8     -45   -124     51    132    141 200.0  22.5  34176  289.84 0855.17
2009/04/23 11:54:56.9    -164   -114    -63    201    211 235.1 -17.5  34196  290.18 0855.17
2009/04/23 11:54:57.0    -163   -111     -7    198    199 235.6  -2.2  34182  289.96 0855.17
2009/04/23 11:54:57.2    -170    -94    -37    195    199 241.1 -10.9  34182  289.96 0855.17
2009/04/23 11:54:57.3    -129    -67    -55    146    156 242.5 -25.4  34186  290.02 0855.17
2009/04/23 11:54:57.3    -121   -118     -3    170    171 225.6  -1.1  34186  290.01 0855.17
2009/04/23 11:54:57.4     -86   -127     -8    154    155 214.3  -3.1  34190  290.08 0855.17
2009/04/23 11:54:57.5     -50   -115    -29    126    130 203.6 -13.3  34190  290.09 0855.17
2009/04/23 11:54:57.6     -24   -174    -51    176    183 188.0 -21.0  34182  289.94 0855.17
2009/04/23 11:54:57.7     -38   -138   -108    144    180 195.6 -45.1  34184  289.97 0855.17
2009/04/23 11:54:57.8      26   -131    -27    134    137 168.4 -11.5  34174  289.82 0855.17
2009/04/23 11:54:57.9     105   -154     37    187    191 145.5  11.4  34180  289.91 0855.17
2009/04/23 11:54:58.0     121   -147    -60    191    201 140.4 -17.5  34176  289.84 0855.17
2009/04/23 11:54:58.1      99   -198    -58    222    230 153.5 -14.7  34178  289.87 0855.17
2009/04/23 11:54:58.2     169   -229    -25    285    287 143.5  -5.2  34174  289.81 0855.17
2009/04/23 11:54:58.3     198   -294    -13    355    356 145.9  -2.2  34174  289.82 0855.17
2009/04/23 11:54:58.4     204   -302     57    365    370 145.9   8.9  34178  289.89 0855.17
2009/04/23 11:54:58.5     213   -248     65    328    335 139.4  11.3  34176  289.84 0855.17
2009/04/23 11:54:58.6     174   -272     67    323    331 147.4  11.8  34176  289.83 0855.17
2009/04/23 11:54:58.7     155   -242     78    288    299 147.4  15.3  34174  289.80 0855.17
2009/04/23 11:54:58.8     163   -279     78    324    334 149.7  13.5  34172  289.76 0855.17
2009/04/23 11:54:58.9     161   -258     -1    305    306 148.1  -0.3  34170  289.75 0855.17
2009/04/23 11:54:59.0     177   -287     18    338    339 148.3   3.1  34166  289.67 0855.17
2009/04/23 11:54:59.1     204   -321     40    381    384 147.6   6.1  34172  289.79 0855.17
2009/04/23 11:54:59.2     252   -289     70    384    391 138.9  10.4  34168  289.72 0855.17
2009/04/23 11:54:59.3     308   -320     28    445    446 136.1   3.6  34168  289.72 0855.17
2009/04/23 11:54:59.4     276   -316     -4    420    421 138.9  -0.6  34170  289.73 0855.17
2009/04/23 11:54:59.5     147   -293     -7    328    329 153.3  -1.4  34172  289.76 0855.17
2009/04/23 11:54:59.6     128   -325      9    350    351 158.4   1.5  34168  289.72 0855.17
2009/04/23 11:54:59.7      77   -322     30    332    334 166.5   5.3  34172  289.79 0855.17
2009/04/23 11:54:59.8      58   -328    -24    334    335 169.9  -4.1  34174  289.81 0855.17
2009/04/23 11:54:59.9      -4   -307    -64    308    315 180.9 -11.8  34174  289.81 0855.17
2009/04/23 11:55:00.0       0   -323      4    324    325 180.0   0.8  34174  289.81 0855.17
2009/04/23 11:55:00.1     -50   -230    -73    236    247 192.3 -22.1  34180  289.90 0855.16
2009/04/23 11:55:00.2     -60   -187    -56    197    205 197.8 -16.0  34174  289.80 0855.16
2009/04/23 11:55:00.3     -59   -192     -4    202    203 197.2  -1.3  34178  289.89 0855.16
2009/04/23 11:55:00.4    -189   -196   -144    273    308 223.9 -34.5  34160  289.56 0855.16
2009/04/23 11:55:00.5    -289   -172   -124    337    359 239.3 -25.4  34168  289.71 0855.16
2009/04/23 11:55:00.6    -195   -119   -223    229    319 238.5 -53.8  34152  289.42 0855.16
2009/04/23 11:55:00.7    -181     62   -139    192    237 289.1 -43.9  34160  289.57 0855.16
2009/04/23 11:55:00.8    -175     12   -154    176    233 274.1 -50.2  34174  289.80 0855.16
2009/04/23 11:55:00.9       3    -78   -109     79    134 177.3 -64.9  34166  289.67 0855.16
2009/04/23 11:55:01.0     146   -179   -136    232    268 140.8 -37.5  34170  289.75 0855.16
2009/04/23 11:55:01.1     121   -255   -189    283    340 154.5 -41.3  34170  289.75 0855.16
2009/04/23 11:55:01.3     102   -227   -103    250    270 155.7 -28.0  34172  289.78 0855.16
2009/04/23 11:55:01.4      59   -219     -6    227    228 164.8  -1.6  34172  289.77 0855.16
2009/04/23 11:55:01.5      60   -248    -32    256    259 166.4  -7.3  34176  289.85 0855.16
2009/04/23 11:55:01.6      52   -250    -42    256    260 168.2  -9.3  34174  289.81 0855.16
2009/04/23 11:55:01.7      55   -223    -77    230    243 166.0 -18.7  34158  289.54 0855.16
2009/04/23 11:55:01.8      62   -235    -67    244    254 165.1 -15.5  34160  289.58 0855.16
2009/04/23 11:55:01.9     165   -176     29    242    244 137.0   6.9  34146  289.34 0855.16
2009/04/23 11:55:02.0     246   -197     92    316    330 128.6  16.3  34152  289.44 0855.16
2009/04/23 11:55:02.1     209   -197     51    288    293 133.3  10.1  34154  289.46 0855.16
2009/04/23 11:55:02.2     312   -230    148    388    415 126.4  22.0  34158  289.55 0855.15
2009/04/23 11:55:02.3     274   -200    120    340    361 126.1  19.5  34174  289.81 0855.15
2009/04/23 11:55:02.4     293   -139    215    325    389 115.5  36.6  34156  289.52 0855.15
2009/04/23 11:55:02.5     224    -80    228    239    330 109.7  48.7  34160  289.58 0855.15
2009/04/23 11:55:02.6     138   -136    237    194    306 134.6  56.4  34176  289.85 0855.15
2009/04/23 11:55:02.7     -49    100    164    112    198 333.7  62.6  34172  289.79 0855.15
2009/04/23 11:55:02.8     114    -13    123    115    168  96.6  52.0  34192  290.11 0855.15
2009/04/23 11:55:02.9     168     47     14    175    176  74.3   4.6  34202  290.28 0855.15
2009/04/23 11:55:03.0     114     -9     10    115    116  94.8   5.0  34198  290.23 0855.15
2009/04/23 11:55:03.1      76    -10     30     77     82  97.9  22.0  34202  290.28 0855.15
2009/04/23 11:55:03.2      27    -14     48     31     57 118.9  64.6  34198  290.23 0855.16
2009/04/23 11:55:03.3      -7    -67     96     68    117 186.2  60.6  34196  290.19 0855.16
2009/04/23 11:55:03.4      23    -40     77     47     90 150.1  65.1  34194  290.14 0855.16
2009/04/23 11:55:03.5      -5   -107    137    108    174 183.1  57.7  34180  289.92 0855.16
2009/04/23 11:55:03.6     -54   -166     82    175    193 198.3  27.1  34184  289.97 0855.16
2009/04/23 11:55:03.7     -77   -162     63    180    191 205.4  19.4  34178  289.87 0855.16
2009/04/23 11:55:03.8     -81   -182     86    200    217 204.1  24.9  34176  289.84 0855.16
2009/04/23 11:55:03.9     -72   -161     68    177    189 204.3  22.0  34174  289.82 0855.16
2009/04/23 11:55:04.0       2   -149     52    150    159 179.1  19.2  34176  289.84 0855.16
2009/04/23 11:55:04.1      10   -180     64    181    191 176.6  20.0  34176  289.84 0855.16
2009/04/23 11:55:04.2     -68   -274     88    283    297 194.0  17.4  34178  289.86 0855.16
2009/04/23 11:55:04.3     -33   -392     54    394    398 184.9   7.9  34178  289.89 0855.16
2009/04/23 11:55:04.4     -57   -401     50    406    410 188.1   7.1  34180  289.92 0855.16
2009/04/23 11:55:04.5     -26   -447   -111    448    462 183.4 -13.9  34182  289.95 0855.16
2009/04/23 11:55:04.6      55   -547    -65    550    554 174.2  -6.8  34178  289.89 0855.16
2009/04/23 11:55:04.7      66   -576    -56    580    583 173.4  -5.6  34176  289.85 0855.16
2009/04/23 11:55:04.8     263   -572    205    630    663 155.3  18.0  34174  289.81 0855.16
2009/04/23 11:55:04.9     190   -482    216    519    562 158.4  24.1  34168  289.72 0855.16
2009/04/23 11:55:05.0     229   -439    287    496    573 152.4  32.7  34174  289.82 0855.16
2009/04/23 11:55:05.1     232   -469    233    524    573 153.6  25.6  34174  289.80 0855.16
2009/04/23 11:55:05.2     312   -458    234    555    602 145.7  24.2  34174  289.80 0855.17
2009/04/23 11:55:05.3     354   -410    140    542    560 139.2  14.5  34162  289.60 0855.17
2009/04/23 11:55:05.4     268   -379    143    465    487 144.8  17.2  34172  289.78 0855.17
2009/04/23 11:55:05.5     259   -414     24    489    490 148.0   2.9  34170  289.73 0855.17
2009/04/23 11:55:05.6     215   -411    -18    464    465 152.4  -2.2  34176  289.83 0855.17
2009/04/23 11:55:05.7     176   -441    -46    476    479 158.2  -5.6  34174  289.81 0855.17
2009/04/23 11:55:05.8     148   -567    -17    587    588 165.3  -1.7  34186  290.02 0855.17
2009/04/23 11:55:05.9     161   -544    -71    568    573 163.5  -7.2  34186  290.00 0855.17
2009/04/23 11:55:06.0      94   -527    -67    536    541 169.9  -7.2  34182  289.94 0855.17
2009/04/23 11:55:06.1      -2   -600      2    601    602 180.2   0.2  34172  289.76 0855.17
2009/04/23 11:55:06.2     -25   -636     26    637    638 182.3   2.3  34174  289.81 0855.17
2009/04/23 11:55:06.3     -75   -691     61    696    699 186.3   5.1  34176  289.83 0855.17
2009/04/23 11:55:06.4    -232   -557     26    604    605 202.6   2.5  34180  289.91 0855.17
2009/04/23 11:55:06.5    -218   -627     -8    664    665 199.2  -0.7  34174  289.82 0855.17
2009/04/23 11:55:06.6    -424   -702   -125    821    831 211.1  -8.7  34182  289.94 0855.17
2009/04/23 11:55:06.7    -354   -601   -200    698    727 210.5 -16.0  34180  289.91 0855.17
2009/04/23 11:55:06.8    -317   -687   -151    757    773 204.8 -11.3  34174  289.80 0855.17
2009/04/23 11:55:06.9     -59   -597   -188    600    628 185.7 -22.4  34136  289.18 0855.17
2009/04/23 11:55:07.0    -112   -421   -142    436    458 194.9 -23.5  34138  289.19 0855.17
2009/04/23 11:55:07.1    -178   -621   -112    647    657 196.0  -9.9  34162  289.59 0855.17
2009/04/23 11:55:07.2     -54   -552   -167    555    580 185.7 -16.8  34134  289.14 0855.17
2009/04/23 11:55:07.3     -58   -537    -78    541    547 186.2  -8.3  34132  289.11 0855.17
2009/04/23 11:55:07.4     -60   -679    -10    682    683 185.1  -0.9  34164  289.65 0855.17
2009/04/23 11:55:07.5      -9   -633      0    634    635 180.9   0.0  34166  289.69 0855.17
2009/04/23 11:55:07.6     -60   -608     95    611    619 185.7   8.9  34156  289.50 0855.17
2009/04/23 11:55:07.7    -151   -551    210    572    609 195.4  21.0  34164  289.63 0855.17
2009/04/23 11:55:07.8      44   -580    -84    582    589 175.6  -8.2  34156  289.51 0855.17
2009/04/23 11:55:07.9     138   -661    105    676    685 168.2   8.9  34164  289.65 0855.17
2009/04/23 11:55:08.0      97   -696    -17    704    705 172.0  -1.4  34158  289.55 0855.17
2009/04/23 11:55:08.1     125   -601    -27    615    616 168.2  -2.6  34156  289.52 0855.17
2009/04/23 11:55:08.2      92   -559     39    567    569 170.6   4.0  34174  289.80 0855.17
2009/04/23 11:55:08.3     145   -554     27    573    574 165.3   2.8  34156  289.51 0855.17
2009/04/23 11:55:08.4      62   -496     50    500    503 172.8   5.8  34158  289.54 0855.17
2009/04/23 11:55:08.5      -6   -446    -74    447    454 180.9  -9.4  34150  289.41 0855.17
2009/04/23 11:55:08.6     -53   -567     48    570    573 185.4   4.9  34148  289.36 0855.17
2009/04/23 11:55:08.7      12   -477    -40    478    480 178.5  -4.9  34152  289.44 0855.17
2009/04/23 11:55:08.8     -54   -410    -68    414    420 187.6  -9.4  34154  289.48 0855.17
2009/04/23 11:55:08.9    -146   -621   -165    638    659 193.3 -14.5  34154  289.47 0855.17
2009/04/23 11:55:09.0    -275   -518   -210    587    624 208.0 -19.7  34146  289.34 0855.17
2009/04/23 11:55:09.1    -173   -591   -121    616    628 196.4 -11.1  34150  289.40 0855.17
2009/04/23 11:55:09.2     -92   -589   -153    597    617 188.9 -14.4  34144  289.29 0855.17
2009/04/23 11:55:09.3    -101   -591   -120    600    612 189.8 -11.3  34148  289.36 0855.17
2009/04/23 11:55:09.4    -158   -552   -105    575    585 196.0 -10.4  34146  289.32 0855.17
2009/04/23 11:55:09.5     -34   -466     -5    468    469 184.2  -0.7  34146  289.35 0855.17
2009/04/23 11:55:09.6      11   -399     -3    400    401 178.3  -0.5  34148  289.37 0855.17
2009/04/23 11:55:09.7     -12   -409     -8    410    411 181.8  -1.2  34150  289.41 0855.17
2009/04/23 11:55:09.8     -80   -362    -74    371    379 192.6 -11.3  34146  289.33 0855.17
2009/04/23 11:55:09.9     -98   -354    -98    368    381 195.6 -15.0  34148  289.37 0855.17
2009/04/23 11:55:10.0     -38   -321    -99    324    338 186.9 -21.9  34144  289.30 0855.17
2009/04/23 11:55:10.1      41   -293     25    297    299 171.9   4.9  34150  289.39 0855.17
2009/04/23 11:55:10.2      82   -304     40    316    319 164.8   7.2  34150  289.41 0855.17
2009/04/23 11:55:10.3      40   -343      9    346    347 173.3   1.5  34150  289.40 0855.17
2009/04/23 11:55:10.4      94   -325    -31    339    341 163.9  -5.4  34152  289.42 0855.17
2009/04/23 11:55:10.5     -24   -199    -56    201    209 186.9 -15.8  34146  289.35 0855.17
2009/04/23 11:55:10.6      73   -272     34    282    285 164.9   6.9  34152  289.44 0855.17
2009/04/23 11:55:10.7     -64   -318     -2    325    326 191.4  -0.5  34146  289.34 0855.17
2009/04/23 11:55:10.8    -120   -433    -66    450    455 195.6  -8.4  34156  289.51 0855.17
2009/04/23 11:55:10.9    -199   -405    -42    452    455 206.2  -5.3  34154  289.46 0855.17
2009/04/23 11:55:11.0    -167   -307    -70    350    357 208.6 -11.3  34158  289.54 0855.17
2009/04/23 11:55:11.1    -208   -313   -104    376    391 213.6 -15.5  34152  289.42 0855.17
2009/04/23 11:55:11.2    -105   -296    160    315    353 199.6  29.1  34150  289.40 0855.16
2009/04/23 11:55:11.3     -39   -313    159    316    353 187.1  28.7  34160  289.57 0855.16
2009/04/23 11:55:11.4      66   -208    126    219    252 162.4  32.7  34156  289.51 0855.16
2009/04/23 11:55:11.5     123   -167     64    208    218 143.5  17.3  34150  289.40 0855.16
2009/04/23 11:55:11.6      41   -193    -74    198    211 168.0 -25.7  34156  289.52 0855.16
2009/04/23 11:55:11.7      98   -230    -96    251    268 156.8 -26.4  34150  289.41 0855.16
2009/04/23 11:55:11.8     189   -121   -309    225    382 122.6 -64.9  34162  289.62 0855.16
2009/04/23 11:55:11.9      44     12   -238     46    242  74.1 -90.0  34160  289.57 0855.16
2009/04/23 11:55:12.0    -142   -126   -327    190    378 228.4 -71.8  34160  289.56 0855.16
2009/04/23 11:55:12.1    -315    177   -285    362    460 299.3 -46.6  34142  289.26 0855.16
2009/04/23 11:55:12.2    -363     44   -169    366    403 277.0 -30.9  34154  289.47 0855.16
2009/04/23 11:55:12.3    -377     89     18    388    389 283.3   2.8  34158  289.54 0855.16
2009/04/23 11:55:12.4    -306    -77    -20    316    317 255.8  -3.8  34160  289.56 0855.16
2009/04/23 11:55:12.5    -242      0     57    243    250 270.0  13.2  34172  289.76 0855.16
2009/04/23 11:55:12.6    -414     -3   -148    415    441 269.5 -19.7  34186  290.02 0855.16
2009/04/23 11:55:12.7    -510   -145    -53    531    534 254.1  -5.8  34184  289.99 0855.16
2009/04/23 11:55:12.8    -427   -114    -19    442    443 255.0  -2.5  34178  289.87 0855.16
2009/04/23 11:55:12.9    -356    -64   -122    362    383 259.7 -18.7  34172  289.77 0855.16
2009/04/23 11:55:13.0    -388     22    -69    389    396 273.3 -10.1  34182  289.93 0855.16
2009/04/23 11:55:13.1    -469   -102   -124    481    497 257.7 -14.5  34178  289.86 0855.16
2009/04/23 11:55:13.2    -416    -69   -186    422    461 260.5 -29.6  34162  289.60 0855.13
2009/04/23 11:55:13.3    -385    -59   -255    390    465 261.3 -40.6  34168  289.70 0855.13
2009/04/23 11:55:13.4    -275     -3   -140    276    309 269.2 -33.5  34176  289.85 0855.13
2009/04/23 11:55:13.5    -285    108   -161    305    344 290.8 -34.6  34188  290.04 0855.13
2009/04/23 11:55:13.6    -406     16   -267    407    486 272.3 -40.7  34190  290.07 0855.13
2009/04/23 11:55:13.7    -483     74   -173    489    518 278.8 -24.6  34178  289.86 0855.13
2009/04/23 11:55:13.8    -336    116   -206    356    411 289.2 -37.0  34198  290.21 0855.13
2009/04/23 11:55:13.9    -277     47   -123    282    307 279.7 -29.5  34178  289.86 0855.13
2009/04/23 11:55:14.0    -401    -11   -148    402    428 268.4 -25.4  34184  289.99 0855.13
2009/04/23 11:55:14.1    -321    124     74    345    354 291.1  12.2  34182  289.94 0855.13
2009/04/23 11:55:14.2    -270    138    108    304    322 297.1  20.3  34174  289.80 0855.13
2009/04/23 11:55:14.3    -120    -18   -123    122    173 261.2 -54.3  34188  290.04 0855.13
2009/04/23 11:55:14.4    -119     57    -21    133    135 295.8  -9.3  34184  289.99 0855.13
2009/04/23 11:55:14.5    -147    204     98    252    270 324.2  22.5  34168  289.71 0855.13
2009/04/23 11:55:14.6    -267     71    -23    277    279 285.0  -4.9  34188  290.03 0855.13
2009/04/23 11:55:14.7    -202     28    -81    204    219 277.9 -27.4  34182  289.94 0855.13
2009/04/23 11:55:14.8    -134     68     53    151    161 297.1  19.4  34174  289.80 0855.13
2009/04/23 11:55:14.9    -143    113    -20    183    185 308.2  -6.2  34176  289.85 0855.13
2009/04/23 11:55:15.0    -120     99     61    156    167 309.6  22.3  34182  289.96 0855.13
2009/04/23 11:55:15.1      -3    127    133    128    184 358.6  50.9  34190  290.08 0855.13
2009/04/23 11:55:15.2     -18    180     94    181    203 354.2  29.5  34186  290.02 0855.11
2009/04/23 11:55:15.3      15     77     49     79     92  11.5  35.5  34184  289.99 0855.11
2009/04/23 11:55:15.4      10    170     72    171    185   3.6  23.8  34186  290.02 0855.11
2009/04/23 11:55:15.5      35     56     37     67     76  32.5  31.4  34188  290.06 0855.11
2009/04/23 11:55:15.6      97    -48    -36    109    114 116.2 -23.8  34184  289.99 0855.11
2009/04/23 11:55:15.7      78    -94    -74    123    143 140.4 -38.4  34188  290.04 0855.11
2009/04/23 11:55:15.8      69    -74    -73    102    125 137.2 -43.5  34188  290.04 0855.11
2009/04/23 11:55:15.9      39    -90    -34     99    105 156.8 -19.1  34184  289.99 0855.11
2009/04/23 11:55:16.0     -26   -112    -74    116    137 193.4 -40.0  34184  289.97 0855.11
2009/04/23 11:55:16.1     -20   -172     -6    174    175 186.9  -2.2  34176  289.85 0855.11
2009/04/23 11:55:16.2    -127   -240    -35    272    275 207.9  -7.3  34172  289.76 0855.11
2009/04/23 11:55:16.3    -119   -338     11    359    360 199.5   1.8  34172  289.76 0855.11
2009/04/23 11:55:16.4     -47   -334    137    338    364 188.0  23.4  34172  289.77 0855.11
2009/04/23 11:55:16.5    -150   -322     39    356    359 204.9   6.4  34168  289.72 0855.11
2009/04/23 11:55:16.6     -99   -287    119    304    326 199.2  22.5  34174  289.80 0855.11
2009/04/23 11:55:16.7       3   -223    123    224    255 179.0  31.3  34172  289.76 0855.11
2009/04/23 11:55:16.8       2   -257     86    258    273 179.5  18.6  34174  289.81 0855.11
2009/04/23 11:55:16.9     -29   -316     45    318    322 185.4   8.1  34170  289.75 0855.11
2009/04/23 11:55:17.0      41   -374    103    377    391 173.7  15.3  34168  289.71 0855.11
2009/04/23 11:55:17.1      55   -387     69    391    398 171.9  10.1  34168  289.72 0855.11
2009/04/23 11:55:17.2     -58   -375     -7    380    381 188.8  -1.2  34172  289.76 0855.13
2009/04/23 11:55:17.3    -119   -485     32    500    502 193.8   3.7  34164  289.64 0855.13
2009/04/23 11:55:17.4    -145   -542      4    562    563 195.1   0.5  34166  289.68 0855.13
2009/04/23 11:55:17.5      14   -478     80    479    486 178.2   9.5  34162  289.62 0855.13
2009/04/23 11:55:17.6     -58   -385     37    390    392 188.6   5.4  34168  289.72 0855.13
2009/04/23 11:55:17.7     -67   -350    -24    357    358 190.9  -3.9  34168  289.72 0855.13
2009/04/23 11:55:17.8    -113   -413     33    429    431 195.3   4.5  34168  289.72 0855.13
2009/04/23 11:55:17.9    -166   -517     10    544    545 197.8   1.1  34168  289.70 0855.13
2009/04/23 11:55:18.0     -62   -380    135    386    410 189.4  19.3  34172  289.76 0855.13
2009/04/23 11:55:18.1     -47   -331    178    335    379 188.2  30.3  34174  289.81 0855.13
2009/04/23 11:55:18.2     -51   -274     61    279    286 190.7  12.4  34170  289.73 0855.13
2009/04/23 11:55:18.3     -49   -241     79    247    260 191.6  17.7  34170  289.75 0855.13
2009/04/23 11:55:18.4     -68   -252     57    262    269 195.2  12.4  34168  289.70 0855.13
2009/04/23 11:55:18.5     -77   -325    156    335    369 193.4  26.9  34164  289.65 0855.13
2009/04/23 11:55:18.6    -184   -355    309    400    505 207.4  41.6  34164  289.64 0855.13
2009/04/23 11:55:18.7     -92   -230    201    248    319 201.8  43.1  34168  289.70 0855.13
2009/04/23 11:55:18.8     -53   -372    238    376    444 188.1  35.5  34176  289.85 0855.13
2009/04/23 11:55:18.9    -114   -343    199    362    413 198.5  31.3  34170  289.74 0855.13
2009/04/23 11:55:19.0    -136   -207    179    249    306 213.4  39.5  34170  289.75 0855.13
2009/04/23 11:55:19.1      73    -17    171     76    187 103.3  74.5  34176  289.85 0855.13
2009/04/23 11:55:19.2     -29    -15    176     33    179 242.9  90.0  34182  289.96 0855.14
2009/04/23 11:55:19.3      53   -181    166    189    251 163.7  45.8  34172  289.76 0855.14
2009/04/23 11:55:19.4     -57   -176    217    186    285 198.0  55.3  34174  289.81 0855.14
2009/04/23 11:55:19.5     112   -112    125    159    202 135.0  42.0  34168  289.72 0855.14
2009/04/23 11:55:19.6     279    -53    112    285    306 100.8  23.0  34172  289.76 0855.14
2009/04/23 11:55:19.7     285    -86    113    298    318 106.9  21.7  34170  289.75 0855.14
2009/04/23 11:55:19.8     202    -41     40    207    211 101.5  11.0  34166  289.69 0855.14
2009/04/23 11:55:19.9     239     48    -38    244    248  78.5  -9.0  34170  289.73 0855.14
2009/04/23 11:55:20.0     208     93     73    229    241  65.8  17.7  34168  289.71 0855.14
2009/04/23 11:55:20.1     128     48    133    137    190  69.2  49.2  34172  289.77 0855.14
2009/04/23 11:55:20.2     -24    -51    105     57    119 205.3  68.9  34168  289.70 0855.14
2009/04/23 11:55:20.3      33    -42    128     54    138 141.3  76.1  34172  289.79 0855.14
2009/04/23 11:55:20.4     283   -141    232    317    392 116.6  39.9  34172  289.76 0855.14
2009/04/23 11:55:20.5      44   -163    141    169    220 164.9  43.8  34168  289.72 0855.14
2009/04/23 11:55:20.6     115   -130    158    174    235 138.6  46.9  34158  289.55 0855.14
2009/04/23 11:55:20.7      49   -231     99    237    256 168.0  24.1  34164  289.64 0855.14
2009/04/23 11:55:20.8     161    -98    118    189    222 121.5  35.5  34170  289.75 0855.14
2009/04/23 11:55:20.9     129    -18     62    131    144  97.9  27.2  34170  289.75 0855.14
2009/04/23 11:55:21.0     146     97     67    176    188  56.5  21.7  34166  289.67 0855.14
2009/04/23 11:55:21.1      15    238    -71    239    250   3.6 -16.6  34168  289.70 0855.14
2009/04/23 11:55:21.2     -14    316     -7    317    318 357.4  -1.4  34162  289.61 0855.18
2009/04/23 11:55:21.3      67    202    117    214    243  18.5  31.3  34170  289.73 0855.18
2009/04/23 11:55:21.4      76    -15    182     78    198 101.4  75.5  34164  289.65 0855.18
2009/04/23 11:55:21.5      76      5    267     77    277  85.6  83.8  34174  289.82 0855.18
2009/04/23 11:55:21.6     -32   -394    268    396    478 184.7  37.3  34168  289.70 0855.18
2009/04/23 11:55:21.7    -183   -417    230    456    510 203.7  28.9  34166  289.67 0855.18
2009/04/23 11:55:21.8     -37    -78    201     87    219 205.4  75.0  34146  289.33 0855.18
2009/04/23 11:55:21.9     297   -310    279    430    512 136.3  36.0  34168  289.71 0855.18
2009/04/23 11:55:22.0     366   -399    162    542    566 137.5  16.7  34164  289.63 0855.18
2009/04/23 11:55:22.1     384   -275     47    473    476 125.6   5.7  34164  289.64 0855.18
2009/04/23 11:55:22.2     272   -194    112    335    354 125.5  18.5  34158  289.55 0855.18
2009/04/23 11:55:22.3     153   -184    234    240    335 140.3  49.3  34160  289.56 0855.18
2009/04/23 11:55:22.4      32   -291    264    293    394 173.7  46.8  34160  289.57 0855.18
2009/04/23 11:55:22.5    -122   -391    256    410    483 197.4  35.0  34162  289.60 0855.18
2009/04/23 11:55:22.6      41   -300    184    303    354 172.2  34.1  34148  289.37 0855.18
2009/04/23 11:55:22.7     173      3    337    174    379  88.7  70.8  34172  289.76 0855.18
2009/04/23 11:55:22.8     254    -59    245    261    357 103.3  48.0  34170  289.74 0855.18
2009/04/23 11:55:22.9     296    -77    285    306    418 104.6  47.9  34168  289.72 0855.18
2009/04/23 11:55:23.0      52    -38    227     65    236 126.0  83.9  34166  289.67 0855.18
2009/04/23 11:55:23.1      72    -14    234     74    245 101.5  81.8  34172  289.79 0855.18
2009/04/23 11:55:23.2    -105   -354    353    370    511 196.6  48.5  34156  289.49 0855.19
2009/04/23 11:55:23.3      61   -497    395    501    637 172.9  42.3  34152  289.44 0855.19
2009/04/23 11:55:23.4     -22   -576    326    577    662 182.2  32.0  34158  289.55 0855.19
2009/04/23 11:55:23.5     -77   -374    191    383    427 191.7  28.4  34160  289.58 0855.19
2009/04/23 11:55:23.6      27   -295    261    297    395 174.7  45.8  34156  289.50 0855.19
2009/04/23 11:55:23.7     -10   -140    143    141    200 184.4  50.2  34166  289.69 0855.19
2009/04/23 11:55:23.8      56    -77    107     96    143 143.9  53.3  34162  289.60 0855.19
2009/04/23 11:55:23.9     124    -67    188    142    235 118.4  59.2  34166  289.69 0855.19
2009/04/23 11:55:24.0     136   -384    349    408    536 160.5  44.8  34164  289.64 0855.19
2009/04/23 11:55:24.1     100   -420    427    432    607 166.5  49.9  34160  289.58 0855.19
2009/04/23 11:55:24.2      90   -225     79    243    256 158.2  18.1  34162  289.61 0855.15
2009/04/23 11:55:24.3     472    -40    394    474    616  94.9  43.8  34164  289.64 0855.15
2009/04/23 11:55:24.4     490      0    211    491    534  90.1  24.8  34168  289.70 0855.15
2009/04/23 11:55:24.5     377    103    252    391    465  74.7  35.6  34168  289.72 0855.15
2009/04/23 11:55:24.6     272   -134    203    304    365 116.2  36.9  34170  289.74 0855.15
2009/04/23 11:55:24.7     146   -219    151    264    304 146.2  32.3  34160  289.58 0855.15
2009/04/23 11:55:24.8     147   -311    191    344    393 154.7  31.4  34154  289.47 0855.15
2009/04/23 11:55:24.9     135   -315    159    343    378 156.8  26.9  34156  289.50 0855.15
2009/04/23 11:55:25.0     193   -225    278    297    406 139.5  47.9  34154  289.48 0855.15
2009/04/23 11:55:25.1     178   -217    205    281    347 140.6  39.7  34164  289.63 0855.15
2009/04/23 11:55:25.2      68   -212    150    223    268 162.2  37.0  34158  289.53 0855.15
2009/04/23 11:55:25.3      74   -255    230    266    351 163.7  45.5  34160  289.56 0855.15
2009/04/23 11:55:25.4      50   -197    257    204    328 165.7  57.6  34162  289.59 0855.15
2009/04/23 11:55:25.5     256     19    249    257    357  85.7  49.2  34166  289.66 0855.15
2009/04/23 11:55:25.6     333     86    167    344    382  75.5  27.7  34164  289.64 0855.15
2009/04/23 11:55:25.7     356    -50     84    360    370  98.0  13.2  34162  289.62 0855.15
2009/04/23 11:55:25.8     246    -79     57    259    266 107.9  12.4  34156  289.49 0855.15
2009/04/23 11:55:25.9     218    -73    176    231    290 108.6  41.4  34166  289.68 0855.15
2009/04/23 11:55:26.0     168   -103    145    198    245 121.5  39.9  34164  289.65 0855.15
2009/04/23 11:55:26.1       7   -163    199    164    257 177.3  56.4  34158  289.55 0855.15
2009/04/23 11:55:26.2      78   -167    149    185    237 155.1  42.8  34162  289.62 0855.08
2009/04/23 11:55:26.3      29   -108    190    112    220 164.8  66.8  34170  289.75 0855.08
2009/04/23 11:55:26.4     -52    -18     42     56     70 250.9  40.7  34162  289.62 0855.08
2009/04/23 11:55:26.5      36    155    -20    160    162  13.3  -7.3  34164  289.63 0855.08
2009/04/23 11:55:26.6     203    282     61    348    354  35.9  10.0  34170  289.74 0855.08
2009/04/23 11:55:26.7      25    232    143    234    274   6.2  34.4  34170  289.73 0855.08
2009/04/23 11:55:26.8      49    147    115    156    193  18.7  39.9  34170  289.74 0855.08
2009/04/23 11:55:26.9      67      4    185     68    197  86.5  79.1  34182  289.94 0855.08
2009/04/23 11:55:27.0     -17     22    187     29    189 322.2  90.0  34176  289.85 0855.08
2009/04/23 11:55:27.1    -265   -171     95    316    331 237.1  16.8  34166  289.68 0855.08
2009/04/23 11:55:27.2    -129    -42    102    136    170 251.8  40.9  34166  289.69 0855.08
2009/04/23 11:55:27.4      67    -72    172     99    198 136.8  67.5  34178  289.87 0855.08
2009/04/23 11:55:27.4    -152    -70    138    168    217 245.2  43.7  34182  289.96 0855.08
2009/04/23 11:55:27.5      15      4     28     16     32  74.9  66.8  34190  290.08 0855.08
2009/04/23 11:55:27.6     142    -41     74    148    165 106.4  28.7  34206  290.35 0855.08
2009/04/23 11:55:27.7     -88   -217    -49    235    241 202.1 -11.9  34188  290.03 0855.08
2009/04/23 11:55:27.9    -192   -277    122    338    359 214.7  20.7  34178  289.87 0855.08
2009/04/23 11:55:28.0    -151   -250    236    293    376 211.2  43.0  34180  289.91 0855.08
2009/04/23 11:55:28.1      95   -115    186    150    238 140.4  57.1  34192  290.13 0855.08
2009/04/23 11:55:28.2    -181   -331    175    378    416 208.7  26.6  34158  289.55 0855.08
2009/04/23 11:55:28.3    -235   -427     28    488    489 208.9   3.3  34170  289.73 0855.06
2009/04/23 11:55:28.4    -149   -316    121    350    371 205.2  19.2  34166  289.67 0855.06
2009/04/23 11:55:28.5     -21   -410     -1    411    412 183.0  -0.3  34170  289.75 0855.06
2009/04/23 11:55:28.6     -47   -408      1    411    412 186.7   0.2  34168  289.70 0855.06
2009/04/23 11:55:28.7     -48   -445    -53    448    452 186.3  -6.8  34162  289.61 0855.06
2009/04/23 11:55:28.8      42   -244     90    248    263 170.2  20.7  34168  289.70 0855.06
2009/04/23 11:55:28.9    -130    -73   -115    150    189 240.7 -45.8  34164  289.63 0855.06
2009/04/23 11:55:29.0     -43   -464    -42    467    469 185.4  -5.2  34170  289.74 0855.06
2009/04/23 11:55:29.1    -146   -487    -46    509    512 196.7  -5.2  34170  289.74 0855.06
2009/04/23 11:55:29.2    -166   -339    -18    378    379 206.2  -2.8  34174  289.81 0855.06
2009/04/23 11:55:29.3    -284   -344   -132    447    467 219.5 -16.5  34168  289.72 0855.06
2009/04/23 11:55:29.4    -119   -393   -174    411    446 196.9 -28.7  34168  289.72 0855.06
2009/04/23 11:55:29.5     -85   -458    299    466    553 190.6  35.6  34168  289.72 0855.06
2009/04/23 11:55:29.6    -117   -435    168    451    481 195.1  21.4  34178  289.86 0855.06
2009/04/23 11:55:29.7      72   -260    264    270    377 164.4  49.4  34182  289.93 0855.06
2009/04/23 11:55:29.8     -29   -270    106    272    291 186.2  22.3  34180  289.90 0855.06
2009/04/23 11:55:29.9     -63   -364    244    370    443 189.9  36.5  34170  289.73 0855.06
2009/04/23 11:55:30.0    -120   -123   -115    172    206 224.3 -41.4  34176  289.85 0855.06
2009/04/23 11:55:30.1    -258      7   -206    259    330 271.7 -47.1  34166  289.66 0855.06
2009/04/23 11:55:30.2    -268    -33   -161    271    315 262.8 -38.0  34164  289.64 0855.06
2009/04/23 11:55:30.3    -244    -72   -152    255    296 253.6 -37.9  34176  289.83 0855.06
2009/04/23 11:55:30.4    -171   -252    -65    305    313 214.2 -12.2  34176  289.85 0855.06
2009/04/23 11:55:30.5    -177   -166    132    243    276 226.9  31.0  34176  289.83 0855.06
2009/04/23 11:55:30.6    -112     16     96    114    149 278.4  43.8  34176  289.85 0855.06
2009/04/23 11:55:30.7     -70    159    166    174    240 336.2  48.7  34178  289.89 0855.06
2009/04/23 11:55:30.8     -82     90    165    123    205 317.7  59.4  34178  289.87 0855.06
2009/04/23 11:55:30.9      75     45    149     88    173  58.9  66.4  34184  289.99 0855.06
2009/04/23 11:55:31.0     113     52    108    125    165  65.2  45.4  34186  290.01 0855.06
2009/04/23 11:55:31.1      84     28    187     89    207  71.4  72.9  34184  289.99 0855.06
2009/04/23 11:55:31.2     -31     92    144     98    174 341.3  62.8  34186  290.02 0855.06
2009/04/23 11:55:31.3    -109    149    123    185    222 323.7  36.7  34180  289.91 0855.06
2009/04/23 11:55:31.4     -97    117     90    153    177 320.3  33.1  34184  289.97 0855.06
2009/04/23 11:55:31.5    -395    150     20    423    424 290.8   2.8  34184  289.99 0855.06
2009/04/23 11:55:31.6    -438    158     54    466    470 289.9   6.7  34178  289.89 0855.06
2009/04/23 11:55:31.7    -431     92     21    441    442 282.1   2.8  34180  289.90 0855.06
2009/04/23 11:55:31.8    -389      6    136    390    413 271.0  20.0  34176  289.85 0855.06
2009/04/23 11:55:31.9    -378   -114    128    395    416 253.2  18.0  34174  289.82 0855.06
2009/04/23 11:55:32.0    -370    -41    158    373    405 263.7  24.3  34172  289.77 0855.06
2009/04/23 11:55:32.1    -549    -67     -2    554    555 263.0  -0.3  34178  289.89 0855.06
2009/04/23 11:55:32.2    -468   -339    -17    578    579 234.1  -1.7  34170  289.75 0855.06
2009/04/23 11:55:32.3    -353   -291     35    458    460 230.5   4.4  34182  289.95 0855.05
2009/04/23 11:55:32.4    -246   -246     25    348    349 225.0   4.2  34188  290.04 0855.05
2009/04/23 11:55:32.5    -249   -158    -82    296    308 237.5 -15.5  34194  290.14 0855.05
2009/04/23 11:55:32.6     -32   -320   -192    322    374 185.8 -38.0  34178  289.89 0855.05
2009/04/23 11:55:32.7    -307   -268   -177    408    444 228.8 -29.5  34176  289.85 0855.05
2009/04/23 11:55:32.8     -53   -544   -174    547    575 185.6 -17.7  34166  289.67 0855.05
2009/04/23 11:55:32.9    -255   -521    -31    581    582 206.1  -3.1  34178  289.86 0855.05
2009/04/23 11:55:33.0    -234   -325     57    401    406 215.8   8.1  34194  290.14 0855.05
2009/04/23 11:55:33.1    -220   -365      5    427    428 211.1   0.7  34170  289.75 0855.05
2009/04/23 11:55:33.2     133   -452    138    472    492 163.6  16.3  34176  289.84 0855.05
2009/04/23 11:55:33.3     -16   -509     76    510    516 181.9   8.5  34180  289.91 0855.05
2009/04/23 11:55:33.4      50   -454     38    457    459 173.7   4.9  34178  289.88 0855.05
2009/04/23 11:55:33.5      45   -483     41    486    488 174.7   4.9  34182  289.95 0855.05
2009/04/23 11:55:33.6     140   -487    215    507    550 163.9  24.3  34176  289.85 0855.05
2009/04/23 11:55:33.7     148   -303    257    338    424 153.9  41.1  34184  289.98 0855.05
2009/04/23 11:55:33.8     171   -279    273    328    426 148.5  43.8  34174  289.82 0855.05
2009/04/23 11:55:33.9      85   -256    226    270    352 161.5  44.2  34180  289.92 0855.05
2009/04/23 11:55:34.0     259   -142     25    296    298 118.9   4.9  34184  289.97 0855.05
2009/04/23 11:55:34.1     245   -443     71    507    513 151.0   8.0  34180  289.91 0855.05
2009/04/23 11:55:34.2     135   -464    173    484    513 163.7  20.4  34172  289.79 0855.05
2009/04/23 11:55:34.3      53   -381    198    385    432 172.0  29.3  34184  289.97 0855.06
2009/04/23 11:55:34.4      -1   -406    234    407    469 180.3  32.6  34166  289.68 0855.06
2009/04/23 11:55:34.5     -39   -326    175    329    372 187.0  30.3  34166  289.69 0855.06
2009/04/23 11:55:34.6     -56   -252    211    259    334 192.5  43.5  34172  289.76 0855.06
2009/04/23 11:55:34.7     -36   -178    -50    182    189 191.6 -15.4  34168  289.70 0855.06
2009/04/23 11:55:34.8     -44   -109    -37    118    123 202.3 -22.3  34172  289.79 0855.06
2009/04/23 11:55:34.9       9   -211    -42    212    217 177.3 -11.3  34172  289.79 0855.06
2009/04/23 11:55:35.0     -24   -214     18    216    217 186.5   5.0  34174  289.82 0855.06
2009/04/23 11:55:35.1     -56   -274   -140    280    313 191.6 -33.0  34186  290.02 0855.06
2009/04/23 11:55:35.2      30   -165   -103    168    197 169.5 -38.8  34186  290.01 0855.06
2009/04/23 11:55:35.3     113   -203    -79    233    247 151.0 -18.7  34190  290.09 0855.06
2009/04/23 11:55:35.4      99   -374    -41    387    390 165.1  -6.1  34178  289.87 0855.06
2009/04/23 11:55:35.5     110   -302    -10    322    323 160.0  -1.9  34178  289.86 0855.06
2009/04/23 11:55:35.6      23   -331   -141    332    360 176.0 -28.7  34182  289.94 0855.06
2009/04/23 11:55:35.7     -17   -246    -96    247    265 184.0 -26.7  34182  289.95 0855.06
2009/04/23 11:55:35.8    -142   -235    -82    275    287 211.2 -16.6  34178  289.86 0855.06
2009/04/23 11:55:35.9    -175   -164    -72    241    252 226.9 -16.6  34180  289.92 0855.06
2009/04/23 11:55:36.0     -40   -132    -87    139    163 197.0 -39.6  34182  289.94 0855.06
2009/04/23 11:55:36.1      19   -166    -57    168    178 173.3 -18.7  34180  289.91 0855.06
2009/04/23 11:55:36.2       3   -111     -6    112    113 178.2  -3.1  34180  289.91 0855.06
2009/04/23 11:55:36.3     -22   -211    -62    213    221 186.0 -21.0  34176  289.84 0855.04
2009/04/23 11:55:36.4    -106   -266   -137    287    318 201.9 -31.8  34174  289.80 0855.04
2009/04/23 11:55:36.5     -40   -445   -104    447    460 185.2 -13.2  34166  289.68 0855.04
2009/04/23 11:55:36.6      30   -418    -92    420    431 175.9 -12.4  34164  289.65 0855.04
2009/04/23 11:55:36.7    -109   -270    -82    292    304 202.1 -15.8  34168  289.71 0855.04
2009/04/23 11:55:36.8     -58   -217   -131    225    260 195.2 -37.5  34170  289.73 0855.04
2009/04/23 11:55:36.9     -23   -191   -116    193    225 186.9 -38.4  34174  289.80 0855.04
2009/04/23 11:55:37.0     -12   -223   -108    224    248 183.1 -31.8  34174  289.80 0855.04
2009/04/23 11:55:37.1     106   -269   -126    290    316 158.4 -29.4  34158  289.54 0855.04
2009/04/23 11:55:37.2     121   -233   -119    263    288 152.4 -30.6  34148  289.37 0855.04
2009/04/23 11:55:37.3     143   -258    -37    296    299 151.0  -7.2  34148  289.36 0855.04
2009/04/23 11:55:37.4     111   -313      0    333    334 160.4   0.0  34154  289.48 0855.04
2009/04/23 11:55:37.5      81   -266     97    279    296 163.0  19.2  34144  289.31 0855.04
2009/04/23 11:55:37.6      84   -249    130    263    293 161.3  28.2  34148  289.36 0855.04
2009/04/23 11:55:37.7      50   -360    131    364    386 172.0  20.6  34142  289.26 0855.04
2009/04/23 11:55:37.8     136   -369     78    394    402 159.7  11.3  34146  289.33 0855.04
2009/04/23 11:55:37.9       6   -375      0    376    377 179.0   0.1  34152  289.42 0855.04
2009/04/23 11:55:38.0     -11   -323     18    324    325 182.1   3.3  34150  289.39 0855.04
2009/04/23 11:55:38.1      22   -358     31    359    361 176.4   5.1  34134  289.13 0855.04
2009/04/23 11:55:38.2      50   -323      9    328    329 171.1   1.7  34136  289.17 0855.04
2009/04/23 11:55:38.3      73   -282    -68    292    300 165.5 -13.2  34140  289.24 0855.02
2009/04/23 11:55:38.4      47   -240      3    245    246 168.9   0.7  34142  289.27 0855.02
2009/04/23 11:55:38.5      26   -211     26    213    215 172.9   7.2  34138  289.21 0855.02
2009/04/23 11:55:38.6      39   -177    -31    182    185 167.3  -9.8  34140  289.24 0855.02
2009/04/23 11:55:38.7      20   -191    -10    193    194 173.8  -3.1  34142  289.28 0855.02
2009/04/23 11:55:38.8     -38   -210     -8    214    215 190.5  -2.2  34142  289.26 0855.02
2009/04/23 11:55:38.9      -7   -184      0    185    186 182.2   0.0  34142  289.26 0855.02
2009/04/23 11:55:39.0     -43   -207     -6    212    213 191.8  -1.8  34138  289.21 0855.02
2009/04/23 11:55:39.1     -77   -233    -11    246    247 198.3  -2.6  34144  289.31 0855.02
2009/04/23 11:55:39.2     -83   -291    -11    303    304 196.1  -2.2  34140  289.24 0855.02
2009/04/23 11:55:39.3       0   -247     -9    248    249 179.9  -2.2  34142  289.27 0855.02
2009/04/23 11:55:39.4     -53   -250     50    256    261 192.0  11.1  34132  289.10 0855.02
2009/04/23 11:55:39.5     -46   -240     86    245    260 190.9  19.4  34140  289.24 0855.02
2009/04/23 11:55:39.6     -30   -283     40    285    288 186.2   8.0  34142  289.25 0855.02
2009/04/23 11:55:39.7      21   -290     35    291    294 175.8   6.9  34142  289.25 0855.02
2009/04/23 11:55:39.8     -19   -265    -42    266    270 184.2  -9.0  34142  289.27 0855.02
2009/04/23 11:55:39.9     -21   -241    -66    242    250 185.1 -20.0  34146  289.34 0855.02
2009/04/23 11:55:40.0      68   -283   -102    292    310 166.4 -19.4  34144  289.31 0855.02
2009/04/23 11:55:40.1      78   -353    -56    362    367 167.4  -8.9  34146  289.33 0855.02
2009/04/23 11:55:40.2     173   -361     20    401    402 154.4   2.9  34152  289.43 0855.02
2009/04/23 11:55:40.3     250   -429     18    497    498 149.7   2.1  34150  289.39 0855.02
2009/04/23 11:55:40.4     265   -390     79    472    479 145.7   9.6  34150  289.39 0855.02
2009/04/23 11:55:40.5     274   -351     40    446    448 142.0   5.2  34146  289.34 0855.02
2009/04/23 11:55:40.6     282   -493     36    568    570 150.2   3.6  34152  289.44 0855.02
2009/04/23 11:55:40.7     219   -459     66    509    514 154.5   7.4  34152  289.45 0855.02
2009/04/23 11:55:40.8     162   -387    209    420    469 157.3  28.4  34152  289.44 0855.02
2009/04/23 11:55:40.9     143   -374    194    401    445 159.1  27.7  34156  289.51 0855.02
2009/04/23 11:55:41.0     154   -323    170    358    396 154.5  27.3  34154  289.47 0855.02
2009/04/23 11:55:41.1     176   -340    185    383    425 152.6  27.7  34150  289.41 0855.02
2009/04/23 11:55:41.2      86   -336    130    347    370 165.6  21.4  34148  289.37 0855.02
2009/04/23 11:55:41.3     103   -350     25    365    366 163.6   4.0  34152  289.42 0855.02
2009/04/23 11:55:41.4     159   -233    -62    283    290 145.7 -12.4  34150  289.39 0855.02
2009/04/23 11:55:41.5     115   -322    -95    343    356 160.3 -15.5  34156  289.50 0855.02
2009/04/23 11:55:41.6     197   -503     56    541    544 158.6   6.0  34152  289.43 0855.02
2009/04/23 11:55:41.7     193   -530    -40    565    567 160.0  -4.1  34148  289.38 0855.02
2009/04/23 11:55:41.8      65   -378    -85    384    394 170.2 -12.6  34148  289.38 0855.02
2009/04/23 11:55:41.9      87   -302    -30    315    317 164.0  -5.6  34148  289.36 0855.02
2009/04/23 11:55:42.0      84   -357    -33    367    369 166.7  -5.2  34148  289.37 0855.02
2009/04/23 11:55:42.1     -82   -303    -23    314    315 195.2  -4.2  34152  289.44 0855.02
2009/04/23 11:55:42.2     -73   -270    -39    280    283 195.2  -8.0  34152  289.42 0855.02
2009/04/23 11:55:42.3    -105   -354    -71    370    377 196.6 -11.0  34156  289.52 0855.03
2009/04/23 11:55:42.4    -133   -321    -13    348    349 202.5  -2.2  34156  289.50 0855.03
2009/04/23 11:55:42.5       2   -238     44    239    244 179.3  10.6  34154  289.47 0855.03
2009/04/23 11:55:42.6     -32   -231     24    234    236 188.0   5.9  34150  289.39 0855.03
2009/04/23 11:55:42.7     -37   -265     13    268    269 188.1   2.9  34150  289.41 0855.03
2009/04/23 11:55:42.8     -71   -237      0    248    249 196.7   0.2  34158  289.54 0855.03
2009/04/23 11:55:42.9    -124   -185     74    223    236 213.8  18.5  34156  289.52 0855.03
2009/04/23 11:55:43.0    -115   -113     71    162    176 225.3  25.1  34158  289.53 0855.03
2009/04/23 11:55:43.1    -298   -105    -41    317    320 250.5  -7.5  34144  289.29 0855.03
2009/04/23 11:55:43.2    -284     -4    -93    285    299 269.1 -23.6  34142  289.25 0855.03
2009/04/23 11:55:43.3    -278     11    -84    279    291 272.4 -21.8  34136  289.17 0855.03
2009/04/23 11:55:43.4    -284     13    -82    285    297 272.8 -16.0  34134  289.14 0855.03
2009/04/23 11:55:43.5    -196     57    -42    205    210 286.2 -11.6  34136  289.16 0855.03
2009/04/23 11:55:43.6    -205     13    -42    206    211 273.7 -11.5  34130  289.06 0855.03
2009/04/23 11:55:43.7    -215     29    -57    218    226 277.9 -14.7  34132  289.11 0855.03
2009/04/23 11:55:43.8    -214     16    -49    215    221 274.3 -12.9  34130  289.06 0855.03
2009/04/23 11:55:43.9    -222     44      9    227    228 281.4   2.5  34136  289.18 0855.03
2009/04/23 11:55:44.0    -166     85     -7    187    188 297.3  -2.2  34134  289.14 0855.03
2009/04/23 11:55:44.1    -174     58    -20    184    186 288.4  -6.2  34146  289.33 0855.03
2009/04/23 11:55:44.2    -133    150     10    201    202 318.6   2.9  34156  289.50 0855.03
2009/04/23 11:55:44.3    -124    278     38    305    308 335.9   7.2  34154  289.47 0855.07
2009/04/23 11:55:44.4    -141    221    -23    263    265 327.4  -5.2  34150  289.39 0855.07
2009/04/23 11:55:44.5     -71    264     42    274    278 344.9   8.9  34162  289.59 0855.07
2009/04/23 11:55:44.6     -71    249     86    260    274 344.0  18.4  34152  289.44 0855.07
2009/04/23 11:55:44.7     -18    240    102    241    261 355.6  24.1  34168  289.71 0855.07
2009/04/23 11:55:44.8      67    269     54    278    284  14.0  11.0  34164  289.63 0855.07
2009/04/23 11:55:44.9      72    252     17    263    264  16.1   3.8  34158  289.54 0855.07
2009/04/23 11:55:45.0      26    357     -3    358    359   4.3  -0.6  34156  289.50 0855.07
2009/04/23 11:55:45.1     -12    353     97    354    368 358.0  15.3  34148  289.38 0855.07
2009/04/23 11:55:45.2     -98    281    133    298    326 340.6  25.7  34162  289.59 0855.07
2009/04/23 11:55:45.3      19    273    -18    274    275   4.0  -3.9  34158  289.53 0855.10
2009/04/23 11:55:45.4     -72    179    107    194    221 338.1  31.3  34162  289.62 0855.10
2009/04/23 11:55:45.5     -65    207    -39    218    222 342.6 -10.3  34166  289.69 0855.10
2009/04/23 11:55:45.6      41    219     34    223    226  10.7   8.9  34174  289.82 0855.10
2009/04/23 11:55:45.7      76    220    -83    234    249  19.2 -19.6  34170  289.73 0855.10
2009/04/23 11:55:45.8      60    232    -34    240    243  14.5  -8.2  34172  289.76 0855.10
2009/04/23 11:55:45.9     116    211     25    242    244  28.9   5.9  34176  289.83 0855.10
2009/04/23 11:55:46.0      40    216    -36    220    224  10.5  -9.4  34170  289.75 0855.10
2009/04/23 11:55:46.1      14    159     -8    160    161   5.3  -3.1  34176  289.85 0855.10
2009/04/23 11:55:46.2      79    160    -35    179    183  26.3 -11.3  34182  289.96 0855.10
2009/04/23 11:55:46.3      80    237    -72    251    262  18.7 -16.0  34174  289.81 0855.10
2009/04/23 11:55:46.4     144    244    -52    284    289  30.5 -10.4  34170  289.73 0855.10
2009/04/23 11:55:46.5     172    233    -20    290    291  36.5  -4.1  34160  289.58 0855.10
2009/04/23 11:55:46.6     213    140     46    256    261  56.7  10.3  34164  289.64 0855.10
2009/04/23 11:55:46.7     107     44    -49    116    125  67.4 -28.5  34162  289.62 0855.10
2009/04/23 11:55:46.8     137    -32    105    141    175 103.3  40.4  34160  289.58 0855.10
2009/04/23 11:55:46.9     194    -59   -109    203    230 107.1 -35.2  34158  289.55 0855.10
2009/04/23 11:55:47.0     130    -61     -5    144    145 115.4  -2.2  34154  289.48 0855.10
2009/04/23 11:55:47.1      74   -145      6    163    164 152.8   2.1  34160  289.57 0855.10
2009/04/23 11:55:47.2      75   -248     -5    260    261 163.1  -1.1  34162  289.59 0855.10
2009/04/23 11:55:47.3      96   -193    -41    216    221 153.5 -10.9  34158  289.55 0855.11
2009/04/23 11:55:47.4     152   -209    -28    259    261 144.0  -6.2  34152  289.42 0855.11
2009/04/23 11:55:47.5     193   -169     91    257    273 131.3  19.6  34154  289.46 0855.11
2009/04/23 11:55:47.6     255    -96     38    273    276 110.8   8.0  34154  289.47 0855.11
2009/04/23 11:55:47.7     503    -15    194    504    540  91.7  22.2  34170  289.75 0855.11
2009/04/23 11:55:47.8     252     54    132    258    289  77.7  29.2  34172  289.78 0855.11
2009/04/23 11:55:47.9     102     40    139    110    177  68.3  57.5  34168  289.70 0855.11
2009/04/23 11:55:48.0     166    106    299    198    358  57.5  63.4  34188  290.03 0855.11
2009/04/23 11:55:48.1     -43     16    229     47    233 290.8  89.0  34184  289.99 0855.11
2009/04/23 11:55:48.2       4    -34    159     35    162 172.0  87.7  34196  290.18 0855.11
2009/04/23 11:55:48.3     -49     16    263     52    268 288.4  89.1  34196  290.19 0855.11
2009/04/23 11:55:48.4     -87     48    268    100    286 298.9  78.9  34184  289.98 0855.11
2009/04/23 11:55:48.5     403   -348    271    533    597 130.8  29.2  34182  289.93 0855.11
2009/04/23 11:55:48.6     251   -470    307    533    615 151.9  32.6  34182  289.95 0855.11
2009/04/23 11:55:48.7     224   -328    323    398    512 145.7  43.3  34182  289.95 0855.11
2009/04/23 11:55:48.8     263   -434    174    508    538 148.7  18.9  34174  289.80 0855.11
2009/04/23 11:55:48.9     150   -538    106    559    570 164.4  10.8  34176  289.84 0855.11
2009/04/23 11:55:49.0      82   -519    103    526    537 171.0  11.1  34176  289.85 0855.11
2009/04/23 11:55:49.1      87   -361    117    372    391 166.4  17.5  34182  289.94 0855.11
2009/04/23 11:55:49.2     231   -388     69    452    458 149.2   8.7  34170  289.75 0855.11
2009/04/23 11:55:49.3     302   -364     89    474    483 140.3  10.7  34162  289.62 0855.12
2009/04/23 11:55:49.4     296   -265     80    398    406 131.9  11.5  34166  289.66 0855.12
2009/04/23 11:55:49.5     295   -339     80    450    458 139.0  10.1  34154  289.48 0855.12
2009/04/23 11:55:49.6     304   -396     47    500    503 142.5   5.5  34156  289.49 0855.12
2009/04/23 11:55:49.7     340   -501    -13    606    607 145.8  -1.3  34156  289.49 0855.12
2009/04/23 11:55:49.8     401   -436     12    593    594 137.4   1.2  34154  289.47 0855.12
2009/04/23 11:55:49.9     617     71     51    622    625  83.4   4.7  34152  289.45 0855.12
2009/04/23 11:55:50.0     442     18      6    443    444  87.7   0.9  34148  289.36 0855.12
2009/04/23 11:55:50.1     301    -58   -160    307    346 101.0 -34.0  34166  289.67 0855.12
2009/04/23 11:55:50.2     238    -99   -111    258    280 112.6 -29.3  34168  289.70 0855.12
2009/04/23 11:55:50.3     400    106    -25    414    415  75.1  -3.5  34164  289.65 0855.12
2009/04/23 11:55:50.4     412    192    -34    455    457  65.0  -4.4  34144  289.29 0855.12
2009/04/23 11:55:50.5     397    288     43    491    494  54.1   5.1  34146  289.35 0855.12
2009/04/23 11:55:50.6     389    140     39    414    416  70.2   5.4  34164  289.63 0855.12
2009/04/23 11:55:50.7     298    232     32    378    380  52.1   4.9  34202  290.30 0855.12
2009/04/23 11:55:50.8      84    211    142    228    268  21.8  35.2  34200  290.24 0855.12
2009/04/23 11:55:50.9     151    344     43    376    379  23.7   6.6  34222  290.62 0855.12
2009/04/23 11:55:51.0     260    469    129    537    553  29.0  13.6  34166  289.68 0855.12
2009/04/23 11:55:51.1     276    190    120    336    356  55.4  20.4  34194  290.15 0855.12
2009/04/23 11:55:51.2      69    196     15    208    209  19.4   4.4  34204  290.33 0855.12
2009/04/23 11:55:51.3    -154    252     19    296    297 328.6   3.8  34218  290.54 0855.07
2009/04/23 11:55:51.4      69    292    151    301    336  13.3  28.7  34278  291.56 0855.07
2009/04/23 11:55:51.5     182    292    162    345    381  32.0  27.1  34202  290.28 0855.07
2009/04/23 11:55:51.6     102    329    138    345    371  17.3  23.0  34228  290.74 0855.07
2009/04/23 11:55:51.7     233    129    165    267    313  60.9  34.8  34194  290.14 0855.07
2009/04/23 11:55:51.8     240      8    115    241    267  87.9  27.3  34206  290.36 0855.07
2009/04/23 11:55:51.9     303    126    -39    329    332  67.4  -6.9  34202  290.27 0855.07
2009/04/23 11:55:52.0     203    267     18    336    337  37.3   3.1  34220  290.59 0855.07
2009/04/23 11:55:52.1     229    199     27    304    306  48.9   5.2  34202  290.29 0855.07
2009/04/23 11:55:52.2     235    286     89    371    382  39.5  13.5  34214  290.50 0855.07
2009/04/23 11:55:52.3     333    233    117    407    424  55.0  16.1  34202  290.28 0855.07
2009/04/23 11:55:52.4     239    112    104    265    284  64.8  22.5  34200  290.26 0855.07
2009/04/23 11:55:52.5     419     92    -39    430    432  77.6  -5.2  34216  290.51 0855.07
2009/04/23 11:55:52.6     308    259    110    403    418  49.9  15.3  34200  290.24 0855.07
2009/04/23 11:55:52.7     313    259    158    407    436  50.3  22.3  34222  290.61 0855.07
2009/04/23 11:55:52.8     302    205     76    366    374  55.8  11.8  34234  290.83 0855.07
2009/04/23 11:55:52.9     555    287     59    625    628  62.6   5.4  34244  291.01 0855.07
2009/04/23 11:55:53.0     638    277     36    696    697  66.5   3.0  34232  290.78 0855.07
2009/04/23 11:55:53.1     641    215    128    677    690  71.4  10.7  34216  290.53 0855.07
2009/04/23 11:55:53.2     657    259    -30    707    708  68.4  -2.5  34208  290.40 0855.07
2009/04/23 11:55:53.3     543    -11    -64    544    548  91.3  -6.8  34196  290.18 0855.06
2009/04/23 11:55:53.4     246    -50    121    252    279 101.7  27.3  34198  290.20 0855.06
2009/04/23 11:55:53.5     334    -28    222    336    402  94.9  36.5  34196  290.18 0855.06
2009/04/23 11:55:53.6     144   -156    219    213    305 137.2  50.7  34204  290.31 0855.06
2009/04/23 11:55:53.7      16    -37    146     41    151 156.4  84.8  34206  290.36 0855.06
2009/04/23 11:55:53.8     -94   -173    224    197    298 208.5  54.2  34210  290.42 0855.06
2009/04/23 11:55:53.9    -314   -281     72    422    429 228.2   9.7  34230  290.75 0855.06
2009/04/23 11:55:54.1    -291   -285    -31    408    410 225.7  -4.4  34236  290.85 0855.06
2009/04/23 11:55:54.2    -296   -295     -8    418    419 225.1  -1.2  34242  290.97 0855.06
2009/04/23 11:55:54.3    -277   -330     21    432    433 220.0   2.8  34244  291.01 0855.06
2009/04/23 11:55:54.4    -270   -271     53    383    387 224.9   8.0  34240  290.93 0855.06
2009/04/23 11:55:54.5    -344   -267    -28    436    437 232.2  -3.7  34202  290.28 0855.06
2009/04/23 11:55:54.6    -381   -223   -151    442    467 239.6 -23.7  34170  289.75 0855.06
2009/04/23 11:55:54.7    -245   -194   -113    313    332 231.6 -25.1  34196  290.17 0855.06
2009/04/23 11:55:54.8    -146   -266    -94    304    318 208.7 -22.2  34210  290.41 0855.06
2009/04/23 11:55:54.9    -177   -167   -174    244    299 226.8 -43.7  34164  289.64 0855.06
2009/04/23 11:55:55.0    -169   -194    -63    258    266 221.2 -13.9  34160  289.56 0855.06
2009/04/23 11:55:55.1    -189   -135    -36    233    236 234.5  -9.0  34162  289.61 0855.06
2009/04/23 11:55:55.2    -114    -96      7    150    151 230.0   2.9  34158  289.55 0855.06
2009/04/23 11:55:55.3       9    -67     35     68     76 171.9  29.3  34172  289.77 0855.06
2009/04/23 11:55:55.4     137    -54     -8    148    149 111.7  -3.2  34168  289.72 0855.04
2009/04/23 11:55:55.5     158    -30     39    161    166 100.8  13.9  34186  290.01 0855.04
2009/04/23 11:55:55.6     156    -40     -9    162    163 104.4  -3.3  34186  290.01 0855.04
2009/04/23 11:55:55.7     133    -18      6    135    136  97.9   2.9  34184  289.97 0855.04
2009/04/23 11:55:55.8     119    -24     19    122    124 101.5   9.0  34180  289.92 0855.04
2009/04/23 11:55:55.9     156    -11     12    157    158  94.3   4.6  34188  290.04 0855.04
2009/04/23 11:55:56.0     106     20     59    108    123  79.0  31.3  34188  290.06 0855.04
2009/04/23 11:55:56.1     105     33     62    111    127  72.7  31.4  34190  290.09 0855.04
2009/04/23 11:55:56.2      85     36     75     93    119  66.9  43.3  34194  290.14 0855.04
2009/04/23 11:55:56.3      25     28     51     38     63  41.4  59.4  34190  290.08 0855.04
2009/04/23 11:55:56.4      50     62    -14     80     82  38.7 -10.3  34178  289.87 0855.04
2009/04/23 11:55:56.5     -25     21    -93     33     98 309.6 -84.6  34178  289.89 0855.04
2009/04/23 11:55:56.6     -11    -36    -81     38     89 198.3 -77.5  34174  289.80 0855.04
2009/04/23 11:55:56.7      74     24    -32     78     84  71.8 -27.4  34176  289.84 0855.04
2009/04/23 11:55:56.8      94    110   -128    146    194  40.5 -50.2  34178  289.89 0855.04
2009/04/23 11:55:56.9      64    114   -102    131    166  29.4 -46.4  34184  289.97 0855.04
2009/04/23 11:55:57.0     105    134   -161    171    234  38.3 -52.4  34184  289.97 0855.04
2009/04/23 11:55:57.1       4     62    -51     63     81   4.5 -47.7  34198  290.21 0855.04
2009/04/23 11:55:57.2     -69      9    -81     70    107 277.9 -59.2  34204  290.33 0855.04
2009/04/23 11:55:57.3     -34     49    -44     60     74 324.8 -44.1  34200  290.25 0855.04
2009/04/23 11:55:57.4     -32      4    -52     33     61 277.9 -69.1  34198  290.21 0855.07
2009/04/23 11:55:57.5      18    -29    -65     35     73 147.4 -73.2  34192  290.11 0855.07
2009/04/23 11:55:57.6      68    -93    -45    116    124 143.9 -25.9  34178  289.89 0855.07
2009/04/23 11:55:57.7     128   -128     14    182    183 135.1   4.6  34178  289.87 0855.07
2009/04/23 11:55:57.8     135    -96     67    167    179 125.5  23.0  34176  289.85 0855.07
2009/04/23 11:55:57.9      52    -30     74     61     95 119.8  56.4  34178  289.89 0855.07
2009/04/23 11:55:58.0    -106    -14     38    108    115 262.1  19.4  34190  290.08 0855.07
2009/04/23 11:55:58.1    -100    -82     20    130    132 230.4   8.9  34190  290.08 0855.07
2009/04/23 11:55:58.2     -48   -126     75    135    154 200.9  31.4  34192  290.13 0855.07
2009/04/23 11:55:58.3     -39   -184    154    189    243 192.0  43.3  34186  290.01 0855.07
2009/04/23 11:55:58.4      17    -64    167     67    179 164.8  77.1  34188  290.04 0855.07
2009/04/23 11:55:58.5     -22      3    175     23    176 279.7  90.0  34196  290.19 0855.07
2009/04/23 11:55:58.6      10    -32    127     34    131 161.5  84.9  34182  289.96 0855.07
2009/04/23 11:55:58.7      19   -203    210    204    292 174.4  50.9  34168  289.70 0855.07
2009/04/23 11:55:58.8      -2   -150    163    151    222 180.9  52.2  34170  289.74 0855.07
2009/04/23 11:55:58.9      43   -269    267    273    381 170.9  49.4  34172  289.76 0855.07
2009/04/23 11:55:59.0     -19   -274    263    275    380 184.0  48.6  34164  289.65 0855.07
2009/04/23 11:55:59.1    -139   -295    243    327    407 205.2  40.4  34170  289.74 0855.07
2009/04/23 11:55:59.2    -196   -351    165    403    435 209.2  23.6  34158  289.53 0855.07
2009/04/23 11:55:59.3    -132   -343    148    368    396 201.2  23.1  34154  289.48 0855.07
2009/04/23 11:55:59.4    -135   -307    184    336    383 203.7  31.3  34160  289.57 0855.08
2009/04/23 11:55:59.5     -41   -297    257    301    395 188.0  44.9  34168  289.71 0855.08
2009/04/23 11:55:59.6      22   -393    197    394    440 176.8  28.5  34170  289.75 0855.08
2009/04/23 11:55:59.7      21   -357    235    358    428 176.5  36.3  34172  289.78 0855.08
2009/04/23 11:55:59.8     -11   -384    239    385    453 181.7  34.9  34178  289.87 0855.08
2009/04/23 11:55:59.9     -31   -400    214    402    455 184.5  30.3  34178  289.88 0855.08
2009/04/23 11:56:00.0    -140   -413    186    437    474 198.8  24.5  34180  289.90 0855.08
2009/04/23 11:56:00.1    -149   -452    181    476    509 198.3  21.8  34178  289.86 0855.08
2009/04/23 11:56:00.2    -170   -433    144    466    488 201.4  17.2  34178  289.86 0855.08
2009/04/23 11:56:00.3    -134   -496     81    514    521 195.2   9.0  34172  289.78 0855.08
2009/04/23 11:56:00.4    -156   -415    114    444    459 200.6  14.4  34170  289.75 0855.08
2009/04/23 11:56:00.5    -173   -394    101    431    443 203.7  13.2  34174  289.82 0855.08
2009/04/23 11:56:00.6    -202   -289    110    353    370 215.0  17.3  34174  289.82 0855.08
2009/04/23 11:56:00.7    -197   -221     82    297    309 221.7  15.4  34178  289.86 0855.08
2009/04/23 11:56:00.8    -197   -216     99    293    310 222.3  18.8  34178  289.86 0855.08
2009/04/23 11:56:00.9    -233   -241    104    336    352 224.0  17.3  34174  289.82 0855.08
2009/04/23 11:56:01.0    -322   -249    111    407    422 232.3  15.3  34180  289.90 0855.08
2009/04/23 11:56:01.1    -323    -62     84    330    341 259.0  14.3  34178  289.86 0855.08
2009/04/23 11:56:01.2    -303    -23    -46    304    308 265.6  -8.6  34166  289.68 0855.08
2009/04/23 11:56:01.3    -329   -108   -134    347    371 251.8 -26.7  34152  289.45 0855.08
2009/04/23 11:56:01.4    -391   -237   -156    458    483 238.7 -23.8  34162  289.59 0855.08
2009/04/23 11:56:01.5    -533    -74   -183    539    570 262.1 -18.8  34154  289.48 0855.08
2009/04/23 11:56:01.6    -681    -39   -189    683    709 266.7 -15.5  34160  289.57 0855.08
2009/04/23 11:56:01.7    -650    -66   -222    654    691 264.2 -18.8  34138  289.19 0855.08
2009/04/23 11:56:01.8    -678    -51   -130    680    693 265.7 -10.8  34140  289.24 0855.08
2009/04/23 11:56:01.9    -554    -63   -156    558    579 263.4 -20.2  34140  289.22 0855.08
2009/04/23 11:56:02.0    -506     49   -137    509    528 275.6 -15.1  34142  289.28 0855.08
2009/04/23 11:56:02.1    -473    -13    -92    474    483 268.4 -11.0  34150  289.40 0855.08
2009/04/23 11:56:02.2    -401   -167     33    435    437 247.3   4.3  34180  289.90 0855.08
2009/04/23 11:56:02.3    -441   -127     76    460    467 253.9   9.4  34164  289.65 0855.08
2009/04/23 11:56:02.4    -333   -243     -4    413    414 233.9  -0.6  34170  289.73 0855.08
2009/04/23 11:56:02.5    -192   -414     86    457    466 204.9  10.7  34160  289.58 0855.08
2009/04/23 11:56:02.6    -187   -320     18    371    372 210.3   2.9  34168  289.71 0855.08
2009/04/23 11:56:02.7    -187   -336     40    385    388 209.2   6.0  34162  289.62 0855.08
2009/04/23 11:56:02.8    -179   -247     50    306    311 216.0   9.3  34166  289.66 0855.08
2009/04/23 11:56:02.9    -138   -235     -5    273    274 210.5  -1.1  34166  289.68 0855.08
2009/04/23 11:56:03.0     -87   -177    -57    198    207 206.1 -16.0  34164  289.65 0855.08
2009/04/23 11:56:03.1     -46   -126    -59    135    147 200.0 -29.5  34164  289.63 0855.08
2009/04/23 11:56:03.2       0   -114    -50    115    125 180.0 -29.5  34166  289.67 0855.08
2009/04/23 11:56:03.3      19   -160    -10    162    163 173.1  -3.7  34170  289.74 0855.08
2009/04/23 11:56:03.4     -25   -127      6    130    131 191.1   2.9  34168  289.70 0855.08
2009/04/23 11:56:03.5       2   -144    -10    145    146 179.0  -4.1  34166  289.69 0855.08
2009/04/23 11:56:03.6       2   -149    -45    150    156 179.1 -21.5  34158  289.55 0855.08
2009/04/23 11:56:03.7       1   -127    -25    128    131 179.1 -11.3  34158  289.53 0855.08
2009/04/23 11:56:03.8      19   -122    -20    124    126 171.1  -9.3  34158  289.53 0855.08
2009/04/23 11:56:03.9      60    -60    -14     85     87 135.0  -9.8  34162  289.62 0855.08
2009/04/23 11:56:04.0      36    -52    -32     64     71 144.8 -31.7  34160  289.57 0855.08
2009/04/23 11:56:04.1      32      0    -16     33     36  90.0 -31.6  34160  289.58 0855.08
2009/04/23 11:56:04.2      12     28    -15     31     34  23.6 -31.6  34164  289.63 0855.08
2009/04/23 11:56:04.3      57     27     -8     64     65  64.8  -7.3  34160  289.58 0855.08
2009/04/23 11:56:04.4      84     79    -54    116    127  46.4 -31.5  34160  289.57 0855.08
2009/04/23 11:56:04.5      74    125    -65    146    159  30.7 -30.1  34158  289.53 0855.08
2009/04/23 11:56:04.6      50    126    -30    136    140  21.8 -12.4  34158  289.55 0855.08
2009/04/23 11:56:04.7      99    151     35    181    185  33.2  11.1  34160  289.58 0855.08
2009/04/23 11:56:04.8     152    209     60    259    266  36.1  13.1  34160  289.58 0855.08
2009/04/23 11:56:04.9     172    262    105    314    332  33.4  18.6  34160  289.56 0855.08
2009/04/23 11:56:05.0     213    333     98    396    408  32.6  13.9  34154  289.46 0855.08
2009/04/23 11:56:05.1     154    344    134    378    401  24.2  20.2  34152  289.42 0855.08
2009/04/23 11:56:05.2     173    173    142    245    283  45.0  32.9  34152  289.42 0855.08
2009/04/23 11:56:05.3     259    277     18    380    381  43.1   2.8  34152  289.43 0855.08
2009/04/23 11:56:05.4     214    302     34    371    373  35.3   5.3  34144  289.30 0855.08
2009/04/23 11:56:05.5     239    327     34    406    408  36.1   4.9  34144  289.29 0855.08
2009/04/23 11:56:05.6     116    331     26    351    352  19.4   4.3  34148  289.38 0855.08
2009/04/23 11:56:05.7     149    234     39    278    281  32.6   8.0  34152  289.42 0855.08
2009/04/23 11:56:05.8     254    117    111    280    301  65.2  23.0  34152  289.44 0855.08
2009/04/23 11:56:05.9     313     76    124    323    345  76.3  22.2  34150  289.40 0855.08
2009/04/23 11:56:06.0     291      0   -327    292    438  90.0 -58.3  34154  289.47 0855.08
2009/04/23 11:56:06.1     274    209   -138    345    371  52.6 -27.4  34156  289.50 0855.08
2009/04/23 11:56:06.2     351    246    -55    429    433  54.9  -7.4  34158  289.53 0855.08
2009/04/23 11:56:06.3     379    340    -48    510    513  48.1  -5.5  34156  289.52 0855.08
2009/04/23 11:56:06.4     534    222    -73    579    584  67.4  -7.2  34150  289.41 0855.10
2009/04/23 11:56:06.5     521    211    -97    563    572  67.9  -9.8  34158  289.55 0855.10
2009/04/23 11:56:06.6     359    220   -116    422    438  58.5 -15.4  34152  289.43 0855.10
2009/04/23 11:56:06.7     443    124    -93    461    471  74.3 -11.5  34152  289.45 0855.10
2009/04/23 11:56:06.8     454    -12   -101    455    467  91.6 -12.5  34156  289.49 0855.10
2009/04/23 11:56:06.9     506    120   -105    521    532  76.6 -11.5  34156  289.51 0855.10
2009/04/23 11:56:07.0     337    219    -29    403    404  57.0  -4.1  34162  289.61 0855.10
2009/04/23 11:56:07.1     369    267   -117    456    471  54.0 -14.4  34160  289.56 0855.10
2009/04/23 11:56:07.2     408    -10    119    409    427  91.5  16.3  34164  289.65 0855.10
2009/04/23 11:56:07.3     420   -193     60    463    467 114.7   7.4  34162  289.59 0855.10
2009/04/23 11:56:07.4     374   -197     67    423    429 117.8   9.0  34156  289.51 0855.10
2009/04/23 11:56:07.5     365   -232    117    433    449 122.5  15.2  34158  289.55 0855.10
2009/04/23 11:56:07.6     429   -273     71    509    515 122.5   8.0  34158  289.54 0855.10
2009/04/23 11:56:07.7     380   -179    144    421    446 115.2  18.9  34160  289.56 0855.10
2009/04/23 11:56:07.8     387   -278    228    477    528 125.7  27.3  34156  289.52 0855.10
2009/04/23 11:56:07.9     246   -269    200    365    416 137.6  31.3  34156  289.52 0855.10
2009/04/23 11:56:08.0     208   -306    177    371    411 145.8  27.3  34160  289.57 0855.10
2009/04/23 11:56:08.1     202   -288    234    353    423 144.9  36.5  34156  289.52 0855.10
2009/04/23 11:56:08.2      90   -236    270    253    370 159.1  52.1  34160  289.57 0855.10
2009/04/23 11:56:08.3      64   -426    224    431    485 171.4  29.6  34160  289.57 0855.10
2009/04/23 11:56:08.4     138   -415    251    438    504 161.5  32.4  34156  289.49 0855.06
2009/04/23 11:56:08.5     199   -513    330    551    642 158.8  33.7  34162  289.61 0855.06
2009/04/23 11:56:08.6     155   -433    163    461    488 160.3  20.3  34156  289.49 0855.06
2009/04/23 11:56:08.7     132   -433    111    453    467 163.0  13.8  34158  289.53 0855.06
2009/04/23 11:56:08.8      22   -492     75    493    499 177.4   8.7  34164  289.64 0855.06
2009/04/23 11:56:08.9     -50   -442    155    445    472 186.6  19.2  34160  289.56 0855.06
2009/04/23 11:56:09.0      16   -516    135    517    535 178.2  14.7  34164  289.63 0855.06
2009/04/23 11:56:09.1      12   -574    125    575    589 178.8  12.3  34174  289.80 0855.06
2009/04/23 11:56:09.2     -50   -656     65    658    662 184.4   5.7  34170  289.73 0855.06
2009/04/23 11:56:09.3     -79   -508    -11    515    516 188.9  -1.3  34160  289.57 0855.06
2009/04/23 11:56:09.4    -201   -544     80    581    587 200.3   7.9  34166  289.69 0855.06
2009/04/23 11:56:09.5     -86   -504    170    512    540 189.7  18.4  34158  289.53 0855.06
2009/04/23 11:56:09.6      70   -561    269    566    626 172.8  27.3  34160  289.58 0855.06
2009/04/23 11:56:09.7     173   -540    222    568    609 162.2  22.5  34156  289.52 0855.06
2009/04/23 11:56:09.8     153   -489    214    513    555 162.6  24.1  34158  289.53 0855.06
2009/04/23 11:56:09.9      95   -516    304    525    606 169.5  32.7  34150  289.39 0855.06
2009/04/23 11:56:10.0      28   -495    194    496    532 176.8  22.5  34162  289.62 0855.06
2009/04/23 11:56:10.1     -12   -636    -72    637    642 181.2  -6.5  34158  289.53 0855.06
2009/04/23 11:56:10.2     -33   -528     12    530    531 183.6   1.4  34156  289.50 0855.06
2009/04/23 11:56:10.3     -90   -474     76    483    490 190.8   9.0  34156  289.50 0855.06
2009/04/23 11:56:10.4    -147   -442     68    467    473 198.5   8.3  34160  289.56 0855.05
2009/04/23 11:56:10.5     -34   -328     90    330    343 186.1  15.3  34162  289.62 0855.05
2009/04/23 11:56:10.6     217   -203    252    298    390 133.1  44.7  34158  289.54 0855.05
2009/04/23 11:56:10.7       5     -4    240      7    240 133.3  90.0  34168  289.72 0855.05
2009/04/23 11:56:10.8      76   -135    169    155    229 150.6  52.5  34170  289.75 0855.05
2009/04/23 11:56:10.9       9   -205    231    206    309 177.4  54.0  34166  289.66 0855.05
2009/04/23 11:56:11.0      20   -175    194    177    262 173.3  52.7  34170  289.73 0855.05
2009/04/23 11:56:11.1      24   -237    137    239    275 174.2  32.4  34170  289.73 0855.05
2009/04/23 11:56:11.2      19   -199     95    200    221 174.4  27.2  34170  289.74 0855.05
2009/04/23 11:56:11.3      75   -163     79    180    196 155.1  25.1  34164  289.63 0855.05
2009/04/23 11:56:11.4     -72   -165     40    181    186 203.6  12.6  34166  289.69 0855.05
2009/04/23 11:56:11.5     -44   -131     -1    139    140 198.7  -0.7  34168  289.72 0855.05
2009/04/23 11:56:11.6     -26    -88    -15     92     94 196.5  -9.3  34170  289.74 0855.05
2009/04/23 11:56:11.7      22    -47    -17     53     55 154.5 -23.8  34172  289.77 0855.05
2009/04/23 11:56:11.8      57    -47    -33     75     81 129.6 -29.5  34174  289.82 0855.05
2009/04/23 11:56:11.9     107    -64    -73    125    144 121.1 -37.8  34178  289.89 0855.05
2009/04/23 11:56:12.0      73    -60    -37     95    101 129.6 -26.9  34166  289.69 0855.05
2009/04/23 11:56:12.1     119    -76     80    142    162 122.5  32.1  34168  289.72 0855.05
2009/04/23 11:56:12.2      94    -13    110     95    145  97.9  54.8  34176  289.85 0855.05
2009/04/23 11:56:12.3      73   -101     88    125    152 144.0  38.6  34174  289.82 0855.05
2009/04/23 11:56:12.4     194   -222     41    296    299 138.8   8.0  34178  289.86 0855.08
2009/04/23 11:56:12.5     187   -199    100    274    291 136.7  20.9  34178  289.88 0855.08
2009/04/23 11:56:12.6     306   -162     14    347    348 117.9   2.3  34172  289.77 0855.08
2009/04/23 11:56:12.7     232    -32   -108    235    258  97.9 -30.8  34176  289.83 0855.08
2009/04/23 11:56:12.8     309     78    -37    319    322  75.8  -6.7  34176  289.85 0855.08
2009/04/23 11:56:12.9     324    -30     92    326    339  95.4  15.8  34152  289.45 0855.08
2009/04/23 11:56:13.0     251   -160     81    298    309 122.6  15.3  34172  289.76 0855.08
2009/04/23 11:56:13.1     221   -235     30    323    325 136.8   5.4  34168  289.71 0855.08
2009/04/23 11:56:13.2     236   -102    -14    258    259 113.3  -3.1  34172  289.76 0855.08
2009/04/23 11:56:13.3     230   -100     29    251    253 113.5   6.7  34170  289.73 0855.08
2009/04/23 11:56:13.4     307    -22      8    308    309  94.3   1.6  34160  289.56 0855.08
2009/04/23 11:56:13.5     263      0    177    264    317  90.0  37.0  34164  289.64 0855.08
2009/04/23 11:56:13.6       0     29    235     30    236 359.1  90.0  34170  289.75 0855.08
2009/04/23 11:56:13.7     230    111    105    256    276  64.2  23.4  34172  289.76 0855.08
2009/04/23 11:56:13.8     192    -38     28    196    199 101.4   8.2  34174  289.80 0855.08
2009/04/23 11:56:13.9     141      4    181    142    230  88.3  57.9  34170  289.74 0855.08
2009/04/23 11:56:14.0     145    -31    151    149    212 102.4  50.1  34174  289.80 0855.08
2009/04/23 11:56:14.1      48    -37     87     61    106 127.8  61.5  34172  289.79 0855.08
2009/04/23 11:56:14.2      69     39     58     80     98  60.2  39.7  34174  289.80 0855.08
2009/04/23 11:56:14.3      16    106     47    108    117   8.9  25.1  34170  289.75 0855.08
2009/04/23 11:56:14.4      -4    105    -20    106    108 357.8 -10.9  34172  289.77 0855.09
2009/04/23 11:56:14.5    -104     63    -24    122    125 301.1 -11.5  34170  289.75 0855.09
2009/04/23 11:56:14.6     -92     28     59     97    113 286.8  35.5  34170  289.74 0855.09
2009/04/23 11:56:14.7    -103    -13      8    104    105 262.5   4.9  34174  289.80 0855.09
2009/04/23 11:56:14.8    -252    -73    -94    263    280 253.8 -19.7  34166  289.66 0855.09
2009/04/23 11:56:14.9    -210   -203    -87    293    305 226.0 -21.7  34168  289.70 0855.09
2009/04/23 11:56:15.0    -240    -43     -9    244    245 259.6  -2.2  34182  289.93 0855.09
2009/04/23 11:56:15.1    -127   -154      4    200    201 219.6   1.2  34178  289.89 0855.09
2009/04/23 11:56:15.2     -23   -136    -90    138    164 189.7 -40.4  34174  289.82 0855.09
2009/04/23 11:56:15.3     -39   -143   -120    149    191 195.2 -47.9  34174  289.82 0855.09
2009/04/23 11:56:15.4    -290     -5    -47    291    295 269.0  -9.3  34178  289.88 0855.09
2009/04/23 11:56:15.5    -102    -18    -62    104    121 259.9 -37.9  34186  290.02 0855.09
2009/04/23 11:56:15.6     -59   -147     69    159    173 201.8  24.9  34180  289.92 0855.09
2009/04/23 11:56:15.7     -77   -106    -39    132    138 216.0 -16.6  34180  289.91 0855.09
2009/04/23 11:56:15.8     -93   -137      8    166    167 214.3   2.9  34170  289.74 0855.09
2009/04/23 11:56:15.9    -325   -179     15    372    373 241.2   2.4  34172  289.77 0855.09
2009/04/23 11:56:16.0    -241   -133     28    276    278 241.1   5.9  34178  289.88 0855.09
2009/04/23 11:56:16.1    -387    -17    -51    388    392 267.4  -7.6  34194  290.15 0855.09
2009/04/23 11:56:16.2    -387   -238    -40    455    457 238.4  -5.1  34180  289.90 0855.09
2009/04/23 11:56:16.3    -379    -89   -111    390    405 256.8 -20.7  34194  290.15 0855.09
2009/04/23 11:56:16.4    -257   -193   -190    322    373 233.1 -37.8  34178  289.89 0855.13
2009/04/23 11:56:16.5     -98   -350   -100    364    378 195.7 -15.4  34162  289.60 0855.13
2009/04/23 11:56:16.6      90   -334    -81    347    357 164.9 -13.2  34168  289.72 0855.13
2009/04/23 11:56:16.7      72   -329   -107    337    353 167.6 -22.5  34172  289.77 0855.13
2009/04/23 11:56:16.8     154   -326   -124    361    381 154.7 -23.8  34180  289.91 0855.13
2009/04/23 11:56:16.9     143   -363   -139    391    416 158.4 -19.6  34170  289.75 0855.13
2009/04/23 11:56:17.0     148   -356   -110    386    401 157.4 -20.7  34172  289.77 0855.13
2009/04/23 11:56:17.1     -16   -210   -143    211    254 184.4 -42.0  34176  289.83 0855.13
2009/04/23 11:56:17.2      -8   -107   -125    108    165 184.5 -59.2  34188  290.04 0855.13
2009/04/23 11:56:17.3      35   -282    -82    285    296 172.9 -20.7  34174  289.81 0855.13
2009/04/23 11:56:17.4     -21   -256    -77    257    269 184.7 -16.8  34176  289.85 0855.13
2009/04/23 11:56:17.5    -103   -395    -27    409    410 194.7  -3.9  34166  289.68 0855.13
2009/04/23 11:56:17.6    -158   -414    -17    444    445 201.0  -2.2  34162  289.60 0855.13
2009/04/23 11:56:17.7    -139   -339    -14    367    368 202.4  -2.2  34174  289.81 0855.13
2009/04/23 11:56:17.8    -232   -265    -85    353    364 221.3 -13.6  34168  289.71 0855.13
2009/04/23 11:56:17.9    -240    -87    -98    256    274 250.0 -26.4  34178  289.88 0855.13
2009/04/23 11:56:18.0    -226    -69    -93    237    254 252.9 -27.2  34184  289.97 0855.13
2009/04/23 11:56:18.1    -191   -105    -51    219    225 241.1 -13.2  34170  289.74 0855.13
2009/04/23 11:56:18.2    -218    -97     17    239    240 245.8   4.2  34178  289.88 0855.13
2009/04/23 11:56:18.3    -199   -144    -22    246    248 234.0  -5.2  34176  289.83 0855.13
2009/04/23 11:56:18.4    -133   -260     21    293    294 207.1   4.2  34168  289.70 0855.11
2009/04/23 11:56:18.5     -89   -322     47    335    339 195.5   8.0  34162  289.62 0855.11
2009/04/23 11:56:18.6     -67   -281     37    289    292 193.4   7.5  34166  289.66 0855.11
2009/04/23 11:56:18.7       0   -257     -5    258    259 180.0  -1.3  34166  289.68 0855.11
2009/04/23 11:56:18.8      34   -192     30    196    199 170.0   8.8  34166  289.67 0855.11
2009/04/23 11:56:18.9      36   -181     21    185    187 168.7   6.5  34166  289.67 0855.11
2009/04/23 11:56:19.0     110   -140    -14    179    180 141.7  -4.6  34168  289.70 0855.11
2009/04/23 11:56:19.1      92   -145     32    172    175 147.5  10.6  34162  289.62 0855.11
2009/04/23 11:56:19.2      52   -189     55    197    205 164.6  15.6  34168  289.70 0855.11
2009/04/23 11:56:19.3      -2   -149    100    150    180 180.9  37.0  34166  289.69 0855.11
2009/04/23 11:56:19.4     -60    -96     89    114    144 212.1  41.7  34172  289.77 0855.11
2009/04/23 11:56:19.5     -21    -64     87     68    110 198.3  57.9  34174  289.82 0855.11
2009/04/23 11:56:19.6     -60    -26     89     66    110 246.5  60.0  34176  289.84 0855.11
2009/04/23 11:56:19.7     -67   -126     78    143    162 208.1  31.0  34168  289.70 0855.11
2009/04/23 11:56:19.8     -68   -124     77    142    161 209.0  30.8  34168  289.70 0855.11
2009/04/23 11:56:19.9     -86   -128     99    155    183 213.8  35.6  34170  289.74 0855.11
2009/04/23 11:56:20.0      23   -124    126    127    178 169.3  50.0  34170  289.74 0855.11
2009/04/23 11:56:20.1      10    -99    105    100    145 174.2  51.2  34168  289.72 0855.11
2009/04/23 11:56:20.2     -42    -80     87     91    125 208.1  49.0  34164  289.65 0855.11
2009/04/23 11:56:20.3      62    -45     54     77     94 125.9  38.0  34172  289.79 0855.11
2009/04/23 11:56:20.5      24   -111     40    114    121 167.5  19.4  34170  289.74 0855.08
2009/04/23 11:56:20.6     -15    -77     80     79    112 191.6  49.7  34170  289.74 0855.08
2009/04/23 11:56:20.7     -81   -156    131    176    219 207.4  40.1  34168  289.72 0855.08
2009/04/23 11:56:20.8     -81   -268    137    281    312 196.9  28.0  34170  289.73 0855.08
2009/04/23 11:56:20.9      43   -168    173    174    245 165.5  50.0  34164  289.63 0855.08
2009/04/23 11:56:21.0     113    -59    173    128    215 117.5  60.0  34170  289.75 0855.08
2009/04/23 11:56:21.1      14    -26     96     30    100 151.0  81.8  34170  289.75 0855.08
2009/04/23 11:56:21.2      -8    -51    106     52    118 189.8  72.4  34172  289.79 0855.08
2009/04/23 11:56:21.3     -60     19     52     64     82 287.7  43.7  34174  289.82 0855.08
2009/04/23 11:56:21.4     -38    -26     70     47     84 235.8  63.6  34170  289.75 0855.08
2009/04/23 11:56:21.5     -44   -133     73    141    158 198.3  29.5  34164  289.63 0855.08
2009/04/23 11:56:21.6    -191    -76     36    206    210 248.2  10.1  34168  289.70 0855.08
2009/04/23 11:56:21.7    -226   -132     16    262    263 239.6   3.6  34174  289.81 0855.08
2009/04/23 11:56:21.8    -177   -112    -72    210    223 237.6 -18.9  34174  289.80 0855.08
2009/04/23 11:56:21.9     -96   -150      5    179    180 212.6   1.6  34160  289.58 0855.08
2009/04/23 11:56:22.0    -135   -137   -116    193    225 224.5 -38.4  34164  289.65 0855.08
2009/04/23 11:56:22.1    -121   -221    -74    252    262 208.7 -21.2  34160  289.56 0855.08
2009/04/23 11:56:22.2     -91   -212     36    231    234 203.2   8.9  34170  289.73 0855.08
2009/04/23 11:56:22.3    -166   -164     73    234    246 225.2  17.3  34164  289.63 0855.08
2009/04/23 11:56:22.4    -135   -212      5    252    253 212.5   1.2  34180  289.92 0855.08
2009/04/23 11:56:22.5      -2   -148    127    149    195 181.0  45.1  34170  289.75 0855.07
2009/04/23 11:56:22.6      40   -199    171    203    265 168.5  44.3  34182  289.95 0855.07
2009/04/23 11:56:22.7      61   -180     52    191    199 161.3  15.3  34192  290.11 0855.07
2009/04/23 11:56:22.8    -141   -146    -39    204    208 223.9 -10.9  34196  290.18 0855.07
2009/04/23 11:56:22.9    -223    -88    103    240    261 248.3  24.6  34200  290.24 0855.07
2009/04/23 11:56:23.0    -279     56    -24    285    287 281.4  -4.9  34190  290.07 0855.07
2009/04/23 11:56:23.1    -282     85    102    295    313 286.8  19.2  34182  289.95 0855.07
2009/04/23 11:56:23.2    -218    179     13    283    284 309.3   2.8  34178  289.88 0855.07
2009/04/23 11:56:23.3    -187    153    -71    243    253 309.3 -21.5  34192  290.12 0855.07
2009/04/23 11:56:23.4    -102    200    -26    225    227 332.9  -6.7  34194  290.14 0855.07
2009/04/23 11:56:23.5     -38     94    -24    102    105 337.7 -13.4  34194  290.14 0855.07
2009/04/23 11:56:23.6      41    -17     82     45     93 113.5  69.3  34190  290.08 0855.07
2009/04/23 11:56:23.7     -27    -54    116     61    131 206.3  70.8  34186  290.02 0855.07
2009/04/23 11:56:23.8    -136    -83     70    160    174 238.5  25.3  34176  289.84 0855.07
2009/04/23 11:56:23.9     -96    -69    -21    119    121 234.0 -10.3  34174  289.82 0855.07
2009/04/23 11:56:24.0      33    -30    -11     45     47 132.2 -14.5  34180  289.92 0855.07
2009/04/23 11:56:24.1      73     17    111     75    133  76.7  63.2  34184  289.99 0855.07
2009/04/23 11:56:24.2       6     44    101     45    110   8.0  74.0  34192  290.13 0855.07
2009/04/23 11:56:24.3     -30     91     99     97    138 341.5  50.2  34184  289.99 0855.07
2009/04/23 11:56:24.4     -72    113     75    135    154 327.5  31.4  34186  290.01 0855.07
2009/04/23 11:56:24.5    -102     45     41    112    119 294.0  20.9  34182  289.96 0855.08
2009/04/23 11:56:24.6     -84     95     -5    128    129 318.6  -2.2  34182  289.96 0855.08
2009/04/23 11:56:24.7     -90     56     29    107    111 302.0  15.2  34186  290.01 0855.08
2009/04/23 11:56:24.8    -154      4    -32    155    159 271.7 -11.9  34176  289.85 0855.08
2009/04/23 11:56:24.9     -81     84     96    117    151 315.9  43.7  34182  289.96 0855.08
2009/04/23 11:56:25.0    -126    146     68    193    205 319.2  19.4  34186  290.01 0855.08
2009/04/23 11:56:25.1    -139    141     28    199    202 315.3   8.0  34184  289.97 0855.08
2009/04/23 11:56:25.2    -122    136     40    183    188 318.1  12.4  34178  289.89 0855.08
2009/04/23 11:56:25.3     -78     83     22    115    118 316.7  11.1  34176  289.85 0855.08
2009/04/23 11:56:25.4     -27     83     -6     88     89 341.5  -4.1  34180  289.91 0855.08
2009/04/23 11:56:25.5      50     32     77     60     97  57.6  57.9  34180  289.91 0855.08
2009/04/23 11:56:25.6      33    -15    100     37    106 115.2  79.7  34182  289.96 0855.08
2009/04/23 11:56:25.7      35    -32    114     48    123 133.1  76.1  34176  289.85 0855.08
2009/04/23 11:56:25.8       3     40    120     41    126   4.5  81.2  34180  289.91 0855.08
2009/04/23 11:56:25.9     -35    -35     61     50     78 225.0  56.4  34176  289.84 0855.08
2009/04/23 11:56:26.0     -30     17     90     35     96 300.7  78.6  34172  289.77 0855.08
2009/04/23 11:56:26.1      72    -10    159     73    174  98.0  73.5  34174  289.80 0855.08
2009/04/23 11:56:26.2      -1    -72    115     73    136 180.9  64.7  34178  289.87 0855.08
2009/04/23 11:56:26.3    -111    -22    114    114    161 258.5  50.1  34176  289.85 0855.08
2009/04/23 11:56:26.4    -197    -42    108    202    229 257.8  30.6  34170  289.74 0855.08
2009/04/23 11:56:26.5    -199   -102    140    224    264 242.9  35.5  34170  289.73 0855.08
2009/04/23 11:56:26.6     -35     -7    131     36    135 258.5  84.8  34174  289.82 0855.08
2009/04/23 11:56:26.7      32    -76    128     83    152 156.8  64.6  34166  289.69 0855.08
2009/04/23 11:56:26.8    -116   -308    283    330    434 200.7  45.0  34162  289.60 0855.08
2009/04/23 11:56:26.9       0    -21    167     22    168 180.9  90.0  34166  289.69 0855.08
2009/04/23 11:56:27.0     -41   -243    226    247    334 189.6  47.3  34168  289.70 0855.08
2009/04/23 11:56:27.1      34   -229    264    232    351 171.5  54.3  34160  289.58 0855.08
2009/04/23 11:56:27.2      40    -27    173     49    179 124.2  83.9  34170  289.75 0855.08
2009/04/23 11:56:27.3     282    -14    267    283    389  93.0  48.2  34164  289.65 0855.08
2009/04/23 11:56:27.4     105   -202    285    228    364 152.4  57.3  34160  289.58 0855.08
2009/04/23 11:56:27.5      43   -120    222    128    256 159.9  67.7  34154  289.48 0855.08
2009/04/23 11:56:27.6     -19     40    259     45    262 333.7  90.0  34166  289.67 0855.08
2009/04/23 11:56:27.7      66    -24    215     71    226 110.0  80.7  34148  289.38 0855.08
2009/04/23 11:56:27.8       9     68    211     69    221   8.1  80.7  34156  289.50 0855.08
2009/04/23 11:56:27.9      63     95    197    115    228  33.8  67.0  34162  289.62 0855.08
2009/04/23 11:56:28.0     -35     24    258     43    261 304.2  90.0  34170  289.74 0855.08
2009/04/23 11:56:28.1       4     54    222     55    228   4.5  86.2  34164  289.65 0855.08
2009/04/23 11:56:28.2     224    127     96    258    275  60.3  21.3  34158  289.54 0855.08
2009/04/23 11:56:28.3     135    -26     80    138    159 101.0  32.9  34158  289.55 0855.08
2009/04/23 11:56:28.4      36     12    133     39    138  71.4  83.3  34170  289.74 0855.08
2009/04/23 11:56:28.5      86    -31    120     92    151 110.0  58.5  34176  289.84 0855.08
2009/04/23 11:56:28.6     142    -77    136    162    211 118.4  44.3  34166  289.69 0855.08
2009/04/23 11:56:28.7     101    -36    115    108    157 109.5  52.0  34172  289.77 0855.08
2009/04/23 11:56:28.8      74    -74    116    105    156 135.0  52.7  34178  289.87 0855.08
2009/04/23 11:56:28.9     -12   -110    158    111    193 186.2  61.8  34166  289.69 0855.08
2009/04/23 11:56:29.0      16    -60    123     63    138 164.9  70.8  34162  289.62 0855.08
2009/04/23 11:56:29.1       0    -98    172     99    198 180.5  67.5  34156  289.52 0855.08
2009/04/23 11:56:29.2     -15   -194    154    195    248 184.5  42.4  34148  289.38 0855.08
2009/04/23 11:56:29.3     -34   -179    174    183    252 190.7  48.7  34152  289.43 0855.08
2009/04/23 11:56:29.4       8   -134    106    135    171 176.4  42.4  34152  289.45 0855.08
2009/04/23 11:56:29.5      -3   -120    152    121    194 181.8  57.5  34158  289.53 0855.08
2009/04/23 11:56:29.6      -7   -165     51    166    174 182.7  17.3  34156  289.50 0855.08
2009/04/23 11:56:29.7      51   -123     36    134    139 157.3  15.3  34156  289.50 0855.08
2009/04/23 11:56:29.8      40   -131     -2    138    139 163.1  -1.2  34160  289.57 0855.08
2009/04/23 11:56:29.9     116    -76      1    139    140 123.3   0.8  34158  289.53 0855.08
2009/04/23 11:56:30.0      44   -133    -18    141    143 161.7  -7.3  34162  289.60 0855.08
2009/04/23 11:56:30.1      39   -133     51    139    148 163.5  21.0  34154  289.48 0855.08
2009/04/23 11:56:30.2      62   -126     44    141    148 153.7  17.4  34158  289.53 0855.08
2009/04/23 11:56:30.3      76    -92     -6    120    121 140.4  -3.2  34168  289.72 0855.08
2009/04/23 11:56:30.4     154    -36    -55    159    168 103.3 -24.0  34210  290.41 0855.08
2009/04/23 11:56:30.5     145     36    -49    150    157  75.8 -23.0  34224  290.65 0855.08
2009/04/23 11:56:30.6      54     39    -40     67     78  54.1 -38.8  34212  290.45 0855.08
2009/04/23 11:56:30.7     -62    -12    -19     64     67 258.6 -16.6  34198  290.23 0855.08
2009/04/23 11:56:30.8     -66   -108     51    127    136 211.6  23.0  34176  289.85 0855.08
2009/04/23 11:56:30.9    -112   -129     44    171    177 221.0  14.5  34178  289.89 0855.08
2009/04/23 11:56:31.0    -128   -111     52    170    178 229.1  17.1  34174  289.80 0855.08
2009/04/23 11:56:31.1     -98   -118     -6    154    155 219.7  -2.2  34174  289.82 0855.08
2009/04/23 11:56:31.2    -109   -113     -4    158    159 224.1  -1.8  34182  289.96 0855.08
2009/04/23 11:56:31.3    -131    -89      2    159    160 235.8   1.0  34182  289.94 0855.08
2009/04/23 11:56:31.4    -107    -83      6    136    137 232.2   2.8  34180  289.92 0855.08
2009/04/23 11:56:31.5    -109     -8    -13    110    111 265.6  -7.2  34186  290.02 0855.09
2009/04/23 11:56:31.6    -113    -26     -4    117    118 256.7  -2.2  34182  289.96 0855.09
2009/04/23 11:56:31.7     -75    -76     38    108    115 224.7  19.4  34166  289.69 0855.09
2009/04/23 11:56:31.8     -48   -107    100    118    154 204.1  44.3  34164  289.63 0855.09
2009/04/23 11:56:31.9     -57   -105     81    120    144 208.5  37.0  34166  289.67 0855.09
2009/04/23 11:56:32.0     -12    -65    106     67    125 190.7  64.7  34174  289.80 0855.09
2009/04/23 11:56:32.1     -17    -36     59     40     71 205.5  63.6  34174  289.82 0855.09
2009/04/23 11:56:32.2     -69    -54      4     88     89 232.2   2.9  34174  289.80 0855.09
2009/04/23 11:56:32.3     -83    -59    -55    102    115 234.5 -35.2  34178  289.89 0855.09
2009/04/23 11:56:32.4     -80   -118     12    143    144 214.3   5.0  34184  289.97 0855.09
2009/04/23 11:56:32.5     -91   -111    -18    144    146 219.2  -7.2  34194  290.16 0855.09
2009/04/23 11:56:32.6    -182    -88    -26    203    205 244.2  -7.3  34206  290.35 0855.09
2009/04/23 11:56:32.7    -173    -35    -74    177    191 258.5 -28.2  34212  290.47 0855.09
2009/04/23 11:56:32.8    -171    -98    -80    198    213 240.2 -27.4  34200  290.25 0855.09
2009/04/23 11:56:32.9    -184    -17    -75    185    199 264.5 -27.8  34208  290.38 0855.09
2009/04/23 11:56:33.0    -197    -28    -56    200    208 261.9 -15.8  34216  290.52 0855.09
2009/04/23 11:56:33.1    -194    -14    -39    195    199 265.7 -11.3  34210  290.41 0855.09
2009/04/23 11:56:33.2    -152    -13    -47    153    160 264.8 -22.3  34206  290.35 0855.09
2009/04/23 11:56:33.3    -110     -8    -90    111    142 265.6 -48.1  34198  290.21 0855.09
2009/04/23 11:56:33.4    -143    -24    -80    146    166 260.3 -35.4  34200  290.25 0855.09
2009/04/23 11:56:33.5     -33     45    -66     56     86 323.9 -59.2  34196  290.19 0855.11
2009/04/23 11:56:33.6     -41     43    -30     60     67 316.6 -32.6  34202  290.28 0855.11
2009/04/23 11:56:33.7     -63     34    -59     72     93 298.9 -48.1  34196  290.18 0855.11
2009/04/23 11:56:33.8     -74     61    -45     96    106 309.5 -31.5  34192  290.13 0855.11
2009/04/23 11:56:33.9     -57     55    -25     80     83 314.0 -22.8  34192  290.13 0855.11
2009/04/23 11:56:34.0     -66      0    -21     67     71 270.8 -17.6  34194  290.16 0855.11
2009/04/23 11:56:34.1     -56    -19     11     60     62 251.4  11.0  34198  290.23 0855.11
2009/04/23 11:56:34.2     -41    -16     14     45     48 248.3  17.3  34204  290.31 0855.11
2009/04/23 11:56:34.3     -47    -44     27     65     70 226.9  24.1  34210  290.43 0855.11
2009/04/23 11:56:34.4       0    -42     51     43     66 180.0  55.4  34218  290.57 0855.11
2009/04/23 11:56:34.5       9      0     35     10     36  90.0  82.8  34214  290.50 0855.11
2009/04/23 11:56:34.6      22     16     22     28     35  54.0  43.7  34206  290.35 0855.11
2009/04/23 11:56:34.7      16     21     -1     27     28  37.8  -3.1  34206  290.35 0855.11
2009/04/23 11:56:34.8     -21     21    -21     30     36 315.0 -42.0  34210  290.43 0855.11
2009/04/23 11:56:34.9     157      4    -28     50     57 360.0 -36.8  34212  290.45 0855.11
2009/04/23 11:56:35.0      -3     32    -18     33     37 353.8 -35.8  34210  290.41 0855.11
2009/04/23 11:56:35.1       8      9     -2     13     14  43.4 -11.3  34208  290.40 0855.11
2009/04/23 11:56:35.2      32     -2     -1     33     34  94.4  -2.2  34208  290.38 0855.11
2009/04/23 11:56:35.3      23    -15    -11     28     30 122.4 -25.4  34206  290.35 0855.11
2009/04/23 11:56:35.4      35      0      7     36     37  90.8  11.0  34206  290.35 0855.11
2009/04/23 11:56:35.5      34      6      0     35     36  78.5  -1.3  34206  290.35 0855.12
2009/04/23 11:56:35.6      56     35     28     67     72  57.5  23.1  34202  290.28 0855.12
2009/04/23 11:56:35.7      68     27     80     74    108  68.3  52.2  34198  290.21 0855.12
2009/04/23 11:56:35.8      34    -11     61     36     70 108.6  66.8  34202  290.28 0855.12
2009/04/23 11:56:35.9      44    -10     75     46     87 103.3  65.1  34204  290.31 0855.12
2009/04/23 11:56:36.0      33    -32     63     47     78 134.0  59.0  34198  290.21 0855.12
2009/04/23 11:56:36.1      32    -27     59     43     73 130.4  60.5  34198  290.23 0855.12
2009/04/23 11:56:36.2       5    -16     46     17     49 161.3  81.2  34200  290.26 0855.12
2009/04/23 11:56:36.3      21    -13     41     26     48 122.4  64.7  34204  290.33 0855.12
2009/04/23 11:56:36.4      22    -47     36     52     63 154.7  38.6  34198  290.23 0855.12
2009/04/23 11:56:36.5      26    -76     37     81     89 160.8  26.2  34202  290.28 0855.12
2009/04/23 11:56:36.6      15    -56     28     59     65 164.9  27.2  34204  290.33 0855.12
2009/04/23 11:56:36.7       4    -58     -2     59     60 175.5  -2.2  34208  290.38 0855.12
2009/04/23 11:56:36.8      28    -52      8     60     61 151.9   8.0  34210  290.43 0855.12
2009/04/23 11:56:36.9      54     -7     46     55     71  97.9  43.8  34206  290.35 0855.12
2009/04/23 11:56:37.0      58     -4     41     59     71  94.3  38.6  34204  290.31 0855.12
2009/04/23 11:56:37.1      58    -11     21     60     64 100.6  19.4  34202  290.30 0855.12
2009/04/23 11:56:37.2      47    -26     19     54     58 118.9  19.4  34200  290.26 0855.12
2009/04/23 11:56:37.3       6    -29      9     30     32 168.4  17.3  34200  290.25 0855.12
2009/04/23 11:56:37.4     -32    -51     32     61     68 212.6  29.3  34204  290.31 0855.12
2009/04/23 11:56:37.5     -48    -58     41     76     86 219.6  30.8  34196  290.19 0855.12
2009/04/23 11:56:37.6     -34    -17     55     39     67 242.9  60.6  34196  290.18 0855.12
2009/04/23 11:56:37.7     -14     -6     47     16     49 244.7  81.0  34200  290.25 0855.12
2009/04/23 11:56:37.8     -14      9     40     17     43 302.4  77.1  34192  290.11 0855.12
2009/04/23 11:56:37.9      -6     16     39     18     42 338.2  74.0  34198  290.23 0855.12
2009/04/23 11:56:38.0      -6    -17     53     19     56 198.7  81.2  34194  290.14 0855.12
2009/04/23 11:56:38.1      -2    -45     55     46     71 182.7  56.3  34188  290.04 0855.12
2009/04/23 11:56:38.2      32    -39     57     51     76 140.4  52.2  34184  289.99 0855.12
2009/04/23 11:56:38.3      22    -87     76     90    117 165.7  44.8  34184  289.99 0855.12
2009/04/23 11:56:38.4      14    -80     76     82    111 169.8  47.9  34190  290.08 0855.12
2009/04/23 11:56:38.5      11    -58     72     60     93 169.3  55.8  34190  290.09 0855.12
2009/04/23 11:56:38.6       3    -50     60     51     78 175.5  54.8  34186  290.01 0855.12
2009/04/23 11:56:38.7       7    -23     56     25     61 161.5  75.0  34186  290.02 0855.12
2009/04/23 11:56:38.8      13     14     41     20     45  43.4  71.9  34196  290.18 0855.12
2009/04/23 11:56:38.9      48     31     49     58     75  57.6  43.8  34204  290.31 0855.12
2009/04/23 11:56:39.0      30     25     59     40     71  50.5  63.6  34220  290.58 0855.12
2009/04/23 11:56:39.1      40     28     51     49     70  54.9  51.2  34216  290.52 0855.12
2009/04/23 11:56:39.2     -27    -17     53     32     61 237.6  65.7  34212  290.47 0855.12
2009/04/23 11:56:39.3     -42    -14     33     45     55 250.9  39.7  34214  290.50 0855.12
2009/04/23 11:56:39.4     -78     10     11     79     80 277.9   8.0  34214  290.48 0855.12
2009/04/23 11:56:39.5    -104    -20     -4    106    107 259.0  -2.2  34230  290.75 0855.05
2009/04/23 11:56:39.6    -159    -50     -9    167    168 252.5  -3.1  34242  290.96 0855.05
2009/04/23 11:56:39.7    -157    -75     13    175    176 244.5   4.4  34220  290.58 0855.05
2009/04/23 11:56:39.8    -150    -59      4    162    163 248.3   1.6  34216  290.53 0855.05
2009/04/23 11:56:39.9    -130    -85     36    156    161 236.7  13.2  34216  290.53 0855.05
2009/04/23 11:56:40.0     -79    -96     52    125    135 219.7  23.6  34216  290.52 0855.05
2009/04/23 11:56:40.1     -82    -87     27    120    124 223.3  12.6  34228  290.74 0855.05
2009/04/23 11:56:40.2    -102    -71     22    125    127 234.9  10.1  34238  290.89 0855.05
2009/04/23 11:56:40.3     -63    -78     35    101    108 218.7  19.2  34240  290.94 0855.05
2009/04/23 11:56:40.4     -24   -115     49    118    127 192.0  23.6  34226  290.70 0855.05
2009/04/23 11:56:40.5       4    -55     27     56     62 175.6  27.2  34224  290.67 0855.05
2009/04/23 11:56:40.6      18    -68     13     71     73 164.9  11.0  34222  290.62 0855.05
2009/04/23 11:56:40.7      33    -33     16     47     50 134.9  19.4  34220  290.58 0855.05
2009/04/23 11:56:40.8      84    -17     92     86    125 101.5  52.1  34222  290.64 0855.05
2009/04/23 11:56:40.9      73    -72     85    103    133 134.4  43.7  34220  290.58 0855.05
2009/04/23 11:56:41.0      88    -70     76    113    136 128.6  37.0  34230  290.75 0855.05
2009/04/23 11:56:41.1      87    -57    106    105    149 123.3  50.1  34240  290.92 0855.05
2009/04/23 11:56:41.2     112    -71     98    133    165 122.4  39.9  34224  290.65 0855.05
2009/04/23 11:56:41.3      94    -83     94    126    157 131.3  40.7  34222  290.62 0855.05
2009/04/23 11:56:41.4     144    -57     74    155    171 111.7  27.2  34228  290.72 0855.05
2009/04/23 11:56:41.5     109    -79     60    135    147 126.0  25.2  34218  290.55 0855.09
2009/04/23 11:56:41.6      67    -98     76    119    141 145.7  35.5  34214  290.50 0855.09
2009/04/23 11:56:41.7      95    -45     99    106    145 115.3  48.0  34218  290.55 0855.09
2009/04/23 11:56:41.8       7    -89     96     90    131 175.5  52.1  34222  290.64 0855.09
2009/04/23 11:56:41.9      19    -23     72     30     78 140.4  77.0  34218  290.55 0855.09
2009/04/23 11:56:42.0      29     10     63     31     70  70.0  72.8  34222  290.62 0855.09
2009/04/23 11:56:42.1      84     -6    113     85    141  94.4  59.4  34202  290.28 0855.09
2009/04/23 11:56:42.2     114    -37    119    120    169 108.2  50.2  34204  290.33 0855.09
2009/04/23 11:56:42.3      99    -46     99    110    147 114.8  46.9  34204  290.31 0855.09
2009/04/23 11:56:42.4     101    -19     78    103    129 101.0  41.2  34194  290.16 0855.09
2009/04/23 11:56:42.5      74    -35     78     82    113 115.4  49.0  34194  290.16 0855.09
2009/04/23 11:56:42.6       0     -3     69      4     69 175.5  90.0  34208  290.38 0855.09
2009/04/23 11:56:42.7      93     18     99     95    137  78.5  51.6  34184  289.99 0855.09
2009/04/23 11:56:42.8     103     -3    107    104    149  92.1  50.7  34182  289.94 0855.09
2009/04/23 11:56:42.9      85      3    123     86    150  87.4  61.5  34210  290.41 0855.09
2009/04/23 11:56:43.0     100     47    132    111    172  64.7  55.8  34218  290.57 0855.09
2009/04/23 11:56:43.1       4     -4     87      7     87 135.0  90.0  34218  290.55 0855.09
2009/04/23 11:56:43.2       0     -9     50     10     51 180.9  89.0  34212  290.45 0855.09
2009/04/23 11:56:43.3      58      4     76     59     96  85.7  57.9  34208  290.38 0855.09
2009/04/23 11:56:43.4      45    -37     49     59     76 129.5  43.8  34204  290.33 0855.09
2009/04/23 11:56:43.5     -12     14     54     19     57 318.6  81.2  34210  290.41 0855.13
2009/04/23 11:56:43.6      25     11     63     28     68  66.5  75.0  34206  290.36 0855.13
2009/04/23 11:56:43.7      15    -17     63     24     67 138.6  79.2  34200  290.26 0855.13
2009/04/23 11:56:43.8      55    -18     71     58     91 108.4  56.4  34186  290.01 0855.13
2009/04/23 11:56:43.9     107    -28     92    111    144 104.6  43.7  34180  289.91 0855.13
2009/04/23 11:56:44.0     213     -7     99    214    235  92.1  26.4  34182  289.94 0855.13
2009/04/23 11:56:44.1     175    -39     70    180    193 102.6  22.3  34184  289.99 0855.13
2009/04/23 11:56:44.2     112   -140     70    180    193 141.3  22.3  34178  289.87 0855.13
2009/04/23 11:56:44.3      88   -110     63    141    154 141.3  26.2  34168  289.72 0855.13
2009/04/23 11:56:44.4      86    -99     75    132    151 139.0  31.9  34170  289.74 0855.13
2009/04/23 11:56:44.5     105   -160     81    192    208 146.6  24.1  34166  289.69 0855.13
2009/04/23 11:56:44.6     135   -177     82    223    237 142.6  21.0  34168  289.71 0855.13
2009/04/23 11:56:44.7     127   -185    110    225    250 145.5  27.8  34172  289.76 0855.13
2009/04/23 11:56:44.8     136   -145     66    199    210 136.8  18.4  34174  289.80 0855.13
2009/04/23 11:56:44.9     125   -136     36    185    189 137.5  11.0  34182  289.96 0855.13
2009/04/23 11:56:45.0     148   -191    127    242    273 142.2  30.1  34184  289.98 0855.13
2009/04/23 11:56:45.1     124   -191    112    228    254 147.0  28.2  34182  289.93 0855.13
2009/04/23 11:56:45.2     146   -165    121    221    251 138.6  31.3  34182  289.93 0855.13
2009/04/23 11:56:45.3     156   -156    102    222    244 135.0  26.4  34180  289.90 0855.13
2009/04/23 11:56:45.4     143   -133    117    196    228 132.9  33.5  34174  289.80 0855.13
2009/04/23 11:56:45.5     200    -90    130    220    255 114.4  33.5  34172  289.78 0855.15
2009/04/23 11:56:45.7     158    -26    156    161    224  99.6  49.4  34176  289.85 0855.15
2009/04/23 11:56:45.7     211    -87    129    229    262 112.6  31.9  34174  289.80 0855.15
2009/04/23 11:56:45.9     215    -36    148    219    264  99.6  37.3  34170  289.73 0855.15
2009/04/23 11:56:45.9     178      3    193    179    263  89.0  52.2  34182  289.93 0855.15
2009/04/23 11:56:46.1     230     54    201    237    310  76.8  44.5  34186  290.00 0855.15
2009/04/23 11:56:46.1     158     49    198    166    258  72.5  56.1  34198  290.23 0855.15
2009/04/23 11:56:46.2     151     35    206    156    258  76.7  59.2  34194  290.16 0855.15
2009/04/23 11:56:46.3     190     30    213    193    287  81.0  53.3  34190  290.09 0855.15
2009/04/23 11:56:46.4     268     60    141    275    309  77.4  29.3  34182  289.93 0855.15
2009/04/23 11:56:46.5     265     85     95    279    295  72.2  18.9  34178  289.86 0855.15
2009/04/23 11:56:46.7     292     85     85    305    317  73.8  15.6  34172  289.76 0855.15
2009/04/23 11:56:46.8     300     55    115    306    326  79.5  21.5  34178  289.86 0855.15
2009/04/23 11:56:46.9     275     20    103    276    294  85.7  21.3  34192  290.12 0855.15
2009/04/23 11:56:47.0     238     59     64    246    255  75.9  14.7  34184  289.98 0855.15
2009/04/23 11:56:47.1     216     96     79    237    251  66.0  18.6  34190  290.09 0855.15
2009/04/23 11:56:47.2     245    102     52    266    272  67.4  11.1  34174  289.81 0855.15
2009/04/23 11:56:47.3     248    103     48    269    274  67.4  10.1  34172  289.78 0855.15
2009/04/23 11:56:47.4     239    109     79    263    275  65.4  16.8  34176  289.83 0855.15
2009/04/23 11:56:47.5     206     61     56    216    224  73.4  14.5  34178  289.89 0855.15
2009/04/23 11:56:47.6     231     80     34    245    248  70.9   8.0  34182  289.93 0855.15
2009/04/23 11:56:47.7     242     82     76    256    268  71.2  16.6  34202  290.27 0855.15
2009/04/23 11:56:47.8     235     97     69    255    265  67.4  15.2  34184  289.98 0855.15
2009/04/23 11:56:47.9     273     92     67    289    297  71.4  13.2  34222  290.63 0855.15
2009/04/23 11:56:48.0     266     58     58    273    280  77.7  12.0  34210  290.41 0855.15
2009/04/23 11:56:48.1     245     68     26    255    257  74.5   5.9  34228  290.73 0855.15
2009/04/23 11:56:48.2     162     35    154    166    226  77.6  47.9  34260  291.26 0855.15
2009/04/23 11:56:48.3     180     46    147    186    237  75.6  42.4  34260  291.26 0855.15
2009/04/23 11:56:48.4     235     71     80    246    259  73.2  18.1  34274  291.51 0855.15
2009/04/23 11:56:48.5     228     49    103    234    255  77.8  25.2  34280  291.61 0855.15
2009/04/23 11:56:48.6     185     45     68    191    203  76.1  19.6  34266  291.38 0855.15
2009/04/23 11:56:48.7     220     44     87    225    241  78.5  22.1  34224  290.66 0855.15
2009/04/23 11:56:48.8     179     -4    117    180    214  91.5  35.6  34206  290.35 0855.15
2009/04/23 11:56:48.9     134     -7    153    135    204  93.0  54.2  34210  290.43 0855.15
2009/04/23 11:56:49.0     120     -5    116    121    167  92.6  49.0  34208  290.40 0855.15
2009/04/23 11:56:49.1      16     40    159     44    164  21.8  84.1  34218  290.57 0855.15
2009/04/23 11:56:49.2       8    -20    169     22    170 158.2  90.0  34220  290.60 0855.15
2009/04/23 11:56:49.3     -49   -150    195    159    251 198.3  56.4  34232  290.79 0855.15
2009/04/23 11:56:49.4     -64   -109    149    127    195 210.7  55.0  34238  290.91 0855.15
2009/04/23 11:56:49.5     -89   -138    154    165    225 213.0  47.9  34232  290.79 0855.15
2009/04/23 11:56:49.6     -58   -154     42    165    171 200.9  14.3  34234  290.84 0855.16
2009/04/23 11:56:49.7     -17   -124    168    126    210 188.1  59.2  34212  290.47 0855.16
2009/04/23 11:56:49.8     -59   -190    104    200    225 197.4  29.3  34242  290.98 0855.16
2009/04/23 11:56:49.9      34   -209    125    212    246 170.7  33.4  34224  290.65 0855.16
2009/04/23 11:56:50.0      70   -157    150    173    228 155.9  45.4  34232  290.79 0855.16
2009/04/23 11:56:50.1      64   -125    143    141    200 152.9  50.2  34220  290.60 0855.16
2009/04/23 11:56:50.2      63    -99    115    118    164 147.5  49.8  34194  290.14 0855.16
2009/04/23 11:56:50.3      26   -129    117    132    176 168.4  46.2  34178  289.87 0855.16
2009/04/23 11:56:50.4      -5   -122    150    123    193 182.7  56.4  34182  289.96 0855.16
2009/04/23 11:56:50.5     -12   -156    179    157    238 184.5  54.2  34182  289.94 0855.16
2009/04/23 11:56:50.6     -47   -166    128    173    215 195.8  40.1  34178  289.87 0855.17
2009/04/23 11:56:50.7     -69   -183    137    196    239 200.7  38.5  34176  289.85 0855.17
2009/04/23 11:56:50.8     -75   -222    136    235    271 198.7  32.7  34176  289.85 0855.17
2009/04/23 11:56:50.9     -59   -210     78    219    232 195.8  20.2  34176  289.84 0855.17
2009/04/23 11:56:51.0     -79   -189     80    205    220 202.7  22.5  34178  289.87 0855.17
2009/04/23 11:56:51.1     -41   -195     29    200    203 192.0   8.2  34180  289.91 0855.17
2009/04/23 11:56:51.2     -92   -167     62    191    201 209.0  18.1  34176  289.84 0855.17
2009/04/23 11:56:51.3      54   -137     40    148    154 158.6  15.3  34174  289.82 0855.17
2009/04/23 11:56:51.4      86   -135     45    161    168 147.5  15.6  34182  289.96 0855.17
2009/04/23 11:56:51.5      27   -172     27    175    178 171.1   9.0  34186  290.02 0855.17
2009/04/23 11:56:51.6      57   -142     82    154    174 158.1  30.3  34178  289.89 0855.17
2009/04/23 11:56:51.7       0   -132     63    133    147 180.4  27.2  34176  289.85 0855.17
2009/04/23 11:56:51.8     -60   -171     39    182    187 199.4  12.2  34176  289.85 0855.17
2009/04/23 11:56:51.9      -7   -183     74    184    198 182.2  23.0  34176  289.85 0855.17
2009/04/23 11:56:52.0      13   -191    101    192    216 176.0  29.8  34178  289.87 0855.17
2009/04/23 11:56:52.1      -1   -185    126    186    224 180.5  37.4  34178  289.89 0855.17
2009/04/23 11:56:52.2     -98   -205    150    228    272 205.6  36.3  34174  289.81 0855.17
2009/04/23 11:56:52.3     -85   -195    131    213    250 203.6  34.5  34170  289.73 0855.17
2009/04/23 11:56:52.4    -240   -211     62    320    326 228.7  11.0  34174  289.80 0855.17
2009/04/23 11:56:52.5    -156   -164     63    227    236 223.7  15.6  34172  289.76 0855.17
2009/04/23 11:56:52.6    -165   -179    107    244    266 222.8  25.2  34172  289.76 0855.15
2009/04/23 11:56:52.7    -250   -149    159    292    332 239.3  30.9  34176  289.83 0855.15
2009/04/23 11:56:52.8    -184   -240    124    303    327 217.6  23.5  34174  289.81 0855.15
2009/04/23 11:56:52.9    -203   -222     31    302    304 222.4   5.9  34178  289.88 0855.15
2009/04/23 11:56:53.0    -130   -164     10    210    211 218.3   2.9  34178  289.87 0855.15
2009/04/23 11:56:53.1     -31   -172     25    175    177 190.5   8.2  34174  289.82 0855.15
2009/04/23 11:56:53.2      31   -129     62    133    146 166.2  27.1  34174  289.82 0855.15
2009/04/23 11:56:53.3      92    -22     79     95    123 103.7  44.3  34176  289.85 0855.15
2009/04/23 11:56:53.4     145     41    123    151    194  74.1  43.7  34180  289.91 0855.15
2009/04/23 11:56:53.5      89     75    127    117    172  50.0  52.5  34180  289.91 0855.15
2009/04/23 11:56:53.6     125     35    160    131    206  74.1  56.4  34180  289.91 0855.15
2009/04/23 11:56:53.7      -5     76    148     77    166 355.6  70.8  34198  290.21 0855.15
2009/04/23 11:56:53.8     -60    165    152    176    232 340.0  45.4  34194  290.16 0855.15
2009/04/23 11:56:53.9      51     61    113     80    138  39.6  61.1  34200  290.25 0855.15
2009/04/23 11:56:54.0     -52     11    160     54    168 282.4  81.0  34198  290.21 0855.15
2009/04/23 11:56:54.1      20     65    160     69    174  16.9  75.5  34200  290.25 0855.15
2009/04/23 11:56:54.2      92     91    192    130    231  45.1  62.8  34234  290.84 0855.15
2009/04/23 11:56:54.3     -18    133    178    135    223 352.0  59.2  34250  291.11 0855.15
2009/04/23 11:56:54.4     -44    102    168    112    201 336.4  63.4  34236  290.87 0855.15
2009/04/23 11:56:54.5     -39    141    127    147    194 344.4  45.1  34240  290.92 0855.15
2009/04/23 11:56:54.6    -147    279    200    316    373 332.1  35.5  34250  291.10 0855.14
2009/04/23 11:56:54.7    -348    194    107    399    414 299.2  15.0  34240  290.92 0855.14
2009/04/23 11:56:54.8    -420    214     52    472    475 297.0   6.4  34256  291.20 0855.14
2009/04/23 11:56:54.9    -308    177    134    356    380 299.9  21.5  34208  290.40 0855.14
2009/04/23 11:56:55.0    -375    176    199    415    460 295.2  27.3  34216  290.53 0855.14
2009/04/23 11:56:55.1    -402     16    173    403    438 272.4  24.9  34230  290.77 0855.14
2009/04/23 11:56:55.2    -429    -66    -55    435    439 261.2  -7.3  34236  290.85 0855.14
2009/04/23 11:56:55.3    -404   -118    -73    421    428 253.7  -9.9  34230  290.77 0855.14
2009/04/23 11:56:55.4    -355   -217     21    417    418 238.6   2.9  34244  290.99 0855.14
2009/04/23 11:56:55.5    -452   -346     13    570    571 232.6   1.4  34256  291.19 0855.14
2009/04/23 11:56:55.6    -412   -396    -72    572    577 226.1  -7.2  34186  290.02 0855.14
2009/04/23 11:56:55.7    -117   -446     90    462    471 194.8  11.1  34196  290.18 0855.14
2009/04/23 11:56:55.8    -203   -329    -71    387    394 211.6 -10.5  34194  290.15 0855.14
2009/04/23 11:56:55.9    -196   -383   -152    431    458 207.2 -19.4  34202  290.29 0855.14
2009/04/23 11:56:56.0    -360   -338      6    494    495 226.8   0.7  34196  290.17 0855.14
2009/04/23 11:56:56.1    -582   -681     19    897    898 220.5   1.2  34202  290.28 0855.14
2009/04/23 11:56:56.2    -644   -138   -261    659    708 257.9 -27.3  34152  289.44 0855.14
2009/04/23 11:56:56.3    -646    -42   -328    648    726 266.2 -33.3  34164  289.64 0855.14
2009/04/23 11:56:56.4    -694   -177   -245    717    757 255.7 -24.0  34172  289.77 0855.14
2009/04/23 11:56:56.5    -567   -279   -175    632    655 243.8 -20.0  34176  289.84 0855.14
2009/04/23 11:56:56.6    -658   -304   -255    725    768 245.2 -24.6  34154  289.46 0855.04
2009/04/23 11:56:56.7    -598   -288   -391    664    770 244.2 -37.7  34146  289.33 0855.04
2009/04/23 11:56:56.8    -659   -494   -426    824    927 233.1 -33.8  34130  289.06 0855.04
2009/04/23 11:56:56.9    -513   -500   -455    717    849 225.7 -39.9  34130  289.06 0855.04
2009/04/23 11:56:57.0    -580   -320   -436    663    793 241.1 -40.8  34132  289.11 0855.04
2009/04/23 11:56:57.1    -597   -495   -325    776    841 230.3 -28.5  34138  289.21 0855.04
2009/04/23 11:56:57.2    -549   -472   -365    725    811 229.3 -33.1  34146  289.32 0855.04
2009/04/23 11:56:57.3    -634   -341   -343    721    798 241.7 -31.7  34138  289.20 0855.04
2009/04/23 11:56:57.4    -725   -102   -252    733    775 262.0 -24.0  34130  289.07 0855.04
2009/04/23 11:56:57.5    -730   -292   -326    787    851 248.2 -28.2  34136  289.16 0855.04
2009/04/23 11:56:57.6    -469   -563   -243    733    772 219.8 -23.7  34132  289.11 0855.04
2009/04/23 11:56:57.7    -636   -338   -232    721    757 242.0 -22.9  34142  289.26 0855.04
2009/04/23 11:56:57.8    -606    -86     76    613    618 261.9   7.1  34144  289.30 0855.04
2009/04/23 11:56:57.9    -541   -118   -111    554    566 257.6 -11.3  34152  289.43 0855.04
2009/04/23 11:56:58.0    -321   -375    -35    494    496 220.6  -4.1  34156  289.50 0855.04
2009/04/23 11:56:58.1    -198   -330     38    386    388 211.0   5.7  34148  289.38 0855.04
2009/04/23 11:56:58.2    -145   -350     -7    380    381 202.6  -1.2  34146  289.33 0855.04
2009/04/23 11:56:58.3    -411   -643   -131    764    776 212.6  -9.8  34134  289.13 0855.04
2009/04/23 11:56:58.4    -519   -679   -120    855    864 217.4  -8.0  34168  289.70 0855.04
2009/04/23 11:56:58.5     -32   -673   -135    674    688 182.8 -11.3  34156  289.51 0855.04
2009/04/23 11:56:58.6     222   -647    131    685    698 161.1  10.8  34150  289.39 0855.03
2009/04/23 11:56:58.7     153   -565   -187    586    616 164.9 -17.7  34166  289.68 0855.03
2009/04/23 11:56:58.8    -350   -237   -145    423    447 235.9 -23.9  34144  289.29 0855.03
2009/04/23 11:56:58.9    -322   -350    -74    476    482 222.6  -8.9  34170  289.73 0855.03
2009/04/23 11:56:59.0      -6   -441   -156    442    468 180.9 -24.7  34150  289.41 0855.03
2009/04/23 11:56:59.1     -68   -358    -46    365    368 190.9  -7.3  34166  289.69 0855.03
2009/04/23 11:56:59.2     -21   -284   -101    285    303 184.2 -19.6  34168  289.71 0855.03
2009/04/23 11:56:59.3     156   -190   -123    246    275 140.6 -32.9  34166  289.66 0855.03
2009/04/23 11:56:59.4     236   -211     82    317    328 131.8  14.5  34158  289.54 0855.03
2009/04/23 11:56:59.5     215   -292    112    363    381 143.6  17.2  34148  289.38 0855.03
2009/04/23 11:56:59.6     202   -195   -119    281    305 134.0 -28.7  34158  289.54 0855.03
2009/04/23 11:56:59.7     307   -340     20    459    460 138.0   2.5  34152  289.43 0855.03
2009/04/23 11:56:59.8     206   -356    198    412    457 150.0  27.3  34144  289.31 0855.03
2009/04/23 11:56:59.9     162   -287    288    330    438 150.6  45.8  34150  289.39 0855.03
2009/04/23 11:57:00.0      -6   -431    152    432    457 180.9  20.0  34150  289.41 0855.03
2009/04/23 11:57:00.1     -54   -552     98    555    564 185.7  10.1  34156  289.50 0855.03
2009/04/23 11:57:00.2      93   -488    157    497    522 169.2  17.5  34152  289.44 0855.03
2009/04/23 11:57:00.3     -17   -277     66    278    286 183.6  13.5  34154  289.46 0855.03
2009/04/23 11:57:00.4     -80   -345     69    355    362 193.1  11.1  34146  289.35 0855.03
2009/04/23 11:57:00.5    -149   -538     52    559    562 195.5   5.3  34150  289.40 0855.03
2009/04/23 11:57:00.6    -240   -567     -9    616    617 203.0  -0.9  34154  289.48 0855.07
2009/04/23 11:57:00.7     -94   -465    -14    475    476 191.5  -1.8  34156  289.49 0855.07
2009/04/23 11:57:00.8    -227   -517   -119    565    578 203.7 -11.9  34160  289.56 0855.07
2009/04/23 11:57:00.9      -6   -331      6    332    333 181.1   1.1  34160  289.57 0855.07
2009/04/23 11:57:01.0    -155   -184    -66    241    251 220.1 -15.4  34160  289.56 0855.07
2009/04/23 11:57:01.1    -354    -67   -116    361    380 259.3 -17.9  34168  289.72 0855.07
2009/04/23 11:57:01.2    -346     75    -70    355    362 282.3 -11.2  34164  289.64 0855.07
2009/04/23 11:57:01.3    -166   -216     20    273    274 217.6   4.2  34168  289.71 0855.07
2009/04/23 11:57:01.4    -166     11     47    167    174 273.9  15.8  34152  289.45 0855.07
2009/04/23 11:57:01.5    -233      9    144    234    274 272.4  34.5  34170  289.73 0855.07
2009/04/23 11:57:01.6    -262    167     12    311    312 302.5   2.4  34178  289.88 0855.07
2009/04/23 11:57:01.7    -239    211      6    319    320 311.4   1.1  34178  289.86 0855.07
2009/04/23 11:57:01.8    -150    213     71    261    271 324.8  15.3  34176  289.83 0855.07
2009/04/23 11:57:01.9      -8     98    100     99    140 355.1  50.1  34170  289.75 0855.07
2009/04/23 11:57:02.0     202     88    208    221    303  66.5  48.0  34174  289.80 0855.07
2009/04/23 11:57:02.1     185     69    138    198    241  69.4  38.4  34168  289.70 0855.07
2009/04/23 11:57:02.2     108     35    111    114    159  71.8  49.4  34158  289.55 0855.07
2009/04/23 11:57:02.3     207     90     48    226    232  66.5  12.0  34158  289.53 0855.07
2009/04/23 11:57:02.4     265    179     13    321    322  55.9   2.4  34172  289.76 0855.07
2009/04/23 11:57:02.5     130    177     -4    220    221  36.3  -1.3  34170  289.74 0855.07
2009/04/23 11:57:02.6      79     83     -9    115    116  43.7  -4.6  34170  289.75 0855.10
2009/04/23 11:57:02.7      27     19    -13     34     36  54.0 -23.3  34172  289.77 0855.10
2009/04/23 11:57:02.8      29     -9     64     31     71 108.6  72.8  34172  289.77 0855.10
2009/04/23 11:57:02.9      33      0    105     34    110  90.0  80.7  34176  289.84 0855.10
2009/04/23 11:57:03.0     -73     29     92     79    121 291.7  54.8  34182  289.94 0855.10
2009/04/23 11:57:03.1     -95     64    152    115    190 304.2  59.2  34174  289.82 0855.10
2009/04/23 11:57:03.2    -127     60     80    141    162 295.3  32.1  34162  289.62 0855.10
2009/04/23 11:57:03.3     -56    -13     98     58    113 256.7  66.2  34164  289.65 0855.10
2009/04/23 11:57:03.4      -1      5     90      6     90 341.5  90.0  34162  289.62 0855.10
2009/04/23 11:57:03.5      52     81    163     97    189  32.5  66.4  34168  289.72 0855.10
2009/04/23 11:57:03.6     -45     74    130     87    156 328.4  63.6  34168  289.70 0855.10
2009/04/23 11:57:03.7     -47     56    140     74    158 320.4  69.8  34170  289.75 0855.10
2009/04/23 11:57:03.8     -61    -36    126     72    145 239.3  67.7  34166  289.67 0855.10
2009/04/23 11:57:03.9     -77    -93     95    121    153 219.6  42.2  34158  289.53 0855.10
2009/04/23 11:57:04.0     -60    -70     63     93    112 220.5  37.6  34154  289.48 0855.10
2009/04/23 11:57:04.1     -83    -81     87    117    145 225.6  40.1  34156  289.50 0855.10
2009/04/23 11:57:04.2      34   -114     74    120    140 163.1  35.0  34162  289.60 0855.10
2009/04/23 11:57:04.3      58   -122     84    136    159 154.6  34.8  34166  289.69 0855.10
2009/04/23 11:57:04.4      68   -105    -33    126    131 147.0 -15.0  34162  289.60 0855.10
2009/04/23 11:57:04.5      34    -72    -97     80    125 154.7 -60.8  34160  289.58 0855.10
2009/04/23 11:57:04.6      11    -73   -104     74    127 171.1 -65.0  34160  289.58 0855.09
2009/04/23 11:57:04.7      49   -147    -83    156    176 161.3 -34.7  34160  289.57 0855.09
2009/04/23 11:57:04.8      25   -177    -35    179    183 171.9 -11.3  34158  289.53 0855.09
2009/04/23 11:57:04.9     -49   -103    -55    115    127 205.5 -31.6  34160  289.57 0855.09
2009/04/23 11:57:05.0    -117    -64     11    134    135 241.1   4.9  34160  289.58 0855.09
2009/04/23 11:57:05.1    -212     43     -1    217    218 281.5  -0.5  34166  289.69 0855.09
2009/04/23 11:57:05.2    -300    -60      4    307    308 258.6   0.8  34172  289.76 0855.09
2009/04/23 11:57:05.3    -400   -111     71    416    422 254.4   9.7  34182  289.95 0855.09
2009/04/23 11:57:05.4    -296    -59    -77    302    312 258.6 -14.3  34170  289.75 0855.09
2009/04/23 11:57:05.5    -383      0    -48    384    388 270.0  -7.2  34188  290.06 0855.09
2009/04/23 11:57:05.6    -478     87    -94    486    496 280.4 -11.0  34180  289.91 0855.09
2009/04/23 11:57:05.7    -515    -53   -147    518    539 264.0 -15.9  34190  290.09 0855.09
2009/04/23 11:57:05.8    -561    -24     82    562    569 267.5   8.3  34166  289.68 0855.09
2009/04/23 11:57:05.9    -409     47     -1    412    413 276.6  -0.3  34160  289.58 0855.09
2009/04/23 11:57:06.0    -409    131     54    430    434 287.8   7.2  34170  289.73 0855.09
2009/04/23 11:57:06.1    -320     16    -61    321    327 273.0 -10.9  34172  289.78 0855.09
2009/04/23 11:57:06.2    -291   -150     62    328    334 242.7  10.8  34158  289.55 0855.09
2009/04/23 11:57:06.3    -365    -44    -10    368    369 263.0  -1.7  34174  289.81 0855.09
2009/04/23 11:57:06.4    -330     55   -104    335    350 279.5 -22.4  34176  289.84 0855.09
2009/04/23 11:57:06.5    -424    -17   -191    425    465 267.6 -30.3  34170  289.73 0855.09
2009/04/23 11:57:06.6    -262   -238    -82    355    365 227.7 -13.1  34174  289.82 0855.06
2009/04/23 11:57:06.7    -254   -168    -58    305    311 236.5 -10.9  34162  289.61 0855.06
2009/04/23 11:57:06.8    -308    -61    -26    315    317 258.8  -4.9  34170  289.73 0855.06
2009/04/23 11:57:06.9    -233   -119     14    262    263 242.9   3.1  34166  289.66 0855.06
2009/04/23 11:57:07.0    -287   -199    -51    350    354 235.2  -8.4  34162  289.60 0855.06
2009/04/23 11:57:07.1    -436   -291    -76    525    531 236.3  -8.3  34170  289.74 0855.06
2009/04/23 11:57:07.2    -258   -358    -55    442    446 215.9  -7.2  34162  289.60 0855.06
2009/04/23 11:57:07.3    -246   -298     15    387    388 219.5   2.2  34166  289.69 0855.06
2009/04/23 11:57:07.4    -100   -288     77    306    316 199.2  14.2  34166  289.68 0855.06
2009/04/23 11:57:07.6     -13   -288    109    289    308 182.7  21.5  34168  289.71 0855.06
2009/04/23 11:57:07.6    -110   -276    165    298    340 201.9  31.4  34166  289.66 0855.06
2009/04/23 11:57:07.7    -136   -286    168    317    358 205.5  30.2  34166  289.69 0855.06
2009/04/23 11:57:07.8    -159   -291     64    332    339 208.7  11.0  34166  289.67 0855.06
2009/04/23 11:57:07.9      33   -320    137    322    349 174.0  24.5  34164  289.65 0855.06
2009/04/23 11:57:08.0      68   -274    157    283    323 166.0  31.5  34158  289.53 0855.06
2009/04/23 11:57:08.1       0   -368     57    369    374 180.1   8.8  34158  289.55 0855.06
2009/04/23 11:57:08.2      65   -327    116    334    354 168.7  19.2  34148  289.38 0855.06
2009/04/23 11:57:08.3      32   -362    119    364    384 174.8  18.1  34154  289.48 0855.06
2009/04/23 11:57:08.4       6   -381    110    382    398 179.0  16.1  34152  289.45 0855.06
2009/04/23 11:57:08.5       9   -295    140    296    327 178.2  27.2  34152  289.42 0855.06
2009/04/23 11:57:08.7     -74   -218     90    231    247 198.7  22.3  34154  289.47 0855.07
2009/04/23 11:57:08.7     -68   -144     62    160    171 205.5  22.3  34158  289.55 0855.07
2009/04/23 11:57:08.8    -145   -187     86    237    253 217.9  19.9  34156  289.49 0855.07
2009/04/23 11:57:08.9    -191   -120     35    226    229 237.8   9.0  34150  289.40 0855.07
2009/04/23 11:57:09.0    -162     -7    -42    163    169 267.2 -14.5  34160  289.58 0855.07
2009/04/23 11:57:09.1    -178     -5     38    179    184 268.1  12.0  34150  289.41 0855.07
2009/04/23 11:57:09.2    -241     59     37    249    252 283.9   8.5  34166  289.68 0855.07
2009/04/23 11:57:09.3    -273    108     84    294    306 291.7  16.0  34158  289.53 0855.07
2009/04/23 11:57:09.4    -387    190    229    432    488 296.2  30.2  34158  289.54 0855.07
2009/04/23 11:57:09.5    -352    154    200    385    433 293.7  29.4  34156  289.51 0855.07
2009/04/23 11:57:09.6    -276    -56    139    282    314 258.5  28.1  34158  289.54 0855.07
2009/04/23 11:57:09.7    -145   -213    247    258    357 214.2  48.7  34156  289.49 0855.07
2009/04/23 11:57:09.9    -184   -291    194    345    395 212.4  31.9  34156  289.50 0855.07
2009/04/23 11:57:09.9    -269   -291     69    397    404 222.8   9.9  34168  289.71 0855.07
2009/04/23 11:57:10.0    -122   -223    115    255    279 208.7  25.9  34164  289.64 0855.07
2009/04/23 11:57:10.1      -6    -49    -18     50     54 187.1 -19.7  34168  289.70 0855.07
2009/04/23 11:57:10.2    -128   -239    249    272    368 208.1  47.3  34172  289.79 0855.07
2009/04/23 11:57:10.3     -49   -424    146    427    452 186.7  18.9  34158  289.55 0855.07
2009/04/23 11:57:10.4    -125   -416    217    435    486 196.8  28.5  34170  289.74 0855.07
2009/04/23 11:57:10.5     -98   -491    276    501    571 191.3  31.3  34174  289.80 0855.07
2009/04/23 11:57:10.6    -182   -606    282    633    692 196.8  25.7  34172  289.78 0855.07
2009/04/23 11:57:10.7    -457   -760    350    887    953 211.0  22.7  34162  289.59 0855.07
2009/04/23 11:57:10.8    -332   -626    222    709    744 208.0  17.4  34168  289.71 0855.07
2009/04/23 11:57:10.9    -444   -609    155    754    771 216.1  11.7  34162  289.62 0855.07
2009/04/23 11:57:11.1    -384   -600    -33    713    714 212.6  -2.7  34152  289.44 0855.07
2009/04/23 11:57:11.1    -512   -508    -88    722    728 225.2  -7.0  34172  289.76 0855.07
2009/04/23 11:57:11.2    -423   -497    -82    653    659 220.4  -7.2  34158  289.54 0855.07
2009/04/23 11:57:11.3    -550   -500     56    744    746 227.7   4.4  34150  289.41 0855.07
2009/04/23 11:57:11.4    -209   -534    154    574    595 201.4  15.0  34158  289.54 0855.07
2009/04/23 11:57:11.5    -176   -545     59    573    576 197.9   5.9  34152  289.42 0855.07
2009/04/23 11:57:11.6    -125   -543     79    558    564 193.0   8.1  34150  289.41 0855.10
2009/04/23 11:57:11.7    -187   -558     29    589    590 198.6   2.9  34144  289.30 0855.10
2009/04/23 11:57:11.8    -396   -407    -45    569    571 224.2  -4.6  34154  289.46 0855.10
2009/04/23 11:57:11.9     -83   -574    204    581    617 188.2  19.4  34152  289.44 0855.10
2009/04/23 11:57:12.0     -50   -617    208    620    655 184.7  18.6  34150  289.40 0855.10
2009/04/23 11:57:12.1    -138   -542    206    560    596 194.3  21.0  34152  289.44 0855.10
2009/04/23 11:57:12.2    -118   -533     99    546    556 192.5  10.3  34152  289.45 0855.10
2009/04/23 11:57:12.3     -99   -604     73    613    618 189.3   6.9  34152  289.45 0855.10
2009/04/23 11:57:12.4    -113   -579     47    591    593 191.1   4.6  34156  289.51 0855.10
2009/04/23 11:57:12.5     -80   -605     46    611    613 187.6   4.3  34150  289.39 0855.10
2009/04/23 11:57:12.6    -168   -520      3    547    548 197.9   0.4  34154  289.46 0855.10
2009/04/23 11:57:12.7    -192   -503    -15    539    540 200.9  -1.6  34152  289.45 0855.10
2009/04/23 11:57:12.8    -268   -453     35    527    529 210.6   3.8  34152  289.45 0855.10
2009/04/23 11:57:12.9    -271   -372     -2    461    462 216.1  -0.3  34156  289.51 0855.10
2009/04/23 11:57:13.0    -174   -358     21    399    400 205.9   3.1  34156  289.50 0855.10
2009/04/23 11:57:13.1    -275   -368     13    460    461 216.7   1.7  34160  289.56 0855.10
2009/04/23 11:57:13.2    -265   -420     30    497    498 212.3   3.5  34156  289.52 0855.10
2009/04/23 11:57:13.3    -151   -371     53    401    405 202.2   7.6  34160  289.56 0855.10
2009/04/23 11:57:13.5    -239   -387     81    455    463 211.7  10.1  34158  289.55 0855.10
2009/04/23 11:57:13.6    -194   -457     12    497    498 203.0   1.4  34158  289.54 0855.10
2009/04/23 11:57:13.7    -181   -458    -48    493    496 201.6  -5.6  34152  289.44 0855.03
2009/04/23 11:57:13.8    -193   -431     -1    473    474 204.1  -0.2  34156  289.52 0855.03
2009/04/23 11:57:13.9    -122   -369     -7    389    390 198.4  -1.2  34156  289.52 0855.03
2009/04/23 11:57:14.0     -67   -343     19    350    351 191.1   3.1  34152  289.43 0855.03
2009/04/23 11:57:14.1    -138   -414      6    437    438 198.4   0.8  34154  289.46 0855.03
2009/04/23 11:57:14.2     -95   -397     -7    409    410 193.5  -1.1  34154  289.46 0855.03
2009/04/23 11:57:14.3     -97   -300     50    316    320 198.0   9.0  34154  289.46 0855.03
2009/04/23 11:57:14.4    -124   -283     48    310    314 203.7   8.9  34156  289.51 0855.03
2009/04/23 11:57:14.5    -133   -384     -6    407    408 199.2  -0.9  34154  289.46 0855.03
2009/04/23 11:57:14.6    -100   -335   -140    350    376 196.7 -27.4  34152  289.43 0855.03
2009/04/23 11:57:14.7      -6   -262     14    263    264 181.4   3.1  34152  289.42 0855.03
2009/04/23 11:57:14.8    -114   -179    143    213    256 212.6  37.3  34154  289.46 0855.03
2009/04/23 11:57:14.9     -30   -210     79    213    227 188.1  21.3  34154  289.48 0855.03
2009/04/23 11:57:15.0     -69   -255      5    265    266 195.2   1.2  34156  289.51 0855.03
2009/04/23 11:57:15.1    -108   -192     26    221    223 209.4   6.7  34152  289.43 0855.03
2009/04/23 11:57:15.2    -156   -215     21    266    267 216.0   4.6  34152  289.44 0855.03
2009/04/23 11:57:15.3    -170   -205      3    267    268 219.6   0.8  34154  289.47 0855.03
2009/04/23 11:57:15.4    -237    -76    -43    250    254 252.1  -9.8  34154  289.46 0855.03
2009/04/23 11:57:15.5    -152    -47    -32    160    164 252.7 -11.3  34152  289.45 0855.03
2009/04/23 11:57:15.6     -22    -35    -80     42     90 212.5 -74.8  34158  289.53 0855.03
2009/04/23 11:57:15.7      16    -92    -72     94    118 169.8 -46.0  34160  289.57 0855.04
2009/04/23 11:57:15.8      12   -125    -82    126    150 174.2 -40.0  34156  289.50 0855.04
2009/04/23 11:57:15.9      -5    -67    -68     68     96 184.4 -54.5  34152  289.45 0855.04
2009/04/23 11:57:16.0     -12    -58    -65     60     88 191.6 -56.6  34154  289.48 0855.04
2009/04/23 11:57:16.1     -78    -60   -100     99    140 232.2 -54.5  34154  289.46 0855.04
2009/04/23 11:57:16.2    -152   -100    -99    183    208 236.5 -35.2  34152  289.45 0855.04
2009/04/23 11:57:16.3    -146    -93   -202    174    266 237.5 -59.4  34158  289.54 0855.04
2009/04/23 11:57:16.4    -164   -264   -160    312    350 211.9 -33.7  34152  289.43 0855.04
2009/04/23 11:57:16.5    -343   -225   -193    411    454 236.8 -31.5  34156  289.51 0855.04
2009/04/23 11:57:16.6    -467   -141   -242    488    544 253.2 -32.6  34142  289.26 0855.04
2009/04/23 11:57:16.7    -285   -359   -337    459    569 218.4 -44.3  34148  289.36 0855.04
2009/04/23 11:57:16.8    -206   -263   -365    335    495 218.1 -57.1  34152  289.44 0855.04
2009/04/23 11:57:16.9     -17   -375   -306    376    484 182.6 -47.7  34156  289.51 0855.04
2009/04/23 11:57:17.0    -150   -383   -192    412    454 201.4 -31.4  34152  289.44 0855.04
2009/04/23 11:57:17.1    -154   -399   -256    428    498 201.2 -38.2  34146  289.35 0855.04
2009/04/23 11:57:17.2    -103   -319   -296    336    447 198.0 -50.3  34150  289.41 0855.04
2009/04/23 11:57:17.3    -155   -311   -216    348    409 206.5 -39.4  34148  289.38 0855.04
2009/04/23 11:57:17.4     -55   -138   -120    149    191 201.9 -47.9  34148  289.36 0855.04
2009/04/23 11:57:17.5      -5   -167     72    168    182 181.8  24.3  34152  289.43 0855.04
2009/04/23 11:57:17.6     -36   -177    125    181    219 191.6  38.0  34154  289.46 0855.04
2009/04/23 11:57:17.7     -48   -140    104    149    181 199.2  38.6  34146  289.35 0855.07
2009/04/23 11:57:17.8     -40   -142     98    148    177 196.0  36.7  34156  289.50 0855.07
2009/04/23 11:57:17.9     -76   -178    113    194    224 203.2  33.1  34154  289.48 0855.07
2009/04/23 11:57:18.0     -60    -49     57     78     96 230.4  39.7  34158  289.53 0855.07
2009/04/23 11:57:18.1     -87      7     57     88    104 275.2  35.6  34158  289.55 0855.07
2009/04/23 11:57:18.2     -64     17    107     67    126 285.1  64.7  34160  289.58 0855.07
2009/04/23 11:57:18.3     -79   -168    206    186    277 205.4  53.3  34158  289.53 0855.07
2009/04/23 11:57:18.4     -10   -129    191    130    231 184.5  62.6  34166  289.67 0855.07
2009/04/23 11:57:18.5    -134   -175    156    221    270 217.4  38.6  34150  289.41 0855.07
2009/04/23 11:57:18.6    -159    -97    121    187    222 238.7  35.6  34156  289.50 0855.07
2009/04/23 11:57:18.7     -16      2    158     17    158 277.9  90.0  34158  289.53 0855.07
2009/04/23 11:57:18.8     -91      8    123     92    153 275.2  60.0  34158  289.55 0855.07
2009/04/23 11:57:18.9      22     53    182     58    191  22.7  81.2  34166  289.67 0855.07
2009/04/23 11:57:19.0      47     15    136     50    144  71.6  79.2  34166  289.69 0855.07
2009/04/23 11:57:19.1      56      4    119     57    131  85.6  72.8  34162  289.62 0855.07
2009/04/23 11:57:19.2      45     14    113     48    122  72.3  76.1  34168  289.72 0855.07
2009/04/23 11:57:19.3      50     -5     90     51    103  96.1  68.8  34164  289.63 0855.07
2009/04/23 11:57:19.4     109     23     98    112    148  78.1  45.8  34178  289.89 0855.07
2009/04/23 11:57:19.5     104     91    106    139    174  48.7  41.2  34168  289.70 0855.07
2009/04/23 11:57:19.6     116     23     91    119    149  78.6  41.6  34166  289.69 0855.07
2009/04/23 11:57:19.7      75      3     90     76    117  87.4  55.4  34172  289.77 0855.05
2009/04/23 11:57:19.8      70      5     94     71    117  85.6  59.4  34170  289.75 0855.05
2009/04/23 11:57:19.9     168     24    148    170    225  81.6  45.6  34154  289.48 0855.05
2009/04/23 11:57:20.0     175     15    137    176    223  84.8  41.7  34154  289.48 0855.05
2009/04/23 11:57:20.1     170     16    100    171    198  84.5  33.1  34152  289.43 0855.05
2009/04/23 11:57:20.2     136     34     97    141    171  75.8  37.8  34158  289.55 0855.05
2009/04/23 11:57:20.3     150      2    130    151    199  89.2  45.4  34160  289.58 0855.05
2009/04/23 11:57:20.4     121     17    124    123    174  82.0  49.7  34166  289.67 0855.05
2009/04/23 11:57:20.5     106     26    134    110    173  75.8  56.4  34208  290.40 0855.05
2009/04/23 11:57:20.6     104     32    120    109    162  72.7  53.0  34216  290.53 0855.05
2009/04/23 11:57:20.7      85     47    106     98    144  60.7  52.2  34222  290.62 0855.05
2009/04/23 11:57:20.8      25     15     67     30     73  59.3  74.0  34226  290.70 0855.05
2009/04/23 11:57:20.9     -30    -10     38     32     49 250.0  56.3  34214  290.50 0855.05
2009/04/23 11:57:21.0     -12     -8     27     15     30 237.6  68.8  34214  290.48 0855.05
2009/04/23 11:57:21.1      29     -8     50     31     58 105.1  64.7  34182  289.96 0855.05
2009/04/23 11:57:21.2      -7      3     26      8     27 295.3  80.7  34178  289.87 0855.05
2009/04/23 11:57:21.3     -12      0     20     13     23 270.0  64.7  34184  289.97 0855.05
2009/04/23 11:57:21.4     -48    -27     39     56     68 240.2  38.6  34186  290.01 0855.05
2009/04/23 11:57:21.5     -89    -21     13     92     94 256.7   8.5  34182  289.96 0855.05
2009/04/23 11:57:21.6    -103    -37     19    110    112 250.0  10.1  34188  290.06 0855.05
2009/04/23 11:57:21.7     -99    -59     52    116    127 239.3  25.7  34186  290.02 0855.04
2009/04/23 11:57:21.8    -100    -57     54    116    127 240.2  27.1  34186  290.01 0855.04
2009/04/23 11:57:21.9     -94    -94     57    134    145 225.1  24.1  34180  289.91 0855.04
2009/04/23 11:57:22.0    -110   -165    131    199    238 213.6  36.5  34178  289.89 0855.04
2009/04/23 11:57:22.1     -40   -206    185    210    279 191.1  45.9  34170  289.73 0855.04
2009/04/23 11:57:22.2     -64   -214    182    224    288 196.7  43.7  34166  289.66 0855.04
2009/04/23 11:57:22.3     -39   -194    139    199    242 191.6  38.4  34192  290.11 0855.04
2009/04/23 11:57:22.4      -8    -95     92     96    132 185.3  49.4  34176  289.84 0855.04
2009/04/23 11:57:22.5    -105   -134    197    171    260 218.3  54.6  34196  290.17 0855.04
2009/04/23 11:57:22.6    -159    -99    101    188    213 238.2  30.6  34204  290.33 0855.04
2009/04/23 11:57:22.7    -181    -72     68    195    207 248.3  19.2  34220  290.58 0855.04
2009/04/23 11:57:22.8    -215    -55     10    222    223 255.6   2.8  34226  290.69 0855.04
2009/04/23 11:57:22.9    -198    -33     71    201    214 260.5  19.6  34178  289.89 0855.04
2009/04/23 11:57:23.0    -174   -139     95    223    242 231.4  24.3  34172  289.76 0855.04
2009/04/23 11:57:23.1     -83   -135     84    159    179 211.6  30.1  34164  289.65 0855.04
2009/04/23 11:57:23.2     165    -84    133    186    228 117.1  39.3  34174  289.80 0855.04
2009/04/23 11:57:23.3      97   -152     62    181    192 147.4  18.9  34166  289.69 0855.04
2009/04/23 11:57:23.4     128   -110     90    170    192 130.7  30.3  34166  289.69 0855.04
2009/04/23 11:57:23.5     123    -51    147    134    198 112.6  52.7  34168  289.70 0855.04
2009/04/23 11:57:23.6      15   -141    159    142    213 173.7  53.7  34166  289.69 0855.04
2009/04/23 11:57:23.7      41   -121    168    128    211 161.3  58.7  34168  289.72 0855.01
2009/04/23 11:57:23.8     -44   -170    135    176    221 194.5  41.6  34184  289.97 0855.01
2009/04/23 11:57:23.9     -91   -186     76    208    221 206.1  21.0  34188  290.04 0855.01
2009/04/23 11:57:24.0     -51   -129     48    139    148 201.8  19.2  34186  290.02 0855.01
2009/04/23 11:57:24.1     -85    -96     48    129    137 221.4  21.0  34192  290.13 0855.01
2009/04/23 11:57:24.2     -95   -144     51    173    181 213.6  16.6  34194  290.14 0855.01
2009/04/23 11:57:24.3     -87   -164     73    186    199 208.1  22.5  34176  289.85 0855.01
2009/04/23 11:57:24.4     -31   -133     91    137    164 193.4  36.7  34186  290.01 0855.01
2009/04/23 11:57:24.5      73   -114     96    136    166 147.5  38.8  34190  290.08 0855.01
2009/04/23 11:57:24.6      41   -124     85    131    156 161.7  35.6  34182  289.94 0855.01
2009/04/23 11:57:24.7      36   -146     90    151    175 166.2  34.0  34178  289.87 0855.01
2009/04/23 11:57:24.8      70   -123     95    142    170 150.1  36.7  34176  289.84 0855.01
2009/04/23 11:57:24.9      19   -213    129    215    250 174.7  34.2  34164  289.63 0855.01
2009/04/23 11:57:25.0      58   -154    112    165    199 159.3  37.6  34168  289.70 0855.01
2009/04/23 11:57:25.1      90   -179    134    201    241 153.3  36.5  34164  289.63 0855.01
2009/04/23 11:57:25.2      71   -158    122    174    212 155.7  38.4  34164  289.63 0855.01
2009/04/23 11:57:25.3       0   -180    115    181    214 180.0  35.5  34158  289.55 0855.01
2009/04/23 11:57:25.4     -16   -210     57    211    219 184.5  15.3  34158  289.53 0855.01
2009/04/23 11:57:25.5      32   -221    104    224    246 171.8  26.6  34158  289.54 0855.01
2009/04/23 11:57:25.6      21   -206    107    208    233 174.2  29.3  34158  289.53 0855.01
2009/04/23 11:57:25.7      14   -165     74    166    181 175.1  25.7  34162  289.62 0855.01
2009/04/23 11:57:25.8     109   -170     61    203    213 147.4  16.8  34170  289.75 0855.01
2009/04/23 11:57:25.9      49   -142     15    151    152 160.8   5.9  34170  289.75 0855.01
2009/04/23 11:57:26.0      38   -120      6    127    128 162.2   2.8  34162  289.60 0855.01
2009/04/23 11:57:26.1      18   -102      0    104    105 169.8  -0.3  34162  289.62 0855.01
2009/04/23 11:57:26.2      -7    -98     17     99    101 184.5  10.1  34164  289.63 0855.01
2009/04/23 11:57:26.3     -40   -119     -2    126    127 198.7  -1.3  34162  289.62 0855.01
2009/04/23 11:57:26.4     -31   -125      5    129    130 194.3   2.3  34164  289.63 0855.01
2009/04/23 11:57:26.5     -24   -131     25    134    137 190.7  10.6  34162  289.62 0855.01
2009/04/23 11:57:26.6     -48   -133     61    142    154 200.0  25.1  34162  289.62 0855.01
2009/04/23 11:57:26.7     -66   -119     58    137    148 209.0  24.1  34164  289.65 0855.01
2009/04/23 11:57:26.8     -58   -122     35    136    141 205.3  14.7  34162  289.62 0855.01
2009/04/23 11:57:26.9     -42   -142     26    149    152 196.5  10.1  34162  289.60 0855.01
2009/04/23 11:57:27.0     -41   -160     15    166    167 194.5   5.4  34158  289.53 0855.01
2009/04/23 11:57:27.1     -69   -148      4    164    165 204.9   1.6  34156  289.50 0855.01
2009/04/23 11:57:27.2     -58   -176     -5    186    187 198.5  -1.8  34158  289.53 0855.01
2009/04/23 11:57:27.3     -25   -208     48    210    216 186.9  12.9  34160  289.57 0855.01
2009/04/23 11:57:27.4     -18   -184     39    185    190 185.8  12.0  34156  289.52 0855.01
2009/04/23 11:57:27.5     -31   -237     22    240    242 187.6   5.4  34160  289.58 0855.01
2009/04/23 11:57:27.6    -111   -245      8    270    271 204.5   1.7  34156  289.49 0855.01
2009/04/23 11:57:27.7    -150   -235    -27    280    282 212.6  -5.6  34154  289.47 0855.02
2009/04/23 11:57:27.8    -167   -141    -44    219    224 229.8 -11.3  34156  289.52 0855.02
2009/04/23 11:57:27.9    -143   -123     -3    189    190 229.3  -1.1  34158  289.55 0855.02
2009/04/23 11:57:28.0    -141   -127     40    190    195 228.0  12.0  34156  289.52 0855.02
2009/04/23 11:57:28.1    -100   -144     79    176    192 215.0  25.9  34162  289.60 0855.02
2009/04/23 11:57:28.2     -56   -201     71    209    221 195.6  18.9  34158  289.55 0855.02
2009/04/23 11:57:28.3     -94   -200     54    222    229 205.3  13.7  34162  289.62 0855.02
2009/04/23 11:57:28.4     -93   -214     50    234    240 203.6  12.2  34160  289.56 0855.02
2009/04/23 11:57:28.5     -79   -238      3    252    253 198.5   0.8  34158  289.53 0855.02
2009/04/23 11:57:28.6    -128   -177     -2    219    220 215.8  -0.7  34160  289.57 0855.02
2009/04/23 11:57:28.7    -145    -87      4    170    171 238.9   1.6  34168  289.72 0855.02
2009/04/23 11:57:28.8    -112    -39     -3    119    120 250.5  -1.8  34160  289.58 0855.02
2009/04/23 11:57:28.9     -76    -33     82     83    116 246.5  50.5  34164  289.63 0855.02
2009/04/23 11:57:29.0     -27    -28     88     40     96 224.1  74.0  34178  289.87 0855.02
2009/04/23 11:57:29.1     -40    -40     63     57     84 225.0  52.7  34178  289.87 0855.02
2009/04/23 11:57:29.2     -97   -119     94    154    180 219.2  34.4  34176  289.85 0855.02
2009/04/23 11:57:29.3     -52   -140     18    150    152 200.5   6.9  34170  289.74 0855.02
2009/04/23 11:57:29.4     -44   -160     36    167    171 195.4  12.2  34162  289.62 0855.02
2009/04/23 11:57:29.5      -8   -163     65    164    176 182.9  22.8  34156  289.52 0855.02
2009/04/23 11:57:29.6      15   -203     76    204    217 175.6  21.3  34160  289.57 0855.02
2009/04/23 11:57:29.7      -2   -141     98    142    172 180.9  37.8  34158  289.55 0855.03
2009/04/23 11:57:29.8      14   -132    198    133    238 173.8  62.8  34164  289.63 0855.03
2009/04/23 11:57:29.9      -4   -310     17    311    312 180.9   3.1  34150  289.39 0855.03
2009/04/23 11:57:30.0      32   -376    -12    378    379 175.0  -1.9  34148  289.38 0855.03
2009/04/23 11:57:30.1       2   -376     11    377    378 179.7   1.7  34152  289.42 0855.03
2009/04/23 11:57:30.2     -89   -392     98    403    415 192.9  13.8  34156  289.49 0855.03
2009/04/23 11:57:30.3     104   -348    158    364    396 163.3  25.0  34146  289.33 0855.03
2009/04/23 11:57:30.4     214   -336    136    399    422 147.5  18.8  34152  289.44 0855.03
2009/04/23 11:57:30.5      94   -347    -37    360    362 164.8  -6.0  34150  289.40 0855.03
2009/04/23 11:57:30.6      66   -352     21    359    360 169.3   3.5  34158  289.54 0855.03
2009/04/23 11:57:30.7     100   -370    -15    384    385 164.8  -2.2  34152  289.45 0855.03
2009/04/23 11:57:30.8      61   -303     15    310    311 168.5   2.9  34164  289.63 0855.03
2009/04/23 11:57:30.9       0   -259     25    260    262 180.0   5.7  34160  289.58 0855.03
2009/04/23 11:57:31.0      18   -240     46    241    246 175.6  11.0  34162  289.59 0855.03
2009/04/23 11:57:31.1      46   -253     90    258    274 169.5  19.2  34164  289.64 0855.03
2009/04/23 11:57:31.2     -32   -240     55    243    250 187.8  12.9  34166  289.68 0855.03
2009/04/23 11:57:31.3     -21   -277    100    278    295 184.5  20.9  34162  289.59 0855.03
2009/04/23 11:57:31.4      -6   -334     25    335    336 181.1   4.3  34152  289.45 0855.03
2009/04/23 11:57:31.5     -19   -259     37    260    263 184.2   8.2  34158  289.53 0855.03
2009/04/23 11:57:31.6     -14   -301     15    302    303 182.7   2.9  34154  289.47 0855.03
2009/04/23 11:57:31.7     -13   -210    116    211    240 183.8  31.3  34156  289.50 0855.04
2009/04/23 11:57:31.8       3   -209    134    210    249 179.0  35.6  34154  289.46 0855.04
2009/04/23 11:57:31.9     -41   -225     82    229    243 190.5  20.2  34156  289.49 0855.04
2009/04/23 11:57:32.0     -32   -212    -21    215    217 188.7  -5.6  34150  289.41 0855.04
2009/04/23 11:57:32.1     -48   -202    -26    208    210 193.6  -7.3  34152  289.43 0855.04
2009/04/23 11:57:32.2     -55   -171    -63    180    190 197.8 -23.8  34150  289.40 0855.04
2009/04/23 11:57:32.3      14   -193    -29    194    197 175.6  -8.6  34152  289.45 0855.04
2009/04/23 11:57:32.4      -8   -181      6    182    183 182.7   2.1  34158  289.53 0855.04
2009/04/23 11:57:32.5     -13   -205    -27    206    208 183.6  -7.7  34158  289.53 0855.04
2009/04/23 11:57:32.6      -9   -210    -49    211    217 182.6 -13.2  34154  289.46 0855.04
2009/04/23 11:57:32.7     -26   -181    -45    183    189 188.2 -13.9  34156  289.50 0855.03
2009/04/23 11:57:32.8     -86   -122    -56    150    160 215.2 -25.7  34154  289.48 0855.03
2009/04/23 11:57:32.9     -70   -129    -66    147    161 208.5 -30.1  34156  289.52 0855.03
2009/04/23 11:57:33.0     -82   -170   -101    190    215 205.9 -34.7  34158  289.53 0855.03
2009/04/23 11:57:33.1    -111   -210    -99    238    257 207.9 -28.2  34154  289.46 0855.03
2009/04/23 11:57:33.2     -86   -232   -121    248    275 200.5 -32.2  34152  289.42 0855.03
2009/04/23 11:57:33.3    -259    -36   -227    262    346 262.1 -49.8  34164  289.64 0855.03
2009/04/23 11:57:33.4    -255    -29   -184    257    316 263.4 -43.5  34160  289.58 0855.03
2009/04/23 11:57:33.5    -250    -55   -145    257    295 257.6 -36.3  34162  289.59 0855.03
2009/04/23 11:57:33.6    -283    -83   -172    295    341 253.6 -37.3  34150  289.41 0855.03
2009/04/23 11:57:33.7    -239   -191   -208    307    370 231.4 -41.8  34146  289.32 0855.03
2009/04/23 11:57:33.8    -253   -191   -193    318    371 232.9 -38.5  34146  289.35 0855.03
2009/04/23 11:57:33.9    -148   -157   -195    217    291 223.3 -51.3  34144  289.31 0855.03
2009/04/23 11:57:34.0    -147    -39   -171    153    229 254.9 -58.1  34152  289.45 0855.03
2009/04/23 11:57:34.1    -203     13   -201    204    286 273.9 -54.3  34158  289.53 0855.03
2009/04/23 11:57:34.2    -209    -15   -119    210    241 265.9 -36.7  34162  289.62 0855.03
2009/04/23 11:57:34.3    -178     17    -98    179    204 275.7 -35.7  34168  289.70 0855.03
2009/04/23 11:57:34.4    -232     39    -64    236    245 279.7 -15.2  34168  289.71 0855.03
2009/04/23 11:57:34.5    -226     24    -41    228    232 276.1 -10.4  34172  289.77 0855.03
2009/04/23 11:57:34.6    -274     64    -76    282    293 283.2 -15.2  34164  289.64 0855.03
2009/04/23 11:57:34.7    -304     99   -104    320    337 288.1 -18.1  34150  289.40 0855.03
2009/04/23 11:57:34.8    -253    129    -25    285    287 297.1  -5.1  34158  289.54 0855.03
2009/04/23 11:57:34.9    -193    105    -26    220    222 298.6  -6.9  34152  289.43 0855.03
2009/04/23 11:57:35.0    -202    -24     48    204    210 263.2  13.2  34152  289.45 0855.03
2009/04/23 11:57:35.1    -209     -9   -131    210    247 267.4 -39.4  34144  289.29 0855.03
2009/04/23 11:57:35.2    -245    -67    -36    254    257 254.7  -8.2  34138  289.19 0855.03
2009/04/23 11:57:35.3    -265    -73    -91    276    291 254.5 -18.3  34134  289.14 0855.03
2009/04/23 11:57:35.4    -226   -140   -179    266    320 238.2 -41.4  34138  289.19 0855.03
2009/04/23 11:57:35.5    -245    -96   -131    264    294 248.5 -32.6  34138  289.19 0855.03
2009/04/23 11:57:35.6    -207    -58   -120    215    246 254.3 -36.0  34140  289.24 0855.03
2009/04/23 11:57:35.7    -161    -21    -22    163    165 262.5  -8.0  34162  289.60 0855.03
2009/04/23 11:57:35.8    -197    -34    -55    201    209 260.1 -15.4  34140  289.23 0855.03
2009/04/23 11:57:35.9    -177    -39    -75    182    196 257.4 -28.0  34144  289.30 0855.03
2009/04/23 11:57:36.0    -158      0    -33    159    163 270.0 -11.9  34158  289.55 0855.03
2009/04/23 11:57:36.1    -157     66    -31    171    174 292.8 -10.3  34172  289.77 0855.03
2009/04/23 11:57:36.2    -154     51     38    163    168 288.6  13.2  34178  289.87 0855.03
2009/04/23 11:57:36.3    -221     72    -89    233    249 288.2 -26.4  34146  289.32 0855.03
2009/04/23 11:57:36.4    -180     -3    -64    181    191 268.7 -24.4  34154  289.48 0855.03
2009/04/23 11:57:36.5    -138    -46    -77    146    165 251.6 -34.5  34154  289.48 0855.03
2009/04/23 11:57:36.6    -119      9    -24    120    123 274.4 -11.3  34154  289.46 0855.03
2009/04/23 11:57:36.7    -133     14    -32    134    138 276.1 -13.4  34154  289.48 0855.05
2009/04/23 11:57:36.8     -98     23    -65    101    120 283.7 -40.0  34150  289.40 0855.05
2009/04/23 11:57:36.9     -29     22    -29     37     47 307.8 -47.1  34150  289.40 0855.05
2009/04/23 11:57:37.0       1      0     12      2     12  90.0  90.0  34156  289.52 0855.05
2009/04/23 11:57:37.1      52      3     44     53     68  86.5  43.8  34160  289.57 0855.05
2009/04/23 11:57:37.2      47     28     40     55     68  59.3  39.7  34160  289.57 0855.05
2009/04/23 11:57:37.3      22     62     37     67     76  20.0  31.4  34164  289.63 0855.05
2009/04/23 11:57:37.4     -35     84     23     92     95 337.3  14.3  34168  289.70 0855.05
2009/04/23 11:57:37.5     -13     91     -6     93     94 351.5  -4.1  34164  289.65 0855.05
2009/04/23 11:57:37.6     -11     74    -32     75     81 351.1 -28.5  34162  289.60 0855.05
2009/04/23 11:57:37.7     -22     79    -36     83     90 344.0 -29.5  34152  289.45 0855.05
2009/04/23 11:57:37.8      47    114    -16    124    126  22.7  -7.7  34156  289.50 0855.05
2009/04/23 11:57:37.9     103    141    -26    175    177  36.3  -8.6  34160  289.57 0855.05
2009/04/23 11:57:38.0      86    162    -50    184    191  28.1 -15.4  34154  289.46 0855.05
2009/04/23 11:57:38.2     130    157    -62    204    214  39.6 -17.0  34150  289.41 0855.05
2009/04/23 11:57:38.2     136    160    -68    211    221  40.3 -23.3  34148  289.38 0855.05
2009/04/23 11:57:38.3      73     81   -113    110    157  41.9 -55.3  34150  289.41 0855.05
2009/04/23 11:57:38.4      64      7    -92     65    112  83.0 -65.5  34148  289.38 0855.05
2009/04/23 11:57:38.5      75      5   -110     76    133  85.6 -67.0  34148  289.38 0855.05
2009/04/23 11:57:38.6      93     17   -134     95    164  79.4 -65.9  34146  289.35 0855.05
2009/04/23 11:57:38.7     144      6   -107    145    180  87.5 -44.5  34142  289.28 0855.07
2009/04/23 11:57:38.8     155     48    -81    163    182  72.7 -32.6  34142  289.28 0855.07
2009/04/23 11:57:38.9     206     32     -4    209    210  81.2  -1.2  34158  289.53 0855.07
2009/04/23 11:57:39.0     269    -25     20    271    272  95.5   4.4  34168  289.70 0855.07
2009/04/23 11:57:39.1     320    -33     64    322    329  95.9  11.3  34182  289.95 0855.07
2009/04/23 11:57:39.2     347     21    195    348    398  86.4  31.9  34194  290.16 0855.07
2009/04/23 11:57:39.3     259    -96    129    277    305 110.4  27.1  34184  289.98 0855.07
2009/04/23 11:57:39.4     310     19     88    311    324  86.5  15.9  34168  289.71 0855.07
2009/04/23 11:57:39.5     359     -7    112    360    378  91.3  17.3  34174  289.81 0855.07
2009/04/23 11:57:39.6     293    -59    106    299    318 101.5  19.6  34196  290.19 0855.07
2009/04/23 11:57:39.7     261     18      5    262    263  85.9   1.2  34162  289.59 0855.07
2009/04/23 11:57:39.8     270     -8     74    271    281  91.7  15.3  34174  289.81 0855.07
2009/04/23 11:57:39.9     192    -39    129    196    234 101.5  36.0  34204  290.31 0855.07
2009/04/23 11:57:40.0     226     -7    130    227    261  91.9  32.4  34196  290.19 0855.07
2009/04/23 11:57:40.1      19    -19    134     27    136 135.0  89.1  34208  290.38 0855.07
2009/04/23 11:57:40.2     -59   -266     80    273    285 192.5  16.4  34170  289.73 0855.07
2009/04/23 11:57:40.3     -27   -305    129    307    333 185.1  24.1  34178  289.86 0855.07
2009/04/23 11:57:40.4       2   -288    111    289    309 179.5  22.0  34204  290.31 0855.07
2009/04/23 11:57:40.5      40   -283     44    286    290 171.8   8.8  34174  289.80 0855.07
2009/04/23 11:57:40.6       4   -294     46    295    299 179.1   9.0  34162  289.61 0855.07
2009/04/23 11:57:40.7       0   -323    116    324    344 180.1  20.4  34160  289.57 0855.08
2009/04/23 11:57:40.8     -24   -310    104    312    330 184.5  18.5  34168  289.71 0855.08
2009/04/23 11:57:40.9     -15   -300    104    301    319 182.9  19.2  34166  289.68 0855.08
2009/04/23 11:57:41.0      53   -401    142    405    430 172.4  19.4  34158  289.53 0855.08
2009/04/23 11:57:41.1      54   -379    175    383    421 171.9  26.3  34156  289.51 0855.08
2009/04/23 11:57:41.3      28   -376    126    377    398 175.7  18.5  34164  289.64 0855.08
2009/04/23 11:57:41.4     -34   -351    109    353    370 185.6  17.2  34162  289.59 0855.08
2009/04/23 11:57:41.5      -5   -322    133    323    349 181.0  23.7  34158  289.54 0855.08
2009/04/23 11:57:41.6      17   -315    112    316    336 176.9  19.6  34154  289.48 0855.08
2009/04/23 11:57:41.7      13   -292    114    293    314 177.3  22.3  34154  289.46 0855.08
2009/04/23 11:57:41.8     -17   -223    164    224    277 184.4  39.7  34150  289.39 0855.08
2009/04/23 11:57:41.9     -77   -269    166    280    325 196.1  33.6  34166  289.68 0855.08
2009/04/23 11:57:42.0    -140   -301    155    332    366 204.9  27.0  34168  289.72 0855.08
2009/04/23 11:57:42.1     -89   -257     66    273    281 199.2  13.7  34170  289.73 0855.08
2009/04/23 11:57:42.2     -47   -214     51    220    226 192.5  13.1  34168  289.70 0855.08
2009/04/23 11:57:42.3    -116   -229    135    257    290 207.0  29.8  34170  289.73 0855.08
2009/04/23 11:57:42.4    -156   -176    142    236    275 221.7  33.7  34172  289.78 0855.08
2009/04/23 11:57:42.5    -281   -171    102    330    346 238.7  17.3  34174  289.81 0855.08
2009/04/23 11:57:42.6    -262   -166      9    311    312 237.6   1.7  34180  289.92 0855.08
2009/04/23 11:57:42.7    -342   -135   -120    368    388 248.4 -18.1  34228  290.71 0855.08
2009/04/23 11:57:42.8    -392    -84   -111    402    418 257.9 -15.5  34224  290.65 0855.09
2009/04/23 11:57:42.9    -328   -174   -119    372    390 242.1 -22.8  34156  289.50 0855.09
2009/04/23 11:57:43.0    -264    -96    -89    282    296 250.0 -17.6  34166  289.68 0855.09
2009/04/23 11:57:43.1    -351    -92    -64    363    369 255.2 -10.1  34194  290.15 0855.09
2009/04/23 11:57:43.2    -328     29    -93    330    342 275.2 -20.3  34212  290.45 0855.09
2009/04/23 11:57:43.3    -345     17   -123    346    368 272.9 -19.7  34212  290.47 0855.09
2009/04/23 11:57:43.4    -388     58   -139    393    416 278.5 -24.6  34216  290.53 0855.09
2009/04/23 11:57:43.5    -334    -12   -150    335    367 267.9 -30.1  34200  290.25 0855.09
2009/04/23 11:57:43.6    -381   -128   -143    403    427 251.4 -24.5  34204  290.31 0855.09
2009/04/23 11:57:43.7    -327   -161   -111    365    382 243.8 -17.0  34200  290.25 0855.09
2009/04/23 11:57:43.8    -344   -101    -43    359    362 253.6  -6.9  34192  290.13 0855.09
2009/04/23 11:57:43.9    -352   -100    -16    366    367 254.1  -2.5  34216  290.52 0855.09
2009/04/23 11:57:44.0    -402    -71    -74    409    416 260.0 -10.4  34208  290.38 0855.09
2009/04/23 11:57:44.1    -354    -98   -104    368    383 254.4 -15.8  34178  289.89 0855.09
2009/04/23 11:57:44.2    -346   -112     -3    364    365 252.1  -0.6  34178  289.87 0855.09
2009/04/23 11:57:44.3    -173   -254     56    308    314 214.2  10.3  34170  289.73 0855.09
2009/04/23 11:57:44.4    -102   -273    105    292    311 200.5  19.9  34158  289.54 0855.09
2009/04/23 11:57:44.5    -201   -231    107    307    326 221.0  19.2  34152  289.42 0855.09
2009/04/23 11:57:44.6    -145   -151    160    210    264 223.7  41.4  34156  289.51 0855.09
2009/04/23 11:57:44.7    -162    -41     72    168    182 255.6  24.3  34164  289.65 0855.09
2009/04/23 11:57:44.8     -74    -50    115     90    146 235.8  58.4  34158  289.53 0855.10
2009/04/23 11:57:44.9      -3     62    102     63    119 356.4  65.7  34166  289.69 0855.10
2009/04/23 11:57:45.0      51    101    117    114    163  26.7  50.7  34166  289.67 0855.10
2009/04/23 11:57:45.1      56     31    103     65    121  61.1  64.7  34170  289.75 0855.10
2009/04/23 11:57:45.2      84     -3     72     85    111  92.6  44.3  34166  289.67 0855.10
2009/04/23 11:57:45.3      79    -21     91     82    122 105.5  53.3  34166  289.69 0855.10
2009/04/23 11:57:45.4      28     29     88     41     97  44.1  73.5  34174  289.80 0855.10
2009/04/23 11:57:45.5      73    -46    100     87    132 122.0  54.3  34164  289.63 0855.10
2009/04/23 11:57:45.6      11   -109     63    110    126 173.8  32.4  34162  289.62 0855.10
2009/04/23 11:57:45.7     -16   -188     71    189    201 184.9  21.5  34152  289.45 0855.10
2009/04/23 11:57:45.8     -39   -176    120    181    217 192.7  36.7  34152  289.45 0855.10
2009/04/23 11:57:45.9     -56   -196    112    204    232 196.0  31.4  34156  289.50 0855.10
2009/04/23 11:57:46.0     -62   -227     82    236    250 195.4  19.2  34152  289.44 0855.10
2009/04/23 11:57:46.1     -74   -181     81    196    212 202.5  23.6  34156  289.52 0855.10
2009/04/23 11:57:46.2     -82    -84     34    118    123 224.1  16.3  34158  289.53 0855.10
2009/04/23 11:57:46.3      34    -16     63     38     73 115.3  65.7  34158  289.55 0855.10
2009/04/23 11:57:46.4      74    -55     41     93    101 126.9  25.1  34160  289.58 0855.10
2009/04/23 11:57:46.5     -26   -131    131    134    187 191.5  49.4  34158  289.53 0855.10
2009/04/23 11:57:46.6      23   -112    107    115    157 168.4  47.9  34160  289.58 0855.10
2009/04/23 11:57:46.7     -64   -210    115    220    248 197.0  29.8  34154  289.47 0855.10
2009/04/23 11:57:46.8    -137   -146    119    201    233 223.3  33.5  34156  289.50 0855.11
2009/04/23 11:57:46.9    -182   -116    161    216    269 237.5  40.4  34170  289.73 0855.11
2009/04/23 11:57:47.0    -251   -138    126    287    313 241.2  25.2  34162  289.59 0855.11
2009/04/23 11:57:47.1    -115    -74    171    138    219 237.1  56.9  34168  289.70 0855.11
2009/04/23 11:57:47.2     -72    -28    167     78    184 248.2  73.2  34186  290.01 0855.11
2009/04/23 11:57:47.3    -133      0    171    134    217 270.0  57.9  34186  290.02 0855.11
2009/04/23 11:57:47.4      17     25    154     31    157  34.3  89.4  34202  290.30 0855.11
2009/04/23 11:57:47.5      82     64    169    105    198  51.8  65.1  34212  290.47 0855.11
2009/04/23 11:57:47.6     292     50    232    297    376  80.3  41.9  34198  290.23 0855.11
2009/04/23 11:57:47.7     460    108    179    473    505  76.8  21.7  34176  289.84 0855.11
2009/04/23 11:57:47.8     440    147     86    465    473  71.5  10.6  34170  289.73 0855.11
2009/04/23 11:57:47.9     452    293    120    539    553  57.0  12.6  34184  289.97 0855.11
2009/04/23 11:57:48.0     398    330    241    518    571  50.4  26.7  34190  290.09 0855.11
2009/04/23 11:57:48.1     504    272    260    573    629  61.6  26.0  34212  290.47 0855.11
2009/04/23 11:57:48.2     573    249    230    625    665  66.5  21.1  34192  290.13 0855.11
2009/04/23 11:57:48.3     638     53    272    641    696  85.2  24.4  34180  289.90 0855.11
2009/04/23 11:57:48.4     627    110    340    637    722  80.0  30.3  34174  289.82 0855.11
2009/04/23 11:57:48.5     590    114    250    602    651  79.0  23.8  34152  289.43 0855.11
2009/04/23 11:57:48.6     471    178    199    504    541  69.2  22.9  34194  290.16 0855.11
2009/04/23 11:57:48.7     388    119    220    406    461  72.9  30.9  34186  290.02 0855.11
2009/04/23 11:57:48.8     359     96    262    372    455  75.0  38.6  34196  290.17 0855.13
2009/04/23 11:57:48.9     242    157    135    289    318  56.9  26.9  34218  290.56 0855.13
2009/04/23 11:57:49.0     101     37     85    108    137  69.6  42.2  34196  290.19 0855.13
2009/04/23 11:57:49.1      71   -127    -51    146    155 150.6 -19.4  34206  290.35 0855.13
2009/04/23 11:57:49.2     252      0     35    253    256  90.0   8.0  34204  290.32 0855.13
2009/04/23 11:57:49.3     316    130    138    342    368  67.6  23.1  34220  290.60 0855.13
2009/04/23 11:57:49.4     609    143    239    626    670  76.8  22.0  34240  290.93 0855.13
2009/04/23 11:57:49.5     637    179     50    662    664  74.3   4.4  34222  290.63 0855.13
2009/04/23 11:57:49.6     346    255    -54    430    434  53.6  -7.2  34246  291.02 0855.13
2009/04/23 11:57:49.7     326    207     59    387    392  57.6   8.7  34232  290.81 0855.13
2009/04/23 11:57:49.8     175    275    137    327    354  32.5  24.2  34230  290.76 0855.13
2009/04/23 11:57:49.9    -197   -175    254    264    366 228.4  49.0  34198  290.20 0855.13
2009/04/23 11:57:50.0     -17   -365    341    366    500 182.8  47.9  34156  289.49 0855.13
2009/04/23 11:57:50.1     -71   -327    349    335    483 192.4  51.2  34164  289.63 0855.13
2009/04/23 11:57:50.2      73   -426    303    433    528 170.3  38.5  34162  289.62 0855.13
2009/04/23 11:57:50.3      24   -408    314    409    515 176.5  41.4  34166  289.66 0855.13
2009/04/23 11:57:50.4     115   -253    154    279    318 155.5  31.4  34172  289.76 0855.13
2009/04/23 11:57:50.5     132   -235     79    270    282 150.6  16.4  34174  289.80 0855.13
2009/04/23 11:57:50.6     167   -202    -78    263    275 140.4 -16.6  34162  289.59 0855.13
2009/04/23 11:57:50.7     184   -237    -51    301    306 142.2  -9.6  34162  289.61 0855.13
2009/04/23 11:57:50.8     382     27     78    383    392  85.9  11.6  34188  290.04 0855.14
2009/04/23 11:57:50.9     535    122    104    549    559  77.1  10.8  34168  289.72 0855.14
2009/04/23 11:57:51.0     285    -31    158    287    327  96.2  31.3  34170  289.73 0855.14
2009/04/23 11:57:51.1     240      4     53    241    247  89.0  12.6  34164  289.64 0855.14
2009/04/23 11:57:51.2     230    -89    141    247    284 111.3  32.3  34168  289.70 0855.14
2009/04/23 11:57:51.3     231    -94    184    250    310 112.2  39.7  34168  289.71 0855.14
2009/04/23 11:57:51.4     219   -127    191    254    317 120.2  40.7  34166  289.68 0855.14
2009/04/23 11:57:51.5     274   -174    155    325    360 122.5  27.3  34158  289.55 0855.14
2009/04/23 11:57:51.6     200   -192    148    278    314 133.8  30.3  34160  289.58 0855.14
2009/04/23 11:57:51.7     124   -221    129    254    284 150.6  29.1  34162  289.61 0855.14
2009/04/23 11:57:51.8     -14   -315    175    316    361 182.7  31.4  34160  289.57 0855.14
2009/04/23 11:57:51.9     -60   -274    156    281    321 192.5  31.6  34164  289.63 0855.14
2009/04/23 11:57:52.0       3   -193    164    194    254 179.1  44.5  34164  289.63 0855.14
2009/04/23 11:57:52.1      43   -279    192    283    341 171.1  37.3  34168  289.70 0855.14
2009/04/23 11:57:52.2       0   -426    159    427    455 180.0  21.3  34158  289.55 0855.14
2009/04/23 11:57:52.3     -33   -443    178    445    479 184.4  23.0  34162  289.59 0855.14
2009/04/23 11:57:52.4     -47   -415    167    418    450 186.6  23.0  34162  289.61 0855.14
2009/04/23 11:57:52.5     -26   -334    185    336    383 184.5  31.3  34152  289.42 0855.14
2009/04/23 11:57:52.6      66   -473    180    478    510 172.0  21.6  34156  289.52 0855.14
2009/04/23 11:57:52.7    -109   -583    126    593    607 190.6  12.0  34156  289.51 0855.14
2009/04/23 11:57:52.8     -77   -468    172    475    506 189.4  19.9  34160  289.57 0855.13
2009/04/23 11:57:52.9     -25   -429    117    430    446 183.4  15.3  34162  289.60 0855.13
2009/04/23 11:57:53.0      25   -424    222    425    479 176.5  29.8  34162  289.61 0855.13
2009/04/23 11:57:53.1      50   -485    244    488    545 174.0  28.7  34160  289.57 0855.13
2009/04/23 11:57:53.2     104   -471    151    483    507 167.5  17.4  34160  289.56 0855.13
2009/04/23 11:57:53.3      14   -379    130    380    402 177.8  18.9  34158  289.55 0855.13
2009/04/23 11:57:53.4     135   -499    205    517    556 164.9  22.9  34162  289.60 0855.13
2009/04/23 11:57:53.5     223   -409    136    466    486 151.4  16.3  34164  289.64 0855.13
2009/04/23 11:57:53.6     140   -516     95    535    544 164.8  10.1  34160  289.58 0855.13
2009/04/23 11:57:53.7     113   -358    113    376    393 162.5  16.8  34164  289.65 0855.13
2009/04/23 11:57:53.8     127   -269      3    298    299 154.6   0.7  34172  289.78 0855.12
2009/04/23 11:57:53.9     -73   -254    146    265    302 196.0  31.4  34162  289.59 0855.12
2009/04/23 11:57:54.0    -118   -313     94    335    349 200.7  15.8  34158  289.54 0855.12
2009/04/23 11:57:54.1      -6   -398    -28    399    400 180.9  -4.1  34154  289.48 0855.12
2009/04/23 11:57:54.2      14   -350    -65    351    357 177.7 -10.5  34156  289.52 0855.12
2009/04/23 11:57:54.3     -45   -412    -38    415    417 186.3  -5.3  34160  289.58 0855.12
2009/04/23 11:57:54.4     -32   -519   -143    521    541 183.6 -15.4  34154  289.48 0855.12
2009/04/23 11:57:54.5     -23   -433   -123    434    452 183.1 -15.8  34148  289.38 0855.12
2009/04/23 11:57:54.6     104   -374   -137    389    413 164.4 -19.5  34152  289.44 0855.12
2009/04/23 11:57:54.7      20   -262    -78    263    275 175.5 -16.6  34158  289.53 0855.12
2009/04/23 11:57:54.8      64   -141   -169    155    229 155.5 -56.9  34156  289.50 0855.12
2009/04/23 11:57:54.9     -86    -78     76    117    139 227.8  35.6  34158  289.53 0855.12
2009/04/23 11:57:55.0     133     -9     46    134    142  94.3  18.9  34158  289.53 0855.12
2009/04/23 11:57:55.1     204   -158    -37    259    262 127.7  -8.2  34160  289.58 0855.12
2009/04/23 11:57:55.2     141   -313    -97    344    357 155.8 -20.4  34156  289.52 0855.12
2009/04/23 11:57:55.3       6   -392    -35    393    395 179.0  -5.2  34156  289.52 0855.12
2009/04/23 11:57:55.4     -22   -291     26    292    294 184.4   5.2  34156  289.49 0855.12
2009/04/23 11:57:55.5      85   -256    -62    270    278 161.5 -12.9  34154  289.47 0855.12
2009/04/23 11:57:55.6     128   -260     -1    291    292 153.7  -0.3  34158  289.54 0855.12
2009/04/23 11:57:55.7      76   -229    -56    242    249 161.5 -13.2  34158  289.54 0855.12
2009/04/23 11:57:55.8     -40   -289     10    292    293 188.0   2.1  34156  289.51 0855.13
2009/04/23 11:57:55.9     -33   -305    -96    307    322 186.2 -17.5  34156  289.49 0855.13
2009/04/23 11:57:56.0      -3   -272     87    273    287 180.7  17.7  34158  289.53 0855.13
2009/04/23 11:57:56.1     131   -275    132    305    332 154.5  24.9  34148  289.37 0855.13
2009/04/23 11:57:56.2     200   -208    150    289    325 136.1  29.5  34154  289.46 0855.13
2009/04/23 11:57:56.3     185   -146    186    236    300 128.2  42.4  34158  289.54 0855.13
2009/04/23 11:57:56.4     266    -54    297    272    402 101.5  53.0  34164  289.65 0855.13
2009/04/23 11:57:56.5     188   -134    145    231    272 125.5  35.5  34160  289.56 0855.13
2009/04/23 11:57:56.6     137   -268    197    302    360 152.9  36.2  34156  289.50 0855.13
2009/04/23 11:57:56.7      41   -268    288    272    396 171.3  52.0  34152  289.43 0855.13
2009/04/23 11:57:56.8       0   -203    238    204    313 180.2  55.0  34158  289.53 0855.13
2009/04/23 11:57:56.9      19   -140    179    142    228 172.0  57.5  34158  289.53 0855.13
2009/04/23 11:57:57.0     176   -171    152    246    289 134.2  34.8  34160  289.56 0855.13
2009/04/23 11:57:57.1     218   -183     21    285    286 130.0   4.2  34160  289.56 0855.13
2009/04/23 11:57:57.2     142   -211     87    255    270 145.9  18.9  34158  289.53 0855.13
2009/04/23 11:57:57.3      16   -149    134    150    201 173.8  46.4  34158  289.55 0855.13
2009/04/23 11:57:57.4     -75   -187    165    202    260 201.8  43.7  34162  289.61 0855.13
2009/04/23 11:57:57.5     -46   -227    140    232    270 191.6  34.4  34156  289.51 0855.13
2009/04/23 11:57:57.6     -99   -274    176    292    340 200.0  34.1  34158  289.54 0855.13
2009/04/23 11:57:57.7      57    -47    141     74    159 129.5  70.4  34164  289.65 0855.13
2009/04/23 11:57:57.8      -7     24    132     26    134 343.1  89.1  34166  289.69 0855.14
2009/04/23 11:57:57.9      -1    -76    175     77    191 180.9  74.8  34166  289.67 0855.14
2009/04/23 11:57:58.0     -64      8    104     65    122 277.9  65.1  34172  289.77 0855.14
2009/04/23 11:57:58.1     -48     -1     48     49     68 268.3  51.1  34164  289.63 0855.14
2009/04/23 11:57:58.2      66    -49     57     83    100 126.9  38.0  34162  289.62 0855.14
2009/04/23 11:57:58.3      42   -199    106    204    229 168.0  29.5  34158  289.53 0855.14
2009/04/23 11:57:58.4       3   -190    104    191    217 178.9  31.3  34158  289.55 0855.14
2009/04/23 11:57:58.5      10   -171     74    172    187 176.6  24.9  34158  289.53 0855.14
2009/04/23 11:57:58.6     -46   -222    110    227    252 191.8  27.4  34158  289.54 0855.14
2009/04/23 11:57:58.7    -129   -219     -4    255    256 210.5  -1.1  34160  289.58 0855.14
2009/04/23 11:57:58.8    -164    -53    -77    173    189 251.8 -30.3  34160  289.57 0855.14
2009/04/23 11:57:58.9    -162   -152    122    223    254 226.9  31.3  34154  289.47 0855.14
2009/04/23 11:57:59.0    -271    -25    124    273    299 264.5  26.2  34158  289.53 0855.14
2009/04/23 11:57:59.1    -257   -105     39    278    281 247.8   8.0  34168  289.70 0855.14
2009/04/23 11:57:59.2    -180   -110    -88    212    229 238.5 -28.2  34166  289.69 0855.14
2009/04/23 11:57:59.3    -134    -15   -150    135    201 263.4 -57.9  34158  289.53 0855.14
2009/04/23 11:57:59.4    -158     31    -98    162    189 281.4 -38.6  34156  289.52 0855.14
2009/04/23 11:57:59.5    -215     97    -65    237    246 294.4 -15.5  34168  289.70 0855.14
2009/04/23 11:57:59.6     -98    132    -33    165    169 323.5 -11.3  34180  289.91 0855.14
2009/04/23 11:57:59.7     -59     72     17     94     96 320.8  10.6  34174  289.82 0855.14
2009/04/23 11:57:59.8     -61     -5      9     62     63 264.8   9.0  34174  289.82 0855.16
2009/04/23 11:57:59.9     -22    -56     32     61     68 201.9  29.3  34174  289.82 0855.16
2009/04/23 11:58:00.0      23     11    125     26    127  62.9  89.0  34174  289.82 0855.16
2009/04/23 11:58:00.1     -46    -83     26     95     99 209.0  15.8  34172  289.77 0855.16
2009/04/23 11:58:00.2     -61    -92     -6    111    112 213.4  -3.1  34166  289.69 0855.16
2009/04/23 11:58:00.3    -103   -110    -12    151    152 223.2  -4.6  34166  289.67 0855.16
2009/04/23 11:58:00.4    -170   -108    -19    202    203 237.6  -5.6  34162  289.62 0855.16
2009/04/23 11:58:00.5    -190    -64     39    201    205 251.4  11.1  34170  289.75 0855.16
2009/04/23 11:58:00.6    -209    -83    137    225    263 248.3  34.4  34178  289.86 0855.16
2009/04/23 11:58:00.7     -29   -115     85    119    146 194.3  39.5  34176  289.85 0855.16
2009/04/23 11:58:00.8     -43    -21     87     49     99 243.8  68.3  34178  289.89 0855.16
2009/04/23 11:58:00.9     -24   -141    118    144    186 189.8  43.7  34166  289.67 0855.16
2009/04/23 11:58:01.0     -51   -111    129    123    178 204.5  51.4  34172  289.79 0855.16
2009/04/23 11:58:01.1     -93     -7     45     94    104 265.6  27.3  34172  289.77 0855.16
2009/04/23 11:58:01.2     -56    -39     60     69     91 234.9  45.4  34176  289.84 0855.16
2009/04/23 11:58:01.3    -127    -69    -78    145    164 241.2 -35.0  34172  289.79 0855.16
2009/04/23 11:58:01.4    -153   -159    -40    221    225 223.9 -10.3  34164  289.63 0855.16
2009/04/23 11:58:01.5    -110   -112     74    158    174 224.5  27.1  34170  289.74 0855.16
2009/04/23 11:58:01.6     -49   -104      8    116    117 205.3   4.4  34174  289.80 0855.16
2009/04/23 11:58:01.7     -25   -242      7    244    245 186.0   1.8  34166  289.66 0855.16
2009/04/23 11:58:01.8     100   -310     24    326    327 162.1   4.3  34166  289.66 0855.18
2009/04/23 11:58:01.9     111   -252     -2    276    277 156.2  -0.5  34166  289.66 0855.18
2009/04/23 11:58:02.0      27   -377    106    378    393 175.8  15.8  34156  289.50 0855.18
2009/04/23 11:58:02.1     -69   -356    127    363    385 191.0  19.3  34162  289.60 0855.18
2009/04/23 11:58:02.2     -60   -433     17    438    439 188.0   2.2  34164  289.65 0855.18
2009/04/23 11:58:02.3     -72   -422     76    429    436 189.8  10.1  34162  289.60 0855.18
2009/04/23 11:58:02.4     -70   -485    178    491    523 188.2  19.9  34156  289.50 0855.18
2009/04/23 11:58:02.5      79   -433    177    441    475 169.7  23.1  34158  289.55 0855.18
2009/04/23 11:58:02.6     116   -364    253    382    458 162.3  36.5  34156  289.51 0855.18
2009/04/23 11:58:02.7     328   -479    217    581    620 145.6  21.5  34160  289.56 0855.18
2009/04/23 11:58:02.8     386   -423    146    573    592 137.6  14.3  34160  289.56 0855.18
2009/04/23 11:58:02.9     361   -344     39    499    501 133.6   4.5  34156  289.52 0855.18
2009/04/23 11:58:03.0     120   -371    119    390    408 162.1  17.1  34158  289.55 0855.18
2009/04/23 11:58:03.1      43   -361     -8    364    365 173.2  -1.3  34160  289.57 0855.18
2009/04/23 11:58:03.2      67   -429    105    435    448 171.1  13.6  34160  289.58 0855.18
2009/04/23 11:58:03.3     141   -396    133    421    442 160.3  17.5  34162  289.61 0855.18
2009/04/23 11:58:03.4      85   -365    134    375    398 166.8  20.4  34164  289.65 0855.18
2009/04/23 11:58:03.5      46   -412    119    415    432 173.5  16.0  34166  289.66 0855.18
2009/04/23 11:58:03.6     -21   -448    147    449    473 182.8  18.2  34166  289.69 0855.18
2009/04/23 11:58:03.7     -36   -451     75    453    460 184.6   9.4  34170  289.73 0855.18
2009/04/23 11:58:03.8    -145   -454     57    477    481 197.8   6.9  34170  289.74 0855.14
2009/04/23 11:58:03.9    -273   -512    -22    581    582 208.1  -2.2  34170  289.73 0855.14
2009/04/23 11:58:04.0    -261   -430     52    504    507 211.3   5.9  34172  289.78 0855.14
2009/04/23 11:58:04.1    -163   -312     37    353    356 207.7   6.1  34172  289.76 0855.14
2009/04/23 11:58:04.2    -162   -311     19    351    352 207.5   3.2  34178  289.87 0855.14
2009/04/23 11:58:04.3    -148   -387    -84    415    424 201.0 -11.5  34172  289.77 0855.14
2009/04/23 11:58:04.4    -195   -400   -145    446    470 206.0 -18.1  34152  289.43 0855.14
2009/04/23 11:58:04.5    -187   -431   -132    471    490 203.5 -15.7  34162  289.62 0855.14
2009/04/23 11:58:04.6    -173   -353    -50    394    398 206.2  -7.3  34166  289.67 0855.14
2009/04/23 11:58:04.7     -75   -307     -1    317    318 193.8  -0.2  34164  289.64 0855.14
2009/04/23 11:58:04.8    -293   -388     19    487    488 217.1   2.3  34178  289.88 0855.14
2009/04/23 11:58:04.9    -208   -325    -62    387    393 212.6  -9.1  34176  289.84 0855.14
2009/04/23 11:58:05.0    -196   -299     -5    358    359 213.2  -0.9  34178  289.87 0855.14
2009/04/23 11:58:05.1     -65   -316     37    323    326 191.8   6.6  34164  289.63 0855.14
2009/04/23 11:58:05.2    -104   -287     38    306    309 200.0   7.1  34162  289.59 0855.14
2009/04/23 11:58:05.3     -91   -240     37    257    260 200.9   8.2  34160  289.56 0855.14
2009/04/23 11:58:05.4    -207   -234      3    313    314 221.4   0.7  34172  289.76 0855.14
2009/04/23 11:58:05.5    -186   -198     28    272    274 223.2   6.0  34172  289.78 0855.14
2009/04/23 11:58:05.6    -167   -167     -9    237    238 225.0  -2.2  34172  289.78 0855.14
2009/04/23 11:58:05.7    -120   -129    -45    177    183 222.8 -14.5  34156  289.50 0855.14
2009/04/23 11:58:05.8     -63   -144    -12    158    159 203.7  -4.6  34154  289.48 0855.09
2009/04/23 11:58:05.9     -82   -169     11    188    189 205.9   3.6  34164  289.65 0855.09
2009/04/23 11:58:06.0    -194   -185    -80    269    281 226.4 -16.6  34148  289.37 0855.09
2009/04/23 11:58:06.1    -183   -184    -71    260    270 224.9 -15.4  34158  289.53 0855.09
2009/04/23 11:58:06.2    -203   -171    -84    266    278 229.8 -22.8  34150  289.41 0855.09
2009/04/23 11:58:06.3    -149   -238   -159    281    322 212.1 -36.4  34154  289.47 0855.09
2009/04/23 11:58:06.4     -23   -250    -76    252    263 185.4 -21.8  34154  289.46 0855.09
2009/04/23 11:58:06.5     -88   -231     21    248    249 200.9   5.0  34152  289.44 0855.09
2009/04/23 11:58:06.6     -52   -281     14    286    287 190.5   2.9  34152  289.44 0855.09
2009/04/23 11:58:06.7    -139   -226    -58    266    273 211.6 -12.4  34158  289.54 0855.09
2009/04/23 11:58:06.8    -125   -317     -9    342    343 201.6  -1.6  34160  289.57 0855.09
2009/04/23 11:58:06.9     -41   -342    -49    345    349 187.0  -8.1  34164  289.64 0855.09
2009/04/23 11:58:07.0    -152   -209    -48    259    264 216.1 -10.5  34166  289.68 0855.09
2009/04/23 11:58:07.1     -33   -267    -54    270    276 187.1 -11.5  34164  289.63 0855.09
2009/04/23 11:58:07.2     -22   -238    -56    240    247 185.4 -13.2  34160  289.58 0855.09
2009/04/23 11:58:07.3     -62   -276    -56    283    289 192.7 -11.3  34162  289.59 0855.09
2009/04/23 11:58:07.4     -33   -323   -117    325    346 185.9 -19.8  34162  289.62 0855.09
2009/04/23 11:58:07.5     -62   -284    -99    291    307 192.5 -23.3  34166  289.68 0855.09
2009/04/23 11:58:07.6     -50   -238    -11    244    245 192.0  -2.8  34168  289.71 0855.09
2009/04/23 11:58:07.7     127   -289     64    316    323 156.2  11.6  34158  289.54 0855.09
2009/04/23 11:58:07.8     118   -259     83    285    297 155.5  16.3  34154  289.46 0855.10
2009/04/23 11:58:07.9      42   -258     45    262    266 170.7   9.9  34158  289.54 0855.10
2009/04/23 11:58:08.0      61   -287     57    294    300 168.0  11.0  34158  289.53 0855.10
2009/04/23 11:58:08.1      23   -330    124    331    353 176.0  21.5  34162  289.59 0855.10
2009/04/23 11:58:08.2      18   -336    115    337    357 176.9  18.8  34156  289.52 0855.10
2009/04/23 11:58:08.3     -35   -324    144    326    356 186.3  25.2  34164  289.64 0855.10
2009/04/23 11:58:08.4      62   -388    118    394    412 170.9  16.7  34158  289.53 0855.10
2009/04/23 11:58:08.5      95   -331    182    345    390 164.0  30.2  34152  289.43 0855.10
2009/04/23 11:58:08.6     111   -332    262    351    438 161.4  40.6  34156  289.49 0855.10
2009/04/23 11:58:08.7     160   -340    213    376    432 154.8  32.0  34156  289.49 0855.10
2009/04/23 11:58:08.8     163   -340    229    378    441 154.4  34.0  34150  289.41 0855.10
2009/04/23 11:58:08.9      12   -263    249    264    362 177.3  48.0  34158  289.55 0855.10
2009/04/23 11:58:09.1     -34   -310    239    312    393 186.3  41.4  34156  289.52 0855.10
2009/04/23 11:58:09.2       0   -327    227    328    398 180.1  37.9  34152  289.43 0855.10
2009/04/23 11:58:09.3    -104   -332    216    348    409 197.4  35.0  34156  289.52 0855.10
2009/04/23 11:58:09.4     -76   -326    274    335    432 193.2  43.6  34150  289.41 0855.10
2009/04/23 11:58:09.5     -60   -179    159    190    247 198.7  44.1  34150  289.40 0855.10
2009/04/23 11:58:09.6      85     40      5     94     95  64.8   3.3  34156  289.50 0855.10
2009/04/23 11:58:09.7       1     71    -45     72     84   1.0 -39.9  34154  289.48 0855.10
2009/04/23 11:58:09.8     -63    -62   -158     89    181 225.1 -72.9  34156  289.52 0855.10
2009/04/23 11:58:09.9     146      0    -40    147    153  90.0 -15.5  34158  289.53 0855.09
2009/04/23 11:58:10.0      84     53     74    100    124  57.6  40.1  34156  289.50 0855.09
2009/04/23 11:58:10.1      25    157     35    160    164   9.3  12.6  34158  289.53 0855.09
2009/04/23 11:58:10.2     129     74     29    149    152  60.2  11.1  34154  289.48 0855.09
2009/04/23 11:58:10.3      48    180     22    187    189  15.1   6.7  34156  289.50 0855.09
2009/04/23 11:58:10.4     -51    174     53    182    190 343.7  16.3  34152  289.45 0855.09
2009/04/23 11:58:10.5     -58    175     91    185    206 341.7  28.0  34158  289.55 0855.09
2009/04/23 11:58:10.6    -105     67     69    125    142 302.5  31.4  34160  289.57 0855.09
2009/04/23 11:58:10.7    -215      8    -16    216    217 272.4  -4.4  34172  289.77 0855.09
2009/04/23 11:58:10.8    -350    163    -57    387    392 295.0  -8.4  34176  289.84 0855.09
2009/04/23 11:58:10.9    -300    120    -88    324    336 291.9 -15.2  34172  289.76 0855.09
2009/04/23 11:58:11.0    -260    -69    -50    270    275 255.0 -10.5  34172  289.76 0855.09
2009/04/23 11:58:11.1    -397      0    138    398    422 270.0  19.2  34162  289.60 0855.09
2009/04/23 11:58:11.2    -380    -52   -123    384    403 262.2 -22.9  34162  289.62 0855.09
2009/04/23 11:58:11.3    -410   -135     34    432    434 251.7   4.6  34174  289.80 0855.09
2009/04/23 11:58:11.4    -296   -147    -77    331    340 243.6 -13.1  34172  289.77 0855.09
2009/04/23 11:58:11.5    -136   -177     10    224    225 217.4   2.8  34174  289.80 0855.09
2009/04/23 11:58:11.6     -26   -132    -35    135    140 191.5 -14.5  34170  289.74 0855.09
2009/04/23 11:58:11.7    -102   -101    -51    144    153 225.2 -19.7  34166  289.67 0855.09
2009/04/23 11:58:11.8    -109    -29    -32    113    117 255.0 -20.7  34162  289.60 0855.09
2009/04/23 11:58:11.9    -223    103   -106    246    267 294.8 -29.3  34162  289.61 0855.09
2009/04/23 11:58:12.0    -175    197   -147    264    302 318.5 -35.8  34160  289.56 0855.09
2009/04/23 11:58:12.1    -164    348    -11    385    386 334.7  -1.7  34164  289.65 0855.09
2009/04/23 11:58:12.2    -310    224   -138    383    408 305.9 -19.8  34168  289.72 0855.09
2009/04/23 11:58:12.3    -261    171    -57    313    319 303.3 -10.4  34172  289.78 0855.09
2009/04/23 11:58:12.4    -215    143    -90    259    274 303.7 -24.3  34172  289.78 0855.09
2009/04/23 11:58:12.5    -203     66   -120    214    245 288.2 -36.0  34182  289.93 0855.09
2009/04/23 11:58:12.6    -192     79   -172    208    269 292.6 -48.2  34178  289.86 0855.09
2009/04/23 11:58:12.7    -179     13   -196    180    266 274.3 -57.1  34178  289.88 0855.09
2009/04/23 11:58:12.8    -196     52   -168    203    263 285.1 -48.1  34180  289.92 0855.09
2009/04/23 11:58:12.9    -144    101   -175    177    248 305.1 -54.4  34176  289.84 0855.09
2009/04/23 11:58:13.0    -229    131   -152    264    304 299.8 -36.8  34178  289.88 0855.09
2009/04/23 11:58:13.1    -371    -50   -180    375    415 262.3 -31.7  34176  289.85 0855.09
2009/04/23 11:58:13.2    -356    -80   -175    366    405 257.2 -31.7  34172  289.76 0855.09
2009/04/23 11:58:13.3    -358      7   -182    359    402 271.3 -33.3  34168  289.71 0855.09
2009/04/23 11:58:13.4    -119    -30   -175    123    213 255.8 -66.2  34176  289.84 0855.09
2009/04/23 11:58:13.5    -196     63   -195    206    283 287.9 -52.6  34166  289.66 0855.09
2009/04/23 11:58:13.6    -110     66   -108    129    168 301.1 -48.7  34164  289.65 0855.09
2009/04/23 11:58:13.7     172    -95   -166    197    257 118.9 -48.9  34170  289.75 0855.09
2009/04/23 11:58:13.8     177   -261   -196    316    371 145.7 -39.3  34182  289.94 0855.09
2009/04/23 11:58:13.9      96   -422   -262    433    506 167.1 -38.4  34176  289.84 0855.09
2009/04/23 11:58:14.0      59   -455   -305    459    551 172.6 -41.1  34180  289.90 0855.09
2009/04/23 11:58:14.1      71   -414   -143    421    444 170.2 -23.8  34176  289.83 0855.09
2009/04/23 11:58:14.2     107   -354   -145    371    398 163.1 -26.8  34180  289.91 0855.09
2009/04/23 11:58:14.3     170   -301     -1    346    347 150.5  -0.2  34172  289.76 0855.09
2009/04/23 11:58:14.4     350   -157     25    384    385 114.2   3.7  34168  289.71 0855.09
2009/04/23 11:58:14.5     389   -187    -33    432    434 115.7  -4.5  34170  289.73 0855.09
2009/04/23 11:58:14.6     322   -160     -5    360    361 116.5  -0.9  34162  289.59 0855.09
2009/04/23 11:58:14.7     294    -49    104    299    317  99.6  19.2  34156  289.51 0855.09
2009/04/23 11:58:14.8     202   -236     11    311    312 139.4   2.1  34168  289.70 0855.09
2009/04/23 11:58:14.9      64   -211    -10    221    222 163.1  -2.6  34158  289.55 0855.09
2009/04/23 11:58:15.0     -50   -281    -55    286    292 190.2 -10.9  34162  289.59 0855.09
2009/04/23 11:58:15.1     -19   -433    123    434    452 182.6  15.9  34154  289.46 0855.09
2009/04/23 11:58:15.2      61   -431     22    436    437 171.9   2.9  34152  289.43 0855.09
2009/04/23 11:58:15.3      73   -415    108    422    436 170.0  14.4  34154  289.46 0855.09
2009/04/23 11:58:15.4      85   -390    188    400    441 167.7  27.1  34156  289.49 0855.09
2009/04/23 11:58:15.5     103   -504    121    515    530 168.4  13.3  34160  289.58 0855.09
2009/04/23 11:58:15.6      59   -379    149    384    411 171.1  22.4  34158  289.55 0855.09
2009/04/23 11:58:15.7      75   -526    108    532    543 171.9  11.5  34158  289.53 0855.09
2009/04/23 11:58:15.8     144   -551     80    570    576 165.3   8.0  34162  289.61 0855.09
2009/04/23 11:58:15.9     184   -505     95    538    547 160.0  10.1  34160  289.57 0855.06
2009/04/23 11:58:16.0     170   -511     56    539    542 161.5   6.0  34154  289.48 0855.06
2009/04/23 11:58:16.1     102   -545    103    555    565 169.4  10.6  34156  289.51 0855.06
2009/04/23 11:58:16.2      18   -560    106    561    572 178.1  10.7  34158  289.55 0855.06
2009/04/23 11:58:16.3      52   -567     58    570    573 174.7   5.9  34156  289.49 0855.06
2009/04/23 11:58:16.4      75   -507     36    513    515 171.5   4.0  34160  289.57 0855.06
2009/04/23 11:58:16.5      36   -550    150    552    573 176.2  15.2  34152  289.45 0855.06
2009/04/23 11:58:16.6    -122   -508    256    523    582 193.5  27.9  34146  289.35 0855.06
2009/04/23 11:58:16.7    -299   -292     84    418    427 225.7  11.4  34170  289.75 0855.06
2009/04/23 11:58:16.8    -193   -426    110    468    481 204.4  13.2  34166  289.67 0855.06
2009/04/23 11:58:16.9    -222   -481     84    531    538 204.8   9.0  34156  289.50 0855.04
2009/04/23 11:58:17.0    -173   -443    124    476    492 201.4  14.7  34156  289.52 0855.04
2009/04/23 11:58:17.1    -142   -416    142    440    463 198.9  17.9  34150  289.41 0855.04
2009/04/23 11:58:17.2    -153   -426    177    453    486 199.8  22.4  34152  289.45 0855.04
2009/04/23 11:58:17.3      33   -436    -16    438    439 175.6  -2.1  34154  289.46 0855.04
2009/04/23 11:58:17.4     115   -473     60    487    491 166.3   7.1  34160  289.57 0855.04
2009/04/23 11:58:17.5      44   -471    123    474    490 174.6  14.6  34166  289.67 0855.04
2009/04/23 11:58:17.6     148   -538    145    559    578 164.6  14.6  34164  289.63 0855.04
2009/04/23 11:58:17.7      34   -443    103    445    457 175.5  13.1  34156  289.51 0855.04
2009/04/23 11:58:17.8      36   -473    175    475    506 175.6  21.0  34160  289.56 0855.04
2009/04/23 11:58:17.9       3   -434    157    435    462 179.5  20.8  34160  289.58 0855.04
2009/04/23 11:58:18.0     -50   -456    148    459    483 186.3  17.9  34162  289.61 0855.04
2009/04/23 11:58:18.1     -70   -424    125    430    449 189.4  16.3  34160  289.56 0855.04
2009/04/23 11:58:18.2     -63   -394    139    400    424 189.1  19.2  34160  289.56 0855.04
2009/04/23 11:58:18.3    -119   -343    150    364    393 199.2  23.7  34160  289.57 0855.04
2009/04/23 11:58:18.4    -217   -370    138    429    451 210.4  17.9  34156  289.51 0855.04
2009/04/23 11:58:18.5    -222   -338    227    405    464 213.3  31.6  34162  289.61 0855.04
2009/04/23 11:58:18.6    -179   -269    157    324    360 213.6  27.7  34162  289.60 0855.04
2009/04/23 11:58:18.7    -191   -287    143    346    374 213.7  23.7  34166  289.67 0855.04
2009/04/23 11:58:18.8    -209   -285    109    354    371 216.3  17.2  34160  289.57 0855.04
2009/04/23 11:58:18.9    -127   -185     46    225    230 214.5  11.6  34160  289.58 0855.03
2009/04/23 11:58:19.0     -48   -143    209    151    257 198.7  60.6  34162  289.62 0855.03
2009/04/23 11:58:19.1    -152   -245    181    289    341 211.9  35.2  34168  289.70 0855.03
2009/04/23 11:58:19.2    -199   -387    219    436    487 207.2  28.7  34170  289.74 0855.03
2009/04/23 11:58:19.3    -166   -364    181    401    439 204.6  26.0  34162  289.61 0855.03
2009/04/23 11:58:19.4    -222   -375    162    437    466 210.7  21.0  34156  289.49 0855.03
2009/04/23 11:58:19.5    -179   -263    197    319    374 214.3  34.8  34168  289.71 0855.03
2009/04/23 11:58:19.6    -159   -221    167    273    320 215.8  34.4  34160  289.58 0855.03
2009/04/23 11:58:19.7    -198   -260    222    328    396 217.3  37.4  34162  289.60 0855.03
2009/04/23 11:58:19.8    -199   -368     52    419    423 208.5   7.1  34156  289.49 0855.03
2009/04/23 11:58:19.9    -150   -369     20    399    400 202.1   2.9  34156  289.50 0855.03
2009/04/23 11:58:20.0    -173   -213     85    275    289 219.0  17.3  34160  289.58 0855.03
2009/04/23 11:58:20.1    -130   -308     38    335    338 203.0   6.6  34158  289.54 0855.03
2009/04/23 11:58:20.2    -162   -316     55    356    361 207.2   8.8  34156  289.50 0855.03
2009/04/23 11:58:20.3    -134   -343     78    369    378 201.4  12.0  34162  289.62 0855.03
2009/04/23 11:58:20.4     -58   -278     14    285    286 191.8   2.9  34158  289.54 0855.03
2009/04/23 11:58:20.5    -166   -273     -2    320    321 211.4  -0.4  34154  289.46 0855.03
2009/04/23 11:58:20.6    -186    -94     80    209    223 243.1  21.7  34172  289.79 0855.03
2009/04/23 11:58:20.7    -187    -50    -38    194    198 254.9 -11.3  34178  289.87 0855.03
2009/04/23 11:58:20.8    -165   -116    -18    202    203 234.9  -5.2  34182  289.96 0855.03
2009/04/23 11:58:20.9    -103   -167      2    197    198 211.6   0.7  34162  289.62 0855.02
2009/04/23 11:58:21.0    -188    -51    -15    195    196 254.7  -4.6  34168  289.72 0855.02
2009/04/23 11:58:21.1     -57   -139    -97    151    179 202.3 -40.1  34164  289.63 0855.02
2009/04/23 11:58:21.2    -297    -90    -62    311    318 253.1 -11.3  34160  289.58 0855.02
2009/04/23 11:58:21.3    -422   -207    -91    471    480 243.8 -11.0  34160  289.57 0855.02
2009/04/23 11:58:21.4    -167   -157     -4    230    231 226.9  -1.1  34156  289.50 0855.02
2009/04/23 11:58:21.5     -49    -81     33     95    101 211.2  19.4  34154  289.46 0855.02
2009/04/23 11:58:21.6     -90     30    -19     95     97 288.6 -11.5  34160  289.57 0855.02
2009/04/23 11:58:21.7     -62     34     22     71     75 298.9  17.3  34170  289.74 0855.02
2009/04/23 11:58:21.8    -157    113      5    194    195 305.9   1.6  34188  290.06 0855.02
2009/04/23 11:58:21.9     -19     57     -2     61     62 341.7  -2.2  34184  289.97 0855.02
2009/04/23 11:58:22.0      65    -41    -37     78     86 122.4 -31.6  34184  289.99 0855.02
2009/04/23 11:58:22.1     119   -225    -88    255    269 152.0 -23.8  34164  289.64 0855.02
2009/04/23 11:58:22.2     116   -275   -117    299    321 157.1 -26.9  34162  289.61 0855.02
2009/04/23 11:58:22.3      66   -301    -74    309    318 167.5 -13.6  34160  289.56 0855.02
2009/04/23 11:58:22.4      37   -297    -16    300    301 172.9  -3.2  34164  289.64 0855.02
2009/04/23 11:58:22.5      22   -282    -25    283    285 175.5  -5.1  34164  289.64 0855.02
2009/04/23 11:58:22.6     107   -217    -73    242    252 153.7 -21.7  34162  289.59 0855.02
2009/04/23 11:58:22.7      85   -186    -94    205    225 155.3 -31.0  34164  289.63 0855.02
2009/04/23 11:58:22.8      82   -176    -71    195    207 155.1 -25.3  34162  289.62 0855.02
2009/04/23 11:58:22.9      59   -144    -55    156    166 157.5 -19.4  34162  289.62 0855.02
2009/04/23 11:58:23.0      79   -147    -87    168    189 151.7 -33.9  34162  289.60 0855.02
2009/04/23 11:58:23.1      27   -133    -90    136    163 168.4 -40.9  34162  289.60 0855.02
2009/04/23 11:58:23.2       8   -120    -27    121    125 176.0 -12.9  34162  289.60 0855.02
2009/04/23 11:58:23.3     -11   -140    -18    141    143 184.9  -7.3  34162  289.60 0855.02
2009/04/23 11:58:23.4     -31   -155    -51    159    166 191.5 -23.3  34160  289.57 0855.02
2009/04/23 11:58:23.5     -79   -152    -83    172    190 207.6 -31.7  34160  289.58 0855.02
2009/04/23 11:58:23.6      26   -179    -51    181    189 171.5 -15.8  34160  289.58 0855.02
2009/04/23 11:58:23.7     -37   -138    -51    144    154 195.2 -19.7  34162  289.60 0855.02
2009/04/23 11:58:23.8     -21    -98    -74    101    125 192.5 -44.1  34164  289.63 0855.02
2009/04/23 11:58:23.9      15    -80    -41     82     91 169.3 -32.6  34162  289.60 0855.02
2009/04/23 11:58:24.0      18    -73    -49     76     90 165.7 -40.0  34162  289.60 0855.02
2009/04/23 11:58:24.1      82    -48    -30     96    100 120.7 -22.8  34162  289.60 0855.02
2009/04/23 11:58:24.2      89    -56     12    106    107 122.0   6.9  34160  289.58 0855.02
2009/04/23 11:58:24.3      75    -65     24    100    103 130.9  13.7  34162  289.60 0855.02
2009/04/23 11:58:24.4      78    -58     31     98    103 126.4  17.9  34162  289.62 0855.02
2009/04/23 11:58:24.5      84    -71     -4    111    112 130.4  -2.2  34162  289.62 0855.02
2009/04/23 11:58:24.6      76    -67      2    102    103 131.8   1.2  34162  289.62 0855.02
2009/04/23 11:58:24.7      30   -111    -35    116    121 164.9 -21.7  34162  289.60 0855.02
2009/04/23 11:58:24.8      47    -89    -50    101    112 151.9 -31.7  34162  289.62 0855.02
2009/04/23 11:58:24.9      84   -132    -43    157    162 147.5 -20.2  34162  289.60 0854.99
2009/04/23 11:58:25.0      84   -128    -55    154    164 146.6 -19.7  34162  289.60 0854.99
2009/04/23 11:58:25.1      83   -112    -57    140    151 143.5 -27.5  34160  289.58 0854.99
2009/04/23 11:58:25.2     110    -85    -38    140    146 127.8 -15.4  34162  289.62 0854.99
2009/04/23 11:58:25.3     113    -77    -43    137    144 124.2 -17.5  34164  289.65 0854.99
2009/04/23 11:58:25.4     133    -68    -53    150    159 117.1 -24.6  34164  289.63 0854.99
2009/04/23 11:58:25.5     130    -89    -53    158    167 124.6 -18.7  34164  289.63 0854.99
2009/04/23 11:58:25.6     105    -99    -44    145    151 133.1 -21.7  34162  289.60 0854.99
2009/04/23 11:58:25.7      86    -86    -41    123    129 135.0 -23.6  34164  289.63 0854.99
2009/04/23 11:58:25.8     119    -83    -29    146    149 125.1 -11.5  34162  289.60 0854.99
2009/04/23 11:58:25.9     134   -125    -23    184    186 133.2  -7.3  34162  289.60 0854.99
2009/04/23 11:58:26.0     141   -133      2    195    196 133.3   0.8  34162  289.60 0854.99
2009/04/23 11:58:26.1     100    -94     12    138    139 133.1   5.0  34164  289.63 0854.99
2009/04/23 11:58:26.2      70   -127      7    146    147 151.1   2.9  34162  289.60 0854.99
2009/04/23 11:58:26.3      72   -121     57    141    152 149.2  23.0  34162  289.60 0854.99
2009/04/23 11:58:26.4     100   -143     14    175    176 145.0   4.9  34158  289.55 0854.99
2009/04/23 11:58:26.5     122    -84     12    149    150 124.6   4.9  34162  289.62 0854.99
2009/04/23 11:58:26.6      28   -104     78    108    133 164.9  39.5  34162  289.60 0854.99
2009/04/23 11:58:26.7      47   -139     98    147    176 161.3  36.7  34162  289.62 0854.99
2009/04/23 11:58:26.8      50   -170    109    178    208 163.5  34.4  34160  289.58 0854.99
2009/04/23 11:58:26.9      33   -140     74    144    161 166.6  29.3  34160  289.58 0855.00
2009/04/23 11:58:27.0      81   -118     49    144    153 145.7  18.9  34160  289.57 0855.00
2009/04/23 11:58:27.1      48   -205     25    211    213 166.7   6.9  34162  289.60 0855.00
2009/04/23 11:58:27.2      11   -179     43    180    186 176.4  13.7  34160  289.57 0855.00
2009/04/23 11:58:27.3      15   -165      0    166    167 174.7  -0.3  34160  289.58 0855.00
2009/04/23 11:58:27.4       7   -190     -7    191    192 177.8  -2.1  34160  289.58 0855.00
2009/04/23 11:58:27.5      31   -220      6    223    224 171.8   1.6  34158  289.55 0855.00
2009/04/23 11:58:27.6     -23   -226      2    228    229 185.8   0.7  34158  289.55 0855.00
2009/04/23 11:58:27.7     -50   -201     -8    208    209 194.0  -2.3  34160  289.57 0855.00
2009/04/23 11:58:27.8     -74   -163    -50    180    186 204.5 -20.0  34160  289.58 0855.00
2009/04/23 11:58:27.9     -46   -176    -56    182    190 194.7 -22.5  34160  289.57 0855.00
2009/04/23 11:58:28.0     -40   -147    -64    153    165 195.2 -28.2  34160  289.58 0855.00
2009/04/23 11:58:28.1     -29   -176    -54    179    187 189.6 -16.8  34160  289.57 0855.00
2009/04/23 11:58:28.2     -23   -165    -53    167    176 188.2 -17.6  34162  289.60 0855.00
2009/04/23 11:58:28.3     -41   -175    -36    180    184 193.4 -11.3  34162  289.62 0855.00
2009/04/23 11:58:28.4    -105   -155    -44    188    194 214.3 -13.2  34162  289.60 0855.00
2009/04/23 11:58:28.5    -125   -147    -35    194    198 220.3 -10.3  34182  289.96 0855.00
2009/04/23 11:58:28.6    -167   -119    -53    206    213 234.5 -14.7  34196  290.19 0855.00
2009/04/23 11:58:28.7    -133   -154    -48    204    210 220.8 -13.4  34194  290.16 0855.00
2009/04/23 11:58:28.8     -58   -235    -31    243    245 194.0  -7.3  34170  289.73 0855.00
2009/04/23 11:58:28.9     -22   -200    -11    202    203 186.3  -3.2  34164  289.65 0855.02
2009/04/23 11:58:29.0     -60   -200      9    209    210 196.7   2.5  34166  289.67 0855.02
2009/04/23 11:58:29.1     -64   -190     -7    201    202 198.7  -2.2  34162  289.62 0855.02
2009/04/23 11:58:29.2     -78   -180    -40    197    201 203.4 -11.5  34166  289.69 0855.02
2009/04/23 11:58:29.3     -44   -159    -46    166    173 195.6 -15.5  34170  289.75 0855.02
2009/04/23 11:58:29.4     -99   -135    -59    168    179 216.5 -19.4  34172  289.79 0855.02
2009/04/23 11:58:29.5    -108   -129    -30    169    172 219.9 -10.1  34172  289.79 0855.02
2009/04/23 11:58:29.6     -87   -142     26    167    170 211.4   9.0  34172  289.77 0855.02
2009/04/23 11:58:29.7     -56   -235     77    242    255 193.4  17.7  34162  289.59 0855.02
2009/04/23 11:58:29.8      36   -262     25    265    267 172.0   5.4  34160  289.58 0855.02
2009/04/23 11:58:29.9      71   -416    -16    423    424 170.3  -2.2  34166  289.66 0855.02
2009/04/23 11:58:30.0      93   -422     36    433    435 167.5   4.9  34158  289.53 0855.02
2009/04/23 11:58:30.1      35   -422     40    424    427 175.1   5.5  34166  289.68 0855.02
2009/04/23 11:58:30.2      92   -496     65    505    510 169.4   7.4  34166  289.69 0855.02
2009/04/23 11:58:30.3     120   -488     72    503    509 166.1   8.2  34164  289.64 0855.02
2009/04/23 11:58:30.4     133   -430     87    451    460 162.8  11.0  34158  289.53 0855.02
2009/04/23 11:58:30.5      62   -370    169    376    412 170.4  25.9  34156  289.52 0855.02
2009/04/23 11:58:30.6     144   -417     82    442    450 161.0  10.6  34158  289.55 0855.02
2009/04/23 11:58:30.7     160   -419    102    449    461 159.1  12.9  34158  289.53 0855.02
2009/04/23 11:58:30.8      47   -364     43    368    371 172.6   6.7  34168  289.71 0855.02
2009/04/23 11:58:30.9      42   -407     79    410    418 174.0  11.0  34162  289.61 0855.04
2009/04/23 11:58:31.0       6   -434     84    435    444 179.1  11.0  34162  289.61 0855.04
2009/04/23 11:58:31.1      63   -444    167    449    479 171.9  21.4  34160  289.56 0855.04
2009/04/23 11:58:31.2     -10   -419    177    420    455 181.4  24.2  34156  289.51 0855.04
2009/04/23 11:58:31.3      -7   -393    116    394    411 181.1  16.5  34162  289.60 0855.04
2009/04/23 11:58:31.4     -39   -350     82    353    363 186.5  13.1  34162  289.60 0855.04
2009/04/23 11:58:31.5     -30   -310     25    312    314 185.6   4.7  34160  289.58 0855.04
2009/04/23 11:58:31.6       0   -304     96    305    320 180.0  17.5  34162  289.61 0855.04
2009/04/23 11:58:31.7      11   -336     64    337    344 178.1  10.8  34156  289.52 0855.04
2009/04/23 11:58:31.8       8   -364     46    365    368 178.6   7.2  34162  289.60 0855.04
2009/04/23 11:58:31.9     -28   -426     33    427    429 183.8   4.5  34162  289.60 0855.04
2009/04/23 11:58:32.0     -73   -445    -31    452    454 189.4  -4.0  34160  289.58 0855.04
2009/04/23 11:58:32.1     -45   -306   -102    310    327 188.5 -18.2  34156  289.49 0855.04
2009/04/23 11:58:32.2     -40   -396    -43    399    402 185.8  -6.2  34166  289.67 0855.04
2009/04/23 11:58:32.3     -45   -338    -69    342    349 187.7 -11.5  34160  289.57 0855.04
2009/04/23 11:58:32.4      -1   -375    -81    376    385 180.2 -12.3  34162  289.60 0855.04
2009/04/23 11:58:32.5     -38   -385   -118    387    405 185.7 -17.0  34152  289.43 0855.04
2009/04/23 11:58:32.6     -78   -394   -118    402    418 191.2 -21.2  34152  289.44 0855.04
2009/04/23 11:58:32.7    -115   -399    -99    416    428 196.1 -13.4  34150  289.39 0855.04
2009/04/23 11:58:32.8    -128   -385    -74    406    413 198.5 -10.4  34152  289.43 0855.04
2009/04/23 11:58:32.9    -122   -365    -49    386    390 198.6  -7.3  34152  289.42 0855.04
2009/04/23 11:58:33.0     -74   -394    -42    402    405 190.7  -6.1  34152  289.44 0855.04
2009/04/23 11:58:33.1     -63   -412    -22    417    418 188.7  -3.1  34154  289.46 0855.04
2009/04/23 11:58:33.2     -12   -351    -36    352    354 182.1  -5.9  34152  289.42 0855.04
2009/04/23 11:58:33.3       9   -356    -23    357    358 178.5  -3.7  34152  289.42 0855.04
2009/04/23 11:58:33.4      34   -320    -20    322    323 173.8  -3.7  34152  289.44 0855.04
2009/04/23 11:58:33.5      60   -294     14    301    302 168.4   2.8  34152  289.44 0855.04
2009/04/23 11:58:33.6      52   -300      0    305    306 170.0   0.0  34156  289.49 0855.04
2009/04/23 11:58:33.7      13   -278    -25    279    281 177.3  -5.2  34156  289.51 0855.04
2009/04/23 11:58:33.8      32   -256    -10    259    260 172.7  -2.2  34160  289.56 0855.04
2009/04/23 11:58:33.9      31   -239     10    242    243 172.4   2.5  34154  289.47 0855.04
2009/04/23 11:58:34.0      30   -227      0    230    231 172.4   0.0  34152  289.43 0855.04
2009/04/23 11:58:34.1      23   -219     -4    221    222 173.8  -1.2  34150  289.41 0855.04
2009/04/23 11:58:34.2     -21   -229    -27    231    233 185.3  -6.9  34152  289.43 0855.04
2009/04/23 11:58:34.3     -31   -223    -12    226    227 188.1  -3.1  34154  289.46 0855.04
2009/04/23 11:58:34.4     -42   -213    -37    218    222 191.3  -9.6  34154  289.46 0855.04
2009/04/23 11:58:34.5     -48   -205    -27    211    213 193.4  -7.5  34154  289.48 0855.04
2009/04/23 11:58:34.6     -66   -202    -33    213    216 198.3  -8.8  34154  289.46 0855.04
2009/04/23 11:58:34.7     -66   -174    -51    187    194 200.9 -15.4  34154  289.48 0855.04
2009/04/23 11:58:34.8     -57   -178    -53    187    195 197.8 -15.8  34154  289.46 0855.04
2009/04/23 11:58:34.9     -52   -172    -53    180    187 196.9 -21.2  34154  289.48 0855.05
2009/04/23 11:58:35.0     -77   -171    -57    188    197 204.3 -17.0  34160  289.57 0855.05
2009/04/23 11:58:35.1    -114   -180     -8    214    215 212.5  -2.3  34162  289.60 0855.05
2009/04/23 11:58:35.2     -82   -182    -26    200    202 204.5  -7.5  34158  289.55 0855.05
2009/04/23 11:58:35.3     -99   -167    -58    195    204 210.7 -16.8  34168  289.70 0855.05
2009/04/23 11:58:35.4     -63   -145    -48    159    167 203.6 -17.0  34168  289.72 0855.05
2009/04/23 11:58:35.5     -44   -132     -5    140    141 198.5  -2.2  34162  289.62 0855.05
2009/04/23 11:58:35.6     -54   -126    -13    138    139 203.2  -5.6  34160  289.57 0855.05
2009/04/23 11:58:35.7     -76   -190    -18    205    206 201.8  -5.1  34156  289.50 0855.05
2009/04/23 11:58:35.9     -66   -174    -44    187    193 200.7 -13.4  34158  289.55 0855.05
2009/04/23 11:58:36.0     -49   -180    -15    187    188 195.4  -4.6  34154  289.48 0855.05
2009/04/23 11:58:36.1     -23   -177     -6    179    180 187.6  -2.1  34154  289.48 0855.05
2009/04/23 11:58:36.1     -37   -199     -3    203    204 190.7  -1.1  34154  289.46 0855.05
2009/04/23 11:58:36.3     -40   -227    -29    231    233 190.0  -7.2  34154  289.48 0855.05
2009/04/23 11:58:36.4       3   -227    -50    228    234 179.1 -12.4  34156  289.50 0855.05
2009/04/23 11:58:36.5       7   -243    -53    244    250 178.2 -12.4  34158  289.54 0855.05
2009/04/23 11:58:36.6      13   -232    -35    233    236 176.6  -8.6  34158  289.53 0855.05
2009/04/23 11:58:36.7      15   -249    -22    250    252 176.4  -5.1  34156  289.49 0855.05
2009/04/23 11:58:36.8      -5   -288    -16    289    290 181.1  -3.3  34156  289.49 0855.05
2009/04/23 11:58:36.9     -14   -277     12    278    279 182.9   2.5  34154  289.46 0855.05
2009/04/23 11:58:37.0      12   -279     24    280    282 177.5   5.0  34156  289.51 0855.04
2009/04/23 11:58:37.1      25   -303     43    305    309 175.1   8.0  34156  289.49 0855.04
2009/04/23 11:58:37.2      51   -291     69    296    305 170.0  13.2  34158  289.53 0855.04
2009/04/23 11:58:37.3      -7   -205     10    206    207 182.0   2.8  34158  289.53 0855.04
2009/04/23 11:58:37.4      93   -279     80    295    306 161.5  15.2  34158  289.53 0855.04
2009/04/23 11:58:37.5      56   -319     55    325    330 170.0   9.7  34158  289.53 0855.04
2009/04/23 11:58:37.6      64   -327     74    334    343 168.9  12.5  34156  289.50 0855.04
2009/04/23 11:58:37.7     110   -287     72    308    317 159.0  13.2  34158  289.53 0855.04
2009/04/23 11:58:37.8      83   -341     77    352    361 166.2  12.4  34154  289.48 0855.04
2009/04/23 11:58:37.9      80   -378    109    387    403 168.0  15.8  34156  289.52 0855.04
2009/04/23 11:58:38.0      95   -281    130    297    324 161.3  25.2  34154  289.47 0855.05
2009/04/23 11:58:38.1      90   -327    127    340    362 164.5  21.4  34156  289.50 0855.05
2009/04/23 11:58:38.2      80   -291    145    302    335 164.6  27.3  34154  289.47 0855.05
2009/04/23 11:58:38.3      86   -320    106    332    349 164.8  17.8  34158  289.54 0855.05
2009/04/23 11:58:38.4      98   -368     88    381    392 165.0  13.1  34154  289.47 0855.05
2009/04/23 11:58:38.5     150   -374    102    404    417 158.2  14.2  34160  289.56 0855.05
2009/04/23 11:58:38.6     150   -332    129    365    388 155.6  19.6  34156  289.50 0855.05
2009/04/23 11:58:38.7     125   -334    117    357    376 159.4  18.1  34158  289.55 0855.05
2009/04/23 11:58:38.8      48   -364    123    368    389 172.4  18.6  34148  289.38 0855.05
2009/04/23 11:58:38.9      55   -387    207    391    442 171.9  30.2  34160  289.56 0855.05
2009/04/23 11:58:39.0      57   -420    188    424    463 172.2  25.6  34160  289.58 0855.05
2009/04/23 11:58:39.1       8   -412    232    413    473 178.8  31.9  34158  289.55 0855.05
2009/04/23 11:58:39.2      20   -412    228    413    471 177.1  31.3  34156  289.51 0855.05
2009/04/23 11:58:39.3      -3   -385    205    386    437 180.5  30.2  34158  289.53 0855.05
2009/04/23 11:58:39.4      -3   -378    200    379    428 180.6  30.1  34154  289.48 0855.05
2009/04/23 11:58:39.5      68   -433    209    439    486 171.0  27.3  34160  289.57 0855.05
2009/04/23 11:58:39.6      59   -331    166    337    375 169.8  28.1  34158  289.55 0855.05
2009/04/23 11:58:39.7      66   -336     22    343    344 168.8   3.8  34156  289.50 0855.05
2009/04/23 11:58:39.8      12   -285      3    286    287 177.4   0.7  34158  289.53 0855.05
2009/04/23 11:58:39.9     -23   -367    -49    368    372 183.6  -7.6  34158  289.55 0855.05
2009/04/23 11:58:40.0     -63   -408     10    413    414 188.8   1.5  34158  289.55 0855.07
2009/04/23 11:58:40.1     -50   -399     -4    403    404 187.2  -0.6  34160  289.56 0855.07
2009/04/23 11:58:40.2     -27   -368    -14    369    370 184.2  -2.2  34158  289.54 0855.07
2009/04/23 11:58:40.3      -3   -372    -89    373    384 180.6 -13.4  34158  289.55 0855.07
2009/04/23 11:58:40.4     -12   -364   -123    365    386 182.0 -18.7  34172  289.76 0855.07
2009/04/23 11:58:40.5      68   -380    -71    387    394 169.8 -10.5  34164  289.64 0855.07
2009/04/23 11:58:40.6      -6   -389    -15    390    391 180.9  -2.2  34168  289.71 0855.07
2009/04/23 11:58:40.7      41   -396    -51    399    403 174.0  -7.3  34160  289.57 0855.07
2009/04/23 11:58:40.8      29   -377    -34    379    381 175.5  -5.2  34162  289.59 0855.07
2009/04/23 11:58:40.9      41   -378      5    381    382 173.8   0.8  34162  289.59 0855.07
2009/04/23 11:58:41.0      67   -391      4    397    398 170.2   0.7  34162  289.60 0855.07
2009/04/23 11:58:41.1      29   -388     15    390    391 175.7   2.3  34162  289.60 0855.07
2009/04/23 11:58:41.2      62   -334     16    340    341 169.4   2.8  34160  289.57 0855.07
2009/04/23 11:58:41.3      35   -322     78    324    334 173.8  13.7  34160  289.57 0855.07
2009/04/23 11:58:41.4      50   -295    106    300    318 170.2  20.3  34162  289.61 0855.07
2009/04/23 11:58:41.5      24   -373     27    374    375 176.3   4.2  34162  289.59 0855.07
2009/04/23 11:58:41.6      60   -322    -59    328    334 169.3 -10.2  34158  289.54 0855.07
2009/04/23 11:58:41.7       0   -275    -70    276    285 180.0 -14.3  34162  289.59 0855.07
2009/04/23 11:58:41.8       0   -247    -49    248    253 180.1 -11.3  34160  289.58 0855.07
2009/04/23 11:58:41.9     104   -233    -39    256    260 155.9  -8.8  34160  289.56 0855.07
2009/04/23 11:58:42.0     101   -219    -21    242    244 155.3  -5.1  34162  289.61 0855.07
2009/04/23 11:58:42.1      52   -205     -4    212    213 165.7  -1.2  34158  289.55 0855.07
2009/04/23 11:58:42.2      68   -204     20    216    218 161.5   5.4  34160  289.57 0855.07
2009/04/23 11:58:42.3     125   -192    -16    230    231 147.0  -4.1  34158  289.55 0855.07
2009/04/23 11:58:42.4     103   -201    -25    227    229 152.8  -6.5  34158  289.55 0855.07
2009/04/23 11:58:42.5      89   -209     64    228    237 156.8  15.8  34160  289.56 0855.07
2009/04/23 11:58:42.6      88   -164     77    187    202 151.7  23.6  34158  289.55 0855.07
2009/04/23 11:58:42.7      97   -203     80    226    239 154.4  20.2  34160  289.58 0855.07
2009/04/23 11:58:42.8     125   -154     40    199    204 141.0  11.6  34158  289.53 0855.07
2009/04/23 11:58:42.9      95   -128     20    160    162 143.5   7.2  34160  289.58 0855.07
2009/04/23 11:58:43.0      87   -102     11    135    136 139.5   4.9  34160  289.57 0855.07
2009/04/23 11:58:43.1     116    -99     54    153    163 130.4  19.6  34160  289.57 0855.07
2009/04/23 11:58:43.2     123    -68     57    141    152 118.9  23.0  34162  289.62 0855.07
2009/04/23 11:58:43.3     113    -38    103    120    158 108.6  45.4  34162  289.62 0855.07
2009/04/23 11:58:43.4     128     -9     89    129    156  94.4  38.4  34162  289.60 0855.07
2009/04/23 11:58:43.5     151    -21     68    153    167  98.0  25.7  34160  289.58 0855.07
2009/04/23 11:58:43.6     149    -12     62    150    162  94.8  23.6  34160  289.57 0855.07
2009/04/23 11:58:43.7     160      0     48    161    169  90.0  16.6  34158  289.55 0855.07
2009/04/23 11:58:43.8     181     -6     13    182    183  91.9   4.2  34162  289.62 0855.07
2009/04/23 11:58:43.9     138    -44    -40    145    151 107.7 -15.5  34162  289.62 0855.07
2009/04/23 11:58:44.0     139    -88     17    165    166 122.4   5.9  34162  289.62 0855.08
2009/04/23 11:58:44.1     170    -67     39    184    189 111.7  12.2  34160  289.58 0855.08
2009/04/23 11:58:44.2     152   -152     -4    216    217 134.9  -1.3  34160  289.58 0855.08
2009/04/23 11:58:44.3     103   -165     88    195    213 147.9  25.9  34158  289.55 0855.08
2009/04/23 11:58:44.4      68   -222     81    233    247 163.0  19.2  34164  289.63 0855.08
2009/04/23 11:58:44.5     139   -171     58    221    229 141.0  14.7  34162  289.62 0855.08
2009/04/23 11:58:44.6     147   -138     29    203    206 133.2   8.2  34164  289.63 0855.08
2009/04/23 11:58:44.7     171    -87     23    193    195 117.1   6.9  34162  289.60 0855.08
2009/04/23 11:58:44.8     141    -88     53    167    176 122.0  17.7  34160  289.58 0855.08
2009/04/23 11:58:44.9     153    -83     58    175    185 118.6  18.6  34162  289.60 0855.08
2009/04/23 11:58:45.0     100   -110     67    149    163 137.7  25.7  34162  289.60 0855.08
2009/04/23 11:58:45.1      74   -106     72    130    148 144.8  31.4  34162  289.60 0855.08
2009/04/23 11:58:45.2      45    -74     15     87     89 148.4  10.1  34164  289.63 0855.08
2009/04/23 11:58:45.3      77   -164     36    182    186 154.7  11.4  34162  289.60 0855.08
2009/04/23 11:58:45.4     118   -202     19    234    235 149.7   4.9  34162  289.61 0855.08
2009/04/23 11:58:45.5     -51   -199     -4    206    207 194.5  -1.3  34164  289.63 0855.08
2009/04/23 11:58:45.6     -84   -163    -44    184    190 207.2 -13.7  34166  289.69 0855.08
2009/04/23 11:58:45.7    -101   -158     72    188    201 212.7  22.0  34168  289.70 0855.08
2009/04/23 11:58:45.8      44   -218    106    223    246 168.5  27.2  34168  289.70 0855.08
2009/04/23 11:58:45.9      51   -172    120    180    216 163.5  37.0  34166  289.67 0855.08
2009/04/23 11:58:46.0      21   -175    137    177    223 173.1  41.7  34168  289.70 0855.07
2009/04/23 11:58:46.1      24   -170    102    172    199 171.8  33.5  34166  289.69 0855.07
2009/04/23 11:58:46.2      59   -155    126    167    209 159.1  40.9  34166  289.67 0855.07
2009/04/23 11:58:46.3      81   -181    138    199    242 155.7  38.0  34166  289.67 0855.07
2009/04/23 11:58:46.4     108   -136    110    174    205 141.5  35.5  34160  289.58 0855.07
2009/04/23 11:58:46.5      62   -245    106    253    274 165.7  24.1  34166  289.68 0855.07
2009/04/23 11:58:46.6      30   -226    122    228    258 172.4  30.6  34164  289.64 0855.07
2009/04/23 11:58:46.7     -43   -213    130    218    253 191.5  33.5  34166  289.66 0855.07
2009/04/23 11:58:46.8     -37   -164    131    169    213 192.9  41.7  34166  289.67 0855.07
2009/04/23 11:58:46.9      39   -192    157    196    251 168.5  42.8  34166  289.66 0855.07
2009/04/23 11:58:47.0      60   -157    108    169    200 159.1  35.6  34166  289.67 0855.07
2009/04/23 11:58:47.1      10   -137     30    138    142 175.6  12.6  34166  289.67 0855.07
2009/04/23 11:58:47.2      39   -116     98    123    157 161.3  42.7  34170  289.74 0855.07
2009/04/23 11:58:47.3      38   -150    111    155    190 165.7  39.3  34168  289.72 0855.07
2009/04/23 11:58:47.4      19   -165    119    167    205 173.3  39.1  34164  289.65 0855.07
2009/04/23 11:58:47.5       2   -142     93    143    170 179.1  36.0  34166  289.69 0855.07
2009/04/23 11:58:47.6     -42   -125    102    132    166 198.7  42.0  34168  289.72 0855.07
2009/04/23 11:58:47.7     -92   -108    101    143    175 220.5  38.6  34166  289.69 0855.07
2009/04/23 11:58:47.8    -124    -74     92    145    171 239.3  35.5  34166  289.67 0855.07
2009/04/23 11:58:47.9    -180    -44      8    186    187 256.1   2.5  34174  289.80 0855.07
2009/04/23 11:58:48.0    -168     67    -15    182    183 291.8  -4.9  34176  289.84 0855.06
2009/04/23 11:58:48.1    -139      3    -15    140    141 271.3  -6.2  34176  289.85 0855.06
2009/04/23 11:58:48.2    -165     15   -122    166    206 275.2 -44.5  34176  289.85 0855.06
2009/04/23 11:58:48.3     -99    -38    -58    107    121 248.7 -35.2  34180  289.92 0855.06
2009/04/23 11:58:48.4    -107      8    -35    108    113 274.3 -23.8  34178  289.89 0855.06
2009/04/23 11:58:48.5     -73     36     -2     82     83 296.2  -1.8  34176  289.85 0855.06
2009/04/23 11:58:48.6     -73     38     56     83    100 298.0  37.0  34176  289.85 0855.06
2009/04/23 11:58:48.7     -36      3     59     37     69 276.1  64.7  34182  289.94 0855.06
2009/04/23 11:58:48.8     -32     13     74     35     81 293.5  73.5  34180  289.91 0855.06
2009/04/23 11:58:48.9     -52    -19     92     56    107 249.2  65.1  34178  289.89 0855.06
2009/04/23 11:58:49.0     -15     44     82     47     94 340.8  67.2  34182  289.94 0855.06
2009/04/23 11:58:49.1     -37     12     66     39     76 288.2  65.7  34180  289.92 0855.06
2009/04/23 11:58:49.2     -33    -11     87     35     93 251.6  77.6  34176  289.84 0855.06
2009/04/23 11:58:49.3     -38    -46     85     60    104 219.6  61.5  34174  289.80 0855.06
2009/04/23 11:58:49.4       7    -89    107     90    139 175.5  56.3  34166  289.67 0855.06
2009/04/23 11:58:49.5      -1   -120    110    121    163 180.9  47.1  34168  289.70 0855.06
2009/04/23 11:58:49.6     -24   -159    119    161    200 188.7  40.1  34168  289.70 0855.06
2009/04/23 11:58:49.7     -59   -163    124    174    213 200.0  39.1  34168  289.70 0855.06
2009/04/23 11:58:49.8     -84   -198    124    216    249 202.9  32.4  34166  289.66 0855.06
2009/04/23 11:58:49.9     -89   -224    145    242    282 201.8  33.7  34166  289.68 0855.06
2009/04/23 11:58:50.0    -115   -208    130    239    272 209.0  31.3  34166  289.68 0855.06
2009/04/23 11:58:50.1    -130   -233    106    267    287 209.2  23.0  34166  289.66 0855.06
2009/04/23 11:58:50.2    -127   -257     78    287    298 206.3  15.2  34164  289.64 0855.06
2009/04/23 11:58:50.3    -112   -268     85    291    304 202.7  16.3  34166  289.66 0855.06
2009/04/23 11:58:50.4     -94   -298     73    313    322 197.6  13.3  34162  289.61 0855.06
2009/04/23 11:58:50.5     -70   -438     21    444    445 189.1   2.8  34160  289.56 0855.06
2009/04/23 11:58:50.6     -63   -422     20    427    428 188.5   2.8  34164  289.65 0855.06
2009/04/23 11:58:50.7     -27   -429     78    430    438 183.7  10.3  34166  289.66 0855.06
2009/04/23 11:58:50.8     -41   -348     95    351    364 186.8  15.1  34164  289.65 0855.06
2009/04/23 11:58:50.9    -115   -303     24    325    326 200.9   4.4  34162  289.61 0855.06
2009/04/23 11:58:51.0    -103   -324    -89    341    353 197.7 -14.7  34158  289.55 0855.06
2009/04/23 11:58:51.1      21   -326    -45    327    331 176.3  -7.9  34164  289.65 0855.06
2009/04/23 11:58:51.2      95   -415    173    426    459 167.1  23.2  34162  289.61 0855.06
2009/04/23 11:58:51.3     -79   -240    -26    253    255 198.3  -6.1  34160  289.56 0855.06
2009/04/23 11:58:51.4     -76   -206     -8    220    221 200.3  -2.2  34158  289.55 0855.06
2009/04/23 11:58:51.5       0   -347     21    348    349 180.0   3.5  34160  289.57 0855.06
2009/04/23 11:58:51.6     -81   -253    -80    266    278 197.9 -16.8  34148  289.37 0855.06
2009/04/23 11:58:51.7      19   -249   -149    250    291 175.5 -37.9  34160  289.58 0855.06
2009/04/23 11:58:51.8     -11    -74    -74     75    105 188.9 -54.9  34150  289.41 0855.06
2009/04/23 11:58:51.9    -175    -89   -135    197    238 242.9 -42.2  34156  289.50 0855.06
2009/04/23 11:58:52.0    -176   -165    164    242    292 226.9  37.4  34162  289.59 0855.04
2009/04/23 11:58:52.1    -282   -280    -25    398    399 225.2  -3.7  34162  289.60 0855.04
2009/04/23 11:58:52.2    -309   -238   -140    391    416 232.4 -19.8  34158  289.53 0855.04
2009/04/23 11:58:52.3    -225   -212    -92    310    324 226.7 -16.6  34152  289.42 0855.04
2009/04/23 11:58:52.4    -253   -188   -106    316    333 233.4 -23.5  34150  289.41 0855.04
2009/04/23 11:58:52.5    -247    -26   -207    249    323 263.9 -48.4  34160  289.56 0855.04
2009/04/23 11:58:52.6    -253   -114   -240    278    367 245.6 -49.6  34164  289.64 0855.04
2009/04/23 11:58:52.7    -402     24   -117    403    420 273.5 -16.2  34164  289.63 0855.04
2009/04/23 11:58:52.8    -259    -21    -37    260    263 265.2  -8.3  34168  289.70 0855.04
2009/04/23 11:58:52.9    -256   -199   -131    325    350 232.2 -27.5  34170  289.74 0855.04
2009/04/23 11:58:53.0    -244   -224    -92    332    344 227.4 -20.2  34164  289.64 0855.04
2009/04/23 11:58:53.1    -299   -299   -134    424    444 225.0 -22.6  34158  289.53 0855.04
2009/04/23 11:58:53.2    -169   -216   -101    275    292 218.1 -25.4  34166  289.66 0855.04
2009/04/23 11:58:53.3      -3   -280    -90    281    295 180.7 -22.8  34166  289.66 0855.04
2009/04/23 11:58:53.4     -37   -297    -66    300    308 187.1 -12.4  34168  289.71 0855.04
2009/04/23 11:58:53.5    -241   -257    -84    353    363 223.2 -13.4  34160  289.57 0855.04
2009/04/23 11:58:53.6    -316   -260   -153    410    437 230.5 -25.8  34158  289.53 0855.04
2009/04/23 11:58:53.7    -333   -200   -129    389    409 239.0 -23.7  34168  289.72 0855.04
2009/04/23 11:58:53.8    -285   -179   -107    337    353 237.8 -22.5  34174  289.81 0855.04
2009/04/23 11:58:53.9    -221   -229   -208    319    380 223.9 -40.4  34148  289.38 0855.04
2009/04/23 11:58:54.0    -262   -150   -153    302    338 240.2 -33.3  34166  289.66 0855.06
2009/04/23 11:58:54.1    -250   -187   -112    313    332 233.1 -24.7  34174  289.81 0855.06
2009/04/23 11:58:54.2    -178   -124    -90    217    234 235.1 -28.5  34178  289.89 0855.06
2009/04/23 11:58:54.3     -99   -128    -67    163    176 217.8 -28.0  34176  289.84 0855.06
2009/04/23 11:58:54.4      43   -128   -128    136    186 161.3 -52.4  34176  289.85 0855.06
2009/04/23 11:58:54.5     146   -165   -112    221    247 138.6 -33.5  34168  289.71 0855.06
2009/04/23 11:58:54.6     166   -194   -120    256    282 139.5 -31.5  34168  289.70 0855.06
2009/04/23 11:58:54.7     251   -167    -73    302    311 123.7 -13.7  34164  289.63 0855.06
2009/04/23 11:58:54.8     204   -185    -74    276    286 132.2 -15.0  34168  289.70 0855.06
2009/04/23 11:58:54.9     149   -313   -154    347    379 154.5 -29.7  34166  289.67 0855.06
2009/04/23 11:58:55.0     149   -249   -150    291    327 149.2 -33.8  34160  289.58 0855.06
2009/04/23 11:58:55.1     138   -259   -104    294    311 152.0 -24.6  34168  289.70 0855.06
2009/04/23 11:58:55.2      99   -297   -103    314    331 161.5 -18.2  34170  289.75 0855.06
2009/04/23 11:58:55.3     213   -291   -121    361    381 143.8 -18.6  34154  289.48 0855.06
2009/04/23 11:58:55.4     224   -343    -75    410    417 146.8 -10.4  34150  289.41 0855.06
2009/04/23 11:58:55.5     135   -298    107    328    346 155.7  18.2  34150  289.40 0855.06
2009/04/23 11:58:55.6      -7   -455     40    456    458 181.0   5.1  34158  289.53 0855.06
2009/04/23 11:58:55.7      43   -421     52    424    428 174.1   7.1  34154  289.48 0855.06
2009/04/23 11:58:55.8      79   -266    -75    278    289 163.5 -15.2  34158  289.53 0855.06
2009/04/23 11:58:55.9     108   -252     15    275    276 156.8   3.3  34156  289.49 0855.06
2009/04/23 11:58:56.0       5   -294     60    295    302 179.0  11.6  34156  289.49 0855.07
2009/04/23 11:58:56.1       0   -271     13    272    273 180.0   2.9  34160  289.58 0855.07
2009/04/23 11:58:56.2       6   -309     35    310    313 178.9   6.5  34158  289.54 0855.07
2009/04/23 11:58:56.3      12   -333    117    334    355 177.9  19.4  34160  289.57 0855.07
2009/04/23 11:58:56.4      44   -376    187    379    422 173.2  28.2  34162  289.60 0855.07
2009/04/23 11:58:56.5      65   -465    225    470    521 172.0  27.3  34152  289.44 0855.07
2009/04/23 11:58:56.6     138   -402    116    426    442 161.1  15.3  34154  289.48 0855.07
2009/04/23 11:58:56.7     172   -344     36    385    387 153.4   5.5  34158  289.55 0855.07
2009/04/23 11:58:56.8     177   -352    -50    395    399 153.3  -7.3  34160  289.57 0855.07
2009/04/23 11:58:56.9     190   -321    -74    374    382 149.4 -11.2  34158  289.54 0855.07
2009/04/23 11:58:57.0     210   -312    -34    377    379 146.1  -5.2  34160  289.57 0855.07
2009/04/23 11:58:57.1     220   -262    -22    343    344 140.0  -3.7  34162  289.59 0855.07
2009/04/23 11:58:57.2     177   -262    -40    317    320 145.9  -7.3  34158  289.54 0855.07
2009/04/23 11:58:57.3     154   -283    -33    323    325 151.4  -5.9  34158  289.54 0855.07
2009/04/23 11:58:57.4     106   -291    -21    310    311 160.0  -3.9  34156  289.51 0855.07
2009/04/23 11:58:57.5      17   -261     93    262    279 176.2  19.6  34160  289.56 0855.07
2009/04/23 11:58:57.6      58   -148     41    159    165 158.6  14.5  34156  289.52 0855.07
2009/04/23 11:58:57.7      36   -154     26    159    162 166.6   9.5  34158  289.53 0855.07
2009/04/23 11:58:57.8      41   -189    -57    194    202 167.5 -21.2  34158  289.55 0855.07
2009/04/23 11:58:57.9      42   -298    -60    302    309 172.0 -11.3  34150  289.39 0855.07
2009/04/23 11:58:58.0       4   -268    -95    269    286 179.1 -19.6  34152  289.44 0855.07
2009/04/23 11:58:58.1     -83   -273     34    286    289 196.9   6.9  34146  289.34 0855.07
2009/04/23 11:58:58.2     -58   -290     52    296    301 191.5  10.1  34154  289.47 0855.07
2009/04/23 11:58:58.3     -80   -281     81    293    305 196.0  15.6  34154  289.47 0855.07
2009/04/23 11:58:58.4      20   -433     60    434    439 177.3   7.9  34158  289.55 0855.07
2009/04/23 11:58:58.5     -31   -524     65    525    530 183.4   7.1  34154  289.48 0855.07
2009/04/23 11:58:58.6     -61   -597     55    601    604 185.9   5.3  34156  289.51 0855.07
2009/04/23 11:58:58.7      57   -501    225    505    552 173.4  25.7  34154  289.48 0855.07
2009/04/23 11:58:58.8     127   -533    114    548    560 166.6  11.8  34162  289.60 0855.07
2009/04/23 11:58:58.9      86   -501    139    509    528 170.2  15.3  34164  289.65 0855.07
2009/04/23 11:58:59.0     142   -466     95    488    498 163.1  11.1  34152  289.44 0855.05
2009/04/23 11:58:59.1     213   -398     70    452    458 151.9   8.8  34156  289.49 0855.05
2009/04/23 11:58:59.2     191   -380     82    426    434 153.3  11.0  34158  289.53 0855.05
2009/04/23 11:58:59.3     117   -371     47    390    393 162.5   6.9  34148  289.38 0855.05
2009/04/23 11:58:59.4     134   -344     86    370    380 158.7  13.1  34152  289.45 0855.05
2009/04/23 11:58:59.5     172   -379     61    417    422 155.5   8.3  34156  289.51 0855.05
2009/04/23 11:58:59.6      94   -467    189    477    513 168.5  22.9  34164  289.64 0855.05
2009/04/23 11:58:59.7     162   -524    102    549    559 162.8  10.6  34160  289.57 0855.05
2009/04/23 11:58:59.8     170   -534    136    561    578 162.3  13.7  34170  289.75 0855.05
2009/04/23 11:58:59.9     148   -413    143    439    462 160.2  18.1  34172  289.78 0855.05
2009/04/23 11:59:00.0      -9   -319    321    320    453 181.8  50.1  34176  289.85 0855.05
2009/04/23 11:59:00.1     -12   -402    315    403    511 181.8  42.0  34162  289.62 0855.05
2009/04/23 11:59:00.2     -46   -458    363    461    586 185.8  42.2  34158  289.55 0855.05
2009/04/23 11:59:00.3      60   -480    256    484    547 172.8  30.2  34160  289.58 0855.05
2009/04/23 11:59:00.4       0   -519    263    520    582 180.1  28.9  34158  289.55 0855.05
2009/04/23 11:59:00.5      20   -384    330    385    507 177.0  45.0  34160  289.57 0855.05
2009/04/23 11:59:00.6      85   -316    252    328    413 164.9  41.5  34164  289.64 0855.05
2009/04/23 11:59:00.7      31   -399    202    401    449 175.5  28.7  34160  289.58 0855.05
2009/04/23 11:59:00.8    -106   -470    207    482    524 192.8  24.8  34160  289.57 0855.05
2009/04/23 11:59:00.9     -66   -422    100    428    440 188.9  13.2  34162  289.60 0855.05
2009/04/23 11:59:01.0     -29   -342    141    344    371 184.9  23.5  34162  289.59 0855.08
2009/04/23 11:59:01.1      45   -390    161    393    424 173.3  23.6  34160  289.56 0855.08
2009/04/23 11:59:01.2      47   -483     94    486    496 174.4  11.0  34162  289.59 0855.08
2009/04/23 11:59:01.3     226   -366     63    431    436 148.3   8.3  34160  289.58 0855.08
2009/04/23 11:59:01.4     197   -368     98    418    430 151.8  13.2  34160  289.56 0855.08
2009/04/23 11:59:01.5     160   -403    135    434    455 158.3  17.3  34160  289.58 0855.08
2009/04/23 11:59:01.6      -1   -386    120    387    406 180.3  17.3  34160  289.57 0855.08
2009/04/23 11:59:01.7     -61   -301     43    308    312 191.5   8.0  34162  289.61 0855.08
2009/04/23 11:59:01.8     -87   -285    107    299    317 196.9  20.6  34164  289.64 0855.08
2009/04/23 11:59:01.9     -53   -272     39    278    281 191.1   8.0  34164  289.63 0855.08
2009/04/23 11:59:02.0      44   -238     73    243    254 169.5  16.8  34164  289.64 0855.08
2009/04/23 11:59:02.1      63   -233     89    242    257 164.8  21.0  34164  289.63 0855.08
2009/04/23 11:59:02.2     -17   -229    -32    230    233 184.5  -8.0  34158  289.53 0855.08
2009/04/23 11:59:02.4     -34   -297    -49    300    305 186.7  -9.3  34164  289.63 0855.08
2009/04/23 11:59:02.4      11   -346    -77    347    356 178.1 -12.6  34148  289.37 0855.08
2009/04/23 11:59:02.6     -50   -202   -170    209    269 194.0 -48.1  34152  289.44 0855.08
2009/04/23 11:59:02.7    -108   -153   -145    188    237 215.2 -46.0  34156  289.52 0855.08
2009/04/23 11:59:02.8     -96   -290    -70    306    314 198.5 -12.9  34152  289.42 0855.08
2009/04/23 11:59:02.9    -167   -237    -90    291    304 215.2 -22.1  34156  289.49 0855.08
2009/04/23 11:59:03.0     -78   -350    -33    359    361 192.6  -5.3  34138  289.21 0855.08
2009/04/23 11:59:03.1    -287   -116   -109    310    328 248.0 -24.5  34148  289.36 0855.05
2009/04/23 11:59:03.2    -276   -205    -66    345    352 233.4 -10.8  34150  289.40 0855.05
2009/04/23 11:59:03.3    -209   -102   -114    233    259 243.8 -32.4  34138  289.19 0855.05
2009/04/23 11:59:03.4     -47   -438   -153    441    466 186.2 -24.3  34142  289.27 0855.05
2009/04/23 11:59:03.5    -312   -271   -214    414    466 229.0 -33.7  34154  289.46 0855.05
2009/04/23 11:59:03.6     -61   -282    -24    289    291 192.3  -4.9  34150  289.39 0855.05
2009/04/23 11:59:03.7     -19   -325   -101    326    342 183.4 -17.3  34152  289.45 0855.05
2009/04/23 11:59:03.8    -161   -505   -220    531    574 197.7 -28.2  34148  289.38 0855.05
2009/04/23 11:59:03.9    -412   -262   -288    489    567 237.6 -37.7  34154  289.48 0855.05
2009/04/23 11:59:04.0    -457    -71   -225    463    514 261.1 -32.3  34150  289.40 0855.05
2009/04/23 11:59:04.1    -367    110   -205    384    435 286.8 -34.7  34148  289.36 0855.05
2009/04/23 11:59:04.2    -196     91    -88    217    234 294.8 -27.4  34160  289.57 0855.05
2009/04/23 11:59:04.3    -169   -198    -62    261    269 220.5 -13.4  34160  289.58 0855.05
2009/04/23 11:59:04.4    -165   -329    -73    369    377 206.7 -11.2  34156  289.52 0855.05
2009/04/23 11:59:04.5    -265   -454    -57    526    530 210.3  -6.2  34142  289.28 0855.05
2009/04/23 11:59:04.6    -222   -420   -214    476    521 207.9 -30.3  34114  288.78 0855.05
2009/04/23 11:59:04.7    -373   -361    -65    520    525 226.0  -7.2  34136  289.18 0855.05
2009/04/23 11:59:04.8    -202   -445    105    489    501 204.4  12.1  34140  289.22 0855.05
2009/04/23 11:59:04.9     -82   -374     63    383    389 192.4   9.4  34142  289.26 0855.05
2009/04/23 11:59:05.0    -132   -187    -67    230    240 215.2 -16.4  34146  289.32 0855.05
2009/04/23 11:59:05.1    -249    -48     14    254    255 259.0   3.3  34150  289.41 0855.03
2009/04/23 11:59:05.2    -218    -38    -28    222    224 259.9  -7.3  34154  289.48 0855.03
2009/04/23 11:59:05.3    -294    -89     -9    308    309 253.2  -1.8  34154  289.46 0855.03
2009/04/23 11:59:05.4    -129   -323     79    348    358 201.8  12.9  34148  289.37 0855.03
2009/04/23 11:59:05.5     -49   -268    -81    273    284 190.5 -21.7  34142  289.25 0855.03
2009/04/23 11:59:05.6    -204   -174    -74    269    278 229.5 -20.0  34138  289.20 0855.03
2009/04/23 11:59:05.7    -181   -117    -88    216    233 237.1 -27.5  34144  289.31 0855.03
2009/04/23 11:59:05.8    -139   -240    -37    278    281 210.1  -7.7  34132  289.10 0855.03
2009/04/23 11:59:05.9     -54   -263    -24    269    271 191.8  -5.2  34136  289.15 0855.03
2009/04/23 11:59:06.0    -102   -225    -82    248    262 204.5 -18.3  34136  289.17 0855.03
2009/04/23 11:59:06.1    -162   -205   -128    262    291 218.3 -32.4  34132  289.09 0855.03
2009/04/23 11:59:06.2    -136   -176    -41    223    227 217.9 -10.5  34138  289.19 0855.03
2009/04/23 11:59:06.3    -103     45    102    113    152 293.5  46.9  34130  289.08 0855.03
2009/04/23 11:59:06.4     -81    116    109    142    179 324.8  41.4  34144  289.30 0855.03
2009/04/23 11:59:06.5     -35     52    141     63    154 325.7  74.0  34142  289.26 0855.03
2009/04/23 11:59:06.6     231   -209    112    312    331 132.2  20.4  34138  289.20 0855.03
2009/04/23 11:59:06.7     199   -197    148    281    317 134.7  30.1  34134  289.14 0855.03
2009/04/23 11:59:06.8      69    -81    126    107    165 139.5  55.4  34136  289.18 0855.03
2009/04/23 11:59:06.9     -14    -59    115     61    130 193.4  69.8  34140  289.23 0855.03
2009/04/23 11:59:07.0     -80    -60     55    100    114 233.1  31.4  34138  289.21 0855.03
2009/04/23 11:59:07.1      13   -121     95    122    154 173.8  41.7  34136  289.18 0854.99
2009/04/23 11:59:07.2       5   -163    186    164    247 178.2  54.2  34132  289.09 0854.99
2009/04/23 11:59:07.3    -112   -371    123    388    408 196.9  17.7  34132  289.11 0854.99
2009/04/23 11:59:07.4     -89   -367    -48    378    382 193.7  -7.4  34126  289.01 0854.99
2009/04/23 11:59:07.5    -175   -396     78    434    442 203.9  10.2  34130  289.07 0854.99
2009/04/23 11:59:07.6    -216   -418    125    471    488 207.4  14.9  34116  288.83 0854.99
2009/04/23 11:59:07.7     -51   -372    209    376    430 187.9  31.4  34130  289.05 0854.99
2009/04/23 11:59:07.8      -5   -425    159    426    454 180.7  21.4  34130  289.05 0854.99
2009/04/23 11:59:07.9     163   -377    176    411    447 156.6  24.6  34118  288.87 0854.99
2009/04/23 11:59:08.0     103   -357    151    372    401 163.9  23.4  34130  289.08 0854.99
2009/04/23 11:59:08.1      87   -327    212    339    399 165.1  35.1  34134  289.13 0854.99
2009/04/23 11:59:08.2      80   -295    266    306    405 164.8  45.5  34130  289.06 0854.99
2009/04/23 11:59:08.3     140   -305    223    336    403 155.3  36.6  34128  289.03 0854.99
2009/04/23 11:59:08.4     189   -364    266    411    489 152.6  35.9  34130  289.08 0854.99
2009/04/23 11:59:08.5     166   -409    137    442    463 157.9  17.3  34134  289.12 0854.99
2009/04/23 11:59:08.6     199   -390    197    438    480 152.9  25.9  34126  289.01 0854.99
2009/04/23 11:59:08.7     255   -293    144    389    414 138.9  21.3  34132  289.09 0854.99
2009/04/23 11:59:08.8     218   -341    189    406    447 147.4  27.0  34126  289.00 0854.99
2009/04/23 11:59:08.9     278   -293    317    405    514 136.5  42.0  34128  289.03 0854.99
2009/04/23 11:59:09.0     212   -260    272    336    432 140.8  43.1  34130  289.07 0854.99
2009/04/23 11:59:09.1     153   -229    232    276    360 146.2  44.4  34134  289.13 0855.00
2009/04/23 11:59:09.2     144   -172    161    225    276 139.9  39.3  34134  289.12 0855.00
2009/04/23 11:59:09.3     104   -180    100    209    231 149.9  27.3  34134  289.14 0855.00
2009/04/23 11:59:09.4     141    -27    131    144    194 101.0  47.1  34136  289.16 0855.00
2009/04/23 11:59:09.5     116   -162     70    200    211 144.4  20.0  34134  289.13 0855.00
2009/04/23 11:59:09.6     135   -143     71    197    209 136.6  20.7  34130  289.06 0855.00
2009/04/23 11:59:09.7     121    -50    148    132    198 112.6  53.7  34130  289.08 0855.00
2009/04/23 11:59:09.8      58    -61    104     85    134 136.3  56.4  34132  289.09 0855.00
2009/04/23 11:59:09.9     107    -60     70    123    141 119.3  31.9  34132  289.09 0855.00
2009/04/23 11:59:10.0     119   -103     37    158    163 130.9  13.2  34130  289.08 0855.00
2009/04/23 11:59:10.1     149    -82      8    171    172 118.9   2.8  34130  289.08 0855.00
2009/04/23 11:59:10.2     156    -49     14    164    165 107.7   5.2  34130  289.08 0855.00
2009/04/23 11:59:10.3     148    -64      0    162    163 113.5  -0.3  34132  289.11 0855.00
2009/04/23 11:59:10.4     141    -28     57    144    154 101.4  22.5  34122  288.92 0855.00
2009/04/23 11:59:10.5     163    -62     95    175    199 111.1  31.0  34124  288.96 0855.00
2009/04/23 11:59:10.6     220    -31    123    223    254  98.1  31.3  34120  288.90 0855.00
2009/04/23 11:59:10.7     131    -44    141    139    197 108.6  50.2  34124  288.96 0855.00
2009/04/23 11:59:10.8     117    -46    151    126    196 111.7  56.1  34124  288.96 0855.00
2009/04/23 11:59:10.9      76     -5    115     77    138  94.3  62.7  34128  289.02 0855.00
2009/04/23 11:59:11.0     -11     57     96     59    112 348.4  65.1  34128  289.04 0855.00
2009/04/23 11:59:11.1      20    123    135    125    183   9.3  52.2  34130  289.08 0855.04
2009/04/23 11:59:11.2      -8     63    110     64    127 352.0  67.2  34132  289.11 0855.04
2009/04/23 11:59:11.3     -43     54    148     70    163 321.3  72.9  34130  289.08 0855.04
2009/04/23 11:59:11.4      46     45    147     65    160  45.1  74.8  34132  289.11 0855.04
2009/04/23 11:59:11.5      -1      6    109      7    109 348.4  90.0  34132  289.11 0855.04
2009/04/23 11:59:11.6      96    -37     82    104    132 111.3  42.7  34126  289.01 0855.04
2009/04/23 11:59:11.7     254      4    144    255    292  89.0  31.9  34126  289.00 0855.04
2009/04/23 11:59:11.8     232    112     75    258    269  64.2  16.3  34126  289.00 0855.04
2009/04/23 11:59:11.9     192     11     68    193    204  86.7  20.0  34132  289.09 0855.04
2009/04/23 11:59:12.0     192    -24    130    194    233  97.2  36.7  34130  289.08 0855.04
2009/04/23 11:59:12.1     134   -132    146    189    238 134.7  41.6  34132  289.11 0855.04
2009/04/23 11:59:12.2      30    -57    107     65    125 151.9  65.7  34134  289.14 0855.04
2009/04/23 11:59:12.3      39     24     84     46     95  58.5  68.8  34136  289.16 0855.04
2009/04/23 11:59:12.4      40     40     87     57    104  45.0  64.1  34136  289.16 0855.04
2009/04/23 11:59:12.5      34      6     94     35    100  78.5  79.2  34134  289.14 0855.04
2009/04/23 11:59:12.6     -60     25     87     66    109 292.6  59.0  34142  289.26 0855.04
2009/04/23 11:59:12.7      16     78     98     80    126  11.6  56.4  34136  289.16 0855.04
2009/04/23 11:59:12.8       6     -6    102      9    102 136.6  90.0  34142  289.26 0855.04
2009/04/23 11:59:12.9       8    -12     84     15     85 147.4  90.0  34140  289.23 0855.04
2009/04/23 11:59:13.0      -6     79     91     80    121 355.5  54.3  34136  289.18 0855.04
2009/04/23 11:59:13.1      40    -40     87     57    104 135.0  64.1  34136  289.16 0855.07
2009/04/23 11:59:13.2       9     -1     77     10     77 101.5  90.0  34144  289.30 0855.07
2009/04/23 11:59:13.3     -56     87    112    104    152 327.4  52.2  34136  289.16 0855.07
2009/04/23 11:59:13.4    -129    -29     41    133    140 257.2  17.4  34134  289.13 0855.07
2009/04/23 11:59:13.5     -85    -24    111     89    142 254.1  56.4  34142  289.26 0855.07
2009/04/23 11:59:13.6    -149     21      7    151    152 278.4   2.9  34138  289.21 0855.07
2009/04/23 11:59:13.7    -148     70    -34    164    168 295.3 -11.9  34132  289.11 0855.07
2009/04/23 11:59:13.8    -133    103      6    169    170 307.8   2.1  34134  289.13 0855.07
2009/04/23 11:59:13.9     -78    243     42    256    260 342.1   9.5  34132  289.10 0855.07
2009/04/23 11:59:14.0     -67    271     33    280    283 346.0   6.9  34136  289.17 0855.07
2009/04/23 11:59:14.1    -172    199     58    264    271 319.2  12.4  34138  289.20 0855.07
2009/04/23 11:59:14.2      21     33    180     40    184  32.5  88.0  34146  289.33 0855.07
2009/04/23 11:59:14.3     -86    166    159    187    245 332.6  44.8  34142  289.28 0855.07
2009/04/23 11:59:14.4    -101     62    163    119    201 301.5  60.5  34142  289.26 0855.07
2009/04/23 11:59:14.5       0     14    193     15    193 357.3  90.0  34142  289.28 0855.07
2009/04/23 11:59:14.6    -105     18    141    107    177 280.1  59.0  34146  289.35 0855.07
2009/04/23 11:59:14.7     -59     22    124     64    139 290.8  70.8  34144  289.31 0855.07
2009/04/23 11:59:14.8     -65    -51    148     83    169 231.8  68.3  34144  289.31 0855.07
2009/04/23 11:59:14.9    -102    -24    124    105    162 256.3  55.4  34148  289.36 0855.07
2009/04/23 11:59:15.0    -119     80     53    144    153 304.2  20.9  34142  289.26 0855.07
2009/04/23 11:59:15.1    -148     15     52    149    158 276.1  19.4  34142  289.26 0855.08
2009/04/23 11:59:15.2    -275     28     53    277    283 275.9  11.0  34140  289.24 0855.08
2009/04/23 11:59:15.3    -251      7     59    252    259 271.7  13.2  34138  289.19 0855.08
2009/04/23 11:59:15.4    -231     38    105    235    257 279.5  25.7  34138  289.20 0855.08
2009/04/23 11:59:15.5    -167    132     65    214    224 308.4  17.1  34136  289.16 0855.08
2009/04/23 11:59:15.6     -78    198     89    214    231 338.4  23.6  34140  289.23 0855.08
2009/04/23 11:59:15.7     -58    181    114    191    222 342.2  33.7  34144  289.30 0855.08
2009/04/23 11:59:15.8    -156     73     95    173    197 295.1  31.4  34146  289.33 0855.08
2009/04/23 11:59:15.9     -10     92     59     93    110 353.3  35.5  34152  289.45 0855.08
2009/04/23 11:59:16.0     -27    137     81    140    161 348.5  32.7  34158  289.55 0855.08
2009/04/23 11:59:16.1     -60    180     67    190    201 341.5  20.0  34146  289.33 0855.08
2009/04/23 11:59:16.2    -148    190     88    241    256 322.1  20.9  34156  289.51 0855.08
2009/04/23 11:59:16.3    -110    199     97    228    247 331.0  24.3  34216  290.51 0855.08
2009/04/23 11:59:16.4     -80    206     43    222    227 338.8  11.0  34228  290.72 0855.08
2009/04/23 11:59:16.5     -91    185     96    207    228 333.9  27.1  34192  290.11 0855.08
2009/04/23 11:59:16.6    -113    133     26    175    177 319.7   8.5  34182  289.96 0855.08
2009/04/23 11:59:16.7     -66    182     61    194    204 340.0  17.7  34154  289.48 0855.08
2009/04/23 11:59:16.8    -169    206    118    267    291 320.6  25.2  34172  289.78 0855.08
2009/04/23 11:59:16.9    -217    151     17    265    266 304.9   3.8  34166  289.66 0855.08
2009/04/23 11:59:17.0    -177    130    -68    220    231 306.4 -17.3  34174  289.80 0855.08
2009/04/23 11:59:17.1     -65    228     51    238    244 344.0  12.2  34176  289.85 0855.06
2009/04/23 11:59:17.2    -158    163    108    228    252 315.9  27.2  34168  289.71 0855.06
2009/04/23 11:59:17.3    -126    198     63    235    244 327.5  15.2  34200  290.26 0855.06
2009/04/23 11:59:17.4     -95    185     39    209    213 332.8  10.8  34228  290.74 0855.06
2009/04/23 11:59:17.5    -114    165     33    201    204 325.3   9.5  34220  290.60 0855.06
2009/04/23 11:59:17.6    -107    158     36    191    195 325.9  10.8  34216  290.52 0855.06
2009/04/23 11:59:17.7    -104    104     23    148    150 315.0   9.0  34180  289.92 0855.06
2009/04/23 11:59:17.8    -118     56      4    131    132 295.3   1.8  34174  289.80 0855.06
2009/04/23 11:59:17.9    -118     85    -40    146    152 305.9 -15.5  34176  289.84 0855.06
2009/04/23 11:59:18.0     -89     61    -24    109    112 304.6 -12.4  34174  289.82 0855.06
2009/04/23 11:59:18.1     -41     96     31    105    110 336.8  16.8  34178  289.89 0855.06
2009/04/23 11:59:18.2      21     90     16     93     95  13.4  10.1  34178  289.89 0855.06
2009/04/23 11:59:18.3     -77    113     51    137    146 325.8  21.0  34200  290.25 0855.06
2009/04/23 11:59:18.4     -90    152     97    177    201 329.3  31.4  34210  290.43 0855.06
2009/04/23 11:59:18.5    -112    155     50    192    199 324.2  14.7  34228  290.72 0855.06
2009/04/23 11:59:18.6    -129    153     18    201    202 319.9   5.2  34210  290.43 0855.06
2009/04/23 11:59:18.7    -162    163     24    230    232 315.2   6.1  34220  290.58 0855.06
2009/04/23 11:59:18.8     -97    176     82    201    217 331.1  23.1  34246  291.04 0855.06
2009/04/23 11:59:18.9    -128    100     93    163    187 308.0  32.4  34254  291.16 0855.06
2009/04/23 11:59:19.0    -137    129     61    189    199 313.3  17.9  34244  290.99 0855.06
2009/04/23 11:59:19.1    -125    123     75    176    191 314.4  24.3  34224  290.65 0855.02
2009/04/23 11:59:19.2    -175     68     71    188    200 291.3  21.5  34220  290.60 0855.02
2009/04/23 11:59:19.3     -76     25    110     81    136 288.2  60.5  34224  290.65 0855.02
2009/04/23 11:59:19.4    -176     13     79    177    193 274.4  25.9  34210  290.41 0855.02
2009/04/23 11:59:19.5    -228    103     86    251    266 294.4  18.9  34212  290.44 0855.02
2009/04/23 11:59:19.6    -177     63     95    189    211 289.7  28.7  34188  290.06 0855.02
2009/04/23 11:59:19.7    -206     41     82    211    226 281.2  22.5  34196  290.19 0855.02
2009/04/23 11:59:19.8    -282     56    -11    288    289 281.2  -2.2  34174  289.81 0855.02
2009/04/23 11:59:19.9    -312     98    -25    328    330 287.5  -4.5  34214  290.48 0855.02
2009/04/23 11:59:20.0    -191     56    115    200    230 286.4  32.4  34202  290.28 0855.02
2009/04/23 11:59:20.1    -198    108    149    226    270 298.8  36.3  34218  290.56 0855.00
2009/04/23 11:59:20.2    -290    104     48    309    313 289.7   8.9  34204  290.31 0855.00
2009/04/23 11:59:20.3    -265     -5      2    266    267 268.7   0.5  34206  290.34 0855.00
2009/04/23 11:59:20.4    -232     49     46    238    243 281.9  11.1  34212  290.44 0855.00
2009/04/23 11:59:20.5    -228     52     26    234    236 283.0   6.5  34226  290.68 0855.00
2009/04/23 11:59:20.6    -303     66   -110    311    329 282.3 -24.5  34196  290.17 0855.00
2009/04/23 11:59:20.7    -229     87   -107    246    268 290.9 -29.5  34196  290.19 0855.00
2009/04/23 11:59:20.8    -264    -53   -106    270    290 258.6 -27.2  34218  290.54 0855.00
2009/04/23 11:59:20.9    -223    -54   -101    230    251 256.3 -29.6  34212  290.46 0855.00
2009/04/23 11:59:21.0    -143    -13     17    144    146 264.8   6.9  34212  290.45 0855.00
2009/04/23 11:59:21.1    -227     -9     65    228    238 267.5  16.0  34210  290.42 0855.00
2009/04/23 11:59:21.2    -131   -177    -27    221    223 216.5  -7.2  34208  290.40 0855.00
2009/04/23 11:59:21.3     -97   -205    -18    227    228 205.3  -4.6  34200  290.26 0855.00
2009/04/23 11:59:21.4     -75   -171     29    187    190 203.8   9.0  34200  290.26 0855.00
2009/04/23 11:59:21.5     -62   -181     75    192    206 198.9  22.5  34202  290.28 0855.00
2009/04/23 11:59:21.6    -100   -177     83    204    220 209.6  23.1  34202  290.28 0855.00
2009/04/23 11:59:21.7     -18    -95     93     97    134 191.1  49.4  34210  290.43 0855.00
2009/04/23 11:59:21.8     -16    -18     44     25     50 221.4  67.7  34214  290.48 0855.00
2009/04/23 11:59:21.9      58      4     26     59     64  85.6  24.1  34210  290.43 0855.00
2009/04/23 11:59:22.0     107    -59     -6    123    124 118.8  -3.1  34206  290.35 0855.00
2009/04/23 11:59:22.1      -7   -131    -89    132    159 183.1 -41.7  34222  290.62 0854.99
2009/04/23 11:59:22.2     -11   -149   -200    150    250 184.5 -63.8  34220  290.60 0854.99
2009/04/23 11:59:22.3     -30   -160   -132    163    209 190.7 -47.9  34214  290.50 0854.99
2009/04/23 11:59:22.4      24     -8   -166     26    168 108.2 -90.0  34220  290.58 0854.99
2009/04/23 11:59:22.5      52    -32   -148     62    160 121.5 -80.5  34214  290.50 0854.99
2009/04/23 11:59:22.6     129   -137    -81    189    205 136.8 -29.3  34202  290.30 0854.99
2009/04/23 11:59:22.7      91   -110    -42    143    149 140.4 -21.2  34204  290.33 0854.99
2009/04/23 11:59:22.8      62    -26    -44     68     80 112.6 -40.4  34206  290.35 0854.99
2009/04/23 11:59:22.9      96     15     48     98    109  80.8  27.8  34206  290.35 0854.99
2009/04/23 11:59:23.0     162     36    148    167    223  77.4  46.2  34200  290.26 0854.99
2009/04/23 11:59:23.1     108      1    186    109    215  89.1  67.0  34200  290.26 0854.99
2009/04/23 11:59:23.2      16    -82     98     84    129 168.4  55.4  34204  290.33 0854.99
2009/04/23 11:59:23.3      20     27    114     34    118  36.1  82.8  34200  290.25 0854.99
2009/04/23 11:59:23.4      18      3     60     19     62  78.5  81.8  34200  290.26 0854.99
2009/04/23 11:59:23.5      -2   -149    151    150    212 180.9  50.1  34184  289.97 0854.99
2009/04/23 11:59:23.6      65   -269    248    277    371 166.4  46.5  34188  290.03 0854.99
2009/04/23 11:59:23.7     203   -285    177    351    393 144.5  28.9  34192  290.13 0854.99
2009/04/23 11:59:23.8     141   -272     94    307    322 152.6  17.1  34190  290.07 0854.99
2009/04/23 11:59:24.0     257   -267    153    371    401 136.1  23.8  34192  290.11 0854.99
2009/04/23 11:59:24.1     353   -126    131    376    399 109.7  19.3  34164  289.64 0854.99
2009/04/23 11:59:24.1     283    -93    111    298    318 108.2  21.4  34166  289.68 0854.99
2009/04/23 11:59:24.2     228    -53    171    235    290 103.3  39.7  34164  289.64 0854.99
2009/04/23 11:59:24.3     175    -16    169    176    244  95.5  49.0  34160  289.58 0854.99
2009/04/23 11:59:24.4     185    -25    157    187    244  97.7  44.3  34164  289.63 0854.99
2009/04/23 11:59:24.5     101     16    164    103    193  80.8  64.7  34168  289.72 0854.99
2009/04/23 11:59:24.6     160    -57    156    171    231 109.7  47.5  34172  289.77 0854.99
2009/04/23 11:59:24.7      84    -84    156    120    196 135.0  58.5  34176  289.85 0854.99
2009/04/23 11:59:24.8     193    -14    162    194    252  94.4  43.8  34180  289.90 0854.99
2009/04/23 11:59:24.9     211    -35    210    214    299  99.5  49.9  34180  289.90 0854.99
2009/04/23 11:59:25.0     189    -15    223    190    292  94.8  55.4  34174  289.81 0854.99
2009/04/23 11:59:25.1     236      3    284    237    369  89.2  56.2  34182  289.94 0854.99
2009/04/23 11:59:25.2     187    -80    211    204    293 113.3  51.2  34174  289.81 0854.99
2009/04/23 11:59:25.3     176   -104    207    205    291 120.7  50.1  34186  290.02 0854.99
2009/04/23 11:59:25.4     177    -70    153    191    244 111.5  43.0  34190  290.08 0854.99
2009/04/23 11:59:25.5     137    -24    147    140    203 100.1  51.4  34182  289.94 0854.99
2009/04/23 11:59:25.6     185     20    156    187    243  83.6  44.1  34184  289.97 0854.99
2009/04/23 11:59:25.7      91      6    184     92    205  85.7  71.7  34180  289.91 0854.99
2009/04/23 11:59:25.8      81     86    145    119    187  43.3  56.4  34176  289.85 0854.99
2009/04/23 11:59:25.9      74     62    137     97    167  50.0  61.3  34184  289.99 0854.99
2009/04/23 11:59:26.0      82     53    142     98    172  57.1  62.4  34184  289.99 0854.99
2009/04/23 11:59:26.1      88     60    144    107    179  55.4  60.0  34188  290.06 0855.00
2009/04/23 11:59:26.2      56     33    139     66    153  59.3  72.9  34192  290.11 0855.00
2009/04/23 11:59:26.3      58     25    139     64    153  66.5  73.5  34188  290.04 0855.00
2009/04/23 11:59:26.4     -52      9    168     53    176 280.6  81.8  34188  290.06 0855.00
2009/04/23 11:59:26.5     -32     52    106     62    122 328.4  66.8  34188  290.06 0855.00
2009/04/23 11:59:26.6     -32     11    114     35    119 290.0  82.7  34192  290.11 0855.00
2009/04/23 11:59:26.7      -7      2    107      8    107 288.6  90.0  34190  290.09 0855.00
2009/04/23 11:59:26.8      13     45     47     48     67  16.9  51.1  34186  290.02 0855.00
2009/04/23 11:59:26.9     -98     19     30    100    105 281.5  16.8  34184  289.97 0855.00
2009/04/23 11:59:27.0    -116     65     32    134    138 299.3  13.7  34182  289.96 0855.00
2009/04/23 11:59:27.1    -161     17     -5    162    163 276.1  -1.8  34178  289.87 0855.00
2009/04/23 11:59:27.2    -159     55    -11    169    170 289.3  -3.7  34178  289.89 0855.00
2009/04/23 11:59:27.3    -118      8    -11    119    120 274.3  -5.6  34180  289.92 0855.00
2009/04/23 11:59:27.4      17    -64    149     67    163 164.9  74.5  34182  289.96 0855.00
2009/04/23 11:59:27.5     -86   -157    122    179    216 208.7  37.6  34198  290.23 0855.00
2009/04/23 11:59:27.6    -152   -209     84    259    273 216.1  18.1  34202  290.29 0855.00
2009/04/23 11:59:27.7    -158   -233     65    282    290 214.2  13.1  34198  290.20 0855.00
2009/04/23 11:59:27.8    -124   -219     91    252    269 209.6  19.9  34198  290.20 0855.00
2009/04/23 11:59:27.9    -128   -168     82    212    227 217.2  22.5  34206  290.36 0855.00
2009/04/23 11:59:28.0    -112   -145    154    184    239 217.6  44.3  34210  290.41 0855.00
2009/04/23 11:59:28.1     -98   -159    129    187    227 211.6  37.8  34206  290.36 0855.00
2009/04/23 11:59:28.2     -75   -143    142    162    215 207.6  45.8  34204  290.33 0855.00
2009/04/23 11:59:28.3     -99   -117    139    154    207 220.1  46.6  34208  290.40 0855.00
2009/04/23 11:59:28.4    -118    -85    197    146    245 234.0  59.8  34188  290.04 0855.00
2009/04/23 11:59:28.6    -172     13    108    173    203 274.4  35.2  34194  290.16 0855.00
2009/04/23 11:59:28.6    -143    -11     72    144    160 265.6  28.5  34190  290.09 0855.00
2009/04/23 11:59:28.8     -97    -25     52    101    113 255.4  28.7  34192  290.13 0855.00
2009/04/23 11:59:28.9     -58    122    109    136    174 334.5  43.0  34190  290.09 0855.00
2009/04/23 11:59:29.0    -140    143    107    201    227 315.7  30.6  34186  290.02 0855.00
2009/04/23 11:59:29.1    -131     91    109    160    193 304.9  37.3  34186  290.02 0855.00
2009/04/23 11:59:29.2    -161    156    104    225    247 314.2  26.4  34184  289.98 0855.00
2009/04/23 11:59:29.3    -201    141    120    246    273 305.0  28.0  34182  289.93 0855.00
2009/04/23 11:59:29.4    -224    142    116    266    290 302.5  25.1  34184  289.97 0855.00
2009/04/23 11:59:29.5    -170    132     94    216    235 308.0  25.1  34182  289.96 0855.00
2009/04/23 11:59:29.6    -205     97     62    228    237 295.4  15.3  34186  290.02 0855.00
2009/04/23 11:59:29.7    -187    132     27    230    232 305.3   6.9  34188  290.06 0855.00
2009/04/23 11:59:29.8    -229     83    100    244    263 290.0  23.4  34190  290.07 0855.00
2009/04/23 11:59:29.9    -201     71    143    214    257 289.5  36.7  34184  289.97 0855.00
2009/04/23 11:59:30.0    -212     36     74    216    229 279.7  18.9  34190  290.09 0855.00
2009/04/23 11:59:30.1    -167     38    101    172    199 283.0  33.1  34186  290.02 0855.00
2009/04/23 11:59:30.2    -130    -30     41    134    141 256.7  17.3  34190  290.09 0855.02
2009/04/23 11:59:30.3    -171    -24     24    173    175 261.9   8.0  34192  290.11 0855.02
2009/04/23 11:59:30.4    -163     31     12    166    167 280.8   4.2  34188  290.06 0855.02
2009/04/23 11:59:30.5    -239    -40     75    243    255 260.3  17.3  34196  290.17 0855.02
2009/04/23 11:59:30.6    -197   -143     82    244    258 234.1  18.6  34182  289.95 0855.02
2009/04/23 11:59:30.7    -172   -114     75    207    220 236.5  20.7  34182  289.96 0855.02
2009/04/23 11:59:30.8    -111   -127     94    170    194 221.2  31.4  34188  290.04 0855.02
2009/04/23 11:59:30.9    -127   -147    102    195    220 220.8  29.8  34184  289.99 0855.02
2009/04/23 11:59:31.0    -131    -92     61    161    172 234.9  21.5  34182  289.96 0855.02
2009/04/23 11:59:31.1       8     -8     64     12     65 135.0  90.0  34184  289.99 0855.02
2009/04/23 11:59:31.2       8   -116     77    117    140 175.6  36.5  34182  289.96 0855.02
2009/04/23 11:59:31.3     -41    -57     95     71    118 216.0  59.4  34182  289.96 0855.02
2009/04/23 11:59:31.4     -28    -44     73     53     90 212.6  60.5  34184  289.97 0855.02
2009/04/23 11:59:31.5     -21    -15     84     27     88 234.0  81.2  34180  289.91 0855.02
2009/04/23 11:59:31.6      69    -26     76     74    106 110.8  50.1  34186  290.01 0855.02
2009/04/23 11:59:31.7      52    -35     26     64     69 124.2  23.0  34186  290.02 0855.02
2009/04/23 11:59:31.8      95   -113     69    148    163 139.9  26.4  34184  289.99 0855.02
2009/04/23 11:59:31.9      32    -68     59     76     96 154.5  42.2  34184  289.99 0855.02
2009/04/23 11:59:32.0     -29    -15     -7     33     34 242.9 -13.4  34186  290.01 0855.02
2009/04/23 11:59:32.1     -22    -90    134     93    163 193.8  62.1  34186  290.01 0855.02
2009/04/23 11:59:32.2     -44    -60     99     75    124 216.0  59.0  34184  289.99 0855.04
2009/04/23 11:59:32.3     -33     40     45     53     69 320.4  43.8  34190  290.09 0855.04
2009/04/23 11:59:32.4     -24     33     57     42     70 323.9  60.5  34192  290.13 0855.04
2009/04/23 11:59:32.5     -85     79     45    117    125 313.1  22.0  34188  290.06 0855.04
2009/04/23 11:59:32.6     -60     76     47     98    108 321.7  27.2  34188  290.06 0855.04
2009/04/23 11:59:32.7     -98     81     -7    128    129 309.5  -3.1  34188  290.06 0855.04
2009/04/23 11:59:32.8    -149     -5    -54    150    159 267.9 -24.8  34188  290.04 0855.04
2009/04/23 11:59:32.9    -147      2    -13    148    149 270.9  -5.1  34188  290.06 0855.04
2009/04/23 11:59:33.0     -92    -26    -55     96    110 254.1 -36.8  34186  290.01 0855.04
2009/04/23 11:59:33.1     -23    -48    -61     54     81 205.5 -58.1  34190  290.08 0855.04
2009/04/23 11:59:33.2      15    -46      2     49     50 161.7   2.9  34186  290.01 0855.04
2009/04/23 11:59:33.3     -55   -109    103    123    160 206.7  44.3  34180  289.92 0855.04
2009/04/23 11:59:33.4     -87   -225     82    242    256 201.2  18.9  34198  290.20 0855.04
2009/04/23 11:59:33.5    -187   -185     68    264    273 225.3  14.5  34206  290.36 0855.04
2009/04/23 11:59:33.6    -201   -107     71    228    239 242.0  17.3  34212  290.46 0855.04
2009/04/23 11:59:33.7     -43    -58     65     73     97 216.1  46.9  34208  290.40 0855.04
2009/04/23 11:59:33.8     -69   -148     58    164    173 204.9  20.0  34202  290.30 0855.04
2009/04/23 11:59:33.9    -148   -132     22    199    201 228.2   6.5  34206  290.35 0855.04
2009/04/23 11:59:34.0    -110   -166     38    200    204 213.6  11.0  34200  290.26 0855.04
2009/04/23 11:59:34.1     -60   -150     34    162    166 202.1  12.0  34198  290.21 0855.04
2009/04/23 11:59:34.2     -28   -141     72    144    160 191.6  28.5  34198  290.21 0855.06
2009/04/23 11:59:34.3     -73    -55     65     92    112 233.1  39.1  34200  290.26 0855.06
2009/04/23 11:59:34.4    -102   -132    -16    167    168 217.8  -5.6  34208  290.40 0855.06
2009/04/23 11:59:34.5    -250   -142    -52    288    293 240.3 -10.3  34214  290.49 0855.06
2009/04/23 11:59:34.6    -212   -156     26    264    266 233.6   5.7  34202  290.29 0855.06
2009/04/23 11:59:34.7    -220   -112    -77    247    259 243.0 -17.3  34182  289.93 0855.06
2009/04/23 11:59:34.8    -298   -195    -85    357    368 236.8 -13.4  34186  290.01 0855.06
2009/04/23 11:59:34.9    -176   -210     43    275    279 219.9   9.0  34196  290.19 0855.06
2009/04/23 11:59:35.0    -361   -199    -69    413    419 241.1  -9.6  34186  290.02 0855.06
2009/04/23 11:59:35.1    -355   -264    -31    443    445 233.4  -4.1  34182  289.95 0855.06
2009/04/23 11:59:35.2    -346   -243   -120    424    441 234.9 -15.9  34166  289.66 0855.06
2009/04/23 11:59:35.3    -463    -38   -118    465    480 265.3 -14.3  34192  290.13 0855.06
2009/04/23 11:59:35.4    -394    -32   -135    396    418 265.3 -23.7  34182  289.95 0855.06
2009/04/23 11:59:35.5    -325    -61   -174    331    373 259.3 -34.4  34158  289.55 0855.06
2009/04/23 11:59:35.6    -356    -77   -160    365    398 257.7 -29.6  34158  289.55 0855.06
2009/04/23 11:59:35.7    -242   -177   -106    300    318 233.8 -24.7  34162  289.59 0855.06
2009/04/23 11:59:35.8    -309   -121   -118    332    352 248.6 -24.7  34158  289.55 0855.06
2009/04/23 11:59:35.9    -247   -157    -91    294    308 237.5 -17.3  34160  289.58 0855.06
2009/04/23 11:59:36.0    -301    -69   -104    309    327 257.0 -18.6  34178  289.86 0855.06
2009/04/23 11:59:36.1    -313   -101   -110    329    346 252.1 -23.6  34172  289.77 0855.06
2009/04/23 11:59:36.2    -370   -132   -125    394    414 250.3 -17.7  34164  289.65 0855.08
2009/04/23 11:59:36.3    -412   -218    -63    467    472 242.1  -7.7  34160  289.56 0855.08
2009/04/23 11:59:36.4    -410   -207    -89    460    469 243.2 -11.0  34152  289.44 0855.08
2009/04/23 11:59:36.5    -408    -91    -55    419    423 257.4  -7.6  34172  289.77 0855.08
2009/04/23 11:59:36.6    -423   -140   -110    446    460 251.6 -13.9  34152  289.44 0855.08
2009/04/23 11:59:36.7    -388   -156   -116    419    435 248.1 -15.5  34154  289.48 0855.08
2009/04/23 11:59:36.8    -346   -129   -124    370    390 249.5 -23.6  34154  289.47 0855.08
2009/04/23 11:59:36.9    -334    -72   -105    342    357 257.8 -21.9  34156  289.50 0855.08
2009/04/23 11:59:37.0    -284    -21    -88    285    299 265.6 -17.3  34154  289.47 0855.08
2009/04/23 11:59:37.1    -288     -4    -74    289    299 269.1 -14.5  34156  289.49 0855.08
2009/04/23 11:59:37.2    -280    -43    -78    284    295 261.2 -15.4  34158  289.53 0855.08
2009/04/23 11:59:37.3    -256    -35    -57    259    266 262.1 -12.4  34158  289.53 0855.08
2009/04/23 11:59:37.4    -222    -10    -20    223    224 267.4  -5.2  34170  289.74 0855.08
2009/04/23 11:59:37.5    -273     -8     75    274    285 268.3  15.3  34202  290.27 0855.08
2009/04/23 11:59:37.6    -265    -11     -5    266    267 267.6  -1.3  34164  289.64 0855.08
2009/04/23 11:59:37.7    -245    -49      3    250    251 258.5   0.8  34176  289.83 0855.08
2009/04/23 11:59:37.8    -195    -78     75    211    225 248.0  19.6  34198  290.23 0855.08
2009/04/23 11:59:37.9    -236   -106      3    259    260 245.8   0.8  34174  289.81 0855.08
2009/04/23 11:59:38.0    -268    -89    115    283    305 251.6  23.1  34202  290.27 0855.08
2009/04/23 11:59:38.1    -231    -62     51    240    246 255.0  12.1  34206  290.36 0855.08
2009/04/23 11:59:38.2    -167    -92     14    191    192 241.1   4.2  34208  290.38 0855.09
2009/04/23 11:59:38.3     -85    -85     37    121    127 225.0  17.3  34202  290.28 0855.09
2009/04/23 11:59:38.4     -75   -104     56    129    140 216.0  25.1  34186  290.02 0855.09
2009/04/23 11:59:38.5    -113    -61     67    129    145 241.6  29.8  34186  290.01 0855.09
2009/04/23 11:59:38.6    -114    -38     80    121    145 251.4  36.0  34208  290.40 0855.09
2009/04/23 11:59:38.7    -214    -47     23    220    222 257.6   6.1  34210  290.43 0855.09
2009/04/23 11:59:38.8    -264     19     -5    265    266 274.3  -1.2  34192  290.10 0855.09
2009/04/23 11:59:38.9    -244     14    -73    245    256 273.5 -16.8  34172  289.76 0855.09
2009/04/23 11:59:39.0    -186    -38    -57    190    199 258.3 -16.8  34174  289.82 0855.09
2009/04/23 11:59:39.1    -160   -101    -38    190    194 237.6 -11.3  34176  289.84 0855.09
2009/04/23 11:59:39.2    -170   -102      0    199    200 238.9  -0.3  34188  290.04 0855.09
2009/04/23 11:59:39.3    -125   -133    -34    183    187 223.3 -10.5  34186  290.02 0855.09
2009/04/23 11:59:39.4     -84   -133     35    158    162 212.5  12.6  34196  290.18 0855.09
2009/04/23 11:59:39.5     -97   -121      9    156    157 218.7   3.6  34192  290.11 0855.09
2009/04/23 11:59:39.6    -107   -162    -24    195    197 213.6  -7.2  34174  289.80 0855.09
2009/04/23 11:59:39.7    -104   -259    -73    280    290 201.8 -14.7  34172  289.76 0855.09
2009/04/23 11:59:39.8     -22   -292    -81    293    305 184.4 -15.5  34162  289.59 0855.09
2009/04/23 11:59:39.9     -42   -209     73    214    227 191.3  18.9  34166  289.69 0855.09
2009/04/23 11:59:40.0    -104   -221    -76    245    256 205.3 -22.3  34154  289.46 0855.09
2009/04/23 11:59:40.1     -59   -215   -118    224    253 195.4 -34.7  34156  289.49 0855.09
2009/04/23 11:59:40.2     -23   -247    -63    249    257 185.4 -14.3  34160  289.56 0855.11
2009/04/23 11:59:40.3     -24   -228    -63    230    239 186.2 -15.4  34158  289.54 0855.11
2009/04/23 11:59:40.4       0   -227    -45    228    233 180.2 -11.3  34158  289.53 0855.11
2009/04/23 11:59:40.5      76   -160    -20    178    180 154.7  -6.7  34156  289.52 0855.11
2009/04/23 11:59:40.6      25   -133     11    136    137 169.3   5.0  34156  289.52 0855.11
2009/04/23 11:59:40.7     -81   -179    -39    197    201 204.5 -11.3  34164  289.65 0855.11
2009/04/23 11:59:40.8      34   -167     14    171    172 168.2   4.9  34160  289.58 0855.11
2009/04/23 11:59:40.9      36   -184     14    188    189 168.9   4.4  34162  289.62 0855.11
2009/04/23 11:59:41.0     -66    -48    -65     82    104 234.1 -47.1  34164  289.65 0855.11
2009/04/23 11:59:41.1     -29   -170    -39    173    178 189.8 -12.9  34162  289.60 0855.11
2009/04/23 11:59:41.2     -41   -278    -46    282    286 188.5  -9.4  34170  289.75 0855.11
2009/04/23 11:59:41.3     -58   -287    -52    293    298 191.5 -10.1  34172  289.78 0855.11
2009/04/23 11:59:41.4     -23   -301    -36    302    305 184.5  -6.9  34168  289.70 0855.11
2009/04/23 11:59:41.5     -36   -306    -32    309    311 186.9  -6.0  34166  289.66 0855.11
2009/04/23 11:59:41.6       3   -226    -49    227    233 179.1 -12.2  34166  289.69 0855.11
2009/04/23 11:59:41.7      20   -217    -27    219    221 174.7  -7.2  34164  289.63 0855.11
2009/04/23 11:59:41.8     -46   -259      2    264    265 190.2   0.5  34164  289.63 0855.11
2009/04/23 11:59:41.9    -102   -234     33    256    259 203.6   7.5  34166  289.68 0855.11
2009/04/23 11:59:42.0    -133   -247     62    281    288 208.3  12.6  34172  289.76 0855.11
2009/04/23 11:59:42.1    -161   -272     -6    317    318 210.7  -1.1  34174  289.81 0855.11
2009/04/23 11:59:42.2    -141   -283     28    317    319 206.5   5.2  34174  289.80 0855.11
2009/04/23 11:59:42.3     -79   -285     -3    296    297 195.6  -0.7  34174  289.80 0855.11
2009/04/23 11:59:42.4    -123   -210    -40    244    248 210.5  -9.3  34170  289.75 0855.11
2009/04/23 11:59:42.5    -167   -147    -53    223    230 228.7 -13.4  34168  289.70 0855.11
2009/04/23 11:59:42.6    -109   -157     16    192    193 214.7   5.0  34168  289.72 0855.11
2009/04/23 11:59:42.7     -46   -139     28    147    150 198.3  11.1  34170  289.75 0855.11
2009/04/23 11:59:42.8     -34   -138     16    143    144 193.8   6.5  34170  289.75 0855.11
2009/04/23 11:59:42.9     -20   -164     71    166    180 187.1  24.3  34166  289.69 0855.11
2009/04/23 11:59:43.0    -134   -149    116    201    232 222.1  32.9  34174  289.80 0855.11
2009/04/23 11:59:43.1     -70   -179     60    193    203 201.4  17.3  34174  289.82 0855.11
2009/04/23 11:59:43.2    -113   -131      7    174    175 220.8   2.5  34190  290.08 0855.10
2009/04/23 11:59:43.3     -17   -125     -7    127    128 188.0  -3.2  34174  289.82 0855.10
2009/04/23 11:59:43.4      -2    -40    -30     41     50 183.6 -44.1  34182  289.96 0855.10
2009/04/23 11:59:43.5     -22    -72    -32     76     82 196.9 -28.5  34182  289.96 0855.10
2009/04/23 11:59:43.6     -49   -104    -23    116    119 205.4 -11.3  34178  289.89 0855.10
2009/04/23 11:59:43.7     -56    -22     -8     61     62 248.3  -8.2  34176  289.85 0855.10
2009/04/23 11:59:43.8     -66     22    -42     70     81 289.1 -38.4  34176  289.85 0855.10
2009/04/23 11:59:43.9    -112     43    -43    121    128 291.3 -24.8  34196  290.18 0855.10
2009/04/23 11:59:44.0    -214    -74    -12    227    228 250.9  -3.1  34190  290.08 0855.10
2009/04/23 11:59:44.1    -202     16    -11    203    204 274.6  -3.2  34188  290.04 0855.10
2009/04/23 11:59:44.2    -133     61   -152    147    211 294.8 -55.3  34186  290.02 0855.10
2009/04/23 11:59:44.3    -147     34   -111    151    187 283.2 -44.3  34188  290.06 0855.10
2009/04/23 11:59:44.4    -125    118    -60    173    183 313.3 -23.8  34182  289.96 0855.10
2009/04/23 11:59:44.5     -95     91     15    132    133 313.6   6.9  34180  289.92 0855.10
2009/04/23 11:59:44.6     -15    170    101    171    198 354.9  33.5  34176  289.85 0855.10
2009/04/23 11:59:44.7      73    142     55    160    170  27.2  19.2  34178  289.89 0855.10
2009/04/23 11:59:44.8     108     63     33    126    131  59.8  14.7  34184  289.97 0855.10
2009/04/23 11:59:44.9      87    -53     63    103    120 121.5  34.4  34186  290.01 0855.10
2009/04/23 11:59:45.0      43    -97     66    107    125 155.9  35.0  34180  289.92 0855.10
2009/04/23 11:59:45.1      48   -154     57    162    171 162.6  20.0  34180  289.92 0855.10
2009/04/23 11:59:45.2      92   -149     22    176    178 148.4   7.2  34178  289.87 0855.10
2009/04/23 11:59:45.3     107   -239      4    262    263 155.9   1.0  34178  289.88 0855.10
2009/04/23 11:59:45.4      51   -171    -31    179    182 163.3 -10.1  34174  289.82 0855.10
2009/04/23 11:59:45.5     142   -129    -80    193    208 132.2 -28.0  34176  289.85 0855.10
2009/04/23 11:59:45.6     194    -40    -53    199    206 101.9 -15.0  34178  289.89 0855.10
2009/04/23 11:59:45.7     128    -99     -6    162    163 127.8  -2.2  34180  289.92 0855.10
2009/04/23 11:59:45.8      70    -94     10    118    119 143.5   4.9  34182  289.94 0855.10
2009/04/23 11:59:45.9      63    -92     95    112    146 145.3  44.3  34178  289.87 0855.10
2009/04/23 11:59:46.0      42   -120     57    128    140 160.4  25.2  34180  289.92 0855.10
2009/04/23 11:59:46.1     -22   -166     52    168    176 187.6  17.3  34180  289.91 0855.10
2009/04/23 11:59:46.2     -90   -238     38    255    258 200.7   8.5  34168  289.70 0855.10
2009/04/23 11:59:46.3    -115   -208    -24    238    240 209.0  -6.0  34174  289.81 0855.10
2009/04/23 11:59:46.4    -123   -130     -5    180    181 223.4  -1.6  34176  289.84 0855.10
2009/04/23 11:59:46.5    -129   -199     -9    238    239 213.0  -2.2  34174  289.80 0855.10
2009/04/23 11:59:46.6    -106   -174     10    204    205 211.4   2.9  34172  289.79 0855.10
2009/04/23 11:59:46.7     -85   -196     28    214    216 203.4   7.5  34168  289.72 0855.10
2009/04/23 11:59:46.8     -58   -217     16    225    226 195.2   4.2  34168  289.70 0855.10
2009/04/23 11:59:46.9     -66   -200     -4    211    212 198.3  -1.1  34172  289.79 0855.10
2009/04/23 11:59:47.0     -54   -151      8    161    162 200.0   2.9  34172  289.79 0855.10
2009/04/23 11:59:47.1     -68   -136     17    153    154 206.7   6.5  34170  289.75 0855.10
2009/04/23 11:59:47.2     -54    -75     32     93     99 215.6  19.2  34170  289.75 0855.11
2009/04/23 11:59:47.3     -25   -101     13    105    106 193.8   7.1  34172  289.79 0855.11
2009/04/23 11:59:47.4      15   -144     28    145    148 173.7  11.0  34170  289.75 0855.11
2009/04/23 11:59:47.5      65   -167     88    180    200 158.8  28.0  34172  289.77 0855.11
2009/04/23 11:59:47.6      78   -236     14    249    250 161.5   3.3  34174  289.80 0855.11
2009/04/23 11:59:47.7      77   -233    -31    246    249 161.7  -7.3  34172  289.76 0855.11
2009/04/23 11:59:47.8      89   -199    -25    219    221 155.9  -6.7  34170  289.74 0855.11
2009/04/23 11:59:47.9      28   -219    -20    221    222 172.7  -5.2  34164  289.65 0855.11
2009/04/23 11:59:48.0     -49   -172     -7    180    181 196.0  -2.2  34168  289.72 0855.11
2009/04/23 11:59:48.1     -87   -157     -3    180    181 209.2  -1.2  34168  289.72 0855.11
2009/04/23 11:59:48.2     -92   -194     19    215    216 205.5   5.2  34170  289.75 0855.11
2009/04/23 11:59:48.3    -117   -229     -5    258    259 207.2  -1.2  34174  289.80 0855.11
2009/04/23 11:59:48.4     -75   -234     86    246    261 197.9  19.4  34172  289.76 0855.11
2009/04/23 11:59:48.5     -42   -248    156    252    296 189.7  34.8  34172  289.78 0855.11
2009/04/23 11:59:48.6     -71   -291    176    300    347 193.8  33.1  34174  289.82 0855.11
2009/04/23 11:59:48.7    -102   -366    222    381    440 195.6  32.9  34176  289.83 0855.11
2009/04/23 11:59:48.8    -185   -355     78    401    409 207.6  11.1  34172  289.78 0855.11
2009/04/23 11:59:48.9    -130   -351    146    375    402 200.3  22.4  34172  289.77 0855.11
2009/04/23 11:59:49.0    -153   -348    140    381    405 203.7  21.0  34174  289.82 0855.11
2009/04/23 11:59:49.1    -136   -349    121    375    395 201.4  17.9  34174  289.82 0855.11
2009/04/23 11:59:49.2    -214   -347     64    408    414 211.6   8.9  34172  289.77 0855.13
2009/04/23 11:59:49.3    -225   -341     67    409    415 213.5   9.3  34168  289.72 0855.13
2009/04/23 11:59:49.4    -130   -303     88    330    342 203.3  15.0  34158  289.54 0855.13
2009/04/23 11:59:49.5     -81   -340    156    350    383 193.5  25.8  34172  289.76 0855.13
2009/04/23 11:59:49.6     -27   -336    238    338    413 184.7  38.6  34164  289.65 0855.13
2009/04/23 11:59:49.7     -31   -293    272    295    401 186.2  47.5  34164  289.64 0855.13
2009/04/23 11:59:49.8    -102   -343    144    358    385 196.6  23.1  34164  289.65 0855.13
2009/04/23 11:59:49.9     -93   -236     95    254    271 201.6  21.0  34166  289.68 0855.13
2009/04/23 11:59:50.0    -128   -222     92    257    272 210.1  20.2  34162  289.61 0855.13
2009/04/23 11:59:50.1    -127    -92     91    158    182 234.0  32.7  34164  289.65 0855.13
2009/04/23 11:59:50.2    -191    -52     70    199    212 254.7  19.4  34172  289.79 0855.13
2009/04/23 11:59:50.3    -135   -164    104    213    237 219.6  28.0  34174  289.80 0855.13
2009/04/23 11:59:50.4     -82   -162     73    182    196 207.0  23.0  34172  289.77 0855.13
2009/04/23 11:59:50.5     -16   -117     71    119    138 188.0  33.5  34168  289.72 0855.13
2009/04/23 11:59:50.6     -14   -123    151    124    195 186.7  56.4  34172  289.79 0855.13
2009/04/23 11:59:50.7     -25   -107     99    110    147 193.4  46.9  34172  289.77 0855.13
2009/04/23 11:59:50.8      18   -126     79    128    150 171.9  35.5  34174  289.80 0855.13
2009/04/23 11:59:50.9     -30   -150     27    154    157 191.5  10.1  34170  289.74 0855.13
2009/04/23 11:59:51.0      -3   -110      5    111    112 181.8   2.9  34172  289.79 0855.13
2009/04/23 11:59:51.1      14   -159     -6    160    161 174.7  -2.2  34172  289.77 0855.13
2009/04/23 11:59:51.2     -13   -128    -45    129    136 186.2 -23.3  34172  289.79 0855.14
2009/04/23 11:59:51.3      -3   -111    -58    112    126 181.8 -33.7  34172  289.79 0855.14
2009/04/23 11:59:51.4      11   -147    -40    148    154 175.6 -15.4  34170  289.74 0855.14
2009/04/23 11:59:51.5      27   -171     60    174    185 170.9  19.2  34170  289.74 0855.14
2009/04/23 11:59:51.6     -47   -177    -36    184    188 194.9 -11.1  34170  289.74 0855.14
2009/04/23 11:59:51.7     -52   -192     27    199    201 195.2   7.8  34170  289.74 0855.14
2009/04/23 11:59:51.8      -3   -190     69    191    203 181.1  20.7  34164  289.65 0855.14
2009/04/23 11:59:51.9     -14   -185     28    186    189 184.5   8.8  34170  289.75 0855.14
2009/04/23 11:59:52.0     -30   -196     40    199    203 188.9  11.4  34170  289.74 0855.14
2009/04/23 11:59:52.1      19   -165     94    167    191 173.3  31.6  34170  289.74 0855.14
2009/04/23 11:59:52.2      27   -166    -21    169    171 170.7  -7.2  34172  289.77 0855.14
2009/04/23 11:59:52.3      34   -102     65    108    126 161.5  34.0  34168  289.70 0855.14
2009/04/23 11:59:52.4     133   -137    103    192    217 135.9  30.8  34160  289.57 0855.14
2009/04/23 11:59:52.5      83    -86    171    120    208 135.8  61.8  34170  289.74 0855.14
2009/04/23 11:59:52.6      64   -109    126    127    178 149.3  50.0  34166  289.69 0855.14
2009/04/23 11:59:52.7      54   -231    107    238    260 166.7  25.9  34162  289.59 0855.14
2009/04/23 11:59:52.8       5   -335     42    336    339 179.1   7.2  34162  289.60 0855.14
2009/04/23 11:59:52.9     -57   -328    203    333    389 189.9  34.3  34164  289.64 0855.14
2009/04/23 11:59:53.0     -93   -258     94    275    291 200.0  18.9  34164  289.64 0855.14
2009/04/23 11:59:53.1     -33   -306     42    308    311 186.3   7.8  34166  289.66 0855.14
2009/04/23 11:59:53.2     -54   -267    106    273    292 191.6  22.3  34164  289.64 0855.13
2009/04/23 11:59:53.3     -38   -202     91    206    225 190.7  25.3  34164  289.63 0855.13
2009/04/23 11:59:53.4      44   -197     67    202    213 167.3  18.4  34168  289.70 0855.13
2009/04/23 11:59:53.5     -22   -179    175    181    251 187.1  49.2  34166  289.67 0855.13
2009/04/23 11:59:53.6     140   -192     80    238    252 143.9  18.6  34168  289.71 0855.13
2009/04/23 11:59:53.8     171   -195     53    260    266 138.8  11.6  34168  289.70 0855.13
2009/04/23 11:59:53.8       7   -250     68    251    261 178.2  15.2  34160  289.56 0855.13
2009/04/23 11:59:53.9     -27   -254     36    256    259 186.2   8.0  34162  289.59 0855.13
2009/04/23 11:59:54.0    -223   -289    -87    366    377 217.7 -13.4  34162  289.60 0855.13
2009/04/23 11:59:54.1    -196   -215    -75    292    302 222.3 -14.5  34160  289.56 0855.13
2009/04/23 11:59:54.3    -130   -244    -41    277    281 208.0  -8.6  34156  289.49 0855.13
2009/04/23 11:59:54.3    -366     51   -281    370    464 278.0 -45.5  34164  289.63 0855.13
2009/04/23 11:59:54.4    -335    220    -15    402    403 303.3  -2.2  34154  289.47 0855.13
2009/04/23 11:59:54.6    -236     81    173    250    304 289.1  38.0  34162  289.59 0855.13
2009/04/23 11:59:54.6    -184     87    120    204    236 295.4  33.4  34162  289.60 0855.13
2009/04/23 11:59:54.7     -53     63     67     83    106 319.5  43.7  34166  289.67 0855.13
2009/04/23 11:59:54.8      67    -72     41     99    107 136.8  23.1  34166  289.67 0855.13
2009/04/23 11:59:54.9     -36   -201    -34    205    208 190.2  -9.6  34160  289.57 0855.13
2009/04/23 11:59:55.1    -116   -261    -82    286    298 204.1 -16.0  34162  289.59 0855.13
2009/04/23 11:59:55.2    -114   -270   -109    294    313 202.8 -25.8  34166  289.66 0855.13
2009/04/23 11:59:55.3    -141   -312    -97    343    357 204.3 -15.8  34164  289.64 0855.13
2009/04/23 11:59:55.4    -194   -229    -21    301    302 220.3  -4.1  34164  289.64 0855.13
2009/04/23 11:59:55.5    -144   -402    -23    428    429 199.7  -3.2  34162  289.61 0855.13
2009/04/23 11:59:55.6     -58   -145     -6    157    158 201.8  -2.3  34162  289.60 0855.13
2009/04/23 11:59:55.7      33   -124     40    129    136 164.9  17.3  34164  289.63 0855.13
2009/04/23 11:59:55.8     -41   -293    189    296    351 188.0  35.6  34164  289.64 0855.13
2009/04/23 11:59:55.9    -102   -343    209    358    414 196.6  32.9  34162  289.62 0855.13
2009/04/23 11:59:56.0     -25   -283    -31    285    287 185.1  -6.2  34160  289.58 0855.13
2009/04/23 11:59:56.1     -16   -214    -27    215    217 184.4  -7.2  34156  289.50 0855.13
2009/04/23 11:59:56.2      62   -206     74    216    229 163.3  18.9  34162  289.60 0855.13
2009/04/23 11:59:56.3      76   -171    130    188    228 155.9  38.0  34164  289.63 0855.13
2009/04/23 11:59:56.4     -32   -232    144    235    275 188.0  34.4  34162  289.59 0855.13
2009/04/23 11:59:56.5     -56   -479     -9    483    484 186.7  -1.2  34160  289.57 0855.13
2009/04/23 11:59:56.6      38   -428   -147    430    455 174.8 -18.9  34162  289.61 0855.13
2009/04/23 11:59:56.7     -59   -220    -17    228    229 195.1  -4.4  34152  289.45 0855.13
2009/04/23 11:59:56.8    -158    -51    110    167    199 252.1  36.5  34152  289.43 0855.13
2009/04/23 11:59:56.9    -182      0    121    183    219 270.0  36.7  34162  289.62 0855.13
2009/04/23 11:59:57.0    -128     -3    142    129    191 268.3  53.0  34162  289.60 0855.13
2009/04/23 11:59:57.1    -138   -106     92    175    197 232.5  29.8  34162  289.60 0855.13
2009/04/23 11:59:57.2     -20   -273    156    274    315 184.4  32.3  34162  289.61 0855.13
2009/04/23 11:59:57.3    -145   -314    123    346    367 204.8  20.2  34160  289.57 0855.14
2009/04/23 11:59:57.4      -5    -86    103     87    134 183.6  55.8  34158  289.55 0855.14
2009/04/23 11:59:57.5      48     23    157     54    166  64.7  81.0  34158  289.55 0855.14
2009/04/23 11:59:57.6      76     25     82     81    115  71.4  49.1  34160  289.58 0855.14
2009/04/23 11:59:57.7     -37    -54     59     66     88 214.3  46.9  34162  289.62 0855.14
2009/04/23 11:59:57.8     -48   -202    -31    208    211 193.6  -8.6  34160  289.57 0855.14
2009/04/23 11:59:57.9     -72   -223    -43    235    239 198.0 -10.4  34162  289.59 0855.14
2009/04/23 11:59:58.0     -34   -155     50    159    167 192.5  17.7  34160  289.58 0855.14
2009/04/23 11:59:58.1     -48   -180    115    187    219 195.1  34.8  34160  289.58 0855.14
2009/04/23 11:59:58.2     -66    -65    149     93    175 225.6  64.9  34164  289.65 0855.14
2009/04/23 11:59:58.3    -115   -191    127    224    257 211.0  32.1  34158  289.54 0855.14
2009/04/23 11:59:58.4       7   -269      5    270    271 178.4   1.2  34162  289.59 0855.14
2009/04/23 11:59:58.5     -40   -143    -60    149    160 195.6 -27.4  34156  289.52 0855.14
2009/04/23 11:59:58.6    -101    -92    -37    137    143 227.8 -15.4  34158  289.55 0855.14
2009/04/23 11:59:58.7     -71    -87    -40    113    119 219.2 -24.4  34158  289.53 0855.14
2009/04/23 11:59:58.8     -98     15    -34    100    105 278.8 -23.3  34154  289.48 0855.14
2009/04/23 11:59:58.9    -429     91     54    439    443 282.1   7.1  34148  289.36 0855.14
2009/04/23 11:59:59.0    -446   -110     53    460    464 256.1   6.6  34162  289.60 0855.14
2009/04/23 11:59:59.1    -126   -152    180    198    267 219.7  47.1  34162  289.61 0855.14
2009/04/23 11:59:59.2     -49   -314     80    318    328 188.9  14.2  34160  289.56 0855.14
2009/04/23 11:59:59.3    -165   -219    -37    275    278 217.0  -7.7  34154  289.46 0855.14
2009/04/23 11:59:59.4    -290   -160     58    332    338 241.1  10.0  34158  289.54 0855.14
2009/04/23 11:59:59.5    -243   -207     83    320    331 229.5  14.7  34158  289.53 0855.14
2009/04/23 11:59:59.6    -352   -139     74    379    387 248.4  11.1  34162  289.59 0855.14
2009/04/23 11:59:59.7    -267   -215     14    344    345 231.2   2.4  34162  289.60 0855.14
2009/04/23 11:59:59.8    -335   -241    104    413    426 234.3  14.2  34162  289.61 0855.14
